<?xml version="1.0" encoding="UTF-8" standalone="no" ?>
<gpx xmlns="http://www.topografix.com/GPX/1/1" xmlns:xsi="http://www.w3.org/2001/XMLSchema-instance" xsi:schemaLocation="http://www.topografix.com/GPX/1/1 http://www.topografix.com/GPX/1/1/gpx.xsd" version="1.1" creator="VisuGPX - https://www.visugpx.com">
  <metadata>
    <name>Hospice de France, étang de la Frêche </name>
    <desc><![CDATA[Belle randonnée de 10km en AR de l'Hospice de France à l'étang de la Frêche. Ne pas suivre le début du parcours après l'Hospice de France sauf si vous voulez vous amusez un peu hors sentier en bord du torrent de la pique, suivre le chemin commun jusqu'à la jonction et suivre étang de la Frêche , passez la cabane et poursuivre sur le chemin bien dessiné, aucune difficulté hormis 2 passages plus pentus.
le paysage est vraiment agréable des pics entourent de petites étendues d'eau qui serpentent avant de descendre dans la vallée un bel endroit pour bivouaquer]]></desc>
  </metadata>
  <trk>
    <name><![CDATA[Hiking]]></name>
    <trkseg>
      <trkpt lat="42.72096" lon="0.6529">
        <ele>1378.7</ele>
        <time>2018-08-08T10:12:34.000Z</time>
      </trkpt>
      <trkpt lat="42.72096" lon="0.6529">
        <ele>1378.7</ele>
        <time>2018-08-08T10:12:35.000Z</time>
      </trkpt>
      <trkpt lat="42.72096" lon="0.6529">
        <ele>1378.7</ele>
        <time>2018-08-08T10:12:36.000Z</time>
      </trkpt>
      <trkpt lat="42.72096" lon="0.6529">
        <ele>1378.7</ele>
        <time>2018-08-08T10:12:37.000Z</time>
      </trkpt>
      <trkpt lat="42.72096" lon="0.6529">
        <ele>1378.7</ele>
        <time>2018-08-08T10:12:38.000Z</time>
      </trkpt>
      <trkpt lat="42.72096" lon="0.6529">
        <ele>1378.7</ele>
        <time>2018-08-08T10:12:39.000Z</time>
      </trkpt>
      <trkpt lat="42.72096" lon="0.6529">
        <ele>1378.7</ele>
        <time>2018-08-08T10:12:40.000Z</time>
      </trkpt>
      <trkpt lat="42.72096" lon="0.6529">
        <ele>1378.7</ele>
        <time>2018-08-08T10:12:41.000Z</time>
      </trkpt>
      <trkpt lat="42.72096" lon="0.6529">
        <ele>1378.7</ele>
        <time>2018-08-08T10:12:42.000Z</time>
      </trkpt>
      <trkpt lat="42.72096" lon="0.6529">
        <ele>1378.7</ele>
        <time>2018-08-08T10:12:43.000Z</time>
      </trkpt>
      <trkpt lat="42.72095" lon="0.6529">
        <ele>1378.7</ele>
        <time>2018-08-08T10:12:44.000Z</time>
      </trkpt>
      <trkpt lat="42.72095" lon="0.6529">
        <ele>1378.7</ele>
        <time>2018-08-08T10:12:45.000Z</time>
      </trkpt>
      <trkpt lat="42.72095" lon="0.6529">
        <ele>1378.7</ele>
        <time>2018-08-08T10:12:46.000Z</time>
      </trkpt>
      <trkpt lat="42.72095" lon="0.6529">
        <ele>1378.7</ele>
        <time>2018-08-08T10:12:47.000Z</time>
      </trkpt>
      <trkpt lat="42.72095" lon="0.6529">
        <ele>1378.7</ele>
        <time>2018-08-08T10:12:48.000Z</time>
      </trkpt>
      <trkpt lat="42.72095" lon="0.6529">
        <ele>1378.7</ele>
        <time>2018-08-08T10:12:49.000Z</time>
      </trkpt>
      <trkpt lat="42.72095" lon="0.6529">
        <ele>1378.7</ele>
        <time>2018-08-08T10:12:50.000Z</time>
      </trkpt>
      <trkpt lat="42.72095" lon="0.6529">
        <ele>1378.7</ele>
        <time>2018-08-08T10:12:51.000Z</time>
      </trkpt>
      <trkpt lat="42.72095" lon="0.65289">
        <ele>1378.7</ele>
        <time>2018-08-08T10:12:52.000Z</time>
      </trkpt>
      <trkpt lat="42.72095" lon="0.65289">
        <ele>1378.7</ele>
        <time>2018-08-08T10:12:53.000Z</time>
      </trkpt>
      <trkpt lat="42.72095" lon="0.65289">
        <ele>1378.7</ele>
        <time>2018-08-08T10:12:54.000Z</time>
      </trkpt>
      <trkpt lat="42.72095" lon="0.65289">
        <ele>1378.7</ele>
        <time>2018-08-08T10:12:55.000Z</time>
      </trkpt>
      <trkpt lat="42.72095" lon="0.65289">
        <ele>1378.7</ele>
        <time>2018-08-08T10:12:56.000Z</time>
      </trkpt>
      <trkpt lat="42.72095" lon="0.65289">
        <ele>1378.7</ele>
        <time>2018-08-08T10:12:57.000Z</time>
      </trkpt>
      <trkpt lat="42.72095" lon="0.65289">
        <ele>1378.7</ele>
        <time>2018-08-08T10:12:58.000Z</time>
      </trkpt>
      <trkpt lat="42.72095" lon="0.65289">
        <ele>1378.7</ele>
        <time>2018-08-08T10:12:59.000Z</time>
      </trkpt>
      <trkpt lat="42.72095" lon="0.65289">
        <ele>1378.7</ele>
        <time>2018-08-08T10:13:00.000Z</time>
      </trkpt>
      <trkpt lat="42.72095" lon="0.65289">
        <ele>1378.7</ele>
        <time>2018-08-08T10:13:01.000Z</time>
      </trkpt>
      <trkpt lat="42.72095" lon="0.65289">
        <ele>1378.7</ele>
        <time>2018-08-08T10:13:02.000Z</time>
      </trkpt>
      <trkpt lat="42.72095" lon="0.65289">
        <ele>1378.7</ele>
        <time>2018-08-08T10:13:03.000Z</time>
      </trkpt>
      <trkpt lat="42.72095" lon="0.65289">
        <ele>1378.7</ele>
        <time>2018-08-08T10:13:04.000Z</time>
      </trkpt>
      <trkpt lat="42.72095" lon="0.65289">
        <ele>1378.7</ele>
        <time>2018-08-08T10:13:05.000Z</time>
      </trkpt>
      <trkpt lat="42.72095" lon="0.65289">
        <ele>1378.7</ele>
        <time>2018-08-08T10:13:06.000Z</time>
      </trkpt>
      <trkpt lat="42.72095" lon="0.65289">
        <ele>1378.7</ele>
        <time>2018-08-08T10:13:07.000Z</time>
      </trkpt>
      <trkpt lat="42.72095" lon="0.65289">
        <ele>1378.7</ele>
        <time>2018-08-08T10:13:08.000Z</time>
      </trkpt>
      <trkpt lat="42.72095" lon="0.65289">
        <ele>1378.7</ele>
        <time>2018-08-08T10:13:09.000Z</time>
      </trkpt>
      <trkpt lat="42.72095" lon="0.65289">
        <ele>1378.7</ele>
        <time>2018-08-08T10:13:10.000Z</time>
      </trkpt>
      <trkpt lat="42.72095" lon="0.65289">
        <ele>1378.7</ele>
        <time>2018-08-08T10:13:11.000Z</time>
      </trkpt>
      <trkpt lat="42.72095" lon="0.65289">
        <ele>1378.7</ele>
        <time>2018-08-08T10:13:12.000Z</time>
      </trkpt>
      <trkpt lat="42.72095" lon="0.65289">
        <ele>1378.7</ele>
        <time>2018-08-08T10:13:13.000Z</time>
      </trkpt>
      <trkpt lat="42.72095" lon="0.65289">
        <ele>1378.7</ele>
        <time>2018-08-08T10:13:14.000Z</time>
      </trkpt>
      <trkpt lat="42.72095" lon="0.65289">
        <ele>1378.7</ele>
        <time>2018-08-08T10:13:15.000Z</time>
      </trkpt>
      <trkpt lat="42.72095" lon="0.65289">
        <ele>1378.7</ele>
        <time>2018-08-08T10:13:16.000Z</time>
      </trkpt>
      <trkpt lat="42.72095" lon="0.65289">
        <ele>1378.8</ele>
        <time>2018-08-08T10:13:17.000Z</time>
      </trkpt>
      <trkpt lat="42.72095" lon="0.65289">
        <ele>1378.8</ele>
        <time>2018-08-08T10:13:18.000Z</time>
      </trkpt>
      <trkpt lat="42.72095" lon="0.65289">
        <ele>1378.8</ele>
        <time>2018-08-08T10:13:19.000Z</time>
      </trkpt>
      <trkpt lat="42.72095" lon="0.65289">
        <ele>1378.8</ele>
        <time>2018-08-08T10:13:20.000Z</time>
      </trkpt>
      <trkpt lat="42.72094" lon="0.65289">
        <ele>1378.8</ele>
        <time>2018-08-08T10:13:21.000Z</time>
      </trkpt>
      <trkpt lat="42.72094" lon="0.65289">
        <ele>1378.8</ele>
        <time>2018-08-08T10:13:22.000Z</time>
      </trkpt>
      <trkpt lat="42.72094" lon="0.65289">
        <ele>1378.8</ele>
        <time>2018-08-08T10:13:23.000Z</time>
      </trkpt>
      <trkpt lat="42.72094" lon="0.65289">
        <ele>1378.8</ele>
        <time>2018-08-08T10:13:24.000Z</time>
      </trkpt>
      <trkpt lat="42.72094" lon="0.65289">
        <ele>1378.9</ele>
        <time>2018-08-08T10:13:25.000Z</time>
      </trkpt>
      <trkpt lat="42.72094" lon="0.6529">
        <ele>1378.9</ele>
        <time>2018-08-08T10:13:26.000Z</time>
      </trkpt>
      <trkpt lat="42.72094" lon="0.6529">
        <ele>1378.9</ele>
        <time>2018-08-08T10:13:27.000Z</time>
      </trkpt>
      <trkpt lat="42.72094" lon="0.6529">
        <ele>1378.9</ele>
        <time>2018-08-08T10:13:28.000Z</time>
      </trkpt>
      <trkpt lat="42.72094" lon="0.6529">
        <ele>1379</ele>
        <time>2018-08-08T10:13:29.000Z</time>
      </trkpt>
      <trkpt lat="42.72094" lon="0.6529">
        <ele>1379</ele>
        <time>2018-08-08T10:13:30.000Z</time>
      </trkpt>
      <trkpt lat="42.72093" lon="0.6529">
        <ele>1379</ele>
        <time>2018-08-08T10:13:31.000Z</time>
      </trkpt>
      <trkpt lat="42.72093" lon="0.6529">
        <ele>1379.1</ele>
        <time>2018-08-08T10:13:32.000Z</time>
      </trkpt>
      <trkpt lat="42.72093" lon="0.6529">
        <ele>1379.1</ele>
        <time>2018-08-08T10:13:33.000Z</time>
      </trkpt>
      <trkpt lat="42.72093" lon="0.6529">
        <ele>1379.1</ele>
        <time>2018-08-08T10:13:34.000Z</time>
      </trkpt>
      <trkpt lat="42.72093" lon="0.6529">
        <ele>1379.2</ele>
        <time>2018-08-08T10:13:35.000Z</time>
      </trkpt>
      <trkpt lat="42.72092" lon="0.6529">
        <ele>1379.2</ele>
        <time>2018-08-08T10:13:36.000Z</time>
      </trkpt>
      <trkpt lat="42.72092" lon="0.6529">
        <ele>1379.3</ele>
        <time>2018-08-08T10:13:37.000Z</time>
      </trkpt>
      <trkpt lat="42.72092" lon="0.6529">
        <ele>1379.3</ele>
        <time>2018-08-08T10:13:38.000Z</time>
      </trkpt>
      <trkpt lat="42.72092" lon="0.6529">
        <ele>1379.4</ele>
        <time>2018-08-08T10:13:39.000Z</time>
      </trkpt>
      <trkpt lat="42.72092" lon="0.6529">
        <ele>1379.4</ele>
        <time>2018-08-08T10:13:40.000Z</time>
      </trkpt>
      <trkpt lat="42.72092" lon="0.6529">
        <ele>1379.4</ele>
        <time>2018-08-08T10:13:41.000Z</time>
      </trkpt>
      <trkpt lat="42.72091" lon="0.65291">
        <ele>1379.5</ele>
        <time>2018-08-08T10:13:42.000Z</time>
      </trkpt>
      <trkpt lat="42.72091" lon="0.65291">
        <ele>1379.5</ele>
        <time>2018-08-08T10:13:43.000Z</time>
      </trkpt>
      <trkpt lat="42.72091" lon="0.65291">
        <ele>1379.5</ele>
        <time>2018-08-08T10:13:44.000Z</time>
      </trkpt>
      <trkpt lat="42.72091" lon="0.65291">
        <ele>1379.6</ele>
        <time>2018-08-08T10:13:45.000Z</time>
      </trkpt>
      <trkpt lat="42.72091" lon="0.65291">
        <ele>1379.6</ele>
        <time>2018-08-08T10:13:46.000Z</time>
      </trkpt>
      <trkpt lat="42.72091" lon="0.65291">
        <ele>1379.6</ele>
        <time>2018-08-08T10:13:47.000Z</time>
      </trkpt>
      <trkpt lat="42.72091" lon="0.65291">
        <ele>1379.6</ele>
        <time>2018-08-08T10:13:48.000Z</time>
      </trkpt>
      <trkpt lat="42.72091" lon="0.65291">
        <ele>1379.7</ele>
        <time>2018-08-08T10:13:49.000Z</time>
      </trkpt>
      <trkpt lat="42.7209" lon="0.65291">
        <ele>1379.7</ele>
        <time>2018-08-08T10:13:50.000Z</time>
      </trkpt>
      <trkpt lat="42.7209" lon="0.65291">
        <ele>1379.7</ele>
        <time>2018-08-08T10:13:51.000Z</time>
      </trkpt>
      <trkpt lat="42.7209" lon="0.65291">
        <ele>1379.7</ele>
        <time>2018-08-08T10:13:52.000Z</time>
      </trkpt>
      <trkpt lat="42.7209" lon="0.65291">
        <ele>1379.7</ele>
        <time>2018-08-08T10:13:53.000Z</time>
      </trkpt>
      <trkpt lat="42.7209" lon="0.65291">
        <ele>1379.7</ele>
        <time>2018-08-08T10:13:54.000Z</time>
      </trkpt>
      <trkpt lat="42.7209" lon="0.65291">
        <ele>1379.7</ele>
        <time>2018-08-08T10:13:55.000Z</time>
      </trkpt>
      <trkpt lat="42.7209" lon="0.65291">
        <ele>1379.7</ele>
        <time>2018-08-08T10:13:56.000Z</time>
      </trkpt>
      <trkpt lat="42.7209" lon="0.65291">
        <ele>1379.7</ele>
        <time>2018-08-08T10:13:57.000Z</time>
      </trkpt>
      <trkpt lat="42.7209" lon="0.65291">
        <ele>1379.7</ele>
        <time>2018-08-08T10:13:58.000Z</time>
      </trkpt>
      <trkpt lat="42.7209" lon="0.65291">
        <ele>1379.7</ele>
        <time>2018-08-08T10:13:59.000Z</time>
      </trkpt>
      <trkpt lat="42.7209" lon="0.65291">
        <ele>1379.7</ele>
        <time>2018-08-08T10:14:00.000Z</time>
      </trkpt>
      <trkpt lat="42.7209" lon="0.65291">
        <ele>1379.7</ele>
        <time>2018-08-08T10:14:01.000Z</time>
      </trkpt>
      <trkpt lat="42.7209" lon="0.65291">
        <ele>1379.7</ele>
        <time>2018-08-08T10:14:02.000Z</time>
      </trkpt>
      <trkpt lat="42.7209" lon="0.65291">
        <ele>1379.7</ele>
        <time>2018-08-08T10:14:03.000Z</time>
      </trkpt>
      <trkpt lat="42.7209" lon="0.65291">
        <ele>1379.7</ele>
        <time>2018-08-08T10:14:04.000Z</time>
      </trkpt>
      <trkpt lat="42.7209" lon="0.65291">
        <ele>1379.7</ele>
        <time>2018-08-08T10:14:05.000Z</time>
      </trkpt>
      <trkpt lat="42.7209" lon="0.65291">
        <ele>1379.7</ele>
        <time>2018-08-08T10:14:06.000Z</time>
      </trkpt>
      <trkpt lat="42.7209" lon="0.65291">
        <ele>1379.7</ele>
        <time>2018-08-08T10:14:07.000Z</time>
      </trkpt>
      <trkpt lat="42.7209" lon="0.65291">
        <ele>1379.7</ele>
        <time>2018-08-08T10:14:08.000Z</time>
      </trkpt>
      <trkpt lat="42.7209" lon="0.65292">
        <ele>1379.8</ele>
        <time>2018-08-08T10:14:09.000Z</time>
      </trkpt>
      <trkpt lat="42.7209" lon="0.65292">
        <ele>1379.8</ele>
        <time>2018-08-08T10:14:10.000Z</time>
      </trkpt>
      <trkpt lat="42.72091" lon="0.65292">
        <ele>1379.8</ele>
        <time>2018-08-08T10:14:11.000Z</time>
      </trkpt>
      <trkpt lat="42.72091" lon="0.65293">
        <ele>1379.9</ele>
        <time>2018-08-08T10:14:12.000Z</time>
      </trkpt>
      <trkpt lat="42.72091" lon="0.65293">
        <ele>1379.9</ele>
        <time>2018-08-08T10:14:13.000Z</time>
      </trkpt>
      <trkpt lat="42.72091" lon="0.65294">
        <ele>1380</ele>
        <time>2018-08-08T10:14:14.000Z</time>
      </trkpt>
      <trkpt lat="42.72091" lon="0.65295">
        <ele>1380</ele>
        <time>2018-08-08T10:14:15.000Z</time>
      </trkpt>
      <trkpt lat="42.72091" lon="0.65296">
        <ele>1380.1</ele>
        <time>2018-08-08T10:14:16.000Z</time>
      </trkpt>
      <trkpt lat="42.72091" lon="0.65296">
        <ele>1380.2</ele>
        <time>2018-08-08T10:14:17.000Z</time>
      </trkpt>
      <trkpt lat="42.72092" lon="0.65297">
        <ele>1380.3</ele>
        <time>2018-08-08T10:14:18.000Z</time>
      </trkpt>
      <trkpt lat="42.72092" lon="0.65298">
        <ele>1380.4</ele>
        <time>2018-08-08T10:14:19.000Z</time>
      </trkpt>
      <trkpt lat="42.72092" lon="0.65299">
        <ele>1380.4</ele>
        <time>2018-08-08T10:14:20.000Z</time>
      </trkpt>
      <trkpt lat="42.72092" lon="0.653">
        <ele>1380.5</ele>
        <time>2018-08-08T10:14:21.000Z</time>
      </trkpt>
      <trkpt lat="42.72092" lon="0.65301">
        <ele>1380.6</ele>
        <time>2018-08-08T10:14:22.000Z</time>
      </trkpt>
      <trkpt lat="42.72092" lon="0.65301">
        <ele>1380.6</ele>
        <time>2018-08-08T10:14:23.000Z</time>
      </trkpt>
      <trkpt lat="42.72092" lon="0.65302">
        <ele>1380.6</ele>
        <time>2018-08-08T10:14:24.000Z</time>
      </trkpt>
      <trkpt lat="42.72093" lon="0.65302">
        <ele>1380.7</ele>
        <time>2018-08-08T10:14:25.000Z</time>
      </trkpt>
      <trkpt lat="42.72093" lon="0.65302">
        <ele>1380.7</ele>
        <time>2018-08-08T10:14:26.000Z</time>
      </trkpt>
      <trkpt lat="42.72093" lon="0.65302">
        <ele>1380.7</ele>
        <time>2018-08-08T10:14:27.000Z</time>
      </trkpt>
      <trkpt lat="42.72093" lon="0.65302">
        <ele>1380.7</ele>
        <time>2018-08-08T10:14:28.000Z</time>
      </trkpt>
      <trkpt lat="42.72093" lon="0.65302">
        <ele>1380.7</ele>
        <time>2018-08-08T10:14:29.000Z</time>
      </trkpt>
      <trkpt lat="42.72093" lon="0.65302">
        <ele>1380.7</ele>
        <time>2018-08-08T10:14:30.000Z</time>
      </trkpt>
      <trkpt lat="42.72093" lon="0.65302">
        <ele>1380.7</ele>
        <time>2018-08-08T10:14:31.000Z</time>
      </trkpt>
      <trkpt lat="42.72093" lon="0.65302">
        <ele>1380.7</ele>
        <time>2018-08-08T10:14:32.000Z</time>
      </trkpt>
      <trkpt lat="42.72093" lon="0.65302">
        <ele>1380.7</ele>
        <time>2018-08-08T10:14:33.000Z</time>
      </trkpt>
      <trkpt lat="42.72093" lon="0.65302">
        <ele>1380.7</ele>
        <time>2018-08-08T10:14:34.000Z</time>
      </trkpt>
      <trkpt lat="42.72093" lon="0.65302">
        <ele>1380.7</ele>
        <time>2018-08-08T10:14:35.000Z</time>
      </trkpt>
      <trkpt lat="42.72093" lon="0.65302">
        <ele>1380.7</ele>
        <time>2018-08-08T10:14:36.000Z</time>
      </trkpt>
      <trkpt lat="42.72093" lon="0.65302">
        <ele>1380.7</ele>
        <time>2018-08-08T10:14:37.000Z</time>
      </trkpt>
      <trkpt lat="42.72093" lon="0.65302">
        <ele>1380.7</ele>
        <time>2018-08-08T10:14:38.000Z</time>
      </trkpt>
      <trkpt lat="42.72093" lon="0.65302">
        <ele>1380.7</ele>
        <time>2018-08-08T10:14:39.000Z</time>
      </trkpt>
      <trkpt lat="42.72093" lon="0.65302">
        <ele>1380.7</ele>
        <time>2018-08-08T10:14:40.000Z</time>
      </trkpt>
      <trkpt lat="42.72093" lon="0.65302">
        <ele>1380.7</ele>
        <time>2018-08-08T10:14:41.000Z</time>
      </trkpt>
      <trkpt lat="42.72093" lon="0.65302">
        <ele>1380.7</ele>
        <time>2018-08-08T10:14:42.000Z</time>
      </trkpt>
      <trkpt lat="42.72093" lon="0.65302">
        <ele>1380.7</ele>
        <time>2018-08-08T10:14:43.000Z</time>
      </trkpt>
      <trkpt lat="42.72093" lon="0.65302">
        <ele>1380.7</ele>
        <time>2018-08-08T10:14:44.000Z</time>
      </trkpt>
      <trkpt lat="42.72093" lon="0.65302">
        <ele>1380.7</ele>
        <time>2018-08-08T10:14:45.000Z</time>
      </trkpt>
      <trkpt lat="42.72093" lon="0.65302">
        <ele>1380.7</ele>
        <time>2018-08-08T10:14:46.000Z</time>
      </trkpt>
      <trkpt lat="42.72093" lon="0.65302">
        <ele>1380.7</ele>
        <time>2018-08-08T10:14:47.000Z</time>
      </trkpt>
      <trkpt lat="42.72093" lon="0.65302">
        <ele>1380.7</ele>
        <time>2018-08-08T10:14:48.000Z</time>
      </trkpt>
      <trkpt lat="42.72093" lon="0.65302">
        <ele>1380.7</ele>
        <time>2018-08-08T10:14:49.000Z</time>
      </trkpt>
      <trkpt lat="42.72093" lon="0.65302">
        <ele>1380.7</ele>
        <time>2018-08-08T10:14:50.000Z</time>
      </trkpt>
      <trkpt lat="42.72093" lon="0.65302">
        <ele>1380.7</ele>
        <time>2018-08-08T10:14:51.000Z</time>
      </trkpt>
      <trkpt lat="42.72093" lon="0.65302">
        <ele>1380.7</ele>
        <time>2018-08-08T10:14:52.000Z</time>
      </trkpt>
      <trkpt lat="42.72093" lon="0.65302">
        <ele>1380.7</ele>
        <time>2018-08-08T10:14:53.000Z</time>
      </trkpt>
      <trkpt lat="42.72093" lon="0.65302">
        <ele>1380.7</ele>
        <time>2018-08-08T10:14:54.000Z</time>
      </trkpt>
      <trkpt lat="42.72093" lon="0.65302">
        <ele>1380.7</ele>
        <time>2018-08-08T10:14:55.000Z</time>
      </trkpt>
      <trkpt lat="42.72093" lon="0.65302">
        <ele>1380.7</ele>
        <time>2018-08-08T10:14:56.000Z</time>
      </trkpt>
      <trkpt lat="42.72093" lon="0.65302">
        <ele>1380.7</ele>
        <time>2018-08-08T10:14:57.000Z</time>
      </trkpt>
      <trkpt lat="42.72093" lon="0.65302">
        <ele>1380.7</ele>
        <time>2018-08-08T10:14:58.000Z</time>
      </trkpt>
      <trkpt lat="42.72093" lon="0.65302">
        <ele>1380.7</ele>
        <time>2018-08-08T10:14:59.000Z</time>
      </trkpt>
      <trkpt lat="42.72093" lon="0.65302">
        <ele>1380.7</ele>
        <time>2018-08-08T10:15:00.000Z</time>
      </trkpt>
      <trkpt lat="42.72093" lon="0.65302">
        <ele>1380.7</ele>
        <time>2018-08-08T10:15:01.000Z</time>
      </trkpt>
      <trkpt lat="42.72093" lon="0.65302">
        <ele>1380.7</ele>
        <time>2018-08-08T10:15:02.000Z</time>
      </trkpt>
      <trkpt lat="42.72093" lon="0.65302">
        <ele>1380.7</ele>
        <time>2018-08-08T10:15:03.000Z</time>
      </trkpt>
      <trkpt lat="42.72093" lon="0.65302">
        <ele>1380.7</ele>
        <time>2018-08-08T10:15:04.000Z</time>
      </trkpt>
      <trkpt lat="42.72093" lon="0.65302">
        <ele>1380.7</ele>
        <time>2018-08-08T10:15:05.000Z</time>
      </trkpt>
      <trkpt lat="42.72093" lon="0.65302">
        <ele>1380.7</ele>
        <time>2018-08-08T10:15:06.000Z</time>
      </trkpt>
      <trkpt lat="42.72093" lon="0.65302">
        <ele>1380.7</ele>
        <time>2018-08-08T10:15:07.000Z</time>
      </trkpt>
      <trkpt lat="42.72093" lon="0.65302">
        <ele>1380.7</ele>
        <time>2018-08-08T10:15:08.000Z</time>
      </trkpt>
      <trkpt lat="42.72093" lon="0.65302">
        <ele>1380.7</ele>
        <time>2018-08-08T10:15:09.000Z</time>
      </trkpt>
      <trkpt lat="42.72093" lon="0.65302">
        <ele>1380.7</ele>
        <time>2018-08-08T10:15:10.000Z</time>
      </trkpt>
      <trkpt lat="42.72093" lon="0.65302">
        <ele>1380.7</ele>
        <time>2018-08-08T10:15:11.000Z</time>
      </trkpt>
      <trkpt lat="42.72093" lon="0.65302">
        <ele>1380.7</ele>
        <time>2018-08-08T10:15:12.000Z</time>
      </trkpt>
      <trkpt lat="42.72093" lon="0.65302">
        <ele>1380.7</ele>
        <time>2018-08-08T10:15:13.000Z</time>
      </trkpt>
      <trkpt lat="42.72093" lon="0.65302">
        <ele>1380.7</ele>
        <time>2018-08-08T10:15:14.000Z</time>
      </trkpt>
      <trkpt lat="42.72093" lon="0.65302">
        <ele>1380.7</ele>
        <time>2018-08-08T10:15:15.000Z</time>
      </trkpt>
      <trkpt lat="42.72093" lon="0.65302">
        <ele>1380.7</ele>
        <time>2018-08-08T10:15:16.000Z</time>
      </trkpt>
      <trkpt lat="42.72093" lon="0.65302">
        <ele>1380.7</ele>
        <time>2018-08-08T10:15:17.000Z</time>
      </trkpt>
      <trkpt lat="42.72093" lon="0.65302">
        <ele>1380.7</ele>
        <time>2018-08-08T10:15:18.000Z</time>
      </trkpt>
      <trkpt lat="42.72093" lon="0.65302">
        <ele>1380.7</ele>
        <time>2018-08-08T10:15:19.000Z</time>
      </trkpt>
      <trkpt lat="42.72093" lon="0.65302">
        <ele>1380.7</ele>
        <time>2018-08-08T10:15:20.000Z</time>
      </trkpt>
      <trkpt lat="42.72093" lon="0.65302">
        <ele>1380.7</ele>
        <time>2018-08-08T10:15:21.000Z</time>
      </trkpt>
      <trkpt lat="42.72093" lon="0.65302">
        <ele>1380.7</ele>
        <time>2018-08-08T10:15:22.000Z</time>
      </trkpt>
      <trkpt lat="42.72093" lon="0.65302">
        <ele>1380.7</ele>
        <time>2018-08-08T10:15:23.000Z</time>
      </trkpt>
      <trkpt lat="42.72093" lon="0.65302">
        <ele>1380.7</ele>
        <time>2018-08-08T10:15:24.000Z</time>
      </trkpt>
      <trkpt lat="42.72093" lon="0.65302">
        <ele>1380.7</ele>
        <time>2018-08-08T10:15:25.000Z</time>
      </trkpt>
      <trkpt lat="42.72093" lon="0.65302">
        <ele>1380.7</ele>
        <time>2018-08-08T10:15:26.000Z</time>
      </trkpt>
      <trkpt lat="42.72093" lon="0.65302">
        <ele>1380.7</ele>
        <time>2018-08-08T10:15:27.000Z</time>
      </trkpt>
      <trkpt lat="42.72093" lon="0.65302">
        <ele>1380.7</ele>
        <time>2018-08-08T10:15:28.000Z</time>
      </trkpt>
      <trkpt lat="42.72093" lon="0.65302">
        <ele>1380.7</ele>
        <time>2018-08-08T10:15:29.000Z</time>
      </trkpt>
      <trkpt lat="42.72093" lon="0.65302">
        <ele>1380.7</ele>
        <time>2018-08-08T10:15:30.000Z</time>
      </trkpt>
      <trkpt lat="42.72093" lon="0.65302">
        <ele>1380.7</ele>
        <time>2018-08-08T10:15:31.000Z</time>
      </trkpt>
      <trkpt lat="42.72093" lon="0.65302">
        <ele>1380.7</ele>
        <time>2018-08-08T10:15:32.000Z</time>
      </trkpt>
      <trkpt lat="42.72093" lon="0.65302">
        <ele>1380.7</ele>
        <time>2018-08-08T10:15:33.000Z</time>
      </trkpt>
      <trkpt lat="42.72093" lon="0.65302">
        <ele>1380.7</ele>
        <time>2018-08-08T10:15:34.000Z</time>
      </trkpt>
      <trkpt lat="42.72093" lon="0.65302">
        <ele>1380.7</ele>
        <time>2018-08-08T10:15:35.000Z</time>
      </trkpt>
      <trkpt lat="42.72093" lon="0.65302">
        <ele>1380.7</ele>
        <time>2018-08-08T10:15:36.000Z</time>
      </trkpt>
      <trkpt lat="42.72093" lon="0.65302">
        <ele>1380.7</ele>
        <time>2018-08-08T10:15:37.000Z</time>
      </trkpt>
      <trkpt lat="42.72093" lon="0.65302">
        <ele>1380.7</ele>
        <time>2018-08-08T10:15:38.000Z</time>
      </trkpt>
      <trkpt lat="42.72093" lon="0.65302">
        <ele>1380.7</ele>
        <time>2018-08-08T10:15:39.000Z</time>
      </trkpt>
      <trkpt lat="42.72093" lon="0.65302">
        <ele>1380.7</ele>
        <time>2018-08-08T10:15:40.000Z</time>
      </trkpt>
      <trkpt lat="42.72093" lon="0.65302">
        <ele>1380.7</ele>
        <time>2018-08-08T10:15:41.000Z</time>
      </trkpt>
      <trkpt lat="42.72093" lon="0.65302">
        <ele>1380.7</ele>
        <time>2018-08-08T10:15:42.000Z</time>
      </trkpt>
      <trkpt lat="42.72093" lon="0.65302">
        <ele>1380.7</ele>
        <time>2018-08-08T10:15:43.000Z</time>
      </trkpt>
      <trkpt lat="42.72093" lon="0.65302">
        <ele>1380.7</ele>
        <time>2018-08-08T10:15:44.000Z</time>
      </trkpt>
      <trkpt lat="42.72093" lon="0.65302">
        <ele>1380.7</ele>
        <time>2018-08-08T10:15:45.000Z</time>
      </trkpt>
      <trkpt lat="42.72093" lon="0.65302">
        <ele>1380.7</ele>
        <time>2018-08-08T10:15:46.000Z</time>
      </trkpt>
      <trkpt lat="42.72093" lon="0.65302">
        <ele>1380.7</ele>
        <time>2018-08-08T10:15:47.000Z</time>
      </trkpt>
      <trkpt lat="42.72093" lon="0.65302">
        <ele>1380.7</ele>
        <time>2018-08-08T10:15:48.000Z</time>
      </trkpt>
      <trkpt lat="42.72093" lon="0.65302">
        <ele>1380.7</ele>
        <time>2018-08-08T10:15:49.000Z</time>
      </trkpt>
      <trkpt lat="42.72093" lon="0.65302">
        <ele>1380.7</ele>
        <time>2018-08-08T10:15:50.000Z</time>
      </trkpt>
      <trkpt lat="42.72093" lon="0.65302">
        <ele>1380.7</ele>
        <time>2018-08-08T10:15:51.000Z</time>
      </trkpt>
      <trkpt lat="42.72093" lon="0.65302">
        <ele>1380.7</ele>
        <time>2018-08-08T10:15:52.000Z</time>
      </trkpt>
      <trkpt lat="42.72093" lon="0.65302">
        <ele>1380.7</ele>
        <time>2018-08-08T10:15:53.000Z</time>
      </trkpt>
      <trkpt lat="42.72093" lon="0.65302">
        <ele>1380.7</ele>
        <time>2018-08-08T10:15:54.000Z</time>
      </trkpt>
      <trkpt lat="42.72093" lon="0.65302">
        <ele>1380.7</ele>
        <time>2018-08-08T10:15:55.000Z</time>
      </trkpt>
      <trkpt lat="42.72093" lon="0.65302">
        <ele>1380.7</ele>
        <time>2018-08-08T10:15:56.000Z</time>
      </trkpt>
      <trkpt lat="42.72093" lon="0.65302">
        <ele>1380.7</ele>
        <time>2018-08-08T10:15:57.000Z</time>
      </trkpt>
      <trkpt lat="42.72093" lon="0.65302">
        <ele>1380.7</ele>
        <time>2018-08-08T10:15:58.000Z</time>
      </trkpt>
      <trkpt lat="42.72093" lon="0.65302">
        <ele>1380.7</ele>
        <time>2018-08-08T10:15:59.000Z</time>
      </trkpt>
      <trkpt lat="42.72093" lon="0.65302">
        <ele>1380.7</ele>
        <time>2018-08-08T10:16:00.000Z</time>
      </trkpt>
      <trkpt lat="42.72093" lon="0.65302">
        <ele>1380.7</ele>
        <time>2018-08-08T10:16:01.000Z</time>
      </trkpt>
      <trkpt lat="42.72093" lon="0.65302">
        <ele>1380.7</ele>
        <time>2018-08-08T10:16:02.000Z</time>
      </trkpt>
      <trkpt lat="42.72093" lon="0.65302">
        <ele>1380.7</ele>
        <time>2018-08-08T10:16:03.000Z</time>
      </trkpt>
      <trkpt lat="42.72093" lon="0.65302">
        <ele>1380.7</ele>
        <time>2018-08-08T10:16:04.000Z</time>
      </trkpt>
      <trkpt lat="42.72093" lon="0.65302">
        <ele>1380.7</ele>
        <time>2018-08-08T10:16:05.000Z</time>
      </trkpt>
      <trkpt lat="42.72093" lon="0.65302">
        <ele>1380.7</ele>
        <time>2018-08-08T10:16:06.000Z</time>
      </trkpt>
      <trkpt lat="42.72093" lon="0.65302">
        <ele>1380.7</ele>
        <time>2018-08-08T10:16:07.000Z</time>
      </trkpt>
      <trkpt lat="42.72093" lon="0.65302">
        <ele>1380.7</ele>
        <time>2018-08-08T10:16:08.000Z</time>
      </trkpt>
      <trkpt lat="42.72093" lon="0.65302">
        <ele>1380.7</ele>
        <time>2018-08-08T10:16:09.000Z</time>
      </trkpt>
      <trkpt lat="42.72093" lon="0.65302">
        <ele>1380.7</ele>
        <time>2018-08-08T10:16:10.000Z</time>
      </trkpt>
      <trkpt lat="42.72093" lon="0.65302">
        <ele>1380.7</ele>
        <time>2018-08-08T10:16:11.000Z</time>
      </trkpt>
      <trkpt lat="42.72093" lon="0.65302">
        <ele>1380.7</ele>
        <time>2018-08-08T10:16:12.000Z</time>
      </trkpt>
      <trkpt lat="42.72093" lon="0.65302">
        <ele>1380.7</ele>
        <time>2018-08-08T10:16:13.000Z</time>
      </trkpt>
      <trkpt lat="42.72093" lon="0.65302">
        <ele>1380.7</ele>
        <time>2018-08-08T10:16:14.000Z</time>
      </trkpt>
      <trkpt lat="42.72093" lon="0.65302">
        <ele>1380.7</ele>
        <time>2018-08-08T10:16:15.000Z</time>
      </trkpt>
      <trkpt lat="42.72093" lon="0.65302">
        <ele>1380.7</ele>
        <time>2018-08-08T10:16:16.000Z</time>
      </trkpt>
      <trkpt lat="42.72093" lon="0.65302">
        <ele>1380.7</ele>
        <time>2018-08-08T10:16:17.000Z</time>
      </trkpt>
      <trkpt lat="42.72093" lon="0.65302">
        <ele>1380.7</ele>
        <time>2018-08-08T10:16:18.000Z</time>
      </trkpt>
      <trkpt lat="42.72093" lon="0.65302">
        <ele>1380.7</ele>
        <time>2018-08-08T10:16:19.000Z</time>
      </trkpt>
      <trkpt lat="42.72093" lon="0.65302">
        <ele>1380.7</ele>
        <time>2018-08-08T10:16:20.000Z</time>
      </trkpt>
      <trkpt lat="42.72093" lon="0.65302">
        <ele>1380.7</ele>
        <time>2018-08-08T10:16:21.000Z</time>
      </trkpt>
      <trkpt lat="42.72093" lon="0.65302">
        <ele>1380.7</ele>
        <time>2018-08-08T10:16:22.000Z</time>
      </trkpt>
      <trkpt lat="42.72093" lon="0.65302">
        <ele>1380.7</ele>
        <time>2018-08-08T10:16:23.000Z</time>
      </trkpt>
      <trkpt lat="42.72093" lon="0.65302">
        <ele>1380.7</ele>
        <time>2018-08-08T10:16:24.000Z</time>
      </trkpt>
      <trkpt lat="42.72093" lon="0.65302">
        <ele>1380.7</ele>
        <time>2018-08-08T10:16:25.000Z</time>
      </trkpt>
      <trkpt lat="42.72093" lon="0.65302">
        <ele>1380.7</ele>
        <time>2018-08-08T10:16:26.000Z</time>
      </trkpt>
      <trkpt lat="42.72093" lon="0.65302">
        <ele>1380.7</ele>
        <time>2018-08-08T10:16:27.000Z</time>
      </trkpt>
      <trkpt lat="42.72093" lon="0.65302">
        <ele>1380.7</ele>
        <time>2018-08-08T10:16:28.000Z</time>
      </trkpt>
      <trkpt lat="42.72093" lon="0.65302">
        <ele>1380.7</ele>
        <time>2018-08-08T10:16:29.000Z</time>
      </trkpt>
      <trkpt lat="42.72093" lon="0.65302">
        <ele>1380.7</ele>
        <time>2018-08-08T10:16:30.000Z</time>
      </trkpt>
      <trkpt lat="42.72093" lon="0.65302">
        <ele>1380.7</ele>
        <time>2018-08-08T10:16:31.000Z</time>
      </trkpt>
      <trkpt lat="42.72093" lon="0.65302">
        <ele>1380.7</ele>
        <time>2018-08-08T10:16:32.000Z</time>
      </trkpt>
      <trkpt lat="42.72093" lon="0.65302">
        <ele>1380.7</ele>
        <time>2018-08-08T10:16:33.000Z</time>
      </trkpt>
      <trkpt lat="42.72093" lon="0.65302">
        <ele>1380.7</ele>
        <time>2018-08-08T10:16:34.000Z</time>
      </trkpt>
      <trkpt lat="42.72093" lon="0.65302">
        <ele>1380.7</ele>
        <time>2018-08-08T10:16:35.000Z</time>
      </trkpt>
      <trkpt lat="42.72093" lon="0.65302">
        <ele>1380.7</ele>
        <time>2018-08-08T10:16:36.000Z</time>
      </trkpt>
      <trkpt lat="42.72093" lon="0.65302">
        <ele>1380.7</ele>
        <time>2018-08-08T10:16:37.000Z</time>
      </trkpt>
      <trkpt lat="42.72093" lon="0.65302">
        <ele>1380.7</ele>
        <time>2018-08-08T10:16:38.000Z</time>
      </trkpt>
      <trkpt lat="42.72093" lon="0.65302">
        <ele>1380.7</ele>
        <time>2018-08-08T10:16:39.000Z</time>
      </trkpt>
      <trkpt lat="42.72093" lon="0.65302">
        <ele>1380.7</ele>
        <time>2018-08-08T10:16:40.000Z</time>
      </trkpt>
      <trkpt lat="42.72093" lon="0.65302">
        <ele>1380.7</ele>
        <time>2018-08-08T10:16:41.000Z</time>
      </trkpt>
      <trkpt lat="42.72093" lon="0.65302">
        <ele>1380.7</ele>
        <time>2018-08-08T10:16:42.000Z</time>
      </trkpt>
      <trkpt lat="42.72093" lon="0.65302">
        <ele>1380.7</ele>
        <time>2018-08-08T10:16:43.000Z</time>
      </trkpt>
      <trkpt lat="42.72093" lon="0.65302">
        <ele>1380.7</ele>
        <time>2018-08-08T10:16:44.000Z</time>
      </trkpt>
      <trkpt lat="42.72093" lon="0.65302">
        <ele>1380.7</ele>
        <time>2018-08-08T10:16:45.000Z</time>
      </trkpt>
      <trkpt lat="42.72093" lon="0.65302">
        <ele>1380.7</ele>
        <time>2018-08-08T10:16:46.000Z</time>
      </trkpt>
      <trkpt lat="42.72093" lon="0.65302">
        <ele>1380.7</ele>
        <time>2018-08-08T10:16:47.000Z</time>
      </trkpt>
      <trkpt lat="42.72093" lon="0.65302">
        <ele>1380.7</ele>
        <time>2018-08-08T10:16:48.000Z</time>
      </trkpt>
      <trkpt lat="42.72093" lon="0.65302">
        <ele>1380.7</ele>
        <time>2018-08-08T10:16:49.000Z</time>
      </trkpt>
      <trkpt lat="42.72093" lon="0.65302">
        <ele>1380.7</ele>
        <time>2018-08-08T10:16:50.000Z</time>
      </trkpt>
      <trkpt lat="42.72093" lon="0.65302">
        <ele>1380.7</ele>
        <time>2018-08-08T10:16:51.000Z</time>
      </trkpt>
      <trkpt lat="42.72093" lon="0.65302">
        <ele>1380.7</ele>
        <time>2018-08-08T10:16:52.000Z</time>
      </trkpt>
      <trkpt lat="42.72093" lon="0.65302">
        <ele>1380.7</ele>
        <time>2018-08-08T10:16:53.000Z</time>
      </trkpt>
      <trkpt lat="42.72093" lon="0.65302">
        <ele>1380.7</ele>
        <time>2018-08-08T10:16:54.000Z</time>
      </trkpt>
      <trkpt lat="42.72093" lon="0.65302">
        <ele>1380.7</ele>
        <time>2018-08-08T10:16:55.000Z</time>
      </trkpt>
      <trkpt lat="42.72093" lon="0.65302">
        <ele>1380.7</ele>
        <time>2018-08-08T10:16:56.000Z</time>
      </trkpt>
      <trkpt lat="42.72093" lon="0.65302">
        <ele>1380.7</ele>
        <time>2018-08-08T10:16:57.000Z</time>
      </trkpt>
      <trkpt lat="42.72093" lon="0.65302">
        <ele>1380.7</ele>
        <time>2018-08-08T10:16:58.000Z</time>
      </trkpt>
      <trkpt lat="42.72093" lon="0.65302">
        <ele>1380.7</ele>
        <time>2018-08-08T10:16:59.000Z</time>
      </trkpt>
      <trkpt lat="42.72093" lon="0.65302">
        <ele>1380.7</ele>
        <time>2018-08-08T10:17:00.000Z</time>
      </trkpt>
      <trkpt lat="42.72093" lon="0.65302">
        <ele>1380.7</ele>
        <time>2018-08-08T10:17:01.000Z</time>
      </trkpt>
      <trkpt lat="42.72093" lon="0.65302">
        <ele>1380.7</ele>
        <time>2018-08-08T10:17:02.000Z</time>
      </trkpt>
      <trkpt lat="42.72093" lon="0.65302">
        <ele>1380.7</ele>
        <time>2018-08-08T10:17:03.000Z</time>
      </trkpt>
      <trkpt lat="42.72093" lon="0.65302">
        <ele>1380.7</ele>
        <time>2018-08-08T10:17:04.000Z</time>
      </trkpt>
      <trkpt lat="42.72093" lon="0.65302">
        <ele>1380.7</ele>
        <time>2018-08-08T10:17:05.000Z</time>
      </trkpt>
      <trkpt lat="42.72093" lon="0.65302">
        <ele>1380.7</ele>
        <time>2018-08-08T10:17:06.000Z</time>
      </trkpt>
      <trkpt lat="42.72093" lon="0.65302">
        <ele>1380.7</ele>
        <time>2018-08-08T10:17:07.000Z</time>
      </trkpt>
      <trkpt lat="42.72093" lon="0.65302">
        <ele>1380.7</ele>
        <time>2018-08-08T10:17:08.000Z</time>
      </trkpt>
      <trkpt lat="42.72093" lon="0.65302">
        <ele>1380.7</ele>
        <time>2018-08-08T10:17:09.000Z</time>
      </trkpt>
      <trkpt lat="42.72093" lon="0.65302">
        <ele>1380.7</ele>
        <time>2018-08-08T10:17:10.000Z</time>
      </trkpt>
      <trkpt lat="42.72093" lon="0.65302">
        <ele>1380.7</ele>
        <time>2018-08-08T10:17:11.000Z</time>
      </trkpt>
      <trkpt lat="42.72093" lon="0.65302">
        <ele>1380.7</ele>
        <time>2018-08-08T10:17:12.000Z</time>
      </trkpt>
      <trkpt lat="42.72093" lon="0.65302">
        <ele>1380.7</ele>
        <time>2018-08-08T10:17:13.000Z</time>
      </trkpt>
      <trkpt lat="42.72093" lon="0.65302">
        <ele>1380.7</ele>
        <time>2018-08-08T10:17:14.000Z</time>
      </trkpt>
      <trkpt lat="42.72093" lon="0.65302">
        <ele>1380.7</ele>
        <time>2018-08-08T10:17:15.000Z</time>
      </trkpt>
      <trkpt lat="42.72093" lon="0.65302">
        <ele>1380.7</ele>
        <time>2018-08-08T10:17:16.000Z</time>
      </trkpt>
      <trkpt lat="42.72093" lon="0.65302">
        <ele>1380.7</ele>
        <time>2018-08-08T10:17:17.000Z</time>
      </trkpt>
      <trkpt lat="42.72093" lon="0.65302">
        <ele>1380.7</ele>
        <time>2018-08-08T10:17:18.000Z</time>
      </trkpt>
      <trkpt lat="42.72093" lon="0.65302">
        <ele>1380.7</ele>
        <time>2018-08-08T10:17:19.000Z</time>
      </trkpt>
      <trkpt lat="42.72093" lon="0.65302">
        <ele>1380.7</ele>
        <time>2018-08-08T10:17:20.000Z</time>
      </trkpt>
      <trkpt lat="42.72093" lon="0.65302">
        <ele>1380.7</ele>
        <time>2018-08-08T10:17:21.000Z</time>
      </trkpt>
      <trkpt lat="42.72093" lon="0.65302">
        <ele>1380.7</ele>
        <time>2018-08-08T10:17:22.000Z</time>
      </trkpt>
      <trkpt lat="42.72093" lon="0.65302">
        <ele>1380.7</ele>
        <time>2018-08-08T10:17:23.000Z</time>
      </trkpt>
      <trkpt lat="42.72093" lon="0.65302">
        <ele>1380.7</ele>
        <time>2018-08-08T10:17:24.000Z</time>
      </trkpt>
      <trkpt lat="42.72093" lon="0.65302">
        <ele>1380.7</ele>
        <time>2018-08-08T10:17:25.000Z</time>
      </trkpt>
      <trkpt lat="42.72093" lon="0.65302">
        <ele>1380.7</ele>
        <time>2018-08-08T10:17:26.000Z</time>
      </trkpt>
      <trkpt lat="42.72093" lon="0.65303">
        <ele>1380.7</ele>
        <time>2018-08-08T10:17:27.000Z</time>
      </trkpt>
      <trkpt lat="42.72092" lon="0.65303">
        <ele>1380.8</ele>
        <time>2018-08-08T10:17:28.000Z</time>
      </trkpt>
      <trkpt lat="42.72092" lon="0.65303">
        <ele>1380.8</ele>
        <time>2018-08-08T10:17:29.000Z</time>
      </trkpt>
      <trkpt lat="42.72092" lon="0.65303">
        <ele>1380.9</ele>
        <time>2018-08-08T10:17:30.000Z</time>
      </trkpt>
      <trkpt lat="42.72092" lon="0.65304">
        <ele>1381</ele>
        <time>2018-08-08T10:17:31.000Z</time>
      </trkpt>
      <trkpt lat="42.72092" lon="0.65305">
        <ele>1381.1</ele>
        <time>2018-08-08T10:17:32.000Z</time>
      </trkpt>
      <trkpt lat="42.72092" lon="0.65305">
        <ele>1381.2</ele>
        <time>2018-08-08T10:17:33.000Z</time>
      </trkpt>
      <trkpt lat="42.72091" lon="0.65306">
        <ele>1381.3</ele>
        <time>2018-08-08T10:17:34.000Z</time>
      </trkpt>
      <trkpt lat="42.72091" lon="0.65306">
        <ele>1381.4</ele>
        <time>2018-08-08T10:17:35.000Z</time>
      </trkpt>
      <trkpt lat="42.72091" lon="0.65307">
        <ele>1381.6</ele>
        <time>2018-08-08T10:17:36.000Z</time>
      </trkpt>
      <trkpt lat="42.72091" lon="0.65308">
        <ele>1381.7</ele>
        <time>2018-08-08T10:17:37.000Z</time>
      </trkpt>
      <trkpt lat="42.7209" lon="0.65308">
        <ele>1381.8</ele>
        <time>2018-08-08T10:17:38.000Z</time>
      </trkpt>
      <trkpt lat="42.7209" lon="0.65308">
        <ele>1381.8</ele>
        <time>2018-08-08T10:17:39.000Z</time>
      </trkpt>
      <trkpt lat="42.7209" lon="0.65309">
        <ele>1381.9</ele>
        <time>2018-08-08T10:17:40.000Z</time>
      </trkpt>
      <trkpt lat="42.7209" lon="0.65309">
        <ele>1382</ele>
        <time>2018-08-08T10:17:41.000Z</time>
      </trkpt>
      <trkpt lat="42.7209" lon="0.65309">
        <ele>1382</ele>
        <time>2018-08-08T10:17:42.000Z</time>
      </trkpt>
      <trkpt lat="42.7209" lon="0.65309">
        <ele>1382.1</ele>
        <time>2018-08-08T10:17:43.000Z</time>
      </trkpt>
      <trkpt lat="42.7209" lon="0.6531">
        <ele>1382.1</ele>
        <time>2018-08-08T10:17:44.000Z</time>
      </trkpt>
      <trkpt lat="42.7209" lon="0.6531">
        <ele>1382.1</ele>
        <time>2018-08-08T10:17:45.000Z</time>
      </trkpt>
      <trkpt lat="42.72089" lon="0.6531">
        <ele>1382.1</ele>
        <time>2018-08-08T10:17:46.000Z</time>
      </trkpt>
      <trkpt lat="42.72089" lon="0.6531">
        <ele>1382.1</ele>
        <time>2018-08-08T10:17:47.000Z</time>
      </trkpt>
      <trkpt lat="42.72089" lon="0.6531">
        <ele>1382.1</ele>
        <time>2018-08-08T10:17:48.000Z</time>
      </trkpt>
      <trkpt lat="42.72089" lon="0.6531">
        <ele>1382.2</ele>
        <time>2018-08-08T10:17:49.000Z</time>
      </trkpt>
      <trkpt lat="42.72089" lon="0.6531">
        <ele>1382.2</ele>
        <time>2018-08-08T10:17:50.000Z</time>
      </trkpt>
      <trkpt lat="42.72089" lon="0.6531">
        <ele>1382.2</ele>
        <time>2018-08-08T10:17:51.000Z</time>
      </trkpt>
      <trkpt lat="42.72089" lon="0.6531">
        <ele>1382.2</ele>
        <time>2018-08-08T10:17:52.000Z</time>
      </trkpt>
      <trkpt lat="42.72089" lon="0.6531">
        <ele>1382.2</ele>
        <time>2018-08-08T10:17:53.000Z</time>
      </trkpt>
      <trkpt lat="42.72089" lon="0.6531">
        <ele>1382.2</ele>
        <time>2018-08-08T10:17:54.000Z</time>
      </trkpt>
      <trkpt lat="42.72089" lon="0.6531">
        <ele>1382.2</ele>
        <time>2018-08-08T10:17:55.000Z</time>
      </trkpt>
      <trkpt lat="42.72089" lon="0.6531">
        <ele>1382.2</ele>
        <time>2018-08-08T10:17:56.000Z</time>
      </trkpt>
      <trkpt lat="42.72089" lon="0.6531">
        <ele>1382.2</ele>
        <time>2018-08-08T10:17:57.000Z</time>
      </trkpt>
      <trkpt lat="42.72089" lon="0.6531">
        <ele>1382.2</ele>
        <time>2018-08-08T10:17:58.000Z</time>
      </trkpt>
      <trkpt lat="42.72089" lon="0.6531">
        <ele>1382.1</ele>
        <time>2018-08-08T10:17:59.000Z</time>
      </trkpt>
      <trkpt lat="42.72089" lon="0.6531">
        <ele>1382.1</ele>
        <time>2018-08-08T10:18:00.000Z</time>
      </trkpt>
      <trkpt lat="42.72089" lon="0.6531">
        <ele>1382.1</ele>
        <time>2018-08-08T10:18:01.000Z</time>
      </trkpt>
      <trkpt lat="42.72089" lon="0.6531">
        <ele>1382.1</ele>
        <time>2018-08-08T10:18:02.000Z</time>
      </trkpt>
      <trkpt lat="42.72089" lon="0.6531">
        <ele>1382.1</ele>
        <time>2018-08-08T10:18:03.000Z</time>
      </trkpt>
      <trkpt lat="42.72089" lon="0.6531">
        <ele>1382.1</ele>
        <time>2018-08-08T10:18:04.000Z</time>
      </trkpt>
      <trkpt lat="42.72089" lon="0.6531">
        <ele>1382.1</ele>
        <time>2018-08-08T10:18:05.000Z</time>
      </trkpt>
      <trkpt lat="42.72089" lon="0.6531">
        <ele>1382.1</ele>
        <time>2018-08-08T10:18:06.000Z</time>
      </trkpt>
      <trkpt lat="42.7209" lon="0.6531">
        <ele>1382.1</ele>
        <time>2018-08-08T10:18:07.000Z</time>
      </trkpt>
      <trkpt lat="42.7209" lon="0.6531">
        <ele>1382.1</ele>
        <time>2018-08-08T10:18:08.000Z</time>
      </trkpt>
      <trkpt lat="42.7209" lon="0.6531">
        <ele>1382.1</ele>
        <time>2018-08-08T10:18:09.000Z</time>
      </trkpt>
      <trkpt lat="42.7209" lon="0.6531">
        <ele>1382.1</ele>
        <time>2018-08-08T10:18:10.000Z</time>
      </trkpt>
      <trkpt lat="42.7209" lon="0.6531">
        <ele>1382.1</ele>
        <time>2018-08-08T10:18:11.000Z</time>
      </trkpt>
      <trkpt lat="42.7209" lon="0.6531">
        <ele>1382.1</ele>
        <time>2018-08-08T10:18:12.000Z</time>
      </trkpt>
      <trkpt lat="42.7209" lon="0.6531">
        <ele>1382.1</ele>
        <time>2018-08-08T10:18:13.000Z</time>
      </trkpt>
      <trkpt lat="42.7209" lon="0.6531">
        <ele>1382.1</ele>
        <time>2018-08-08T10:18:14.000Z</time>
      </trkpt>
      <trkpt lat="42.7209" lon="0.6531">
        <ele>1382.1</ele>
        <time>2018-08-08T10:18:15.000Z</time>
      </trkpt>
      <trkpt lat="42.7209" lon="0.6531">
        <ele>1382.1</ele>
        <time>2018-08-08T10:18:16.000Z</time>
      </trkpt>
      <trkpt lat="42.7209" lon="0.6531">
        <ele>1382.1</ele>
        <time>2018-08-08T10:18:17.000Z</time>
      </trkpt>
      <trkpt lat="42.7209" lon="0.6531">
        <ele>1382.1</ele>
        <time>2018-08-08T10:18:18.000Z</time>
      </trkpt>
      <trkpt lat="42.7209" lon="0.6531">
        <ele>1382.1</ele>
        <time>2018-08-08T10:18:19.000Z</time>
      </trkpt>
      <trkpt lat="42.7209" lon="0.6531">
        <ele>1382.1</ele>
        <time>2018-08-08T10:18:20.000Z</time>
      </trkpt>
      <trkpt lat="42.7209" lon="0.6531">
        <ele>1382.1</ele>
        <time>2018-08-08T10:18:21.000Z</time>
      </trkpt>
      <trkpt lat="42.7209" lon="0.6531">
        <ele>1382.1</ele>
        <time>2018-08-08T10:18:22.000Z</time>
      </trkpt>
      <trkpt lat="42.7209" lon="0.6531">
        <ele>1382.1</ele>
        <time>2018-08-08T10:18:23.000Z</time>
      </trkpt>
      <trkpt lat="42.7209" lon="0.6531">
        <ele>1382.1</ele>
        <time>2018-08-08T10:18:24.000Z</time>
      </trkpt>
      <trkpt lat="42.7209" lon="0.6531">
        <ele>1382.1</ele>
        <time>2018-08-08T10:18:25.000Z</time>
      </trkpt>
      <trkpt lat="42.7209" lon="0.6531">
        <ele>1382.1</ele>
        <time>2018-08-08T10:18:26.000Z</time>
      </trkpt>
      <trkpt lat="42.7209" lon="0.6531">
        <ele>1382.1</ele>
        <time>2018-08-08T10:18:27.000Z</time>
      </trkpt>
      <trkpt lat="42.7209" lon="0.6531">
        <ele>1382.1</ele>
        <time>2018-08-08T10:18:28.000Z</time>
      </trkpt>
      <trkpt lat="42.7209" lon="0.6531">
        <ele>1382.1</ele>
        <time>2018-08-08T10:18:29.000Z</time>
      </trkpt>
      <trkpt lat="42.7209" lon="0.6531">
        <ele>1382.1</ele>
        <time>2018-08-08T10:18:30.000Z</time>
      </trkpt>
      <trkpt lat="42.7209" lon="0.6531">
        <ele>1382.1</ele>
        <time>2018-08-08T10:18:31.000Z</time>
      </trkpt>
      <trkpt lat="42.7209" lon="0.6531">
        <ele>1382.1</ele>
        <time>2018-08-08T10:18:32.000Z</time>
      </trkpt>
      <trkpt lat="42.7209" lon="0.6531">
        <ele>1382.1</ele>
        <time>2018-08-08T10:18:33.000Z</time>
      </trkpt>
      <trkpt lat="42.7209" lon="0.6531">
        <ele>1382.1</ele>
        <time>2018-08-08T10:18:34.000Z</time>
      </trkpt>
      <trkpt lat="42.7209" lon="0.6531">
        <ele>1382.1</ele>
        <time>2018-08-08T10:18:35.000Z</time>
      </trkpt>
      <trkpt lat="42.7209" lon="0.6531">
        <ele>1382.1</ele>
        <time>2018-08-08T10:18:36.000Z</time>
      </trkpt>
      <trkpt lat="42.7209" lon="0.6531">
        <ele>1382.1</ele>
        <time>2018-08-08T10:18:37.000Z</time>
      </trkpt>
      <trkpt lat="42.7209" lon="0.6531">
        <ele>1382.1</ele>
        <time>2018-08-08T10:18:38.000Z</time>
      </trkpt>
      <trkpt lat="42.7209" lon="0.6531">
        <ele>1382.1</ele>
        <time>2018-08-08T10:18:39.000Z</time>
      </trkpt>
      <trkpt lat="42.7209" lon="0.6531">
        <ele>1382.1</ele>
        <time>2018-08-08T10:18:40.000Z</time>
      </trkpt>
      <trkpt lat="42.7209" lon="0.6531">
        <ele>1382.1</ele>
        <time>2018-08-08T10:18:41.000Z</time>
      </trkpt>
      <trkpt lat="42.7209" lon="0.6531">
        <ele>1382.1</ele>
        <time>2018-08-08T10:18:42.000Z</time>
      </trkpt>
      <trkpt lat="42.7209" lon="0.6531">
        <ele>1382.1</ele>
        <time>2018-08-08T10:18:43.000Z</time>
      </trkpt>
      <trkpt lat="42.7209" lon="0.6531">
        <ele>1382.1</ele>
        <time>2018-08-08T10:18:44.000Z</time>
      </trkpt>
      <trkpt lat="42.7209" lon="0.6531">
        <ele>1382.1</ele>
        <time>2018-08-08T10:18:45.000Z</time>
      </trkpt>
      <trkpt lat="42.7209" lon="0.6531">
        <ele>1382.1</ele>
        <time>2018-08-08T10:18:46.000Z</time>
      </trkpt>
      <trkpt lat="42.7209" lon="0.6531">
        <ele>1382.1</ele>
        <time>2018-08-08T10:18:47.000Z</time>
      </trkpt>
      <trkpt lat="42.7209" lon="0.6531">
        <ele>1382.1</ele>
        <time>2018-08-08T10:18:48.000Z</time>
      </trkpt>
      <trkpt lat="42.7209" lon="0.6531">
        <ele>1382.1</ele>
        <time>2018-08-08T10:18:49.000Z</time>
      </trkpt>
      <trkpt lat="42.7209" lon="0.6531">
        <ele>1382.1</ele>
        <time>2018-08-08T10:18:50.000Z</time>
      </trkpt>
      <trkpt lat="42.7209" lon="0.6531">
        <ele>1382.1</ele>
        <time>2018-08-08T10:18:51.000Z</time>
      </trkpt>
      <trkpt lat="42.7209" lon="0.6531">
        <ele>1382.1</ele>
        <time>2018-08-08T10:18:52.000Z</time>
      </trkpt>
      <trkpt lat="42.7209" lon="0.6531">
        <ele>1382.1</ele>
        <time>2018-08-08T10:18:53.000Z</time>
      </trkpt>
      <trkpt lat="42.7209" lon="0.6531">
        <ele>1382.1</ele>
        <time>2018-08-08T10:18:54.000Z</time>
      </trkpt>
      <trkpt lat="42.7209" lon="0.6531">
        <ele>1382.1</ele>
        <time>2018-08-08T10:18:55.000Z</time>
      </trkpt>
      <trkpt lat="42.7209" lon="0.6531">
        <ele>1382.1</ele>
        <time>2018-08-08T10:18:56.000Z</time>
      </trkpt>
      <trkpt lat="42.7209" lon="0.6531">
        <ele>1382.1</ele>
        <time>2018-08-08T10:18:57.000Z</time>
      </trkpt>
      <trkpt lat="42.7209" lon="0.6531">
        <ele>1382.1</ele>
        <time>2018-08-08T10:18:58.000Z</time>
      </trkpt>
      <trkpt lat="42.7209" lon="0.6531">
        <ele>1382.1</ele>
        <time>2018-08-08T10:18:59.000Z</time>
      </trkpt>
      <trkpt lat="42.7209" lon="0.6531">
        <ele>1382.1</ele>
        <time>2018-08-08T10:19:00.000Z</time>
      </trkpt>
      <trkpt lat="42.7209" lon="0.6531">
        <ele>1382.1</ele>
        <time>2018-08-08T10:19:01.000Z</time>
      </trkpt>
      <trkpt lat="42.7209" lon="0.6531">
        <ele>1382.1</ele>
        <time>2018-08-08T10:19:02.000Z</time>
      </trkpt>
      <trkpt lat="42.7209" lon="0.6531">
        <ele>1382.1</ele>
        <time>2018-08-08T10:19:03.000Z</time>
      </trkpt>
      <trkpt lat="42.7209" lon="0.6531">
        <ele>1382.1</ele>
        <time>2018-08-08T10:19:04.000Z</time>
      </trkpt>
      <trkpt lat="42.7209" lon="0.6531">
        <ele>1382.1</ele>
        <time>2018-08-08T10:19:05.000Z</time>
      </trkpt>
      <trkpt lat="42.7209" lon="0.6531">
        <ele>1382.1</ele>
        <time>2018-08-08T10:19:06.000Z</time>
      </trkpt>
      <trkpt lat="42.7209" lon="0.6531">
        <ele>1382.1</ele>
        <time>2018-08-08T10:19:07.000Z</time>
      </trkpt>
      <trkpt lat="42.7209" lon="0.6531">
        <ele>1382.1</ele>
        <time>2018-08-08T10:19:08.000Z</time>
      </trkpt>
      <trkpt lat="42.7209" lon="0.6531">
        <ele>1382.1</ele>
        <time>2018-08-08T10:19:09.000Z</time>
      </trkpt>
      <trkpt lat="42.7209" lon="0.6531">
        <ele>1382.1</ele>
        <time>2018-08-08T10:19:10.000Z</time>
      </trkpt>
      <trkpt lat="42.7209" lon="0.6531">
        <ele>1382.1</ele>
        <time>2018-08-08T10:19:11.000Z</time>
      </trkpt>
      <trkpt lat="42.7209" lon="0.6531">
        <ele>1382.1</ele>
        <time>2018-08-08T10:19:12.000Z</time>
      </trkpt>
      <trkpt lat="42.7209" lon="0.6531">
        <ele>1382.1</ele>
        <time>2018-08-08T10:19:13.000Z</time>
      </trkpt>
      <trkpt lat="42.7209" lon="0.6531">
        <ele>1382.1</ele>
        <time>2018-08-08T10:19:14.000Z</time>
      </trkpt>
      <trkpt lat="42.7209" lon="0.6531">
        <ele>1382.1</ele>
        <time>2018-08-08T10:19:15.000Z</time>
      </trkpt>
      <trkpt lat="42.7209" lon="0.6531">
        <ele>1382.1</ele>
        <time>2018-08-08T10:19:16.000Z</time>
      </trkpt>
      <trkpt lat="42.7209" lon="0.6531">
        <ele>1382.1</ele>
        <time>2018-08-08T10:19:17.000Z</time>
      </trkpt>
      <trkpt lat="42.7209" lon="0.6531">
        <ele>1382.1</ele>
        <time>2018-08-08T10:19:18.000Z</time>
      </trkpt>
      <trkpt lat="42.7209" lon="0.6531">
        <ele>1382.1</ele>
        <time>2018-08-08T10:19:19.000Z</time>
      </trkpt>
      <trkpt lat="42.7209" lon="0.6531">
        <ele>1382.1</ele>
        <time>2018-08-08T10:19:20.000Z</time>
      </trkpt>
      <trkpt lat="42.7209" lon="0.6531">
        <ele>1382.1</ele>
        <time>2018-08-08T10:19:21.000Z</time>
      </trkpt>
      <trkpt lat="42.7209" lon="0.6531">
        <ele>1382.1</ele>
        <time>2018-08-08T10:19:22.000Z</time>
      </trkpt>
      <trkpt lat="42.72089" lon="0.6531">
        <ele>1382.1</ele>
        <time>2018-08-08T10:19:23.000Z</time>
      </trkpt>
      <trkpt lat="42.72089" lon="0.6531">
        <ele>1382.1</ele>
        <time>2018-08-08T10:19:24.000Z</time>
      </trkpt>
      <trkpt lat="42.72089" lon="0.6531">
        <ele>1382.1</ele>
        <time>2018-08-08T10:19:25.000Z</time>
      </trkpt>
      <trkpt lat="42.72089" lon="0.6531">
        <ele>1382.2</ele>
        <time>2018-08-08T10:19:26.000Z</time>
      </trkpt>
      <trkpt lat="42.72089" lon="0.65309">
        <ele>1382.2</ele>
        <time>2018-08-08T10:19:27.000Z</time>
      </trkpt>
      <trkpt lat="42.72089" lon="0.65309">
        <ele>1382.2</ele>
        <time>2018-08-08T10:19:28.000Z</time>
      </trkpt>
      <trkpt lat="42.72088" lon="0.65309">
        <ele>1382.2</ele>
        <time>2018-08-08T10:19:29.000Z</time>
      </trkpt>
      <trkpt lat="42.72088" lon="0.65309">
        <ele>1382.3</ele>
        <time>2018-08-08T10:19:30.000Z</time>
      </trkpt>
      <trkpt lat="42.72088" lon="0.65309">
        <ele>1382.3</ele>
        <time>2018-08-08T10:19:31.000Z</time>
      </trkpt>
      <trkpt lat="42.72087" lon="0.65308">
        <ele>1382.3</ele>
        <time>2018-08-08T10:19:32.000Z</time>
      </trkpt>
      <trkpt lat="42.72087" lon="0.65308">
        <ele>1382.4</ele>
        <time>2018-08-08T10:19:33.000Z</time>
      </trkpt>
      <trkpt lat="42.72086" lon="0.65308">
        <ele>1382.4</ele>
        <time>2018-08-08T10:19:34.000Z</time>
      </trkpt>
      <trkpt lat="42.72086" lon="0.65307">
        <ele>1382.5</ele>
        <time>2018-08-08T10:19:35.000Z</time>
      </trkpt>
      <trkpt lat="42.72085" lon="0.65307">
        <ele>1382.5</ele>
        <time>2018-08-08T10:19:36.000Z</time>
      </trkpt>
      <trkpt lat="42.72085" lon="0.65307">
        <ele>1382.6</ele>
        <time>2018-08-08T10:19:37.000Z</time>
      </trkpt>
      <trkpt lat="42.72084" lon="0.65306">
        <ele>1382.6</ele>
        <time>2018-08-08T10:19:38.000Z</time>
      </trkpt>
      <trkpt lat="42.72084" lon="0.65306">
        <ele>1382.7</ele>
        <time>2018-08-08T10:19:39.000Z</time>
      </trkpt>
      <trkpt lat="42.72084" lon="0.65306">
        <ele>1382.7</ele>
        <time>2018-08-08T10:19:40.000Z</time>
      </trkpt>
      <trkpt lat="42.72083" lon="0.65306">
        <ele>1382.7</ele>
        <time>2018-08-08T10:19:41.000Z</time>
      </trkpt>
      <trkpt lat="42.72083" lon="0.65306">
        <ele>1382.7</ele>
        <time>2018-08-08T10:19:42.000Z</time>
      </trkpt>
      <trkpt lat="42.72083" lon="0.65305">
        <ele>1382.7</ele>
        <time>2018-08-08T10:19:43.000Z</time>
      </trkpt>
      <trkpt lat="42.72083" lon="0.65305">
        <ele>1382.7</ele>
        <time>2018-08-08T10:19:44.000Z</time>
      </trkpt>
      <trkpt lat="42.72083" lon="0.65305">
        <ele>1382.7</ele>
        <time>2018-08-08T10:19:45.000Z</time>
      </trkpt>
      <trkpt lat="42.72083" lon="0.65305">
        <ele>1382.7</ele>
        <time>2018-08-08T10:19:46.000Z</time>
      </trkpt>
      <trkpt lat="42.72083" lon="0.65305">
        <ele>1382.7</ele>
        <time>2018-08-08T10:19:47.000Z</time>
      </trkpt>
      <trkpt lat="42.72083" lon="0.65305">
        <ele>1382.7</ele>
        <time>2018-08-08T10:19:48.000Z</time>
      </trkpt>
      <trkpt lat="42.72083" lon="0.65305">
        <ele>1382.7</ele>
        <time>2018-08-08T10:19:49.000Z</time>
      </trkpt>
      <trkpt lat="42.72083" lon="0.65305">
        <ele>1382.7</ele>
        <time>2018-08-08T10:19:50.000Z</time>
      </trkpt>
      <trkpt lat="42.72083" lon="0.65305">
        <ele>1382.7</ele>
        <time>2018-08-08T10:19:51.000Z</time>
      </trkpt>
      <trkpt lat="42.72083" lon="0.65305">
        <ele>1382.7</ele>
        <time>2018-08-08T10:19:52.000Z</time>
      </trkpt>
      <trkpt lat="42.72083" lon="0.65305">
        <ele>1382.7</ele>
        <time>2018-08-08T10:19:53.000Z</time>
      </trkpt>
      <trkpt lat="42.72083" lon="0.65305">
        <ele>1382.7</ele>
        <time>2018-08-08T10:19:54.000Z</time>
      </trkpt>
      <trkpt lat="42.72083" lon="0.65305">
        <ele>1382.7</ele>
        <time>2018-08-08T10:19:55.000Z</time>
      </trkpt>
      <trkpt lat="42.72083" lon="0.65305">
        <ele>1382.7</ele>
        <time>2018-08-08T10:19:56.000Z</time>
      </trkpt>
      <trkpt lat="42.72083" lon="0.65305">
        <ele>1382.7</ele>
        <time>2018-08-08T10:19:57.000Z</time>
      </trkpt>
      <trkpt lat="42.72083" lon="0.65305">
        <ele>1382.7</ele>
        <time>2018-08-08T10:19:58.000Z</time>
      </trkpt>
      <trkpt lat="42.72083" lon="0.65305">
        <ele>1382.7</ele>
        <time>2018-08-08T10:19:59.000Z</time>
      </trkpt>
      <trkpt lat="42.72083" lon="0.65305">
        <ele>1382.7</ele>
        <time>2018-08-08T10:20:00.000Z</time>
      </trkpt>
      <trkpt lat="42.72083" lon="0.65305">
        <ele>1382.7</ele>
        <time>2018-08-08T10:20:01.000Z</time>
      </trkpt>
      <trkpt lat="42.72083" lon="0.65305">
        <ele>1382.7</ele>
        <time>2018-08-08T10:20:02.000Z</time>
      </trkpt>
      <trkpt lat="42.72083" lon="0.65305">
        <ele>1382.7</ele>
        <time>2018-08-08T10:20:03.000Z</time>
      </trkpt>
      <trkpt lat="42.72083" lon="0.65305">
        <ele>1382.7</ele>
        <time>2018-08-08T10:20:04.000Z</time>
      </trkpt>
      <trkpt lat="42.72083" lon="0.65305">
        <ele>1382.7</ele>
        <time>2018-08-08T10:20:05.000Z</time>
      </trkpt>
      <trkpt lat="42.72083" lon="0.65305">
        <ele>1382.7</ele>
        <time>2018-08-08T10:20:06.000Z</time>
      </trkpt>
      <trkpt lat="42.72083" lon="0.65305">
        <ele>1382.7</ele>
        <time>2018-08-08T10:20:07.000Z</time>
      </trkpt>
      <trkpt lat="42.72083" lon="0.65305">
        <ele>1382.7</ele>
        <time>2018-08-08T10:20:08.000Z</time>
      </trkpt>
      <trkpt lat="42.72083" lon="0.65305">
        <ele>1382.7</ele>
        <time>2018-08-08T10:20:09.000Z</time>
      </trkpt>
      <trkpt lat="42.72083" lon="0.65305">
        <ele>1382.7</ele>
        <time>2018-08-08T10:20:10.000Z</time>
      </trkpt>
      <trkpt lat="42.72083" lon="0.65305">
        <ele>1382.7</ele>
        <time>2018-08-08T10:20:11.000Z</time>
      </trkpt>
      <trkpt lat="42.72083" lon="0.65305">
        <ele>1382.7</ele>
        <time>2018-08-08T10:20:12.000Z</time>
      </trkpt>
      <trkpt lat="42.72083" lon="0.65305">
        <ele>1382.7</ele>
        <time>2018-08-08T10:20:13.000Z</time>
      </trkpt>
      <trkpt lat="42.72083" lon="0.65305">
        <ele>1382.7</ele>
        <time>2018-08-08T10:20:14.000Z</time>
      </trkpt>
      <trkpt lat="42.72083" lon="0.65305">
        <ele>1382.7</ele>
        <time>2018-08-08T10:20:15.000Z</time>
      </trkpt>
      <trkpt lat="42.72083" lon="0.65305">
        <ele>1382.7</ele>
        <time>2018-08-08T10:20:16.000Z</time>
      </trkpt>
      <trkpt lat="42.72083" lon="0.65305">
        <ele>1382.7</ele>
        <time>2018-08-08T10:20:17.000Z</time>
      </trkpt>
      <trkpt lat="42.72083" lon="0.65305">
        <ele>1382.7</ele>
        <time>2018-08-08T10:20:18.000Z</time>
      </trkpt>
      <trkpt lat="42.72083" lon="0.65305">
        <ele>1382.7</ele>
        <time>2018-08-08T10:20:19.000Z</time>
      </trkpt>
      <trkpt lat="42.72083" lon="0.65305">
        <ele>1382.7</ele>
        <time>2018-08-08T10:20:20.000Z</time>
      </trkpt>
      <trkpt lat="42.72083" lon="0.65305">
        <ele>1382.7</ele>
        <time>2018-08-08T10:20:21.000Z</time>
      </trkpt>
      <trkpt lat="42.72083" lon="0.65305">
        <ele>1382.7</ele>
        <time>2018-08-08T10:20:22.000Z</time>
      </trkpt>
      <trkpt lat="42.72083" lon="0.65305">
        <ele>1382.7</ele>
        <time>2018-08-08T10:20:23.000Z</time>
      </trkpt>
      <trkpt lat="42.72083" lon="0.65305">
        <ele>1382.7</ele>
        <time>2018-08-08T10:20:24.000Z</time>
      </trkpt>
      <trkpt lat="42.72083" lon="0.65305">
        <ele>1382.7</ele>
        <time>2018-08-08T10:20:25.000Z</time>
      </trkpt>
      <trkpt lat="42.72083" lon="0.65305">
        <ele>1382.7</ele>
        <time>2018-08-08T10:20:26.000Z</time>
      </trkpt>
      <trkpt lat="42.72083" lon="0.65305">
        <ele>1382.7</ele>
        <time>2018-08-08T10:20:27.000Z</time>
      </trkpt>
      <trkpt lat="42.72083" lon="0.65305">
        <ele>1382.7</ele>
        <time>2018-08-08T10:20:28.000Z</time>
      </trkpt>
      <trkpt lat="42.72083" lon="0.65305">
        <ele>1382.7</ele>
        <time>2018-08-08T10:20:29.000Z</time>
      </trkpt>
      <trkpt lat="42.72083" lon="0.65305">
        <ele>1382.7</ele>
        <time>2018-08-08T10:20:30.000Z</time>
      </trkpt>
      <trkpt lat="42.72083" lon="0.65305">
        <ele>1382.7</ele>
        <time>2018-08-08T10:20:31.000Z</time>
      </trkpt>
      <trkpt lat="42.72083" lon="0.65305">
        <ele>1382.7</ele>
        <time>2018-08-08T10:20:32.000Z</time>
      </trkpt>
      <trkpt lat="42.72083" lon="0.65305">
        <ele>1382.7</ele>
        <time>2018-08-08T10:20:33.000Z</time>
      </trkpt>
      <trkpt lat="42.72083" lon="0.65305">
        <ele>1382.7</ele>
        <time>2018-08-08T10:20:34.000Z</time>
      </trkpt>
      <trkpt lat="42.72083" lon="0.65305">
        <ele>1382.7</ele>
        <time>2018-08-08T10:20:35.000Z</time>
      </trkpt>
      <trkpt lat="42.72083" lon="0.65305">
        <ele>1382.7</ele>
        <time>2018-08-08T10:20:36.000Z</time>
      </trkpt>
      <trkpt lat="42.72083" lon="0.65306">
        <ele>1382.7</ele>
        <time>2018-08-08T10:20:37.000Z</time>
      </trkpt>
      <trkpt lat="42.72083" lon="0.65306">
        <ele>1382.8</ele>
        <time>2018-08-08T10:20:38.000Z</time>
      </trkpt>
      <trkpt lat="42.72083" lon="0.65306">
        <ele>1382.8</ele>
        <time>2018-08-08T10:20:39.000Z</time>
      </trkpt>
      <trkpt lat="42.72083" lon="0.65306">
        <ele>1382.8</ele>
        <time>2018-08-08T10:20:40.000Z</time>
      </trkpt>
      <trkpt lat="42.72083" lon="0.65306">
        <ele>1382.8</ele>
        <time>2018-08-08T10:20:41.000Z</time>
      </trkpt>
      <trkpt lat="42.72083" lon="0.65306">
        <ele>1382.8</ele>
        <time>2018-08-08T10:20:42.000Z</time>
      </trkpt>
      <trkpt lat="42.72083" lon="0.65307">
        <ele>1382.8</ele>
        <time>2018-08-08T10:20:43.000Z</time>
      </trkpt>
      <trkpt lat="42.72083" lon="0.65307">
        <ele>1382.8</ele>
        <time>2018-08-08T10:20:44.000Z</time>
      </trkpt>
      <trkpt lat="42.72083" lon="0.65307">
        <ele>1382.9</ele>
        <time>2018-08-08T10:20:45.000Z</time>
      </trkpt>
      <trkpt lat="42.72083" lon="0.65307">
        <ele>1382.9</ele>
        <time>2018-08-08T10:20:46.000Z</time>
      </trkpt>
      <trkpt lat="42.72083" lon="0.65308">
        <ele>1382.9</ele>
        <time>2018-08-08T10:20:47.000Z</time>
      </trkpt>
      <trkpt lat="42.72083" lon="0.65308">
        <ele>1383</ele>
        <time>2018-08-08T10:20:48.000Z</time>
      </trkpt>
      <trkpt lat="42.72083" lon="0.65308">
        <ele>1383</ele>
        <time>2018-08-08T10:20:49.000Z</time>
      </trkpt>
      <trkpt lat="42.72083" lon="0.65309">
        <ele>1383.1</ele>
        <time>2018-08-08T10:20:50.000Z</time>
      </trkpt>
      <trkpt lat="42.72083" lon="0.65309">
        <ele>1383.2</ele>
        <time>2018-08-08T10:20:51.000Z</time>
      </trkpt>
      <trkpt lat="42.72083" lon="0.6531">
        <ele>1383.2</ele>
        <time>2018-08-08T10:20:52.000Z</time>
      </trkpt>
      <trkpt lat="42.72082" lon="0.6531">
        <ele>1383.3</ele>
        <time>2018-08-08T10:20:53.000Z</time>
      </trkpt>
      <trkpt lat="42.72082" lon="0.6531">
        <ele>1383.4</ele>
        <time>2018-08-08T10:20:54.000Z</time>
      </trkpt>
      <trkpt lat="42.72081" lon="0.65311">
        <ele>1383.6</ele>
        <time>2018-08-08T10:20:55.000Z</time>
      </trkpt>
      <trkpt lat="42.72081" lon="0.65311">
        <ele>1383.7</ele>
        <time>2018-08-08T10:20:56.000Z</time>
      </trkpt>
      <trkpt lat="42.7208" lon="0.65312">
        <ele>1383.8</ele>
        <time>2018-08-08T10:20:57.000Z</time>
      </trkpt>
      <trkpt lat="42.7208" lon="0.65312">
        <ele>1383.9</ele>
        <time>2018-08-08T10:20:58.000Z</time>
      </trkpt>
      <trkpt lat="42.7208" lon="0.65313">
        <ele>1384</ele>
        <time>2018-08-08T10:20:59.000Z</time>
      </trkpt>
      <trkpt lat="42.72079" lon="0.65313">
        <ele>1384.1</ele>
        <time>2018-08-08T10:21:00.000Z</time>
      </trkpt>
      <trkpt lat="42.72079" lon="0.65314">
        <ele>1384.2</ele>
        <time>2018-08-08T10:21:01.000Z</time>
      </trkpt>
      <trkpt lat="42.72079" lon="0.65314">
        <ele>1384.3</ele>
        <time>2018-08-08T10:21:02.000Z</time>
      </trkpt>
      <trkpt lat="42.72078" lon="0.65315">
        <ele>1384.4</ele>
        <time>2018-08-08T10:21:03.000Z</time>
      </trkpt>
      <trkpt lat="42.72078" lon="0.65315">
        <ele>1384.5</ele>
        <time>2018-08-08T10:21:04.000Z</time>
      </trkpt>
      <trkpt lat="42.72078" lon="0.65316">
        <ele>1384.6</ele>
        <time>2018-08-08T10:21:05.000Z</time>
      </trkpt>
      <trkpt lat="42.72078" lon="0.65316">
        <ele>1384.7</ele>
        <time>2018-08-08T10:21:06.000Z</time>
      </trkpt>
      <trkpt lat="42.72078" lon="0.65317">
        <ele>1384.8</ele>
        <time>2018-08-08T10:21:07.000Z</time>
      </trkpt>
      <trkpt lat="42.72078" lon="0.65318">
        <ele>1384.9</ele>
        <time>2018-08-08T10:21:08.000Z</time>
      </trkpt>
      <trkpt lat="42.72078" lon="0.65318">
        <ele>1385</ele>
        <time>2018-08-08T10:21:09.000Z</time>
      </trkpt>
      <trkpt lat="42.72078" lon="0.65319">
        <ele>1385</ele>
        <time>2018-08-08T10:21:10.000Z</time>
      </trkpt>
      <trkpt lat="42.72078" lon="0.6532">
        <ele>1385.1</ele>
        <time>2018-08-08T10:21:11.000Z</time>
      </trkpt>
      <trkpt lat="42.72078" lon="0.65321">
        <ele>1385.2</ele>
        <time>2018-08-08T10:21:12.000Z</time>
      </trkpt>
      <trkpt lat="42.72078" lon="0.65322">
        <ele>1385.3</ele>
        <time>2018-08-08T10:21:13.000Z</time>
      </trkpt>
      <trkpt lat="42.72078" lon="0.65322">
        <ele>1385.4</ele>
        <time>2018-08-08T10:21:14.000Z</time>
      </trkpt>
      <trkpt lat="42.72078" lon="0.65323">
        <ele>1385.5</ele>
        <time>2018-08-08T10:21:15.000Z</time>
      </trkpt>
      <trkpt lat="42.72078" lon="0.65324">
        <ele>1385.6</ele>
        <time>2018-08-08T10:21:16.000Z</time>
      </trkpt>
      <trkpt lat="42.72078" lon="0.65325">
        <ele>1385.7</ele>
        <time>2018-08-08T10:21:17.000Z</time>
      </trkpt>
      <trkpt lat="42.72078" lon="0.65326">
        <ele>1385.8</ele>
        <time>2018-08-08T10:21:18.000Z</time>
      </trkpt>
      <trkpt lat="42.72078" lon="0.65327">
        <ele>1385.9</ele>
        <time>2018-08-08T10:21:19.000Z</time>
      </trkpt>
      <trkpt lat="42.72078" lon="0.65328">
        <ele>1386</ele>
        <time>2018-08-08T10:21:20.000Z</time>
      </trkpt>
      <trkpt lat="42.72078" lon="0.65329">
        <ele>1386.1</ele>
        <time>2018-08-08T10:21:21.000Z</time>
      </trkpt>
      <trkpt lat="42.72078" lon="0.65329">
        <ele>1386.2</ele>
        <time>2018-08-08T10:21:22.000Z</time>
      </trkpt>
      <trkpt lat="42.72078" lon="0.6533">
        <ele>1386.3</ele>
        <time>2018-08-08T10:21:23.000Z</time>
      </trkpt>
      <trkpt lat="42.72078" lon="0.65331">
        <ele>1386.4</ele>
        <time>2018-08-08T10:21:24.000Z</time>
      </trkpt>
      <trkpt lat="42.72078" lon="0.65332">
        <ele>1386.4</ele>
        <time>2018-08-08T10:21:25.000Z</time>
      </trkpt>
      <trkpt lat="42.72078" lon="0.65332">
        <ele>1386.5</ele>
        <time>2018-08-08T10:21:26.000Z</time>
      </trkpt>
      <trkpt lat="42.72078" lon="0.65333">
        <ele>1386.6</ele>
        <time>2018-08-08T10:21:27.000Z</time>
      </trkpt>
      <trkpt lat="42.72078" lon="0.65333">
        <ele>1386.6</ele>
        <time>2018-08-08T10:21:28.000Z</time>
      </trkpt>
      <trkpt lat="42.72078" lon="0.65333">
        <ele>1386.7</ele>
        <time>2018-08-08T10:21:29.000Z</time>
      </trkpt>
      <trkpt lat="42.72078" lon="0.65334">
        <ele>1386.7</ele>
        <time>2018-08-08T10:21:30.000Z</time>
      </trkpt>
      <trkpt lat="42.72078" lon="0.65334">
        <ele>1386.7</ele>
        <time>2018-08-08T10:21:31.000Z</time>
      </trkpt>
      <trkpt lat="42.72078" lon="0.65334">
        <ele>1386.7</ele>
        <time>2018-08-08T10:21:32.000Z</time>
      </trkpt>
      <trkpt lat="42.72078" lon="0.65335">
        <ele>1386.7</ele>
        <time>2018-08-08T10:21:33.000Z</time>
      </trkpt>
      <trkpt lat="42.72078" lon="0.65335">
        <ele>1386.7</ele>
        <time>2018-08-08T10:21:34.000Z</time>
      </trkpt>
      <trkpt lat="42.72078" lon="0.65335">
        <ele>1386.7</ele>
        <time>2018-08-08T10:21:35.000Z</time>
      </trkpt>
      <trkpt lat="42.72078" lon="0.65335">
        <ele>1386.6</ele>
        <time>2018-08-08T10:21:36.000Z</time>
      </trkpt>
      <trkpt lat="42.72078" lon="0.65336">
        <ele>1386.6</ele>
        <time>2018-08-08T10:21:37.000Z</time>
      </trkpt>
      <trkpt lat="42.72078" lon="0.65336">
        <ele>1386.6</ele>
        <time>2018-08-08T10:21:38.000Z</time>
      </trkpt>
      <trkpt lat="42.72078" lon="0.65337">
        <ele>1386.6</ele>
        <time>2018-08-08T10:21:39.000Z</time>
      </trkpt>
      <trkpt lat="42.72078" lon="0.65337">
        <ele>1386.6</ele>
        <time>2018-08-08T10:21:40.000Z</time>
      </trkpt>
      <trkpt lat="42.72078" lon="0.65338">
        <ele>1386.5</ele>
        <time>2018-08-08T10:21:41.000Z</time>
      </trkpt>
      <trkpt lat="42.72078" lon="0.65339">
        <ele>1386.5</ele>
        <time>2018-08-08T10:21:42.000Z</time>
      </trkpt>
      <trkpt lat="42.72079" lon="0.65339">
        <ele>1386.4</ele>
        <time>2018-08-08T10:21:43.000Z</time>
      </trkpt>
      <trkpt lat="42.72079" lon="0.6534">
        <ele>1386.3</ele>
        <time>2018-08-08T10:21:44.000Z</time>
      </trkpt>
      <trkpt lat="42.72079" lon="0.65341">
        <ele>1386.3</ele>
        <time>2018-08-08T10:21:45.000Z</time>
      </trkpt>
      <trkpt lat="42.7208" lon="0.65343">
        <ele>1386.2</ele>
        <time>2018-08-08T10:21:46.000Z</time>
      </trkpt>
      <trkpt lat="42.7208" lon="0.65344">
        <ele>1386.1</ele>
        <time>2018-08-08T10:21:47.000Z</time>
      </trkpt>
      <trkpt lat="42.7208" lon="0.65345">
        <ele>1386</ele>
        <time>2018-08-08T10:21:48.000Z</time>
      </trkpt>
      <trkpt lat="42.72081" lon="0.65346">
        <ele>1385.9</ele>
        <time>2018-08-08T10:21:49.000Z</time>
      </trkpt>
      <trkpt lat="42.72081" lon="0.65348">
        <ele>1385.8</ele>
        <time>2018-08-08T10:21:50.000Z</time>
      </trkpt>
      <trkpt lat="42.72082" lon="0.65349">
        <ele>1385.7</ele>
        <time>2018-08-08T10:21:51.000Z</time>
      </trkpt>
      <trkpt lat="42.72082" lon="0.6535">
        <ele>1385.6</ele>
        <time>2018-08-08T10:21:52.000Z</time>
      </trkpt>
      <trkpt lat="42.72082" lon="0.65352">
        <ele>1385.5</ele>
        <time>2018-08-08T10:21:53.000Z</time>
      </trkpt>
      <trkpt lat="42.72083" lon="0.65353">
        <ele>1385.3</ele>
        <time>2018-08-08T10:21:54.000Z</time>
      </trkpt>
      <trkpt lat="42.72083" lon="0.65354">
        <ele>1385.2</ele>
        <time>2018-08-08T10:21:55.000Z</time>
      </trkpt>
      <trkpt lat="42.72084" lon="0.65356">
        <ele>1385.1</ele>
        <time>2018-08-08T10:21:56.000Z</time>
      </trkpt>
      <trkpt lat="42.72084" lon="0.65357">
        <ele>1385</ele>
        <time>2018-08-08T10:21:57.000Z</time>
      </trkpt>
      <trkpt lat="42.72085" lon="0.65358">
        <ele>1384.9</ele>
        <time>2018-08-08T10:21:58.000Z</time>
      </trkpt>
      <trkpt lat="42.72085" lon="0.6536">
        <ele>1384.8</ele>
        <time>2018-08-08T10:21:59.000Z</time>
      </trkpt>
      <trkpt lat="42.72086" lon="0.65361">
        <ele>1384.7</ele>
        <time>2018-08-08T10:22:00.000Z</time>
      </trkpt>
      <trkpt lat="42.72086" lon="0.65362">
        <ele>1384.6</ele>
        <time>2018-08-08T10:22:01.000Z</time>
      </trkpt>
      <trkpt lat="42.72087" lon="0.65363">
        <ele>1384.6</ele>
        <time>2018-08-08T10:22:02.000Z</time>
      </trkpt>
      <trkpt lat="42.72087" lon="0.65364">
        <ele>1384.5</ele>
        <time>2018-08-08T10:22:03.000Z</time>
      </trkpt>
      <trkpt lat="42.72087" lon="0.65365">
        <ele>1384.4</ele>
        <time>2018-08-08T10:22:04.000Z</time>
      </trkpt>
      <trkpt lat="42.72088" lon="0.65366">
        <ele>1384.4</ele>
        <time>2018-08-08T10:22:05.000Z</time>
      </trkpt>
      <trkpt lat="42.72088" lon="0.65366">
        <ele>1384.3</ele>
        <time>2018-08-08T10:22:06.000Z</time>
      </trkpt>
      <trkpt lat="42.72088" lon="0.65367">
        <ele>1384.2</ele>
        <time>2018-08-08T10:22:07.000Z</time>
      </trkpt>
      <trkpt lat="42.72089" lon="0.65367">
        <ele>1384.2</ele>
        <time>2018-08-08T10:22:08.000Z</time>
      </trkpt>
      <trkpt lat="42.72089" lon="0.65368">
        <ele>1384.2</ele>
        <time>2018-08-08T10:22:09.000Z</time>
      </trkpt>
      <trkpt lat="42.72089" lon="0.65368">
        <ele>1384.2</ele>
        <time>2018-08-08T10:22:10.000Z</time>
      </trkpt>
      <trkpt lat="42.72089" lon="0.65368">
        <ele>1384.1</ele>
        <time>2018-08-08T10:22:11.000Z</time>
      </trkpt>
      <trkpt lat="42.72089" lon="0.65368">
        <ele>1384.1</ele>
        <time>2018-08-08T10:22:12.000Z</time>
      </trkpt>
      <trkpt lat="42.72089" lon="0.65368">
        <ele>1384.1</ele>
        <time>2018-08-08T10:22:13.000Z</time>
      </trkpt>
      <trkpt lat="42.72089" lon="0.65368">
        <ele>1384.1</ele>
        <time>2018-08-08T10:22:14.000Z</time>
      </trkpt>
      <trkpt lat="42.72089" lon="0.65368">
        <ele>1384.1</ele>
        <time>2018-08-08T10:22:15.000Z</time>
      </trkpt>
      <trkpt lat="42.72089" lon="0.65368">
        <ele>1384.1</ele>
        <time>2018-08-08T10:22:16.000Z</time>
      </trkpt>
      <trkpt lat="42.72089" lon="0.65368">
        <ele>1384.1</ele>
        <time>2018-08-08T10:22:17.000Z</time>
      </trkpt>
      <trkpt lat="42.72089" lon="0.65369">
        <ele>1384.1</ele>
        <time>2018-08-08T10:22:18.000Z</time>
      </trkpt>
      <trkpt lat="42.72089" lon="0.65369">
        <ele>1384.1</ele>
        <time>2018-08-08T10:22:19.000Z</time>
      </trkpt>
      <trkpt lat="42.72089" lon="0.65369">
        <ele>1384.1</ele>
        <time>2018-08-08T10:22:20.000Z</time>
      </trkpt>
      <trkpt lat="42.72089" lon="0.65369">
        <ele>1384.1</ele>
        <time>2018-08-08T10:22:21.000Z</time>
      </trkpt>
      <trkpt lat="42.72089" lon="0.6537">
        <ele>1384.1</ele>
        <time>2018-08-08T10:22:22.000Z</time>
      </trkpt>
      <trkpt lat="42.72089" lon="0.6537">
        <ele>1384.1</ele>
        <time>2018-08-08T10:22:23.000Z</time>
      </trkpt>
      <trkpt lat="42.72089" lon="0.65371">
        <ele>1384.1</ele>
        <time>2018-08-08T10:22:24.000Z</time>
      </trkpt>
      <trkpt lat="42.72089" lon="0.65372">
        <ele>1384.1</ele>
        <time>2018-08-08T10:22:25.000Z</time>
      </trkpt>
      <trkpt lat="42.72089" lon="0.65372">
        <ele>1384.1</ele>
        <time>2018-08-08T10:22:26.000Z</time>
      </trkpt>
      <trkpt lat="42.72088" lon="0.65373">
        <ele>1384.1</ele>
        <time>2018-08-08T10:22:27.000Z</time>
      </trkpt>
      <trkpt lat="42.72088" lon="0.65374">
        <ele>1384.1</ele>
        <time>2018-08-08T10:22:28.000Z</time>
      </trkpt>
      <trkpt lat="42.72088" lon="0.65375">
        <ele>1384.1</ele>
        <time>2018-08-08T10:22:29.000Z</time>
      </trkpt>
      <trkpt lat="42.72088" lon="0.65376">
        <ele>1384.1</ele>
        <time>2018-08-08T10:22:30.000Z</time>
      </trkpt>
      <trkpt lat="42.72087" lon="0.65377">
        <ele>1384.1</ele>
        <time>2018-08-08T10:22:31.000Z</time>
      </trkpt>
      <trkpt lat="42.72087" lon="0.65378">
        <ele>1384.1</ele>
        <time>2018-08-08T10:22:32.000Z</time>
      </trkpt>
      <trkpt lat="42.72086" lon="0.65379">
        <ele>1384.1</ele>
        <time>2018-08-08T10:22:33.000Z</time>
      </trkpt>
      <trkpt lat="42.72086" lon="0.6538">
        <ele>1384.1</ele>
        <time>2018-08-08T10:22:34.000Z</time>
      </trkpt>
      <trkpt lat="42.72086" lon="0.65381">
        <ele>1384.1</ele>
        <time>2018-08-08T10:22:35.000Z</time>
      </trkpt>
      <trkpt lat="42.72085" lon="0.65382">
        <ele>1384.1</ele>
        <time>2018-08-08T10:22:36.000Z</time>
      </trkpt>
      <trkpt lat="42.72085" lon="0.65383">
        <ele>1384.1</ele>
        <time>2018-08-08T10:22:37.000Z</time>
      </trkpt>
      <trkpt lat="42.72084" lon="0.65384">
        <ele>1384.1</ele>
        <time>2018-08-08T10:22:38.000Z</time>
      </trkpt>
      <trkpt lat="42.72084" lon="0.65385">
        <ele>1384.1</ele>
        <time>2018-08-08T10:22:39.000Z</time>
      </trkpt>
      <trkpt lat="42.72083" lon="0.65386">
        <ele>1384.2</ele>
        <time>2018-08-08T10:22:40.000Z</time>
      </trkpt>
      <trkpt lat="42.72082" lon="0.65387">
        <ele>1384.2</ele>
        <time>2018-08-08T10:22:41.000Z</time>
      </trkpt>
      <trkpt lat="42.72082" lon="0.65388">
        <ele>1384.2</ele>
        <time>2018-08-08T10:22:42.000Z</time>
      </trkpt>
      <trkpt lat="42.72081" lon="0.65389">
        <ele>1384.3</ele>
        <time>2018-08-08T10:22:43.000Z</time>
      </trkpt>
      <trkpt lat="42.72081" lon="0.6539">
        <ele>1384.3</ele>
        <time>2018-08-08T10:22:44.000Z</time>
      </trkpt>
      <trkpt lat="42.7208" lon="0.65391">
        <ele>1384.4</ele>
        <time>2018-08-08T10:22:45.000Z</time>
      </trkpt>
      <trkpt lat="42.72079" lon="0.65392">
        <ele>1384.4</ele>
        <time>2018-08-08T10:22:46.000Z</time>
      </trkpt>
      <trkpt lat="42.72079" lon="0.65393">
        <ele>1384.5</ele>
        <time>2018-08-08T10:22:47.000Z</time>
      </trkpt>
      <trkpt lat="42.72078" lon="0.65394">
        <ele>1384.5</ele>
        <time>2018-08-08T10:22:48.000Z</time>
      </trkpt>
      <trkpt lat="42.72077" lon="0.65396">
        <ele>1384.6</ele>
        <time>2018-08-08T10:22:49.000Z</time>
      </trkpt>
      <trkpt lat="42.72077" lon="0.65397">
        <ele>1384.6</ele>
        <time>2018-08-08T10:22:50.000Z</time>
      </trkpt>
      <trkpt lat="42.72076" lon="0.65398">
        <ele>1384.7</ele>
        <time>2018-08-08T10:22:51.000Z</time>
      </trkpt>
      <trkpt lat="42.72075" lon="0.65399">
        <ele>1384.7</ele>
        <time>2018-08-08T10:22:52.000Z</time>
      </trkpt>
      <trkpt lat="42.72075" lon="0.654">
        <ele>1384.8</ele>
        <time>2018-08-08T10:22:53.000Z</time>
      </trkpt>
      <trkpt lat="42.72074" lon="0.65401">
        <ele>1384.8</ele>
        <time>2018-08-08T10:22:54.000Z</time>
      </trkpt>
      <trkpt lat="42.72073" lon="0.65403">
        <ele>1384.9</ele>
        <time>2018-08-08T10:22:55.000Z</time>
      </trkpt>
      <trkpt lat="42.72072" lon="0.65404">
        <ele>1384.9</ele>
        <time>2018-08-08T10:22:56.000Z</time>
      </trkpt>
      <trkpt lat="42.72071" lon="0.65405">
        <ele>1385</ele>
        <time>2018-08-08T10:22:57.000Z</time>
      </trkpt>
      <trkpt lat="42.72071" lon="0.65407">
        <ele>1385</ele>
        <time>2018-08-08T10:22:58.000Z</time>
      </trkpt>
      <trkpt lat="42.7207" lon="0.65408">
        <ele>1385.1</ele>
        <time>2018-08-08T10:22:59.000Z</time>
      </trkpt>
      <trkpt lat="42.72069" lon="0.65409">
        <ele>1385.1</ele>
        <time>2018-08-08T10:23:00.000Z</time>
      </trkpt>
      <trkpt lat="42.72068" lon="0.65411">
        <ele>1385.2</ele>
        <time>2018-08-08T10:23:01.000Z</time>
      </trkpt>
      <trkpt lat="42.72068" lon="0.65412">
        <ele>1385.3</ele>
        <time>2018-08-08T10:23:02.000Z</time>
      </trkpt>
      <trkpt lat="42.72067" lon="0.65414">
        <ele>1385.3</ele>
        <time>2018-08-08T10:23:03.000Z</time>
      </trkpt>
      <trkpt lat="42.72066" lon="0.65415">
        <ele>1385.4</ele>
        <time>2018-08-08T10:23:04.000Z</time>
      </trkpt>
      <trkpt lat="42.72065" lon="0.65417">
        <ele>1385.4</ele>
        <time>2018-08-08T10:23:05.000Z</time>
      </trkpt>
      <trkpt lat="42.72064" lon="0.65418">
        <ele>1385.5</ele>
        <time>2018-08-08T10:23:06.000Z</time>
      </trkpt>
      <trkpt lat="42.72064" lon="0.65419">
        <ele>1385.6</ele>
        <time>2018-08-08T10:23:07.000Z</time>
      </trkpt>
      <trkpt lat="42.72063" lon="0.65421">
        <ele>1385.7</ele>
        <time>2018-08-08T10:23:08.000Z</time>
      </trkpt>
      <trkpt lat="42.72062" lon="0.65422">
        <ele>1385.8</ele>
        <time>2018-08-08T10:23:09.000Z</time>
      </trkpt>
      <trkpt lat="42.72061" lon="0.65424">
        <ele>1385.9</ele>
        <time>2018-08-08T10:23:10.000Z</time>
      </trkpt>
      <trkpt lat="42.7206" lon="0.65425">
        <ele>1386</ele>
        <time>2018-08-08T10:23:11.000Z</time>
      </trkpt>
      <trkpt lat="42.72059" lon="0.65427">
        <ele>1386.1</ele>
        <time>2018-08-08T10:23:12.000Z</time>
      </trkpt>
      <trkpt lat="42.72059" lon="0.65428">
        <ele>1386.1</ele>
        <time>2018-08-08T10:23:13.000Z</time>
      </trkpt>
      <trkpt lat="42.72058" lon="0.6543">
        <ele>1386.2</ele>
        <time>2018-08-08T10:23:14.000Z</time>
      </trkpt>
      <trkpt lat="42.72057" lon="0.65431">
        <ele>1386.3</ele>
        <time>2018-08-08T10:23:15.000Z</time>
      </trkpt>
      <trkpt lat="42.72056" lon="0.65433">
        <ele>1386.3</ele>
        <time>2018-08-08T10:23:16.000Z</time>
      </trkpt>
      <trkpt lat="42.72056" lon="0.65434">
        <ele>1386.4</ele>
        <time>2018-08-08T10:23:17.000Z</time>
      </trkpt>
      <trkpt lat="42.72055" lon="0.65436">
        <ele>1386.5</ele>
        <time>2018-08-08T10:23:18.000Z</time>
      </trkpt>
      <trkpt lat="42.72054" lon="0.65437">
        <ele>1386.5</ele>
        <time>2018-08-08T10:23:19.000Z</time>
      </trkpt>
      <trkpt lat="42.72053" lon="0.65438">
        <ele>1386.6</ele>
        <time>2018-08-08T10:23:20.000Z</time>
      </trkpt>
      <trkpt lat="42.72053" lon="0.6544">
        <ele>1386.6</ele>
        <time>2018-08-08T10:23:21.000Z</time>
      </trkpt>
      <trkpt lat="42.72052" lon="0.65441">
        <ele>1386.6</ele>
        <time>2018-08-08T10:23:22.000Z</time>
      </trkpt>
      <trkpt lat="42.72051" lon="0.65442">
        <ele>1386.7</ele>
        <time>2018-08-08T10:23:23.000Z</time>
      </trkpt>
      <trkpt lat="42.7205" lon="0.65444">
        <ele>1386.7</ele>
        <time>2018-08-08T10:23:24.000Z</time>
      </trkpt>
      <trkpt lat="42.7205" lon="0.65445">
        <ele>1386.7</ele>
        <time>2018-08-08T10:23:25.000Z</time>
      </trkpt>
      <trkpt lat="42.72049" lon="0.65446">
        <ele>1386.8</ele>
        <time>2018-08-08T10:23:26.000Z</time>
      </trkpt>
      <trkpt lat="42.72049" lon="0.65447">
        <ele>1386.8</ele>
        <time>2018-08-08T10:23:27.000Z</time>
      </trkpt>
      <trkpt lat="42.72048" lon="0.65448">
        <ele>1386.8</ele>
        <time>2018-08-08T10:23:28.000Z</time>
      </trkpt>
      <trkpt lat="42.72047" lon="0.6545">
        <ele>1386.8</ele>
        <time>2018-08-08T10:23:29.000Z</time>
      </trkpt>
      <trkpt lat="42.72047" lon="0.65451">
        <ele>1386.8</ele>
        <time>2018-08-08T10:23:30.000Z</time>
      </trkpt>
      <trkpt lat="42.72046" lon="0.65452">
        <ele>1386.9</ele>
        <time>2018-08-08T10:23:31.000Z</time>
      </trkpt>
      <trkpt lat="42.72046" lon="0.65452">
        <ele>1386.9</ele>
        <time>2018-08-08T10:23:32.000Z</time>
      </trkpt>
      <trkpt lat="42.72045" lon="0.65453">
        <ele>1386.9</ele>
        <time>2018-08-08T10:23:33.000Z</time>
      </trkpt>
      <trkpt lat="42.72045" lon="0.65454">
        <ele>1386.9</ele>
        <time>2018-08-08T10:23:34.000Z</time>
      </trkpt>
      <trkpt lat="42.72045" lon="0.65455">
        <ele>1386.9</ele>
        <time>2018-08-08T10:23:35.000Z</time>
      </trkpt>
      <trkpt lat="42.72044" lon="0.65456">
        <ele>1386.9</ele>
        <time>2018-08-08T10:23:36.000Z</time>
      </trkpt>
      <trkpt lat="42.72044" lon="0.65456">
        <ele>1386.9</ele>
        <time>2018-08-08T10:23:37.000Z</time>
      </trkpt>
      <trkpt lat="42.72044" lon="0.65457">
        <ele>1386.9</ele>
        <time>2018-08-08T10:23:38.000Z</time>
      </trkpt>
      <trkpt lat="42.72043" lon="0.65457">
        <ele>1386.9</ele>
        <time>2018-08-08T10:23:39.000Z</time>
      </trkpt>
      <trkpt lat="42.72043" lon="0.65458">
        <ele>1386.9</ele>
        <time>2018-08-08T10:23:40.000Z</time>
      </trkpt>
      <trkpt lat="42.72043" lon="0.65458">
        <ele>1386.9</ele>
        <time>2018-08-08T10:23:41.000Z</time>
      </trkpt>
      <trkpt lat="42.72043" lon="0.65459">
        <ele>1386.9</ele>
        <time>2018-08-08T10:23:42.000Z</time>
      </trkpt>
      <trkpt lat="42.72043" lon="0.65459">
        <ele>1386.9</ele>
        <time>2018-08-08T10:23:43.000Z</time>
      </trkpt>
      <trkpt lat="42.72042" lon="0.65459">
        <ele>1386.9</ele>
        <time>2018-08-08T10:23:44.000Z</time>
      </trkpt>
      <trkpt lat="42.72042" lon="0.6546">
        <ele>1386.9</ele>
        <time>2018-08-08T10:23:45.000Z</time>
      </trkpt>
      <trkpt lat="42.72042" lon="0.6546">
        <ele>1386.9</ele>
        <time>2018-08-08T10:23:46.000Z</time>
      </trkpt>
      <trkpt lat="42.72042" lon="0.6546">
        <ele>1386.9</ele>
        <time>2018-08-08T10:23:47.000Z</time>
      </trkpt>
      <trkpt lat="42.72042" lon="0.6546">
        <ele>1386.9</ele>
        <time>2018-08-08T10:23:48.000Z</time>
      </trkpt>
      <trkpt lat="42.72042" lon="0.6546">
        <ele>1386.9</ele>
        <time>2018-08-08T10:23:49.000Z</time>
      </trkpt>
      <trkpt lat="42.72042" lon="0.6546">
        <ele>1386.9</ele>
        <time>2018-08-08T10:23:50.000Z</time>
      </trkpt>
      <trkpt lat="42.72042" lon="0.6546">
        <ele>1386.9</ele>
        <time>2018-08-08T10:23:51.000Z</time>
      </trkpt>
      <trkpt lat="42.72042" lon="0.6546">
        <ele>1386.9</ele>
        <time>2018-08-08T10:23:52.000Z</time>
      </trkpt>
      <trkpt lat="42.72042" lon="0.65461">
        <ele>1386.9</ele>
        <time>2018-08-08T10:23:53.000Z</time>
      </trkpt>
      <trkpt lat="42.72042" lon="0.65461">
        <ele>1386.9</ele>
        <time>2018-08-08T10:23:54.000Z</time>
      </trkpt>
      <trkpt lat="42.72042" lon="0.65461">
        <ele>1386.9</ele>
        <time>2018-08-08T10:23:55.000Z</time>
      </trkpt>
      <trkpt lat="42.72042" lon="0.65461">
        <ele>1386.9</ele>
        <time>2018-08-08T10:23:56.000Z</time>
      </trkpt>
      <trkpt lat="42.72042" lon="0.65461">
        <ele>1386.9</ele>
        <time>2018-08-08T10:23:57.000Z</time>
      </trkpt>
      <trkpt lat="42.72042" lon="0.6546">
        <ele>1386.9</ele>
        <time>2018-08-08T10:23:58.000Z</time>
      </trkpt>
      <trkpt lat="42.72042" lon="0.6546">
        <ele>1386.9</ele>
        <time>2018-08-08T10:23:59.000Z</time>
      </trkpt>
      <trkpt lat="42.72042" lon="0.6546">
        <ele>1386.9</ele>
        <time>2018-08-08T10:24:00.000Z</time>
      </trkpt>
      <trkpt lat="42.72042" lon="0.6546">
        <ele>1386.9</ele>
        <time>2018-08-08T10:24:01.000Z</time>
      </trkpt>
      <trkpt lat="42.72042" lon="0.6546">
        <ele>1386.9</ele>
        <time>2018-08-08T10:24:02.000Z</time>
      </trkpt>
      <trkpt lat="42.72042" lon="0.6546">
        <ele>1386.9</ele>
        <time>2018-08-08T10:24:03.000Z</time>
      </trkpt>
      <trkpt lat="42.72042" lon="0.6546">
        <ele>1386.9</ele>
        <time>2018-08-08T10:24:04.000Z</time>
      </trkpt>
      <trkpt lat="42.72042" lon="0.6546">
        <ele>1386.9</ele>
        <time>2018-08-08T10:24:05.000Z</time>
      </trkpt>
      <trkpt lat="42.72042" lon="0.6546">
        <ele>1386.9</ele>
        <time>2018-08-08T10:24:06.000Z</time>
      </trkpt>
      <trkpt lat="42.72042" lon="0.65461">
        <ele>1386.9</ele>
        <time>2018-08-08T10:24:07.000Z</time>
      </trkpt>
      <trkpt lat="42.72042" lon="0.65461">
        <ele>1386.9</ele>
        <time>2018-08-08T10:24:08.000Z</time>
      </trkpt>
      <trkpt lat="42.72042" lon="0.65461">
        <ele>1386.9</ele>
        <time>2018-08-08T10:24:09.000Z</time>
      </trkpt>
      <trkpt lat="42.72042" lon="0.65461">
        <ele>1386.9</ele>
        <time>2018-08-08T10:24:10.000Z</time>
      </trkpt>
      <trkpt lat="42.72042" lon="0.65461">
        <ele>1386.9</ele>
        <time>2018-08-08T10:24:11.000Z</time>
      </trkpt>
      <trkpt lat="42.72042" lon="0.65461">
        <ele>1386.9</ele>
        <time>2018-08-08T10:24:12.000Z</time>
      </trkpt>
      <trkpt lat="42.72042" lon="0.65461">
        <ele>1386.9</ele>
        <time>2018-08-08T10:24:13.000Z</time>
      </trkpt>
      <trkpt lat="42.72042" lon="0.65461">
        <ele>1386.9</ele>
        <time>2018-08-08T10:24:14.000Z</time>
      </trkpt>
      <trkpt lat="42.72042" lon="0.65461">
        <ele>1386.9</ele>
        <time>2018-08-08T10:24:15.000Z</time>
      </trkpt>
      <trkpt lat="42.72042" lon="0.65461">
        <ele>1386.9</ele>
        <time>2018-08-08T10:24:16.000Z</time>
      </trkpt>
      <trkpt lat="42.72042" lon="0.65461">
        <ele>1386.9</ele>
        <time>2018-08-08T10:24:17.000Z</time>
      </trkpt>
      <trkpt lat="42.72042" lon="0.65461">
        <ele>1386.9</ele>
        <time>2018-08-08T10:24:18.000Z</time>
      </trkpt>
      <trkpt lat="42.72042" lon="0.65461">
        <ele>1386.9</ele>
        <time>2018-08-08T10:24:19.000Z</time>
      </trkpt>
      <trkpt lat="42.72042" lon="0.65461">
        <ele>1386.9</ele>
        <time>2018-08-08T10:24:20.000Z</time>
      </trkpt>
      <trkpt lat="42.72042" lon="0.65462">
        <ele>1386.9</ele>
        <time>2018-08-08T10:24:21.000Z</time>
      </trkpt>
      <trkpt lat="42.72042" lon="0.65462">
        <ele>1386.9</ele>
        <time>2018-08-08T10:24:22.000Z</time>
      </trkpt>
      <trkpt lat="42.72041" lon="0.65462">
        <ele>1386.9</ele>
        <time>2018-08-08T10:24:23.000Z</time>
      </trkpt>
      <trkpt lat="42.72041" lon="0.65462">
        <ele>1386.9</ele>
        <time>2018-08-08T10:24:24.000Z</time>
      </trkpt>
      <trkpt lat="42.72041" lon="0.65463">
        <ele>1386.9</ele>
        <time>2018-08-08T10:24:25.000Z</time>
      </trkpt>
      <trkpt lat="42.72041" lon="0.65463">
        <ele>1386.9</ele>
        <time>2018-08-08T10:24:26.000Z</time>
      </trkpt>
      <trkpt lat="42.72041" lon="0.65463">
        <ele>1386.9</ele>
        <time>2018-08-08T10:24:27.000Z</time>
      </trkpt>
      <trkpt lat="42.7204" lon="0.65463">
        <ele>1386.9</ele>
        <time>2018-08-08T10:24:28.000Z</time>
      </trkpt>
      <trkpt lat="42.7204" lon="0.65463">
        <ele>1386.9</ele>
        <time>2018-08-08T10:24:29.000Z</time>
      </trkpt>
      <trkpt lat="42.7204" lon="0.65463">
        <ele>1386.9</ele>
        <time>2018-08-08T10:24:30.000Z</time>
      </trkpt>
      <trkpt lat="42.7204" lon="0.65464">
        <ele>1387</ele>
        <time>2018-08-08T10:24:31.000Z</time>
      </trkpt>
      <trkpt lat="42.72039" lon="0.65464">
        <ele>1387</ele>
        <time>2018-08-08T10:24:32.000Z</time>
      </trkpt>
      <trkpt lat="42.72039" lon="0.65464">
        <ele>1387</ele>
        <time>2018-08-08T10:24:33.000Z</time>
      </trkpt>
      <trkpt lat="42.72039" lon="0.65464">
        <ele>1387</ele>
        <time>2018-08-08T10:24:34.000Z</time>
      </trkpt>
      <trkpt lat="42.72039" lon="0.65464">
        <ele>1387</ele>
        <time>2018-08-08T10:24:35.000Z</time>
      </trkpt>
      <trkpt lat="42.72039" lon="0.65464">
        <ele>1387</ele>
        <time>2018-08-08T10:24:36.000Z</time>
      </trkpt>
      <trkpt lat="42.72039" lon="0.65464">
        <ele>1387</ele>
        <time>2018-08-08T10:24:37.000Z</time>
      </trkpt>
      <trkpt lat="42.72038" lon="0.65464">
        <ele>1387</ele>
        <time>2018-08-08T10:24:38.000Z</time>
      </trkpt>
      <trkpt lat="42.72038" lon="0.65464">
        <ele>1387</ele>
        <time>2018-08-08T10:24:39.000Z</time>
      </trkpt>
      <trkpt lat="42.72038" lon="0.65464">
        <ele>1387</ele>
        <time>2018-08-08T10:24:40.000Z</time>
      </trkpt>
      <trkpt lat="42.72038" lon="0.65464">
        <ele>1387</ele>
        <time>2018-08-08T10:24:41.000Z</time>
      </trkpt>
      <trkpt lat="42.72038" lon="0.65464">
        <ele>1387</ele>
        <time>2018-08-08T10:24:42.000Z</time>
      </trkpt>
      <trkpt lat="42.72038" lon="0.65464">
        <ele>1387</ele>
        <time>2018-08-08T10:24:43.000Z</time>
      </trkpt>
      <trkpt lat="42.72038" lon="0.65464">
        <ele>1387</ele>
        <time>2018-08-08T10:24:44.000Z</time>
      </trkpt>
      <trkpt lat="42.72038" lon="0.65464">
        <ele>1387</ele>
        <time>2018-08-08T10:24:45.000Z</time>
      </trkpt>
      <trkpt lat="42.72038" lon="0.65464">
        <ele>1387</ele>
        <time>2018-08-08T10:24:46.000Z</time>
      </trkpt>
      <trkpt lat="42.72038" lon="0.65464">
        <ele>1387</ele>
        <time>2018-08-08T10:24:47.000Z</time>
      </trkpt>
      <trkpt lat="42.72038" lon="0.65464">
        <ele>1387</ele>
        <time>2018-08-08T10:24:48.000Z</time>
      </trkpt>
      <trkpt lat="42.72038" lon="0.65464">
        <ele>1387</ele>
        <time>2018-08-08T10:24:49.000Z</time>
      </trkpt>
      <trkpt lat="42.72038" lon="0.65464">
        <ele>1387</ele>
        <time>2018-08-08T10:24:50.000Z</time>
      </trkpt>
      <trkpt lat="42.72038" lon="0.65464">
        <ele>1387</ele>
        <time>2018-08-08T10:24:51.000Z</time>
      </trkpt>
      <trkpt lat="42.72038" lon="0.65464">
        <ele>1387</ele>
        <time>2018-08-08T10:24:52.000Z</time>
      </trkpt>
      <trkpt lat="42.72038" lon="0.65464">
        <ele>1387</ele>
        <time>2018-08-08T10:24:53.000Z</time>
      </trkpt>
      <trkpt lat="42.72038" lon="0.65464">
        <ele>1387</ele>
        <time>2018-08-08T10:24:54.000Z</time>
      </trkpt>
      <trkpt lat="42.72038" lon="0.65464">
        <ele>1387</ele>
        <time>2018-08-08T10:24:55.000Z</time>
      </trkpt>
      <trkpt lat="42.72038" lon="0.65464">
        <ele>1387</ele>
        <time>2018-08-08T10:24:56.000Z</time>
      </trkpt>
      <trkpt lat="42.72038" lon="0.65464">
        <ele>1387</ele>
        <time>2018-08-08T10:24:57.000Z</time>
      </trkpt>
      <trkpt lat="42.72038" lon="0.65464">
        <ele>1387</ele>
        <time>2018-08-08T10:24:58.000Z</time>
      </trkpt>
      <trkpt lat="42.72038" lon="0.65464">
        <ele>1387</ele>
        <time>2018-08-08T10:24:59.000Z</time>
      </trkpt>
      <trkpt lat="42.72038" lon="0.65464">
        <ele>1387</ele>
        <time>2018-08-08T10:25:00.000Z</time>
      </trkpt>
      <trkpt lat="42.72038" lon="0.65464">
        <ele>1387</ele>
        <time>2018-08-08T10:25:01.000Z</time>
      </trkpt>
      <trkpt lat="42.72038" lon="0.65463">
        <ele>1387</ele>
        <time>2018-08-08T10:25:02.000Z</time>
      </trkpt>
      <trkpt lat="42.72038" lon="0.65463">
        <ele>1387.1</ele>
        <time>2018-08-08T10:25:03.000Z</time>
      </trkpt>
      <trkpt lat="42.72038" lon="0.65463">
        <ele>1387.1</ele>
        <time>2018-08-08T10:25:04.000Z</time>
      </trkpt>
      <trkpt lat="42.72038" lon="0.65463">
        <ele>1387.1</ele>
        <time>2018-08-08T10:25:05.000Z</time>
      </trkpt>
      <trkpt lat="42.72038" lon="0.65462">
        <ele>1387.1</ele>
        <time>2018-08-08T10:25:06.000Z</time>
      </trkpt>
      <trkpt lat="42.72037" lon="0.65461">
        <ele>1387.2</ele>
        <time>2018-08-08T10:25:07.000Z</time>
      </trkpt>
      <trkpt lat="42.72037" lon="0.65459">
        <ele>1387.3</ele>
        <time>2018-08-08T10:25:08.000Z</time>
      </trkpt>
      <trkpt lat="42.72037" lon="0.65457">
        <ele>1387.4</ele>
        <time>2018-08-08T10:25:09.000Z</time>
      </trkpt>
      <trkpt lat="42.72036" lon="0.65456">
        <ele>1387.5</ele>
        <time>2018-08-08T10:25:10.000Z</time>
      </trkpt>
      <trkpt lat="42.72036" lon="0.65454">
        <ele>1387.6</ele>
        <time>2018-08-08T10:25:11.000Z</time>
      </trkpt>
      <trkpt lat="42.72035" lon="0.65453">
        <ele>1387.7</ele>
        <time>2018-08-08T10:25:12.000Z</time>
      </trkpt>
      <trkpt lat="42.72034" lon="0.65452">
        <ele>1387.8</ele>
        <time>2018-08-08T10:25:13.000Z</time>
      </trkpt>
      <trkpt lat="42.72034" lon="0.65451">
        <ele>1387.9</ele>
        <time>2018-08-08T10:25:14.000Z</time>
      </trkpt>
      <trkpt lat="42.72033" lon="0.65451">
        <ele>1388</ele>
        <time>2018-08-08T10:25:15.000Z</time>
      </trkpt>
      <trkpt lat="42.72032" lon="0.6545">
        <ele>1388.1</ele>
        <time>2018-08-08T10:25:16.000Z</time>
      </trkpt>
      <trkpt lat="42.72031" lon="0.6545">
        <ele>1388.2</ele>
        <time>2018-08-08T10:25:17.000Z</time>
      </trkpt>
      <trkpt lat="42.72031" lon="0.65449">
        <ele>1388.3</ele>
        <time>2018-08-08T10:25:18.000Z</time>
      </trkpt>
      <trkpt lat="42.7203" lon="0.65448">
        <ele>1388.4</ele>
        <time>2018-08-08T10:25:19.000Z</time>
      </trkpt>
      <trkpt lat="42.72029" lon="0.65448">
        <ele>1388.5</ele>
        <time>2018-08-08T10:25:20.000Z</time>
      </trkpt>
      <trkpt lat="42.72028" lon="0.65447">
        <ele>1388.6</ele>
        <time>2018-08-08T10:25:21.000Z</time>
      </trkpt>
      <trkpt lat="42.72028" lon="0.65447">
        <ele>1388.7</ele>
        <time>2018-08-08T10:25:22.000Z</time>
      </trkpt>
      <trkpt lat="42.72027" lon="0.65446">
        <ele>1388.8</ele>
        <time>2018-08-08T10:25:23.000Z</time>
      </trkpt>
      <trkpt lat="42.72026" lon="0.65445">
        <ele>1388.9</ele>
        <time>2018-08-08T10:25:24.000Z</time>
      </trkpt>
      <trkpt lat="42.72025" lon="0.65445">
        <ele>1389</ele>
        <time>2018-08-08T10:25:25.000Z</time>
      </trkpt>
      <trkpt lat="42.72025" lon="0.65444">
        <ele>1389.1</ele>
        <time>2018-08-08T10:25:26.000Z</time>
      </trkpt>
      <trkpt lat="42.72024" lon="0.65443">
        <ele>1389.2</ele>
        <time>2018-08-08T10:25:27.000Z</time>
      </trkpt>
      <trkpt lat="42.72023" lon="0.65443">
        <ele>1389.3</ele>
        <time>2018-08-08T10:25:28.000Z</time>
      </trkpt>
      <trkpt lat="42.72022" lon="0.65442">
        <ele>1389.4</ele>
        <time>2018-08-08T10:25:29.000Z</time>
      </trkpt>
      <trkpt lat="42.72022" lon="0.65442">
        <ele>1389.5</ele>
        <time>2018-08-08T10:25:30.000Z</time>
      </trkpt>
      <trkpt lat="42.72021" lon="0.65441">
        <ele>1389.7</ele>
        <time>2018-08-08T10:25:31.000Z</time>
      </trkpt>
      <trkpt lat="42.7202" lon="0.6544">
        <ele>1389.8</ele>
        <time>2018-08-08T10:25:32.000Z</time>
      </trkpt>
      <trkpt lat="42.72019" lon="0.6544">
        <ele>1389.9</ele>
        <time>2018-08-08T10:25:33.000Z</time>
      </trkpt>
      <trkpt lat="42.72019" lon="0.65439">
        <ele>1390</ele>
        <time>2018-08-08T10:25:34.000Z</time>
      </trkpt>
      <trkpt lat="42.72018" lon="0.65438">
        <ele>1390.1</ele>
        <time>2018-08-08T10:25:35.000Z</time>
      </trkpt>
      <trkpt lat="42.72017" lon="0.65438">
        <ele>1390.2</ele>
        <time>2018-08-08T10:25:36.000Z</time>
      </trkpt>
      <trkpt lat="42.72016" lon="0.65437">
        <ele>1390.4</ele>
        <time>2018-08-08T10:25:37.000Z</time>
      </trkpt>
      <trkpt lat="42.72016" lon="0.65436">
        <ele>1390.5</ele>
        <time>2018-08-08T10:25:38.000Z</time>
      </trkpt>
      <trkpt lat="42.72015" lon="0.65436">
        <ele>1390.6</ele>
        <time>2018-08-08T10:25:39.000Z</time>
      </trkpt>
      <trkpt lat="42.72014" lon="0.65435">
        <ele>1390.7</ele>
        <time>2018-08-08T10:25:40.000Z</time>
      </trkpt>
      <trkpt lat="42.72013" lon="0.65435">
        <ele>1390.9</ele>
        <time>2018-08-08T10:25:41.000Z</time>
      </trkpt>
      <trkpt lat="42.72013" lon="0.65434">
        <ele>1391</ele>
        <time>2018-08-08T10:25:42.000Z</time>
      </trkpt>
      <trkpt lat="42.72012" lon="0.65433">
        <ele>1391.1</ele>
        <time>2018-08-08T10:25:43.000Z</time>
      </trkpt>
      <trkpt lat="42.72011" lon="0.65433">
        <ele>1391.2</ele>
        <time>2018-08-08T10:25:44.000Z</time>
      </trkpt>
      <trkpt lat="42.72011" lon="0.65432">
        <ele>1391.4</ele>
        <time>2018-08-08T10:25:45.000Z</time>
      </trkpt>
      <trkpt lat="42.7201" lon="0.65431">
        <ele>1391.5</ele>
        <time>2018-08-08T10:25:46.000Z</time>
      </trkpt>
      <trkpt lat="42.72009" lon="0.65431">
        <ele>1391.6</ele>
        <time>2018-08-08T10:25:47.000Z</time>
      </trkpt>
      <trkpt lat="42.72009" lon="0.6543">
        <ele>1391.7</ele>
        <time>2018-08-08T10:25:48.000Z</time>
      </trkpt>
      <trkpt lat="42.72008" lon="0.65429">
        <ele>1391.9</ele>
        <time>2018-08-08T10:25:49.000Z</time>
      </trkpt>
      <trkpt lat="42.72007" lon="0.65429">
        <ele>1392</ele>
        <time>2018-08-08T10:25:50.000Z</time>
      </trkpt>
      <trkpt lat="42.72007" lon="0.65428">
        <ele>1392.1</ele>
        <time>2018-08-08T10:25:51.000Z</time>
      </trkpt>
      <trkpt lat="42.72006" lon="0.65427">
        <ele>1392.3</ele>
        <time>2018-08-08T10:25:52.000Z</time>
      </trkpt>
      <trkpt lat="42.72005" lon="0.65427">
        <ele>1392.4</ele>
        <time>2018-08-08T10:25:53.000Z</time>
      </trkpt>
      <trkpt lat="42.72005" lon="0.65426">
        <ele>1392.6</ele>
        <time>2018-08-08T10:25:54.000Z</time>
      </trkpt>
      <trkpt lat="42.72004" lon="0.65425">
        <ele>1392.7</ele>
        <time>2018-08-08T10:25:55.000Z</time>
      </trkpt>
      <trkpt lat="42.72003" lon="0.65425">
        <ele>1392.8</ele>
        <time>2018-08-08T10:25:56.000Z</time>
      </trkpt>
      <trkpt lat="42.72003" lon="0.65424">
        <ele>1393</ele>
        <time>2018-08-08T10:25:57.000Z</time>
      </trkpt>
      <trkpt lat="42.72002" lon="0.65423">
        <ele>1393.1</ele>
        <time>2018-08-08T10:25:58.000Z</time>
      </trkpt>
      <trkpt lat="42.72002" lon="0.65422">
        <ele>1393.3</ele>
        <time>2018-08-08T10:25:59.000Z</time>
      </trkpt>
      <trkpt lat="42.72001" lon="0.65421">
        <ele>1393.4</ele>
        <time>2018-08-08T10:26:00.000Z</time>
      </trkpt>
      <trkpt lat="42.72001" lon="0.65421">
        <ele>1393.6</ele>
        <time>2018-08-08T10:26:01.000Z</time>
      </trkpt>
      <trkpt lat="42.72" lon="0.6542">
        <ele>1393.7</ele>
        <time>2018-08-08T10:26:02.000Z</time>
      </trkpt>
      <trkpt lat="42.72" lon="0.65419">
        <ele>1393.9</ele>
        <time>2018-08-08T10:26:03.000Z</time>
      </trkpt>
      <trkpt lat="42.71999" lon="0.65418">
        <ele>1394</ele>
        <time>2018-08-08T10:26:04.000Z</time>
      </trkpt>
      <trkpt lat="42.71999" lon="0.65417">
        <ele>1394.2</ele>
        <time>2018-08-08T10:26:05.000Z</time>
      </trkpt>
      <trkpt lat="42.71999" lon="0.65416">
        <ele>1394.3</ele>
        <time>2018-08-08T10:26:06.000Z</time>
      </trkpt>
      <trkpt lat="42.71999" lon="0.65416">
        <ele>1394.3</ele>
        <time>2018-08-08T10:26:07.000Z</time>
      </trkpt>
      <trkpt lat="42.71999" lon="0.65415">
        <ele>1394.3</ele>
        <time>2018-08-08T10:26:08.000Z</time>
      </trkpt>
      <trkpt lat="42.71999" lon="0.65414">
        <ele>1394.3</ele>
        <time>2018-08-08T10:26:09.000Z</time>
      </trkpt>
      <trkpt lat="42.71999" lon="0.65413">
        <ele>1394.3</ele>
        <time>2018-08-08T10:26:10.000Z</time>
      </trkpt>
      <trkpt lat="42.71999" lon="0.65413">
        <ele>1394.3</ele>
        <time>2018-08-08T10:26:11.000Z</time>
      </trkpt>
      <trkpt lat="42.72" lon="0.65412">
        <ele>1394.2</ele>
        <time>2018-08-08T10:26:12.000Z</time>
      </trkpt>
      <trkpt lat="42.72" lon="0.65411">
        <ele>1394.2</ele>
        <time>2018-08-08T10:26:13.000Z</time>
      </trkpt>
      <trkpt lat="42.72" lon="0.65411">
        <ele>1394.2</ele>
        <time>2018-08-08T10:26:14.000Z</time>
      </trkpt>
      <trkpt lat="42.72" lon="0.6541">
        <ele>1394.2</ele>
        <time>2018-08-08T10:26:15.000Z</time>
      </trkpt>
      <trkpt lat="42.72" lon="0.6541">
        <ele>1394.2</ele>
        <time>2018-08-08T10:26:16.000Z</time>
      </trkpt>
      <trkpt lat="42.72" lon="0.65409">
        <ele>1394.2</ele>
        <time>2018-08-08T10:26:17.000Z</time>
      </trkpt>
      <trkpt lat="42.72" lon="0.65409">
        <ele>1394.3</ele>
        <time>2018-08-08T10:26:18.000Z</time>
      </trkpt>
      <trkpt lat="42.72" lon="0.65408">
        <ele>1394.3</ele>
        <time>2018-08-08T10:26:19.000Z</time>
      </trkpt>
      <trkpt lat="42.72" lon="0.65408">
        <ele>1394.3</ele>
        <time>2018-08-08T10:26:20.000Z</time>
      </trkpt>
      <trkpt lat="42.72" lon="0.65408">
        <ele>1394.4</ele>
        <time>2018-08-08T10:26:21.000Z</time>
      </trkpt>
      <trkpt lat="42.71999" lon="0.65407">
        <ele>1394.5</ele>
        <time>2018-08-08T10:26:22.000Z</time>
      </trkpt>
      <trkpt lat="42.71999" lon="0.65407">
        <ele>1394.5</ele>
        <time>2018-08-08T10:26:23.000Z</time>
      </trkpt>
      <trkpt lat="42.71999" lon="0.65407">
        <ele>1394.6</ele>
        <time>2018-08-08T10:26:24.000Z</time>
      </trkpt>
      <trkpt lat="42.71998" lon="0.65406">
        <ele>1394.7</ele>
        <time>2018-08-08T10:26:25.000Z</time>
      </trkpt>
      <trkpt lat="42.71998" lon="0.65406">
        <ele>1394.9</ele>
        <time>2018-08-08T10:26:26.000Z</time>
      </trkpt>
      <trkpt lat="42.71997" lon="0.65406">
        <ele>1395</ele>
        <time>2018-08-08T10:26:27.000Z</time>
      </trkpt>
      <trkpt lat="42.71996" lon="0.65405">
        <ele>1395.1</ele>
        <time>2018-08-08T10:26:28.000Z</time>
      </trkpt>
      <trkpt lat="42.71996" lon="0.65405">
        <ele>1395.2</ele>
        <time>2018-08-08T10:26:29.000Z</time>
      </trkpt>
      <trkpt lat="42.71995" lon="0.65404">
        <ele>1395.4</ele>
        <time>2018-08-08T10:26:30.000Z</time>
      </trkpt>
      <trkpt lat="42.71994" lon="0.65404">
        <ele>1395.5</ele>
        <time>2018-08-08T10:26:31.000Z</time>
      </trkpt>
      <trkpt lat="42.71994" lon="0.65403">
        <ele>1395.7</ele>
        <time>2018-08-08T10:26:32.000Z</time>
      </trkpt>
      <trkpt lat="42.71993" lon="0.65403">
        <ele>1395.8</ele>
        <time>2018-08-08T10:26:33.000Z</time>
      </trkpt>
      <trkpt lat="42.71992" lon="0.65402">
        <ele>1396</ele>
        <time>2018-08-08T10:26:34.000Z</time>
      </trkpt>
      <trkpt lat="42.71991" lon="0.65402">
        <ele>1396.2</ele>
        <time>2018-08-08T10:26:35.000Z</time>
      </trkpt>
      <trkpt lat="42.7199" lon="0.65401">
        <ele>1396.4</ele>
        <time>2018-08-08T10:26:36.000Z</time>
      </trkpt>
      <trkpt lat="42.71989" lon="0.65401">
        <ele>1396.6</ele>
        <time>2018-08-08T10:26:37.000Z</time>
      </trkpt>
      <trkpt lat="42.71989" lon="0.654">
        <ele>1396.7</ele>
        <time>2018-08-08T10:26:38.000Z</time>
      </trkpt>
      <trkpt lat="42.71988" lon="0.65399">
        <ele>1396.9</ele>
        <time>2018-08-08T10:26:39.000Z</time>
      </trkpt>
      <trkpt lat="42.71987" lon="0.65399">
        <ele>1397.1</ele>
        <time>2018-08-08T10:26:40.000Z</time>
      </trkpt>
      <trkpt lat="42.71986" lon="0.65398">
        <ele>1397.3</ele>
        <time>2018-08-08T10:26:41.000Z</time>
      </trkpt>
      <trkpt lat="42.71985" lon="0.65398">
        <ele>1397.5</ele>
        <time>2018-08-08T10:26:42.000Z</time>
      </trkpt>
      <trkpt lat="42.71984" lon="0.65397">
        <ele>1397.7</ele>
        <time>2018-08-08T10:26:43.000Z</time>
      </trkpt>
      <trkpt lat="42.71983" lon="0.65396">
        <ele>1397.9</ele>
        <time>2018-08-08T10:26:44.000Z</time>
      </trkpt>
      <trkpt lat="42.71982" lon="0.65396">
        <ele>1398.1</ele>
        <time>2018-08-08T10:26:45.000Z</time>
      </trkpt>
      <trkpt lat="42.71981" lon="0.65395">
        <ele>1398.3</ele>
        <time>2018-08-08T10:26:46.000Z</time>
      </trkpt>
      <trkpt lat="42.7198" lon="0.65395">
        <ele>1398.5</ele>
        <time>2018-08-08T10:26:47.000Z</time>
      </trkpt>
      <trkpt lat="42.71979" lon="0.65394">
        <ele>1398.7</ele>
        <time>2018-08-08T10:26:48.000Z</time>
      </trkpt>
      <trkpt lat="42.71978" lon="0.65394">
        <ele>1398.9</ele>
        <time>2018-08-08T10:26:49.000Z</time>
      </trkpt>
      <trkpt lat="42.71977" lon="0.65393">
        <ele>1399.1</ele>
        <time>2018-08-08T10:26:50.000Z</time>
      </trkpt>
      <trkpt lat="42.71976" lon="0.65393">
        <ele>1399.2</ele>
        <time>2018-08-08T10:26:51.000Z</time>
      </trkpt>
      <trkpt lat="42.71975" lon="0.65392">
        <ele>1399.4</ele>
        <time>2018-08-08T10:26:52.000Z</time>
      </trkpt>
      <trkpt lat="42.71974" lon="0.65392">
        <ele>1399.6</ele>
        <time>2018-08-08T10:26:53.000Z</time>
      </trkpt>
      <trkpt lat="42.71974" lon="0.65392">
        <ele>1399.8</ele>
        <time>2018-08-08T10:26:54.000Z</time>
      </trkpt>
      <trkpt lat="42.71973" lon="0.65392">
        <ele>1400</ele>
        <time>2018-08-08T10:26:55.000Z</time>
      </trkpt>
      <trkpt lat="42.71972" lon="0.65391">
        <ele>1400.1</ele>
        <time>2018-08-08T10:26:56.000Z</time>
      </trkpt>
      <trkpt lat="42.71971" lon="0.65391">
        <ele>1400.3</ele>
        <time>2018-08-08T10:26:57.000Z</time>
      </trkpt>
      <trkpt lat="42.7197" lon="0.65391">
        <ele>1400.5</ele>
        <time>2018-08-08T10:26:58.000Z</time>
      </trkpt>
      <trkpt lat="42.71969" lon="0.65391">
        <ele>1400.6</ele>
        <time>2018-08-08T10:26:59.000Z</time>
      </trkpt>
      <trkpt lat="42.71968" lon="0.65391">
        <ele>1400.8</ele>
        <time>2018-08-08T10:27:00.000Z</time>
      </trkpt>
      <trkpt lat="42.71968" lon="0.65391">
        <ele>1400.9</ele>
        <time>2018-08-08T10:27:01.000Z</time>
      </trkpt>
      <trkpt lat="42.71967" lon="0.65391">
        <ele>1401.1</ele>
        <time>2018-08-08T10:27:02.000Z</time>
      </trkpt>
      <trkpt lat="42.71966" lon="0.65391">
        <ele>1401.2</ele>
        <time>2018-08-08T10:27:03.000Z</time>
      </trkpt>
      <trkpt lat="42.71965" lon="0.65391">
        <ele>1401.3</ele>
        <time>2018-08-08T10:27:04.000Z</time>
      </trkpt>
      <trkpt lat="42.71965" lon="0.65391">
        <ele>1401.5</ele>
        <time>2018-08-08T10:27:05.000Z</time>
      </trkpt>
      <trkpt lat="42.71964" lon="0.65391">
        <ele>1401.6</ele>
        <time>2018-08-08T10:27:06.000Z</time>
      </trkpt>
      <trkpt lat="42.71963" lon="0.65391">
        <ele>1401.7</ele>
        <time>2018-08-08T10:27:07.000Z</time>
      </trkpt>
      <trkpt lat="42.71962" lon="0.65391">
        <ele>1401.9</ele>
        <time>2018-08-08T10:27:08.000Z</time>
      </trkpt>
      <trkpt lat="42.71962" lon="0.65391">
        <ele>1402</ele>
        <time>2018-08-08T10:27:09.000Z</time>
      </trkpt>
      <trkpt lat="42.71961" lon="0.6539">
        <ele>1402.1</ele>
        <time>2018-08-08T10:27:10.000Z</time>
      </trkpt>
      <trkpt lat="42.7196" lon="0.6539">
        <ele>1402.3</ele>
        <time>2018-08-08T10:27:11.000Z</time>
      </trkpt>
      <trkpt lat="42.7196" lon="0.6539">
        <ele>1402.4</ele>
        <time>2018-08-08T10:27:12.000Z</time>
      </trkpt>
      <trkpt lat="42.71959" lon="0.65389">
        <ele>1402.5</ele>
        <time>2018-08-08T10:27:13.000Z</time>
      </trkpt>
      <trkpt lat="42.71958" lon="0.65389">
        <ele>1402.7</ele>
        <time>2018-08-08T10:27:14.000Z</time>
      </trkpt>
      <trkpt lat="42.71958" lon="0.65388">
        <ele>1402.8</ele>
        <time>2018-08-08T10:27:15.000Z</time>
      </trkpt>
      <trkpt lat="42.71957" lon="0.65387">
        <ele>1402.9</ele>
        <time>2018-08-08T10:27:16.000Z</time>
      </trkpt>
      <trkpt lat="42.71956" lon="0.65387">
        <ele>1403.1</ele>
        <time>2018-08-08T10:27:17.000Z</time>
      </trkpt>
      <trkpt lat="42.71956" lon="0.65386">
        <ele>1403.2</ele>
        <time>2018-08-08T10:27:18.000Z</time>
      </trkpt>
      <trkpt lat="42.71955" lon="0.65385">
        <ele>1403.4</ele>
        <time>2018-08-08T10:27:19.000Z</time>
      </trkpt>
      <trkpt lat="42.71954" lon="0.65385">
        <ele>1403.5</ele>
        <time>2018-08-08T10:27:20.000Z</time>
      </trkpt>
      <trkpt lat="42.71953" lon="0.65384">
        <ele>1403.7</ele>
        <time>2018-08-08T10:27:21.000Z</time>
      </trkpt>
      <trkpt lat="42.71953" lon="0.65383">
        <ele>1403.8</ele>
        <time>2018-08-08T10:27:22.000Z</time>
      </trkpt>
      <trkpt lat="42.71952" lon="0.65383">
        <ele>1404</ele>
        <time>2018-08-08T10:27:23.000Z</time>
      </trkpt>
      <trkpt lat="42.71951" lon="0.65382">
        <ele>1404.2</ele>
        <time>2018-08-08T10:27:24.000Z</time>
      </trkpt>
      <trkpt lat="42.7195" lon="0.65382">
        <ele>1404.3</ele>
        <time>2018-08-08T10:27:25.000Z</time>
      </trkpt>
      <trkpt lat="42.71949" lon="0.65381">
        <ele>1404.5</ele>
        <time>2018-08-08T10:27:26.000Z</time>
      </trkpt>
      <trkpt lat="42.71948" lon="0.65381">
        <ele>1404.7</ele>
        <time>2018-08-08T10:27:27.000Z</time>
      </trkpt>
      <trkpt lat="42.71948" lon="0.6538">
        <ele>1404.8</ele>
        <time>2018-08-08T10:27:28.000Z</time>
      </trkpt>
      <trkpt lat="42.71947" lon="0.6538">
        <ele>1405</ele>
        <time>2018-08-08T10:27:29.000Z</time>
      </trkpt>
      <trkpt lat="42.71946" lon="0.6538">
        <ele>1405.2</ele>
        <time>2018-08-08T10:27:30.000Z</time>
      </trkpt>
      <trkpt lat="42.71945" lon="0.6538">
        <ele>1405.4</ele>
        <time>2018-08-08T10:27:31.000Z</time>
      </trkpt>
      <trkpt lat="42.71944" lon="0.65379">
        <ele>1405.6</ele>
        <time>2018-08-08T10:27:32.000Z</time>
      </trkpt>
      <trkpt lat="42.71943" lon="0.65379">
        <ele>1405.8</ele>
        <time>2018-08-08T10:27:33.000Z</time>
      </trkpt>
      <trkpt lat="42.71942" lon="0.65379">
        <ele>1405.9</ele>
        <time>2018-08-08T10:27:34.000Z</time>
      </trkpt>
      <trkpt lat="42.71941" lon="0.65379">
        <ele>1406.1</ele>
        <time>2018-08-08T10:27:35.000Z</time>
      </trkpt>
      <trkpt lat="42.7194" lon="0.65379">
        <ele>1406.3</ele>
        <time>2018-08-08T10:27:36.000Z</time>
      </trkpt>
      <trkpt lat="42.71939" lon="0.65378">
        <ele>1406.5</ele>
        <time>2018-08-08T10:27:37.000Z</time>
      </trkpt>
      <trkpt lat="42.71938" lon="0.65378">
        <ele>1406.7</ele>
        <time>2018-08-08T10:27:38.000Z</time>
      </trkpt>
      <trkpt lat="42.71937" lon="0.65378">
        <ele>1406.9</ele>
        <time>2018-08-08T10:27:39.000Z</time>
      </trkpt>
      <trkpt lat="42.71936" lon="0.65378">
        <ele>1407</ele>
        <time>2018-08-08T10:27:40.000Z</time>
      </trkpt>
      <trkpt lat="42.71935" lon="0.65378">
        <ele>1407.2</ele>
        <time>2018-08-08T10:27:41.000Z</time>
      </trkpt>
      <trkpt lat="42.71934" lon="0.65378">
        <ele>1407.4</ele>
        <time>2018-08-08T10:27:42.000Z</time>
      </trkpt>
      <trkpt lat="42.71933" lon="0.65377">
        <ele>1407.6</ele>
        <time>2018-08-08T10:27:43.000Z</time>
      </trkpt>
      <trkpt lat="42.71932" lon="0.65377">
        <ele>1407.7</ele>
        <time>2018-08-08T10:27:44.000Z</time>
      </trkpt>
      <trkpt lat="42.71931" lon="0.65377">
        <ele>1407.9</ele>
        <time>2018-08-08T10:27:45.000Z</time>
      </trkpt>
      <trkpt lat="42.7193" lon="0.65377">
        <ele>1408.1</ele>
        <time>2018-08-08T10:27:46.000Z</time>
      </trkpt>
      <trkpt lat="42.71929" lon="0.65377">
        <ele>1408.2</ele>
        <time>2018-08-08T10:27:47.000Z</time>
      </trkpt>
      <trkpt lat="42.71928" lon="0.65376">
        <ele>1408.4</ele>
        <time>2018-08-08T10:27:48.000Z</time>
      </trkpt>
      <trkpt lat="42.71928" lon="0.65376">
        <ele>1408.5</ele>
        <time>2018-08-08T10:27:49.000Z</time>
      </trkpt>
      <trkpt lat="42.71927" lon="0.65376">
        <ele>1408.7</ele>
        <time>2018-08-08T10:27:50.000Z</time>
      </trkpt>
      <trkpt lat="42.71926" lon="0.65376">
        <ele>1408.8</ele>
        <time>2018-08-08T10:27:51.000Z</time>
      </trkpt>
      <trkpt lat="42.71925" lon="0.65376">
        <ele>1409</ele>
        <time>2018-08-08T10:27:52.000Z</time>
      </trkpt>
      <trkpt lat="42.71924" lon="0.65375">
        <ele>1409.2</ele>
        <time>2018-08-08T10:27:53.000Z</time>
      </trkpt>
      <trkpt lat="42.71923" lon="0.65375">
        <ele>1409.3</ele>
        <time>2018-08-08T10:27:54.000Z</time>
      </trkpt>
      <trkpt lat="42.71922" lon="0.65375">
        <ele>1409.5</ele>
        <time>2018-08-08T10:27:55.000Z</time>
      </trkpt>
      <trkpt lat="42.71922" lon="0.65375">
        <ele>1409.6</ele>
        <time>2018-08-08T10:27:56.000Z</time>
      </trkpt>
      <trkpt lat="42.71921" lon="0.65375">
        <ele>1409.8</ele>
        <time>2018-08-08T10:27:57.000Z</time>
      </trkpt>
      <trkpt lat="42.7192" lon="0.65375">
        <ele>1409.9</ele>
        <time>2018-08-08T10:27:58.000Z</time>
      </trkpt>
      <trkpt lat="42.71919" lon="0.65374">
        <ele>1410.1</ele>
        <time>2018-08-08T10:27:59.000Z</time>
      </trkpt>
      <trkpt lat="42.71918" lon="0.65374">
        <ele>1410.2</ele>
        <time>2018-08-08T10:28:00.000Z</time>
      </trkpt>
      <trkpt lat="42.71917" lon="0.65374">
        <ele>1410.4</ele>
        <time>2018-08-08T10:28:01.000Z</time>
      </trkpt>
      <trkpt lat="42.71917" lon="0.65374">
        <ele>1410.5</ele>
        <time>2018-08-08T10:28:02.000Z</time>
      </trkpt>
      <trkpt lat="42.71916" lon="0.65374">
        <ele>1410.6</ele>
        <time>2018-08-08T10:28:03.000Z</time>
      </trkpt>
      <trkpt lat="42.71915" lon="0.65374">
        <ele>1410.8</ele>
        <time>2018-08-08T10:28:04.000Z</time>
      </trkpt>
      <trkpt lat="42.71914" lon="0.65374">
        <ele>1410.9</ele>
        <time>2018-08-08T10:28:05.000Z</time>
      </trkpt>
      <trkpt lat="42.71914" lon="0.65374">
        <ele>1411</ele>
        <time>2018-08-08T10:28:06.000Z</time>
      </trkpt>
      <trkpt lat="42.71913" lon="0.65374">
        <ele>1411.1</ele>
        <time>2018-08-08T10:28:07.000Z</time>
      </trkpt>
      <trkpt lat="42.71912" lon="0.65374">
        <ele>1411.2</ele>
        <time>2018-08-08T10:28:08.000Z</time>
      </trkpt>
      <trkpt lat="42.71911" lon="0.65374">
        <ele>1411.3</ele>
        <time>2018-08-08T10:28:09.000Z</time>
      </trkpt>
      <trkpt lat="42.71911" lon="0.65374">
        <ele>1411.4</ele>
        <time>2018-08-08T10:28:10.000Z</time>
      </trkpt>
      <trkpt lat="42.7191" lon="0.65375">
        <ele>1411.5</ele>
        <time>2018-08-08T10:28:11.000Z</time>
      </trkpt>
      <trkpt lat="42.71909" lon="0.65375">
        <ele>1411.6</ele>
        <time>2018-08-08T10:28:12.000Z</time>
      </trkpt>
      <trkpt lat="42.71909" lon="0.65375">
        <ele>1411.7</ele>
        <time>2018-08-08T10:28:13.000Z</time>
      </trkpt>
      <trkpt lat="42.71908" lon="0.65375">
        <ele>1411.8</ele>
        <time>2018-08-08T10:28:14.000Z</time>
      </trkpt>
      <trkpt lat="42.71908" lon="0.65376">
        <ele>1411.8</ele>
        <time>2018-08-08T10:28:15.000Z</time>
      </trkpt>
      <trkpt lat="42.71907" lon="0.65376">
        <ele>1411.9</ele>
        <time>2018-08-08T10:28:16.000Z</time>
      </trkpt>
      <trkpt lat="42.71907" lon="0.65376">
        <ele>1412</ele>
        <time>2018-08-08T10:28:17.000Z</time>
      </trkpt>
      <trkpt lat="42.71906" lon="0.65377">
        <ele>1412.1</ele>
        <time>2018-08-08T10:28:18.000Z</time>
      </trkpt>
      <trkpt lat="42.71906" lon="0.65377">
        <ele>1412.1</ele>
        <time>2018-08-08T10:28:19.000Z</time>
      </trkpt>
      <trkpt lat="42.71905" lon="0.65378">
        <ele>1412.2</ele>
        <time>2018-08-08T10:28:20.000Z</time>
      </trkpt>
      <trkpt lat="42.71905" lon="0.65378">
        <ele>1412.3</ele>
        <time>2018-08-08T10:28:21.000Z</time>
      </trkpt>
      <trkpt lat="42.71905" lon="0.65379">
        <ele>1412.3</ele>
        <time>2018-08-08T10:28:22.000Z</time>
      </trkpt>
      <trkpt lat="42.71904" lon="0.6538">
        <ele>1412.4</ele>
        <time>2018-08-08T10:28:23.000Z</time>
      </trkpt>
      <trkpt lat="42.71904" lon="0.6538">
        <ele>1412.4</ele>
        <time>2018-08-08T10:28:24.000Z</time>
      </trkpt>
      <trkpt lat="42.71904" lon="0.65381">
        <ele>1412.4</ele>
        <time>2018-08-08T10:28:25.000Z</time>
      </trkpt>
      <trkpt lat="42.71904" lon="0.65382">
        <ele>1412.5</ele>
        <time>2018-08-08T10:28:26.000Z</time>
      </trkpt>
      <trkpt lat="42.71904" lon="0.65383">
        <ele>1412.5</ele>
        <time>2018-08-08T10:28:27.000Z</time>
      </trkpt>
      <trkpt lat="42.71904" lon="0.65383">
        <ele>1412.5</ele>
        <time>2018-08-08T10:28:28.000Z</time>
      </trkpt>
      <trkpt lat="42.71904" lon="0.65384">
        <ele>1412.5</ele>
        <time>2018-08-08T10:28:29.000Z</time>
      </trkpt>
      <trkpt lat="42.71904" lon="0.65385">
        <ele>1412.5</ele>
        <time>2018-08-08T10:28:30.000Z</time>
      </trkpt>
      <trkpt lat="42.71904" lon="0.65385">
        <ele>1412.4</ele>
        <time>2018-08-08T10:28:31.000Z</time>
      </trkpt>
      <trkpt lat="42.71904" lon="0.65386">
        <ele>1412.4</ele>
        <time>2018-08-08T10:28:32.000Z</time>
      </trkpt>
      <trkpt lat="42.71905" lon="0.65386">
        <ele>1412.4</ele>
        <time>2018-08-08T10:28:33.000Z</time>
      </trkpt>
      <trkpt lat="42.71905" lon="0.65387">
        <ele>1412.3</ele>
        <time>2018-08-08T10:28:34.000Z</time>
      </trkpt>
      <trkpt lat="42.71905" lon="0.65387">
        <ele>1412.3</ele>
        <time>2018-08-08T10:28:35.000Z</time>
      </trkpt>
      <trkpt lat="42.71905" lon="0.65387">
        <ele>1412.2</ele>
        <time>2018-08-08T10:28:36.000Z</time>
      </trkpt>
      <trkpt lat="42.71906" lon="0.65388">
        <ele>1412.2</ele>
        <time>2018-08-08T10:28:37.000Z</time>
      </trkpt>
      <trkpt lat="42.71906" lon="0.65388">
        <ele>1412.2</ele>
        <time>2018-08-08T10:28:38.000Z</time>
      </trkpt>
      <trkpt lat="42.71906" lon="0.65388">
        <ele>1412.2</ele>
        <time>2018-08-08T10:28:39.000Z</time>
      </trkpt>
      <trkpt lat="42.71906" lon="0.65388">
        <ele>1412.1</ele>
        <time>2018-08-08T10:28:40.000Z</time>
      </trkpt>
      <trkpt lat="42.71906" lon="0.65388">
        <ele>1412.1</ele>
        <time>2018-08-08T10:28:41.000Z</time>
      </trkpt>
      <trkpt lat="42.71906" lon="0.65388">
        <ele>1412.1</ele>
        <time>2018-08-08T10:28:42.000Z</time>
      </trkpt>
      <trkpt lat="42.71906" lon="0.65388">
        <ele>1412.1</ele>
        <time>2018-08-08T10:28:43.000Z</time>
      </trkpt>
      <trkpt lat="42.71906" lon="0.65388">
        <ele>1412.1</ele>
        <time>2018-08-08T10:28:44.000Z</time>
      </trkpt>
      <trkpt lat="42.71906" lon="0.65388">
        <ele>1412.1</ele>
        <time>2018-08-08T10:28:45.000Z</time>
      </trkpt>
      <trkpt lat="42.71906" lon="0.65388">
        <ele>1412.1</ele>
        <time>2018-08-08T10:28:46.000Z</time>
      </trkpt>
      <trkpt lat="42.71906" lon="0.65388">
        <ele>1412.1</ele>
        <time>2018-08-08T10:28:47.000Z</time>
      </trkpt>
      <trkpt lat="42.71906" lon="0.65388">
        <ele>1412.1</ele>
        <time>2018-08-08T10:28:48.000Z</time>
      </trkpt>
      <trkpt lat="42.71906" lon="0.65388">
        <ele>1412.1</ele>
        <time>2018-08-08T10:28:49.000Z</time>
      </trkpt>
      <trkpt lat="42.71906" lon="0.65388">
        <ele>1412.1</ele>
        <time>2018-08-08T10:28:50.000Z</time>
      </trkpt>
      <trkpt lat="42.71906" lon="0.65388">
        <ele>1412.1</ele>
        <time>2018-08-08T10:28:51.000Z</time>
      </trkpt>
      <trkpt lat="42.71906" lon="0.65388">
        <ele>1412.1</ele>
        <time>2018-08-08T10:28:52.000Z</time>
      </trkpt>
      <trkpt lat="42.71906" lon="0.65388">
        <ele>1412.1</ele>
        <time>2018-08-08T10:28:53.000Z</time>
      </trkpt>
      <trkpt lat="42.71906" lon="0.65388">
        <ele>1412.1</ele>
        <time>2018-08-08T10:28:54.000Z</time>
      </trkpt>
      <trkpt lat="42.71906" lon="0.65388">
        <ele>1412.1</ele>
        <time>2018-08-08T10:28:55.000Z</time>
      </trkpt>
      <trkpt lat="42.71906" lon="0.65389">
        <ele>1412.1</ele>
        <time>2018-08-08T10:28:56.000Z</time>
      </trkpt>
      <trkpt lat="42.71907" lon="0.65389">
        <ele>1412</ele>
        <time>2018-08-08T10:28:57.000Z</time>
      </trkpt>
      <trkpt lat="42.71907" lon="0.65389">
        <ele>1412</ele>
        <time>2018-08-08T10:28:58.000Z</time>
      </trkpt>
      <trkpt lat="42.71907" lon="0.65389">
        <ele>1412</ele>
        <time>2018-08-08T10:28:59.000Z</time>
      </trkpt>
      <trkpt lat="42.71907" lon="0.6539">
        <ele>1411.9</ele>
        <time>2018-08-08T10:29:00.000Z</time>
      </trkpt>
      <trkpt lat="42.71908" lon="0.6539">
        <ele>1411.9</ele>
        <time>2018-08-08T10:29:01.000Z</time>
      </trkpt>
      <trkpt lat="42.71908" lon="0.65391">
        <ele>1411.8</ele>
        <time>2018-08-08T10:29:02.000Z</time>
      </trkpt>
      <trkpt lat="42.71908" lon="0.65391">
        <ele>1411.8</ele>
        <time>2018-08-08T10:29:03.000Z</time>
      </trkpt>
      <trkpt lat="42.71908" lon="0.65392">
        <ele>1411.7</ele>
        <time>2018-08-08T10:29:04.000Z</time>
      </trkpt>
      <trkpt lat="42.71909" lon="0.65393">
        <ele>1411.6</ele>
        <time>2018-08-08T10:29:05.000Z</time>
      </trkpt>
      <trkpt lat="42.71909" lon="0.65393">
        <ele>1411.6</ele>
        <time>2018-08-08T10:29:06.000Z</time>
      </trkpt>
      <trkpt lat="42.7191" lon="0.65394">
        <ele>1411.5</ele>
        <time>2018-08-08T10:29:07.000Z</time>
      </trkpt>
      <trkpt lat="42.7191" lon="0.65395">
        <ele>1411.4</ele>
        <time>2018-08-08T10:29:08.000Z</time>
      </trkpt>
      <trkpt lat="42.7191" lon="0.65396">
        <ele>1411.4</ele>
        <time>2018-08-08T10:29:09.000Z</time>
      </trkpt>
      <trkpt lat="42.71911" lon="0.65397">
        <ele>1411.3</ele>
        <time>2018-08-08T10:29:10.000Z</time>
      </trkpt>
      <trkpt lat="42.71911" lon="0.65398">
        <ele>1411.2</ele>
        <time>2018-08-08T10:29:11.000Z</time>
      </trkpt>
      <trkpt lat="42.71912" lon="0.65399">
        <ele>1411.1</ele>
        <time>2018-08-08T10:29:12.000Z</time>
      </trkpt>
      <trkpt lat="42.71912" lon="0.654">
        <ele>1411</ele>
        <time>2018-08-08T10:29:13.000Z</time>
      </trkpt>
      <trkpt lat="42.71913" lon="0.65401">
        <ele>1411</ele>
        <time>2018-08-08T10:29:14.000Z</time>
      </trkpt>
      <trkpt lat="42.71913" lon="0.65402">
        <ele>1410.9</ele>
        <time>2018-08-08T10:29:15.000Z</time>
      </trkpt>
      <trkpt lat="42.71913" lon="0.65403">
        <ele>1410.8</ele>
        <time>2018-08-08T10:29:16.000Z</time>
      </trkpt>
      <trkpt lat="42.71914" lon="0.65405">
        <ele>1410.7</ele>
        <time>2018-08-08T10:29:17.000Z</time>
      </trkpt>
      <trkpt lat="42.71914" lon="0.65406">
        <ele>1410.6</ele>
        <time>2018-08-08T10:29:18.000Z</time>
      </trkpt>
      <trkpt lat="42.71914" lon="0.65407">
        <ele>1410.6</ele>
        <time>2018-08-08T10:29:19.000Z</time>
      </trkpt>
      <trkpt lat="42.71915" lon="0.65408">
        <ele>1410.5</ele>
        <time>2018-08-08T10:29:20.000Z</time>
      </trkpt>
      <trkpt lat="42.71915" lon="0.65409">
        <ele>1410.5</ele>
        <time>2018-08-08T10:29:21.000Z</time>
      </trkpt>
      <trkpt lat="42.71915" lon="0.65411">
        <ele>1410.4</ele>
        <time>2018-08-08T10:29:22.000Z</time>
      </trkpt>
      <trkpt lat="42.71915" lon="0.65412">
        <ele>1410.3</ele>
        <time>2018-08-08T10:29:23.000Z</time>
      </trkpt>
      <trkpt lat="42.71915" lon="0.65413">
        <ele>1410.3</ele>
        <time>2018-08-08T10:29:24.000Z</time>
      </trkpt>
      <trkpt lat="42.71916" lon="0.65414">
        <ele>1410.3</ele>
        <time>2018-08-08T10:29:25.000Z</time>
      </trkpt>
      <trkpt lat="42.71916" lon="0.65416">
        <ele>1410.2</ele>
        <time>2018-08-08T10:29:26.000Z</time>
      </trkpt>
      <trkpt lat="42.71916" lon="0.65417">
        <ele>1410.2</ele>
        <time>2018-08-08T10:29:27.000Z</time>
      </trkpt>
      <trkpt lat="42.71916" lon="0.65418">
        <ele>1410.5</ele>
        <time>2018-08-08T10:29:28.000Z</time>
      </trkpt>
      <trkpt lat="42.71916" lon="0.6542">
        <ele>1410.8</ele>
        <time>2018-08-08T10:29:29.000Z</time>
      </trkpt>
      <trkpt lat="42.71916" lon="0.65421">
        <ele>1411.2</ele>
        <time>2018-08-08T10:29:30.000Z</time>
      </trkpt>
      <trkpt lat="42.71916" lon="0.65423">
        <ele>1411.5</ele>
        <time>2018-08-08T10:29:31.000Z</time>
      </trkpt>
      <trkpt lat="42.71916" lon="0.65424">
        <ele>1411.8</ele>
        <time>2018-08-08T10:29:32.000Z</time>
      </trkpt>
      <trkpt lat="42.71916" lon="0.65426">
        <ele>1412.2</ele>
        <time>2018-08-08T10:29:33.000Z</time>
      </trkpt>
      <trkpt lat="42.71916" lon="0.65427">
        <ele>1412.6</ele>
        <time>2018-08-08T10:29:34.000Z</time>
      </trkpt>
      <trkpt lat="42.71916" lon="0.65429">
        <ele>1413</ele>
        <time>2018-08-08T10:29:35.000Z</time>
      </trkpt>
      <trkpt lat="42.71916" lon="0.65431">
        <ele>1413.4</ele>
        <time>2018-08-08T10:29:36.000Z</time>
      </trkpt>
      <trkpt lat="42.71916" lon="0.65433">
        <ele>1413.8</ele>
        <time>2018-08-08T10:29:37.000Z</time>
      </trkpt>
      <trkpt lat="42.71916" lon="0.65434">
        <ele>1414.1</ele>
        <time>2018-08-08T10:29:38.000Z</time>
      </trkpt>
      <trkpt lat="42.71916" lon="0.65436">
        <ele>1414.5</ele>
        <time>2018-08-08T10:29:39.000Z</time>
      </trkpt>
      <trkpt lat="42.71917" lon="0.65438">
        <ele>1414.8</ele>
        <time>2018-08-08T10:29:40.000Z</time>
      </trkpt>
      <trkpt lat="42.71917" lon="0.65439">
        <ele>1415</ele>
        <time>2018-08-08T10:29:41.000Z</time>
      </trkpt>
      <trkpt lat="42.71917" lon="0.6544">
        <ele>1415.2</ele>
        <time>2018-08-08T10:29:42.000Z</time>
      </trkpt>
      <trkpt lat="42.71918" lon="0.65441">
        <ele>1415.2</ele>
        <time>2018-08-08T10:29:43.000Z</time>
      </trkpt>
      <trkpt lat="42.71919" lon="0.65442">
        <ele>1415.2</ele>
        <time>2018-08-08T10:29:44.000Z</time>
      </trkpt>
      <trkpt lat="42.71919" lon="0.65443">
        <ele>1415.2</ele>
        <time>2018-08-08T10:29:45.000Z</time>
      </trkpt>
      <trkpt lat="42.7192" lon="0.65443">
        <ele>1415.1</ele>
        <time>2018-08-08T10:29:46.000Z</time>
      </trkpt>
      <trkpt lat="42.71921" lon="0.65444">
        <ele>1415.1</ele>
        <time>2018-08-08T10:29:47.000Z</time>
      </trkpt>
      <trkpt lat="42.71922" lon="0.65445">
        <ele>1414.9</ele>
        <time>2018-08-08T10:29:48.000Z</time>
      </trkpt>
      <trkpt lat="42.71922" lon="0.65445">
        <ele>1414.8</ele>
        <time>2018-08-08T10:29:49.000Z</time>
      </trkpt>
      <trkpt lat="42.71923" lon="0.65446">
        <ele>1414.7</ele>
        <time>2018-08-08T10:29:50.000Z</time>
      </trkpt>
      <trkpt lat="42.71924" lon="0.65447">
        <ele>1414.6</ele>
        <time>2018-08-08T10:29:51.000Z</time>
      </trkpt>
      <trkpt lat="42.71925" lon="0.65448">
        <ele>1414.4</ele>
        <time>2018-08-08T10:29:52.000Z</time>
      </trkpt>
      <trkpt lat="42.71926" lon="0.65448">
        <ele>1414.3</ele>
        <time>2018-08-08T10:29:53.000Z</time>
      </trkpt>
      <trkpt lat="42.71927" lon="0.65449">
        <ele>1414.2</ele>
        <time>2018-08-08T10:29:54.000Z</time>
      </trkpt>
      <trkpt lat="42.71928" lon="0.6545">
        <ele>1414</ele>
        <time>2018-08-08T10:29:55.000Z</time>
      </trkpt>
      <trkpt lat="42.71929" lon="0.65451">
        <ele>1413.9</ele>
        <time>2018-08-08T10:29:56.000Z</time>
      </trkpt>
      <trkpt lat="42.71929" lon="0.65451">
        <ele>1413.7</ele>
        <time>2018-08-08T10:29:57.000Z</time>
      </trkpt>
      <trkpt lat="42.7193" lon="0.65452">
        <ele>1413.5</ele>
        <time>2018-08-08T10:29:58.000Z</time>
      </trkpt>
      <trkpt lat="42.71931" lon="0.65453">
        <ele>1413.4</ele>
        <time>2018-08-08T10:29:59.000Z</time>
      </trkpt>
      <trkpt lat="42.71932" lon="0.65453">
        <ele>1413.2</ele>
        <time>2018-08-08T10:30:00.000Z</time>
      </trkpt>
      <trkpt lat="42.71933" lon="0.65454">
        <ele>1413</ele>
        <time>2018-08-08T10:30:01.000Z</time>
      </trkpt>
      <trkpt lat="42.71934" lon="0.65454">
        <ele>1412.8</ele>
        <time>2018-08-08T10:30:02.000Z</time>
      </trkpt>
      <trkpt lat="42.71935" lon="0.65455">
        <ele>1412.6</ele>
        <time>2018-08-08T10:30:03.000Z</time>
      </trkpt>
      <trkpt lat="42.71936" lon="0.65455">
        <ele>1412.3</ele>
        <time>2018-08-08T10:30:04.000Z</time>
      </trkpt>
      <trkpt lat="42.71937" lon="0.65456">
        <ele>1412.1</ele>
        <time>2018-08-08T10:30:05.000Z</time>
      </trkpt>
      <trkpt lat="42.71937" lon="0.65456">
        <ele>1411.9</ele>
        <time>2018-08-08T10:30:06.000Z</time>
      </trkpt>
      <trkpt lat="42.71938" lon="0.65457">
        <ele>1411.6</ele>
        <time>2018-08-08T10:30:07.000Z</time>
      </trkpt>
      <trkpt lat="42.71939" lon="0.65457">
        <ele>1411.4</ele>
        <time>2018-08-08T10:30:08.000Z</time>
      </trkpt>
      <trkpt lat="42.7194" lon="0.65457">
        <ele>1411.1</ele>
        <time>2018-08-08T10:30:09.000Z</time>
      </trkpt>
      <trkpt lat="42.71941" lon="0.65458">
        <ele>1410.8</ele>
        <time>2018-08-08T10:30:10.000Z</time>
      </trkpt>
      <trkpt lat="42.71942" lon="0.65458">
        <ele>1410.6</ele>
        <time>2018-08-08T10:30:11.000Z</time>
      </trkpt>
      <trkpt lat="42.71943" lon="0.65458">
        <ele>1410.3</ele>
        <time>2018-08-08T10:30:12.000Z</time>
      </trkpt>
      <trkpt lat="42.71944" lon="0.65458">
        <ele>1410</ele>
        <time>2018-08-08T10:30:13.000Z</time>
      </trkpt>
      <trkpt lat="42.71945" lon="0.65459">
        <ele>1409.7</ele>
        <time>2018-08-08T10:30:14.000Z</time>
      </trkpt>
      <trkpt lat="42.71945" lon="0.65459">
        <ele>1409.4</ele>
        <time>2018-08-08T10:30:15.000Z</time>
      </trkpt>
      <trkpt lat="42.71946" lon="0.65459">
        <ele>1409</ele>
        <time>2018-08-08T10:30:16.000Z</time>
      </trkpt>
      <trkpt lat="42.71947" lon="0.65459">
        <ele>1408.7</ele>
        <time>2018-08-08T10:30:17.000Z</time>
      </trkpt>
      <trkpt lat="42.71948" lon="0.6546">
        <ele>1408.4</ele>
        <time>2018-08-08T10:30:18.000Z</time>
      </trkpt>
      <trkpt lat="42.7195" lon="0.6546">
        <ele>1408</ele>
        <time>2018-08-08T10:30:19.000Z</time>
      </trkpt>
      <trkpt lat="42.71951" lon="0.6546">
        <ele>1407.7</ele>
        <time>2018-08-08T10:30:20.000Z</time>
      </trkpt>
      <trkpt lat="42.71952" lon="0.65461">
        <ele>1407.4</ele>
        <time>2018-08-08T10:30:21.000Z</time>
      </trkpt>
      <trkpt lat="42.71953" lon="0.65461">
        <ele>1407</ele>
        <time>2018-08-08T10:30:22.000Z</time>
      </trkpt>
      <trkpt lat="42.71954" lon="0.65462">
        <ele>1406.6</ele>
        <time>2018-08-08T10:30:23.000Z</time>
      </trkpt>
      <trkpt lat="42.71955" lon="0.65462">
        <ele>1406.3</ele>
        <time>2018-08-08T10:30:24.000Z</time>
      </trkpt>
      <trkpt lat="42.71956" lon="0.65463">
        <ele>1405.9</ele>
        <time>2018-08-08T10:30:25.000Z</time>
      </trkpt>
      <trkpt lat="42.71957" lon="0.65463">
        <ele>1405.5</ele>
        <time>2018-08-08T10:30:26.000Z</time>
      </trkpt>
      <trkpt lat="42.71958" lon="0.65464">
        <ele>1405.1</ele>
        <time>2018-08-08T10:30:27.000Z</time>
      </trkpt>
      <trkpt lat="42.71959" lon="0.65464">
        <ele>1404.8</ele>
        <time>2018-08-08T10:30:28.000Z</time>
      </trkpt>
      <trkpt lat="42.7196" lon="0.65465">
        <ele>1404.4</ele>
        <time>2018-08-08T10:30:29.000Z</time>
      </trkpt>
      <trkpt lat="42.71961" lon="0.65466">
        <ele>1404.1</ele>
        <time>2018-08-08T10:30:30.000Z</time>
      </trkpt>
      <trkpt lat="42.71963" lon="0.65466">
        <ele>1403.7</ele>
        <time>2018-08-08T10:30:31.000Z</time>
      </trkpt>
      <trkpt lat="42.71964" lon="0.65467">
        <ele>1403.3</ele>
        <time>2018-08-08T10:30:32.000Z</time>
      </trkpt>
      <trkpt lat="42.71965" lon="0.65468">
        <ele>1403</ele>
        <time>2018-08-08T10:30:33.000Z</time>
      </trkpt>
      <trkpt lat="42.71965" lon="0.65469">
        <ele>1402.6</ele>
        <time>2018-08-08T10:30:34.000Z</time>
      </trkpt>
      <trkpt lat="42.71966" lon="0.6547">
        <ele>1402.3</ele>
        <time>2018-08-08T10:30:35.000Z</time>
      </trkpt>
      <trkpt lat="42.71967" lon="0.65471">
        <ele>1402</ele>
        <time>2018-08-08T10:30:36.000Z</time>
      </trkpt>
      <trkpt lat="42.71968" lon="0.65472">
        <ele>1401.7</ele>
        <time>2018-08-08T10:30:37.000Z</time>
      </trkpt>
      <trkpt lat="42.71969" lon="0.65473">
        <ele>1401.4</ele>
        <time>2018-08-08T10:30:38.000Z</time>
      </trkpt>
      <trkpt lat="42.7197" lon="0.65474">
        <ele>1401.1</ele>
        <time>2018-08-08T10:30:39.000Z</time>
      </trkpt>
      <trkpt lat="42.7197" lon="0.65475">
        <ele>1400.8</ele>
        <time>2018-08-08T10:30:40.000Z</time>
      </trkpt>
      <trkpt lat="42.71971" lon="0.65476">
        <ele>1400.5</ele>
        <time>2018-08-08T10:30:41.000Z</time>
      </trkpt>
      <trkpt lat="42.71972" lon="0.65477">
        <ele>1400.3</ele>
        <time>2018-08-08T10:30:42.000Z</time>
      </trkpt>
      <trkpt lat="42.71972" lon="0.65479">
        <ele>1400.1</ele>
        <time>2018-08-08T10:30:43.000Z</time>
      </trkpt>
      <trkpt lat="42.71973" lon="0.6548">
        <ele>1399.9</ele>
        <time>2018-08-08T10:30:44.000Z</time>
      </trkpt>
      <trkpt lat="42.71973" lon="0.65482">
        <ele>1399.7</ele>
        <time>2018-08-08T10:30:45.000Z</time>
      </trkpt>
      <trkpt lat="42.71974" lon="0.65483">
        <ele>1399.6</ele>
        <time>2018-08-08T10:30:46.000Z</time>
      </trkpt>
      <trkpt lat="42.71974" lon="0.65485">
        <ele>1399.5</ele>
        <time>2018-08-08T10:30:47.000Z</time>
      </trkpt>
      <trkpt lat="42.71974" lon="0.65486">
        <ele>1399.4</ele>
        <time>2018-08-08T10:30:48.000Z</time>
      </trkpt>
      <trkpt lat="42.71974" lon="0.65488">
        <ele>1399.3</ele>
        <time>2018-08-08T10:30:49.000Z</time>
      </trkpt>
      <trkpt lat="42.71974" lon="0.6549">
        <ele>1399.3</ele>
        <time>2018-08-08T10:30:50.000Z</time>
      </trkpt>
      <trkpt lat="42.71974" lon="0.65492">
        <ele>1399.3</ele>
        <time>2018-08-08T10:30:51.000Z</time>
      </trkpt>
      <trkpt lat="42.71974" lon="0.65493">
        <ele>1399.2</ele>
        <time>2018-08-08T10:30:52.000Z</time>
      </trkpt>
      <trkpt lat="42.71974" lon="0.65495">
        <ele>1399.3</ele>
        <time>2018-08-08T10:30:53.000Z</time>
      </trkpt>
      <trkpt lat="42.71974" lon="0.65497">
        <ele>1399.3</ele>
        <time>2018-08-08T10:30:54.000Z</time>
      </trkpt>
      <trkpt lat="42.71974" lon="0.65499">
        <ele>1399.4</ele>
        <time>2018-08-08T10:30:55.000Z</time>
      </trkpt>
      <trkpt lat="42.71974" lon="0.65501">
        <ele>1399.4</ele>
        <time>2018-08-08T10:30:56.000Z</time>
      </trkpt>
      <trkpt lat="42.71974" lon="0.65502">
        <ele>1399.5</ele>
        <time>2018-08-08T10:30:57.000Z</time>
      </trkpt>
      <trkpt lat="42.71974" lon="0.65504">
        <ele>1399.7</ele>
        <time>2018-08-08T10:30:58.000Z</time>
      </trkpt>
      <trkpt lat="42.71974" lon="0.65506">
        <ele>1399.8</ele>
        <time>2018-08-08T10:30:59.000Z</time>
      </trkpt>
      <trkpt lat="42.71974" lon="0.65507">
        <ele>1399.9</ele>
        <time>2018-08-08T10:31:00.000Z</time>
      </trkpt>
      <trkpt lat="42.71974" lon="0.65509">
        <ele>1400</ele>
        <time>2018-08-08T10:31:01.000Z</time>
      </trkpt>
      <trkpt lat="42.71974" lon="0.65511">
        <ele>1400.1</ele>
        <time>2018-08-08T10:31:02.000Z</time>
      </trkpt>
      <trkpt lat="42.71974" lon="0.65512">
        <ele>1400.2</ele>
        <time>2018-08-08T10:31:03.000Z</time>
      </trkpt>
      <trkpt lat="42.71974" lon="0.65513">
        <ele>1400.2</ele>
        <time>2018-08-08T10:31:04.000Z</time>
      </trkpt>
      <trkpt lat="42.71974" lon="0.65515">
        <ele>1400.2</ele>
        <time>2018-08-08T10:31:05.000Z</time>
      </trkpt>
      <trkpt lat="42.71974" lon="0.65516">
        <ele>1400.2</ele>
        <time>2018-08-08T10:31:06.000Z</time>
      </trkpt>
      <trkpt lat="42.71974" lon="0.65517">
        <ele>1400.2</ele>
        <time>2018-08-08T10:31:07.000Z</time>
      </trkpt>
      <trkpt lat="42.71974" lon="0.65519">
        <ele>1400.2</ele>
        <time>2018-08-08T10:31:08.000Z</time>
      </trkpt>
      <trkpt lat="42.71975" lon="0.6552">
        <ele>1400.1</ele>
        <time>2018-08-08T10:31:09.000Z</time>
      </trkpt>
      <trkpt lat="42.71975" lon="0.65521">
        <ele>1400.1</ele>
        <time>2018-08-08T10:31:10.000Z</time>
      </trkpt>
      <trkpt lat="42.71975" lon="0.65522">
        <ele>1400</ele>
        <time>2018-08-08T10:31:11.000Z</time>
      </trkpt>
      <trkpt lat="42.71975" lon="0.65523">
        <ele>1400</ele>
        <time>2018-08-08T10:31:12.000Z</time>
      </trkpt>
      <trkpt lat="42.71975" lon="0.65525">
        <ele>1399.9</ele>
        <time>2018-08-08T10:31:13.000Z</time>
      </trkpt>
      <trkpt lat="42.71976" lon="0.65526">
        <ele>1399.9</ele>
        <time>2018-08-08T10:31:14.000Z</time>
      </trkpt>
      <trkpt lat="42.71976" lon="0.65527">
        <ele>1399.8</ele>
        <time>2018-08-08T10:31:15.000Z</time>
      </trkpt>
      <trkpt lat="42.71976" lon="0.65528">
        <ele>1399.7</ele>
        <time>2018-08-08T10:31:16.000Z</time>
      </trkpt>
      <trkpt lat="42.71976" lon="0.65529">
        <ele>1399.7</ele>
        <time>2018-08-08T10:31:17.000Z</time>
      </trkpt>
      <trkpt lat="42.71977" lon="0.65531">
        <ele>1399.6</ele>
        <time>2018-08-08T10:31:18.000Z</time>
      </trkpt>
      <trkpt lat="42.71977" lon="0.65532">
        <ele>1399.6</ele>
        <time>2018-08-08T10:31:19.000Z</time>
      </trkpt>
      <trkpt lat="42.71977" lon="0.65533">
        <ele>1399.5</ele>
        <time>2018-08-08T10:31:20.000Z</time>
      </trkpt>
      <trkpt lat="42.71977" lon="0.65534">
        <ele>1399.4</ele>
        <time>2018-08-08T10:31:21.000Z</time>
      </trkpt>
      <trkpt lat="42.71977" lon="0.65536">
        <ele>1399.4</ele>
        <time>2018-08-08T10:31:22.000Z</time>
      </trkpt>
      <trkpt lat="42.71978" lon="0.65537">
        <ele>1399.3</ele>
        <time>2018-08-08T10:31:23.000Z</time>
      </trkpt>
      <trkpt lat="42.71978" lon="0.65538">
        <ele>1399.3</ele>
        <time>2018-08-08T10:31:24.000Z</time>
      </trkpt>
      <trkpt lat="42.71978" lon="0.65539">
        <ele>1399.2</ele>
        <time>2018-08-08T10:31:25.000Z</time>
      </trkpt>
      <trkpt lat="42.71978" lon="0.6554">
        <ele>1399.2</ele>
        <time>2018-08-08T10:31:26.000Z</time>
      </trkpt>
      <trkpt lat="42.71978" lon="0.65541">
        <ele>1399.1</ele>
        <time>2018-08-08T10:31:27.000Z</time>
      </trkpt>
      <trkpt lat="42.71978" lon="0.65542">
        <ele>1399.1</ele>
        <time>2018-08-08T10:31:28.000Z</time>
      </trkpt>
      <trkpt lat="42.71979" lon="0.65543">
        <ele>1399.1</ele>
        <time>2018-08-08T10:31:29.000Z</time>
      </trkpt>
      <trkpt lat="42.71979" lon="0.65543">
        <ele>1399</ele>
        <time>2018-08-08T10:31:30.000Z</time>
      </trkpt>
      <trkpt lat="42.71979" lon="0.65544">
        <ele>1399</ele>
        <time>2018-08-08T10:31:31.000Z</time>
      </trkpt>
      <trkpt lat="42.71979" lon="0.65545">
        <ele>1399</ele>
        <time>2018-08-08T10:31:32.000Z</time>
      </trkpt>
      <trkpt lat="42.71979" lon="0.65545">
        <ele>1399</ele>
        <time>2018-08-08T10:31:33.000Z</time>
      </trkpt>
      <trkpt lat="42.71979" lon="0.65546">
        <ele>1399</ele>
        <time>2018-08-08T10:31:34.000Z</time>
      </trkpt>
      <trkpt lat="42.71979" lon="0.65547">
        <ele>1399.1</ele>
        <time>2018-08-08T10:31:35.000Z</time>
      </trkpt>
      <trkpt lat="42.71979" lon="0.65547">
        <ele>1399.1</ele>
        <time>2018-08-08T10:31:36.000Z</time>
      </trkpt>
      <trkpt lat="42.71979" lon="0.65548">
        <ele>1399.2</ele>
        <time>2018-08-08T10:31:37.000Z</time>
      </trkpt>
      <trkpt lat="42.71979" lon="0.65549">
        <ele>1399.2</ele>
        <time>2018-08-08T10:31:38.000Z</time>
      </trkpt>
      <trkpt lat="42.71979" lon="0.6555">
        <ele>1399.3</ele>
        <time>2018-08-08T10:31:39.000Z</time>
      </trkpt>
      <trkpt lat="42.71979" lon="0.65551">
        <ele>1399.4</ele>
        <time>2018-08-08T10:31:40.000Z</time>
      </trkpt>
      <trkpt lat="42.71978" lon="0.65552">
        <ele>1399.6</ele>
        <time>2018-08-08T10:31:41.000Z</time>
      </trkpt>
      <trkpt lat="42.71978" lon="0.65554">
        <ele>1399.7</ele>
        <time>2018-08-08T10:31:42.000Z</time>
      </trkpt>
      <trkpt lat="42.71978" lon="0.65556">
        <ele>1399.8</ele>
        <time>2018-08-08T10:31:43.000Z</time>
      </trkpt>
      <trkpt lat="42.71978" lon="0.65557">
        <ele>1400</ele>
        <time>2018-08-08T10:31:44.000Z</time>
      </trkpt>
      <trkpt lat="42.71978" lon="0.65559">
        <ele>1400.2</ele>
        <time>2018-08-08T10:31:45.000Z</time>
      </trkpt>
      <trkpt lat="42.71978" lon="0.65561">
        <ele>1400.3</ele>
        <time>2018-08-08T10:31:46.000Z</time>
      </trkpt>
      <trkpt lat="42.71978" lon="0.65562">
        <ele>1400.5</ele>
        <time>2018-08-08T10:31:47.000Z</time>
      </trkpt>
      <trkpt lat="42.71977" lon="0.65564">
        <ele>1400.7</ele>
        <time>2018-08-08T10:31:48.000Z</time>
      </trkpt>
      <trkpt lat="42.71977" lon="0.65566">
        <ele>1400.9</ele>
        <time>2018-08-08T10:31:49.000Z</time>
      </trkpt>
      <trkpt lat="42.71977" lon="0.65567">
        <ele>1401.1</ele>
        <time>2018-08-08T10:31:50.000Z</time>
      </trkpt>
      <trkpt lat="42.71977" lon="0.65569">
        <ele>1401.3</ele>
        <time>2018-08-08T10:31:51.000Z</time>
      </trkpt>
      <trkpt lat="42.71977" lon="0.65571">
        <ele>1401.5</ele>
        <time>2018-08-08T10:31:52.000Z</time>
      </trkpt>
      <trkpt lat="42.71977" lon="0.65572">
        <ele>1401.7</ele>
        <time>2018-08-08T10:31:53.000Z</time>
      </trkpt>
      <trkpt lat="42.71976" lon="0.65574">
        <ele>1401.9</ele>
        <time>2018-08-08T10:31:54.000Z</time>
      </trkpt>
      <trkpt lat="42.71976" lon="0.65575">
        <ele>1402.1</ele>
        <time>2018-08-08T10:31:55.000Z</time>
      </trkpt>
      <trkpt lat="42.71976" lon="0.65577">
        <ele>1402.3</ele>
        <time>2018-08-08T10:31:56.000Z</time>
      </trkpt>
      <trkpt lat="42.71976" lon="0.65578">
        <ele>1402.6</ele>
        <time>2018-08-08T10:31:57.000Z</time>
      </trkpt>
      <trkpt lat="42.71975" lon="0.6558">
        <ele>1402.8</ele>
        <time>2018-08-08T10:31:58.000Z</time>
      </trkpt>
      <trkpt lat="42.71975" lon="0.65581">
        <ele>1403</ele>
        <time>2018-08-08T10:31:59.000Z</time>
      </trkpt>
      <trkpt lat="42.71975" lon="0.65582">
        <ele>1403.2</ele>
        <time>2018-08-08T10:32:00.000Z</time>
      </trkpt>
      <trkpt lat="42.71975" lon="0.65584">
        <ele>1403.3</ele>
        <time>2018-08-08T10:32:01.000Z</time>
      </trkpt>
      <trkpt lat="42.71975" lon="0.65585">
        <ele>1403.6</ele>
        <time>2018-08-08T10:32:02.000Z</time>
      </trkpt>
      <trkpt lat="42.71974" lon="0.65586">
        <ele>1403.8</ele>
        <time>2018-08-08T10:32:03.000Z</time>
      </trkpt>
      <trkpt lat="42.71974" lon="0.65587">
        <ele>1404</ele>
        <time>2018-08-08T10:32:04.000Z</time>
      </trkpt>
      <trkpt lat="42.71974" lon="0.65588">
        <ele>1404.3</ele>
        <time>2018-08-08T10:32:05.000Z</time>
      </trkpt>
      <trkpt lat="42.71974" lon="0.6559">
        <ele>1404.5</ele>
        <time>2018-08-08T10:32:06.000Z</time>
      </trkpt>
      <trkpt lat="42.71973" lon="0.65591">
        <ele>1404.8</ele>
        <time>2018-08-08T10:32:07.000Z</time>
      </trkpt>
      <trkpt lat="42.71973" lon="0.65592">
        <ele>1405</ele>
        <time>2018-08-08T10:32:08.000Z</time>
      </trkpt>
      <trkpt lat="42.71973" lon="0.65593">
        <ele>1405.2</ele>
        <time>2018-08-08T10:32:09.000Z</time>
      </trkpt>
      <trkpt lat="42.71973" lon="0.65595">
        <ele>1405.4</ele>
        <time>2018-08-08T10:32:10.000Z</time>
      </trkpt>
      <trkpt lat="42.71972" lon="0.65596">
        <ele>1405.7</ele>
        <time>2018-08-08T10:32:11.000Z</time>
      </trkpt>
      <trkpt lat="42.71972" lon="0.65597">
        <ele>1406</ele>
        <time>2018-08-08T10:32:12.000Z</time>
      </trkpt>
      <trkpt lat="42.71972" lon="0.65599">
        <ele>1406.2</ele>
        <time>2018-08-08T10:32:13.000Z</time>
      </trkpt>
      <trkpt lat="42.71971" lon="0.656">
        <ele>1406.5</ele>
        <time>2018-08-08T10:32:14.000Z</time>
      </trkpt>
      <trkpt lat="42.71971" lon="0.65602">
        <ele>1406.8</ele>
        <time>2018-08-08T10:32:15.000Z</time>
      </trkpt>
      <trkpt lat="42.71971" lon="0.65603">
        <ele>1407</ele>
        <time>2018-08-08T10:32:16.000Z</time>
      </trkpt>
      <trkpt lat="42.71971" lon="0.65605">
        <ele>1407.3</ele>
        <time>2018-08-08T10:32:17.000Z</time>
      </trkpt>
      <trkpt lat="42.7197" lon="0.65606">
        <ele>1407.5</ele>
        <time>2018-08-08T10:32:18.000Z</time>
      </trkpt>
      <trkpt lat="42.7197" lon="0.65608">
        <ele>1407.8</ele>
        <time>2018-08-08T10:32:19.000Z</time>
      </trkpt>
      <trkpt lat="42.7197" lon="0.6561">
        <ele>1408.1</ele>
        <time>2018-08-08T10:32:20.000Z</time>
      </trkpt>
      <trkpt lat="42.71969" lon="0.65611">
        <ele>1408.4</ele>
        <time>2018-08-08T10:32:21.000Z</time>
      </trkpt>
      <trkpt lat="42.71969" lon="0.65613">
        <ele>1408.6</ele>
        <time>2018-08-08T10:32:22.000Z</time>
      </trkpt>
      <trkpt lat="42.71969" lon="0.65615">
        <ele>1408.9</ele>
        <time>2018-08-08T10:32:23.000Z</time>
      </trkpt>
      <trkpt lat="42.71968" lon="0.65616">
        <ele>1409.2</ele>
        <time>2018-08-08T10:32:24.000Z</time>
      </trkpt>
      <trkpt lat="42.71968" lon="0.65618">
        <ele>1409.4</ele>
        <time>2018-08-08T10:32:25.000Z</time>
      </trkpt>
      <trkpt lat="42.71967" lon="0.65619">
        <ele>1409.7</ele>
        <time>2018-08-08T10:32:26.000Z</time>
      </trkpt>
      <trkpt lat="42.71967" lon="0.65621">
        <ele>1409.9</ele>
        <time>2018-08-08T10:32:27.000Z</time>
      </trkpt>
      <trkpt lat="42.71967" lon="0.65622">
        <ele>1410.2</ele>
        <time>2018-08-08T10:32:28.000Z</time>
      </trkpt>
      <trkpt lat="42.71966" lon="0.65624">
        <ele>1410.4</ele>
        <time>2018-08-08T10:32:29.000Z</time>
      </trkpt>
      <trkpt lat="42.71966" lon="0.65625">
        <ele>1410.6</ele>
        <time>2018-08-08T10:32:30.000Z</time>
      </trkpt>
      <trkpt lat="42.71966" lon="0.65627">
        <ele>1410.9</ele>
        <time>2018-08-08T10:32:31.000Z</time>
      </trkpt>
      <trkpt lat="42.71965" lon="0.65628">
        <ele>1411.1</ele>
        <time>2018-08-08T10:32:32.000Z</time>
      </trkpt>
      <trkpt lat="42.71965" lon="0.6563">
        <ele>1411.2</ele>
        <time>2018-08-08T10:32:33.000Z</time>
      </trkpt>
      <trkpt lat="42.71965" lon="0.65631">
        <ele>1411.3</ele>
        <time>2018-08-08T10:32:34.000Z</time>
      </trkpt>
      <trkpt lat="42.71965" lon="0.65632">
        <ele>1411.5</ele>
        <time>2018-08-08T10:32:35.000Z</time>
      </trkpt>
      <trkpt lat="42.71965" lon="0.65634">
        <ele>1411.6</ele>
        <time>2018-08-08T10:32:36.000Z</time>
      </trkpt>
      <trkpt lat="42.71965" lon="0.65635">
        <ele>1411.7</ele>
        <time>2018-08-08T10:32:37.000Z</time>
      </trkpt>
      <trkpt lat="42.71965" lon="0.65636">
        <ele>1411.8</ele>
        <time>2018-08-08T10:32:38.000Z</time>
      </trkpt>
      <trkpt lat="42.71965" lon="0.65638">
        <ele>1411.8</ele>
        <time>2018-08-08T10:32:39.000Z</time>
      </trkpt>
      <trkpt lat="42.71965" lon="0.65639">
        <ele>1411.8</ele>
        <time>2018-08-08T10:32:40.000Z</time>
      </trkpt>
      <trkpt lat="42.71965" lon="0.65641">
        <ele>1411.8</ele>
        <time>2018-08-08T10:32:41.000Z</time>
      </trkpt>
      <trkpt lat="42.71965" lon="0.65642">
        <ele>1411.8</ele>
        <time>2018-08-08T10:32:42.000Z</time>
      </trkpt>
      <trkpt lat="42.71965" lon="0.65644">
        <ele>1411.7</ele>
        <time>2018-08-08T10:32:43.000Z</time>
      </trkpt>
      <trkpt lat="42.71966" lon="0.65645">
        <ele>1411.6</ele>
        <time>2018-08-08T10:32:44.000Z</time>
      </trkpt>
      <trkpt lat="42.71966" lon="0.65646">
        <ele>1411.5</ele>
        <time>2018-08-08T10:32:45.000Z</time>
      </trkpt>
      <trkpt lat="42.71966" lon="0.65648">
        <ele>1411.3</ele>
        <time>2018-08-08T10:32:46.000Z</time>
      </trkpt>
      <trkpt lat="42.71967" lon="0.65649">
        <ele>1411.2</ele>
        <time>2018-08-08T10:32:47.000Z</time>
      </trkpt>
      <trkpt lat="42.71967" lon="0.6565">
        <ele>1411.1</ele>
        <time>2018-08-08T10:32:48.000Z</time>
      </trkpt>
      <trkpt lat="42.71968" lon="0.65651">
        <ele>1410.9</ele>
        <time>2018-08-08T10:32:49.000Z</time>
      </trkpt>
      <trkpt lat="42.71968" lon="0.65652">
        <ele>1410.8</ele>
        <time>2018-08-08T10:32:50.000Z</time>
      </trkpt>
      <trkpt lat="42.71969" lon="0.65652">
        <ele>1410.6</ele>
        <time>2018-08-08T10:32:51.000Z</time>
      </trkpt>
      <trkpt lat="42.71969" lon="0.65652">
        <ele>1410.5</ele>
        <time>2018-08-08T10:32:52.000Z</time>
      </trkpt>
      <trkpt lat="42.71969" lon="0.65653">
        <ele>1410.4</ele>
        <time>2018-08-08T10:32:53.000Z</time>
      </trkpt>
      <trkpt lat="42.71969" lon="0.65653">
        <ele>1410.3</ele>
        <time>2018-08-08T10:32:54.000Z</time>
      </trkpt>
      <trkpt lat="42.7197" lon="0.65653">
        <ele>1410.3</ele>
        <time>2018-08-08T10:32:55.000Z</time>
      </trkpt>
      <trkpt lat="42.7197" lon="0.65653">
        <ele>1410.2</ele>
        <time>2018-08-08T10:32:56.000Z</time>
      </trkpt>
      <trkpt lat="42.7197" lon="0.65654">
        <ele>1410.2</ele>
        <time>2018-08-08T10:32:57.000Z</time>
      </trkpt>
      <trkpt lat="42.7197" lon="0.65654">
        <ele>1410.3</ele>
        <time>2018-08-08T10:32:58.000Z</time>
      </trkpt>
      <trkpt lat="42.7197" lon="0.65655">
        <ele>1410.4</ele>
        <time>2018-08-08T10:32:59.000Z</time>
      </trkpt>
      <trkpt lat="42.71969" lon="0.65655">
        <ele>1410.5</ele>
        <time>2018-08-08T10:33:00.000Z</time>
      </trkpt>
      <trkpt lat="42.71969" lon="0.65656">
        <ele>1410.6</ele>
        <time>2018-08-08T10:33:01.000Z</time>
      </trkpt>
      <trkpt lat="42.71969" lon="0.65657">
        <ele>1410.8</ele>
        <time>2018-08-08T10:33:02.000Z</time>
      </trkpt>
      <trkpt lat="42.71969" lon="0.65658">
        <ele>1410.9</ele>
        <time>2018-08-08T10:33:03.000Z</time>
      </trkpt>
      <trkpt lat="42.71968" lon="0.65659">
        <ele>1411.1</ele>
        <time>2018-08-08T10:33:04.000Z</time>
      </trkpt>
      <trkpt lat="42.71968" lon="0.6566">
        <ele>1411.2</ele>
        <time>2018-08-08T10:33:05.000Z</time>
      </trkpt>
      <trkpt lat="42.71968" lon="0.65662">
        <ele>1411.4</ele>
        <time>2018-08-08T10:33:06.000Z</time>
      </trkpt>
      <trkpt lat="42.71968" lon="0.65663">
        <ele>1411.5</ele>
        <time>2018-08-08T10:33:07.000Z</time>
      </trkpt>
      <trkpt lat="42.71967" lon="0.65665">
        <ele>1411.7</ele>
        <time>2018-08-08T10:33:08.000Z</time>
      </trkpt>
      <trkpt lat="42.71967" lon="0.65666">
        <ele>1411.9</ele>
        <time>2018-08-08T10:33:09.000Z</time>
      </trkpt>
      <trkpt lat="42.71967" lon="0.65667">
        <ele>1412.1</ele>
        <time>2018-08-08T10:33:10.000Z</time>
      </trkpt>
      <trkpt lat="42.71967" lon="0.65669">
        <ele>1412.4</ele>
        <time>2018-08-08T10:33:11.000Z</time>
      </trkpt>
      <trkpt lat="42.71967" lon="0.6567">
        <ele>1412.7</ele>
        <time>2018-08-08T10:33:12.000Z</time>
      </trkpt>
      <trkpt lat="42.71966" lon="0.65671">
        <ele>1413</ele>
        <time>2018-08-08T10:33:13.000Z</time>
      </trkpt>
      <trkpt lat="42.71966" lon="0.65673">
        <ele>1413.3</ele>
        <time>2018-08-08T10:33:14.000Z</time>
      </trkpt>
      <trkpt lat="42.71966" lon="0.65674">
        <ele>1413.6</ele>
        <time>2018-08-08T10:33:15.000Z</time>
      </trkpt>
      <trkpt lat="42.71966" lon="0.65675">
        <ele>1413.9</ele>
        <time>2018-08-08T10:33:16.000Z</time>
      </trkpt>
      <trkpt lat="42.71966" lon="0.65676">
        <ele>1414.1</ele>
        <time>2018-08-08T10:33:17.000Z</time>
      </trkpt>
      <trkpt lat="42.71966" lon="0.65677">
        <ele>1414.3</ele>
        <time>2018-08-08T10:33:18.000Z</time>
      </trkpt>
      <trkpt lat="42.71966" lon="0.65679">
        <ele>1414.6</ele>
        <time>2018-08-08T10:33:19.000Z</time>
      </trkpt>
      <trkpt lat="42.71966" lon="0.6568">
        <ele>1414.9</ele>
        <time>2018-08-08T10:33:20.000Z</time>
      </trkpt>
      <trkpt lat="42.71966" lon="0.65681">
        <ele>1415.1</ele>
        <time>2018-08-08T10:33:21.000Z</time>
      </trkpt>
      <trkpt lat="42.71966" lon="0.65682">
        <ele>1415.3</ele>
        <time>2018-08-08T10:33:22.000Z</time>
      </trkpt>
      <trkpt lat="42.71966" lon="0.65683">
        <ele>1415.6</ele>
        <time>2018-08-08T10:33:23.000Z</time>
      </trkpt>
      <trkpt lat="42.71966" lon="0.65684">
        <ele>1415.8</ele>
        <time>2018-08-08T10:33:24.000Z</time>
      </trkpt>
      <trkpt lat="42.71965" lon="0.65686">
        <ele>1416.1</ele>
        <time>2018-08-08T10:33:25.000Z</time>
      </trkpt>
      <trkpt lat="42.71965" lon="0.65687">
        <ele>1416.3</ele>
        <time>2018-08-08T10:33:26.000Z</time>
      </trkpt>
      <trkpt lat="42.71965" lon="0.65688">
        <ele>1416.6</ele>
        <time>2018-08-08T10:33:27.000Z</time>
      </trkpt>
      <trkpt lat="42.71965" lon="0.6569">
        <ele>1416.9</ele>
        <time>2018-08-08T10:33:28.000Z</time>
      </trkpt>
      <trkpt lat="42.71965" lon="0.65691">
        <ele>1417.1</ele>
        <time>2018-08-08T10:33:29.000Z</time>
      </trkpt>
      <trkpt lat="42.71965" lon="0.65692">
        <ele>1417.4</ele>
        <time>2018-08-08T10:33:30.000Z</time>
      </trkpt>
      <trkpt lat="42.71965" lon="0.65693">
        <ele>1417.6</ele>
        <time>2018-08-08T10:33:31.000Z</time>
      </trkpt>
      <trkpt lat="42.71965" lon="0.65694">
        <ele>1417.9</ele>
        <time>2018-08-08T10:33:32.000Z</time>
      </trkpt>
      <trkpt lat="42.71965" lon="0.65696">
        <ele>1418.1</ele>
        <time>2018-08-08T10:33:33.000Z</time>
      </trkpt>
      <trkpt lat="42.71965" lon="0.65697">
        <ele>1418.4</ele>
        <time>2018-08-08T10:33:34.000Z</time>
      </trkpt>
      <trkpt lat="42.71964" lon="0.65698">
        <ele>1418.6</ele>
        <time>2018-08-08T10:33:35.000Z</time>
      </trkpt>
      <trkpt lat="42.71964" lon="0.65699">
        <ele>1418.8</ele>
        <time>2018-08-08T10:33:36.000Z</time>
      </trkpt>
      <trkpt lat="42.71964" lon="0.65699">
        <ele>1419</ele>
        <time>2018-08-08T10:33:37.000Z</time>
      </trkpt>
      <trkpt lat="42.71964" lon="0.657">
        <ele>1419.1</ele>
        <time>2018-08-08T10:33:38.000Z</time>
      </trkpt>
      <trkpt lat="42.71964" lon="0.65701">
        <ele>1419.3</ele>
        <time>2018-08-08T10:33:39.000Z</time>
      </trkpt>
      <trkpt lat="42.71963" lon="0.65701">
        <ele>1419.5</ele>
        <time>2018-08-08T10:33:40.000Z</time>
      </trkpt>
      <trkpt lat="42.71963" lon="0.65702">
        <ele>1419.6</ele>
        <time>2018-08-08T10:33:41.000Z</time>
      </trkpt>
      <trkpt lat="42.71963" lon="0.65702">
        <ele>1419.7</ele>
        <time>2018-08-08T10:33:42.000Z</time>
      </trkpt>
      <trkpt lat="42.71963" lon="0.65703">
        <ele>1419.9</ele>
        <time>2018-08-08T10:33:43.000Z</time>
      </trkpt>
      <trkpt lat="42.71962" lon="0.65703">
        <ele>1420</ele>
        <time>2018-08-08T10:33:44.000Z</time>
      </trkpt>
      <trkpt lat="42.71962" lon="0.65704">
        <ele>1420.1</ele>
        <time>2018-08-08T10:33:45.000Z</time>
      </trkpt>
      <trkpt lat="42.71962" lon="0.65704">
        <ele>1420.2</ele>
        <time>2018-08-08T10:33:46.000Z</time>
      </trkpt>
      <trkpt lat="42.71962" lon="0.65705">
        <ele>1420.4</ele>
        <time>2018-08-08T10:33:47.000Z</time>
      </trkpt>
      <trkpt lat="42.71962" lon="0.65706">
        <ele>1420.5</ele>
        <time>2018-08-08T10:33:48.000Z</time>
      </trkpt>
      <trkpt lat="42.71962" lon="0.65707">
        <ele>1420.7</ele>
        <time>2018-08-08T10:33:49.000Z</time>
      </trkpt>
      <trkpt lat="42.71961" lon="0.65707">
        <ele>1420.8</ele>
        <time>2018-08-08T10:33:50.000Z</time>
      </trkpt>
      <trkpt lat="42.71961" lon="0.65707">
        <ele>1420.9</ele>
        <time>2018-08-08T10:33:51.000Z</time>
      </trkpt>
      <trkpt lat="42.71961" lon="0.65708">
        <ele>1420.9</ele>
        <time>2018-08-08T10:33:52.000Z</time>
      </trkpt>
      <trkpt lat="42.71961" lon="0.65708">
        <ele>1421</ele>
        <time>2018-08-08T10:33:53.000Z</time>
      </trkpt>
      <trkpt lat="42.71961" lon="0.65709">
        <ele>1421.2</ele>
        <time>2018-08-08T10:33:54.000Z</time>
      </trkpt>
      <trkpt lat="42.7196" lon="0.65709">
        <ele>1421.4</ele>
        <time>2018-08-08T10:33:55.000Z</time>
      </trkpt>
      <trkpt lat="42.7196" lon="0.6571">
        <ele>1421.5</ele>
        <time>2018-08-08T10:33:56.000Z</time>
      </trkpt>
      <trkpt lat="42.7196" lon="0.65711">
        <ele>1421.8</ele>
        <time>2018-08-08T10:33:57.000Z</time>
      </trkpt>
      <trkpt lat="42.71959" lon="0.65712">
        <ele>1422</ele>
        <time>2018-08-08T10:33:58.000Z</time>
      </trkpt>
      <trkpt lat="42.71959" lon="0.65713">
        <ele>1422.2</ele>
        <time>2018-08-08T10:33:59.000Z</time>
      </trkpt>
      <trkpt lat="42.71958" lon="0.65714">
        <ele>1422.4</ele>
        <time>2018-08-08T10:34:00.000Z</time>
      </trkpt>
      <trkpt lat="42.71958" lon="0.65715">
        <ele>1422.7</ele>
        <time>2018-08-08T10:34:01.000Z</time>
      </trkpt>
      <trkpt lat="42.71957" lon="0.65716">
        <ele>1422.9</ele>
        <time>2018-08-08T10:34:02.000Z</time>
      </trkpt>
      <trkpt lat="42.71956" lon="0.65717">
        <ele>1423.1</ele>
        <time>2018-08-08T10:34:03.000Z</time>
      </trkpt>
      <trkpt lat="42.71956" lon="0.65718">
        <ele>1423.2</ele>
        <time>2018-08-08T10:34:04.000Z</time>
      </trkpt>
      <trkpt lat="42.71955" lon="0.65719">
        <ele>1423.4</ele>
        <time>2018-08-08T10:34:05.000Z</time>
      </trkpt>
      <trkpt lat="42.71955" lon="0.65719">
        <ele>1423.6</ele>
        <time>2018-08-08T10:34:06.000Z</time>
      </trkpt>
      <trkpt lat="42.71954" lon="0.6572">
        <ele>1423.7</ele>
        <time>2018-08-08T10:34:07.000Z</time>
      </trkpt>
      <trkpt lat="42.71954" lon="0.6572">
        <ele>1423.8</ele>
        <time>2018-08-08T10:34:08.000Z</time>
      </trkpt>
      <trkpt lat="42.71953" lon="0.65721">
        <ele>1423.9</ele>
        <time>2018-08-08T10:34:09.000Z</time>
      </trkpt>
      <trkpt lat="42.71953" lon="0.65721">
        <ele>1424</ele>
        <time>2018-08-08T10:34:10.000Z</time>
      </trkpt>
      <trkpt lat="42.71953" lon="0.65722">
        <ele>1424.1</ele>
        <time>2018-08-08T10:34:11.000Z</time>
      </trkpt>
      <trkpt lat="42.71952" lon="0.65722">
        <ele>1424.1</ele>
        <time>2018-08-08T10:34:12.000Z</time>
      </trkpt>
      <trkpt lat="42.71952" lon="0.65722">
        <ele>1424.2</ele>
        <time>2018-08-08T10:34:13.000Z</time>
      </trkpt>
      <trkpt lat="42.71952" lon="0.65723">
        <ele>1424.3</ele>
        <time>2018-08-08T10:34:14.000Z</time>
      </trkpt>
      <trkpt lat="42.71951" lon="0.65723">
        <ele>1424.4</ele>
        <time>2018-08-08T10:34:15.000Z</time>
      </trkpt>
      <trkpt lat="42.71951" lon="0.65723">
        <ele>1424.4</ele>
        <time>2018-08-08T10:34:16.000Z</time>
      </trkpt>
      <trkpt lat="42.71951" lon="0.65724">
        <ele>1424.5</ele>
        <time>2018-08-08T10:34:17.000Z</time>
      </trkpt>
      <trkpt lat="42.7195" lon="0.65724">
        <ele>1424.6</ele>
        <time>2018-08-08T10:34:18.000Z</time>
      </trkpt>
      <trkpt lat="42.7195" lon="0.65724">
        <ele>1424.7</ele>
        <time>2018-08-08T10:34:19.000Z</time>
      </trkpt>
      <trkpt lat="42.71949" lon="0.65725">
        <ele>1424.7</ele>
        <time>2018-08-08T10:34:20.000Z</time>
      </trkpt>
      <trkpt lat="42.71949" lon="0.65725">
        <ele>1424.8</ele>
        <time>2018-08-08T10:34:21.000Z</time>
      </trkpt>
      <trkpt lat="42.71949" lon="0.65725">
        <ele>1424.8</ele>
        <time>2018-08-08T10:34:22.000Z</time>
      </trkpt>
      <trkpt lat="42.71949" lon="0.65725">
        <ele>1424.9</ele>
        <time>2018-08-08T10:34:23.000Z</time>
      </trkpt>
      <trkpt lat="42.71948" lon="0.65726">
        <ele>1424.9</ele>
        <time>2018-08-08T10:34:24.000Z</time>
      </trkpt>
      <trkpt lat="42.71948" lon="0.65726">
        <ele>1424.9</ele>
        <time>2018-08-08T10:34:25.000Z</time>
      </trkpt>
      <trkpt lat="42.71948" lon="0.65726">
        <ele>1425</ele>
        <time>2018-08-08T10:34:26.000Z</time>
      </trkpt>
      <trkpt lat="42.71948" lon="0.65726">
        <ele>1425</ele>
        <time>2018-08-08T10:34:27.000Z</time>
      </trkpt>
      <trkpt lat="42.71948" lon="0.65726">
        <ele>1425</ele>
        <time>2018-08-08T10:34:28.000Z</time>
      </trkpt>
      <trkpt lat="42.71947" lon="0.65727">
        <ele>1425.1</ele>
        <time>2018-08-08T10:34:29.000Z</time>
      </trkpt>
      <trkpt lat="42.71947" lon="0.65727">
        <ele>1425.1</ele>
        <time>2018-08-08T10:34:30.000Z</time>
      </trkpt>
      <trkpt lat="42.71947" lon="0.65727">
        <ele>1425.1</ele>
        <time>2018-08-08T10:34:31.000Z</time>
      </trkpt>
      <trkpt lat="42.71947" lon="0.65727">
        <ele>1425.2</ele>
        <time>2018-08-08T10:34:32.000Z</time>
      </trkpt>
      <trkpt lat="42.71946" lon="0.65728">
        <ele>1425.3</ele>
        <time>2018-08-08T10:34:33.000Z</time>
      </trkpt>
      <trkpt lat="42.71946" lon="0.65728">
        <ele>1425.3</ele>
        <time>2018-08-08T10:34:34.000Z</time>
      </trkpt>
      <trkpt lat="42.71945" lon="0.65728">
        <ele>1425.4</ele>
        <time>2018-08-08T10:34:35.000Z</time>
      </trkpt>
      <trkpt lat="42.71945" lon="0.65729">
        <ele>1425.4</ele>
        <time>2018-08-08T10:34:36.000Z</time>
      </trkpt>
      <trkpt lat="42.71944" lon="0.65729">
        <ele>1425.5</ele>
        <time>2018-08-08T10:34:37.000Z</time>
      </trkpt>
      <trkpt lat="42.71944" lon="0.6573">
        <ele>1425.6</ele>
        <time>2018-08-08T10:34:38.000Z</time>
      </trkpt>
      <trkpt lat="42.71943" lon="0.6573">
        <ele>1425.6</ele>
        <time>2018-08-08T10:34:39.000Z</time>
      </trkpt>
      <trkpt lat="42.71943" lon="0.65731">
        <ele>1425.7</ele>
        <time>2018-08-08T10:34:40.000Z</time>
      </trkpt>
      <trkpt lat="42.71942" lon="0.65731">
        <ele>1425.8</ele>
        <time>2018-08-08T10:34:41.000Z</time>
      </trkpt>
      <trkpt lat="42.71942" lon="0.65732">
        <ele>1425.8</ele>
        <time>2018-08-08T10:34:42.000Z</time>
      </trkpt>
      <trkpt lat="42.71941" lon="0.65732">
        <ele>1425.9</ele>
        <time>2018-08-08T10:34:43.000Z</time>
      </trkpt>
      <trkpt lat="42.71941" lon="0.65733">
        <ele>1425.9</ele>
        <time>2018-08-08T10:34:44.000Z</time>
      </trkpt>
      <trkpt lat="42.7194" lon="0.65734">
        <ele>1426</ele>
        <time>2018-08-08T10:34:45.000Z</time>
      </trkpt>
      <trkpt lat="42.7194" lon="0.65734">
        <ele>1426.1</ele>
        <time>2018-08-08T10:34:46.000Z</time>
      </trkpt>
      <trkpt lat="42.71939" lon="0.65735">
        <ele>1426.1</ele>
        <time>2018-08-08T10:34:47.000Z</time>
      </trkpt>
      <trkpt lat="42.71939" lon="0.65735">
        <ele>1426.2</ele>
        <time>2018-08-08T10:34:48.000Z</time>
      </trkpt>
      <trkpt lat="42.71938" lon="0.65736">
        <ele>1426.2</ele>
        <time>2018-08-08T10:34:49.000Z</time>
      </trkpt>
      <trkpt lat="42.71938" lon="0.65736">
        <ele>1426.3</ele>
        <time>2018-08-08T10:34:50.000Z</time>
      </trkpt>
      <trkpt lat="42.71938" lon="0.65737">
        <ele>1426.3</ele>
        <time>2018-08-08T10:34:51.000Z</time>
      </trkpt>
      <trkpt lat="42.71937" lon="0.65737">
        <ele>1426.3</ele>
        <time>2018-08-08T10:34:52.000Z</time>
      </trkpt>
      <trkpt lat="42.71937" lon="0.65738">
        <ele>1426.3</ele>
        <time>2018-08-08T10:34:53.000Z</time>
      </trkpt>
      <trkpt lat="42.71937" lon="0.65738">
        <ele>1426.4</ele>
        <time>2018-08-08T10:34:54.000Z</time>
      </trkpt>
      <trkpt lat="42.71936" lon="0.65738">
        <ele>1426.4</ele>
        <time>2018-08-08T10:34:55.000Z</time>
      </trkpt>
      <trkpt lat="42.71936" lon="0.65739">
        <ele>1426.4</ele>
        <time>2018-08-08T10:34:56.000Z</time>
      </trkpt>
      <trkpt lat="42.71935" lon="0.65739">
        <ele>1426.4</ele>
        <time>2018-08-08T10:34:57.000Z</time>
      </trkpt>
      <trkpt lat="42.71935" lon="0.65739">
        <ele>1426.4</ele>
        <time>2018-08-08T10:34:58.000Z</time>
      </trkpt>
      <trkpt lat="42.71935" lon="0.6574">
        <ele>1426.5</ele>
        <time>2018-08-08T10:34:59.000Z</time>
      </trkpt>
      <trkpt lat="42.71934" lon="0.6574">
        <ele>1426.5</ele>
        <time>2018-08-08T10:35:00.000Z</time>
      </trkpt>
      <trkpt lat="42.71934" lon="0.65741">
        <ele>1426.5</ele>
        <time>2018-08-08T10:35:01.000Z</time>
      </trkpt>
      <trkpt lat="42.71933" lon="0.65742">
        <ele>1426.5</ele>
        <time>2018-08-08T10:35:02.000Z</time>
      </trkpt>
      <trkpt lat="42.71933" lon="0.65742">
        <ele>1426.5</ele>
        <time>2018-08-08T10:35:03.000Z</time>
      </trkpt>
      <trkpt lat="42.71932" lon="0.65743">
        <ele>1426.5</ele>
        <time>2018-08-08T10:35:04.000Z</time>
      </trkpt>
      <trkpt lat="42.71932" lon="0.65743">
        <ele>1426.6</ele>
        <time>2018-08-08T10:35:05.000Z</time>
      </trkpt>
      <trkpt lat="42.71931" lon="0.65744">
        <ele>1426.6</ele>
        <time>2018-08-08T10:35:06.000Z</time>
      </trkpt>
      <trkpt lat="42.71931" lon="0.65744">
        <ele>1426.6</ele>
        <time>2018-08-08T10:35:07.000Z</time>
      </trkpt>
      <trkpt lat="42.7193" lon="0.65745">
        <ele>1426.6</ele>
        <time>2018-08-08T10:35:08.000Z</time>
      </trkpt>
      <trkpt lat="42.7193" lon="0.65746">
        <ele>1426.6</ele>
        <time>2018-08-08T10:35:09.000Z</time>
      </trkpt>
      <trkpt lat="42.7193" lon="0.65746">
        <ele>1426.6</ele>
        <time>2018-08-08T10:35:10.000Z</time>
      </trkpt>
      <trkpt lat="42.71929" lon="0.65747">
        <ele>1426.6</ele>
        <time>2018-08-08T10:35:11.000Z</time>
      </trkpt>
      <trkpt lat="42.71929" lon="0.65748">
        <ele>1426.6</ele>
        <time>2018-08-08T10:35:12.000Z</time>
      </trkpt>
      <trkpt lat="42.71929" lon="0.65749">
        <ele>1426.6</ele>
        <time>2018-08-08T10:35:13.000Z</time>
      </trkpt>
      <trkpt lat="42.71928" lon="0.6575">
        <ele>1426.6</ele>
        <time>2018-08-08T10:35:14.000Z</time>
      </trkpt>
      <trkpt lat="42.71928" lon="0.65751">
        <ele>1426.8</ele>
        <time>2018-08-08T10:35:15.000Z</time>
      </trkpt>
      <trkpt lat="42.71928" lon="0.65752">
        <ele>1427</ele>
        <time>2018-08-08T10:35:16.000Z</time>
      </trkpt>
      <trkpt lat="42.71927" lon="0.65753">
        <ele>1427.2</ele>
        <time>2018-08-08T10:35:17.000Z</time>
      </trkpt>
      <trkpt lat="42.71927" lon="0.65754">
        <ele>1427.4</ele>
        <time>2018-08-08T10:35:18.000Z</time>
      </trkpt>
      <trkpt lat="42.71926" lon="0.65755">
        <ele>1427.6</ele>
        <time>2018-08-08T10:35:19.000Z</time>
      </trkpt>
      <trkpt lat="42.71925" lon="0.65755">
        <ele>1427.8</ele>
        <time>2018-08-08T10:35:20.000Z</time>
      </trkpt>
      <trkpt lat="42.71924" lon="0.65756">
        <ele>1427.9</ele>
        <time>2018-08-08T10:35:21.000Z</time>
      </trkpt>
      <trkpt lat="42.71924" lon="0.65757">
        <ele>1428</ele>
        <time>2018-08-08T10:35:22.000Z</time>
      </trkpt>
      <trkpt lat="42.71923" lon="0.65757">
        <ele>1428.1</ele>
        <time>2018-08-08T10:35:23.000Z</time>
      </trkpt>
      <trkpt lat="42.71922" lon="0.65758">
        <ele>1428.1</ele>
        <time>2018-08-08T10:35:24.000Z</time>
      </trkpt>
      <trkpt lat="42.71921" lon="0.65759">
        <ele>1428.2</ele>
        <time>2018-08-08T10:35:25.000Z</time>
      </trkpt>
      <trkpt lat="42.7192" lon="0.65759">
        <ele>1428.3</ele>
        <time>2018-08-08T10:35:26.000Z</time>
      </trkpt>
      <trkpt lat="42.71919" lon="0.6576">
        <ele>1428.4</ele>
        <time>2018-08-08T10:35:27.000Z</time>
      </trkpt>
      <trkpt lat="42.71918" lon="0.6576">
        <ele>1428.5</ele>
        <time>2018-08-08T10:35:28.000Z</time>
      </trkpt>
      <trkpt lat="42.71917" lon="0.65761">
        <ele>1428.5</ele>
        <time>2018-08-08T10:35:29.000Z</time>
      </trkpt>
      <trkpt lat="42.71916" lon="0.65762">
        <ele>1428.8</ele>
        <time>2018-08-08T10:35:30.000Z</time>
      </trkpt>
      <trkpt lat="42.71916" lon="0.65762">
        <ele>1429.1</ele>
        <time>2018-08-08T10:35:31.000Z</time>
      </trkpt>
      <trkpt lat="42.71915" lon="0.65763">
        <ele>1429.4</ele>
        <time>2018-08-08T10:35:32.000Z</time>
      </trkpt>
      <trkpt lat="42.71914" lon="0.65763">
        <ele>1429.8</ele>
        <time>2018-08-08T10:35:33.000Z</time>
      </trkpt>
      <trkpt lat="42.71913" lon="0.65764">
        <ele>1430</ele>
        <time>2018-08-08T10:35:34.000Z</time>
      </trkpt>
      <trkpt lat="42.71913" lon="0.65764">
        <ele>1430.3</ele>
        <time>2018-08-08T10:35:35.000Z</time>
      </trkpt>
      <trkpt lat="42.71912" lon="0.65764">
        <ele>1430.6</ele>
        <time>2018-08-08T10:35:36.000Z</time>
      </trkpt>
      <trkpt lat="42.71911" lon="0.65765">
        <ele>1430.8</ele>
        <time>2018-08-08T10:35:37.000Z</time>
      </trkpt>
      <trkpt lat="42.71911" lon="0.65765">
        <ele>1431.1</ele>
        <time>2018-08-08T10:35:38.000Z</time>
      </trkpt>
      <trkpt lat="42.7191" lon="0.65765">
        <ele>1431.3</ele>
        <time>2018-08-08T10:35:39.000Z</time>
      </trkpt>
      <trkpt lat="42.71909" lon="0.65766">
        <ele>1431.5</ele>
        <time>2018-08-08T10:35:40.000Z</time>
      </trkpt>
      <trkpt lat="42.71909" lon="0.65766">
        <ele>1431.7</ele>
        <time>2018-08-08T10:35:41.000Z</time>
      </trkpt>
      <trkpt lat="42.71908" lon="0.65766">
        <ele>1431.9</ele>
        <time>2018-08-08T10:35:42.000Z</time>
      </trkpt>
      <trkpt lat="42.71907" lon="0.65766">
        <ele>1432.2</ele>
        <time>2018-08-08T10:35:43.000Z</time>
      </trkpt>
      <trkpt lat="42.71907" lon="0.65766">
        <ele>1432.4</ele>
        <time>2018-08-08T10:35:44.000Z</time>
      </trkpt>
      <trkpt lat="42.71906" lon="0.65767">
        <ele>1432.6</ele>
        <time>2018-08-08T10:35:45.000Z</time>
      </trkpt>
      <trkpt lat="42.71905" lon="0.65767">
        <ele>1432.8</ele>
        <time>2018-08-08T10:35:46.000Z</time>
      </trkpt>
      <trkpt lat="42.71905" lon="0.65767">
        <ele>1433</ele>
        <time>2018-08-08T10:35:47.000Z</time>
      </trkpt>
      <trkpt lat="42.71904" lon="0.65767">
        <ele>1433.2</ele>
        <time>2018-08-08T10:35:48.000Z</time>
      </trkpt>
      <trkpt lat="42.71904" lon="0.65768">
        <ele>1433.4</ele>
        <time>2018-08-08T10:35:49.000Z</time>
      </trkpt>
      <trkpt lat="42.71903" lon="0.65768">
        <ele>1433.6</ele>
        <time>2018-08-08T10:35:50.000Z</time>
      </trkpt>
      <trkpt lat="42.71902" lon="0.65768">
        <ele>1433.8</ele>
        <time>2018-08-08T10:35:51.000Z</time>
      </trkpt>
      <trkpt lat="42.71902" lon="0.65768">
        <ele>1434</ele>
        <time>2018-08-08T10:35:52.000Z</time>
      </trkpt>
      <trkpt lat="42.71901" lon="0.65769">
        <ele>1434.3</ele>
        <time>2018-08-08T10:35:53.000Z</time>
      </trkpt>
      <trkpt lat="42.719" lon="0.65769">
        <ele>1434.6</ele>
        <time>2018-08-08T10:35:54.000Z</time>
      </trkpt>
      <trkpt lat="42.71899" lon="0.6577">
        <ele>1434.8</ele>
        <time>2018-08-08T10:35:55.000Z</time>
      </trkpt>
      <trkpt lat="42.71899" lon="0.6577">
        <ele>1435.1</ele>
        <time>2018-08-08T10:35:56.000Z</time>
      </trkpt>
      <trkpt lat="42.71898" lon="0.65771">
        <ele>1435.4</ele>
        <time>2018-08-08T10:35:57.000Z</time>
      </trkpt>
      <trkpt lat="42.71897" lon="0.65771">
        <ele>1435.6</ele>
        <time>2018-08-08T10:35:58.000Z</time>
      </trkpt>
      <trkpt lat="42.71896" lon="0.65772">
        <ele>1435.9</ele>
        <time>2018-08-08T10:35:59.000Z</time>
      </trkpt>
      <trkpt lat="42.71896" lon="0.65772">
        <ele>1436.1</ele>
        <time>2018-08-08T10:36:00.000Z</time>
      </trkpt>
      <trkpt lat="42.71895" lon="0.65772">
        <ele>1436.2</ele>
        <time>2018-08-08T10:36:01.000Z</time>
      </trkpt>
      <trkpt lat="42.71895" lon="0.65773">
        <ele>1436.4</ele>
        <time>2018-08-08T10:36:02.000Z</time>
      </trkpt>
      <trkpt lat="42.71895" lon="0.65773">
        <ele>1436.5</ele>
        <time>2018-08-08T10:36:03.000Z</time>
      </trkpt>
      <trkpt lat="42.71894" lon="0.65773">
        <ele>1436.6</ele>
        <time>2018-08-08T10:36:04.000Z</time>
      </trkpt>
      <trkpt lat="42.71894" lon="0.65773">
        <ele>1436.6</ele>
        <time>2018-08-08T10:36:05.000Z</time>
      </trkpt>
      <trkpt lat="42.71894" lon="0.65773">
        <ele>1436.6</ele>
        <time>2018-08-08T10:36:06.000Z</time>
      </trkpt>
      <trkpt lat="42.71894" lon="0.65774">
        <ele>1436.7</ele>
        <time>2018-08-08T10:36:07.000Z</time>
      </trkpt>
      <trkpt lat="42.71894" lon="0.65774">
        <ele>1436.7</ele>
        <time>2018-08-08T10:36:08.000Z</time>
      </trkpt>
      <trkpt lat="42.71894" lon="0.65774">
        <ele>1436.7</ele>
        <time>2018-08-08T10:36:09.000Z</time>
      </trkpt>
      <trkpt lat="42.71894" lon="0.65774">
        <ele>1436.7</ele>
        <time>2018-08-08T10:36:10.000Z</time>
      </trkpt>
      <trkpt lat="42.71894" lon="0.65774">
        <ele>1436.7</ele>
        <time>2018-08-08T10:36:11.000Z</time>
      </trkpt>
      <trkpt lat="42.71894" lon="0.65774">
        <ele>1436.8</ele>
        <time>2018-08-08T10:36:12.000Z</time>
      </trkpt>
      <trkpt lat="42.71894" lon="0.65774">
        <ele>1436.8</ele>
        <time>2018-08-08T10:36:13.000Z</time>
      </trkpt>
      <trkpt lat="42.71894" lon="0.65774">
        <ele>1436.8</ele>
        <time>2018-08-08T10:36:14.000Z</time>
      </trkpt>
      <trkpt lat="42.71894" lon="0.65774">
        <ele>1436.9</ele>
        <time>2018-08-08T10:36:15.000Z</time>
      </trkpt>
      <trkpt lat="42.71894" lon="0.65774">
        <ele>1436.9</ele>
        <time>2018-08-08T10:36:16.000Z</time>
      </trkpt>
      <trkpt lat="42.71894" lon="0.65774">
        <ele>1436.9</ele>
        <time>2018-08-08T10:36:17.000Z</time>
      </trkpt>
      <trkpt lat="42.71893" lon="0.65774">
        <ele>1436.9</ele>
        <time>2018-08-08T10:36:18.000Z</time>
      </trkpt>
      <trkpt lat="42.71893" lon="0.65774">
        <ele>1436.9</ele>
        <time>2018-08-08T10:36:19.000Z</time>
      </trkpt>
      <trkpt lat="42.71893" lon="0.65774">
        <ele>1436.9</ele>
        <time>2018-08-08T10:36:20.000Z</time>
      </trkpt>
      <trkpt lat="42.71893" lon="0.65774">
        <ele>1436.9</ele>
        <time>2018-08-08T10:36:21.000Z</time>
      </trkpt>
      <trkpt lat="42.71893" lon="0.65774">
        <ele>1436.9</ele>
        <time>2018-08-08T10:36:22.000Z</time>
      </trkpt>
      <trkpt lat="42.71893" lon="0.65774">
        <ele>1436.9</ele>
        <time>2018-08-08T10:36:23.000Z</time>
      </trkpt>
      <trkpt lat="42.71893" lon="0.65774">
        <ele>1436.9</ele>
        <time>2018-08-08T10:36:24.000Z</time>
      </trkpt>
      <trkpt lat="42.71893" lon="0.65774">
        <ele>1436.9</ele>
        <time>2018-08-08T10:36:25.000Z</time>
      </trkpt>
      <trkpt lat="42.71893" lon="0.65774">
        <ele>1436.9</ele>
        <time>2018-08-08T10:36:26.000Z</time>
      </trkpt>
      <trkpt lat="42.71893" lon="0.65774">
        <ele>1436.9</ele>
        <time>2018-08-08T10:36:27.000Z</time>
      </trkpt>
      <trkpt lat="42.71893" lon="0.65774">
        <ele>1436.9</ele>
        <time>2018-08-08T10:36:28.000Z</time>
      </trkpt>
      <trkpt lat="42.71893" lon="0.65774">
        <ele>1436.9</ele>
        <time>2018-08-08T10:36:29.000Z</time>
      </trkpt>
      <trkpt lat="42.71893" lon="0.65774">
        <ele>1437</ele>
        <time>2018-08-08T10:36:30.000Z</time>
      </trkpt>
      <trkpt lat="42.71893" lon="0.65774">
        <ele>1437</ele>
        <time>2018-08-08T10:36:31.000Z</time>
      </trkpt>
      <trkpt lat="42.71893" lon="0.65774">
        <ele>1437</ele>
        <time>2018-08-08T10:36:32.000Z</time>
      </trkpt>
      <trkpt lat="42.71893" lon="0.65774">
        <ele>1437.1</ele>
        <time>2018-08-08T10:36:33.000Z</time>
      </trkpt>
      <trkpt lat="42.71893" lon="0.65774">
        <ele>1437.1</ele>
        <time>2018-08-08T10:36:34.000Z</time>
      </trkpt>
      <trkpt lat="42.71893" lon="0.65774">
        <ele>1437.1</ele>
        <time>2018-08-08T10:36:35.000Z</time>
      </trkpt>
      <trkpt lat="42.71892" lon="0.65774">
        <ele>1437.2</ele>
        <time>2018-08-08T10:36:36.000Z</time>
      </trkpt>
      <trkpt lat="42.71892" lon="0.65774">
        <ele>1437.2</ele>
        <time>2018-08-08T10:36:37.000Z</time>
      </trkpt>
      <trkpt lat="42.71892" lon="0.65774">
        <ele>1437.2</ele>
        <time>2018-08-08T10:36:38.000Z</time>
      </trkpt>
      <trkpt lat="42.71892" lon="0.65774">
        <ele>1437.3</ele>
        <time>2018-08-08T10:36:39.000Z</time>
      </trkpt>
      <trkpt lat="42.71892" lon="0.65774">
        <ele>1437.3</ele>
        <time>2018-08-08T10:36:40.000Z</time>
      </trkpt>
      <trkpt lat="42.71891" lon="0.65774">
        <ele>1437.3</ele>
        <time>2018-08-08T10:36:41.000Z</time>
      </trkpt>
      <trkpt lat="42.71891" lon="0.65774">
        <ele>1437.4</ele>
        <time>2018-08-08T10:36:42.000Z</time>
      </trkpt>
      <trkpt lat="42.71891" lon="0.65773">
        <ele>1437.4</ele>
        <time>2018-08-08T10:36:43.000Z</time>
      </trkpt>
      <trkpt lat="42.71891" lon="0.65773">
        <ele>1437.4</ele>
        <time>2018-08-08T10:36:44.000Z</time>
      </trkpt>
      <trkpt lat="42.71891" lon="0.65773">
        <ele>1437.4</ele>
        <time>2018-08-08T10:36:45.000Z</time>
      </trkpt>
      <trkpt lat="42.71891" lon="0.65773">
        <ele>1437.4</ele>
        <time>2018-08-08T10:36:46.000Z</time>
      </trkpt>
      <trkpt lat="42.71891" lon="0.65773">
        <ele>1437.4</ele>
        <time>2018-08-08T10:36:47.000Z</time>
      </trkpt>
      <trkpt lat="42.71891" lon="0.65773">
        <ele>1437.5</ele>
        <time>2018-08-08T10:36:48.000Z</time>
      </trkpt>
      <trkpt lat="42.71891" lon="0.65773">
        <ele>1437.5</ele>
        <time>2018-08-08T10:36:49.000Z</time>
      </trkpt>
      <trkpt lat="42.71891" lon="0.65773">
        <ele>1437.5</ele>
        <time>2018-08-08T10:36:50.000Z</time>
      </trkpt>
      <trkpt lat="42.7189" lon="0.65773">
        <ele>1437.5</ele>
        <time>2018-08-08T10:36:51.000Z</time>
      </trkpt>
      <trkpt lat="42.7189" lon="0.65773">
        <ele>1437.6</ele>
        <time>2018-08-08T10:36:52.000Z</time>
      </trkpt>
      <trkpt lat="42.7189" lon="0.65773">
        <ele>1437.6</ele>
        <time>2018-08-08T10:36:53.000Z</time>
      </trkpt>
      <trkpt lat="42.7189" lon="0.65773">
        <ele>1437.7</ele>
        <time>2018-08-08T10:36:54.000Z</time>
      </trkpt>
      <trkpt lat="42.71889" lon="0.65773">
        <ele>1437.7</ele>
        <time>2018-08-08T10:36:55.000Z</time>
      </trkpt>
      <trkpt lat="42.71889" lon="0.65773">
        <ele>1437.8</ele>
        <time>2018-08-08T10:36:56.000Z</time>
      </trkpt>
      <trkpt lat="42.71889" lon="0.65773">
        <ele>1437.8</ele>
        <time>2018-08-08T10:36:57.000Z</time>
      </trkpt>
      <trkpt lat="42.71889" lon="0.65773">
        <ele>1437.9</ele>
        <time>2018-08-08T10:36:58.000Z</time>
      </trkpt>
      <trkpt lat="42.71888" lon="0.65773">
        <ele>1438</ele>
        <time>2018-08-08T10:36:59.000Z</time>
      </trkpt>
      <trkpt lat="42.71888" lon="0.65773">
        <ele>1438</ele>
        <time>2018-08-08T10:37:00.000Z</time>
      </trkpt>
      <trkpt lat="42.71888" lon="0.65773">
        <ele>1438.1</ele>
        <time>2018-08-08T10:37:01.000Z</time>
      </trkpt>
      <trkpt lat="42.71888" lon="0.65773">
        <ele>1438.1</ele>
        <time>2018-08-08T10:37:02.000Z</time>
      </trkpt>
      <trkpt lat="42.71887" lon="0.65772">
        <ele>1438.2</ele>
        <time>2018-08-08T10:37:03.000Z</time>
      </trkpt>
      <trkpt lat="42.71887" lon="0.65772">
        <ele>1438.2</ele>
        <time>2018-08-08T10:37:04.000Z</time>
      </trkpt>
      <trkpt lat="42.71887" lon="0.65772">
        <ele>1438.2</ele>
        <time>2018-08-08T10:37:05.000Z</time>
      </trkpt>
      <trkpt lat="42.71887" lon="0.65772">
        <ele>1438.3</ele>
        <time>2018-08-08T10:37:06.000Z</time>
      </trkpt>
      <trkpt lat="42.71886" lon="0.65772">
        <ele>1438.4</ele>
        <time>2018-08-08T10:37:07.000Z</time>
      </trkpt>
      <trkpt lat="42.71886" lon="0.65772">
        <ele>1438.4</ele>
        <time>2018-08-08T10:37:08.000Z</time>
      </trkpt>
      <trkpt lat="42.71886" lon="0.65772">
        <ele>1438.5</ele>
        <time>2018-08-08T10:37:09.000Z</time>
      </trkpt>
      <trkpt lat="42.71885" lon="0.65772">
        <ele>1438.6</ele>
        <time>2018-08-08T10:37:10.000Z</time>
      </trkpt>
      <trkpt lat="42.71885" lon="0.65772">
        <ele>1438.7</ele>
        <time>2018-08-08T10:37:11.000Z</time>
      </trkpt>
      <trkpt lat="42.71884" lon="0.65772">
        <ele>1438.9</ele>
        <time>2018-08-08T10:37:12.000Z</time>
      </trkpt>
      <trkpt lat="42.71884" lon="0.65773">
        <ele>1439</ele>
        <time>2018-08-08T10:37:13.000Z</time>
      </trkpt>
      <trkpt lat="42.71883" lon="0.65773">
        <ele>1439.2</ele>
        <time>2018-08-08T10:37:14.000Z</time>
      </trkpt>
      <trkpt lat="42.71883" lon="0.65773">
        <ele>1439.3</ele>
        <time>2018-08-08T10:37:15.000Z</time>
      </trkpt>
      <trkpt lat="42.71882" lon="0.65773">
        <ele>1439.5</ele>
        <time>2018-08-08T10:37:16.000Z</time>
      </trkpt>
      <trkpt lat="42.71882" lon="0.65774">
        <ele>1439.7</ele>
        <time>2018-08-08T10:37:17.000Z</time>
      </trkpt>
      <trkpt lat="42.71881" lon="0.65774">
        <ele>1439.8</ele>
        <time>2018-08-08T10:37:18.000Z</time>
      </trkpt>
      <trkpt lat="42.71881" lon="0.65775">
        <ele>1439.9</ele>
        <time>2018-08-08T10:37:19.000Z</time>
      </trkpt>
      <trkpt lat="42.7188" lon="0.65775">
        <ele>1440.1</ele>
        <time>2018-08-08T10:37:20.000Z</time>
      </trkpt>
      <trkpt lat="42.7188" lon="0.65775">
        <ele>1440.2</ele>
        <time>2018-08-08T10:37:21.000Z</time>
      </trkpt>
      <trkpt lat="42.7188" lon="0.65776">
        <ele>1440.3</ele>
        <time>2018-08-08T10:37:22.000Z</time>
      </trkpt>
      <trkpt lat="42.71879" lon="0.65776">
        <ele>1440.4</ele>
        <time>2018-08-08T10:37:23.000Z</time>
      </trkpt>
      <trkpt lat="42.71879" lon="0.65776">
        <ele>1440.5</ele>
        <time>2018-08-08T10:37:24.000Z</time>
      </trkpt>
      <trkpt lat="42.71879" lon="0.65777">
        <ele>1440.5</ele>
        <time>2018-08-08T10:37:25.000Z</time>
      </trkpt>
      <trkpt lat="42.71879" lon="0.65777">
        <ele>1440.6</ele>
        <time>2018-08-08T10:37:26.000Z</time>
      </trkpt>
      <trkpt lat="42.71879" lon="0.65777">
        <ele>1440.6</ele>
        <time>2018-08-08T10:37:27.000Z</time>
      </trkpt>
      <trkpt lat="42.71879" lon="0.65777">
        <ele>1440.6</ele>
        <time>2018-08-08T10:37:28.000Z</time>
      </trkpt>
      <trkpt lat="42.71879" lon="0.65777">
        <ele>1440.6</ele>
        <time>2018-08-08T10:37:29.000Z</time>
      </trkpt>
      <trkpt lat="42.71879" lon="0.65777">
        <ele>1440.6</ele>
        <time>2018-08-08T10:37:30.000Z</time>
      </trkpt>
      <trkpt lat="42.71879" lon="0.65777">
        <ele>1440.6</ele>
        <time>2018-08-08T10:37:31.000Z</time>
      </trkpt>
      <trkpt lat="42.71879" lon="0.65777">
        <ele>1440.6</ele>
        <time>2018-08-08T10:37:32.000Z</time>
      </trkpt>
      <trkpt lat="42.71879" lon="0.65777">
        <ele>1440.5</ele>
        <time>2018-08-08T10:37:33.000Z</time>
      </trkpt>
      <trkpt lat="42.71879" lon="0.65777">
        <ele>1440.5</ele>
        <time>2018-08-08T10:37:34.000Z</time>
      </trkpt>
      <trkpt lat="42.71879" lon="0.65777">
        <ele>1440.5</ele>
        <time>2018-08-08T10:37:35.000Z</time>
      </trkpt>
      <trkpt lat="42.71879" lon="0.65777">
        <ele>1440.4</ele>
        <time>2018-08-08T10:37:36.000Z</time>
      </trkpt>
      <trkpt lat="42.7188" lon="0.65777">
        <ele>1440.4</ele>
        <time>2018-08-08T10:37:37.000Z</time>
      </trkpt>
      <trkpt lat="42.7188" lon="0.65777">
        <ele>1440.4</ele>
        <time>2018-08-08T10:37:38.000Z</time>
      </trkpt>
      <trkpt lat="42.7188" lon="0.65777">
        <ele>1440.4</ele>
        <time>2018-08-08T10:37:39.000Z</time>
      </trkpt>
      <trkpt lat="42.7188" lon="0.65777">
        <ele>1440.3</ele>
        <time>2018-08-08T10:37:40.000Z</time>
      </trkpt>
      <trkpt lat="42.7188" lon="0.65777">
        <ele>1440.3</ele>
        <time>2018-08-08T10:37:41.000Z</time>
      </trkpt>
      <trkpt lat="42.71881" lon="0.65777">
        <ele>1440.2</ele>
        <time>2018-08-08T10:37:42.000Z</time>
      </trkpt>
      <trkpt lat="42.71881" lon="0.65777">
        <ele>1440.2</ele>
        <time>2018-08-08T10:37:43.000Z</time>
      </trkpt>
      <trkpt lat="42.71881" lon="0.65777">
        <ele>1440.1</ele>
        <time>2018-08-08T10:37:44.000Z</time>
      </trkpt>
      <trkpt lat="42.71882" lon="0.65777">
        <ele>1440</ele>
        <time>2018-08-08T10:37:45.000Z</time>
      </trkpt>
      <trkpt lat="42.71882" lon="0.65777">
        <ele>1439.9</ele>
        <time>2018-08-08T10:37:46.000Z</time>
      </trkpt>
      <trkpt lat="42.71883" lon="0.65777">
        <ele>1439.8</ele>
        <time>2018-08-08T10:37:47.000Z</time>
      </trkpt>
      <trkpt lat="42.71883" lon="0.65777">
        <ele>1439.7</ele>
        <time>2018-08-08T10:37:48.000Z</time>
      </trkpt>
      <trkpt lat="42.71883" lon="0.65777">
        <ele>1439.6</ele>
        <time>2018-08-08T10:37:49.000Z</time>
      </trkpt>
      <trkpt lat="42.71883" lon="0.65777">
        <ele>1439.6</ele>
        <time>2018-08-08T10:37:50.000Z</time>
      </trkpt>
      <trkpt lat="42.71884" lon="0.65777">
        <ele>1439.6</ele>
        <time>2018-08-08T10:37:51.000Z</time>
      </trkpt>
      <trkpt lat="42.71884" lon="0.65777">
        <ele>1439.6</ele>
        <time>2018-08-08T10:37:52.000Z</time>
      </trkpt>
      <trkpt lat="42.71884" lon="0.65777">
        <ele>1439.6</ele>
        <time>2018-08-08T10:37:53.000Z</time>
      </trkpt>
      <trkpt lat="42.71884" lon="0.65777">
        <ele>1439.6</ele>
        <time>2018-08-08T10:37:54.000Z</time>
      </trkpt>
      <trkpt lat="42.71884" lon="0.65777">
        <ele>1439.6</ele>
        <time>2018-08-08T10:37:55.000Z</time>
      </trkpt>
      <trkpt lat="42.71884" lon="0.65778">
        <ele>1439.6</ele>
        <time>2018-08-08T10:37:56.000Z</time>
      </trkpt>
      <trkpt lat="42.71883" lon="0.65778">
        <ele>1439.6</ele>
        <time>2018-08-08T10:37:57.000Z</time>
      </trkpt>
      <trkpt lat="42.71883" lon="0.65778">
        <ele>1439.6</ele>
        <time>2018-08-08T10:37:58.000Z</time>
      </trkpt>
      <trkpt lat="42.71883" lon="0.65778">
        <ele>1439.6</ele>
        <time>2018-08-08T10:37:59.000Z</time>
      </trkpt>
      <trkpt lat="42.71883" lon="0.65778">
        <ele>1439.6</ele>
        <time>2018-08-08T10:38:00.000Z</time>
      </trkpt>
      <trkpt lat="42.71883" lon="0.65778">
        <ele>1439.6</ele>
        <time>2018-08-08T10:38:01.000Z</time>
      </trkpt>
      <trkpt lat="42.71883" lon="0.65778">
        <ele>1439.6</ele>
        <time>2018-08-08T10:38:02.000Z</time>
      </trkpt>
      <trkpt lat="42.71883" lon="0.65778">
        <ele>1439.6</ele>
        <time>2018-08-08T10:38:03.000Z</time>
      </trkpt>
      <trkpt lat="42.71883" lon="0.65778">
        <ele>1439.6</ele>
        <time>2018-08-08T10:38:04.000Z</time>
      </trkpt>
      <trkpt lat="42.71883" lon="0.65778">
        <ele>1439.6</ele>
        <time>2018-08-08T10:38:05.000Z</time>
      </trkpt>
      <trkpt lat="42.71883" lon="0.65778">
        <ele>1439.6</ele>
        <time>2018-08-08T10:38:06.000Z</time>
      </trkpt>
      <trkpt lat="42.71883" lon="0.65778">
        <ele>1439.6</ele>
        <time>2018-08-08T10:38:07.000Z</time>
      </trkpt>
      <trkpt lat="42.71883" lon="0.65778">
        <ele>1439.6</ele>
        <time>2018-08-08T10:38:08.000Z</time>
      </trkpt>
      <trkpt lat="42.71883" lon="0.65778">
        <ele>1439.6</ele>
        <time>2018-08-08T10:38:09.000Z</time>
      </trkpt>
      <trkpt lat="42.71883" lon="0.65778">
        <ele>1439.6</ele>
        <time>2018-08-08T10:38:10.000Z</time>
      </trkpt>
      <trkpt lat="42.71883" lon="0.65778">
        <ele>1439.6</ele>
        <time>2018-08-08T10:38:11.000Z</time>
      </trkpt>
      <trkpt lat="42.71883" lon="0.65778">
        <ele>1439.6</ele>
        <time>2018-08-08T10:38:12.000Z</time>
      </trkpt>
      <trkpt lat="42.71883" lon="0.65778">
        <ele>1439.6</ele>
        <time>2018-08-08T10:38:13.000Z</time>
      </trkpt>
      <trkpt lat="42.71883" lon="0.65778">
        <ele>1439.6</ele>
        <time>2018-08-08T10:38:14.000Z</time>
      </trkpt>
      <trkpt lat="42.71883" lon="0.65778">
        <ele>1439.6</ele>
        <time>2018-08-08T10:38:15.000Z</time>
      </trkpt>
      <trkpt lat="42.71883" lon="0.65778">
        <ele>1439.6</ele>
        <time>2018-08-08T10:38:16.000Z</time>
      </trkpt>
      <trkpt lat="42.71883" lon="0.65778">
        <ele>1439.6</ele>
        <time>2018-08-08T10:38:17.000Z</time>
      </trkpt>
      <trkpt lat="42.71883" lon="0.65778">
        <ele>1439.6</ele>
        <time>2018-08-08T10:38:18.000Z</time>
      </trkpt>
      <trkpt lat="42.71883" lon="0.65778">
        <ele>1439.6</ele>
        <time>2018-08-08T10:38:19.000Z</time>
      </trkpt>
      <trkpt lat="42.71883" lon="0.65778">
        <ele>1439.6</ele>
        <time>2018-08-08T10:38:20.000Z</time>
      </trkpt>
      <trkpt lat="42.71883" lon="0.65777">
        <ele>1439.7</ele>
        <time>2018-08-08T10:38:21.000Z</time>
      </trkpt>
      <trkpt lat="42.71883" lon="0.65777">
        <ele>1439.7</ele>
        <time>2018-08-08T10:38:22.000Z</time>
      </trkpt>
      <trkpt lat="42.71883" lon="0.65777">
        <ele>1439.7</ele>
        <time>2018-08-08T10:38:23.000Z</time>
      </trkpt>
      <trkpt lat="42.71882" lon="0.65777">
        <ele>1439.8</ele>
        <time>2018-08-08T10:38:24.000Z</time>
      </trkpt>
      <trkpt lat="42.71882" lon="0.65776">
        <ele>1439.9</ele>
        <time>2018-08-08T10:38:25.000Z</time>
      </trkpt>
      <trkpt lat="42.71881" lon="0.65776">
        <ele>1439.9</ele>
        <time>2018-08-08T10:38:26.000Z</time>
      </trkpt>
      <trkpt lat="42.71881" lon="0.65776">
        <ele>1440</ele>
        <time>2018-08-08T10:38:27.000Z</time>
      </trkpt>
      <trkpt lat="42.71881" lon="0.65775">
        <ele>1440</ele>
        <time>2018-08-08T10:38:28.000Z</time>
      </trkpt>
      <trkpt lat="42.7188" lon="0.65775">
        <ele>1440.1</ele>
        <time>2018-08-08T10:38:29.000Z</time>
      </trkpt>
      <trkpt lat="42.7188" lon="0.65775">
        <ele>1440.1</ele>
        <time>2018-08-08T10:38:30.000Z</time>
      </trkpt>
      <trkpt lat="42.7188" lon="0.65775">
        <ele>1440.2</ele>
        <time>2018-08-08T10:38:31.000Z</time>
      </trkpt>
      <trkpt lat="42.7188" lon="0.65775">
        <ele>1440.2</ele>
        <time>2018-08-08T10:38:32.000Z</time>
      </trkpt>
      <trkpt lat="42.7188" lon="0.65775">
        <ele>1440.2</ele>
        <time>2018-08-08T10:38:33.000Z</time>
      </trkpt>
      <trkpt lat="42.7188" lon="0.65775">
        <ele>1440.2</ele>
        <time>2018-08-08T10:38:34.000Z</time>
      </trkpt>
      <trkpt lat="42.71879" lon="0.65775">
        <ele>1440.2</ele>
        <time>2018-08-08T10:38:35.000Z</time>
      </trkpt>
      <trkpt lat="42.71879" lon="0.65774">
        <ele>1440.2</ele>
        <time>2018-08-08T10:38:36.000Z</time>
      </trkpt>
      <trkpt lat="42.71879" lon="0.65774">
        <ele>1440.3</ele>
        <time>2018-08-08T10:38:37.000Z</time>
      </trkpt>
      <trkpt lat="42.71879" lon="0.65774">
        <ele>1440.2</ele>
        <time>2018-08-08T10:38:38.000Z</time>
      </trkpt>
      <trkpt lat="42.71879" lon="0.65774">
        <ele>1440.3</ele>
        <time>2018-08-08T10:38:39.000Z</time>
      </trkpt>
      <trkpt lat="42.71879" lon="0.65774">
        <ele>1440.3</ele>
        <time>2018-08-08T10:38:40.000Z</time>
      </trkpt>
      <trkpt lat="42.71879" lon="0.65774">
        <ele>1440.3</ele>
        <time>2018-08-08T10:38:41.000Z</time>
      </trkpt>
      <trkpt lat="42.71879" lon="0.65774">
        <ele>1440.3</ele>
        <time>2018-08-08T10:38:42.000Z</time>
      </trkpt>
      <trkpt lat="42.71879" lon="0.65774">
        <ele>1440.3</ele>
        <time>2018-08-08T10:38:43.000Z</time>
      </trkpt>
      <trkpt lat="42.71879" lon="0.65774">
        <ele>1440.3</ele>
        <time>2018-08-08T10:38:44.000Z</time>
      </trkpt>
      <trkpt lat="42.71879" lon="0.65774">
        <ele>1440.3</ele>
        <time>2018-08-08T10:38:45.000Z</time>
      </trkpt>
      <trkpt lat="42.71879" lon="0.65774">
        <ele>1440.3</ele>
        <time>2018-08-08T10:38:46.000Z</time>
      </trkpt>
      <trkpt lat="42.71879" lon="0.65773">
        <ele>1440.3</ele>
        <time>2018-08-08T10:38:47.000Z</time>
      </trkpt>
      <trkpt lat="42.71879" lon="0.65773">
        <ele>1440.3</ele>
        <time>2018-08-08T10:38:48.000Z</time>
      </trkpt>
      <trkpt lat="42.71879" lon="0.65773">
        <ele>1440.3</ele>
        <time>2018-08-08T10:38:49.000Z</time>
      </trkpt>
      <trkpt lat="42.71879" lon="0.65773">
        <ele>1440.3</ele>
        <time>2018-08-08T10:38:50.000Z</time>
      </trkpt>
      <trkpt lat="42.71878" lon="0.65773">
        <ele>1440.3</ele>
        <time>2018-08-08T10:38:51.000Z</time>
      </trkpt>
      <trkpt lat="42.71878" lon="0.65773">
        <ele>1440.3</ele>
        <time>2018-08-08T10:38:52.000Z</time>
      </trkpt>
      <trkpt lat="42.71878" lon="0.65773">
        <ele>1440.3</ele>
        <time>2018-08-08T10:38:53.000Z</time>
      </trkpt>
      <trkpt lat="42.71878" lon="0.65773">
        <ele>1440.4</ele>
        <time>2018-08-08T10:38:54.000Z</time>
      </trkpt>
      <trkpt lat="42.71878" lon="0.65773">
        <ele>1440.4</ele>
        <time>2018-08-08T10:38:55.000Z</time>
      </trkpt>
      <trkpt lat="42.71878" lon="0.65773">
        <ele>1440.4</ele>
        <time>2018-08-08T10:38:56.000Z</time>
      </trkpt>
      <trkpt lat="42.71878" lon="0.65773">
        <ele>1440.4</ele>
        <time>2018-08-08T10:38:57.000Z</time>
      </trkpt>
      <trkpt lat="42.71878" lon="0.65773">
        <ele>1440.4</ele>
        <time>2018-08-08T10:38:58.000Z</time>
      </trkpt>
      <trkpt lat="42.71878" lon="0.65773">
        <ele>1440.5</ele>
        <time>2018-08-08T10:38:59.000Z</time>
      </trkpt>
      <trkpt lat="42.71878" lon="0.65773">
        <ele>1440.5</ele>
        <time>2018-08-08T10:39:00.000Z</time>
      </trkpt>
      <trkpt lat="42.71878" lon="0.65773">
        <ele>1440.5</ele>
        <time>2018-08-08T10:39:01.000Z</time>
      </trkpt>
      <trkpt lat="42.71878" lon="0.65773">
        <ele>1440.6</ele>
        <time>2018-08-08T10:39:02.000Z</time>
      </trkpt>
      <trkpt lat="42.71877" lon="0.65773">
        <ele>1440.6</ele>
        <time>2018-08-08T10:39:03.000Z</time>
      </trkpt>
      <trkpt lat="42.71877" lon="0.65773">
        <ele>1440.6</ele>
        <time>2018-08-08T10:39:04.000Z</time>
      </trkpt>
      <trkpt lat="42.71877" lon="0.65773">
        <ele>1440.6</ele>
        <time>2018-08-08T10:39:05.000Z</time>
      </trkpt>
      <trkpt lat="42.71877" lon="0.65773">
        <ele>1440.7</ele>
        <time>2018-08-08T10:39:06.000Z</time>
      </trkpt>
      <trkpt lat="42.71877" lon="0.65773">
        <ele>1440.7</ele>
        <time>2018-08-08T10:39:07.000Z</time>
      </trkpt>
      <trkpt lat="42.71877" lon="0.65773">
        <ele>1440.8</ele>
        <time>2018-08-08T10:39:08.000Z</time>
      </trkpt>
      <trkpt lat="42.71877" lon="0.65774">
        <ele>1440.8</ele>
        <time>2018-08-08T10:39:09.000Z</time>
      </trkpt>
      <trkpt lat="42.71876" lon="0.65774">
        <ele>1440.9</ele>
        <time>2018-08-08T10:39:10.000Z</time>
      </trkpt>
      <trkpt lat="42.71876" lon="0.65774">
        <ele>1440.9</ele>
        <time>2018-08-08T10:39:11.000Z</time>
      </trkpt>
      <trkpt lat="42.71876" lon="0.65774">
        <ele>1440.9</ele>
        <time>2018-08-08T10:39:12.000Z</time>
      </trkpt>
      <trkpt lat="42.71876" lon="0.65774">
        <ele>1441</ele>
        <time>2018-08-08T10:39:13.000Z</time>
      </trkpt>
      <trkpt lat="42.71876" lon="0.65774">
        <ele>1441</ele>
        <time>2018-08-08T10:39:14.000Z</time>
      </trkpt>
      <trkpt lat="42.71876" lon="0.65774">
        <ele>1441.1</ele>
        <time>2018-08-08T10:39:15.000Z</time>
      </trkpt>
      <trkpt lat="42.71875" lon="0.65775">
        <ele>1441.2</ele>
        <time>2018-08-08T10:39:16.000Z</time>
      </trkpt>
      <trkpt lat="42.71875" lon="0.65775">
        <ele>1441.4</ele>
        <time>2018-08-08T10:39:17.000Z</time>
      </trkpt>
      <trkpt lat="42.71874" lon="0.65776">
        <ele>1441.5</ele>
        <time>2018-08-08T10:39:18.000Z</time>
      </trkpt>
      <trkpt lat="42.71874" lon="0.65776">
        <ele>1441.7</ele>
        <time>2018-08-08T10:39:19.000Z</time>
      </trkpt>
      <trkpt lat="42.71873" lon="0.65776">
        <ele>1441.9</ele>
        <time>2018-08-08T10:39:20.000Z</time>
      </trkpt>
      <trkpt lat="42.71872" lon="0.65777">
        <ele>1442.1</ele>
        <time>2018-08-08T10:39:21.000Z</time>
      </trkpt>
      <trkpt lat="42.71871" lon="0.65778">
        <ele>1442.3</ele>
        <time>2018-08-08T10:39:22.000Z</time>
      </trkpt>
      <trkpt lat="42.71871" lon="0.65778">
        <ele>1442.4</ele>
        <time>2018-08-08T10:39:23.000Z</time>
      </trkpt>
      <trkpt lat="42.7187" lon="0.65779">
        <ele>1442.6</ele>
        <time>2018-08-08T10:39:24.000Z</time>
      </trkpt>
      <trkpt lat="42.7187" lon="0.65779">
        <ele>1442.8</ele>
        <time>2018-08-08T10:39:25.000Z</time>
      </trkpt>
      <trkpt lat="42.71869" lon="0.6578">
        <ele>1442.9</ele>
        <time>2018-08-08T10:39:26.000Z</time>
      </trkpt>
      <trkpt lat="42.71869" lon="0.65781">
        <ele>1443.1</ele>
        <time>2018-08-08T10:39:27.000Z</time>
      </trkpt>
      <trkpt lat="42.71868" lon="0.65781">
        <ele>1443.2</ele>
        <time>2018-08-08T10:39:28.000Z</time>
      </trkpt>
      <trkpt lat="42.71868" lon="0.65782">
        <ele>1443.3</ele>
        <time>2018-08-08T10:39:29.000Z</time>
      </trkpt>
      <trkpt lat="42.71867" lon="0.65782">
        <ele>1443.4</ele>
        <time>2018-08-08T10:39:30.000Z</time>
      </trkpt>
      <trkpt lat="42.71867" lon="0.65782">
        <ele>1443.4</ele>
        <time>2018-08-08T10:39:31.000Z</time>
      </trkpt>
      <trkpt lat="42.71867" lon="0.65783">
        <ele>1443.5</ele>
        <time>2018-08-08T10:39:32.000Z</time>
      </trkpt>
      <trkpt lat="42.71867" lon="0.65783">
        <ele>1443.5</ele>
        <time>2018-08-08T10:39:33.000Z</time>
      </trkpt>
      <trkpt lat="42.71866" lon="0.65783">
        <ele>1443.6</ele>
        <time>2018-08-08T10:39:34.000Z</time>
      </trkpt>
      <trkpt lat="42.71866" lon="0.65783">
        <ele>1443.6</ele>
        <time>2018-08-08T10:39:35.000Z</time>
      </trkpt>
      <trkpt lat="42.71866" lon="0.65784">
        <ele>1443.7</ele>
        <time>2018-08-08T10:39:36.000Z</time>
      </trkpt>
      <trkpt lat="42.71865" lon="0.65784">
        <ele>1443.9</ele>
        <time>2018-08-08T10:39:37.000Z</time>
      </trkpt>
      <trkpt lat="42.71865" lon="0.65785">
        <ele>1444</ele>
        <time>2018-08-08T10:39:38.000Z</time>
      </trkpt>
      <trkpt lat="42.71864" lon="0.65786">
        <ele>1444.2</ele>
        <time>2018-08-08T10:39:39.000Z</time>
      </trkpt>
      <trkpt lat="42.71863" lon="0.65787">
        <ele>1444.3</ele>
        <time>2018-08-08T10:39:40.000Z</time>
      </trkpt>
      <trkpt lat="42.71863" lon="0.65787">
        <ele>1444.5</ele>
        <time>2018-08-08T10:39:41.000Z</time>
      </trkpt>
      <trkpt lat="42.71862" lon="0.65788">
        <ele>1444.6</ele>
        <time>2018-08-08T10:39:42.000Z</time>
      </trkpt>
      <trkpt lat="42.71861" lon="0.65789">
        <ele>1444.7</ele>
        <time>2018-08-08T10:39:43.000Z</time>
      </trkpt>
      <trkpt lat="42.71861" lon="0.65789">
        <ele>1444.8</ele>
        <time>2018-08-08T10:39:44.000Z</time>
      </trkpt>
      <trkpt lat="42.7186" lon="0.6579">
        <ele>1445</ele>
        <time>2018-08-08T10:39:45.000Z</time>
      </trkpt>
      <trkpt lat="42.71859" lon="0.65791">
        <ele>1445.2</ele>
        <time>2018-08-08T10:39:46.000Z</time>
      </trkpt>
      <trkpt lat="42.71858" lon="0.65791">
        <ele>1445.4</ele>
        <time>2018-08-08T10:39:47.000Z</time>
      </trkpt>
      <trkpt lat="42.71857" lon="0.65792">
        <ele>1445.6</ele>
        <time>2018-08-08T10:39:48.000Z</time>
      </trkpt>
      <trkpt lat="42.71856" lon="0.65793">
        <ele>1445.7</ele>
        <time>2018-08-08T10:39:49.000Z</time>
      </trkpt>
      <trkpt lat="42.71855" lon="0.65793">
        <ele>1445.9</ele>
        <time>2018-08-08T10:39:50.000Z</time>
      </trkpt>
      <trkpt lat="42.71854" lon="0.65794">
        <ele>1446.1</ele>
        <time>2018-08-08T10:39:51.000Z</time>
      </trkpt>
      <trkpt lat="42.71853" lon="0.65794">
        <ele>1446.2</ele>
        <time>2018-08-08T10:39:52.000Z</time>
      </trkpt>
      <trkpt lat="42.71852" lon="0.65795">
        <ele>1446.3</ele>
        <time>2018-08-08T10:39:53.000Z</time>
      </trkpt>
      <trkpt lat="42.71852" lon="0.65795">
        <ele>1446.4</ele>
        <time>2018-08-08T10:39:54.000Z</time>
      </trkpt>
      <trkpt lat="42.71851" lon="0.65796">
        <ele>1446.4</ele>
        <time>2018-08-08T10:39:55.000Z</time>
      </trkpt>
      <trkpt lat="42.71851" lon="0.65796">
        <ele>1446.5</ele>
        <time>2018-08-08T10:39:56.000Z</time>
      </trkpt>
      <trkpt lat="42.71851" lon="0.65796">
        <ele>1446.5</ele>
        <time>2018-08-08T10:39:57.000Z</time>
      </trkpt>
      <trkpt lat="42.7185" lon="0.65796">
        <ele>1446.5</ele>
        <time>2018-08-08T10:39:58.000Z</time>
      </trkpt>
      <trkpt lat="42.7185" lon="0.65796">
        <ele>1446.6</ele>
        <time>2018-08-08T10:39:59.000Z</time>
      </trkpt>
      <trkpt lat="42.7185" lon="0.65796">
        <ele>1446.6</ele>
        <time>2018-08-08T10:40:00.000Z</time>
      </trkpt>
      <trkpt lat="42.7185" lon="0.65796">
        <ele>1446.6</ele>
        <time>2018-08-08T10:40:01.000Z</time>
      </trkpt>
      <trkpt lat="42.7185" lon="0.65796">
        <ele>1446.7</ele>
        <time>2018-08-08T10:40:02.000Z</time>
      </trkpt>
      <trkpt lat="42.71849" lon="0.65796">
        <ele>1446.7</ele>
        <time>2018-08-08T10:40:03.000Z</time>
      </trkpt>
      <trkpt lat="42.71849" lon="0.65796">
        <ele>1446.7</ele>
        <time>2018-08-08T10:40:04.000Z</time>
      </trkpt>
      <trkpt lat="42.71849" lon="0.65796">
        <ele>1446.8</ele>
        <time>2018-08-08T10:40:05.000Z</time>
      </trkpt>
      <trkpt lat="42.71848" lon="0.65796">
        <ele>1446.9</ele>
        <time>2018-08-08T10:40:06.000Z</time>
      </trkpt>
      <trkpt lat="42.71848" lon="0.65796">
        <ele>1447</ele>
        <time>2018-08-08T10:40:07.000Z</time>
      </trkpt>
      <trkpt lat="42.71847" lon="0.65796">
        <ele>1447.1</ele>
        <time>2018-08-08T10:40:08.000Z</time>
      </trkpt>
      <trkpt lat="42.71846" lon="0.65796">
        <ele>1447.2</ele>
        <time>2018-08-08T10:40:09.000Z</time>
      </trkpt>
      <trkpt lat="42.71845" lon="0.65797">
        <ele>1447.3</ele>
        <time>2018-08-08T10:40:10.000Z</time>
      </trkpt>
      <trkpt lat="42.71844" lon="0.65797">
        <ele>1447.5</ele>
        <time>2018-08-08T10:40:11.000Z</time>
      </trkpt>
      <trkpt lat="42.71843" lon="0.65797">
        <ele>1447.6</ele>
        <time>2018-08-08T10:40:12.000Z</time>
      </trkpt>
      <trkpt lat="42.71842" lon="0.65798">
        <ele>1447.7</ele>
        <time>2018-08-08T10:40:13.000Z</time>
      </trkpt>
      <trkpt lat="42.71842" lon="0.65798">
        <ele>1447.8</ele>
        <time>2018-08-08T10:40:14.000Z</time>
      </trkpt>
      <trkpt lat="42.71841" lon="0.65798">
        <ele>1447.8</ele>
        <time>2018-08-08T10:40:15.000Z</time>
      </trkpt>
      <trkpt lat="42.71841" lon="0.65798">
        <ele>1447.9</ele>
        <time>2018-08-08T10:40:16.000Z</time>
      </trkpt>
      <trkpt lat="42.71841" lon="0.65798">
        <ele>1447.9</ele>
        <time>2018-08-08T10:40:17.000Z</time>
      </trkpt>
      <trkpt lat="42.71841" lon="0.65798">
        <ele>1447.9</ele>
        <time>2018-08-08T10:40:18.000Z</time>
      </trkpt>
      <trkpt lat="42.71841" lon="0.65798">
        <ele>1447.9</ele>
        <time>2018-08-08T10:40:19.000Z</time>
      </trkpt>
      <trkpt lat="42.71841" lon="0.65798">
        <ele>1447.9</ele>
        <time>2018-08-08T10:40:20.000Z</time>
      </trkpt>
      <trkpt lat="42.7184" lon="0.65799">
        <ele>1447.9</ele>
        <time>2018-08-08T10:40:21.000Z</time>
      </trkpt>
      <trkpt lat="42.7184" lon="0.65799">
        <ele>1447.9</ele>
        <time>2018-08-08T10:40:22.000Z</time>
      </trkpt>
      <trkpt lat="42.7184" lon="0.65799">
        <ele>1448</ele>
        <time>2018-08-08T10:40:23.000Z</time>
      </trkpt>
      <trkpt lat="42.7184" lon="0.65799">
        <ele>1448</ele>
        <time>2018-08-08T10:40:24.000Z</time>
      </trkpt>
      <trkpt lat="42.71839" lon="0.65799">
        <ele>1448.1</ele>
        <time>2018-08-08T10:40:25.000Z</time>
      </trkpt>
      <trkpt lat="42.71839" lon="0.658">
        <ele>1448.1</ele>
        <time>2018-08-08T10:40:26.000Z</time>
      </trkpt>
      <trkpt lat="42.71838" lon="0.658">
        <ele>1448.1</ele>
        <time>2018-08-08T10:40:27.000Z</time>
      </trkpt>
      <trkpt lat="42.71838" lon="0.658">
        <ele>1448.2</ele>
        <time>2018-08-08T10:40:28.000Z</time>
      </trkpt>
      <trkpt lat="42.71838" lon="0.658">
        <ele>1448.2</ele>
        <time>2018-08-08T10:40:29.000Z</time>
      </trkpt>
      <trkpt lat="42.71837" lon="0.658">
        <ele>1448.2</ele>
        <time>2018-08-08T10:40:30.000Z</time>
      </trkpt>
      <trkpt lat="42.71837" lon="0.65801">
        <ele>1448.3</ele>
        <time>2018-08-08T10:40:31.000Z</time>
      </trkpt>
      <trkpt lat="42.71837" lon="0.65801">
        <ele>1448.3</ele>
        <time>2018-08-08T10:40:32.000Z</time>
      </trkpt>
      <trkpt lat="42.71836" lon="0.65801">
        <ele>1448.3</ele>
        <time>2018-08-08T10:40:33.000Z</time>
      </trkpt>
      <trkpt lat="42.71836" lon="0.65801">
        <ele>1448.4</ele>
        <time>2018-08-08T10:40:34.000Z</time>
      </trkpt>
      <trkpt lat="42.71836" lon="0.65801">
        <ele>1448.4</ele>
        <time>2018-08-08T10:40:35.000Z</time>
      </trkpt>
      <trkpt lat="42.71836" lon="0.65801">
        <ele>1448.4</ele>
        <time>2018-08-08T10:40:36.000Z</time>
      </trkpt>
      <trkpt lat="42.71835" lon="0.65801">
        <ele>1448.4</ele>
        <time>2018-08-08T10:40:37.000Z</time>
      </trkpt>
      <trkpt lat="42.71835" lon="0.65801">
        <ele>1448.4</ele>
        <time>2018-08-08T10:40:38.000Z</time>
      </trkpt>
      <trkpt lat="42.71835" lon="0.65802">
        <ele>1448.4</ele>
        <time>2018-08-08T10:40:39.000Z</time>
      </trkpt>
      <trkpt lat="42.71835" lon="0.65802">
        <ele>1448.4</ele>
        <time>2018-08-08T10:40:40.000Z</time>
      </trkpt>
      <trkpt lat="42.71835" lon="0.65802">
        <ele>1448.4</ele>
        <time>2018-08-08T10:40:41.000Z</time>
      </trkpt>
      <trkpt lat="42.71835" lon="0.65802">
        <ele>1448.4</ele>
        <time>2018-08-08T10:40:42.000Z</time>
      </trkpt>
      <trkpt lat="42.71835" lon="0.65802">
        <ele>1448.4</ele>
        <time>2018-08-08T10:40:43.000Z</time>
      </trkpt>
      <trkpt lat="42.71835" lon="0.65803">
        <ele>1448.4</ele>
        <time>2018-08-08T10:40:44.000Z</time>
      </trkpt>
      <trkpt lat="42.71835" lon="0.65803">
        <ele>1448.4</ele>
        <time>2018-08-08T10:40:45.000Z</time>
      </trkpt>
      <trkpt lat="42.71835" lon="0.65803">
        <ele>1448.3</ele>
        <time>2018-08-08T10:40:46.000Z</time>
      </trkpt>
      <trkpt lat="42.71835" lon="0.65803">
        <ele>1448.3</ele>
        <time>2018-08-08T10:40:47.000Z</time>
      </trkpt>
      <trkpt lat="42.71835" lon="0.65804">
        <ele>1448.3</ele>
        <time>2018-08-08T10:40:48.000Z</time>
      </trkpt>
      <trkpt lat="42.71835" lon="0.65804">
        <ele>1448.3</ele>
        <time>2018-08-08T10:40:49.000Z</time>
      </trkpt>
      <trkpt lat="42.71835" lon="0.65804">
        <ele>1448.3</ele>
        <time>2018-08-08T10:40:50.000Z</time>
      </trkpt>
      <trkpt lat="42.71835" lon="0.65804">
        <ele>1448.3</ele>
        <time>2018-08-08T10:40:51.000Z</time>
      </trkpt>
      <trkpt lat="42.71834" lon="0.65804">
        <ele>1448.4</ele>
        <time>2018-08-08T10:40:52.000Z</time>
      </trkpt>
      <trkpt lat="42.71834" lon="0.65804">
        <ele>1448.4</ele>
        <time>2018-08-08T10:40:53.000Z</time>
      </trkpt>
      <trkpt lat="42.71834" lon="0.65804">
        <ele>1448.4</ele>
        <time>2018-08-08T10:40:54.000Z</time>
      </trkpt>
      <trkpt lat="42.71834" lon="0.65804">
        <ele>1448.4</ele>
        <time>2018-08-08T10:40:55.000Z</time>
      </trkpt>
      <trkpt lat="42.71833" lon="0.65804">
        <ele>1448.5</ele>
        <time>2018-08-08T10:40:56.000Z</time>
      </trkpt>
      <trkpt lat="42.71833" lon="0.65804">
        <ele>1448.6</ele>
        <time>2018-08-08T10:40:57.000Z</time>
      </trkpt>
      <trkpt lat="42.71833" lon="0.65805">
        <ele>1448.8</ele>
        <time>2018-08-08T10:40:58.000Z</time>
      </trkpt>
      <trkpt lat="42.71832" lon="0.65805">
        <ele>1448.9</ele>
        <time>2018-08-08T10:40:59.000Z</time>
      </trkpt>
      <trkpt lat="42.71832" lon="0.65805">
        <ele>1449.1</ele>
        <time>2018-08-08T10:41:00.000Z</time>
      </trkpt>
      <trkpt lat="42.71831" lon="0.65806">
        <ele>1449.2</ele>
        <time>2018-08-08T10:41:01.000Z</time>
      </trkpt>
      <trkpt lat="42.71831" lon="0.65806">
        <ele>1449.4</ele>
        <time>2018-08-08T10:41:02.000Z</time>
      </trkpt>
      <trkpt lat="42.71831" lon="0.65806">
        <ele>1449.5</ele>
        <time>2018-08-08T10:41:03.000Z</time>
      </trkpt>
      <trkpt lat="42.71831" lon="0.65806">
        <ele>1449.5</ele>
        <time>2018-08-08T10:41:04.000Z</time>
      </trkpt>
      <trkpt lat="42.7183" lon="0.65806">
        <ele>1449.6</ele>
        <time>2018-08-08T10:41:05.000Z</time>
      </trkpt>
      <trkpt lat="42.7183" lon="0.65806">
        <ele>1449.6</ele>
        <time>2018-08-08T10:41:06.000Z</time>
      </trkpt>
      <trkpt lat="42.7183" lon="0.65806">
        <ele>1449.7</ele>
        <time>2018-08-08T10:41:07.000Z</time>
      </trkpt>
      <trkpt lat="42.7183" lon="0.65806">
        <ele>1449.8</ele>
        <time>2018-08-08T10:41:08.000Z</time>
      </trkpt>
      <trkpt lat="42.7183" lon="0.65807">
        <ele>1449.9</ele>
        <time>2018-08-08T10:41:09.000Z</time>
      </trkpt>
      <trkpt lat="42.71829" lon="0.65807">
        <ele>1450.1</ele>
        <time>2018-08-08T10:41:10.000Z</time>
      </trkpt>
      <trkpt lat="42.71828" lon="0.65808">
        <ele>1450.4</ele>
        <time>2018-08-08T10:41:11.000Z</time>
      </trkpt>
      <trkpt lat="42.71827" lon="0.65809">
        <ele>1450.7</ele>
        <time>2018-08-08T10:41:12.000Z</time>
      </trkpt>
      <trkpt lat="42.71826" lon="0.65811">
        <ele>1450.9</ele>
        <time>2018-08-08T10:41:13.000Z</time>
      </trkpt>
      <trkpt lat="42.71825" lon="0.65812">
        <ele>1451.3</ele>
        <time>2018-08-08T10:41:14.000Z</time>
      </trkpt>
      <trkpt lat="42.71824" lon="0.65813">
        <ele>1451.7</ele>
        <time>2018-08-08T10:41:15.000Z</time>
      </trkpt>
      <trkpt lat="42.71823" lon="0.65814">
        <ele>1451.9</ele>
        <time>2018-08-08T10:41:16.000Z</time>
      </trkpt>
      <trkpt lat="42.71823" lon="0.65815">
        <ele>1452.2</ele>
        <time>2018-08-08T10:41:17.000Z</time>
      </trkpt>
      <trkpt lat="42.71822" lon="0.65816">
        <ele>1452.4</ele>
        <time>2018-08-08T10:41:18.000Z</time>
      </trkpt>
      <trkpt lat="42.71822" lon="0.65816">
        <ele>1452.6</ele>
        <time>2018-08-08T10:41:19.000Z</time>
      </trkpt>
      <trkpt lat="42.71821" lon="0.65816">
        <ele>1452.7</ele>
        <time>2018-08-08T10:41:20.000Z</time>
      </trkpt>
      <trkpt lat="42.71821" lon="0.65816">
        <ele>1452.8</ele>
        <time>2018-08-08T10:41:21.000Z</time>
      </trkpt>
      <trkpt lat="42.71821" lon="0.65816">
        <ele>1452.9</ele>
        <time>2018-08-08T10:41:22.000Z</time>
      </trkpt>
      <trkpt lat="42.71821" lon="0.65816">
        <ele>1452.9</ele>
        <time>2018-08-08T10:41:23.000Z</time>
      </trkpt>
      <trkpt lat="42.71821" lon="0.65816">
        <ele>1452.9</ele>
        <time>2018-08-08T10:41:24.000Z</time>
      </trkpt>
      <trkpt lat="42.71821" lon="0.65816">
        <ele>1453</ele>
        <time>2018-08-08T10:41:25.000Z</time>
      </trkpt>
      <trkpt lat="42.7182" lon="0.65817">
        <ele>1453</ele>
        <time>2018-08-08T10:41:26.000Z</time>
      </trkpt>
      <trkpt lat="42.7182" lon="0.65817">
        <ele>1453.1</ele>
        <time>2018-08-08T10:41:27.000Z</time>
      </trkpt>
      <trkpt lat="42.7182" lon="0.65818">
        <ele>1453.1</ele>
        <time>2018-08-08T10:41:28.000Z</time>
      </trkpt>
      <trkpt lat="42.7182" lon="0.65818">
        <ele>1453.2</ele>
        <time>2018-08-08T10:41:29.000Z</time>
      </trkpt>
      <trkpt lat="42.7182" lon="0.65819">
        <ele>1453.2</ele>
        <time>2018-08-08T10:41:30.000Z</time>
      </trkpt>
      <trkpt lat="42.71819" lon="0.6582">
        <ele>1453.2</ele>
        <time>2018-08-08T10:41:31.000Z</time>
      </trkpt>
      <trkpt lat="42.71819" lon="0.6582">
        <ele>1453.2</ele>
        <time>2018-08-08T10:41:32.000Z</time>
      </trkpt>
      <trkpt lat="42.71819" lon="0.65821">
        <ele>1453.2</ele>
        <time>2018-08-08T10:41:33.000Z</time>
      </trkpt>
      <trkpt lat="42.71819" lon="0.65821">
        <ele>1453.2</ele>
        <time>2018-08-08T10:41:34.000Z</time>
      </trkpt>
      <trkpt lat="42.71819" lon="0.65822">
        <ele>1453.2</ele>
        <time>2018-08-08T10:41:35.000Z</time>
      </trkpt>
      <trkpt lat="42.71819" lon="0.65822">
        <ele>1453.2</ele>
        <time>2018-08-08T10:41:36.000Z</time>
      </trkpt>
      <trkpt lat="42.71819" lon="0.65822">
        <ele>1453.2</ele>
        <time>2018-08-08T10:41:37.000Z</time>
      </trkpt>
      <trkpt lat="42.71819" lon="0.65822">
        <ele>1453.2</ele>
        <time>2018-08-08T10:41:38.000Z</time>
      </trkpt>
      <trkpt lat="42.71819" lon="0.65823">
        <ele>1453.2</ele>
        <time>2018-08-08T10:41:39.000Z</time>
      </trkpt>
      <trkpt lat="42.71819" lon="0.65823">
        <ele>1453.2</ele>
        <time>2018-08-08T10:41:40.000Z</time>
      </trkpt>
      <trkpt lat="42.71819" lon="0.65823">
        <ele>1453.2</ele>
        <time>2018-08-08T10:41:41.000Z</time>
      </trkpt>
      <trkpt lat="42.71818" lon="0.65823">
        <ele>1453.2</ele>
        <time>2018-08-08T10:41:42.000Z</time>
      </trkpt>
      <trkpt lat="42.71818" lon="0.65824">
        <ele>1453.2</ele>
        <time>2018-08-08T10:41:43.000Z</time>
      </trkpt>
      <trkpt lat="42.71818" lon="0.65824">
        <ele>1453.3</ele>
        <time>2018-08-08T10:41:44.000Z</time>
      </trkpt>
      <trkpt lat="42.71818" lon="0.65824">
        <ele>1453.3</ele>
        <time>2018-08-08T10:41:45.000Z</time>
      </trkpt>
      <trkpt lat="42.71818" lon="0.65825">
        <ele>1453.3</ele>
        <time>2018-08-08T10:41:46.000Z</time>
      </trkpt>
      <trkpt lat="42.71818" lon="0.65825">
        <ele>1453.4</ele>
        <time>2018-08-08T10:41:47.000Z</time>
      </trkpt>
      <trkpt lat="42.71818" lon="0.65825">
        <ele>1453.4</ele>
        <time>2018-08-08T10:41:48.000Z</time>
      </trkpt>
      <trkpt lat="42.71818" lon="0.65825">
        <ele>1453.4</ele>
        <time>2018-08-08T10:41:49.000Z</time>
      </trkpt>
      <trkpt lat="42.71818" lon="0.65825">
        <ele>1453.4</ele>
        <time>2018-08-08T10:41:50.000Z</time>
      </trkpt>
      <trkpt lat="42.71817" lon="0.65826">
        <ele>1453.5</ele>
        <time>2018-08-08T10:41:51.000Z</time>
      </trkpt>
      <trkpt lat="42.71817" lon="0.65826">
        <ele>1453.5</ele>
        <time>2018-08-08T10:41:52.000Z</time>
      </trkpt>
      <trkpt lat="42.71817" lon="0.65826">
        <ele>1453.6</ele>
        <time>2018-08-08T10:41:53.000Z</time>
      </trkpt>
      <trkpt lat="42.71817" lon="0.65826">
        <ele>1453.6</ele>
        <time>2018-08-08T10:41:54.000Z</time>
      </trkpt>
      <trkpt lat="42.71817" lon="0.65827">
        <ele>1453.7</ele>
        <time>2018-08-08T10:41:55.000Z</time>
      </trkpt>
      <trkpt lat="42.71816" lon="0.65827">
        <ele>1453.8</ele>
        <time>2018-08-08T10:41:56.000Z</time>
      </trkpt>
      <trkpt lat="42.71816" lon="0.65827">
        <ele>1453.9</ele>
        <time>2018-08-08T10:41:57.000Z</time>
      </trkpt>
      <trkpt lat="42.71816" lon="0.65827">
        <ele>1453.9</ele>
        <time>2018-08-08T10:41:58.000Z</time>
      </trkpt>
      <trkpt lat="42.71816" lon="0.65827">
        <ele>1454</ele>
        <time>2018-08-08T10:41:59.000Z</time>
      </trkpt>
      <trkpt lat="42.71816" lon="0.65828">
        <ele>1454</ele>
        <time>2018-08-08T10:42:00.000Z</time>
      </trkpt>
      <trkpt lat="42.71816" lon="0.65828">
        <ele>1454</ele>
        <time>2018-08-08T10:42:01.000Z</time>
      </trkpt>
      <trkpt lat="42.71816" lon="0.65828">
        <ele>1454</ele>
        <time>2018-08-08T10:42:02.000Z</time>
      </trkpt>
      <trkpt lat="42.71815" lon="0.65828">
        <ele>1454</ele>
        <time>2018-08-08T10:42:03.000Z</time>
      </trkpt>
      <trkpt lat="42.71815" lon="0.65829">
        <ele>1454</ele>
        <time>2018-08-08T10:42:04.000Z</time>
      </trkpt>
      <trkpt lat="42.71815" lon="0.65829">
        <ele>1454.1</ele>
        <time>2018-08-08T10:42:05.000Z</time>
      </trkpt>
      <trkpt lat="42.71815" lon="0.65829">
        <ele>1454</ele>
        <time>2018-08-08T10:42:06.000Z</time>
      </trkpt>
      <trkpt lat="42.71815" lon="0.6583">
        <ele>1454</ele>
        <time>2018-08-08T10:42:07.000Z</time>
      </trkpt>
      <trkpt lat="42.71815" lon="0.6583">
        <ele>1454.1</ele>
        <time>2018-08-08T10:42:08.000Z</time>
      </trkpt>
      <trkpt lat="42.71815" lon="0.6583">
        <ele>1454</ele>
        <time>2018-08-08T10:42:09.000Z</time>
      </trkpt>
      <trkpt lat="42.71815" lon="0.6583">
        <ele>1454</ele>
        <time>2018-08-08T10:42:10.000Z</time>
      </trkpt>
      <trkpt lat="42.71815" lon="0.65831">
        <ele>1454</ele>
        <time>2018-08-08T10:42:11.000Z</time>
      </trkpt>
      <trkpt lat="42.71815" lon="0.65831">
        <ele>1454</ele>
        <time>2018-08-08T10:42:12.000Z</time>
      </trkpt>
      <trkpt lat="42.71815" lon="0.65831">
        <ele>1454</ele>
        <time>2018-08-08T10:42:13.000Z</time>
      </trkpt>
      <trkpt lat="42.71815" lon="0.65831">
        <ele>1454</ele>
        <time>2018-08-08T10:42:14.000Z</time>
      </trkpt>
      <trkpt lat="42.71815" lon="0.65831">
        <ele>1454</ele>
        <time>2018-08-08T10:42:15.000Z</time>
      </trkpt>
      <trkpt lat="42.71815" lon="0.65831">
        <ele>1454</ele>
        <time>2018-08-08T10:42:16.000Z</time>
      </trkpt>
      <trkpt lat="42.71815" lon="0.65831">
        <ele>1454</ele>
        <time>2018-08-08T10:42:17.000Z</time>
      </trkpt>
      <trkpt lat="42.71815" lon="0.65831">
        <ele>1454</ele>
        <time>2018-08-08T10:42:18.000Z</time>
      </trkpt>
      <trkpt lat="42.71815" lon="0.65831">
        <ele>1454</ele>
        <time>2018-08-08T10:42:19.000Z</time>
      </trkpt>
      <trkpt lat="42.71815" lon="0.65832">
        <ele>1454</ele>
        <time>2018-08-08T10:42:20.000Z</time>
      </trkpt>
      <trkpt lat="42.71815" lon="0.65832">
        <ele>1453.9</ele>
        <time>2018-08-08T10:42:21.000Z</time>
      </trkpt>
      <trkpt lat="42.71815" lon="0.65832">
        <ele>1453.9</ele>
        <time>2018-08-08T10:42:22.000Z</time>
      </trkpt>
      <trkpt lat="42.71815" lon="0.65833">
        <ele>1453.8</ele>
        <time>2018-08-08T10:42:23.000Z</time>
      </trkpt>
      <trkpt lat="42.71815" lon="0.65833">
        <ele>1453.8</ele>
        <time>2018-08-08T10:42:24.000Z</time>
      </trkpt>
      <trkpt lat="42.71815" lon="0.65833">
        <ele>1453.7</ele>
        <time>2018-08-08T10:42:25.000Z</time>
      </trkpt>
      <trkpt lat="42.71815" lon="0.65834">
        <ele>1453.7</ele>
        <time>2018-08-08T10:42:26.000Z</time>
      </trkpt>
      <trkpt lat="42.71815" lon="0.65834">
        <ele>1453.8</ele>
        <time>2018-08-08T10:42:27.000Z</time>
      </trkpt>
      <trkpt lat="42.71815" lon="0.65834">
        <ele>1453.8</ele>
        <time>2018-08-08T10:42:28.000Z</time>
      </trkpt>
      <trkpt lat="42.71815" lon="0.65834">
        <ele>1453.7</ele>
        <time>2018-08-08T10:42:29.000Z</time>
      </trkpt>
      <trkpt lat="42.71815" lon="0.65834">
        <ele>1453.8</ele>
        <time>2018-08-08T10:42:30.000Z</time>
      </trkpt>
      <trkpt lat="42.71815" lon="0.65835">
        <ele>1453.8</ele>
        <time>2018-08-08T10:42:31.000Z</time>
      </trkpt>
      <trkpt lat="42.71815" lon="0.65835">
        <ele>1453.8</ele>
        <time>2018-08-08T10:42:32.000Z</time>
      </trkpt>
      <trkpt lat="42.71815" lon="0.65835">
        <ele>1453.8</ele>
        <time>2018-08-08T10:42:33.000Z</time>
      </trkpt>
      <trkpt lat="42.71815" lon="0.65835">
        <ele>1453.7</ele>
        <time>2018-08-08T10:42:34.000Z</time>
      </trkpt>
      <trkpt lat="42.71816" lon="0.65836">
        <ele>1453.7</ele>
        <time>2018-08-08T10:42:35.000Z</time>
      </trkpt>
      <trkpt lat="42.71816" lon="0.65836">
        <ele>1453.6</ele>
        <time>2018-08-08T10:42:36.000Z</time>
      </trkpt>
      <trkpt lat="42.71816" lon="0.65836">
        <ele>1453.5</ele>
        <time>2018-08-08T10:42:37.000Z</time>
      </trkpt>
      <trkpt lat="42.71816" lon="0.65836">
        <ele>1453.4</ele>
        <time>2018-08-08T10:42:38.000Z</time>
      </trkpt>
      <trkpt lat="42.71817" lon="0.65836">
        <ele>1453.2</ele>
        <time>2018-08-08T10:42:39.000Z</time>
      </trkpt>
      <trkpt lat="42.71817" lon="0.65836">
        <ele>1453.1</ele>
        <time>2018-08-08T10:42:40.000Z</time>
      </trkpt>
      <trkpt lat="42.71818" lon="0.65836">
        <ele>1452.9</ele>
        <time>2018-08-08T10:42:41.000Z</time>
      </trkpt>
      <trkpt lat="42.71818" lon="0.65837">
        <ele>1452.8</ele>
        <time>2018-08-08T10:42:42.000Z</time>
      </trkpt>
      <trkpt lat="42.71818" lon="0.65837">
        <ele>1452.7</ele>
        <time>2018-08-08T10:42:43.000Z</time>
      </trkpt>
      <trkpt lat="42.71819" lon="0.65837">
        <ele>1452.7</ele>
        <time>2018-08-08T10:42:44.000Z</time>
      </trkpt>
      <trkpt lat="42.71819" lon="0.65838">
        <ele>1452.6</ele>
        <time>2018-08-08T10:42:45.000Z</time>
      </trkpt>
      <trkpt lat="42.71819" lon="0.65838">
        <ele>1452.6</ele>
        <time>2018-08-08T10:42:46.000Z</time>
      </trkpt>
      <trkpt lat="42.71819" lon="0.65838">
        <ele>1452.6</ele>
        <time>2018-08-08T10:42:47.000Z</time>
      </trkpt>
      <trkpt lat="42.71819" lon="0.65838">
        <ele>1452.5</ele>
        <time>2018-08-08T10:42:48.000Z</time>
      </trkpt>
      <trkpt lat="42.71819" lon="0.65839">
        <ele>1452.5</ele>
        <time>2018-08-08T10:42:49.000Z</time>
      </trkpt>
      <trkpt lat="42.71819" lon="0.65839">
        <ele>1452.5</ele>
        <time>2018-08-08T10:42:50.000Z</time>
      </trkpt>
      <trkpt lat="42.71819" lon="0.65839">
        <ele>1452.6</ele>
        <time>2018-08-08T10:42:51.000Z</time>
      </trkpt>
      <trkpt lat="42.71819" lon="0.65839">
        <ele>1452.6</ele>
        <time>2018-08-08T10:42:52.000Z</time>
      </trkpt>
      <trkpt lat="42.71819" lon="0.6584">
        <ele>1452.6</ele>
        <time>2018-08-08T10:42:53.000Z</time>
      </trkpt>
      <trkpt lat="42.71819" lon="0.6584">
        <ele>1452.6</ele>
        <time>2018-08-08T10:42:54.000Z</time>
      </trkpt>
      <trkpt lat="42.7182" lon="0.6584">
        <ele>1452.6</ele>
        <time>2018-08-08T10:42:55.000Z</time>
      </trkpt>
      <trkpt lat="42.7182" lon="0.65841">
        <ele>1452.6</ele>
        <time>2018-08-08T10:42:56.000Z</time>
      </trkpt>
      <trkpt lat="42.7182" lon="0.65842">
        <ele>1452.7</ele>
        <time>2018-08-08T10:42:57.000Z</time>
      </trkpt>
      <trkpt lat="42.7182" lon="0.65842">
        <ele>1452.7</ele>
        <time>2018-08-08T10:42:58.000Z</time>
      </trkpt>
      <trkpt lat="42.7182" lon="0.65843">
        <ele>1452.7</ele>
        <time>2018-08-08T10:42:59.000Z</time>
      </trkpt>
      <trkpt lat="42.7182" lon="0.65843">
        <ele>1452.8</ele>
        <time>2018-08-08T10:43:00.000Z</time>
      </trkpt>
      <trkpt lat="42.7182" lon="0.65843">
        <ele>1452.8</ele>
        <time>2018-08-08T10:43:01.000Z</time>
      </trkpt>
      <trkpt lat="42.7182" lon="0.65844">
        <ele>1452.8</ele>
        <time>2018-08-08T10:43:02.000Z</time>
      </trkpt>
      <trkpt lat="42.7182" lon="0.65844">
        <ele>1452.8</ele>
        <time>2018-08-08T10:43:03.000Z</time>
      </trkpt>
      <trkpt lat="42.7182" lon="0.65844">
        <ele>1452.8</ele>
        <time>2018-08-08T10:43:04.000Z</time>
      </trkpt>
      <trkpt lat="42.7182" lon="0.65844">
        <ele>1452.8</ele>
        <time>2018-08-08T10:43:05.000Z</time>
      </trkpt>
      <trkpt lat="42.7182" lon="0.65844">
        <ele>1452.8</ele>
        <time>2018-08-08T10:43:06.000Z</time>
      </trkpt>
      <trkpt lat="42.7182" lon="0.65844">
        <ele>1452.8</ele>
        <time>2018-08-08T10:43:07.000Z</time>
      </trkpt>
      <trkpt lat="42.7182" lon="0.65844">
        <ele>1452.8</ele>
        <time>2018-08-08T10:43:08.000Z</time>
      </trkpt>
      <trkpt lat="42.7182" lon="0.65844">
        <ele>1452.8</ele>
        <time>2018-08-08T10:43:09.000Z</time>
      </trkpt>
      <trkpt lat="42.7182" lon="0.65844">
        <ele>1452.8</ele>
        <time>2018-08-08T10:43:10.000Z</time>
      </trkpt>
      <trkpt lat="42.7182" lon="0.65844">
        <ele>1452.8</ele>
        <time>2018-08-08T10:43:11.000Z</time>
      </trkpt>
      <trkpt lat="42.7182" lon="0.65844">
        <ele>1452.8</ele>
        <time>2018-08-08T10:43:12.000Z</time>
      </trkpt>
      <trkpt lat="42.7182" lon="0.65844">
        <ele>1452.8</ele>
        <time>2018-08-08T10:43:13.000Z</time>
      </trkpt>
      <trkpt lat="42.7182" lon="0.65844">
        <ele>1452.8</ele>
        <time>2018-08-08T10:43:14.000Z</time>
      </trkpt>
      <trkpt lat="42.7182" lon="0.65844">
        <ele>1452.8</ele>
        <time>2018-08-08T10:43:15.000Z</time>
      </trkpt>
      <trkpt lat="42.7182" lon="0.65844">
        <ele>1452.8</ele>
        <time>2018-08-08T10:43:16.000Z</time>
      </trkpt>
      <trkpt lat="42.7182" lon="0.65844">
        <ele>1452.8</ele>
        <time>2018-08-08T10:43:17.000Z</time>
      </trkpt>
      <trkpt lat="42.7182" lon="0.65844">
        <ele>1452.8</ele>
        <time>2018-08-08T10:43:18.000Z</time>
      </trkpt>
      <trkpt lat="42.7182" lon="0.65843">
        <ele>1452.8</ele>
        <time>2018-08-08T10:43:19.000Z</time>
      </trkpt>
      <trkpt lat="42.7182" lon="0.65843">
        <ele>1452.8</ele>
        <time>2018-08-08T10:43:20.000Z</time>
      </trkpt>
      <trkpt lat="42.7182" lon="0.65843">
        <ele>1452.7</ele>
        <time>2018-08-08T10:43:21.000Z</time>
      </trkpt>
      <trkpt lat="42.7182" lon="0.65842">
        <ele>1452.7</ele>
        <time>2018-08-08T10:43:22.000Z</time>
      </trkpt>
      <trkpt lat="42.7182" lon="0.65842">
        <ele>1452.7</ele>
        <time>2018-08-08T10:43:23.000Z</time>
      </trkpt>
      <trkpt lat="42.7182" lon="0.65842">
        <ele>1452.7</ele>
        <time>2018-08-08T10:43:24.000Z</time>
      </trkpt>
      <trkpt lat="42.7182" lon="0.65842">
        <ele>1452.7</ele>
        <time>2018-08-08T10:43:25.000Z</time>
      </trkpt>
      <trkpt lat="42.7182" lon="0.65841">
        <ele>1452.7</ele>
        <time>2018-08-08T10:43:26.000Z</time>
      </trkpt>
      <trkpt lat="42.7182" lon="0.65841">
        <ele>1452.7</ele>
        <time>2018-08-08T10:43:27.000Z</time>
      </trkpt>
      <trkpt lat="42.7182" lon="0.65841">
        <ele>1452.7</ele>
        <time>2018-08-08T10:43:28.000Z</time>
      </trkpt>
      <trkpt lat="42.7182" lon="0.65841">
        <ele>1452.7</ele>
        <time>2018-08-08T10:43:29.000Z</time>
      </trkpt>
      <trkpt lat="42.7182" lon="0.65841">
        <ele>1452.7</ele>
        <time>2018-08-08T10:43:30.000Z</time>
      </trkpt>
      <trkpt lat="42.7182" lon="0.65841">
        <ele>1452.7</ele>
        <time>2018-08-08T10:43:31.000Z</time>
      </trkpt>
      <trkpt lat="42.7182" lon="0.65841">
        <ele>1452.7</ele>
        <time>2018-08-08T10:43:32.000Z</time>
      </trkpt>
      <trkpt lat="42.7182" lon="0.65841">
        <ele>1452.7</ele>
        <time>2018-08-08T10:43:33.000Z</time>
      </trkpt>
      <trkpt lat="42.7182" lon="0.65841">
        <ele>1452.7</ele>
        <time>2018-08-08T10:43:34.000Z</time>
      </trkpt>
      <trkpt lat="42.7182" lon="0.65841">
        <ele>1452.7</ele>
        <time>2018-08-08T10:43:35.000Z</time>
      </trkpt>
      <trkpt lat="42.7182" lon="0.65841">
        <ele>1452.7</ele>
        <time>2018-08-08T10:43:36.000Z</time>
      </trkpt>
      <trkpt lat="42.7182" lon="0.65841">
        <ele>1452.7</ele>
        <time>2018-08-08T10:43:37.000Z</time>
      </trkpt>
      <trkpt lat="42.7182" lon="0.65842">
        <ele>1452.7</ele>
        <time>2018-08-08T10:43:38.000Z</time>
      </trkpt>
      <trkpt lat="42.7182" lon="0.65842">
        <ele>1452.7</ele>
        <time>2018-08-08T10:43:39.000Z</time>
      </trkpt>
      <trkpt lat="42.7182" lon="0.65842">
        <ele>1452.7</ele>
        <time>2018-08-08T10:43:40.000Z</time>
      </trkpt>
      <trkpt lat="42.7182" lon="0.65842">
        <ele>1452.7</ele>
        <time>2018-08-08T10:43:41.000Z</time>
      </trkpt>
      <trkpt lat="42.7182" lon="0.65842">
        <ele>1452.7</ele>
        <time>2018-08-08T10:43:42.000Z</time>
      </trkpt>
      <trkpt lat="42.7182" lon="0.65842">
        <ele>1452.7</ele>
        <time>2018-08-08T10:43:43.000Z</time>
      </trkpt>
      <trkpt lat="42.7182" lon="0.65841">
        <ele>1452.7</ele>
        <time>2018-08-08T10:43:44.000Z</time>
      </trkpt>
      <trkpt lat="42.7182" lon="0.65841">
        <ele>1452.7</ele>
        <time>2018-08-08T10:43:45.000Z</time>
      </trkpt>
      <trkpt lat="42.7182" lon="0.65841">
        <ele>1452.7</ele>
        <time>2018-08-08T10:43:46.000Z</time>
      </trkpt>
      <trkpt lat="42.7182" lon="0.65841">
        <ele>1452.7</ele>
        <time>2018-08-08T10:43:47.000Z</time>
      </trkpt>
      <trkpt lat="42.7182" lon="0.65841">
        <ele>1452.7</ele>
        <time>2018-08-08T10:43:48.000Z</time>
      </trkpt>
      <trkpt lat="42.7182" lon="0.65841">
        <ele>1452.7</ele>
        <time>2018-08-08T10:43:49.000Z</time>
      </trkpt>
      <trkpt lat="42.7182" lon="0.65841">
        <ele>1452.7</ele>
        <time>2018-08-08T10:43:50.000Z</time>
      </trkpt>
      <trkpt lat="42.7182" lon="0.65841">
        <ele>1452.7</ele>
        <time>2018-08-08T10:43:51.000Z</time>
      </trkpt>
      <trkpt lat="42.7182" lon="0.65841">
        <ele>1452.7</ele>
        <time>2018-08-08T10:43:52.000Z</time>
      </trkpt>
      <trkpt lat="42.7182" lon="0.65841">
        <ele>1452.7</ele>
        <time>2018-08-08T10:43:53.000Z</time>
      </trkpt>
      <trkpt lat="42.7182" lon="0.65841">
        <ele>1452.7</ele>
        <time>2018-08-08T10:43:54.000Z</time>
      </trkpt>
      <trkpt lat="42.71819" lon="0.6584">
        <ele>1452.7</ele>
        <time>2018-08-08T10:43:55.000Z</time>
      </trkpt>
      <trkpt lat="42.71819" lon="0.6584">
        <ele>1452.6</ele>
        <time>2018-08-08T10:43:56.000Z</time>
      </trkpt>
      <trkpt lat="42.71819" lon="0.65839">
        <ele>1452.5</ele>
        <time>2018-08-08T10:43:57.000Z</time>
      </trkpt>
      <trkpt lat="42.71819" lon="0.65838">
        <ele>1452.5</ele>
        <time>2018-08-08T10:43:58.000Z</time>
      </trkpt>
      <trkpt lat="42.71819" lon="0.65837">
        <ele>1452.4</ele>
        <time>2018-08-08T10:43:59.000Z</time>
      </trkpt>
      <trkpt lat="42.71819" lon="0.65836">
        <ele>1452.3</ele>
        <time>2018-08-08T10:44:00.000Z</time>
      </trkpt>
      <trkpt lat="42.71819" lon="0.65835">
        <ele>1452.2</ele>
        <time>2018-08-08T10:44:01.000Z</time>
      </trkpt>
      <trkpt lat="42.71819" lon="0.65835">
        <ele>1452.2</ele>
        <time>2018-08-08T10:44:02.000Z</time>
      </trkpt>
      <trkpt lat="42.71819" lon="0.65834">
        <ele>1452.1</ele>
        <time>2018-08-08T10:44:03.000Z</time>
      </trkpt>
      <trkpt lat="42.71819" lon="0.65834">
        <ele>1452.1</ele>
        <time>2018-08-08T10:44:04.000Z</time>
      </trkpt>
      <trkpt lat="42.71819" lon="0.65833">
        <ele>1452.1</ele>
        <time>2018-08-08T10:44:05.000Z</time>
      </trkpt>
      <trkpt lat="42.71819" lon="0.65833">
        <ele>1452.1</ele>
        <time>2018-08-08T10:44:06.000Z</time>
      </trkpt>
      <trkpt lat="42.71819" lon="0.65833">
        <ele>1452.1</ele>
        <time>2018-08-08T10:44:07.000Z</time>
      </trkpt>
      <trkpt lat="42.71819" lon="0.65833">
        <ele>1452.1</ele>
        <time>2018-08-08T10:44:08.000Z</time>
      </trkpt>
      <trkpt lat="42.71819" lon="0.65833">
        <ele>1452.1</ele>
        <time>2018-08-08T10:44:09.000Z</time>
      </trkpt>
      <trkpt lat="42.71819" lon="0.65833">
        <ele>1452.1</ele>
        <time>2018-08-08T10:44:10.000Z</time>
      </trkpt>
      <trkpt lat="42.71819" lon="0.65833">
        <ele>1452.1</ele>
        <time>2018-08-08T10:44:11.000Z</time>
      </trkpt>
      <trkpt lat="42.71819" lon="0.65833">
        <ele>1452.1</ele>
        <time>2018-08-08T10:44:12.000Z</time>
      </trkpt>
      <trkpt lat="42.71819" lon="0.65833">
        <ele>1452.1</ele>
        <time>2018-08-08T10:44:13.000Z</time>
      </trkpt>
      <trkpt lat="42.71819" lon="0.65833">
        <ele>1452.1</ele>
        <time>2018-08-08T10:44:14.000Z</time>
      </trkpt>
      <trkpt lat="42.71819" lon="0.65833">
        <ele>1452.1</ele>
        <time>2018-08-08T10:44:15.000Z</time>
      </trkpt>
      <trkpt lat="42.71819" lon="0.65833">
        <ele>1452.1</ele>
        <time>2018-08-08T10:44:16.000Z</time>
      </trkpt>
      <trkpt lat="42.71819" lon="0.65833">
        <ele>1452.1</ele>
        <time>2018-08-08T10:44:17.000Z</time>
      </trkpt>
      <trkpt lat="42.71819" lon="0.65833">
        <ele>1452.1</ele>
        <time>2018-08-08T10:44:18.000Z</time>
      </trkpt>
      <trkpt lat="42.71819" lon="0.65833">
        <ele>1452.1</ele>
        <time>2018-08-08T10:44:19.000Z</time>
      </trkpt>
      <trkpt lat="42.71819" lon="0.65833">
        <ele>1452.1</ele>
        <time>2018-08-08T10:44:20.000Z</time>
      </trkpt>
      <trkpt lat="42.71819" lon="0.65833">
        <ele>1452.1</ele>
        <time>2018-08-08T10:44:21.000Z</time>
      </trkpt>
      <trkpt lat="42.71819" lon="0.65833">
        <ele>1452.1</ele>
        <time>2018-08-08T10:44:22.000Z</time>
      </trkpt>
      <trkpt lat="42.71819" lon="0.65833">
        <ele>1452.1</ele>
        <time>2018-08-08T10:44:23.000Z</time>
      </trkpt>
      <trkpt lat="42.71819" lon="0.65833">
        <ele>1452.1</ele>
        <time>2018-08-08T10:44:24.000Z</time>
      </trkpt>
      <trkpt lat="42.71819" lon="0.65833">
        <ele>1452.1</ele>
        <time>2018-08-08T10:44:25.000Z</time>
      </trkpt>
      <trkpt lat="42.71819" lon="0.65833">
        <ele>1452.1</ele>
        <time>2018-08-08T10:44:26.000Z</time>
      </trkpt>
      <trkpt lat="42.71819" lon="0.65833">
        <ele>1452.1</ele>
        <time>2018-08-08T10:44:27.000Z</time>
      </trkpt>
      <trkpt lat="42.71819" lon="0.65833">
        <ele>1452.1</ele>
        <time>2018-08-08T10:44:28.000Z</time>
      </trkpt>
      <trkpt lat="42.71819" lon="0.65833">
        <ele>1452.1</ele>
        <time>2018-08-08T10:44:29.000Z</time>
      </trkpt>
      <trkpt lat="42.71819" lon="0.65833">
        <ele>1452.1</ele>
        <time>2018-08-08T10:44:30.000Z</time>
      </trkpt>
      <trkpt lat="42.71819" lon="0.65834">
        <ele>1452.1</ele>
        <time>2018-08-08T10:44:31.000Z</time>
      </trkpt>
      <trkpt lat="42.71819" lon="0.65834">
        <ele>1452.1</ele>
        <time>2018-08-08T10:44:32.000Z</time>
      </trkpt>
      <trkpt lat="42.71819" lon="0.65834">
        <ele>1452.2</ele>
        <time>2018-08-08T10:44:33.000Z</time>
      </trkpt>
      <trkpt lat="42.71819" lon="0.65834">
        <ele>1452.2</ele>
        <time>2018-08-08T10:44:34.000Z</time>
      </trkpt>
      <trkpt lat="42.71819" lon="0.65834">
        <ele>1452.2</ele>
        <time>2018-08-08T10:44:35.000Z</time>
      </trkpt>
      <trkpt lat="42.71819" lon="0.65834">
        <ele>1452.3</ele>
        <time>2018-08-08T10:44:36.000Z</time>
      </trkpt>
      <trkpt lat="42.71819" lon="0.65834">
        <ele>1452.3</ele>
        <time>2018-08-08T10:44:37.000Z</time>
      </trkpt>
      <trkpt lat="42.71819" lon="0.65835">
        <ele>1452.3</ele>
        <time>2018-08-08T10:44:38.000Z</time>
      </trkpt>
      <trkpt lat="42.71819" lon="0.65835">
        <ele>1452.3</ele>
        <time>2018-08-08T10:44:39.000Z</time>
      </trkpt>
      <trkpt lat="42.71819" lon="0.65835">
        <ele>1452.3</ele>
        <time>2018-08-08T10:44:40.000Z</time>
      </trkpt>
      <trkpt lat="42.71819" lon="0.65835">
        <ele>1452.3</ele>
        <time>2018-08-08T10:44:41.000Z</time>
      </trkpt>
      <trkpt lat="42.71819" lon="0.65835">
        <ele>1452.4</ele>
        <time>2018-08-08T10:44:42.000Z</time>
      </trkpt>
      <trkpt lat="42.71819" lon="0.65836">
        <ele>1452.4</ele>
        <time>2018-08-08T10:44:43.000Z</time>
      </trkpt>
      <trkpt lat="42.71819" lon="0.65836">
        <ele>1452.4</ele>
        <time>2018-08-08T10:44:44.000Z</time>
      </trkpt>
      <trkpt lat="42.71819" lon="0.65836">
        <ele>1452.5</ele>
        <time>2018-08-08T10:44:45.000Z</time>
      </trkpt>
      <trkpt lat="42.71819" lon="0.65836">
        <ele>1452.5</ele>
        <time>2018-08-08T10:44:46.000Z</time>
      </trkpt>
      <trkpt lat="42.71819" lon="0.65836">
        <ele>1452.5</ele>
        <time>2018-08-08T10:44:47.000Z</time>
      </trkpt>
      <trkpt lat="42.71819" lon="0.65836">
        <ele>1452.5</ele>
        <time>2018-08-08T10:44:48.000Z</time>
      </trkpt>
      <trkpt lat="42.71818" lon="0.65836">
        <ele>1452.6</ele>
        <time>2018-08-08T10:44:49.000Z</time>
      </trkpt>
      <trkpt lat="42.71818" lon="0.65836">
        <ele>1452.6</ele>
        <time>2018-08-08T10:44:50.000Z</time>
      </trkpt>
      <trkpt lat="42.71818" lon="0.65836">
        <ele>1452.6</ele>
        <time>2018-08-08T10:44:51.000Z</time>
      </trkpt>
      <trkpt lat="42.71818" lon="0.65836">
        <ele>1452.6</ele>
        <time>2018-08-08T10:44:52.000Z</time>
      </trkpt>
      <trkpt lat="42.71818" lon="0.65836">
        <ele>1452.6</ele>
        <time>2018-08-08T10:44:53.000Z</time>
      </trkpt>
      <trkpt lat="42.71818" lon="0.65836">
        <ele>1452.6</ele>
        <time>2018-08-08T10:44:54.000Z</time>
      </trkpt>
      <trkpt lat="42.71818" lon="0.65836">
        <ele>1452.7</ele>
        <time>2018-08-08T10:44:55.000Z</time>
      </trkpt>
      <trkpt lat="42.71818" lon="0.65836">
        <ele>1452.7</ele>
        <time>2018-08-08T10:44:56.000Z</time>
      </trkpt>
      <trkpt lat="42.71818" lon="0.65836">
        <ele>1452.8</ele>
        <time>2018-08-08T10:44:57.000Z</time>
      </trkpt>
      <trkpt lat="42.71818" lon="0.65835">
        <ele>1452.9</ele>
        <time>2018-08-08T10:44:58.000Z</time>
      </trkpt>
      <trkpt lat="42.71817" lon="0.65835">
        <ele>1453</ele>
        <time>2018-08-08T10:44:59.000Z</time>
      </trkpt>
      <trkpt lat="42.71817" lon="0.65835">
        <ele>1453.1</ele>
        <time>2018-08-08T10:45:00.000Z</time>
      </trkpt>
      <trkpt lat="42.71816" lon="0.65834">
        <ele>1453.3</ele>
        <time>2018-08-08T10:45:01.000Z</time>
      </trkpt>
      <trkpt lat="42.71816" lon="0.65834">
        <ele>1453.4</ele>
        <time>2018-08-08T10:45:02.000Z</time>
      </trkpt>
      <trkpt lat="42.71815" lon="0.65834">
        <ele>1453.6</ele>
        <time>2018-08-08T10:45:03.000Z</time>
      </trkpt>
      <trkpt lat="42.71815" lon="0.65833">
        <ele>1454</ele>
        <time>2018-08-08T10:45:04.000Z</time>
      </trkpt>
      <trkpt lat="42.71814" lon="0.65832">
        <ele>1454.4</ele>
        <time>2018-08-08T10:45:05.000Z</time>
      </trkpt>
      <trkpt lat="42.71813" lon="0.65831">
        <ele>1454.8</ele>
        <time>2018-08-08T10:45:06.000Z</time>
      </trkpt>
      <trkpt lat="42.71812" lon="0.65831">
        <ele>1455.3</ele>
        <time>2018-08-08T10:45:07.000Z</time>
      </trkpt>
      <trkpt lat="42.71811" lon="0.6583">
        <ele>1455.9</ele>
        <time>2018-08-08T10:45:08.000Z</time>
      </trkpt>
      <trkpt lat="42.7181" lon="0.65829">
        <ele>1456.4</ele>
        <time>2018-08-08T10:45:09.000Z</time>
      </trkpt>
      <trkpt lat="42.71809" lon="0.65828">
        <ele>1456.7</ele>
        <time>2018-08-08T10:45:10.000Z</time>
      </trkpt>
      <trkpt lat="42.71809" lon="0.65828">
        <ele>1456.9</ele>
        <time>2018-08-08T10:45:11.000Z</time>
      </trkpt>
      <trkpt lat="42.71808" lon="0.65828">
        <ele>1457</ele>
        <time>2018-08-08T10:45:12.000Z</time>
      </trkpt>
      <trkpt lat="42.71808" lon="0.65828">
        <ele>1457.1</ele>
        <time>2018-08-08T10:45:13.000Z</time>
      </trkpt>
      <trkpt lat="42.71808" lon="0.65828">
        <ele>1457.1</ele>
        <time>2018-08-08T10:45:14.000Z</time>
      </trkpt>
      <trkpt lat="42.71808" lon="0.65828">
        <ele>1457.1</ele>
        <time>2018-08-08T10:45:15.000Z</time>
      </trkpt>
      <trkpt lat="42.71808" lon="0.65828">
        <ele>1457.2</ele>
        <time>2018-08-08T10:45:16.000Z</time>
      </trkpt>
      <trkpt lat="42.71808" lon="0.65828">
        <ele>1457.4</ele>
        <time>2018-08-08T10:45:17.000Z</time>
      </trkpt>
      <trkpt lat="42.71807" lon="0.65828">
        <ele>1457.6</ele>
        <time>2018-08-08T10:45:18.000Z</time>
      </trkpt>
      <trkpt lat="42.71807" lon="0.65829">
        <ele>1457.7</ele>
        <time>2018-08-08T10:45:19.000Z</time>
      </trkpt>
      <trkpt lat="42.71806" lon="0.65828">
        <ele>1457.9</ele>
        <time>2018-08-08T10:45:20.000Z</time>
      </trkpt>
      <trkpt lat="42.71806" lon="0.65828">
        <ele>1457.9</ele>
        <time>2018-08-08T10:45:21.000Z</time>
      </trkpt>
      <trkpt lat="42.71806" lon="0.65828">
        <ele>1458</ele>
        <time>2018-08-08T10:45:22.000Z</time>
      </trkpt>
      <trkpt lat="42.71806" lon="0.65828">
        <ele>1458</ele>
        <time>2018-08-08T10:45:23.000Z</time>
      </trkpt>
      <trkpt lat="42.71806" lon="0.65829">
        <ele>1458</ele>
        <time>2018-08-08T10:45:24.000Z</time>
      </trkpt>
      <trkpt lat="42.71806" lon="0.65829">
        <ele>1458.1</ele>
        <time>2018-08-08T10:45:25.000Z</time>
      </trkpt>
      <trkpt lat="42.71806" lon="0.65829">
        <ele>1458.1</ele>
        <time>2018-08-08T10:45:26.000Z</time>
      </trkpt>
      <trkpt lat="42.71806" lon="0.65829">
        <ele>1458.1</ele>
        <time>2018-08-08T10:45:27.000Z</time>
      </trkpt>
      <trkpt lat="42.71806" lon="0.65829">
        <ele>1458.1</ele>
        <time>2018-08-08T10:45:28.000Z</time>
      </trkpt>
      <trkpt lat="42.71806" lon="0.65829">
        <ele>1458.1</ele>
        <time>2018-08-08T10:45:29.000Z</time>
      </trkpt>
      <trkpt lat="42.71806" lon="0.65829">
        <ele>1458.1</ele>
        <time>2018-08-08T10:45:30.000Z</time>
      </trkpt>
      <trkpt lat="42.71806" lon="0.65829">
        <ele>1458.1</ele>
        <time>2018-08-08T10:45:31.000Z</time>
      </trkpt>
      <trkpt lat="42.71806" lon="0.65829">
        <ele>1458.1</ele>
        <time>2018-08-08T10:45:32.000Z</time>
      </trkpt>
      <trkpt lat="42.71806" lon="0.65829">
        <ele>1458.1</ele>
        <time>2018-08-08T10:45:33.000Z</time>
      </trkpt>
      <trkpt lat="42.71806" lon="0.65829">
        <ele>1458.1</ele>
        <time>2018-08-08T10:45:34.000Z</time>
      </trkpt>
      <trkpt lat="42.71806" lon="0.65829">
        <ele>1458.1</ele>
        <time>2018-08-08T10:45:35.000Z</time>
      </trkpt>
      <trkpt lat="42.71806" lon="0.65829">
        <ele>1458.1</ele>
        <time>2018-08-08T10:45:36.000Z</time>
      </trkpt>
      <trkpt lat="42.71806" lon="0.65829">
        <ele>1458.1</ele>
        <time>2018-08-08T10:45:37.000Z</time>
      </trkpt>
      <trkpt lat="42.71806" lon="0.65829">
        <ele>1458.1</ele>
        <time>2018-08-08T10:45:38.000Z</time>
      </trkpt>
      <trkpt lat="42.71806" lon="0.65829">
        <ele>1458.1</ele>
        <time>2018-08-08T10:45:39.000Z</time>
      </trkpt>
      <trkpt lat="42.71806" lon="0.65829">
        <ele>1458.1</ele>
        <time>2018-08-08T10:45:40.000Z</time>
      </trkpt>
      <trkpt lat="42.71806" lon="0.65829">
        <ele>1458.1</ele>
        <time>2018-08-08T10:45:41.000Z</time>
      </trkpt>
      <trkpt lat="42.71806" lon="0.65829">
        <ele>1458.1</ele>
        <time>2018-08-08T10:45:42.000Z</time>
      </trkpt>
      <trkpt lat="42.71806" lon="0.65829">
        <ele>1458.1</ele>
        <time>2018-08-08T10:45:43.000Z</time>
      </trkpt>
      <trkpt lat="42.71806" lon="0.65829">
        <ele>1458.1</ele>
        <time>2018-08-08T10:45:44.000Z</time>
      </trkpt>
      <trkpt lat="42.71806" lon="0.65829">
        <ele>1458.1</ele>
        <time>2018-08-08T10:45:45.000Z</time>
      </trkpt>
      <trkpt lat="42.71806" lon="0.65829">
        <ele>1458.1</ele>
        <time>2018-08-08T10:45:46.000Z</time>
      </trkpt>
      <trkpt lat="42.71806" lon="0.65829">
        <ele>1458.1</ele>
        <time>2018-08-08T10:45:47.000Z</time>
      </trkpt>
      <trkpt lat="42.71806" lon="0.65829">
        <ele>1458.1</ele>
        <time>2018-08-08T10:45:48.000Z</time>
      </trkpt>
      <trkpt lat="42.71806" lon="0.65829">
        <ele>1458.1</ele>
        <time>2018-08-08T10:45:49.000Z</time>
      </trkpt>
      <trkpt lat="42.71806" lon="0.6583">
        <ele>1458.1</ele>
        <time>2018-08-08T10:45:50.000Z</time>
      </trkpt>
      <trkpt lat="42.71806" lon="0.6583">
        <ele>1458.1</ele>
        <time>2018-08-08T10:45:51.000Z</time>
      </trkpt>
      <trkpt lat="42.71806" lon="0.6583">
        <ele>1458.1</ele>
        <time>2018-08-08T10:45:52.000Z</time>
      </trkpt>
      <trkpt lat="42.71806" lon="0.6583">
        <ele>1458.1</ele>
        <time>2018-08-08T10:45:53.000Z</time>
      </trkpt>
      <trkpt lat="42.71806" lon="0.6583">
        <ele>1458.1</ele>
        <time>2018-08-08T10:45:54.000Z</time>
      </trkpt>
      <trkpt lat="42.71806" lon="0.6583">
        <ele>1458.1</ele>
        <time>2018-08-08T10:45:55.000Z</time>
      </trkpt>
      <trkpt lat="42.71806" lon="0.6583">
        <ele>1458.1</ele>
        <time>2018-08-08T10:45:56.000Z</time>
      </trkpt>
      <trkpt lat="42.71806" lon="0.6583">
        <ele>1458.1</ele>
        <time>2018-08-08T10:45:57.000Z</time>
      </trkpt>
      <trkpt lat="42.71806" lon="0.6583">
        <ele>1458</ele>
        <time>2018-08-08T10:45:58.000Z</time>
      </trkpt>
      <trkpt lat="42.71806" lon="0.6583">
        <ele>1458</ele>
        <time>2018-08-08T10:45:59.000Z</time>
      </trkpt>
      <trkpt lat="42.71806" lon="0.6583">
        <ele>1458</ele>
        <time>2018-08-08T10:46:00.000Z</time>
      </trkpt>
      <trkpt lat="42.71806" lon="0.6583">
        <ele>1458</ele>
        <time>2018-08-08T10:46:01.000Z</time>
      </trkpt>
      <trkpt lat="42.71806" lon="0.6583">
        <ele>1458</ele>
        <time>2018-08-08T10:46:02.000Z</time>
      </trkpt>
      <trkpt lat="42.71806" lon="0.6583">
        <ele>1458.1</ele>
        <time>2018-08-08T10:46:03.000Z</time>
      </trkpt>
      <trkpt lat="42.71806" lon="0.6583">
        <ele>1458.1</ele>
        <time>2018-08-08T10:46:04.000Z</time>
      </trkpt>
      <trkpt lat="42.71806" lon="0.6583">
        <ele>1458.1</ele>
        <time>2018-08-08T10:46:05.000Z</time>
      </trkpt>
      <trkpt lat="42.71806" lon="0.6583">
        <ele>1458.1</ele>
        <time>2018-08-08T10:46:06.000Z</time>
      </trkpt>
      <trkpt lat="42.71806" lon="0.65829">
        <ele>1458.1</ele>
        <time>2018-08-08T10:46:07.000Z</time>
      </trkpt>
      <trkpt lat="42.71806" lon="0.65829">
        <ele>1458.1</ele>
        <time>2018-08-08T10:46:08.000Z</time>
      </trkpt>
      <trkpt lat="42.71806" lon="0.65829">
        <ele>1458.2</ele>
        <time>2018-08-08T10:46:09.000Z</time>
      </trkpt>
      <trkpt lat="42.71805" lon="0.65828">
        <ele>1458.3</ele>
        <time>2018-08-08T10:46:10.000Z</time>
      </trkpt>
      <trkpt lat="42.71805" lon="0.65828">
        <ele>1458.4</ele>
        <time>2018-08-08T10:46:11.000Z</time>
      </trkpt>
      <trkpt lat="42.71805" lon="0.65827">
        <ele>1458.7</ele>
        <time>2018-08-08T10:46:12.000Z</time>
      </trkpt>
      <trkpt lat="42.71805" lon="0.65826">
        <ele>1458.9</ele>
        <time>2018-08-08T10:46:13.000Z</time>
      </trkpt>
      <trkpt lat="42.71804" lon="0.65825">
        <ele>1459.3</ele>
        <time>2018-08-08T10:46:14.000Z</time>
      </trkpt>
      <trkpt lat="42.71803" lon="0.65824">
        <ele>1459.6</ele>
        <time>2018-08-08T10:46:15.000Z</time>
      </trkpt>
      <trkpt lat="42.71803" lon="0.65823">
        <ele>1460</ele>
        <time>2018-08-08T10:46:16.000Z</time>
      </trkpt>
      <trkpt lat="42.71802" lon="0.65822">
        <ele>1460.4</ele>
        <time>2018-08-08T10:46:17.000Z</time>
      </trkpt>
      <trkpt lat="42.71802" lon="0.65821">
        <ele>1460.7</ele>
        <time>2018-08-08T10:46:18.000Z</time>
      </trkpt>
      <trkpt lat="42.71801" lon="0.6582">
        <ele>1461</ele>
        <time>2018-08-08T10:46:19.000Z</time>
      </trkpt>
      <trkpt lat="42.71801" lon="0.6582">
        <ele>1461.2</ele>
        <time>2018-08-08T10:46:20.000Z</time>
      </trkpt>
      <trkpt lat="42.71801" lon="0.6582">
        <ele>1461.3</ele>
        <time>2018-08-08T10:46:21.000Z</time>
      </trkpt>
      <trkpt lat="42.718" lon="0.6582">
        <ele>1461.4</ele>
        <time>2018-08-08T10:46:22.000Z</time>
      </trkpt>
      <trkpt lat="42.718" lon="0.6582">
        <ele>1461.4</ele>
        <time>2018-08-08T10:46:23.000Z</time>
      </trkpt>
      <trkpt lat="42.718" lon="0.6582">
        <ele>1461.4</ele>
        <time>2018-08-08T10:46:24.000Z</time>
      </trkpt>
      <trkpt lat="42.718" lon="0.6582">
        <ele>1461.4</ele>
        <time>2018-08-08T10:46:25.000Z</time>
      </trkpt>
      <trkpt lat="42.718" lon="0.6582">
        <ele>1461.4</ele>
        <time>2018-08-08T10:46:26.000Z</time>
      </trkpt>
      <trkpt lat="42.718" lon="0.6582">
        <ele>1461.4</ele>
        <time>2018-08-08T10:46:27.000Z</time>
      </trkpt>
      <trkpt lat="42.718" lon="0.6582">
        <ele>1461.4</ele>
        <time>2018-08-08T10:46:28.000Z</time>
      </trkpt>
      <trkpt lat="42.718" lon="0.6582">
        <ele>1461.4</ele>
        <time>2018-08-08T10:46:29.000Z</time>
      </trkpt>
      <trkpt lat="42.718" lon="0.6582">
        <ele>1461.5</ele>
        <time>2018-08-08T10:46:30.000Z</time>
      </trkpt>
      <trkpt lat="42.718" lon="0.6582">
        <ele>1461.5</ele>
        <time>2018-08-08T10:46:31.000Z</time>
      </trkpt>
      <trkpt lat="42.718" lon="0.6582">
        <ele>1461.5</ele>
        <time>2018-08-08T10:46:32.000Z</time>
      </trkpt>
      <trkpt lat="42.718" lon="0.6582">
        <ele>1461.4</ele>
        <time>2018-08-08T10:46:33.000Z</time>
      </trkpt>
      <trkpt lat="42.718" lon="0.6582">
        <ele>1461.4</ele>
        <time>2018-08-08T10:46:34.000Z</time>
      </trkpt>
      <trkpt lat="42.718" lon="0.6582">
        <ele>1461.4</ele>
        <time>2018-08-08T10:46:35.000Z</time>
      </trkpt>
      <trkpt lat="42.718" lon="0.6582">
        <ele>1461.4</ele>
        <time>2018-08-08T10:46:36.000Z</time>
      </trkpt>
      <trkpt lat="42.718" lon="0.6582">
        <ele>1461.4</ele>
        <time>2018-08-08T10:46:37.000Z</time>
      </trkpt>
      <trkpt lat="42.718" lon="0.6582">
        <ele>1461.4</ele>
        <time>2018-08-08T10:46:38.000Z</time>
      </trkpt>
      <trkpt lat="42.718" lon="0.6582">
        <ele>1461.4</ele>
        <time>2018-08-08T10:46:39.000Z</time>
      </trkpt>
      <trkpt lat="42.718" lon="0.6582">
        <ele>1461.4</ele>
        <time>2018-08-08T10:46:40.000Z</time>
      </trkpt>
      <trkpt lat="42.718" lon="0.6582">
        <ele>1461.4</ele>
        <time>2018-08-08T10:46:41.000Z</time>
      </trkpt>
      <trkpt lat="42.718" lon="0.6582">
        <ele>1461.4</ele>
        <time>2018-08-08T10:46:42.000Z</time>
      </trkpt>
      <trkpt lat="42.718" lon="0.6582">
        <ele>1461.4</ele>
        <time>2018-08-08T10:46:43.000Z</time>
      </trkpt>
      <trkpt lat="42.718" lon="0.6582">
        <ele>1461.4</ele>
        <time>2018-08-08T10:46:44.000Z</time>
      </trkpt>
      <trkpt lat="42.718" lon="0.6582">
        <ele>1461.4</ele>
        <time>2018-08-08T10:46:45.000Z</time>
      </trkpt>
      <trkpt lat="42.718" lon="0.6582">
        <ele>1461.4</ele>
        <time>2018-08-08T10:46:46.000Z</time>
      </trkpt>
      <trkpt lat="42.718" lon="0.6582">
        <ele>1461.4</ele>
        <time>2018-08-08T10:46:47.000Z</time>
      </trkpt>
      <trkpt lat="42.718" lon="0.65821">
        <ele>1461.4</ele>
        <time>2018-08-08T10:46:48.000Z</time>
      </trkpt>
      <trkpt lat="42.718" lon="0.65821">
        <ele>1461.4</ele>
        <time>2018-08-08T10:46:49.000Z</time>
      </trkpt>
      <trkpt lat="42.718" lon="0.65821">
        <ele>1461.4</ele>
        <time>2018-08-08T10:46:50.000Z</time>
      </trkpt>
      <trkpt lat="42.718" lon="0.65821">
        <ele>1461.4</ele>
        <time>2018-08-08T10:46:51.000Z</time>
      </trkpt>
      <trkpt lat="42.718" lon="0.65821">
        <ele>1461.4</ele>
        <time>2018-08-08T10:46:52.000Z</time>
      </trkpt>
      <trkpt lat="42.718" lon="0.65821">
        <ele>1461.4</ele>
        <time>2018-08-08T10:46:53.000Z</time>
      </trkpt>
      <trkpt lat="42.718" lon="0.65821">
        <ele>1461.4</ele>
        <time>2018-08-08T10:46:54.000Z</time>
      </trkpt>
      <trkpt lat="42.718" lon="0.65821">
        <ele>1461.4</ele>
        <time>2018-08-08T10:46:55.000Z</time>
      </trkpt>
      <trkpt lat="42.718" lon="0.65821">
        <ele>1461.4</ele>
        <time>2018-08-08T10:46:56.000Z</time>
      </trkpt>
      <trkpt lat="42.718" lon="0.65821">
        <ele>1461.4</ele>
        <time>2018-08-08T10:46:57.000Z</time>
      </trkpt>
      <trkpt lat="42.718" lon="0.65821">
        <ele>1461.4</ele>
        <time>2018-08-08T10:46:58.000Z</time>
      </trkpt>
      <trkpt lat="42.718" lon="0.65821">
        <ele>1461.4</ele>
        <time>2018-08-08T10:46:59.000Z</time>
      </trkpt>
      <trkpt lat="42.718" lon="0.65821">
        <ele>1461.4</ele>
        <time>2018-08-08T10:47:00.000Z</time>
      </trkpt>
      <trkpt lat="42.718" lon="0.65821">
        <ele>1461.4</ele>
        <time>2018-08-08T10:47:01.000Z</time>
      </trkpt>
      <trkpt lat="42.718" lon="0.65821">
        <ele>1461.4</ele>
        <time>2018-08-08T10:47:02.000Z</time>
      </trkpt>
      <trkpt lat="42.718" lon="0.65821">
        <ele>1461.4</ele>
        <time>2018-08-08T10:47:03.000Z</time>
      </trkpt>
      <trkpt lat="42.718" lon="0.65821">
        <ele>1461.4</ele>
        <time>2018-08-08T10:47:04.000Z</time>
      </trkpt>
      <trkpt lat="42.718" lon="0.65821">
        <ele>1461.4</ele>
        <time>2018-08-08T10:47:05.000Z</time>
      </trkpt>
      <trkpt lat="42.718" lon="0.65821">
        <ele>1461.4</ele>
        <time>2018-08-08T10:47:06.000Z</time>
      </trkpt>
      <trkpt lat="42.718" lon="0.65821">
        <ele>1461.4</ele>
        <time>2018-08-08T10:47:07.000Z</time>
      </trkpt>
      <trkpt lat="42.718" lon="0.65821">
        <ele>1461.4</ele>
        <time>2018-08-08T10:47:08.000Z</time>
      </trkpt>
      <trkpt lat="42.718" lon="0.65821">
        <ele>1461.4</ele>
        <time>2018-08-08T10:47:09.000Z</time>
      </trkpt>
      <trkpt lat="42.718" lon="0.65821">
        <ele>1461.4</ele>
        <time>2018-08-08T10:47:10.000Z</time>
      </trkpt>
      <trkpt lat="42.718" lon="0.65821">
        <ele>1461.4</ele>
        <time>2018-08-08T10:47:11.000Z</time>
      </trkpt>
      <trkpt lat="42.718" lon="0.65821">
        <ele>1461.4</ele>
        <time>2018-08-08T10:47:12.000Z</time>
      </trkpt>
      <trkpt lat="42.718" lon="0.65821">
        <ele>1461.4</ele>
        <time>2018-08-08T10:47:13.000Z</time>
      </trkpt>
      <trkpt lat="42.718" lon="0.65821">
        <ele>1461.4</ele>
        <time>2018-08-08T10:47:14.000Z</time>
      </trkpt>
      <trkpt lat="42.718" lon="0.65821">
        <ele>1461.4</ele>
        <time>2018-08-08T10:47:15.000Z</time>
      </trkpt>
      <trkpt lat="42.718" lon="0.65821">
        <ele>1461.4</ele>
        <time>2018-08-08T10:47:16.000Z</time>
      </trkpt>
      <trkpt lat="42.718" lon="0.65821">
        <ele>1461.4</ele>
        <time>2018-08-08T10:47:17.000Z</time>
      </trkpt>
      <trkpt lat="42.718" lon="0.65821">
        <ele>1461.4</ele>
        <time>2018-08-08T10:47:18.000Z</time>
      </trkpt>
      <trkpt lat="42.718" lon="0.65821">
        <ele>1461.4</ele>
        <time>2018-08-08T10:47:19.000Z</time>
      </trkpt>
      <trkpt lat="42.718" lon="0.65821">
        <ele>1461.4</ele>
        <time>2018-08-08T10:47:20.000Z</time>
      </trkpt>
      <trkpt lat="42.718" lon="0.65821">
        <ele>1461.4</ele>
        <time>2018-08-08T10:47:21.000Z</time>
      </trkpt>
      <trkpt lat="42.718" lon="0.65821">
        <ele>1461.4</ele>
        <time>2018-08-08T10:47:22.000Z</time>
      </trkpt>
      <trkpt lat="42.718" lon="0.65821">
        <ele>1461.4</ele>
        <time>2018-08-08T10:47:23.000Z</time>
      </trkpt>
      <trkpt lat="42.718" lon="0.65821">
        <ele>1461.4</ele>
        <time>2018-08-08T10:47:24.000Z</time>
      </trkpt>
      <trkpt lat="42.718" lon="0.65821">
        <ele>1461.4</ele>
        <time>2018-08-08T10:47:25.000Z</time>
      </trkpt>
      <trkpt lat="42.718" lon="0.65821">
        <ele>1461.4</ele>
        <time>2018-08-08T10:47:26.000Z</time>
      </trkpt>
      <trkpt lat="42.718" lon="0.65821">
        <ele>1461.4</ele>
        <time>2018-08-08T10:47:27.000Z</time>
      </trkpt>
      <trkpt lat="42.718" lon="0.65821">
        <ele>1461.4</ele>
        <time>2018-08-08T10:47:28.000Z</time>
      </trkpt>
      <trkpt lat="42.718" lon="0.65821">
        <ele>1461.4</ele>
        <time>2018-08-08T10:47:29.000Z</time>
      </trkpt>
      <trkpt lat="42.718" lon="0.65821">
        <ele>1461.4</ele>
        <time>2018-08-08T10:47:30.000Z</time>
      </trkpt>
      <trkpt lat="42.718" lon="0.65821">
        <ele>1461.4</ele>
        <time>2018-08-08T10:47:31.000Z</time>
      </trkpt>
      <trkpt lat="42.718" lon="0.65821">
        <ele>1461.4</ele>
        <time>2018-08-08T10:47:32.000Z</time>
      </trkpt>
      <trkpt lat="42.718" lon="0.65821">
        <ele>1461.4</ele>
        <time>2018-08-08T10:47:33.000Z</time>
      </trkpt>
      <trkpt lat="42.718" lon="0.65821">
        <ele>1461.4</ele>
        <time>2018-08-08T10:47:34.000Z</time>
      </trkpt>
      <trkpt lat="42.718" lon="0.65821">
        <ele>1461.4</ele>
        <time>2018-08-08T10:47:35.000Z</time>
      </trkpt>
      <trkpt lat="42.718" lon="0.65821">
        <ele>1461.4</ele>
        <time>2018-08-08T10:47:36.000Z</time>
      </trkpt>
      <trkpt lat="42.718" lon="0.65821">
        <ele>1461.4</ele>
        <time>2018-08-08T10:47:37.000Z</time>
      </trkpt>
      <trkpt lat="42.718" lon="0.65821">
        <ele>1461.4</ele>
        <time>2018-08-08T10:47:38.000Z</time>
      </trkpt>
      <trkpt lat="42.718" lon="0.65821">
        <ele>1461.4</ele>
        <time>2018-08-08T10:47:39.000Z</time>
      </trkpt>
      <trkpt lat="42.718" lon="0.65821">
        <ele>1461.4</ele>
        <time>2018-08-08T10:47:40.000Z</time>
      </trkpt>
      <trkpt lat="42.718" lon="0.65821">
        <ele>1461.4</ele>
        <time>2018-08-08T10:47:41.000Z</time>
      </trkpt>
      <trkpt lat="42.718" lon="0.65821">
        <ele>1461.4</ele>
        <time>2018-08-08T10:47:42.000Z</time>
      </trkpt>
      <trkpt lat="42.718" lon="0.65821">
        <ele>1461.4</ele>
        <time>2018-08-08T10:47:43.000Z</time>
      </trkpt>
      <trkpt lat="42.718" lon="0.65821">
        <ele>1461.4</ele>
        <time>2018-08-08T10:47:44.000Z</time>
      </trkpt>
      <trkpt lat="42.718" lon="0.65821">
        <ele>1461.4</ele>
        <time>2018-08-08T10:47:45.000Z</time>
      </trkpt>
      <trkpt lat="42.718" lon="0.65821">
        <ele>1461.4</ele>
        <time>2018-08-08T10:47:46.000Z</time>
      </trkpt>
      <trkpt lat="42.718" lon="0.65821">
        <ele>1461.4</ele>
        <time>2018-08-08T10:47:47.000Z</time>
      </trkpt>
      <trkpt lat="42.718" lon="0.65821">
        <ele>1461.4</ele>
        <time>2018-08-08T10:47:48.000Z</time>
      </trkpt>
      <trkpt lat="42.718" lon="0.65821">
        <ele>1461.4</ele>
        <time>2018-08-08T10:47:49.000Z</time>
      </trkpt>
      <trkpt lat="42.718" lon="0.65821">
        <ele>1461.4</ele>
        <time>2018-08-08T10:47:50.000Z</time>
      </trkpt>
      <trkpt lat="42.718" lon="0.65821">
        <ele>1461.4</ele>
        <time>2018-08-08T10:47:51.000Z</time>
      </trkpt>
      <trkpt lat="42.718" lon="0.65821">
        <ele>1461.4</ele>
        <time>2018-08-08T10:47:52.000Z</time>
      </trkpt>
      <trkpt lat="42.718" lon="0.65821">
        <ele>1461.4</ele>
        <time>2018-08-08T10:47:53.000Z</time>
      </trkpt>
      <trkpt lat="42.718" lon="0.65821">
        <ele>1461.4</ele>
        <time>2018-08-08T10:47:54.000Z</time>
      </trkpt>
      <trkpt lat="42.718" lon="0.65821">
        <ele>1461.4</ele>
        <time>2018-08-08T10:47:55.000Z</time>
      </trkpt>
      <trkpt lat="42.718" lon="0.65821">
        <ele>1461.3</ele>
        <time>2018-08-08T10:47:56.000Z</time>
      </trkpt>
      <trkpt lat="42.718" lon="0.65821">
        <ele>1461.3</ele>
        <time>2018-08-08T10:47:57.000Z</time>
      </trkpt>
      <trkpt lat="42.718" lon="0.65821">
        <ele>1461.3</ele>
        <time>2018-08-08T10:47:58.000Z</time>
      </trkpt>
      <trkpt lat="42.718" lon="0.65821">
        <ele>1461.3</ele>
        <time>2018-08-08T10:47:59.000Z</time>
      </trkpt>
      <trkpt lat="42.718" lon="0.65821">
        <ele>1461.3</ele>
        <time>2018-08-08T10:48:00.000Z</time>
      </trkpt>
      <trkpt lat="42.718" lon="0.65821">
        <ele>1461.3</ele>
        <time>2018-08-08T10:48:01.000Z</time>
      </trkpt>
      <trkpt lat="42.718" lon="0.65821">
        <ele>1461.3</ele>
        <time>2018-08-08T10:48:02.000Z</time>
      </trkpt>
      <trkpt lat="42.718" lon="0.65821">
        <ele>1461.2</ele>
        <time>2018-08-08T10:48:03.000Z</time>
      </trkpt>
      <trkpt lat="42.718" lon="0.65821">
        <ele>1461.2</ele>
        <time>2018-08-08T10:48:04.000Z</time>
      </trkpt>
      <trkpt lat="42.718" lon="0.65821">
        <ele>1461.2</ele>
        <time>2018-08-08T10:48:05.000Z</time>
      </trkpt>
      <trkpt lat="42.718" lon="0.65822">
        <ele>1461.2</ele>
        <time>2018-08-08T10:48:06.000Z</time>
      </trkpt>
      <trkpt lat="42.718" lon="0.65822">
        <ele>1461.2</ele>
        <time>2018-08-08T10:48:07.000Z</time>
      </trkpt>
      <trkpt lat="42.71801" lon="0.65822">
        <ele>1461.1</ele>
        <time>2018-08-08T10:48:08.000Z</time>
      </trkpt>
      <trkpt lat="42.71801" lon="0.65822">
        <ele>1461.1</ele>
        <time>2018-08-08T10:48:09.000Z</time>
      </trkpt>
      <trkpt lat="42.71801" lon="0.65822">
        <ele>1461</ele>
        <time>2018-08-08T10:48:10.000Z</time>
      </trkpt>
      <trkpt lat="42.71801" lon="0.65822">
        <ele>1461</ele>
        <time>2018-08-08T10:48:11.000Z</time>
      </trkpt>
      <trkpt lat="42.71801" lon="0.65822">
        <ele>1460.9</ele>
        <time>2018-08-08T10:48:12.000Z</time>
      </trkpt>
      <trkpt lat="42.71801" lon="0.65822">
        <ele>1460.9</ele>
        <time>2018-08-08T10:48:13.000Z</time>
      </trkpt>
      <trkpt lat="42.71801" lon="0.65822">
        <ele>1460.8</ele>
        <time>2018-08-08T10:48:14.000Z</time>
      </trkpt>
      <trkpt lat="42.71801" lon="0.65822">
        <ele>1460.7</ele>
        <time>2018-08-08T10:48:15.000Z</time>
      </trkpt>
      <trkpt lat="42.71801" lon="0.65823">
        <ele>1460.7</ele>
        <time>2018-08-08T10:48:16.000Z</time>
      </trkpt>
      <trkpt lat="42.71802" lon="0.65823">
        <ele>1460.6</ele>
        <time>2018-08-08T10:48:17.000Z</time>
      </trkpt>
      <trkpt lat="42.71802" lon="0.65823">
        <ele>1460.5</ele>
        <time>2018-08-08T10:48:18.000Z</time>
      </trkpt>
      <trkpt lat="42.71802" lon="0.65823">
        <ele>1460.4</ele>
        <time>2018-08-08T10:48:19.000Z</time>
      </trkpt>
      <trkpt lat="42.71802" lon="0.65823">
        <ele>1460.3</ele>
        <time>2018-08-08T10:48:20.000Z</time>
      </trkpt>
      <trkpt lat="42.71802" lon="0.65823">
        <ele>1460.2</ele>
        <time>2018-08-08T10:48:21.000Z</time>
      </trkpt>
      <trkpt lat="42.71803" lon="0.65823">
        <ele>1460.1</ele>
        <time>2018-08-08T10:48:22.000Z</time>
      </trkpt>
      <trkpt lat="42.71803" lon="0.65823">
        <ele>1460</ele>
        <time>2018-08-08T10:48:23.000Z</time>
      </trkpt>
      <trkpt lat="42.71803" lon="0.65823">
        <ele>1460</ele>
        <time>2018-08-08T10:48:24.000Z</time>
      </trkpt>
      <trkpt lat="42.71803" lon="0.65823">
        <ele>1459.9</ele>
        <time>2018-08-08T10:48:25.000Z</time>
      </trkpt>
      <trkpt lat="42.71803" lon="0.65823">
        <ele>1459.8</ele>
        <time>2018-08-08T10:48:26.000Z</time>
      </trkpt>
      <trkpt lat="42.71804" lon="0.65823">
        <ele>1459.7</ele>
        <time>2018-08-08T10:48:27.000Z</time>
      </trkpt>
      <trkpt lat="42.71804" lon="0.65823">
        <ele>1459.7</ele>
        <time>2018-08-08T10:48:28.000Z</time>
      </trkpt>
      <trkpt lat="42.71804" lon="0.65823">
        <ele>1459.6</ele>
        <time>2018-08-08T10:48:29.000Z</time>
      </trkpt>
      <trkpt lat="42.71804" lon="0.65823">
        <ele>1459.5</ele>
        <time>2018-08-08T10:48:30.000Z</time>
      </trkpt>
      <trkpt lat="42.71804" lon="0.65823">
        <ele>1459.5</ele>
        <time>2018-08-08T10:48:31.000Z</time>
      </trkpt>
      <trkpt lat="42.71804" lon="0.65823">
        <ele>1459.5</ele>
        <time>2018-08-08T10:48:32.000Z</time>
      </trkpt>
      <trkpt lat="42.71804" lon="0.65822">
        <ele>1459.5</ele>
        <time>2018-08-08T10:48:33.000Z</time>
      </trkpt>
      <trkpt lat="42.71804" lon="0.65822">
        <ele>1459.5</ele>
        <time>2018-08-08T10:48:34.000Z</time>
      </trkpt>
      <trkpt lat="42.71804" lon="0.65822">
        <ele>1459.4</ele>
        <time>2018-08-08T10:48:35.000Z</time>
      </trkpt>
      <trkpt lat="42.71804" lon="0.65822">
        <ele>1459.4</ele>
        <time>2018-08-08T10:48:36.000Z</time>
      </trkpt>
      <trkpt lat="42.71804" lon="0.65822">
        <ele>1459.4</ele>
        <time>2018-08-08T10:48:37.000Z</time>
      </trkpt>
      <trkpt lat="42.71804" lon="0.65822">
        <ele>1459.4</ele>
        <time>2018-08-08T10:48:38.000Z</time>
      </trkpt>
      <trkpt lat="42.71804" lon="0.65822">
        <ele>1459.4</ele>
        <time>2018-08-08T10:48:39.000Z</time>
      </trkpt>
      <trkpt lat="42.71804" lon="0.65822">
        <ele>1459.4</ele>
        <time>2018-08-08T10:48:40.000Z</time>
      </trkpt>
      <trkpt lat="42.71804" lon="0.65822">
        <ele>1459.4</ele>
        <time>2018-08-08T10:48:41.000Z</time>
      </trkpt>
      <trkpt lat="42.71804" lon="0.65822">
        <ele>1459.4</ele>
        <time>2018-08-08T10:48:42.000Z</time>
      </trkpt>
      <trkpt lat="42.71804" lon="0.65822">
        <ele>1459.4</ele>
        <time>2018-08-08T10:48:43.000Z</time>
      </trkpt>
      <trkpt lat="42.71804" lon="0.65822">
        <ele>1459.4</ele>
        <time>2018-08-08T10:48:44.000Z</time>
      </trkpt>
      <trkpt lat="42.71804" lon="0.65822">
        <ele>1459.4</ele>
        <time>2018-08-08T10:48:45.000Z</time>
      </trkpt>
      <trkpt lat="42.71804" lon="0.65822">
        <ele>1459.4</ele>
        <time>2018-08-08T10:48:46.000Z</time>
      </trkpt>
      <trkpt lat="42.71804" lon="0.65822">
        <ele>1459.4</ele>
        <time>2018-08-08T10:48:47.000Z</time>
      </trkpt>
      <trkpt lat="42.71804" lon="0.65822">
        <ele>1459.4</ele>
        <time>2018-08-08T10:48:48.000Z</time>
      </trkpt>
      <trkpt lat="42.71804" lon="0.65822">
        <ele>1459.4</ele>
        <time>2018-08-08T10:48:49.000Z</time>
      </trkpt>
      <trkpt lat="42.71804" lon="0.65822">
        <ele>1459.4</ele>
        <time>2018-08-08T10:48:50.000Z</time>
      </trkpt>
      <trkpt lat="42.71804" lon="0.65822">
        <ele>1459.4</ele>
        <time>2018-08-08T10:48:51.000Z</time>
      </trkpt>
      <trkpt lat="42.71804" lon="0.65822">
        <ele>1459.4</ele>
        <time>2018-08-08T10:48:52.000Z</time>
      </trkpt>
      <trkpt lat="42.71804" lon="0.65822">
        <ele>1459.4</ele>
        <time>2018-08-08T10:48:53.000Z</time>
      </trkpt>
      <trkpt lat="42.71804" lon="0.65822">
        <ele>1459.4</ele>
        <time>2018-08-08T10:48:54.000Z</time>
      </trkpt>
      <trkpt lat="42.71804" lon="0.65822">
        <ele>1459.4</ele>
        <time>2018-08-08T10:48:55.000Z</time>
      </trkpt>
      <trkpt lat="42.71804" lon="0.65822">
        <ele>1459.4</ele>
        <time>2018-08-08T10:48:56.000Z</time>
      </trkpt>
      <trkpt lat="42.71804" lon="0.65822">
        <ele>1459.4</ele>
        <time>2018-08-08T10:48:57.000Z</time>
      </trkpt>
      <trkpt lat="42.71804" lon="0.65822">
        <ele>1459.4</ele>
        <time>2018-08-08T10:48:58.000Z</time>
      </trkpt>
      <trkpt lat="42.71804" lon="0.65822">
        <ele>1459.4</ele>
        <time>2018-08-08T10:48:59.000Z</time>
      </trkpt>
      <trkpt lat="42.71804" lon="0.65822">
        <ele>1459.4</ele>
        <time>2018-08-08T10:49:00.000Z</time>
      </trkpt>
      <trkpt lat="42.71804" lon="0.65822">
        <ele>1459.4</ele>
        <time>2018-08-08T10:49:01.000Z</time>
      </trkpt>
      <trkpt lat="42.71804" lon="0.65822">
        <ele>1459.4</ele>
        <time>2018-08-08T10:49:02.000Z</time>
      </trkpt>
      <trkpt lat="42.71804" lon="0.65822">
        <ele>1459.4</ele>
        <time>2018-08-08T10:49:03.000Z</time>
      </trkpt>
      <trkpt lat="42.71804" lon="0.65822">
        <ele>1459.4</ele>
        <time>2018-08-08T10:49:04.000Z</time>
      </trkpt>
      <trkpt lat="42.71804" lon="0.65822">
        <ele>1459.4</ele>
        <time>2018-08-08T10:49:05.000Z</time>
      </trkpt>
      <trkpt lat="42.71804" lon="0.65822">
        <ele>1459.4</ele>
        <time>2018-08-08T10:49:06.000Z</time>
      </trkpt>
      <trkpt lat="42.71804" lon="0.65822">
        <ele>1459.4</ele>
        <time>2018-08-08T10:49:07.000Z</time>
      </trkpt>
      <trkpt lat="42.71804" lon="0.65822">
        <ele>1459.4</ele>
        <time>2018-08-08T10:49:08.000Z</time>
      </trkpt>
      <trkpt lat="42.71804" lon="0.65822">
        <ele>1459.4</ele>
        <time>2018-08-08T10:49:09.000Z</time>
      </trkpt>
      <trkpt lat="42.71804" lon="0.65822">
        <ele>1459.4</ele>
        <time>2018-08-08T10:49:10.000Z</time>
      </trkpt>
      <trkpt lat="42.71804" lon="0.65822">
        <ele>1459.4</ele>
        <time>2018-08-08T10:49:11.000Z</time>
      </trkpt>
      <trkpt lat="42.71804" lon="0.65822">
        <ele>1459.4</ele>
        <time>2018-08-08T10:49:12.000Z</time>
      </trkpt>
      <trkpt lat="42.71804" lon="0.65822">
        <ele>1459.4</ele>
        <time>2018-08-08T10:49:13.000Z</time>
      </trkpt>
      <trkpt lat="42.71804" lon="0.65822">
        <ele>1459.4</ele>
        <time>2018-08-08T10:49:14.000Z</time>
      </trkpt>
      <trkpt lat="42.71804" lon="0.65822">
        <ele>1459.4</ele>
        <time>2018-08-08T10:49:15.000Z</time>
      </trkpt>
      <trkpt lat="42.71804" lon="0.65822">
        <ele>1459.4</ele>
        <time>2018-08-08T10:49:16.000Z</time>
      </trkpt>
      <trkpt lat="42.71804" lon="0.65822">
        <ele>1459.4</ele>
        <time>2018-08-08T10:49:17.000Z</time>
      </trkpt>
      <trkpt lat="42.71804" lon="0.65822">
        <ele>1459.4</ele>
        <time>2018-08-08T10:49:18.000Z</time>
      </trkpt>
      <trkpt lat="42.71804" lon="0.65822">
        <ele>1459.4</ele>
        <time>2018-08-08T10:49:19.000Z</time>
      </trkpt>
      <trkpt lat="42.71804" lon="0.65822">
        <ele>1459.4</ele>
        <time>2018-08-08T10:49:20.000Z</time>
      </trkpt>
      <trkpt lat="42.71804" lon="0.65822">
        <ele>1459.4</ele>
        <time>2018-08-08T10:49:21.000Z</time>
      </trkpt>
      <trkpt lat="42.71804" lon="0.65822">
        <ele>1459.4</ele>
        <time>2018-08-08T10:49:22.000Z</time>
      </trkpt>
      <trkpt lat="42.71804" lon="0.65822">
        <ele>1459.4</ele>
        <time>2018-08-08T10:49:23.000Z</time>
      </trkpt>
      <trkpt lat="42.71804" lon="0.65822">
        <ele>1459.4</ele>
        <time>2018-08-08T10:49:24.000Z</time>
      </trkpt>
      <trkpt lat="42.71804" lon="0.65822">
        <ele>1459.4</ele>
        <time>2018-08-08T10:49:25.000Z</time>
      </trkpt>
      <trkpt lat="42.71804" lon="0.65822">
        <ele>1459.4</ele>
        <time>2018-08-08T10:49:26.000Z</time>
      </trkpt>
      <trkpt lat="42.71804" lon="0.65822">
        <ele>1459.4</ele>
        <time>2018-08-08T10:49:27.000Z</time>
      </trkpt>
      <trkpt lat="42.71804" lon="0.65822">
        <ele>1459.4</ele>
        <time>2018-08-08T10:49:28.000Z</time>
      </trkpt>
      <trkpt lat="42.71804" lon="0.65822">
        <ele>1459.4</ele>
        <time>2018-08-08T10:49:29.000Z</time>
      </trkpt>
      <trkpt lat="42.71804" lon="0.65823">
        <ele>1459.4</ele>
        <time>2018-08-08T10:49:30.000Z</time>
      </trkpt>
      <trkpt lat="42.71804" lon="0.65823">
        <ele>1459.4</ele>
        <time>2018-08-08T10:49:31.000Z</time>
      </trkpt>
      <trkpt lat="42.71804" lon="0.65823">
        <ele>1459.3</ele>
        <time>2018-08-08T10:49:32.000Z</time>
      </trkpt>
      <trkpt lat="42.71805" lon="0.65823">
        <ele>1459.2</ele>
        <time>2018-08-08T10:49:33.000Z</time>
      </trkpt>
      <trkpt lat="42.71805" lon="0.65823">
        <ele>1459.2</ele>
        <time>2018-08-08T10:49:34.000Z</time>
      </trkpt>
      <trkpt lat="42.71805" lon="0.65823">
        <ele>1459.1</ele>
        <time>2018-08-08T10:49:35.000Z</time>
      </trkpt>
      <trkpt lat="42.71805" lon="0.65823">
        <ele>1459</ele>
        <time>2018-08-08T10:49:36.000Z</time>
      </trkpt>
      <trkpt lat="42.71805" lon="0.65823">
        <ele>1458.9</ele>
        <time>2018-08-08T10:49:37.000Z</time>
      </trkpt>
      <trkpt lat="42.71805" lon="0.65823">
        <ele>1458.9</ele>
        <time>2018-08-08T10:49:38.000Z</time>
      </trkpt>
      <trkpt lat="42.71805" lon="0.65823">
        <ele>1458.8</ele>
        <time>2018-08-08T10:49:39.000Z</time>
      </trkpt>
      <trkpt lat="42.71805" lon="0.65824">
        <ele>1458.8</ele>
        <time>2018-08-08T10:49:40.000Z</time>
      </trkpt>
      <trkpt lat="42.71806" lon="0.65824">
        <ele>1458.8</ele>
        <time>2018-08-08T10:49:41.000Z</time>
      </trkpt>
      <trkpt lat="42.71806" lon="0.65824">
        <ele>1458.7</ele>
        <time>2018-08-08T10:49:42.000Z</time>
      </trkpt>
      <trkpt lat="42.71806" lon="0.65824">
        <ele>1458.7</ele>
        <time>2018-08-08T10:49:43.000Z</time>
      </trkpt>
      <trkpt lat="42.71806" lon="0.65824">
        <ele>1458.7</ele>
        <time>2018-08-08T10:49:44.000Z</time>
      </trkpt>
      <trkpt lat="42.71806" lon="0.65824">
        <ele>1458.7</ele>
        <time>2018-08-08T10:49:45.000Z</time>
      </trkpt>
      <trkpt lat="42.71806" lon="0.65824">
        <ele>1458.7</ele>
        <time>2018-08-08T10:49:46.000Z</time>
      </trkpt>
      <trkpt lat="42.71806" lon="0.65824">
        <ele>1458.7</ele>
        <time>2018-08-08T10:49:47.000Z</time>
      </trkpt>
      <trkpt lat="42.71806" lon="0.65824">
        <ele>1458.6</ele>
        <time>2018-08-08T10:49:48.000Z</time>
      </trkpt>
      <trkpt lat="42.71806" lon="0.65824">
        <ele>1458.6</ele>
        <time>2018-08-08T10:49:49.000Z</time>
      </trkpt>
      <trkpt lat="42.71806" lon="0.65824">
        <ele>1458.6</ele>
        <time>2018-08-08T10:49:50.000Z</time>
      </trkpt>
      <trkpt lat="42.71806" lon="0.65824">
        <ele>1458.6</ele>
        <time>2018-08-08T10:49:51.000Z</time>
      </trkpt>
      <trkpt lat="42.71806" lon="0.65824">
        <ele>1458.6</ele>
        <time>2018-08-08T10:49:52.000Z</time>
      </trkpt>
      <trkpt lat="42.71806" lon="0.65824">
        <ele>1458.6</ele>
        <time>2018-08-08T10:49:53.000Z</time>
      </trkpt>
      <trkpt lat="42.71806" lon="0.65824">
        <ele>1458.6</ele>
        <time>2018-08-08T10:49:54.000Z</time>
      </trkpt>
      <trkpt lat="42.71806" lon="0.65824">
        <ele>1458.6</ele>
        <time>2018-08-08T10:49:55.000Z</time>
      </trkpt>
      <trkpt lat="42.71806" lon="0.65824">
        <ele>1458.6</ele>
        <time>2018-08-08T10:49:56.000Z</time>
      </trkpt>
      <trkpt lat="42.71806" lon="0.65824">
        <ele>1458.6</ele>
        <time>2018-08-08T10:49:57.000Z</time>
      </trkpt>
      <trkpt lat="42.71806" lon="0.65824">
        <ele>1458.6</ele>
        <time>2018-08-08T10:49:58.000Z</time>
      </trkpt>
      <trkpt lat="42.71806" lon="0.65824">
        <ele>1458.6</ele>
        <time>2018-08-08T10:49:59.000Z</time>
      </trkpt>
      <trkpt lat="42.71806" lon="0.65824">
        <ele>1458.6</ele>
        <time>2018-08-08T10:50:00.000Z</time>
      </trkpt>
      <trkpt lat="42.71806" lon="0.65824">
        <ele>1458.6</ele>
        <time>2018-08-08T10:50:01.000Z</time>
      </trkpt>
      <trkpt lat="42.71806" lon="0.65824">
        <ele>1458.6</ele>
        <time>2018-08-08T10:50:02.000Z</time>
      </trkpt>
      <trkpt lat="42.71806" lon="0.65824">
        <ele>1458.6</ele>
        <time>2018-08-08T10:50:03.000Z</time>
      </trkpt>
      <trkpt lat="42.71806" lon="0.65824">
        <ele>1458.6</ele>
        <time>2018-08-08T10:50:04.000Z</time>
      </trkpt>
      <trkpt lat="42.71806" lon="0.65824">
        <ele>1458.6</ele>
        <time>2018-08-08T10:50:05.000Z</time>
      </trkpt>
      <trkpt lat="42.71806" lon="0.65824">
        <ele>1458.6</ele>
        <time>2018-08-08T10:50:06.000Z</time>
      </trkpt>
      <trkpt lat="42.71806" lon="0.65824">
        <ele>1458.6</ele>
        <time>2018-08-08T10:50:07.000Z</time>
      </trkpt>
      <trkpt lat="42.71806" lon="0.65824">
        <ele>1458.6</ele>
        <time>2018-08-08T10:50:08.000Z</time>
      </trkpt>
      <trkpt lat="42.71806" lon="0.65824">
        <ele>1458.6</ele>
        <time>2018-08-08T10:50:09.000Z</time>
      </trkpt>
      <trkpt lat="42.71806" lon="0.65824">
        <ele>1458.6</ele>
        <time>2018-08-08T10:50:10.000Z</time>
      </trkpt>
      <trkpt lat="42.71806" lon="0.65824">
        <ele>1458.6</ele>
        <time>2018-08-08T10:50:11.000Z</time>
      </trkpt>
      <trkpt lat="42.71806" lon="0.65824">
        <ele>1458.6</ele>
        <time>2018-08-08T10:50:12.000Z</time>
      </trkpt>
      <trkpt lat="42.71806" lon="0.65824">
        <ele>1458.6</ele>
        <time>2018-08-08T10:50:13.000Z</time>
      </trkpt>
      <trkpt lat="42.71806" lon="0.65824">
        <ele>1458.6</ele>
        <time>2018-08-08T10:50:14.000Z</time>
      </trkpt>
      <trkpt lat="42.71806" lon="0.65824">
        <ele>1458.6</ele>
        <time>2018-08-08T10:50:15.000Z</time>
      </trkpt>
      <trkpt lat="42.71806" lon="0.65824">
        <ele>1458.6</ele>
        <time>2018-08-08T10:50:16.000Z</time>
      </trkpt>
      <trkpt lat="42.71806" lon="0.65824">
        <ele>1458.6</ele>
        <time>2018-08-08T10:50:17.000Z</time>
      </trkpt>
      <trkpt lat="42.71806" lon="0.65824">
        <ele>1458.6</ele>
        <time>2018-08-08T10:50:18.000Z</time>
      </trkpt>
      <trkpt lat="42.71806" lon="0.65824">
        <ele>1458.6</ele>
        <time>2018-08-08T10:50:19.000Z</time>
      </trkpt>
      <trkpt lat="42.71806" lon="0.65824">
        <ele>1458.6</ele>
        <time>2018-08-08T10:50:20.000Z</time>
      </trkpt>
      <trkpt lat="42.71806" lon="0.65824">
        <ele>1458.6</ele>
        <time>2018-08-08T10:50:21.000Z</time>
      </trkpt>
      <trkpt lat="42.71806" lon="0.65824">
        <ele>1458.6</ele>
        <time>2018-08-08T10:50:22.000Z</time>
      </trkpt>
      <trkpt lat="42.71806" lon="0.65824">
        <ele>1458.6</ele>
        <time>2018-08-08T10:50:23.000Z</time>
      </trkpt>
      <trkpt lat="42.71806" lon="0.65824">
        <ele>1458.6</ele>
        <time>2018-08-08T10:50:24.000Z</time>
      </trkpt>
      <trkpt lat="42.71806" lon="0.65824">
        <ele>1458.6</ele>
        <time>2018-08-08T10:50:25.000Z</time>
      </trkpt>
      <trkpt lat="42.71806" lon="0.65824">
        <ele>1458.6</ele>
        <time>2018-08-08T10:50:26.000Z</time>
      </trkpt>
      <trkpt lat="42.71806" lon="0.65824">
        <ele>1458.6</ele>
        <time>2018-08-08T10:50:27.000Z</time>
      </trkpt>
      <trkpt lat="42.71806" lon="0.65824">
        <ele>1458.6</ele>
        <time>2018-08-08T10:50:28.000Z</time>
      </trkpt>
      <trkpt lat="42.71806" lon="0.65824">
        <ele>1458.6</ele>
        <time>2018-08-08T10:50:29.000Z</time>
      </trkpt>
      <trkpt lat="42.71806" lon="0.65824">
        <ele>1458.5</ele>
        <time>2018-08-08T10:50:30.000Z</time>
      </trkpt>
      <trkpt lat="42.71806" lon="0.65824">
        <ele>1458.5</ele>
        <time>2018-08-08T10:50:31.000Z</time>
      </trkpt>
      <trkpt lat="42.71806" lon="0.65824">
        <ele>1458.5</ele>
        <time>2018-08-08T10:50:32.000Z</time>
      </trkpt>
      <trkpt lat="42.71806" lon="0.65825">
        <ele>1458.5</ele>
        <time>2018-08-08T10:50:33.000Z</time>
      </trkpt>
      <trkpt lat="42.71806" lon="0.65825">
        <ele>1458.4</ele>
        <time>2018-08-08T10:50:34.000Z</time>
      </trkpt>
      <trkpt lat="42.71806" lon="0.65825">
        <ele>1458.4</ele>
        <time>2018-08-08T10:50:35.000Z</time>
      </trkpt>
      <trkpt lat="42.71806" lon="0.65825">
        <ele>1458.3</ele>
        <time>2018-08-08T10:50:36.000Z</time>
      </trkpt>
      <trkpt lat="42.71806" lon="0.65826">
        <ele>1458.2</ele>
        <time>2018-08-08T10:50:37.000Z</time>
      </trkpt>
      <trkpt lat="42.71806" lon="0.65826">
        <ele>1458.2</ele>
        <time>2018-08-08T10:50:38.000Z</time>
      </trkpt>
      <trkpt lat="42.71806" lon="0.65826">
        <ele>1458.1</ele>
        <time>2018-08-08T10:50:39.000Z</time>
      </trkpt>
      <trkpt lat="42.71806" lon="0.65827">
        <ele>1458</ele>
        <time>2018-08-08T10:50:40.000Z</time>
      </trkpt>
      <trkpt lat="42.71807" lon="0.65827">
        <ele>1458</ele>
        <time>2018-08-08T10:50:41.000Z</time>
      </trkpt>
      <trkpt lat="42.71807" lon="0.65827">
        <ele>1457.9</ele>
        <time>2018-08-08T10:50:42.000Z</time>
      </trkpt>
      <trkpt lat="42.71807" lon="0.65827">
        <ele>1457.9</ele>
        <time>2018-08-08T10:50:43.000Z</time>
      </trkpt>
      <trkpt lat="42.71807" lon="0.65827">
        <ele>1457.9</ele>
        <time>2018-08-08T10:50:44.000Z</time>
      </trkpt>
      <trkpt lat="42.71807" lon="0.65827">
        <ele>1457.9</ele>
        <time>2018-08-08T10:50:45.000Z</time>
      </trkpt>
      <trkpt lat="42.71807" lon="0.65827">
        <ele>1457.8</ele>
        <time>2018-08-08T10:50:46.000Z</time>
      </trkpt>
      <trkpt lat="42.71807" lon="0.65828">
        <ele>1457.8</ele>
        <time>2018-08-08T10:50:47.000Z</time>
      </trkpt>
      <trkpt lat="42.71807" lon="0.65828">
        <ele>1457.8</ele>
        <time>2018-08-08T10:50:48.000Z</time>
      </trkpt>
      <trkpt lat="42.71807" lon="0.65828">
        <ele>1457.8</ele>
        <time>2018-08-08T10:50:49.000Z</time>
      </trkpt>
      <trkpt lat="42.71807" lon="0.65828">
        <ele>1457.9</ele>
        <time>2018-08-08T10:50:50.000Z</time>
      </trkpt>
      <trkpt lat="42.71807" lon="0.65828">
        <ele>1457.8</ele>
        <time>2018-08-08T10:50:51.000Z</time>
      </trkpt>
      <trkpt lat="42.71807" lon="0.65828">
        <ele>1457.8</ele>
        <time>2018-08-08T10:50:52.000Z</time>
      </trkpt>
      <trkpt lat="42.71807" lon="0.65828">
        <ele>1457.8</ele>
        <time>2018-08-08T10:50:53.000Z</time>
      </trkpt>
      <trkpt lat="42.71807" lon="0.65828">
        <ele>1457.8</ele>
        <time>2018-08-08T10:50:54.000Z</time>
      </trkpt>
      <trkpt lat="42.71807" lon="0.65828">
        <ele>1457.8</ele>
        <time>2018-08-08T10:50:55.000Z</time>
      </trkpt>
      <trkpt lat="42.71807" lon="0.65828">
        <ele>1457.8</ele>
        <time>2018-08-08T10:50:56.000Z</time>
      </trkpt>
      <trkpt lat="42.71806" lon="0.65828">
        <ele>1457.9</ele>
        <time>2018-08-08T10:50:57.000Z</time>
      </trkpt>
      <trkpt lat="42.71806" lon="0.65828">
        <ele>1457.8</ele>
        <time>2018-08-08T10:50:58.000Z</time>
      </trkpt>
      <trkpt lat="42.71806" lon="0.65829">
        <ele>1457.8</ele>
        <time>2018-08-08T10:50:59.000Z</time>
      </trkpt>
      <trkpt lat="42.71806" lon="0.65829">
        <ele>1457.8</ele>
        <time>2018-08-08T10:51:00.000Z</time>
      </trkpt>
      <trkpt lat="42.71806" lon="0.65829">
        <ele>1457.8</ele>
        <time>2018-08-08T10:51:01.000Z</time>
      </trkpt>
      <trkpt lat="42.71806" lon="0.65829">
        <ele>1457.9</ele>
        <time>2018-08-08T10:51:02.000Z</time>
      </trkpt>
      <trkpt lat="42.71806" lon="0.65829">
        <ele>1457.9</ele>
        <time>2018-08-08T10:51:03.000Z</time>
      </trkpt>
      <trkpt lat="42.71806" lon="0.65829">
        <ele>1457.8</ele>
        <time>2018-08-08T10:51:04.000Z</time>
      </trkpt>
      <trkpt lat="42.71806" lon="0.65829">
        <ele>1457.9</ele>
        <time>2018-08-08T10:51:05.000Z</time>
      </trkpt>
      <trkpt lat="42.71806" lon="0.65829">
        <ele>1457.9</ele>
        <time>2018-08-08T10:51:06.000Z</time>
      </trkpt>
      <trkpt lat="42.71806" lon="0.6583">
        <ele>1457.9</ele>
        <time>2018-08-08T10:51:07.000Z</time>
      </trkpt>
      <trkpt lat="42.71806" lon="0.6583">
        <ele>1457.9</ele>
        <time>2018-08-08T10:51:08.000Z</time>
      </trkpt>
      <trkpt lat="42.71806" lon="0.6583">
        <ele>1457.9</ele>
        <time>2018-08-08T10:51:09.000Z</time>
      </trkpt>
      <trkpt lat="42.71806" lon="0.6583">
        <ele>1458</ele>
        <time>2018-08-08T10:51:10.000Z</time>
      </trkpt>
      <trkpt lat="42.71806" lon="0.65831">
        <ele>1458</ele>
        <time>2018-08-08T10:51:11.000Z</time>
      </trkpt>
      <trkpt lat="42.71805" lon="0.65831">
        <ele>1458.1</ele>
        <time>2018-08-08T10:51:12.000Z</time>
      </trkpt>
      <trkpt lat="42.71805" lon="0.65831">
        <ele>1458.2</ele>
        <time>2018-08-08T10:51:13.000Z</time>
      </trkpt>
      <trkpt lat="42.71805" lon="0.65831">
        <ele>1458.3</ele>
        <time>2018-08-08T10:51:14.000Z</time>
      </trkpt>
      <trkpt lat="42.71804" lon="0.65831">
        <ele>1458.5</ele>
        <time>2018-08-08T10:51:15.000Z</time>
      </trkpt>
      <trkpt lat="42.71804" lon="0.65832">
        <ele>1458.7</ele>
        <time>2018-08-08T10:51:16.000Z</time>
      </trkpt>
      <trkpt lat="42.71803" lon="0.65832">
        <ele>1459</ele>
        <time>2018-08-08T10:51:17.000Z</time>
      </trkpt>
      <trkpt lat="42.71802" lon="0.65832">
        <ele>1459.3</ele>
        <time>2018-08-08T10:51:18.000Z</time>
      </trkpt>
      <trkpt lat="42.71801" lon="0.65832">
        <ele>1459.6</ele>
        <time>2018-08-08T10:51:19.000Z</time>
      </trkpt>
      <trkpt lat="42.71801" lon="0.65832">
        <ele>1459.8</ele>
        <time>2018-08-08T10:51:20.000Z</time>
      </trkpt>
      <trkpt lat="42.718" lon="0.65832">
        <ele>1460</ele>
        <time>2018-08-08T10:51:21.000Z</time>
      </trkpt>
      <trkpt lat="42.718" lon="0.65832">
        <ele>1460.1</ele>
        <time>2018-08-08T10:51:22.000Z</time>
      </trkpt>
      <trkpt lat="42.718" lon="0.65832">
        <ele>1460.3</ele>
        <time>2018-08-08T10:51:23.000Z</time>
      </trkpt>
      <trkpt lat="42.71799" lon="0.65832">
        <ele>1460.4</ele>
        <time>2018-08-08T10:51:24.000Z</time>
      </trkpt>
      <trkpt lat="42.71799" lon="0.65832">
        <ele>1460.4</ele>
        <time>2018-08-08T10:51:25.000Z</time>
      </trkpt>
      <trkpt lat="42.71799" lon="0.65832">
        <ele>1460.4</ele>
        <time>2018-08-08T10:51:26.000Z</time>
      </trkpt>
      <trkpt lat="42.71799" lon="0.65832">
        <ele>1460.5</ele>
        <time>2018-08-08T10:51:27.000Z</time>
      </trkpt>
      <trkpt lat="42.71799" lon="0.65833">
        <ele>1460.6</ele>
        <time>2018-08-08T10:51:28.000Z</time>
      </trkpt>
      <trkpt lat="42.71799" lon="0.65833">
        <ele>1460.6</ele>
        <time>2018-08-08T10:51:29.000Z</time>
      </trkpt>
      <trkpt lat="42.71799" lon="0.65833">
        <ele>1460.6</ele>
        <time>2018-08-08T10:51:30.000Z</time>
      </trkpt>
      <trkpt lat="42.71799" lon="0.65833">
        <ele>1460.7</ele>
        <time>2018-08-08T10:51:31.000Z</time>
      </trkpt>
      <trkpt lat="42.71798" lon="0.65833">
        <ele>1460.8</ele>
        <time>2018-08-08T10:51:32.000Z</time>
      </trkpt>
      <trkpt lat="42.71798" lon="0.65833">
        <ele>1460.8</ele>
        <time>2018-08-08T10:51:33.000Z</time>
      </trkpt>
      <trkpt lat="42.71798" lon="0.65833">
        <ele>1460.8</ele>
        <time>2018-08-08T10:51:34.000Z</time>
      </trkpt>
      <trkpt lat="42.71798" lon="0.65833">
        <ele>1460.9</ele>
        <time>2018-08-08T10:51:35.000Z</time>
      </trkpt>
      <trkpt lat="42.71798" lon="0.65833">
        <ele>1460.9</ele>
        <time>2018-08-08T10:51:36.000Z</time>
      </trkpt>
      <trkpt lat="42.71798" lon="0.65833">
        <ele>1460.9</ele>
        <time>2018-08-08T10:51:37.000Z</time>
      </trkpt>
      <trkpt lat="42.71798" lon="0.65833">
        <ele>1460.9</ele>
        <time>2018-08-08T10:51:38.000Z</time>
      </trkpt>
      <trkpt lat="42.71798" lon="0.65833">
        <ele>1460.9</ele>
        <time>2018-08-08T10:51:39.000Z</time>
      </trkpt>
      <trkpt lat="42.71798" lon="0.65833">
        <ele>1460.9</ele>
        <time>2018-08-08T10:51:40.000Z</time>
      </trkpt>
      <trkpt lat="42.71798" lon="0.65833">
        <ele>1460.9</ele>
        <time>2018-08-08T10:51:41.000Z</time>
      </trkpt>
      <trkpt lat="42.71798" lon="0.65833">
        <ele>1460.9</ele>
        <time>2018-08-08T10:51:42.000Z</time>
      </trkpt>
      <trkpt lat="42.71798" lon="0.65833">
        <ele>1460.9</ele>
        <time>2018-08-08T10:51:43.000Z</time>
      </trkpt>
      <trkpt lat="42.71798" lon="0.65833">
        <ele>1460.9</ele>
        <time>2018-08-08T10:51:44.000Z</time>
      </trkpt>
      <trkpt lat="42.71798" lon="0.65833">
        <ele>1460.9</ele>
        <time>2018-08-08T10:51:45.000Z</time>
      </trkpt>
      <trkpt lat="42.71798" lon="0.65833">
        <ele>1460.9</ele>
        <time>2018-08-08T10:51:46.000Z</time>
      </trkpt>
      <trkpt lat="42.71798" lon="0.65833">
        <ele>1460.9</ele>
        <time>2018-08-08T10:51:47.000Z</time>
      </trkpt>
      <trkpt lat="42.71798" lon="0.65833">
        <ele>1461</ele>
        <time>2018-08-08T10:51:48.000Z</time>
      </trkpt>
      <trkpt lat="42.71798" lon="0.65833">
        <ele>1461</ele>
        <time>2018-08-08T10:51:49.000Z</time>
      </trkpt>
      <trkpt lat="42.71798" lon="0.65833">
        <ele>1461</ele>
        <time>2018-08-08T10:51:50.000Z</time>
      </trkpt>
      <trkpt lat="42.71798" lon="0.65833">
        <ele>1460.9</ele>
        <time>2018-08-08T10:51:51.000Z</time>
      </trkpt>
      <trkpt lat="42.71798" lon="0.65833">
        <ele>1460.9</ele>
        <time>2018-08-08T10:51:52.000Z</time>
      </trkpt>
      <trkpt lat="42.71798" lon="0.65834">
        <ele>1460.9</ele>
        <time>2018-08-08T10:51:53.000Z</time>
      </trkpt>
      <trkpt lat="42.71798" lon="0.65834">
        <ele>1460.9</ele>
        <time>2018-08-08T10:51:54.000Z</time>
      </trkpt>
      <trkpt lat="42.71798" lon="0.65834">
        <ele>1460.9</ele>
        <time>2018-08-08T10:51:55.000Z</time>
      </trkpt>
      <trkpt lat="42.71798" lon="0.65834">
        <ele>1460.8</ele>
        <time>2018-08-08T10:51:56.000Z</time>
      </trkpt>
      <trkpt lat="42.71798" lon="0.65835">
        <ele>1460.7</ele>
        <time>2018-08-08T10:51:57.000Z</time>
      </trkpt>
      <trkpt lat="42.71799" lon="0.65835">
        <ele>1460.6</ele>
        <time>2018-08-08T10:51:58.000Z</time>
      </trkpt>
      <trkpt lat="42.71799" lon="0.65836">
        <ele>1460.5</ele>
        <time>2018-08-08T10:51:59.000Z</time>
      </trkpt>
      <trkpt lat="42.71799" lon="0.65836">
        <ele>1460.4</ele>
        <time>2018-08-08T10:52:00.000Z</time>
      </trkpt>
      <trkpt lat="42.718" lon="0.65836">
        <ele>1460.3</ele>
        <time>2018-08-08T10:52:01.000Z</time>
      </trkpt>
      <trkpt lat="42.718" lon="0.65837">
        <ele>1460.2</ele>
        <time>2018-08-08T10:52:02.000Z</time>
      </trkpt>
      <trkpt lat="42.718" lon="0.65837">
        <ele>1460.1</ele>
        <time>2018-08-08T10:52:03.000Z</time>
      </trkpt>
      <trkpt lat="42.718" lon="0.65838">
        <ele>1460</ele>
        <time>2018-08-08T10:52:04.000Z</time>
      </trkpt>
      <trkpt lat="42.71801" lon="0.65838">
        <ele>1460</ele>
        <time>2018-08-08T10:52:05.000Z</time>
      </trkpt>
      <trkpt lat="42.71801" lon="0.65838">
        <ele>1459.9</ele>
        <time>2018-08-08T10:52:06.000Z</time>
      </trkpt>
      <trkpt lat="42.71801" lon="0.65838">
        <ele>1459.9</ele>
        <time>2018-08-08T10:52:07.000Z</time>
      </trkpt>
      <trkpt lat="42.71801" lon="0.65838">
        <ele>1459.9</ele>
        <time>2018-08-08T10:52:08.000Z</time>
      </trkpt>
      <trkpt lat="42.71801" lon="0.65838">
        <ele>1459.9</ele>
        <time>2018-08-08T10:52:09.000Z</time>
      </trkpt>
      <trkpt lat="42.71801" lon="0.65838">
        <ele>1459.9</ele>
        <time>2018-08-08T10:52:10.000Z</time>
      </trkpt>
      <trkpt lat="42.71801" lon="0.65838">
        <ele>1459.9</ele>
        <time>2018-08-08T10:52:11.000Z</time>
      </trkpt>
      <trkpt lat="42.71801" lon="0.65839">
        <ele>1459.9</ele>
        <time>2018-08-08T10:52:12.000Z</time>
      </trkpt>
      <trkpt lat="42.71801" lon="0.65839">
        <ele>1459.9</ele>
        <time>2018-08-08T10:52:13.000Z</time>
      </trkpt>
      <trkpt lat="42.71801" lon="0.65839">
        <ele>1459.9</ele>
        <time>2018-08-08T10:52:14.000Z</time>
      </trkpt>
      <trkpt lat="42.71801" lon="0.65839">
        <ele>1459.8</ele>
        <time>2018-08-08T10:52:15.000Z</time>
      </trkpt>
      <trkpt lat="42.71801" lon="0.65839">
        <ele>1459.8</ele>
        <time>2018-08-08T10:52:16.000Z</time>
      </trkpt>
      <trkpt lat="42.71801" lon="0.65839">
        <ele>1459.8</ele>
        <time>2018-08-08T10:52:17.000Z</time>
      </trkpt>
      <trkpt lat="42.71801" lon="0.65839">
        <ele>1459.7</ele>
        <time>2018-08-08T10:52:18.000Z</time>
      </trkpt>
      <trkpt lat="42.71802" lon="0.65839">
        <ele>1459.6</ele>
        <time>2018-08-08T10:52:19.000Z</time>
      </trkpt>
      <trkpt lat="42.71802" lon="0.65839">
        <ele>1459.5</ele>
        <time>2018-08-08T10:52:20.000Z</time>
      </trkpt>
      <trkpt lat="42.71802" lon="0.65839">
        <ele>1459.4</ele>
        <time>2018-08-08T10:52:21.000Z</time>
      </trkpt>
      <trkpt lat="42.71802" lon="0.65839">
        <ele>1459.2</ele>
        <time>2018-08-08T10:52:22.000Z</time>
      </trkpt>
      <trkpt lat="42.71803" lon="0.65839">
        <ele>1459.1</ele>
        <time>2018-08-08T10:52:23.000Z</time>
      </trkpt>
      <trkpt lat="42.71803" lon="0.65839">
        <ele>1458.9</ele>
        <time>2018-08-08T10:52:24.000Z</time>
      </trkpt>
      <trkpt lat="42.71804" lon="0.65839">
        <ele>1458.8</ele>
        <time>2018-08-08T10:52:25.000Z</time>
      </trkpt>
      <trkpt lat="42.71804" lon="0.65839">
        <ele>1458.6</ele>
        <time>2018-08-08T10:52:26.000Z</time>
      </trkpt>
      <trkpt lat="42.71805" lon="0.65839">
        <ele>1458.4</ele>
        <time>2018-08-08T10:52:27.000Z</time>
      </trkpt>
      <trkpt lat="42.71805" lon="0.6584">
        <ele>1458.3</ele>
        <time>2018-08-08T10:52:28.000Z</time>
      </trkpt>
      <trkpt lat="42.71806" lon="0.6584">
        <ele>1458.1</ele>
        <time>2018-08-08T10:52:29.000Z</time>
      </trkpt>
      <trkpt lat="42.71806" lon="0.6584">
        <ele>1457.9</ele>
        <time>2018-08-08T10:52:30.000Z</time>
      </trkpt>
      <trkpt lat="42.71807" lon="0.6584">
        <ele>1457.7</ele>
        <time>2018-08-08T10:52:31.000Z</time>
      </trkpt>
      <trkpt lat="42.71807" lon="0.65841">
        <ele>1457.5</ele>
        <time>2018-08-08T10:52:32.000Z</time>
      </trkpt>
      <trkpt lat="42.71808" lon="0.65841">
        <ele>1457.3</ele>
        <time>2018-08-08T10:52:33.000Z</time>
      </trkpt>
      <trkpt lat="42.71808" lon="0.65841">
        <ele>1457.1</ele>
        <time>2018-08-08T10:52:34.000Z</time>
      </trkpt>
      <trkpt lat="42.71809" lon="0.65842">
        <ele>1457</ele>
        <time>2018-08-08T10:52:35.000Z</time>
      </trkpt>
      <trkpt lat="42.71809" lon="0.65842">
        <ele>1456.8</ele>
        <time>2018-08-08T10:52:36.000Z</time>
      </trkpt>
      <trkpt lat="42.7181" lon="0.65842">
        <ele>1456.7</ele>
        <time>2018-08-08T10:52:37.000Z</time>
      </trkpt>
      <trkpt lat="42.7181" lon="0.65843">
        <ele>1456.6</ele>
        <time>2018-08-08T10:52:38.000Z</time>
      </trkpt>
      <trkpt lat="42.7181" lon="0.65843">
        <ele>1456.5</ele>
        <time>2018-08-08T10:52:39.000Z</time>
      </trkpt>
      <trkpt lat="42.7181" lon="0.65843">
        <ele>1456.5</ele>
        <time>2018-08-08T10:52:40.000Z</time>
      </trkpt>
      <trkpt lat="42.7181" lon="0.65843">
        <ele>1456.5</ele>
        <time>2018-08-08T10:52:41.000Z</time>
      </trkpt>
      <trkpt lat="42.7181" lon="0.65843">
        <ele>1456.5</ele>
        <time>2018-08-08T10:52:42.000Z</time>
      </trkpt>
      <trkpt lat="42.7181" lon="0.65843">
        <ele>1456.5</ele>
        <time>2018-08-08T10:52:43.000Z</time>
      </trkpt>
      <trkpt lat="42.7181" lon="0.65843">
        <ele>1456.5</ele>
        <time>2018-08-08T10:52:44.000Z</time>
      </trkpt>
      <trkpt lat="42.7181" lon="0.65843">
        <ele>1456.5</ele>
        <time>2018-08-08T10:52:45.000Z</time>
      </trkpt>
      <trkpt lat="42.7181" lon="0.65843">
        <ele>1456.5</ele>
        <time>2018-08-08T10:52:46.000Z</time>
      </trkpt>
      <trkpt lat="42.7181" lon="0.65843">
        <ele>1456.5</ele>
        <time>2018-08-08T10:52:47.000Z</time>
      </trkpt>
      <trkpt lat="42.7181" lon="0.65843">
        <ele>1456.5</ele>
        <time>2018-08-08T10:52:48.000Z</time>
      </trkpt>
      <trkpt lat="42.7181" lon="0.65843">
        <ele>1456.5</ele>
        <time>2018-08-08T10:52:49.000Z</time>
      </trkpt>
      <trkpt lat="42.7181" lon="0.65843">
        <ele>1456.5</ele>
        <time>2018-08-08T10:52:50.000Z</time>
      </trkpt>
      <trkpt lat="42.7181" lon="0.65844">
        <ele>1456.6</ele>
        <time>2018-08-08T10:52:51.000Z</time>
      </trkpt>
      <trkpt lat="42.7181" lon="0.65844">
        <ele>1456.7</ele>
        <time>2018-08-08T10:52:52.000Z</time>
      </trkpt>
      <trkpt lat="42.7181" lon="0.65844">
        <ele>1456.8</ele>
        <time>2018-08-08T10:52:53.000Z</time>
      </trkpt>
      <trkpt lat="42.71809" lon="0.65845">
        <ele>1457</ele>
        <time>2018-08-08T10:52:54.000Z</time>
      </trkpt>
      <trkpt lat="42.71809" lon="0.65846">
        <ele>1457.2</ele>
        <time>2018-08-08T10:52:55.000Z</time>
      </trkpt>
      <trkpt lat="42.71808" lon="0.65847">
        <ele>1457.5</ele>
        <time>2018-08-08T10:52:56.000Z</time>
      </trkpt>
      <trkpt lat="42.71808" lon="0.65848">
        <ele>1457.7</ele>
        <time>2018-08-08T10:52:57.000Z</time>
      </trkpt>
      <trkpt lat="42.71807" lon="0.65848">
        <ele>1457.9</ele>
        <time>2018-08-08T10:52:58.000Z</time>
      </trkpt>
      <trkpt lat="42.71807" lon="0.65849">
        <ele>1458.1</ele>
        <time>2018-08-08T10:52:59.000Z</time>
      </trkpt>
      <trkpt lat="42.71807" lon="0.6585">
        <ele>1458.3</ele>
        <time>2018-08-08T10:53:00.000Z</time>
      </trkpt>
      <trkpt lat="42.71806" lon="0.6585">
        <ele>1458.4</ele>
        <time>2018-08-08T10:53:01.000Z</time>
      </trkpt>
      <trkpt lat="42.71806" lon="0.65851">
        <ele>1458.5</ele>
        <time>2018-08-08T10:53:02.000Z</time>
      </trkpt>
      <trkpt lat="42.71806" lon="0.65851">
        <ele>1458.6</ele>
        <time>2018-08-08T10:53:03.000Z</time>
      </trkpt>
      <trkpt lat="42.71806" lon="0.65851">
        <ele>1458.6</ele>
        <time>2018-08-08T10:53:04.000Z</time>
      </trkpt>
      <trkpt lat="42.71806" lon="0.65851">
        <ele>1458.6</ele>
        <time>2018-08-08T10:53:05.000Z</time>
      </trkpt>
      <trkpt lat="42.71806" lon="0.65851">
        <ele>1458.7</ele>
        <time>2018-08-08T10:53:06.000Z</time>
      </trkpt>
      <trkpt lat="42.71806" lon="0.65851">
        <ele>1458.7</ele>
        <time>2018-08-08T10:53:07.000Z</time>
      </trkpt>
      <trkpt lat="42.71806" lon="0.65851">
        <ele>1458.7</ele>
        <time>2018-08-08T10:53:08.000Z</time>
      </trkpt>
      <trkpt lat="42.71806" lon="0.65851">
        <ele>1458.7</ele>
        <time>2018-08-08T10:53:09.000Z</time>
      </trkpt>
      <trkpt lat="42.71806" lon="0.65851">
        <ele>1458.7</ele>
        <time>2018-08-08T10:53:10.000Z</time>
      </trkpt>
      <trkpt lat="42.71806" lon="0.65851">
        <ele>1458.7</ele>
        <time>2018-08-08T10:53:11.000Z</time>
      </trkpt>
      <trkpt lat="42.71806" lon="0.65851">
        <ele>1458.7</ele>
        <time>2018-08-08T10:53:12.000Z</time>
      </trkpt>
      <trkpt lat="42.71806" lon="0.65851">
        <ele>1458.7</ele>
        <time>2018-08-08T10:53:13.000Z</time>
      </trkpt>
      <trkpt lat="42.71806" lon="0.65851">
        <ele>1458.7</ele>
        <time>2018-08-08T10:53:14.000Z</time>
      </trkpt>
      <trkpt lat="42.71806" lon="0.65851">
        <ele>1458.7</ele>
        <time>2018-08-08T10:53:15.000Z</time>
      </trkpt>
      <trkpt lat="42.71806" lon="0.65851">
        <ele>1458.7</ele>
        <time>2018-08-08T10:53:16.000Z</time>
      </trkpt>
      <trkpt lat="42.71806" lon="0.65851">
        <ele>1458.7</ele>
        <time>2018-08-08T10:53:17.000Z</time>
      </trkpt>
      <trkpt lat="42.71806" lon="0.65851">
        <ele>1458.6</ele>
        <time>2018-08-08T10:53:18.000Z</time>
      </trkpt>
      <trkpt lat="42.71806" lon="0.65851">
        <ele>1458.6</ele>
        <time>2018-08-08T10:53:19.000Z</time>
      </trkpt>
      <trkpt lat="42.71806" lon="0.65851">
        <ele>1458.5</ele>
        <time>2018-08-08T10:53:20.000Z</time>
      </trkpt>
      <trkpt lat="42.71806" lon="0.6585">
        <ele>1458.5</ele>
        <time>2018-08-08T10:53:21.000Z</time>
      </trkpt>
      <trkpt lat="42.71807" lon="0.6585">
        <ele>1458.3</ele>
        <time>2018-08-08T10:53:22.000Z</time>
      </trkpt>
      <trkpt lat="42.71807" lon="0.65849">
        <ele>1458.2</ele>
        <time>2018-08-08T10:53:23.000Z</time>
      </trkpt>
      <trkpt lat="42.71807" lon="0.65848">
        <ele>1458</ele>
        <time>2018-08-08T10:53:24.000Z</time>
      </trkpt>
      <trkpt lat="42.71808" lon="0.65847">
        <ele>1457.7</ele>
        <time>2018-08-08T10:53:25.000Z</time>
      </trkpt>
      <trkpt lat="42.71808" lon="0.65847">
        <ele>1457.5</ele>
        <time>2018-08-08T10:53:26.000Z</time>
      </trkpt>
      <trkpt lat="42.71809" lon="0.65846">
        <ele>1457.3</ele>
        <time>2018-08-08T10:53:27.000Z</time>
      </trkpt>
      <trkpt lat="42.71809" lon="0.65845">
        <ele>1457.1</ele>
        <time>2018-08-08T10:53:28.000Z</time>
      </trkpt>
      <trkpt lat="42.71809" lon="0.65844">
        <ele>1456.9</ele>
        <time>2018-08-08T10:53:29.000Z</time>
      </trkpt>
      <trkpt lat="42.7181" lon="0.65844">
        <ele>1456.7</ele>
        <time>2018-08-08T10:53:30.000Z</time>
      </trkpt>
      <trkpt lat="42.7181" lon="0.65843">
        <ele>1456.7</ele>
        <time>2018-08-08T10:53:31.000Z</time>
      </trkpt>
      <trkpt lat="42.7181" lon="0.65843">
        <ele>1456.6</ele>
        <time>2018-08-08T10:53:32.000Z</time>
      </trkpt>
      <trkpt lat="42.7181" lon="0.65843">
        <ele>1456.6</ele>
        <time>2018-08-08T10:53:33.000Z</time>
      </trkpt>
      <trkpt lat="42.7181" lon="0.65843">
        <ele>1456.6</ele>
        <time>2018-08-08T10:53:34.000Z</time>
      </trkpt>
      <trkpt lat="42.7181" lon="0.65843">
        <ele>1456.6</ele>
        <time>2018-08-08T10:53:35.000Z</time>
      </trkpt>
      <trkpt lat="42.7181" lon="0.65843">
        <ele>1456.6</ele>
        <time>2018-08-08T10:53:36.000Z</time>
      </trkpt>
      <trkpt lat="42.7181" lon="0.65843">
        <ele>1456.6</ele>
        <time>2018-08-08T10:53:37.000Z</time>
      </trkpt>
      <trkpt lat="42.7181" lon="0.65843">
        <ele>1456.6</ele>
        <time>2018-08-08T10:53:38.000Z</time>
      </trkpt>
      <trkpt lat="42.7181" lon="0.65842">
        <ele>1456.6</ele>
        <time>2018-08-08T10:53:39.000Z</time>
      </trkpt>
      <trkpt lat="42.7181" lon="0.65842">
        <ele>1456.6</ele>
        <time>2018-08-08T10:53:40.000Z</time>
      </trkpt>
      <trkpt lat="42.7181" lon="0.65842">
        <ele>1456.6</ele>
        <time>2018-08-08T10:53:41.000Z</time>
      </trkpt>
      <trkpt lat="42.7181" lon="0.65842">
        <ele>1456.5</ele>
        <time>2018-08-08T10:53:42.000Z</time>
      </trkpt>
      <trkpt lat="42.7181" lon="0.65841">
        <ele>1456.5</ele>
        <time>2018-08-08T10:53:43.000Z</time>
      </trkpt>
      <trkpt lat="42.7181" lon="0.65841">
        <ele>1456.3</ele>
        <time>2018-08-08T10:53:44.000Z</time>
      </trkpt>
      <trkpt lat="42.71811" lon="0.6584">
        <ele>1456.1</ele>
        <time>2018-08-08T10:53:45.000Z</time>
      </trkpt>
      <trkpt lat="42.71811" lon="0.6584">
        <ele>1455.9</ele>
        <time>2018-08-08T10:53:46.000Z</time>
      </trkpt>
      <trkpt lat="42.71812" lon="0.65839">
        <ele>1455.6</ele>
        <time>2018-08-08T10:53:47.000Z</time>
      </trkpt>
      <trkpt lat="42.71812" lon="0.65838">
        <ele>1455.2</ele>
        <time>2018-08-08T10:53:48.000Z</time>
      </trkpt>
      <trkpt lat="42.71813" lon="0.65838">
        <ele>1454.8</ele>
        <time>2018-08-08T10:53:49.000Z</time>
      </trkpt>
      <trkpt lat="42.71814" lon="0.65837">
        <ele>1454.4</ele>
        <time>2018-08-08T10:53:50.000Z</time>
      </trkpt>
      <trkpt lat="42.71815" lon="0.65836">
        <ele>1454.1</ele>
        <time>2018-08-08T10:53:51.000Z</time>
      </trkpt>
      <trkpt lat="42.71815" lon="0.65836">
        <ele>1453.8</ele>
        <time>2018-08-08T10:53:52.000Z</time>
      </trkpt>
      <trkpt lat="42.71816" lon="0.65835">
        <ele>1453.6</ele>
        <time>2018-08-08T10:53:53.000Z</time>
      </trkpt>
      <trkpt lat="42.71816" lon="0.65835">
        <ele>1453.4</ele>
        <time>2018-08-08T10:53:54.000Z</time>
      </trkpt>
      <trkpt lat="42.71816" lon="0.65835">
        <ele>1453.4</ele>
        <time>2018-08-08T10:53:55.000Z</time>
      </trkpt>
      <trkpt lat="42.71816" lon="0.65835">
        <ele>1453.3</ele>
        <time>2018-08-08T10:53:56.000Z</time>
      </trkpt>
      <trkpt lat="42.71816" lon="0.65835">
        <ele>1453.3</ele>
        <time>2018-08-08T10:53:57.000Z</time>
      </trkpt>
      <trkpt lat="42.71816" lon="0.65835">
        <ele>1453.3</ele>
        <time>2018-08-08T10:53:58.000Z</time>
      </trkpt>
      <trkpt lat="42.71816" lon="0.65835">
        <ele>1453.3</ele>
        <time>2018-08-08T10:53:59.000Z</time>
      </trkpt>
      <trkpt lat="42.71816" lon="0.65835">
        <ele>1453.3</ele>
        <time>2018-08-08T10:54:00.000Z</time>
      </trkpt>
      <trkpt lat="42.71816" lon="0.65835">
        <ele>1453.3</ele>
        <time>2018-08-08T10:54:01.000Z</time>
      </trkpt>
      <trkpt lat="42.71816" lon="0.65835">
        <ele>1453.3</ele>
        <time>2018-08-08T10:54:02.000Z</time>
      </trkpt>
      <trkpt lat="42.71816" lon="0.65835">
        <ele>1453.3</ele>
        <time>2018-08-08T10:54:03.000Z</time>
      </trkpt>
      <trkpt lat="42.71816" lon="0.65835">
        <ele>1453.3</ele>
        <time>2018-08-08T10:54:04.000Z</time>
      </trkpt>
      <trkpt lat="42.71816" lon="0.65835">
        <ele>1453.3</ele>
        <time>2018-08-08T10:54:05.000Z</time>
      </trkpt>
      <trkpt lat="42.71816" lon="0.65835">
        <ele>1453.3</ele>
        <time>2018-08-08T10:54:06.000Z</time>
      </trkpt>
      <trkpt lat="42.71816" lon="0.65835">
        <ele>1453.3</ele>
        <time>2018-08-08T10:54:07.000Z</time>
      </trkpt>
      <trkpt lat="42.71816" lon="0.65835">
        <ele>1453.3</ele>
        <time>2018-08-08T10:54:08.000Z</time>
      </trkpt>
      <trkpt lat="42.71816" lon="0.65835">
        <ele>1453.3</ele>
        <time>2018-08-08T10:54:09.000Z</time>
      </trkpt>
      <trkpt lat="42.71816" lon="0.65835">
        <ele>1453.3</ele>
        <time>2018-08-08T10:54:10.000Z</time>
      </trkpt>
      <trkpt lat="42.71816" lon="0.65835">
        <ele>1453.3</ele>
        <time>2018-08-08T10:54:11.000Z</time>
      </trkpt>
      <trkpt lat="42.71816" lon="0.65835">
        <ele>1453.3</ele>
        <time>2018-08-08T10:54:12.000Z</time>
      </trkpt>
      <trkpt lat="42.71816" lon="0.65835">
        <ele>1453.3</ele>
        <time>2018-08-08T10:54:13.000Z</time>
      </trkpt>
      <trkpt lat="42.71816" lon="0.65835">
        <ele>1453.3</ele>
        <time>2018-08-08T10:54:14.000Z</time>
      </trkpt>
      <trkpt lat="42.71816" lon="0.65835">
        <ele>1453.3</ele>
        <time>2018-08-08T10:54:15.000Z</time>
      </trkpt>
      <trkpt lat="42.71816" lon="0.65835">
        <ele>1453.3</ele>
        <time>2018-08-08T10:54:16.000Z</time>
      </trkpt>
      <trkpt lat="42.71817" lon="0.65835">
        <ele>1453.2</ele>
        <time>2018-08-08T10:54:17.000Z</time>
      </trkpt>
      <trkpt lat="42.71817" lon="0.65835">
        <ele>1453.2</ele>
        <time>2018-08-08T10:54:18.000Z</time>
      </trkpt>
      <trkpt lat="42.71817" lon="0.65834">
        <ele>1453.1</ele>
        <time>2018-08-08T10:54:19.000Z</time>
      </trkpt>
      <trkpt lat="42.71817" lon="0.65834">
        <ele>1453</ele>
        <time>2018-08-08T10:54:20.000Z</time>
      </trkpt>
      <trkpt lat="42.71817" lon="0.65833">
        <ele>1453</ele>
        <time>2018-08-08T10:54:21.000Z</time>
      </trkpt>
      <trkpt lat="42.71817" lon="0.65833">
        <ele>1452.9</ele>
        <time>2018-08-08T10:54:22.000Z</time>
      </trkpt>
      <trkpt lat="42.71817" lon="0.65833">
        <ele>1453</ele>
        <time>2018-08-08T10:54:23.000Z</time>
      </trkpt>
      <trkpt lat="42.71817" lon="0.65832">
        <ele>1453</ele>
        <time>2018-08-08T10:54:24.000Z</time>
      </trkpt>
      <trkpt lat="42.71817" lon="0.65832">
        <ele>1453.1</ele>
        <time>2018-08-08T10:54:25.000Z</time>
      </trkpt>
      <trkpt lat="42.71817" lon="0.65832">
        <ele>1453.1</ele>
        <time>2018-08-08T10:54:26.000Z</time>
      </trkpt>
      <trkpt lat="42.71817" lon="0.65832">
        <ele>1453.2</ele>
        <time>2018-08-08T10:54:27.000Z</time>
      </trkpt>
      <trkpt lat="42.71817" lon="0.65832">
        <ele>1453.2</ele>
        <time>2018-08-08T10:54:28.000Z</time>
      </trkpt>
      <trkpt lat="42.71817" lon="0.65832">
        <ele>1453.2</ele>
        <time>2018-08-08T10:54:29.000Z</time>
      </trkpt>
      <trkpt lat="42.71817" lon="0.65831">
        <ele>1453.2</ele>
        <time>2018-08-08T10:54:30.000Z</time>
      </trkpt>
      <trkpt lat="42.71817" lon="0.65831">
        <ele>1453.3</ele>
        <time>2018-08-08T10:54:31.000Z</time>
      </trkpt>
      <trkpt lat="42.71816" lon="0.65831">
        <ele>1453.3</ele>
        <time>2018-08-08T10:54:32.000Z</time>
      </trkpt>
      <trkpt lat="42.71816" lon="0.65831">
        <ele>1453.4</ele>
        <time>2018-08-08T10:54:33.000Z</time>
      </trkpt>
      <trkpt lat="42.71816" lon="0.65831">
        <ele>1453.5</ele>
        <time>2018-08-08T10:54:34.000Z</time>
      </trkpt>
      <trkpt lat="42.71816" lon="0.65831">
        <ele>1453.5</ele>
        <time>2018-08-08T10:54:35.000Z</time>
      </trkpt>
      <trkpt lat="42.71816" lon="0.6583">
        <ele>1453.6</ele>
        <time>2018-08-08T10:54:36.000Z</time>
      </trkpt>
      <trkpt lat="42.71816" lon="0.6583">
        <ele>1453.6</ele>
        <time>2018-08-08T10:54:37.000Z</time>
      </trkpt>
      <trkpt lat="42.71816" lon="0.6583">
        <ele>1453.6</ele>
        <time>2018-08-08T10:54:38.000Z</time>
      </trkpt>
      <trkpt lat="42.71816" lon="0.6583">
        <ele>1453.6</ele>
        <time>2018-08-08T10:54:39.000Z</time>
      </trkpt>
      <trkpt lat="42.71816" lon="0.6583">
        <ele>1453.6</ele>
        <time>2018-08-08T10:54:40.000Z</time>
      </trkpt>
      <trkpt lat="42.71816" lon="0.6583">
        <ele>1453.6</ele>
        <time>2018-08-08T10:54:41.000Z</time>
      </trkpt>
      <trkpt lat="42.71816" lon="0.6583">
        <ele>1453.7</ele>
        <time>2018-08-08T10:54:42.000Z</time>
      </trkpt>
      <trkpt lat="42.71816" lon="0.6583">
        <ele>1453.7</ele>
        <time>2018-08-08T10:54:43.000Z</time>
      </trkpt>
      <trkpt lat="42.71816" lon="0.6583">
        <ele>1453.7</ele>
        <time>2018-08-08T10:54:44.000Z</time>
      </trkpt>
      <trkpt lat="42.71816" lon="0.6583">
        <ele>1453.7</ele>
        <time>2018-08-08T10:54:45.000Z</time>
      </trkpt>
      <trkpt lat="42.71816" lon="0.6583">
        <ele>1453.7</ele>
        <time>2018-08-08T10:54:46.000Z</time>
      </trkpt>
      <trkpt lat="42.71816" lon="0.6583">
        <ele>1453.7</ele>
        <time>2018-08-08T10:54:47.000Z</time>
      </trkpt>
      <trkpt lat="42.71816" lon="0.6583">
        <ele>1453.7</ele>
        <time>2018-08-08T10:54:48.000Z</time>
      </trkpt>
      <trkpt lat="42.71816" lon="0.6583">
        <ele>1453.7</ele>
        <time>2018-08-08T10:54:49.000Z</time>
      </trkpt>
      <trkpt lat="42.71816" lon="0.6583">
        <ele>1453.7</ele>
        <time>2018-08-08T10:54:50.000Z</time>
      </trkpt>
      <trkpt lat="42.71816" lon="0.6583">
        <ele>1453.7</ele>
        <time>2018-08-08T10:54:51.000Z</time>
      </trkpt>
      <trkpt lat="42.71816" lon="0.6583">
        <ele>1453.7</ele>
        <time>2018-08-08T10:54:52.000Z</time>
      </trkpt>
      <trkpt lat="42.71816" lon="0.6583">
        <ele>1453.7</ele>
        <time>2018-08-08T10:54:53.000Z</time>
      </trkpt>
      <trkpt lat="42.71816" lon="0.6583">
        <ele>1453.7</ele>
        <time>2018-08-08T10:54:54.000Z</time>
      </trkpt>
      <trkpt lat="42.71816" lon="0.65829">
        <ele>1453.6</ele>
        <time>2018-08-08T10:54:55.000Z</time>
      </trkpt>
      <trkpt lat="42.71816" lon="0.65829">
        <ele>1453.5</ele>
        <time>2018-08-08T10:54:56.000Z</time>
      </trkpt>
      <trkpt lat="42.71817" lon="0.65829">
        <ele>1453.5</ele>
        <time>2018-08-08T10:54:57.000Z</time>
      </trkpt>
      <trkpt lat="42.71817" lon="0.65829">
        <ele>1453.4</ele>
        <time>2018-08-08T10:54:58.000Z</time>
      </trkpt>
      <trkpt lat="42.71817" lon="0.65829">
        <ele>1453.3</ele>
        <time>2018-08-08T10:54:59.000Z</time>
      </trkpt>
      <trkpt lat="42.71817" lon="0.65829">
        <ele>1453.3</ele>
        <time>2018-08-08T10:55:00.000Z</time>
      </trkpt>
      <trkpt lat="42.71817" lon="0.65829">
        <ele>1453.2</ele>
        <time>2018-08-08T10:55:01.000Z</time>
      </trkpt>
      <trkpt lat="42.71817" lon="0.65829">
        <ele>1453.2</ele>
        <time>2018-08-08T10:55:02.000Z</time>
      </trkpt>
      <trkpt lat="42.71817" lon="0.65829">
        <ele>1453.2</ele>
        <time>2018-08-08T10:55:03.000Z</time>
      </trkpt>
      <trkpt lat="42.71817" lon="0.65829">
        <ele>1453.2</ele>
        <time>2018-08-08T10:55:04.000Z</time>
      </trkpt>
      <trkpt lat="42.71817" lon="0.65829">
        <ele>1453.2</ele>
        <time>2018-08-08T10:55:05.000Z</time>
      </trkpt>
      <trkpt lat="42.71817" lon="0.65829">
        <ele>1453.2</ele>
        <time>2018-08-08T10:55:06.000Z</time>
      </trkpt>
      <trkpt lat="42.71817" lon="0.65829">
        <ele>1453.2</ele>
        <time>2018-08-08T10:55:07.000Z</time>
      </trkpt>
      <trkpt lat="42.71817" lon="0.65829">
        <ele>1453.2</ele>
        <time>2018-08-08T10:55:08.000Z</time>
      </trkpt>
      <trkpt lat="42.71817" lon="0.65829">
        <ele>1453.2</ele>
        <time>2018-08-08T10:55:09.000Z</time>
      </trkpt>
      <trkpt lat="42.71817" lon="0.65829">
        <ele>1453.2</ele>
        <time>2018-08-08T10:55:10.000Z</time>
      </trkpt>
      <trkpt lat="42.71817" lon="0.65829">
        <ele>1453.3</ele>
        <time>2018-08-08T10:55:11.000Z</time>
      </trkpt>
      <trkpt lat="42.71817" lon="0.65829">
        <ele>1453.3</ele>
        <time>2018-08-08T10:55:12.000Z</time>
      </trkpt>
      <trkpt lat="42.71817" lon="0.65829">
        <ele>1453.2</ele>
        <time>2018-08-08T10:55:13.000Z</time>
      </trkpt>
      <trkpt lat="42.71817" lon="0.65829">
        <ele>1453.2</ele>
        <time>2018-08-08T10:55:14.000Z</time>
      </trkpt>
      <trkpt lat="42.71818" lon="0.65829">
        <ele>1453</ele>
        <time>2018-08-08T10:55:15.000Z</time>
      </trkpt>
      <trkpt lat="42.71818" lon="0.65829">
        <ele>1452.9</ele>
        <time>2018-08-08T10:55:16.000Z</time>
      </trkpt>
      <trkpt lat="42.71819" lon="0.65828">
        <ele>1452.6</ele>
        <time>2018-08-08T10:55:17.000Z</time>
      </trkpt>
      <trkpt lat="42.71819" lon="0.65828">
        <ele>1452.3</ele>
        <time>2018-08-08T10:55:18.000Z</time>
      </trkpt>
      <trkpt lat="42.7182" lon="0.65828">
        <ele>1452</ele>
        <time>2018-08-08T10:55:19.000Z</time>
      </trkpt>
      <trkpt lat="42.71821" lon="0.65828">
        <ele>1451.6</ele>
        <time>2018-08-08T10:55:20.000Z</time>
      </trkpt>
      <trkpt lat="42.71822" lon="0.65828">
        <ele>1451.3</ele>
        <time>2018-08-08T10:55:21.000Z</time>
      </trkpt>
      <trkpt lat="42.71823" lon="0.65828">
        <ele>1451</ele>
        <time>2018-08-08T10:55:22.000Z</time>
      </trkpt>
      <trkpt lat="42.71823" lon="0.65828">
        <ele>1450.8</ele>
        <time>2018-08-08T10:55:23.000Z</time>
      </trkpt>
      <trkpt lat="42.71823" lon="0.65828">
        <ele>1450.6</ele>
        <time>2018-08-08T10:55:24.000Z</time>
      </trkpt>
      <trkpt lat="42.71824" lon="0.65828">
        <ele>1450.6</ele>
        <time>2018-08-08T10:55:25.000Z</time>
      </trkpt>
      <trkpt lat="42.71824" lon="0.65828">
        <ele>1450.5</ele>
        <time>2018-08-08T10:55:26.000Z</time>
      </trkpt>
      <trkpt lat="42.71824" lon="0.65828">
        <ele>1450.5</ele>
        <time>2018-08-08T10:55:27.000Z</time>
      </trkpt>
      <trkpt lat="42.71824" lon="0.65828">
        <ele>1450.5</ele>
        <time>2018-08-08T10:55:28.000Z</time>
      </trkpt>
      <trkpt lat="42.71824" lon="0.65829">
        <ele>1450.6</ele>
        <time>2018-08-08T10:55:29.000Z</time>
      </trkpt>
      <trkpt lat="42.71824" lon="0.65829">
        <ele>1450.6</ele>
        <time>2018-08-08T10:55:30.000Z</time>
      </trkpt>
      <trkpt lat="42.71824" lon="0.65829">
        <ele>1450.6</ele>
        <time>2018-08-08T10:55:31.000Z</time>
      </trkpt>
      <trkpt lat="42.71824" lon="0.65829">
        <ele>1450.6</ele>
        <time>2018-08-08T10:55:32.000Z</time>
      </trkpt>
      <trkpt lat="42.71824" lon="0.65829">
        <ele>1450.6</ele>
        <time>2018-08-08T10:55:33.000Z</time>
      </trkpt>
      <trkpt lat="42.71824" lon="0.65829">
        <ele>1450.6</ele>
        <time>2018-08-08T10:55:34.000Z</time>
      </trkpt>
      <trkpt lat="42.71824" lon="0.65829">
        <ele>1450.6</ele>
        <time>2018-08-08T10:55:35.000Z</time>
      </trkpt>
      <trkpt lat="42.71824" lon="0.65829">
        <ele>1450.6</ele>
        <time>2018-08-08T10:55:36.000Z</time>
      </trkpt>
      <trkpt lat="42.71824" lon="0.65829">
        <ele>1450.6</ele>
        <time>2018-08-08T10:55:37.000Z</time>
      </trkpt>
      <trkpt lat="42.71824" lon="0.65829">
        <ele>1450.6</ele>
        <time>2018-08-08T10:55:38.000Z</time>
      </trkpt>
      <trkpt lat="42.71824" lon="0.65829">
        <ele>1450.6</ele>
        <time>2018-08-08T10:55:39.000Z</time>
      </trkpt>
      <trkpt lat="42.71824" lon="0.65829">
        <ele>1450.6</ele>
        <time>2018-08-08T10:55:40.000Z</time>
      </trkpt>
      <trkpt lat="42.71824" lon="0.65829">
        <ele>1450.6</ele>
        <time>2018-08-08T10:55:41.000Z</time>
      </trkpt>
      <trkpt lat="42.71823" lon="0.65829">
        <ele>1450.6</ele>
        <time>2018-08-08T10:55:42.000Z</time>
      </trkpt>
      <trkpt lat="42.71823" lon="0.65829">
        <ele>1450.6</ele>
        <time>2018-08-08T10:55:43.000Z</time>
      </trkpt>
      <trkpt lat="42.71823" lon="0.65829">
        <ele>1450.7</ele>
        <time>2018-08-08T10:55:44.000Z</time>
      </trkpt>
      <trkpt lat="42.71823" lon="0.65829">
        <ele>1450.7</ele>
        <time>2018-08-08T10:55:45.000Z</time>
      </trkpt>
      <trkpt lat="42.71823" lon="0.65829">
        <ele>1450.7</ele>
        <time>2018-08-08T10:55:46.000Z</time>
      </trkpt>
      <trkpt lat="42.71823" lon="0.65829">
        <ele>1450.8</ele>
        <time>2018-08-08T10:55:47.000Z</time>
      </trkpt>
      <trkpt lat="42.71823" lon="0.65829">
        <ele>1450.8</ele>
        <time>2018-08-08T10:55:48.000Z</time>
      </trkpt>
      <trkpt lat="42.71823" lon="0.65829">
        <ele>1450.8</ele>
        <time>2018-08-08T10:55:49.000Z</time>
      </trkpt>
      <trkpt lat="42.71823" lon="0.65829">
        <ele>1450.8</ele>
        <time>2018-08-08T10:55:50.000Z</time>
      </trkpt>
      <trkpt lat="42.71823" lon="0.65829">
        <ele>1450.8</ele>
        <time>2018-08-08T10:55:51.000Z</time>
      </trkpt>
      <trkpt lat="42.71823" lon="0.65829">
        <ele>1450.8</ele>
        <time>2018-08-08T10:55:52.000Z</time>
      </trkpt>
      <trkpt lat="42.71823" lon="0.65829">
        <ele>1450.8</ele>
        <time>2018-08-08T10:55:53.000Z</time>
      </trkpt>
      <trkpt lat="42.71823" lon="0.65829">
        <ele>1450.8</ele>
        <time>2018-08-08T10:55:54.000Z</time>
      </trkpt>
      <trkpt lat="42.71823" lon="0.65829">
        <ele>1450.8</ele>
        <time>2018-08-08T10:55:55.000Z</time>
      </trkpt>
      <trkpt lat="42.71823" lon="0.65829">
        <ele>1450.8</ele>
        <time>2018-08-08T10:55:56.000Z</time>
      </trkpt>
      <trkpt lat="42.71823" lon="0.65829">
        <ele>1450.9</ele>
        <time>2018-08-08T10:55:57.000Z</time>
      </trkpt>
      <trkpt lat="42.71823" lon="0.65828">
        <ele>1450.9</ele>
        <time>2018-08-08T10:55:58.000Z</time>
      </trkpt>
      <trkpt lat="42.71823" lon="0.65828">
        <ele>1450.9</ele>
        <time>2018-08-08T10:55:59.000Z</time>
      </trkpt>
      <trkpt lat="42.71823" lon="0.65828">
        <ele>1451.1</ele>
        <time>2018-08-08T10:56:00.000Z</time>
      </trkpt>
      <trkpt lat="42.71822" lon="0.65828">
        <ele>1451.1</ele>
        <time>2018-08-08T10:56:01.000Z</time>
      </trkpt>
      <trkpt lat="42.71822" lon="0.65827">
        <ele>1451.3</ele>
        <time>2018-08-08T10:56:02.000Z</time>
      </trkpt>
      <trkpt lat="42.71822" lon="0.65827">
        <ele>1451.4</ele>
        <time>2018-08-08T10:56:03.000Z</time>
      </trkpt>
      <trkpt lat="42.71822" lon="0.65826">
        <ele>1451.6</ele>
        <time>2018-08-08T10:56:04.000Z</time>
      </trkpt>
      <trkpt lat="42.71822" lon="0.65826">
        <ele>1451.7</ele>
        <time>2018-08-08T10:56:05.000Z</time>
      </trkpt>
      <trkpt lat="42.71821" lon="0.65826">
        <ele>1451.8</ele>
        <time>2018-08-08T10:56:06.000Z</time>
      </trkpt>
      <trkpt lat="42.71821" lon="0.65825">
        <ele>1451.8</ele>
        <time>2018-08-08T10:56:07.000Z</time>
      </trkpt>
      <trkpt lat="42.71821" lon="0.65825">
        <ele>1451.9</ele>
        <time>2018-08-08T10:56:08.000Z</time>
      </trkpt>
      <trkpt lat="42.71821" lon="0.65825">
        <ele>1451.9</ele>
        <time>2018-08-08T10:56:09.000Z</time>
      </trkpt>
      <trkpt lat="42.71821" lon="0.65825">
        <ele>1451.9</ele>
        <time>2018-08-08T10:56:10.000Z</time>
      </trkpt>
      <trkpt lat="42.71821" lon="0.65825">
        <ele>1451.9</ele>
        <time>2018-08-08T10:56:11.000Z</time>
      </trkpt>
      <trkpt lat="42.71821" lon="0.65825">
        <ele>1451.9</ele>
        <time>2018-08-08T10:56:12.000Z</time>
      </trkpt>
      <trkpt lat="42.71821" lon="0.65825">
        <ele>1452</ele>
        <time>2018-08-08T10:56:13.000Z</time>
      </trkpt>
      <trkpt lat="42.71821" lon="0.65825">
        <ele>1452</ele>
        <time>2018-08-08T10:56:14.000Z</time>
      </trkpt>
      <trkpt lat="42.71821" lon="0.65825">
        <ele>1452</ele>
        <time>2018-08-08T10:56:15.000Z</time>
      </trkpt>
      <trkpt lat="42.71821" lon="0.65825">
        <ele>1452</ele>
        <time>2018-08-08T10:56:16.000Z</time>
      </trkpt>
      <trkpt lat="42.71821" lon="0.65825">
        <ele>1452</ele>
        <time>2018-08-08T10:56:17.000Z</time>
      </trkpt>
      <trkpt lat="42.71821" lon="0.65825">
        <ele>1452</ele>
        <time>2018-08-08T10:56:18.000Z</time>
      </trkpt>
      <trkpt lat="42.71821" lon="0.65825">
        <ele>1452</ele>
        <time>2018-08-08T10:56:19.000Z</time>
      </trkpt>
      <trkpt lat="42.71821" lon="0.65825">
        <ele>1452</ele>
        <time>2018-08-08T10:56:20.000Z</time>
      </trkpt>
      <trkpt lat="42.71821" lon="0.65825">
        <ele>1452</ele>
        <time>2018-08-08T10:56:21.000Z</time>
      </trkpt>
      <trkpt lat="42.71821" lon="0.65825">
        <ele>1452</ele>
        <time>2018-08-08T10:56:22.000Z</time>
      </trkpt>
      <trkpt lat="42.71821" lon="0.65825">
        <ele>1452</ele>
        <time>2018-08-08T10:56:23.000Z</time>
      </trkpt>
      <trkpt lat="42.71821" lon="0.65825">
        <ele>1452.1</ele>
        <time>2018-08-08T10:56:24.000Z</time>
      </trkpt>
      <trkpt lat="42.71821" lon="0.65825">
        <ele>1452.1</ele>
        <time>2018-08-08T10:56:25.000Z</time>
      </trkpt>
      <trkpt lat="42.71821" lon="0.65825">
        <ele>1452.1</ele>
        <time>2018-08-08T10:56:26.000Z</time>
      </trkpt>
      <trkpt lat="42.71821" lon="0.65825">
        <ele>1452.1</ele>
        <time>2018-08-08T10:56:27.000Z</time>
      </trkpt>
      <trkpt lat="42.71821" lon="0.65825">
        <ele>1452</ele>
        <time>2018-08-08T10:56:28.000Z</time>
      </trkpt>
      <trkpt lat="42.71821" lon="0.65825">
        <ele>1452.1</ele>
        <time>2018-08-08T10:56:29.000Z</time>
      </trkpt>
      <trkpt lat="42.71821" lon="0.65824">
        <ele>1452</ele>
        <time>2018-08-08T10:56:30.000Z</time>
      </trkpt>
      <trkpt lat="42.71821" lon="0.65824">
        <ele>1452</ele>
        <time>2018-08-08T10:56:31.000Z</time>
      </trkpt>
      <trkpt lat="42.71821" lon="0.65824">
        <ele>1452</ele>
        <time>2018-08-08T10:56:32.000Z</time>
      </trkpt>
      <trkpt lat="42.71821" lon="0.65824">
        <ele>1452</ele>
        <time>2018-08-08T10:56:33.000Z</time>
      </trkpt>
      <trkpt lat="42.71821" lon="0.65824">
        <ele>1452</ele>
        <time>2018-08-08T10:56:34.000Z</time>
      </trkpt>
      <trkpt lat="42.71821" lon="0.65824">
        <ele>1451.9</ele>
        <time>2018-08-08T10:56:35.000Z</time>
      </trkpt>
      <trkpt lat="42.71821" lon="0.65824">
        <ele>1451.9</ele>
        <time>2018-08-08T10:56:36.000Z</time>
      </trkpt>
      <trkpt lat="42.71821" lon="0.65824">
        <ele>1451.9</ele>
        <time>2018-08-08T10:56:37.000Z</time>
      </trkpt>
      <trkpt lat="42.71821" lon="0.65824">
        <ele>1451.9</ele>
        <time>2018-08-08T10:56:38.000Z</time>
      </trkpt>
      <trkpt lat="42.71822" lon="0.65824">
        <ele>1451.9</ele>
        <time>2018-08-08T10:56:39.000Z</time>
      </trkpt>
      <trkpt lat="42.71822" lon="0.65824">
        <ele>1451.9</ele>
        <time>2018-08-08T10:56:40.000Z</time>
      </trkpt>
      <trkpt lat="42.71822" lon="0.65824">
        <ele>1451.9</ele>
        <time>2018-08-08T10:56:41.000Z</time>
      </trkpt>
      <trkpt lat="42.71822" lon="0.65824">
        <ele>1451.9</ele>
        <time>2018-08-08T10:56:42.000Z</time>
      </trkpt>
      <trkpt lat="42.71822" lon="0.65824">
        <ele>1451.9</ele>
        <time>2018-08-08T10:56:43.000Z</time>
      </trkpt>
      <trkpt lat="42.71822" lon="0.65824">
        <ele>1451.9</ele>
        <time>2018-08-08T10:56:44.000Z</time>
      </trkpt>
      <trkpt lat="42.71822" lon="0.65824">
        <ele>1451.9</ele>
        <time>2018-08-08T10:56:45.000Z</time>
      </trkpt>
      <trkpt lat="42.71822" lon="0.65824">
        <ele>1451.9</ele>
        <time>2018-08-08T10:56:46.000Z</time>
      </trkpt>
      <trkpt lat="42.71822" lon="0.65824">
        <ele>1451.9</ele>
        <time>2018-08-08T10:56:47.000Z</time>
      </trkpt>
      <trkpt lat="42.71822" lon="0.65824">
        <ele>1451.9</ele>
        <time>2018-08-08T10:56:48.000Z</time>
      </trkpt>
      <trkpt lat="42.71822" lon="0.65824">
        <ele>1451.9</ele>
        <time>2018-08-08T10:56:49.000Z</time>
      </trkpt>
      <trkpt lat="42.71822" lon="0.65824">
        <ele>1451.9</ele>
        <time>2018-08-08T10:56:50.000Z</time>
      </trkpt>
      <trkpt lat="42.71822" lon="0.65824">
        <ele>1451.9</ele>
        <time>2018-08-08T10:56:51.000Z</time>
      </trkpt>
      <trkpt lat="42.71822" lon="0.65824">
        <ele>1451.9</ele>
        <time>2018-08-08T10:56:52.000Z</time>
      </trkpt>
      <trkpt lat="42.71821" lon="0.65824">
        <ele>1451.9</ele>
        <time>2018-08-08T10:56:53.000Z</time>
      </trkpt>
      <trkpt lat="42.71821" lon="0.65824">
        <ele>1452</ele>
        <time>2018-08-08T10:56:54.000Z</time>
      </trkpt>
      <trkpt lat="42.71821" lon="0.65824">
        <ele>1452</ele>
        <time>2018-08-08T10:56:55.000Z</time>
      </trkpt>
      <trkpt lat="42.71821" lon="0.65824">
        <ele>1452</ele>
        <time>2018-08-08T10:56:56.000Z</time>
      </trkpt>
      <trkpt lat="42.71821" lon="0.65824">
        <ele>1452.1</ele>
        <time>2018-08-08T10:56:57.000Z</time>
      </trkpt>
      <trkpt lat="42.71821" lon="0.65825">
        <ele>1452.1</ele>
        <time>2018-08-08T10:56:58.000Z</time>
      </trkpt>
      <trkpt lat="42.71821" lon="0.65825">
        <ele>1452.1</ele>
        <time>2018-08-08T10:56:59.000Z</time>
      </trkpt>
      <trkpt lat="42.71821" lon="0.65825">
        <ele>1452.1</ele>
        <time>2018-08-08T10:57:00.000Z</time>
      </trkpt>
      <trkpt lat="42.71821" lon="0.65825">
        <ele>1452.1</ele>
        <time>2018-08-08T10:57:01.000Z</time>
      </trkpt>
      <trkpt lat="42.71821" lon="0.65825">
        <ele>1452.2</ele>
        <time>2018-08-08T10:57:02.000Z</time>
      </trkpt>
      <trkpt lat="42.71821" lon="0.65825">
        <ele>1452.2</ele>
        <time>2018-08-08T10:57:03.000Z</time>
      </trkpt>
      <trkpt lat="42.71821" lon="0.65825">
        <ele>1452.1</ele>
        <time>2018-08-08T10:57:04.000Z</time>
      </trkpt>
      <trkpt lat="42.7182" lon="0.65825">
        <ele>1452.2</ele>
        <time>2018-08-08T10:57:05.000Z</time>
      </trkpt>
      <trkpt lat="42.7182" lon="0.65826">
        <ele>1452.2</ele>
        <time>2018-08-08T10:57:06.000Z</time>
      </trkpt>
      <trkpt lat="42.7182" lon="0.65826">
        <ele>1452.2</ele>
        <time>2018-08-08T10:57:07.000Z</time>
      </trkpt>
      <trkpt lat="42.7182" lon="0.65826">
        <ele>1452.2</ele>
        <time>2018-08-08T10:57:08.000Z</time>
      </trkpt>
      <trkpt lat="42.7182" lon="0.65826">
        <ele>1452.2</ele>
        <time>2018-08-08T10:57:09.000Z</time>
      </trkpt>
      <trkpt lat="42.7182" lon="0.65826">
        <ele>1452.2</ele>
        <time>2018-08-08T10:57:10.000Z</time>
      </trkpt>
      <trkpt lat="42.7182" lon="0.65826">
        <ele>1452.2</ele>
        <time>2018-08-08T10:57:11.000Z</time>
      </trkpt>
      <trkpt lat="42.7182" lon="0.65826">
        <ele>1452.2</ele>
        <time>2018-08-08T10:57:12.000Z</time>
      </trkpt>
      <trkpt lat="42.7182" lon="0.65826">
        <ele>1452.2</ele>
        <time>2018-08-08T10:57:13.000Z</time>
      </trkpt>
      <trkpt lat="42.7182" lon="0.65826">
        <ele>1452.2</ele>
        <time>2018-08-08T10:57:14.000Z</time>
      </trkpt>
      <trkpt lat="42.7182" lon="0.65826">
        <ele>1452.2</ele>
        <time>2018-08-08T10:57:15.000Z</time>
      </trkpt>
      <trkpt lat="42.7182" lon="0.65826">
        <ele>1452.2</ele>
        <time>2018-08-08T10:57:16.000Z</time>
      </trkpt>
      <trkpt lat="42.7182" lon="0.65826">
        <ele>1452.2</ele>
        <time>2018-08-08T10:57:17.000Z</time>
      </trkpt>
      <trkpt lat="42.7182" lon="0.65826">
        <ele>1452.2</ele>
        <time>2018-08-08T10:57:18.000Z</time>
      </trkpt>
      <trkpt lat="42.7182" lon="0.65826">
        <ele>1452.2</ele>
        <time>2018-08-08T10:57:19.000Z</time>
      </trkpt>
      <trkpt lat="42.7182" lon="0.65826">
        <ele>1452.2</ele>
        <time>2018-08-08T10:57:20.000Z</time>
      </trkpt>
      <trkpt lat="42.7182" lon="0.65826">
        <ele>1452.2</ele>
        <time>2018-08-08T10:57:21.000Z</time>
      </trkpt>
      <trkpt lat="42.7182" lon="0.65826">
        <ele>1452.2</ele>
        <time>2018-08-08T10:57:22.000Z</time>
      </trkpt>
      <trkpt lat="42.7182" lon="0.65826">
        <ele>1452.2</ele>
        <time>2018-08-08T10:57:23.000Z</time>
      </trkpt>
      <trkpt lat="42.7182" lon="0.65826">
        <ele>1452.2</ele>
        <time>2018-08-08T10:57:24.000Z</time>
      </trkpt>
      <trkpt lat="42.7182" lon="0.65826">
        <ele>1452.2</ele>
        <time>2018-08-08T10:57:25.000Z</time>
      </trkpt>
      <trkpt lat="42.7182" lon="0.65826">
        <ele>1452.2</ele>
        <time>2018-08-08T10:57:26.000Z</time>
      </trkpt>
      <trkpt lat="42.7182" lon="0.65826">
        <ele>1452.2</ele>
        <time>2018-08-08T10:57:27.000Z</time>
      </trkpt>
      <trkpt lat="42.7182" lon="0.65826">
        <ele>1452.2</ele>
        <time>2018-08-08T10:57:28.000Z</time>
      </trkpt>
      <trkpt lat="42.7182" lon="0.65826">
        <ele>1452.2</ele>
        <time>2018-08-08T10:57:29.000Z</time>
      </trkpt>
      <trkpt lat="42.7182" lon="0.65826">
        <ele>1452.3</ele>
        <time>2018-08-08T10:57:30.000Z</time>
      </trkpt>
      <trkpt lat="42.7182" lon="0.65826">
        <ele>1452.3</ele>
        <time>2018-08-08T10:57:31.000Z</time>
      </trkpt>
      <trkpt lat="42.7182" lon="0.65826">
        <ele>1452.3</ele>
        <time>2018-08-08T10:57:32.000Z</time>
      </trkpt>
      <trkpt lat="42.7182" lon="0.65826">
        <ele>1452.3</ele>
        <time>2018-08-08T10:57:33.000Z</time>
      </trkpt>
      <trkpt lat="42.7182" lon="0.65826">
        <ele>1452.3</ele>
        <time>2018-08-08T10:57:34.000Z</time>
      </trkpt>
      <trkpt lat="42.7182" lon="0.65826">
        <ele>1452.3</ele>
        <time>2018-08-08T10:57:35.000Z</time>
      </trkpt>
      <trkpt lat="42.7182" lon="0.65827">
        <ele>1452.4</ele>
        <time>2018-08-08T10:57:36.000Z</time>
      </trkpt>
      <trkpt lat="42.7182" lon="0.65827">
        <ele>1452.4</ele>
        <time>2018-08-08T10:57:37.000Z</time>
      </trkpt>
      <trkpt lat="42.7182" lon="0.65827">
        <ele>1452.4</ele>
        <time>2018-08-08T10:57:38.000Z</time>
      </trkpt>
      <trkpt lat="42.71819" lon="0.65827">
        <ele>1452.5</ele>
        <time>2018-08-08T10:57:39.000Z</time>
      </trkpt>
      <trkpt lat="42.71819" lon="0.65827">
        <ele>1452.5</ele>
        <time>2018-08-08T10:57:40.000Z</time>
      </trkpt>
      <trkpt lat="42.71819" lon="0.65827">
        <ele>1452.5</ele>
        <time>2018-08-08T10:57:41.000Z</time>
      </trkpt>
      <trkpt lat="42.71819" lon="0.65828">
        <ele>1452.5</ele>
        <time>2018-08-08T10:57:42.000Z</time>
      </trkpt>
      <trkpt lat="42.71819" lon="0.65828">
        <ele>1452.6</ele>
        <time>2018-08-08T10:57:43.000Z</time>
      </trkpt>
      <trkpt lat="42.71819" lon="0.65828">
        <ele>1452.6</ele>
        <time>2018-08-08T10:57:44.000Z</time>
      </trkpt>
      <trkpt lat="42.71819" lon="0.65828">
        <ele>1452.6</ele>
        <time>2018-08-08T10:57:45.000Z</time>
      </trkpt>
      <trkpt lat="42.71819" lon="0.65828">
        <ele>1452.6</ele>
        <time>2018-08-08T10:57:46.000Z</time>
      </trkpt>
      <trkpt lat="42.71819" lon="0.65829">
        <ele>1452.7</ele>
        <time>2018-08-08T10:57:47.000Z</time>
      </trkpt>
      <trkpt lat="42.71819" lon="0.65829">
        <ele>1452.7</ele>
        <time>2018-08-08T10:57:48.000Z</time>
      </trkpt>
      <trkpt lat="42.71818" lon="0.65829">
        <ele>1452.7</ele>
        <time>2018-08-08T10:57:49.000Z</time>
      </trkpt>
      <trkpt lat="42.71818" lon="0.65829">
        <ele>1452.7</ele>
        <time>2018-08-08T10:57:50.000Z</time>
      </trkpt>
      <trkpt lat="42.71818" lon="0.65829">
        <ele>1452.7</ele>
        <time>2018-08-08T10:57:51.000Z</time>
      </trkpt>
      <trkpt lat="42.71818" lon="0.6583">
        <ele>1452.8</ele>
        <time>2018-08-08T10:57:52.000Z</time>
      </trkpt>
      <trkpt lat="42.71818" lon="0.6583">
        <ele>1452.8</ele>
        <time>2018-08-08T10:57:53.000Z</time>
      </trkpt>
      <trkpt lat="42.71818" lon="0.6583">
        <ele>1452.8</ele>
        <time>2018-08-08T10:57:54.000Z</time>
      </trkpt>
      <trkpt lat="42.71818" lon="0.65831">
        <ele>1452.9</ele>
        <time>2018-08-08T10:57:55.000Z</time>
      </trkpt>
      <trkpt lat="42.71817" lon="0.65831">
        <ele>1452.9</ele>
        <time>2018-08-08T10:57:56.000Z</time>
      </trkpt>
      <trkpt lat="42.71817" lon="0.65831">
        <ele>1452.9</ele>
        <time>2018-08-08T10:57:57.000Z</time>
      </trkpt>
      <trkpt lat="42.71817" lon="0.65832">
        <ele>1453</ele>
        <time>2018-08-08T10:57:58.000Z</time>
      </trkpt>
      <trkpt lat="42.71817" lon="0.65832">
        <ele>1453</ele>
        <time>2018-08-08T10:57:59.000Z</time>
      </trkpt>
      <trkpt lat="42.71817" lon="0.65832">
        <ele>1453.1</ele>
        <time>2018-08-08T10:58:00.000Z</time>
      </trkpt>
      <trkpt lat="42.71817" lon="0.65832">
        <ele>1453.1</ele>
        <time>2018-08-08T10:58:01.000Z</time>
      </trkpt>
      <trkpt lat="42.71817" lon="0.65832">
        <ele>1453.1</ele>
        <time>2018-08-08T10:58:02.000Z</time>
      </trkpt>
      <trkpt lat="42.71817" lon="0.65833">
        <ele>1453.1</ele>
        <time>2018-08-08T10:58:03.000Z</time>
      </trkpt>
      <trkpt lat="42.71817" lon="0.65833">
        <ele>1453.1</ele>
        <time>2018-08-08T10:58:04.000Z</time>
      </trkpt>
      <trkpt lat="42.71817" lon="0.65833">
        <ele>1453.1</ele>
        <time>2018-08-08T10:58:05.000Z</time>
      </trkpt>
      <trkpt lat="42.71817" lon="0.65833">
        <ele>1453.1</ele>
        <time>2018-08-08T10:58:06.000Z</time>
      </trkpt>
      <trkpt lat="42.71817" lon="0.65833">
        <ele>1453.2</ele>
        <time>2018-08-08T10:58:07.000Z</time>
      </trkpt>
      <trkpt lat="42.71817" lon="0.65833">
        <ele>1453.1</ele>
        <time>2018-08-08T10:58:08.000Z</time>
      </trkpt>
      <trkpt lat="42.71816" lon="0.65833">
        <ele>1453.2</ele>
        <time>2018-08-08T10:58:09.000Z</time>
      </trkpt>
      <trkpt lat="42.71816" lon="0.65833">
        <ele>1453.2</ele>
        <time>2018-08-08T10:58:10.000Z</time>
      </trkpt>
      <trkpt lat="42.71816" lon="0.65833">
        <ele>1453.3</ele>
        <time>2018-08-08T10:58:11.000Z</time>
      </trkpt>
      <trkpt lat="42.71816" lon="0.65833">
        <ele>1453.3</ele>
        <time>2018-08-08T10:58:12.000Z</time>
      </trkpt>
      <trkpt lat="42.71816" lon="0.65834">
        <ele>1453.4</ele>
        <time>2018-08-08T10:58:13.000Z</time>
      </trkpt>
      <trkpt lat="42.71816" lon="0.65834">
        <ele>1453.5</ele>
        <time>2018-08-08T10:58:14.000Z</time>
      </trkpt>
      <trkpt lat="42.71816" lon="0.65834">
        <ele>1453.6</ele>
        <time>2018-08-08T10:58:15.000Z</time>
      </trkpt>
      <trkpt lat="42.71815" lon="0.65834">
        <ele>1453.6</ele>
        <time>2018-08-08T10:58:16.000Z</time>
      </trkpt>
      <trkpt lat="42.71815" lon="0.65834">
        <ele>1453.7</ele>
        <time>2018-08-08T10:58:17.000Z</time>
      </trkpt>
      <trkpt lat="42.71815" lon="0.65834">
        <ele>1453.7</ele>
        <time>2018-08-08T10:58:18.000Z</time>
      </trkpt>
      <trkpt lat="42.71815" lon="0.65834">
        <ele>1453.7</ele>
        <time>2018-08-08T10:58:19.000Z</time>
      </trkpt>
      <trkpt lat="42.71815" lon="0.65834">
        <ele>1453.7</ele>
        <time>2018-08-08T10:58:20.000Z</time>
      </trkpt>
      <trkpt lat="42.71815" lon="0.65834">
        <ele>1453.7</ele>
        <time>2018-08-08T10:58:21.000Z</time>
      </trkpt>
      <trkpt lat="42.71815" lon="0.65834">
        <ele>1453.7</ele>
        <time>2018-08-08T10:58:22.000Z</time>
      </trkpt>
      <trkpt lat="42.71815" lon="0.65834">
        <ele>1453.7</ele>
        <time>2018-08-08T10:58:23.000Z</time>
      </trkpt>
      <trkpt lat="42.71815" lon="0.65834">
        <ele>1453.7</ele>
        <time>2018-08-08T10:58:24.000Z</time>
      </trkpt>
      <trkpt lat="42.71815" lon="0.65834">
        <ele>1453.7</ele>
        <time>2018-08-08T10:58:25.000Z</time>
      </trkpt>
      <trkpt lat="42.71815" lon="0.65834">
        <ele>1453.7</ele>
        <time>2018-08-08T10:58:26.000Z</time>
      </trkpt>
      <trkpt lat="42.71815" lon="0.65834">
        <ele>1453.7</ele>
        <time>2018-08-08T10:58:27.000Z</time>
      </trkpt>
      <trkpt lat="42.71815" lon="0.65834">
        <ele>1453.7</ele>
        <time>2018-08-08T10:58:28.000Z</time>
      </trkpt>
      <trkpt lat="42.71815" lon="0.65835">
        <ele>1453.7</ele>
        <time>2018-08-08T10:58:29.000Z</time>
      </trkpt>
      <trkpt lat="42.71815" lon="0.65835">
        <ele>1453.7</ele>
        <time>2018-08-08T10:58:30.000Z</time>
      </trkpt>
      <trkpt lat="42.71815" lon="0.65835">
        <ele>1453.7</ele>
        <time>2018-08-08T10:58:31.000Z</time>
      </trkpt>
      <trkpt lat="42.71815" lon="0.65835">
        <ele>1453.7</ele>
        <time>2018-08-08T10:58:32.000Z</time>
      </trkpt>
      <trkpt lat="42.71815" lon="0.65835">
        <ele>1453.7</ele>
        <time>2018-08-08T10:58:33.000Z</time>
      </trkpt>
      <trkpt lat="42.71815" lon="0.65835">
        <ele>1453.7</ele>
        <time>2018-08-08T10:58:34.000Z</time>
      </trkpt>
      <trkpt lat="42.71815" lon="0.65835">
        <ele>1453.7</ele>
        <time>2018-08-08T10:58:35.000Z</time>
      </trkpt>
      <trkpt lat="42.71815" lon="0.65835">
        <ele>1453.7</ele>
        <time>2018-08-08T10:58:36.000Z</time>
      </trkpt>
      <trkpt lat="42.71815" lon="0.65835">
        <ele>1453.7</ele>
        <time>2018-08-08T10:58:37.000Z</time>
      </trkpt>
      <trkpt lat="42.71815" lon="0.65836">
        <ele>1453.8</ele>
        <time>2018-08-08T10:58:38.000Z</time>
      </trkpt>
      <trkpt lat="42.71816" lon="0.65836">
        <ele>1453.7</ele>
        <time>2018-08-08T10:58:39.000Z</time>
      </trkpt>
      <trkpt lat="42.71816" lon="0.65836">
        <ele>1453.7</ele>
        <time>2018-08-08T10:58:40.000Z</time>
      </trkpt>
      <trkpt lat="42.71816" lon="0.65836">
        <ele>1453.7</ele>
        <time>2018-08-08T10:58:41.000Z</time>
      </trkpt>
      <trkpt lat="42.71816" lon="0.65836">
        <ele>1453.7</ele>
        <time>2018-08-08T10:58:42.000Z</time>
      </trkpt>
      <trkpt lat="42.71816" lon="0.65836">
        <ele>1453.7</ele>
        <time>2018-08-08T10:58:43.000Z</time>
      </trkpt>
      <trkpt lat="42.71816" lon="0.65836">
        <ele>1453.7</ele>
        <time>2018-08-08T10:58:44.000Z</time>
      </trkpt>
      <trkpt lat="42.71816" lon="0.65836">
        <ele>1453.7</ele>
        <time>2018-08-08T10:58:45.000Z</time>
      </trkpt>
      <trkpt lat="42.71816" lon="0.65837">
        <ele>1453.7</ele>
        <time>2018-08-08T10:58:46.000Z</time>
      </trkpt>
      <trkpt lat="42.71816" lon="0.65837">
        <ele>1453.7</ele>
        <time>2018-08-08T10:58:47.000Z</time>
      </trkpt>
      <trkpt lat="42.71816" lon="0.65837">
        <ele>1453.7</ele>
        <time>2018-08-08T10:58:48.000Z</time>
      </trkpt>
      <trkpt lat="42.71816" lon="0.65837">
        <ele>1453.8</ele>
        <time>2018-08-08T10:58:49.000Z</time>
      </trkpt>
      <trkpt lat="42.71816" lon="0.65837">
        <ele>1453.8</ele>
        <time>2018-08-08T10:58:50.000Z</time>
      </trkpt>
      <trkpt lat="42.71816" lon="0.65837">
        <ele>1453.8</ele>
        <time>2018-08-08T10:58:51.000Z</time>
      </trkpt>
      <trkpt lat="42.71816" lon="0.65837">
        <ele>1453.8</ele>
        <time>2018-08-08T10:58:52.000Z</time>
      </trkpt>
      <trkpt lat="42.71816" lon="0.65837">
        <ele>1453.8</ele>
        <time>2018-08-08T10:58:53.000Z</time>
      </trkpt>
      <trkpt lat="42.71816" lon="0.65837">
        <ele>1453.8</ele>
        <time>2018-08-08T10:58:54.000Z</time>
      </trkpt>
      <trkpt lat="42.71816" lon="0.65837">
        <ele>1453.8</ele>
        <time>2018-08-08T10:58:55.000Z</time>
      </trkpt>
      <trkpt lat="42.71816" lon="0.65837">
        <ele>1453.8</ele>
        <time>2018-08-08T10:58:56.000Z</time>
      </trkpt>
      <trkpt lat="42.71816" lon="0.65837">
        <ele>1453.8</ele>
        <time>2018-08-08T10:58:57.000Z</time>
      </trkpt>
      <trkpt lat="42.71816" lon="0.65837">
        <ele>1453.8</ele>
        <time>2018-08-08T10:58:58.000Z</time>
      </trkpt>
      <trkpt lat="42.71816" lon="0.65837">
        <ele>1453.8</ele>
        <time>2018-08-08T10:58:59.000Z</time>
      </trkpt>
      <trkpt lat="42.71816" lon="0.65837">
        <ele>1453.7</ele>
        <time>2018-08-08T10:59:00.000Z</time>
      </trkpt>
      <trkpt lat="42.71816" lon="0.65837">
        <ele>1453.5</ele>
        <time>2018-08-08T10:59:01.000Z</time>
      </trkpt>
      <trkpt lat="42.71817" lon="0.65837">
        <ele>1453.2</ele>
        <time>2018-08-08T10:59:02.000Z</time>
      </trkpt>
      <trkpt lat="42.71818" lon="0.65837">
        <ele>1452.8</ele>
        <time>2018-08-08T10:59:03.000Z</time>
      </trkpt>
      <trkpt lat="42.71819" lon="0.65837">
        <ele>1452.3</ele>
        <time>2018-08-08T10:59:04.000Z</time>
      </trkpt>
      <trkpt lat="42.71821" lon="0.65836">
        <ele>1451.8</ele>
        <time>2018-08-08T10:59:05.000Z</time>
      </trkpt>
      <trkpt lat="42.71821" lon="0.65836">
        <ele>1451.4</ele>
        <time>2018-08-08T10:59:06.000Z</time>
      </trkpt>
      <trkpt lat="42.71822" lon="0.65836">
        <ele>1451.1</ele>
        <time>2018-08-08T10:59:07.000Z</time>
      </trkpt>
      <trkpt lat="42.71823" lon="0.65836">
        <ele>1450.9</ele>
        <time>2018-08-08T10:59:08.000Z</time>
      </trkpt>
      <trkpt lat="42.71823" lon="0.65837">
        <ele>1450.8</ele>
        <time>2018-08-08T10:59:09.000Z</time>
      </trkpt>
      <trkpt lat="42.71824" lon="0.65837">
        <ele>1450.6</ele>
        <time>2018-08-08T10:59:10.000Z</time>
      </trkpt>
      <trkpt lat="42.71824" lon="0.65837">
        <ele>1450.3</ele>
        <time>2018-08-08T10:59:11.000Z</time>
      </trkpt>
      <trkpt lat="42.71825" lon="0.65837">
        <ele>1449.9</ele>
        <time>2018-08-08T10:59:12.000Z</time>
      </trkpt>
      <trkpt lat="42.71826" lon="0.65838">
        <ele>1449.6</ele>
        <time>2018-08-08T10:59:13.000Z</time>
      </trkpt>
      <trkpt lat="42.71827" lon="0.65838">
        <ele>1449.4</ele>
        <time>2018-08-08T10:59:14.000Z</time>
      </trkpt>
      <trkpt lat="42.71827" lon="0.65838">
        <ele>1449.4</ele>
        <time>2018-08-08T10:59:15.000Z</time>
      </trkpt>
      <trkpt lat="42.71827" lon="0.65838">
        <ele>1449.3</ele>
        <time>2018-08-08T10:59:16.000Z</time>
      </trkpt>
      <trkpt lat="42.71827" lon="0.65838">
        <ele>1449.3</ele>
        <time>2018-08-08T10:59:17.000Z</time>
      </trkpt>
      <trkpt lat="42.71828" lon="0.65839">
        <ele>1449.1</ele>
        <time>2018-08-08T10:59:18.000Z</time>
      </trkpt>
      <trkpt lat="42.71829" lon="0.6584">
        <ele>1448.9</ele>
        <time>2018-08-08T10:59:19.000Z</time>
      </trkpt>
      <trkpt lat="42.7183" lon="0.65841">
        <ele>1448.7</ele>
        <time>2018-08-08T10:59:20.000Z</time>
      </trkpt>
      <trkpt lat="42.7183" lon="0.65842">
        <ele>1448.6</ele>
        <time>2018-08-08T10:59:21.000Z</time>
      </trkpt>
      <trkpt lat="42.71831" lon="0.65842">
        <ele>1448.5</ele>
        <time>2018-08-08T10:59:22.000Z</time>
      </trkpt>
      <trkpt lat="42.71831" lon="0.65843">
        <ele>1448.5</ele>
        <time>2018-08-08T10:59:23.000Z</time>
      </trkpt>
      <trkpt lat="42.71831" lon="0.65843">
        <ele>1448.5</ele>
        <time>2018-08-08T10:59:24.000Z</time>
      </trkpt>
      <trkpt lat="42.71831" lon="0.65844">
        <ele>1448.6</ele>
        <time>2018-08-08T10:59:25.000Z</time>
      </trkpt>
      <trkpt lat="42.71831" lon="0.65844">
        <ele>1448.6</ele>
        <time>2018-08-08T10:59:26.000Z</time>
      </trkpt>
      <trkpt lat="42.71831" lon="0.65844">
        <ele>1448.6</ele>
        <time>2018-08-08T10:59:27.000Z</time>
      </trkpt>
      <trkpt lat="42.71831" lon="0.65845">
        <ele>1448.7</ele>
        <time>2018-08-08T10:59:28.000Z</time>
      </trkpt>
      <trkpt lat="42.71831" lon="0.65845">
        <ele>1448.7</ele>
        <time>2018-08-08T10:59:29.000Z</time>
      </trkpt>
      <trkpt lat="42.71832" lon="0.65846">
        <ele>1448.7</ele>
        <time>2018-08-08T10:59:30.000Z</time>
      </trkpt>
      <trkpt lat="42.71832" lon="0.65847">
        <ele>1448.6</ele>
        <time>2018-08-08T10:59:31.000Z</time>
      </trkpt>
      <trkpt lat="42.71833" lon="0.65848">
        <ele>1448.6</ele>
        <time>2018-08-08T10:59:32.000Z</time>
      </trkpt>
      <trkpt lat="42.71833" lon="0.65848">
        <ele>1448.6</ele>
        <time>2018-08-08T10:59:33.000Z</time>
      </trkpt>
      <trkpt lat="42.71833" lon="0.65848">
        <ele>1448.5</ele>
        <time>2018-08-08T10:59:34.000Z</time>
      </trkpt>
      <trkpt lat="42.71833" lon="0.65849">
        <ele>1448.6</ele>
        <time>2018-08-08T10:59:35.000Z</time>
      </trkpt>
      <trkpt lat="42.71834" lon="0.65849">
        <ele>1448.6</ele>
        <time>2018-08-08T10:59:36.000Z</time>
      </trkpt>
      <trkpt lat="42.71834" lon="0.65849">
        <ele>1448.6</ele>
        <time>2018-08-08T10:59:37.000Z</time>
      </trkpt>
      <trkpt lat="42.71834" lon="0.65849">
        <ele>1448.6</ele>
        <time>2018-08-08T10:59:38.000Z</time>
      </trkpt>
      <trkpt lat="42.71834" lon="0.65849">
        <ele>1448.7</ele>
        <time>2018-08-08T10:59:39.000Z</time>
      </trkpt>
      <trkpt lat="42.71834" lon="0.65849">
        <ele>1448.7</ele>
        <time>2018-08-08T10:59:40.000Z</time>
      </trkpt>
      <trkpt lat="42.71834" lon="0.6585">
        <ele>1448.8</ele>
        <time>2018-08-08T10:59:41.000Z</time>
      </trkpt>
      <trkpt lat="42.71834" lon="0.6585">
        <ele>1448.8</ele>
        <time>2018-08-08T10:59:42.000Z</time>
      </trkpt>
      <trkpt lat="42.71834" lon="0.6585">
        <ele>1448.9</ele>
        <time>2018-08-08T10:59:43.000Z</time>
      </trkpt>
      <trkpt lat="42.71834" lon="0.65851">
        <ele>1449</ele>
        <time>2018-08-08T10:59:44.000Z</time>
      </trkpt>
      <trkpt lat="42.71834" lon="0.65851">
        <ele>1449</ele>
        <time>2018-08-08T10:59:45.000Z</time>
      </trkpt>
      <trkpt lat="42.71834" lon="0.65852">
        <ele>1449.1</ele>
        <time>2018-08-08T10:59:46.000Z</time>
      </trkpt>
      <trkpt lat="42.71834" lon="0.65852">
        <ele>1449.2</ele>
        <time>2018-08-08T10:59:47.000Z</time>
      </trkpt>
      <trkpt lat="42.71834" lon="0.65853">
        <ele>1449.3</ele>
        <time>2018-08-08T10:59:48.000Z</time>
      </trkpt>
      <trkpt lat="42.71834" lon="0.65853">
        <ele>1449.4</ele>
        <time>2018-08-08T10:59:49.000Z</time>
      </trkpt>
      <trkpt lat="42.71834" lon="0.65853">
        <ele>1449.4</ele>
        <time>2018-08-08T10:59:50.000Z</time>
      </trkpt>
      <trkpt lat="42.71834" lon="0.65854">
        <ele>1449.5</ele>
        <time>2018-08-08T10:59:51.000Z</time>
      </trkpt>
      <trkpt lat="42.71833" lon="0.65856">
        <ele>1449.8</ele>
        <time>2018-08-08T10:59:52.000Z</time>
      </trkpt>
      <trkpt lat="42.71832" lon="0.65858">
        <ele>1450.5</ele>
        <time>2018-08-08T10:59:53.000Z</time>
      </trkpt>
      <trkpt lat="42.71832" lon="0.65859">
        <ele>1450.9</ele>
        <time>2018-08-08T10:59:54.000Z</time>
      </trkpt>
      <trkpt lat="42.71832" lon="0.6586">
        <ele>1451</ele>
        <time>2018-08-08T10:59:55.000Z</time>
      </trkpt>
      <trkpt lat="42.71831" lon="0.6586">
        <ele>1451.1</ele>
        <time>2018-08-08T10:59:56.000Z</time>
      </trkpt>
      <trkpt lat="42.71831" lon="0.6586">
        <ele>1451.2</ele>
        <time>2018-08-08T10:59:57.000Z</time>
      </trkpt>
      <trkpt lat="42.71831" lon="0.6586">
        <ele>1451.2</ele>
        <time>2018-08-08T10:59:58.000Z</time>
      </trkpt>
      <trkpt lat="42.71831" lon="0.65861">
        <ele>1451.2</ele>
        <time>2018-08-08T10:59:59.000Z</time>
      </trkpt>
      <trkpt lat="42.71831" lon="0.65861">
        <ele>1451.3</ele>
        <time>2018-08-08T11:00:00.000Z</time>
      </trkpt>
      <trkpt lat="42.71831" lon="0.65861">
        <ele>1451.3</ele>
        <time>2018-08-08T11:00:01.000Z</time>
      </trkpt>
      <trkpt lat="42.71831" lon="0.65861">
        <ele>1451.3</ele>
        <time>2018-08-08T11:00:02.000Z</time>
      </trkpt>
      <trkpt lat="42.71831" lon="0.65861">
        <ele>1451.3</ele>
        <time>2018-08-08T11:00:03.000Z</time>
      </trkpt>
      <trkpt lat="42.71831" lon="0.65861">
        <ele>1451.3</ele>
        <time>2018-08-08T11:00:04.000Z</time>
      </trkpt>
      <trkpt lat="42.71831" lon="0.65861">
        <ele>1451.4</ele>
        <time>2018-08-08T11:00:05.000Z</time>
      </trkpt>
      <trkpt lat="42.71831" lon="0.65861">
        <ele>1451.4</ele>
        <time>2018-08-08T11:00:06.000Z</time>
      </trkpt>
      <trkpt lat="42.71831" lon="0.65861">
        <ele>1451.4</ele>
        <time>2018-08-08T11:00:07.000Z</time>
      </trkpt>
      <trkpt lat="42.71831" lon="0.65861">
        <ele>1451.4</ele>
        <time>2018-08-08T11:00:08.000Z</time>
      </trkpt>
      <trkpt lat="42.71831" lon="0.65861">
        <ele>1451.4</ele>
        <time>2018-08-08T11:00:09.000Z</time>
      </trkpt>
      <trkpt lat="42.71831" lon="0.65861">
        <ele>1451.5</ele>
        <time>2018-08-08T11:00:10.000Z</time>
      </trkpt>
      <trkpt lat="42.71831" lon="0.65861">
        <ele>1451.5</ele>
        <time>2018-08-08T11:00:11.000Z</time>
      </trkpt>
      <trkpt lat="42.71831" lon="0.65861">
        <ele>1451.5</ele>
        <time>2018-08-08T11:00:12.000Z</time>
      </trkpt>
      <trkpt lat="42.71831" lon="0.65861">
        <ele>1451.5</ele>
        <time>2018-08-08T11:00:13.000Z</time>
      </trkpt>
      <trkpt lat="42.71831" lon="0.65861">
        <ele>1451.5</ele>
        <time>2018-08-08T11:00:14.000Z</time>
      </trkpt>
      <trkpt lat="42.71831" lon="0.65862">
        <ele>1451.5</ele>
        <time>2018-08-08T11:00:15.000Z</time>
      </trkpt>
      <trkpt lat="42.71831" lon="0.65862">
        <ele>1451.5</ele>
        <time>2018-08-08T11:00:16.000Z</time>
      </trkpt>
      <trkpt lat="42.71831" lon="0.65862">
        <ele>1451.5</ele>
        <time>2018-08-08T11:00:17.000Z</time>
      </trkpt>
      <trkpt lat="42.71831" lon="0.65862">
        <ele>1451.5</ele>
        <time>2018-08-08T11:00:18.000Z</time>
      </trkpt>
      <trkpt lat="42.71831" lon="0.65862">
        <ele>1451.5</ele>
        <time>2018-08-08T11:00:19.000Z</time>
      </trkpt>
      <trkpt lat="42.71831" lon="0.65862">
        <ele>1451.5</ele>
        <time>2018-08-08T11:00:20.000Z</time>
      </trkpt>
      <trkpt lat="42.71831" lon="0.65862">
        <ele>1451.5</ele>
        <time>2018-08-08T11:00:21.000Z</time>
      </trkpt>
      <trkpt lat="42.71831" lon="0.65862">
        <ele>1451.5</ele>
        <time>2018-08-08T11:00:22.000Z</time>
      </trkpt>
      <trkpt lat="42.71831" lon="0.65862">
        <ele>1451.5</ele>
        <time>2018-08-08T11:00:23.000Z</time>
      </trkpt>
      <trkpt lat="42.71831" lon="0.65862">
        <ele>1451.5</ele>
        <time>2018-08-08T11:00:24.000Z</time>
      </trkpt>
      <trkpt lat="42.71831" lon="0.65862">
        <ele>1451.5</ele>
        <time>2018-08-08T11:00:25.000Z</time>
      </trkpt>
      <trkpt lat="42.71831" lon="0.65862">
        <ele>1451.5</ele>
        <time>2018-08-08T11:00:26.000Z</time>
      </trkpt>
      <trkpt lat="42.71831" lon="0.65862">
        <ele>1451.5</ele>
        <time>2018-08-08T11:00:27.000Z</time>
      </trkpt>
      <trkpt lat="42.71831" lon="0.65862">
        <ele>1451.5</ele>
        <time>2018-08-08T11:00:28.000Z</time>
      </trkpt>
      <trkpt lat="42.71831" lon="0.65862">
        <ele>1451.5</ele>
        <time>2018-08-08T11:00:29.000Z</time>
      </trkpt>
      <trkpt lat="42.71831" lon="0.65862">
        <ele>1451.5</ele>
        <time>2018-08-08T11:00:30.000Z</time>
      </trkpt>
      <trkpt lat="42.71831" lon="0.65862">
        <ele>1451.5</ele>
        <time>2018-08-08T11:00:31.000Z</time>
      </trkpt>
      <trkpt lat="42.71831" lon="0.65862">
        <ele>1451.5</ele>
        <time>2018-08-08T11:00:32.000Z</time>
      </trkpt>
      <trkpt lat="42.71831" lon="0.65862">
        <ele>1451.5</ele>
        <time>2018-08-08T11:00:33.000Z</time>
      </trkpt>
      <trkpt lat="42.71831" lon="0.65862">
        <ele>1451.5</ele>
        <time>2018-08-08T11:00:34.000Z</time>
      </trkpt>
      <trkpt lat="42.71831" lon="0.65862">
        <ele>1451.5</ele>
        <time>2018-08-08T11:00:35.000Z</time>
      </trkpt>
      <trkpt lat="42.71831" lon="0.65862">
        <ele>1451.5</ele>
        <time>2018-08-08T11:00:36.000Z</time>
      </trkpt>
      <trkpt lat="42.71831" lon="0.65862">
        <ele>1451.5</ele>
        <time>2018-08-08T11:00:37.000Z</time>
      </trkpt>
      <trkpt lat="42.71831" lon="0.65862">
        <ele>1451.5</ele>
        <time>2018-08-08T11:00:38.000Z</time>
      </trkpt>
      <trkpt lat="42.71831" lon="0.65862">
        <ele>1451.5</ele>
        <time>2018-08-08T11:00:39.000Z</time>
      </trkpt>
      <trkpt lat="42.71831" lon="0.65862">
        <ele>1451.5</ele>
        <time>2018-08-08T11:00:40.000Z</time>
      </trkpt>
      <trkpt lat="42.71831" lon="0.65862">
        <ele>1451.5</ele>
        <time>2018-08-08T11:00:41.000Z</time>
      </trkpt>
      <trkpt lat="42.71831" lon="0.65862">
        <ele>1451.5</ele>
        <time>2018-08-08T11:00:42.000Z</time>
      </trkpt>
      <trkpt lat="42.71831" lon="0.65862">
        <ele>1451.5</ele>
        <time>2018-08-08T11:00:43.000Z</time>
      </trkpt>
      <trkpt lat="42.71831" lon="0.65862">
        <ele>1451.5</ele>
        <time>2018-08-08T11:00:44.000Z</time>
      </trkpt>
      <trkpt lat="42.71831" lon="0.65862">
        <ele>1451.5</ele>
        <time>2018-08-08T11:00:45.000Z</time>
      </trkpt>
      <trkpt lat="42.71831" lon="0.65862">
        <ele>1451.5</ele>
        <time>2018-08-08T11:00:46.000Z</time>
      </trkpt>
      <trkpt lat="42.71831" lon="0.65862">
        <ele>1451.5</ele>
        <time>2018-08-08T11:00:47.000Z</time>
      </trkpt>
      <trkpt lat="42.71831" lon="0.65862">
        <ele>1451.5</ele>
        <time>2018-08-08T11:00:48.000Z</time>
      </trkpt>
      <trkpt lat="42.71831" lon="0.65862">
        <ele>1451.5</ele>
        <time>2018-08-08T11:00:49.000Z</time>
      </trkpt>
      <trkpt lat="42.71831" lon="0.65862">
        <ele>1451.5</ele>
        <time>2018-08-08T11:00:50.000Z</time>
      </trkpt>
      <trkpt lat="42.71831" lon="0.65862">
        <ele>1451.5</ele>
        <time>2018-08-08T11:00:51.000Z</time>
      </trkpt>
      <trkpt lat="42.71831" lon="0.65862">
        <ele>1451.5</ele>
        <time>2018-08-08T11:00:52.000Z</time>
      </trkpt>
      <trkpt lat="42.71831" lon="0.65862">
        <ele>1451.5</ele>
        <time>2018-08-08T11:00:53.000Z</time>
      </trkpt>
      <trkpt lat="42.71831" lon="0.65862">
        <ele>1451.5</ele>
        <time>2018-08-08T11:00:54.000Z</time>
      </trkpt>
      <trkpt lat="42.71831" lon="0.65862">
        <ele>1451.5</ele>
        <time>2018-08-08T11:00:55.000Z</time>
      </trkpt>
      <trkpt lat="42.71831" lon="0.65862">
        <ele>1451.5</ele>
        <time>2018-08-08T11:00:56.000Z</time>
      </trkpt>
      <trkpt lat="42.71831" lon="0.65862">
        <ele>1451.5</ele>
        <time>2018-08-08T11:00:57.000Z</time>
      </trkpt>
      <trkpt lat="42.71831" lon="0.65862">
        <ele>1451.5</ele>
        <time>2018-08-08T11:00:58.000Z</time>
      </trkpt>
      <trkpt lat="42.71831" lon="0.65862">
        <ele>1451.5</ele>
        <time>2018-08-08T11:00:59.000Z</time>
      </trkpt>
      <trkpt lat="42.71831" lon="0.65862">
        <ele>1451.5</ele>
        <time>2018-08-08T11:01:00.000Z</time>
      </trkpt>
      <trkpt lat="42.71831" lon="0.65862">
        <ele>1451.5</ele>
        <time>2018-08-08T11:01:01.000Z</time>
      </trkpt>
      <trkpt lat="42.71831" lon="0.65862">
        <ele>1451.5</ele>
        <time>2018-08-08T11:01:02.000Z</time>
      </trkpt>
      <trkpt lat="42.71831" lon="0.65862">
        <ele>1451.5</ele>
        <time>2018-08-08T11:01:03.000Z</time>
      </trkpt>
      <trkpt lat="42.71831" lon="0.65862">
        <ele>1451.5</ele>
        <time>2018-08-08T11:01:04.000Z</time>
      </trkpt>
      <trkpt lat="42.71831" lon="0.65862">
        <ele>1451.5</ele>
        <time>2018-08-08T11:01:05.000Z</time>
      </trkpt>
      <trkpt lat="42.71831" lon="0.65862">
        <ele>1451.5</ele>
        <time>2018-08-08T11:01:06.000Z</time>
      </trkpt>
      <trkpt lat="42.71831" lon="0.65862">
        <ele>1451.5</ele>
        <time>2018-08-08T11:01:07.000Z</time>
      </trkpt>
      <trkpt lat="42.71831" lon="0.65862">
        <ele>1451.5</ele>
        <time>2018-08-08T11:01:08.000Z</time>
      </trkpt>
      <trkpt lat="42.71831" lon="0.65862">
        <ele>1451.5</ele>
        <time>2018-08-08T11:01:09.000Z</time>
      </trkpt>
      <trkpt lat="42.71831" lon="0.65862">
        <ele>1451.5</ele>
        <time>2018-08-08T11:01:10.000Z</time>
      </trkpt>
      <trkpt lat="42.71831" lon="0.65862">
        <ele>1451.5</ele>
        <time>2018-08-08T11:01:11.000Z</time>
      </trkpt>
      <trkpt lat="42.71831" lon="0.65862">
        <ele>1451.5</ele>
        <time>2018-08-08T11:01:12.000Z</time>
      </trkpt>
      <trkpt lat="42.71831" lon="0.65862">
        <ele>1451.5</ele>
        <time>2018-08-08T11:01:13.000Z</time>
      </trkpt>
      <trkpt lat="42.71831" lon="0.65862">
        <ele>1451.5</ele>
        <time>2018-08-08T11:01:14.000Z</time>
      </trkpt>
      <trkpt lat="42.71831" lon="0.65862">
        <ele>1451.5</ele>
        <time>2018-08-08T11:01:15.000Z</time>
      </trkpt>
      <trkpt lat="42.71831" lon="0.65862">
        <ele>1451.5</ele>
        <time>2018-08-08T11:01:16.000Z</time>
      </trkpt>
      <trkpt lat="42.71831" lon="0.65862">
        <ele>1451.5</ele>
        <time>2018-08-08T11:01:17.000Z</time>
      </trkpt>
      <trkpt lat="42.71831" lon="0.65862">
        <ele>1451.5</ele>
        <time>2018-08-08T11:01:18.000Z</time>
      </trkpt>
      <trkpt lat="42.71831" lon="0.65862">
        <ele>1451.5</ele>
        <time>2018-08-08T11:01:19.000Z</time>
      </trkpt>
      <trkpt lat="42.71831" lon="0.65862">
        <ele>1451.5</ele>
        <time>2018-08-08T11:01:20.000Z</time>
      </trkpt>
      <trkpt lat="42.71831" lon="0.65862">
        <ele>1451.5</ele>
        <time>2018-08-08T11:01:21.000Z</time>
      </trkpt>
      <trkpt lat="42.71831" lon="0.65862">
        <ele>1451.5</ele>
        <time>2018-08-08T11:01:22.000Z</time>
      </trkpt>
      <trkpt lat="42.71831" lon="0.65862">
        <ele>1451.5</ele>
        <time>2018-08-08T11:01:23.000Z</time>
      </trkpt>
      <trkpt lat="42.71831" lon="0.65862">
        <ele>1451.5</ele>
        <time>2018-08-08T11:01:24.000Z</time>
      </trkpt>
      <trkpt lat="42.71831" lon="0.65862">
        <ele>1451.5</ele>
        <time>2018-08-08T11:01:25.000Z</time>
      </trkpt>
      <trkpt lat="42.71831" lon="0.65862">
        <ele>1451.5</ele>
        <time>2018-08-08T11:01:26.000Z</time>
      </trkpt>
      <trkpt lat="42.71831" lon="0.65861">
        <ele>1451.5</ele>
        <time>2018-08-08T11:01:27.000Z</time>
      </trkpt>
      <trkpt lat="42.71831" lon="0.65861">
        <ele>1451.5</ele>
        <time>2018-08-08T11:01:28.000Z</time>
      </trkpt>
      <trkpt lat="42.71831" lon="0.65861">
        <ele>1451.5</ele>
        <time>2018-08-08T11:01:29.000Z</time>
      </trkpt>
      <trkpt lat="42.71831" lon="0.65861">
        <ele>1451.5</ele>
        <time>2018-08-08T11:01:30.000Z</time>
      </trkpt>
      <trkpt lat="42.71831" lon="0.65861">
        <ele>1451.5</ele>
        <time>2018-08-08T11:01:31.000Z</time>
      </trkpt>
      <trkpt lat="42.71831" lon="0.65861">
        <ele>1451.5</ele>
        <time>2018-08-08T11:01:32.000Z</time>
      </trkpt>
      <trkpt lat="42.71831" lon="0.65861">
        <ele>1451.5</ele>
        <time>2018-08-08T11:01:33.000Z</time>
      </trkpt>
      <trkpt lat="42.71831" lon="0.65861">
        <ele>1451.5</ele>
        <time>2018-08-08T11:01:34.000Z</time>
      </trkpt>
      <trkpt lat="42.71831" lon="0.65861">
        <ele>1451.5</ele>
        <time>2018-08-08T11:01:35.000Z</time>
      </trkpt>
      <trkpt lat="42.71831" lon="0.65861">
        <ele>1451.5</ele>
        <time>2018-08-08T11:01:36.000Z</time>
      </trkpt>
      <trkpt lat="42.71831" lon="0.65861">
        <ele>1451.5</ele>
        <time>2018-08-08T11:01:37.000Z</time>
      </trkpt>
      <trkpt lat="42.71831" lon="0.65861">
        <ele>1451.5</ele>
        <time>2018-08-08T11:01:38.000Z</time>
      </trkpt>
      <trkpt lat="42.71831" lon="0.65861">
        <ele>1451.5</ele>
        <time>2018-08-08T11:01:39.000Z</time>
      </trkpt>
      <trkpt lat="42.71831" lon="0.65861">
        <ele>1451.5</ele>
        <time>2018-08-08T11:01:40.000Z</time>
      </trkpt>
      <trkpt lat="42.71831" lon="0.65861">
        <ele>1451.5</ele>
        <time>2018-08-08T11:01:41.000Z</time>
      </trkpt>
      <trkpt lat="42.71831" lon="0.65861">
        <ele>1451.5</ele>
        <time>2018-08-08T11:01:42.000Z</time>
      </trkpt>
      <trkpt lat="42.71831" lon="0.65861">
        <ele>1451.5</ele>
        <time>2018-08-08T11:01:43.000Z</time>
      </trkpt>
      <trkpt lat="42.71831" lon="0.65861">
        <ele>1451.5</ele>
        <time>2018-08-08T11:01:44.000Z</time>
      </trkpt>
      <trkpt lat="42.71831" lon="0.65861">
        <ele>1451.5</ele>
        <time>2018-08-08T11:01:45.000Z</time>
      </trkpt>
      <trkpt lat="42.71831" lon="0.65861">
        <ele>1451.4</ele>
        <time>2018-08-08T11:01:46.000Z</time>
      </trkpt>
      <trkpt lat="42.71831" lon="0.65861">
        <ele>1451.4</ele>
        <time>2018-08-08T11:01:47.000Z</time>
      </trkpt>
      <trkpt lat="42.71831" lon="0.65861">
        <ele>1451.3</ele>
        <time>2018-08-08T11:01:48.000Z</time>
      </trkpt>
      <trkpt lat="42.71832" lon="0.65861">
        <ele>1451.2</ele>
        <time>2018-08-08T11:01:49.000Z</time>
      </trkpt>
      <trkpt lat="42.71832" lon="0.65861">
        <ele>1451</ele>
        <time>2018-08-08T11:01:50.000Z</time>
      </trkpt>
      <trkpt lat="42.71832" lon="0.6586">
        <ele>1450.9</ele>
        <time>2018-08-08T11:01:51.000Z</time>
      </trkpt>
      <trkpt lat="42.71832" lon="0.6586">
        <ele>1450.8</ele>
        <time>2018-08-08T11:01:52.000Z</time>
      </trkpt>
      <trkpt lat="42.71833" lon="0.6586">
        <ele>1450.7</ele>
        <time>2018-08-08T11:01:53.000Z</time>
      </trkpt>
      <trkpt lat="42.71833" lon="0.6586">
        <ele>1450.6</ele>
        <time>2018-08-08T11:01:54.000Z</time>
      </trkpt>
      <trkpt lat="42.71833" lon="0.6586">
        <ele>1450.6</ele>
        <time>2018-08-08T11:01:55.000Z</time>
      </trkpt>
      <trkpt lat="42.71833" lon="0.65859">
        <ele>1450.6</ele>
        <time>2018-08-08T11:01:56.000Z</time>
      </trkpt>
      <trkpt lat="42.71833" lon="0.65859">
        <ele>1450.6</ele>
        <time>2018-08-08T11:01:57.000Z</time>
      </trkpt>
      <trkpt lat="42.71833" lon="0.65859">
        <ele>1450.6</ele>
        <time>2018-08-08T11:01:58.000Z</time>
      </trkpt>
      <trkpt lat="42.71833" lon="0.65859">
        <ele>1450.6</ele>
        <time>2018-08-08T11:01:59.000Z</time>
      </trkpt>
      <trkpt lat="42.71833" lon="0.65859">
        <ele>1450.6</ele>
        <time>2018-08-08T11:02:00.000Z</time>
      </trkpt>
      <trkpt lat="42.71833" lon="0.65859">
        <ele>1450.6</ele>
        <time>2018-08-08T11:02:01.000Z</time>
      </trkpt>
      <trkpt lat="42.71833" lon="0.65859">
        <ele>1450.6</ele>
        <time>2018-08-08T11:02:02.000Z</time>
      </trkpt>
      <trkpt lat="42.71833" lon="0.65859">
        <ele>1450.6</ele>
        <time>2018-08-08T11:02:03.000Z</time>
      </trkpt>
      <trkpt lat="42.71833" lon="0.65859">
        <ele>1450.6</ele>
        <time>2018-08-08T11:02:04.000Z</time>
      </trkpt>
      <trkpt lat="42.71833" lon="0.65859">
        <ele>1450.5</ele>
        <time>2018-08-08T11:02:05.000Z</time>
      </trkpt>
      <trkpt lat="42.71833" lon="0.65859">
        <ele>1450.5</ele>
        <time>2018-08-08T11:02:06.000Z</time>
      </trkpt>
      <trkpt lat="42.71833" lon="0.65859">
        <ele>1450.5</ele>
        <time>2018-08-08T11:02:07.000Z</time>
      </trkpt>
      <trkpt lat="42.71833" lon="0.65859">
        <ele>1450.5</ele>
        <time>2018-08-08T11:02:08.000Z</time>
      </trkpt>
      <trkpt lat="42.71833" lon="0.65859">
        <ele>1450.5</ele>
        <time>2018-08-08T11:02:09.000Z</time>
      </trkpt>
      <trkpt lat="42.71833" lon="0.65859">
        <ele>1450.5</ele>
        <time>2018-08-08T11:02:10.000Z</time>
      </trkpt>
      <trkpt lat="42.71833" lon="0.65859">
        <ele>1450.5</ele>
        <time>2018-08-08T11:02:11.000Z</time>
      </trkpt>
      <trkpt lat="42.71833" lon="0.65859">
        <ele>1450.5</ele>
        <time>2018-08-08T11:02:12.000Z</time>
      </trkpt>
      <trkpt lat="42.71833" lon="0.65859">
        <ele>1450.5</ele>
        <time>2018-08-08T11:02:13.000Z</time>
      </trkpt>
      <trkpt lat="42.71833" lon="0.65859">
        <ele>1450.5</ele>
        <time>2018-08-08T11:02:14.000Z</time>
      </trkpt>
      <trkpt lat="42.71833" lon="0.65859">
        <ele>1450.5</ele>
        <time>2018-08-08T11:02:15.000Z</time>
      </trkpt>
      <trkpt lat="42.71832" lon="0.65858">
        <ele>1450.5</ele>
        <time>2018-08-08T11:02:16.000Z</time>
      </trkpt>
      <trkpt lat="42.71832" lon="0.65858">
        <ele>1450.5</ele>
        <time>2018-08-08T11:02:17.000Z</time>
      </trkpt>
      <trkpt lat="42.71832" lon="0.65858">
        <ele>1450.5</ele>
        <time>2018-08-08T11:02:18.000Z</time>
      </trkpt>
      <trkpt lat="42.71832" lon="0.65857">
        <ele>1450.5</ele>
        <time>2018-08-08T11:02:19.000Z</time>
      </trkpt>
      <trkpt lat="42.71831" lon="0.65856">
        <ele>1450.5</ele>
        <time>2018-08-08T11:02:20.000Z</time>
      </trkpt>
      <trkpt lat="42.71831" lon="0.65855">
        <ele>1450.5</ele>
        <time>2018-08-08T11:02:21.000Z</time>
      </trkpt>
      <trkpt lat="42.7183" lon="0.65854">
        <ele>1450.5</ele>
        <time>2018-08-08T11:02:22.000Z</time>
      </trkpt>
      <trkpt lat="42.7183" lon="0.65853">
        <ele>1450.5</ele>
        <time>2018-08-08T11:02:23.000Z</time>
      </trkpt>
      <trkpt lat="42.7183" lon="0.65853">
        <ele>1450.6</ele>
        <time>2018-08-08T11:02:24.000Z</time>
      </trkpt>
      <trkpt lat="42.71829" lon="0.65852">
        <ele>1450.5</ele>
        <time>2018-08-08T11:02:25.000Z</time>
      </trkpt>
      <trkpt lat="42.71829" lon="0.65852">
        <ele>1450.6</ele>
        <time>2018-08-08T11:02:26.000Z</time>
      </trkpt>
      <trkpt lat="42.71829" lon="0.65852">
        <ele>1450.6</ele>
        <time>2018-08-08T11:02:27.000Z</time>
      </trkpt>
      <trkpt lat="42.71829" lon="0.65852">
        <ele>1450.6</ele>
        <time>2018-08-08T11:02:28.000Z</time>
      </trkpt>
      <trkpt lat="42.71829" lon="0.65852">
        <ele>1450.6</ele>
        <time>2018-08-08T11:02:29.000Z</time>
      </trkpt>
      <trkpt lat="42.71829" lon="0.65852">
        <ele>1450.6</ele>
        <time>2018-08-08T11:02:30.000Z</time>
      </trkpt>
      <trkpt lat="42.71829" lon="0.65852">
        <ele>1450.6</ele>
        <time>2018-08-08T11:02:31.000Z</time>
      </trkpt>
      <trkpt lat="42.71829" lon="0.65852">
        <ele>1450.6</ele>
        <time>2018-08-08T11:02:32.000Z</time>
      </trkpt>
      <trkpt lat="42.71829" lon="0.65852">
        <ele>1450.6</ele>
        <time>2018-08-08T11:02:33.000Z</time>
      </trkpt>
      <trkpt lat="42.71829" lon="0.65852">
        <ele>1450.6</ele>
        <time>2018-08-08T11:02:34.000Z</time>
      </trkpt>
      <trkpt lat="42.71829" lon="0.65852">
        <ele>1450.6</ele>
        <time>2018-08-08T11:02:35.000Z</time>
      </trkpt>
      <trkpt lat="42.71829" lon="0.65852">
        <ele>1450.6</ele>
        <time>2018-08-08T11:02:36.000Z</time>
      </trkpt>
      <trkpt lat="42.71829" lon="0.65852">
        <ele>1450.6</ele>
        <time>2018-08-08T11:02:37.000Z</time>
      </trkpt>
      <trkpt lat="42.71829" lon="0.65852">
        <ele>1450.6</ele>
        <time>2018-08-08T11:02:38.000Z</time>
      </trkpt>
      <trkpt lat="42.71829" lon="0.65852">
        <ele>1450.6</ele>
        <time>2018-08-08T11:02:39.000Z</time>
      </trkpt>
      <trkpt lat="42.71829" lon="0.65852">
        <ele>1450.6</ele>
        <time>2018-08-08T11:02:40.000Z</time>
      </trkpt>
      <trkpt lat="42.71829" lon="0.65852">
        <ele>1450.6</ele>
        <time>2018-08-08T11:02:41.000Z</time>
      </trkpt>
      <trkpt lat="42.71829" lon="0.65852">
        <ele>1450.6</ele>
        <time>2018-08-08T11:02:42.000Z</time>
      </trkpt>
      <trkpt lat="42.71829" lon="0.65852">
        <ele>1450.6</ele>
        <time>2018-08-08T11:02:43.000Z</time>
      </trkpt>
      <trkpt lat="42.71829" lon="0.65852">
        <ele>1450.6</ele>
        <time>2018-08-08T11:02:44.000Z</time>
      </trkpt>
      <trkpt lat="42.71829" lon="0.65852">
        <ele>1450.6</ele>
        <time>2018-08-08T11:02:45.000Z</time>
      </trkpt>
      <trkpt lat="42.71829" lon="0.65852">
        <ele>1450.6</ele>
        <time>2018-08-08T11:02:46.000Z</time>
      </trkpt>
      <trkpt lat="42.71829" lon="0.65852">
        <ele>1450.6</ele>
        <time>2018-08-08T11:02:47.000Z</time>
      </trkpt>
      <trkpt lat="42.71829" lon="0.65852">
        <ele>1450.6</ele>
        <time>2018-08-08T11:02:48.000Z</time>
      </trkpt>
      <trkpt lat="42.71829" lon="0.65852">
        <ele>1450.6</ele>
        <time>2018-08-08T11:02:49.000Z</time>
      </trkpt>
      <trkpt lat="42.71829" lon="0.65852">
        <ele>1450.6</ele>
        <time>2018-08-08T11:02:50.000Z</time>
      </trkpt>
      <trkpt lat="42.71829" lon="0.65852">
        <ele>1450.6</ele>
        <time>2018-08-08T11:02:51.000Z</time>
      </trkpt>
      <trkpt lat="42.71829" lon="0.65852">
        <ele>1450.6</ele>
        <time>2018-08-08T11:02:52.000Z</time>
      </trkpt>
      <trkpt lat="42.71829" lon="0.65852">
        <ele>1450.6</ele>
        <time>2018-08-08T11:02:53.000Z</time>
      </trkpt>
      <trkpt lat="42.71829" lon="0.65852">
        <ele>1450.6</ele>
        <time>2018-08-08T11:02:54.000Z</time>
      </trkpt>
      <trkpt lat="42.71829" lon="0.65852">
        <ele>1450.6</ele>
        <time>2018-08-08T11:02:55.000Z</time>
      </trkpt>
      <trkpt lat="42.71829" lon="0.65852">
        <ele>1450.6</ele>
        <time>2018-08-08T11:02:56.000Z</time>
      </trkpt>
      <trkpt lat="42.71829" lon="0.65852">
        <ele>1450.6</ele>
        <time>2018-08-08T11:02:57.000Z</time>
      </trkpt>
      <trkpt lat="42.71829" lon="0.65852">
        <ele>1450.6</ele>
        <time>2018-08-08T11:02:58.000Z</time>
      </trkpt>
      <trkpt lat="42.71829" lon="0.65852">
        <ele>1450.6</ele>
        <time>2018-08-08T11:02:59.000Z</time>
      </trkpt>
      <trkpt lat="42.71829" lon="0.65852">
        <ele>1450.6</ele>
        <time>2018-08-08T11:03:00.000Z</time>
      </trkpt>
      <trkpt lat="42.71829" lon="0.65852">
        <ele>1450.6</ele>
        <time>2018-08-08T11:03:01.000Z</time>
      </trkpt>
      <trkpt lat="42.71829" lon="0.65852">
        <ele>1450.6</ele>
        <time>2018-08-08T11:03:02.000Z</time>
      </trkpt>
      <trkpt lat="42.71829" lon="0.65852">
        <ele>1450.6</ele>
        <time>2018-08-08T11:03:03.000Z</time>
      </trkpt>
      <trkpt lat="42.71829" lon="0.65852">
        <ele>1450.6</ele>
        <time>2018-08-08T11:03:04.000Z</time>
      </trkpt>
      <trkpt lat="42.71829" lon="0.65852">
        <ele>1450.6</ele>
        <time>2018-08-08T11:03:05.000Z</time>
      </trkpt>
      <trkpt lat="42.71829" lon="0.65852">
        <ele>1450.6</ele>
        <time>2018-08-08T11:03:06.000Z</time>
      </trkpt>
      <trkpt lat="42.71829" lon="0.65852">
        <ele>1450.6</ele>
        <time>2018-08-08T11:03:07.000Z</time>
      </trkpt>
      <trkpt lat="42.71829" lon="0.65852">
        <ele>1450.6</ele>
        <time>2018-08-08T11:03:08.000Z</time>
      </trkpt>
      <trkpt lat="42.71829" lon="0.65852">
        <ele>1450.6</ele>
        <time>2018-08-08T11:03:09.000Z</time>
      </trkpt>
      <trkpt lat="42.71829" lon="0.65852">
        <ele>1450.6</ele>
        <time>2018-08-08T11:03:10.000Z</time>
      </trkpt>
      <trkpt lat="42.71829" lon="0.65853">
        <ele>1450.6</ele>
        <time>2018-08-08T11:03:11.000Z</time>
      </trkpt>
      <trkpt lat="42.71829" lon="0.65853">
        <ele>1450.7</ele>
        <time>2018-08-08T11:03:12.000Z</time>
      </trkpt>
      <trkpt lat="42.71829" lon="0.65853">
        <ele>1450.7</ele>
        <time>2018-08-08T11:03:13.000Z</time>
      </trkpt>
      <trkpt lat="42.71829" lon="0.65853">
        <ele>1450.8</ele>
        <time>2018-08-08T11:03:14.000Z</time>
      </trkpt>
      <trkpt lat="42.71829" lon="0.65854">
        <ele>1450.9</ele>
        <time>2018-08-08T11:03:15.000Z</time>
      </trkpt>
      <trkpt lat="42.71829" lon="0.65854">
        <ele>1451</ele>
        <time>2018-08-08T11:03:16.000Z</time>
      </trkpt>
      <trkpt lat="42.71829" lon="0.65855">
        <ele>1451.1</ele>
        <time>2018-08-08T11:03:17.000Z</time>
      </trkpt>
      <trkpt lat="42.71829" lon="0.65855">
        <ele>1451.3</ele>
        <time>2018-08-08T11:03:18.000Z</time>
      </trkpt>
      <trkpt lat="42.71829" lon="0.65856">
        <ele>1451.4</ele>
        <time>2018-08-08T11:03:19.000Z</time>
      </trkpt>
      <trkpt lat="42.71828" lon="0.65856">
        <ele>1451.4</ele>
        <time>2018-08-08T11:03:20.000Z</time>
      </trkpt>
      <trkpt lat="42.71828" lon="0.65856">
        <ele>1451.5</ele>
        <time>2018-08-08T11:03:21.000Z</time>
      </trkpt>
      <trkpt lat="42.71828" lon="0.65857">
        <ele>1451.6</ele>
        <time>2018-08-08T11:03:22.000Z</time>
      </trkpt>
      <trkpt lat="42.71828" lon="0.65857">
        <ele>1451.7</ele>
        <time>2018-08-08T11:03:23.000Z</time>
      </trkpt>
      <trkpt lat="42.71828" lon="0.65857">
        <ele>1451.7</ele>
        <time>2018-08-08T11:03:24.000Z</time>
      </trkpt>
      <trkpt lat="42.71828" lon="0.65858">
        <ele>1451.8</ele>
        <time>2018-08-08T11:03:25.000Z</time>
      </trkpt>
      <trkpt lat="42.71828" lon="0.65858">
        <ele>1451.8</ele>
        <time>2018-08-08T11:03:26.000Z</time>
      </trkpt>
      <trkpt lat="42.71828" lon="0.65858">
        <ele>1451.8</ele>
        <time>2018-08-08T11:03:27.000Z</time>
      </trkpt>
      <trkpt lat="42.71828" lon="0.65858">
        <ele>1451.9</ele>
        <time>2018-08-08T11:03:28.000Z</time>
      </trkpt>
      <trkpt lat="42.71828" lon="0.65858">
        <ele>1451.9</ele>
        <time>2018-08-08T11:03:29.000Z</time>
      </trkpt>
      <trkpt lat="42.71828" lon="0.65858">
        <ele>1451.9</ele>
        <time>2018-08-08T11:03:30.000Z</time>
      </trkpt>
      <trkpt lat="42.71828" lon="0.65858">
        <ele>1451.9</ele>
        <time>2018-08-08T11:03:31.000Z</time>
      </trkpt>
      <trkpt lat="42.71828" lon="0.65858">
        <ele>1451.9</ele>
        <time>2018-08-08T11:03:32.000Z</time>
      </trkpt>
      <trkpt lat="42.71828" lon="0.65859">
        <ele>1452</ele>
        <time>2018-08-08T11:03:33.000Z</time>
      </trkpt>
      <trkpt lat="42.71828" lon="0.65859">
        <ele>1452</ele>
        <time>2018-08-08T11:03:34.000Z</time>
      </trkpt>
      <trkpt lat="42.71828" lon="0.65859">
        <ele>1452</ele>
        <time>2018-08-08T11:03:35.000Z</time>
      </trkpt>
      <trkpt lat="42.71828" lon="0.65859">
        <ele>1452</ele>
        <time>2018-08-08T11:03:36.000Z</time>
      </trkpt>
      <trkpt lat="42.71828" lon="0.65859">
        <ele>1452</ele>
        <time>2018-08-08T11:03:37.000Z</time>
      </trkpt>
      <trkpt lat="42.71828" lon="0.65859">
        <ele>1452</ele>
        <time>2018-08-08T11:03:38.000Z</time>
      </trkpt>
      <trkpt lat="42.71828" lon="0.65859">
        <ele>1452</ele>
        <time>2018-08-08T11:03:39.000Z</time>
      </trkpt>
      <trkpt lat="42.71828" lon="0.65859">
        <ele>1452</ele>
        <time>2018-08-08T11:03:40.000Z</time>
      </trkpt>
      <trkpt lat="42.71828" lon="0.65859">
        <ele>1452</ele>
        <time>2018-08-08T11:03:41.000Z</time>
      </trkpt>
      <trkpt lat="42.71828" lon="0.65859">
        <ele>1452</ele>
        <time>2018-08-08T11:03:42.000Z</time>
      </trkpt>
      <trkpt lat="42.71828" lon="0.65859">
        <ele>1452</ele>
        <time>2018-08-08T11:03:43.000Z</time>
      </trkpt>
      <trkpt lat="42.71828" lon="0.65859">
        <ele>1452</ele>
        <time>2018-08-08T11:03:44.000Z</time>
      </trkpt>
      <trkpt lat="42.71828" lon="0.65859">
        <ele>1452</ele>
        <time>2018-08-08T11:03:45.000Z</time>
      </trkpt>
      <trkpt lat="42.71828" lon="0.65859">
        <ele>1452</ele>
        <time>2018-08-08T11:03:46.000Z</time>
      </trkpt>
      <trkpt lat="42.71828" lon="0.65859">
        <ele>1452</ele>
        <time>2018-08-08T11:03:47.000Z</time>
      </trkpt>
      <trkpt lat="42.71828" lon="0.65859">
        <ele>1452</ele>
        <time>2018-08-08T11:03:48.000Z</time>
      </trkpt>
      <trkpt lat="42.71828" lon="0.65859">
        <ele>1452</ele>
        <time>2018-08-08T11:03:49.000Z</time>
      </trkpt>
      <trkpt lat="42.71828" lon="0.65859">
        <ele>1452</ele>
        <time>2018-08-08T11:03:50.000Z</time>
      </trkpt>
      <trkpt lat="42.71828" lon="0.65859">
        <ele>1452</ele>
        <time>2018-08-08T11:03:51.000Z</time>
      </trkpt>
      <trkpt lat="42.71828" lon="0.65859">
        <ele>1452</ele>
        <time>2018-08-08T11:03:52.000Z</time>
      </trkpt>
      <trkpt lat="42.71828" lon="0.65859">
        <ele>1452</ele>
        <time>2018-08-08T11:03:53.000Z</time>
      </trkpt>
      <trkpt lat="42.71828" lon="0.65859">
        <ele>1452</ele>
        <time>2018-08-08T11:03:54.000Z</time>
      </trkpt>
      <trkpt lat="42.71828" lon="0.65859">
        <ele>1452</ele>
        <time>2018-08-08T11:03:55.000Z</time>
      </trkpt>
      <trkpt lat="42.71828" lon="0.65859">
        <ele>1452</ele>
        <time>2018-08-08T11:03:56.000Z</time>
      </trkpt>
      <trkpt lat="42.71828" lon="0.65859">
        <ele>1452</ele>
        <time>2018-08-08T11:03:57.000Z</time>
      </trkpt>
      <trkpt lat="42.71828" lon="0.65859">
        <ele>1452</ele>
        <time>2018-08-08T11:03:58.000Z</time>
      </trkpt>
      <trkpt lat="42.71828" lon="0.65859">
        <ele>1452</ele>
        <time>2018-08-08T11:03:59.000Z</time>
      </trkpt>
      <trkpt lat="42.71828" lon="0.65859">
        <ele>1452</ele>
        <time>2018-08-08T11:04:00.000Z</time>
      </trkpt>
      <trkpt lat="42.71828" lon="0.65859">
        <ele>1452</ele>
        <time>2018-08-08T11:04:01.000Z</time>
      </trkpt>
      <trkpt lat="42.71828" lon="0.65859">
        <ele>1452</ele>
        <time>2018-08-08T11:04:02.000Z</time>
      </trkpt>
      <trkpt lat="42.71828" lon="0.65859">
        <ele>1452</ele>
        <time>2018-08-08T11:04:03.000Z</time>
      </trkpt>
      <trkpt lat="42.71828" lon="0.65859">
        <ele>1452</ele>
        <time>2018-08-08T11:04:04.000Z</time>
      </trkpt>
      <trkpt lat="42.71828" lon="0.65859">
        <ele>1452</ele>
        <time>2018-08-08T11:04:05.000Z</time>
      </trkpt>
      <trkpt lat="42.71828" lon="0.65859">
        <ele>1452</ele>
        <time>2018-08-08T11:04:06.000Z</time>
      </trkpt>
      <trkpt lat="42.71828" lon="0.65859">
        <ele>1452</ele>
        <time>2018-08-08T11:04:07.000Z</time>
      </trkpt>
      <trkpt lat="42.71828" lon="0.65859">
        <ele>1452</ele>
        <time>2018-08-08T11:04:08.000Z</time>
      </trkpt>
      <trkpt lat="42.71828" lon="0.65859">
        <ele>1452</ele>
        <time>2018-08-08T11:04:09.000Z</time>
      </trkpt>
      <trkpt lat="42.71828" lon="0.65859">
        <ele>1452</ele>
        <time>2018-08-08T11:04:10.000Z</time>
      </trkpt>
      <trkpt lat="42.71828" lon="0.65859">
        <ele>1452</ele>
        <time>2018-08-08T11:04:11.000Z</time>
      </trkpt>
      <trkpt lat="42.71828" lon="0.65859">
        <ele>1452</ele>
        <time>2018-08-08T11:04:12.000Z</time>
      </trkpt>
      <trkpt lat="42.71828" lon="0.65859">
        <ele>1452</ele>
        <time>2018-08-08T11:04:13.000Z</time>
      </trkpt>
      <trkpt lat="42.71828" lon="0.65859">
        <ele>1452</ele>
        <time>2018-08-08T11:04:14.000Z</time>
      </trkpt>
      <trkpt lat="42.71828" lon="0.65859">
        <ele>1452</ele>
        <time>2018-08-08T11:04:15.000Z</time>
      </trkpt>
      <trkpt lat="42.71828" lon="0.65859">
        <ele>1452</ele>
        <time>2018-08-08T11:04:16.000Z</time>
      </trkpt>
      <trkpt lat="42.71828" lon="0.65859">
        <ele>1452</ele>
        <time>2018-08-08T11:04:17.000Z</time>
      </trkpt>
      <trkpt lat="42.71828" lon="0.65859">
        <ele>1452</ele>
        <time>2018-08-08T11:04:18.000Z</time>
      </trkpt>
      <trkpt lat="42.71828" lon="0.65859">
        <ele>1452</ele>
        <time>2018-08-08T11:04:19.000Z</time>
      </trkpt>
      <trkpt lat="42.71828" lon="0.65859">
        <ele>1452</ele>
        <time>2018-08-08T11:04:20.000Z</time>
      </trkpt>
      <trkpt lat="42.71828" lon="0.65859">
        <ele>1452</ele>
        <time>2018-08-08T11:04:21.000Z</time>
      </trkpt>
      <trkpt lat="42.71828" lon="0.65859">
        <ele>1452</ele>
        <time>2018-08-08T11:04:22.000Z</time>
      </trkpt>
      <trkpt lat="42.71828" lon="0.65859">
        <ele>1452</ele>
        <time>2018-08-08T11:04:23.000Z</time>
      </trkpt>
      <trkpt lat="42.71828" lon="0.65859">
        <ele>1452</ele>
        <time>2018-08-08T11:04:24.000Z</time>
      </trkpt>
      <trkpt lat="42.71828" lon="0.65859">
        <ele>1452</ele>
        <time>2018-08-08T11:04:25.000Z</time>
      </trkpt>
      <trkpt lat="42.71828" lon="0.65859">
        <ele>1452</ele>
        <time>2018-08-08T11:04:26.000Z</time>
      </trkpt>
      <trkpt lat="42.71828" lon="0.65859">
        <ele>1452</ele>
        <time>2018-08-08T11:04:27.000Z</time>
      </trkpt>
      <trkpt lat="42.71828" lon="0.65859">
        <ele>1452</ele>
        <time>2018-08-08T11:04:28.000Z</time>
      </trkpt>
      <trkpt lat="42.71828" lon="0.65859">
        <ele>1452</ele>
        <time>2018-08-08T11:04:29.000Z</time>
      </trkpt>
      <trkpt lat="42.71828" lon="0.65859">
        <ele>1452</ele>
        <time>2018-08-08T11:04:30.000Z</time>
      </trkpt>
      <trkpt lat="42.71828" lon="0.65859">
        <ele>1452</ele>
        <time>2018-08-08T11:04:31.000Z</time>
      </trkpt>
      <trkpt lat="42.71828" lon="0.65859">
        <ele>1452</ele>
        <time>2018-08-08T11:04:32.000Z</time>
      </trkpt>
      <trkpt lat="42.71828" lon="0.65859">
        <ele>1452</ele>
        <time>2018-08-08T11:04:33.000Z</time>
      </trkpt>
      <trkpt lat="42.71828" lon="0.65859">
        <ele>1452</ele>
        <time>2018-08-08T11:04:34.000Z</time>
      </trkpt>
      <trkpt lat="42.71828" lon="0.65859">
        <ele>1452</ele>
        <time>2018-08-08T11:04:35.000Z</time>
      </trkpt>
      <trkpt lat="42.71828" lon="0.65859">
        <ele>1452</ele>
        <time>2018-08-08T11:04:36.000Z</time>
      </trkpt>
      <trkpt lat="42.71828" lon="0.65859">
        <ele>1452</ele>
        <time>2018-08-08T11:04:37.000Z</time>
      </trkpt>
      <trkpt lat="42.71828" lon="0.65859">
        <ele>1452</ele>
        <time>2018-08-08T11:04:38.000Z</time>
      </trkpt>
      <trkpt lat="42.71828" lon="0.65859">
        <ele>1452</ele>
        <time>2018-08-08T11:04:39.000Z</time>
      </trkpt>
      <trkpt lat="42.71828" lon="0.65859">
        <ele>1452</ele>
        <time>2018-08-08T11:04:40.000Z</time>
      </trkpt>
      <trkpt lat="42.71828" lon="0.65859">
        <ele>1452</ele>
        <time>2018-08-08T11:04:41.000Z</time>
      </trkpt>
      <trkpt lat="42.71828" lon="0.65859">
        <ele>1452</ele>
        <time>2018-08-08T11:04:42.000Z</time>
      </trkpt>
      <trkpt lat="42.71828" lon="0.65859">
        <ele>1452</ele>
        <time>2018-08-08T11:04:43.000Z</time>
      </trkpt>
      <trkpt lat="42.71828" lon="0.65859">
        <ele>1452</ele>
        <time>2018-08-08T11:04:44.000Z</time>
      </trkpt>
      <trkpt lat="42.71828" lon="0.65859">
        <ele>1452</ele>
        <time>2018-08-08T11:04:45.000Z</time>
      </trkpt>
      <trkpt lat="42.71828" lon="0.65859">
        <ele>1452</ele>
        <time>2018-08-08T11:04:46.000Z</time>
      </trkpt>
      <trkpt lat="42.71828" lon="0.65859">
        <ele>1452</ele>
        <time>2018-08-08T11:04:47.000Z</time>
      </trkpt>
      <trkpt lat="42.71828" lon="0.65859">
        <ele>1452</ele>
        <time>2018-08-08T11:04:48.000Z</time>
      </trkpt>
      <trkpt lat="42.71828" lon="0.65859">
        <ele>1452</ele>
        <time>2018-08-08T11:04:49.000Z</time>
      </trkpt>
      <trkpt lat="42.71828" lon="0.65859">
        <ele>1452</ele>
        <time>2018-08-08T11:04:50.000Z</time>
      </trkpt>
      <trkpt lat="42.71828" lon="0.65859">
        <ele>1452</ele>
        <time>2018-08-08T11:04:51.000Z</time>
      </trkpt>
      <trkpt lat="42.71828" lon="0.65859">
        <ele>1452</ele>
        <time>2018-08-08T11:04:52.000Z</time>
      </trkpt>
      <trkpt lat="42.71828" lon="0.65859">
        <ele>1452</ele>
        <time>2018-08-08T11:04:53.000Z</time>
      </trkpt>
      <trkpt lat="42.71828" lon="0.65859">
        <ele>1452</ele>
        <time>2018-08-08T11:04:54.000Z</time>
      </trkpt>
      <trkpt lat="42.71828" lon="0.65859">
        <ele>1452</ele>
        <time>2018-08-08T11:04:55.000Z</time>
      </trkpt>
      <trkpt lat="42.71828" lon="0.65859">
        <ele>1452</ele>
        <time>2018-08-08T11:04:56.000Z</time>
      </trkpt>
      <trkpt lat="42.71828" lon="0.65859">
        <ele>1452</ele>
        <time>2018-08-08T11:04:57.000Z</time>
      </trkpt>
      <trkpt lat="42.71828" lon="0.65859">
        <ele>1452</ele>
        <time>2018-08-08T11:04:58.000Z</time>
      </trkpt>
      <trkpt lat="42.71828" lon="0.65859">
        <ele>1452</ele>
        <time>2018-08-08T11:04:59.000Z</time>
      </trkpt>
      <trkpt lat="42.71828" lon="0.65859">
        <ele>1452</ele>
        <time>2018-08-08T11:05:00.000Z</time>
      </trkpt>
      <trkpt lat="42.71828" lon="0.65859">
        <ele>1452</ele>
        <time>2018-08-08T11:05:01.000Z</time>
      </trkpt>
      <trkpt lat="42.71828" lon="0.65859">
        <ele>1452</ele>
        <time>2018-08-08T11:05:02.000Z</time>
      </trkpt>
      <trkpt lat="42.71828" lon="0.65859">
        <ele>1452</ele>
        <time>2018-08-08T11:05:03.000Z</time>
      </trkpt>
      <trkpt lat="42.71828" lon="0.65859">
        <ele>1452</ele>
        <time>2018-08-08T11:05:04.000Z</time>
      </trkpt>
      <trkpt lat="42.71828" lon="0.65859">
        <ele>1452</ele>
        <time>2018-08-08T11:05:05.000Z</time>
      </trkpt>
      <trkpt lat="42.71828" lon="0.65859">
        <ele>1452</ele>
        <time>2018-08-08T11:05:06.000Z</time>
      </trkpt>
      <trkpt lat="42.71828" lon="0.65859">
        <ele>1452</ele>
        <time>2018-08-08T11:05:07.000Z</time>
      </trkpt>
      <trkpt lat="42.71828" lon="0.65859">
        <ele>1452</ele>
        <time>2018-08-08T11:05:08.000Z</time>
      </trkpt>
      <trkpt lat="42.71828" lon="0.65859">
        <ele>1452</ele>
        <time>2018-08-08T11:05:09.000Z</time>
      </trkpt>
      <trkpt lat="42.71828" lon="0.65859">
        <ele>1452</ele>
        <time>2018-08-08T11:05:10.000Z</time>
      </trkpt>
      <trkpt lat="42.71828" lon="0.65859">
        <ele>1452</ele>
        <time>2018-08-08T11:05:11.000Z</time>
      </trkpt>
      <trkpt lat="42.71828" lon="0.65859">
        <ele>1452</ele>
        <time>2018-08-08T11:05:12.000Z</time>
      </trkpt>
      <trkpt lat="42.71828" lon="0.65859">
        <ele>1452</ele>
        <time>2018-08-08T11:05:13.000Z</time>
      </trkpt>
      <trkpt lat="42.71828" lon="0.65859">
        <ele>1452</ele>
        <time>2018-08-08T11:05:14.000Z</time>
      </trkpt>
      <trkpt lat="42.71828" lon="0.65859">
        <ele>1452</ele>
        <time>2018-08-08T11:05:15.000Z</time>
      </trkpt>
      <trkpt lat="42.71828" lon="0.65859">
        <ele>1452</ele>
        <time>2018-08-08T11:05:16.000Z</time>
      </trkpt>
      <trkpt lat="42.71828" lon="0.65859">
        <ele>1452</ele>
        <time>2018-08-08T11:05:17.000Z</time>
      </trkpt>
      <trkpt lat="42.71828" lon="0.65859">
        <ele>1452</ele>
        <time>2018-08-08T11:05:18.000Z</time>
      </trkpt>
      <trkpt lat="42.71828" lon="0.65859">
        <ele>1452</ele>
        <time>2018-08-08T11:05:19.000Z</time>
      </trkpt>
      <trkpt lat="42.71828" lon="0.65859">
        <ele>1452</ele>
        <time>2018-08-08T11:05:20.000Z</time>
      </trkpt>
      <trkpt lat="42.71828" lon="0.65859">
        <ele>1452</ele>
        <time>2018-08-08T11:05:21.000Z</time>
      </trkpt>
      <trkpt lat="42.71828" lon="0.65859">
        <ele>1452</ele>
        <time>2018-08-08T11:05:22.000Z</time>
      </trkpt>
      <trkpt lat="42.71828" lon="0.65859">
        <ele>1452</ele>
        <time>2018-08-08T11:05:23.000Z</time>
      </trkpt>
      <trkpt lat="42.71828" lon="0.65859">
        <ele>1452</ele>
        <time>2018-08-08T11:05:24.000Z</time>
      </trkpt>
      <trkpt lat="42.71828" lon="0.65859">
        <ele>1452</ele>
        <time>2018-08-08T11:05:25.000Z</time>
      </trkpt>
      <trkpt lat="42.71828" lon="0.65859">
        <ele>1452</ele>
        <time>2018-08-08T11:05:26.000Z</time>
      </trkpt>
      <trkpt lat="42.71828" lon="0.65859">
        <ele>1452</ele>
        <time>2018-08-08T11:05:27.000Z</time>
      </trkpt>
      <trkpt lat="42.71828" lon="0.65859">
        <ele>1452</ele>
        <time>2018-08-08T11:05:28.000Z</time>
      </trkpt>
      <trkpt lat="42.71828" lon="0.65859">
        <ele>1452</ele>
        <time>2018-08-08T11:05:29.000Z</time>
      </trkpt>
      <trkpt lat="42.71828" lon="0.65859">
        <ele>1452</ele>
        <time>2018-08-08T11:05:30.000Z</time>
      </trkpt>
      <trkpt lat="42.71828" lon="0.65859">
        <ele>1452</ele>
        <time>2018-08-08T11:05:31.000Z</time>
      </trkpt>
      <trkpt lat="42.71828" lon="0.65859">
        <ele>1452</ele>
        <time>2018-08-08T11:05:32.000Z</time>
      </trkpt>
      <trkpt lat="42.71828" lon="0.65859">
        <ele>1452</ele>
        <time>2018-08-08T11:05:33.000Z</time>
      </trkpt>
      <trkpt lat="42.71828" lon="0.65859">
        <ele>1452</ele>
        <time>2018-08-08T11:05:34.000Z</time>
      </trkpt>
      <trkpt lat="42.71828" lon="0.65859">
        <ele>1452</ele>
        <time>2018-08-08T11:05:35.000Z</time>
      </trkpt>
      <trkpt lat="42.71828" lon="0.65859">
        <ele>1452</ele>
        <time>2018-08-08T11:05:36.000Z</time>
      </trkpt>
      <trkpt lat="42.71828" lon="0.65859">
        <ele>1452</ele>
        <time>2018-08-08T11:05:37.000Z</time>
      </trkpt>
      <trkpt lat="42.71828" lon="0.65859">
        <ele>1452</ele>
        <time>2018-08-08T11:05:38.000Z</time>
      </trkpt>
      <trkpt lat="42.71828" lon="0.65859">
        <ele>1452</ele>
        <time>2018-08-08T11:05:39.000Z</time>
      </trkpt>
      <trkpt lat="42.71828" lon="0.65859">
        <ele>1452</ele>
        <time>2018-08-08T11:05:40.000Z</time>
      </trkpt>
      <trkpt lat="42.71828" lon="0.65859">
        <ele>1452</ele>
        <time>2018-08-08T11:05:41.000Z</time>
      </trkpt>
      <trkpt lat="42.71828" lon="0.65859">
        <ele>1452</ele>
        <time>2018-08-08T11:05:42.000Z</time>
      </trkpt>
      <trkpt lat="42.71828" lon="0.65859">
        <ele>1452</ele>
        <time>2018-08-08T11:05:43.000Z</time>
      </trkpt>
      <trkpt lat="42.71828" lon="0.65859">
        <ele>1452</ele>
        <time>2018-08-08T11:05:44.000Z</time>
      </trkpt>
      <trkpt lat="42.71828" lon="0.65859">
        <ele>1452</ele>
        <time>2018-08-08T11:05:45.000Z</time>
      </trkpt>
      <trkpt lat="42.71828" lon="0.65859">
        <ele>1452</ele>
        <time>2018-08-08T11:05:46.000Z</time>
      </trkpt>
      <trkpt lat="42.71828" lon="0.65859">
        <ele>1452</ele>
        <time>2018-08-08T11:05:47.000Z</time>
      </trkpt>
      <trkpt lat="42.71828" lon="0.65859">
        <ele>1452</ele>
        <time>2018-08-08T11:05:48.000Z</time>
      </trkpt>
      <trkpt lat="42.71828" lon="0.65859">
        <ele>1452</ele>
        <time>2018-08-08T11:05:49.000Z</time>
      </trkpt>
      <trkpt lat="42.71828" lon="0.65859">
        <ele>1452</ele>
        <time>2018-08-08T11:05:50.000Z</time>
      </trkpt>
      <trkpt lat="42.71828" lon="0.65859">
        <ele>1452</ele>
        <time>2018-08-08T11:05:51.000Z</time>
      </trkpt>
      <trkpt lat="42.71828" lon="0.65859">
        <ele>1452</ele>
        <time>2018-08-08T11:05:52.000Z</time>
      </trkpt>
      <trkpt lat="42.71828" lon="0.65859">
        <ele>1452</ele>
        <time>2018-08-08T11:05:53.000Z</time>
      </trkpt>
      <trkpt lat="42.71828" lon="0.65859">
        <ele>1452</ele>
        <time>2018-08-08T11:05:54.000Z</time>
      </trkpt>
      <trkpt lat="42.71828" lon="0.65859">
        <ele>1452</ele>
        <time>2018-08-08T11:05:55.000Z</time>
      </trkpt>
      <trkpt lat="42.71828" lon="0.65859">
        <ele>1452</ele>
        <time>2018-08-08T11:05:56.000Z</time>
      </trkpt>
      <trkpt lat="42.71828" lon="0.65859">
        <ele>1452</ele>
        <time>2018-08-08T11:05:57.000Z</time>
      </trkpt>
      <trkpt lat="42.71828" lon="0.65859">
        <ele>1452</ele>
        <time>2018-08-08T11:05:58.000Z</time>
      </trkpt>
      <trkpt lat="42.71828" lon="0.65859">
        <ele>1452</ele>
        <time>2018-08-08T11:05:59.000Z</time>
      </trkpt>
      <trkpt lat="42.71828" lon="0.65859">
        <ele>1452</ele>
        <time>2018-08-08T11:06:00.000Z</time>
      </trkpt>
      <trkpt lat="42.71828" lon="0.65859">
        <ele>1452.1</ele>
        <time>2018-08-08T11:06:01.000Z</time>
      </trkpt>
      <trkpt lat="42.71828" lon="0.65859">
        <ele>1452.1</ele>
        <time>2018-08-08T11:06:02.000Z</time>
      </trkpt>
      <trkpt lat="42.71828" lon="0.65859">
        <ele>1452.1</ele>
        <time>2018-08-08T11:06:03.000Z</time>
      </trkpt>
      <trkpt lat="42.71828" lon="0.65859">
        <ele>1452.1</ele>
        <time>2018-08-08T11:06:04.000Z</time>
      </trkpt>
      <trkpt lat="42.71828" lon="0.65859">
        <ele>1452.1</ele>
        <time>2018-08-08T11:06:05.000Z</time>
      </trkpt>
      <trkpt lat="42.71828" lon="0.65859">
        <ele>1452.1</ele>
        <time>2018-08-08T11:06:06.000Z</time>
      </trkpt>
      <trkpt lat="42.71828" lon="0.65859">
        <ele>1452.1</ele>
        <time>2018-08-08T11:06:07.000Z</time>
      </trkpt>
      <trkpt lat="42.71828" lon="0.65859">
        <ele>1452.1</ele>
        <time>2018-08-08T11:06:08.000Z</time>
      </trkpt>
      <trkpt lat="42.71828" lon="0.65859">
        <ele>1452.1</ele>
        <time>2018-08-08T11:06:09.000Z</time>
      </trkpt>
      <trkpt lat="42.71828" lon="0.65859">
        <ele>1452.1</ele>
        <time>2018-08-08T11:06:10.000Z</time>
      </trkpt>
      <trkpt lat="42.71828" lon="0.65859">
        <ele>1452.1</ele>
        <time>2018-08-08T11:06:11.000Z</time>
      </trkpt>
      <trkpt lat="42.71828" lon="0.65859">
        <ele>1452.1</ele>
        <time>2018-08-08T11:06:12.000Z</time>
      </trkpt>
      <trkpt lat="42.71828" lon="0.65859">
        <ele>1452.1</ele>
        <time>2018-08-08T11:06:13.000Z</time>
      </trkpt>
      <trkpt lat="42.71828" lon="0.65859">
        <ele>1452.1</ele>
        <time>2018-08-08T11:06:14.000Z</time>
      </trkpt>
      <trkpt lat="42.71828" lon="0.6586">
        <ele>1452.2</ele>
        <time>2018-08-08T11:06:15.000Z</time>
      </trkpt>
      <trkpt lat="42.71828" lon="0.6586">
        <ele>1452.2</ele>
        <time>2018-08-08T11:06:16.000Z</time>
      </trkpt>
      <trkpt lat="42.71828" lon="0.6586">
        <ele>1452.3</ele>
        <time>2018-08-08T11:06:17.000Z</time>
      </trkpt>
      <trkpt lat="42.71828" lon="0.6586">
        <ele>1452.4</ele>
        <time>2018-08-08T11:06:18.000Z</time>
      </trkpt>
      <trkpt lat="42.71828" lon="0.65861">
        <ele>1452.4</ele>
        <time>2018-08-08T11:06:19.000Z</time>
      </trkpt>
      <trkpt lat="42.71827" lon="0.65862">
        <ele>1452.7</ele>
        <time>2018-08-08T11:06:20.000Z</time>
      </trkpt>
      <trkpt lat="42.71826" lon="0.65862">
        <ele>1453</ele>
        <time>2018-08-08T11:06:21.000Z</time>
      </trkpt>
      <trkpt lat="42.71826" lon="0.65862">
        <ele>1453.2</ele>
        <time>2018-08-08T11:06:22.000Z</time>
      </trkpt>
      <trkpt lat="42.71826" lon="0.65863">
        <ele>1453.3</ele>
        <time>2018-08-08T11:06:23.000Z</time>
      </trkpt>
      <trkpt lat="42.71825" lon="0.65863">
        <ele>1453.4</ele>
        <time>2018-08-08T11:06:24.000Z</time>
      </trkpt>
      <trkpt lat="42.71825" lon="0.65863">
        <ele>1453.5</ele>
        <time>2018-08-08T11:06:25.000Z</time>
      </trkpt>
      <trkpt lat="42.71825" lon="0.65863">
        <ele>1453.6</ele>
        <time>2018-08-08T11:06:26.000Z</time>
      </trkpt>
      <trkpt lat="42.71825" lon="0.65864">
        <ele>1453.6</ele>
        <time>2018-08-08T11:06:27.000Z</time>
      </trkpt>
      <trkpt lat="42.71825" lon="0.65864">
        <ele>1453.7</ele>
        <time>2018-08-08T11:06:28.000Z</time>
      </trkpt>
      <trkpt lat="42.71825" lon="0.65864">
        <ele>1453.7</ele>
        <time>2018-08-08T11:06:29.000Z</time>
      </trkpt>
      <trkpt lat="42.71825" lon="0.65864">
        <ele>1453.8</ele>
        <time>2018-08-08T11:06:30.000Z</time>
      </trkpt>
      <trkpt lat="42.71825" lon="0.65864">
        <ele>1453.8</ele>
        <time>2018-08-08T11:06:31.000Z</time>
      </trkpt>
      <trkpt lat="42.71825" lon="0.65865">
        <ele>1453.8</ele>
        <time>2018-08-08T11:06:32.000Z</time>
      </trkpt>
      <trkpt lat="42.71825" lon="0.65865">
        <ele>1453.8</ele>
        <time>2018-08-08T11:06:33.000Z</time>
      </trkpt>
      <trkpt lat="42.71825" lon="0.65865">
        <ele>1453.8</ele>
        <time>2018-08-08T11:06:34.000Z</time>
      </trkpt>
      <trkpt lat="42.71825" lon="0.65865">
        <ele>1453.9</ele>
        <time>2018-08-08T11:06:35.000Z</time>
      </trkpt>
      <trkpt lat="42.71825" lon="0.65865">
        <ele>1454</ele>
        <time>2018-08-08T11:06:36.000Z</time>
      </trkpt>
      <trkpt lat="42.71825" lon="0.65866">
        <ele>1454</ele>
        <time>2018-08-08T11:06:37.000Z</time>
      </trkpt>
      <trkpt lat="42.71824" lon="0.65866">
        <ele>1454.1</ele>
        <time>2018-08-08T11:06:38.000Z</time>
      </trkpt>
      <trkpt lat="42.71824" lon="0.65866">
        <ele>1454.2</ele>
        <time>2018-08-08T11:06:39.000Z</time>
      </trkpt>
      <trkpt lat="42.71824" lon="0.65867">
        <ele>1454.3</ele>
        <time>2018-08-08T11:06:40.000Z</time>
      </trkpt>
      <trkpt lat="42.71824" lon="0.65867">
        <ele>1454.3</ele>
        <time>2018-08-08T11:06:41.000Z</time>
      </trkpt>
      <trkpt lat="42.71824" lon="0.65867">
        <ele>1454.4</ele>
        <time>2018-08-08T11:06:42.000Z</time>
      </trkpt>
      <trkpt lat="42.71824" lon="0.65867">
        <ele>1454.5</ele>
        <time>2018-08-08T11:06:43.000Z</time>
      </trkpt>
      <trkpt lat="42.71824" lon="0.65867">
        <ele>1454.5</ele>
        <time>2018-08-08T11:06:44.000Z</time>
      </trkpt>
      <trkpt lat="42.71823" lon="0.65867">
        <ele>1454.6</ele>
        <time>2018-08-08T11:06:45.000Z</time>
      </trkpt>
      <trkpt lat="42.71823" lon="0.65868">
        <ele>1454.6</ele>
        <time>2018-08-08T11:06:46.000Z</time>
      </trkpt>
      <trkpt lat="42.71823" lon="0.65868">
        <ele>1454.6</ele>
        <time>2018-08-08T11:06:47.000Z</time>
      </trkpt>
      <trkpt lat="42.71823" lon="0.65868">
        <ele>1454.7</ele>
        <time>2018-08-08T11:06:48.000Z</time>
      </trkpt>
      <trkpt lat="42.71823" lon="0.65868">
        <ele>1454.7</ele>
        <time>2018-08-08T11:06:49.000Z</time>
      </trkpt>
      <trkpt lat="42.71823" lon="0.65868">
        <ele>1454.8</ele>
        <time>2018-08-08T11:06:50.000Z</time>
      </trkpt>
      <trkpt lat="42.71823" lon="0.65869">
        <ele>1454.8</ele>
        <time>2018-08-08T11:06:51.000Z</time>
      </trkpt>
      <trkpt lat="42.71823" lon="0.65869">
        <ele>1454.9</ele>
        <time>2018-08-08T11:06:52.000Z</time>
      </trkpt>
      <trkpt lat="42.71823" lon="0.65869">
        <ele>1454.9</ele>
        <time>2018-08-08T11:06:53.000Z</time>
      </trkpt>
      <trkpt lat="42.71823" lon="0.65869">
        <ele>1455</ele>
        <time>2018-08-08T11:06:54.000Z</time>
      </trkpt>
      <trkpt lat="42.71823" lon="0.6587">
        <ele>1454.9</ele>
        <time>2018-08-08T11:06:55.000Z</time>
      </trkpt>
      <trkpt lat="42.71823" lon="0.6587">
        <ele>1454.9</ele>
        <time>2018-08-08T11:06:56.000Z</time>
      </trkpt>
      <trkpt lat="42.71824" lon="0.6587">
        <ele>1454.9</ele>
        <time>2018-08-08T11:06:57.000Z</time>
      </trkpt>
      <trkpt lat="42.71824" lon="0.6587">
        <ele>1454.9</ele>
        <time>2018-08-08T11:06:58.000Z</time>
      </trkpt>
      <trkpt lat="42.71824" lon="0.6587">
        <ele>1454.9</ele>
        <time>2018-08-08T11:06:59.000Z</time>
      </trkpt>
      <trkpt lat="42.71824" lon="0.65871">
        <ele>1454.9</ele>
        <time>2018-08-08T11:07:00.000Z</time>
      </trkpt>
      <trkpt lat="42.71824" lon="0.65871">
        <ele>1454.9</ele>
        <time>2018-08-08T11:07:01.000Z</time>
      </trkpt>
      <trkpt lat="42.71824" lon="0.65871">
        <ele>1454.8</ele>
        <time>2018-08-08T11:07:02.000Z</time>
      </trkpt>
      <trkpt lat="42.71825" lon="0.65871">
        <ele>1454.6</ele>
        <time>2018-08-08T11:07:03.000Z</time>
      </trkpt>
      <trkpt lat="42.71826" lon="0.65871">
        <ele>1454.3</ele>
        <time>2018-08-08T11:07:04.000Z</time>
      </trkpt>
      <trkpt lat="42.71827" lon="0.6587">
        <ele>1453.9</ele>
        <time>2018-08-08T11:07:05.000Z</time>
      </trkpt>
      <trkpt lat="42.71828" lon="0.6587">
        <ele>1453.5</ele>
        <time>2018-08-08T11:07:06.000Z</time>
      </trkpt>
      <trkpt lat="42.71829" lon="0.65869">
        <ele>1453.1</ele>
        <time>2018-08-08T11:07:07.000Z</time>
      </trkpt>
      <trkpt lat="42.71831" lon="0.65868">
        <ele>1452.7</ele>
        <time>2018-08-08T11:07:08.000Z</time>
      </trkpt>
      <trkpt lat="42.71832" lon="0.65868">
        <ele>1452.3</ele>
        <time>2018-08-08T11:07:09.000Z</time>
      </trkpt>
      <trkpt lat="42.71833" lon="0.65867">
        <ele>1451.9</ele>
        <time>2018-08-08T11:07:10.000Z</time>
      </trkpt>
      <trkpt lat="42.71833" lon="0.65867">
        <ele>1451.6</ele>
        <time>2018-08-08T11:07:11.000Z</time>
      </trkpt>
      <trkpt lat="42.71834" lon="0.65866">
        <ele>1451.6</ele>
        <time>2018-08-08T11:07:12.000Z</time>
      </trkpt>
      <trkpt lat="42.71835" lon="0.65866">
        <ele>1451.6</ele>
        <time>2018-08-08T11:07:13.000Z</time>
      </trkpt>
      <trkpt lat="42.71836" lon="0.65865">
        <ele>1451.6</ele>
        <time>2018-08-08T11:07:14.000Z</time>
      </trkpt>
      <trkpt lat="42.71837" lon="0.65865">
        <ele>1451.6</ele>
        <time>2018-08-08T11:07:15.000Z</time>
      </trkpt>
      <trkpt lat="42.71837" lon="0.65865">
        <ele>1451.6</ele>
        <time>2018-08-08T11:07:16.000Z</time>
      </trkpt>
      <trkpt lat="42.71838" lon="0.65864">
        <ele>1451.6</ele>
        <time>2018-08-08T11:07:17.000Z</time>
      </trkpt>
      <trkpt lat="42.71838" lon="0.65864">
        <ele>1451.7</ele>
        <time>2018-08-08T11:07:18.000Z</time>
      </trkpt>
      <trkpt lat="42.71839" lon="0.65864">
        <ele>1451.7</ele>
        <time>2018-08-08T11:07:19.000Z</time>
      </trkpt>
      <trkpt lat="42.71839" lon="0.65864">
        <ele>1451.8</ele>
        <time>2018-08-08T11:07:20.000Z</time>
      </trkpt>
      <trkpt lat="42.7184" lon="0.65865">
        <ele>1451.9</ele>
        <time>2018-08-08T11:07:21.000Z</time>
      </trkpt>
      <trkpt lat="42.7184" lon="0.65865">
        <ele>1452</ele>
        <time>2018-08-08T11:07:22.000Z</time>
      </trkpt>
      <trkpt lat="42.71841" lon="0.65865">
        <ele>1452.1</ele>
        <time>2018-08-08T11:07:23.000Z</time>
      </trkpt>
      <trkpt lat="42.71842" lon="0.65865">
        <ele>1452.2</ele>
        <time>2018-08-08T11:07:24.000Z</time>
      </trkpt>
      <trkpt lat="42.71842" lon="0.65866">
        <ele>1452.3</ele>
        <time>2018-08-08T11:07:25.000Z</time>
      </trkpt>
      <trkpt lat="42.71843" lon="0.65866">
        <ele>1452.4</ele>
        <time>2018-08-08T11:07:26.000Z</time>
      </trkpt>
      <trkpt lat="42.71843" lon="0.65866">
        <ele>1452.5</ele>
        <time>2018-08-08T11:07:27.000Z</time>
      </trkpt>
      <trkpt lat="42.71844" lon="0.65866">
        <ele>1452.6</ele>
        <time>2018-08-08T11:07:28.000Z</time>
      </trkpt>
      <trkpt lat="42.71844" lon="0.65867">
        <ele>1452.7</ele>
        <time>2018-08-08T11:07:29.000Z</time>
      </trkpt>
      <trkpt lat="42.71844" lon="0.65867">
        <ele>1452.8</ele>
        <time>2018-08-08T11:07:30.000Z</time>
      </trkpt>
      <trkpt lat="42.71844" lon="0.65867">
        <ele>1452.8</ele>
        <time>2018-08-08T11:07:31.000Z</time>
      </trkpt>
      <trkpt lat="42.71845" lon="0.65867">
        <ele>1452.9</ele>
        <time>2018-08-08T11:07:32.000Z</time>
      </trkpt>
      <trkpt lat="42.71845" lon="0.65867">
        <ele>1453</ele>
        <time>2018-08-08T11:07:33.000Z</time>
      </trkpt>
      <trkpt lat="42.71845" lon="0.65868">
        <ele>1453</ele>
        <time>2018-08-08T11:07:34.000Z</time>
      </trkpt>
      <trkpt lat="42.71845" lon="0.65868">
        <ele>1453.1</ele>
        <time>2018-08-08T11:07:35.000Z</time>
      </trkpt>
      <trkpt lat="42.71846" lon="0.65868">
        <ele>1453.2</ele>
        <time>2018-08-08T11:07:36.000Z</time>
      </trkpt>
      <trkpt lat="42.71846" lon="0.65868">
        <ele>1453.3</ele>
        <time>2018-08-08T11:07:37.000Z</time>
      </trkpt>
      <trkpt lat="42.71847" lon="0.65869">
        <ele>1453.4</ele>
        <time>2018-08-08T11:07:38.000Z</time>
      </trkpt>
      <trkpt lat="42.71847" lon="0.65869">
        <ele>1453.5</ele>
        <time>2018-08-08T11:07:39.000Z</time>
      </trkpt>
      <trkpt lat="42.71847" lon="0.65869">
        <ele>1453.7</ele>
        <time>2018-08-08T11:07:40.000Z</time>
      </trkpt>
      <trkpt lat="42.71848" lon="0.6587">
        <ele>1453.8</ele>
        <time>2018-08-08T11:07:41.000Z</time>
      </trkpt>
      <trkpt lat="42.71848" lon="0.6587">
        <ele>1453.9</ele>
        <time>2018-08-08T11:07:42.000Z</time>
      </trkpt>
      <trkpt lat="42.71848" lon="0.65871">
        <ele>1454.1</ele>
        <time>2018-08-08T11:07:43.000Z</time>
      </trkpt>
      <trkpt lat="42.71848" lon="0.65871">
        <ele>1454.2</ele>
        <time>2018-08-08T11:07:44.000Z</time>
      </trkpt>
      <trkpt lat="42.71849" lon="0.65872">
        <ele>1454.3</ele>
        <time>2018-08-08T11:07:45.000Z</time>
      </trkpt>
      <trkpt lat="42.71849" lon="0.65872">
        <ele>1454.5</ele>
        <time>2018-08-08T11:07:46.000Z</time>
      </trkpt>
      <trkpt lat="42.71849" lon="0.65873">
        <ele>1454.6</ele>
        <time>2018-08-08T11:07:47.000Z</time>
      </trkpt>
      <trkpt lat="42.71849" lon="0.65874">
        <ele>1454.8</ele>
        <time>2018-08-08T11:07:48.000Z</time>
      </trkpt>
      <trkpt lat="42.71849" lon="0.65874">
        <ele>1454.9</ele>
        <time>2018-08-08T11:07:49.000Z</time>
      </trkpt>
      <trkpt lat="42.71848" lon="0.65875">
        <ele>1455.1</ele>
        <time>2018-08-08T11:07:50.000Z</time>
      </trkpt>
      <trkpt lat="42.71848" lon="0.65876">
        <ele>1455.2</ele>
        <time>2018-08-08T11:07:51.000Z</time>
      </trkpt>
      <trkpt lat="42.71848" lon="0.65877">
        <ele>1455.4</ele>
        <time>2018-08-08T11:07:52.000Z</time>
      </trkpt>
      <trkpt lat="42.71847" lon="0.65878">
        <ele>1455.5</ele>
        <time>2018-08-08T11:07:53.000Z</time>
      </trkpt>
      <trkpt lat="42.71847" lon="0.65879">
        <ele>1455.7</ele>
        <time>2018-08-08T11:07:54.000Z</time>
      </trkpt>
      <trkpt lat="42.71847" lon="0.6588">
        <ele>1455.8</ele>
        <time>2018-08-08T11:07:55.000Z</time>
      </trkpt>
      <trkpt lat="42.71846" lon="0.6588">
        <ele>1455.9</ele>
        <time>2018-08-08T11:07:56.000Z</time>
      </trkpt>
      <trkpt lat="42.71845" lon="0.65881">
        <ele>1456</ele>
        <time>2018-08-08T11:07:57.000Z</time>
      </trkpt>
      <trkpt lat="42.71845" lon="0.65882">
        <ele>1456.1</ele>
        <time>2018-08-08T11:07:58.000Z</time>
      </trkpt>
      <trkpt lat="42.71844" lon="0.65883">
        <ele>1456.2</ele>
        <time>2018-08-08T11:07:59.000Z</time>
      </trkpt>
      <trkpt lat="42.71844" lon="0.65884">
        <ele>1456.3</ele>
        <time>2018-08-08T11:08:00.000Z</time>
      </trkpt>
      <trkpt lat="42.71843" lon="0.65885">
        <ele>1456.3</ele>
        <time>2018-08-08T11:08:01.000Z</time>
      </trkpt>
      <trkpt lat="42.71842" lon="0.65886">
        <ele>1456.4</ele>
        <time>2018-08-08T11:08:02.000Z</time>
      </trkpt>
      <trkpt lat="42.71842" lon="0.65886">
        <ele>1456.4</ele>
        <time>2018-08-08T11:08:03.000Z</time>
      </trkpt>
      <trkpt lat="42.71841" lon="0.65887">
        <ele>1456.4</ele>
        <time>2018-08-08T11:08:04.000Z</time>
      </trkpt>
      <trkpt lat="42.71841" lon="0.65888">
        <ele>1456.4</ele>
        <time>2018-08-08T11:08:05.000Z</time>
      </trkpt>
      <trkpt lat="42.7184" lon="0.65888">
        <ele>1456.4</ele>
        <time>2018-08-08T11:08:06.000Z</time>
      </trkpt>
      <trkpt lat="42.71839" lon="0.65889">
        <ele>1456.4</ele>
        <time>2018-08-08T11:08:07.000Z</time>
      </trkpt>
      <trkpt lat="42.71839" lon="0.65889">
        <ele>1456.4</ele>
        <time>2018-08-08T11:08:08.000Z</time>
      </trkpt>
      <trkpt lat="42.71838" lon="0.6589">
        <ele>1456.4</ele>
        <time>2018-08-08T11:08:09.000Z</time>
      </trkpt>
      <trkpt lat="42.71837" lon="0.6589">
        <ele>1456.4</ele>
        <time>2018-08-08T11:08:10.000Z</time>
      </trkpt>
      <trkpt lat="42.71837" lon="0.65891">
        <ele>1456.3</ele>
        <time>2018-08-08T11:08:11.000Z</time>
      </trkpt>
      <trkpt lat="42.71836" lon="0.65891">
        <ele>1456.3</ele>
        <time>2018-08-08T11:08:12.000Z</time>
      </trkpt>
      <trkpt lat="42.71835" lon="0.65892">
        <ele>1456.2</ele>
        <time>2018-08-08T11:08:13.000Z</time>
      </trkpt>
      <trkpt lat="42.71835" lon="0.65892">
        <ele>1456.2</ele>
        <time>2018-08-08T11:08:14.000Z</time>
      </trkpt>
      <trkpt lat="42.71834" lon="0.65893">
        <ele>1456.1</ele>
        <time>2018-08-08T11:08:15.000Z</time>
      </trkpt>
      <trkpt lat="42.71833" lon="0.65893">
        <ele>1456</ele>
        <time>2018-08-08T11:08:16.000Z</time>
      </trkpt>
      <trkpt lat="42.71833" lon="0.65894">
        <ele>1456.3</ele>
        <time>2018-08-08T11:08:17.000Z</time>
      </trkpt>
      <trkpt lat="42.71832" lon="0.65894">
        <ele>1456.5</ele>
        <time>2018-08-08T11:08:18.000Z</time>
      </trkpt>
      <trkpt lat="42.71831" lon="0.65895">
        <ele>1456.7</ele>
        <time>2018-08-08T11:08:19.000Z</time>
      </trkpt>
      <trkpt lat="42.7183" lon="0.65895">
        <ele>1457</ele>
        <time>2018-08-08T11:08:20.000Z</time>
      </trkpt>
      <trkpt lat="42.71829" lon="0.65896">
        <ele>1457.2</ele>
        <time>2018-08-08T11:08:21.000Z</time>
      </trkpt>
      <trkpt lat="42.71828" lon="0.65897">
        <ele>1457.5</ele>
        <time>2018-08-08T11:08:22.000Z</time>
      </trkpt>
      <trkpt lat="42.71828" lon="0.65897">
        <ele>1457.8</ele>
        <time>2018-08-08T11:08:23.000Z</time>
      </trkpt>
      <trkpt lat="42.71827" lon="0.65898">
        <ele>1458</ele>
        <time>2018-08-08T11:08:24.000Z</time>
      </trkpt>
      <trkpt lat="42.71826" lon="0.65899">
        <ele>1458.2</ele>
        <time>2018-08-08T11:08:25.000Z</time>
      </trkpt>
      <trkpt lat="42.71825" lon="0.659">
        <ele>1458.5</ele>
        <time>2018-08-08T11:08:26.000Z</time>
      </trkpt>
      <trkpt lat="42.71824" lon="0.65901">
        <ele>1458.7</ele>
        <time>2018-08-08T11:08:27.000Z</time>
      </trkpt>
      <trkpt lat="42.71824" lon="0.65902">
        <ele>1459</ele>
        <time>2018-08-08T11:08:28.000Z</time>
      </trkpt>
      <trkpt lat="42.71823" lon="0.65903">
        <ele>1459.2</ele>
        <time>2018-08-08T11:08:29.000Z</time>
      </trkpt>
      <trkpt lat="42.71822" lon="0.65904">
        <ele>1459.4</ele>
        <time>2018-08-08T11:08:30.000Z</time>
      </trkpt>
      <trkpt lat="42.71822" lon="0.65905">
        <ele>1459.6</ele>
        <time>2018-08-08T11:08:31.000Z</time>
      </trkpt>
      <trkpt lat="42.71822" lon="0.65906">
        <ele>1459.8</ele>
        <time>2018-08-08T11:08:32.000Z</time>
      </trkpt>
      <trkpt lat="42.71821" lon="0.65907">
        <ele>1460</ele>
        <time>2018-08-08T11:08:33.000Z</time>
      </trkpt>
      <trkpt lat="42.71821" lon="0.65909">
        <ele>1460.2</ele>
        <time>2018-08-08T11:08:34.000Z</time>
      </trkpt>
      <trkpt lat="42.71821" lon="0.6591">
        <ele>1460.4</ele>
        <time>2018-08-08T11:08:35.000Z</time>
      </trkpt>
      <trkpt lat="42.71821" lon="0.65911">
        <ele>1460.6</ele>
        <time>2018-08-08T11:08:36.000Z</time>
      </trkpt>
      <trkpt lat="42.71821" lon="0.65913">
        <ele>1460.8</ele>
        <time>2018-08-08T11:08:37.000Z</time>
      </trkpt>
      <trkpt lat="42.7182" lon="0.65914">
        <ele>1460.9</ele>
        <time>2018-08-08T11:08:38.000Z</time>
      </trkpt>
      <trkpt lat="42.7182" lon="0.65915">
        <ele>1461.1</ele>
        <time>2018-08-08T11:08:39.000Z</time>
      </trkpt>
      <trkpt lat="42.7182" lon="0.65916">
        <ele>1461.2</ele>
        <time>2018-08-08T11:08:40.000Z</time>
      </trkpt>
      <trkpt lat="42.71819" lon="0.65917">
        <ele>1461.5</ele>
        <time>2018-08-08T11:08:41.000Z</time>
      </trkpt>
      <trkpt lat="42.71819" lon="0.65918">
        <ele>1461.8</ele>
        <time>2018-08-08T11:08:42.000Z</time>
      </trkpt>
      <trkpt lat="42.71818" lon="0.65919">
        <ele>1462</ele>
        <time>2018-08-08T11:08:43.000Z</time>
      </trkpt>
      <trkpt lat="42.71818" lon="0.6592">
        <ele>1462.3</ele>
        <time>2018-08-08T11:08:44.000Z</time>
      </trkpt>
      <trkpt lat="42.71817" lon="0.65921">
        <ele>1462.6</ele>
        <time>2018-08-08T11:08:45.000Z</time>
      </trkpt>
      <trkpt lat="42.71816" lon="0.65922">
        <ele>1462.8</ele>
        <time>2018-08-08T11:08:46.000Z</time>
      </trkpt>
      <trkpt lat="42.71816" lon="0.65922">
        <ele>1463.1</ele>
        <time>2018-08-08T11:08:47.000Z</time>
      </trkpt>
      <trkpt lat="42.71815" lon="0.65923">
        <ele>1463.3</ele>
        <time>2018-08-08T11:08:48.000Z</time>
      </trkpt>
      <trkpt lat="42.71815" lon="0.65924">
        <ele>1463.6</ele>
        <time>2018-08-08T11:08:49.000Z</time>
      </trkpt>
      <trkpt lat="42.71814" lon="0.65925">
        <ele>1463.9</ele>
        <time>2018-08-08T11:08:50.000Z</time>
      </trkpt>
      <trkpt lat="42.71814" lon="0.65927">
        <ele>1464.2</ele>
        <time>2018-08-08T11:08:51.000Z</time>
      </trkpt>
      <trkpt lat="42.71814" lon="0.65928">
        <ele>1464.5</ele>
        <time>2018-08-08T11:08:52.000Z</time>
      </trkpt>
      <trkpt lat="42.71813" lon="0.65929">
        <ele>1464.8</ele>
        <time>2018-08-08T11:08:53.000Z</time>
      </trkpt>
      <trkpt lat="42.71813" lon="0.6593">
        <ele>1465</ele>
        <time>2018-08-08T11:08:54.000Z</time>
      </trkpt>
      <trkpt lat="42.71813" lon="0.65931">
        <ele>1465.4</ele>
        <time>2018-08-08T11:08:55.000Z</time>
      </trkpt>
      <trkpt lat="42.71813" lon="0.65933">
        <ele>1465.7</ele>
        <time>2018-08-08T11:08:56.000Z</time>
      </trkpt>
      <trkpt lat="42.71812" lon="0.65934">
        <ele>1466</ele>
        <time>2018-08-08T11:08:57.000Z</time>
      </trkpt>
      <trkpt lat="42.71812" lon="0.65935">
        <ele>1466.2</ele>
        <time>2018-08-08T11:08:58.000Z</time>
      </trkpt>
      <trkpt lat="42.71812" lon="0.65936">
        <ele>1466.6</ele>
        <time>2018-08-08T11:08:59.000Z</time>
      </trkpt>
      <trkpt lat="42.71812" lon="0.65938">
        <ele>1466.9</ele>
        <time>2018-08-08T11:09:00.000Z</time>
      </trkpt>
      <trkpt lat="42.71812" lon="0.65939">
        <ele>1467.1</ele>
        <time>2018-08-08T11:09:01.000Z</time>
      </trkpt>
      <trkpt lat="42.71811" lon="0.6594">
        <ele>1467.4</ele>
        <time>2018-08-08T11:09:02.000Z</time>
      </trkpt>
      <trkpt lat="42.71811" lon="0.65941">
        <ele>1467.7</ele>
        <time>2018-08-08T11:09:03.000Z</time>
      </trkpt>
      <trkpt lat="42.71811" lon="0.65943">
        <ele>1468</ele>
        <time>2018-08-08T11:09:04.000Z</time>
      </trkpt>
      <trkpt lat="42.71811" lon="0.65944">
        <ele>1468.3</ele>
        <time>2018-08-08T11:09:05.000Z</time>
      </trkpt>
      <trkpt lat="42.71811" lon="0.65945">
        <ele>1468.5</ele>
        <time>2018-08-08T11:09:06.000Z</time>
      </trkpt>
      <trkpt lat="42.7181" lon="0.65946">
        <ele>1468.8</ele>
        <time>2018-08-08T11:09:07.000Z</time>
      </trkpt>
      <trkpt lat="42.7181" lon="0.65947">
        <ele>1469</ele>
        <time>2018-08-08T11:09:08.000Z</time>
      </trkpt>
      <trkpt lat="42.7181" lon="0.65948">
        <ele>1469.3</ele>
        <time>2018-08-08T11:09:09.000Z</time>
      </trkpt>
      <trkpt lat="42.7181" lon="0.65949">
        <ele>1469.5</ele>
        <time>2018-08-08T11:09:10.000Z</time>
      </trkpt>
      <trkpt lat="42.71809" lon="0.6595">
        <ele>1469.7</ele>
        <time>2018-08-08T11:09:11.000Z</time>
      </trkpt>
      <trkpt lat="42.71809" lon="0.65952">
        <ele>1470</ele>
        <time>2018-08-08T11:09:12.000Z</time>
      </trkpt>
      <trkpt lat="42.71809" lon="0.65953">
        <ele>1470.2</ele>
        <time>2018-08-08T11:09:13.000Z</time>
      </trkpt>
      <trkpt lat="42.71808" lon="0.65954">
        <ele>1470.4</ele>
        <time>2018-08-08T11:09:14.000Z</time>
      </trkpt>
      <trkpt lat="42.71808" lon="0.65955">
        <ele>1470.6</ele>
        <time>2018-08-08T11:09:15.000Z</time>
      </trkpt>
      <trkpt lat="42.71808" lon="0.65956">
        <ele>1470.9</ele>
        <time>2018-08-08T11:09:16.000Z</time>
      </trkpt>
      <trkpt lat="42.71807" lon="0.65957">
        <ele>1471.1</ele>
        <time>2018-08-08T11:09:17.000Z</time>
      </trkpt>
      <trkpt lat="42.71807" lon="0.65958">
        <ele>1471.4</ele>
        <time>2018-08-08T11:09:18.000Z</time>
      </trkpt>
      <trkpt lat="42.71807" lon="0.6596">
        <ele>1471.6</ele>
        <time>2018-08-08T11:09:19.000Z</time>
      </trkpt>
      <trkpt lat="42.71806" lon="0.65961">
        <ele>1471.9</ele>
        <time>2018-08-08T11:09:20.000Z</time>
      </trkpt>
      <trkpt lat="42.71806" lon="0.65962">
        <ele>1472.1</ele>
        <time>2018-08-08T11:09:21.000Z</time>
      </trkpt>
      <trkpt lat="42.71806" lon="0.65963">
        <ele>1472.4</ele>
        <time>2018-08-08T11:09:22.000Z</time>
      </trkpt>
      <trkpt lat="42.71806" lon="0.65965">
        <ele>1472.6</ele>
        <time>2018-08-08T11:09:23.000Z</time>
      </trkpt>
      <trkpt lat="42.71805" lon="0.65966">
        <ele>1472.8</ele>
        <time>2018-08-08T11:09:24.000Z</time>
      </trkpt>
      <trkpt lat="42.71805" lon="0.65967">
        <ele>1473.1</ele>
        <time>2018-08-08T11:09:25.000Z</time>
      </trkpt>
      <trkpt lat="42.71805" lon="0.65968">
        <ele>1473.3</ele>
        <time>2018-08-08T11:09:26.000Z</time>
      </trkpt>
      <trkpt lat="42.71804" lon="0.65969">
        <ele>1473.5</ele>
        <time>2018-08-08T11:09:27.000Z</time>
      </trkpt>
      <trkpt lat="42.71804" lon="0.6597">
        <ele>1473.6</ele>
        <time>2018-08-08T11:09:28.000Z</time>
      </trkpt>
      <trkpt lat="42.71804" lon="0.65971">
        <ele>1473.8</ele>
        <time>2018-08-08T11:09:29.000Z</time>
      </trkpt>
      <trkpt lat="42.71803" lon="0.65972">
        <ele>1473.9</ele>
        <time>2018-08-08T11:09:30.000Z</time>
      </trkpt>
      <trkpt lat="42.71803" lon="0.65973">
        <ele>1474</ele>
        <time>2018-08-08T11:09:31.000Z</time>
      </trkpt>
      <trkpt lat="42.71802" lon="0.65973">
        <ele>1474.1</ele>
        <time>2018-08-08T11:09:32.000Z</time>
      </trkpt>
      <trkpt lat="42.71802" lon="0.65974">
        <ele>1474.2</ele>
        <time>2018-08-08T11:09:33.000Z</time>
      </trkpt>
      <trkpt lat="42.71801" lon="0.65974">
        <ele>1474.2</ele>
        <time>2018-08-08T11:09:34.000Z</time>
      </trkpt>
      <trkpt lat="42.718" lon="0.65975">
        <ele>1474.2</ele>
        <time>2018-08-08T11:09:35.000Z</time>
      </trkpt>
      <trkpt lat="42.71799" lon="0.65975">
        <ele>1474.2</ele>
        <time>2018-08-08T11:09:36.000Z</time>
      </trkpt>
      <trkpt lat="42.71798" lon="0.65976">
        <ele>1474.2</ele>
        <time>2018-08-08T11:09:37.000Z</time>
      </trkpt>
      <trkpt lat="42.71798" lon="0.65976">
        <ele>1474.2</ele>
        <time>2018-08-08T11:09:38.000Z</time>
      </trkpt>
      <trkpt lat="42.71798" lon="0.65976">
        <ele>1474.2</ele>
        <time>2018-08-08T11:09:39.000Z</time>
      </trkpt>
      <trkpt lat="42.71798" lon="0.65976">
        <ele>1474.2</ele>
        <time>2018-08-08T11:09:40.000Z</time>
      </trkpt>
      <trkpt lat="42.71797" lon="0.65976">
        <ele>1474.2</ele>
        <time>2018-08-08T11:09:41.000Z</time>
      </trkpt>
      <trkpt lat="42.71797" lon="0.65976">
        <ele>1474.2</ele>
        <time>2018-08-08T11:09:42.000Z</time>
      </trkpt>
      <trkpt lat="42.71797" lon="0.65977">
        <ele>1474.3</ele>
        <time>2018-08-08T11:09:43.000Z</time>
      </trkpt>
      <trkpt lat="42.71797" lon="0.65977">
        <ele>1474.3</ele>
        <time>2018-08-08T11:09:44.000Z</time>
      </trkpt>
      <trkpt lat="42.71796" lon="0.65978">
        <ele>1474.4</ele>
        <time>2018-08-08T11:09:45.000Z</time>
      </trkpt>
      <trkpt lat="42.71795" lon="0.65979">
        <ele>1474.5</ele>
        <time>2018-08-08T11:09:46.000Z</time>
      </trkpt>
      <trkpt lat="42.71795" lon="0.6598">
        <ele>1474.6</ele>
        <time>2018-08-08T11:09:47.000Z</time>
      </trkpt>
      <trkpt lat="42.71794" lon="0.65981">
        <ele>1474.7</ele>
        <time>2018-08-08T11:09:48.000Z</time>
      </trkpt>
      <trkpt lat="42.71794" lon="0.65982">
        <ele>1474.8</ele>
        <time>2018-08-08T11:09:49.000Z</time>
      </trkpt>
      <trkpt lat="42.71793" lon="0.65983">
        <ele>1474.9</ele>
        <time>2018-08-08T11:09:50.000Z</time>
      </trkpt>
      <trkpt lat="42.71793" lon="0.65984">
        <ele>1475</ele>
        <time>2018-08-08T11:09:51.000Z</time>
      </trkpt>
      <trkpt lat="42.71792" lon="0.65985">
        <ele>1475.1</ele>
        <time>2018-08-08T11:09:52.000Z</time>
      </trkpt>
      <trkpt lat="42.71792" lon="0.65985">
        <ele>1475.1</ele>
        <time>2018-08-08T11:09:53.000Z</time>
      </trkpt>
      <trkpt lat="42.71792" lon="0.65985">
        <ele>1475.1</ele>
        <time>2018-08-08T11:09:54.000Z</time>
      </trkpt>
      <trkpt lat="42.71791" lon="0.65986">
        <ele>1475.1</ele>
        <time>2018-08-08T11:09:55.000Z</time>
      </trkpt>
      <trkpt lat="42.71791" lon="0.65986">
        <ele>1475.2</ele>
        <time>2018-08-08T11:09:56.000Z</time>
      </trkpt>
      <trkpt lat="42.71791" lon="0.65987">
        <ele>1475.2</ele>
        <time>2018-08-08T11:09:57.000Z</time>
      </trkpt>
      <trkpt lat="42.71791" lon="0.65987">
        <ele>1475.3</ele>
        <time>2018-08-08T11:09:58.000Z</time>
      </trkpt>
      <trkpt lat="42.7179" lon="0.65987">
        <ele>1475.3</ele>
        <time>2018-08-08T11:09:59.000Z</time>
      </trkpt>
      <trkpt lat="42.7179" lon="0.65988">
        <ele>1475.3</ele>
        <time>2018-08-08T11:10:00.000Z</time>
      </trkpt>
      <trkpt lat="42.7179" lon="0.65988">
        <ele>1475.4</ele>
        <time>2018-08-08T11:10:01.000Z</time>
      </trkpt>
      <trkpt lat="42.7179" lon="0.65989">
        <ele>1475.4</ele>
        <time>2018-08-08T11:10:02.000Z</time>
      </trkpt>
      <trkpt lat="42.7179" lon="0.65989">
        <ele>1475.5</ele>
        <time>2018-08-08T11:10:03.000Z</time>
      </trkpt>
      <trkpt lat="42.7179" lon="0.6599">
        <ele>1475.5</ele>
        <time>2018-08-08T11:10:04.000Z</time>
      </trkpt>
      <trkpt lat="42.71789" lon="0.65991">
        <ele>1475.6</ele>
        <time>2018-08-08T11:10:05.000Z</time>
      </trkpt>
      <trkpt lat="42.71789" lon="0.65992">
        <ele>1475.7</ele>
        <time>2018-08-08T11:10:06.000Z</time>
      </trkpt>
      <trkpt lat="42.71788" lon="0.65992">
        <ele>1475.7</ele>
        <time>2018-08-08T11:10:07.000Z</time>
      </trkpt>
      <trkpt lat="42.71788" lon="0.65993">
        <ele>1475.8</ele>
        <time>2018-08-08T11:10:08.000Z</time>
      </trkpt>
      <trkpt lat="42.71788" lon="0.65994">
        <ele>1475.9</ele>
        <time>2018-08-08T11:10:09.000Z</time>
      </trkpt>
      <trkpt lat="42.71787" lon="0.65995">
        <ele>1476</ele>
        <time>2018-08-08T11:10:10.000Z</time>
      </trkpt>
      <trkpt lat="42.71787" lon="0.65996">
        <ele>1476</ele>
        <time>2018-08-08T11:10:11.000Z</time>
      </trkpt>
      <trkpt lat="42.71786" lon="0.65997">
        <ele>1476.1</ele>
        <time>2018-08-08T11:10:12.000Z</time>
      </trkpt>
      <trkpt lat="42.71786" lon="0.65998">
        <ele>1476.1</ele>
        <time>2018-08-08T11:10:13.000Z</time>
      </trkpt>
      <trkpt lat="42.71785" lon="0.65999">
        <ele>1476.1</ele>
        <time>2018-08-08T11:10:14.000Z</time>
      </trkpt>
      <trkpt lat="42.71785" lon="0.65999">
        <ele>1476.1</ele>
        <time>2018-08-08T11:10:15.000Z</time>
      </trkpt>
      <trkpt lat="42.71784" lon="0.66">
        <ele>1476.1</ele>
        <time>2018-08-08T11:10:16.000Z</time>
      </trkpt>
      <trkpt lat="42.71784" lon="0.66001">
        <ele>1476.2</ele>
        <time>2018-08-08T11:10:17.000Z</time>
      </trkpt>
      <trkpt lat="42.71783" lon="0.66001">
        <ele>1476.3</ele>
        <time>2018-08-08T11:10:18.000Z</time>
      </trkpt>
      <trkpt lat="42.71783" lon="0.66002">
        <ele>1476.3</ele>
        <time>2018-08-08T11:10:19.000Z</time>
      </trkpt>
      <trkpt lat="42.71782" lon="0.66002">
        <ele>1476.4</ele>
        <time>2018-08-08T11:10:20.000Z</time>
      </trkpt>
      <trkpt lat="42.71782" lon="0.66003">
        <ele>1476.5</ele>
        <time>2018-08-08T11:10:21.000Z</time>
      </trkpt>
      <trkpt lat="42.71781" lon="0.66003">
        <ele>1476.5</ele>
        <time>2018-08-08T11:10:22.000Z</time>
      </trkpt>
      <trkpt lat="42.71781" lon="0.66004">
        <ele>1476.6</ele>
        <time>2018-08-08T11:10:23.000Z</time>
      </trkpt>
      <trkpt lat="42.7178" lon="0.66004">
        <ele>1476.7</ele>
        <time>2018-08-08T11:10:24.000Z</time>
      </trkpt>
      <trkpt lat="42.7178" lon="0.66005">
        <ele>1476.7</ele>
        <time>2018-08-08T11:10:25.000Z</time>
      </trkpt>
      <trkpt lat="42.71779" lon="0.66006">
        <ele>1476.9</ele>
        <time>2018-08-08T11:10:26.000Z</time>
      </trkpt>
      <trkpt lat="42.71779" lon="0.66006">
        <ele>1477</ele>
        <time>2018-08-08T11:10:27.000Z</time>
      </trkpt>
      <trkpt lat="42.71778" lon="0.66007">
        <ele>1477.1</ele>
        <time>2018-08-08T11:10:28.000Z</time>
      </trkpt>
      <trkpt lat="42.71778" lon="0.66008">
        <ele>1477.3</ele>
        <time>2018-08-08T11:10:29.000Z</time>
      </trkpt>
      <trkpt lat="42.71778" lon="0.66009">
        <ele>1477.4</ele>
        <time>2018-08-08T11:10:30.000Z</time>
      </trkpt>
      <trkpt lat="42.71777" lon="0.6601">
        <ele>1477.7</ele>
        <time>2018-08-08T11:10:31.000Z</time>
      </trkpt>
      <trkpt lat="42.71777" lon="0.66011">
        <ele>1477.9</ele>
        <time>2018-08-08T11:10:32.000Z</time>
      </trkpt>
      <trkpt lat="42.71777" lon="0.66012">
        <ele>1478.1</ele>
        <time>2018-08-08T11:10:33.000Z</time>
      </trkpt>
      <trkpt lat="42.71776" lon="0.66013">
        <ele>1478.3</ele>
        <time>2018-08-08T11:10:34.000Z</time>
      </trkpt>
      <trkpt lat="42.71776" lon="0.66014">
        <ele>1478.6</ele>
        <time>2018-08-08T11:10:35.000Z</time>
      </trkpt>
      <trkpt lat="42.71776" lon="0.66015">
        <ele>1478.8</ele>
        <time>2018-08-08T11:10:36.000Z</time>
      </trkpt>
      <trkpt lat="42.71775" lon="0.66016">
        <ele>1479</ele>
        <time>2018-08-08T11:10:37.000Z</time>
      </trkpt>
      <trkpt lat="42.71775" lon="0.66018">
        <ele>1479.3</ele>
        <time>2018-08-08T11:10:38.000Z</time>
      </trkpt>
      <trkpt lat="42.71775" lon="0.66019">
        <ele>1479.5</ele>
        <time>2018-08-08T11:10:39.000Z</time>
      </trkpt>
      <trkpt lat="42.71775" lon="0.6602">
        <ele>1479.7</ele>
        <time>2018-08-08T11:10:40.000Z</time>
      </trkpt>
      <trkpt lat="42.71774" lon="0.66021">
        <ele>1480</ele>
        <time>2018-08-08T11:10:41.000Z</time>
      </trkpt>
      <trkpt lat="42.71774" lon="0.66022">
        <ele>1480.2</ele>
        <time>2018-08-08T11:10:42.000Z</time>
      </trkpt>
      <trkpt lat="42.71773" lon="0.66023">
        <ele>1480.4</ele>
        <time>2018-08-08T11:10:43.000Z</time>
      </trkpt>
      <trkpt lat="42.71773" lon="0.66024">
        <ele>1480.6</ele>
        <time>2018-08-08T11:10:44.000Z</time>
      </trkpt>
      <trkpt lat="42.71772" lon="0.66025">
        <ele>1480.7</ele>
        <time>2018-08-08T11:10:45.000Z</time>
      </trkpt>
      <trkpt lat="42.71772" lon="0.66026">
        <ele>1480.9</ele>
        <time>2018-08-08T11:10:46.000Z</time>
      </trkpt>
      <trkpt lat="42.71772" lon="0.66027">
        <ele>1481.1</ele>
        <time>2018-08-08T11:10:47.000Z</time>
      </trkpt>
      <trkpt lat="42.71771" lon="0.66028">
        <ele>1481.2</ele>
        <time>2018-08-08T11:10:48.000Z</time>
      </trkpt>
      <trkpt lat="42.7177" lon="0.6603">
        <ele>1481.3</ele>
        <time>2018-08-08T11:10:49.000Z</time>
      </trkpt>
      <trkpt lat="42.7177" lon="0.66031">
        <ele>1481.5</ele>
        <time>2018-08-08T11:10:50.000Z</time>
      </trkpt>
      <trkpt lat="42.71769" lon="0.66032">
        <ele>1481.6</ele>
        <time>2018-08-08T11:10:51.000Z</time>
      </trkpt>
      <trkpt lat="42.71769" lon="0.66033">
        <ele>1481.7</ele>
        <time>2018-08-08T11:10:52.000Z</time>
      </trkpt>
      <trkpt lat="42.71768" lon="0.66034">
        <ele>1481.9</ele>
        <time>2018-08-08T11:10:53.000Z</time>
      </trkpt>
      <trkpt lat="42.71768" lon="0.66035">
        <ele>1482</ele>
        <time>2018-08-08T11:10:54.000Z</time>
      </trkpt>
      <trkpt lat="42.71767" lon="0.66036">
        <ele>1482.2</ele>
        <time>2018-08-08T11:10:55.000Z</time>
      </trkpt>
      <trkpt lat="42.71767" lon="0.66037">
        <ele>1482.3</ele>
        <time>2018-08-08T11:10:56.000Z</time>
      </trkpt>
      <trkpt lat="42.71766" lon="0.66038">
        <ele>1482.4</ele>
        <time>2018-08-08T11:10:57.000Z</time>
      </trkpt>
      <trkpt lat="42.71766" lon="0.6604">
        <ele>1482.6</ele>
        <time>2018-08-08T11:10:58.000Z</time>
      </trkpt>
      <trkpt lat="42.71765" lon="0.66041">
        <ele>1482.8</ele>
        <time>2018-08-08T11:10:59.000Z</time>
      </trkpt>
      <trkpt lat="42.71765" lon="0.66042">
        <ele>1482.9</ele>
        <time>2018-08-08T11:11:00.000Z</time>
      </trkpt>
      <trkpt lat="42.71764" lon="0.66043">
        <ele>1483</ele>
        <time>2018-08-08T11:11:01.000Z</time>
      </trkpt>
      <trkpt lat="42.71764" lon="0.66045">
        <ele>1483.2</ele>
        <time>2018-08-08T11:11:02.000Z</time>
      </trkpt>
      <trkpt lat="42.71763" lon="0.66046">
        <ele>1483.3</ele>
        <time>2018-08-08T11:11:03.000Z</time>
      </trkpt>
      <trkpt lat="42.71762" lon="0.66047">
        <ele>1483.4</ele>
        <time>2018-08-08T11:11:04.000Z</time>
      </trkpt>
      <trkpt lat="42.71762" lon="0.66048">
        <ele>1483.6</ele>
        <time>2018-08-08T11:11:05.000Z</time>
      </trkpt>
      <trkpt lat="42.71761" lon="0.6605">
        <ele>1483.7</ele>
        <time>2018-08-08T11:11:06.000Z</time>
      </trkpt>
      <trkpt lat="42.71761" lon="0.66051">
        <ele>1483.7</ele>
        <time>2018-08-08T11:11:07.000Z</time>
      </trkpt>
      <trkpt lat="42.7176" lon="0.66052">
        <ele>1483.8</ele>
        <time>2018-08-08T11:11:08.000Z</time>
      </trkpt>
      <trkpt lat="42.71759" lon="0.66053">
        <ele>1483.8</ele>
        <time>2018-08-08T11:11:09.000Z</time>
      </trkpt>
      <trkpt lat="42.71759" lon="0.66054">
        <ele>1483.8</ele>
        <time>2018-08-08T11:11:10.000Z</time>
      </trkpt>
      <trkpt lat="42.71758" lon="0.66055">
        <ele>1483.8</ele>
        <time>2018-08-08T11:11:11.000Z</time>
      </trkpt>
      <trkpt lat="42.71757" lon="0.66056">
        <ele>1483.7</ele>
        <time>2018-08-08T11:11:12.000Z</time>
      </trkpt>
      <trkpt lat="42.71756" lon="0.66057">
        <ele>1483.6</ele>
        <time>2018-08-08T11:11:13.000Z</time>
      </trkpt>
      <trkpt lat="42.71755" lon="0.66058">
        <ele>1483.5</ele>
        <time>2018-08-08T11:11:14.000Z</time>
      </trkpt>
      <trkpt lat="42.71754" lon="0.66059">
        <ele>1483.4</ele>
        <time>2018-08-08T11:11:15.000Z</time>
      </trkpt>
      <trkpt lat="42.71753" lon="0.66059">
        <ele>1483.3</ele>
        <time>2018-08-08T11:11:16.000Z</time>
      </trkpt>
      <trkpt lat="42.71753" lon="0.6606">
        <ele>1483.1</ele>
        <time>2018-08-08T11:11:17.000Z</time>
      </trkpt>
      <trkpt lat="42.71752" lon="0.66061">
        <ele>1482.9</ele>
        <time>2018-08-08T11:11:18.000Z</time>
      </trkpt>
      <trkpt lat="42.71751" lon="0.66062">
        <ele>1482.8</ele>
        <time>2018-08-08T11:11:19.000Z</time>
      </trkpt>
      <trkpt lat="42.7175" lon="0.66062">
        <ele>1482.8</ele>
        <time>2018-08-08T11:11:20.000Z</time>
      </trkpt>
      <trkpt lat="42.71749" lon="0.66063">
        <ele>1483.2</ele>
        <time>2018-08-08T11:11:21.000Z</time>
      </trkpt>
      <trkpt lat="42.71748" lon="0.66064">
        <ele>1483.5</ele>
        <time>2018-08-08T11:11:22.000Z</time>
      </trkpt>
      <trkpt lat="42.71747" lon="0.66064">
        <ele>1483.9</ele>
        <time>2018-08-08T11:11:23.000Z</time>
      </trkpt>
      <trkpt lat="42.71746" lon="0.66065">
        <ele>1484.3</ele>
        <time>2018-08-08T11:11:24.000Z</time>
      </trkpt>
      <trkpt lat="42.71745" lon="0.66066">
        <ele>1484.7</ele>
        <time>2018-08-08T11:11:25.000Z</time>
      </trkpt>
      <trkpt lat="42.71745" lon="0.66067">
        <ele>1485</ele>
        <time>2018-08-08T11:11:26.000Z</time>
      </trkpt>
      <trkpt lat="42.71744" lon="0.66068">
        <ele>1485.4</ele>
        <time>2018-08-08T11:11:27.000Z</time>
      </trkpt>
      <trkpt lat="42.71743" lon="0.66069">
        <ele>1485.7</ele>
        <time>2018-08-08T11:11:28.000Z</time>
      </trkpt>
      <trkpt lat="42.71742" lon="0.66069">
        <ele>1486</ele>
        <time>2018-08-08T11:11:29.000Z</time>
      </trkpt>
      <trkpt lat="42.71742" lon="0.6607">
        <ele>1486.3</ele>
        <time>2018-08-08T11:11:30.000Z</time>
      </trkpt>
      <trkpt lat="42.71741" lon="0.66071">
        <ele>1486.7</ele>
        <time>2018-08-08T11:11:31.000Z</time>
      </trkpt>
      <trkpt lat="42.71741" lon="0.66072">
        <ele>1487</ele>
        <time>2018-08-08T11:11:32.000Z</time>
      </trkpt>
      <trkpt lat="42.7174" lon="0.66073">
        <ele>1487.3</ele>
        <time>2018-08-08T11:11:33.000Z</time>
      </trkpt>
      <trkpt lat="42.71739" lon="0.66074">
        <ele>1487.6</ele>
        <time>2018-08-08T11:11:34.000Z</time>
      </trkpt>
      <trkpt lat="42.71739" lon="0.66075">
        <ele>1487.9</ele>
        <time>2018-08-08T11:11:35.000Z</time>
      </trkpt>
      <trkpt lat="42.71738" lon="0.66076">
        <ele>1488.1</ele>
        <time>2018-08-08T11:11:36.000Z</time>
      </trkpt>
      <trkpt lat="42.71738" lon="0.66077">
        <ele>1488.4</ele>
        <time>2018-08-08T11:11:37.000Z</time>
      </trkpt>
      <trkpt lat="42.71737" lon="0.66078">
        <ele>1488.7</ele>
        <time>2018-08-08T11:11:38.000Z</time>
      </trkpt>
      <trkpt lat="42.71736" lon="0.66078">
        <ele>1489</ele>
        <time>2018-08-08T11:11:39.000Z</time>
      </trkpt>
      <trkpt lat="42.71736" lon="0.66079">
        <ele>1489.2</ele>
        <time>2018-08-08T11:11:40.000Z</time>
      </trkpt>
      <trkpt lat="42.71735" lon="0.6608">
        <ele>1489.5</ele>
        <time>2018-08-08T11:11:41.000Z</time>
      </trkpt>
      <trkpt lat="42.71735" lon="0.66081">
        <ele>1489.7</ele>
        <time>2018-08-08T11:11:42.000Z</time>
      </trkpt>
      <trkpt lat="42.71734" lon="0.66081">
        <ele>1490</ele>
        <time>2018-08-08T11:11:43.000Z</time>
      </trkpt>
      <trkpt lat="42.71733" lon="0.66082">
        <ele>1490.2</ele>
        <time>2018-08-08T11:11:44.000Z</time>
      </trkpt>
      <trkpt lat="42.71733" lon="0.66083">
        <ele>1490.4</ele>
        <time>2018-08-08T11:11:45.000Z</time>
      </trkpt>
      <trkpt lat="42.71732" lon="0.66084">
        <ele>1490.7</ele>
        <time>2018-08-08T11:11:46.000Z</time>
      </trkpt>
      <trkpt lat="42.71732" lon="0.66084">
        <ele>1491</ele>
        <time>2018-08-08T11:11:47.000Z</time>
      </trkpt>
      <trkpt lat="42.71731" lon="0.66085">
        <ele>1491.3</ele>
        <time>2018-08-08T11:11:48.000Z</time>
      </trkpt>
      <trkpt lat="42.7173" lon="0.66086">
        <ele>1491.5</ele>
        <time>2018-08-08T11:11:49.000Z</time>
      </trkpt>
      <trkpt lat="42.7173" lon="0.66087">
        <ele>1491.8</ele>
        <time>2018-08-08T11:11:50.000Z</time>
      </trkpt>
      <trkpt lat="42.71729" lon="0.66087">
        <ele>1492.1</ele>
        <time>2018-08-08T11:11:51.000Z</time>
      </trkpt>
      <trkpt lat="42.71729" lon="0.66088">
        <ele>1492.4</ele>
        <time>2018-08-08T11:11:52.000Z</time>
      </trkpt>
      <trkpt lat="42.71728" lon="0.66089">
        <ele>1492.6</ele>
        <time>2018-08-08T11:11:53.000Z</time>
      </trkpt>
      <trkpt lat="42.71727" lon="0.6609">
        <ele>1492.9</ele>
        <time>2018-08-08T11:11:54.000Z</time>
      </trkpt>
      <trkpt lat="42.71727" lon="0.66091">
        <ele>1493.2</ele>
        <time>2018-08-08T11:11:55.000Z</time>
      </trkpt>
      <trkpt lat="42.71726" lon="0.66092">
        <ele>1493.5</ele>
        <time>2018-08-08T11:11:56.000Z</time>
      </trkpt>
      <trkpt lat="42.71726" lon="0.66093">
        <ele>1493.7</ele>
        <time>2018-08-08T11:11:57.000Z</time>
      </trkpt>
      <trkpt lat="42.71725" lon="0.66094">
        <ele>1494</ele>
        <time>2018-08-08T11:11:58.000Z</time>
      </trkpt>
      <trkpt lat="42.71725" lon="0.66095">
        <ele>1494.3</ele>
        <time>2018-08-08T11:11:59.000Z</time>
      </trkpt>
      <trkpt lat="42.71724" lon="0.66096">
        <ele>1494.5</ele>
        <time>2018-08-08T11:12:00.000Z</time>
      </trkpt>
      <trkpt lat="42.71724" lon="0.66097">
        <ele>1494.8</ele>
        <time>2018-08-08T11:12:01.000Z</time>
      </trkpt>
      <trkpt lat="42.71723" lon="0.66098">
        <ele>1495</ele>
        <time>2018-08-08T11:12:02.000Z</time>
      </trkpt>
      <trkpt lat="42.71723" lon="0.66099">
        <ele>1495.3</ele>
        <time>2018-08-08T11:12:03.000Z</time>
      </trkpt>
      <trkpt lat="42.71722" lon="0.661">
        <ele>1495.5</ele>
        <time>2018-08-08T11:12:04.000Z</time>
      </trkpt>
      <trkpt lat="42.71722" lon="0.66101">
        <ele>1495.8</ele>
        <time>2018-08-08T11:12:05.000Z</time>
      </trkpt>
      <trkpt lat="42.71721" lon="0.66103">
        <ele>1496</ele>
        <time>2018-08-08T11:12:06.000Z</time>
      </trkpt>
      <trkpt lat="42.71721" lon="0.66104">
        <ele>1496.2</ele>
        <time>2018-08-08T11:12:07.000Z</time>
      </trkpt>
      <trkpt lat="42.7172" lon="0.66105">
        <ele>1496.5</ele>
        <time>2018-08-08T11:12:08.000Z</time>
      </trkpt>
      <trkpt lat="42.7172" lon="0.66106">
        <ele>1496.7</ele>
        <time>2018-08-08T11:12:09.000Z</time>
      </trkpt>
      <trkpt lat="42.71719" lon="0.66107">
        <ele>1496.9</ele>
        <time>2018-08-08T11:12:10.000Z</time>
      </trkpt>
      <trkpt lat="42.71719" lon="0.66108">
        <ele>1497.1</ele>
        <time>2018-08-08T11:12:11.000Z</time>
      </trkpt>
      <trkpt lat="42.71718" lon="0.66109">
        <ele>1497.3</ele>
        <time>2018-08-08T11:12:12.000Z</time>
      </trkpt>
      <trkpt lat="42.71717" lon="0.66109">
        <ele>1497.4</ele>
        <time>2018-08-08T11:12:13.000Z</time>
      </trkpt>
      <trkpt lat="42.71717" lon="0.6611">
        <ele>1497.6</ele>
        <time>2018-08-08T11:12:14.000Z</time>
      </trkpt>
      <trkpt lat="42.71716" lon="0.66111">
        <ele>1497.8</ele>
        <time>2018-08-08T11:12:15.000Z</time>
      </trkpt>
      <trkpt lat="42.71716" lon="0.66112">
        <ele>1497.9</ele>
        <time>2018-08-08T11:12:16.000Z</time>
      </trkpt>
      <trkpt lat="42.71715" lon="0.66113">
        <ele>1498.1</ele>
        <time>2018-08-08T11:12:17.000Z</time>
      </trkpt>
      <trkpt lat="42.71714" lon="0.66114">
        <ele>1498.3</ele>
        <time>2018-08-08T11:12:18.000Z</time>
      </trkpt>
      <trkpt lat="42.71714" lon="0.66115">
        <ele>1498.4</ele>
        <time>2018-08-08T11:12:19.000Z</time>
      </trkpt>
      <trkpt lat="42.71713" lon="0.66115">
        <ele>1498.5</ele>
        <time>2018-08-08T11:12:20.000Z</time>
      </trkpt>
      <trkpt lat="42.71712" lon="0.66116">
        <ele>1498.7</ele>
        <time>2018-08-08T11:12:21.000Z</time>
      </trkpt>
      <trkpt lat="42.71712" lon="0.66117">
        <ele>1498.8</ele>
        <time>2018-08-08T11:12:22.000Z</time>
      </trkpt>
      <trkpt lat="42.71711" lon="0.66118">
        <ele>1498.9</ele>
        <time>2018-08-08T11:12:23.000Z</time>
      </trkpt>
      <trkpt lat="42.7171" lon="0.66119">
        <ele>1499</ele>
        <time>2018-08-08T11:12:24.000Z</time>
      </trkpt>
      <trkpt lat="42.71709" lon="0.6612">
        <ele>1499.2</ele>
        <time>2018-08-08T11:12:25.000Z</time>
      </trkpt>
      <trkpt lat="42.71709" lon="0.6612">
        <ele>1499.3</ele>
        <time>2018-08-08T11:12:26.000Z</time>
      </trkpt>
      <trkpt lat="42.71708" lon="0.66121">
        <ele>1499.4</ele>
        <time>2018-08-08T11:12:27.000Z</time>
      </trkpt>
      <trkpt lat="42.71707" lon="0.66122">
        <ele>1499.5</ele>
        <time>2018-08-08T11:12:28.000Z</time>
      </trkpt>
      <trkpt lat="42.71706" lon="0.66123">
        <ele>1499.6</ele>
        <time>2018-08-08T11:12:29.000Z</time>
      </trkpt>
      <trkpt lat="42.71705" lon="0.66124">
        <ele>1499.6</ele>
        <time>2018-08-08T11:12:30.000Z</time>
      </trkpt>
      <trkpt lat="42.71704" lon="0.66124">
        <ele>1499.7</ele>
        <time>2018-08-08T11:12:31.000Z</time>
      </trkpt>
      <trkpt lat="42.71704" lon="0.66125">
        <ele>1499.8</ele>
        <time>2018-08-08T11:12:32.000Z</time>
      </trkpt>
      <trkpt lat="42.71703" lon="0.66126">
        <ele>1499.9</ele>
        <time>2018-08-08T11:12:33.000Z</time>
      </trkpt>
      <trkpt lat="42.71702" lon="0.66127">
        <ele>1499.9</ele>
        <time>2018-08-08T11:12:34.000Z</time>
      </trkpt>
      <trkpt lat="42.71701" lon="0.66128">
        <ele>1500</ele>
        <time>2018-08-08T11:12:35.000Z</time>
      </trkpt>
      <trkpt lat="42.71701" lon="0.66129">
        <ele>1500</ele>
        <time>2018-08-08T11:12:36.000Z</time>
      </trkpt>
      <trkpt lat="42.717" lon="0.6613">
        <ele>1500.1</ele>
        <time>2018-08-08T11:12:37.000Z</time>
      </trkpt>
      <trkpt lat="42.71699" lon="0.6613">
        <ele>1500.1</ele>
        <time>2018-08-08T11:12:38.000Z</time>
      </trkpt>
      <trkpt lat="42.71698" lon="0.66131">
        <ele>1500.2</ele>
        <time>2018-08-08T11:12:39.000Z</time>
      </trkpt>
      <trkpt lat="42.71698" lon="0.66132">
        <ele>1500.2</ele>
        <time>2018-08-08T11:12:40.000Z</time>
      </trkpt>
      <trkpt lat="42.71697" lon="0.66133">
        <ele>1500.2</ele>
        <time>2018-08-08T11:12:41.000Z</time>
      </trkpt>
      <trkpt lat="42.71696" lon="0.66134">
        <ele>1500.2</ele>
        <time>2018-08-08T11:12:42.000Z</time>
      </trkpt>
      <trkpt lat="42.71695" lon="0.66135">
        <ele>1500.2</ele>
        <time>2018-08-08T11:12:43.000Z</time>
      </trkpt>
      <trkpt lat="42.71695" lon="0.66136">
        <ele>1500.2</ele>
        <time>2018-08-08T11:12:44.000Z</time>
      </trkpt>
      <trkpt lat="42.71694" lon="0.66137">
        <ele>1500.3</ele>
        <time>2018-08-08T11:12:45.000Z</time>
      </trkpt>
      <trkpt lat="42.71693" lon="0.66138">
        <ele>1500.2</ele>
        <time>2018-08-08T11:12:46.000Z</time>
      </trkpt>
      <trkpt lat="42.71693" lon="0.66139">
        <ele>1500.2</ele>
        <time>2018-08-08T11:12:47.000Z</time>
      </trkpt>
      <trkpt lat="42.71692" lon="0.6614">
        <ele>1500.2</ele>
        <time>2018-08-08T11:12:48.000Z</time>
      </trkpt>
      <trkpt lat="42.71691" lon="0.66141">
        <ele>1500.2</ele>
        <time>2018-08-08T11:12:49.000Z</time>
      </trkpt>
      <trkpt lat="42.71691" lon="0.66142">
        <ele>1500.2</ele>
        <time>2018-08-08T11:12:50.000Z</time>
      </trkpt>
      <trkpt lat="42.7169" lon="0.66143">
        <ele>1500.1</ele>
        <time>2018-08-08T11:12:51.000Z</time>
      </trkpt>
      <trkpt lat="42.7169" lon="0.66144">
        <ele>1500.1</ele>
        <time>2018-08-08T11:12:52.000Z</time>
      </trkpt>
      <trkpt lat="42.71689" lon="0.66145">
        <ele>1500.1</ele>
        <time>2018-08-08T11:12:53.000Z</time>
      </trkpt>
      <trkpt lat="42.71688" lon="0.66146">
        <ele>1500</ele>
        <time>2018-08-08T11:12:54.000Z</time>
      </trkpt>
      <trkpt lat="42.71688" lon="0.66147">
        <ele>1500</ele>
        <time>2018-08-08T11:12:55.000Z</time>
      </trkpt>
      <trkpt lat="42.71687" lon="0.66148">
        <ele>1499.9</ele>
        <time>2018-08-08T11:12:56.000Z</time>
      </trkpt>
      <trkpt lat="42.71686" lon="0.66149">
        <ele>1499.8</ele>
        <time>2018-08-08T11:12:57.000Z</time>
      </trkpt>
      <trkpt lat="42.71686" lon="0.6615">
        <ele>1499.7</ele>
        <time>2018-08-08T11:12:58.000Z</time>
      </trkpt>
      <trkpt lat="42.71685" lon="0.66151">
        <ele>1499.7</ele>
        <time>2018-08-08T11:12:59.000Z</time>
      </trkpt>
      <trkpt lat="42.71684" lon="0.66152">
        <ele>1499.6</ele>
        <time>2018-08-08T11:13:00.000Z</time>
      </trkpt>
      <trkpt lat="42.71684" lon="0.66153">
        <ele>1499.5</ele>
        <time>2018-08-08T11:13:01.000Z</time>
      </trkpt>
      <trkpt lat="42.71683" lon="0.66154">
        <ele>1499.4</ele>
        <time>2018-08-08T11:13:02.000Z</time>
      </trkpt>
      <trkpt lat="42.71683" lon="0.66155">
        <ele>1499.3</ele>
        <time>2018-08-08T11:13:03.000Z</time>
      </trkpt>
      <trkpt lat="42.71682" lon="0.66156">
        <ele>1499.2</ele>
        <time>2018-08-08T11:13:04.000Z</time>
      </trkpt>
      <trkpt lat="42.71681" lon="0.66157">
        <ele>1499.1</ele>
        <time>2018-08-08T11:13:05.000Z</time>
      </trkpt>
      <trkpt lat="42.71681" lon="0.66158">
        <ele>1498.9</ele>
        <time>2018-08-08T11:13:06.000Z</time>
      </trkpt>
      <trkpt lat="42.7168" lon="0.66159">
        <ele>1498.8</ele>
        <time>2018-08-08T11:13:07.000Z</time>
      </trkpt>
      <trkpt lat="42.71679" lon="0.6616">
        <ele>1498.7</ele>
        <time>2018-08-08T11:13:08.000Z</time>
      </trkpt>
      <trkpt lat="42.71679" lon="0.66161">
        <ele>1498.5</ele>
        <time>2018-08-08T11:13:09.000Z</time>
      </trkpt>
      <trkpt lat="42.71678" lon="0.66162">
        <ele>1498.4</ele>
        <time>2018-08-08T11:13:10.000Z</time>
      </trkpt>
      <trkpt lat="42.71678" lon="0.66164">
        <ele>1498.2</ele>
        <time>2018-08-08T11:13:11.000Z</time>
      </trkpt>
      <trkpt lat="42.71677" lon="0.66165">
        <ele>1498.1</ele>
        <time>2018-08-08T11:13:12.000Z</time>
      </trkpt>
      <trkpt lat="42.71676" lon="0.66166">
        <ele>1497.9</ele>
        <time>2018-08-08T11:13:13.000Z</time>
      </trkpt>
      <trkpt lat="42.71676" lon="0.66167">
        <ele>1497.8</ele>
        <time>2018-08-08T11:13:14.000Z</time>
      </trkpt>
      <trkpt lat="42.71675" lon="0.66168">
        <ele>1497.7</ele>
        <time>2018-08-08T11:13:15.000Z</time>
      </trkpt>
      <trkpt lat="42.71675" lon="0.66169">
        <ele>1497.7</ele>
        <time>2018-08-08T11:13:16.000Z</time>
      </trkpt>
      <trkpt lat="42.71674" lon="0.6617">
        <ele>1497.7</ele>
        <time>2018-08-08T11:13:17.000Z</time>
      </trkpt>
      <trkpt lat="42.71673" lon="0.66171">
        <ele>1497.7</ele>
        <time>2018-08-08T11:13:18.000Z</time>
      </trkpt>
      <trkpt lat="42.71673" lon="0.66172">
        <ele>1497.7</ele>
        <time>2018-08-08T11:13:19.000Z</time>
      </trkpt>
      <trkpt lat="42.71672" lon="0.66173">
        <ele>1497.6</ele>
        <time>2018-08-08T11:13:20.000Z</time>
      </trkpt>
      <trkpt lat="42.71672" lon="0.66174">
        <ele>1497.6</ele>
        <time>2018-08-08T11:13:21.000Z</time>
      </trkpt>
      <trkpt lat="42.71671" lon="0.66175">
        <ele>1497.6</ele>
        <time>2018-08-08T11:13:22.000Z</time>
      </trkpt>
      <trkpt lat="42.71671" lon="0.66176">
        <ele>1497.5</ele>
        <time>2018-08-08T11:13:23.000Z</time>
      </trkpt>
      <trkpt lat="42.7167" lon="0.66177">
        <ele>1497.5</ele>
        <time>2018-08-08T11:13:24.000Z</time>
      </trkpt>
      <trkpt lat="42.71669" lon="0.66178">
        <ele>1497.4</ele>
        <time>2018-08-08T11:13:25.000Z</time>
      </trkpt>
      <trkpt lat="42.71669" lon="0.66179">
        <ele>1497.4</ele>
        <time>2018-08-08T11:13:26.000Z</time>
      </trkpt>
      <trkpt lat="42.71668" lon="0.6618">
        <ele>1497.4</ele>
        <time>2018-08-08T11:13:27.000Z</time>
      </trkpt>
      <trkpt lat="42.71668" lon="0.66182">
        <ele>1497.3</ele>
        <time>2018-08-08T11:13:28.000Z</time>
      </trkpt>
      <trkpt lat="42.71667" lon="0.66183">
        <ele>1497.3</ele>
        <time>2018-08-08T11:13:29.000Z</time>
      </trkpt>
      <trkpt lat="42.71667" lon="0.66184">
        <ele>1497.2</ele>
        <time>2018-08-08T11:13:30.000Z</time>
      </trkpt>
      <trkpt lat="42.71666" lon="0.66185">
        <ele>1497.6</ele>
        <time>2018-08-08T11:13:31.000Z</time>
      </trkpt>
      <trkpt lat="42.71666" lon="0.66186">
        <ele>1497.9</ele>
        <time>2018-08-08T11:13:32.000Z</time>
      </trkpt>
      <trkpt lat="42.71665" lon="0.66187">
        <ele>1498.3</ele>
        <time>2018-08-08T11:13:33.000Z</time>
      </trkpt>
      <trkpt lat="42.71665" lon="0.66188">
        <ele>1498.7</ele>
        <time>2018-08-08T11:13:34.000Z</time>
      </trkpt>
      <trkpt lat="42.71664" lon="0.66189">
        <ele>1499</ele>
        <time>2018-08-08T11:13:35.000Z</time>
      </trkpt>
      <trkpt lat="42.71664" lon="0.6619">
        <ele>1499.3</ele>
        <time>2018-08-08T11:13:36.000Z</time>
      </trkpt>
      <trkpt lat="42.71663" lon="0.66192">
        <ele>1499.7</ele>
        <time>2018-08-08T11:13:37.000Z</time>
      </trkpt>
      <trkpt lat="42.71663" lon="0.66193">
        <ele>1500</ele>
        <time>2018-08-08T11:13:38.000Z</time>
      </trkpt>
      <trkpt lat="42.71662" lon="0.66194">
        <ele>1500.3</ele>
        <time>2018-08-08T11:13:39.000Z</time>
      </trkpt>
      <trkpt lat="42.71662" lon="0.66195">
        <ele>1500.6</ele>
        <time>2018-08-08T11:13:40.000Z</time>
      </trkpt>
      <trkpt lat="42.71661" lon="0.66196">
        <ele>1500.9</ele>
        <time>2018-08-08T11:13:41.000Z</time>
      </trkpt>
      <trkpt lat="42.71661" lon="0.66197">
        <ele>1501.2</ele>
        <time>2018-08-08T11:13:42.000Z</time>
      </trkpt>
      <trkpt lat="42.7166" lon="0.66199">
        <ele>1501.5</ele>
        <time>2018-08-08T11:13:43.000Z</time>
      </trkpt>
      <trkpt lat="42.7166" lon="0.662">
        <ele>1501.8</ele>
        <time>2018-08-08T11:13:44.000Z</time>
      </trkpt>
      <trkpt lat="42.71659" lon="0.66201">
        <ele>1502.1</ele>
        <time>2018-08-08T11:13:45.000Z</time>
      </trkpt>
      <trkpt lat="42.71659" lon="0.66202">
        <ele>1502.4</ele>
        <time>2018-08-08T11:13:46.000Z</time>
      </trkpt>
      <trkpt lat="42.71658" lon="0.66203">
        <ele>1502.6</ele>
        <time>2018-08-08T11:13:47.000Z</time>
      </trkpt>
      <trkpt lat="42.71658" lon="0.66205">
        <ele>1502.9</ele>
        <time>2018-08-08T11:13:48.000Z</time>
      </trkpt>
      <trkpt lat="42.71657" lon="0.66206">
        <ele>1503.1</ele>
        <time>2018-08-08T11:13:49.000Z</time>
      </trkpt>
      <trkpt lat="42.71657" lon="0.66207">
        <ele>1503.4</ele>
        <time>2018-08-08T11:13:50.000Z</time>
      </trkpt>
      <trkpt lat="42.71657" lon="0.66208">
        <ele>1503.6</ele>
        <time>2018-08-08T11:13:51.000Z</time>
      </trkpt>
      <trkpt lat="42.71656" lon="0.66209">
        <ele>1503.9</ele>
        <time>2018-08-08T11:13:52.000Z</time>
      </trkpt>
      <trkpt lat="42.71656" lon="0.66211">
        <ele>1504.1</ele>
        <time>2018-08-08T11:13:53.000Z</time>
      </trkpt>
      <trkpt lat="42.71655" lon="0.66212">
        <ele>1504.4</ele>
        <time>2018-08-08T11:13:54.000Z</time>
      </trkpt>
      <trkpt lat="42.71655" lon="0.66213">
        <ele>1504.6</ele>
        <time>2018-08-08T11:13:55.000Z</time>
      </trkpt>
      <trkpt lat="42.71654" lon="0.66214">
        <ele>1504.9</ele>
        <time>2018-08-08T11:13:56.000Z</time>
      </trkpt>
      <trkpt lat="42.71654" lon="0.66216">
        <ele>1505.1</ele>
        <time>2018-08-08T11:13:57.000Z</time>
      </trkpt>
      <trkpt lat="42.71653" lon="0.66217">
        <ele>1505.3</ele>
        <time>2018-08-08T11:13:58.000Z</time>
      </trkpt>
      <trkpt lat="42.71653" lon="0.66218">
        <ele>1505.6</ele>
        <time>2018-08-08T11:13:59.000Z</time>
      </trkpt>
      <trkpt lat="42.71652" lon="0.66219">
        <ele>1505.8</ele>
        <time>2018-08-08T11:14:00.000Z</time>
      </trkpt>
      <trkpt lat="42.71651" lon="0.6622">
        <ele>1506.1</ele>
        <time>2018-08-08T11:14:01.000Z</time>
      </trkpt>
      <trkpt lat="42.71651" lon="0.66222">
        <ele>1506.3</ele>
        <time>2018-08-08T11:14:02.000Z</time>
      </trkpt>
      <trkpt lat="42.7165" lon="0.66223">
        <ele>1506.6</ele>
        <time>2018-08-08T11:14:03.000Z</time>
      </trkpt>
      <trkpt lat="42.7165" lon="0.66224">
        <ele>1506.9</ele>
        <time>2018-08-08T11:14:04.000Z</time>
      </trkpt>
      <trkpt lat="42.71649" lon="0.66225">
        <ele>1507.1</ele>
        <time>2018-08-08T11:14:05.000Z</time>
      </trkpt>
      <trkpt lat="42.71648" lon="0.66227">
        <ele>1507.4</ele>
        <time>2018-08-08T11:14:06.000Z</time>
      </trkpt>
      <trkpt lat="42.71647" lon="0.66228">
        <ele>1507.7</ele>
        <time>2018-08-08T11:14:07.000Z</time>
      </trkpt>
      <trkpt lat="42.71647" lon="0.66229">
        <ele>1507.9</ele>
        <time>2018-08-08T11:14:08.000Z</time>
      </trkpt>
      <trkpt lat="42.71646" lon="0.6623">
        <ele>1508.1</ele>
        <time>2018-08-08T11:14:09.000Z</time>
      </trkpt>
      <trkpt lat="42.71646" lon="0.66231">
        <ele>1508.4</ele>
        <time>2018-08-08T11:14:10.000Z</time>
      </trkpt>
      <trkpt lat="42.71645" lon="0.66232">
        <ele>1508.6</ele>
        <time>2018-08-08T11:14:11.000Z</time>
      </trkpt>
      <trkpt lat="42.71644" lon="0.66233">
        <ele>1508.7</ele>
        <time>2018-08-08T11:14:12.000Z</time>
      </trkpt>
      <trkpt lat="42.71644" lon="0.66234">
        <ele>1508.9</ele>
        <time>2018-08-08T11:14:13.000Z</time>
      </trkpt>
      <trkpt lat="42.71643" lon="0.66234">
        <ele>1509</ele>
        <time>2018-08-08T11:14:14.000Z</time>
      </trkpt>
      <trkpt lat="42.71643" lon="0.66235">
        <ele>1509.2</ele>
        <time>2018-08-08T11:14:15.000Z</time>
      </trkpt>
      <trkpt lat="42.71643" lon="0.66235">
        <ele>1509.3</ele>
        <time>2018-08-08T11:14:16.000Z</time>
      </trkpt>
      <trkpt lat="42.71643" lon="0.66236">
        <ele>1509.3</ele>
        <time>2018-08-08T11:14:17.000Z</time>
      </trkpt>
      <trkpt lat="42.71642" lon="0.66236">
        <ele>1509.4</ele>
        <time>2018-08-08T11:14:18.000Z</time>
      </trkpt>
      <trkpt lat="42.71642" lon="0.66236">
        <ele>1509.4</ele>
        <time>2018-08-08T11:14:19.000Z</time>
      </trkpt>
      <trkpt lat="42.71642" lon="0.66236">
        <ele>1509.4</ele>
        <time>2018-08-08T11:14:20.000Z</time>
      </trkpt>
      <trkpt lat="42.71642" lon="0.66236">
        <ele>1509.4</ele>
        <time>2018-08-08T11:14:21.000Z</time>
      </trkpt>
      <trkpt lat="42.71642" lon="0.66236">
        <ele>1509.4</ele>
        <time>2018-08-08T11:14:22.000Z</time>
      </trkpt>
      <trkpt lat="42.71642" lon="0.66236">
        <ele>1509.4</ele>
        <time>2018-08-08T11:14:23.000Z</time>
      </trkpt>
      <trkpt lat="42.71642" lon="0.66236">
        <ele>1509.5</ele>
        <time>2018-08-08T11:14:24.000Z</time>
      </trkpt>
      <trkpt lat="42.71642" lon="0.66236">
        <ele>1509.5</ele>
        <time>2018-08-08T11:14:25.000Z</time>
      </trkpt>
      <trkpt lat="42.71642" lon="0.66236">
        <ele>1509.5</ele>
        <time>2018-08-08T11:14:26.000Z</time>
      </trkpt>
      <trkpt lat="42.71642" lon="0.66236">
        <ele>1509.5</ele>
        <time>2018-08-08T11:14:27.000Z</time>
      </trkpt>
      <trkpt lat="42.71642" lon="0.66236">
        <ele>1509.5</ele>
        <time>2018-08-08T11:14:28.000Z</time>
      </trkpt>
      <trkpt lat="42.71642" lon="0.66236">
        <ele>1509.5</ele>
        <time>2018-08-08T11:14:29.000Z</time>
      </trkpt>
      <trkpt lat="42.71642" lon="0.66236">
        <ele>1509.5</ele>
        <time>2018-08-08T11:14:30.000Z</time>
      </trkpt>
      <trkpt lat="42.71642" lon="0.66236">
        <ele>1509.5</ele>
        <time>2018-08-08T11:14:31.000Z</time>
      </trkpt>
      <trkpt lat="42.71642" lon="0.66237">
        <ele>1509.5</ele>
        <time>2018-08-08T11:14:32.000Z</time>
      </trkpt>
      <trkpt lat="42.71642" lon="0.66237">
        <ele>1509.5</ele>
        <time>2018-08-08T11:14:33.000Z</time>
      </trkpt>
      <trkpt lat="42.71642" lon="0.66237">
        <ele>1509.5</ele>
        <time>2018-08-08T11:14:34.000Z</time>
      </trkpt>
      <trkpt lat="42.71642" lon="0.66237">
        <ele>1509.5</ele>
        <time>2018-08-08T11:14:35.000Z</time>
      </trkpt>
      <trkpt lat="42.71642" lon="0.66237">
        <ele>1509.5</ele>
        <time>2018-08-08T11:14:36.000Z</time>
      </trkpt>
      <trkpt lat="42.71642" lon="0.66237">
        <ele>1509.5</ele>
        <time>2018-08-08T11:14:37.000Z</time>
      </trkpt>
      <trkpt lat="42.71642" lon="0.66237">
        <ele>1509.5</ele>
        <time>2018-08-08T11:14:38.000Z</time>
      </trkpt>
      <trkpt lat="42.71642" lon="0.66237">
        <ele>1509.5</ele>
        <time>2018-08-08T11:14:39.000Z</time>
      </trkpt>
      <trkpt lat="42.71642" lon="0.66237">
        <ele>1509.6</ele>
        <time>2018-08-08T11:14:40.000Z</time>
      </trkpt>
      <trkpt lat="42.71642" lon="0.66237">
        <ele>1509.6</ele>
        <time>2018-08-08T11:14:41.000Z</time>
      </trkpt>
      <trkpt lat="42.71642" lon="0.66237">
        <ele>1509.6</ele>
        <time>2018-08-08T11:14:42.000Z</time>
      </trkpt>
      <trkpt lat="42.71642" lon="0.66237">
        <ele>1509.6</ele>
        <time>2018-08-08T11:14:43.000Z</time>
      </trkpt>
      <trkpt lat="42.71642" lon="0.66237">
        <ele>1509.6</ele>
        <time>2018-08-08T11:14:44.000Z</time>
      </trkpt>
      <trkpt lat="42.71642" lon="0.66237">
        <ele>1509.6</ele>
        <time>2018-08-08T11:14:45.000Z</time>
      </trkpt>
      <trkpt lat="42.71642" lon="0.66237">
        <ele>1509.6</ele>
        <time>2018-08-08T11:14:46.000Z</time>
      </trkpt>
      <trkpt lat="42.71642" lon="0.66237">
        <ele>1509.6</ele>
        <time>2018-08-08T11:14:47.000Z</time>
      </trkpt>
      <trkpt lat="42.71642" lon="0.66237">
        <ele>1509.6</ele>
        <time>2018-08-08T11:14:48.000Z</time>
      </trkpt>
      <trkpt lat="42.71642" lon="0.66237">
        <ele>1509.6</ele>
        <time>2018-08-08T11:14:49.000Z</time>
      </trkpt>
      <trkpt lat="42.71642" lon="0.66237">
        <ele>1509.6</ele>
        <time>2018-08-08T11:14:50.000Z</time>
      </trkpt>
      <trkpt lat="42.71642" lon="0.66237">
        <ele>1509.6</ele>
        <time>2018-08-08T11:14:51.000Z</time>
      </trkpt>
      <trkpt lat="42.71642" lon="0.66237">
        <ele>1509.6</ele>
        <time>2018-08-08T11:14:52.000Z</time>
      </trkpt>
      <trkpt lat="42.71642" lon="0.66237">
        <ele>1509.6</ele>
        <time>2018-08-08T11:14:53.000Z</time>
      </trkpt>
      <trkpt lat="42.71641" lon="0.66237">
        <ele>1509.7</ele>
        <time>2018-08-08T11:14:54.000Z</time>
      </trkpt>
      <trkpt lat="42.71641" lon="0.66237">
        <ele>1509.7</ele>
        <time>2018-08-08T11:14:55.000Z</time>
      </trkpt>
      <trkpt lat="42.71641" lon="0.66237">
        <ele>1509.7</ele>
        <time>2018-08-08T11:14:56.000Z</time>
      </trkpt>
      <trkpt lat="42.71641" lon="0.66237">
        <ele>1509.7</ele>
        <time>2018-08-08T11:14:57.000Z</time>
      </trkpt>
      <trkpt lat="42.71641" lon="0.66237">
        <ele>1509.7</ele>
        <time>2018-08-08T11:14:58.000Z</time>
      </trkpt>
      <trkpt lat="42.71641" lon="0.66237">
        <ele>1509.7</ele>
        <time>2018-08-08T11:14:59.000Z</time>
      </trkpt>
      <trkpt lat="42.71641" lon="0.66237">
        <ele>1509.7</ele>
        <time>2018-08-08T11:15:00.000Z</time>
      </trkpt>
      <trkpt lat="42.71641" lon="0.66237">
        <ele>1509.7</ele>
        <time>2018-08-08T11:15:01.000Z</time>
      </trkpt>
      <trkpt lat="42.71641" lon="0.66237">
        <ele>1509.7</ele>
        <time>2018-08-08T11:15:02.000Z</time>
      </trkpt>
      <trkpt lat="42.71641" lon="0.66237">
        <ele>1509.7</ele>
        <time>2018-08-08T11:15:03.000Z</time>
      </trkpt>
      <trkpt lat="42.71641" lon="0.66237">
        <ele>1509.7</ele>
        <time>2018-08-08T11:15:04.000Z</time>
      </trkpt>
      <trkpt lat="42.71641" lon="0.66237">
        <ele>1509.7</ele>
        <time>2018-08-08T11:15:05.000Z</time>
      </trkpt>
      <trkpt lat="42.71641" lon="0.66237">
        <ele>1509.7</ele>
        <time>2018-08-08T11:15:06.000Z</time>
      </trkpt>
      <trkpt lat="42.71641" lon="0.66237">
        <ele>1509.8</ele>
        <time>2018-08-08T11:15:07.000Z</time>
      </trkpt>
      <trkpt lat="42.71641" lon="0.66236">
        <ele>1509.8</ele>
        <time>2018-08-08T11:15:08.000Z</time>
      </trkpt>
      <trkpt lat="42.71641" lon="0.66236">
        <ele>1509.9</ele>
        <time>2018-08-08T11:15:09.000Z</time>
      </trkpt>
      <trkpt lat="42.71641" lon="0.66236">
        <ele>1509.9</ele>
        <time>2018-08-08T11:15:10.000Z</time>
      </trkpt>
      <trkpt lat="42.71641" lon="0.66235">
        <ele>1510</ele>
        <time>2018-08-08T11:15:11.000Z</time>
      </trkpt>
      <trkpt lat="42.71641" lon="0.66235">
        <ele>1510</ele>
        <time>2018-08-08T11:15:12.000Z</time>
      </trkpt>
      <trkpt lat="42.71641" lon="0.66235">
        <ele>1510</ele>
        <time>2018-08-08T11:15:13.000Z</time>
      </trkpt>
      <trkpt lat="42.7164" lon="0.66235">
        <ele>1510.1</ele>
        <time>2018-08-08T11:15:14.000Z</time>
      </trkpt>
      <trkpt lat="42.7164" lon="0.66235">
        <ele>1510.1</ele>
        <time>2018-08-08T11:15:15.000Z</time>
      </trkpt>
      <trkpt lat="42.7164" lon="0.66235">
        <ele>1510.1</ele>
        <time>2018-08-08T11:15:16.000Z</time>
      </trkpt>
      <trkpt lat="42.7164" lon="0.66235">
        <ele>1510.1</ele>
        <time>2018-08-08T11:15:17.000Z</time>
      </trkpt>
      <trkpt lat="42.7164" lon="0.66235">
        <ele>1510.1</ele>
        <time>2018-08-08T11:15:18.000Z</time>
      </trkpt>
      <trkpt lat="42.7164" lon="0.66235">
        <ele>1510.1</ele>
        <time>2018-08-08T11:15:19.000Z</time>
      </trkpt>
      <trkpt lat="42.7164" lon="0.66235">
        <ele>1510.1</ele>
        <time>2018-08-08T11:15:20.000Z</time>
      </trkpt>
      <trkpt lat="42.7164" lon="0.66235">
        <ele>1510.1</ele>
        <time>2018-08-08T11:15:21.000Z</time>
      </trkpt>
      <trkpt lat="42.7164" lon="0.66235">
        <ele>1510.1</ele>
        <time>2018-08-08T11:15:22.000Z</time>
      </trkpt>
      <trkpt lat="42.71641" lon="0.66235">
        <ele>1510</ele>
        <time>2018-08-08T11:15:23.000Z</time>
      </trkpt>
      <trkpt lat="42.71641" lon="0.66234">
        <ele>1510</ele>
        <time>2018-08-08T11:15:24.000Z</time>
      </trkpt>
      <trkpt lat="42.71641" lon="0.66234">
        <ele>1509.9</ele>
        <time>2018-08-08T11:15:25.000Z</time>
      </trkpt>
      <trkpt lat="42.71641" lon="0.66233">
        <ele>1509.8</ele>
        <time>2018-08-08T11:15:26.000Z</time>
      </trkpt>
      <trkpt lat="42.71641" lon="0.66233">
        <ele>1509.8</ele>
        <time>2018-08-08T11:15:27.000Z</time>
      </trkpt>
      <trkpt lat="42.71641" lon="0.66232">
        <ele>1509.8</ele>
        <time>2018-08-08T11:15:28.000Z</time>
      </trkpt>
      <trkpt lat="42.71641" lon="0.66231">
        <ele>1509.9</ele>
        <time>2018-08-08T11:15:29.000Z</time>
      </trkpt>
      <trkpt lat="42.71641" lon="0.66231">
        <ele>1510</ele>
        <time>2018-08-08T11:15:30.000Z</time>
      </trkpt>
      <trkpt lat="42.71641" lon="0.6623">
        <ele>1510.1</ele>
        <time>2018-08-08T11:15:31.000Z</time>
      </trkpt>
      <trkpt lat="42.7164" lon="0.66229">
        <ele>1510.4</ele>
        <time>2018-08-08T11:15:32.000Z</time>
      </trkpt>
      <trkpt lat="42.7164" lon="0.66228">
        <ele>1510.6</ele>
        <time>2018-08-08T11:15:33.000Z</time>
      </trkpt>
      <trkpt lat="42.71639" lon="0.66227">
        <ele>1510.9</ele>
        <time>2018-08-08T11:15:34.000Z</time>
      </trkpt>
      <trkpt lat="42.71638" lon="0.66226">
        <ele>1511.2</ele>
        <time>2018-08-08T11:15:35.000Z</time>
      </trkpt>
      <trkpt lat="42.71638" lon="0.66225">
        <ele>1511.5</ele>
        <time>2018-08-08T11:15:36.000Z</time>
      </trkpt>
      <trkpt lat="42.71637" lon="0.66224">
        <ele>1511.9</ele>
        <time>2018-08-08T11:15:37.000Z</time>
      </trkpt>
      <trkpt lat="42.71636" lon="0.66224">
        <ele>1512.2</ele>
        <time>2018-08-08T11:15:38.000Z</time>
      </trkpt>
      <trkpt lat="42.71635" lon="0.66223">
        <ele>1512.6</ele>
        <time>2018-08-08T11:15:39.000Z</time>
      </trkpt>
      <trkpt lat="42.71634" lon="0.66222">
        <ele>1512.9</ele>
        <time>2018-08-08T11:15:40.000Z</time>
      </trkpt>
      <trkpt lat="42.71634" lon="0.66222">
        <ele>1513.3</ele>
        <time>2018-08-08T11:15:41.000Z</time>
      </trkpt>
      <trkpt lat="42.71633" lon="0.66222">
        <ele>1513.6</ele>
        <time>2018-08-08T11:15:42.000Z</time>
      </trkpt>
      <trkpt lat="42.71632" lon="0.66222">
        <ele>1513.9</ele>
        <time>2018-08-08T11:15:43.000Z</time>
      </trkpt>
      <trkpt lat="42.71631" lon="0.66222">
        <ele>1514.1</ele>
        <time>2018-08-08T11:15:44.000Z</time>
      </trkpt>
      <trkpt lat="42.71631" lon="0.66222">
        <ele>1514.4</ele>
        <time>2018-08-08T11:15:45.000Z</time>
      </trkpt>
      <trkpt lat="42.7163" lon="0.66222">
        <ele>1514.5</ele>
        <time>2018-08-08T11:15:46.000Z</time>
      </trkpt>
      <trkpt lat="42.7163" lon="0.66223">
        <ele>1514.7</ele>
        <time>2018-08-08T11:15:47.000Z</time>
      </trkpt>
      <trkpt lat="42.71629" lon="0.66224">
        <ele>1514.8</ele>
        <time>2018-08-08T11:15:48.000Z</time>
      </trkpt>
      <trkpt lat="42.71629" lon="0.66224">
        <ele>1515</ele>
        <time>2018-08-08T11:15:49.000Z</time>
      </trkpt>
      <trkpt lat="42.71628" lon="0.66225">
        <ele>1515.1</ele>
        <time>2018-08-08T11:15:50.000Z</time>
      </trkpt>
      <trkpt lat="42.71628" lon="0.66226">
        <ele>1515.2</ele>
        <time>2018-08-08T11:15:51.000Z</time>
      </trkpt>
      <trkpt lat="42.71628" lon="0.66227">
        <ele>1515.2</ele>
        <time>2018-08-08T11:15:52.000Z</time>
      </trkpt>
      <trkpt lat="42.71627" lon="0.66228">
        <ele>1515.3</ele>
        <time>2018-08-08T11:15:53.000Z</time>
      </trkpt>
      <trkpt lat="42.71627" lon="0.66229">
        <ele>1515.3</ele>
        <time>2018-08-08T11:15:54.000Z</time>
      </trkpt>
      <trkpt lat="42.71626" lon="0.66231">
        <ele>1515.3</ele>
        <time>2018-08-08T11:15:55.000Z</time>
      </trkpt>
      <trkpt lat="42.71626" lon="0.66232">
        <ele>1515.4</ele>
        <time>2018-08-08T11:15:56.000Z</time>
      </trkpt>
      <trkpt lat="42.71626" lon="0.66233">
        <ele>1515.4</ele>
        <time>2018-08-08T11:15:57.000Z</time>
      </trkpt>
      <trkpt lat="42.71625" lon="0.66234">
        <ele>1515.5</ele>
        <time>2018-08-08T11:15:58.000Z</time>
      </trkpt>
      <trkpt lat="42.71625" lon="0.66236">
        <ele>1515.5</ele>
        <time>2018-08-08T11:15:59.000Z</time>
      </trkpt>
      <trkpt lat="42.71624" lon="0.66237">
        <ele>1515.5</ele>
        <time>2018-08-08T11:16:00.000Z</time>
      </trkpt>
      <trkpt lat="42.71624" lon="0.66238">
        <ele>1515.5</ele>
        <time>2018-08-08T11:16:01.000Z</time>
      </trkpt>
      <trkpt lat="42.71623" lon="0.66239">
        <ele>1515.5</ele>
        <time>2018-08-08T11:16:02.000Z</time>
      </trkpt>
      <trkpt lat="42.71623" lon="0.66241">
        <ele>1515.6</ele>
        <time>2018-08-08T11:16:03.000Z</time>
      </trkpt>
      <trkpt lat="42.71622" lon="0.66242">
        <ele>1515.6</ele>
        <time>2018-08-08T11:16:04.000Z</time>
      </trkpt>
      <trkpt lat="42.71622" lon="0.66243">
        <ele>1515.6</ele>
        <time>2018-08-08T11:16:05.000Z</time>
      </trkpt>
      <trkpt lat="42.71621" lon="0.66245">
        <ele>1515.6</ele>
        <time>2018-08-08T11:16:06.000Z</time>
      </trkpt>
      <trkpt lat="42.71621" lon="0.66246">
        <ele>1515.6</ele>
        <time>2018-08-08T11:16:07.000Z</time>
      </trkpt>
      <trkpt lat="42.7162" lon="0.66247">
        <ele>1515.6</ele>
        <time>2018-08-08T11:16:08.000Z</time>
      </trkpt>
      <trkpt lat="42.7162" lon="0.66248">
        <ele>1515.7</ele>
        <time>2018-08-08T11:16:09.000Z</time>
      </trkpt>
      <trkpt lat="42.71619" lon="0.6625">
        <ele>1515.7</ele>
        <time>2018-08-08T11:16:10.000Z</time>
      </trkpt>
      <trkpt lat="42.71619" lon="0.66251">
        <ele>1515.8</ele>
        <time>2018-08-08T11:16:11.000Z</time>
      </trkpt>
      <trkpt lat="42.71618" lon="0.66252">
        <ele>1515.9</ele>
        <time>2018-08-08T11:16:12.000Z</time>
      </trkpt>
      <trkpt lat="42.71618" lon="0.66253">
        <ele>1516</ele>
        <time>2018-08-08T11:16:13.000Z</time>
      </trkpt>
      <trkpt lat="42.71617" lon="0.66255">
        <ele>1516.2</ele>
        <time>2018-08-08T11:16:14.000Z</time>
      </trkpt>
      <trkpt lat="42.71616" lon="0.66256">
        <ele>1516.3</ele>
        <time>2018-08-08T11:16:15.000Z</time>
      </trkpt>
      <trkpt lat="42.71616" lon="0.66257">
        <ele>1516.4</ele>
        <time>2018-08-08T11:16:16.000Z</time>
      </trkpt>
      <trkpt lat="42.71615" lon="0.66258">
        <ele>1516.5</ele>
        <time>2018-08-08T11:16:17.000Z</time>
      </trkpt>
      <trkpt lat="42.71615" lon="0.66259">
        <ele>1516.6</ele>
        <time>2018-08-08T11:16:18.000Z</time>
      </trkpt>
      <trkpt lat="42.71614" lon="0.66261">
        <ele>1516.7</ele>
        <time>2018-08-08T11:16:19.000Z</time>
      </trkpt>
      <trkpt lat="42.71613" lon="0.66262">
        <ele>1516.8</ele>
        <time>2018-08-08T11:16:20.000Z</time>
      </trkpt>
      <trkpt lat="42.71613" lon="0.66263">
        <ele>1516.9</ele>
        <time>2018-08-08T11:16:21.000Z</time>
      </trkpt>
      <trkpt lat="42.71612" lon="0.66264">
        <ele>1517</ele>
        <time>2018-08-08T11:16:22.000Z</time>
      </trkpt>
      <trkpt lat="42.71612" lon="0.66265">
        <ele>1517</ele>
        <time>2018-08-08T11:16:23.000Z</time>
      </trkpt>
      <trkpt lat="42.71611" lon="0.66266">
        <ele>1517.1</ele>
        <time>2018-08-08T11:16:24.000Z</time>
      </trkpt>
      <trkpt lat="42.7161" lon="0.66268">
        <ele>1517.2</ele>
        <time>2018-08-08T11:16:25.000Z</time>
      </trkpt>
      <trkpt lat="42.7161" lon="0.66269">
        <ele>1517.2</ele>
        <time>2018-08-08T11:16:26.000Z</time>
      </trkpt>
      <trkpt lat="42.71609" lon="0.6627">
        <ele>1517.3</ele>
        <time>2018-08-08T11:16:27.000Z</time>
      </trkpt>
      <trkpt lat="42.71609" lon="0.66271">
        <ele>1517.3</ele>
        <time>2018-08-08T11:16:28.000Z</time>
      </trkpt>
      <trkpt lat="42.71608" lon="0.66272">
        <ele>1517.3</ele>
        <time>2018-08-08T11:16:29.000Z</time>
      </trkpt>
      <trkpt lat="42.71608" lon="0.66273">
        <ele>1517.4</ele>
        <time>2018-08-08T11:16:30.000Z</time>
      </trkpt>
      <trkpt lat="42.71607" lon="0.66275">
        <ele>1517.4</ele>
        <time>2018-08-08T11:16:31.000Z</time>
      </trkpt>
      <trkpt lat="42.71606" lon="0.66276">
        <ele>1517.4</ele>
        <time>2018-08-08T11:16:32.000Z</time>
      </trkpt>
      <trkpt lat="42.71606" lon="0.66277">
        <ele>1517.4</ele>
        <time>2018-08-08T11:16:33.000Z</time>
      </trkpt>
      <trkpt lat="42.71605" lon="0.66278">
        <ele>1517.4</ele>
        <time>2018-08-08T11:16:34.000Z</time>
      </trkpt>
      <trkpt lat="42.71605" lon="0.66279">
        <ele>1517.3</ele>
        <time>2018-08-08T11:16:35.000Z</time>
      </trkpt>
      <trkpt lat="42.71604" lon="0.66281">
        <ele>1517.3</ele>
        <time>2018-08-08T11:16:36.000Z</time>
      </trkpt>
      <trkpt lat="42.71604" lon="0.66282">
        <ele>1517.3</ele>
        <time>2018-08-08T11:16:37.000Z</time>
      </trkpt>
      <trkpt lat="42.71603" lon="0.66283">
        <ele>1517.2</ele>
        <time>2018-08-08T11:16:38.000Z</time>
      </trkpt>
      <trkpt lat="42.71603" lon="0.66285">
        <ele>1517.2</ele>
        <time>2018-08-08T11:16:39.000Z</time>
      </trkpt>
      <trkpt lat="42.71603" lon="0.66286">
        <ele>1517.1</ele>
        <time>2018-08-08T11:16:40.000Z</time>
      </trkpt>
      <trkpt lat="42.71602" lon="0.66287">
        <ele>1517</ele>
        <time>2018-08-08T11:16:41.000Z</time>
      </trkpt>
      <trkpt lat="42.71602" lon="0.66288">
        <ele>1516.9</ele>
        <time>2018-08-08T11:16:42.000Z</time>
      </trkpt>
      <trkpt lat="42.71602" lon="0.6629">
        <ele>1516.8</ele>
        <time>2018-08-08T11:16:43.000Z</time>
      </trkpt>
      <trkpt lat="42.71601" lon="0.66291">
        <ele>1516.7</ele>
        <time>2018-08-08T11:16:44.000Z</time>
      </trkpt>
      <trkpt lat="42.71601" lon="0.66292">
        <ele>1516.6</ele>
        <time>2018-08-08T11:16:45.000Z</time>
      </trkpt>
      <trkpt lat="42.716" lon="0.66294">
        <ele>1516.5</ele>
        <time>2018-08-08T11:16:46.000Z</time>
      </trkpt>
      <trkpt lat="42.716" lon="0.66295">
        <ele>1516.4</ele>
        <time>2018-08-08T11:16:47.000Z</time>
      </trkpt>
      <trkpt lat="42.716" lon="0.66296">
        <ele>1516.4</ele>
        <time>2018-08-08T11:16:48.000Z</time>
      </trkpt>
      <trkpt lat="42.71599" lon="0.66297">
        <ele>1516.3</ele>
        <time>2018-08-08T11:16:49.000Z</time>
      </trkpt>
      <trkpt lat="42.71599" lon="0.66299">
        <ele>1516.2</ele>
        <time>2018-08-08T11:16:50.000Z</time>
      </trkpt>
      <trkpt lat="42.71598" lon="0.663">
        <ele>1516.1</ele>
        <time>2018-08-08T11:16:51.000Z</time>
      </trkpt>
      <trkpt lat="42.71598" lon="0.66301">
        <ele>1516</ele>
        <time>2018-08-08T11:16:52.000Z</time>
      </trkpt>
      <trkpt lat="42.71597" lon="0.66302">
        <ele>1515.9</ele>
        <time>2018-08-08T11:16:53.000Z</time>
      </trkpt>
      <trkpt lat="42.71596" lon="0.66303">
        <ele>1515.8</ele>
        <time>2018-08-08T11:16:54.000Z</time>
      </trkpt>
      <trkpt lat="42.71595" lon="0.66304">
        <ele>1515.8</ele>
        <time>2018-08-08T11:16:55.000Z</time>
      </trkpt>
      <trkpt lat="42.71595" lon="0.66305">
        <ele>1515.7</ele>
        <time>2018-08-08T11:16:56.000Z</time>
      </trkpt>
      <trkpt lat="42.71594" lon="0.66305">
        <ele>1515.6</ele>
        <time>2018-08-08T11:16:57.000Z</time>
      </trkpt>
      <trkpt lat="42.71593" lon="0.66306">
        <ele>1515.5</ele>
        <time>2018-08-08T11:16:58.000Z</time>
      </trkpt>
      <trkpt lat="42.71592" lon="0.66307">
        <ele>1515.4</ele>
        <time>2018-08-08T11:16:59.000Z</time>
      </trkpt>
      <trkpt lat="42.71591" lon="0.66309">
        <ele>1515.3</ele>
        <time>2018-08-08T11:17:00.000Z</time>
      </trkpt>
      <trkpt lat="42.71591" lon="0.6631">
        <ele>1515.1</ele>
        <time>2018-08-08T11:17:01.000Z</time>
      </trkpt>
      <trkpt lat="42.7159" lon="0.66311">
        <ele>1514.9</ele>
        <time>2018-08-08T11:17:02.000Z</time>
      </trkpt>
      <trkpt lat="42.71589" lon="0.66312">
        <ele>1514.7</ele>
        <time>2018-08-08T11:17:03.000Z</time>
      </trkpt>
      <trkpt lat="42.71589" lon="0.66313">
        <ele>1514.6</ele>
        <time>2018-08-08T11:17:04.000Z</time>
      </trkpt>
      <trkpt lat="42.71588" lon="0.66314">
        <ele>1514.4</ele>
        <time>2018-08-08T11:17:05.000Z</time>
      </trkpt>
      <trkpt lat="42.71587" lon="0.66315">
        <ele>1514.2</ele>
        <time>2018-08-08T11:17:06.000Z</time>
      </trkpt>
      <trkpt lat="42.71587" lon="0.66316">
        <ele>1514.1</ele>
        <time>2018-08-08T11:17:07.000Z</time>
      </trkpt>
      <trkpt lat="42.71586" lon="0.66317">
        <ele>1513.9</ele>
        <time>2018-08-08T11:17:08.000Z</time>
      </trkpt>
      <trkpt lat="42.71585" lon="0.66318">
        <ele>1513.7</ele>
        <time>2018-08-08T11:17:09.000Z</time>
      </trkpt>
      <trkpt lat="42.71584" lon="0.66319">
        <ele>1513.5</ele>
        <time>2018-08-08T11:17:10.000Z</time>
      </trkpt>
      <trkpt lat="42.71584" lon="0.6632">
        <ele>1513.3</ele>
        <time>2018-08-08T11:17:11.000Z</time>
      </trkpt>
      <trkpt lat="42.71583" lon="0.66322">
        <ele>1513.4</ele>
        <time>2018-08-08T11:17:12.000Z</time>
      </trkpt>
      <trkpt lat="42.71582" lon="0.66323">
        <ele>1513.5</ele>
        <time>2018-08-08T11:17:13.000Z</time>
      </trkpt>
      <trkpt lat="42.71582" lon="0.66324">
        <ele>1513.7</ele>
        <time>2018-08-08T11:17:14.000Z</time>
      </trkpt>
      <trkpt lat="42.71581" lon="0.66325">
        <ele>1513.9</ele>
        <time>2018-08-08T11:17:15.000Z</time>
      </trkpt>
      <trkpt lat="42.7158" lon="0.66326">
        <ele>1514</ele>
        <time>2018-08-08T11:17:16.000Z</time>
      </trkpt>
      <trkpt lat="42.7158" lon="0.66327">
        <ele>1514.2</ele>
        <time>2018-08-08T11:17:17.000Z</time>
      </trkpt>
      <trkpt lat="42.71579" lon="0.66329">
        <ele>1514.2</ele>
        <time>2018-08-08T11:17:18.000Z</time>
      </trkpt>
      <trkpt lat="42.71579" lon="0.6633">
        <ele>1514.3</ele>
        <time>2018-08-08T11:17:19.000Z</time>
      </trkpt>
      <trkpt lat="42.71578" lon="0.66331">
        <ele>1514.4</ele>
        <time>2018-08-08T11:17:20.000Z</time>
      </trkpt>
      <trkpt lat="42.71578" lon="0.66332">
        <ele>1514.4</ele>
        <time>2018-08-08T11:17:21.000Z</time>
      </trkpt>
      <trkpt lat="42.71577" lon="0.66333">
        <ele>1514.4</ele>
        <time>2018-08-08T11:17:22.000Z</time>
      </trkpt>
      <trkpt lat="42.71577" lon="0.66334">
        <ele>1514.6</ele>
        <time>2018-08-08T11:17:23.000Z</time>
      </trkpt>
      <trkpt lat="42.71577" lon="0.66335">
        <ele>1514.8</ele>
        <time>2018-08-08T11:17:24.000Z</time>
      </trkpt>
      <trkpt lat="42.71576" lon="0.66336">
        <ele>1515.1</ele>
        <time>2018-08-08T11:17:25.000Z</time>
      </trkpt>
      <trkpt lat="42.71576" lon="0.66337">
        <ele>1515.3</ele>
        <time>2018-08-08T11:17:26.000Z</time>
      </trkpt>
      <trkpt lat="42.71575" lon="0.66338">
        <ele>1515.6</ele>
        <time>2018-08-08T11:17:27.000Z</time>
      </trkpt>
      <trkpt lat="42.71575" lon="0.66339">
        <ele>1515.8</ele>
        <time>2018-08-08T11:17:28.000Z</time>
      </trkpt>
      <trkpt lat="42.71574" lon="0.66341">
        <ele>1516.1</ele>
        <time>2018-08-08T11:17:29.000Z</time>
      </trkpt>
      <trkpt lat="42.71574" lon="0.66342">
        <ele>1516.3</ele>
        <time>2018-08-08T11:17:30.000Z</time>
      </trkpt>
      <trkpt lat="42.71573" lon="0.66343">
        <ele>1516.6</ele>
        <time>2018-08-08T11:17:31.000Z</time>
      </trkpt>
      <trkpt lat="42.71573" lon="0.66344">
        <ele>1516.8</ele>
        <time>2018-08-08T11:17:32.000Z</time>
      </trkpt>
      <trkpt lat="42.71573" lon="0.66345">
        <ele>1517</ele>
        <time>2018-08-08T11:17:33.000Z</time>
      </trkpt>
      <trkpt lat="42.71572" lon="0.66346">
        <ele>1517.3</ele>
        <time>2018-08-08T11:17:34.000Z</time>
      </trkpt>
      <trkpt lat="42.71572" lon="0.66347">
        <ele>1517.5</ele>
        <time>2018-08-08T11:17:35.000Z</time>
      </trkpt>
      <trkpt lat="42.71571" lon="0.66348">
        <ele>1517.7</ele>
        <time>2018-08-08T11:17:36.000Z</time>
      </trkpt>
      <trkpt lat="42.71571" lon="0.66349">
        <ele>1518</ele>
        <time>2018-08-08T11:17:37.000Z</time>
      </trkpt>
      <trkpt lat="42.7157" lon="0.66351">
        <ele>1518.2</ele>
        <time>2018-08-08T11:17:38.000Z</time>
      </trkpt>
      <trkpt lat="42.7157" lon="0.66352">
        <ele>1518.4</ele>
        <time>2018-08-08T11:17:39.000Z</time>
      </trkpt>
      <trkpt lat="42.71569" lon="0.66353">
        <ele>1518.7</ele>
        <time>2018-08-08T11:17:40.000Z</time>
      </trkpt>
      <trkpt lat="42.71569" lon="0.66354">
        <ele>1518.9</ele>
        <time>2018-08-08T11:17:41.000Z</time>
      </trkpt>
      <trkpt lat="42.71568" lon="0.66355">
        <ele>1519.1</ele>
        <time>2018-08-08T11:17:42.000Z</time>
      </trkpt>
      <trkpt lat="42.71568" lon="0.66356">
        <ele>1519.3</ele>
        <time>2018-08-08T11:17:43.000Z</time>
      </trkpt>
      <trkpt lat="42.71567" lon="0.66358">
        <ele>1519.6</ele>
        <time>2018-08-08T11:17:44.000Z</time>
      </trkpt>
      <trkpt lat="42.71566" lon="0.66359">
        <ele>1519.8</ele>
        <time>2018-08-08T11:17:45.000Z</time>
      </trkpt>
      <trkpt lat="42.71566" lon="0.66361">
        <ele>1520.1</ele>
        <time>2018-08-08T11:17:46.000Z</time>
      </trkpt>
      <trkpt lat="42.71565" lon="0.66362">
        <ele>1520.3</ele>
        <time>2018-08-08T11:17:47.000Z</time>
      </trkpt>
      <trkpt lat="42.71565" lon="0.66364">
        <ele>1520.5</ele>
        <time>2018-08-08T11:17:48.000Z</time>
      </trkpt>
      <trkpt lat="42.71564" lon="0.66366">
        <ele>1520.7</ele>
        <time>2018-08-08T11:17:49.000Z</time>
      </trkpt>
      <trkpt lat="42.71563" lon="0.66368">
        <ele>1520.9</ele>
        <time>2018-08-08T11:17:50.000Z</time>
      </trkpt>
      <trkpt lat="42.71563" lon="0.6637">
        <ele>1521.1</ele>
        <time>2018-08-08T11:17:51.000Z</time>
      </trkpt>
      <trkpt lat="42.71562" lon="0.66371">
        <ele>1521.3</ele>
        <time>2018-08-08T11:17:52.000Z</time>
      </trkpt>
      <trkpt lat="42.71561" lon="0.66373">
        <ele>1521.5</ele>
        <time>2018-08-08T11:17:53.000Z</time>
      </trkpt>
      <trkpt lat="42.71561" lon="0.66374">
        <ele>1521.7</ele>
        <time>2018-08-08T11:17:54.000Z</time>
      </trkpt>
      <trkpt lat="42.7156" lon="0.66375">
        <ele>1521.9</ele>
        <time>2018-08-08T11:17:55.000Z</time>
      </trkpt>
      <trkpt lat="42.7156" lon="0.66376">
        <ele>1522.1</ele>
        <time>2018-08-08T11:17:56.000Z</time>
      </trkpt>
      <trkpt lat="42.71559" lon="0.66377">
        <ele>1522.2</ele>
        <time>2018-08-08T11:17:57.000Z</time>
      </trkpt>
      <trkpt lat="42.71559" lon="0.66378">
        <ele>1522.4</ele>
        <time>2018-08-08T11:17:58.000Z</time>
      </trkpt>
      <trkpt lat="42.71558" lon="0.66379">
        <ele>1522.5</ele>
        <time>2018-08-08T11:17:59.000Z</time>
      </trkpt>
      <trkpt lat="42.71557" lon="0.6638">
        <ele>1522.7</ele>
        <time>2018-08-08T11:18:00.000Z</time>
      </trkpt>
      <trkpt lat="42.71557" lon="0.66381">
        <ele>1522.8</ele>
        <time>2018-08-08T11:18:01.000Z</time>
      </trkpt>
      <trkpt lat="42.71556" lon="0.66382">
        <ele>1522.9</ele>
        <time>2018-08-08T11:18:02.000Z</time>
      </trkpt>
      <trkpt lat="42.71556" lon="0.66383">
        <ele>1523</ele>
        <time>2018-08-08T11:18:03.000Z</time>
      </trkpt>
      <trkpt lat="42.71555" lon="0.66384">
        <ele>1523.1</ele>
        <time>2018-08-08T11:18:04.000Z</time>
      </trkpt>
      <trkpt lat="42.71555" lon="0.66385">
        <ele>1523.3</ele>
        <time>2018-08-08T11:18:05.000Z</time>
      </trkpt>
      <trkpt lat="42.71554" lon="0.66386">
        <ele>1523.4</ele>
        <time>2018-08-08T11:18:06.000Z</time>
      </trkpt>
      <trkpt lat="42.71554" lon="0.66386">
        <ele>1523.6</ele>
        <time>2018-08-08T11:18:07.000Z</time>
      </trkpt>
      <trkpt lat="42.71553" lon="0.66387">
        <ele>1523.8</ele>
        <time>2018-08-08T11:18:08.000Z</time>
      </trkpt>
      <trkpt lat="42.71552" lon="0.66388">
        <ele>1524</ele>
        <time>2018-08-08T11:18:09.000Z</time>
      </trkpt>
      <trkpt lat="42.71552" lon="0.66388">
        <ele>1524.1</ele>
        <time>2018-08-08T11:18:10.000Z</time>
      </trkpt>
      <trkpt lat="42.71551" lon="0.66389">
        <ele>1524.3</ele>
        <time>2018-08-08T11:18:11.000Z</time>
      </trkpt>
      <trkpt lat="42.7155" lon="0.66389">
        <ele>1524.4</ele>
        <time>2018-08-08T11:18:12.000Z</time>
      </trkpt>
      <trkpt lat="42.7155" lon="0.6639">
        <ele>1524.6</ele>
        <time>2018-08-08T11:18:13.000Z</time>
      </trkpt>
      <trkpt lat="42.7155" lon="0.6639">
        <ele>1524.7</ele>
        <time>2018-08-08T11:18:14.000Z</time>
      </trkpt>
      <trkpt lat="42.71549" lon="0.6639">
        <ele>1524.7</ele>
        <time>2018-08-08T11:18:15.000Z</time>
      </trkpt>
      <trkpt lat="42.71549" lon="0.66391">
        <ele>1524.8</ele>
        <time>2018-08-08T11:18:16.000Z</time>
      </trkpt>
      <trkpt lat="42.71549" lon="0.66391">
        <ele>1524.8</ele>
        <time>2018-08-08T11:18:17.000Z</time>
      </trkpt>
      <trkpt lat="42.71548" lon="0.66392">
        <ele>1524.9</ele>
        <time>2018-08-08T11:18:18.000Z</time>
      </trkpt>
      <trkpt lat="42.71548" lon="0.66393">
        <ele>1524.9</ele>
        <time>2018-08-08T11:18:19.000Z</time>
      </trkpt>
      <trkpt lat="42.71547" lon="0.66394">
        <ele>1525</ele>
        <time>2018-08-08T11:18:20.000Z</time>
      </trkpt>
      <trkpt lat="42.71547" lon="0.66395">
        <ele>1525.1</ele>
        <time>2018-08-08T11:18:21.000Z</time>
      </trkpt>
      <trkpt lat="42.71546" lon="0.66396">
        <ele>1525.2</ele>
        <time>2018-08-08T11:18:22.000Z</time>
      </trkpt>
      <trkpt lat="42.71545" lon="0.66397">
        <ele>1525.3</ele>
        <time>2018-08-08T11:18:23.000Z</time>
      </trkpt>
      <trkpt lat="42.71545" lon="0.66397">
        <ele>1525.4</ele>
        <time>2018-08-08T11:18:24.000Z</time>
      </trkpt>
      <trkpt lat="42.71544" lon="0.66398">
        <ele>1525.5</ele>
        <time>2018-08-08T11:18:25.000Z</time>
      </trkpt>
      <trkpt lat="42.71543" lon="0.66399">
        <ele>1525.7</ele>
        <time>2018-08-08T11:18:26.000Z</time>
      </trkpt>
      <trkpt lat="42.71543" lon="0.664">
        <ele>1525.7</ele>
        <time>2018-08-08T11:18:27.000Z</time>
      </trkpt>
      <trkpt lat="42.71542" lon="0.66401">
        <ele>1525.8</ele>
        <time>2018-08-08T11:18:28.000Z</time>
      </trkpt>
      <trkpt lat="42.71541" lon="0.66402">
        <ele>1525.9</ele>
        <time>2018-08-08T11:18:29.000Z</time>
      </trkpt>
      <trkpt lat="42.71541" lon="0.66403">
        <ele>1525.9</ele>
        <time>2018-08-08T11:18:30.000Z</time>
      </trkpt>
      <trkpt lat="42.7154" lon="0.66404">
        <ele>1526</ele>
        <time>2018-08-08T11:18:31.000Z</time>
      </trkpt>
      <trkpt lat="42.71539" lon="0.66406">
        <ele>1526</ele>
        <time>2018-08-08T11:18:32.000Z</time>
      </trkpt>
      <trkpt lat="42.71538" lon="0.66407">
        <ele>1526</ele>
        <time>2018-08-08T11:18:33.000Z</time>
      </trkpt>
      <trkpt lat="42.71538" lon="0.66408">
        <ele>1526.1</ele>
        <time>2018-08-08T11:18:34.000Z</time>
      </trkpt>
      <trkpt lat="42.71537" lon="0.66409">
        <ele>1526.1</ele>
        <time>2018-08-08T11:18:35.000Z</time>
      </trkpt>
      <trkpt lat="42.71536" lon="0.66409">
        <ele>1526.2</ele>
        <time>2018-08-08T11:18:36.000Z</time>
      </trkpt>
      <trkpt lat="42.71536" lon="0.6641">
        <ele>1526.3</ele>
        <time>2018-08-08T11:18:37.000Z</time>
      </trkpt>
      <trkpt lat="42.71535" lon="0.6641">
        <ele>1526.4</ele>
        <time>2018-08-08T11:18:38.000Z</time>
      </trkpt>
      <trkpt lat="42.71535" lon="0.66411">
        <ele>1526.4</ele>
        <time>2018-08-08T11:18:39.000Z</time>
      </trkpt>
      <trkpt lat="42.71534" lon="0.66411">
        <ele>1526.5</ele>
        <time>2018-08-08T11:18:40.000Z</time>
      </trkpt>
      <trkpt lat="42.71533" lon="0.66412">
        <ele>1526.6</ele>
        <time>2018-08-08T11:18:41.000Z</time>
      </trkpt>
      <trkpt lat="42.71533" lon="0.66412">
        <ele>1526.6</ele>
        <time>2018-08-08T11:18:42.000Z</time>
      </trkpt>
      <trkpt lat="42.71532" lon="0.66413">
        <ele>1526.7</ele>
        <time>2018-08-08T11:18:43.000Z</time>
      </trkpt>
      <trkpt lat="42.71532" lon="0.66414">
        <ele>1526.6</ele>
        <time>2018-08-08T11:18:44.000Z</time>
      </trkpt>
      <trkpt lat="42.71531" lon="0.66415">
        <ele>1526.6</ele>
        <time>2018-08-08T11:18:45.000Z</time>
      </trkpt>
      <trkpt lat="42.71531" lon="0.66416">
        <ele>1526.6</ele>
        <time>2018-08-08T11:18:46.000Z</time>
      </trkpt>
      <trkpt lat="42.7153" lon="0.66417">
        <ele>1526.5</ele>
        <time>2018-08-08T11:18:47.000Z</time>
      </trkpt>
      <trkpt lat="42.7153" lon="0.66418">
        <ele>1526.6</ele>
        <time>2018-08-08T11:18:48.000Z</time>
      </trkpt>
      <trkpt lat="42.71529" lon="0.66419">
        <ele>1526.6</ele>
        <time>2018-08-08T11:18:49.000Z</time>
      </trkpt>
      <trkpt lat="42.71529" lon="0.6642">
        <ele>1526.7</ele>
        <time>2018-08-08T11:18:50.000Z</time>
      </trkpt>
      <trkpt lat="42.71528" lon="0.66421">
        <ele>1526.8</ele>
        <time>2018-08-08T11:18:51.000Z</time>
      </trkpt>
      <trkpt lat="42.71527" lon="0.66422">
        <ele>1526.9</ele>
        <time>2018-08-08T11:18:52.000Z</time>
      </trkpt>
      <trkpt lat="42.71527" lon="0.66422">
        <ele>1527</ele>
        <time>2018-08-08T11:18:53.000Z</time>
      </trkpt>
      <trkpt lat="42.71526" lon="0.66423">
        <ele>1527.1</ele>
        <time>2018-08-08T11:18:54.000Z</time>
      </trkpt>
      <trkpt lat="42.71525" lon="0.66424">
        <ele>1527.2</ele>
        <time>2018-08-08T11:18:55.000Z</time>
      </trkpt>
      <trkpt lat="42.71525" lon="0.66425">
        <ele>1527.3</ele>
        <time>2018-08-08T11:18:56.000Z</time>
      </trkpt>
      <trkpt lat="42.71524" lon="0.66426">
        <ele>1527.3</ele>
        <time>2018-08-08T11:18:57.000Z</time>
      </trkpt>
      <trkpt lat="42.71523" lon="0.66427">
        <ele>1527.4</ele>
        <time>2018-08-08T11:18:58.000Z</time>
      </trkpt>
      <trkpt lat="42.71522" lon="0.66428">
        <ele>1527.5</ele>
        <time>2018-08-08T11:18:59.000Z</time>
      </trkpt>
      <trkpt lat="42.71521" lon="0.6643">
        <ele>1527.6</ele>
        <time>2018-08-08T11:19:00.000Z</time>
      </trkpt>
      <trkpt lat="42.7152" lon="0.66431">
        <ele>1527.6</ele>
        <time>2018-08-08T11:19:01.000Z</time>
      </trkpt>
      <trkpt lat="42.71519" lon="0.66432">
        <ele>1527.6</ele>
        <time>2018-08-08T11:19:02.000Z</time>
      </trkpt>
      <trkpt lat="42.71518" lon="0.66434">
        <ele>1527.6</ele>
        <time>2018-08-08T11:19:03.000Z</time>
      </trkpt>
      <trkpt lat="42.71517" lon="0.66435">
        <ele>1527.7</ele>
        <time>2018-08-08T11:19:04.000Z</time>
      </trkpt>
      <trkpt lat="42.71516" lon="0.66436">
        <ele>1527.7</ele>
        <time>2018-08-08T11:19:05.000Z</time>
      </trkpt>
      <trkpt lat="42.71515" lon="0.66437">
        <ele>1527.7</ele>
        <time>2018-08-08T11:19:06.000Z</time>
      </trkpt>
      <trkpt lat="42.71514" lon="0.66438">
        <ele>1527.7</ele>
        <time>2018-08-08T11:19:07.000Z</time>
      </trkpt>
      <trkpt lat="42.71513" lon="0.66439">
        <ele>1527.6</ele>
        <time>2018-08-08T11:19:08.000Z</time>
      </trkpt>
      <trkpt lat="42.71512" lon="0.6644">
        <ele>1527.6</ele>
        <time>2018-08-08T11:19:09.000Z</time>
      </trkpt>
      <trkpt lat="42.71511" lon="0.66441">
        <ele>1527.6</ele>
        <time>2018-08-08T11:19:10.000Z</time>
      </trkpt>
      <trkpt lat="42.7151" lon="0.66442">
        <ele>1527.5</ele>
        <time>2018-08-08T11:19:11.000Z</time>
      </trkpt>
      <trkpt lat="42.7151" lon="0.66443">
        <ele>1527.5</ele>
        <time>2018-08-08T11:19:12.000Z</time>
      </trkpt>
      <trkpt lat="42.71509" lon="0.66444">
        <ele>1527.4</ele>
        <time>2018-08-08T11:19:13.000Z</time>
      </trkpt>
      <trkpt lat="42.71508" lon="0.66445">
        <ele>1527.3</ele>
        <time>2018-08-08T11:19:14.000Z</time>
      </trkpt>
      <trkpt lat="42.71507" lon="0.66446">
        <ele>1527.3</ele>
        <time>2018-08-08T11:19:15.000Z</time>
      </trkpt>
      <trkpt lat="42.71507" lon="0.66447">
        <ele>1527.2</ele>
        <time>2018-08-08T11:19:16.000Z</time>
      </trkpt>
      <trkpt lat="42.71506" lon="0.66448">
        <ele>1527.1</ele>
        <time>2018-08-08T11:19:17.000Z</time>
      </trkpt>
      <trkpt lat="42.71505" lon="0.66449">
        <ele>1527</ele>
        <time>2018-08-08T11:19:18.000Z</time>
      </trkpt>
      <trkpt lat="42.71504" lon="0.66449">
        <ele>1526.9</ele>
        <time>2018-08-08T11:19:19.000Z</time>
      </trkpt>
      <trkpt lat="42.71504" lon="0.6645">
        <ele>1526.8</ele>
        <time>2018-08-08T11:19:20.000Z</time>
      </trkpt>
      <trkpt lat="42.71503" lon="0.66451">
        <ele>1526.7</ele>
        <time>2018-08-08T11:19:21.000Z</time>
      </trkpt>
      <trkpt lat="42.71502" lon="0.66452">
        <ele>1526.6</ele>
        <time>2018-08-08T11:19:22.000Z</time>
      </trkpt>
      <trkpt lat="42.71501" lon="0.66452">
        <ele>1526.5</ele>
        <time>2018-08-08T11:19:23.000Z</time>
      </trkpt>
      <trkpt lat="42.715" lon="0.66453">
        <ele>1526.4</ele>
        <time>2018-08-08T11:19:24.000Z</time>
      </trkpt>
      <trkpt lat="42.71499" lon="0.66454">
        <ele>1526.5</ele>
        <time>2018-08-08T11:19:25.000Z</time>
      </trkpt>
      <trkpt lat="42.71499" lon="0.66455">
        <ele>1526.7</ele>
        <time>2018-08-08T11:19:26.000Z</time>
      </trkpt>
      <trkpt lat="42.71498" lon="0.66455">
        <ele>1526.9</ele>
        <time>2018-08-08T11:19:27.000Z</time>
      </trkpt>
      <trkpt lat="42.71497" lon="0.66456">
        <ele>1527</ele>
        <time>2018-08-08T11:19:28.000Z</time>
      </trkpt>
      <trkpt lat="42.71496" lon="0.66457">
        <ele>1527.2</ele>
        <time>2018-08-08T11:19:29.000Z</time>
      </trkpt>
      <trkpt lat="42.71495" lon="0.66458">
        <ele>1527.3</ele>
        <time>2018-08-08T11:19:30.000Z</time>
      </trkpt>
      <trkpt lat="42.71495" lon="0.66459">
        <ele>1527.4</ele>
        <time>2018-08-08T11:19:31.000Z</time>
      </trkpt>
      <trkpt lat="42.71494" lon="0.6646">
        <ele>1527.5</ele>
        <time>2018-08-08T11:19:32.000Z</time>
      </trkpt>
      <trkpt lat="42.71493" lon="0.6646">
        <ele>1527.7</ele>
        <time>2018-08-08T11:19:33.000Z</time>
      </trkpt>
      <trkpt lat="42.71492" lon="0.66461">
        <ele>1527.7</ele>
        <time>2018-08-08T11:19:34.000Z</time>
      </trkpt>
      <trkpt lat="42.71492" lon="0.66462">
        <ele>1527.8</ele>
        <time>2018-08-08T11:19:35.000Z</time>
      </trkpt>
      <trkpt lat="42.71491" lon="0.66463">
        <ele>1527.8</ele>
        <time>2018-08-08T11:19:36.000Z</time>
      </trkpt>
      <trkpt lat="42.7149" lon="0.66464">
        <ele>1527.9</ele>
        <time>2018-08-08T11:19:37.000Z</time>
      </trkpt>
      <trkpt lat="42.7149" lon="0.66465">
        <ele>1527.8</ele>
        <time>2018-08-08T11:19:38.000Z</time>
      </trkpt>
      <trkpt lat="42.71489" lon="0.66466">
        <ele>1527.9</ele>
        <time>2018-08-08T11:19:39.000Z</time>
      </trkpt>
      <trkpt lat="42.71489" lon="0.66467">
        <ele>1527.9</ele>
        <time>2018-08-08T11:19:40.000Z</time>
      </trkpt>
      <trkpt lat="42.71489" lon="0.66467">
        <ele>1527.8</ele>
        <time>2018-08-08T11:19:41.000Z</time>
      </trkpt>
      <trkpt lat="42.71488" lon="0.66468">
        <ele>1527.8</ele>
        <time>2018-08-08T11:19:42.000Z</time>
      </trkpt>
      <trkpt lat="42.71488" lon="0.66468">
        <ele>1527.8</ele>
        <time>2018-08-08T11:19:43.000Z</time>
      </trkpt>
      <trkpt lat="42.71488" lon="0.66468">
        <ele>1527.8</ele>
        <time>2018-08-08T11:19:44.000Z</time>
      </trkpt>
      <trkpt lat="42.71488" lon="0.66469">
        <ele>1527.8</ele>
        <time>2018-08-08T11:19:45.000Z</time>
      </trkpt>
      <trkpt lat="42.71488" lon="0.66469">
        <ele>1527.7</ele>
        <time>2018-08-08T11:19:46.000Z</time>
      </trkpt>
      <trkpt lat="42.71488" lon="0.66469">
        <ele>1527.7</ele>
        <time>2018-08-08T11:19:47.000Z</time>
      </trkpt>
      <trkpt lat="42.71488" lon="0.66469">
        <ele>1527.7</ele>
        <time>2018-08-08T11:19:48.000Z</time>
      </trkpt>
      <trkpt lat="42.71488" lon="0.66469">
        <ele>1527.7</ele>
        <time>2018-08-08T11:19:49.000Z</time>
      </trkpt>
      <trkpt lat="42.71488" lon="0.66469">
        <ele>1527.7</ele>
        <time>2018-08-08T11:19:50.000Z</time>
      </trkpt>
      <trkpt lat="42.71488" lon="0.66469">
        <ele>1527.6</ele>
        <time>2018-08-08T11:19:51.000Z</time>
      </trkpt>
      <trkpt lat="42.71488" lon="0.66469">
        <ele>1527.6</ele>
        <time>2018-08-08T11:19:52.000Z</time>
      </trkpt>
      <trkpt lat="42.71488" lon="0.66469">
        <ele>1527.6</ele>
        <time>2018-08-08T11:19:53.000Z</time>
      </trkpt>
      <trkpt lat="42.71488" lon="0.66469">
        <ele>1527.6</ele>
        <time>2018-08-08T11:19:54.000Z</time>
      </trkpt>
      <trkpt lat="42.71488" lon="0.66469">
        <ele>1527.6</ele>
        <time>2018-08-08T11:19:55.000Z</time>
      </trkpt>
      <trkpt lat="42.71488" lon="0.66469">
        <ele>1527.6</ele>
        <time>2018-08-08T11:19:56.000Z</time>
      </trkpt>
      <trkpt lat="42.71488" lon="0.66469">
        <ele>1527.6</ele>
        <time>2018-08-08T11:19:57.000Z</time>
      </trkpt>
      <trkpt lat="42.71488" lon="0.66469">
        <ele>1527.6</ele>
        <time>2018-08-08T11:19:58.000Z</time>
      </trkpt>
      <trkpt lat="42.71488" lon="0.66469">
        <ele>1527.6</ele>
        <time>2018-08-08T11:19:59.000Z</time>
      </trkpt>
      <trkpt lat="42.71488" lon="0.66469">
        <ele>1527.6</ele>
        <time>2018-08-08T11:20:00.000Z</time>
      </trkpt>
      <trkpt lat="42.71488" lon="0.66469">
        <ele>1527.6</ele>
        <time>2018-08-08T11:20:01.000Z</time>
      </trkpt>
      <trkpt lat="42.71488" lon="0.66469">
        <ele>1527.6</ele>
        <time>2018-08-08T11:20:02.000Z</time>
      </trkpt>
      <trkpt lat="42.71488" lon="0.66469">
        <ele>1527.6</ele>
        <time>2018-08-08T11:20:03.000Z</time>
      </trkpt>
      <trkpt lat="42.71488" lon="0.66469">
        <ele>1527.6</ele>
        <time>2018-08-08T11:20:04.000Z</time>
      </trkpt>
      <trkpt lat="42.71488" lon="0.66469">
        <ele>1527.6</ele>
        <time>2018-08-08T11:20:05.000Z</time>
      </trkpt>
      <trkpt lat="42.71488" lon="0.66469">
        <ele>1527.6</ele>
        <time>2018-08-08T11:20:06.000Z</time>
      </trkpt>
      <trkpt lat="42.71488" lon="0.66469">
        <ele>1527.6</ele>
        <time>2018-08-08T11:20:07.000Z</time>
      </trkpt>
      <trkpt lat="42.71488" lon="0.66469">
        <ele>1527.6</ele>
        <time>2018-08-08T11:20:08.000Z</time>
      </trkpt>
      <trkpt lat="42.71488" lon="0.66469">
        <ele>1527.6</ele>
        <time>2018-08-08T11:20:09.000Z</time>
      </trkpt>
      <trkpt lat="42.71488" lon="0.66469">
        <ele>1527.6</ele>
        <time>2018-08-08T11:20:10.000Z</time>
      </trkpt>
      <trkpt lat="42.71488" lon="0.66469">
        <ele>1527.6</ele>
        <time>2018-08-08T11:20:11.000Z</time>
      </trkpt>
      <trkpt lat="42.71488" lon="0.66469">
        <ele>1527.6</ele>
        <time>2018-08-08T11:20:12.000Z</time>
      </trkpt>
      <trkpt lat="42.71488" lon="0.66469">
        <ele>1527.6</ele>
        <time>2018-08-08T11:20:13.000Z</time>
      </trkpt>
      <trkpt lat="42.71488" lon="0.66469">
        <ele>1527.6</ele>
        <time>2018-08-08T11:20:14.000Z</time>
      </trkpt>
      <trkpt lat="42.71488" lon="0.66469">
        <ele>1527.6</ele>
        <time>2018-08-08T11:20:15.000Z</time>
      </trkpt>
      <trkpt lat="42.71488" lon="0.66469">
        <ele>1527.6</ele>
        <time>2018-08-08T11:20:16.000Z</time>
      </trkpt>
      <trkpt lat="42.71488" lon="0.66469">
        <ele>1527.6</ele>
        <time>2018-08-08T11:20:17.000Z</time>
      </trkpt>
      <trkpt lat="42.71488" lon="0.66469">
        <ele>1527.6</ele>
        <time>2018-08-08T11:20:18.000Z</time>
      </trkpt>
      <trkpt lat="42.71488" lon="0.66469">
        <ele>1527.6</ele>
        <time>2018-08-08T11:20:19.000Z</time>
      </trkpt>
      <trkpt lat="42.71488" lon="0.66469">
        <ele>1527.6</ele>
        <time>2018-08-08T11:20:20.000Z</time>
      </trkpt>
      <trkpt lat="42.71488" lon="0.66469">
        <ele>1527.7</ele>
        <time>2018-08-08T11:20:21.000Z</time>
      </trkpt>
      <trkpt lat="42.71488" lon="0.66469">
        <ele>1527.7</ele>
        <time>2018-08-08T11:20:22.000Z</time>
      </trkpt>
      <trkpt lat="42.71488" lon="0.66469">
        <ele>1527.7</ele>
        <time>2018-08-08T11:20:23.000Z</time>
      </trkpt>
      <trkpt lat="42.71488" lon="0.66469">
        <ele>1527.7</ele>
        <time>2018-08-08T11:20:24.000Z</time>
      </trkpt>
      <trkpt lat="42.71488" lon="0.66469">
        <ele>1527.7</ele>
        <time>2018-08-08T11:20:25.000Z</time>
      </trkpt>
      <trkpt lat="42.71488" lon="0.66469">
        <ele>1527.7</ele>
        <time>2018-08-08T11:20:26.000Z</time>
      </trkpt>
      <trkpt lat="42.71488" lon="0.66469">
        <ele>1527.7</ele>
        <time>2018-08-08T11:20:27.000Z</time>
      </trkpt>
      <trkpt lat="42.71488" lon="0.66469">
        <ele>1527.7</ele>
        <time>2018-08-08T11:20:28.000Z</time>
      </trkpt>
      <trkpt lat="42.71488" lon="0.66469">
        <ele>1527.7</ele>
        <time>2018-08-08T11:20:29.000Z</time>
      </trkpt>
      <trkpt lat="42.71488" lon="0.66469">
        <ele>1527.7</ele>
        <time>2018-08-08T11:20:30.000Z</time>
      </trkpt>
      <trkpt lat="42.71488" lon="0.66469">
        <ele>1527.7</ele>
        <time>2018-08-08T11:20:31.000Z</time>
      </trkpt>
      <trkpt lat="42.71488" lon="0.66469">
        <ele>1527.7</ele>
        <time>2018-08-08T11:20:32.000Z</time>
      </trkpt>
      <trkpt lat="42.71488" lon="0.66469">
        <ele>1527.7</ele>
        <time>2018-08-08T11:20:33.000Z</time>
      </trkpt>
      <trkpt lat="42.71488" lon="0.66469">
        <ele>1527.7</ele>
        <time>2018-08-08T11:20:34.000Z</time>
      </trkpt>
      <trkpt lat="42.71488" lon="0.66469">
        <ele>1527.7</ele>
        <time>2018-08-08T11:20:35.000Z</time>
      </trkpt>
      <trkpt lat="42.71488" lon="0.66469">
        <ele>1527.7</ele>
        <time>2018-08-08T11:20:36.000Z</time>
      </trkpt>
      <trkpt lat="42.71488" lon="0.66469">
        <ele>1527.7</ele>
        <time>2018-08-08T11:20:37.000Z</time>
      </trkpt>
      <trkpt lat="42.71488" lon="0.66469">
        <ele>1527.7</ele>
        <time>2018-08-08T11:20:38.000Z</time>
      </trkpt>
      <trkpt lat="42.71488" lon="0.66469">
        <ele>1527.7</ele>
        <time>2018-08-08T11:20:39.000Z</time>
      </trkpt>
      <trkpt lat="42.71487" lon="0.6647">
        <ele>1527.8</ele>
        <time>2018-08-08T11:20:40.000Z</time>
      </trkpt>
      <trkpt lat="42.71487" lon="0.6647">
        <ele>1527.9</ele>
        <time>2018-08-08T11:20:41.000Z</time>
      </trkpt>
      <trkpt lat="42.71486" lon="0.66471">
        <ele>1527.9</ele>
        <time>2018-08-08T11:20:42.000Z</time>
      </trkpt>
      <trkpt lat="42.71485" lon="0.66472">
        <ele>1528</ele>
        <time>2018-08-08T11:20:43.000Z</time>
      </trkpt>
      <trkpt lat="42.71485" lon="0.66473">
        <ele>1528</ele>
        <time>2018-08-08T11:20:44.000Z</time>
      </trkpt>
      <trkpt lat="42.71484" lon="0.66474">
        <ele>1528</ele>
        <time>2018-08-08T11:20:45.000Z</time>
      </trkpt>
      <trkpt lat="42.71484" lon="0.66475">
        <ele>1528</ele>
        <time>2018-08-08T11:20:46.000Z</time>
      </trkpt>
      <trkpt lat="42.71483" lon="0.66476">
        <ele>1528.1</ele>
        <time>2018-08-08T11:20:47.000Z</time>
      </trkpt>
      <trkpt lat="42.71482" lon="0.66476">
        <ele>1528.2</ele>
        <time>2018-08-08T11:20:48.000Z</time>
      </trkpt>
      <trkpt lat="42.71481" lon="0.66477">
        <ele>1528.2</ele>
        <time>2018-08-08T11:20:49.000Z</time>
      </trkpt>
      <trkpt lat="42.7148" lon="0.66478">
        <ele>1528.4</ele>
        <time>2018-08-08T11:20:50.000Z</time>
      </trkpt>
      <trkpt lat="42.7148" lon="0.66479">
        <ele>1528.5</ele>
        <time>2018-08-08T11:20:51.000Z</time>
      </trkpt>
      <trkpt lat="42.71479" lon="0.6648">
        <ele>1528.6</ele>
        <time>2018-08-08T11:20:52.000Z</time>
      </trkpt>
      <trkpt lat="42.71478" lon="0.6648">
        <ele>1528.8</ele>
        <time>2018-08-08T11:20:53.000Z</time>
      </trkpt>
      <trkpt lat="42.71477" lon="0.66481">
        <ele>1528.9</ele>
        <time>2018-08-08T11:20:54.000Z</time>
      </trkpt>
      <trkpt lat="42.71476" lon="0.66482">
        <ele>1529</ele>
        <time>2018-08-08T11:20:55.000Z</time>
      </trkpt>
      <trkpt lat="42.71475" lon="0.66483">
        <ele>1529.1</ele>
        <time>2018-08-08T11:20:56.000Z</time>
      </trkpt>
      <trkpt lat="42.71474" lon="0.66483">
        <ele>1529.2</ele>
        <time>2018-08-08T11:20:57.000Z</time>
      </trkpt>
      <trkpt lat="42.71473" lon="0.66484">
        <ele>1529.3</ele>
        <time>2018-08-08T11:20:58.000Z</time>
      </trkpt>
      <trkpt lat="42.71472" lon="0.66485">
        <ele>1529.4</ele>
        <time>2018-08-08T11:20:59.000Z</time>
      </trkpt>
      <trkpt lat="42.71472" lon="0.66486">
        <ele>1529.4</ele>
        <time>2018-08-08T11:21:00.000Z</time>
      </trkpt>
      <trkpt lat="42.71471" lon="0.66487">
        <ele>1529.5</ele>
        <time>2018-08-08T11:21:01.000Z</time>
      </trkpt>
      <trkpt lat="42.7147" lon="0.66488">
        <ele>1529.5</ele>
        <time>2018-08-08T11:21:02.000Z</time>
      </trkpt>
      <trkpt lat="42.71469" lon="0.66489">
        <ele>1529.5</ele>
        <time>2018-08-08T11:21:03.000Z</time>
      </trkpt>
      <trkpt lat="42.71469" lon="0.6649">
        <ele>1529.5</ele>
        <time>2018-08-08T11:21:04.000Z</time>
      </trkpt>
      <trkpt lat="42.71468" lon="0.66491">
        <ele>1529.4</ele>
        <time>2018-08-08T11:21:05.000Z</time>
      </trkpt>
      <trkpt lat="42.71467" lon="0.66491">
        <ele>1529.4</ele>
        <time>2018-08-08T11:21:06.000Z</time>
      </trkpt>
      <trkpt lat="42.71467" lon="0.66492">
        <ele>1529.4</ele>
        <time>2018-08-08T11:21:07.000Z</time>
      </trkpt>
      <trkpt lat="42.71466" lon="0.66493">
        <ele>1529.4</ele>
        <time>2018-08-08T11:21:08.000Z</time>
      </trkpt>
      <trkpt lat="42.71465" lon="0.66494">
        <ele>1529.4</ele>
        <time>2018-08-08T11:21:09.000Z</time>
      </trkpt>
      <trkpt lat="42.71465" lon="0.66495">
        <ele>1529.3</ele>
        <time>2018-08-08T11:21:10.000Z</time>
      </trkpt>
      <trkpt lat="42.71464" lon="0.66496">
        <ele>1529.3</ele>
        <time>2018-08-08T11:21:11.000Z</time>
      </trkpt>
      <trkpt lat="42.71463" lon="0.66497">
        <ele>1529.3</ele>
        <time>2018-08-08T11:21:12.000Z</time>
      </trkpt>
      <trkpt lat="42.71463" lon="0.66498">
        <ele>1529.4</ele>
        <time>2018-08-08T11:21:13.000Z</time>
      </trkpt>
      <trkpt lat="42.71462" lon="0.66498">
        <ele>1529.4</ele>
        <time>2018-08-08T11:21:14.000Z</time>
      </trkpt>
      <trkpt lat="42.71461" lon="0.66499">
        <ele>1529.5</ele>
        <time>2018-08-08T11:21:15.000Z</time>
      </trkpt>
      <trkpt lat="42.7146" lon="0.665">
        <ele>1529.5</ele>
        <time>2018-08-08T11:21:16.000Z</time>
      </trkpt>
      <trkpt lat="42.71459" lon="0.66501">
        <ele>1529.7</ele>
        <time>2018-08-08T11:21:17.000Z</time>
      </trkpt>
      <trkpt lat="42.71459" lon="0.66501">
        <ele>1529.9</ele>
        <time>2018-08-08T11:21:18.000Z</time>
      </trkpt>
      <trkpt lat="42.71458" lon="0.66502">
        <ele>1530.2</ele>
        <time>2018-08-08T11:21:19.000Z</time>
      </trkpt>
      <trkpt lat="42.71457" lon="0.66503">
        <ele>1530.4</ele>
        <time>2018-08-08T11:21:20.000Z</time>
      </trkpt>
      <trkpt lat="42.71456" lon="0.66503">
        <ele>1530.6</ele>
        <time>2018-08-08T11:21:21.000Z</time>
      </trkpt>
      <trkpt lat="42.71455" lon="0.66504">
        <ele>1530.8</ele>
        <time>2018-08-08T11:21:22.000Z</time>
      </trkpt>
      <trkpt lat="42.71454" lon="0.66505">
        <ele>1531</ele>
        <time>2018-08-08T11:21:23.000Z</time>
      </trkpt>
      <trkpt lat="42.71454" lon="0.66505">
        <ele>1531.2</ele>
        <time>2018-08-08T11:21:24.000Z</time>
      </trkpt>
      <trkpt lat="42.71453" lon="0.66506">
        <ele>1531.3</ele>
        <time>2018-08-08T11:21:25.000Z</time>
      </trkpt>
      <trkpt lat="42.71452" lon="0.66507">
        <ele>1531.4</ele>
        <time>2018-08-08T11:21:26.000Z</time>
      </trkpt>
      <trkpt lat="42.71451" lon="0.66508">
        <ele>1531.6</ele>
        <time>2018-08-08T11:21:27.000Z</time>
      </trkpt>
      <trkpt lat="42.71451" lon="0.66509">
        <ele>1531.7</ele>
        <time>2018-08-08T11:21:28.000Z</time>
      </trkpt>
      <trkpt lat="42.7145" lon="0.6651">
        <ele>1531.7</ele>
        <time>2018-08-08T11:21:29.000Z</time>
      </trkpt>
      <trkpt lat="42.7145" lon="0.66511">
        <ele>1531.8</ele>
        <time>2018-08-08T11:21:30.000Z</time>
      </trkpt>
      <trkpt lat="42.71449" lon="0.66512">
        <ele>1531.9</ele>
        <time>2018-08-08T11:21:31.000Z</time>
      </trkpt>
      <trkpt lat="42.71449" lon="0.66513">
        <ele>1531.9</ele>
        <time>2018-08-08T11:21:32.000Z</time>
      </trkpt>
      <trkpt lat="42.71449" lon="0.66515">
        <ele>1531.9</ele>
        <time>2018-08-08T11:21:33.000Z</time>
      </trkpt>
      <trkpt lat="42.71448" lon="0.66516">
        <ele>1531.9</ele>
        <time>2018-08-08T11:21:34.000Z</time>
      </trkpt>
      <trkpt lat="42.71448" lon="0.66517">
        <ele>1531.9</ele>
        <time>2018-08-08T11:21:35.000Z</time>
      </trkpt>
      <trkpt lat="42.71447" lon="0.66518">
        <ele>1531.9</ele>
        <time>2018-08-08T11:21:36.000Z</time>
      </trkpt>
      <trkpt lat="42.71447" lon="0.6652">
        <ele>1531.9</ele>
        <time>2018-08-08T11:21:37.000Z</time>
      </trkpt>
      <trkpt lat="42.71447" lon="0.66521">
        <ele>1531.9</ele>
        <time>2018-08-08T11:21:38.000Z</time>
      </trkpt>
      <trkpt lat="42.71446" lon="0.66522">
        <ele>1531.9</ele>
        <time>2018-08-08T11:21:39.000Z</time>
      </trkpt>
      <trkpt lat="42.71446" lon="0.66523">
        <ele>1531.8</ele>
        <time>2018-08-08T11:21:40.000Z</time>
      </trkpt>
      <trkpt lat="42.71446" lon="0.66525">
        <ele>1531.8</ele>
        <time>2018-08-08T11:21:41.000Z</time>
      </trkpt>
      <trkpt lat="42.71445" lon="0.66526">
        <ele>1531.8</ele>
        <time>2018-08-08T11:21:42.000Z</time>
      </trkpt>
      <trkpt lat="42.71445" lon="0.66527">
        <ele>1531.8</ele>
        <time>2018-08-08T11:21:43.000Z</time>
      </trkpt>
      <trkpt lat="42.71444" lon="0.66528">
        <ele>1531.8</ele>
        <time>2018-08-08T11:21:44.000Z</time>
      </trkpt>
      <trkpt lat="42.71444" lon="0.66529">
        <ele>1531.8</ele>
        <time>2018-08-08T11:21:45.000Z</time>
      </trkpt>
      <trkpt lat="42.71443" lon="0.6653">
        <ele>1531.8</ele>
        <time>2018-08-08T11:21:46.000Z</time>
      </trkpt>
      <trkpt lat="42.71443" lon="0.66531">
        <ele>1531.8</ele>
        <time>2018-08-08T11:21:47.000Z</time>
      </trkpt>
      <trkpt lat="42.71442" lon="0.66532">
        <ele>1531.8</ele>
        <time>2018-08-08T11:21:48.000Z</time>
      </trkpt>
      <trkpt lat="42.71441" lon="0.66533">
        <ele>1531.8</ele>
        <time>2018-08-08T11:21:49.000Z</time>
      </trkpt>
      <trkpt lat="42.71441" lon="0.66534">
        <ele>1531.8</ele>
        <time>2018-08-08T11:21:50.000Z</time>
      </trkpt>
      <trkpt lat="42.7144" lon="0.66535">
        <ele>1531.8</ele>
        <time>2018-08-08T11:21:51.000Z</time>
      </trkpt>
      <trkpt lat="42.71439" lon="0.66536">
        <ele>1531.8</ele>
        <time>2018-08-08T11:21:52.000Z</time>
      </trkpt>
      <trkpt lat="42.71439" lon="0.66537">
        <ele>1531.8</ele>
        <time>2018-08-08T11:21:53.000Z</time>
      </trkpt>
      <trkpt lat="42.71438" lon="0.66538">
        <ele>1531.8</ele>
        <time>2018-08-08T11:21:54.000Z</time>
      </trkpt>
      <trkpt lat="42.71437" lon="0.66539">
        <ele>1531.8</ele>
        <time>2018-08-08T11:21:55.000Z</time>
      </trkpt>
      <trkpt lat="42.71437" lon="0.6654">
        <ele>1531.8</ele>
        <time>2018-08-08T11:21:56.000Z</time>
      </trkpt>
      <trkpt lat="42.71436" lon="0.66541">
        <ele>1531.8</ele>
        <time>2018-08-08T11:21:57.000Z</time>
      </trkpt>
      <trkpt lat="42.71435" lon="0.66542">
        <ele>1531.8</ele>
        <time>2018-08-08T11:21:58.000Z</time>
      </trkpt>
      <trkpt lat="42.71434" lon="0.66543">
        <ele>1531.8</ele>
        <time>2018-08-08T11:21:59.000Z</time>
      </trkpt>
      <trkpt lat="42.71433" lon="0.66543">
        <ele>1531.8</ele>
        <time>2018-08-08T11:22:00.000Z</time>
      </trkpt>
      <trkpt lat="42.71433" lon="0.66544">
        <ele>1531.8</ele>
        <time>2018-08-08T11:22:01.000Z</time>
      </trkpt>
      <trkpt lat="42.71432" lon="0.66545">
        <ele>1531.7</ele>
        <time>2018-08-08T11:22:02.000Z</time>
      </trkpt>
      <trkpt lat="42.71431" lon="0.66546">
        <ele>1531.7</ele>
        <time>2018-08-08T11:22:03.000Z</time>
      </trkpt>
      <trkpt lat="42.7143" lon="0.66547">
        <ele>1531.7</ele>
        <time>2018-08-08T11:22:04.000Z</time>
      </trkpt>
      <trkpt lat="42.71429" lon="0.66548">
        <ele>1531.6</ele>
        <time>2018-08-08T11:22:05.000Z</time>
      </trkpt>
      <trkpt lat="42.71429" lon="0.66549">
        <ele>1531.5</ele>
        <time>2018-08-08T11:22:06.000Z</time>
      </trkpt>
      <trkpt lat="42.71428" lon="0.6655">
        <ele>1531.5</ele>
        <time>2018-08-08T11:22:07.000Z</time>
      </trkpt>
      <trkpt lat="42.71427" lon="0.66551">
        <ele>1531.4</ele>
        <time>2018-08-08T11:22:08.000Z</time>
      </trkpt>
      <trkpt lat="42.71427" lon="0.66552">
        <ele>1531.3</ele>
        <time>2018-08-08T11:22:09.000Z</time>
      </trkpt>
      <trkpt lat="42.71426" lon="0.66553">
        <ele>1531.2</ele>
        <time>2018-08-08T11:22:10.000Z</time>
      </trkpt>
      <trkpt lat="42.71425" lon="0.66554">
        <ele>1531.1</ele>
        <time>2018-08-08T11:22:11.000Z</time>
      </trkpt>
      <trkpt lat="42.71425" lon="0.66555">
        <ele>1531</ele>
        <time>2018-08-08T11:22:12.000Z</time>
      </trkpt>
      <trkpt lat="42.71424" lon="0.66556">
        <ele>1530.8</ele>
        <time>2018-08-08T11:22:13.000Z</time>
      </trkpt>
      <trkpt lat="42.71424" lon="0.66557">
        <ele>1530.7</ele>
        <time>2018-08-08T11:22:14.000Z</time>
      </trkpt>
      <trkpt lat="42.71423" lon="0.66558">
        <ele>1530.5</ele>
        <time>2018-08-08T11:22:15.000Z</time>
      </trkpt>
      <trkpt lat="42.71423" lon="0.66559">
        <ele>1530.4</ele>
        <time>2018-08-08T11:22:16.000Z</time>
      </trkpt>
      <trkpt lat="42.71422" lon="0.6656">
        <ele>1530.2</ele>
        <time>2018-08-08T11:22:17.000Z</time>
      </trkpt>
      <trkpt lat="42.71422" lon="0.66561">
        <ele>1530.1</ele>
        <time>2018-08-08T11:22:18.000Z</time>
      </trkpt>
      <trkpt lat="42.71421" lon="0.66562">
        <ele>1529.9</ele>
        <time>2018-08-08T11:22:19.000Z</time>
      </trkpt>
      <trkpt lat="42.7142" lon="0.66564">
        <ele>1529.7</ele>
        <time>2018-08-08T11:22:20.000Z</time>
      </trkpt>
      <trkpt lat="42.7142" lon="0.66565">
        <ele>1529.5</ele>
        <time>2018-08-08T11:22:21.000Z</time>
      </trkpt>
      <trkpt lat="42.71419" lon="0.66566">
        <ele>1529.3</ele>
        <time>2018-08-08T11:22:22.000Z</time>
      </trkpt>
      <trkpt lat="42.71419" lon="0.66567">
        <ele>1529.1</ele>
        <time>2018-08-08T11:22:23.000Z</time>
      </trkpt>
      <trkpt lat="42.71418" lon="0.66568">
        <ele>1528.9</ele>
        <time>2018-08-08T11:22:24.000Z</time>
      </trkpt>
      <trkpt lat="42.71418" lon="0.66569">
        <ele>1528.7</ele>
        <time>2018-08-08T11:22:25.000Z</time>
      </trkpt>
      <trkpt lat="42.71417" lon="0.6657">
        <ele>1528.5</ele>
        <time>2018-08-08T11:22:26.000Z</time>
      </trkpt>
      <trkpt lat="42.71416" lon="0.66571">
        <ele>1528.4</ele>
        <time>2018-08-08T11:22:27.000Z</time>
      </trkpt>
      <trkpt lat="42.71415" lon="0.66572">
        <ele>1528.4</ele>
        <time>2018-08-08T11:22:28.000Z</time>
      </trkpt>
      <trkpt lat="42.71415" lon="0.66573">
        <ele>1528.4</ele>
        <time>2018-08-08T11:22:29.000Z</time>
      </trkpt>
      <trkpt lat="42.71414" lon="0.66574">
        <ele>1528.4</ele>
        <time>2018-08-08T11:22:30.000Z</time>
      </trkpt>
      <trkpt lat="42.71413" lon="0.66575">
        <ele>1528.4</ele>
        <time>2018-08-08T11:22:31.000Z</time>
      </trkpt>
      <trkpt lat="42.71412" lon="0.66575">
        <ele>1528.4</ele>
        <time>2018-08-08T11:22:32.000Z</time>
      </trkpt>
      <trkpt lat="42.71412" lon="0.66576">
        <ele>1528.5</ele>
        <time>2018-08-08T11:22:33.000Z</time>
      </trkpt>
      <trkpt lat="42.71411" lon="0.66577">
        <ele>1528.5</ele>
        <time>2018-08-08T11:22:34.000Z</time>
      </trkpt>
      <trkpt lat="42.7141" lon="0.66577">
        <ele>1528.6</ele>
        <time>2018-08-08T11:22:35.000Z</time>
      </trkpt>
      <trkpt lat="42.71409" lon="0.66577">
        <ele>1528.7</ele>
        <time>2018-08-08T11:22:36.000Z</time>
      </trkpt>
      <trkpt lat="42.71408" lon="0.66578">
        <ele>1528.8</ele>
        <time>2018-08-08T11:22:37.000Z</time>
      </trkpt>
      <trkpt lat="42.71407" lon="0.66578">
        <ele>1528.9</ele>
        <time>2018-08-08T11:22:38.000Z</time>
      </trkpt>
      <trkpt lat="42.71407" lon="0.66578">
        <ele>1529</ele>
        <time>2018-08-08T11:22:39.000Z</time>
      </trkpt>
      <trkpt lat="42.71406" lon="0.66578">
        <ele>1529.2</ele>
        <time>2018-08-08T11:22:40.000Z</time>
      </trkpt>
      <trkpt lat="42.71405" lon="0.66579">
        <ele>1529.3</ele>
        <time>2018-08-08T11:22:41.000Z</time>
      </trkpt>
      <trkpt lat="42.71404" lon="0.66579">
        <ele>1529.5</ele>
        <time>2018-08-08T11:22:42.000Z</time>
      </trkpt>
      <trkpt lat="42.71403" lon="0.66579">
        <ele>1529.6</ele>
        <time>2018-08-08T11:22:43.000Z</time>
      </trkpt>
      <trkpt lat="42.71403" lon="0.66579">
        <ele>1529.8</ele>
        <time>2018-08-08T11:22:44.000Z</time>
      </trkpt>
      <trkpt lat="42.71402" lon="0.66579">
        <ele>1529.9</ele>
        <time>2018-08-08T11:22:45.000Z</time>
      </trkpt>
      <trkpt lat="42.71401" lon="0.6658">
        <ele>1530</ele>
        <time>2018-08-08T11:22:46.000Z</time>
      </trkpt>
      <trkpt lat="42.714" lon="0.6658">
        <ele>1530</ele>
        <time>2018-08-08T11:22:47.000Z</time>
      </trkpt>
      <trkpt lat="42.714" lon="0.66581">
        <ele>1530</ele>
        <time>2018-08-08T11:22:48.000Z</time>
      </trkpt>
      <trkpt lat="42.71399" lon="0.66582">
        <ele>1529.9</ele>
        <time>2018-08-08T11:22:49.000Z</time>
      </trkpt>
      <trkpt lat="42.71399" lon="0.66583">
        <ele>1529.8</ele>
        <time>2018-08-08T11:22:50.000Z</time>
      </trkpt>
      <trkpt lat="42.71398" lon="0.66584">
        <ele>1529.8</ele>
        <time>2018-08-08T11:22:51.000Z</time>
      </trkpt>
      <trkpt lat="42.71398" lon="0.66585">
        <ele>1530</ele>
        <time>2018-08-08T11:22:52.000Z</time>
      </trkpt>
      <trkpt lat="42.71397" lon="0.66586">
        <ele>1530.1</ele>
        <time>2018-08-08T11:22:53.000Z</time>
      </trkpt>
      <trkpt lat="42.71396" lon="0.66587">
        <ele>1530.3</ele>
        <time>2018-08-08T11:22:54.000Z</time>
      </trkpt>
      <trkpt lat="42.71396" lon="0.66587">
        <ele>1530.4</ele>
        <time>2018-08-08T11:22:55.000Z</time>
      </trkpt>
      <trkpt lat="42.71395" lon="0.66588">
        <ele>1530.6</ele>
        <time>2018-08-08T11:22:56.000Z</time>
      </trkpt>
      <trkpt lat="42.71394" lon="0.66589">
        <ele>1530.8</ele>
        <time>2018-08-08T11:22:57.000Z</time>
      </trkpt>
      <trkpt lat="42.71394" lon="0.66589">
        <ele>1531</ele>
        <time>2018-08-08T11:22:58.000Z</time>
      </trkpt>
      <trkpt lat="42.71393" lon="0.66589">
        <ele>1531.1</ele>
        <time>2018-08-08T11:22:59.000Z</time>
      </trkpt>
      <trkpt lat="42.71392" lon="0.6659">
        <ele>1531.3</ele>
        <time>2018-08-08T11:23:00.000Z</time>
      </trkpt>
      <trkpt lat="42.71391" lon="0.6659">
        <ele>1531.5</ele>
        <time>2018-08-08T11:23:01.000Z</time>
      </trkpt>
      <trkpt lat="42.7139" lon="0.6659">
        <ele>1531.7</ele>
        <time>2018-08-08T11:23:02.000Z</time>
      </trkpt>
      <trkpt lat="42.71389" lon="0.6659">
        <ele>1531.9</ele>
        <time>2018-08-08T11:23:03.000Z</time>
      </trkpt>
      <trkpt lat="42.71388" lon="0.66591">
        <ele>1532</ele>
        <time>2018-08-08T11:23:04.000Z</time>
      </trkpt>
      <trkpt lat="42.71387" lon="0.66591">
        <ele>1532.2</ele>
        <time>2018-08-08T11:23:05.000Z</time>
      </trkpt>
      <trkpt lat="42.71386" lon="0.66591">
        <ele>1532.4</ele>
        <time>2018-08-08T11:23:06.000Z</time>
      </trkpt>
      <trkpt lat="42.71385" lon="0.66591">
        <ele>1532.6</ele>
        <time>2018-08-08T11:23:07.000Z</time>
      </trkpt>
      <trkpt lat="42.71385" lon="0.66592">
        <ele>1532.8</ele>
        <time>2018-08-08T11:23:08.000Z</time>
      </trkpt>
      <trkpt lat="42.71384" lon="0.66592">
        <ele>1532.9</ele>
        <time>2018-08-08T11:23:09.000Z</time>
      </trkpt>
      <trkpt lat="42.71383" lon="0.66593">
        <ele>1533.1</ele>
        <time>2018-08-08T11:23:10.000Z</time>
      </trkpt>
      <trkpt lat="42.71382" lon="0.66593">
        <ele>1533.3</ele>
        <time>2018-08-08T11:23:11.000Z</time>
      </trkpt>
      <trkpt lat="42.71381" lon="0.66594">
        <ele>1533.4</ele>
        <time>2018-08-08T11:23:12.000Z</time>
      </trkpt>
      <trkpt lat="42.7138" lon="0.66595">
        <ele>1533.6</ele>
        <time>2018-08-08T11:23:13.000Z</time>
      </trkpt>
      <trkpt lat="42.7138" lon="0.66595">
        <ele>1533.7</ele>
        <time>2018-08-08T11:23:14.000Z</time>
      </trkpt>
      <trkpt lat="42.71379" lon="0.66596">
        <ele>1533.9</ele>
        <time>2018-08-08T11:23:15.000Z</time>
      </trkpt>
      <trkpt lat="42.71378" lon="0.66597">
        <ele>1534</ele>
        <time>2018-08-08T11:23:16.000Z</time>
      </trkpt>
      <trkpt lat="42.71378" lon="0.66598">
        <ele>1534.1</ele>
        <time>2018-08-08T11:23:17.000Z</time>
      </trkpt>
      <trkpt lat="42.71377" lon="0.66599">
        <ele>1534.2</ele>
        <time>2018-08-08T11:23:18.000Z</time>
      </trkpt>
      <trkpt lat="42.71376" lon="0.666">
        <ele>1534.4</ele>
        <time>2018-08-08T11:23:19.000Z</time>
      </trkpt>
      <trkpt lat="42.71376" lon="0.666">
        <ele>1534.5</ele>
        <time>2018-08-08T11:23:20.000Z</time>
      </trkpt>
      <trkpt lat="42.71375" lon="0.66601">
        <ele>1534.6</ele>
        <time>2018-08-08T11:23:21.000Z</time>
      </trkpt>
      <trkpt lat="42.71375" lon="0.66602">
        <ele>1534.7</ele>
        <time>2018-08-08T11:23:22.000Z</time>
      </trkpt>
      <trkpt lat="42.71374" lon="0.66603">
        <ele>1534.8</ele>
        <time>2018-08-08T11:23:23.000Z</time>
      </trkpt>
      <trkpt lat="42.71374" lon="0.66604">
        <ele>1534.8</ele>
        <time>2018-08-08T11:23:24.000Z</time>
      </trkpt>
      <trkpt lat="42.71373" lon="0.66605">
        <ele>1534.9</ele>
        <time>2018-08-08T11:23:25.000Z</time>
      </trkpt>
      <trkpt lat="42.71373" lon="0.66606">
        <ele>1535</ele>
        <time>2018-08-08T11:23:26.000Z</time>
      </trkpt>
      <trkpt lat="42.71372" lon="0.66607">
        <ele>1535.1</ele>
        <time>2018-08-08T11:23:27.000Z</time>
      </trkpt>
      <trkpt lat="42.71372" lon="0.66608">
        <ele>1535.2</ele>
        <time>2018-08-08T11:23:28.000Z</time>
      </trkpt>
      <trkpt lat="42.71371" lon="0.66609">
        <ele>1535.2</ele>
        <time>2018-08-08T11:23:29.000Z</time>
      </trkpt>
      <trkpt lat="42.71371" lon="0.6661">
        <ele>1535.3</ele>
        <time>2018-08-08T11:23:30.000Z</time>
      </trkpt>
      <trkpt lat="42.7137" lon="0.66611">
        <ele>1535.4</ele>
        <time>2018-08-08T11:23:31.000Z</time>
      </trkpt>
      <trkpt lat="42.71369" lon="0.66612">
        <ele>1535.5</ele>
        <time>2018-08-08T11:23:32.000Z</time>
      </trkpt>
      <trkpt lat="42.71369" lon="0.66613">
        <ele>1535.6</ele>
        <time>2018-08-08T11:23:33.000Z</time>
      </trkpt>
      <trkpt lat="42.71368" lon="0.66614">
        <ele>1535.7</ele>
        <time>2018-08-08T11:23:34.000Z</time>
      </trkpt>
      <trkpt lat="42.71367" lon="0.66615">
        <ele>1535.8</ele>
        <time>2018-08-08T11:23:35.000Z</time>
      </trkpt>
      <trkpt lat="42.71367" lon="0.66615">
        <ele>1535.9</ele>
        <time>2018-08-08T11:23:36.000Z</time>
      </trkpt>
      <trkpt lat="42.71366" lon="0.66616">
        <ele>1536</ele>
        <time>2018-08-08T11:23:37.000Z</time>
      </trkpt>
      <trkpt lat="42.71365" lon="0.66617">
        <ele>1536.1</ele>
        <time>2018-08-08T11:23:38.000Z</time>
      </trkpt>
      <trkpt lat="42.71365" lon="0.66618">
        <ele>1536.1</ele>
        <time>2018-08-08T11:23:39.000Z</time>
      </trkpt>
      <trkpt lat="42.71364" lon="0.66619">
        <ele>1536.2</ele>
        <time>2018-08-08T11:23:40.000Z</time>
      </trkpt>
      <trkpt lat="42.71364" lon="0.66619">
        <ele>1536.3</ele>
        <time>2018-08-08T11:23:41.000Z</time>
      </trkpt>
      <trkpt lat="42.71363" lon="0.6662">
        <ele>1536.3</ele>
        <time>2018-08-08T11:23:42.000Z</time>
      </trkpt>
      <trkpt lat="42.71363" lon="0.66621">
        <ele>1536.4</ele>
        <time>2018-08-08T11:23:43.000Z</time>
      </trkpt>
      <trkpt lat="42.71362" lon="0.66622">
        <ele>1536.4</ele>
        <time>2018-08-08T11:23:44.000Z</time>
      </trkpt>
      <trkpt lat="42.71362" lon="0.66623">
        <ele>1536.5</ele>
        <time>2018-08-08T11:23:45.000Z</time>
      </trkpt>
      <trkpt lat="42.71361" lon="0.66624">
        <ele>1536.5</ele>
        <time>2018-08-08T11:23:46.000Z</time>
      </trkpt>
      <trkpt lat="42.71361" lon="0.66625">
        <ele>1536.5</ele>
        <time>2018-08-08T11:23:47.000Z</time>
      </trkpt>
      <trkpt lat="42.71361" lon="0.66626">
        <ele>1536.5</ele>
        <time>2018-08-08T11:23:48.000Z</time>
      </trkpt>
      <trkpt lat="42.7136" lon="0.66627">
        <ele>1536.6</ele>
        <time>2018-08-08T11:23:49.000Z</time>
      </trkpt>
      <trkpt lat="42.7136" lon="0.66628">
        <ele>1536.6</ele>
        <time>2018-08-08T11:23:50.000Z</time>
      </trkpt>
      <trkpt lat="42.71359" lon="0.66628">
        <ele>1536.7</ele>
        <time>2018-08-08T11:23:51.000Z</time>
      </trkpt>
      <trkpt lat="42.71359" lon="0.66629">
        <ele>1536.7</ele>
        <time>2018-08-08T11:23:52.000Z</time>
      </trkpt>
      <trkpt lat="42.71358" lon="0.66629">
        <ele>1536.8</ele>
        <time>2018-08-08T11:23:53.000Z</time>
      </trkpt>
      <trkpt lat="42.71357" lon="0.6663">
        <ele>1536.9</ele>
        <time>2018-08-08T11:23:54.000Z</time>
      </trkpt>
      <trkpt lat="42.71357" lon="0.6663">
        <ele>1536.9</ele>
        <time>2018-08-08T11:23:55.000Z</time>
      </trkpt>
      <trkpt lat="42.71356" lon="0.66631">
        <ele>1537</ele>
        <time>2018-08-08T11:23:56.000Z</time>
      </trkpt>
      <trkpt lat="42.71355" lon="0.66631">
        <ele>1537.1</ele>
        <time>2018-08-08T11:23:57.000Z</time>
      </trkpt>
      <trkpt lat="42.71354" lon="0.66631">
        <ele>1537.2</ele>
        <time>2018-08-08T11:23:58.000Z</time>
      </trkpt>
      <trkpt lat="42.71353" lon="0.66631">
        <ele>1537.3</ele>
        <time>2018-08-08T11:23:59.000Z</time>
      </trkpt>
      <trkpt lat="42.71352" lon="0.66632">
        <ele>1537.4</ele>
        <time>2018-08-08T11:24:00.000Z</time>
      </trkpt>
      <trkpt lat="42.71351" lon="0.66632">
        <ele>1537.5</ele>
        <time>2018-08-08T11:24:01.000Z</time>
      </trkpt>
      <trkpt lat="42.7135" lon="0.66632">
        <ele>1537.6</ele>
        <time>2018-08-08T11:24:02.000Z</time>
      </trkpt>
      <trkpt lat="42.71349" lon="0.66632">
        <ele>1537.7</ele>
        <time>2018-08-08T11:24:03.000Z</time>
      </trkpt>
      <trkpt lat="42.71348" lon="0.66632">
        <ele>1537.8</ele>
        <time>2018-08-08T11:24:04.000Z</time>
      </trkpt>
      <trkpt lat="42.71348" lon="0.66632">
        <ele>1537.9</ele>
        <time>2018-08-08T11:24:05.000Z</time>
      </trkpt>
      <trkpt lat="42.71347" lon="0.66633">
        <ele>1538</ele>
        <time>2018-08-08T11:24:06.000Z</time>
      </trkpt>
      <trkpt lat="42.71346" lon="0.66633">
        <ele>1538.1</ele>
        <time>2018-08-08T11:24:07.000Z</time>
      </trkpt>
      <trkpt lat="42.71345" lon="0.66633">
        <ele>1538.1</ele>
        <time>2018-08-08T11:24:08.000Z</time>
      </trkpt>
      <trkpt lat="42.71344" lon="0.66634">
        <ele>1538.2</ele>
        <time>2018-08-08T11:24:09.000Z</time>
      </trkpt>
      <trkpt lat="42.71343" lon="0.66634">
        <ele>1538.3</ele>
        <time>2018-08-08T11:24:10.000Z</time>
      </trkpt>
      <trkpt lat="42.71342" lon="0.66634">
        <ele>1538.3</ele>
        <time>2018-08-08T11:24:11.000Z</time>
      </trkpt>
      <trkpt lat="42.71342" lon="0.66635">
        <ele>1538.4</ele>
        <time>2018-08-08T11:24:12.000Z</time>
      </trkpt>
      <trkpt lat="42.71341" lon="0.66635">
        <ele>1538.4</ele>
        <time>2018-08-08T11:24:13.000Z</time>
      </trkpt>
      <trkpt lat="42.7134" lon="0.66636">
        <ele>1538.5</ele>
        <time>2018-08-08T11:24:14.000Z</time>
      </trkpt>
      <trkpt lat="42.71339" lon="0.66636">
        <ele>1538.6</ele>
        <time>2018-08-08T11:24:15.000Z</time>
      </trkpt>
      <trkpt lat="42.71339" lon="0.66637">
        <ele>1538.6</ele>
        <time>2018-08-08T11:24:16.000Z</time>
      </trkpt>
      <trkpt lat="42.71338" lon="0.66638">
        <ele>1538.6</ele>
        <time>2018-08-08T11:24:17.000Z</time>
      </trkpt>
      <trkpt lat="42.71337" lon="0.66638">
        <ele>1538.7</ele>
        <time>2018-08-08T11:24:18.000Z</time>
      </trkpt>
      <trkpt lat="42.71336" lon="0.66639">
        <ele>1538.7</ele>
        <time>2018-08-08T11:24:19.000Z</time>
      </trkpt>
      <trkpt lat="42.71336" lon="0.66639">
        <ele>1538.7</ele>
        <time>2018-08-08T11:24:20.000Z</time>
      </trkpt>
      <trkpt lat="42.71335" lon="0.6664">
        <ele>1538.8</ele>
        <time>2018-08-08T11:24:21.000Z</time>
      </trkpt>
      <trkpt lat="42.71334" lon="0.66641">
        <ele>1538.8</ele>
        <time>2018-08-08T11:24:22.000Z</time>
      </trkpt>
      <trkpt lat="42.71333" lon="0.66641">
        <ele>1538.9</ele>
        <time>2018-08-08T11:24:23.000Z</time>
      </trkpt>
      <trkpt lat="42.71332" lon="0.66642">
        <ele>1539</ele>
        <time>2018-08-08T11:24:24.000Z</time>
      </trkpt>
      <trkpt lat="42.71332" lon="0.66643">
        <ele>1539.1</ele>
        <time>2018-08-08T11:24:25.000Z</time>
      </trkpt>
      <trkpt lat="42.71331" lon="0.66643">
        <ele>1539.2</ele>
        <time>2018-08-08T11:24:26.000Z</time>
      </trkpt>
      <trkpt lat="42.7133" lon="0.66644">
        <ele>1539.3</ele>
        <time>2018-08-08T11:24:27.000Z</time>
      </trkpt>
      <trkpt lat="42.71329" lon="0.66644">
        <ele>1539.4</ele>
        <time>2018-08-08T11:24:28.000Z</time>
      </trkpt>
      <trkpt lat="42.71328" lon="0.66645">
        <ele>1539.5</ele>
        <time>2018-08-08T11:24:29.000Z</time>
      </trkpt>
      <trkpt lat="42.71328" lon="0.66646">
        <ele>1539.6</ele>
        <time>2018-08-08T11:24:30.000Z</time>
      </trkpt>
      <trkpt lat="42.71327" lon="0.66646">
        <ele>1539.7</ele>
        <time>2018-08-08T11:24:31.000Z</time>
      </trkpt>
      <trkpt lat="42.71326" lon="0.66647">
        <ele>1539.8</ele>
        <time>2018-08-08T11:24:32.000Z</time>
      </trkpt>
      <trkpt lat="42.71325" lon="0.66648">
        <ele>1539.8</ele>
        <time>2018-08-08T11:24:33.000Z</time>
      </trkpt>
      <trkpt lat="42.71324" lon="0.66649">
        <ele>1539.9</ele>
        <time>2018-08-08T11:24:34.000Z</time>
      </trkpt>
      <trkpt lat="42.71324" lon="0.66649">
        <ele>1540</ele>
        <time>2018-08-08T11:24:35.000Z</time>
      </trkpt>
      <trkpt lat="42.71323" lon="0.6665">
        <ele>1540.1</ele>
        <time>2018-08-08T11:24:36.000Z</time>
      </trkpt>
      <trkpt lat="42.71322" lon="0.66651">
        <ele>1540.2</ele>
        <time>2018-08-08T11:24:37.000Z</time>
      </trkpt>
      <trkpt lat="42.71321" lon="0.66651">
        <ele>1540.2</ele>
        <time>2018-08-08T11:24:38.000Z</time>
      </trkpt>
      <trkpt lat="42.7132" lon="0.66652">
        <ele>1540.3</ele>
        <time>2018-08-08T11:24:39.000Z</time>
      </trkpt>
      <trkpt lat="42.7132" lon="0.66653">
        <ele>1540.4</ele>
        <time>2018-08-08T11:24:40.000Z</time>
      </trkpt>
      <trkpt lat="42.71319" lon="0.66654">
        <ele>1540.4</ele>
        <time>2018-08-08T11:24:41.000Z</time>
      </trkpt>
      <trkpt lat="42.71318" lon="0.66655">
        <ele>1540.5</ele>
        <time>2018-08-08T11:24:42.000Z</time>
      </trkpt>
      <trkpt lat="42.71317" lon="0.66655">
        <ele>1540.5</ele>
        <time>2018-08-08T11:24:43.000Z</time>
      </trkpt>
      <trkpt lat="42.71317" lon="0.66656">
        <ele>1540.6</ele>
        <time>2018-08-08T11:24:44.000Z</time>
      </trkpt>
      <trkpt lat="42.71316" lon="0.66657">
        <ele>1540.6</ele>
        <time>2018-08-08T11:24:45.000Z</time>
      </trkpt>
      <trkpt lat="42.71315" lon="0.66658">
        <ele>1540.7</ele>
        <time>2018-08-08T11:24:46.000Z</time>
      </trkpt>
      <trkpt lat="42.71314" lon="0.66659">
        <ele>1540.7</ele>
        <time>2018-08-08T11:24:47.000Z</time>
      </trkpt>
      <trkpt lat="42.71314" lon="0.6666">
        <ele>1540.7</ele>
        <time>2018-08-08T11:24:48.000Z</time>
      </trkpt>
      <trkpt lat="42.71313" lon="0.66661">
        <ele>1540.8</ele>
        <time>2018-08-08T11:24:49.000Z</time>
      </trkpt>
      <trkpt lat="42.71312" lon="0.66662">
        <ele>1540.8</ele>
        <time>2018-08-08T11:24:50.000Z</time>
      </trkpt>
      <trkpt lat="42.71311" lon="0.66663">
        <ele>1540.8</ele>
        <time>2018-08-08T11:24:51.000Z</time>
      </trkpt>
      <trkpt lat="42.71311" lon="0.66664">
        <ele>1540.9</ele>
        <time>2018-08-08T11:24:52.000Z</time>
      </trkpt>
      <trkpt lat="42.7131" lon="0.66665">
        <ele>1540.9</ele>
        <time>2018-08-08T11:24:53.000Z</time>
      </trkpt>
      <trkpt lat="42.71309" lon="0.66665">
        <ele>1540.9</ele>
        <time>2018-08-08T11:24:54.000Z</time>
      </trkpt>
      <trkpt lat="42.71308" lon="0.66666">
        <ele>1541</ele>
        <time>2018-08-08T11:24:55.000Z</time>
      </trkpt>
      <trkpt lat="42.71307" lon="0.66667">
        <ele>1541.1</ele>
        <time>2018-08-08T11:24:56.000Z</time>
      </trkpt>
      <trkpt lat="42.71306" lon="0.66668">
        <ele>1541.3</ele>
        <time>2018-08-08T11:24:57.000Z</time>
      </trkpt>
      <trkpt lat="42.71306" lon="0.66669">
        <ele>1541.4</ele>
        <time>2018-08-08T11:24:58.000Z</time>
      </trkpt>
      <trkpt lat="42.71305" lon="0.6667">
        <ele>1541.6</ele>
        <time>2018-08-08T11:24:59.000Z</time>
      </trkpt>
      <trkpt lat="42.71304" lon="0.66671">
        <ele>1541.8</ele>
        <time>2018-08-08T11:25:00.000Z</time>
      </trkpt>
      <trkpt lat="42.71303" lon="0.66671">
        <ele>1541.9</ele>
        <time>2018-08-08T11:25:01.000Z</time>
      </trkpt>
      <trkpt lat="42.71302" lon="0.66672">
        <ele>1542.1</ele>
        <time>2018-08-08T11:25:02.000Z</time>
      </trkpt>
      <trkpt lat="42.71301" lon="0.66673">
        <ele>1542.2</ele>
        <time>2018-08-08T11:25:03.000Z</time>
      </trkpt>
      <trkpt lat="42.713" lon="0.66674">
        <ele>1542.4</ele>
        <time>2018-08-08T11:25:04.000Z</time>
      </trkpt>
      <trkpt lat="42.713" lon="0.66675">
        <ele>1542.5</ele>
        <time>2018-08-08T11:25:05.000Z</time>
      </trkpt>
      <trkpt lat="42.71299" lon="0.66675">
        <ele>1542.7</ele>
        <time>2018-08-08T11:25:06.000Z</time>
      </trkpt>
      <trkpt lat="42.71298" lon="0.66676">
        <ele>1542.8</ele>
        <time>2018-08-08T11:25:07.000Z</time>
      </trkpt>
      <trkpt lat="42.71297" lon="0.66677">
        <ele>1542.9</ele>
        <time>2018-08-08T11:25:08.000Z</time>
      </trkpt>
      <trkpt lat="42.71296" lon="0.66677">
        <ele>1543.1</ele>
        <time>2018-08-08T11:25:09.000Z</time>
      </trkpt>
      <trkpt lat="42.71295" lon="0.66678">
        <ele>1543.2</ele>
        <time>2018-08-08T11:25:10.000Z</time>
      </trkpt>
      <trkpt lat="42.71294" lon="0.66679">
        <ele>1543.3</ele>
        <time>2018-08-08T11:25:11.000Z</time>
      </trkpt>
      <trkpt lat="42.71293" lon="0.66679">
        <ele>1543.5</ele>
        <time>2018-08-08T11:25:12.000Z</time>
      </trkpt>
      <trkpt lat="42.71292" lon="0.6668">
        <ele>1543.6</ele>
        <time>2018-08-08T11:25:13.000Z</time>
      </trkpt>
      <trkpt lat="42.71291" lon="0.6668">
        <ele>1543.7</ele>
        <time>2018-08-08T11:25:14.000Z</time>
      </trkpt>
      <trkpt lat="42.71291" lon="0.66681">
        <ele>1543.8</ele>
        <time>2018-08-08T11:25:15.000Z</time>
      </trkpt>
      <trkpt lat="42.7129" lon="0.66681">
        <ele>1543.9</ele>
        <time>2018-08-08T11:25:16.000Z</time>
      </trkpt>
      <trkpt lat="42.71289" lon="0.66682">
        <ele>1544</ele>
        <time>2018-08-08T11:25:17.000Z</time>
      </trkpt>
      <trkpt lat="42.71288" lon="0.66682">
        <ele>1544.2</ele>
        <time>2018-08-08T11:25:18.000Z</time>
      </trkpt>
      <trkpt lat="42.71287" lon="0.66682">
        <ele>1544.3</ele>
        <time>2018-08-08T11:25:19.000Z</time>
      </trkpt>
      <trkpt lat="42.71286" lon="0.66683">
        <ele>1544.4</ele>
        <time>2018-08-08T11:25:20.000Z</time>
      </trkpt>
      <trkpt lat="42.71285" lon="0.66683">
        <ele>1544.5</ele>
        <time>2018-08-08T11:25:21.000Z</time>
      </trkpt>
      <trkpt lat="42.71284" lon="0.66683">
        <ele>1544.6</ele>
        <time>2018-08-08T11:25:22.000Z</time>
      </trkpt>
      <trkpt lat="42.71283" lon="0.66684">
        <ele>1544.7</ele>
        <time>2018-08-08T11:25:23.000Z</time>
      </trkpt>
      <trkpt lat="42.71282" lon="0.66684">
        <ele>1544.8</ele>
        <time>2018-08-08T11:25:24.000Z</time>
      </trkpt>
      <trkpt lat="42.71282" lon="0.66685">
        <ele>1544.9</ele>
        <time>2018-08-08T11:25:25.000Z</time>
      </trkpt>
      <trkpt lat="42.71281" lon="0.66685">
        <ele>1545</ele>
        <time>2018-08-08T11:25:26.000Z</time>
      </trkpt>
      <trkpt lat="42.7128" lon="0.66685">
        <ele>1545.1</ele>
        <time>2018-08-08T11:25:27.000Z</time>
      </trkpt>
      <trkpt lat="42.71279" lon="0.66686">
        <ele>1545.2</ele>
        <time>2018-08-08T11:25:28.000Z</time>
      </trkpt>
      <trkpt lat="42.71278" lon="0.66686">
        <ele>1545.2</ele>
        <time>2018-08-08T11:25:29.000Z</time>
      </trkpt>
      <trkpt lat="42.71277" lon="0.66687">
        <ele>1545.3</ele>
        <time>2018-08-08T11:25:30.000Z</time>
      </trkpt>
      <trkpt lat="42.71276" lon="0.66687">
        <ele>1545.4</ele>
        <time>2018-08-08T11:25:31.000Z</time>
      </trkpt>
      <trkpt lat="42.71276" lon="0.66688">
        <ele>1545.5</ele>
        <time>2018-08-08T11:25:32.000Z</time>
      </trkpt>
      <trkpt lat="42.71275" lon="0.66688">
        <ele>1545.5</ele>
        <time>2018-08-08T11:25:33.000Z</time>
      </trkpt>
      <trkpt lat="42.71274" lon="0.66688">
        <ele>1545.6</ele>
        <time>2018-08-08T11:25:34.000Z</time>
      </trkpt>
      <trkpt lat="42.71274" lon="0.66689">
        <ele>1545.6</ele>
        <time>2018-08-08T11:25:35.000Z</time>
      </trkpt>
      <trkpt lat="42.71273" lon="0.66689">
        <ele>1545.7</ele>
        <time>2018-08-08T11:25:36.000Z</time>
      </trkpt>
      <trkpt lat="42.71273" lon="0.66689">
        <ele>1545.7</ele>
        <time>2018-08-08T11:25:37.000Z</time>
      </trkpt>
      <trkpt lat="42.71273" lon="0.6669">
        <ele>1545.7</ele>
        <time>2018-08-08T11:25:38.000Z</time>
      </trkpt>
      <trkpt lat="42.71272" lon="0.6669">
        <ele>1545.8</ele>
        <time>2018-08-08T11:25:39.000Z</time>
      </trkpt>
      <trkpt lat="42.71272" lon="0.6669">
        <ele>1545.8</ele>
        <time>2018-08-08T11:25:40.000Z</time>
      </trkpt>
      <trkpt lat="42.71272" lon="0.6669">
        <ele>1545.8</ele>
        <time>2018-08-08T11:25:41.000Z</time>
      </trkpt>
      <trkpt lat="42.71272" lon="0.6669">
        <ele>1545.8</ele>
        <time>2018-08-08T11:25:42.000Z</time>
      </trkpt>
      <trkpt lat="42.71272" lon="0.6669">
        <ele>1545.8</ele>
        <time>2018-08-08T11:25:43.000Z</time>
      </trkpt>
      <trkpt lat="42.71272" lon="0.6669">
        <ele>1545.8</ele>
        <time>2018-08-08T11:25:44.000Z</time>
      </trkpt>
      <trkpt lat="42.71272" lon="0.6669">
        <ele>1545.8</ele>
        <time>2018-08-08T11:25:45.000Z</time>
      </trkpt>
      <trkpt lat="42.71272" lon="0.6669">
        <ele>1545.8</ele>
        <time>2018-08-08T11:25:46.000Z</time>
      </trkpt>
      <trkpt lat="42.71272" lon="0.6669">
        <ele>1545.8</ele>
        <time>2018-08-08T11:25:47.000Z</time>
      </trkpt>
      <trkpt lat="42.71272" lon="0.6669">
        <ele>1545.8</ele>
        <time>2018-08-08T11:25:48.000Z</time>
      </trkpt>
      <trkpt lat="42.71272" lon="0.6669">
        <ele>1545.8</ele>
        <time>2018-08-08T11:25:49.000Z</time>
      </trkpt>
      <trkpt lat="42.71272" lon="0.6669">
        <ele>1545.8</ele>
        <time>2018-08-08T11:25:50.000Z</time>
      </trkpt>
      <trkpt lat="42.71272" lon="0.6669">
        <ele>1545.8</ele>
        <time>2018-08-08T11:25:51.000Z</time>
      </trkpt>
      <trkpt lat="42.71272" lon="0.6669">
        <ele>1545.8</ele>
        <time>2018-08-08T11:25:52.000Z</time>
      </trkpt>
      <trkpt lat="42.71272" lon="0.6669">
        <ele>1545.8</ele>
        <time>2018-08-08T11:25:53.000Z</time>
      </trkpt>
      <trkpt lat="42.71272" lon="0.6669">
        <ele>1545.8</ele>
        <time>2018-08-08T11:25:54.000Z</time>
      </trkpt>
      <trkpt lat="42.71272" lon="0.6669">
        <ele>1545.8</ele>
        <time>2018-08-08T11:25:55.000Z</time>
      </trkpt>
      <trkpt lat="42.71272" lon="0.6669">
        <ele>1545.8</ele>
        <time>2018-08-08T11:25:56.000Z</time>
      </trkpt>
      <trkpt lat="42.71272" lon="0.6669">
        <ele>1545.8</ele>
        <time>2018-08-08T11:25:57.000Z</time>
      </trkpt>
      <trkpt lat="42.71272" lon="0.6669">
        <ele>1545.8</ele>
        <time>2018-08-08T11:25:58.000Z</time>
      </trkpt>
      <trkpt lat="42.71272" lon="0.6669">
        <ele>1545.8</ele>
        <time>2018-08-08T11:25:59.000Z</time>
      </trkpt>
      <trkpt lat="42.71272" lon="0.6669">
        <ele>1545.8</ele>
        <time>2018-08-08T11:26:00.000Z</time>
      </trkpt>
      <trkpt lat="42.71272" lon="0.6669">
        <ele>1545.8</ele>
        <time>2018-08-08T11:26:01.000Z</time>
      </trkpt>
      <trkpt lat="42.71272" lon="0.6669">
        <ele>1545.8</ele>
        <time>2018-08-08T11:26:02.000Z</time>
      </trkpt>
      <trkpt lat="42.71272" lon="0.6669">
        <ele>1545.8</ele>
        <time>2018-08-08T11:26:03.000Z</time>
      </trkpt>
      <trkpt lat="42.71272" lon="0.6669">
        <ele>1545.8</ele>
        <time>2018-08-08T11:26:04.000Z</time>
      </trkpt>
      <trkpt lat="42.71272" lon="0.6669">
        <ele>1545.8</ele>
        <time>2018-08-08T11:26:05.000Z</time>
      </trkpt>
      <trkpt lat="42.71272" lon="0.6669">
        <ele>1545.8</ele>
        <time>2018-08-08T11:26:06.000Z</time>
      </trkpt>
      <trkpt lat="42.71272" lon="0.6669">
        <ele>1545.8</ele>
        <time>2018-08-08T11:26:07.000Z</time>
      </trkpt>
      <trkpt lat="42.71272" lon="0.6669">
        <ele>1545.8</ele>
        <time>2018-08-08T11:26:08.000Z</time>
      </trkpt>
      <trkpt lat="42.71272" lon="0.6669">
        <ele>1545.8</ele>
        <time>2018-08-08T11:26:09.000Z</time>
      </trkpt>
      <trkpt lat="42.71272" lon="0.6669">
        <ele>1545.8</ele>
        <time>2018-08-08T11:26:10.000Z</time>
      </trkpt>
      <trkpt lat="42.71272" lon="0.6669">
        <ele>1545.8</ele>
        <time>2018-08-08T11:26:11.000Z</time>
      </trkpt>
      <trkpt lat="42.71272" lon="0.6669">
        <ele>1545.8</ele>
        <time>2018-08-08T11:26:12.000Z</time>
      </trkpt>
      <trkpt lat="42.71272" lon="0.6669">
        <ele>1545.8</ele>
        <time>2018-08-08T11:26:13.000Z</time>
      </trkpt>
      <trkpt lat="42.71272" lon="0.6669">
        <ele>1545.8</ele>
        <time>2018-08-08T11:26:14.000Z</time>
      </trkpt>
      <trkpt lat="42.71272" lon="0.6669">
        <ele>1545.8</ele>
        <time>2018-08-08T11:26:15.000Z</time>
      </trkpt>
      <trkpt lat="42.71272" lon="0.6669">
        <ele>1545.8</ele>
        <time>2018-08-08T11:26:16.000Z</time>
      </trkpt>
      <trkpt lat="42.71272" lon="0.6669">
        <ele>1545.8</ele>
        <time>2018-08-08T11:26:17.000Z</time>
      </trkpt>
      <trkpt lat="42.71272" lon="0.6669">
        <ele>1545.8</ele>
        <time>2018-08-08T11:26:18.000Z</time>
      </trkpt>
      <trkpt lat="42.71272" lon="0.6669">
        <ele>1545.8</ele>
        <time>2018-08-08T11:26:19.000Z</time>
      </trkpt>
      <trkpt lat="42.71272" lon="0.6669">
        <ele>1545.8</ele>
        <time>2018-08-08T11:26:20.000Z</time>
      </trkpt>
      <trkpt lat="42.71272" lon="0.6669">
        <ele>1545.8</ele>
        <time>2018-08-08T11:26:21.000Z</time>
      </trkpt>
      <trkpt lat="42.71272" lon="0.6669">
        <ele>1545.8</ele>
        <time>2018-08-08T11:26:22.000Z</time>
      </trkpt>
      <trkpt lat="42.71272" lon="0.6669">
        <ele>1545.8</ele>
        <time>2018-08-08T11:26:23.000Z</time>
      </trkpt>
      <trkpt lat="42.71272" lon="0.6669">
        <ele>1545.8</ele>
        <time>2018-08-08T11:26:24.000Z</time>
      </trkpt>
      <trkpt lat="42.71272" lon="0.6669">
        <ele>1545.8</ele>
        <time>2018-08-08T11:26:25.000Z</time>
      </trkpt>
      <trkpt lat="42.71272" lon="0.6669">
        <ele>1545.8</ele>
        <time>2018-08-08T11:26:26.000Z</time>
      </trkpt>
      <trkpt lat="42.71272" lon="0.6669">
        <ele>1545.8</ele>
        <time>2018-08-08T11:26:27.000Z</time>
      </trkpt>
      <trkpt lat="42.71272" lon="0.6669">
        <ele>1545.8</ele>
        <time>2018-08-08T11:26:28.000Z</time>
      </trkpt>
      <trkpt lat="42.71272" lon="0.6669">
        <ele>1545.8</ele>
        <time>2018-08-08T11:26:29.000Z</time>
      </trkpt>
      <trkpt lat="42.71272" lon="0.6669">
        <ele>1545.8</ele>
        <time>2018-08-08T11:26:30.000Z</time>
      </trkpt>
      <trkpt lat="42.71272" lon="0.6669">
        <ele>1545.8</ele>
        <time>2018-08-08T11:26:31.000Z</time>
      </trkpt>
      <trkpt lat="42.71272" lon="0.6669">
        <ele>1545.8</ele>
        <time>2018-08-08T11:26:32.000Z</time>
      </trkpt>
      <trkpt lat="42.71272" lon="0.6669">
        <ele>1545.8</ele>
        <time>2018-08-08T11:26:33.000Z</time>
      </trkpt>
      <trkpt lat="42.71272" lon="0.6669">
        <ele>1545.8</ele>
        <time>2018-08-08T11:26:34.000Z</time>
      </trkpt>
      <trkpt lat="42.71272" lon="0.6669">
        <ele>1545.8</ele>
        <time>2018-08-08T11:26:35.000Z</time>
      </trkpt>
      <trkpt lat="42.71272" lon="0.6669">
        <ele>1545.8</ele>
        <time>2018-08-08T11:26:36.000Z</time>
      </trkpt>
      <trkpt lat="42.71272" lon="0.6669">
        <ele>1545.8</ele>
        <time>2018-08-08T11:26:37.000Z</time>
      </trkpt>
      <trkpt lat="42.71272" lon="0.6669">
        <ele>1545.8</ele>
        <time>2018-08-08T11:26:38.000Z</time>
      </trkpt>
      <trkpt lat="42.71272" lon="0.6669">
        <ele>1545.8</ele>
        <time>2018-08-08T11:26:39.000Z</time>
      </trkpt>
      <trkpt lat="42.71272" lon="0.6669">
        <ele>1545.8</ele>
        <time>2018-08-08T11:26:40.000Z</time>
      </trkpt>
      <trkpt lat="42.71272" lon="0.6669">
        <ele>1545.8</ele>
        <time>2018-08-08T11:26:41.000Z</time>
      </trkpt>
      <trkpt lat="42.71272" lon="0.6669">
        <ele>1545.8</ele>
        <time>2018-08-08T11:26:42.000Z</time>
      </trkpt>
      <trkpt lat="42.71272" lon="0.6669">
        <ele>1545.8</ele>
        <time>2018-08-08T11:26:43.000Z</time>
      </trkpt>
      <trkpt lat="42.71272" lon="0.6669">
        <ele>1545.8</ele>
        <time>2018-08-08T11:26:44.000Z</time>
      </trkpt>
      <trkpt lat="42.71272" lon="0.6669">
        <ele>1545.8</ele>
        <time>2018-08-08T11:26:45.000Z</time>
      </trkpt>
      <trkpt lat="42.71272" lon="0.6669">
        <ele>1545.8</ele>
        <time>2018-08-08T11:26:46.000Z</time>
      </trkpt>
      <trkpt lat="42.71272" lon="0.6669">
        <ele>1545.8</ele>
        <time>2018-08-08T11:26:47.000Z</time>
      </trkpt>
      <trkpt lat="42.71272" lon="0.6669">
        <ele>1545.8</ele>
        <time>2018-08-08T11:26:48.000Z</time>
      </trkpt>
      <trkpt lat="42.71272" lon="0.6669">
        <ele>1545.8</ele>
        <time>2018-08-08T11:26:49.000Z</time>
      </trkpt>
      <trkpt lat="42.71272" lon="0.6669">
        <ele>1545.8</ele>
        <time>2018-08-08T11:26:50.000Z</time>
      </trkpt>
      <trkpt lat="42.71272" lon="0.6669">
        <ele>1545.8</ele>
        <time>2018-08-08T11:26:51.000Z</time>
      </trkpt>
      <trkpt lat="42.71272" lon="0.6669">
        <ele>1545.8</ele>
        <time>2018-08-08T11:26:52.000Z</time>
      </trkpt>
      <trkpt lat="42.71272" lon="0.6669">
        <ele>1545.8</ele>
        <time>2018-08-08T11:26:53.000Z</time>
      </trkpt>
      <trkpt lat="42.71272" lon="0.6669">
        <ele>1545.8</ele>
        <time>2018-08-08T11:26:54.000Z</time>
      </trkpt>
      <trkpt lat="42.71272" lon="0.6669">
        <ele>1545.8</ele>
        <time>2018-08-08T11:26:55.000Z</time>
      </trkpt>
      <trkpt lat="42.71272" lon="0.6669">
        <ele>1545.8</ele>
        <time>2018-08-08T11:26:56.000Z</time>
      </trkpt>
      <trkpt lat="42.71272" lon="0.6669">
        <ele>1545.8</ele>
        <time>2018-08-08T11:26:57.000Z</time>
      </trkpt>
      <trkpt lat="42.71272" lon="0.6669">
        <ele>1545.8</ele>
        <time>2018-08-08T11:26:58.000Z</time>
      </trkpt>
      <trkpt lat="42.71272" lon="0.6669">
        <ele>1545.8</ele>
        <time>2018-08-08T11:26:59.000Z</time>
      </trkpt>
      <trkpt lat="42.71272" lon="0.6669">
        <ele>1545.8</ele>
        <time>2018-08-08T11:27:00.000Z</time>
      </trkpt>
      <trkpt lat="42.71272" lon="0.6669">
        <ele>1545.8</ele>
        <time>2018-08-08T11:27:01.000Z</time>
      </trkpt>
      <trkpt lat="42.71272" lon="0.6669">
        <ele>1545.8</ele>
        <time>2018-08-08T11:27:02.000Z</time>
      </trkpt>
      <trkpt lat="42.71272" lon="0.6669">
        <ele>1545.8</ele>
        <time>2018-08-08T11:27:03.000Z</time>
      </trkpt>
      <trkpt lat="42.71272" lon="0.6669">
        <ele>1545.8</ele>
        <time>2018-08-08T11:27:04.000Z</time>
      </trkpt>
      <trkpt lat="42.71272" lon="0.6669">
        <ele>1545.8</ele>
        <time>2018-08-08T11:27:05.000Z</time>
      </trkpt>
      <trkpt lat="42.71272" lon="0.6669">
        <ele>1545.8</ele>
        <time>2018-08-08T11:27:06.000Z</time>
      </trkpt>
      <trkpt lat="42.71272" lon="0.6669">
        <ele>1545.8</ele>
        <time>2018-08-08T11:27:07.000Z</time>
      </trkpt>
      <trkpt lat="42.71272" lon="0.6669">
        <ele>1545.8</ele>
        <time>2018-08-08T11:27:08.000Z</time>
      </trkpt>
      <trkpt lat="42.71272" lon="0.6669">
        <ele>1545.8</ele>
        <time>2018-08-08T11:27:09.000Z</time>
      </trkpt>
      <trkpt lat="42.71272" lon="0.6669">
        <ele>1545.8</ele>
        <time>2018-08-08T11:27:10.000Z</time>
      </trkpt>
      <trkpt lat="42.71272" lon="0.6669">
        <ele>1545.8</ele>
        <time>2018-08-08T11:27:11.000Z</time>
      </trkpt>
      <trkpt lat="42.71272" lon="0.6669">
        <ele>1545.8</ele>
        <time>2018-08-08T11:27:12.000Z</time>
      </trkpt>
      <trkpt lat="42.71272" lon="0.6669">
        <ele>1545.8</ele>
        <time>2018-08-08T11:27:13.000Z</time>
      </trkpt>
      <trkpt lat="42.71272" lon="0.6669">
        <ele>1545.8</ele>
        <time>2018-08-08T11:27:14.000Z</time>
      </trkpt>
      <trkpt lat="42.71272" lon="0.6669">
        <ele>1545.8</ele>
        <time>2018-08-08T11:27:15.000Z</time>
      </trkpt>
      <trkpt lat="42.71272" lon="0.6669">
        <ele>1545.8</ele>
        <time>2018-08-08T11:27:16.000Z</time>
      </trkpt>
      <trkpt lat="42.71272" lon="0.6669">
        <ele>1545.8</ele>
        <time>2018-08-08T11:27:17.000Z</time>
      </trkpt>
      <trkpt lat="42.71272" lon="0.6669">
        <ele>1545.8</ele>
        <time>2018-08-08T11:27:18.000Z</time>
      </trkpt>
      <trkpt lat="42.71272" lon="0.6669">
        <ele>1545.8</ele>
        <time>2018-08-08T11:27:19.000Z</time>
      </trkpt>
      <trkpt lat="42.71272" lon="0.6669">
        <ele>1545.8</ele>
        <time>2018-08-08T11:27:20.000Z</time>
      </trkpt>
      <trkpt lat="42.71272" lon="0.6669">
        <ele>1545.8</ele>
        <time>2018-08-08T11:27:21.000Z</time>
      </trkpt>
      <trkpt lat="42.71272" lon="0.6669">
        <ele>1545.8</ele>
        <time>2018-08-08T11:27:22.000Z</time>
      </trkpt>
      <trkpt lat="42.71272" lon="0.6669">
        <ele>1545.8</ele>
        <time>2018-08-08T11:27:23.000Z</time>
      </trkpt>
      <trkpt lat="42.71272" lon="0.6669">
        <ele>1545.8</ele>
        <time>2018-08-08T11:27:24.000Z</time>
      </trkpt>
      <trkpt lat="42.71272" lon="0.6669">
        <ele>1545.8</ele>
        <time>2018-08-08T11:27:25.000Z</time>
      </trkpt>
      <trkpt lat="42.71272" lon="0.6669">
        <ele>1545.8</ele>
        <time>2018-08-08T11:27:26.000Z</time>
      </trkpt>
      <trkpt lat="42.71272" lon="0.6669">
        <ele>1545.8</ele>
        <time>2018-08-08T11:27:27.000Z</time>
      </trkpt>
      <trkpt lat="42.71272" lon="0.6669">
        <ele>1545.8</ele>
        <time>2018-08-08T11:27:28.000Z</time>
      </trkpt>
      <trkpt lat="42.71271" lon="0.6669">
        <ele>1545.9</ele>
        <time>2018-08-08T11:27:29.000Z</time>
      </trkpt>
      <trkpt lat="42.71271" lon="0.6669">
        <ele>1545.9</ele>
        <time>2018-08-08T11:27:30.000Z</time>
      </trkpt>
      <trkpt lat="42.7127" lon="0.6669">
        <ele>1546</ele>
        <time>2018-08-08T11:27:31.000Z</time>
      </trkpt>
      <trkpt lat="42.7127" lon="0.6669">
        <ele>1546</ele>
        <time>2018-08-08T11:27:32.000Z</time>
      </trkpt>
      <trkpt lat="42.71269" lon="0.66691">
        <ele>1546.1</ele>
        <time>2018-08-08T11:27:33.000Z</time>
      </trkpt>
      <trkpt lat="42.71268" lon="0.66691">
        <ele>1546.1</ele>
        <time>2018-08-08T11:27:34.000Z</time>
      </trkpt>
      <trkpt lat="42.71267" lon="0.66691">
        <ele>1546.2</ele>
        <time>2018-08-08T11:27:35.000Z</time>
      </trkpt>
      <trkpt lat="42.71267" lon="0.66692">
        <ele>1546.3</ele>
        <time>2018-08-08T11:27:36.000Z</time>
      </trkpt>
      <trkpt lat="42.71266" lon="0.66692">
        <ele>1546.3</ele>
        <time>2018-08-08T11:27:37.000Z</time>
      </trkpt>
      <trkpt lat="42.71265" lon="0.66693">
        <ele>1546.4</ele>
        <time>2018-08-08T11:27:38.000Z</time>
      </trkpt>
      <trkpt lat="42.71264" lon="0.66693">
        <ele>1546.5</ele>
        <time>2018-08-08T11:27:39.000Z</time>
      </trkpt>
      <trkpt lat="42.71262" lon="0.66694">
        <ele>1546.6</ele>
        <time>2018-08-08T11:27:40.000Z</time>
      </trkpt>
      <trkpt lat="42.71261" lon="0.66695">
        <ele>1546.6</ele>
        <time>2018-08-08T11:27:41.000Z</time>
      </trkpt>
      <trkpt lat="42.7126" lon="0.66695">
        <ele>1546.7</ele>
        <time>2018-08-08T11:27:42.000Z</time>
      </trkpt>
      <trkpt lat="42.71259" lon="0.66696">
        <ele>1546.7</ele>
        <time>2018-08-08T11:27:43.000Z</time>
      </trkpt>
      <trkpt lat="42.71258" lon="0.66696">
        <ele>1546.8</ele>
        <time>2018-08-08T11:27:44.000Z</time>
      </trkpt>
      <trkpt lat="42.71257" lon="0.66697">
        <ele>1546.8</ele>
        <time>2018-08-08T11:27:45.000Z</time>
      </trkpt>
      <trkpt lat="42.71256" lon="0.66698">
        <ele>1546.9</ele>
        <time>2018-08-08T11:27:46.000Z</time>
      </trkpt>
      <trkpt lat="42.71256" lon="0.66698">
        <ele>1546.9</ele>
        <time>2018-08-08T11:27:47.000Z</time>
      </trkpt>
      <trkpt lat="42.71255" lon="0.66699">
        <ele>1546.9</ele>
        <time>2018-08-08T11:27:48.000Z</time>
      </trkpt>
      <trkpt lat="42.71254" lon="0.66699">
        <ele>1547</ele>
        <time>2018-08-08T11:27:49.000Z</time>
      </trkpt>
      <trkpt lat="42.71253" lon="0.667">
        <ele>1547</ele>
        <time>2018-08-08T11:27:50.000Z</time>
      </trkpt>
      <trkpt lat="42.71252" lon="0.66701">
        <ele>1547</ele>
        <time>2018-08-08T11:27:51.000Z</time>
      </trkpt>
      <trkpt lat="42.71251" lon="0.66701">
        <ele>1547</ele>
        <time>2018-08-08T11:27:52.000Z</time>
      </trkpt>
      <trkpt lat="42.7125" lon="0.66702">
        <ele>1547.1</ele>
        <time>2018-08-08T11:27:53.000Z</time>
      </trkpt>
      <trkpt lat="42.71249" lon="0.66702">
        <ele>1547.3</ele>
        <time>2018-08-08T11:27:54.000Z</time>
      </trkpt>
      <trkpt lat="42.71248" lon="0.66702">
        <ele>1547.5</ele>
        <time>2018-08-08T11:27:55.000Z</time>
      </trkpt>
      <trkpt lat="42.71247" lon="0.66703">
        <ele>1547.6</ele>
        <time>2018-08-08T11:27:56.000Z</time>
      </trkpt>
      <trkpt lat="42.71246" lon="0.66703">
        <ele>1547.8</ele>
        <time>2018-08-08T11:27:57.000Z</time>
      </trkpt>
      <trkpt lat="42.71245" lon="0.66703">
        <ele>1548</ele>
        <time>2018-08-08T11:27:58.000Z</time>
      </trkpt>
      <trkpt lat="42.71244" lon="0.66704">
        <ele>1548.1</ele>
        <time>2018-08-08T11:27:59.000Z</time>
      </trkpt>
      <trkpt lat="42.71243" lon="0.66705">
        <ele>1548.1</ele>
        <time>2018-08-08T11:28:00.000Z</time>
      </trkpt>
      <trkpt lat="42.71242" lon="0.66706">
        <ele>1548.2</ele>
        <time>2018-08-08T11:28:01.000Z</time>
      </trkpt>
      <trkpt lat="42.71242" lon="0.66707">
        <ele>1548.2</ele>
        <time>2018-08-08T11:28:02.000Z</time>
      </trkpt>
      <trkpt lat="42.71241" lon="0.66708">
        <ele>1548.3</ele>
        <time>2018-08-08T11:28:03.000Z</time>
      </trkpt>
      <trkpt lat="42.7124" lon="0.66708">
        <ele>1548.4</ele>
        <time>2018-08-08T11:28:04.000Z</time>
      </trkpt>
      <trkpt lat="42.71239" lon="0.66709">
        <ele>1548.4</ele>
        <time>2018-08-08T11:28:05.000Z</time>
      </trkpt>
      <trkpt lat="42.71238" lon="0.66709">
        <ele>1548.5</ele>
        <time>2018-08-08T11:28:06.000Z</time>
      </trkpt>
      <trkpt lat="42.71238" lon="0.6671">
        <ele>1548.7</ele>
        <time>2018-08-08T11:28:07.000Z</time>
      </trkpt>
      <trkpt lat="42.71237" lon="0.6671">
        <ele>1548.8</ele>
        <time>2018-08-08T11:28:08.000Z</time>
      </trkpt>
      <trkpt lat="42.71236" lon="0.66711">
        <ele>1548.9</ele>
        <time>2018-08-08T11:28:09.000Z</time>
      </trkpt>
      <trkpt lat="42.71235" lon="0.66712">
        <ele>1549</ele>
        <time>2018-08-08T11:28:10.000Z</time>
      </trkpt>
      <trkpt lat="42.71234" lon="0.66712">
        <ele>1549</ele>
        <time>2018-08-08T11:28:11.000Z</time>
      </trkpt>
      <trkpt lat="42.71233" lon="0.66713">
        <ele>1549.1</ele>
        <time>2018-08-08T11:28:12.000Z</time>
      </trkpt>
      <trkpt lat="42.71232" lon="0.66714">
        <ele>1549.2</ele>
        <time>2018-08-08T11:28:13.000Z</time>
      </trkpt>
      <trkpt lat="42.71232" lon="0.66714">
        <ele>1549.2</ele>
        <time>2018-08-08T11:28:14.000Z</time>
      </trkpt>
      <trkpt lat="42.71231" lon="0.66715">
        <ele>1549.3</ele>
        <time>2018-08-08T11:28:15.000Z</time>
      </trkpt>
      <trkpt lat="42.7123" lon="0.66716">
        <ele>1549.3</ele>
        <time>2018-08-08T11:28:16.000Z</time>
      </trkpt>
      <trkpt lat="42.71229" lon="0.66717">
        <ele>1549.4</ele>
        <time>2018-08-08T11:28:17.000Z</time>
      </trkpt>
      <trkpt lat="42.71228" lon="0.66718">
        <ele>1549.4</ele>
        <time>2018-08-08T11:28:18.000Z</time>
      </trkpt>
      <trkpt lat="42.71227" lon="0.66718">
        <ele>1549.5</ele>
        <time>2018-08-08T11:28:19.000Z</time>
      </trkpt>
      <trkpt lat="42.71226" lon="0.66719">
        <ele>1549.5</ele>
        <time>2018-08-08T11:28:20.000Z</time>
      </trkpt>
      <trkpt lat="42.71226" lon="0.6672">
        <ele>1549.5</ele>
        <time>2018-08-08T11:28:21.000Z</time>
      </trkpt>
      <trkpt lat="42.71225" lon="0.66721">
        <ele>1549.6</ele>
        <time>2018-08-08T11:28:22.000Z</time>
      </trkpt>
      <trkpt lat="42.71224" lon="0.66722">
        <ele>1549.6</ele>
        <time>2018-08-08T11:28:23.000Z</time>
      </trkpt>
      <trkpt lat="42.71223" lon="0.66723">
        <ele>1549.6</ele>
        <time>2018-08-08T11:28:24.000Z</time>
      </trkpt>
      <trkpt lat="42.71222" lon="0.66724">
        <ele>1549.7</ele>
        <time>2018-08-08T11:28:25.000Z</time>
      </trkpt>
      <trkpt lat="42.71221" lon="0.66724">
        <ele>1549.7</ele>
        <time>2018-08-08T11:28:26.000Z</time>
      </trkpt>
      <trkpt lat="42.7122" lon="0.66725">
        <ele>1549.7</ele>
        <time>2018-08-08T11:28:27.000Z</time>
      </trkpt>
      <trkpt lat="42.71219" lon="0.66726">
        <ele>1549.8</ele>
        <time>2018-08-08T11:28:28.000Z</time>
      </trkpt>
      <trkpt lat="42.71218" lon="0.66727">
        <ele>1549.8</ele>
        <time>2018-08-08T11:28:29.000Z</time>
      </trkpt>
      <trkpt lat="42.71217" lon="0.66727">
        <ele>1549.9</ele>
        <time>2018-08-08T11:28:30.000Z</time>
      </trkpt>
      <trkpt lat="42.71216" lon="0.66728">
        <ele>1549.9</ele>
        <time>2018-08-08T11:28:31.000Z</time>
      </trkpt>
      <trkpt lat="42.71215" lon="0.66728">
        <ele>1550</ele>
        <time>2018-08-08T11:28:32.000Z</time>
      </trkpt>
      <trkpt lat="42.71214" lon="0.66729">
        <ele>1550.1</ele>
        <time>2018-08-08T11:28:33.000Z</time>
      </trkpt>
      <trkpt lat="42.71213" lon="0.66729">
        <ele>1550.2</ele>
        <time>2018-08-08T11:28:34.000Z</time>
      </trkpt>
      <trkpt lat="42.71212" lon="0.6673">
        <ele>1550.2</ele>
        <time>2018-08-08T11:28:35.000Z</time>
      </trkpt>
      <trkpt lat="42.71211" lon="0.6673">
        <ele>1550.3</ele>
        <time>2018-08-08T11:28:36.000Z</time>
      </trkpt>
      <trkpt lat="42.7121" lon="0.66731">
        <ele>1550.4</ele>
        <time>2018-08-08T11:28:37.000Z</time>
      </trkpt>
      <trkpt lat="42.71209" lon="0.66731">
        <ele>1550.5</ele>
        <time>2018-08-08T11:28:38.000Z</time>
      </trkpt>
      <trkpt lat="42.71208" lon="0.66731">
        <ele>1550.6</ele>
        <time>2018-08-08T11:28:39.000Z</time>
      </trkpt>
      <trkpt lat="42.71207" lon="0.66731">
        <ele>1550.8</ele>
        <time>2018-08-08T11:28:40.000Z</time>
      </trkpt>
      <trkpt lat="42.71206" lon="0.66731">
        <ele>1550.9</ele>
        <time>2018-08-08T11:28:41.000Z</time>
      </trkpt>
      <trkpt lat="42.71206" lon="0.66731">
        <ele>1551</ele>
        <time>2018-08-08T11:28:42.000Z</time>
      </trkpt>
      <trkpt lat="42.71205" lon="0.66731">
        <ele>1551.1</ele>
        <time>2018-08-08T11:28:43.000Z</time>
      </trkpt>
      <trkpt lat="42.71204" lon="0.66731">
        <ele>1551.3</ele>
        <time>2018-08-08T11:28:44.000Z</time>
      </trkpt>
      <trkpt lat="42.71203" lon="0.66731">
        <ele>1551.4</ele>
        <time>2018-08-08T11:28:45.000Z</time>
      </trkpt>
      <trkpt lat="42.71202" lon="0.66731">
        <ele>1551.5</ele>
        <time>2018-08-08T11:28:46.000Z</time>
      </trkpt>
      <trkpt lat="42.71201" lon="0.66731">
        <ele>1551.6</ele>
        <time>2018-08-08T11:28:47.000Z</time>
      </trkpt>
      <trkpt lat="42.712" lon="0.66731">
        <ele>1551.7</ele>
        <time>2018-08-08T11:28:48.000Z</time>
      </trkpt>
      <trkpt lat="42.712" lon="0.66732">
        <ele>1551.7</ele>
        <time>2018-08-08T11:28:49.000Z</time>
      </trkpt>
      <trkpt lat="42.71199" lon="0.66732">
        <ele>1551.8</ele>
        <time>2018-08-08T11:28:50.000Z</time>
      </trkpt>
      <trkpt lat="42.71198" lon="0.66733">
        <ele>1551.8</ele>
        <time>2018-08-08T11:28:51.000Z</time>
      </trkpt>
      <trkpt lat="42.71197" lon="0.66733">
        <ele>1551.8</ele>
        <time>2018-08-08T11:28:52.000Z</time>
      </trkpt>
      <trkpt lat="42.71197" lon="0.66734">
        <ele>1551.8</ele>
        <time>2018-08-08T11:28:53.000Z</time>
      </trkpt>
      <trkpt lat="42.71196" lon="0.66735">
        <ele>1551.7</ele>
        <time>2018-08-08T11:28:54.000Z</time>
      </trkpt>
      <trkpt lat="42.71196" lon="0.66735">
        <ele>1551.6</ele>
        <time>2018-08-08T11:28:55.000Z</time>
      </trkpt>
      <trkpt lat="42.71195" lon="0.66736">
        <ele>1551.5</ele>
        <time>2018-08-08T11:28:56.000Z</time>
      </trkpt>
      <trkpt lat="42.71195" lon="0.66737">
        <ele>1551.4</ele>
        <time>2018-08-08T11:28:57.000Z</time>
      </trkpt>
      <trkpt lat="42.71195" lon="0.66738">
        <ele>1551.3</ele>
        <time>2018-08-08T11:28:58.000Z</time>
      </trkpt>
      <trkpt lat="42.71194" lon="0.66739">
        <ele>1551.2</ele>
        <time>2018-08-08T11:28:59.000Z</time>
      </trkpt>
      <trkpt lat="42.71194" lon="0.66739">
        <ele>1551.2</ele>
        <time>2018-08-08T11:29:00.000Z</time>
      </trkpt>
      <trkpt lat="42.71193" lon="0.6674">
        <ele>1551.1</ele>
        <time>2018-08-08T11:29:01.000Z</time>
      </trkpt>
      <trkpt lat="42.71192" lon="0.66741">
        <ele>1551</ele>
        <time>2018-08-08T11:29:02.000Z</time>
      </trkpt>
      <trkpt lat="42.71192" lon="0.66741">
        <ele>1551</ele>
        <time>2018-08-08T11:29:03.000Z</time>
      </trkpt>
      <trkpt lat="42.71191" lon="0.66742">
        <ele>1551</ele>
        <time>2018-08-08T11:29:04.000Z</time>
      </trkpt>
      <trkpt lat="42.7119" lon="0.66742">
        <ele>1551</ele>
        <time>2018-08-08T11:29:05.000Z</time>
      </trkpt>
      <trkpt lat="42.7119" lon="0.66743">
        <ele>1551</ele>
        <time>2018-08-08T11:29:06.000Z</time>
      </trkpt>
      <trkpt lat="42.71189" lon="0.66743">
        <ele>1551</ele>
        <time>2018-08-08T11:29:07.000Z</time>
      </trkpt>
      <trkpt lat="42.71188" lon="0.66743">
        <ele>1551</ele>
        <time>2018-08-08T11:29:08.000Z</time>
      </trkpt>
      <trkpt lat="42.71187" lon="0.66744">
        <ele>1551</ele>
        <time>2018-08-08T11:29:09.000Z</time>
      </trkpt>
      <trkpt lat="42.71187" lon="0.66744">
        <ele>1551</ele>
        <time>2018-08-08T11:29:10.000Z</time>
      </trkpt>
      <trkpt lat="42.71186" lon="0.66745">
        <ele>1551</ele>
        <time>2018-08-08T11:29:11.000Z</time>
      </trkpt>
      <trkpt lat="42.71185" lon="0.66745">
        <ele>1551.1</ele>
        <time>2018-08-08T11:29:12.000Z</time>
      </trkpt>
      <trkpt lat="42.71184" lon="0.66745">
        <ele>1551.1</ele>
        <time>2018-08-08T11:29:13.000Z</time>
      </trkpt>
      <trkpt lat="42.71183" lon="0.66746">
        <ele>1551.1</ele>
        <time>2018-08-08T11:29:14.000Z</time>
      </trkpt>
      <trkpt lat="42.71183" lon="0.66746">
        <ele>1551.1</ele>
        <time>2018-08-08T11:29:15.000Z</time>
      </trkpt>
      <trkpt lat="42.71182" lon="0.66747">
        <ele>1551</ele>
        <time>2018-08-08T11:29:16.000Z</time>
      </trkpt>
      <trkpt lat="42.71181" lon="0.66747">
        <ele>1551</ele>
        <time>2018-08-08T11:29:17.000Z</time>
      </trkpt>
      <trkpt lat="42.7118" lon="0.66748">
        <ele>1551</ele>
        <time>2018-08-08T11:29:18.000Z</time>
      </trkpt>
      <trkpt lat="42.7118" lon="0.66748">
        <ele>1551</ele>
        <time>2018-08-08T11:29:19.000Z</time>
      </trkpt>
      <trkpt lat="42.71179" lon="0.66749">
        <ele>1551</ele>
        <time>2018-08-08T11:29:20.000Z</time>
      </trkpt>
      <trkpt lat="42.71178" lon="0.66749">
        <ele>1550.9</ele>
        <time>2018-08-08T11:29:21.000Z</time>
      </trkpt>
      <trkpt lat="42.71177" lon="0.6675">
        <ele>1550.9</ele>
        <time>2018-08-08T11:29:22.000Z</time>
      </trkpt>
      <trkpt lat="42.71176" lon="0.6675">
        <ele>1551</ele>
        <time>2018-08-08T11:29:23.000Z</time>
      </trkpt>
      <trkpt lat="42.71176" lon="0.66751">
        <ele>1551.1</ele>
        <time>2018-08-08T11:29:24.000Z</time>
      </trkpt>
      <trkpt lat="42.71175" lon="0.66751">
        <ele>1551.2</ele>
        <time>2018-08-08T11:29:25.000Z</time>
      </trkpt>
      <trkpt lat="42.71174" lon="0.66751">
        <ele>1551.3</ele>
        <time>2018-08-08T11:29:26.000Z</time>
      </trkpt>
      <trkpt lat="42.71173" lon="0.66752">
        <ele>1551.4</ele>
        <time>2018-08-08T11:29:27.000Z</time>
      </trkpt>
      <trkpt lat="42.71172" lon="0.66752">
        <ele>1551.5</ele>
        <time>2018-08-08T11:29:28.000Z</time>
      </trkpt>
      <trkpt lat="42.71171" lon="0.66752">
        <ele>1551.6</ele>
        <time>2018-08-08T11:29:29.000Z</time>
      </trkpt>
      <trkpt lat="42.7117" lon="0.66752">
        <ele>1551.7</ele>
        <time>2018-08-08T11:29:30.000Z</time>
      </trkpt>
      <trkpt lat="42.71169" lon="0.66752">
        <ele>1551.8</ele>
        <time>2018-08-08T11:29:31.000Z</time>
      </trkpt>
      <trkpt lat="42.71168" lon="0.66753">
        <ele>1552</ele>
        <time>2018-08-08T11:29:32.000Z</time>
      </trkpt>
      <trkpt lat="42.71167" lon="0.66753">
        <ele>1552</ele>
        <time>2018-08-08T11:29:33.000Z</time>
      </trkpt>
      <trkpt lat="42.71167" lon="0.66753">
        <ele>1552.2</ele>
        <time>2018-08-08T11:29:34.000Z</time>
      </trkpt>
      <trkpt lat="42.71166" lon="0.66753">
        <ele>1552.4</ele>
        <time>2018-08-08T11:29:35.000Z</time>
      </trkpt>
      <trkpt lat="42.71165" lon="0.66753">
        <ele>1552.5</ele>
        <time>2018-08-08T11:29:36.000Z</time>
      </trkpt>
      <trkpt lat="42.71164" lon="0.66753">
        <ele>1552.7</ele>
        <time>2018-08-08T11:29:37.000Z</time>
      </trkpt>
      <trkpt lat="42.71163" lon="0.66753">
        <ele>1552.8</ele>
        <time>2018-08-08T11:29:38.000Z</time>
      </trkpt>
      <trkpt lat="42.71162" lon="0.66753">
        <ele>1553</ele>
        <time>2018-08-08T11:29:39.000Z</time>
      </trkpt>
      <trkpt lat="42.71161" lon="0.66753">
        <ele>1553.2</ele>
        <time>2018-08-08T11:29:40.000Z</time>
      </trkpt>
      <trkpt lat="42.7116" lon="0.66753">
        <ele>1553.3</ele>
        <time>2018-08-08T11:29:41.000Z</time>
      </trkpt>
      <trkpt lat="42.7116" lon="0.66753">
        <ele>1553.5</ele>
        <time>2018-08-08T11:29:42.000Z</time>
      </trkpt>
      <trkpt lat="42.71159" lon="0.66754">
        <ele>1553.7</ele>
        <time>2018-08-08T11:29:43.000Z</time>
      </trkpt>
      <trkpt lat="42.71158" lon="0.66754">
        <ele>1553.8</ele>
        <time>2018-08-08T11:29:44.000Z</time>
      </trkpt>
      <trkpt lat="42.71157" lon="0.66755">
        <ele>1553.9</ele>
        <time>2018-08-08T11:29:45.000Z</time>
      </trkpt>
      <trkpt lat="42.71157" lon="0.66755">
        <ele>1554.1</ele>
        <time>2018-08-08T11:29:46.000Z</time>
      </trkpt>
      <trkpt lat="42.71156" lon="0.66756">
        <ele>1554.2</ele>
        <time>2018-08-08T11:29:47.000Z</time>
      </trkpt>
      <trkpt lat="42.71155" lon="0.66756">
        <ele>1554.4</ele>
        <time>2018-08-08T11:29:48.000Z</time>
      </trkpt>
      <trkpt lat="42.71155" lon="0.66757">
        <ele>1554.5</ele>
        <time>2018-08-08T11:29:49.000Z</time>
      </trkpt>
      <trkpt lat="42.71154" lon="0.66757">
        <ele>1554.7</ele>
        <time>2018-08-08T11:29:50.000Z</time>
      </trkpt>
      <trkpt lat="42.71153" lon="0.66758">
        <ele>1554.8</ele>
        <time>2018-08-08T11:29:51.000Z</time>
      </trkpt>
      <trkpt lat="42.71153" lon="0.66759">
        <ele>1555</ele>
        <time>2018-08-08T11:29:52.000Z</time>
      </trkpt>
      <trkpt lat="42.71152" lon="0.66759">
        <ele>1555.2</ele>
        <time>2018-08-08T11:29:53.000Z</time>
      </trkpt>
      <trkpt lat="42.71151" lon="0.6676">
        <ele>1555.3</ele>
        <time>2018-08-08T11:29:54.000Z</time>
      </trkpt>
      <trkpt lat="42.7115" lon="0.6676">
        <ele>1555.5</ele>
        <time>2018-08-08T11:29:55.000Z</time>
      </trkpt>
      <trkpt lat="42.7115" lon="0.66761">
        <ele>1555.6</ele>
        <time>2018-08-08T11:29:56.000Z</time>
      </trkpt>
      <trkpt lat="42.71149" lon="0.66761">
        <ele>1555.8</ele>
        <time>2018-08-08T11:29:57.000Z</time>
      </trkpt>
      <trkpt lat="42.71148" lon="0.66762">
        <ele>1555.9</ele>
        <time>2018-08-08T11:29:58.000Z</time>
      </trkpt>
      <trkpt lat="42.71147" lon="0.66762">
        <ele>1556.1</ele>
        <time>2018-08-08T11:29:59.000Z</time>
      </trkpt>
      <trkpt lat="42.71146" lon="0.66763">
        <ele>1556.2</ele>
        <time>2018-08-08T11:30:00.000Z</time>
      </trkpt>
      <trkpt lat="42.71146" lon="0.66763">
        <ele>1556.4</ele>
        <time>2018-08-08T11:30:01.000Z</time>
      </trkpt>
      <trkpt lat="42.71145" lon="0.66763">
        <ele>1556.5</ele>
        <time>2018-08-08T11:30:02.000Z</time>
      </trkpt>
      <trkpt lat="42.71144" lon="0.66764">
        <ele>1556.7</ele>
        <time>2018-08-08T11:30:03.000Z</time>
      </trkpt>
      <trkpt lat="42.71143" lon="0.66764">
        <ele>1556.8</ele>
        <time>2018-08-08T11:30:04.000Z</time>
      </trkpt>
      <trkpt lat="42.71142" lon="0.66764">
        <ele>1557</ele>
        <time>2018-08-08T11:30:05.000Z</time>
      </trkpt>
      <trkpt lat="42.71141" lon="0.66765">
        <ele>1557.1</ele>
        <time>2018-08-08T11:30:06.000Z</time>
      </trkpt>
      <trkpt lat="42.71141" lon="0.66765">
        <ele>1557.3</ele>
        <time>2018-08-08T11:30:07.000Z</time>
      </trkpt>
      <trkpt lat="42.7114" lon="0.66765">
        <ele>1557.5</ele>
        <time>2018-08-08T11:30:08.000Z</time>
      </trkpt>
      <trkpt lat="42.71139" lon="0.66765">
        <ele>1557.6</ele>
        <time>2018-08-08T11:30:09.000Z</time>
      </trkpt>
      <trkpt lat="42.71138" lon="0.66766">
        <ele>1557.8</ele>
        <time>2018-08-08T11:30:10.000Z</time>
      </trkpt>
      <trkpt lat="42.71137" lon="0.66766">
        <ele>1557.9</ele>
        <time>2018-08-08T11:30:11.000Z</time>
      </trkpt>
      <trkpt lat="42.71136" lon="0.66766">
        <ele>1558.1</ele>
        <time>2018-08-08T11:30:12.000Z</time>
      </trkpt>
      <trkpt lat="42.71135" lon="0.66767">
        <ele>1558.2</ele>
        <time>2018-08-08T11:30:13.000Z</time>
      </trkpt>
      <trkpt lat="42.71134" lon="0.66767">
        <ele>1558.4</ele>
        <time>2018-08-08T11:30:14.000Z</time>
      </trkpt>
      <trkpt lat="42.71134" lon="0.66767">
        <ele>1558.5</ele>
        <time>2018-08-08T11:30:15.000Z</time>
      </trkpt>
      <trkpt lat="42.71133" lon="0.66767">
        <ele>1558.7</ele>
        <time>2018-08-08T11:30:16.000Z</time>
      </trkpt>
      <trkpt lat="42.71132" lon="0.66768">
        <ele>1558.9</ele>
        <time>2018-08-08T11:30:17.000Z</time>
      </trkpt>
      <trkpt lat="42.71131" lon="0.66768">
        <ele>1559</ele>
        <time>2018-08-08T11:30:18.000Z</time>
      </trkpt>
      <trkpt lat="42.7113" lon="0.66769">
        <ele>1559.2</ele>
        <time>2018-08-08T11:30:19.000Z</time>
      </trkpt>
      <trkpt lat="42.71129" lon="0.66769">
        <ele>1559.3</ele>
        <time>2018-08-08T11:30:20.000Z</time>
      </trkpt>
      <trkpt lat="42.71128" lon="0.6677">
        <ele>1559.5</ele>
        <time>2018-08-08T11:30:21.000Z</time>
      </trkpt>
      <trkpt lat="42.71127" lon="0.6677">
        <ele>1559.6</ele>
        <time>2018-08-08T11:30:22.000Z</time>
      </trkpt>
      <trkpt lat="42.71126" lon="0.66771">
        <ele>1559.8</ele>
        <time>2018-08-08T11:30:23.000Z</time>
      </trkpt>
      <trkpt lat="42.71125" lon="0.66771">
        <ele>1559.9</ele>
        <time>2018-08-08T11:30:24.000Z</time>
      </trkpt>
      <trkpt lat="42.71124" lon="0.66772">
        <ele>1560.1</ele>
        <time>2018-08-08T11:30:25.000Z</time>
      </trkpt>
      <trkpt lat="42.71124" lon="0.66773">
        <ele>1560.2</ele>
        <time>2018-08-08T11:30:26.000Z</time>
      </trkpt>
      <trkpt lat="42.71123" lon="0.66773">
        <ele>1560.4</ele>
        <time>2018-08-08T11:30:27.000Z</time>
      </trkpt>
      <trkpt lat="42.71122" lon="0.66774">
        <ele>1560.6</ele>
        <time>2018-08-08T11:30:28.000Z</time>
      </trkpt>
      <trkpt lat="42.71121" lon="0.66774">
        <ele>1560.7</ele>
        <time>2018-08-08T11:30:29.000Z</time>
      </trkpt>
      <trkpt lat="42.7112" lon="0.66775">
        <ele>1560.9</ele>
        <time>2018-08-08T11:30:30.000Z</time>
      </trkpt>
      <trkpt lat="42.71119" lon="0.66775">
        <ele>1561</ele>
        <time>2018-08-08T11:30:31.000Z</time>
      </trkpt>
      <trkpt lat="42.71118" lon="0.66776">
        <ele>1561.2</ele>
        <time>2018-08-08T11:30:32.000Z</time>
      </trkpt>
      <trkpt lat="42.71117" lon="0.66776">
        <ele>1561.4</ele>
        <time>2018-08-08T11:30:33.000Z</time>
      </trkpt>
      <trkpt lat="42.71116" lon="0.66777">
        <ele>1561.5</ele>
        <time>2018-08-08T11:30:34.000Z</time>
      </trkpt>
      <trkpt lat="42.71115" lon="0.66777">
        <ele>1561.7</ele>
        <time>2018-08-08T11:30:35.000Z</time>
      </trkpt>
      <trkpt lat="42.71114" lon="0.66778">
        <ele>1561.8</ele>
        <time>2018-08-08T11:30:36.000Z</time>
      </trkpt>
      <trkpt lat="42.71112" lon="0.66778">
        <ele>1562</ele>
        <time>2018-08-08T11:30:37.000Z</time>
      </trkpt>
      <trkpt lat="42.71111" lon="0.66778">
        <ele>1562.2</ele>
        <time>2018-08-08T11:30:38.000Z</time>
      </trkpt>
      <trkpt lat="42.7111" lon="0.66779">
        <ele>1562.3</ele>
        <time>2018-08-08T11:30:39.000Z</time>
      </trkpt>
      <trkpt lat="42.71109" lon="0.66779">
        <ele>1562.5</ele>
        <time>2018-08-08T11:30:40.000Z</time>
      </trkpt>
      <trkpt lat="42.71108" lon="0.66779">
        <ele>1562.7</ele>
        <time>2018-08-08T11:30:41.000Z</time>
      </trkpt>
      <trkpt lat="42.71107" lon="0.6678">
        <ele>1562.8</ele>
        <time>2018-08-08T11:30:42.000Z</time>
      </trkpt>
      <trkpt lat="42.71106" lon="0.6678">
        <ele>1563</ele>
        <time>2018-08-08T11:30:43.000Z</time>
      </trkpt>
      <trkpt lat="42.71105" lon="0.6678">
        <ele>1563.1</ele>
        <time>2018-08-08T11:30:44.000Z</time>
      </trkpt>
      <trkpt lat="42.71104" lon="0.6678">
        <ele>1563.3</ele>
        <time>2018-08-08T11:30:45.000Z</time>
      </trkpt>
      <trkpt lat="42.71103" lon="0.66781">
        <ele>1563.4</ele>
        <time>2018-08-08T11:30:46.000Z</time>
      </trkpt>
      <trkpt lat="42.71102" lon="0.66781">
        <ele>1563.6</ele>
        <time>2018-08-08T11:30:47.000Z</time>
      </trkpt>
      <trkpt lat="42.71101" lon="0.66781">
        <ele>1563.7</ele>
        <time>2018-08-08T11:30:48.000Z</time>
      </trkpt>
      <trkpt lat="42.71101" lon="0.66781">
        <ele>1563.8</ele>
        <time>2018-08-08T11:30:49.000Z</time>
      </trkpt>
      <trkpt lat="42.711" lon="0.66782">
        <ele>1563.9</ele>
        <time>2018-08-08T11:30:50.000Z</time>
      </trkpt>
      <trkpt lat="42.71099" lon="0.66782">
        <ele>1564.1</ele>
        <time>2018-08-08T11:30:51.000Z</time>
      </trkpt>
      <trkpt lat="42.71098" lon="0.66782">
        <ele>1564.2</ele>
        <time>2018-08-08T11:30:52.000Z</time>
      </trkpt>
      <trkpt lat="42.71097" lon="0.66782">
        <ele>1564.3</ele>
        <time>2018-08-08T11:30:53.000Z</time>
      </trkpt>
      <trkpt lat="42.71096" lon="0.66783">
        <ele>1564.4</ele>
        <time>2018-08-08T11:30:54.000Z</time>
      </trkpt>
      <trkpt lat="42.71096" lon="0.66783">
        <ele>1564.5</ele>
        <time>2018-08-08T11:30:55.000Z</time>
      </trkpt>
      <trkpt lat="42.71095" lon="0.66783">
        <ele>1564.7</ele>
        <time>2018-08-08T11:30:56.000Z</time>
      </trkpt>
      <trkpt lat="42.71094" lon="0.66783">
        <ele>1564.8</ele>
        <time>2018-08-08T11:30:57.000Z</time>
      </trkpt>
      <trkpt lat="42.71093" lon="0.66784">
        <ele>1564.9</ele>
        <time>2018-08-08T11:30:58.000Z</time>
      </trkpt>
      <trkpt lat="42.71092" lon="0.66784">
        <ele>1565</ele>
        <time>2018-08-08T11:30:59.000Z</time>
      </trkpt>
      <trkpt lat="42.71092" lon="0.66784">
        <ele>1565.1</ele>
        <time>2018-08-08T11:31:00.000Z</time>
      </trkpt>
      <trkpt lat="42.71091" lon="0.66784">
        <ele>1565.2</ele>
        <time>2018-08-08T11:31:01.000Z</time>
      </trkpt>
      <trkpt lat="42.71091" lon="0.66785">
        <ele>1565.2</ele>
        <time>2018-08-08T11:31:02.000Z</time>
      </trkpt>
      <trkpt lat="42.7109" lon="0.66785">
        <ele>1565.3</ele>
        <time>2018-08-08T11:31:03.000Z</time>
      </trkpt>
      <trkpt lat="42.7109" lon="0.66785">
        <ele>1565.3</ele>
        <time>2018-08-08T11:31:04.000Z</time>
      </trkpt>
      <trkpt lat="42.7109" lon="0.66785">
        <ele>1565.3</ele>
        <time>2018-08-08T11:31:05.000Z</time>
      </trkpt>
      <trkpt lat="42.7109" lon="0.66785">
        <ele>1565.3</ele>
        <time>2018-08-08T11:31:06.000Z</time>
      </trkpt>
      <trkpt lat="42.7109" lon="0.66785">
        <ele>1565.3</ele>
        <time>2018-08-08T11:31:07.000Z</time>
      </trkpt>
      <trkpt lat="42.7109" lon="0.66785">
        <ele>1565.4</ele>
        <time>2018-08-08T11:31:08.000Z</time>
      </trkpt>
      <trkpt lat="42.71089" lon="0.66785">
        <ele>1565.4</ele>
        <time>2018-08-08T11:31:09.000Z</time>
      </trkpt>
      <trkpt lat="42.71089" lon="0.66785">
        <ele>1565.5</ele>
        <time>2018-08-08T11:31:10.000Z</time>
      </trkpt>
      <trkpt lat="42.71088" lon="0.66786">
        <ele>1565.5</ele>
        <time>2018-08-08T11:31:11.000Z</time>
      </trkpt>
      <trkpt lat="42.71088" lon="0.66786">
        <ele>1565.7</ele>
        <time>2018-08-08T11:31:12.000Z</time>
      </trkpt>
      <trkpt lat="42.71087" lon="0.66786">
        <ele>1565.8</ele>
        <time>2018-08-08T11:31:13.000Z</time>
      </trkpt>
      <trkpt lat="42.71086" lon="0.66786">
        <ele>1565.9</ele>
        <time>2018-08-08T11:31:14.000Z</time>
      </trkpt>
      <trkpt lat="42.71085" lon="0.66786">
        <ele>1566</ele>
        <time>2018-08-08T11:31:15.000Z</time>
      </trkpt>
      <trkpt lat="42.71085" lon="0.66787">
        <ele>1566.1</ele>
        <time>2018-08-08T11:31:16.000Z</time>
      </trkpt>
      <trkpt lat="42.71084" lon="0.66787">
        <ele>1566.2</ele>
        <time>2018-08-08T11:31:17.000Z</time>
      </trkpt>
      <trkpt lat="42.71083" lon="0.66787">
        <ele>1566.2</ele>
        <time>2018-08-08T11:31:18.000Z</time>
      </trkpt>
      <trkpt lat="42.71082" lon="0.66788">
        <ele>1566.3</ele>
        <time>2018-08-08T11:31:19.000Z</time>
      </trkpt>
      <trkpt lat="42.71081" lon="0.66788">
        <ele>1566.3</ele>
        <time>2018-08-08T11:31:20.000Z</time>
      </trkpt>
      <trkpt lat="42.7108" lon="0.66788">
        <ele>1566.3</ele>
        <time>2018-08-08T11:31:21.000Z</time>
      </trkpt>
      <trkpt lat="42.71079" lon="0.66789">
        <ele>1566.3</ele>
        <time>2018-08-08T11:31:22.000Z</time>
      </trkpt>
      <trkpt lat="42.71078" lon="0.66789">
        <ele>1566.3</ele>
        <time>2018-08-08T11:31:23.000Z</time>
      </trkpt>
      <trkpt lat="42.71078" lon="0.66789">
        <ele>1566.3</ele>
        <time>2018-08-08T11:31:24.000Z</time>
      </trkpt>
      <trkpt lat="42.71077" lon="0.6679">
        <ele>1566.3</ele>
        <time>2018-08-08T11:31:25.000Z</time>
      </trkpt>
      <trkpt lat="42.71077" lon="0.6679">
        <ele>1566.3</ele>
        <time>2018-08-08T11:31:26.000Z</time>
      </trkpt>
      <trkpt lat="42.71077" lon="0.6679">
        <ele>1566.3</ele>
        <time>2018-08-08T11:31:27.000Z</time>
      </trkpt>
      <trkpt lat="42.71077" lon="0.6679">
        <ele>1566.3</ele>
        <time>2018-08-08T11:31:28.000Z</time>
      </trkpt>
      <trkpt lat="42.71077" lon="0.6679">
        <ele>1566.3</ele>
        <time>2018-08-08T11:31:29.000Z</time>
      </trkpt>
      <trkpt lat="42.71077" lon="0.6679">
        <ele>1566.3</ele>
        <time>2018-08-08T11:31:30.000Z</time>
      </trkpt>
      <trkpt lat="42.71077" lon="0.6679">
        <ele>1566.3</ele>
        <time>2018-08-08T11:31:31.000Z</time>
      </trkpt>
      <trkpt lat="42.71077" lon="0.6679">
        <ele>1566.3</ele>
        <time>2018-08-08T11:31:32.000Z</time>
      </trkpt>
      <trkpt lat="42.71077" lon="0.6679">
        <ele>1566.3</ele>
        <time>2018-08-08T11:31:33.000Z</time>
      </trkpt>
      <trkpt lat="42.71077" lon="0.6679">
        <ele>1566.3</ele>
        <time>2018-08-08T11:31:34.000Z</time>
      </trkpt>
      <trkpt lat="42.71077" lon="0.6679">
        <ele>1566.3</ele>
        <time>2018-08-08T11:31:35.000Z</time>
      </trkpt>
      <trkpt lat="42.71077" lon="0.6679">
        <ele>1566.3</ele>
        <time>2018-08-08T11:31:36.000Z</time>
      </trkpt>
      <trkpt lat="42.71077" lon="0.6679">
        <ele>1566.3</ele>
        <time>2018-08-08T11:31:37.000Z</time>
      </trkpt>
      <trkpt lat="42.71077" lon="0.6679">
        <ele>1566.3</ele>
        <time>2018-08-08T11:31:38.000Z</time>
      </trkpt>
      <trkpt lat="42.71077" lon="0.6679">
        <ele>1566.3</ele>
        <time>2018-08-08T11:31:39.000Z</time>
      </trkpt>
      <trkpt lat="42.71077" lon="0.6679">
        <ele>1566.3</ele>
        <time>2018-08-08T11:31:40.000Z</time>
      </trkpt>
      <trkpt lat="42.71077" lon="0.6679">
        <ele>1566.3</ele>
        <time>2018-08-08T11:31:41.000Z</time>
      </trkpt>
      <trkpt lat="42.71077" lon="0.6679">
        <ele>1566.3</ele>
        <time>2018-08-08T11:31:42.000Z</time>
      </trkpt>
      <trkpt lat="42.71077" lon="0.6679">
        <ele>1566.3</ele>
        <time>2018-08-08T11:31:43.000Z</time>
      </trkpt>
      <trkpt lat="42.71077" lon="0.6679">
        <ele>1566.3</ele>
        <time>2018-08-08T11:31:44.000Z</time>
      </trkpt>
      <trkpt lat="42.71077" lon="0.6679">
        <ele>1566.3</ele>
        <time>2018-08-08T11:31:45.000Z</time>
      </trkpt>
      <trkpt lat="42.71077" lon="0.6679">
        <ele>1566.3</ele>
        <time>2018-08-08T11:31:46.000Z</time>
      </trkpt>
      <trkpt lat="42.71077" lon="0.6679">
        <ele>1566.3</ele>
        <time>2018-08-08T11:31:47.000Z</time>
      </trkpt>
      <trkpt lat="42.71077" lon="0.6679">
        <ele>1566.3</ele>
        <time>2018-08-08T11:31:48.000Z</time>
      </trkpt>
      <trkpt lat="42.71077" lon="0.6679">
        <ele>1566.3</ele>
        <time>2018-08-08T11:31:49.000Z</time>
      </trkpt>
      <trkpt lat="42.71077" lon="0.6679">
        <ele>1566.3</ele>
        <time>2018-08-08T11:31:50.000Z</time>
      </trkpt>
      <trkpt lat="42.71077" lon="0.6679">
        <ele>1566.3</ele>
        <time>2018-08-08T11:31:51.000Z</time>
      </trkpt>
      <trkpt lat="42.71077" lon="0.6679">
        <ele>1566.3</ele>
        <time>2018-08-08T11:31:52.000Z</time>
      </trkpt>
      <trkpt lat="42.71077" lon="0.6679">
        <ele>1566.3</ele>
        <time>2018-08-08T11:31:53.000Z</time>
      </trkpt>
      <trkpt lat="42.71077" lon="0.6679">
        <ele>1566.3</ele>
        <time>2018-08-08T11:31:54.000Z</time>
      </trkpt>
      <trkpt lat="42.71077" lon="0.6679">
        <ele>1566.3</ele>
        <time>2018-08-08T11:31:55.000Z</time>
      </trkpt>
      <trkpt lat="42.71077" lon="0.6679">
        <ele>1566.3</ele>
        <time>2018-08-08T11:31:56.000Z</time>
      </trkpt>
      <trkpt lat="42.71077" lon="0.6679">
        <ele>1566.3</ele>
        <time>2018-08-08T11:31:57.000Z</time>
      </trkpt>
      <trkpt lat="42.71077" lon="0.6679">
        <ele>1566.3</ele>
        <time>2018-08-08T11:31:58.000Z</time>
      </trkpt>
      <trkpt lat="42.71077" lon="0.6679">
        <ele>1566.3</ele>
        <time>2018-08-08T11:31:59.000Z</time>
      </trkpt>
      <trkpt lat="42.71077" lon="0.6679">
        <ele>1566.3</ele>
        <time>2018-08-08T11:32:00.000Z</time>
      </trkpt>
      <trkpt lat="42.71077" lon="0.6679">
        <ele>1566.3</ele>
        <time>2018-08-08T11:32:01.000Z</time>
      </trkpt>
      <trkpt lat="42.71077" lon="0.6679">
        <ele>1566.3</ele>
        <time>2018-08-08T11:32:02.000Z</time>
      </trkpt>
      <trkpt lat="42.71077" lon="0.6679">
        <ele>1566.3</ele>
        <time>2018-08-08T11:32:03.000Z</time>
      </trkpt>
      <trkpt lat="42.71077" lon="0.6679">
        <ele>1566.3</ele>
        <time>2018-08-08T11:32:04.000Z</time>
      </trkpt>
      <trkpt lat="42.71077" lon="0.6679">
        <ele>1566.3</ele>
        <time>2018-08-08T11:32:05.000Z</time>
      </trkpt>
      <trkpt lat="42.71077" lon="0.6679">
        <ele>1566.3</ele>
        <time>2018-08-08T11:32:06.000Z</time>
      </trkpt>
      <trkpt lat="42.71077" lon="0.6679">
        <ele>1566.3</ele>
        <time>2018-08-08T11:32:07.000Z</time>
      </trkpt>
      <trkpt lat="42.71077" lon="0.6679">
        <ele>1566.3</ele>
        <time>2018-08-08T11:32:08.000Z</time>
      </trkpt>
      <trkpt lat="42.71077" lon="0.6679">
        <ele>1566.3</ele>
        <time>2018-08-08T11:32:09.000Z</time>
      </trkpt>
      <trkpt lat="42.71077" lon="0.6679">
        <ele>1566.3</ele>
        <time>2018-08-08T11:32:10.000Z</time>
      </trkpt>
      <trkpt lat="42.71077" lon="0.6679">
        <ele>1566.3</ele>
        <time>2018-08-08T11:32:11.000Z</time>
      </trkpt>
      <trkpt lat="42.71077" lon="0.6679">
        <ele>1566.3</ele>
        <time>2018-08-08T11:32:12.000Z</time>
      </trkpt>
      <trkpt lat="42.71077" lon="0.6679">
        <ele>1566.3</ele>
        <time>2018-08-08T11:32:13.000Z</time>
      </trkpt>
      <trkpt lat="42.71077" lon="0.6679">
        <ele>1566.3</ele>
        <time>2018-08-08T11:32:14.000Z</time>
      </trkpt>
      <trkpt lat="42.71077" lon="0.6679">
        <ele>1566.3</ele>
        <time>2018-08-08T11:32:15.000Z</time>
      </trkpt>
      <trkpt lat="42.71077" lon="0.6679">
        <ele>1566.3</ele>
        <time>2018-08-08T11:32:16.000Z</time>
      </trkpt>
      <trkpt lat="42.71077" lon="0.6679">
        <ele>1566.3</ele>
        <time>2018-08-08T11:32:17.000Z</time>
      </trkpt>
      <trkpt lat="42.71077" lon="0.6679">
        <ele>1566.3</ele>
        <time>2018-08-08T11:32:18.000Z</time>
      </trkpt>
      <trkpt lat="42.71077" lon="0.6679">
        <ele>1566.3</ele>
        <time>2018-08-08T11:32:19.000Z</time>
      </trkpt>
      <trkpt lat="42.71077" lon="0.6679">
        <ele>1566.3</ele>
        <time>2018-08-08T11:32:20.000Z</time>
      </trkpt>
      <trkpt lat="42.71077" lon="0.6679">
        <ele>1566.3</ele>
        <time>2018-08-08T11:32:21.000Z</time>
      </trkpt>
      <trkpt lat="42.71077" lon="0.6679">
        <ele>1566.3</ele>
        <time>2018-08-08T11:32:22.000Z</time>
      </trkpt>
      <trkpt lat="42.71077" lon="0.6679">
        <ele>1566.3</ele>
        <time>2018-08-08T11:32:23.000Z</time>
      </trkpt>
      <trkpt lat="42.71077" lon="0.6679">
        <ele>1566.3</ele>
        <time>2018-08-08T11:32:24.000Z</time>
      </trkpt>
      <trkpt lat="42.71076" lon="0.6679">
        <ele>1566.3</ele>
        <time>2018-08-08T11:32:25.000Z</time>
      </trkpt>
      <trkpt lat="42.71076" lon="0.66791">
        <ele>1566.3</ele>
        <time>2018-08-08T11:32:26.000Z</time>
      </trkpt>
      <trkpt lat="42.71076" lon="0.66791">
        <ele>1566.3</ele>
        <time>2018-08-08T11:32:27.000Z</time>
      </trkpt>
      <trkpt lat="42.71076" lon="0.66791">
        <ele>1566.3</ele>
        <time>2018-08-08T11:32:28.000Z</time>
      </trkpt>
      <trkpt lat="42.71075" lon="0.66791">
        <ele>1566.3</ele>
        <time>2018-08-08T11:32:29.000Z</time>
      </trkpt>
      <trkpt lat="42.71075" lon="0.66792">
        <ele>1566.3</ele>
        <time>2018-08-08T11:32:30.000Z</time>
      </trkpt>
      <trkpt lat="42.71074" lon="0.66792">
        <ele>1566.3</ele>
        <time>2018-08-08T11:32:31.000Z</time>
      </trkpt>
      <trkpt lat="42.71074" lon="0.66793">
        <ele>1566.2</ele>
        <time>2018-08-08T11:32:32.000Z</time>
      </trkpt>
      <trkpt lat="42.71073" lon="0.66793">
        <ele>1566.2</ele>
        <time>2018-08-08T11:32:33.000Z</time>
      </trkpt>
      <trkpt lat="42.71072" lon="0.66793">
        <ele>1566.2</ele>
        <time>2018-08-08T11:32:34.000Z</time>
      </trkpt>
      <trkpt lat="42.71072" lon="0.66794">
        <ele>1566.2</ele>
        <time>2018-08-08T11:32:35.000Z</time>
      </trkpt>
      <trkpt lat="42.71071" lon="0.66794">
        <ele>1566.2</ele>
        <time>2018-08-08T11:32:36.000Z</time>
      </trkpt>
      <trkpt lat="42.7107" lon="0.66795">
        <ele>1566.2</ele>
        <time>2018-08-08T11:32:37.000Z</time>
      </trkpt>
      <trkpt lat="42.71069" lon="0.66796">
        <ele>1566.2</ele>
        <time>2018-08-08T11:32:38.000Z</time>
      </trkpt>
      <trkpt lat="42.71068" lon="0.66796">
        <ele>1566.2</ele>
        <time>2018-08-08T11:32:39.000Z</time>
      </trkpt>
      <trkpt lat="42.71067" lon="0.66797">
        <ele>1566.2</ele>
        <time>2018-08-08T11:32:40.000Z</time>
      </trkpt>
      <trkpt lat="42.71067" lon="0.66797">
        <ele>1566.2</ele>
        <time>2018-08-08T11:32:41.000Z</time>
      </trkpt>
      <trkpt lat="42.71066" lon="0.66798">
        <ele>1566.1</ele>
        <time>2018-08-08T11:32:42.000Z</time>
      </trkpt>
      <trkpt lat="42.71065" lon="0.66799">
        <ele>1566.1</ele>
        <time>2018-08-08T11:32:43.000Z</time>
      </trkpt>
      <trkpt lat="42.71064" lon="0.66799">
        <ele>1566.1</ele>
        <time>2018-08-08T11:32:44.000Z</time>
      </trkpt>
      <trkpt lat="42.71063" lon="0.668">
        <ele>1566.1</ele>
        <time>2018-08-08T11:32:45.000Z</time>
      </trkpt>
      <trkpt lat="42.71062" lon="0.668">
        <ele>1566.1</ele>
        <time>2018-08-08T11:32:46.000Z</time>
      </trkpt>
      <trkpt lat="42.71061" lon="0.66801">
        <ele>1566.1</ele>
        <time>2018-08-08T11:32:47.000Z</time>
      </trkpt>
      <trkpt lat="42.7106" lon="0.66801">
        <ele>1566.1</ele>
        <time>2018-08-08T11:32:48.000Z</time>
      </trkpt>
      <trkpt lat="42.71059" lon="0.66801">
        <ele>1566.1</ele>
        <time>2018-08-08T11:32:49.000Z</time>
      </trkpt>
      <trkpt lat="42.71058" lon="0.66802">
        <ele>1566.1</ele>
        <time>2018-08-08T11:32:50.000Z</time>
      </trkpt>
      <trkpt lat="42.71058" lon="0.66802">
        <ele>1566.1</ele>
        <time>2018-08-08T11:32:51.000Z</time>
      </trkpt>
      <trkpt lat="42.71057" lon="0.66803">
        <ele>1566.1</ele>
        <time>2018-08-08T11:32:52.000Z</time>
      </trkpt>
      <trkpt lat="42.71056" lon="0.66803">
        <ele>1566.1</ele>
        <time>2018-08-08T11:32:53.000Z</time>
      </trkpt>
      <trkpt lat="42.71055" lon="0.66803">
        <ele>1566.1</ele>
        <time>2018-08-08T11:32:54.000Z</time>
      </trkpt>
      <trkpt lat="42.71054" lon="0.66804">
        <ele>1566.1</ele>
        <time>2018-08-08T11:32:55.000Z</time>
      </trkpt>
      <trkpt lat="42.71053" lon="0.66804">
        <ele>1566.1</ele>
        <time>2018-08-08T11:32:56.000Z</time>
      </trkpt>
      <trkpt lat="42.71052" lon="0.66804">
        <ele>1566.1</ele>
        <time>2018-08-08T11:32:57.000Z</time>
      </trkpt>
      <trkpt lat="42.71051" lon="0.66805">
        <ele>1566.1</ele>
        <time>2018-08-08T11:32:58.000Z</time>
      </trkpt>
      <trkpt lat="42.7105" lon="0.66805">
        <ele>1566</ele>
        <time>2018-08-08T11:32:59.000Z</time>
      </trkpt>
      <trkpt lat="42.71049" lon="0.66805">
        <ele>1566</ele>
        <time>2018-08-08T11:33:00.000Z</time>
      </trkpt>
      <trkpt lat="42.71048" lon="0.66806">
        <ele>1566</ele>
        <time>2018-08-08T11:33:01.000Z</time>
      </trkpt>
      <trkpt lat="42.71047" lon="0.66806">
        <ele>1566</ele>
        <time>2018-08-08T11:33:02.000Z</time>
      </trkpt>
      <trkpt lat="42.71046" lon="0.66806">
        <ele>1566</ele>
        <time>2018-08-08T11:33:03.000Z</time>
      </trkpt>
      <trkpt lat="42.71046" lon="0.66806">
        <ele>1566</ele>
        <time>2018-08-08T11:33:04.000Z</time>
      </trkpt>
      <trkpt lat="42.71045" lon="0.66806">
        <ele>1566</ele>
        <time>2018-08-08T11:33:05.000Z</time>
      </trkpt>
      <trkpt lat="42.71044" lon="0.66807">
        <ele>1566.1</ele>
        <time>2018-08-08T11:33:06.000Z</time>
      </trkpt>
      <trkpt lat="42.71043" lon="0.66807">
        <ele>1566.1</ele>
        <time>2018-08-08T11:33:07.000Z</time>
      </trkpt>
      <trkpt lat="42.71042" lon="0.66807">
        <ele>1566.1</ele>
        <time>2018-08-08T11:33:08.000Z</time>
      </trkpt>
      <trkpt lat="42.71041" lon="0.66807">
        <ele>1566.1</ele>
        <time>2018-08-08T11:33:09.000Z</time>
      </trkpt>
      <trkpt lat="42.7104" lon="0.66807">
        <ele>1566.1</ele>
        <time>2018-08-08T11:33:10.000Z</time>
      </trkpt>
      <trkpt lat="42.71038" lon="0.66807">
        <ele>1566.1</ele>
        <time>2018-08-08T11:33:11.000Z</time>
      </trkpt>
      <trkpt lat="42.71037" lon="0.66807">
        <ele>1566.2</ele>
        <time>2018-08-08T11:33:12.000Z</time>
      </trkpt>
      <trkpt lat="42.71036" lon="0.66806">
        <ele>1566.2</ele>
        <time>2018-08-08T11:33:13.000Z</time>
      </trkpt>
      <trkpt lat="42.71035" lon="0.66806">
        <ele>1566.2</ele>
        <time>2018-08-08T11:33:14.000Z</time>
      </trkpt>
      <trkpt lat="42.71034" lon="0.66806">
        <ele>1566.3</ele>
        <time>2018-08-08T11:33:15.000Z</time>
      </trkpt>
      <trkpt lat="42.71033" lon="0.66806">
        <ele>1566.3</ele>
        <time>2018-08-08T11:33:16.000Z</time>
      </trkpt>
      <trkpt lat="42.71033" lon="0.66805">
        <ele>1566.4</ele>
        <time>2018-08-08T11:33:17.000Z</time>
      </trkpt>
      <trkpt lat="42.71032" lon="0.66805">
        <ele>1566.4</ele>
        <time>2018-08-08T11:33:18.000Z</time>
      </trkpt>
      <trkpt lat="42.71031" lon="0.66805">
        <ele>1566.4</ele>
        <time>2018-08-08T11:33:19.000Z</time>
      </trkpt>
      <trkpt lat="42.7103" lon="0.66805">
        <ele>1566.5</ele>
        <time>2018-08-08T11:33:20.000Z</time>
      </trkpt>
      <trkpt lat="42.7103" lon="0.66804">
        <ele>1566.5</ele>
        <time>2018-08-08T11:33:21.000Z</time>
      </trkpt>
      <trkpt lat="42.7103" lon="0.66804">
        <ele>1566.5</ele>
        <time>2018-08-08T11:33:22.000Z</time>
      </trkpt>
      <trkpt lat="42.71029" lon="0.66804">
        <ele>1566.6</ele>
        <time>2018-08-08T11:33:23.000Z</time>
      </trkpt>
      <trkpt lat="42.71029" lon="0.66804">
        <ele>1566.6</ele>
        <time>2018-08-08T11:33:24.000Z</time>
      </trkpt>
      <trkpt lat="42.71029" lon="0.66804">
        <ele>1566.6</ele>
        <time>2018-08-08T11:33:25.000Z</time>
      </trkpt>
      <trkpt lat="42.71028" lon="0.66804">
        <ele>1566.6</ele>
        <time>2018-08-08T11:33:26.000Z</time>
      </trkpt>
      <trkpt lat="42.71028" lon="0.66803">
        <ele>1566.6</ele>
        <time>2018-08-08T11:33:27.000Z</time>
      </trkpt>
      <trkpt lat="42.71028" lon="0.66803">
        <ele>1566.6</ele>
        <time>2018-08-08T11:33:28.000Z</time>
      </trkpt>
      <trkpt lat="42.71028" lon="0.66803">
        <ele>1566.6</ele>
        <time>2018-08-08T11:33:29.000Z</time>
      </trkpt>
      <trkpt lat="42.71028" lon="0.66803">
        <ele>1566.7</ele>
        <time>2018-08-08T11:33:30.000Z</time>
      </trkpt>
      <trkpt lat="42.71028" lon="0.66803">
        <ele>1566.7</ele>
        <time>2018-08-08T11:33:31.000Z</time>
      </trkpt>
      <trkpt lat="42.71028" lon="0.66803">
        <ele>1566.7</ele>
        <time>2018-08-08T11:33:32.000Z</time>
      </trkpt>
      <trkpt lat="42.71028" lon="0.66803">
        <ele>1566.7</ele>
        <time>2018-08-08T11:33:33.000Z</time>
      </trkpt>
      <trkpt lat="42.71028" lon="0.66803">
        <ele>1566.7</ele>
        <time>2018-08-08T11:33:34.000Z</time>
      </trkpt>
      <trkpt lat="42.71028" lon="0.66803">
        <ele>1566.7</ele>
        <time>2018-08-08T11:33:35.000Z</time>
      </trkpt>
      <trkpt lat="42.71028" lon="0.66803">
        <ele>1566.7</ele>
        <time>2018-08-08T11:33:36.000Z</time>
      </trkpt>
      <trkpt lat="42.71028" lon="0.66803">
        <ele>1566.7</ele>
        <time>2018-08-08T11:33:37.000Z</time>
      </trkpt>
      <trkpt lat="42.71028" lon="0.66803">
        <ele>1566.7</ele>
        <time>2018-08-08T11:33:38.000Z</time>
      </trkpt>
      <trkpt lat="42.71028" lon="0.66803">
        <ele>1566.7</ele>
        <time>2018-08-08T11:33:39.000Z</time>
      </trkpt>
      <trkpt lat="42.71028" lon="0.66803">
        <ele>1566.7</ele>
        <time>2018-08-08T11:33:40.000Z</time>
      </trkpt>
      <trkpt lat="42.71028" lon="0.66803">
        <ele>1566.6</ele>
        <time>2018-08-08T11:33:41.000Z</time>
      </trkpt>
      <trkpt lat="42.71028" lon="0.66803">
        <ele>1566.6</ele>
        <time>2018-08-08T11:33:42.000Z</time>
      </trkpt>
      <trkpt lat="42.71028" lon="0.66803">
        <ele>1566.6</ele>
        <time>2018-08-08T11:33:43.000Z</time>
      </trkpt>
      <trkpt lat="42.71028" lon="0.66803">
        <ele>1566.6</ele>
        <time>2018-08-08T11:33:44.000Z</time>
      </trkpt>
      <trkpt lat="42.71028" lon="0.66803">
        <ele>1566.6</ele>
        <time>2018-08-08T11:33:45.000Z</time>
      </trkpt>
      <trkpt lat="42.71028" lon="0.66803">
        <ele>1566.6</ele>
        <time>2018-08-08T11:33:46.000Z</time>
      </trkpt>
      <trkpt lat="42.71028" lon="0.66803">
        <ele>1566.6</ele>
        <time>2018-08-08T11:33:47.000Z</time>
      </trkpt>
      <trkpt lat="42.71028" lon="0.66803">
        <ele>1566.6</ele>
        <time>2018-08-08T11:33:48.000Z</time>
      </trkpt>
      <trkpt lat="42.71028" lon="0.66803">
        <ele>1566.6</ele>
        <time>2018-08-08T11:33:49.000Z</time>
      </trkpt>
      <trkpt lat="42.71028" lon="0.66803">
        <ele>1566.6</ele>
        <time>2018-08-08T11:33:50.000Z</time>
      </trkpt>
      <trkpt lat="42.71028" lon="0.66803">
        <ele>1566.6</ele>
        <time>2018-08-08T11:33:51.000Z</time>
      </trkpt>
      <trkpt lat="42.71028" lon="0.66803">
        <ele>1566.6</ele>
        <time>2018-08-08T11:33:52.000Z</time>
      </trkpt>
      <trkpt lat="42.71028" lon="0.66803">
        <ele>1566.6</ele>
        <time>2018-08-08T11:33:53.000Z</time>
      </trkpt>
      <trkpt lat="42.71028" lon="0.66803">
        <ele>1566.6</ele>
        <time>2018-08-08T11:33:54.000Z</time>
      </trkpt>
      <trkpt lat="42.71028" lon="0.66803">
        <ele>1566.6</ele>
        <time>2018-08-08T11:33:55.000Z</time>
      </trkpt>
      <trkpt lat="42.71028" lon="0.66803">
        <ele>1566.6</ele>
        <time>2018-08-08T11:33:56.000Z</time>
      </trkpt>
      <trkpt lat="42.71028" lon="0.66803">
        <ele>1566.6</ele>
        <time>2018-08-08T11:33:57.000Z</time>
      </trkpt>
      <trkpt lat="42.71028" lon="0.66803">
        <ele>1566.6</ele>
        <time>2018-08-08T11:33:58.000Z</time>
      </trkpt>
      <trkpt lat="42.71028" lon="0.66803">
        <ele>1566.6</ele>
        <time>2018-08-08T11:33:59.000Z</time>
      </trkpt>
      <trkpt lat="42.71028" lon="0.66803">
        <ele>1566.6</ele>
        <time>2018-08-08T11:34:00.000Z</time>
      </trkpt>
      <trkpt lat="42.71028" lon="0.66803">
        <ele>1566.6</ele>
        <time>2018-08-08T11:34:01.000Z</time>
      </trkpt>
      <trkpt lat="42.71028" lon="0.66803">
        <ele>1566.6</ele>
        <time>2018-08-08T11:34:02.000Z</time>
      </trkpt>
      <trkpt lat="42.71028" lon="0.66803">
        <ele>1566.6</ele>
        <time>2018-08-08T11:34:03.000Z</time>
      </trkpt>
      <trkpt lat="42.71028" lon="0.66803">
        <ele>1566.6</ele>
        <time>2018-08-08T11:34:04.000Z</time>
      </trkpt>
      <trkpt lat="42.71028" lon="0.66803">
        <ele>1566.6</ele>
        <time>2018-08-08T11:34:05.000Z</time>
      </trkpt>
      <trkpt lat="42.71028" lon="0.66803">
        <ele>1566.6</ele>
        <time>2018-08-08T11:34:06.000Z</time>
      </trkpt>
      <trkpt lat="42.71028" lon="0.66803">
        <ele>1566.6</ele>
        <time>2018-08-08T11:34:07.000Z</time>
      </trkpt>
      <trkpt lat="42.71028" lon="0.66803">
        <ele>1566.6</ele>
        <time>2018-08-08T11:34:08.000Z</time>
      </trkpt>
      <trkpt lat="42.71028" lon="0.66803">
        <ele>1566.6</ele>
        <time>2018-08-08T11:34:09.000Z</time>
      </trkpt>
      <trkpt lat="42.71028" lon="0.66803">
        <ele>1566.6</ele>
        <time>2018-08-08T11:34:10.000Z</time>
      </trkpt>
      <trkpt lat="42.71028" lon="0.66803">
        <ele>1566.6</ele>
        <time>2018-08-08T11:34:11.000Z</time>
      </trkpt>
      <trkpt lat="42.71028" lon="0.66803">
        <ele>1566.6</ele>
        <time>2018-08-08T11:34:12.000Z</time>
      </trkpt>
      <trkpt lat="42.71028" lon="0.66803">
        <ele>1566.6</ele>
        <time>2018-08-08T11:34:13.000Z</time>
      </trkpt>
      <trkpt lat="42.71028" lon="0.66803">
        <ele>1566.6</ele>
        <time>2018-08-08T11:34:14.000Z</time>
      </trkpt>
      <trkpt lat="42.71028" lon="0.66803">
        <ele>1566.6</ele>
        <time>2018-08-08T11:34:15.000Z</time>
      </trkpt>
      <trkpt lat="42.71028" lon="0.66803">
        <ele>1566.6</ele>
        <time>2018-08-08T11:34:16.000Z</time>
      </trkpt>
      <trkpt lat="42.71028" lon="0.66803">
        <ele>1566.6</ele>
        <time>2018-08-08T11:34:17.000Z</time>
      </trkpt>
      <trkpt lat="42.71028" lon="0.66803">
        <ele>1566.6</ele>
        <time>2018-08-08T11:34:18.000Z</time>
      </trkpt>
      <trkpt lat="42.71028" lon="0.66803">
        <ele>1566.6</ele>
        <time>2018-08-08T11:34:19.000Z</time>
      </trkpt>
      <trkpt lat="42.71028" lon="0.66803">
        <ele>1566.6</ele>
        <time>2018-08-08T11:34:20.000Z</time>
      </trkpt>
      <trkpt lat="42.71028" lon="0.66803">
        <ele>1566.6</ele>
        <time>2018-08-08T11:34:21.000Z</time>
      </trkpt>
      <trkpt lat="42.71028" lon="0.66803">
        <ele>1566.6</ele>
        <time>2018-08-08T11:34:22.000Z</time>
      </trkpt>
      <trkpt lat="42.71028" lon="0.66803">
        <ele>1566.6</ele>
        <time>2018-08-08T11:34:23.000Z</time>
      </trkpt>
      <trkpt lat="42.71028" lon="0.66803">
        <ele>1566.6</ele>
        <time>2018-08-08T11:34:24.000Z</time>
      </trkpt>
      <trkpt lat="42.71028" lon="0.66803">
        <ele>1566.6</ele>
        <time>2018-08-08T11:34:25.000Z</time>
      </trkpt>
      <trkpt lat="42.71028" lon="0.66803">
        <ele>1566.6</ele>
        <time>2018-08-08T11:34:26.000Z</time>
      </trkpt>
      <trkpt lat="42.71028" lon="0.66803">
        <ele>1566.6</ele>
        <time>2018-08-08T11:34:27.000Z</time>
      </trkpt>
      <trkpt lat="42.71028" lon="0.66803">
        <ele>1566.6</ele>
        <time>2018-08-08T11:34:28.000Z</time>
      </trkpt>
      <trkpt lat="42.71028" lon="0.66803">
        <ele>1566.6</ele>
        <time>2018-08-08T11:34:29.000Z</time>
      </trkpt>
      <trkpt lat="42.71028" lon="0.66803">
        <ele>1566.6</ele>
        <time>2018-08-08T11:34:30.000Z</time>
      </trkpt>
      <trkpt lat="42.71028" lon="0.66803">
        <ele>1566.6</ele>
        <time>2018-08-08T11:34:31.000Z</time>
      </trkpt>
      <trkpt lat="42.71028" lon="0.66803">
        <ele>1566.6</ele>
        <time>2018-08-08T11:34:32.000Z</time>
      </trkpt>
      <trkpt lat="42.71028" lon="0.66803">
        <ele>1566.6</ele>
        <time>2018-08-08T11:34:33.000Z</time>
      </trkpt>
      <trkpt lat="42.71028" lon="0.66803">
        <ele>1566.6</ele>
        <time>2018-08-08T11:34:34.000Z</time>
      </trkpt>
      <trkpt lat="42.71028" lon="0.66803">
        <ele>1566.6</ele>
        <time>2018-08-08T11:34:35.000Z</time>
      </trkpt>
      <trkpt lat="42.71028" lon="0.66803">
        <ele>1566.6</ele>
        <time>2018-08-08T11:34:36.000Z</time>
      </trkpt>
      <trkpt lat="42.71028" lon="0.66803">
        <ele>1566.6</ele>
        <time>2018-08-08T11:34:37.000Z</time>
      </trkpt>
      <trkpt lat="42.71028" lon="0.66803">
        <ele>1566.6</ele>
        <time>2018-08-08T11:34:38.000Z</time>
      </trkpt>
      <trkpt lat="42.71028" lon="0.66803">
        <ele>1566.7</ele>
        <time>2018-08-08T11:34:39.000Z</time>
      </trkpt>
      <trkpt lat="42.71028" lon="0.66803">
        <ele>1566.7</ele>
        <time>2018-08-08T11:34:40.000Z</time>
      </trkpt>
      <trkpt lat="42.71028" lon="0.66803">
        <ele>1566.7</ele>
        <time>2018-08-08T11:34:41.000Z</time>
      </trkpt>
      <trkpt lat="42.71027" lon="0.66803">
        <ele>1566.7</ele>
        <time>2018-08-08T11:34:42.000Z</time>
      </trkpt>
      <trkpt lat="42.71027" lon="0.66803">
        <ele>1566.7</ele>
        <time>2018-08-08T11:34:43.000Z</time>
      </trkpt>
      <trkpt lat="42.71026" lon="0.66802">
        <ele>1566.8</ele>
        <time>2018-08-08T11:34:44.000Z</time>
      </trkpt>
      <trkpt lat="42.71025" lon="0.66802">
        <ele>1566.8</ele>
        <time>2018-08-08T11:34:45.000Z</time>
      </trkpt>
      <trkpt lat="42.71024" lon="0.66801">
        <ele>1566.9</ele>
        <time>2018-08-08T11:34:46.000Z</time>
      </trkpt>
      <trkpt lat="42.71024" lon="0.66801">
        <ele>1567</ele>
        <time>2018-08-08T11:34:47.000Z</time>
      </trkpt>
      <trkpt lat="42.71023" lon="0.66801">
        <ele>1567</ele>
        <time>2018-08-08T11:34:48.000Z</time>
      </trkpt>
      <trkpt lat="42.71023" lon="0.668">
        <ele>1567</ele>
        <time>2018-08-08T11:34:49.000Z</time>
      </trkpt>
      <trkpt lat="42.71023" lon="0.668">
        <ele>1567</ele>
        <time>2018-08-08T11:34:50.000Z</time>
      </trkpt>
      <trkpt lat="42.71023" lon="0.66801">
        <ele>1567</ele>
        <time>2018-08-08T11:34:51.000Z</time>
      </trkpt>
      <trkpt lat="42.71023" lon="0.66801">
        <ele>1567</ele>
        <time>2018-08-08T11:34:52.000Z</time>
      </trkpt>
      <trkpt lat="42.71022" lon="0.668">
        <ele>1567</ele>
        <time>2018-08-08T11:34:53.000Z</time>
      </trkpt>
      <trkpt lat="42.71022" lon="0.668">
        <ele>1567</ele>
        <time>2018-08-08T11:34:54.000Z</time>
      </trkpt>
      <trkpt lat="42.71021" lon="0.668">
        <ele>1567.1</ele>
        <time>2018-08-08T11:34:55.000Z</time>
      </trkpt>
      <trkpt lat="42.7102" lon="0.668">
        <ele>1567.1</ele>
        <time>2018-08-08T11:34:56.000Z</time>
      </trkpt>
      <trkpt lat="42.71019" lon="0.668">
        <ele>1567.2</ele>
        <time>2018-08-08T11:34:57.000Z</time>
      </trkpt>
      <trkpt lat="42.71018" lon="0.668">
        <ele>1567.2</ele>
        <time>2018-08-08T11:34:58.000Z</time>
      </trkpt>
      <trkpt lat="42.71017" lon="0.66799">
        <ele>1567.3</ele>
        <time>2018-08-08T11:34:59.000Z</time>
      </trkpt>
      <trkpt lat="42.71016" lon="0.66799">
        <ele>1567.3</ele>
        <time>2018-08-08T11:35:00.000Z</time>
      </trkpt>
      <trkpt lat="42.71016" lon="0.66799">
        <ele>1567.4</ele>
        <time>2018-08-08T11:35:01.000Z</time>
      </trkpt>
      <trkpt lat="42.71015" lon="0.66798">
        <ele>1567.4</ele>
        <time>2018-08-08T11:35:02.000Z</time>
      </trkpt>
      <trkpt lat="42.71014" lon="0.66798">
        <ele>1567.5</ele>
        <time>2018-08-08T11:35:03.000Z</time>
      </trkpt>
      <trkpt lat="42.71014" lon="0.66797">
        <ele>1567.5</ele>
        <time>2018-08-08T11:35:04.000Z</time>
      </trkpt>
      <trkpt lat="42.71013" lon="0.66797">
        <ele>1567.6</ele>
        <time>2018-08-08T11:35:05.000Z</time>
      </trkpt>
      <trkpt lat="42.71012" lon="0.66797">
        <ele>1567.7</ele>
        <time>2018-08-08T11:35:06.000Z</time>
      </trkpt>
      <trkpt lat="42.71012" lon="0.66796">
        <ele>1567.7</ele>
        <time>2018-08-08T11:35:07.000Z</time>
      </trkpt>
      <trkpt lat="42.71011" lon="0.66796">
        <ele>1567.8</ele>
        <time>2018-08-08T11:35:08.000Z</time>
      </trkpt>
      <trkpt lat="42.7101" lon="0.66795">
        <ele>1567.8</ele>
        <time>2018-08-08T11:35:09.000Z</time>
      </trkpt>
      <trkpt lat="42.7101" lon="0.66795">
        <ele>1567.9</ele>
        <time>2018-08-08T11:35:10.000Z</time>
      </trkpt>
      <trkpt lat="42.71009" lon="0.66794">
        <ele>1568</ele>
        <time>2018-08-08T11:35:11.000Z</time>
      </trkpt>
      <trkpt lat="42.71008" lon="0.66794">
        <ele>1568</ele>
        <time>2018-08-08T11:35:12.000Z</time>
      </trkpt>
      <trkpt lat="42.71007" lon="0.66793">
        <ele>1568.1</ele>
        <time>2018-08-08T11:35:13.000Z</time>
      </trkpt>
      <trkpt lat="42.71007" lon="0.66793">
        <ele>1568.2</ele>
        <time>2018-08-08T11:35:14.000Z</time>
      </trkpt>
      <trkpt lat="42.71006" lon="0.66793">
        <ele>1568.2</ele>
        <time>2018-08-08T11:35:15.000Z</time>
      </trkpt>
      <trkpt lat="42.71005" lon="0.66792">
        <ele>1568.3</ele>
        <time>2018-08-08T11:35:16.000Z</time>
      </trkpt>
      <trkpt lat="42.71004" lon="0.66792">
        <ele>1568.4</ele>
        <time>2018-08-08T11:35:17.000Z</time>
      </trkpt>
      <trkpt lat="42.71004" lon="0.66791">
        <ele>1568.4</ele>
        <time>2018-08-08T11:35:18.000Z</time>
      </trkpt>
      <trkpt lat="42.71003" lon="0.66791">
        <ele>1568.5</ele>
        <time>2018-08-08T11:35:19.000Z</time>
      </trkpt>
      <trkpt lat="42.71002" lon="0.66791">
        <ele>1568.6</ele>
        <time>2018-08-08T11:35:20.000Z</time>
      </trkpt>
      <trkpt lat="42.71001" lon="0.6679">
        <ele>1568.6</ele>
        <time>2018-08-08T11:35:21.000Z</time>
      </trkpt>
      <trkpt lat="42.71001" lon="0.6679">
        <ele>1568.7</ele>
        <time>2018-08-08T11:35:22.000Z</time>
      </trkpt>
      <trkpt lat="42.71" lon="0.66789">
        <ele>1568.8</ele>
        <time>2018-08-08T11:35:23.000Z</time>
      </trkpt>
      <trkpt lat="42.70999" lon="0.66789">
        <ele>1568.9</ele>
        <time>2018-08-08T11:35:24.000Z</time>
      </trkpt>
      <trkpt lat="42.70998" lon="0.66789">
        <ele>1569.1</ele>
        <time>2018-08-08T11:35:25.000Z</time>
      </trkpt>
      <trkpt lat="42.70998" lon="0.66788">
        <ele>1569.2</ele>
        <time>2018-08-08T11:35:26.000Z</time>
      </trkpt>
      <trkpt lat="42.70997" lon="0.66787">
        <ele>1569.3</ele>
        <time>2018-08-08T11:35:27.000Z</time>
      </trkpt>
      <trkpt lat="42.70996" lon="0.66787">
        <ele>1569.5</ele>
        <time>2018-08-08T11:35:28.000Z</time>
      </trkpt>
      <trkpt lat="42.70996" lon="0.66786">
        <ele>1569.6</ele>
        <time>2018-08-08T11:35:29.000Z</time>
      </trkpt>
      <trkpt lat="42.70995" lon="0.66786">
        <ele>1569.7</ele>
        <time>2018-08-08T11:35:30.000Z</time>
      </trkpt>
      <trkpt lat="42.70995" lon="0.66785">
        <ele>1569.9</ele>
        <time>2018-08-08T11:35:31.000Z</time>
      </trkpt>
      <trkpt lat="42.70994" lon="0.66784">
        <ele>1570</ele>
        <time>2018-08-08T11:35:32.000Z</time>
      </trkpt>
      <trkpt lat="42.70994" lon="0.66784">
        <ele>1570.1</ele>
        <time>2018-08-08T11:35:33.000Z</time>
      </trkpt>
      <trkpt lat="42.70993" lon="0.66783">
        <ele>1570.2</ele>
        <time>2018-08-08T11:35:34.000Z</time>
      </trkpt>
      <trkpt lat="42.70993" lon="0.66783">
        <ele>1570.3</ele>
        <time>2018-08-08T11:35:35.000Z</time>
      </trkpt>
      <trkpt lat="42.70993" lon="0.66782">
        <ele>1570.4</ele>
        <time>2018-08-08T11:35:36.000Z</time>
      </trkpt>
      <trkpt lat="42.70993" lon="0.66782">
        <ele>1570.4</ele>
        <time>2018-08-08T11:35:37.000Z</time>
      </trkpt>
      <trkpt lat="42.70992" lon="0.66782">
        <ele>1570.5</ele>
        <time>2018-08-08T11:35:38.000Z</time>
      </trkpt>
      <trkpt lat="42.70992" lon="0.66782">
        <ele>1570.5</ele>
        <time>2018-08-08T11:35:39.000Z</time>
      </trkpt>
      <trkpt lat="42.70992" lon="0.66781">
        <ele>1570.5</ele>
        <time>2018-08-08T11:35:40.000Z</time>
      </trkpt>
      <trkpt lat="42.70992" lon="0.66781">
        <ele>1570.5</ele>
        <time>2018-08-08T11:35:41.000Z</time>
      </trkpt>
      <trkpt lat="42.70992" lon="0.66781">
        <ele>1570.5</ele>
        <time>2018-08-08T11:35:42.000Z</time>
      </trkpt>
      <trkpt lat="42.70992" lon="0.66781">
        <ele>1570.6</ele>
        <time>2018-08-08T11:35:43.000Z</time>
      </trkpt>
      <trkpt lat="42.70992" lon="0.66781">
        <ele>1570.6</ele>
        <time>2018-08-08T11:35:44.000Z</time>
      </trkpt>
      <trkpt lat="42.70992" lon="0.66781">
        <ele>1570.6</ele>
        <time>2018-08-08T11:35:45.000Z</time>
      </trkpt>
      <trkpt lat="42.70992" lon="0.66781">
        <ele>1570.5</ele>
        <time>2018-08-08T11:35:46.000Z</time>
      </trkpt>
      <trkpt lat="42.70992" lon="0.66781">
        <ele>1570.5</ele>
        <time>2018-08-08T11:35:47.000Z</time>
      </trkpt>
      <trkpt lat="42.70992" lon="0.66781">
        <ele>1570.5</ele>
        <time>2018-08-08T11:35:48.000Z</time>
      </trkpt>
      <trkpt lat="42.70992" lon="0.66781">
        <ele>1570.5</ele>
        <time>2018-08-08T11:35:49.000Z</time>
      </trkpt>
      <trkpt lat="42.70992" lon="0.66781">
        <ele>1570.5</ele>
        <time>2018-08-08T11:35:50.000Z</time>
      </trkpt>
      <trkpt lat="42.70992" lon="0.66781">
        <ele>1570.5</ele>
        <time>2018-08-08T11:35:51.000Z</time>
      </trkpt>
      <trkpt lat="42.70992" lon="0.66781">
        <ele>1570.5</ele>
        <time>2018-08-08T11:35:52.000Z</time>
      </trkpt>
      <trkpt lat="42.70992" lon="0.66781">
        <ele>1570.5</ele>
        <time>2018-08-08T11:35:53.000Z</time>
      </trkpt>
      <trkpt lat="42.70992" lon="0.66781">
        <ele>1570.5</ele>
        <time>2018-08-08T11:35:54.000Z</time>
      </trkpt>
      <trkpt lat="42.70992" lon="0.66781">
        <ele>1570.5</ele>
        <time>2018-08-08T11:35:55.000Z</time>
      </trkpt>
      <trkpt lat="42.70992" lon="0.66781">
        <ele>1570.5</ele>
        <time>2018-08-08T11:35:56.000Z</time>
      </trkpt>
      <trkpt lat="42.70992" lon="0.66781">
        <ele>1570.5</ele>
        <time>2018-08-08T11:35:57.000Z</time>
      </trkpt>
      <trkpt lat="42.70992" lon="0.66781">
        <ele>1570.5</ele>
        <time>2018-08-08T11:35:58.000Z</time>
      </trkpt>
      <trkpt lat="42.70992" lon="0.66781">
        <ele>1570.5</ele>
        <time>2018-08-08T11:35:59.000Z</time>
      </trkpt>
      <trkpt lat="42.70992" lon="0.66781">
        <ele>1570.5</ele>
        <time>2018-08-08T11:36:00.000Z</time>
      </trkpt>
      <trkpt lat="42.70992" lon="0.66781">
        <ele>1570.5</ele>
        <time>2018-08-08T11:36:01.000Z</time>
      </trkpt>
      <trkpt lat="42.70992" lon="0.66781">
        <ele>1570.5</ele>
        <time>2018-08-08T11:36:02.000Z</time>
      </trkpt>
      <trkpt lat="42.70992" lon="0.66781">
        <ele>1570.5</ele>
        <time>2018-08-08T11:36:03.000Z</time>
      </trkpt>
      <trkpt lat="42.70992" lon="0.66781">
        <ele>1570.5</ele>
        <time>2018-08-08T11:36:04.000Z</time>
      </trkpt>
      <trkpt lat="42.70992" lon="0.66781">
        <ele>1570.5</ele>
        <time>2018-08-08T11:36:05.000Z</time>
      </trkpt>
      <trkpt lat="42.70992" lon="0.66781">
        <ele>1570.5</ele>
        <time>2018-08-08T11:36:06.000Z</time>
      </trkpt>
      <trkpt lat="42.70992" lon="0.66781">
        <ele>1570.5</ele>
        <time>2018-08-08T11:36:07.000Z</time>
      </trkpt>
      <trkpt lat="42.70992" lon="0.66781">
        <ele>1570.5</ele>
        <time>2018-08-08T11:36:08.000Z</time>
      </trkpt>
      <trkpt lat="42.70992" lon="0.66781">
        <ele>1570.5</ele>
        <time>2018-08-08T11:36:09.000Z</time>
      </trkpt>
      <trkpt lat="42.70992" lon="0.66781">
        <ele>1570.5</ele>
        <time>2018-08-08T11:36:10.000Z</time>
      </trkpt>
      <trkpt lat="42.70992" lon="0.66781">
        <ele>1570.5</ele>
        <time>2018-08-08T11:36:11.000Z</time>
      </trkpt>
      <trkpt lat="42.70992" lon="0.66781">
        <ele>1570.5</ele>
        <time>2018-08-08T11:36:12.000Z</time>
      </trkpt>
      <trkpt lat="42.70992" lon="0.66781">
        <ele>1570.5</ele>
        <time>2018-08-08T11:36:13.000Z</time>
      </trkpt>
      <trkpt lat="42.70992" lon="0.66781">
        <ele>1570.5</ele>
        <time>2018-08-08T11:36:14.000Z</time>
      </trkpt>
      <trkpt lat="42.70992" lon="0.66781">
        <ele>1570.5</ele>
        <time>2018-08-08T11:36:15.000Z</time>
      </trkpt>
      <trkpt lat="42.70992" lon="0.66781">
        <ele>1570.5</ele>
        <time>2018-08-08T11:36:16.000Z</time>
      </trkpt>
      <trkpt lat="42.70992" lon="0.66781">
        <ele>1570.5</ele>
        <time>2018-08-08T11:36:17.000Z</time>
      </trkpt>
      <trkpt lat="42.70992" lon="0.66781">
        <ele>1570.6</ele>
        <time>2018-08-08T11:36:18.000Z</time>
      </trkpt>
      <trkpt lat="42.70991" lon="0.66781">
        <ele>1570.6</ele>
        <time>2018-08-08T11:36:19.000Z</time>
      </trkpt>
      <trkpt lat="42.7099" lon="0.66782">
        <ele>1570.8</ele>
        <time>2018-08-08T11:36:20.000Z</time>
      </trkpt>
      <trkpt lat="42.70988" lon="0.66781">
        <ele>1570.9</ele>
        <time>2018-08-08T11:36:21.000Z</time>
      </trkpt>
      <trkpt lat="42.70987" lon="0.66781">
        <ele>1571.1</ele>
        <time>2018-08-08T11:36:22.000Z</time>
      </trkpt>
      <trkpt lat="42.70986" lon="0.66781">
        <ele>1571.2</ele>
        <time>2018-08-08T11:36:23.000Z</time>
      </trkpt>
      <trkpt lat="42.70985" lon="0.66781">
        <ele>1571.3</ele>
        <time>2018-08-08T11:36:24.000Z</time>
      </trkpt>
      <trkpt lat="42.70984" lon="0.66781">
        <ele>1571.4</ele>
        <time>2018-08-08T11:36:25.000Z</time>
      </trkpt>
      <trkpt lat="42.70983" lon="0.66781">
        <ele>1571.6</ele>
        <time>2018-08-08T11:36:26.000Z</time>
      </trkpt>
      <trkpt lat="42.70982" lon="0.6678">
        <ele>1571.7</ele>
        <time>2018-08-08T11:36:27.000Z</time>
      </trkpt>
      <trkpt lat="42.70981" lon="0.6678">
        <ele>1571.9</ele>
        <time>2018-08-08T11:36:28.000Z</time>
      </trkpt>
      <trkpt lat="42.7098" lon="0.66779">
        <ele>1572.1</ele>
        <time>2018-08-08T11:36:29.000Z</time>
      </trkpt>
      <trkpt lat="42.7098" lon="0.66779">
        <ele>1572.2</ele>
        <time>2018-08-08T11:36:30.000Z</time>
      </trkpt>
      <trkpt lat="42.70979" lon="0.66778">
        <ele>1572.4</ele>
        <time>2018-08-08T11:36:31.000Z</time>
      </trkpt>
      <trkpt lat="42.70978" lon="0.66778">
        <ele>1572.5</ele>
        <time>2018-08-08T11:36:32.000Z</time>
      </trkpt>
      <trkpt lat="42.70977" lon="0.66777">
        <ele>1572.7</ele>
        <time>2018-08-08T11:36:33.000Z</time>
      </trkpt>
      <trkpt lat="42.70976" lon="0.66777">
        <ele>1572.8</ele>
        <time>2018-08-08T11:36:34.000Z</time>
      </trkpt>
      <trkpt lat="42.70975" lon="0.66776">
        <ele>1572.9</ele>
        <time>2018-08-08T11:36:35.000Z</time>
      </trkpt>
      <trkpt lat="42.70974" lon="0.66776">
        <ele>1573.1</ele>
        <time>2018-08-08T11:36:36.000Z</time>
      </trkpt>
      <trkpt lat="42.70973" lon="0.66776">
        <ele>1573.2</ele>
        <time>2018-08-08T11:36:37.000Z</time>
      </trkpt>
      <trkpt lat="42.70972" lon="0.66775">
        <ele>1573.3</ele>
        <time>2018-08-08T11:36:38.000Z</time>
      </trkpt>
      <trkpt lat="42.70971" lon="0.66775">
        <ele>1573.5</ele>
        <time>2018-08-08T11:36:39.000Z</time>
      </trkpt>
      <trkpt lat="42.7097" lon="0.66775">
        <ele>1573.6</ele>
        <time>2018-08-08T11:36:40.000Z</time>
      </trkpt>
      <trkpt lat="42.7097" lon="0.66774">
        <ele>1573.7</ele>
        <time>2018-08-08T11:36:41.000Z</time>
      </trkpt>
      <trkpt lat="42.70969" lon="0.66774">
        <ele>1573.9</ele>
        <time>2018-08-08T11:36:42.000Z</time>
      </trkpt>
      <trkpt lat="42.70968" lon="0.66773">
        <ele>1574</ele>
        <time>2018-08-08T11:36:43.000Z</time>
      </trkpt>
      <trkpt lat="42.70967" lon="0.66773">
        <ele>1574.2</ele>
        <time>2018-08-08T11:36:44.000Z</time>
      </trkpt>
      <trkpt lat="42.70966" lon="0.66772">
        <ele>1574.3</ele>
        <time>2018-08-08T11:36:45.000Z</time>
      </trkpt>
      <trkpt lat="42.70965" lon="0.66771">
        <ele>1574.5</ele>
        <time>2018-08-08T11:36:46.000Z</time>
      </trkpt>
      <trkpt lat="42.70965" lon="0.6677">
        <ele>1574.6</ele>
        <time>2018-08-08T11:36:47.000Z</time>
      </trkpt>
      <trkpt lat="42.70964" lon="0.6677">
        <ele>1574.8</ele>
        <time>2018-08-08T11:36:48.000Z</time>
      </trkpt>
      <trkpt lat="42.70963" lon="0.66769">
        <ele>1574.9</ele>
        <time>2018-08-08T11:36:49.000Z</time>
      </trkpt>
      <trkpt lat="42.70962" lon="0.66768">
        <ele>1575.1</ele>
        <time>2018-08-08T11:36:50.000Z</time>
      </trkpt>
      <trkpt lat="42.70962" lon="0.66767">
        <ele>1575.2</ele>
        <time>2018-08-08T11:36:51.000Z</time>
      </trkpt>
      <trkpt lat="42.70961" lon="0.66766">
        <ele>1575.4</ele>
        <time>2018-08-08T11:36:52.000Z</time>
      </trkpt>
      <trkpt lat="42.7096" lon="0.66765">
        <ele>1575.6</ele>
        <time>2018-08-08T11:36:53.000Z</time>
      </trkpt>
      <trkpt lat="42.7096" lon="0.66764">
        <ele>1575.7</ele>
        <time>2018-08-08T11:36:54.000Z</time>
      </trkpt>
      <trkpt lat="42.70959" lon="0.66763">
        <ele>1575.9</ele>
        <time>2018-08-08T11:36:55.000Z</time>
      </trkpt>
      <trkpt lat="42.70958" lon="0.66762">
        <ele>1576</ele>
        <time>2018-08-08T11:36:56.000Z</time>
      </trkpt>
      <trkpt lat="42.70957" lon="0.66761">
        <ele>1576.2</ele>
        <time>2018-08-08T11:36:57.000Z</time>
      </trkpt>
      <trkpt lat="42.70957" lon="0.6676">
        <ele>1576.3</ele>
        <time>2018-08-08T11:36:58.000Z</time>
      </trkpt>
      <trkpt lat="42.70956" lon="0.66759">
        <ele>1576.5</ele>
        <time>2018-08-08T11:36:59.000Z</time>
      </trkpt>
      <trkpt lat="42.70955" lon="0.66759">
        <ele>1576.6</ele>
        <time>2018-08-08T11:37:00.000Z</time>
      </trkpt>
      <trkpt lat="42.70954" lon="0.66758">
        <ele>1576.7</ele>
        <time>2018-08-08T11:37:01.000Z</time>
      </trkpt>
      <trkpt lat="42.70954" lon="0.66758">
        <ele>1576.8</ele>
        <time>2018-08-08T11:37:02.000Z</time>
      </trkpt>
      <trkpt lat="42.70953" lon="0.66757">
        <ele>1576.9</ele>
        <time>2018-08-08T11:37:03.000Z</time>
      </trkpt>
      <trkpt lat="42.70952" lon="0.66757">
        <ele>1577</ele>
        <time>2018-08-08T11:37:04.000Z</time>
      </trkpt>
      <trkpt lat="42.70952" lon="0.66757">
        <ele>1577.1</ele>
        <time>2018-08-08T11:37:05.000Z</time>
      </trkpt>
      <trkpt lat="42.70951" lon="0.66757">
        <ele>1577.1</ele>
        <time>2018-08-08T11:37:06.000Z</time>
      </trkpt>
      <trkpt lat="42.7095" lon="0.66757">
        <ele>1577.2</ele>
        <time>2018-08-08T11:37:07.000Z</time>
      </trkpt>
      <trkpt lat="42.70949" lon="0.66757">
        <ele>1577.3</ele>
        <time>2018-08-08T11:37:08.000Z</time>
      </trkpt>
      <trkpt lat="42.70948" lon="0.66757">
        <ele>1577.4</ele>
        <time>2018-08-08T11:37:09.000Z</time>
      </trkpt>
      <trkpt lat="42.70947" lon="0.66757">
        <ele>1577.5</ele>
        <time>2018-08-08T11:37:10.000Z</time>
      </trkpt>
      <trkpt lat="42.70946" lon="0.66757">
        <ele>1577.6</ele>
        <time>2018-08-08T11:37:11.000Z</time>
      </trkpt>
      <trkpt lat="42.70945" lon="0.66757">
        <ele>1577.7</ele>
        <time>2018-08-08T11:37:12.000Z</time>
      </trkpt>
      <trkpt lat="42.70944" lon="0.66757">
        <ele>1577.8</ele>
        <time>2018-08-08T11:37:13.000Z</time>
      </trkpt>
      <trkpt lat="42.70944" lon="0.66757">
        <ele>1577.9</ele>
        <time>2018-08-08T11:37:14.000Z</time>
      </trkpt>
      <trkpt lat="42.70943" lon="0.66757">
        <ele>1578</ele>
        <time>2018-08-08T11:37:15.000Z</time>
      </trkpt>
      <trkpt lat="42.70942" lon="0.66757">
        <ele>1578</ele>
        <time>2018-08-08T11:37:16.000Z</time>
      </trkpt>
      <trkpt lat="42.70942" lon="0.66757">
        <ele>1578.1</ele>
        <time>2018-08-08T11:37:17.000Z</time>
      </trkpt>
      <trkpt lat="42.70941" lon="0.66757">
        <ele>1578.1</ele>
        <time>2018-08-08T11:37:18.000Z</time>
      </trkpt>
      <trkpt lat="42.70941" lon="0.66757">
        <ele>1578.2</ele>
        <time>2018-08-08T11:37:19.000Z</time>
      </trkpt>
      <trkpt lat="42.7094" lon="0.66757">
        <ele>1578.2</ele>
        <time>2018-08-08T11:37:20.000Z</time>
      </trkpt>
      <trkpt lat="42.7094" lon="0.66757">
        <ele>1578.2</ele>
        <time>2018-08-08T11:37:21.000Z</time>
      </trkpt>
      <trkpt lat="42.7094" lon="0.66757">
        <ele>1578.3</ele>
        <time>2018-08-08T11:37:22.000Z</time>
      </trkpt>
      <trkpt lat="42.7094" lon="0.66757">
        <ele>1578.3</ele>
        <time>2018-08-08T11:37:23.000Z</time>
      </trkpt>
      <trkpt lat="42.70939" lon="0.66757">
        <ele>1578.3</ele>
        <time>2018-08-08T11:37:24.000Z</time>
      </trkpt>
      <trkpt lat="42.70939" lon="0.66757">
        <ele>1578.3</ele>
        <time>2018-08-08T11:37:25.000Z</time>
      </trkpt>
      <trkpt lat="42.70939" lon="0.66757">
        <ele>1578.3</ele>
        <time>2018-08-08T11:37:26.000Z</time>
      </trkpt>
      <trkpt lat="42.70939" lon="0.66757">
        <ele>1578.3</ele>
        <time>2018-08-08T11:37:27.000Z</time>
      </trkpt>
      <trkpt lat="42.70939" lon="0.66757">
        <ele>1578.3</ele>
        <time>2018-08-08T11:37:28.000Z</time>
      </trkpt>
      <trkpt lat="42.70939" lon="0.66757">
        <ele>1578.3</ele>
        <time>2018-08-08T11:37:29.000Z</time>
      </trkpt>
      <trkpt lat="42.70939" lon="0.66757">
        <ele>1578.3</ele>
        <time>2018-08-08T11:37:30.000Z</time>
      </trkpt>
      <trkpt lat="42.70939" lon="0.66757">
        <ele>1578.3</ele>
        <time>2018-08-08T11:37:31.000Z</time>
      </trkpt>
      <trkpt lat="42.70939" lon="0.66757">
        <ele>1578.3</ele>
        <time>2018-08-08T11:37:32.000Z</time>
      </trkpt>
      <trkpt lat="42.70939" lon="0.66757">
        <ele>1578.3</ele>
        <time>2018-08-08T11:37:33.000Z</time>
      </trkpt>
      <trkpt lat="42.70939" lon="0.66757">
        <ele>1578.3</ele>
        <time>2018-08-08T11:37:34.000Z</time>
      </trkpt>
      <trkpt lat="42.70939" lon="0.66757">
        <ele>1578.3</ele>
        <time>2018-08-08T11:37:35.000Z</time>
      </trkpt>
      <trkpt lat="42.70939" lon="0.66757">
        <ele>1578.3</ele>
        <time>2018-08-08T11:37:36.000Z</time>
      </trkpt>
      <trkpt lat="42.70939" lon="0.66757">
        <ele>1578.3</ele>
        <time>2018-08-08T11:37:37.000Z</time>
      </trkpt>
      <trkpt lat="42.70939" lon="0.66757">
        <ele>1578.3</ele>
        <time>2018-08-08T11:37:38.000Z</time>
      </trkpt>
      <trkpt lat="42.70939" lon="0.66757">
        <ele>1578.3</ele>
        <time>2018-08-08T11:37:39.000Z</time>
      </trkpt>
      <trkpt lat="42.70939" lon="0.66757">
        <ele>1578.3</ele>
        <time>2018-08-08T11:37:40.000Z</time>
      </trkpt>
      <trkpt lat="42.70939" lon="0.66757">
        <ele>1578.3</ele>
        <time>2018-08-08T11:37:41.000Z</time>
      </trkpt>
      <trkpt lat="42.70939" lon="0.66757">
        <ele>1578.3</ele>
        <time>2018-08-08T11:37:42.000Z</time>
      </trkpt>
      <trkpt lat="42.70939" lon="0.66757">
        <ele>1578.3</ele>
        <time>2018-08-08T11:37:43.000Z</time>
      </trkpt>
      <trkpt lat="42.70939" lon="0.66757">
        <ele>1578.3</ele>
        <time>2018-08-08T11:37:44.000Z</time>
      </trkpt>
      <trkpt lat="42.70939" lon="0.66757">
        <ele>1578.3</ele>
        <time>2018-08-08T11:37:45.000Z</time>
      </trkpt>
      <trkpt lat="42.70939" lon="0.66757">
        <ele>1578.3</ele>
        <time>2018-08-08T11:37:46.000Z</time>
      </trkpt>
      <trkpt lat="42.70939" lon="0.66757">
        <ele>1578.3</ele>
        <time>2018-08-08T11:37:47.000Z</time>
      </trkpt>
      <trkpt lat="42.70939" lon="0.66757">
        <ele>1578.3</ele>
        <time>2018-08-08T11:37:48.000Z</time>
      </trkpt>
      <trkpt lat="42.70939" lon="0.66757">
        <ele>1578.3</ele>
        <time>2018-08-08T11:37:49.000Z</time>
      </trkpt>
      <trkpt lat="42.70939" lon="0.66757">
        <ele>1578.3</ele>
        <time>2018-08-08T11:37:50.000Z</time>
      </trkpt>
      <trkpt lat="42.70939" lon="0.66757">
        <ele>1578.3</ele>
        <time>2018-08-08T11:37:51.000Z</time>
      </trkpt>
      <trkpt lat="42.70939" lon="0.66757">
        <ele>1578.3</ele>
        <time>2018-08-08T11:37:52.000Z</time>
      </trkpt>
      <trkpt lat="42.70939" lon="0.66757">
        <ele>1578.3</ele>
        <time>2018-08-08T11:37:53.000Z</time>
      </trkpt>
      <trkpt lat="42.70939" lon="0.66757">
        <ele>1578.3</ele>
        <time>2018-08-08T11:37:54.000Z</time>
      </trkpt>
      <trkpt lat="42.70939" lon="0.66757">
        <ele>1578.3</ele>
        <time>2018-08-08T11:37:55.000Z</time>
      </trkpt>
      <trkpt lat="42.70939" lon="0.66757">
        <ele>1578.3</ele>
        <time>2018-08-08T11:37:56.000Z</time>
      </trkpt>
      <trkpt lat="42.70939" lon="0.66757">
        <ele>1578.3</ele>
        <time>2018-08-08T11:37:57.000Z</time>
      </trkpt>
      <trkpt lat="42.70939" lon="0.66757">
        <ele>1578.3</ele>
        <time>2018-08-08T11:37:58.000Z</time>
      </trkpt>
      <trkpt lat="42.70939" lon="0.66757">
        <ele>1578.3</ele>
        <time>2018-08-08T11:37:59.000Z</time>
      </trkpt>
      <trkpt lat="42.70939" lon="0.66757">
        <ele>1578.3</ele>
        <time>2018-08-08T11:38:00.000Z</time>
      </trkpt>
      <trkpt lat="42.70939" lon="0.66757">
        <ele>1578.3</ele>
        <time>2018-08-08T11:38:01.000Z</time>
      </trkpt>
      <trkpt lat="42.70939" lon="0.66757">
        <ele>1578.3</ele>
        <time>2018-08-08T11:38:02.000Z</time>
      </trkpt>
      <trkpt lat="42.70939" lon="0.66757">
        <ele>1578.3</ele>
        <time>2018-08-08T11:38:03.000Z</time>
      </trkpt>
      <trkpt lat="42.70939" lon="0.66757">
        <ele>1578.3</ele>
        <time>2018-08-08T11:38:04.000Z</time>
      </trkpt>
      <trkpt lat="42.70939" lon="0.66757">
        <ele>1578.3</ele>
        <time>2018-08-08T11:38:05.000Z</time>
      </trkpt>
      <trkpt lat="42.70939" lon="0.66757">
        <ele>1578.3</ele>
        <time>2018-08-08T11:38:06.000Z</time>
      </trkpt>
      <trkpt lat="42.70939" lon="0.66757">
        <ele>1578.3</ele>
        <time>2018-08-08T11:38:07.000Z</time>
      </trkpt>
      <trkpt lat="42.70939" lon="0.66757">
        <ele>1578.3</ele>
        <time>2018-08-08T11:38:08.000Z</time>
      </trkpt>
      <trkpt lat="42.70939" lon="0.66757">
        <ele>1578.3</ele>
        <time>2018-08-08T11:38:09.000Z</time>
      </trkpt>
      <trkpt lat="42.70939" lon="0.66757">
        <ele>1578.3</ele>
        <time>2018-08-08T11:38:10.000Z</time>
      </trkpt>
      <trkpt lat="42.70939" lon="0.66758">
        <ele>1578.3</ele>
        <time>2018-08-08T11:38:11.000Z</time>
      </trkpt>
      <trkpt lat="42.70939" lon="0.66758">
        <ele>1578.3</ele>
        <time>2018-08-08T11:38:12.000Z</time>
      </trkpt>
      <trkpt lat="42.70938" lon="0.66758">
        <ele>1578.3</ele>
        <time>2018-08-08T11:38:13.000Z</time>
      </trkpt>
      <trkpt lat="42.70938" lon="0.66759">
        <ele>1578.3</ele>
        <time>2018-08-08T11:38:14.000Z</time>
      </trkpt>
      <trkpt lat="42.70937" lon="0.6676">
        <ele>1578.4</ele>
        <time>2018-08-08T11:38:15.000Z</time>
      </trkpt>
      <trkpt lat="42.70936" lon="0.6676">
        <ele>1578.4</ele>
        <time>2018-08-08T11:38:16.000Z</time>
      </trkpt>
      <trkpt lat="42.70936" lon="0.66761">
        <ele>1578.4</ele>
        <time>2018-08-08T11:38:17.000Z</time>
      </trkpt>
      <trkpt lat="42.70935" lon="0.66762">
        <ele>1578.4</ele>
        <time>2018-08-08T11:38:18.000Z</time>
      </trkpt>
      <trkpt lat="42.70934" lon="0.66763">
        <ele>1578.5</ele>
        <time>2018-08-08T11:38:19.000Z</time>
      </trkpt>
      <trkpt lat="42.70933" lon="0.66763">
        <ele>1578.5</ele>
        <time>2018-08-08T11:38:20.000Z</time>
      </trkpt>
      <trkpt lat="42.70932" lon="0.66764">
        <ele>1578.5</ele>
        <time>2018-08-08T11:38:21.000Z</time>
      </trkpt>
      <trkpt lat="42.70932" lon="0.66765">
        <ele>1578.6</ele>
        <time>2018-08-08T11:38:22.000Z</time>
      </trkpt>
      <trkpt lat="42.70931" lon="0.66765">
        <ele>1578.6</ele>
        <time>2018-08-08T11:38:23.000Z</time>
      </trkpt>
      <trkpt lat="42.7093" lon="0.66766">
        <ele>1578.7</ele>
        <time>2018-08-08T11:38:24.000Z</time>
      </trkpt>
      <trkpt lat="42.70929" lon="0.66766">
        <ele>1578.7</ele>
        <time>2018-08-08T11:38:25.000Z</time>
      </trkpt>
      <trkpt lat="42.70929" lon="0.66767">
        <ele>1578.7</ele>
        <time>2018-08-08T11:38:26.000Z</time>
      </trkpt>
      <trkpt lat="42.70928" lon="0.66767">
        <ele>1578.8</ele>
        <time>2018-08-08T11:38:27.000Z</time>
      </trkpt>
      <trkpt lat="42.70928" lon="0.66768">
        <ele>1578.8</ele>
        <time>2018-08-08T11:38:28.000Z</time>
      </trkpt>
      <trkpt lat="42.70927" lon="0.66768">
        <ele>1578.8</ele>
        <time>2018-08-08T11:38:29.000Z</time>
      </trkpt>
      <trkpt lat="42.70927" lon="0.66769">
        <ele>1578.8</ele>
        <time>2018-08-08T11:38:30.000Z</time>
      </trkpt>
      <trkpt lat="42.70926" lon="0.66769">
        <ele>1578.9</ele>
        <time>2018-08-08T11:38:31.000Z</time>
      </trkpt>
      <trkpt lat="42.70926" lon="0.66769">
        <ele>1578.9</ele>
        <time>2018-08-08T11:38:32.000Z</time>
      </trkpt>
      <trkpt lat="42.70925" lon="0.6677">
        <ele>1578.9</ele>
        <time>2018-08-08T11:38:33.000Z</time>
      </trkpt>
      <trkpt lat="42.70925" lon="0.6677">
        <ele>1578.9</ele>
        <time>2018-08-08T11:38:34.000Z</time>
      </trkpt>
      <trkpt lat="42.70925" lon="0.6677">
        <ele>1578.9</ele>
        <time>2018-08-08T11:38:35.000Z</time>
      </trkpt>
      <trkpt lat="42.70925" lon="0.6677">
        <ele>1578.9</ele>
        <time>2018-08-08T11:38:36.000Z</time>
      </trkpt>
      <trkpt lat="42.70925" lon="0.6677">
        <ele>1578.9</ele>
        <time>2018-08-08T11:38:37.000Z</time>
      </trkpt>
      <trkpt lat="42.70925" lon="0.6677">
        <ele>1578.9</ele>
        <time>2018-08-08T11:38:38.000Z</time>
      </trkpt>
      <trkpt lat="42.70925" lon="0.6677">
        <ele>1578.9</ele>
        <time>2018-08-08T11:38:39.000Z</time>
      </trkpt>
      <trkpt lat="42.70924" lon="0.6677">
        <ele>1578.9</ele>
        <time>2018-08-08T11:38:40.000Z</time>
      </trkpt>
      <trkpt lat="42.70924" lon="0.6677">
        <ele>1578.9</ele>
        <time>2018-08-08T11:38:41.000Z</time>
      </trkpt>
      <trkpt lat="42.70924" lon="0.6677">
        <ele>1579</ele>
        <time>2018-08-08T11:38:42.000Z</time>
      </trkpt>
      <trkpt lat="42.70924" lon="0.6677">
        <ele>1579</ele>
        <time>2018-08-08T11:38:43.000Z</time>
      </trkpt>
      <trkpt lat="42.70924" lon="0.6677">
        <ele>1579</ele>
        <time>2018-08-08T11:38:44.000Z</time>
      </trkpt>
      <trkpt lat="42.70924" lon="0.6677">
        <ele>1579</ele>
        <time>2018-08-08T11:38:45.000Z</time>
      </trkpt>
      <trkpt lat="42.70924" lon="0.6677">
        <ele>1579</ele>
        <time>2018-08-08T11:38:46.000Z</time>
      </trkpt>
      <trkpt lat="42.70924" lon="0.6677">
        <ele>1579</ele>
        <time>2018-08-08T11:38:47.000Z</time>
      </trkpt>
      <trkpt lat="42.70924" lon="0.6677">
        <ele>1579</ele>
        <time>2018-08-08T11:38:48.000Z</time>
      </trkpt>
      <trkpt lat="42.70924" lon="0.6677">
        <ele>1579</ele>
        <time>2018-08-08T11:38:49.000Z</time>
      </trkpt>
      <trkpt lat="42.70924" lon="0.6677">
        <ele>1579.1</ele>
        <time>2018-08-08T11:38:50.000Z</time>
      </trkpt>
      <trkpt lat="42.70923" lon="0.6677">
        <ele>1579.1</ele>
        <time>2018-08-08T11:38:51.000Z</time>
      </trkpt>
      <trkpt lat="42.70923" lon="0.6677">
        <ele>1579.1</ele>
        <time>2018-08-08T11:38:52.000Z</time>
      </trkpt>
      <trkpt lat="42.70923" lon="0.6677">
        <ele>1579.2</ele>
        <time>2018-08-08T11:38:53.000Z</time>
      </trkpt>
      <trkpt lat="42.70923" lon="0.6677">
        <ele>1579.2</ele>
        <time>2018-08-08T11:38:54.000Z</time>
      </trkpt>
      <trkpt lat="42.70923" lon="0.6677">
        <ele>1579.2</ele>
        <time>2018-08-08T11:38:55.000Z</time>
      </trkpt>
      <trkpt lat="42.70923" lon="0.6677">
        <ele>1579.2</ele>
        <time>2018-08-08T11:38:56.000Z</time>
      </trkpt>
      <trkpt lat="42.70923" lon="0.6677">
        <ele>1579.2</ele>
        <time>2018-08-08T11:38:57.000Z</time>
      </trkpt>
      <trkpt lat="42.70923" lon="0.6677">
        <ele>1579.2</ele>
        <time>2018-08-08T11:38:58.000Z</time>
      </trkpt>
      <trkpt lat="42.70923" lon="0.6677">
        <ele>1579.2</ele>
        <time>2018-08-08T11:38:59.000Z</time>
      </trkpt>
      <trkpt lat="42.70923" lon="0.6677">
        <ele>1579.2</ele>
        <time>2018-08-08T11:39:00.000Z</time>
      </trkpt>
      <trkpt lat="42.70923" lon="0.6677">
        <ele>1579.2</ele>
        <time>2018-08-08T11:39:01.000Z</time>
      </trkpt>
      <trkpt lat="42.70923" lon="0.6677">
        <ele>1579.2</ele>
        <time>2018-08-08T11:39:02.000Z</time>
      </trkpt>
      <trkpt lat="42.70923" lon="0.6677">
        <ele>1579.2</ele>
        <time>2018-08-08T11:39:03.000Z</time>
      </trkpt>
      <trkpt lat="42.70923" lon="0.6677">
        <ele>1579.2</ele>
        <time>2018-08-08T11:39:04.000Z</time>
      </trkpt>
      <trkpt lat="42.70923" lon="0.6677">
        <ele>1579.2</ele>
        <time>2018-08-08T11:39:05.000Z</time>
      </trkpt>
      <trkpt lat="42.70923" lon="0.6677">
        <ele>1579.2</ele>
        <time>2018-08-08T11:39:06.000Z</time>
      </trkpt>
      <trkpt lat="42.70922" lon="0.6677">
        <ele>1579.2</ele>
        <time>2018-08-08T11:39:07.000Z</time>
      </trkpt>
      <trkpt lat="42.70922" lon="0.6677">
        <ele>1579.2</ele>
        <time>2018-08-08T11:39:08.000Z</time>
      </trkpt>
      <trkpt lat="42.70922" lon="0.6677">
        <ele>1579.2</ele>
        <time>2018-08-08T11:39:09.000Z</time>
      </trkpt>
      <trkpt lat="42.70922" lon="0.6677">
        <ele>1579.2</ele>
        <time>2018-08-08T11:39:10.000Z</time>
      </trkpt>
      <trkpt lat="42.70922" lon="0.6677">
        <ele>1579.2</ele>
        <time>2018-08-08T11:39:11.000Z</time>
      </trkpt>
      <trkpt lat="42.70922" lon="0.6677">
        <ele>1579.2</ele>
        <time>2018-08-08T11:39:12.000Z</time>
      </trkpt>
      <trkpt lat="42.70922" lon="0.6677">
        <ele>1579.2</ele>
        <time>2018-08-08T11:39:13.000Z</time>
      </trkpt>
      <trkpt lat="42.70922" lon="0.6677">
        <ele>1579.2</ele>
        <time>2018-08-08T11:39:14.000Z</time>
      </trkpt>
      <trkpt lat="42.70922" lon="0.6677">
        <ele>1579.2</ele>
        <time>2018-08-08T11:39:15.000Z</time>
      </trkpt>
      <trkpt lat="42.70922" lon="0.6677">
        <ele>1579.2</ele>
        <time>2018-08-08T11:39:16.000Z</time>
      </trkpt>
      <trkpt lat="42.70922" lon="0.6677">
        <ele>1579.2</ele>
        <time>2018-08-08T11:39:17.000Z</time>
      </trkpt>
      <trkpt lat="42.70922" lon="0.6677">
        <ele>1579.2</ele>
        <time>2018-08-08T11:39:18.000Z</time>
      </trkpt>
      <trkpt lat="42.70922" lon="0.6677">
        <ele>1579.2</ele>
        <time>2018-08-08T11:39:19.000Z</time>
      </trkpt>
      <trkpt lat="42.70922" lon="0.6677">
        <ele>1579.2</ele>
        <time>2018-08-08T11:39:20.000Z</time>
      </trkpt>
      <trkpt lat="42.70922" lon="0.6677">
        <ele>1579.2</ele>
        <time>2018-08-08T11:39:21.000Z</time>
      </trkpt>
      <trkpt lat="42.70922" lon="0.6677">
        <ele>1579.2</ele>
        <time>2018-08-08T11:39:22.000Z</time>
      </trkpt>
      <trkpt lat="42.70922" lon="0.6677">
        <ele>1579.2</ele>
        <time>2018-08-08T11:39:23.000Z</time>
      </trkpt>
      <trkpt lat="42.70922" lon="0.6677">
        <ele>1579.2</ele>
        <time>2018-08-08T11:39:24.000Z</time>
      </trkpt>
      <trkpt lat="42.70922" lon="0.6677">
        <ele>1579.2</ele>
        <time>2018-08-08T11:39:25.000Z</time>
      </trkpt>
      <trkpt lat="42.70922" lon="0.6677">
        <ele>1579.2</ele>
        <time>2018-08-08T11:39:26.000Z</time>
      </trkpt>
      <trkpt lat="42.70922" lon="0.6677">
        <ele>1579.2</ele>
        <time>2018-08-08T11:39:27.000Z</time>
      </trkpt>
      <trkpt lat="42.70922" lon="0.6677">
        <ele>1579.2</ele>
        <time>2018-08-08T11:39:28.000Z</time>
      </trkpt>
      <trkpt lat="42.70922" lon="0.6677">
        <ele>1579.2</ele>
        <time>2018-08-08T11:39:29.000Z</time>
      </trkpt>
      <trkpt lat="42.70922" lon="0.6677">
        <ele>1579.2</ele>
        <time>2018-08-08T11:39:30.000Z</time>
      </trkpt>
      <trkpt lat="42.70922" lon="0.6677">
        <ele>1579.2</ele>
        <time>2018-08-08T11:39:31.000Z</time>
      </trkpt>
      <trkpt lat="42.70922" lon="0.6677">
        <ele>1579.2</ele>
        <time>2018-08-08T11:39:32.000Z</time>
      </trkpt>
      <trkpt lat="42.70922" lon="0.6677">
        <ele>1579.2</ele>
        <time>2018-08-08T11:39:33.000Z</time>
      </trkpt>
      <trkpt lat="42.70922" lon="0.6677">
        <ele>1579.2</ele>
        <time>2018-08-08T11:39:34.000Z</time>
      </trkpt>
      <trkpt lat="42.70922" lon="0.6677">
        <ele>1579.2</ele>
        <time>2018-08-08T11:39:35.000Z</time>
      </trkpt>
      <trkpt lat="42.70922" lon="0.6677">
        <ele>1579.2</ele>
        <time>2018-08-08T11:39:36.000Z</time>
      </trkpt>
      <trkpt lat="42.70922" lon="0.6677">
        <ele>1579.2</ele>
        <time>2018-08-08T11:39:37.000Z</time>
      </trkpt>
      <trkpt lat="42.70922" lon="0.6677">
        <ele>1579.2</ele>
        <time>2018-08-08T11:39:38.000Z</time>
      </trkpt>
      <trkpt lat="42.70922" lon="0.6677">
        <ele>1579.2</ele>
        <time>2018-08-08T11:39:39.000Z</time>
      </trkpt>
      <trkpt lat="42.70922" lon="0.6677">
        <ele>1579.2</ele>
        <time>2018-08-08T11:39:40.000Z</time>
      </trkpt>
      <trkpt lat="42.70922" lon="0.66769">
        <ele>1579.2</ele>
        <time>2018-08-08T11:39:41.000Z</time>
      </trkpt>
      <trkpt lat="42.70922" lon="0.66769">
        <ele>1579.2</ele>
        <time>2018-08-08T11:39:42.000Z</time>
      </trkpt>
      <trkpt lat="42.70922" lon="0.66769">
        <ele>1579.3</ele>
        <time>2018-08-08T11:39:43.000Z</time>
      </trkpt>
      <trkpt lat="42.70922" lon="0.66768">
        <ele>1579.3</ele>
        <time>2018-08-08T11:39:44.000Z</time>
      </trkpt>
      <trkpt lat="42.70923" lon="0.66768">
        <ele>1579.3</ele>
        <time>2018-08-08T11:39:45.000Z</time>
      </trkpt>
      <trkpt lat="42.70923" lon="0.66767">
        <ele>1579.4</ele>
        <time>2018-08-08T11:39:46.000Z</time>
      </trkpt>
      <trkpt lat="42.70923" lon="0.66765">
        <ele>1579.4</ele>
        <time>2018-08-08T11:39:47.000Z</time>
      </trkpt>
      <trkpt lat="42.70923" lon="0.66764">
        <ele>1579.5</ele>
        <time>2018-08-08T11:39:48.000Z</time>
      </trkpt>
      <trkpt lat="42.70923" lon="0.66764">
        <ele>1579.5</ele>
        <time>2018-08-08T11:39:49.000Z</time>
      </trkpt>
      <trkpt lat="42.70923" lon="0.66764">
        <ele>1579.5</ele>
        <time>2018-08-08T11:39:50.000Z</time>
      </trkpt>
      <trkpt lat="42.70923" lon="0.66764">
        <ele>1579.5</ele>
        <time>2018-08-08T11:39:51.000Z</time>
      </trkpt>
      <trkpt lat="42.70923" lon="0.66764">
        <ele>1579.5</ele>
        <time>2018-08-08T11:39:52.000Z</time>
      </trkpt>
      <trkpt lat="42.70923" lon="0.66764">
        <ele>1579.5</ele>
        <time>2018-08-08T11:39:53.000Z</time>
      </trkpt>
      <trkpt lat="42.70923" lon="0.66764">
        <ele>1579.5</ele>
        <time>2018-08-08T11:39:54.000Z</time>
      </trkpt>
      <trkpt lat="42.70923" lon="0.66764">
        <ele>1579.5</ele>
        <time>2018-08-08T11:39:55.000Z</time>
      </trkpt>
      <trkpt lat="42.70923" lon="0.66764">
        <ele>1579.5</ele>
        <time>2018-08-08T11:39:56.000Z</time>
      </trkpt>
      <trkpt lat="42.70923" lon="0.66764">
        <ele>1579.5</ele>
        <time>2018-08-08T11:39:57.000Z</time>
      </trkpt>
      <trkpt lat="42.70923" lon="0.66764">
        <ele>1579.5</ele>
        <time>2018-08-08T11:39:58.000Z</time>
      </trkpt>
      <trkpt lat="42.70923" lon="0.66764">
        <ele>1579.5</ele>
        <time>2018-08-08T11:39:59.000Z</time>
      </trkpt>
      <trkpt lat="42.70923" lon="0.66764">
        <ele>1579.5</ele>
        <time>2018-08-08T11:40:00.000Z</time>
      </trkpt>
      <trkpt lat="42.70923" lon="0.66764">
        <ele>1579.5</ele>
        <time>2018-08-08T11:40:01.000Z</time>
      </trkpt>
      <trkpt lat="42.70923" lon="0.66764">
        <ele>1579.5</ele>
        <time>2018-08-08T11:40:02.000Z</time>
      </trkpt>
      <trkpt lat="42.70923" lon="0.66764">
        <ele>1579.5</ele>
        <time>2018-08-08T11:40:03.000Z</time>
      </trkpt>
      <trkpt lat="42.70923" lon="0.66764">
        <ele>1579.5</ele>
        <time>2018-08-08T11:40:04.000Z</time>
      </trkpt>
      <trkpt lat="42.70923" lon="0.66764">
        <ele>1579.5</ele>
        <time>2018-08-08T11:40:05.000Z</time>
      </trkpt>
      <trkpt lat="42.70923" lon="0.66764">
        <ele>1579.5</ele>
        <time>2018-08-08T11:40:06.000Z</time>
      </trkpt>
      <trkpt lat="42.70923" lon="0.66764">
        <ele>1579.5</ele>
        <time>2018-08-08T11:40:07.000Z</time>
      </trkpt>
      <trkpt lat="42.70923" lon="0.66764">
        <ele>1579.6</ele>
        <time>2018-08-08T11:40:08.000Z</time>
      </trkpt>
      <trkpt lat="42.70922" lon="0.66763">
        <ele>1579.6</ele>
        <time>2018-08-08T11:40:09.000Z</time>
      </trkpt>
      <trkpt lat="42.70922" lon="0.66762">
        <ele>1579.8</ele>
        <time>2018-08-08T11:40:10.000Z</time>
      </trkpt>
      <trkpt lat="42.70921" lon="0.6676">
        <ele>1580</ele>
        <time>2018-08-08T11:40:11.000Z</time>
      </trkpt>
      <trkpt lat="42.70921" lon="0.66759">
        <ele>1580.1</ele>
        <time>2018-08-08T11:40:12.000Z</time>
      </trkpt>
      <trkpt lat="42.70921" lon="0.66757">
        <ele>1580.2</ele>
        <time>2018-08-08T11:40:13.000Z</time>
      </trkpt>
      <trkpt lat="42.70921" lon="0.66757">
        <ele>1580.2</ele>
        <time>2018-08-08T11:40:14.000Z</time>
      </trkpt>
      <trkpt lat="42.70921" lon="0.66756">
        <ele>1580.2</ele>
        <time>2018-08-08T11:40:15.000Z</time>
      </trkpt>
      <trkpt lat="42.70921" lon="0.66755">
        <ele>1580.3</ele>
        <time>2018-08-08T11:40:16.000Z</time>
      </trkpt>
      <trkpt lat="42.70921" lon="0.66755">
        <ele>1580.3</ele>
        <time>2018-08-08T11:40:17.000Z</time>
      </trkpt>
      <trkpt lat="42.70921" lon="0.66754">
        <ele>1580.3</ele>
        <time>2018-08-08T11:40:18.000Z</time>
      </trkpt>
      <trkpt lat="42.70921" lon="0.66754">
        <ele>1580.3</ele>
        <time>2018-08-08T11:40:19.000Z</time>
      </trkpt>
      <trkpt lat="42.70921" lon="0.66754">
        <ele>1580.4</ele>
        <time>2018-08-08T11:40:20.000Z</time>
      </trkpt>
      <trkpt lat="42.70921" lon="0.66753">
        <ele>1580.4</ele>
        <time>2018-08-08T11:40:21.000Z</time>
      </trkpt>
      <trkpt lat="42.70921" lon="0.66753">
        <ele>1580.4</ele>
        <time>2018-08-08T11:40:22.000Z</time>
      </trkpt>
      <trkpt lat="42.70921" lon="0.66753">
        <ele>1580.4</ele>
        <time>2018-08-08T11:40:23.000Z</time>
      </trkpt>
      <trkpt lat="42.70921" lon="0.66753">
        <ele>1580.4</ele>
        <time>2018-08-08T11:40:24.000Z</time>
      </trkpt>
      <trkpt lat="42.70921" lon="0.66753">
        <ele>1580.4</ele>
        <time>2018-08-08T11:40:25.000Z</time>
      </trkpt>
      <trkpt lat="42.70921" lon="0.66752">
        <ele>1580.4</ele>
        <time>2018-08-08T11:40:26.000Z</time>
      </trkpt>
      <trkpt lat="42.70921" lon="0.66752">
        <ele>1580.4</ele>
        <time>2018-08-08T11:40:27.000Z</time>
      </trkpt>
      <trkpt lat="42.70921" lon="0.66752">
        <ele>1580.5</ele>
        <time>2018-08-08T11:40:28.000Z</time>
      </trkpt>
      <trkpt lat="42.70921" lon="0.66751">
        <ele>1580.5</ele>
        <time>2018-08-08T11:40:29.000Z</time>
      </trkpt>
      <trkpt lat="42.70921" lon="0.66751">
        <ele>1580.5</ele>
        <time>2018-08-08T11:40:30.000Z</time>
      </trkpt>
      <trkpt lat="42.70921" lon="0.6675">
        <ele>1580.6</ele>
        <time>2018-08-08T11:40:31.000Z</time>
      </trkpt>
      <trkpt lat="42.70921" lon="0.6675">
        <ele>1580.7</ele>
        <time>2018-08-08T11:40:32.000Z</time>
      </trkpt>
      <trkpt lat="42.7092" lon="0.66749">
        <ele>1581</ele>
        <time>2018-08-08T11:40:33.000Z</time>
      </trkpt>
      <trkpt lat="42.7092" lon="0.66749">
        <ele>1581.3</ele>
        <time>2018-08-08T11:40:34.000Z</time>
      </trkpt>
      <trkpt lat="42.7092" lon="0.66748">
        <ele>1581.5</ele>
        <time>2018-08-08T11:40:35.000Z</time>
      </trkpt>
      <trkpt lat="42.7092" lon="0.66748">
        <ele>1581.6</ele>
        <time>2018-08-08T11:40:36.000Z</time>
      </trkpt>
      <trkpt lat="42.7092" lon="0.66748">
        <ele>1581.7</ele>
        <time>2018-08-08T11:40:37.000Z</time>
      </trkpt>
      <trkpt lat="42.7092" lon="0.66747">
        <ele>1581.7</ele>
        <time>2018-08-08T11:40:38.000Z</time>
      </trkpt>
      <trkpt lat="42.70919" lon="0.66747">
        <ele>1581.8</ele>
        <time>2018-08-08T11:40:39.000Z</time>
      </trkpt>
      <trkpt lat="42.70919" lon="0.66747">
        <ele>1581.8</ele>
        <time>2018-08-08T11:40:40.000Z</time>
      </trkpt>
      <trkpt lat="42.70919" lon="0.66747">
        <ele>1581.9</ele>
        <time>2018-08-08T11:40:41.000Z</time>
      </trkpt>
      <trkpt lat="42.70919" lon="0.66747">
        <ele>1582</ele>
        <time>2018-08-08T11:40:42.000Z</time>
      </trkpt>
      <trkpt lat="42.70919" lon="0.66746">
        <ele>1582.1</ele>
        <time>2018-08-08T11:40:43.000Z</time>
      </trkpt>
      <trkpt lat="42.70919" lon="0.66746">
        <ele>1582.2</ele>
        <time>2018-08-08T11:40:44.000Z</time>
      </trkpt>
      <trkpt lat="42.70919" lon="0.66746">
        <ele>1582.3</ele>
        <time>2018-08-08T11:40:45.000Z</time>
      </trkpt>
      <trkpt lat="42.70918" lon="0.66746">
        <ele>1582.4</ele>
        <time>2018-08-08T11:40:46.000Z</time>
      </trkpt>
      <trkpt lat="42.70917" lon="0.66745">
        <ele>1582.7</ele>
        <time>2018-08-08T11:40:47.000Z</time>
      </trkpt>
      <trkpt lat="42.70917" lon="0.66745">
        <ele>1582.9</ele>
        <time>2018-08-08T11:40:48.000Z</time>
      </trkpt>
      <trkpt lat="42.70916" lon="0.66745">
        <ele>1583</ele>
        <time>2018-08-08T11:40:49.000Z</time>
      </trkpt>
      <trkpt lat="42.70916" lon="0.66745">
        <ele>1583</ele>
        <time>2018-08-08T11:40:50.000Z</time>
      </trkpt>
      <trkpt lat="42.70916" lon="0.66745">
        <ele>1583</ele>
        <time>2018-08-08T11:40:51.000Z</time>
      </trkpt>
      <trkpt lat="42.70916" lon="0.66745">
        <ele>1583.1</ele>
        <time>2018-08-08T11:40:52.000Z</time>
      </trkpt>
      <trkpt lat="42.70916" lon="0.66745">
        <ele>1583.1</ele>
        <time>2018-08-08T11:40:53.000Z</time>
      </trkpt>
      <trkpt lat="42.70916" lon="0.66745">
        <ele>1583.1</ele>
        <time>2018-08-08T11:40:54.000Z</time>
      </trkpt>
      <trkpt lat="42.70916" lon="0.66745">
        <ele>1583.1</ele>
        <time>2018-08-08T11:40:55.000Z</time>
      </trkpt>
      <trkpt lat="42.70916" lon="0.66745">
        <ele>1583.1</ele>
        <time>2018-08-08T11:40:56.000Z</time>
      </trkpt>
      <trkpt lat="42.70916" lon="0.66745">
        <ele>1583.1</ele>
        <time>2018-08-08T11:40:57.000Z</time>
      </trkpt>
      <trkpt lat="42.70916" lon="0.66745">
        <ele>1583.1</ele>
        <time>2018-08-08T11:40:58.000Z</time>
      </trkpt>
      <trkpt lat="42.70916" lon="0.66745">
        <ele>1583.1</ele>
        <time>2018-08-08T11:40:59.000Z</time>
      </trkpt>
      <trkpt lat="42.70916" lon="0.66745">
        <ele>1583.2</ele>
        <time>2018-08-08T11:41:00.000Z</time>
      </trkpt>
      <trkpt lat="42.70916" lon="0.66745">
        <ele>1583.2</ele>
        <time>2018-08-08T11:41:01.000Z</time>
      </trkpt>
      <trkpt lat="42.70916" lon="0.66745">
        <ele>1583.2</ele>
        <time>2018-08-08T11:41:02.000Z</time>
      </trkpt>
      <trkpt lat="42.70916" lon="0.66745">
        <ele>1583.2</ele>
        <time>2018-08-08T11:41:03.000Z</time>
      </trkpt>
      <trkpt lat="42.70916" lon="0.66745">
        <ele>1583.2</ele>
        <time>2018-08-08T11:41:04.000Z</time>
      </trkpt>
      <trkpt lat="42.70916" lon="0.66745">
        <ele>1583.2</ele>
        <time>2018-08-08T11:41:05.000Z</time>
      </trkpt>
      <trkpt lat="42.70915" lon="0.66745">
        <ele>1583.3</ele>
        <time>2018-08-08T11:41:06.000Z</time>
      </trkpt>
      <trkpt lat="42.70915" lon="0.66745">
        <ele>1583.3</ele>
        <time>2018-08-08T11:41:07.000Z</time>
      </trkpt>
      <trkpt lat="42.70915" lon="0.66745">
        <ele>1583.3</ele>
        <time>2018-08-08T11:41:08.000Z</time>
      </trkpt>
      <trkpt lat="42.70915" lon="0.66745">
        <ele>1583.3</ele>
        <time>2018-08-08T11:41:09.000Z</time>
      </trkpt>
      <trkpt lat="42.70915" lon="0.66745">
        <ele>1583.4</ele>
        <time>2018-08-08T11:41:10.000Z</time>
      </trkpt>
      <trkpt lat="42.70915" lon="0.66745">
        <ele>1583.4</ele>
        <time>2018-08-08T11:41:11.000Z</time>
      </trkpt>
      <trkpt lat="42.70915" lon="0.66744">
        <ele>1583.4</ele>
        <time>2018-08-08T11:41:12.000Z</time>
      </trkpt>
      <trkpt lat="42.70915" lon="0.66744">
        <ele>1583.4</ele>
        <time>2018-08-08T11:41:13.000Z</time>
      </trkpt>
      <trkpt lat="42.70915" lon="0.66744">
        <ele>1583.4</ele>
        <time>2018-08-08T11:41:14.000Z</time>
      </trkpt>
      <trkpt lat="42.70915" lon="0.66744">
        <ele>1583.5</ele>
        <time>2018-08-08T11:41:15.000Z</time>
      </trkpt>
      <trkpt lat="42.70915" lon="0.66744">
        <ele>1583.5</ele>
        <time>2018-08-08T11:41:16.000Z</time>
      </trkpt>
      <trkpt lat="42.70915" lon="0.66744">
        <ele>1583.5</ele>
        <time>2018-08-08T11:41:17.000Z</time>
      </trkpt>
      <trkpt lat="42.70915" lon="0.66744">
        <ele>1583.5</ele>
        <time>2018-08-08T11:41:18.000Z</time>
      </trkpt>
      <trkpt lat="42.70915" lon="0.66744">
        <ele>1583.5</ele>
        <time>2018-08-08T11:41:19.000Z</time>
      </trkpt>
      <trkpt lat="42.70915" lon="0.66744">
        <ele>1583.5</ele>
        <time>2018-08-08T11:41:20.000Z</time>
      </trkpt>
      <trkpt lat="42.70915" lon="0.66744">
        <ele>1583.5</ele>
        <time>2018-08-08T11:41:21.000Z</time>
      </trkpt>
      <trkpt lat="42.70915" lon="0.66744">
        <ele>1583.6</ele>
        <time>2018-08-08T11:41:22.000Z</time>
      </trkpt>
      <trkpt lat="42.70915" lon="0.66744">
        <ele>1583.6</ele>
        <time>2018-08-08T11:41:23.000Z</time>
      </trkpt>
      <trkpt lat="42.70915" lon="0.66744">
        <ele>1583.6</ele>
        <time>2018-08-08T11:41:24.000Z</time>
      </trkpt>
      <trkpt lat="42.70915" lon="0.66744">
        <ele>1583.6</ele>
        <time>2018-08-08T11:41:25.000Z</time>
      </trkpt>
      <trkpt lat="42.70915" lon="0.66744">
        <ele>1583.6</ele>
        <time>2018-08-08T11:41:26.000Z</time>
      </trkpt>
      <trkpt lat="42.70915" lon="0.66744">
        <ele>1583.6</ele>
        <time>2018-08-08T11:41:27.000Z</time>
      </trkpt>
      <trkpt lat="42.70915" lon="0.66744">
        <ele>1583.6</ele>
        <time>2018-08-08T11:41:28.000Z</time>
      </trkpt>
      <trkpt lat="42.70915" lon="0.66744">
        <ele>1583.6</ele>
        <time>2018-08-08T11:41:29.000Z</time>
      </trkpt>
      <trkpt lat="42.70915" lon="0.66744">
        <ele>1583.6</ele>
        <time>2018-08-08T11:41:30.000Z</time>
      </trkpt>
      <trkpt lat="42.70915" lon="0.66744">
        <ele>1583.6</ele>
        <time>2018-08-08T11:41:31.000Z</time>
      </trkpt>
      <trkpt lat="42.70915" lon="0.66744">
        <ele>1583.6</ele>
        <time>2018-08-08T11:41:32.000Z</time>
      </trkpt>
      <trkpt lat="42.70915" lon="0.66744">
        <ele>1583.6</ele>
        <time>2018-08-08T11:41:33.000Z</time>
      </trkpt>
      <trkpt lat="42.70915" lon="0.66744">
        <ele>1583.6</ele>
        <time>2018-08-08T11:41:34.000Z</time>
      </trkpt>
      <trkpt lat="42.70915" lon="0.66744">
        <ele>1583.6</ele>
        <time>2018-08-08T11:41:35.000Z</time>
      </trkpt>
      <trkpt lat="42.70915" lon="0.66744">
        <ele>1583.6</ele>
        <time>2018-08-08T11:41:36.000Z</time>
      </trkpt>
      <trkpt lat="42.70915" lon="0.66744">
        <ele>1583.6</ele>
        <time>2018-08-08T11:41:37.000Z</time>
      </trkpt>
      <trkpt lat="42.70915" lon="0.66744">
        <ele>1583.6</ele>
        <time>2018-08-08T11:41:38.000Z</time>
      </trkpt>
      <trkpt lat="42.70915" lon="0.66744">
        <ele>1583.6</ele>
        <time>2018-08-08T11:41:39.000Z</time>
      </trkpt>
      <trkpt lat="42.70915" lon="0.66744">
        <ele>1583.6</ele>
        <time>2018-08-08T11:41:40.000Z</time>
      </trkpt>
      <trkpt lat="42.70915" lon="0.66744">
        <ele>1583.6</ele>
        <time>2018-08-08T11:41:41.000Z</time>
      </trkpt>
      <trkpt lat="42.70915" lon="0.66744">
        <ele>1583.6</ele>
        <time>2018-08-08T11:41:42.000Z</time>
      </trkpt>
      <trkpt lat="42.70915" lon="0.66744">
        <ele>1583.6</ele>
        <time>2018-08-08T11:41:43.000Z</time>
      </trkpt>
      <trkpt lat="42.70915" lon="0.66744">
        <ele>1583.6</ele>
        <time>2018-08-08T11:41:44.000Z</time>
      </trkpt>
      <trkpt lat="42.70915" lon="0.66744">
        <ele>1583.6</ele>
        <time>2018-08-08T11:41:45.000Z</time>
      </trkpt>
      <trkpt lat="42.70915" lon="0.66744">
        <ele>1583.6</ele>
        <time>2018-08-08T11:41:46.000Z</time>
      </trkpt>
      <trkpt lat="42.70915" lon="0.66744">
        <ele>1583.6</ele>
        <time>2018-08-08T11:41:47.000Z</time>
      </trkpt>
      <trkpt lat="42.70915" lon="0.66744">
        <ele>1583.6</ele>
        <time>2018-08-08T11:41:48.000Z</time>
      </trkpt>
      <trkpt lat="42.70915" lon="0.66744">
        <ele>1583.6</ele>
        <time>2018-08-08T11:41:49.000Z</time>
      </trkpt>
      <trkpt lat="42.70915" lon="0.66744">
        <ele>1583.6</ele>
        <time>2018-08-08T11:41:50.000Z</time>
      </trkpt>
      <trkpt lat="42.70915" lon="0.66744">
        <ele>1583.6</ele>
        <time>2018-08-08T11:41:51.000Z</time>
      </trkpt>
      <trkpt lat="42.70915" lon="0.66744">
        <ele>1583.6</ele>
        <time>2018-08-08T11:41:52.000Z</time>
      </trkpt>
      <trkpt lat="42.70915" lon="0.66744">
        <ele>1583.6</ele>
        <time>2018-08-08T11:41:53.000Z</time>
      </trkpt>
      <trkpt lat="42.70915" lon="0.66744">
        <ele>1583.6</ele>
        <time>2018-08-08T11:41:54.000Z</time>
      </trkpt>
      <trkpt lat="42.70915" lon="0.66744">
        <ele>1583.6</ele>
        <time>2018-08-08T11:41:55.000Z</time>
      </trkpt>
      <trkpt lat="42.70915" lon="0.66744">
        <ele>1583.6</ele>
        <time>2018-08-08T11:41:56.000Z</time>
      </trkpt>
      <trkpt lat="42.70915" lon="0.66744">
        <ele>1583.6</ele>
        <time>2018-08-08T11:41:57.000Z</time>
      </trkpt>
      <trkpt lat="42.70915" lon="0.66744">
        <ele>1583.6</ele>
        <time>2018-08-08T11:41:58.000Z</time>
      </trkpt>
      <trkpt lat="42.70915" lon="0.66744">
        <ele>1583.6</ele>
        <time>2018-08-08T11:41:59.000Z</time>
      </trkpt>
      <trkpt lat="42.70915" lon="0.66744">
        <ele>1583.6</ele>
        <time>2018-08-08T11:42:00.000Z</time>
      </trkpt>
      <trkpt lat="42.70915" lon="0.66744">
        <ele>1583.6</ele>
        <time>2018-08-08T11:42:01.000Z</time>
      </trkpt>
      <trkpt lat="42.70915" lon="0.66744">
        <ele>1583.6</ele>
        <time>2018-08-08T11:42:02.000Z</time>
      </trkpt>
      <trkpt lat="42.70915" lon="0.66744">
        <ele>1583.6</ele>
        <time>2018-08-08T11:42:03.000Z</time>
      </trkpt>
      <trkpt lat="42.70915" lon="0.66744">
        <ele>1583.6</ele>
        <time>2018-08-08T11:42:04.000Z</time>
      </trkpt>
      <trkpt lat="42.70915" lon="0.66744">
        <ele>1583.6</ele>
        <time>2018-08-08T11:42:05.000Z</time>
      </trkpt>
      <trkpt lat="42.70915" lon="0.66744">
        <ele>1583.6</ele>
        <time>2018-08-08T11:42:06.000Z</time>
      </trkpt>
      <trkpt lat="42.70915" lon="0.66744">
        <ele>1583.6</ele>
        <time>2018-08-08T11:42:07.000Z</time>
      </trkpt>
      <trkpt lat="42.70915" lon="0.66744">
        <ele>1583.6</ele>
        <time>2018-08-08T11:42:08.000Z</time>
      </trkpt>
      <trkpt lat="42.70915" lon="0.66744">
        <ele>1583.6</ele>
        <time>2018-08-08T11:42:09.000Z</time>
      </trkpt>
      <trkpt lat="42.70915" lon="0.66744">
        <ele>1583.6</ele>
        <time>2018-08-08T11:42:10.000Z</time>
      </trkpt>
      <trkpt lat="42.70915" lon="0.66744">
        <ele>1583.6</ele>
        <time>2018-08-08T11:42:11.000Z</time>
      </trkpt>
      <trkpt lat="42.70915" lon="0.66744">
        <ele>1583.6</ele>
        <time>2018-08-08T11:42:12.000Z</time>
      </trkpt>
      <trkpt lat="42.70915" lon="0.66744">
        <ele>1583.6</ele>
        <time>2018-08-08T11:42:13.000Z</time>
      </trkpt>
      <trkpt lat="42.70915" lon="0.66744">
        <ele>1583.6</ele>
        <time>2018-08-08T11:42:14.000Z</time>
      </trkpt>
      <trkpt lat="42.70915" lon="0.66744">
        <ele>1583.6</ele>
        <time>2018-08-08T11:42:15.000Z</time>
      </trkpt>
      <trkpt lat="42.70915" lon="0.66744">
        <ele>1583.6</ele>
        <time>2018-08-08T11:42:16.000Z</time>
      </trkpt>
      <trkpt lat="42.70915" lon="0.66744">
        <ele>1583.6</ele>
        <time>2018-08-08T11:42:17.000Z</time>
      </trkpt>
      <trkpt lat="42.70915" lon="0.66744">
        <ele>1583.6</ele>
        <time>2018-08-08T11:42:18.000Z</time>
      </trkpt>
      <trkpt lat="42.70915" lon="0.66744">
        <ele>1583.6</ele>
        <time>2018-08-08T11:42:19.000Z</time>
      </trkpt>
      <trkpt lat="42.70915" lon="0.66744">
        <ele>1583.6</ele>
        <time>2018-08-08T11:42:20.000Z</time>
      </trkpt>
      <trkpt lat="42.70915" lon="0.66744">
        <ele>1583.6</ele>
        <time>2018-08-08T11:42:21.000Z</time>
      </trkpt>
      <trkpt lat="42.70915" lon="0.66744">
        <ele>1583.6</ele>
        <time>2018-08-08T11:42:22.000Z</time>
      </trkpt>
      <trkpt lat="42.70915" lon="0.66744">
        <ele>1583.6</ele>
        <time>2018-08-08T11:42:23.000Z</time>
      </trkpt>
      <trkpt lat="42.70915" lon="0.66744">
        <ele>1583.6</ele>
        <time>2018-08-08T11:42:24.000Z</time>
      </trkpt>
      <trkpt lat="42.70915" lon="0.66744">
        <ele>1583.6</ele>
        <time>2018-08-08T11:42:25.000Z</time>
      </trkpt>
      <trkpt lat="42.70915" lon="0.66744">
        <ele>1583.6</ele>
        <time>2018-08-08T11:42:26.000Z</time>
      </trkpt>
      <trkpt lat="42.70915" lon="0.66744">
        <ele>1583.6</ele>
        <time>2018-08-08T11:42:27.000Z</time>
      </trkpt>
      <trkpt lat="42.70915" lon="0.66744">
        <ele>1583.6</ele>
        <time>2018-08-08T11:42:28.000Z</time>
      </trkpt>
      <trkpt lat="42.70915" lon="0.66744">
        <ele>1583.6</ele>
        <time>2018-08-08T11:42:29.000Z</time>
      </trkpt>
      <trkpt lat="42.70915" lon="0.66744">
        <ele>1583.6</ele>
        <time>2018-08-08T11:42:30.000Z</time>
      </trkpt>
      <trkpt lat="42.70915" lon="0.66744">
        <ele>1583.6</ele>
        <time>2018-08-08T11:42:31.000Z</time>
      </trkpt>
      <trkpt lat="42.70915" lon="0.66744">
        <ele>1583.6</ele>
        <time>2018-08-08T11:42:32.000Z</time>
      </trkpt>
      <trkpt lat="42.70915" lon="0.66744">
        <ele>1583.6</ele>
        <time>2018-08-08T11:42:33.000Z</time>
      </trkpt>
      <trkpt lat="42.70915" lon="0.66744">
        <ele>1583.6</ele>
        <time>2018-08-08T11:42:34.000Z</time>
      </trkpt>
      <trkpt lat="42.70915" lon="0.66744">
        <ele>1583.6</ele>
        <time>2018-08-08T11:42:35.000Z</time>
      </trkpt>
      <trkpt lat="42.70915" lon="0.66744">
        <ele>1583.6</ele>
        <time>2018-08-08T11:42:36.000Z</time>
      </trkpt>
      <trkpt lat="42.70915" lon="0.66744">
        <ele>1583.6</ele>
        <time>2018-08-08T11:42:37.000Z</time>
      </trkpt>
      <trkpt lat="42.70915" lon="0.66744">
        <ele>1583.6</ele>
        <time>2018-08-08T11:42:38.000Z</time>
      </trkpt>
      <trkpt lat="42.70915" lon="0.66744">
        <ele>1583.6</ele>
        <time>2018-08-08T11:42:39.000Z</time>
      </trkpt>
      <trkpt lat="42.70915" lon="0.66744">
        <ele>1583.6</ele>
        <time>2018-08-08T11:42:40.000Z</time>
      </trkpt>
      <trkpt lat="42.70915" lon="0.66744">
        <ele>1583.6</ele>
        <time>2018-08-08T11:42:41.000Z</time>
      </trkpt>
      <trkpt lat="42.70915" lon="0.66744">
        <ele>1583.6</ele>
        <time>2018-08-08T11:42:42.000Z</time>
      </trkpt>
      <trkpt lat="42.70915" lon="0.66744">
        <ele>1583.6</ele>
        <time>2018-08-08T11:42:43.000Z</time>
      </trkpt>
      <trkpt lat="42.70915" lon="0.66744">
        <ele>1583.6</ele>
        <time>2018-08-08T11:42:44.000Z</time>
      </trkpt>
      <trkpt lat="42.70915" lon="0.66744">
        <ele>1583.6</ele>
        <time>2018-08-08T11:42:45.000Z</time>
      </trkpt>
      <trkpt lat="42.70915" lon="0.66744">
        <ele>1583.6</ele>
        <time>2018-08-08T11:42:46.000Z</time>
      </trkpt>
      <trkpt lat="42.70915" lon="0.66744">
        <ele>1583.6</ele>
        <time>2018-08-08T11:42:47.000Z</time>
      </trkpt>
      <trkpt lat="42.70915" lon="0.66744">
        <ele>1583.6</ele>
        <time>2018-08-08T11:42:48.000Z</time>
      </trkpt>
      <trkpt lat="42.70915" lon="0.66744">
        <ele>1583.6</ele>
        <time>2018-08-08T11:42:49.000Z</time>
      </trkpt>
      <trkpt lat="42.70915" lon="0.66744">
        <ele>1583.6</ele>
        <time>2018-08-08T11:42:50.000Z</time>
      </trkpt>
      <trkpt lat="42.70915" lon="0.66744">
        <ele>1583.6</ele>
        <time>2018-08-08T11:42:51.000Z</time>
      </trkpt>
      <trkpt lat="42.70915" lon="0.66744">
        <ele>1583.6</ele>
        <time>2018-08-08T11:42:52.000Z</time>
      </trkpt>
      <trkpt lat="42.70915" lon="0.66744">
        <ele>1583.6</ele>
        <time>2018-08-08T11:42:53.000Z</time>
      </trkpt>
      <trkpt lat="42.70915" lon="0.66744">
        <ele>1583.6</ele>
        <time>2018-08-08T11:42:54.000Z</time>
      </trkpt>
      <trkpt lat="42.70915" lon="0.66744">
        <ele>1583.6</ele>
        <time>2018-08-08T11:42:55.000Z</time>
      </trkpt>
      <trkpt lat="42.70915" lon="0.66744">
        <ele>1583.6</ele>
        <time>2018-08-08T11:42:56.000Z</time>
      </trkpt>
      <trkpt lat="42.70915" lon="0.66744">
        <ele>1583.6</ele>
        <time>2018-08-08T11:42:57.000Z</time>
      </trkpt>
      <trkpt lat="42.70915" lon="0.66744">
        <ele>1583.6</ele>
        <time>2018-08-08T11:42:58.000Z</time>
      </trkpt>
      <trkpt lat="42.70915" lon="0.66744">
        <ele>1583.6</ele>
        <time>2018-08-08T11:42:59.000Z</time>
      </trkpt>
      <trkpt lat="42.70915" lon="0.66744">
        <ele>1583.6</ele>
        <time>2018-08-08T11:43:00.000Z</time>
      </trkpt>
      <trkpt lat="42.70915" lon="0.66744">
        <ele>1583.6</ele>
        <time>2018-08-08T11:43:01.000Z</time>
      </trkpt>
      <trkpt lat="42.70915" lon="0.66744">
        <ele>1583.6</ele>
        <time>2018-08-08T11:43:02.000Z</time>
      </trkpt>
      <trkpt lat="42.70915" lon="0.66744">
        <ele>1583.6</ele>
        <time>2018-08-08T11:43:03.000Z</time>
      </trkpt>
      <trkpt lat="42.70915" lon="0.66744">
        <ele>1583.6</ele>
        <time>2018-08-08T11:43:04.000Z</time>
      </trkpt>
      <trkpt lat="42.70915" lon="0.66744">
        <ele>1583.6</ele>
        <time>2018-08-08T11:43:05.000Z</time>
      </trkpt>
      <trkpt lat="42.70915" lon="0.66744">
        <ele>1583.6</ele>
        <time>2018-08-08T11:43:06.000Z</time>
      </trkpt>
      <trkpt lat="42.70915" lon="0.66744">
        <ele>1583.6</ele>
        <time>2018-08-08T11:43:07.000Z</time>
      </trkpt>
      <trkpt lat="42.70915" lon="0.66744">
        <ele>1583.6</ele>
        <time>2018-08-08T11:43:08.000Z</time>
      </trkpt>
      <trkpt lat="42.70915" lon="0.66744">
        <ele>1583.6</ele>
        <time>2018-08-08T11:43:09.000Z</time>
      </trkpt>
      <trkpt lat="42.70915" lon="0.66744">
        <ele>1583.6</ele>
        <time>2018-08-08T11:43:10.000Z</time>
      </trkpt>
      <trkpt lat="42.70915" lon="0.66744">
        <ele>1583.6</ele>
        <time>2018-08-08T11:43:11.000Z</time>
      </trkpt>
      <trkpt lat="42.70915" lon="0.66744">
        <ele>1583.6</ele>
        <time>2018-08-08T11:43:12.000Z</time>
      </trkpt>
      <trkpt lat="42.70915" lon="0.66744">
        <ele>1583.6</ele>
        <time>2018-08-08T11:43:13.000Z</time>
      </trkpt>
      <trkpt lat="42.70915" lon="0.66744">
        <ele>1583.6</ele>
        <time>2018-08-08T11:43:14.000Z</time>
      </trkpt>
      <trkpt lat="42.70915" lon="0.66744">
        <ele>1583.6</ele>
        <time>2018-08-08T11:43:15.000Z</time>
      </trkpt>
      <trkpt lat="42.70915" lon="0.66744">
        <ele>1583.6</ele>
        <time>2018-08-08T11:43:16.000Z</time>
      </trkpt>
      <trkpt lat="42.70915" lon="0.66744">
        <ele>1583.6</ele>
        <time>2018-08-08T11:43:17.000Z</time>
      </trkpt>
      <trkpt lat="42.70915" lon="0.66744">
        <ele>1583.6</ele>
        <time>2018-08-08T11:43:18.000Z</time>
      </trkpt>
      <trkpt lat="42.70915" lon="0.66744">
        <ele>1583.6</ele>
        <time>2018-08-08T11:43:19.000Z</time>
      </trkpt>
      <trkpt lat="42.70915" lon="0.66744">
        <ele>1583.6</ele>
        <time>2018-08-08T11:43:20.000Z</time>
      </trkpt>
      <trkpt lat="42.70915" lon="0.66744">
        <ele>1583.6</ele>
        <time>2018-08-08T11:43:21.000Z</time>
      </trkpt>
      <trkpt lat="42.70915" lon="0.66744">
        <ele>1583.6</ele>
        <time>2018-08-08T11:43:22.000Z</time>
      </trkpt>
      <trkpt lat="42.70915" lon="0.66744">
        <ele>1583.6</ele>
        <time>2018-08-08T11:43:23.000Z</time>
      </trkpt>
      <trkpt lat="42.70915" lon="0.66744">
        <ele>1583.6</ele>
        <time>2018-08-08T11:43:24.000Z</time>
      </trkpt>
      <trkpt lat="42.70915" lon="0.66744">
        <ele>1583.6</ele>
        <time>2018-08-08T11:43:25.000Z</time>
      </trkpt>
      <trkpt lat="42.70915" lon="0.66744">
        <ele>1583.6</ele>
        <time>2018-08-08T11:43:26.000Z</time>
      </trkpt>
      <trkpt lat="42.70915" lon="0.66744">
        <ele>1583.6</ele>
        <time>2018-08-08T11:43:27.000Z</time>
      </trkpt>
      <trkpt lat="42.70915" lon="0.66744">
        <ele>1583.6</ele>
        <time>2018-08-08T11:43:28.000Z</time>
      </trkpt>
      <trkpt lat="42.70915" lon="0.66744">
        <ele>1583.6</ele>
        <time>2018-08-08T11:43:29.000Z</time>
      </trkpt>
      <trkpt lat="42.70915" lon="0.66744">
        <ele>1583.6</ele>
        <time>2018-08-08T11:43:30.000Z</time>
      </trkpt>
      <trkpt lat="42.70915" lon="0.66744">
        <ele>1583.6</ele>
        <time>2018-08-08T11:43:31.000Z</time>
      </trkpt>
      <trkpt lat="42.70915" lon="0.66744">
        <ele>1583.6</ele>
        <time>2018-08-08T11:43:32.000Z</time>
      </trkpt>
      <trkpt lat="42.70915" lon="0.66744">
        <ele>1583.6</ele>
        <time>2018-08-08T11:43:33.000Z</time>
      </trkpt>
      <trkpt lat="42.70915" lon="0.66744">
        <ele>1583.6</ele>
        <time>2018-08-08T11:43:34.000Z</time>
      </trkpt>
      <trkpt lat="42.70915" lon="0.66744">
        <ele>1583.6</ele>
        <time>2018-08-08T11:43:35.000Z</time>
      </trkpt>
      <trkpt lat="42.70915" lon="0.66744">
        <ele>1583.6</ele>
        <time>2018-08-08T11:43:36.000Z</time>
      </trkpt>
      <trkpt lat="42.70915" lon="0.66744">
        <ele>1583.6</ele>
        <time>2018-08-08T11:43:37.000Z</time>
      </trkpt>
      <trkpt lat="42.70915" lon="0.66744">
        <ele>1583.6</ele>
        <time>2018-08-08T11:43:38.000Z</time>
      </trkpt>
      <trkpt lat="42.70915" lon="0.66744">
        <ele>1583.6</ele>
        <time>2018-08-08T11:43:39.000Z</time>
      </trkpt>
      <trkpt lat="42.70915" lon="0.66744">
        <ele>1583.6</ele>
        <time>2018-08-08T11:43:40.000Z</time>
      </trkpt>
      <trkpt lat="42.70915" lon="0.66744">
        <ele>1583.6</ele>
        <time>2018-08-08T11:43:41.000Z</time>
      </trkpt>
      <trkpt lat="42.70915" lon="0.66744">
        <ele>1583.6</ele>
        <time>2018-08-08T11:43:42.000Z</time>
      </trkpt>
      <trkpt lat="42.70915" lon="0.66744">
        <ele>1583.6</ele>
        <time>2018-08-08T11:43:43.000Z</time>
      </trkpt>
      <trkpt lat="42.70915" lon="0.66744">
        <ele>1583.6</ele>
        <time>2018-08-08T11:43:44.000Z</time>
      </trkpt>
      <trkpt lat="42.70915" lon="0.66744">
        <ele>1583.6</ele>
        <time>2018-08-08T11:43:45.000Z</time>
      </trkpt>
      <trkpt lat="42.70915" lon="0.66744">
        <ele>1583.6</ele>
        <time>2018-08-08T11:43:46.000Z</time>
      </trkpt>
      <trkpt lat="42.70915" lon="0.66744">
        <ele>1583.6</ele>
        <time>2018-08-08T11:43:47.000Z</time>
      </trkpt>
      <trkpt lat="42.70915" lon="0.66744">
        <ele>1583.6</ele>
        <time>2018-08-08T11:43:48.000Z</time>
      </trkpt>
      <trkpt lat="42.70915" lon="0.66744">
        <ele>1583.6</ele>
        <time>2018-08-08T11:43:49.000Z</time>
      </trkpt>
      <trkpt lat="42.70915" lon="0.66744">
        <ele>1583.6</ele>
        <time>2018-08-08T11:43:50.000Z</time>
      </trkpt>
      <trkpt lat="42.70915" lon="0.66744">
        <ele>1583.6</ele>
        <time>2018-08-08T11:43:51.000Z</time>
      </trkpt>
      <trkpt lat="42.70915" lon="0.66744">
        <ele>1583.6</ele>
        <time>2018-08-08T11:43:52.000Z</time>
      </trkpt>
      <trkpt lat="42.70915" lon="0.66744">
        <ele>1583.6</ele>
        <time>2018-08-08T11:43:53.000Z</time>
      </trkpt>
      <trkpt lat="42.70915" lon="0.66744">
        <ele>1583.6</ele>
        <time>2018-08-08T11:43:54.000Z</time>
      </trkpt>
      <trkpt lat="42.70915" lon="0.66744">
        <ele>1583.6</ele>
        <time>2018-08-08T11:43:55.000Z</time>
      </trkpt>
      <trkpt lat="42.70915" lon="0.66744">
        <ele>1583.6</ele>
        <time>2018-08-08T11:43:56.000Z</time>
      </trkpt>
      <trkpt lat="42.70915" lon="0.66744">
        <ele>1583.6</ele>
        <time>2018-08-08T11:43:57.000Z</time>
      </trkpt>
      <trkpt lat="42.70915" lon="0.66744">
        <ele>1583.6</ele>
        <time>2018-08-08T11:43:58.000Z</time>
      </trkpt>
      <trkpt lat="42.70915" lon="0.66744">
        <ele>1583.6</ele>
        <time>2018-08-08T11:43:59.000Z</time>
      </trkpt>
      <trkpt lat="42.70915" lon="0.66744">
        <ele>1583.6</ele>
        <time>2018-08-08T11:44:00.000Z</time>
      </trkpt>
      <trkpt lat="42.70915" lon="0.66744">
        <ele>1583.6</ele>
        <time>2018-08-08T11:44:01.000Z</time>
      </trkpt>
      <trkpt lat="42.70915" lon="0.66744">
        <ele>1583.6</ele>
        <time>2018-08-08T11:44:02.000Z</time>
      </trkpt>
      <trkpt lat="42.70915" lon="0.66744">
        <ele>1583.6</ele>
        <time>2018-08-08T11:44:03.000Z</time>
      </trkpt>
      <trkpt lat="42.70915" lon="0.66744">
        <ele>1583.6</ele>
        <time>2018-08-08T11:44:04.000Z</time>
      </trkpt>
      <trkpt lat="42.70915" lon="0.66744">
        <ele>1583.6</ele>
        <time>2018-08-08T11:44:05.000Z</time>
      </trkpt>
      <trkpt lat="42.70915" lon="0.66744">
        <ele>1583.6</ele>
        <time>2018-08-08T11:44:06.000Z</time>
      </trkpt>
      <trkpt lat="42.70915" lon="0.66744">
        <ele>1583.6</ele>
        <time>2018-08-08T11:44:07.000Z</time>
      </trkpt>
      <trkpt lat="42.70915" lon="0.66744">
        <ele>1583.6</ele>
        <time>2018-08-08T11:44:08.000Z</time>
      </trkpt>
      <trkpt lat="42.70915" lon="0.66744">
        <ele>1583.6</ele>
        <time>2018-08-08T11:44:09.000Z</time>
      </trkpt>
      <trkpt lat="42.70915" lon="0.66744">
        <ele>1583.6</ele>
        <time>2018-08-08T11:44:10.000Z</time>
      </trkpt>
      <trkpt lat="42.70915" lon="0.66744">
        <ele>1583.6</ele>
        <time>2018-08-08T11:44:11.000Z</time>
      </trkpt>
      <trkpt lat="42.70915" lon="0.66744">
        <ele>1583.6</ele>
        <time>2018-08-08T11:44:12.000Z</time>
      </trkpt>
      <trkpt lat="42.70915" lon="0.66744">
        <ele>1583.6</ele>
        <time>2018-08-08T11:44:13.000Z</time>
      </trkpt>
      <trkpt lat="42.70915" lon="0.66744">
        <ele>1583.6</ele>
        <time>2018-08-08T11:44:14.000Z</time>
      </trkpt>
      <trkpt lat="42.70915" lon="0.66744">
        <ele>1583.6</ele>
        <time>2018-08-08T11:44:15.000Z</time>
      </trkpt>
      <trkpt lat="42.70915" lon="0.66744">
        <ele>1583.6</ele>
        <time>2018-08-08T11:44:16.000Z</time>
      </trkpt>
      <trkpt lat="42.70915" lon="0.66744">
        <ele>1583.6</ele>
        <time>2018-08-08T11:44:17.000Z</time>
      </trkpt>
      <trkpt lat="42.70915" lon="0.66744">
        <ele>1583.6</ele>
        <time>2018-08-08T11:44:18.000Z</time>
      </trkpt>
      <trkpt lat="42.70915" lon="0.66744">
        <ele>1583.6</ele>
        <time>2018-08-08T11:44:19.000Z</time>
      </trkpt>
      <trkpt lat="42.70915" lon="0.66744">
        <ele>1583.6</ele>
        <time>2018-08-08T11:44:20.000Z</time>
      </trkpt>
      <trkpt lat="42.70915" lon="0.66744">
        <ele>1583.6</ele>
        <time>2018-08-08T11:44:21.000Z</time>
      </trkpt>
      <trkpt lat="42.70915" lon="0.66744">
        <ele>1583.6</ele>
        <time>2018-08-08T11:44:22.000Z</time>
      </trkpt>
      <trkpt lat="42.70915" lon="0.66744">
        <ele>1583.6</ele>
        <time>2018-08-08T11:44:23.000Z</time>
      </trkpt>
      <trkpt lat="42.70915" lon="0.66744">
        <ele>1583.6</ele>
        <time>2018-08-08T11:44:24.000Z</time>
      </trkpt>
      <trkpt lat="42.70915" lon="0.66744">
        <ele>1583.6</ele>
        <time>2018-08-08T11:44:25.000Z</time>
      </trkpt>
      <trkpt lat="42.70915" lon="0.66744">
        <ele>1583.6</ele>
        <time>2018-08-08T11:44:26.000Z</time>
      </trkpt>
      <trkpt lat="42.70915" lon="0.66744">
        <ele>1583.6</ele>
        <time>2018-08-08T11:44:27.000Z</time>
      </trkpt>
      <trkpt lat="42.70915" lon="0.66744">
        <ele>1583.6</ele>
        <time>2018-08-08T11:44:28.000Z</time>
      </trkpt>
      <trkpt lat="42.70915" lon="0.66744">
        <ele>1583.6</ele>
        <time>2018-08-08T11:44:29.000Z</time>
      </trkpt>
      <trkpt lat="42.70915" lon="0.66744">
        <ele>1583.6</ele>
        <time>2018-08-08T11:44:30.000Z</time>
      </trkpt>
      <trkpt lat="42.70915" lon="0.66744">
        <ele>1583.6</ele>
        <time>2018-08-08T11:44:31.000Z</time>
      </trkpt>
      <trkpt lat="42.70915" lon="0.66744">
        <ele>1583.6</ele>
        <time>2018-08-08T11:44:32.000Z</time>
      </trkpt>
      <trkpt lat="42.70915" lon="0.66744">
        <ele>1583.6</ele>
        <time>2018-08-08T11:44:33.000Z</time>
      </trkpt>
      <trkpt lat="42.70915" lon="0.66744">
        <ele>1583.6</ele>
        <time>2018-08-08T11:44:34.000Z</time>
      </trkpt>
      <trkpt lat="42.70915" lon="0.66744">
        <ele>1583.6</ele>
        <time>2018-08-08T11:44:35.000Z</time>
      </trkpt>
      <trkpt lat="42.70915" lon="0.66744">
        <ele>1583.6</ele>
        <time>2018-08-08T11:44:36.000Z</time>
      </trkpt>
      <trkpt lat="42.70915" lon="0.66744">
        <ele>1583.6</ele>
        <time>2018-08-08T11:44:37.000Z</time>
      </trkpt>
      <trkpt lat="42.70915" lon="0.66744">
        <ele>1583.6</ele>
        <time>2018-08-08T11:44:38.000Z</time>
      </trkpt>
      <trkpt lat="42.70915" lon="0.66744">
        <ele>1583.6</ele>
        <time>2018-08-08T11:44:39.000Z</time>
      </trkpt>
      <trkpt lat="42.70915" lon="0.66744">
        <ele>1583.6</ele>
        <time>2018-08-08T11:44:40.000Z</time>
      </trkpt>
      <trkpt lat="42.70915" lon="0.66744">
        <ele>1583.6</ele>
        <time>2018-08-08T11:44:41.000Z</time>
      </trkpt>
      <trkpt lat="42.70915" lon="0.66744">
        <ele>1583.6</ele>
        <time>2018-08-08T11:44:42.000Z</time>
      </trkpt>
      <trkpt lat="42.70915" lon="0.66744">
        <ele>1583.6</ele>
        <time>2018-08-08T11:44:43.000Z</time>
      </trkpt>
      <trkpt lat="42.70915" lon="0.66744">
        <ele>1583.6</ele>
        <time>2018-08-08T11:44:44.000Z</time>
      </trkpt>
      <trkpt lat="42.70915" lon="0.66744">
        <ele>1583.6</ele>
        <time>2018-08-08T11:44:45.000Z</time>
      </trkpt>
      <trkpt lat="42.70915" lon="0.66744">
        <ele>1583.6</ele>
        <time>2018-08-08T11:44:46.000Z</time>
      </trkpt>
      <trkpt lat="42.70915" lon="0.66744">
        <ele>1583.6</ele>
        <time>2018-08-08T11:44:47.000Z</time>
      </trkpt>
      <trkpt lat="42.70915" lon="0.66744">
        <ele>1583.6</ele>
        <time>2018-08-08T11:44:48.000Z</time>
      </trkpt>
      <trkpt lat="42.70915" lon="0.66744">
        <ele>1583.6</ele>
        <time>2018-08-08T11:44:49.000Z</time>
      </trkpt>
      <trkpt lat="42.70915" lon="0.66744">
        <ele>1583.6</ele>
        <time>2018-08-08T11:44:50.000Z</time>
      </trkpt>
      <trkpt lat="42.70915" lon="0.66744">
        <ele>1583.6</ele>
        <time>2018-08-08T11:44:51.000Z</time>
      </trkpt>
      <trkpt lat="42.70915" lon="0.66744">
        <ele>1583.6</ele>
        <time>2018-08-08T11:44:52.000Z</time>
      </trkpt>
      <trkpt lat="42.70915" lon="0.66744">
        <ele>1583.6</ele>
        <time>2018-08-08T11:44:53.000Z</time>
      </trkpt>
      <trkpt lat="42.70915" lon="0.66744">
        <ele>1583.6</ele>
        <time>2018-08-08T11:44:54.000Z</time>
      </trkpt>
      <trkpt lat="42.70915" lon="0.66744">
        <ele>1583.6</ele>
        <time>2018-08-08T11:44:55.000Z</time>
      </trkpt>
      <trkpt lat="42.70915" lon="0.66744">
        <ele>1583.6</ele>
        <time>2018-08-08T11:44:56.000Z</time>
      </trkpt>
      <trkpt lat="42.70915" lon="0.66744">
        <ele>1583.6</ele>
        <time>2018-08-08T11:44:57.000Z</time>
      </trkpt>
      <trkpt lat="42.70915" lon="0.66744">
        <ele>1583.6</ele>
        <time>2018-08-08T11:44:58.000Z</time>
      </trkpt>
      <trkpt lat="42.70915" lon="0.66744">
        <ele>1583.6</ele>
        <time>2018-08-08T11:44:59.000Z</time>
      </trkpt>
      <trkpt lat="42.70915" lon="0.66744">
        <ele>1583.6</ele>
        <time>2018-08-08T11:45:00.000Z</time>
      </trkpt>
      <trkpt lat="42.70915" lon="0.66744">
        <ele>1583.6</ele>
        <time>2018-08-08T11:45:01.000Z</time>
      </trkpt>
      <trkpt lat="42.70915" lon="0.66744">
        <ele>1583.6</ele>
        <time>2018-08-08T11:45:02.000Z</time>
      </trkpt>
      <trkpt lat="42.70915" lon="0.66744">
        <ele>1583.6</ele>
        <time>2018-08-08T11:45:03.000Z</time>
      </trkpt>
      <trkpt lat="42.70915" lon="0.66744">
        <ele>1583.6</ele>
        <time>2018-08-08T11:45:04.000Z</time>
      </trkpt>
      <trkpt lat="42.70915" lon="0.66744">
        <ele>1583.6</ele>
        <time>2018-08-08T11:45:05.000Z</time>
      </trkpt>
      <trkpt lat="42.70915" lon="0.66744">
        <ele>1583.6</ele>
        <time>2018-08-08T11:45:06.000Z</time>
      </trkpt>
      <trkpt lat="42.70915" lon="0.66744">
        <ele>1583.6</ele>
        <time>2018-08-08T11:45:07.000Z</time>
      </trkpt>
      <trkpt lat="42.70915" lon="0.66744">
        <ele>1583.6</ele>
        <time>2018-08-08T11:45:08.000Z</time>
      </trkpt>
      <trkpt lat="42.70915" lon="0.66744">
        <ele>1583.6</ele>
        <time>2018-08-08T11:45:09.000Z</time>
      </trkpt>
      <trkpt lat="42.70915" lon="0.66744">
        <ele>1583.6</ele>
        <time>2018-08-08T11:45:10.000Z</time>
      </trkpt>
      <trkpt lat="42.70915" lon="0.66744">
        <ele>1583.6</ele>
        <time>2018-08-08T11:45:11.000Z</time>
      </trkpt>
      <trkpt lat="42.70915" lon="0.66744">
        <ele>1583.6</ele>
        <time>2018-08-08T11:45:12.000Z</time>
      </trkpt>
      <trkpt lat="42.70915" lon="0.66744">
        <ele>1583.6</ele>
        <time>2018-08-08T11:45:13.000Z</time>
      </trkpt>
      <trkpt lat="42.70915" lon="0.66744">
        <ele>1583.6</ele>
        <time>2018-08-08T11:45:14.000Z</time>
      </trkpt>
      <trkpt lat="42.70915" lon="0.66744">
        <ele>1583.6</ele>
        <time>2018-08-08T11:45:15.000Z</time>
      </trkpt>
      <trkpt lat="42.70915" lon="0.66744">
        <ele>1583.6</ele>
        <time>2018-08-08T11:45:16.000Z</time>
      </trkpt>
      <trkpt lat="42.70915" lon="0.66744">
        <ele>1583.6</ele>
        <time>2018-08-08T11:45:17.000Z</time>
      </trkpt>
      <trkpt lat="42.70915" lon="0.66744">
        <ele>1583.6</ele>
        <time>2018-08-08T11:45:18.000Z</time>
      </trkpt>
      <trkpt lat="42.70915" lon="0.66744">
        <ele>1583.6</ele>
        <time>2018-08-08T11:45:19.000Z</time>
      </trkpt>
      <trkpt lat="42.70915" lon="0.66744">
        <ele>1583.6</ele>
        <time>2018-08-08T11:45:20.000Z</time>
      </trkpt>
      <trkpt lat="42.70915" lon="0.66744">
        <ele>1583.6</ele>
        <time>2018-08-08T11:45:21.000Z</time>
      </trkpt>
      <trkpt lat="42.70915" lon="0.66744">
        <ele>1583.6</ele>
        <time>2018-08-08T11:45:22.000Z</time>
      </trkpt>
      <trkpt lat="42.70915" lon="0.66744">
        <ele>1583.6</ele>
        <time>2018-08-08T11:45:23.000Z</time>
      </trkpt>
      <trkpt lat="42.70915" lon="0.66744">
        <ele>1583.6</ele>
        <time>2018-08-08T11:45:24.000Z</time>
      </trkpt>
      <trkpt lat="42.70915" lon="0.66744">
        <ele>1583.6</ele>
        <time>2018-08-08T11:45:25.000Z</time>
      </trkpt>
      <trkpt lat="42.70915" lon="0.66744">
        <ele>1583.6</ele>
        <time>2018-08-08T11:45:26.000Z</time>
      </trkpt>
      <trkpt lat="42.70915" lon="0.66744">
        <ele>1583.6</ele>
        <time>2018-08-08T11:45:27.000Z</time>
      </trkpt>
      <trkpt lat="42.70915" lon="0.66744">
        <ele>1583.6</ele>
        <time>2018-08-08T11:45:28.000Z</time>
      </trkpt>
      <trkpt lat="42.70915" lon="0.66744">
        <ele>1583.6</ele>
        <time>2018-08-08T11:45:29.000Z</time>
      </trkpt>
      <trkpt lat="42.70915" lon="0.66744">
        <ele>1583.6</ele>
        <time>2018-08-08T11:45:30.000Z</time>
      </trkpt>
      <trkpt lat="42.70915" lon="0.66744">
        <ele>1583.6</ele>
        <time>2018-08-08T11:45:31.000Z</time>
      </trkpt>
      <trkpt lat="42.70915" lon="0.66744">
        <ele>1583.6</ele>
        <time>2018-08-08T11:45:32.000Z</time>
      </trkpt>
      <trkpt lat="42.70915" lon="0.66744">
        <ele>1583.6</ele>
        <time>2018-08-08T11:45:33.000Z</time>
      </trkpt>
      <trkpt lat="42.70915" lon="0.66744">
        <ele>1583.6</ele>
        <time>2018-08-08T11:45:34.000Z</time>
      </trkpt>
      <trkpt lat="42.70915" lon="0.66744">
        <ele>1583.6</ele>
        <time>2018-08-08T11:45:35.000Z</time>
      </trkpt>
      <trkpt lat="42.70915" lon="0.66744">
        <ele>1583.6</ele>
        <time>2018-08-08T11:45:36.000Z</time>
      </trkpt>
      <trkpt lat="42.70915" lon="0.66744">
        <ele>1583.6</ele>
        <time>2018-08-08T11:45:37.000Z</time>
      </trkpt>
      <trkpt lat="42.70915" lon="0.66744">
        <ele>1583.6</ele>
        <time>2018-08-08T11:45:38.000Z</time>
      </trkpt>
      <trkpt lat="42.70915" lon="0.66744">
        <ele>1583.6</ele>
        <time>2018-08-08T11:45:39.000Z</time>
      </trkpt>
      <trkpt lat="42.70915" lon="0.66744">
        <ele>1583.6</ele>
        <time>2018-08-08T11:45:40.000Z</time>
      </trkpt>
      <trkpt lat="42.70915" lon="0.66744">
        <ele>1583.6</ele>
        <time>2018-08-08T11:45:41.000Z</time>
      </trkpt>
      <trkpt lat="42.70915" lon="0.66744">
        <ele>1583.6</ele>
        <time>2018-08-08T11:45:42.000Z</time>
      </trkpt>
      <trkpt lat="42.70915" lon="0.66744">
        <ele>1583.6</ele>
        <time>2018-08-08T11:45:43.000Z</time>
      </trkpt>
      <trkpt lat="42.70915" lon="0.66744">
        <ele>1583.6</ele>
        <time>2018-08-08T11:45:44.000Z</time>
      </trkpt>
      <trkpt lat="42.70915" lon="0.66744">
        <ele>1583.6</ele>
        <time>2018-08-08T11:45:45.000Z</time>
      </trkpt>
      <trkpt lat="42.70915" lon="0.66744">
        <ele>1583.6</ele>
        <time>2018-08-08T11:45:46.000Z</time>
      </trkpt>
      <trkpt lat="42.70915" lon="0.66744">
        <ele>1583.6</ele>
        <time>2018-08-08T11:45:47.000Z</time>
      </trkpt>
      <trkpt lat="42.70915" lon="0.66744">
        <ele>1583.6</ele>
        <time>2018-08-08T11:45:48.000Z</time>
      </trkpt>
      <trkpt lat="42.70915" lon="0.66744">
        <ele>1583.6</ele>
        <time>2018-08-08T11:45:49.000Z</time>
      </trkpt>
      <trkpt lat="42.70915" lon="0.66744">
        <ele>1583.6</ele>
        <time>2018-08-08T11:45:50.000Z</time>
      </trkpt>
      <trkpt lat="42.70915" lon="0.66744">
        <ele>1583.6</ele>
        <time>2018-08-08T11:45:51.000Z</time>
      </trkpt>
      <trkpt lat="42.70915" lon="0.66744">
        <ele>1583.6</ele>
        <time>2018-08-08T11:45:52.000Z</time>
      </trkpt>
      <trkpt lat="42.70915" lon="0.66744">
        <ele>1583.6</ele>
        <time>2018-08-08T11:45:53.000Z</time>
      </trkpt>
      <trkpt lat="42.70915" lon="0.66744">
        <ele>1583.6</ele>
        <time>2018-08-08T11:45:54.000Z</time>
      </trkpt>
      <trkpt lat="42.70915" lon="0.66744">
        <ele>1583.6</ele>
        <time>2018-08-08T11:45:55.000Z</time>
      </trkpt>
      <trkpt lat="42.70915" lon="0.66744">
        <ele>1583.6</ele>
        <time>2018-08-08T11:45:56.000Z</time>
      </trkpt>
      <trkpt lat="42.70915" lon="0.66744">
        <ele>1583.6</ele>
        <time>2018-08-08T11:45:57.000Z</time>
      </trkpt>
      <trkpt lat="42.70915" lon="0.66744">
        <ele>1583.6</ele>
        <time>2018-08-08T11:45:58.000Z</time>
      </trkpt>
      <trkpt lat="42.70915" lon="0.66744">
        <ele>1583.6</ele>
        <time>2018-08-08T11:45:59.000Z</time>
      </trkpt>
      <trkpt lat="42.70915" lon="0.66744">
        <ele>1583.6</ele>
        <time>2018-08-08T11:46:00.000Z</time>
      </trkpt>
      <trkpt lat="42.70915" lon="0.66744">
        <ele>1583.6</ele>
        <time>2018-08-08T11:46:01.000Z</time>
      </trkpt>
      <trkpt lat="42.70915" lon="0.66744">
        <ele>1583.6</ele>
        <time>2018-08-08T11:46:02.000Z</time>
      </trkpt>
      <trkpt lat="42.70915" lon="0.66744">
        <ele>1583.6</ele>
        <time>2018-08-08T11:46:03.000Z</time>
      </trkpt>
      <trkpt lat="42.70915" lon="0.66744">
        <ele>1583.6</ele>
        <time>2018-08-08T11:46:04.000Z</time>
      </trkpt>
      <trkpt lat="42.70915" lon="0.66744">
        <ele>1583.6</ele>
        <time>2018-08-08T11:46:05.000Z</time>
      </trkpt>
      <trkpt lat="42.70915" lon="0.66744">
        <ele>1583.6</ele>
        <time>2018-08-08T11:46:06.000Z</time>
      </trkpt>
      <trkpt lat="42.70915" lon="0.66744">
        <ele>1583.6</ele>
        <time>2018-08-08T11:46:07.000Z</time>
      </trkpt>
      <trkpt lat="42.70915" lon="0.66744">
        <ele>1583.6</ele>
        <time>2018-08-08T11:46:08.000Z</time>
      </trkpt>
      <trkpt lat="42.70915" lon="0.66744">
        <ele>1583.6</ele>
        <time>2018-08-08T11:46:09.000Z</time>
      </trkpt>
      <trkpt lat="42.70915" lon="0.66744">
        <ele>1583.6</ele>
        <time>2018-08-08T11:46:10.000Z</time>
      </trkpt>
      <trkpt lat="42.70915" lon="0.66744">
        <ele>1583.6</ele>
        <time>2018-08-08T11:46:11.000Z</time>
      </trkpt>
      <trkpt lat="42.70915" lon="0.66744">
        <ele>1583.6</ele>
        <time>2018-08-08T11:46:12.000Z</time>
      </trkpt>
      <trkpt lat="42.70915" lon="0.66744">
        <ele>1583.6</ele>
        <time>2018-08-08T11:46:13.000Z</time>
      </trkpt>
      <trkpt lat="42.70915" lon="0.66744">
        <ele>1583.6</ele>
        <time>2018-08-08T11:46:14.000Z</time>
      </trkpt>
      <trkpt lat="42.70915" lon="0.66744">
        <ele>1583.6</ele>
        <time>2018-08-08T11:46:15.000Z</time>
      </trkpt>
      <trkpt lat="42.70915" lon="0.66744">
        <ele>1583.6</ele>
        <time>2018-08-08T11:46:16.000Z</time>
      </trkpt>
      <trkpt lat="42.70915" lon="0.66744">
        <ele>1583.6</ele>
        <time>2018-08-08T11:46:17.000Z</time>
      </trkpt>
      <trkpt lat="42.70915" lon="0.66744">
        <ele>1583.6</ele>
        <time>2018-08-08T11:46:18.000Z</time>
      </trkpt>
      <trkpt lat="42.70915" lon="0.66744">
        <ele>1583.6</ele>
        <time>2018-08-08T11:46:19.000Z</time>
      </trkpt>
      <trkpt lat="42.70915" lon="0.66744">
        <ele>1583.6</ele>
        <time>2018-08-08T11:46:20.000Z</time>
      </trkpt>
      <trkpt lat="42.70915" lon="0.66744">
        <ele>1583.6</ele>
        <time>2018-08-08T11:46:21.000Z</time>
      </trkpt>
      <trkpt lat="42.70915" lon="0.66744">
        <ele>1583.6</ele>
        <time>2018-08-08T11:46:22.000Z</time>
      </trkpt>
      <trkpt lat="42.70915" lon="0.66744">
        <ele>1583.6</ele>
        <time>2018-08-08T11:46:23.000Z</time>
      </trkpt>
      <trkpt lat="42.70915" lon="0.66744">
        <ele>1583.6</ele>
        <time>2018-08-08T11:46:24.000Z</time>
      </trkpt>
      <trkpt lat="42.70915" lon="0.66744">
        <ele>1583.6</ele>
        <time>2018-08-08T11:46:25.000Z</time>
      </trkpt>
      <trkpt lat="42.70915" lon="0.66744">
        <ele>1583.6</ele>
        <time>2018-08-08T11:46:26.000Z</time>
      </trkpt>
      <trkpt lat="42.70915" lon="0.66744">
        <ele>1583.6</ele>
        <time>2018-08-08T11:46:27.000Z</time>
      </trkpt>
      <trkpt lat="42.70915" lon="0.66744">
        <ele>1583.6</ele>
        <time>2018-08-08T11:46:28.000Z</time>
      </trkpt>
      <trkpt lat="42.70915" lon="0.66744">
        <ele>1583.6</ele>
        <time>2018-08-08T11:46:29.000Z</time>
      </trkpt>
      <trkpt lat="42.70915" lon="0.66744">
        <ele>1583.6</ele>
        <time>2018-08-08T11:46:30.000Z</time>
      </trkpt>
      <trkpt lat="42.70915" lon="0.66744">
        <ele>1583.6</ele>
        <time>2018-08-08T11:46:31.000Z</time>
      </trkpt>
      <trkpt lat="42.70915" lon="0.66744">
        <ele>1583.6</ele>
        <time>2018-08-08T11:46:32.000Z</time>
      </trkpt>
      <trkpt lat="42.70915" lon="0.66744">
        <ele>1583.6</ele>
        <time>2018-08-08T11:46:33.000Z</time>
      </trkpt>
      <trkpt lat="42.70915" lon="0.66744">
        <ele>1583.6</ele>
        <time>2018-08-08T11:46:34.000Z</time>
      </trkpt>
      <trkpt lat="42.70915" lon="0.66744">
        <ele>1583.6</ele>
        <time>2018-08-08T11:46:35.000Z</time>
      </trkpt>
      <trkpt lat="42.70915" lon="0.66744">
        <ele>1583.6</ele>
        <time>2018-08-08T11:46:36.000Z</time>
      </trkpt>
      <trkpt lat="42.70915" lon="0.66744">
        <ele>1583.6</ele>
        <time>2018-08-08T11:46:37.000Z</time>
      </trkpt>
      <trkpt lat="42.70915" lon="0.66744">
        <ele>1583.6</ele>
        <time>2018-08-08T11:46:38.000Z</time>
      </trkpt>
      <trkpt lat="42.70915" lon="0.66744">
        <ele>1583.6</ele>
        <time>2018-08-08T11:46:39.000Z</time>
      </trkpt>
      <trkpt lat="42.70915" lon="0.66744">
        <ele>1583.6</ele>
        <time>2018-08-08T11:46:40.000Z</time>
      </trkpt>
      <trkpt lat="42.70915" lon="0.66744">
        <ele>1583.6</ele>
        <time>2018-08-08T11:46:41.000Z</time>
      </trkpt>
      <trkpt lat="42.70915" lon="0.66744">
        <ele>1583.6</ele>
        <time>2018-08-08T11:46:42.000Z</time>
      </trkpt>
      <trkpt lat="42.70915" lon="0.66744">
        <ele>1583.6</ele>
        <time>2018-08-08T11:46:43.000Z</time>
      </trkpt>
      <trkpt lat="42.70915" lon="0.66744">
        <ele>1583.6</ele>
        <time>2018-08-08T11:46:44.000Z</time>
      </trkpt>
      <trkpt lat="42.70915" lon="0.66744">
        <ele>1583.6</ele>
        <time>2018-08-08T11:46:45.000Z</time>
      </trkpt>
      <trkpt lat="42.70915" lon="0.66744">
        <ele>1583.6</ele>
        <time>2018-08-08T11:46:46.000Z</time>
      </trkpt>
      <trkpt lat="42.70915" lon="0.66744">
        <ele>1583.6</ele>
        <time>2018-08-08T11:46:47.000Z</time>
      </trkpt>
      <trkpt lat="42.70915" lon="0.66744">
        <ele>1583.6</ele>
        <time>2018-08-08T11:46:48.000Z</time>
      </trkpt>
      <trkpt lat="42.70915" lon="0.66744">
        <ele>1583.6</ele>
        <time>2018-08-08T11:46:49.000Z</time>
      </trkpt>
      <trkpt lat="42.70915" lon="0.66744">
        <ele>1583.6</ele>
        <time>2018-08-08T11:46:50.000Z</time>
      </trkpt>
      <trkpt lat="42.70915" lon="0.66744">
        <ele>1583.6</ele>
        <time>2018-08-08T11:46:51.000Z</time>
      </trkpt>
      <trkpt lat="42.70915" lon="0.66744">
        <ele>1583.6</ele>
        <time>2018-08-08T11:46:52.000Z</time>
      </trkpt>
      <trkpt lat="42.70915" lon="0.66744">
        <ele>1583.6</ele>
        <time>2018-08-08T11:46:53.000Z</time>
      </trkpt>
      <trkpt lat="42.70915" lon="0.66744">
        <ele>1583.6</ele>
        <time>2018-08-08T11:46:54.000Z</time>
      </trkpt>
      <trkpt lat="42.70915" lon="0.66744">
        <ele>1583.6</ele>
        <time>2018-08-08T11:46:55.000Z</time>
      </trkpt>
      <trkpt lat="42.70915" lon="0.66744">
        <ele>1583.6</ele>
        <time>2018-08-08T11:46:56.000Z</time>
      </trkpt>
      <trkpt lat="42.70915" lon="0.66744">
        <ele>1583.6</ele>
        <time>2018-08-08T11:46:57.000Z</time>
      </trkpt>
      <trkpt lat="42.70915" lon="0.66744">
        <ele>1583.6</ele>
        <time>2018-08-08T11:46:58.000Z</time>
      </trkpt>
      <trkpt lat="42.70915" lon="0.66744">
        <ele>1583.6</ele>
        <time>2018-08-08T11:46:59.000Z</time>
      </trkpt>
      <trkpt lat="42.70915" lon="0.66744">
        <ele>1583.6</ele>
        <time>2018-08-08T11:47:00.000Z</time>
      </trkpt>
      <trkpt lat="42.70915" lon="0.66744">
        <ele>1583.6</ele>
        <time>2018-08-08T11:47:01.000Z</time>
      </trkpt>
      <trkpt lat="42.70915" lon="0.66744">
        <ele>1583.6</ele>
        <time>2018-08-08T11:47:02.000Z</time>
      </trkpt>
      <trkpt lat="42.70915" lon="0.66744">
        <ele>1583.6</ele>
        <time>2018-08-08T11:47:03.000Z</time>
      </trkpt>
      <trkpt lat="42.70915" lon="0.66744">
        <ele>1583.6</ele>
        <time>2018-08-08T11:47:04.000Z</time>
      </trkpt>
      <trkpt lat="42.70915" lon="0.66744">
        <ele>1583.6</ele>
        <time>2018-08-08T11:47:05.000Z</time>
      </trkpt>
      <trkpt lat="42.70915" lon="0.66744">
        <ele>1583.6</ele>
        <time>2018-08-08T11:47:06.000Z</time>
      </trkpt>
      <trkpt lat="42.70915" lon="0.66744">
        <ele>1583.6</ele>
        <time>2018-08-08T11:47:07.000Z</time>
      </trkpt>
      <trkpt lat="42.70915" lon="0.66744">
        <ele>1583.6</ele>
        <time>2018-08-08T11:47:08.000Z</time>
      </trkpt>
      <trkpt lat="42.70915" lon="0.66744">
        <ele>1583.6</ele>
        <time>2018-08-08T11:47:09.000Z</time>
      </trkpt>
      <trkpt lat="42.70915" lon="0.66744">
        <ele>1583.6</ele>
        <time>2018-08-08T11:47:10.000Z</time>
      </trkpt>
      <trkpt lat="42.70915" lon="0.66744">
        <ele>1583.6</ele>
        <time>2018-08-08T11:47:11.000Z</time>
      </trkpt>
      <trkpt lat="42.70915" lon="0.66744">
        <ele>1583.6</ele>
        <time>2018-08-08T11:47:12.000Z</time>
      </trkpt>
      <trkpt lat="42.70915" lon="0.66744">
        <ele>1583.6</ele>
        <time>2018-08-08T11:47:13.000Z</time>
      </trkpt>
      <trkpt lat="42.70915" lon="0.66744">
        <ele>1583.6</ele>
        <time>2018-08-08T11:47:14.000Z</time>
      </trkpt>
      <trkpt lat="42.70915" lon="0.66744">
        <ele>1583.6</ele>
        <time>2018-08-08T11:47:15.000Z</time>
      </trkpt>
      <trkpt lat="42.70915" lon="0.66744">
        <ele>1583.6</ele>
        <time>2018-08-08T11:47:16.000Z</time>
      </trkpt>
      <trkpt lat="42.70915" lon="0.66744">
        <ele>1583.6</ele>
        <time>2018-08-08T11:47:17.000Z</time>
      </trkpt>
      <trkpt lat="42.70915" lon="0.66744">
        <ele>1583.6</ele>
        <time>2018-08-08T11:47:18.000Z</time>
      </trkpt>
      <trkpt lat="42.70915" lon="0.66744">
        <ele>1583.6</ele>
        <time>2018-08-08T11:47:19.000Z</time>
      </trkpt>
      <trkpt lat="42.70915" lon="0.66744">
        <ele>1583.6</ele>
        <time>2018-08-08T11:47:20.000Z</time>
      </trkpt>
      <trkpt lat="42.70915" lon="0.66744">
        <ele>1583.6</ele>
        <time>2018-08-08T11:47:21.000Z</time>
      </trkpt>
      <trkpt lat="42.70915" lon="0.66744">
        <ele>1583.6</ele>
        <time>2018-08-08T11:47:22.000Z</time>
      </trkpt>
      <trkpt lat="42.70915" lon="0.66744">
        <ele>1583.6</ele>
        <time>2018-08-08T11:47:23.000Z</time>
      </trkpt>
      <trkpt lat="42.70915" lon="0.66744">
        <ele>1583.6</ele>
        <time>2018-08-08T11:47:24.000Z</time>
      </trkpt>
      <trkpt lat="42.70915" lon="0.66744">
        <ele>1583.6</ele>
        <time>2018-08-08T11:47:25.000Z</time>
      </trkpt>
      <trkpt lat="42.70915" lon="0.66744">
        <ele>1583.6</ele>
        <time>2018-08-08T11:47:26.000Z</time>
      </trkpt>
      <trkpt lat="42.70915" lon="0.66744">
        <ele>1583.6</ele>
        <time>2018-08-08T11:47:27.000Z</time>
      </trkpt>
      <trkpt lat="42.70915" lon="0.66744">
        <ele>1583.6</ele>
        <time>2018-08-08T11:47:28.000Z</time>
      </trkpt>
      <trkpt lat="42.70915" lon="0.66744">
        <ele>1583.6</ele>
        <time>2018-08-08T11:47:29.000Z</time>
      </trkpt>
      <trkpt lat="42.70915" lon="0.66744">
        <ele>1583.6</ele>
        <time>2018-08-08T11:47:30.000Z</time>
      </trkpt>
      <trkpt lat="42.70915" lon="0.66744">
        <ele>1583.6</ele>
        <time>2018-08-08T11:47:31.000Z</time>
      </trkpt>
      <trkpt lat="42.70915" lon="0.66744">
        <ele>1583.6</ele>
        <time>2018-08-08T11:47:32.000Z</time>
      </trkpt>
      <trkpt lat="42.70915" lon="0.66744">
        <ele>1583.6</ele>
        <time>2018-08-08T11:47:33.000Z</time>
      </trkpt>
      <trkpt lat="42.70915" lon="0.66744">
        <ele>1583.6</ele>
        <time>2018-08-08T11:47:34.000Z</time>
      </trkpt>
      <trkpt lat="42.70915" lon="0.66744">
        <ele>1583.6</ele>
        <time>2018-08-08T11:47:35.000Z</time>
      </trkpt>
      <trkpt lat="42.70915" lon="0.66744">
        <ele>1583.6</ele>
        <time>2018-08-08T11:47:36.000Z</time>
      </trkpt>
      <trkpt lat="42.70915" lon="0.66744">
        <ele>1583.6</ele>
        <time>2018-08-08T11:47:37.000Z</time>
      </trkpt>
      <trkpt lat="42.70915" lon="0.66744">
        <ele>1583.6</ele>
        <time>2018-08-08T11:47:38.000Z</time>
      </trkpt>
      <trkpt lat="42.70915" lon="0.66744">
        <ele>1583.6</ele>
        <time>2018-08-08T11:47:39.000Z</time>
      </trkpt>
      <trkpt lat="42.70915" lon="0.66744">
        <ele>1583.6</ele>
        <time>2018-08-08T11:47:40.000Z</time>
      </trkpt>
      <trkpt lat="42.70915" lon="0.66744">
        <ele>1583.6</ele>
        <time>2018-08-08T11:47:41.000Z</time>
      </trkpt>
      <trkpt lat="42.70915" lon="0.66744">
        <ele>1583.6</ele>
        <time>2018-08-08T11:47:42.000Z</time>
      </trkpt>
      <trkpt lat="42.70915" lon="0.66744">
        <ele>1583.6</ele>
        <time>2018-08-08T11:47:43.000Z</time>
      </trkpt>
      <trkpt lat="42.70915" lon="0.66744">
        <ele>1583.6</ele>
        <time>2018-08-08T11:47:44.000Z</time>
      </trkpt>
      <trkpt lat="42.70915" lon="0.66744">
        <ele>1583.6</ele>
        <time>2018-08-08T11:47:45.000Z</time>
      </trkpt>
      <trkpt lat="42.70915" lon="0.66744">
        <ele>1583.6</ele>
        <time>2018-08-08T11:47:46.000Z</time>
      </trkpt>
      <trkpt lat="42.70915" lon="0.66744">
        <ele>1583.6</ele>
        <time>2018-08-08T11:47:47.000Z</time>
      </trkpt>
      <trkpt lat="42.70915" lon="0.66744">
        <ele>1583.6</ele>
        <time>2018-08-08T11:47:48.000Z</time>
      </trkpt>
      <trkpt lat="42.70915" lon="0.66744">
        <ele>1583.6</ele>
        <time>2018-08-08T11:47:49.000Z</time>
      </trkpt>
      <trkpt lat="42.70915" lon="0.66744">
        <ele>1583.6</ele>
        <time>2018-08-08T11:47:50.000Z</time>
      </trkpt>
      <trkpt lat="42.70915" lon="0.66744">
        <ele>1583.6</ele>
        <time>2018-08-08T11:47:51.000Z</time>
      </trkpt>
      <trkpt lat="42.70915" lon="0.66744">
        <ele>1583.6</ele>
        <time>2018-08-08T11:47:52.000Z</time>
      </trkpt>
      <trkpt lat="42.70915" lon="0.66744">
        <ele>1583.6</ele>
        <time>2018-08-08T11:47:53.000Z</time>
      </trkpt>
      <trkpt lat="42.70915" lon="0.66744">
        <ele>1583.6</ele>
        <time>2018-08-08T11:47:54.000Z</time>
      </trkpt>
      <trkpt lat="42.70915" lon="0.66744">
        <ele>1583.6</ele>
        <time>2018-08-08T11:47:55.000Z</time>
      </trkpt>
      <trkpt lat="42.70915" lon="0.66744">
        <ele>1583.6</ele>
        <time>2018-08-08T11:47:56.000Z</time>
      </trkpt>
      <trkpt lat="42.70915" lon="0.66744">
        <ele>1583.6</ele>
        <time>2018-08-08T11:47:57.000Z</time>
      </trkpt>
      <trkpt lat="42.70915" lon="0.66744">
        <ele>1583.6</ele>
        <time>2018-08-08T11:47:58.000Z</time>
      </trkpt>
      <trkpt lat="42.70915" lon="0.66744">
        <ele>1583.6</ele>
        <time>2018-08-08T11:47:59.000Z</time>
      </trkpt>
      <trkpt lat="42.70915" lon="0.66744">
        <ele>1583.6</ele>
        <time>2018-08-08T11:48:00.000Z</time>
      </trkpt>
      <trkpt lat="42.70915" lon="0.66744">
        <ele>1583.6</ele>
        <time>2018-08-08T11:48:01.000Z</time>
      </trkpt>
      <trkpt lat="42.70915" lon="0.66744">
        <ele>1583.6</ele>
        <time>2018-08-08T11:48:02.000Z</time>
      </trkpt>
      <trkpt lat="42.70915" lon="0.66744">
        <ele>1583.6</ele>
        <time>2018-08-08T11:48:03.000Z</time>
      </trkpt>
      <trkpt lat="42.70915" lon="0.66744">
        <ele>1583.6</ele>
        <time>2018-08-08T11:48:04.000Z</time>
      </trkpt>
      <trkpt lat="42.70915" lon="0.66744">
        <ele>1583.6</ele>
        <time>2018-08-08T11:48:05.000Z</time>
      </trkpt>
      <trkpt lat="42.70915" lon="0.66744">
        <ele>1583.6</ele>
        <time>2018-08-08T11:48:06.000Z</time>
      </trkpt>
      <trkpt lat="42.70915" lon="0.66744">
        <ele>1583.6</ele>
        <time>2018-08-08T11:48:07.000Z</time>
      </trkpt>
      <trkpt lat="42.70915" lon="0.66744">
        <ele>1583.6</ele>
        <time>2018-08-08T11:48:08.000Z</time>
      </trkpt>
      <trkpt lat="42.70915" lon="0.66744">
        <ele>1583.6</ele>
        <time>2018-08-08T11:48:09.000Z</time>
      </trkpt>
      <trkpt lat="42.70915" lon="0.66744">
        <ele>1583.6</ele>
        <time>2018-08-08T11:48:10.000Z</time>
      </trkpt>
      <trkpt lat="42.70915" lon="0.66744">
        <ele>1583.6</ele>
        <time>2018-08-08T11:48:11.000Z</time>
      </trkpt>
      <trkpt lat="42.70915" lon="0.66744">
        <ele>1583.6</ele>
        <time>2018-08-08T11:48:12.000Z</time>
      </trkpt>
      <trkpt lat="42.70915" lon="0.66744">
        <ele>1583.6</ele>
        <time>2018-08-08T11:48:13.000Z</time>
      </trkpt>
      <trkpt lat="42.70915" lon="0.66744">
        <ele>1583.6</ele>
        <time>2018-08-08T11:48:14.000Z</time>
      </trkpt>
      <trkpt lat="42.70915" lon="0.66744">
        <ele>1583.6</ele>
        <time>2018-08-08T11:48:15.000Z</time>
      </trkpt>
      <trkpt lat="42.70915" lon="0.66744">
        <ele>1583.6</ele>
        <time>2018-08-08T11:48:16.000Z</time>
      </trkpt>
      <trkpt lat="42.70915" lon="0.66744">
        <ele>1583.6</ele>
        <time>2018-08-08T11:48:17.000Z</time>
      </trkpt>
      <trkpt lat="42.70915" lon="0.66744">
        <ele>1583.6</ele>
        <time>2018-08-08T11:48:18.000Z</time>
      </trkpt>
      <trkpt lat="42.70915" lon="0.66744">
        <ele>1583.6</ele>
        <time>2018-08-08T11:48:19.000Z</time>
      </trkpt>
      <trkpt lat="42.70915" lon="0.66744">
        <ele>1583.6</ele>
        <time>2018-08-08T11:48:20.000Z</time>
      </trkpt>
      <trkpt lat="42.70915" lon="0.66744">
        <ele>1583.6</ele>
        <time>2018-08-08T11:48:21.000Z</time>
      </trkpt>
      <trkpt lat="42.70915" lon="0.66744">
        <ele>1583.6</ele>
        <time>2018-08-08T11:48:22.000Z</time>
      </trkpt>
      <trkpt lat="42.70915" lon="0.66744">
        <ele>1583.6</ele>
        <time>2018-08-08T11:48:23.000Z</time>
      </trkpt>
      <trkpt lat="42.70915" lon="0.66744">
        <ele>1583.6</ele>
        <time>2018-08-08T11:48:24.000Z</time>
      </trkpt>
      <trkpt lat="42.70915" lon="0.66744">
        <ele>1583.6</ele>
        <time>2018-08-08T11:48:25.000Z</time>
      </trkpt>
      <trkpt lat="42.70915" lon="0.66744">
        <ele>1583.6</ele>
        <time>2018-08-08T11:48:26.000Z</time>
      </trkpt>
      <trkpt lat="42.70915" lon="0.66744">
        <ele>1583.6</ele>
        <time>2018-08-08T11:48:27.000Z</time>
      </trkpt>
      <trkpt lat="42.70915" lon="0.66744">
        <ele>1583.6</ele>
        <time>2018-08-08T11:48:28.000Z</time>
      </trkpt>
      <trkpt lat="42.70915" lon="0.66744">
        <ele>1583.6</ele>
        <time>2018-08-08T11:48:29.000Z</time>
      </trkpt>
      <trkpt lat="42.70915" lon="0.66744">
        <ele>1583.6</ele>
        <time>2018-08-08T11:48:30.000Z</time>
      </trkpt>
      <trkpt lat="42.70915" lon="0.66744">
        <ele>1583.6</ele>
        <time>2018-08-08T11:48:31.000Z</time>
      </trkpt>
      <trkpt lat="42.70915" lon="0.66744">
        <ele>1583.6</ele>
        <time>2018-08-08T11:48:32.000Z</time>
      </trkpt>
      <trkpt lat="42.70915" lon="0.66744">
        <ele>1583.6</ele>
        <time>2018-08-08T11:48:33.000Z</time>
      </trkpt>
      <trkpt lat="42.70915" lon="0.66744">
        <ele>1583.6</ele>
        <time>2018-08-08T11:48:34.000Z</time>
      </trkpt>
      <trkpt lat="42.70915" lon="0.66744">
        <ele>1583.6</ele>
        <time>2018-08-08T11:48:35.000Z</time>
      </trkpt>
      <trkpt lat="42.70915" lon="0.66744">
        <ele>1583.6</ele>
        <time>2018-08-08T11:48:36.000Z</time>
      </trkpt>
      <trkpt lat="42.70915" lon="0.66744">
        <ele>1583.6</ele>
        <time>2018-08-08T11:48:37.000Z</time>
      </trkpt>
      <trkpt lat="42.70915" lon="0.66744">
        <ele>1583.6</ele>
        <time>2018-08-08T11:48:38.000Z</time>
      </trkpt>
      <trkpt lat="42.70915" lon="0.66744">
        <ele>1583.6</ele>
        <time>2018-08-08T11:48:39.000Z</time>
      </trkpt>
      <trkpt lat="42.70915" lon="0.66744">
        <ele>1583.6</ele>
        <time>2018-08-08T11:48:40.000Z</time>
      </trkpt>
      <trkpt lat="42.70915" lon="0.66744">
        <ele>1583.6</ele>
        <time>2018-08-08T11:48:41.000Z</time>
      </trkpt>
      <trkpt lat="42.70915" lon="0.66744">
        <ele>1583.6</ele>
        <time>2018-08-08T11:48:42.000Z</time>
      </trkpt>
      <trkpt lat="42.70915" lon="0.66744">
        <ele>1583.6</ele>
        <time>2018-08-08T11:48:43.000Z</time>
      </trkpt>
      <trkpt lat="42.70915" lon="0.66744">
        <ele>1583.6</ele>
        <time>2018-08-08T11:48:44.000Z</time>
      </trkpt>
      <trkpt lat="42.70915" lon="0.66744">
        <ele>1583.6</ele>
        <time>2018-08-08T11:48:45.000Z</time>
      </trkpt>
      <trkpt lat="42.70915" lon="0.66744">
        <ele>1583.6</ele>
        <time>2018-08-08T11:48:46.000Z</time>
      </trkpt>
      <trkpt lat="42.70915" lon="0.66744">
        <ele>1583.6</ele>
        <time>2018-08-08T11:48:47.000Z</time>
      </trkpt>
      <trkpt lat="42.70915" lon="0.66744">
        <ele>1583.6</ele>
        <time>2018-08-08T11:48:48.000Z</time>
      </trkpt>
      <trkpt lat="42.70915" lon="0.66744">
        <ele>1583.6</ele>
        <time>2018-08-08T11:48:49.000Z</time>
      </trkpt>
      <trkpt lat="42.70915" lon="0.66744">
        <ele>1583.6</ele>
        <time>2018-08-08T11:48:50.000Z</time>
      </trkpt>
      <trkpt lat="42.70915" lon="0.66744">
        <ele>1583.6</ele>
        <time>2018-08-08T11:48:51.000Z</time>
      </trkpt>
      <trkpt lat="42.70915" lon="0.66744">
        <ele>1583.6</ele>
        <time>2018-08-08T11:48:52.000Z</time>
      </trkpt>
      <trkpt lat="42.70915" lon="0.66744">
        <ele>1583.6</ele>
        <time>2018-08-08T11:48:53.000Z</time>
      </trkpt>
      <trkpt lat="42.70915" lon="0.66744">
        <ele>1583.6</ele>
        <time>2018-08-08T11:48:54.000Z</time>
      </trkpt>
      <trkpt lat="42.70915" lon="0.66744">
        <ele>1583.6</ele>
        <time>2018-08-08T11:48:55.000Z</time>
      </trkpt>
      <trkpt lat="42.70915" lon="0.66744">
        <ele>1583.6</ele>
        <time>2018-08-08T11:48:56.000Z</time>
      </trkpt>
      <trkpt lat="42.70915" lon="0.66744">
        <ele>1583.6</ele>
        <time>2018-08-08T11:48:57.000Z</time>
      </trkpt>
      <trkpt lat="42.70915" lon="0.66744">
        <ele>1583.6</ele>
        <time>2018-08-08T11:48:58.000Z</time>
      </trkpt>
      <trkpt lat="42.70915" lon="0.66744">
        <ele>1583.6</ele>
        <time>2018-08-08T11:48:59.000Z</time>
      </trkpt>
      <trkpt lat="42.70915" lon="0.66744">
        <ele>1583.6</ele>
        <time>2018-08-08T11:49:00.000Z</time>
      </trkpt>
      <trkpt lat="42.70915" lon="0.66744">
        <ele>1583.6</ele>
        <time>2018-08-08T11:49:01.000Z</time>
      </trkpt>
      <trkpt lat="42.70915" lon="0.66744">
        <ele>1583.6</ele>
        <time>2018-08-08T11:49:02.000Z</time>
      </trkpt>
      <trkpt lat="42.70915" lon="0.66744">
        <ele>1583.6</ele>
        <time>2018-08-08T11:49:03.000Z</time>
      </trkpt>
      <trkpt lat="42.70915" lon="0.66744">
        <ele>1583.6</ele>
        <time>2018-08-08T11:49:04.000Z</time>
      </trkpt>
      <trkpt lat="42.70915" lon="0.66744">
        <ele>1583.6</ele>
        <time>2018-08-08T11:49:05.000Z</time>
      </trkpt>
      <trkpt lat="42.70915" lon="0.66744">
        <ele>1583.6</ele>
        <time>2018-08-08T11:49:06.000Z</time>
      </trkpt>
      <trkpt lat="42.70915" lon="0.66744">
        <ele>1583.6</ele>
        <time>2018-08-08T11:49:07.000Z</time>
      </trkpt>
      <trkpt lat="42.70915" lon="0.66744">
        <ele>1583.6</ele>
        <time>2018-08-08T11:49:08.000Z</time>
      </trkpt>
      <trkpt lat="42.70915" lon="0.66744">
        <ele>1583.6</ele>
        <time>2018-08-08T11:49:09.000Z</time>
      </trkpt>
      <trkpt lat="42.70915" lon="0.66744">
        <ele>1583.6</ele>
        <time>2018-08-08T11:49:10.000Z</time>
      </trkpt>
      <trkpt lat="42.70915" lon="0.66744">
        <ele>1583.6</ele>
        <time>2018-08-08T11:49:11.000Z</time>
      </trkpt>
      <trkpt lat="42.70915" lon="0.66744">
        <ele>1583.6</ele>
        <time>2018-08-08T11:49:12.000Z</time>
      </trkpt>
      <trkpt lat="42.70915" lon="0.66744">
        <ele>1583.6</ele>
        <time>2018-08-08T11:49:13.000Z</time>
      </trkpt>
      <trkpt lat="42.70915" lon="0.66744">
        <ele>1583.6</ele>
        <time>2018-08-08T11:49:14.000Z</time>
      </trkpt>
      <trkpt lat="42.70915" lon="0.66744">
        <ele>1583.6</ele>
        <time>2018-08-08T11:49:15.000Z</time>
      </trkpt>
      <trkpt lat="42.70915" lon="0.66744">
        <ele>1583.6</ele>
        <time>2018-08-08T11:49:16.000Z</time>
      </trkpt>
      <trkpt lat="42.70915" lon="0.66744">
        <ele>1583.6</ele>
        <time>2018-08-08T11:49:17.000Z</time>
      </trkpt>
      <trkpt lat="42.70915" lon="0.66744">
        <ele>1583.6</ele>
        <time>2018-08-08T11:49:18.000Z</time>
      </trkpt>
      <trkpt lat="42.70915" lon="0.66744">
        <ele>1583.6</ele>
        <time>2018-08-08T11:49:19.000Z</time>
      </trkpt>
      <trkpt lat="42.70915" lon="0.66744">
        <ele>1583.6</ele>
        <time>2018-08-08T11:49:20.000Z</time>
      </trkpt>
      <trkpt lat="42.70915" lon="0.66744">
        <ele>1583.6</ele>
        <time>2018-08-08T11:49:21.000Z</time>
      </trkpt>
      <trkpt lat="42.70915" lon="0.66744">
        <ele>1583.6</ele>
        <time>2018-08-08T11:49:22.000Z</time>
      </trkpt>
      <trkpt lat="42.70915" lon="0.66744">
        <ele>1583.6</ele>
        <time>2018-08-08T11:49:23.000Z</time>
      </trkpt>
      <trkpt lat="42.70915" lon="0.66744">
        <ele>1583.6</ele>
        <time>2018-08-08T11:49:24.000Z</time>
      </trkpt>
      <trkpt lat="42.70915" lon="0.66744">
        <ele>1583.6</ele>
        <time>2018-08-08T11:49:25.000Z</time>
      </trkpt>
      <trkpt lat="42.70915" lon="0.66744">
        <ele>1583.6</ele>
        <time>2018-08-08T11:49:26.000Z</time>
      </trkpt>
      <trkpt lat="42.70915" lon="0.66744">
        <ele>1583.6</ele>
        <time>2018-08-08T11:49:27.000Z</time>
      </trkpt>
      <trkpt lat="42.70915" lon="0.66744">
        <ele>1583.6</ele>
        <time>2018-08-08T11:49:28.000Z</time>
      </trkpt>
      <trkpt lat="42.70915" lon="0.66744">
        <ele>1583.6</ele>
        <time>2018-08-08T11:49:29.000Z</time>
      </trkpt>
      <trkpt lat="42.70915" lon="0.66744">
        <ele>1583.6</ele>
        <time>2018-08-08T11:49:30.000Z</time>
      </trkpt>
      <trkpt lat="42.70915" lon="0.66744">
        <ele>1583.6</ele>
        <time>2018-08-08T11:49:31.000Z</time>
      </trkpt>
      <trkpt lat="42.70915" lon="0.66744">
        <ele>1583.6</ele>
        <time>2018-08-08T11:49:32.000Z</time>
      </trkpt>
      <trkpt lat="42.70915" lon="0.66744">
        <ele>1583.6</ele>
        <time>2018-08-08T11:49:33.000Z</time>
      </trkpt>
      <trkpt lat="42.70915" lon="0.66744">
        <ele>1583.6</ele>
        <time>2018-08-08T11:49:34.000Z</time>
      </trkpt>
      <trkpt lat="42.70915" lon="0.66744">
        <ele>1583.6</ele>
        <time>2018-08-08T11:49:35.000Z</time>
      </trkpt>
      <trkpt lat="42.70915" lon="0.66744">
        <ele>1583.6</ele>
        <time>2018-08-08T11:49:36.000Z</time>
      </trkpt>
      <trkpt lat="42.70915" lon="0.66744">
        <ele>1583.6</ele>
        <time>2018-08-08T11:49:37.000Z</time>
      </trkpt>
      <trkpt lat="42.70915" lon="0.66744">
        <ele>1583.6</ele>
        <time>2018-08-08T11:49:38.000Z</time>
      </trkpt>
      <trkpt lat="42.70915" lon="0.66744">
        <ele>1583.6</ele>
        <time>2018-08-08T11:49:39.000Z</time>
      </trkpt>
      <trkpt lat="42.70915" lon="0.66744">
        <ele>1583.6</ele>
        <time>2018-08-08T11:49:40.000Z</time>
      </trkpt>
      <trkpt lat="42.70915" lon="0.66744">
        <ele>1583.6</ele>
        <time>2018-08-08T11:49:41.000Z</time>
      </trkpt>
      <trkpt lat="42.70915" lon="0.66744">
        <ele>1583.6</ele>
        <time>2018-08-08T11:49:42.000Z</time>
      </trkpt>
      <trkpt lat="42.70915" lon="0.66744">
        <ele>1583.6</ele>
        <time>2018-08-08T11:49:43.000Z</time>
      </trkpt>
      <trkpt lat="42.70915" lon="0.66744">
        <ele>1583.6</ele>
        <time>2018-08-08T11:49:44.000Z</time>
      </trkpt>
      <trkpt lat="42.70915" lon="0.66744">
        <ele>1583.6</ele>
        <time>2018-08-08T11:49:45.000Z</time>
      </trkpt>
      <trkpt lat="42.70915" lon="0.66744">
        <ele>1583.6</ele>
        <time>2018-08-08T11:49:46.000Z</time>
      </trkpt>
      <trkpt lat="42.70915" lon="0.66744">
        <ele>1583.6</ele>
        <time>2018-08-08T11:49:47.000Z</time>
      </trkpt>
      <trkpt lat="42.70915" lon="0.66744">
        <ele>1583.6</ele>
        <time>2018-08-08T11:49:48.000Z</time>
      </trkpt>
      <trkpt lat="42.70915" lon="0.66744">
        <ele>1583.6</ele>
        <time>2018-08-08T11:49:49.000Z</time>
      </trkpt>
      <trkpt lat="42.70915" lon="0.66744">
        <ele>1583.6</ele>
        <time>2018-08-08T11:49:50.000Z</time>
      </trkpt>
      <trkpt lat="42.70915" lon="0.66744">
        <ele>1583.6</ele>
        <time>2018-08-08T11:49:51.000Z</time>
      </trkpt>
      <trkpt lat="42.70915" lon="0.66744">
        <ele>1583.6</ele>
        <time>2018-08-08T11:49:52.000Z</time>
      </trkpt>
      <trkpt lat="42.70915" lon="0.66744">
        <ele>1583.6</ele>
        <time>2018-08-08T11:49:53.000Z</time>
      </trkpt>
      <trkpt lat="42.70915" lon="0.66744">
        <ele>1583.6</ele>
        <time>2018-08-08T11:49:54.000Z</time>
      </trkpt>
      <trkpt lat="42.70915" lon="0.66744">
        <ele>1583.6</ele>
        <time>2018-08-08T11:49:55.000Z</time>
      </trkpt>
      <trkpt lat="42.70915" lon="0.66744">
        <ele>1583.6</ele>
        <time>2018-08-08T11:49:56.000Z</time>
      </trkpt>
      <trkpt lat="42.70915" lon="0.66744">
        <ele>1583.6</ele>
        <time>2018-08-08T11:49:57.000Z</time>
      </trkpt>
      <trkpt lat="42.70915" lon="0.66744">
        <ele>1583.6</ele>
        <time>2018-08-08T11:49:58.000Z</time>
      </trkpt>
      <trkpt lat="42.70915" lon="0.66744">
        <ele>1583.6</ele>
        <time>2018-08-08T11:49:59.000Z</time>
      </trkpt>
      <trkpt lat="42.70915" lon="0.66744">
        <ele>1583.6</ele>
        <time>2018-08-08T11:50:00.000Z</time>
      </trkpt>
      <trkpt lat="42.70915" lon="0.66744">
        <ele>1583.6</ele>
        <time>2018-08-08T11:50:01.000Z</time>
      </trkpt>
      <trkpt lat="42.70915" lon="0.66744">
        <ele>1583.6</ele>
        <time>2018-08-08T11:50:02.000Z</time>
      </trkpt>
      <trkpt lat="42.70915" lon="0.66744">
        <ele>1583.6</ele>
        <time>2018-08-08T11:50:03.000Z</time>
      </trkpt>
      <trkpt lat="42.70915" lon="0.66744">
        <ele>1583.6</ele>
        <time>2018-08-08T11:50:04.000Z</time>
      </trkpt>
      <trkpt lat="42.70915" lon="0.66744">
        <ele>1583.6</ele>
        <time>2018-08-08T11:50:05.000Z</time>
      </trkpt>
      <trkpt lat="42.70915" lon="0.66744">
        <ele>1583.6</ele>
        <time>2018-08-08T11:50:06.000Z</time>
      </trkpt>
      <trkpt lat="42.70915" lon="0.66744">
        <ele>1583.6</ele>
        <time>2018-08-08T11:50:07.000Z</time>
      </trkpt>
      <trkpt lat="42.70915" lon="0.66744">
        <ele>1583.6</ele>
        <time>2018-08-08T11:50:08.000Z</time>
      </trkpt>
      <trkpt lat="42.70915" lon="0.66744">
        <ele>1583.6</ele>
        <time>2018-08-08T11:50:09.000Z</time>
      </trkpt>
      <trkpt lat="42.70915" lon="0.66744">
        <ele>1583.6</ele>
        <time>2018-08-08T11:50:10.000Z</time>
      </trkpt>
      <trkpt lat="42.70915" lon="0.66744">
        <ele>1583.5</ele>
        <time>2018-08-08T11:50:11.000Z</time>
      </trkpt>
      <trkpt lat="42.70916" lon="0.66744">
        <ele>1583.5</ele>
        <time>2018-08-08T11:50:12.000Z</time>
      </trkpt>
      <trkpt lat="42.70916" lon="0.66744">
        <ele>1583.4</ele>
        <time>2018-08-08T11:50:13.000Z</time>
      </trkpt>
      <trkpt lat="42.70917" lon="0.66744">
        <ele>1583.1</ele>
        <time>2018-08-08T11:50:14.000Z</time>
      </trkpt>
      <trkpt lat="42.70918" lon="0.66745">
        <ele>1582.9</ele>
        <time>2018-08-08T11:50:15.000Z</time>
      </trkpt>
      <trkpt lat="42.70918" lon="0.66745">
        <ele>1582.7</ele>
        <time>2018-08-08T11:50:16.000Z</time>
      </trkpt>
      <trkpt lat="42.70919" lon="0.66745">
        <ele>1582.6</ele>
        <time>2018-08-08T11:50:17.000Z</time>
      </trkpt>
      <trkpt lat="42.70919" lon="0.66746">
        <ele>1582.4</ele>
        <time>2018-08-08T11:50:18.000Z</time>
      </trkpt>
      <trkpt lat="42.70919" lon="0.66746">
        <ele>1582.4</ele>
        <time>2018-08-08T11:50:19.000Z</time>
      </trkpt>
      <trkpt lat="42.70919" lon="0.66746">
        <ele>1582.3</ele>
        <time>2018-08-08T11:50:20.000Z</time>
      </trkpt>
      <trkpt lat="42.70919" lon="0.66746">
        <ele>1582.3</ele>
        <time>2018-08-08T11:50:21.000Z</time>
      </trkpt>
      <trkpt lat="42.70919" lon="0.66746">
        <ele>1582.3</ele>
        <time>2018-08-08T11:50:22.000Z</time>
      </trkpt>
      <trkpt lat="42.70919" lon="0.66746">
        <ele>1582.2</ele>
        <time>2018-08-08T11:50:23.000Z</time>
      </trkpt>
      <trkpt lat="42.70919" lon="0.66746">
        <ele>1582.3</ele>
        <time>2018-08-08T11:50:24.000Z</time>
      </trkpt>
      <trkpt lat="42.70919" lon="0.66746">
        <ele>1582.3</ele>
        <time>2018-08-08T11:50:25.000Z</time>
      </trkpt>
      <trkpt lat="42.70919" lon="0.66746">
        <ele>1582.3</ele>
        <time>2018-08-08T11:50:26.000Z</time>
      </trkpt>
      <trkpt lat="42.70919" lon="0.66746">
        <ele>1582.3</ele>
        <time>2018-08-08T11:50:27.000Z</time>
      </trkpt>
      <trkpt lat="42.70919" lon="0.66746">
        <ele>1582.3</ele>
        <time>2018-08-08T11:50:28.000Z</time>
      </trkpt>
      <trkpt lat="42.70919" lon="0.66746">
        <ele>1582.3</ele>
        <time>2018-08-08T11:50:29.000Z</time>
      </trkpt>
      <trkpt lat="42.70919" lon="0.66746">
        <ele>1582.3</ele>
        <time>2018-08-08T11:50:30.000Z</time>
      </trkpt>
      <trkpt lat="42.70919" lon="0.66746">
        <ele>1582.3</ele>
        <time>2018-08-08T11:50:31.000Z</time>
      </trkpt>
      <trkpt lat="42.70919" lon="0.66746">
        <ele>1582.3</ele>
        <time>2018-08-08T11:50:32.000Z</time>
      </trkpt>
      <trkpt lat="42.70919" lon="0.66746">
        <ele>1582.3</ele>
        <time>2018-08-08T11:50:33.000Z</time>
      </trkpt>
      <trkpt lat="42.70919" lon="0.66746">
        <ele>1582.3</ele>
        <time>2018-08-08T11:50:34.000Z</time>
      </trkpt>
      <trkpt lat="42.70919" lon="0.66746">
        <ele>1582.3</ele>
        <time>2018-08-08T11:50:35.000Z</time>
      </trkpt>
      <trkpt lat="42.70919" lon="0.66746">
        <ele>1582.2</ele>
        <time>2018-08-08T11:50:36.000Z</time>
      </trkpt>
      <trkpt lat="42.70919" lon="0.66746">
        <ele>1582.2</ele>
        <time>2018-08-08T11:50:37.000Z</time>
      </trkpt>
      <trkpt lat="42.70919" lon="0.66746">
        <ele>1582.2</ele>
        <time>2018-08-08T11:50:38.000Z</time>
      </trkpt>
      <trkpt lat="42.70919" lon="0.66746">
        <ele>1582.2</ele>
        <time>2018-08-08T11:50:39.000Z</time>
      </trkpt>
      <trkpt lat="42.70919" lon="0.66746">
        <ele>1582.2</ele>
        <time>2018-08-08T11:50:40.000Z</time>
      </trkpt>
      <trkpt lat="42.70919" lon="0.66746">
        <ele>1582.2</ele>
        <time>2018-08-08T11:50:41.000Z</time>
      </trkpt>
      <trkpt lat="42.70919" lon="0.66746">
        <ele>1582.2</ele>
        <time>2018-08-08T11:50:42.000Z</time>
      </trkpt>
      <trkpt lat="42.70919" lon="0.66746">
        <ele>1582.2</ele>
        <time>2018-08-08T11:50:43.000Z</time>
      </trkpt>
      <trkpt lat="42.70919" lon="0.66746">
        <ele>1582.2</ele>
        <time>2018-08-08T11:50:44.000Z</time>
      </trkpt>
      <trkpt lat="42.70919" lon="0.66746">
        <ele>1582.2</ele>
        <time>2018-08-08T11:50:45.000Z</time>
      </trkpt>
      <trkpt lat="42.70919" lon="0.66746">
        <ele>1582.2</ele>
        <time>2018-08-08T11:50:46.000Z</time>
      </trkpt>
      <trkpt lat="42.70919" lon="0.66746">
        <ele>1582.2</ele>
        <time>2018-08-08T11:50:47.000Z</time>
      </trkpt>
      <trkpt lat="42.70919" lon="0.66746">
        <ele>1582.2</ele>
        <time>2018-08-08T11:50:48.000Z</time>
      </trkpt>
      <trkpt lat="42.70919" lon="0.66746">
        <ele>1582.2</ele>
        <time>2018-08-08T11:50:49.000Z</time>
      </trkpt>
      <trkpt lat="42.70919" lon="0.66746">
        <ele>1582.2</ele>
        <time>2018-08-08T11:50:50.000Z</time>
      </trkpt>
      <trkpt lat="42.70919" lon="0.66746">
        <ele>1582.2</ele>
        <time>2018-08-08T11:50:51.000Z</time>
      </trkpt>
      <trkpt lat="42.70919" lon="0.66746">
        <ele>1582.2</ele>
        <time>2018-08-08T11:50:52.000Z</time>
      </trkpt>
      <trkpt lat="42.70919" lon="0.66746">
        <ele>1582.2</ele>
        <time>2018-08-08T11:50:53.000Z</time>
      </trkpt>
      <trkpt lat="42.70919" lon="0.66746">
        <ele>1582.2</ele>
        <time>2018-08-08T11:50:54.000Z</time>
      </trkpt>
      <trkpt lat="42.70919" lon="0.66746">
        <ele>1582.2</ele>
        <time>2018-08-08T11:50:55.000Z</time>
      </trkpt>
      <trkpt lat="42.70919" lon="0.66746">
        <ele>1582.2</ele>
        <time>2018-08-08T11:50:56.000Z</time>
      </trkpt>
      <trkpt lat="42.70919" lon="0.66746">
        <ele>1582.2</ele>
        <time>2018-08-08T11:50:57.000Z</time>
      </trkpt>
      <trkpt lat="42.70919" lon="0.66746">
        <ele>1582.2</ele>
        <time>2018-08-08T11:50:58.000Z</time>
      </trkpt>
      <trkpt lat="42.70919" lon="0.66746">
        <ele>1582.2</ele>
        <time>2018-08-08T11:50:59.000Z</time>
      </trkpt>
      <trkpt lat="42.70919" lon="0.66746">
        <ele>1582.2</ele>
        <time>2018-08-08T11:51:00.000Z</time>
      </trkpt>
      <trkpt lat="42.70919" lon="0.66746">
        <ele>1582.2</ele>
        <time>2018-08-08T11:51:01.000Z</time>
      </trkpt>
      <trkpt lat="42.70919" lon="0.66746">
        <ele>1582.2</ele>
        <time>2018-08-08T11:51:02.000Z</time>
      </trkpt>
      <trkpt lat="42.70919" lon="0.66746">
        <ele>1582.2</ele>
        <time>2018-08-08T11:51:03.000Z</time>
      </trkpt>
      <trkpt lat="42.70919" lon="0.66746">
        <ele>1582.2</ele>
        <time>2018-08-08T11:51:04.000Z</time>
      </trkpt>
      <trkpt lat="42.70919" lon="0.66746">
        <ele>1582.2</ele>
        <time>2018-08-08T11:51:05.000Z</time>
      </trkpt>
      <trkpt lat="42.70919" lon="0.66746">
        <ele>1582.2</ele>
        <time>2018-08-08T11:51:06.000Z</time>
      </trkpt>
      <trkpt lat="42.70919" lon="0.66746">
        <ele>1582.2</ele>
        <time>2018-08-08T11:51:07.000Z</time>
      </trkpt>
      <trkpt lat="42.70919" lon="0.66746">
        <ele>1582.2</ele>
        <time>2018-08-08T11:51:08.000Z</time>
      </trkpt>
      <trkpt lat="42.70919" lon="0.66746">
        <ele>1582.2</ele>
        <time>2018-08-08T11:51:09.000Z</time>
      </trkpt>
      <trkpt lat="42.70919" lon="0.66746">
        <ele>1582.2</ele>
        <time>2018-08-08T11:51:10.000Z</time>
      </trkpt>
      <trkpt lat="42.70919" lon="0.66746">
        <ele>1582.2</ele>
        <time>2018-08-08T11:51:11.000Z</time>
      </trkpt>
      <trkpt lat="42.70919" lon="0.66746">
        <ele>1582.2</ele>
        <time>2018-08-08T11:51:12.000Z</time>
      </trkpt>
      <trkpt lat="42.70919" lon="0.66746">
        <ele>1582.2</ele>
        <time>2018-08-08T11:51:13.000Z</time>
      </trkpt>
      <trkpt lat="42.70919" lon="0.66746">
        <ele>1582.2</ele>
        <time>2018-08-08T11:51:14.000Z</time>
      </trkpt>
      <trkpt lat="42.70919" lon="0.66746">
        <ele>1582.2</ele>
        <time>2018-08-08T11:51:15.000Z</time>
      </trkpt>
      <trkpt lat="42.70919" lon="0.66746">
        <ele>1582.2</ele>
        <time>2018-08-08T11:51:16.000Z</time>
      </trkpt>
      <trkpt lat="42.70919" lon="0.66746">
        <ele>1582.2</ele>
        <time>2018-08-08T11:51:17.000Z</time>
      </trkpt>
      <trkpt lat="42.70919" lon="0.66746">
        <ele>1582.2</ele>
        <time>2018-08-08T11:51:18.000Z</time>
      </trkpt>
      <trkpt lat="42.70919" lon="0.66746">
        <ele>1582.2</ele>
        <time>2018-08-08T11:51:19.000Z</time>
      </trkpt>
      <trkpt lat="42.70919" lon="0.66746">
        <ele>1582.3</ele>
        <time>2018-08-08T11:51:20.000Z</time>
      </trkpt>
      <trkpt lat="42.70919" lon="0.66746">
        <ele>1582.3</ele>
        <time>2018-08-08T11:51:21.000Z</time>
      </trkpt>
      <trkpt lat="42.70919" lon="0.66746">
        <ele>1582.3</ele>
        <time>2018-08-08T11:51:22.000Z</time>
      </trkpt>
      <trkpt lat="42.70919" lon="0.66746">
        <ele>1582.3</ele>
        <time>2018-08-08T11:51:23.000Z</time>
      </trkpt>
      <trkpt lat="42.70919" lon="0.66746">
        <ele>1582.3</ele>
        <time>2018-08-08T11:51:24.000Z</time>
      </trkpt>
      <trkpt lat="42.70919" lon="0.66746">
        <ele>1582.3</ele>
        <time>2018-08-08T11:51:25.000Z</time>
      </trkpt>
      <trkpt lat="42.70919" lon="0.66746">
        <ele>1582.3</ele>
        <time>2018-08-08T11:51:26.000Z</time>
      </trkpt>
      <trkpt lat="42.70919" lon="0.66746">
        <ele>1582.3</ele>
        <time>2018-08-08T11:51:27.000Z</time>
      </trkpt>
      <trkpt lat="42.70919" lon="0.66746">
        <ele>1582.3</ele>
        <time>2018-08-08T11:51:28.000Z</time>
      </trkpt>
      <trkpt lat="42.70919" lon="0.66746">
        <ele>1582.3</ele>
        <time>2018-08-08T11:51:29.000Z</time>
      </trkpt>
      <trkpt lat="42.70919" lon="0.66746">
        <ele>1582.3</ele>
        <time>2018-08-08T11:51:30.000Z</time>
      </trkpt>
      <trkpt lat="42.70919" lon="0.66746">
        <ele>1582.3</ele>
        <time>2018-08-08T11:51:31.000Z</time>
      </trkpt>
      <trkpt lat="42.70919" lon="0.66746">
        <ele>1582.3</ele>
        <time>2018-08-08T11:51:32.000Z</time>
      </trkpt>
      <trkpt lat="42.70919" lon="0.66746">
        <ele>1582.2</ele>
        <time>2018-08-08T11:51:33.000Z</time>
      </trkpt>
      <trkpt lat="42.70919" lon="0.66746">
        <ele>1582.2</ele>
        <time>2018-08-08T11:51:34.000Z</time>
      </trkpt>
      <trkpt lat="42.70919" lon="0.66746">
        <ele>1582.2</ele>
        <time>2018-08-08T11:51:35.000Z</time>
      </trkpt>
      <trkpt lat="42.70919" lon="0.66746">
        <ele>1582.2</ele>
        <time>2018-08-08T11:51:36.000Z</time>
      </trkpt>
      <trkpt lat="42.70919" lon="0.66746">
        <ele>1582.2</ele>
        <time>2018-08-08T11:51:37.000Z</time>
      </trkpt>
      <trkpt lat="42.70918" lon="0.66746">
        <ele>1582.3</ele>
        <time>2018-08-08T11:51:38.000Z</time>
      </trkpt>
      <trkpt lat="42.70918" lon="0.66746">
        <ele>1582.6</ele>
        <time>2018-08-08T11:51:39.000Z</time>
      </trkpt>
      <trkpt lat="42.70916" lon="0.66745">
        <ele>1583</ele>
        <time>2018-08-08T11:51:40.000Z</time>
      </trkpt>
      <trkpt lat="42.70916" lon="0.66745">
        <ele>1583.2</ele>
        <time>2018-08-08T11:51:41.000Z</time>
      </trkpt>
      <trkpt lat="42.70915" lon="0.66745">
        <ele>1583.3</ele>
        <time>2018-08-08T11:51:42.000Z</time>
      </trkpt>
      <trkpt lat="42.70915" lon="0.66745">
        <ele>1583.4</ele>
        <time>2018-08-08T11:51:43.000Z</time>
      </trkpt>
      <trkpt lat="42.70915" lon="0.66744">
        <ele>1583.5</ele>
        <time>2018-08-08T11:51:44.000Z</time>
      </trkpt>
      <trkpt lat="42.70915" lon="0.66744">
        <ele>1583.5</ele>
        <time>2018-08-08T11:51:45.000Z</time>
      </trkpt>
      <trkpt lat="42.70915" lon="0.66744">
        <ele>1583.5</ele>
        <time>2018-08-08T11:51:46.000Z</time>
      </trkpt>
      <trkpt lat="42.70915" lon="0.66744">
        <ele>1583.6</ele>
        <time>2018-08-08T11:51:47.000Z</time>
      </trkpt>
      <trkpt lat="42.70915" lon="0.66744">
        <ele>1583.6</ele>
        <time>2018-08-08T11:51:48.000Z</time>
      </trkpt>
      <trkpt lat="42.70915" lon="0.66744">
        <ele>1583.6</ele>
        <time>2018-08-08T11:51:49.000Z</time>
      </trkpt>
      <trkpt lat="42.70915" lon="0.66744">
        <ele>1583.6</ele>
        <time>2018-08-08T11:51:50.000Z</time>
      </trkpt>
      <trkpt lat="42.70915" lon="0.66744">
        <ele>1583.6</ele>
        <time>2018-08-08T11:51:51.000Z</time>
      </trkpt>
      <trkpt lat="42.70915" lon="0.66744">
        <ele>1583.6</ele>
        <time>2018-08-08T11:51:52.000Z</time>
      </trkpt>
      <trkpt lat="42.70915" lon="0.66744">
        <ele>1583.6</ele>
        <time>2018-08-08T11:51:53.000Z</time>
      </trkpt>
      <trkpt lat="42.70915" lon="0.66744">
        <ele>1583.6</ele>
        <time>2018-08-08T11:51:54.000Z</time>
      </trkpt>
      <trkpt lat="42.70915" lon="0.66744">
        <ele>1583.6</ele>
        <time>2018-08-08T11:51:55.000Z</time>
      </trkpt>
      <trkpt lat="42.70915" lon="0.66744">
        <ele>1583.6</ele>
        <time>2018-08-08T11:51:56.000Z</time>
      </trkpt>
      <trkpt lat="42.70915" lon="0.66744">
        <ele>1583.6</ele>
        <time>2018-08-08T11:51:57.000Z</time>
      </trkpt>
      <trkpt lat="42.70915" lon="0.66744">
        <ele>1583.6</ele>
        <time>2018-08-08T11:51:58.000Z</time>
      </trkpt>
      <trkpt lat="42.70915" lon="0.66744">
        <ele>1583.6</ele>
        <time>2018-08-08T11:51:59.000Z</time>
      </trkpt>
      <trkpt lat="42.70915" lon="0.66744">
        <ele>1583.6</ele>
        <time>2018-08-08T11:52:00.000Z</time>
      </trkpt>
      <trkpt lat="42.70915" lon="0.66744">
        <ele>1583.6</ele>
        <time>2018-08-08T11:52:01.000Z</time>
      </trkpt>
      <trkpt lat="42.70915" lon="0.66744">
        <ele>1583.6</ele>
        <time>2018-08-08T11:52:02.000Z</time>
      </trkpt>
      <trkpt lat="42.70915" lon="0.66744">
        <ele>1583.6</ele>
        <time>2018-08-08T11:52:03.000Z</time>
      </trkpt>
      <trkpt lat="42.70915" lon="0.66744">
        <ele>1583.6</ele>
        <time>2018-08-08T11:52:04.000Z</time>
      </trkpt>
      <trkpt lat="42.70915" lon="0.66744">
        <ele>1583.6</ele>
        <time>2018-08-08T11:52:05.000Z</time>
      </trkpt>
      <trkpt lat="42.70915" lon="0.66744">
        <ele>1583.6</ele>
        <time>2018-08-08T11:52:06.000Z</time>
      </trkpt>
      <trkpt lat="42.70915" lon="0.66744">
        <ele>1583.6</ele>
        <time>2018-08-08T11:52:07.000Z</time>
      </trkpt>
      <trkpt lat="42.70915" lon="0.66744">
        <ele>1583.6</ele>
        <time>2018-08-08T11:52:08.000Z</time>
      </trkpt>
      <trkpt lat="42.70915" lon="0.66744">
        <ele>1583.6</ele>
        <time>2018-08-08T11:52:09.000Z</time>
      </trkpt>
      <trkpt lat="42.70915" lon="0.66744">
        <ele>1583.6</ele>
        <time>2018-08-08T11:52:10.000Z</time>
      </trkpt>
      <trkpt lat="42.70915" lon="0.66744">
        <ele>1583.6</ele>
        <time>2018-08-08T11:52:11.000Z</time>
      </trkpt>
      <trkpt lat="42.70915" lon="0.66744">
        <ele>1583.6</ele>
        <time>2018-08-08T11:52:12.000Z</time>
      </trkpt>
      <trkpt lat="42.70915" lon="0.66744">
        <ele>1583.6</ele>
        <time>2018-08-08T11:52:13.000Z</time>
      </trkpt>
      <trkpt lat="42.70915" lon="0.66744">
        <ele>1583.6</ele>
        <time>2018-08-08T11:52:14.000Z</time>
      </trkpt>
      <trkpt lat="42.70915" lon="0.66744">
        <ele>1583.6</ele>
        <time>2018-08-08T11:52:15.000Z</time>
      </trkpt>
      <trkpt lat="42.70915" lon="0.66744">
        <ele>1583.6</ele>
        <time>2018-08-08T11:52:16.000Z</time>
      </trkpt>
      <trkpt lat="42.70915" lon="0.66744">
        <ele>1583.6</ele>
        <time>2018-08-08T11:52:17.000Z</time>
      </trkpt>
      <trkpt lat="42.70915" lon="0.66744">
        <ele>1583.6</ele>
        <time>2018-08-08T11:52:18.000Z</time>
      </trkpt>
      <trkpt lat="42.70915" lon="0.66744">
        <ele>1583.6</ele>
        <time>2018-08-08T11:52:19.000Z</time>
      </trkpt>
      <trkpt lat="42.70915" lon="0.66744">
        <ele>1583.6</ele>
        <time>2018-08-08T11:52:20.000Z</time>
      </trkpt>
      <trkpt lat="42.70915" lon="0.66744">
        <ele>1583.6</ele>
        <time>2018-08-08T11:52:21.000Z</time>
      </trkpt>
      <trkpt lat="42.70915" lon="0.66744">
        <ele>1583.6</ele>
        <time>2018-08-08T11:52:22.000Z</time>
      </trkpt>
      <trkpt lat="42.70915" lon="0.66744">
        <ele>1583.6</ele>
        <time>2018-08-08T11:52:23.000Z</time>
      </trkpt>
      <trkpt lat="42.70915" lon="0.66744">
        <ele>1583.6</ele>
        <time>2018-08-08T11:52:24.000Z</time>
      </trkpt>
      <trkpt lat="42.70915" lon="0.66744">
        <ele>1583.6</ele>
        <time>2018-08-08T11:52:25.000Z</time>
      </trkpt>
      <trkpt lat="42.70915" lon="0.66744">
        <ele>1583.6</ele>
        <time>2018-08-08T11:52:26.000Z</time>
      </trkpt>
      <trkpt lat="42.70915" lon="0.66744">
        <ele>1583.6</ele>
        <time>2018-08-08T11:52:27.000Z</time>
      </trkpt>
      <trkpt lat="42.70915" lon="0.66744">
        <ele>1583.6</ele>
        <time>2018-08-08T11:52:28.000Z</time>
      </trkpt>
      <trkpt lat="42.70915" lon="0.66744">
        <ele>1583.6</ele>
        <time>2018-08-08T11:52:29.000Z</time>
      </trkpt>
      <trkpt lat="42.70915" lon="0.66744">
        <ele>1583.6</ele>
        <time>2018-08-08T11:52:30.000Z</time>
      </trkpt>
      <trkpt lat="42.70915" lon="0.66744">
        <ele>1583.6</ele>
        <time>2018-08-08T11:52:31.000Z</time>
      </trkpt>
      <trkpt lat="42.70915" lon="0.66744">
        <ele>1583.6</ele>
        <time>2018-08-08T11:52:32.000Z</time>
      </trkpt>
      <trkpt lat="42.70915" lon="0.66744">
        <ele>1583.6</ele>
        <time>2018-08-08T11:52:33.000Z</time>
      </trkpt>
      <trkpt lat="42.70915" lon="0.66744">
        <ele>1583.6</ele>
        <time>2018-08-08T11:52:34.000Z</time>
      </trkpt>
      <trkpt lat="42.70915" lon="0.66744">
        <ele>1583.6</ele>
        <time>2018-08-08T11:52:35.000Z</time>
      </trkpt>
      <trkpt lat="42.70915" lon="0.66744">
        <ele>1583.6</ele>
        <time>2018-08-08T11:52:36.000Z</time>
      </trkpt>
      <trkpt lat="42.70915" lon="0.66744">
        <ele>1583.6</ele>
        <time>2018-08-08T11:52:37.000Z</time>
      </trkpt>
      <trkpt lat="42.70915" lon="0.66744">
        <ele>1583.6</ele>
        <time>2018-08-08T11:52:38.000Z</time>
      </trkpt>
      <trkpt lat="42.70915" lon="0.66744">
        <ele>1583.6</ele>
        <time>2018-08-08T11:52:39.000Z</time>
      </trkpt>
      <trkpt lat="42.70915" lon="0.66744">
        <ele>1583.6</ele>
        <time>2018-08-08T11:52:40.000Z</time>
      </trkpt>
      <trkpt lat="42.70915" lon="0.66744">
        <ele>1583.6</ele>
        <time>2018-08-08T11:52:41.000Z</time>
      </trkpt>
      <trkpt lat="42.70915" lon="0.66744">
        <ele>1583.6</ele>
        <time>2018-08-08T11:52:42.000Z</time>
      </trkpt>
      <trkpt lat="42.70915" lon="0.66744">
        <ele>1583.6</ele>
        <time>2018-08-08T11:52:43.000Z</time>
      </trkpt>
      <trkpt lat="42.70915" lon="0.66744">
        <ele>1583.6</ele>
        <time>2018-08-08T11:52:44.000Z</time>
      </trkpt>
      <trkpt lat="42.70915" lon="0.66744">
        <ele>1583.6</ele>
        <time>2018-08-08T11:52:45.000Z</time>
      </trkpt>
      <trkpt lat="42.70915" lon="0.66744">
        <ele>1583.6</ele>
        <time>2018-08-08T11:52:46.000Z</time>
      </trkpt>
      <trkpt lat="42.70915" lon="0.66744">
        <ele>1583.6</ele>
        <time>2018-08-08T11:52:47.000Z</time>
      </trkpt>
      <trkpt lat="42.70915" lon="0.66744">
        <ele>1583.6</ele>
        <time>2018-08-08T11:52:48.000Z</time>
      </trkpt>
      <trkpt lat="42.70915" lon="0.66744">
        <ele>1583.6</ele>
        <time>2018-08-08T11:52:49.000Z</time>
      </trkpt>
      <trkpt lat="42.70915" lon="0.66744">
        <ele>1583.6</ele>
        <time>2018-08-08T11:52:50.000Z</time>
      </trkpt>
      <trkpt lat="42.70915" lon="0.66744">
        <ele>1583.6</ele>
        <time>2018-08-08T11:52:51.000Z</time>
      </trkpt>
      <trkpt lat="42.70915" lon="0.66744">
        <ele>1583.6</ele>
        <time>2018-08-08T11:52:52.000Z</time>
      </trkpt>
      <trkpt lat="42.70915" lon="0.66744">
        <ele>1583.6</ele>
        <time>2018-08-08T11:52:53.000Z</time>
      </trkpt>
      <trkpt lat="42.70915" lon="0.66744">
        <ele>1583.6</ele>
        <time>2018-08-08T11:52:54.000Z</time>
      </trkpt>
      <trkpt lat="42.70915" lon="0.66744">
        <ele>1583.6</ele>
        <time>2018-08-08T11:52:55.000Z</time>
      </trkpt>
      <trkpt lat="42.70915" lon="0.66744">
        <ele>1583.6</ele>
        <time>2018-08-08T11:52:56.000Z</time>
      </trkpt>
      <trkpt lat="42.70915" lon="0.66744">
        <ele>1583.6</ele>
        <time>2018-08-08T11:52:57.000Z</time>
      </trkpt>
      <trkpt lat="42.70915" lon="0.66744">
        <ele>1583.6</ele>
        <time>2018-08-08T11:52:58.000Z</time>
      </trkpt>
      <trkpt lat="42.70915" lon="0.66744">
        <ele>1583.6</ele>
        <time>2018-08-08T11:52:59.000Z</time>
      </trkpt>
      <trkpt lat="42.70915" lon="0.66744">
        <ele>1583.6</ele>
        <time>2018-08-08T11:53:00.000Z</time>
      </trkpt>
      <trkpt lat="42.70915" lon="0.66744">
        <ele>1583.6</ele>
        <time>2018-08-08T11:53:01.000Z</time>
      </trkpt>
      <trkpt lat="42.70915" lon="0.66744">
        <ele>1583.6</ele>
        <time>2018-08-08T11:53:02.000Z</time>
      </trkpt>
      <trkpt lat="42.70915" lon="0.66744">
        <ele>1583.6</ele>
        <time>2018-08-08T11:53:03.000Z</time>
      </trkpt>
      <trkpt lat="42.70915" lon="0.66744">
        <ele>1583.6</ele>
        <time>2018-08-08T11:53:04.000Z</time>
      </trkpt>
      <trkpt lat="42.70915" lon="0.66744">
        <ele>1583.6</ele>
        <time>2018-08-08T11:53:05.000Z</time>
      </trkpt>
      <trkpt lat="42.70915" lon="0.66744">
        <ele>1583.6</ele>
        <time>2018-08-08T11:53:06.000Z</time>
      </trkpt>
      <trkpt lat="42.70915" lon="0.66744">
        <ele>1583.6</ele>
        <time>2018-08-08T11:53:07.000Z</time>
      </trkpt>
      <trkpt lat="42.70915" lon="0.66744">
        <ele>1583.6</ele>
        <time>2018-08-08T11:53:08.000Z</time>
      </trkpt>
      <trkpt lat="42.70915" lon="0.66744">
        <ele>1583.6</ele>
        <time>2018-08-08T11:53:09.000Z</time>
      </trkpt>
      <trkpt lat="42.70915" lon="0.66744">
        <ele>1583.6</ele>
        <time>2018-08-08T11:53:10.000Z</time>
      </trkpt>
      <trkpt lat="42.70915" lon="0.66744">
        <ele>1583.6</ele>
        <time>2018-08-08T11:53:11.000Z</time>
      </trkpt>
      <trkpt lat="42.70915" lon="0.66744">
        <ele>1583.6</ele>
        <time>2018-08-08T11:53:12.000Z</time>
      </trkpt>
      <trkpt lat="42.70915" lon="0.66744">
        <ele>1583.6</ele>
        <time>2018-08-08T11:53:13.000Z</time>
      </trkpt>
      <trkpt lat="42.70915" lon="0.66744">
        <ele>1583.6</ele>
        <time>2018-08-08T11:53:14.000Z</time>
      </trkpt>
      <trkpt lat="42.70915" lon="0.66744">
        <ele>1583.6</ele>
        <time>2018-08-08T11:53:15.000Z</time>
      </trkpt>
      <trkpt lat="42.70915" lon="0.66744">
        <ele>1583.6</ele>
        <time>2018-08-08T11:53:16.000Z</time>
      </trkpt>
      <trkpt lat="42.70915" lon="0.66744">
        <ele>1583.6</ele>
        <time>2018-08-08T11:53:17.000Z</time>
      </trkpt>
      <trkpt lat="42.70915" lon="0.66744">
        <ele>1583.6</ele>
        <time>2018-08-08T11:53:18.000Z</time>
      </trkpt>
      <trkpt lat="42.70915" lon="0.66744">
        <ele>1583.6</ele>
        <time>2018-08-08T11:53:19.000Z</time>
      </trkpt>
      <trkpt lat="42.70915" lon="0.66744">
        <ele>1583.6</ele>
        <time>2018-08-08T11:53:20.000Z</time>
      </trkpt>
      <trkpt lat="42.70915" lon="0.66744">
        <ele>1583.6</ele>
        <time>2018-08-08T11:53:21.000Z</time>
      </trkpt>
      <trkpt lat="42.70915" lon="0.66744">
        <ele>1583.6</ele>
        <time>2018-08-08T11:53:22.000Z</time>
      </trkpt>
      <trkpt lat="42.70915" lon="0.66744">
        <ele>1583.6</ele>
        <time>2018-08-08T11:53:23.000Z</time>
      </trkpt>
      <trkpt lat="42.70915" lon="0.66744">
        <ele>1583.6</ele>
        <time>2018-08-08T11:53:24.000Z</time>
      </trkpt>
      <trkpt lat="42.70915" lon="0.66744">
        <ele>1583.6</ele>
        <time>2018-08-08T11:53:25.000Z</time>
      </trkpt>
      <trkpt lat="42.70915" lon="0.66744">
        <ele>1583.6</ele>
        <time>2018-08-08T11:53:26.000Z</time>
      </trkpt>
      <trkpt lat="42.70915" lon="0.66744">
        <ele>1583.6</ele>
        <time>2018-08-08T11:53:27.000Z</time>
      </trkpt>
      <trkpt lat="42.70915" lon="0.66744">
        <ele>1583.6</ele>
        <time>2018-08-08T11:53:28.000Z</time>
      </trkpt>
      <trkpt lat="42.70915" lon="0.66744">
        <ele>1583.6</ele>
        <time>2018-08-08T11:53:29.000Z</time>
      </trkpt>
      <trkpt lat="42.70915" lon="0.66744">
        <ele>1583.6</ele>
        <time>2018-08-08T11:53:30.000Z</time>
      </trkpt>
      <trkpt lat="42.70915" lon="0.66744">
        <ele>1583.6</ele>
        <time>2018-08-08T11:53:31.000Z</time>
      </trkpt>
      <trkpt lat="42.70915" lon="0.66744">
        <ele>1583.6</ele>
        <time>2018-08-08T11:53:32.000Z</time>
      </trkpt>
      <trkpt lat="42.70915" lon="0.66744">
        <ele>1583.6</ele>
        <time>2018-08-08T11:53:33.000Z</time>
      </trkpt>
      <trkpt lat="42.70915" lon="0.66744">
        <ele>1583.6</ele>
        <time>2018-08-08T11:53:34.000Z</time>
      </trkpt>
      <trkpt lat="42.70915" lon="0.66744">
        <ele>1583.6</ele>
        <time>2018-08-08T11:53:35.000Z</time>
      </trkpt>
      <trkpt lat="42.70915" lon="0.66744">
        <ele>1583.6</ele>
        <time>2018-08-08T11:53:36.000Z</time>
      </trkpt>
      <trkpt lat="42.70915" lon="0.66744">
        <ele>1583.6</ele>
        <time>2018-08-08T11:53:37.000Z</time>
      </trkpt>
      <trkpt lat="42.70915" lon="0.66744">
        <ele>1583.6</ele>
        <time>2018-08-08T11:53:38.000Z</time>
      </trkpt>
      <trkpt lat="42.70915" lon="0.66744">
        <ele>1583.6</ele>
        <time>2018-08-08T11:53:39.000Z</time>
      </trkpt>
      <trkpt lat="42.70915" lon="0.66744">
        <ele>1583.6</ele>
        <time>2018-08-08T11:53:40.000Z</time>
      </trkpt>
      <trkpt lat="42.70915" lon="0.66744">
        <ele>1583.6</ele>
        <time>2018-08-08T11:53:41.000Z</time>
      </trkpt>
      <trkpt lat="42.70915" lon="0.66744">
        <ele>1583.6</ele>
        <time>2018-08-08T11:53:42.000Z</time>
      </trkpt>
      <trkpt lat="42.70915" lon="0.66744">
        <ele>1583.6</ele>
        <time>2018-08-08T11:53:43.000Z</time>
      </trkpt>
      <trkpt lat="42.70915" lon="0.66744">
        <ele>1583.6</ele>
        <time>2018-08-08T11:53:44.000Z</time>
      </trkpt>
      <trkpt lat="42.70915" lon="0.66744">
        <ele>1583.6</ele>
        <time>2018-08-08T11:53:45.000Z</time>
      </trkpt>
      <trkpt lat="42.70915" lon="0.66744">
        <ele>1583.6</ele>
        <time>2018-08-08T11:53:46.000Z</time>
      </trkpt>
      <trkpt lat="42.70915" lon="0.66744">
        <ele>1583.6</ele>
        <time>2018-08-08T11:53:47.000Z</time>
      </trkpt>
      <trkpt lat="42.70915" lon="0.66744">
        <ele>1583.6</ele>
        <time>2018-08-08T11:53:48.000Z</time>
      </trkpt>
      <trkpt lat="42.70915" lon="0.66744">
        <ele>1583.6</ele>
        <time>2018-08-08T11:53:49.000Z</time>
      </trkpt>
      <trkpt lat="42.70915" lon="0.66744">
        <ele>1583.6</ele>
        <time>2018-08-08T11:53:50.000Z</time>
      </trkpt>
      <trkpt lat="42.70915" lon="0.66744">
        <ele>1583.6</ele>
        <time>2018-08-08T11:53:51.000Z</time>
      </trkpt>
      <trkpt lat="42.70915" lon="0.66744">
        <ele>1583.6</ele>
        <time>2018-08-08T11:53:52.000Z</time>
      </trkpt>
      <trkpt lat="42.70915" lon="0.66744">
        <ele>1583.6</ele>
        <time>2018-08-08T11:53:53.000Z</time>
      </trkpt>
      <trkpt lat="42.70915" lon="0.66744">
        <ele>1583.6</ele>
        <time>2018-08-08T11:53:54.000Z</time>
      </trkpt>
      <trkpt lat="42.70915" lon="0.66744">
        <ele>1583.6</ele>
        <time>2018-08-08T11:53:55.000Z</time>
      </trkpt>
      <trkpt lat="42.70915" lon="0.66744">
        <ele>1583.6</ele>
        <time>2018-08-08T11:53:56.000Z</time>
      </trkpt>
      <trkpt lat="42.70915" lon="0.66744">
        <ele>1583.6</ele>
        <time>2018-08-08T11:53:57.000Z</time>
      </trkpt>
      <trkpt lat="42.70915" lon="0.66744">
        <ele>1583.6</ele>
        <time>2018-08-08T11:53:58.000Z</time>
      </trkpt>
      <trkpt lat="42.70915" lon="0.66744">
        <ele>1583.6</ele>
        <time>2018-08-08T11:53:59.000Z</time>
      </trkpt>
      <trkpt lat="42.70915" lon="0.66744">
        <ele>1583.6</ele>
        <time>2018-08-08T11:54:00.000Z</time>
      </trkpt>
      <trkpt lat="42.70915" lon="0.66744">
        <ele>1583.6</ele>
        <time>2018-08-08T11:54:01.000Z</time>
      </trkpt>
      <trkpt lat="42.70915" lon="0.66744">
        <ele>1583.6</ele>
        <time>2018-08-08T11:54:02.000Z</time>
      </trkpt>
      <trkpt lat="42.70915" lon="0.66744">
        <ele>1583.6</ele>
        <time>2018-08-08T11:54:03.000Z</time>
      </trkpt>
      <trkpt lat="42.70915" lon="0.66744">
        <ele>1583.6</ele>
        <time>2018-08-08T11:54:04.000Z</time>
      </trkpt>
      <trkpt lat="42.70915" lon="0.66744">
        <ele>1583.6</ele>
        <time>2018-08-08T11:54:05.000Z</time>
      </trkpt>
      <trkpt lat="42.70915" lon="0.66744">
        <ele>1583.6</ele>
        <time>2018-08-08T11:54:06.000Z</time>
      </trkpt>
      <trkpt lat="42.70915" lon="0.66744">
        <ele>1583.6</ele>
        <time>2018-08-08T11:54:07.000Z</time>
      </trkpt>
      <trkpt lat="42.70915" lon="0.66744">
        <ele>1583.6</ele>
        <time>2018-08-08T11:54:08.000Z</time>
      </trkpt>
      <trkpt lat="42.70915" lon="0.66744">
        <ele>1583.6</ele>
        <time>2018-08-08T11:54:09.000Z</time>
      </trkpt>
      <trkpt lat="42.70915" lon="0.66744">
        <ele>1583.6</ele>
        <time>2018-08-08T11:54:10.000Z</time>
      </trkpt>
      <trkpt lat="42.70915" lon="0.66744">
        <ele>1583.6</ele>
        <time>2018-08-08T11:54:11.000Z</time>
      </trkpt>
      <trkpt lat="42.70915" lon="0.66744">
        <ele>1583.6</ele>
        <time>2018-08-08T11:54:12.000Z</time>
      </trkpt>
      <trkpt lat="42.70915" lon="0.66744">
        <ele>1583.6</ele>
        <time>2018-08-08T11:54:13.000Z</time>
      </trkpt>
      <trkpt lat="42.70915" lon="0.66744">
        <ele>1583.6</ele>
        <time>2018-08-08T11:54:14.000Z</time>
      </trkpt>
      <trkpt lat="42.70915" lon="0.66744">
        <ele>1583.6</ele>
        <time>2018-08-08T11:54:15.000Z</time>
      </trkpt>
      <trkpt lat="42.70915" lon="0.66744">
        <ele>1583.6</ele>
        <time>2018-08-08T11:54:16.000Z</time>
      </trkpt>
      <trkpt lat="42.70915" lon="0.66744">
        <ele>1583.6</ele>
        <time>2018-08-08T11:54:17.000Z</time>
      </trkpt>
      <trkpt lat="42.70915" lon="0.66744">
        <ele>1583.6</ele>
        <time>2018-08-08T11:54:18.000Z</time>
      </trkpt>
      <trkpt lat="42.70915" lon="0.66744">
        <ele>1583.6</ele>
        <time>2018-08-08T11:54:19.000Z</time>
      </trkpt>
      <trkpt lat="42.70915" lon="0.66744">
        <ele>1583.6</ele>
        <time>2018-08-08T11:54:20.000Z</time>
      </trkpt>
      <trkpt lat="42.70915" lon="0.66744">
        <ele>1583.6</ele>
        <time>2018-08-08T11:54:21.000Z</time>
      </trkpt>
      <trkpt lat="42.70915" lon="0.66744">
        <ele>1583.6</ele>
        <time>2018-08-08T11:54:22.000Z</time>
      </trkpt>
      <trkpt lat="42.70915" lon="0.66744">
        <ele>1583.6</ele>
        <time>2018-08-08T11:54:23.000Z</time>
      </trkpt>
      <trkpt lat="42.70915" lon="0.66744">
        <ele>1583.6</ele>
        <time>2018-08-08T11:54:24.000Z</time>
      </trkpt>
      <trkpt lat="42.70915" lon="0.66744">
        <ele>1583.6</ele>
        <time>2018-08-08T11:54:25.000Z</time>
      </trkpt>
      <trkpt lat="42.70915" lon="0.66744">
        <ele>1583.6</ele>
        <time>2018-08-08T11:54:26.000Z</time>
      </trkpt>
      <trkpt lat="42.70915" lon="0.66744">
        <ele>1583.6</ele>
        <time>2018-08-08T11:54:27.000Z</time>
      </trkpt>
      <trkpt lat="42.70915" lon="0.66744">
        <ele>1583.6</ele>
        <time>2018-08-08T11:54:28.000Z</time>
      </trkpt>
      <trkpt lat="42.70915" lon="0.66744">
        <ele>1583.6</ele>
        <time>2018-08-08T11:54:29.000Z</time>
      </trkpt>
      <trkpt lat="42.70915" lon="0.66744">
        <ele>1583.6</ele>
        <time>2018-08-08T11:54:30.000Z</time>
      </trkpt>
      <trkpt lat="42.70915" lon="0.66744">
        <ele>1583.6</ele>
        <time>2018-08-08T11:54:31.000Z</time>
      </trkpt>
      <trkpt lat="42.70915" lon="0.66744">
        <ele>1583.6</ele>
        <time>2018-08-08T11:54:32.000Z</time>
      </trkpt>
      <trkpt lat="42.70915" lon="0.66744">
        <ele>1583.6</ele>
        <time>2018-08-08T11:54:33.000Z</time>
      </trkpt>
      <trkpt lat="42.70915" lon="0.66744">
        <ele>1583.6</ele>
        <time>2018-08-08T11:54:34.000Z</time>
      </trkpt>
      <trkpt lat="42.70915" lon="0.66744">
        <ele>1583.6</ele>
        <time>2018-08-08T11:54:35.000Z</time>
      </trkpt>
      <trkpt lat="42.70915" lon="0.66744">
        <ele>1583.6</ele>
        <time>2018-08-08T11:54:36.000Z</time>
      </trkpt>
      <trkpt lat="42.70915" lon="0.66744">
        <ele>1583.6</ele>
        <time>2018-08-08T11:54:37.000Z</time>
      </trkpt>
      <trkpt lat="42.70915" lon="0.66744">
        <ele>1583.6</ele>
        <time>2018-08-08T11:54:38.000Z</time>
      </trkpt>
      <trkpt lat="42.70915" lon="0.66744">
        <ele>1583.6</ele>
        <time>2018-08-08T11:54:39.000Z</time>
      </trkpt>
      <trkpt lat="42.70915" lon="0.66744">
        <ele>1583.6</ele>
        <time>2018-08-08T11:54:40.000Z</time>
      </trkpt>
      <trkpt lat="42.70915" lon="0.66744">
        <ele>1583.6</ele>
        <time>2018-08-08T11:54:41.000Z</time>
      </trkpt>
      <trkpt lat="42.70915" lon="0.66744">
        <ele>1583.6</ele>
        <time>2018-08-08T11:54:42.000Z</time>
      </trkpt>
      <trkpt lat="42.70915" lon="0.66744">
        <ele>1583.6</ele>
        <time>2018-08-08T11:54:43.000Z</time>
      </trkpt>
      <trkpt lat="42.70915" lon="0.66744">
        <ele>1583.6</ele>
        <time>2018-08-08T11:54:44.000Z</time>
      </trkpt>
      <trkpt lat="42.70915" lon="0.66744">
        <ele>1583.6</ele>
        <time>2018-08-08T11:54:45.000Z</time>
      </trkpt>
      <trkpt lat="42.70915" lon="0.66744">
        <ele>1583.6</ele>
        <time>2018-08-08T11:54:46.000Z</time>
      </trkpt>
      <trkpt lat="42.70915" lon="0.66744">
        <ele>1583.6</ele>
        <time>2018-08-08T11:54:47.000Z</time>
      </trkpt>
      <trkpt lat="42.70915" lon="0.66744">
        <ele>1583.6</ele>
        <time>2018-08-08T11:54:48.000Z</time>
      </trkpt>
      <trkpt lat="42.70915" lon="0.66744">
        <ele>1583.6</ele>
        <time>2018-08-08T11:54:49.000Z</time>
      </trkpt>
      <trkpt lat="42.70915" lon="0.66744">
        <ele>1583.6</ele>
        <time>2018-08-08T11:54:50.000Z</time>
      </trkpt>
      <trkpt lat="42.70915" lon="0.66744">
        <ele>1583.6</ele>
        <time>2018-08-08T11:54:51.000Z</time>
      </trkpt>
      <trkpt lat="42.70915" lon="0.66744">
        <ele>1583.6</ele>
        <time>2018-08-08T11:54:52.000Z</time>
      </trkpt>
      <trkpt lat="42.70915" lon="0.66744">
        <ele>1583.6</ele>
        <time>2018-08-08T11:54:53.000Z</time>
      </trkpt>
      <trkpt lat="42.70915" lon="0.66744">
        <ele>1583.6</ele>
        <time>2018-08-08T11:54:54.000Z</time>
      </trkpt>
      <trkpt lat="42.70915" lon="0.66744">
        <ele>1583.6</ele>
        <time>2018-08-08T11:54:55.000Z</time>
      </trkpt>
      <trkpt lat="42.70915" lon="0.66744">
        <ele>1583.6</ele>
        <time>2018-08-08T11:54:56.000Z</time>
      </trkpt>
      <trkpt lat="42.70915" lon="0.66744">
        <ele>1583.6</ele>
        <time>2018-08-08T11:54:57.000Z</time>
      </trkpt>
      <trkpt lat="42.70915" lon="0.66744">
        <ele>1583.6</ele>
        <time>2018-08-08T11:54:58.000Z</time>
      </trkpt>
      <trkpt lat="42.70915" lon="0.66744">
        <ele>1583.6</ele>
        <time>2018-08-08T11:54:59.000Z</time>
      </trkpt>
      <trkpt lat="42.70915" lon="0.66744">
        <ele>1583.6</ele>
        <time>2018-08-08T11:55:00.000Z</time>
      </trkpt>
      <trkpt lat="42.70915" lon="0.66744">
        <ele>1583.6</ele>
        <time>2018-08-08T11:55:01.000Z</time>
      </trkpt>
      <trkpt lat="42.70915" lon="0.66744">
        <ele>1583.6</ele>
        <time>2018-08-08T11:55:02.000Z</time>
      </trkpt>
      <trkpt lat="42.70915" lon="0.66744">
        <ele>1583.6</ele>
        <time>2018-08-08T11:55:03.000Z</time>
      </trkpt>
      <trkpt lat="42.70915" lon="0.66744">
        <ele>1583.6</ele>
        <time>2018-08-08T11:55:04.000Z</time>
      </trkpt>
      <trkpt lat="42.70915" lon="0.66744">
        <ele>1583.6</ele>
        <time>2018-08-08T11:55:05.000Z</time>
      </trkpt>
      <trkpt lat="42.70915" lon="0.66744">
        <ele>1583.6</ele>
        <time>2018-08-08T11:55:06.000Z</time>
      </trkpt>
      <trkpt lat="42.70915" lon="0.66744">
        <ele>1583.6</ele>
        <time>2018-08-08T11:55:07.000Z</time>
      </trkpt>
      <trkpt lat="42.70915" lon="0.66744">
        <ele>1583.6</ele>
        <time>2018-08-08T11:55:08.000Z</time>
      </trkpt>
      <trkpt lat="42.70915" lon="0.66744">
        <ele>1583.6</ele>
        <time>2018-08-08T11:55:09.000Z</time>
      </trkpt>
      <trkpt lat="42.70915" lon="0.66744">
        <ele>1583.6</ele>
        <time>2018-08-08T11:55:10.000Z</time>
      </trkpt>
      <trkpt lat="42.70915" lon="0.66744">
        <ele>1583.6</ele>
        <time>2018-08-08T11:55:11.000Z</time>
      </trkpt>
      <trkpt lat="42.70915" lon="0.66744">
        <ele>1583.6</ele>
        <time>2018-08-08T11:55:12.000Z</time>
      </trkpt>
      <trkpt lat="42.70915" lon="0.66744">
        <ele>1583.6</ele>
        <time>2018-08-08T11:55:13.000Z</time>
      </trkpt>
      <trkpt lat="42.70915" lon="0.66744">
        <ele>1583.6</ele>
        <time>2018-08-08T11:55:14.000Z</time>
      </trkpt>
      <trkpt lat="42.70915" lon="0.66744">
        <ele>1583.6</ele>
        <time>2018-08-08T11:55:15.000Z</time>
      </trkpt>
      <trkpt lat="42.70915" lon="0.66744">
        <ele>1583.6</ele>
        <time>2018-08-08T11:55:16.000Z</time>
      </trkpt>
      <trkpt lat="42.70915" lon="0.66744">
        <ele>1583.6</ele>
        <time>2018-08-08T11:55:17.000Z</time>
      </trkpt>
      <trkpt lat="42.70915" lon="0.66744">
        <ele>1583.6</ele>
        <time>2018-08-08T11:55:18.000Z</time>
      </trkpt>
      <trkpt lat="42.70915" lon="0.66744">
        <ele>1583.6</ele>
        <time>2018-08-08T11:55:19.000Z</time>
      </trkpt>
      <trkpt lat="42.70915" lon="0.66744">
        <ele>1583.6</ele>
        <time>2018-08-08T11:55:20.000Z</time>
      </trkpt>
      <trkpt lat="42.70915" lon="0.66744">
        <ele>1583.6</ele>
        <time>2018-08-08T11:55:21.000Z</time>
      </trkpt>
      <trkpt lat="42.70915" lon="0.66744">
        <ele>1583.6</ele>
        <time>2018-08-08T11:55:22.000Z</time>
      </trkpt>
      <trkpt lat="42.70915" lon="0.66744">
        <ele>1583.6</ele>
        <time>2018-08-08T11:55:23.000Z</time>
      </trkpt>
      <trkpt lat="42.70915" lon="0.66744">
        <ele>1583.6</ele>
        <time>2018-08-08T11:55:24.000Z</time>
      </trkpt>
      <trkpt lat="42.70915" lon="0.66744">
        <ele>1583.6</ele>
        <time>2018-08-08T11:55:25.000Z</time>
      </trkpt>
      <trkpt lat="42.70915" lon="0.66744">
        <ele>1583.6</ele>
        <time>2018-08-08T11:55:26.000Z</time>
      </trkpt>
      <trkpt lat="42.70915" lon="0.66744">
        <ele>1583.6</ele>
        <time>2018-08-08T11:55:27.000Z</time>
      </trkpt>
      <trkpt lat="42.70915" lon="0.66744">
        <ele>1583.6</ele>
        <time>2018-08-08T11:55:28.000Z</time>
      </trkpt>
      <trkpt lat="42.70915" lon="0.66744">
        <ele>1583.6</ele>
        <time>2018-08-08T11:55:29.000Z</time>
      </trkpt>
      <trkpt lat="42.70915" lon="0.66744">
        <ele>1583.6</ele>
        <time>2018-08-08T11:55:30.000Z</time>
      </trkpt>
      <trkpt lat="42.70915" lon="0.66744">
        <ele>1583.6</ele>
        <time>2018-08-08T11:55:31.000Z</time>
      </trkpt>
      <trkpt lat="42.70915" lon="0.66744">
        <ele>1583.6</ele>
        <time>2018-08-08T11:55:32.000Z</time>
      </trkpt>
      <trkpt lat="42.70915" lon="0.66744">
        <ele>1583.6</ele>
        <time>2018-08-08T11:55:33.000Z</time>
      </trkpt>
      <trkpt lat="42.70915" lon="0.66744">
        <ele>1583.6</ele>
        <time>2018-08-08T11:55:34.000Z</time>
      </trkpt>
      <trkpt lat="42.70915" lon="0.66744">
        <ele>1583.6</ele>
        <time>2018-08-08T11:55:35.000Z</time>
      </trkpt>
      <trkpt lat="42.70915" lon="0.66744">
        <ele>1583.6</ele>
        <time>2018-08-08T11:55:36.000Z</time>
      </trkpt>
      <trkpt lat="42.70915" lon="0.66744">
        <ele>1583.6</ele>
        <time>2018-08-08T11:55:37.000Z</time>
      </trkpt>
      <trkpt lat="42.70915" lon="0.66744">
        <ele>1583.6</ele>
        <time>2018-08-08T11:55:38.000Z</time>
      </trkpt>
      <trkpt lat="42.70915" lon="0.66744">
        <ele>1583.6</ele>
        <time>2018-08-08T11:55:39.000Z</time>
      </trkpt>
      <trkpt lat="42.70915" lon="0.66744">
        <ele>1583.6</ele>
        <time>2018-08-08T11:55:40.000Z</time>
      </trkpt>
      <trkpt lat="42.70915" lon="0.66744">
        <ele>1583.6</ele>
        <time>2018-08-08T11:55:41.000Z</time>
      </trkpt>
      <trkpt lat="42.70915" lon="0.66744">
        <ele>1583.6</ele>
        <time>2018-08-08T11:55:42.000Z</time>
      </trkpt>
      <trkpt lat="42.70915" lon="0.66744">
        <ele>1583.6</ele>
        <time>2018-08-08T11:55:43.000Z</time>
      </trkpt>
      <trkpt lat="42.70915" lon="0.66744">
        <ele>1583.6</ele>
        <time>2018-08-08T11:55:44.000Z</time>
      </trkpt>
      <trkpt lat="42.70915" lon="0.66744">
        <ele>1583.6</ele>
        <time>2018-08-08T11:55:45.000Z</time>
      </trkpt>
      <trkpt lat="42.70915" lon="0.66744">
        <ele>1583.6</ele>
        <time>2018-08-08T11:55:46.000Z</time>
      </trkpt>
      <trkpt lat="42.70915" lon="0.66744">
        <ele>1583.6</ele>
        <time>2018-08-08T11:55:47.000Z</time>
      </trkpt>
      <trkpt lat="42.70915" lon="0.66744">
        <ele>1583.6</ele>
        <time>2018-08-08T11:55:48.000Z</time>
      </trkpt>
      <trkpt lat="42.70915" lon="0.66744">
        <ele>1583.6</ele>
        <time>2018-08-08T11:55:49.000Z</time>
      </trkpt>
      <trkpt lat="42.70915" lon="0.66744">
        <ele>1583.6</ele>
        <time>2018-08-08T11:55:50.000Z</time>
      </trkpt>
      <trkpt lat="42.70915" lon="0.66744">
        <ele>1583.6</ele>
        <time>2018-08-08T11:55:51.000Z</time>
      </trkpt>
      <trkpt lat="42.70915" lon="0.66744">
        <ele>1583.6</ele>
        <time>2018-08-08T11:55:52.000Z</time>
      </trkpt>
      <trkpt lat="42.70915" lon="0.66744">
        <ele>1583.6</ele>
        <time>2018-08-08T11:55:53.000Z</time>
      </trkpt>
      <trkpt lat="42.70915" lon="0.66744">
        <ele>1583.6</ele>
        <time>2018-08-08T11:55:54.000Z</time>
      </trkpt>
      <trkpt lat="42.70915" lon="0.66744">
        <ele>1583.6</ele>
        <time>2018-08-08T11:55:55.000Z</time>
      </trkpt>
      <trkpt lat="42.70915" lon="0.66744">
        <ele>1583.6</ele>
        <time>2018-08-08T11:55:56.000Z</time>
      </trkpt>
      <trkpt lat="42.70915" lon="0.66744">
        <ele>1583.6</ele>
        <time>2018-08-08T11:55:57.000Z</time>
      </trkpt>
      <trkpt lat="42.70915" lon="0.66744">
        <ele>1583.6</ele>
        <time>2018-08-08T11:55:58.000Z</time>
      </trkpt>
      <trkpt lat="42.70915" lon="0.66744">
        <ele>1583.6</ele>
        <time>2018-08-08T11:55:59.000Z</time>
      </trkpt>
      <trkpt lat="42.70915" lon="0.66744">
        <ele>1583.6</ele>
        <time>2018-08-08T11:56:00.000Z</time>
      </trkpt>
      <trkpt lat="42.70915" lon="0.66744">
        <ele>1583.6</ele>
        <time>2018-08-08T11:56:01.000Z</time>
      </trkpt>
      <trkpt lat="42.70915" lon="0.66744">
        <ele>1583.6</ele>
        <time>2018-08-08T11:56:02.000Z</time>
      </trkpt>
      <trkpt lat="42.70915" lon="0.66744">
        <ele>1583.6</ele>
        <time>2018-08-08T11:56:03.000Z</time>
      </trkpt>
      <trkpt lat="42.70915" lon="0.66744">
        <ele>1583.6</ele>
        <time>2018-08-08T11:56:04.000Z</time>
      </trkpt>
      <trkpt lat="42.70915" lon="0.66744">
        <ele>1583.6</ele>
        <time>2018-08-08T11:56:05.000Z</time>
      </trkpt>
      <trkpt lat="42.70915" lon="0.66744">
        <ele>1583.6</ele>
        <time>2018-08-08T11:56:06.000Z</time>
      </trkpt>
      <trkpt lat="42.70915" lon="0.66744">
        <ele>1583.6</ele>
        <time>2018-08-08T11:56:07.000Z</time>
      </trkpt>
      <trkpt lat="42.70915" lon="0.66744">
        <ele>1583.6</ele>
        <time>2018-08-08T11:56:08.000Z</time>
      </trkpt>
      <trkpt lat="42.70915" lon="0.66744">
        <ele>1583.6</ele>
        <time>2018-08-08T11:56:09.000Z</time>
      </trkpt>
      <trkpt lat="42.70915" lon="0.66744">
        <ele>1583.6</ele>
        <time>2018-08-08T11:56:10.000Z</time>
      </trkpt>
      <trkpt lat="42.70915" lon="0.66744">
        <ele>1583.6</ele>
        <time>2018-08-08T11:56:11.000Z</time>
      </trkpt>
      <trkpt lat="42.70915" lon="0.66744">
        <ele>1583.6</ele>
        <time>2018-08-08T11:56:12.000Z</time>
      </trkpt>
      <trkpt lat="42.70915" lon="0.66744">
        <ele>1583.6</ele>
        <time>2018-08-08T11:56:13.000Z</time>
      </trkpt>
      <trkpt lat="42.70915" lon="0.66744">
        <ele>1583.6</ele>
        <time>2018-08-08T11:56:14.000Z</time>
      </trkpt>
      <trkpt lat="42.70915" lon="0.66744">
        <ele>1583.6</ele>
        <time>2018-08-08T11:56:15.000Z</time>
      </trkpt>
      <trkpt lat="42.70915" lon="0.66744">
        <ele>1583.6</ele>
        <time>2018-08-08T11:56:16.000Z</time>
      </trkpt>
      <trkpt lat="42.70915" lon="0.66744">
        <ele>1583.6</ele>
        <time>2018-08-08T11:56:17.000Z</time>
      </trkpt>
      <trkpt lat="42.70915" lon="0.66744">
        <ele>1583.6</ele>
        <time>2018-08-08T11:56:18.000Z</time>
      </trkpt>
      <trkpt lat="42.70915" lon="0.66744">
        <ele>1583.6</ele>
        <time>2018-08-08T11:56:19.000Z</time>
      </trkpt>
      <trkpt lat="42.70915" lon="0.66744">
        <ele>1583.6</ele>
        <time>2018-08-08T11:56:20.000Z</time>
      </trkpt>
      <trkpt lat="42.70915" lon="0.66744">
        <ele>1583.6</ele>
        <time>2018-08-08T11:56:21.000Z</time>
      </trkpt>
      <trkpt lat="42.70915" lon="0.66744">
        <ele>1583.6</ele>
        <time>2018-08-08T11:56:22.000Z</time>
      </trkpt>
      <trkpt lat="42.70915" lon="0.66744">
        <ele>1583.6</ele>
        <time>2018-08-08T11:56:23.000Z</time>
      </trkpt>
      <trkpt lat="42.70915" lon="0.66744">
        <ele>1583.6</ele>
        <time>2018-08-08T11:56:24.000Z</time>
      </trkpt>
      <trkpt lat="42.70915" lon="0.66744">
        <ele>1583.6</ele>
        <time>2018-08-08T11:56:25.000Z</time>
      </trkpt>
      <trkpt lat="42.70915" lon="0.66744">
        <ele>1583.6</ele>
        <time>2018-08-08T11:56:26.000Z</time>
      </trkpt>
      <trkpt lat="42.70915" lon="0.66744">
        <ele>1583.6</ele>
        <time>2018-08-08T11:56:27.000Z</time>
      </trkpt>
      <trkpt lat="42.70915" lon="0.66744">
        <ele>1583.6</ele>
        <time>2018-08-08T11:56:28.000Z</time>
      </trkpt>
      <trkpt lat="42.70915" lon="0.66744">
        <ele>1583.6</ele>
        <time>2018-08-08T11:56:29.000Z</time>
      </trkpt>
      <trkpt lat="42.70915" lon="0.66744">
        <ele>1583.6</ele>
        <time>2018-08-08T11:56:30.000Z</time>
      </trkpt>
      <trkpt lat="42.70915" lon="0.66744">
        <ele>1583.6</ele>
        <time>2018-08-08T11:56:31.000Z</time>
      </trkpt>
      <trkpt lat="42.70915" lon="0.66744">
        <ele>1583.6</ele>
        <time>2018-08-08T11:56:32.000Z</time>
      </trkpt>
      <trkpt lat="42.70915" lon="0.66744">
        <ele>1583.6</ele>
        <time>2018-08-08T11:56:33.000Z</time>
      </trkpt>
      <trkpt lat="42.70915" lon="0.66744">
        <ele>1583.6</ele>
        <time>2018-08-08T11:56:34.000Z</time>
      </trkpt>
      <trkpt lat="42.70915" lon="0.66744">
        <ele>1583.6</ele>
        <time>2018-08-08T11:56:35.000Z</time>
      </trkpt>
      <trkpt lat="42.70915" lon="0.66744">
        <ele>1583.6</ele>
        <time>2018-08-08T11:56:36.000Z</time>
      </trkpt>
      <trkpt lat="42.70915" lon="0.66744">
        <ele>1583.6</ele>
        <time>2018-08-08T11:56:37.000Z</time>
      </trkpt>
      <trkpt lat="42.70915" lon="0.66744">
        <ele>1583.6</ele>
        <time>2018-08-08T11:56:38.000Z</time>
      </trkpt>
      <trkpt lat="42.70915" lon="0.66744">
        <ele>1583.6</ele>
        <time>2018-08-08T11:56:39.000Z</time>
      </trkpt>
      <trkpt lat="42.70915" lon="0.66744">
        <ele>1583.6</ele>
        <time>2018-08-08T11:56:40.000Z</time>
      </trkpt>
      <trkpt lat="42.70915" lon="0.66744">
        <ele>1583.6</ele>
        <time>2018-08-08T11:56:41.000Z</time>
      </trkpt>
      <trkpt lat="42.70915" lon="0.66744">
        <ele>1583.6</ele>
        <time>2018-08-08T11:56:42.000Z</time>
      </trkpt>
      <trkpt lat="42.70915" lon="0.66744">
        <ele>1583.6</ele>
        <time>2018-08-08T11:56:43.000Z</time>
      </trkpt>
      <trkpt lat="42.70915" lon="0.66744">
        <ele>1583.6</ele>
        <time>2018-08-08T11:56:44.000Z</time>
      </trkpt>
      <trkpt lat="42.70915" lon="0.66744">
        <ele>1583.6</ele>
        <time>2018-08-08T11:56:45.000Z</time>
      </trkpt>
      <trkpt lat="42.70915" lon="0.66744">
        <ele>1583.6</ele>
        <time>2018-08-08T11:56:46.000Z</time>
      </trkpt>
      <trkpt lat="42.70915" lon="0.66744">
        <ele>1583.6</ele>
        <time>2018-08-08T11:56:47.000Z</time>
      </trkpt>
      <trkpt lat="42.70915" lon="0.66744">
        <ele>1583.6</ele>
        <time>2018-08-08T11:56:48.000Z</time>
      </trkpt>
      <trkpt lat="42.70915" lon="0.66744">
        <ele>1583.6</ele>
        <time>2018-08-08T11:56:49.000Z</time>
      </trkpt>
      <trkpt lat="42.70915" lon="0.66744">
        <ele>1583.6</ele>
        <time>2018-08-08T11:56:50.000Z</time>
      </trkpt>
      <trkpt lat="42.70915" lon="0.66744">
        <ele>1583.6</ele>
        <time>2018-08-08T11:56:51.000Z</time>
      </trkpt>
      <trkpt lat="42.70915" lon="0.66744">
        <ele>1583.6</ele>
        <time>2018-08-08T11:56:52.000Z</time>
      </trkpt>
      <trkpt lat="42.70915" lon="0.66744">
        <ele>1583.6</ele>
        <time>2018-08-08T11:56:53.000Z</time>
      </trkpt>
      <trkpt lat="42.70915" lon="0.66744">
        <ele>1583.6</ele>
        <time>2018-08-08T11:56:54.000Z</time>
      </trkpt>
      <trkpt lat="42.70915" lon="0.66744">
        <ele>1583.6</ele>
        <time>2018-08-08T11:56:55.000Z</time>
      </trkpt>
      <trkpt lat="42.70915" lon="0.66744">
        <ele>1583.6</ele>
        <time>2018-08-08T11:56:56.000Z</time>
      </trkpt>
      <trkpt lat="42.70915" lon="0.66744">
        <ele>1583.6</ele>
        <time>2018-08-08T11:56:57.000Z</time>
      </trkpt>
      <trkpt lat="42.70915" lon="0.66744">
        <ele>1583.6</ele>
        <time>2018-08-08T11:56:58.000Z</time>
      </trkpt>
      <trkpt lat="42.70915" lon="0.66744">
        <ele>1583.6</ele>
        <time>2018-08-08T11:56:59.000Z</time>
      </trkpt>
      <trkpt lat="42.70915" lon="0.66744">
        <ele>1583.6</ele>
        <time>2018-08-08T11:57:00.000Z</time>
      </trkpt>
      <trkpt lat="42.70915" lon="0.66744">
        <ele>1583.6</ele>
        <time>2018-08-08T11:57:01.000Z</time>
      </trkpt>
      <trkpt lat="42.70915" lon="0.66744">
        <ele>1583.6</ele>
        <time>2018-08-08T11:57:02.000Z</time>
      </trkpt>
      <trkpt lat="42.70915" lon="0.66744">
        <ele>1583.6</ele>
        <time>2018-08-08T11:57:03.000Z</time>
      </trkpt>
      <trkpt lat="42.70915" lon="0.66744">
        <ele>1583.6</ele>
        <time>2018-08-08T11:57:04.000Z</time>
      </trkpt>
      <trkpt lat="42.70915" lon="0.66744">
        <ele>1583.6</ele>
        <time>2018-08-08T11:57:05.000Z</time>
      </trkpt>
      <trkpt lat="42.70915" lon="0.66744">
        <ele>1583.6</ele>
        <time>2018-08-08T11:57:06.000Z</time>
      </trkpt>
      <trkpt lat="42.70915" lon="0.66744">
        <ele>1583.6</ele>
        <time>2018-08-08T11:57:07.000Z</time>
      </trkpt>
      <trkpt lat="42.70915" lon="0.66744">
        <ele>1583.6</ele>
        <time>2018-08-08T11:57:08.000Z</time>
      </trkpt>
      <trkpt lat="42.70915" lon="0.66744">
        <ele>1583.6</ele>
        <time>2018-08-08T11:57:09.000Z</time>
      </trkpt>
      <trkpt lat="42.70915" lon="0.66744">
        <ele>1583.6</ele>
        <time>2018-08-08T11:57:10.000Z</time>
      </trkpt>
      <trkpt lat="42.70915" lon="0.66744">
        <ele>1583.6</ele>
        <time>2018-08-08T11:57:11.000Z</time>
      </trkpt>
      <trkpt lat="42.70915" lon="0.66744">
        <ele>1583.6</ele>
        <time>2018-08-08T11:57:12.000Z</time>
      </trkpt>
      <trkpt lat="42.70915" lon="0.66744">
        <ele>1583.6</ele>
        <time>2018-08-08T11:57:13.000Z</time>
      </trkpt>
      <trkpt lat="42.70915" lon="0.66744">
        <ele>1583.6</ele>
        <time>2018-08-08T11:57:14.000Z</time>
      </trkpt>
      <trkpt lat="42.70915" lon="0.66744">
        <ele>1583.6</ele>
        <time>2018-08-08T11:57:15.000Z</time>
      </trkpt>
      <trkpt lat="42.70915" lon="0.66744">
        <ele>1583.6</ele>
        <time>2018-08-08T11:57:16.000Z</time>
      </trkpt>
      <trkpt lat="42.70915" lon="0.66744">
        <ele>1583.6</ele>
        <time>2018-08-08T11:57:17.000Z</time>
      </trkpt>
      <trkpt lat="42.70915" lon="0.66744">
        <ele>1583.6</ele>
        <time>2018-08-08T11:57:18.000Z</time>
      </trkpt>
      <trkpt lat="42.70915" lon="0.66744">
        <ele>1583.6</ele>
        <time>2018-08-08T11:57:19.000Z</time>
      </trkpt>
      <trkpt lat="42.70915" lon="0.66744">
        <ele>1583.6</ele>
        <time>2018-08-08T11:57:20.000Z</time>
      </trkpt>
      <trkpt lat="42.70915" lon="0.66744">
        <ele>1583.6</ele>
        <time>2018-08-08T11:57:21.000Z</time>
      </trkpt>
      <trkpt lat="42.70915" lon="0.66744">
        <ele>1583.6</ele>
        <time>2018-08-08T11:57:22.000Z</time>
      </trkpt>
      <trkpt lat="42.70915" lon="0.66744">
        <ele>1583.6</ele>
        <time>2018-08-08T11:57:23.000Z</time>
      </trkpt>
      <trkpt lat="42.70915" lon="0.66744">
        <ele>1583.6</ele>
        <time>2018-08-08T11:57:24.000Z</time>
      </trkpt>
      <trkpt lat="42.70915" lon="0.66744">
        <ele>1583.6</ele>
        <time>2018-08-08T11:57:25.000Z</time>
      </trkpt>
      <trkpt lat="42.70915" lon="0.66744">
        <ele>1583.6</ele>
        <time>2018-08-08T11:57:26.000Z</time>
      </trkpt>
      <trkpt lat="42.70915" lon="0.66744">
        <ele>1583.6</ele>
        <time>2018-08-08T11:57:27.000Z</time>
      </trkpt>
      <trkpt lat="42.70915" lon="0.66744">
        <ele>1583.6</ele>
        <time>2018-08-08T11:57:28.000Z</time>
      </trkpt>
      <trkpt lat="42.70915" lon="0.66744">
        <ele>1583.6</ele>
        <time>2018-08-08T11:57:29.000Z</time>
      </trkpt>
      <trkpt lat="42.70915" lon="0.66744">
        <ele>1583.6</ele>
        <time>2018-08-08T11:57:30.000Z</time>
      </trkpt>
      <trkpt lat="42.70915" lon="0.66744">
        <ele>1583.6</ele>
        <time>2018-08-08T11:57:31.000Z</time>
      </trkpt>
      <trkpt lat="42.70915" lon="0.66744">
        <ele>1583.6</ele>
        <time>2018-08-08T11:57:32.000Z</time>
      </trkpt>
      <trkpt lat="42.70915" lon="0.66744">
        <ele>1583.6</ele>
        <time>2018-08-08T11:57:33.000Z</time>
      </trkpt>
      <trkpt lat="42.70915" lon="0.66744">
        <ele>1583.6</ele>
        <time>2018-08-08T11:57:34.000Z</time>
      </trkpt>
      <trkpt lat="42.70915" lon="0.66744">
        <ele>1583.6</ele>
        <time>2018-08-08T11:57:35.000Z</time>
      </trkpt>
      <trkpt lat="42.70915" lon="0.66744">
        <ele>1583.6</ele>
        <time>2018-08-08T11:57:36.000Z</time>
      </trkpt>
      <trkpt lat="42.70915" lon="0.66744">
        <ele>1583.6</ele>
        <time>2018-08-08T11:57:37.000Z</time>
      </trkpt>
      <trkpt lat="42.70915" lon="0.66744">
        <ele>1583.6</ele>
        <time>2018-08-08T11:57:38.000Z</time>
      </trkpt>
      <trkpt lat="42.70915" lon="0.66744">
        <ele>1583.6</ele>
        <time>2018-08-08T11:57:39.000Z</time>
      </trkpt>
      <trkpt lat="42.70915" lon="0.66744">
        <ele>1583.6</ele>
        <time>2018-08-08T11:57:40.000Z</time>
      </trkpt>
      <trkpt lat="42.70915" lon="0.66744">
        <ele>1583.6</ele>
        <time>2018-08-08T11:57:41.000Z</time>
      </trkpt>
      <trkpt lat="42.70915" lon="0.66744">
        <ele>1583.6</ele>
        <time>2018-08-08T11:57:42.000Z</time>
      </trkpt>
      <trkpt lat="42.70915" lon="0.66744">
        <ele>1583.6</ele>
        <time>2018-08-08T11:57:43.000Z</time>
      </trkpt>
      <trkpt lat="42.70915" lon="0.66744">
        <ele>1583.6</ele>
        <time>2018-08-08T11:57:44.000Z</time>
      </trkpt>
      <trkpt lat="42.70915" lon="0.66744">
        <ele>1583.6</ele>
        <time>2018-08-08T11:57:45.000Z</time>
      </trkpt>
      <trkpt lat="42.70915" lon="0.66744">
        <ele>1583.6</ele>
        <time>2018-08-08T11:57:46.000Z</time>
      </trkpt>
      <trkpt lat="42.70915" lon="0.66744">
        <ele>1583.6</ele>
        <time>2018-08-08T11:57:47.000Z</time>
      </trkpt>
      <trkpt lat="42.70915" lon="0.66744">
        <ele>1583.6</ele>
        <time>2018-08-08T11:57:48.000Z</time>
      </trkpt>
      <trkpt lat="42.70915" lon="0.66744">
        <ele>1583.6</ele>
        <time>2018-08-08T11:57:49.000Z</time>
      </trkpt>
      <trkpt lat="42.70915" lon="0.66744">
        <ele>1583.6</ele>
        <time>2018-08-08T11:57:50.000Z</time>
      </trkpt>
      <trkpt lat="42.70915" lon="0.66744">
        <ele>1583.6</ele>
        <time>2018-08-08T11:57:51.000Z</time>
      </trkpt>
      <trkpt lat="42.70915" lon="0.66744">
        <ele>1583.6</ele>
        <time>2018-08-08T11:57:52.000Z</time>
      </trkpt>
      <trkpt lat="42.70915" lon="0.66744">
        <ele>1583.6</ele>
        <time>2018-08-08T11:57:53.000Z</time>
      </trkpt>
      <trkpt lat="42.70915" lon="0.66744">
        <ele>1583.6</ele>
        <time>2018-08-08T11:57:54.000Z</time>
      </trkpt>
      <trkpt lat="42.70915" lon="0.66744">
        <ele>1583.6</ele>
        <time>2018-08-08T11:57:55.000Z</time>
      </trkpt>
      <trkpt lat="42.70915" lon="0.66744">
        <ele>1583.6</ele>
        <time>2018-08-08T11:57:56.000Z</time>
      </trkpt>
      <trkpt lat="42.70915" lon="0.66744">
        <ele>1583.6</ele>
        <time>2018-08-08T11:57:57.000Z</time>
      </trkpt>
      <trkpt lat="42.70915" lon="0.66744">
        <ele>1583.6</ele>
        <time>2018-08-08T11:57:58.000Z</time>
      </trkpt>
      <trkpt lat="42.70915" lon="0.66744">
        <ele>1583.6</ele>
        <time>2018-08-08T11:57:59.000Z</time>
      </trkpt>
      <trkpt lat="42.70915" lon="0.66744">
        <ele>1583.6</ele>
        <time>2018-08-08T11:58:00.000Z</time>
      </trkpt>
      <trkpt lat="42.70915" lon="0.66744">
        <ele>1583.6</ele>
        <time>2018-08-08T11:58:01.000Z</time>
      </trkpt>
      <trkpt lat="42.70915" lon="0.66744">
        <ele>1583.6</ele>
        <time>2018-08-08T11:58:02.000Z</time>
      </trkpt>
      <trkpt lat="42.70915" lon="0.66744">
        <ele>1583.6</ele>
        <time>2018-08-08T11:58:03.000Z</time>
      </trkpt>
      <trkpt lat="42.70915" lon="0.66744">
        <ele>1583.6</ele>
        <time>2018-08-08T11:58:04.000Z</time>
      </trkpt>
      <trkpt lat="42.70915" lon="0.66744">
        <ele>1583.6</ele>
        <time>2018-08-08T11:58:05.000Z</time>
      </trkpt>
      <trkpt lat="42.70915" lon="0.66744">
        <ele>1583.6</ele>
        <time>2018-08-08T11:58:06.000Z</time>
      </trkpt>
      <trkpt lat="42.70915" lon="0.66744">
        <ele>1583.6</ele>
        <time>2018-08-08T11:58:07.000Z</time>
      </trkpt>
      <trkpt lat="42.70915" lon="0.66744">
        <ele>1583.6</ele>
        <time>2018-08-08T11:58:08.000Z</time>
      </trkpt>
      <trkpt lat="42.70915" lon="0.66744">
        <ele>1583.6</ele>
        <time>2018-08-08T11:58:09.000Z</time>
      </trkpt>
      <trkpt lat="42.70915" lon="0.66744">
        <ele>1583.6</ele>
        <time>2018-08-08T11:58:10.000Z</time>
      </trkpt>
      <trkpt lat="42.70915" lon="0.66744">
        <ele>1583.6</ele>
        <time>2018-08-08T11:58:11.000Z</time>
      </trkpt>
      <trkpt lat="42.70915" lon="0.66744">
        <ele>1583.6</ele>
        <time>2018-08-08T11:58:12.000Z</time>
      </trkpt>
      <trkpt lat="42.70915" lon="0.66744">
        <ele>1583.6</ele>
        <time>2018-08-08T11:58:13.000Z</time>
      </trkpt>
      <trkpt lat="42.70915" lon="0.66744">
        <ele>1583.6</ele>
        <time>2018-08-08T11:58:14.000Z</time>
      </trkpt>
      <trkpt lat="42.70915" lon="0.66744">
        <ele>1583.6</ele>
        <time>2018-08-08T11:58:15.000Z</time>
      </trkpt>
      <trkpt lat="42.70915" lon="0.66744">
        <ele>1583.6</ele>
        <time>2018-08-08T11:58:16.000Z</time>
      </trkpt>
      <trkpt lat="42.70915" lon="0.66744">
        <ele>1583.6</ele>
        <time>2018-08-08T11:58:17.000Z</time>
      </trkpt>
      <trkpt lat="42.70915" lon="0.66744">
        <ele>1583.6</ele>
        <time>2018-08-08T11:58:18.000Z</time>
      </trkpt>
      <trkpt lat="42.70915" lon="0.66744">
        <ele>1583.6</ele>
        <time>2018-08-08T11:58:19.000Z</time>
      </trkpt>
      <trkpt lat="42.70915" lon="0.66744">
        <ele>1583.6</ele>
        <time>2018-08-08T11:58:20.000Z</time>
      </trkpt>
      <trkpt lat="42.70915" lon="0.66744">
        <ele>1583.6</ele>
        <time>2018-08-08T11:58:21.000Z</time>
      </trkpt>
      <trkpt lat="42.70915" lon="0.66744">
        <ele>1583.6</ele>
        <time>2018-08-08T11:58:22.000Z</time>
      </trkpt>
      <trkpt lat="42.70915" lon="0.66744">
        <ele>1583.6</ele>
        <time>2018-08-08T11:58:23.000Z</time>
      </trkpt>
      <trkpt lat="42.70915" lon="0.66744">
        <ele>1583.6</ele>
        <time>2018-08-08T11:58:24.000Z</time>
      </trkpt>
      <trkpt lat="42.70915" lon="0.66744">
        <ele>1583.6</ele>
        <time>2018-08-08T11:58:25.000Z</time>
      </trkpt>
      <trkpt lat="42.70915" lon="0.66744">
        <ele>1583.6</ele>
        <time>2018-08-08T11:58:26.000Z</time>
      </trkpt>
      <trkpt lat="42.70915" lon="0.66744">
        <ele>1583.6</ele>
        <time>2018-08-08T11:58:27.000Z</time>
      </trkpt>
      <trkpt lat="42.70915" lon="0.66744">
        <ele>1583.6</ele>
        <time>2018-08-08T11:58:28.000Z</time>
      </trkpt>
      <trkpt lat="42.70915" lon="0.66744">
        <ele>1583.6</ele>
        <time>2018-08-08T11:58:29.000Z</time>
      </trkpt>
      <trkpt lat="42.70915" lon="0.66744">
        <ele>1583.6</ele>
        <time>2018-08-08T11:58:30.000Z</time>
      </trkpt>
      <trkpt lat="42.70915" lon="0.66744">
        <ele>1583.6</ele>
        <time>2018-08-08T11:58:31.000Z</time>
      </trkpt>
      <trkpt lat="42.70915" lon="0.66744">
        <ele>1583.6</ele>
        <time>2018-08-08T11:58:32.000Z</time>
      </trkpt>
      <trkpt lat="42.70915" lon="0.66744">
        <ele>1583.6</ele>
        <time>2018-08-08T11:58:33.000Z</time>
      </trkpt>
      <trkpt lat="42.70915" lon="0.66744">
        <ele>1583.6</ele>
        <time>2018-08-08T11:58:34.000Z</time>
      </trkpt>
      <trkpt lat="42.70915" lon="0.66744">
        <ele>1583.6</ele>
        <time>2018-08-08T11:58:35.000Z</time>
      </trkpt>
      <trkpt lat="42.70915" lon="0.66744">
        <ele>1583.6</ele>
        <time>2018-08-08T11:58:36.000Z</time>
      </trkpt>
      <trkpt lat="42.70915" lon="0.66744">
        <ele>1583.6</ele>
        <time>2018-08-08T11:58:37.000Z</time>
      </trkpt>
      <trkpt lat="42.70915" lon="0.66744">
        <ele>1583.6</ele>
        <time>2018-08-08T11:58:38.000Z</time>
      </trkpt>
      <trkpt lat="42.70915" lon="0.66744">
        <ele>1583.6</ele>
        <time>2018-08-08T11:58:39.000Z</time>
      </trkpt>
      <trkpt lat="42.70915" lon="0.66744">
        <ele>1583.6</ele>
        <time>2018-08-08T11:58:40.000Z</time>
      </trkpt>
      <trkpt lat="42.70915" lon="0.66744">
        <ele>1583.6</ele>
        <time>2018-08-08T11:58:41.000Z</time>
      </trkpt>
      <trkpt lat="42.70915" lon="0.66744">
        <ele>1583.6</ele>
        <time>2018-08-08T11:58:42.000Z</time>
      </trkpt>
      <trkpt lat="42.70915" lon="0.66744">
        <ele>1583.6</ele>
        <time>2018-08-08T11:58:43.000Z</time>
      </trkpt>
      <trkpt lat="42.70915" lon="0.66744">
        <ele>1583.6</ele>
        <time>2018-08-08T11:58:44.000Z</time>
      </trkpt>
      <trkpt lat="42.70915" lon="0.66744">
        <ele>1583.6</ele>
        <time>2018-08-08T11:58:45.000Z</time>
      </trkpt>
      <trkpt lat="42.70915" lon="0.66744">
        <ele>1583.6</ele>
        <time>2018-08-08T11:58:46.000Z</time>
      </trkpt>
      <trkpt lat="42.70915" lon="0.66744">
        <ele>1583.6</ele>
        <time>2018-08-08T11:58:47.000Z</time>
      </trkpt>
      <trkpt lat="42.70915" lon="0.66744">
        <ele>1583.6</ele>
        <time>2018-08-08T11:58:48.000Z</time>
      </trkpt>
      <trkpt lat="42.70915" lon="0.66744">
        <ele>1583.6</ele>
        <time>2018-08-08T11:58:49.000Z</time>
      </trkpt>
      <trkpt lat="42.70915" lon="0.66744">
        <ele>1583.6</ele>
        <time>2018-08-08T11:58:50.000Z</time>
      </trkpt>
      <trkpt lat="42.70915" lon="0.66744">
        <ele>1583.6</ele>
        <time>2018-08-08T11:58:51.000Z</time>
      </trkpt>
      <trkpt lat="42.70915" lon="0.66744">
        <ele>1583.6</ele>
        <time>2018-08-08T11:58:52.000Z</time>
      </trkpt>
      <trkpt lat="42.70915" lon="0.66744">
        <ele>1583.6</ele>
        <time>2018-08-08T11:58:53.000Z</time>
      </trkpt>
      <trkpt lat="42.70915" lon="0.66744">
        <ele>1583.6</ele>
        <time>2018-08-08T11:58:54.000Z</time>
      </trkpt>
      <trkpt lat="42.70915" lon="0.66744">
        <ele>1583.6</ele>
        <time>2018-08-08T11:58:55.000Z</time>
      </trkpt>
      <trkpt lat="42.70915" lon="0.66744">
        <ele>1583.6</ele>
        <time>2018-08-08T11:58:56.000Z</time>
      </trkpt>
      <trkpt lat="42.70915" lon="0.66744">
        <ele>1583.6</ele>
        <time>2018-08-08T11:58:57.000Z</time>
      </trkpt>
      <trkpt lat="42.70915" lon="0.66744">
        <ele>1583.6</ele>
        <time>2018-08-08T11:58:58.000Z</time>
      </trkpt>
      <trkpt lat="42.70915" lon="0.66744">
        <ele>1583.6</ele>
        <time>2018-08-08T11:58:59.000Z</time>
      </trkpt>
      <trkpt lat="42.70915" lon="0.66744">
        <ele>1583.6</ele>
        <time>2018-08-08T11:59:00.000Z</time>
      </trkpt>
      <trkpt lat="42.70915" lon="0.66744">
        <ele>1583.6</ele>
        <time>2018-08-08T11:59:01.000Z</time>
      </trkpt>
      <trkpt lat="42.70915" lon="0.66744">
        <ele>1583.6</ele>
        <time>2018-08-08T11:59:02.000Z</time>
      </trkpt>
      <trkpt lat="42.70915" lon="0.66744">
        <ele>1583.6</ele>
        <time>2018-08-08T11:59:03.000Z</time>
      </trkpt>
      <trkpt lat="42.70915" lon="0.66744">
        <ele>1583.6</ele>
        <time>2018-08-08T11:59:04.000Z</time>
      </trkpt>
      <trkpt lat="42.70915" lon="0.66744">
        <ele>1583.6</ele>
        <time>2018-08-08T11:59:05.000Z</time>
      </trkpt>
      <trkpt lat="42.70915" lon="0.66744">
        <ele>1583.6</ele>
        <time>2018-08-08T11:59:06.000Z</time>
      </trkpt>
      <trkpt lat="42.70915" lon="0.66744">
        <ele>1583.6</ele>
        <time>2018-08-08T11:59:07.000Z</time>
      </trkpt>
      <trkpt lat="42.70915" lon="0.66744">
        <ele>1583.6</ele>
        <time>2018-08-08T11:59:08.000Z</time>
      </trkpt>
      <trkpt lat="42.70915" lon="0.66744">
        <ele>1583.6</ele>
        <time>2018-08-08T11:59:09.000Z</time>
      </trkpt>
      <trkpt lat="42.70915" lon="0.66744">
        <ele>1583.6</ele>
        <time>2018-08-08T11:59:10.000Z</time>
      </trkpt>
      <trkpt lat="42.70915" lon="0.66744">
        <ele>1583.6</ele>
        <time>2018-08-08T11:59:11.000Z</time>
      </trkpt>
      <trkpt lat="42.70915" lon="0.66744">
        <ele>1583.6</ele>
        <time>2018-08-08T11:59:12.000Z</time>
      </trkpt>
      <trkpt lat="42.70915" lon="0.66744">
        <ele>1583.6</ele>
        <time>2018-08-08T11:59:13.000Z</time>
      </trkpt>
      <trkpt lat="42.70915" lon="0.66744">
        <ele>1583.6</ele>
        <time>2018-08-08T11:59:14.000Z</time>
      </trkpt>
      <trkpt lat="42.70915" lon="0.66744">
        <ele>1583.6</ele>
        <time>2018-08-08T11:59:15.000Z</time>
      </trkpt>
      <trkpt lat="42.70915" lon="0.66744">
        <ele>1583.6</ele>
        <time>2018-08-08T11:59:16.000Z</time>
      </trkpt>
      <trkpt lat="42.70915" lon="0.66744">
        <ele>1583.6</ele>
        <time>2018-08-08T11:59:17.000Z</time>
      </trkpt>
      <trkpt lat="42.70915" lon="0.66744">
        <ele>1583.6</ele>
        <time>2018-08-08T11:59:18.000Z</time>
      </trkpt>
      <trkpt lat="42.70915" lon="0.66744">
        <ele>1583.6</ele>
        <time>2018-08-08T11:59:19.000Z</time>
      </trkpt>
      <trkpt lat="42.70915" lon="0.66744">
        <ele>1583.6</ele>
        <time>2018-08-08T11:59:20.000Z</time>
      </trkpt>
      <trkpt lat="42.70915" lon="0.66744">
        <ele>1583.6</ele>
        <time>2018-08-08T11:59:21.000Z</time>
      </trkpt>
      <trkpt lat="42.70915" lon="0.66744">
        <ele>1583.6</ele>
        <time>2018-08-08T11:59:22.000Z</time>
      </trkpt>
      <trkpt lat="42.70915" lon="0.66744">
        <ele>1583.6</ele>
        <time>2018-08-08T11:59:23.000Z</time>
      </trkpt>
      <trkpt lat="42.70915" lon="0.66744">
        <ele>1583.6</ele>
        <time>2018-08-08T11:59:24.000Z</time>
      </trkpt>
      <trkpt lat="42.70915" lon="0.66744">
        <ele>1583.6</ele>
        <time>2018-08-08T11:59:25.000Z</time>
      </trkpt>
      <trkpt lat="42.70915" lon="0.66744">
        <ele>1583.6</ele>
        <time>2018-08-08T11:59:26.000Z</time>
      </trkpt>
      <trkpt lat="42.70915" lon="0.66744">
        <ele>1583.6</ele>
        <time>2018-08-08T11:59:27.000Z</time>
      </trkpt>
      <trkpt lat="42.70915" lon="0.66744">
        <ele>1583.6</ele>
        <time>2018-08-08T11:59:28.000Z</time>
      </trkpt>
      <trkpt lat="42.70915" lon="0.66744">
        <ele>1583.6</ele>
        <time>2018-08-08T11:59:29.000Z</time>
      </trkpt>
      <trkpt lat="42.70915" lon="0.66744">
        <ele>1583.6</ele>
        <time>2018-08-08T11:59:30.000Z</time>
      </trkpt>
      <trkpt lat="42.70915" lon="0.66744">
        <ele>1583.6</ele>
        <time>2018-08-08T11:59:31.000Z</time>
      </trkpt>
      <trkpt lat="42.70915" lon="0.66744">
        <ele>1583.6</ele>
        <time>2018-08-08T11:59:32.000Z</time>
      </trkpt>
      <trkpt lat="42.70915" lon="0.66744">
        <ele>1583.6</ele>
        <time>2018-08-08T11:59:33.000Z</time>
      </trkpt>
      <trkpt lat="42.70915" lon="0.66744">
        <ele>1583.6</ele>
        <time>2018-08-08T11:59:34.000Z</time>
      </trkpt>
      <trkpt lat="42.70915" lon="0.66744">
        <ele>1583.6</ele>
        <time>2018-08-08T11:59:35.000Z</time>
      </trkpt>
      <trkpt lat="42.70915" lon="0.66744">
        <ele>1583.6</ele>
        <time>2018-08-08T11:59:36.000Z</time>
      </trkpt>
      <trkpt lat="42.70915" lon="0.66744">
        <ele>1583.6</ele>
        <time>2018-08-08T11:59:37.000Z</time>
      </trkpt>
      <trkpt lat="42.70915" lon="0.66744">
        <ele>1583.6</ele>
        <time>2018-08-08T11:59:38.000Z</time>
      </trkpt>
      <trkpt lat="42.70915" lon="0.66744">
        <ele>1583.6</ele>
        <time>2018-08-08T11:59:39.000Z</time>
      </trkpt>
      <trkpt lat="42.70915" lon="0.66744">
        <ele>1583.6</ele>
        <time>2018-08-08T11:59:40.000Z</time>
      </trkpt>
      <trkpt lat="42.70915" lon="0.66744">
        <ele>1583.6</ele>
        <time>2018-08-08T11:59:41.000Z</time>
      </trkpt>
      <trkpt lat="42.70915" lon="0.66744">
        <ele>1583.6</ele>
        <time>2018-08-08T11:59:42.000Z</time>
      </trkpt>
      <trkpt lat="42.70915" lon="0.66744">
        <ele>1583.6</ele>
        <time>2018-08-08T11:59:43.000Z</time>
      </trkpt>
      <trkpt lat="42.70915" lon="0.66744">
        <ele>1583.6</ele>
        <time>2018-08-08T11:59:44.000Z</time>
      </trkpt>
      <trkpt lat="42.70915" lon="0.66744">
        <ele>1583.6</ele>
        <time>2018-08-08T11:59:45.000Z</time>
      </trkpt>
      <trkpt lat="42.70915" lon="0.66744">
        <ele>1583.6</ele>
        <time>2018-08-08T11:59:46.000Z</time>
      </trkpt>
      <trkpt lat="42.70915" lon="0.66744">
        <ele>1583.6</ele>
        <time>2018-08-08T11:59:47.000Z</time>
      </trkpt>
      <trkpt lat="42.70915" lon="0.66744">
        <ele>1583.6</ele>
        <time>2018-08-08T11:59:48.000Z</time>
      </trkpt>
      <trkpt lat="42.70915" lon="0.66744">
        <ele>1583.6</ele>
        <time>2018-08-08T11:59:49.000Z</time>
      </trkpt>
      <trkpt lat="42.70915" lon="0.66744">
        <ele>1583.6</ele>
        <time>2018-08-08T11:59:50.000Z</time>
      </trkpt>
      <trkpt lat="42.70915" lon="0.66744">
        <ele>1583.6</ele>
        <time>2018-08-08T11:59:51.000Z</time>
      </trkpt>
      <trkpt lat="42.70915" lon="0.66744">
        <ele>1583.6</ele>
        <time>2018-08-08T11:59:52.000Z</time>
      </trkpt>
      <trkpt lat="42.70915" lon="0.66744">
        <ele>1583.6</ele>
        <time>2018-08-08T11:59:53.000Z</time>
      </trkpt>
      <trkpt lat="42.70915" lon="0.66744">
        <ele>1583.6</ele>
        <time>2018-08-08T11:59:54.000Z</time>
      </trkpt>
      <trkpt lat="42.70915" lon="0.66744">
        <ele>1583.6</ele>
        <time>2018-08-08T11:59:55.000Z</time>
      </trkpt>
      <trkpt lat="42.70915" lon="0.66744">
        <ele>1583.6</ele>
        <time>2018-08-08T11:59:56.000Z</time>
      </trkpt>
      <trkpt lat="42.70915" lon="0.66744">
        <ele>1583.6</ele>
        <time>2018-08-08T11:59:57.000Z</time>
      </trkpt>
      <trkpt lat="42.70915" lon="0.66744">
        <ele>1583.6</ele>
        <time>2018-08-08T11:59:58.000Z</time>
      </trkpt>
      <trkpt lat="42.70915" lon="0.66744">
        <ele>1583.6</ele>
        <time>2018-08-08T11:59:59.000Z</time>
      </trkpt>
      <trkpt lat="42.70915" lon="0.66744">
        <ele>1583.6</ele>
        <time>2018-08-08T12:00:00.000Z</time>
      </trkpt>
      <trkpt lat="42.70915" lon="0.66744">
        <ele>1583.6</ele>
        <time>2018-08-08T12:00:01.000Z</time>
      </trkpt>
      <trkpt lat="42.70915" lon="0.66744">
        <ele>1583.6</ele>
        <time>2018-08-08T12:00:02.000Z</time>
      </trkpt>
      <trkpt lat="42.70915" lon="0.66744">
        <ele>1583.6</ele>
        <time>2018-08-08T12:00:03.000Z</time>
      </trkpt>
      <trkpt lat="42.70915" lon="0.66744">
        <ele>1583.6</ele>
        <time>2018-08-08T12:00:04.000Z</time>
      </trkpt>
      <trkpt lat="42.70915" lon="0.66744">
        <ele>1583.6</ele>
        <time>2018-08-08T12:00:05.000Z</time>
      </trkpt>
      <trkpt lat="42.70915" lon="0.66744">
        <ele>1583.6</ele>
        <time>2018-08-08T12:00:06.000Z</time>
      </trkpt>
      <trkpt lat="42.70915" lon="0.66744">
        <ele>1583.6</ele>
        <time>2018-08-08T12:00:07.000Z</time>
      </trkpt>
      <trkpt lat="42.70915" lon="0.66744">
        <ele>1583.6</ele>
        <time>2018-08-08T12:00:08.000Z</time>
      </trkpt>
      <trkpt lat="42.70915" lon="0.66744">
        <ele>1583.6</ele>
        <time>2018-08-08T12:00:09.000Z</time>
      </trkpt>
      <trkpt lat="42.70915" lon="0.66744">
        <ele>1583.6</ele>
        <time>2018-08-08T12:00:10.000Z</time>
      </trkpt>
      <trkpt lat="42.70915" lon="0.66744">
        <ele>1583.6</ele>
        <time>2018-08-08T12:00:11.000Z</time>
      </trkpt>
      <trkpt lat="42.70915" lon="0.66744">
        <ele>1583.6</ele>
        <time>2018-08-08T12:00:12.000Z</time>
      </trkpt>
      <trkpt lat="42.70915" lon="0.66744">
        <ele>1583.6</ele>
        <time>2018-08-08T12:00:13.000Z</time>
      </trkpt>
      <trkpt lat="42.70915" lon="0.66744">
        <ele>1583.6</ele>
        <time>2018-08-08T12:00:14.000Z</time>
      </trkpt>
      <trkpt lat="42.70915" lon="0.66744">
        <ele>1583.6</ele>
        <time>2018-08-08T12:00:15.000Z</time>
      </trkpt>
      <trkpt lat="42.70915" lon="0.66744">
        <ele>1583.6</ele>
        <time>2018-08-08T12:00:16.000Z</time>
      </trkpt>
      <trkpt lat="42.70915" lon="0.66744">
        <ele>1583.6</ele>
        <time>2018-08-08T12:00:17.000Z</time>
      </trkpt>
      <trkpt lat="42.70915" lon="0.66744">
        <ele>1583.6</ele>
        <time>2018-08-08T12:00:18.000Z</time>
      </trkpt>
      <trkpt lat="42.70915" lon="0.66744">
        <ele>1583.6</ele>
        <time>2018-08-08T12:00:19.000Z</time>
      </trkpt>
      <trkpt lat="42.70915" lon="0.66744">
        <ele>1583.6</ele>
        <time>2018-08-08T12:00:20.000Z</time>
      </trkpt>
      <trkpt lat="42.70915" lon="0.66744">
        <ele>1583.6</ele>
        <time>2018-08-08T12:00:21.000Z</time>
      </trkpt>
      <trkpt lat="42.70915" lon="0.66744">
        <ele>1583.6</ele>
        <time>2018-08-08T12:00:22.000Z</time>
      </trkpt>
      <trkpt lat="42.70915" lon="0.66744">
        <ele>1583.6</ele>
        <time>2018-08-08T12:00:23.000Z</time>
      </trkpt>
      <trkpt lat="42.70915" lon="0.66744">
        <ele>1583.6</ele>
        <time>2018-08-08T12:00:24.000Z</time>
      </trkpt>
      <trkpt lat="42.70915" lon="0.66744">
        <ele>1583.6</ele>
        <time>2018-08-08T12:00:25.000Z</time>
      </trkpt>
      <trkpt lat="42.70915" lon="0.66744">
        <ele>1583.6</ele>
        <time>2018-08-08T12:00:26.000Z</time>
      </trkpt>
      <trkpt lat="42.70915" lon="0.66744">
        <ele>1583.6</ele>
        <time>2018-08-08T12:00:27.000Z</time>
      </trkpt>
      <trkpt lat="42.70915" lon="0.66744">
        <ele>1583.6</ele>
        <time>2018-08-08T12:00:28.000Z</time>
      </trkpt>
      <trkpt lat="42.70915" lon="0.66744">
        <ele>1583.6</ele>
        <time>2018-08-08T12:00:29.000Z</time>
      </trkpt>
      <trkpt lat="42.70915" lon="0.66744">
        <ele>1583.7</ele>
        <time>2018-08-08T12:00:30.000Z</time>
      </trkpt>
      <trkpt lat="42.70915" lon="0.66744">
        <ele>1583.7</ele>
        <time>2018-08-08T12:00:31.000Z</time>
      </trkpt>
      <trkpt lat="42.70916" lon="0.66743">
        <ele>1583.8</ele>
        <time>2018-08-08T12:00:32.000Z</time>
      </trkpt>
      <trkpt lat="42.70916" lon="0.66743">
        <ele>1584</ele>
        <time>2018-08-08T12:00:33.000Z</time>
      </trkpt>
      <trkpt lat="42.70917" lon="0.66742">
        <ele>1584.2</ele>
        <time>2018-08-08T12:00:34.000Z</time>
      </trkpt>
      <trkpt lat="42.70918" lon="0.66741">
        <ele>1584.4</ele>
        <time>2018-08-08T12:00:35.000Z</time>
      </trkpt>
      <trkpt lat="42.70918" lon="0.6674">
        <ele>1584.7</ele>
        <time>2018-08-08T12:00:36.000Z</time>
      </trkpt>
      <trkpt lat="42.70919" lon="0.66739">
        <ele>1584.9</ele>
        <time>2018-08-08T12:00:37.000Z</time>
      </trkpt>
      <trkpt lat="42.70919" lon="0.66739">
        <ele>1585</ele>
        <time>2018-08-08T12:00:38.000Z</time>
      </trkpt>
      <trkpt lat="42.70919" lon="0.66739">
        <ele>1585</ele>
        <time>2018-08-08T12:00:39.000Z</time>
      </trkpt>
      <trkpt lat="42.70919" lon="0.66739">
        <ele>1585</ele>
        <time>2018-08-08T12:00:40.000Z</time>
      </trkpt>
      <trkpt lat="42.70919" lon="0.66739">
        <ele>1585</ele>
        <time>2018-08-08T12:00:41.000Z</time>
      </trkpt>
      <trkpt lat="42.70919" lon="0.66739">
        <ele>1585</ele>
        <time>2018-08-08T12:00:42.000Z</time>
      </trkpt>
      <trkpt lat="42.70919" lon="0.66739">
        <ele>1585</ele>
        <time>2018-08-08T12:00:43.000Z</time>
      </trkpt>
      <trkpt lat="42.70919" lon="0.66739">
        <ele>1585</ele>
        <time>2018-08-08T12:00:44.000Z</time>
      </trkpt>
      <trkpt lat="42.70919" lon="0.66739">
        <ele>1585</ele>
        <time>2018-08-08T12:00:45.000Z</time>
      </trkpt>
      <trkpt lat="42.70919" lon="0.66739">
        <ele>1585</ele>
        <time>2018-08-08T12:00:46.000Z</time>
      </trkpt>
      <trkpt lat="42.70919" lon="0.66739">
        <ele>1585</ele>
        <time>2018-08-08T12:00:47.000Z</time>
      </trkpt>
      <trkpt lat="42.70919" lon="0.66739">
        <ele>1585</ele>
        <time>2018-08-08T12:00:48.000Z</time>
      </trkpt>
      <trkpt lat="42.70919" lon="0.66739">
        <ele>1585</ele>
        <time>2018-08-08T12:00:49.000Z</time>
      </trkpt>
      <trkpt lat="42.70919" lon="0.66739">
        <ele>1585</ele>
        <time>2018-08-08T12:00:50.000Z</time>
      </trkpt>
      <trkpt lat="42.70919" lon="0.66739">
        <ele>1585</ele>
        <time>2018-08-08T12:00:51.000Z</time>
      </trkpt>
      <trkpt lat="42.70919" lon="0.66739">
        <ele>1585</ele>
        <time>2018-08-08T12:00:52.000Z</time>
      </trkpt>
      <trkpt lat="42.70919" lon="0.66739">
        <ele>1585</ele>
        <time>2018-08-08T12:00:53.000Z</time>
      </trkpt>
      <trkpt lat="42.70919" lon="0.66739">
        <ele>1585</ele>
        <time>2018-08-08T12:00:54.000Z</time>
      </trkpt>
      <trkpt lat="42.70919" lon="0.66739">
        <ele>1585</ele>
        <time>2018-08-08T12:00:55.000Z</time>
      </trkpt>
      <trkpt lat="42.70919" lon="0.66739">
        <ele>1585</ele>
        <time>2018-08-08T12:00:56.000Z</time>
      </trkpt>
      <trkpt lat="42.70919" lon="0.66739">
        <ele>1585</ele>
        <time>2018-08-08T12:00:57.000Z</time>
      </trkpt>
      <trkpt lat="42.70919" lon="0.66739">
        <ele>1585</ele>
        <time>2018-08-08T12:00:58.000Z</time>
      </trkpt>
      <trkpt lat="42.70919" lon="0.66739">
        <ele>1585</ele>
        <time>2018-08-08T12:00:59.000Z</time>
      </trkpt>
      <trkpt lat="42.70919" lon="0.66739">
        <ele>1585</ele>
        <time>2018-08-08T12:01:00.000Z</time>
      </trkpt>
      <trkpt lat="42.70919" lon="0.66739">
        <ele>1585</ele>
        <time>2018-08-08T12:01:01.000Z</time>
      </trkpt>
      <trkpt lat="42.70919" lon="0.66739">
        <ele>1585</ele>
        <time>2018-08-08T12:01:02.000Z</time>
      </trkpt>
      <trkpt lat="42.70919" lon="0.66739">
        <ele>1585</ele>
        <time>2018-08-08T12:01:03.000Z</time>
      </trkpt>
      <trkpt lat="42.70919" lon="0.66739">
        <ele>1585</ele>
        <time>2018-08-08T12:01:04.000Z</time>
      </trkpt>
      <trkpt lat="42.70919" lon="0.66739">
        <ele>1585</ele>
        <time>2018-08-08T12:01:05.000Z</time>
      </trkpt>
      <trkpt lat="42.70919" lon="0.66739">
        <ele>1585</ele>
        <time>2018-08-08T12:01:06.000Z</time>
      </trkpt>
      <trkpt lat="42.70919" lon="0.66739">
        <ele>1585</ele>
        <time>2018-08-08T12:01:07.000Z</time>
      </trkpt>
      <trkpt lat="42.70919" lon="0.66739">
        <ele>1585</ele>
        <time>2018-08-08T12:01:08.000Z</time>
      </trkpt>
      <trkpt lat="42.70919" lon="0.66739">
        <ele>1585</ele>
        <time>2018-08-08T12:01:09.000Z</time>
      </trkpt>
      <trkpt lat="42.70919" lon="0.66739">
        <ele>1585</ele>
        <time>2018-08-08T12:01:10.000Z</time>
      </trkpt>
      <trkpt lat="42.70919" lon="0.66739">
        <ele>1585</ele>
        <time>2018-08-08T12:01:11.000Z</time>
      </trkpt>
      <trkpt lat="42.70919" lon="0.66739">
        <ele>1585</ele>
        <time>2018-08-08T12:01:12.000Z</time>
      </trkpt>
      <trkpt lat="42.70919" lon="0.66739">
        <ele>1585</ele>
        <time>2018-08-08T12:01:13.000Z</time>
      </trkpt>
      <trkpt lat="42.70919" lon="0.66739">
        <ele>1585</ele>
        <time>2018-08-08T12:01:14.000Z</time>
      </trkpt>
      <trkpt lat="42.70919" lon="0.66739">
        <ele>1585</ele>
        <time>2018-08-08T12:01:15.000Z</time>
      </trkpt>
      <trkpt lat="42.70919" lon="0.66739">
        <ele>1585</ele>
        <time>2018-08-08T12:01:16.000Z</time>
      </trkpt>
      <trkpt lat="42.70919" lon="0.66739">
        <ele>1585</ele>
        <time>2018-08-08T12:01:17.000Z</time>
      </trkpt>
      <trkpt lat="42.70919" lon="0.66739">
        <ele>1585</ele>
        <time>2018-08-08T12:01:18.000Z</time>
      </trkpt>
      <trkpt lat="42.70919" lon="0.66739">
        <ele>1585</ele>
        <time>2018-08-08T12:01:19.000Z</time>
      </trkpt>
      <trkpt lat="42.70919" lon="0.66739">
        <ele>1585</ele>
        <time>2018-08-08T12:01:20.000Z</time>
      </trkpt>
      <trkpt lat="42.70919" lon="0.66739">
        <ele>1585</ele>
        <time>2018-08-08T12:01:21.000Z</time>
      </trkpt>
      <trkpt lat="42.70919" lon="0.66739">
        <ele>1585</ele>
        <time>2018-08-08T12:01:22.000Z</time>
      </trkpt>
      <trkpt lat="42.70919" lon="0.66739">
        <ele>1585</ele>
        <time>2018-08-08T12:01:23.000Z</time>
      </trkpt>
      <trkpt lat="42.70919" lon="0.66739">
        <ele>1585</ele>
        <time>2018-08-08T12:01:24.000Z</time>
      </trkpt>
      <trkpt lat="42.70919" lon="0.66739">
        <ele>1585</ele>
        <time>2018-08-08T12:01:25.000Z</time>
      </trkpt>
      <trkpt lat="42.70919" lon="0.66739">
        <ele>1585</ele>
        <time>2018-08-08T12:01:26.000Z</time>
      </trkpt>
      <trkpt lat="42.70919" lon="0.66739">
        <ele>1585</ele>
        <time>2018-08-08T12:01:27.000Z</time>
      </trkpt>
      <trkpt lat="42.70919" lon="0.66739">
        <ele>1585</ele>
        <time>2018-08-08T12:01:28.000Z</time>
      </trkpt>
      <trkpt lat="42.70919" lon="0.66739">
        <ele>1585</ele>
        <time>2018-08-08T12:01:29.000Z</time>
      </trkpt>
      <trkpt lat="42.70919" lon="0.66739">
        <ele>1585</ele>
        <time>2018-08-08T12:01:30.000Z</time>
      </trkpt>
      <trkpt lat="42.70919" lon="0.66739">
        <ele>1585</ele>
        <time>2018-08-08T12:01:31.000Z</time>
      </trkpt>
      <trkpt lat="42.70919" lon="0.66739">
        <ele>1585</ele>
        <time>2018-08-08T12:01:32.000Z</time>
      </trkpt>
      <trkpt lat="42.70919" lon="0.66739">
        <ele>1585</ele>
        <time>2018-08-08T12:01:33.000Z</time>
      </trkpt>
      <trkpt lat="42.70919" lon="0.66739">
        <ele>1585</ele>
        <time>2018-08-08T12:01:34.000Z</time>
      </trkpt>
      <trkpt lat="42.70919" lon="0.66739">
        <ele>1584.9</ele>
        <time>2018-08-08T12:01:35.000Z</time>
      </trkpt>
      <trkpt lat="42.70919" lon="0.66739">
        <ele>1584.9</ele>
        <time>2018-08-08T12:01:36.000Z</time>
      </trkpt>
      <trkpt lat="42.70919" lon="0.6674">
        <ele>1584.7</ele>
        <time>2018-08-08T12:01:37.000Z</time>
      </trkpt>
      <trkpt lat="42.70918" lon="0.6674">
        <ele>1584.6</ele>
        <time>2018-08-08T12:01:38.000Z</time>
      </trkpt>
      <trkpt lat="42.70918" lon="0.66741">
        <ele>1584.5</ele>
        <time>2018-08-08T12:01:39.000Z</time>
      </trkpt>
      <trkpt lat="42.70918" lon="0.66741">
        <ele>1584.3</ele>
        <time>2018-08-08T12:01:40.000Z</time>
      </trkpt>
      <trkpt lat="42.70917" lon="0.66742">
        <ele>1584.1</ele>
        <time>2018-08-08T12:01:41.000Z</time>
      </trkpt>
      <trkpt lat="42.70917" lon="0.66742">
        <ele>1584</ele>
        <time>2018-08-08T12:01:42.000Z</time>
      </trkpt>
      <trkpt lat="42.70917" lon="0.66743">
        <ele>1583.9</ele>
        <time>2018-08-08T12:01:43.000Z</time>
      </trkpt>
      <trkpt lat="42.70917" lon="0.66743">
        <ele>1583.7</ele>
        <time>2018-08-08T12:01:44.000Z</time>
      </trkpt>
      <trkpt lat="42.70917" lon="0.66743">
        <ele>1583.6</ele>
        <time>2018-08-08T12:01:45.000Z</time>
      </trkpt>
      <trkpt lat="42.70917" lon="0.66743">
        <ele>1583.6</ele>
        <time>2018-08-08T12:01:46.000Z</time>
      </trkpt>
      <trkpt lat="42.70917" lon="0.66743">
        <ele>1583.5</ele>
        <time>2018-08-08T12:01:47.000Z</time>
      </trkpt>
      <trkpt lat="42.70917" lon="0.66744">
        <ele>1583.5</ele>
        <time>2018-08-08T12:01:48.000Z</time>
      </trkpt>
      <trkpt lat="42.70917" lon="0.66744">
        <ele>1583.5</ele>
        <time>2018-08-08T12:01:49.000Z</time>
      </trkpt>
      <trkpt lat="42.70917" lon="0.66744">
        <ele>1583.5</ele>
        <time>2018-08-08T12:01:50.000Z</time>
      </trkpt>
      <trkpt lat="42.70917" lon="0.66744">
        <ele>1583.5</ele>
        <time>2018-08-08T12:01:51.000Z</time>
      </trkpt>
      <trkpt lat="42.70917" lon="0.66744">
        <ele>1583.5</ele>
        <time>2018-08-08T12:01:52.000Z</time>
      </trkpt>
      <trkpt lat="42.70917" lon="0.66744">
        <ele>1583.5</ele>
        <time>2018-08-08T12:01:53.000Z</time>
      </trkpt>
      <trkpt lat="42.70917" lon="0.66744">
        <ele>1583.5</ele>
        <time>2018-08-08T12:01:54.000Z</time>
      </trkpt>
      <trkpt lat="42.70917" lon="0.66744">
        <ele>1583.5</ele>
        <time>2018-08-08T12:01:55.000Z</time>
      </trkpt>
      <trkpt lat="42.70917" lon="0.66744">
        <ele>1583.5</ele>
        <time>2018-08-08T12:01:56.000Z</time>
      </trkpt>
      <trkpt lat="42.70917" lon="0.66744">
        <ele>1583.5</ele>
        <time>2018-08-08T12:01:57.000Z</time>
      </trkpt>
      <trkpt lat="42.70917" lon="0.66744">
        <ele>1583.5</ele>
        <time>2018-08-08T12:01:58.000Z</time>
      </trkpt>
      <trkpt lat="42.70917" lon="0.66744">
        <ele>1583.5</ele>
        <time>2018-08-08T12:01:59.000Z</time>
      </trkpt>
      <trkpt lat="42.70917" lon="0.66744">
        <ele>1583.5</ele>
        <time>2018-08-08T12:02:00.000Z</time>
      </trkpt>
      <trkpt lat="42.70917" lon="0.66744">
        <ele>1583.5</ele>
        <time>2018-08-08T12:02:01.000Z</time>
      </trkpt>
      <trkpt lat="42.70917" lon="0.66744">
        <ele>1583.5</ele>
        <time>2018-08-08T12:02:02.000Z</time>
      </trkpt>
      <trkpt lat="42.70917" lon="0.66744">
        <ele>1583.5</ele>
        <time>2018-08-08T12:02:03.000Z</time>
      </trkpt>
      <trkpt lat="42.70917" lon="0.66744">
        <ele>1583.5</ele>
        <time>2018-08-08T12:02:04.000Z</time>
      </trkpt>
      <trkpt lat="42.70917" lon="0.66744">
        <ele>1583.5</ele>
        <time>2018-08-08T12:02:05.000Z</time>
      </trkpt>
      <trkpt lat="42.70917" lon="0.66744">
        <ele>1583.5</ele>
        <time>2018-08-08T12:02:06.000Z</time>
      </trkpt>
      <trkpt lat="42.70917" lon="0.66744">
        <ele>1583.5</ele>
        <time>2018-08-08T12:02:07.000Z</time>
      </trkpt>
      <trkpt lat="42.70917" lon="0.66744">
        <ele>1583.5</ele>
        <time>2018-08-08T12:02:08.000Z</time>
      </trkpt>
      <trkpt lat="42.70917" lon="0.66744">
        <ele>1583.5</ele>
        <time>2018-08-08T12:02:09.000Z</time>
      </trkpt>
      <trkpt lat="42.70917" lon="0.66744">
        <ele>1583.5</ele>
        <time>2018-08-08T12:02:10.000Z</time>
      </trkpt>
      <trkpt lat="42.70917" lon="0.66744">
        <ele>1583.5</ele>
        <time>2018-08-08T12:02:11.000Z</time>
      </trkpt>
      <trkpt lat="42.70917" lon="0.66744">
        <ele>1583.5</ele>
        <time>2018-08-08T12:02:12.000Z</time>
      </trkpt>
      <trkpt lat="42.70917" lon="0.66744">
        <ele>1583.5</ele>
        <time>2018-08-08T12:02:13.000Z</time>
      </trkpt>
      <trkpt lat="42.70917" lon="0.66744">
        <ele>1583.5</ele>
        <time>2018-08-08T12:02:14.000Z</time>
      </trkpt>
      <trkpt lat="42.70917" lon="0.66744">
        <ele>1583.5</ele>
        <time>2018-08-08T12:02:15.000Z</time>
      </trkpt>
      <trkpt lat="42.70917" lon="0.66744">
        <ele>1583.5</ele>
        <time>2018-08-08T12:02:16.000Z</time>
      </trkpt>
      <trkpt lat="42.70917" lon="0.66744">
        <ele>1583.5</ele>
        <time>2018-08-08T12:02:17.000Z</time>
      </trkpt>
      <trkpt lat="42.70917" lon="0.66744">
        <ele>1583.5</ele>
        <time>2018-08-08T12:02:18.000Z</time>
      </trkpt>
      <trkpt lat="42.70917" lon="0.66744">
        <ele>1583.5</ele>
        <time>2018-08-08T12:02:19.000Z</time>
      </trkpt>
      <trkpt lat="42.70917" lon="0.66744">
        <ele>1583.5</ele>
        <time>2018-08-08T12:02:20.000Z</time>
      </trkpt>
      <trkpt lat="42.70917" lon="0.66744">
        <ele>1583.5</ele>
        <time>2018-08-08T12:02:21.000Z</time>
      </trkpt>
      <trkpt lat="42.70917" lon="0.66744">
        <ele>1583.5</ele>
        <time>2018-08-08T12:02:22.000Z</time>
      </trkpt>
      <trkpt lat="42.70917" lon="0.66744">
        <ele>1583.5</ele>
        <time>2018-08-08T12:02:23.000Z</time>
      </trkpt>
      <trkpt lat="42.70917" lon="0.66744">
        <ele>1583.5</ele>
        <time>2018-08-08T12:02:24.000Z</time>
      </trkpt>
      <trkpt lat="42.70917" lon="0.66744">
        <ele>1583.5</ele>
        <time>2018-08-08T12:02:25.000Z</time>
      </trkpt>
      <trkpt lat="42.70917" lon="0.66744">
        <ele>1583.5</ele>
        <time>2018-08-08T12:02:26.000Z</time>
      </trkpt>
      <trkpt lat="42.70917" lon="0.66744">
        <ele>1583.5</ele>
        <time>2018-08-08T12:02:27.000Z</time>
      </trkpt>
      <trkpt lat="42.70917" lon="0.66744">
        <ele>1583.5</ele>
        <time>2018-08-08T12:02:28.000Z</time>
      </trkpt>
      <trkpt lat="42.70917" lon="0.66744">
        <ele>1583.5</ele>
        <time>2018-08-08T12:02:29.000Z</time>
      </trkpt>
      <trkpt lat="42.70917" lon="0.66744">
        <ele>1583.5</ele>
        <time>2018-08-08T12:02:30.000Z</time>
      </trkpt>
      <trkpt lat="42.70917" lon="0.66744">
        <ele>1583.5</ele>
        <time>2018-08-08T12:02:31.000Z</time>
      </trkpt>
      <trkpt lat="42.70917" lon="0.66744">
        <ele>1583.5</ele>
        <time>2018-08-08T12:02:32.000Z</time>
      </trkpt>
      <trkpt lat="42.70917" lon="0.66744">
        <ele>1583.5</ele>
        <time>2018-08-08T12:02:33.000Z</time>
      </trkpt>
      <trkpt lat="42.70917" lon="0.66744">
        <ele>1583.5</ele>
        <time>2018-08-08T12:02:34.000Z</time>
      </trkpt>
      <trkpt lat="42.70917" lon="0.66744">
        <ele>1583.5</ele>
        <time>2018-08-08T12:02:35.000Z</time>
      </trkpt>
      <trkpt lat="42.70917" lon="0.66744">
        <ele>1583.5</ele>
        <time>2018-08-08T12:02:36.000Z</time>
      </trkpt>
      <trkpt lat="42.70917" lon="0.66744">
        <ele>1583.5</ele>
        <time>2018-08-08T12:02:37.000Z</time>
      </trkpt>
      <trkpt lat="42.70917" lon="0.66744">
        <ele>1583.5</ele>
        <time>2018-08-08T12:02:38.000Z</time>
      </trkpt>
      <trkpt lat="42.70917" lon="0.66744">
        <ele>1583.5</ele>
        <time>2018-08-08T12:02:39.000Z</time>
      </trkpt>
      <trkpt lat="42.70917" lon="0.66744">
        <ele>1583.5</ele>
        <time>2018-08-08T12:02:40.000Z</time>
      </trkpt>
      <trkpt lat="42.70917" lon="0.66744">
        <ele>1583.5</ele>
        <time>2018-08-08T12:02:41.000Z</time>
      </trkpt>
      <trkpt lat="42.70917" lon="0.66744">
        <ele>1583.5</ele>
        <time>2018-08-08T12:02:42.000Z</time>
      </trkpt>
      <trkpt lat="42.70917" lon="0.66744">
        <ele>1583.5</ele>
        <time>2018-08-08T12:02:43.000Z</time>
      </trkpt>
      <trkpt lat="42.70917" lon="0.66744">
        <ele>1583.5</ele>
        <time>2018-08-08T12:02:44.000Z</time>
      </trkpt>
      <trkpt lat="42.70917" lon="0.66744">
        <ele>1583.5</ele>
        <time>2018-08-08T12:02:45.000Z</time>
      </trkpt>
      <trkpt lat="42.70917" lon="0.66744">
        <ele>1583.5</ele>
        <time>2018-08-08T12:02:46.000Z</time>
      </trkpt>
      <trkpt lat="42.70917" lon="0.66744">
        <ele>1583.5</ele>
        <time>2018-08-08T12:02:47.000Z</time>
      </trkpt>
      <trkpt lat="42.70917" lon="0.66744">
        <ele>1583.5</ele>
        <time>2018-08-08T12:02:48.000Z</time>
      </trkpt>
      <trkpt lat="42.70917" lon="0.66744">
        <ele>1583.5</ele>
        <time>2018-08-08T12:02:49.000Z</time>
      </trkpt>
      <trkpt lat="42.70917" lon="0.66744">
        <ele>1583.5</ele>
        <time>2018-08-08T12:02:50.000Z</time>
      </trkpt>
      <trkpt lat="42.70917" lon="0.66744">
        <ele>1583.5</ele>
        <time>2018-08-08T12:02:51.000Z</time>
      </trkpt>
      <trkpt lat="42.70917" lon="0.66744">
        <ele>1583.5</ele>
        <time>2018-08-08T12:02:52.000Z</time>
      </trkpt>
      <trkpt lat="42.70917" lon="0.66744">
        <ele>1583.5</ele>
        <time>2018-08-08T12:02:53.000Z</time>
      </trkpt>
      <trkpt lat="42.70917" lon="0.66744">
        <ele>1583.5</ele>
        <time>2018-08-08T12:02:54.000Z</time>
      </trkpt>
      <trkpt lat="42.70917" lon="0.66744">
        <ele>1583.5</ele>
        <time>2018-08-08T12:02:55.000Z</time>
      </trkpt>
      <trkpt lat="42.70917" lon="0.66743">
        <ele>1583.5</ele>
        <time>2018-08-08T12:02:56.000Z</time>
      </trkpt>
      <trkpt lat="42.70917" lon="0.66743">
        <ele>1583.6</ele>
        <time>2018-08-08T12:02:57.000Z</time>
      </trkpt>
      <trkpt lat="42.70917" lon="0.66743">
        <ele>1583.7</ele>
        <time>2018-08-08T12:02:58.000Z</time>
      </trkpt>
      <trkpt lat="42.70917" lon="0.66743">
        <ele>1583.7</ele>
        <time>2018-08-08T12:02:59.000Z</time>
      </trkpt>
      <trkpt lat="42.70917" lon="0.66743">
        <ele>1583.8</ele>
        <time>2018-08-08T12:03:00.000Z</time>
      </trkpt>
      <trkpt lat="42.70917" lon="0.66742">
        <ele>1583.9</ele>
        <time>2018-08-08T12:03:01.000Z</time>
      </trkpt>
      <trkpt lat="42.70918" lon="0.66742">
        <ele>1584</ele>
        <time>2018-08-08T12:03:02.000Z</time>
      </trkpt>
      <trkpt lat="42.70918" lon="0.66742">
        <ele>1584.1</ele>
        <time>2018-08-08T12:03:03.000Z</time>
      </trkpt>
      <trkpt lat="42.70918" lon="0.66741">
        <ele>1584.2</ele>
        <time>2018-08-08T12:03:04.000Z</time>
      </trkpt>
      <trkpt lat="42.70918" lon="0.66741">
        <ele>1584.2</ele>
        <time>2018-08-08T12:03:05.000Z</time>
      </trkpt>
      <trkpt lat="42.70918" lon="0.66741">
        <ele>1584.3</ele>
        <time>2018-08-08T12:03:06.000Z</time>
      </trkpt>
      <trkpt lat="42.70918" lon="0.66741">
        <ele>1584.3</ele>
        <time>2018-08-08T12:03:07.000Z</time>
      </trkpt>
      <trkpt lat="42.70918" lon="0.66741">
        <ele>1584.4</ele>
        <time>2018-08-08T12:03:08.000Z</time>
      </trkpt>
      <trkpt lat="42.70918" lon="0.66741">
        <ele>1584.4</ele>
        <time>2018-08-08T12:03:09.000Z</time>
      </trkpt>
      <trkpt lat="42.70918" lon="0.66741">
        <ele>1584.5</ele>
        <time>2018-08-08T12:03:10.000Z</time>
      </trkpt>
      <trkpt lat="42.70918" lon="0.66741">
        <ele>1584.5</ele>
        <time>2018-08-08T12:03:11.000Z</time>
      </trkpt>
      <trkpt lat="42.70918" lon="0.6674">
        <ele>1584.5</ele>
        <time>2018-08-08T12:03:12.000Z</time>
      </trkpt>
      <trkpt lat="42.70918" lon="0.6674">
        <ele>1584.5</ele>
        <time>2018-08-08T12:03:13.000Z</time>
      </trkpt>
      <trkpt lat="42.70918" lon="0.6674">
        <ele>1584.5</ele>
        <time>2018-08-08T12:03:14.000Z</time>
      </trkpt>
      <trkpt lat="42.70918" lon="0.6674">
        <ele>1584.5</ele>
        <time>2018-08-08T12:03:15.000Z</time>
      </trkpt>
      <trkpt lat="42.70918" lon="0.6674">
        <ele>1584.5</ele>
        <time>2018-08-08T12:03:16.000Z</time>
      </trkpt>
      <trkpt lat="42.70918" lon="0.6674">
        <ele>1584.5</ele>
        <time>2018-08-08T12:03:17.000Z</time>
      </trkpt>
      <trkpt lat="42.70918" lon="0.6674">
        <ele>1584.5</ele>
        <time>2018-08-08T12:03:18.000Z</time>
      </trkpt>
      <trkpt lat="42.70918" lon="0.6674">
        <ele>1584.5</ele>
        <time>2018-08-08T12:03:19.000Z</time>
      </trkpt>
      <trkpt lat="42.70918" lon="0.6674">
        <ele>1584.5</ele>
        <time>2018-08-08T12:03:20.000Z</time>
      </trkpt>
      <trkpt lat="42.70918" lon="0.6674">
        <ele>1584.5</ele>
        <time>2018-08-08T12:03:21.000Z</time>
      </trkpt>
      <trkpt lat="42.70918" lon="0.6674">
        <ele>1584.5</ele>
        <time>2018-08-08T12:03:22.000Z</time>
      </trkpt>
      <trkpt lat="42.70918" lon="0.6674">
        <ele>1584.5</ele>
        <time>2018-08-08T12:03:23.000Z</time>
      </trkpt>
      <trkpt lat="42.70918" lon="0.6674">
        <ele>1584.5</ele>
        <time>2018-08-08T12:03:24.000Z</time>
      </trkpt>
      <trkpt lat="42.70918" lon="0.6674">
        <ele>1584.5</ele>
        <time>2018-08-08T12:03:25.000Z</time>
      </trkpt>
      <trkpt lat="42.70918" lon="0.6674">
        <ele>1584.5</ele>
        <time>2018-08-08T12:03:26.000Z</time>
      </trkpt>
      <trkpt lat="42.70918" lon="0.6674">
        <ele>1584.5</ele>
        <time>2018-08-08T12:03:27.000Z</time>
      </trkpt>
      <trkpt lat="42.70918" lon="0.6674">
        <ele>1584.5</ele>
        <time>2018-08-08T12:03:28.000Z</time>
      </trkpt>
      <trkpt lat="42.70918" lon="0.6674">
        <ele>1584.5</ele>
        <time>2018-08-08T12:03:29.000Z</time>
      </trkpt>
      <trkpt lat="42.70918" lon="0.6674">
        <ele>1584.5</ele>
        <time>2018-08-08T12:03:30.000Z</time>
      </trkpt>
      <trkpt lat="42.70918" lon="0.6674">
        <ele>1584.5</ele>
        <time>2018-08-08T12:03:31.000Z</time>
      </trkpt>
      <trkpt lat="42.70918" lon="0.6674">
        <ele>1584.5</ele>
        <time>2018-08-08T12:03:32.000Z</time>
      </trkpt>
      <trkpt lat="42.70918" lon="0.6674">
        <ele>1584.5</ele>
        <time>2018-08-08T12:03:33.000Z</time>
      </trkpt>
      <trkpt lat="42.70918" lon="0.6674">
        <ele>1584.5</ele>
        <time>2018-08-08T12:03:34.000Z</time>
      </trkpt>
      <trkpt lat="42.70918" lon="0.6674">
        <ele>1584.5</ele>
        <time>2018-08-08T12:03:35.000Z</time>
      </trkpt>
      <trkpt lat="42.70918" lon="0.6674">
        <ele>1584.5</ele>
        <time>2018-08-08T12:03:36.000Z</time>
      </trkpt>
      <trkpt lat="42.70918" lon="0.6674">
        <ele>1584.5</ele>
        <time>2018-08-08T12:03:37.000Z</time>
      </trkpt>
      <trkpt lat="42.70918" lon="0.6674">
        <ele>1584.5</ele>
        <time>2018-08-08T12:03:38.000Z</time>
      </trkpt>
      <trkpt lat="42.70918" lon="0.6674">
        <ele>1584.5</ele>
        <time>2018-08-08T12:03:39.000Z</time>
      </trkpt>
      <trkpt lat="42.70918" lon="0.6674">
        <ele>1584.5</ele>
        <time>2018-08-08T12:03:40.000Z</time>
      </trkpt>
      <trkpt lat="42.70918" lon="0.6674">
        <ele>1584.5</ele>
        <time>2018-08-08T12:03:41.000Z</time>
      </trkpt>
      <trkpt lat="42.70918" lon="0.6674">
        <ele>1584.5</ele>
        <time>2018-08-08T12:03:42.000Z</time>
      </trkpt>
      <trkpt lat="42.70918" lon="0.6674">
        <ele>1584.5</ele>
        <time>2018-08-08T12:03:43.000Z</time>
      </trkpt>
      <trkpt lat="42.70918" lon="0.6674">
        <ele>1584.5</ele>
        <time>2018-08-08T12:03:44.000Z</time>
      </trkpt>
      <trkpt lat="42.70918" lon="0.6674">
        <ele>1584.5</ele>
        <time>2018-08-08T12:03:45.000Z</time>
      </trkpt>
      <trkpt lat="42.70918" lon="0.6674">
        <ele>1584.5</ele>
        <time>2018-08-08T12:03:46.000Z</time>
      </trkpt>
      <trkpt lat="42.70918" lon="0.6674">
        <ele>1584.5</ele>
        <time>2018-08-08T12:03:47.000Z</time>
      </trkpt>
      <trkpt lat="42.70918" lon="0.6674">
        <ele>1584.5</ele>
        <time>2018-08-08T12:03:48.000Z</time>
      </trkpt>
      <trkpt lat="42.70918" lon="0.6674">
        <ele>1584.5</ele>
        <time>2018-08-08T12:03:49.000Z</time>
      </trkpt>
      <trkpt lat="42.70918" lon="0.6674">
        <ele>1584.5</ele>
        <time>2018-08-08T12:03:50.000Z</time>
      </trkpt>
      <trkpt lat="42.70918" lon="0.6674">
        <ele>1584.5</ele>
        <time>2018-08-08T12:03:51.000Z</time>
      </trkpt>
      <trkpt lat="42.70918" lon="0.6674">
        <ele>1584.5</ele>
        <time>2018-08-08T12:03:52.000Z</time>
      </trkpt>
      <trkpt lat="42.70918" lon="0.6674">
        <ele>1584.5</ele>
        <time>2018-08-08T12:03:53.000Z</time>
      </trkpt>
      <trkpt lat="42.70918" lon="0.6674">
        <ele>1584.5</ele>
        <time>2018-08-08T12:03:54.000Z</time>
      </trkpt>
      <trkpt lat="42.70919" lon="0.6674">
        <ele>1584.5</ele>
        <time>2018-08-08T12:03:55.000Z</time>
      </trkpt>
      <trkpt lat="42.70919" lon="0.66741">
        <ele>1584.5</ele>
        <time>2018-08-08T12:03:56.000Z</time>
      </trkpt>
      <trkpt lat="42.70919" lon="0.66741">
        <ele>1584.5</ele>
        <time>2018-08-08T12:03:57.000Z</time>
      </trkpt>
      <trkpt lat="42.70919" lon="0.66741">
        <ele>1584.5</ele>
        <time>2018-08-08T12:03:58.000Z</time>
      </trkpt>
      <trkpt lat="42.70919" lon="0.66741">
        <ele>1584.5</ele>
        <time>2018-08-08T12:03:59.000Z</time>
      </trkpt>
      <trkpt lat="42.70919" lon="0.66741">
        <ele>1584.4</ele>
        <time>2018-08-08T12:04:00.000Z</time>
      </trkpt>
      <trkpt lat="42.70919" lon="0.66741">
        <ele>1584.4</ele>
        <time>2018-08-08T12:04:01.000Z</time>
      </trkpt>
      <trkpt lat="42.70919" lon="0.66741">
        <ele>1584.4</ele>
        <time>2018-08-08T12:04:02.000Z</time>
      </trkpt>
      <trkpt lat="42.70919" lon="0.66741">
        <ele>1584.4</ele>
        <time>2018-08-08T12:04:03.000Z</time>
      </trkpt>
      <trkpt lat="42.70919" lon="0.66741">
        <ele>1584.3</ele>
        <time>2018-08-08T12:04:04.000Z</time>
      </trkpt>
      <trkpt lat="42.70919" lon="0.66741">
        <ele>1584.3</ele>
        <time>2018-08-08T12:04:05.000Z</time>
      </trkpt>
      <trkpt lat="42.70919" lon="0.66741">
        <ele>1584.2</ele>
        <time>2018-08-08T12:04:06.000Z</time>
      </trkpt>
      <trkpt lat="42.70919" lon="0.66741">
        <ele>1584.2</ele>
        <time>2018-08-08T12:04:07.000Z</time>
      </trkpt>
      <trkpt lat="42.70919" lon="0.66741">
        <ele>1584.1</ele>
        <time>2018-08-08T12:04:08.000Z</time>
      </trkpt>
      <trkpt lat="42.70919" lon="0.66742">
        <ele>1583.9</ele>
        <time>2018-08-08T12:04:09.000Z</time>
      </trkpt>
      <trkpt lat="42.70919" lon="0.66742">
        <ele>1583.8</ele>
        <time>2018-08-08T12:04:10.000Z</time>
      </trkpt>
      <trkpt lat="42.70919" lon="0.66742">
        <ele>1583.7</ele>
        <time>2018-08-08T12:04:11.000Z</time>
      </trkpt>
      <trkpt lat="42.7092" lon="0.66743">
        <ele>1583.5</ele>
        <time>2018-08-08T12:04:12.000Z</time>
      </trkpt>
      <trkpt lat="42.7092" lon="0.66743">
        <ele>1583.3</ele>
        <time>2018-08-08T12:04:13.000Z</time>
      </trkpt>
      <trkpt lat="42.7092" lon="0.66744">
        <ele>1583.1</ele>
        <time>2018-08-08T12:04:14.000Z</time>
      </trkpt>
      <trkpt lat="42.7092" lon="0.66744">
        <ele>1583</ele>
        <time>2018-08-08T12:04:15.000Z</time>
      </trkpt>
      <trkpt lat="42.70921" lon="0.66744">
        <ele>1582.8</ele>
        <time>2018-08-08T12:04:16.000Z</time>
      </trkpt>
      <trkpt lat="42.70921" lon="0.66745">
        <ele>1582.7</ele>
        <time>2018-08-08T12:04:17.000Z</time>
      </trkpt>
      <trkpt lat="42.70921" lon="0.66745">
        <ele>1582.6</ele>
        <time>2018-08-08T12:04:18.000Z</time>
      </trkpt>
      <trkpt lat="42.70921" lon="0.66745">
        <ele>1582.5</ele>
        <time>2018-08-08T12:04:19.000Z</time>
      </trkpt>
      <trkpt lat="42.70921" lon="0.66745">
        <ele>1582.4</ele>
        <time>2018-08-08T12:04:20.000Z</time>
      </trkpt>
      <trkpt lat="42.70921" lon="0.66745">
        <ele>1582.3</ele>
        <time>2018-08-08T12:04:21.000Z</time>
      </trkpt>
      <trkpt lat="42.70921" lon="0.66746">
        <ele>1582.3</ele>
        <time>2018-08-08T12:04:22.000Z</time>
      </trkpt>
      <trkpt lat="42.70921" lon="0.66746">
        <ele>1582.2</ele>
        <time>2018-08-08T12:04:23.000Z</time>
      </trkpt>
      <trkpt lat="42.70921" lon="0.66746">
        <ele>1582.2</ele>
        <time>2018-08-08T12:04:24.000Z</time>
      </trkpt>
      <trkpt lat="42.70921" lon="0.66746">
        <ele>1582.2</ele>
        <time>2018-08-08T12:04:25.000Z</time>
      </trkpt>
      <trkpt lat="42.70921" lon="0.66746">
        <ele>1582.2</ele>
        <time>2018-08-08T12:04:26.000Z</time>
      </trkpt>
      <trkpt lat="42.70921" lon="0.66746">
        <ele>1582.2</ele>
        <time>2018-08-08T12:04:27.000Z</time>
      </trkpt>
      <trkpt lat="42.70921" lon="0.66746">
        <ele>1582.2</ele>
        <time>2018-08-08T12:04:28.000Z</time>
      </trkpt>
      <trkpt lat="42.70921" lon="0.66746">
        <ele>1582.2</ele>
        <time>2018-08-08T12:04:29.000Z</time>
      </trkpt>
      <trkpt lat="42.70921" lon="0.66746">
        <ele>1582.2</ele>
        <time>2018-08-08T12:04:30.000Z</time>
      </trkpt>
      <trkpt lat="42.70921" lon="0.66746">
        <ele>1582.2</ele>
        <time>2018-08-08T12:04:31.000Z</time>
      </trkpt>
      <trkpt lat="42.70921" lon="0.66746">
        <ele>1582.2</ele>
        <time>2018-08-08T12:04:32.000Z</time>
      </trkpt>
      <trkpt lat="42.70921" lon="0.66746">
        <ele>1582.2</ele>
        <time>2018-08-08T12:04:33.000Z</time>
      </trkpt>
      <trkpt lat="42.70921" lon="0.66746">
        <ele>1582.2</ele>
        <time>2018-08-08T12:04:34.000Z</time>
      </trkpt>
      <trkpt lat="42.70921" lon="0.66746">
        <ele>1582.2</ele>
        <time>2018-08-08T12:04:35.000Z</time>
      </trkpt>
      <trkpt lat="42.70921" lon="0.66746">
        <ele>1582.2</ele>
        <time>2018-08-08T12:04:36.000Z</time>
      </trkpt>
      <trkpt lat="42.70921" lon="0.66746">
        <ele>1582.2</ele>
        <time>2018-08-08T12:04:37.000Z</time>
      </trkpt>
      <trkpt lat="42.70921" lon="0.66746">
        <ele>1582.2</ele>
        <time>2018-08-08T12:04:38.000Z</time>
      </trkpt>
      <trkpt lat="42.70921" lon="0.66746">
        <ele>1582.2</ele>
        <time>2018-08-08T12:04:39.000Z</time>
      </trkpt>
      <trkpt lat="42.70921" lon="0.66746">
        <ele>1582.2</ele>
        <time>2018-08-08T12:04:40.000Z</time>
      </trkpt>
      <trkpt lat="42.70921" lon="0.66746">
        <ele>1582.2</ele>
        <time>2018-08-08T12:04:41.000Z</time>
      </trkpt>
      <trkpt lat="42.70921" lon="0.66746">
        <ele>1582.2</ele>
        <time>2018-08-08T12:04:42.000Z</time>
      </trkpt>
      <trkpt lat="42.70921" lon="0.66746">
        <ele>1582.2</ele>
        <time>2018-08-08T12:04:43.000Z</time>
      </trkpt>
      <trkpt lat="42.70921" lon="0.66746">
        <ele>1582.2</ele>
        <time>2018-08-08T12:04:44.000Z</time>
      </trkpt>
      <trkpt lat="42.70921" lon="0.66746">
        <ele>1582.2</ele>
        <time>2018-08-08T12:04:45.000Z</time>
      </trkpt>
      <trkpt lat="42.70921" lon="0.66746">
        <ele>1582.1</ele>
        <time>2018-08-08T12:04:46.000Z</time>
      </trkpt>
      <trkpt lat="42.70921" lon="0.66746">
        <ele>1582.1</ele>
        <time>2018-08-08T12:04:47.000Z</time>
      </trkpt>
      <trkpt lat="42.70921" lon="0.66746">
        <ele>1582.1</ele>
        <time>2018-08-08T12:04:48.000Z</time>
      </trkpt>
      <trkpt lat="42.70921" lon="0.66746">
        <ele>1582.1</ele>
        <time>2018-08-08T12:04:49.000Z</time>
      </trkpt>
      <trkpt lat="42.70921" lon="0.66746">
        <ele>1582.1</ele>
        <time>2018-08-08T12:04:50.000Z</time>
      </trkpt>
      <trkpt lat="42.70921" lon="0.66746">
        <ele>1582.1</ele>
        <time>2018-08-08T12:04:51.000Z</time>
      </trkpt>
      <trkpt lat="42.70921" lon="0.66746">
        <ele>1582.1</ele>
        <time>2018-08-08T12:04:52.000Z</time>
      </trkpt>
      <trkpt lat="42.70921" lon="0.66746">
        <ele>1582.1</ele>
        <time>2018-08-08T12:04:53.000Z</time>
      </trkpt>
      <trkpt lat="42.70921" lon="0.66746">
        <ele>1582.1</ele>
        <time>2018-08-08T12:04:54.000Z</time>
      </trkpt>
      <trkpt lat="42.70921" lon="0.66746">
        <ele>1582.1</ele>
        <time>2018-08-08T12:04:55.000Z</time>
      </trkpt>
      <trkpt lat="42.70921" lon="0.66746">
        <ele>1582.1</ele>
        <time>2018-08-08T12:04:56.000Z</time>
      </trkpt>
      <trkpt lat="42.70921" lon="0.66746">
        <ele>1582.1</ele>
        <time>2018-08-08T12:04:57.000Z</time>
      </trkpt>
      <trkpt lat="42.70921" lon="0.66746">
        <ele>1582.1</ele>
        <time>2018-08-08T12:04:58.000Z</time>
      </trkpt>
      <trkpt lat="42.70921" lon="0.66746">
        <ele>1582.1</ele>
        <time>2018-08-08T12:04:59.000Z</time>
      </trkpt>
      <trkpt lat="42.70921" lon="0.66746">
        <ele>1582.1</ele>
        <time>2018-08-08T12:05:00.000Z</time>
      </trkpt>
      <trkpt lat="42.70921" lon="0.66746">
        <ele>1582.2</ele>
        <time>2018-08-08T12:05:01.000Z</time>
      </trkpt>
      <trkpt lat="42.70921" lon="0.66746">
        <ele>1582.1</ele>
        <time>2018-08-08T12:05:02.000Z</time>
      </trkpt>
      <trkpt lat="42.70921" lon="0.66746">
        <ele>1582</ele>
        <time>2018-08-08T12:05:03.000Z</time>
      </trkpt>
      <trkpt lat="42.7092" lon="0.66747">
        <ele>1581.7</ele>
        <time>2018-08-08T12:05:04.000Z</time>
      </trkpt>
      <trkpt lat="42.7092" lon="0.66748">
        <ele>1581.5</ele>
        <time>2018-08-08T12:05:05.000Z</time>
      </trkpt>
      <trkpt lat="42.70919" lon="0.66749">
        <ele>1581.3</ele>
        <time>2018-08-08T12:05:06.000Z</time>
      </trkpt>
      <trkpt lat="42.70919" lon="0.66749">
        <ele>1581.2</ele>
        <time>2018-08-08T12:05:07.000Z</time>
      </trkpt>
      <trkpt lat="42.70919" lon="0.66749">
        <ele>1581</ele>
        <time>2018-08-08T12:05:08.000Z</time>
      </trkpt>
      <trkpt lat="42.70919" lon="0.6675">
        <ele>1580.9</ele>
        <time>2018-08-08T12:05:09.000Z</time>
      </trkpt>
      <trkpt lat="42.70919" lon="0.6675">
        <ele>1580.9</ele>
        <time>2018-08-08T12:05:10.000Z</time>
      </trkpt>
      <trkpt lat="42.70918" lon="0.6675">
        <ele>1580.9</ele>
        <time>2018-08-08T12:05:11.000Z</time>
      </trkpt>
      <trkpt lat="42.70918" lon="0.6675">
        <ele>1580.8</ele>
        <time>2018-08-08T12:05:12.000Z</time>
      </trkpt>
      <trkpt lat="42.70918" lon="0.6675">
        <ele>1580.8</ele>
        <time>2018-08-08T12:05:13.000Z</time>
      </trkpt>
      <trkpt lat="42.70918" lon="0.6675">
        <ele>1580.8</ele>
        <time>2018-08-08T12:05:14.000Z</time>
      </trkpt>
      <trkpt lat="42.70918" lon="0.6675">
        <ele>1580.8</ele>
        <time>2018-08-08T12:05:15.000Z</time>
      </trkpt>
      <trkpt lat="42.70918" lon="0.6675">
        <ele>1580.8</ele>
        <time>2018-08-08T12:05:16.000Z</time>
      </trkpt>
      <trkpt lat="42.70918" lon="0.6675">
        <ele>1580.8</ele>
        <time>2018-08-08T12:05:17.000Z</time>
      </trkpt>
      <trkpt lat="42.70918" lon="0.6675">
        <ele>1580.8</ele>
        <time>2018-08-08T12:05:18.000Z</time>
      </trkpt>
      <trkpt lat="42.70918" lon="0.6675">
        <ele>1580.8</ele>
        <time>2018-08-08T12:05:19.000Z</time>
      </trkpt>
      <trkpt lat="42.70918" lon="0.6675">
        <ele>1580.8</ele>
        <time>2018-08-08T12:05:20.000Z</time>
      </trkpt>
      <trkpt lat="42.70918" lon="0.6675">
        <ele>1580.8</ele>
        <time>2018-08-08T12:05:21.000Z</time>
      </trkpt>
      <trkpt lat="42.70918" lon="0.6675">
        <ele>1580.8</ele>
        <time>2018-08-08T12:05:22.000Z</time>
      </trkpt>
      <trkpt lat="42.70918" lon="0.6675">
        <ele>1580.8</ele>
        <time>2018-08-08T12:05:23.000Z</time>
      </trkpt>
      <trkpt lat="42.70918" lon="0.6675">
        <ele>1580.8</ele>
        <time>2018-08-08T12:05:24.000Z</time>
      </trkpt>
      <trkpt lat="42.70918" lon="0.6675">
        <ele>1580.8</ele>
        <time>2018-08-08T12:05:25.000Z</time>
      </trkpt>
      <trkpt lat="42.70918" lon="0.6675">
        <ele>1580.8</ele>
        <time>2018-08-08T12:05:26.000Z</time>
      </trkpt>
      <trkpt lat="42.70918" lon="0.6675">
        <ele>1580.8</ele>
        <time>2018-08-08T12:05:27.000Z</time>
      </trkpt>
      <trkpt lat="42.70918" lon="0.6675">
        <ele>1580.8</ele>
        <time>2018-08-08T12:05:28.000Z</time>
      </trkpt>
      <trkpt lat="42.70918" lon="0.6675">
        <ele>1580.8</ele>
        <time>2018-08-08T12:05:29.000Z</time>
      </trkpt>
      <trkpt lat="42.70918" lon="0.6675">
        <ele>1580.8</ele>
        <time>2018-08-08T12:05:30.000Z</time>
      </trkpt>
      <trkpt lat="42.70918" lon="0.6675">
        <ele>1580.8</ele>
        <time>2018-08-08T12:05:31.000Z</time>
      </trkpt>
      <trkpt lat="42.70918" lon="0.6675">
        <ele>1580.8</ele>
        <time>2018-08-08T12:05:32.000Z</time>
      </trkpt>
      <trkpt lat="42.70918" lon="0.6675">
        <ele>1580.8</ele>
        <time>2018-08-08T12:05:33.000Z</time>
      </trkpt>
      <trkpt lat="42.70918" lon="0.6675">
        <ele>1580.8</ele>
        <time>2018-08-08T12:05:34.000Z</time>
      </trkpt>
      <trkpt lat="42.70918" lon="0.6675">
        <ele>1580.8</ele>
        <time>2018-08-08T12:05:35.000Z</time>
      </trkpt>
      <trkpt lat="42.70918" lon="0.6675">
        <ele>1580.8</ele>
        <time>2018-08-08T12:05:36.000Z</time>
      </trkpt>
      <trkpt lat="42.70918" lon="0.6675">
        <ele>1580.8</ele>
        <time>2018-08-08T12:05:37.000Z</time>
      </trkpt>
      <trkpt lat="42.70918" lon="0.6675">
        <ele>1580.8</ele>
        <time>2018-08-08T12:05:38.000Z</time>
      </trkpt>
      <trkpt lat="42.70918" lon="0.6675">
        <ele>1580.8</ele>
        <time>2018-08-08T12:05:39.000Z</time>
      </trkpt>
      <trkpt lat="42.70918" lon="0.6675">
        <ele>1580.8</ele>
        <time>2018-08-08T12:05:40.000Z</time>
      </trkpt>
      <trkpt lat="42.70918" lon="0.6675">
        <ele>1580.8</ele>
        <time>2018-08-08T12:05:41.000Z</time>
      </trkpt>
      <trkpt lat="42.70918" lon="0.6675">
        <ele>1580.8</ele>
        <time>2018-08-08T12:05:42.000Z</time>
      </trkpt>
      <trkpt lat="42.70918" lon="0.6675">
        <ele>1580.8</ele>
        <time>2018-08-08T12:05:43.000Z</time>
      </trkpt>
      <trkpt lat="42.70918" lon="0.6675">
        <ele>1580.8</ele>
        <time>2018-08-08T12:05:44.000Z</time>
      </trkpt>
      <trkpt lat="42.70918" lon="0.6675">
        <ele>1580.8</ele>
        <time>2018-08-08T12:05:45.000Z</time>
      </trkpt>
      <trkpt lat="42.70918" lon="0.6675">
        <ele>1580.8</ele>
        <time>2018-08-08T12:05:46.000Z</time>
      </trkpt>
      <trkpt lat="42.70918" lon="0.6675">
        <ele>1580.8</ele>
        <time>2018-08-08T12:05:47.000Z</time>
      </trkpt>
      <trkpt lat="42.70918" lon="0.6675">
        <ele>1580.8</ele>
        <time>2018-08-08T12:05:48.000Z</time>
      </trkpt>
      <trkpt lat="42.70918" lon="0.6675">
        <ele>1580.8</ele>
        <time>2018-08-08T12:05:49.000Z</time>
      </trkpt>
      <trkpt lat="42.70918" lon="0.6675">
        <ele>1580.8</ele>
        <time>2018-08-08T12:05:50.000Z</time>
      </trkpt>
      <trkpt lat="42.70918" lon="0.6675">
        <ele>1580.8</ele>
        <time>2018-08-08T12:05:51.000Z</time>
      </trkpt>
      <trkpt lat="42.70918" lon="0.6675">
        <ele>1580.8</ele>
        <time>2018-08-08T12:05:52.000Z</time>
      </trkpt>
      <trkpt lat="42.70918" lon="0.6675">
        <ele>1580.8</ele>
        <time>2018-08-08T12:05:53.000Z</time>
      </trkpt>
      <trkpt lat="42.70918" lon="0.6675">
        <ele>1580.8</ele>
        <time>2018-08-08T12:05:54.000Z</time>
      </trkpt>
      <trkpt lat="42.70918" lon="0.6675">
        <ele>1580.8</ele>
        <time>2018-08-08T12:05:55.000Z</time>
      </trkpt>
      <trkpt lat="42.70918" lon="0.6675">
        <ele>1580.8</ele>
        <time>2018-08-08T12:05:56.000Z</time>
      </trkpt>
      <trkpt lat="42.70918" lon="0.6675">
        <ele>1580.8</ele>
        <time>2018-08-08T12:05:57.000Z</time>
      </trkpt>
      <trkpt lat="42.70918" lon="0.6675">
        <ele>1580.8</ele>
        <time>2018-08-08T12:05:58.000Z</time>
      </trkpt>
      <trkpt lat="42.70918" lon="0.6675">
        <ele>1580.8</ele>
        <time>2018-08-08T12:05:59.000Z</time>
      </trkpt>
      <trkpt lat="42.70918" lon="0.6675">
        <ele>1580.8</ele>
        <time>2018-08-08T12:06:00.000Z</time>
      </trkpt>
      <trkpt lat="42.70918" lon="0.6675">
        <ele>1580.8</ele>
        <time>2018-08-08T12:06:01.000Z</time>
      </trkpt>
      <trkpt lat="42.70918" lon="0.6675">
        <ele>1580.8</ele>
        <time>2018-08-08T12:06:02.000Z</time>
      </trkpt>
      <trkpt lat="42.70918" lon="0.6675">
        <ele>1580.8</ele>
        <time>2018-08-08T12:06:03.000Z</time>
      </trkpt>
      <trkpt lat="42.70918" lon="0.6675">
        <ele>1580.8</ele>
        <time>2018-08-08T12:06:04.000Z</time>
      </trkpt>
      <trkpt lat="42.70918" lon="0.6675">
        <ele>1580.8</ele>
        <time>2018-08-08T12:06:05.000Z</time>
      </trkpt>
      <trkpt lat="42.70918" lon="0.6675">
        <ele>1580.8</ele>
        <time>2018-08-08T12:06:06.000Z</time>
      </trkpt>
      <trkpt lat="42.70918" lon="0.6675">
        <ele>1580.8</ele>
        <time>2018-08-08T12:06:07.000Z</time>
      </trkpt>
      <trkpt lat="42.70918" lon="0.6675">
        <ele>1580.8</ele>
        <time>2018-08-08T12:06:08.000Z</time>
      </trkpt>
      <trkpt lat="42.70918" lon="0.6675">
        <ele>1580.8</ele>
        <time>2018-08-08T12:06:09.000Z</time>
      </trkpt>
      <trkpt lat="42.70918" lon="0.6675">
        <ele>1580.8</ele>
        <time>2018-08-08T12:06:10.000Z</time>
      </trkpt>
      <trkpt lat="42.70918" lon="0.6675">
        <ele>1580.8</ele>
        <time>2018-08-08T12:06:11.000Z</time>
      </trkpt>
      <trkpt lat="42.70918" lon="0.6675">
        <ele>1580.8</ele>
        <time>2018-08-08T12:06:12.000Z</time>
      </trkpt>
      <trkpt lat="42.70918" lon="0.6675">
        <ele>1580.8</ele>
        <time>2018-08-08T12:06:13.000Z</time>
      </trkpt>
      <trkpt lat="42.70918" lon="0.6675">
        <ele>1580.8</ele>
        <time>2018-08-08T12:06:14.000Z</time>
      </trkpt>
      <trkpt lat="42.70918" lon="0.6675">
        <ele>1580.8</ele>
        <time>2018-08-08T12:06:15.000Z</time>
      </trkpt>
      <trkpt lat="42.70918" lon="0.6675">
        <ele>1580.8</ele>
        <time>2018-08-08T12:06:16.000Z</time>
      </trkpt>
      <trkpt lat="42.70918" lon="0.6675">
        <ele>1580.8</ele>
        <time>2018-08-08T12:06:17.000Z</time>
      </trkpt>
      <trkpt lat="42.70918" lon="0.6675">
        <ele>1580.8</ele>
        <time>2018-08-08T12:06:18.000Z</time>
      </trkpt>
      <trkpt lat="42.70918" lon="0.6675">
        <ele>1580.8</ele>
        <time>2018-08-08T12:06:19.000Z</time>
      </trkpt>
      <trkpt lat="42.70918" lon="0.6675">
        <ele>1580.8</ele>
        <time>2018-08-08T12:06:20.000Z</time>
      </trkpt>
      <trkpt lat="42.70918" lon="0.6675">
        <ele>1580.8</ele>
        <time>2018-08-08T12:06:21.000Z</time>
      </trkpt>
      <trkpt lat="42.70918" lon="0.6675">
        <ele>1580.8</ele>
        <time>2018-08-08T12:06:22.000Z</time>
      </trkpt>
      <trkpt lat="42.70918" lon="0.6675">
        <ele>1580.8</ele>
        <time>2018-08-08T12:06:23.000Z</time>
      </trkpt>
      <trkpt lat="42.70918" lon="0.6675">
        <ele>1580.8</ele>
        <time>2018-08-08T12:06:24.000Z</time>
      </trkpt>
      <trkpt lat="42.70918" lon="0.6675">
        <ele>1580.8</ele>
        <time>2018-08-08T12:06:25.000Z</time>
      </trkpt>
      <trkpt lat="42.70918" lon="0.6675">
        <ele>1580.8</ele>
        <time>2018-08-08T12:06:26.000Z</time>
      </trkpt>
      <trkpt lat="42.70918" lon="0.6675">
        <ele>1580.8</ele>
        <time>2018-08-08T12:06:27.000Z</time>
      </trkpt>
      <trkpt lat="42.70918" lon="0.6675">
        <ele>1580.8</ele>
        <time>2018-08-08T12:06:28.000Z</time>
      </trkpt>
      <trkpt lat="42.70918" lon="0.6675">
        <ele>1580.8</ele>
        <time>2018-08-08T12:06:29.000Z</time>
      </trkpt>
      <trkpt lat="42.70918" lon="0.6675">
        <ele>1580.8</ele>
        <time>2018-08-08T12:06:30.000Z</time>
      </trkpt>
      <trkpt lat="42.70918" lon="0.6675">
        <ele>1580.8</ele>
        <time>2018-08-08T12:06:31.000Z</time>
      </trkpt>
      <trkpt lat="42.70918" lon="0.6675">
        <ele>1580.8</ele>
        <time>2018-08-08T12:06:32.000Z</time>
      </trkpt>
      <trkpt lat="42.70918" lon="0.6675">
        <ele>1580.8</ele>
        <time>2018-08-08T12:06:33.000Z</time>
      </trkpt>
      <trkpt lat="42.70918" lon="0.6675">
        <ele>1580.8</ele>
        <time>2018-08-08T12:06:34.000Z</time>
      </trkpt>
      <trkpt lat="42.70918" lon="0.6675">
        <ele>1580.8</ele>
        <time>2018-08-08T12:06:35.000Z</time>
      </trkpt>
      <trkpt lat="42.70918" lon="0.6675">
        <ele>1580.8</ele>
        <time>2018-08-08T12:06:36.000Z</time>
      </trkpt>
      <trkpt lat="42.70918" lon="0.6675">
        <ele>1580.8</ele>
        <time>2018-08-08T12:06:37.000Z</time>
      </trkpt>
      <trkpt lat="42.70918" lon="0.6675">
        <ele>1580.8</ele>
        <time>2018-08-08T12:06:38.000Z</time>
      </trkpt>
      <trkpt lat="42.70918" lon="0.6675">
        <ele>1580.8</ele>
        <time>2018-08-08T12:06:39.000Z</time>
      </trkpt>
      <trkpt lat="42.70918" lon="0.6675">
        <ele>1580.8</ele>
        <time>2018-08-08T12:06:40.000Z</time>
      </trkpt>
      <trkpt lat="42.70918" lon="0.6675">
        <ele>1580.8</ele>
        <time>2018-08-08T12:06:41.000Z</time>
      </trkpt>
      <trkpt lat="42.70918" lon="0.6675">
        <ele>1580.8</ele>
        <time>2018-08-08T12:06:42.000Z</time>
      </trkpt>
      <trkpt lat="42.70918" lon="0.6675">
        <ele>1580.8</ele>
        <time>2018-08-08T12:06:43.000Z</time>
      </trkpt>
      <trkpt lat="42.70918" lon="0.6675">
        <ele>1580.8</ele>
        <time>2018-08-08T12:06:44.000Z</time>
      </trkpt>
      <trkpt lat="42.70918" lon="0.6675">
        <ele>1580.8</ele>
        <time>2018-08-08T12:06:45.000Z</time>
      </trkpt>
      <trkpt lat="42.70918" lon="0.6675">
        <ele>1580.8</ele>
        <time>2018-08-08T12:06:46.000Z</time>
      </trkpt>
      <trkpt lat="42.70918" lon="0.6675">
        <ele>1580.8</ele>
        <time>2018-08-08T12:06:47.000Z</time>
      </trkpt>
      <trkpt lat="42.70918" lon="0.6675">
        <ele>1580.8</ele>
        <time>2018-08-08T12:06:48.000Z</time>
      </trkpt>
      <trkpt lat="42.70918" lon="0.6675">
        <ele>1580.8</ele>
        <time>2018-08-08T12:06:49.000Z</time>
      </trkpt>
      <trkpt lat="42.70918" lon="0.6675">
        <ele>1580.8</ele>
        <time>2018-08-08T12:06:50.000Z</time>
      </trkpt>
      <trkpt lat="42.70918" lon="0.6675">
        <ele>1580.8</ele>
        <time>2018-08-08T12:06:51.000Z</time>
      </trkpt>
      <trkpt lat="42.70918" lon="0.6675">
        <ele>1580.8</ele>
        <time>2018-08-08T12:06:52.000Z</time>
      </trkpt>
      <trkpt lat="42.70918" lon="0.6675">
        <ele>1580.8</ele>
        <time>2018-08-08T12:06:53.000Z</time>
      </trkpt>
      <trkpt lat="42.70918" lon="0.6675">
        <ele>1580.8</ele>
        <time>2018-08-08T12:06:54.000Z</time>
      </trkpt>
      <trkpt lat="42.70918" lon="0.6675">
        <ele>1580.8</ele>
        <time>2018-08-08T12:06:55.000Z</time>
      </trkpt>
      <trkpt lat="42.70918" lon="0.6675">
        <ele>1580.8</ele>
        <time>2018-08-08T12:06:56.000Z</time>
      </trkpt>
      <trkpt lat="42.70918" lon="0.6675">
        <ele>1580.8</ele>
        <time>2018-08-08T12:06:57.000Z</time>
      </trkpt>
      <trkpt lat="42.70918" lon="0.6675">
        <ele>1580.8</ele>
        <time>2018-08-08T12:06:58.000Z</time>
      </trkpt>
      <trkpt lat="42.70918" lon="0.6675">
        <ele>1580.8</ele>
        <time>2018-08-08T12:06:59.000Z</time>
      </trkpt>
      <trkpt lat="42.70918" lon="0.6675">
        <ele>1580.8</ele>
        <time>2018-08-08T12:07:00.000Z</time>
      </trkpt>
      <trkpt lat="42.70918" lon="0.6675">
        <ele>1580.8</ele>
        <time>2018-08-08T12:07:01.000Z</time>
      </trkpt>
      <trkpt lat="42.70918" lon="0.6675">
        <ele>1580.9</ele>
        <time>2018-08-08T12:07:02.000Z</time>
      </trkpt>
      <trkpt lat="42.70918" lon="0.6675">
        <ele>1580.9</ele>
        <time>2018-08-08T12:07:03.000Z</time>
      </trkpt>
      <trkpt lat="42.70918" lon="0.6675">
        <ele>1580.9</ele>
        <time>2018-08-08T12:07:04.000Z</time>
      </trkpt>
      <trkpt lat="42.70918" lon="0.6675">
        <ele>1581</ele>
        <time>2018-08-08T12:07:05.000Z</time>
      </trkpt>
      <trkpt lat="42.70918" lon="0.66749">
        <ele>1581.1</ele>
        <time>2018-08-08T12:07:06.000Z</time>
      </trkpt>
      <trkpt lat="42.70918" lon="0.66749">
        <ele>1581.3</ele>
        <time>2018-08-08T12:07:07.000Z</time>
      </trkpt>
      <trkpt lat="42.70918" lon="0.66749">
        <ele>1581.5</ele>
        <time>2018-08-08T12:07:08.000Z</time>
      </trkpt>
      <trkpt lat="42.70917" lon="0.66748">
        <ele>1581.7</ele>
        <time>2018-08-08T12:07:09.000Z</time>
      </trkpt>
      <trkpt lat="42.70917" lon="0.66748">
        <ele>1581.9</ele>
        <time>2018-08-08T12:07:10.000Z</time>
      </trkpt>
      <trkpt lat="42.70917" lon="0.66747">
        <ele>1582.2</ele>
        <time>2018-08-08T12:07:11.000Z</time>
      </trkpt>
      <trkpt lat="42.70916" lon="0.66746">
        <ele>1582.5</ele>
        <time>2018-08-08T12:07:12.000Z</time>
      </trkpt>
      <trkpt lat="42.70916" lon="0.66746">
        <ele>1582.7</ele>
        <time>2018-08-08T12:07:13.000Z</time>
      </trkpt>
      <trkpt lat="42.70916" lon="0.66746">
        <ele>1582.9</ele>
        <time>2018-08-08T12:07:14.000Z</time>
      </trkpt>
      <trkpt lat="42.70916" lon="0.66745">
        <ele>1583.1</ele>
        <time>2018-08-08T12:07:15.000Z</time>
      </trkpt>
      <trkpt lat="42.70915" lon="0.66745">
        <ele>1583.2</ele>
        <time>2018-08-08T12:07:16.000Z</time>
      </trkpt>
      <trkpt lat="42.70915" lon="0.66745">
        <ele>1583.3</ele>
        <time>2018-08-08T12:07:17.000Z</time>
      </trkpt>
      <trkpt lat="42.70915" lon="0.66745">
        <ele>1583.3</ele>
        <time>2018-08-08T12:07:18.000Z</time>
      </trkpt>
      <trkpt lat="42.70915" lon="0.66745">
        <ele>1583.3</ele>
        <time>2018-08-08T12:07:19.000Z</time>
      </trkpt>
      <trkpt lat="42.70915" lon="0.66745">
        <ele>1583.3</ele>
        <time>2018-08-08T12:07:20.000Z</time>
      </trkpt>
      <trkpt lat="42.70915" lon="0.66745">
        <ele>1583.3</ele>
        <time>2018-08-08T12:07:21.000Z</time>
      </trkpt>
      <trkpt lat="42.70915" lon="0.66745">
        <ele>1583.3</ele>
        <time>2018-08-08T12:07:22.000Z</time>
      </trkpt>
      <trkpt lat="42.70915" lon="0.66745">
        <ele>1583.3</ele>
        <time>2018-08-08T12:07:23.000Z</time>
      </trkpt>
      <trkpt lat="42.70915" lon="0.66745">
        <ele>1583.3</ele>
        <time>2018-08-08T12:07:24.000Z</time>
      </trkpt>
      <trkpt lat="42.70915" lon="0.66745">
        <ele>1583.3</ele>
        <time>2018-08-08T12:07:25.000Z</time>
      </trkpt>
      <trkpt lat="42.70915" lon="0.66745">
        <ele>1583.3</ele>
        <time>2018-08-08T12:07:26.000Z</time>
      </trkpt>
      <trkpt lat="42.70915" lon="0.66745">
        <ele>1583.3</ele>
        <time>2018-08-08T12:07:27.000Z</time>
      </trkpt>
      <trkpt lat="42.70915" lon="0.66745">
        <ele>1583.3</ele>
        <time>2018-08-08T12:07:28.000Z</time>
      </trkpt>
      <trkpt lat="42.70915" lon="0.66745">
        <ele>1583.3</ele>
        <time>2018-08-08T12:07:29.000Z</time>
      </trkpt>
      <trkpt lat="42.70915" lon="0.66745">
        <ele>1583.3</ele>
        <time>2018-08-08T12:07:30.000Z</time>
      </trkpt>
      <trkpt lat="42.70915" lon="0.66745">
        <ele>1583.3</ele>
        <time>2018-08-08T12:07:31.000Z</time>
      </trkpt>
      <trkpt lat="42.70915" lon="0.66745">
        <ele>1583.3</ele>
        <time>2018-08-08T12:07:32.000Z</time>
      </trkpt>
      <trkpt lat="42.70915" lon="0.66745">
        <ele>1583.3</ele>
        <time>2018-08-08T12:07:33.000Z</time>
      </trkpt>
      <trkpt lat="42.70915" lon="0.66745">
        <ele>1583.3</ele>
        <time>2018-08-08T12:07:34.000Z</time>
      </trkpt>
      <trkpt lat="42.70915" lon="0.66745">
        <ele>1583.3</ele>
        <time>2018-08-08T12:07:35.000Z</time>
      </trkpt>
      <trkpt lat="42.70915" lon="0.66745">
        <ele>1583.3</ele>
        <time>2018-08-08T12:07:36.000Z</time>
      </trkpt>
      <trkpt lat="42.70915" lon="0.66745">
        <ele>1583.3</ele>
        <time>2018-08-08T12:07:37.000Z</time>
      </trkpt>
      <trkpt lat="42.70915" lon="0.66745">
        <ele>1583.3</ele>
        <time>2018-08-08T12:07:38.000Z</time>
      </trkpt>
      <trkpt lat="42.70915" lon="0.66745">
        <ele>1583.3</ele>
        <time>2018-08-08T12:07:39.000Z</time>
      </trkpt>
      <trkpt lat="42.70915" lon="0.66745">
        <ele>1583.3</ele>
        <time>2018-08-08T12:07:40.000Z</time>
      </trkpt>
      <trkpt lat="42.70915" lon="0.66745">
        <ele>1583.3</ele>
        <time>2018-08-08T12:07:41.000Z</time>
      </trkpt>
      <trkpt lat="42.70915" lon="0.66745">
        <ele>1583.3</ele>
        <time>2018-08-08T12:07:42.000Z</time>
      </trkpt>
      <trkpt lat="42.70915" lon="0.66745">
        <ele>1583.3</ele>
        <time>2018-08-08T12:07:43.000Z</time>
      </trkpt>
      <trkpt lat="42.70915" lon="0.66745">
        <ele>1583.3</ele>
        <time>2018-08-08T12:07:44.000Z</time>
      </trkpt>
      <trkpt lat="42.70915" lon="0.66745">
        <ele>1583.3</ele>
        <time>2018-08-08T12:07:45.000Z</time>
      </trkpt>
      <trkpt lat="42.70915" lon="0.66745">
        <ele>1583.3</ele>
        <time>2018-08-08T12:07:46.000Z</time>
      </trkpt>
      <trkpt lat="42.70915" lon="0.66745">
        <ele>1583.3</ele>
        <time>2018-08-08T12:07:47.000Z</time>
      </trkpt>
      <trkpt lat="42.70915" lon="0.66745">
        <ele>1583.3</ele>
        <time>2018-08-08T12:07:48.000Z</time>
      </trkpt>
      <trkpt lat="42.70915" lon="0.66745">
        <ele>1583.3</ele>
        <time>2018-08-08T12:07:49.000Z</time>
      </trkpt>
      <trkpt lat="42.70915" lon="0.66745">
        <ele>1583.3</ele>
        <time>2018-08-08T12:07:50.000Z</time>
      </trkpt>
      <trkpt lat="42.70915" lon="0.66745">
        <ele>1583.3</ele>
        <time>2018-08-08T12:07:51.000Z</time>
      </trkpt>
      <trkpt lat="42.70915" lon="0.66745">
        <ele>1583.3</ele>
        <time>2018-08-08T12:07:52.000Z</time>
      </trkpt>
      <trkpt lat="42.70915" lon="0.66745">
        <ele>1583.3</ele>
        <time>2018-08-08T12:07:53.000Z</time>
      </trkpt>
      <trkpt lat="42.70915" lon="0.66745">
        <ele>1583.3</ele>
        <time>2018-08-08T12:07:54.000Z</time>
      </trkpt>
      <trkpt lat="42.70915" lon="0.66745">
        <ele>1583.3</ele>
        <time>2018-08-08T12:07:55.000Z</time>
      </trkpt>
      <trkpt lat="42.70915" lon="0.66745">
        <ele>1583.3</ele>
        <time>2018-08-08T12:07:56.000Z</time>
      </trkpt>
      <trkpt lat="42.70915" lon="0.66745">
        <ele>1583.3</ele>
        <time>2018-08-08T12:07:57.000Z</time>
      </trkpt>
      <trkpt lat="42.70915" lon="0.66745">
        <ele>1583.3</ele>
        <time>2018-08-08T12:07:58.000Z</time>
      </trkpt>
      <trkpt lat="42.70915" lon="0.66745">
        <ele>1583.3</ele>
        <time>2018-08-08T12:07:59.000Z</time>
      </trkpt>
      <trkpt lat="42.70915" lon="0.66745">
        <ele>1583.3</ele>
        <time>2018-08-08T12:08:00.000Z</time>
      </trkpt>
      <trkpt lat="42.70915" lon="0.66745">
        <ele>1583.3</ele>
        <time>2018-08-08T12:08:01.000Z</time>
      </trkpt>
      <trkpt lat="42.70915" lon="0.66745">
        <ele>1583.3</ele>
        <time>2018-08-08T12:08:02.000Z</time>
      </trkpt>
      <trkpt lat="42.70915" lon="0.66745">
        <ele>1583.3</ele>
        <time>2018-08-08T12:08:03.000Z</time>
      </trkpt>
      <trkpt lat="42.70915" lon="0.66745">
        <ele>1583.3</ele>
        <time>2018-08-08T12:08:04.000Z</time>
      </trkpt>
      <trkpt lat="42.70915" lon="0.66745">
        <ele>1583.3</ele>
        <time>2018-08-08T12:08:05.000Z</time>
      </trkpt>
      <trkpt lat="42.70915" lon="0.66745">
        <ele>1583.3</ele>
        <time>2018-08-08T12:08:06.000Z</time>
      </trkpt>
      <trkpt lat="42.70915" lon="0.66745">
        <ele>1583.3</ele>
        <time>2018-08-08T12:08:07.000Z</time>
      </trkpt>
      <trkpt lat="42.70915" lon="0.66745">
        <ele>1583.3</ele>
        <time>2018-08-08T12:08:08.000Z</time>
      </trkpt>
      <trkpt lat="42.70915" lon="0.66745">
        <ele>1583.3</ele>
        <time>2018-08-08T12:08:09.000Z</time>
      </trkpt>
      <trkpt lat="42.70915" lon="0.66745">
        <ele>1583.3</ele>
        <time>2018-08-08T12:08:10.000Z</time>
      </trkpt>
      <trkpt lat="42.70915" lon="0.66745">
        <ele>1583.3</ele>
        <time>2018-08-08T12:08:11.000Z</time>
      </trkpt>
      <trkpt lat="42.70915" lon="0.66745">
        <ele>1583.3</ele>
        <time>2018-08-08T12:08:12.000Z</time>
      </trkpt>
      <trkpt lat="42.70915" lon="0.66745">
        <ele>1583.3</ele>
        <time>2018-08-08T12:08:13.000Z</time>
      </trkpt>
      <trkpt lat="42.70915" lon="0.66745">
        <ele>1583.3</ele>
        <time>2018-08-08T12:08:14.000Z</time>
      </trkpt>
      <trkpt lat="42.70915" lon="0.66745">
        <ele>1583.3</ele>
        <time>2018-08-08T12:08:15.000Z</time>
      </trkpt>
      <trkpt lat="42.70915" lon="0.66745">
        <ele>1583.3</ele>
        <time>2018-08-08T12:08:16.000Z</time>
      </trkpt>
      <trkpt lat="42.70915" lon="0.66745">
        <ele>1583.3</ele>
        <time>2018-08-08T12:08:17.000Z</time>
      </trkpt>
      <trkpt lat="42.70915" lon="0.66745">
        <ele>1583.3</ele>
        <time>2018-08-08T12:08:18.000Z</time>
      </trkpt>
      <trkpt lat="42.70915" lon="0.66745">
        <ele>1583.3</ele>
        <time>2018-08-08T12:08:19.000Z</time>
      </trkpt>
      <trkpt lat="42.70915" lon="0.66745">
        <ele>1583.3</ele>
        <time>2018-08-08T12:08:20.000Z</time>
      </trkpt>
      <trkpt lat="42.70915" lon="0.66745">
        <ele>1583.3</ele>
        <time>2018-08-08T12:08:21.000Z</time>
      </trkpt>
      <trkpt lat="42.70915" lon="0.66745">
        <ele>1583.3</ele>
        <time>2018-08-08T12:08:22.000Z</time>
      </trkpt>
      <trkpt lat="42.70915" lon="0.66745">
        <ele>1583.3</ele>
        <time>2018-08-08T12:08:23.000Z</time>
      </trkpt>
      <trkpt lat="42.70915" lon="0.66745">
        <ele>1583.3</ele>
        <time>2018-08-08T12:08:24.000Z</time>
      </trkpt>
      <trkpt lat="42.70915" lon="0.66745">
        <ele>1583.3</ele>
        <time>2018-08-08T12:08:25.000Z</time>
      </trkpt>
      <trkpt lat="42.70915" lon="0.66745">
        <ele>1583.3</ele>
        <time>2018-08-08T12:08:26.000Z</time>
      </trkpt>
      <trkpt lat="42.70915" lon="0.66745">
        <ele>1583.3</ele>
        <time>2018-08-08T12:08:27.000Z</time>
      </trkpt>
      <trkpt lat="42.70915" lon="0.66745">
        <ele>1583.3</ele>
        <time>2018-08-08T12:08:28.000Z</time>
      </trkpt>
      <trkpt lat="42.70915" lon="0.66745">
        <ele>1583.3</ele>
        <time>2018-08-08T12:08:29.000Z</time>
      </trkpt>
      <trkpt lat="42.70915" lon="0.66745">
        <ele>1583.3</ele>
        <time>2018-08-08T12:08:30.000Z</time>
      </trkpt>
      <trkpt lat="42.70915" lon="0.66745">
        <ele>1583.3</ele>
        <time>2018-08-08T12:08:31.000Z</time>
      </trkpt>
      <trkpt lat="42.70915" lon="0.66745">
        <ele>1583.3</ele>
        <time>2018-08-08T12:08:32.000Z</time>
      </trkpt>
      <trkpt lat="42.70915" lon="0.66745">
        <ele>1583.3</ele>
        <time>2018-08-08T12:08:33.000Z</time>
      </trkpt>
      <trkpt lat="42.70915" lon="0.66745">
        <ele>1583.3</ele>
        <time>2018-08-08T12:08:34.000Z</time>
      </trkpt>
      <trkpt lat="42.70915" lon="0.66745">
        <ele>1583.3</ele>
        <time>2018-08-08T12:08:35.000Z</time>
      </trkpt>
      <trkpt lat="42.70915" lon="0.66745">
        <ele>1583.3</ele>
        <time>2018-08-08T12:08:36.000Z</time>
      </trkpt>
      <trkpt lat="42.70915" lon="0.66745">
        <ele>1583.3</ele>
        <time>2018-08-08T12:08:37.000Z</time>
      </trkpt>
      <trkpt lat="42.70915" lon="0.66745">
        <ele>1583.3</ele>
        <time>2018-08-08T12:08:38.000Z</time>
      </trkpt>
      <trkpt lat="42.70915" lon="0.66745">
        <ele>1583.3</ele>
        <time>2018-08-08T12:08:39.000Z</time>
      </trkpt>
      <trkpt lat="42.70915" lon="0.66745">
        <ele>1583.3</ele>
        <time>2018-08-08T12:08:40.000Z</time>
      </trkpt>
      <trkpt lat="42.70915" lon="0.66745">
        <ele>1583.3</ele>
        <time>2018-08-08T12:08:41.000Z</time>
      </trkpt>
      <trkpt lat="42.70915" lon="0.66745">
        <ele>1583.3</ele>
        <time>2018-08-08T12:08:42.000Z</time>
      </trkpt>
      <trkpt lat="42.70915" lon="0.66745">
        <ele>1583.3</ele>
        <time>2018-08-08T12:08:43.000Z</time>
      </trkpt>
      <trkpt lat="42.70915" lon="0.66745">
        <ele>1583.3</ele>
        <time>2018-08-08T12:08:44.000Z</time>
      </trkpt>
      <trkpt lat="42.70915" lon="0.66745">
        <ele>1583.3</ele>
        <time>2018-08-08T12:08:45.000Z</time>
      </trkpt>
      <trkpt lat="42.70915" lon="0.66745">
        <ele>1583.3</ele>
        <time>2018-08-08T12:08:46.000Z</time>
      </trkpt>
      <trkpt lat="42.70915" lon="0.66745">
        <ele>1583.3</ele>
        <time>2018-08-08T12:08:47.000Z</time>
      </trkpt>
      <trkpt lat="42.70915" lon="0.66745">
        <ele>1583.3</ele>
        <time>2018-08-08T12:08:48.000Z</time>
      </trkpt>
      <trkpt lat="42.70915" lon="0.66745">
        <ele>1583.3</ele>
        <time>2018-08-08T12:08:49.000Z</time>
      </trkpt>
      <trkpt lat="42.70915" lon="0.66745">
        <ele>1583.3</ele>
        <time>2018-08-08T12:08:50.000Z</time>
      </trkpt>
      <trkpt lat="42.70915" lon="0.66745">
        <ele>1583.3</ele>
        <time>2018-08-08T12:08:51.000Z</time>
      </trkpt>
      <trkpt lat="42.70915" lon="0.66745">
        <ele>1583.3</ele>
        <time>2018-08-08T12:08:52.000Z</time>
      </trkpt>
      <trkpt lat="42.70915" lon="0.66745">
        <ele>1583.3</ele>
        <time>2018-08-08T12:08:53.000Z</time>
      </trkpt>
      <trkpt lat="42.70915" lon="0.66745">
        <ele>1583.3</ele>
        <time>2018-08-08T12:08:54.000Z</time>
      </trkpt>
      <trkpt lat="42.70915" lon="0.66745">
        <ele>1583.3</ele>
        <time>2018-08-08T12:08:55.000Z</time>
      </trkpt>
      <trkpt lat="42.70915" lon="0.66745">
        <ele>1583.3</ele>
        <time>2018-08-08T12:08:56.000Z</time>
      </trkpt>
      <trkpt lat="42.70915" lon="0.66745">
        <ele>1583.3</ele>
        <time>2018-08-08T12:08:57.000Z</time>
      </trkpt>
      <trkpt lat="42.70915" lon="0.66745">
        <ele>1583.3</ele>
        <time>2018-08-08T12:08:58.000Z</time>
      </trkpt>
      <trkpt lat="42.70915" lon="0.66745">
        <ele>1583.3</ele>
        <time>2018-08-08T12:08:59.000Z</time>
      </trkpt>
      <trkpt lat="42.70915" lon="0.66745">
        <ele>1583.3</ele>
        <time>2018-08-08T12:09:00.000Z</time>
      </trkpt>
      <trkpt lat="42.70915" lon="0.66745">
        <ele>1583.3</ele>
        <time>2018-08-08T12:09:01.000Z</time>
      </trkpt>
      <trkpt lat="42.70915" lon="0.66745">
        <ele>1583.3</ele>
        <time>2018-08-08T12:09:02.000Z</time>
      </trkpt>
      <trkpt lat="42.70915" lon="0.66745">
        <ele>1583.3</ele>
        <time>2018-08-08T12:09:03.000Z</time>
      </trkpt>
      <trkpt lat="42.70915" lon="0.66745">
        <ele>1583.3</ele>
        <time>2018-08-08T12:09:04.000Z</time>
      </trkpt>
      <trkpt lat="42.70915" lon="0.66745">
        <ele>1583.3</ele>
        <time>2018-08-08T12:09:05.000Z</time>
      </trkpt>
      <trkpt lat="42.70915" lon="0.66745">
        <ele>1583.3</ele>
        <time>2018-08-08T12:09:06.000Z</time>
      </trkpt>
      <trkpt lat="42.70915" lon="0.66745">
        <ele>1583.3</ele>
        <time>2018-08-08T12:09:07.000Z</time>
      </trkpt>
      <trkpt lat="42.70915" lon="0.66745">
        <ele>1583.3</ele>
        <time>2018-08-08T12:09:08.000Z</time>
      </trkpt>
      <trkpt lat="42.70915" lon="0.66745">
        <ele>1583.3</ele>
        <time>2018-08-08T12:09:09.000Z</time>
      </trkpt>
      <trkpt lat="42.70915" lon="0.66745">
        <ele>1583.3</ele>
        <time>2018-08-08T12:09:10.000Z</time>
      </trkpt>
      <trkpt lat="42.70915" lon="0.66745">
        <ele>1583.3</ele>
        <time>2018-08-08T12:09:11.000Z</time>
      </trkpt>
      <trkpt lat="42.70915" lon="0.66745">
        <ele>1583.3</ele>
        <time>2018-08-08T12:09:12.000Z</time>
      </trkpt>
      <trkpt lat="42.70915" lon="0.66745">
        <ele>1583.3</ele>
        <time>2018-08-08T12:09:13.000Z</time>
      </trkpt>
      <trkpt lat="42.70915" lon="0.66745">
        <ele>1583.3</ele>
        <time>2018-08-08T12:09:14.000Z</time>
      </trkpt>
      <trkpt lat="42.70915" lon="0.66745">
        <ele>1583.3</ele>
        <time>2018-08-08T12:09:15.000Z</time>
      </trkpt>
      <trkpt lat="42.70915" lon="0.66745">
        <ele>1583.3</ele>
        <time>2018-08-08T12:09:16.000Z</time>
      </trkpt>
      <trkpt lat="42.70915" lon="0.66745">
        <ele>1583.3</ele>
        <time>2018-08-08T12:09:17.000Z</time>
      </trkpt>
      <trkpt lat="42.70915" lon="0.66745">
        <ele>1583.3</ele>
        <time>2018-08-08T12:09:18.000Z</time>
      </trkpt>
      <trkpt lat="42.70915" lon="0.66745">
        <ele>1583.3</ele>
        <time>2018-08-08T12:09:19.000Z</time>
      </trkpt>
      <trkpt lat="42.70915" lon="0.66745">
        <ele>1583.3</ele>
        <time>2018-08-08T12:09:20.000Z</time>
      </trkpt>
      <trkpt lat="42.70915" lon="0.66745">
        <ele>1583.3</ele>
        <time>2018-08-08T12:09:21.000Z</time>
      </trkpt>
      <trkpt lat="42.70915" lon="0.66745">
        <ele>1583.3</ele>
        <time>2018-08-08T12:09:22.000Z</time>
      </trkpt>
      <trkpt lat="42.70915" lon="0.66745">
        <ele>1583.3</ele>
        <time>2018-08-08T12:09:23.000Z</time>
      </trkpt>
      <trkpt lat="42.70915" lon="0.66745">
        <ele>1583.3</ele>
        <time>2018-08-08T12:09:24.000Z</time>
      </trkpt>
      <trkpt lat="42.70915" lon="0.66745">
        <ele>1583.3</ele>
        <time>2018-08-08T12:09:25.000Z</time>
      </trkpt>
      <trkpt lat="42.70915" lon="0.66745">
        <ele>1583.3</ele>
        <time>2018-08-08T12:09:26.000Z</time>
      </trkpt>
      <trkpt lat="42.70915" lon="0.66745">
        <ele>1583.3</ele>
        <time>2018-08-08T12:09:27.000Z</time>
      </trkpt>
      <trkpt lat="42.70915" lon="0.66745">
        <ele>1583.3</ele>
        <time>2018-08-08T12:09:28.000Z</time>
      </trkpt>
      <trkpt lat="42.70915" lon="0.66745">
        <ele>1583.3</ele>
        <time>2018-08-08T12:09:29.000Z</time>
      </trkpt>
      <trkpt lat="42.70915" lon="0.66745">
        <ele>1583.3</ele>
        <time>2018-08-08T12:09:30.000Z</time>
      </trkpt>
      <trkpt lat="42.70915" lon="0.66745">
        <ele>1583.3</ele>
        <time>2018-08-08T12:09:31.000Z</time>
      </trkpt>
      <trkpt lat="42.70915" lon="0.66745">
        <ele>1583.3</ele>
        <time>2018-08-08T12:09:32.000Z</time>
      </trkpt>
      <trkpt lat="42.70915" lon="0.66745">
        <ele>1583.3</ele>
        <time>2018-08-08T12:09:33.000Z</time>
      </trkpt>
      <trkpt lat="42.70915" lon="0.66745">
        <ele>1583.3</ele>
        <time>2018-08-08T12:09:34.000Z</time>
      </trkpt>
      <trkpt lat="42.70915" lon="0.66745">
        <ele>1583.3</ele>
        <time>2018-08-08T12:09:35.000Z</time>
      </trkpt>
      <trkpt lat="42.70915" lon="0.66745">
        <ele>1583.3</ele>
        <time>2018-08-08T12:09:36.000Z</time>
      </trkpt>
      <trkpt lat="42.70915" lon="0.66745">
        <ele>1583.3</ele>
        <time>2018-08-08T12:09:37.000Z</time>
      </trkpt>
      <trkpt lat="42.70915" lon="0.66745">
        <ele>1583.3</ele>
        <time>2018-08-08T12:09:38.000Z</time>
      </trkpt>
      <trkpt lat="42.70915" lon="0.66745">
        <ele>1583.3</ele>
        <time>2018-08-08T12:09:39.000Z</time>
      </trkpt>
      <trkpt lat="42.70915" lon="0.66745">
        <ele>1583.3</ele>
        <time>2018-08-08T12:09:40.000Z</time>
      </trkpt>
      <trkpt lat="42.70915" lon="0.66745">
        <ele>1583.3</ele>
        <time>2018-08-08T12:09:41.000Z</time>
      </trkpt>
      <trkpt lat="42.70915" lon="0.66745">
        <ele>1583.3</ele>
        <time>2018-08-08T12:09:42.000Z</time>
      </trkpt>
      <trkpt lat="42.70915" lon="0.66745">
        <ele>1583.3</ele>
        <time>2018-08-08T12:09:43.000Z</time>
      </trkpt>
      <trkpt lat="42.70915" lon="0.66745">
        <ele>1583.3</ele>
        <time>2018-08-08T12:09:44.000Z</time>
      </trkpt>
      <trkpt lat="42.70915" lon="0.66745">
        <ele>1583.3</ele>
        <time>2018-08-08T12:09:45.000Z</time>
      </trkpt>
      <trkpt lat="42.70915" lon="0.66745">
        <ele>1583.3</ele>
        <time>2018-08-08T12:09:46.000Z</time>
      </trkpt>
      <trkpt lat="42.70915" lon="0.66745">
        <ele>1583.3</ele>
        <time>2018-08-08T12:09:47.000Z</time>
      </trkpt>
      <trkpt lat="42.70915" lon="0.66745">
        <ele>1583.3</ele>
        <time>2018-08-08T12:09:48.000Z</time>
      </trkpt>
      <trkpt lat="42.70915" lon="0.66745">
        <ele>1583.3</ele>
        <time>2018-08-08T12:09:49.000Z</time>
      </trkpt>
      <trkpt lat="42.70915" lon="0.66745">
        <ele>1583.3</ele>
        <time>2018-08-08T12:09:50.000Z</time>
      </trkpt>
      <trkpt lat="42.70915" lon="0.66745">
        <ele>1583.3</ele>
        <time>2018-08-08T12:09:51.000Z</time>
      </trkpt>
      <trkpt lat="42.70915" lon="0.66745">
        <ele>1583.3</ele>
        <time>2018-08-08T12:09:52.000Z</time>
      </trkpt>
      <trkpt lat="42.70915" lon="0.66745">
        <ele>1583.3</ele>
        <time>2018-08-08T12:09:53.000Z</time>
      </trkpt>
      <trkpt lat="42.70915" lon="0.66745">
        <ele>1583.3</ele>
        <time>2018-08-08T12:09:54.000Z</time>
      </trkpt>
      <trkpt lat="42.70915" lon="0.66745">
        <ele>1583.3</ele>
        <time>2018-08-08T12:09:55.000Z</time>
      </trkpt>
      <trkpt lat="42.70915" lon="0.66745">
        <ele>1583.3</ele>
        <time>2018-08-08T12:09:56.000Z</time>
      </trkpt>
      <trkpt lat="42.70915" lon="0.66745">
        <ele>1583.3</ele>
        <time>2018-08-08T12:09:57.000Z</time>
      </trkpt>
      <trkpt lat="42.70915" lon="0.66745">
        <ele>1583.3</ele>
        <time>2018-08-08T12:09:58.000Z</time>
      </trkpt>
      <trkpt lat="42.70915" lon="0.66745">
        <ele>1583.3</ele>
        <time>2018-08-08T12:09:59.000Z</time>
      </trkpt>
      <trkpt lat="42.70915" lon="0.66745">
        <ele>1583.3</ele>
        <time>2018-08-08T12:10:00.000Z</time>
      </trkpt>
      <trkpt lat="42.70915" lon="0.66745">
        <ele>1583.3</ele>
        <time>2018-08-08T12:10:01.000Z</time>
      </trkpt>
      <trkpt lat="42.70915" lon="0.66745">
        <ele>1583.3</ele>
        <time>2018-08-08T12:10:02.000Z</time>
      </trkpt>
      <trkpt lat="42.70915" lon="0.66745">
        <ele>1583.3</ele>
        <time>2018-08-08T12:10:03.000Z</time>
      </trkpt>
      <trkpt lat="42.70915" lon="0.66745">
        <ele>1583.3</ele>
        <time>2018-08-08T12:10:04.000Z</time>
      </trkpt>
      <trkpt lat="42.70915" lon="0.66745">
        <ele>1583.3</ele>
        <time>2018-08-08T12:10:05.000Z</time>
      </trkpt>
      <trkpt lat="42.70915" lon="0.66745">
        <ele>1583.3</ele>
        <time>2018-08-08T12:10:06.000Z</time>
      </trkpt>
      <trkpt lat="42.70915" lon="0.66745">
        <ele>1583.3</ele>
        <time>2018-08-08T12:10:07.000Z</time>
      </trkpt>
      <trkpt lat="42.70915" lon="0.66745">
        <ele>1583.3</ele>
        <time>2018-08-08T12:10:08.000Z</time>
      </trkpt>
      <trkpt lat="42.70915" lon="0.66745">
        <ele>1583.3</ele>
        <time>2018-08-08T12:10:09.000Z</time>
      </trkpt>
      <trkpt lat="42.70915" lon="0.66745">
        <ele>1583.3</ele>
        <time>2018-08-08T12:10:10.000Z</time>
      </trkpt>
      <trkpt lat="42.70915" lon="0.66745">
        <ele>1583.3</ele>
        <time>2018-08-08T12:10:11.000Z</time>
      </trkpt>
      <trkpt lat="42.70915" lon="0.66745">
        <ele>1583.3</ele>
        <time>2018-08-08T12:10:12.000Z</time>
      </trkpt>
      <trkpt lat="42.70915" lon="0.66745">
        <ele>1583.3</ele>
        <time>2018-08-08T12:10:13.000Z</time>
      </trkpt>
      <trkpt lat="42.70915" lon="0.66745">
        <ele>1583.3</ele>
        <time>2018-08-08T12:10:14.000Z</time>
      </trkpt>
      <trkpt lat="42.70915" lon="0.66745">
        <ele>1583.3</ele>
        <time>2018-08-08T12:10:15.000Z</time>
      </trkpt>
      <trkpt lat="42.70915" lon="0.66745">
        <ele>1583.3</ele>
        <time>2018-08-08T12:10:16.000Z</time>
      </trkpt>
      <trkpt lat="42.70915" lon="0.66745">
        <ele>1583.3</ele>
        <time>2018-08-08T12:10:17.000Z</time>
      </trkpt>
      <trkpt lat="42.70915" lon="0.66745">
        <ele>1583.3</ele>
        <time>2018-08-08T12:10:18.000Z</time>
      </trkpt>
      <trkpt lat="42.70915" lon="0.66745">
        <ele>1583.3</ele>
        <time>2018-08-08T12:10:19.000Z</time>
      </trkpt>
      <trkpt lat="42.70915" lon="0.66745">
        <ele>1583.3</ele>
        <time>2018-08-08T12:10:20.000Z</time>
      </trkpt>
      <trkpt lat="42.70915" lon="0.66745">
        <ele>1583.3</ele>
        <time>2018-08-08T12:10:21.000Z</time>
      </trkpt>
      <trkpt lat="42.70915" lon="0.66745">
        <ele>1583.3</ele>
        <time>2018-08-08T12:10:22.000Z</time>
      </trkpt>
      <trkpt lat="42.70915" lon="0.66745">
        <ele>1583.3</ele>
        <time>2018-08-08T12:10:23.000Z</time>
      </trkpt>
      <trkpt lat="42.70915" lon="0.66745">
        <ele>1583.3</ele>
        <time>2018-08-08T12:10:24.000Z</time>
      </trkpt>
      <trkpt lat="42.70915" lon="0.66745">
        <ele>1583.3</ele>
        <time>2018-08-08T12:10:25.000Z</time>
      </trkpt>
      <trkpt lat="42.70915" lon="0.66745">
        <ele>1583.3</ele>
        <time>2018-08-08T12:10:26.000Z</time>
      </trkpt>
      <trkpt lat="42.70915" lon="0.66745">
        <ele>1583.3</ele>
        <time>2018-08-08T12:10:27.000Z</time>
      </trkpt>
      <trkpt lat="42.70915" lon="0.66745">
        <ele>1583.3</ele>
        <time>2018-08-08T12:10:28.000Z</time>
      </trkpt>
      <trkpt lat="42.70915" lon="0.66745">
        <ele>1583.3</ele>
        <time>2018-08-08T12:10:29.000Z</time>
      </trkpt>
      <trkpt lat="42.70915" lon="0.66745">
        <ele>1583.3</ele>
        <time>2018-08-08T12:10:30.000Z</time>
      </trkpt>
      <trkpt lat="42.70915" lon="0.66745">
        <ele>1583.3</ele>
        <time>2018-08-08T12:10:31.000Z</time>
      </trkpt>
      <trkpt lat="42.70915" lon="0.66745">
        <ele>1583.3</ele>
        <time>2018-08-08T12:10:32.000Z</time>
      </trkpt>
      <trkpt lat="42.70915" lon="0.66745">
        <ele>1583.3</ele>
        <time>2018-08-08T12:10:33.000Z</time>
      </trkpt>
      <trkpt lat="42.70915" lon="0.66745">
        <ele>1583.3</ele>
        <time>2018-08-08T12:10:34.000Z</time>
      </trkpt>
      <trkpt lat="42.70915" lon="0.66745">
        <ele>1583.3</ele>
        <time>2018-08-08T12:10:35.000Z</time>
      </trkpt>
      <trkpt lat="42.70915" lon="0.66745">
        <ele>1583.3</ele>
        <time>2018-08-08T12:10:36.000Z</time>
      </trkpt>
      <trkpt lat="42.70915" lon="0.66745">
        <ele>1583.3</ele>
        <time>2018-08-08T12:10:37.000Z</time>
      </trkpt>
      <trkpt lat="42.70915" lon="0.66745">
        <ele>1583.3</ele>
        <time>2018-08-08T12:10:38.000Z</time>
      </trkpt>
      <trkpt lat="42.70915" lon="0.66745">
        <ele>1583.3</ele>
        <time>2018-08-08T12:10:39.000Z</time>
      </trkpt>
      <trkpt lat="42.70915" lon="0.66745">
        <ele>1583.3</ele>
        <time>2018-08-08T12:10:40.000Z</time>
      </trkpt>
      <trkpt lat="42.70915" lon="0.66745">
        <ele>1583.3</ele>
        <time>2018-08-08T12:10:41.000Z</time>
      </trkpt>
      <trkpt lat="42.70915" lon="0.66745">
        <ele>1583.3</ele>
        <time>2018-08-08T12:10:42.000Z</time>
      </trkpt>
      <trkpt lat="42.70915" lon="0.66745">
        <ele>1583.3</ele>
        <time>2018-08-08T12:10:43.000Z</time>
      </trkpt>
      <trkpt lat="42.70915" lon="0.66745">
        <ele>1583.3</ele>
        <time>2018-08-08T12:10:44.000Z</time>
      </trkpt>
      <trkpt lat="42.70915" lon="0.66745">
        <ele>1583.3</ele>
        <time>2018-08-08T12:10:45.000Z</time>
      </trkpt>
      <trkpt lat="42.70915" lon="0.66745">
        <ele>1583.3</ele>
        <time>2018-08-08T12:10:46.000Z</time>
      </trkpt>
      <trkpt lat="42.70915" lon="0.66745">
        <ele>1583.3</ele>
        <time>2018-08-08T12:10:47.000Z</time>
      </trkpt>
      <trkpt lat="42.70915" lon="0.66745">
        <ele>1583.3</ele>
        <time>2018-08-08T12:10:48.000Z</time>
      </trkpt>
      <trkpt lat="42.70915" lon="0.66745">
        <ele>1583.3</ele>
        <time>2018-08-08T12:10:49.000Z</time>
      </trkpt>
      <trkpt lat="42.70915" lon="0.66745">
        <ele>1583.3</ele>
        <time>2018-08-08T12:10:50.000Z</time>
      </trkpt>
      <trkpt lat="42.70915" lon="0.66745">
        <ele>1583.3</ele>
        <time>2018-08-08T12:10:51.000Z</time>
      </trkpt>
      <trkpt lat="42.70915" lon="0.66745">
        <ele>1583.3</ele>
        <time>2018-08-08T12:10:52.000Z</time>
      </trkpt>
      <trkpt lat="42.70915" lon="0.66745">
        <ele>1583.3</ele>
        <time>2018-08-08T12:10:53.000Z</time>
      </trkpt>
      <trkpt lat="42.70915" lon="0.66745">
        <ele>1583.3</ele>
        <time>2018-08-08T12:10:54.000Z</time>
      </trkpt>
      <trkpt lat="42.70915" lon="0.66745">
        <ele>1583.3</ele>
        <time>2018-08-08T12:10:55.000Z</time>
      </trkpt>
      <trkpt lat="42.70915" lon="0.66745">
        <ele>1583.3</ele>
        <time>2018-08-08T12:10:56.000Z</time>
      </trkpt>
      <trkpt lat="42.70915" lon="0.66745">
        <ele>1583.3</ele>
        <time>2018-08-08T12:10:57.000Z</time>
      </trkpt>
      <trkpt lat="42.70915" lon="0.66745">
        <ele>1583.3</ele>
        <time>2018-08-08T12:10:58.000Z</time>
      </trkpt>
      <trkpt lat="42.70915" lon="0.66745">
        <ele>1583.3</ele>
        <time>2018-08-08T12:10:59.000Z</time>
      </trkpt>
      <trkpt lat="42.70915" lon="0.66745">
        <ele>1583.3</ele>
        <time>2018-08-08T12:11:00.000Z</time>
      </trkpt>
      <trkpt lat="42.70915" lon="0.66745">
        <ele>1583.3</ele>
        <time>2018-08-08T12:11:01.000Z</time>
      </trkpt>
      <trkpt lat="42.70915" lon="0.66745">
        <ele>1583.3</ele>
        <time>2018-08-08T12:11:02.000Z</time>
      </trkpt>
      <trkpt lat="42.70915" lon="0.66745">
        <ele>1583.3</ele>
        <time>2018-08-08T12:11:03.000Z</time>
      </trkpt>
      <trkpt lat="42.70915" lon="0.66745">
        <ele>1583.3</ele>
        <time>2018-08-08T12:11:04.000Z</time>
      </trkpt>
      <trkpt lat="42.70915" lon="0.66745">
        <ele>1583.3</ele>
        <time>2018-08-08T12:11:05.000Z</time>
      </trkpt>
      <trkpt lat="42.70915" lon="0.66745">
        <ele>1583.3</ele>
        <time>2018-08-08T12:11:06.000Z</time>
      </trkpt>
      <trkpt lat="42.70915" lon="0.66745">
        <ele>1583.3</ele>
        <time>2018-08-08T12:11:07.000Z</time>
      </trkpt>
      <trkpt lat="42.70915" lon="0.66745">
        <ele>1583.3</ele>
        <time>2018-08-08T12:11:08.000Z</time>
      </trkpt>
      <trkpt lat="42.70915" lon="0.66745">
        <ele>1583.3</ele>
        <time>2018-08-08T12:11:09.000Z</time>
      </trkpt>
      <trkpt lat="42.70915" lon="0.66745">
        <ele>1583.3</ele>
        <time>2018-08-08T12:11:10.000Z</time>
      </trkpt>
      <trkpt lat="42.70915" lon="0.66745">
        <ele>1583.3</ele>
        <time>2018-08-08T12:11:11.000Z</time>
      </trkpt>
      <trkpt lat="42.70915" lon="0.66745">
        <ele>1583.3</ele>
        <time>2018-08-08T12:11:12.000Z</time>
      </trkpt>
      <trkpt lat="42.70915" lon="0.66745">
        <ele>1583.3</ele>
        <time>2018-08-08T12:11:13.000Z</time>
      </trkpt>
      <trkpt lat="42.70915" lon="0.66745">
        <ele>1583.3</ele>
        <time>2018-08-08T12:11:14.000Z</time>
      </trkpt>
      <trkpt lat="42.70915" lon="0.66745">
        <ele>1583.3</ele>
        <time>2018-08-08T12:11:15.000Z</time>
      </trkpt>
      <trkpt lat="42.70915" lon="0.66745">
        <ele>1583.3</ele>
        <time>2018-08-08T12:11:16.000Z</time>
      </trkpt>
      <trkpt lat="42.70915" lon="0.66745">
        <ele>1583.3</ele>
        <time>2018-08-08T12:11:17.000Z</time>
      </trkpt>
      <trkpt lat="42.70915" lon="0.66745">
        <ele>1583.3</ele>
        <time>2018-08-08T12:11:18.000Z</time>
      </trkpt>
      <trkpt lat="42.70915" lon="0.66745">
        <ele>1583.3</ele>
        <time>2018-08-08T12:11:19.000Z</time>
      </trkpt>
      <trkpt lat="42.70915" lon="0.66745">
        <ele>1583.3</ele>
        <time>2018-08-08T12:11:20.000Z</time>
      </trkpt>
      <trkpt lat="42.70915" lon="0.66745">
        <ele>1583.3</ele>
        <time>2018-08-08T12:11:21.000Z</time>
      </trkpt>
      <trkpt lat="42.70915" lon="0.66745">
        <ele>1583.3</ele>
        <time>2018-08-08T12:11:22.000Z</time>
      </trkpt>
      <trkpt lat="42.70915" lon="0.66745">
        <ele>1583.3</ele>
        <time>2018-08-08T12:11:23.000Z</time>
      </trkpt>
      <trkpt lat="42.70915" lon="0.66745">
        <ele>1583.3</ele>
        <time>2018-08-08T12:11:24.000Z</time>
      </trkpt>
      <trkpt lat="42.70915" lon="0.66745">
        <ele>1583.3</ele>
        <time>2018-08-08T12:11:25.000Z</time>
      </trkpt>
      <trkpt lat="42.70915" lon="0.66745">
        <ele>1583.3</ele>
        <time>2018-08-08T12:11:26.000Z</time>
      </trkpt>
      <trkpt lat="42.70915" lon="0.66745">
        <ele>1583.3</ele>
        <time>2018-08-08T12:11:27.000Z</time>
      </trkpt>
      <trkpt lat="42.70915" lon="0.66745">
        <ele>1583.3</ele>
        <time>2018-08-08T12:11:28.000Z</time>
      </trkpt>
      <trkpt lat="42.70915" lon="0.66745">
        <ele>1583.3</ele>
        <time>2018-08-08T12:11:29.000Z</time>
      </trkpt>
      <trkpt lat="42.70915" lon="0.66745">
        <ele>1583.3</ele>
        <time>2018-08-08T12:11:30.000Z</time>
      </trkpt>
      <trkpt lat="42.70915" lon="0.66745">
        <ele>1583.3</ele>
        <time>2018-08-08T12:11:31.000Z</time>
      </trkpt>
      <trkpt lat="42.70915" lon="0.66745">
        <ele>1583.3</ele>
        <time>2018-08-08T12:11:32.000Z</time>
      </trkpt>
      <trkpt lat="42.70915" lon="0.66745">
        <ele>1583.3</ele>
        <time>2018-08-08T12:11:33.000Z</time>
      </trkpt>
      <trkpt lat="42.70915" lon="0.66745">
        <ele>1583.3</ele>
        <time>2018-08-08T12:11:34.000Z</time>
      </trkpt>
      <trkpt lat="42.70915" lon="0.66745">
        <ele>1583.3</ele>
        <time>2018-08-08T12:11:35.000Z</time>
      </trkpt>
      <trkpt lat="42.70915" lon="0.66745">
        <ele>1583.3</ele>
        <time>2018-08-08T12:11:36.000Z</time>
      </trkpt>
      <trkpt lat="42.70915" lon="0.66745">
        <ele>1583.3</ele>
        <time>2018-08-08T12:11:37.000Z</time>
      </trkpt>
      <trkpt lat="42.70915" lon="0.66745">
        <ele>1583.3</ele>
        <time>2018-08-08T12:11:38.000Z</time>
      </trkpt>
      <trkpt lat="42.70915" lon="0.66745">
        <ele>1583.3</ele>
        <time>2018-08-08T12:11:39.000Z</time>
      </trkpt>
      <trkpt lat="42.70915" lon="0.66745">
        <ele>1583.3</ele>
        <time>2018-08-08T12:11:40.000Z</time>
      </trkpt>
      <trkpt lat="42.70915" lon="0.66745">
        <ele>1583.3</ele>
        <time>2018-08-08T12:11:41.000Z</time>
      </trkpt>
      <trkpt lat="42.70915" lon="0.66745">
        <ele>1583.3</ele>
        <time>2018-08-08T12:11:42.000Z</time>
      </trkpt>
      <trkpt lat="42.70915" lon="0.66745">
        <ele>1583.3</ele>
        <time>2018-08-08T12:11:43.000Z</time>
      </trkpt>
      <trkpt lat="42.70915" lon="0.66745">
        <ele>1583.3</ele>
        <time>2018-08-08T12:11:44.000Z</time>
      </trkpt>
      <trkpt lat="42.70915" lon="0.66745">
        <ele>1583.3</ele>
        <time>2018-08-08T12:11:45.000Z</time>
      </trkpt>
      <trkpt lat="42.70915" lon="0.66745">
        <ele>1583.3</ele>
        <time>2018-08-08T12:11:46.000Z</time>
      </trkpt>
      <trkpt lat="42.70915" lon="0.66745">
        <ele>1583.3</ele>
        <time>2018-08-08T12:11:47.000Z</time>
      </trkpt>
      <trkpt lat="42.70915" lon="0.66745">
        <ele>1583.3</ele>
        <time>2018-08-08T12:11:48.000Z</time>
      </trkpt>
      <trkpt lat="42.70915" lon="0.66745">
        <ele>1583.3</ele>
        <time>2018-08-08T12:11:49.000Z</time>
      </trkpt>
      <trkpt lat="42.70915" lon="0.66745">
        <ele>1583.3</ele>
        <time>2018-08-08T12:11:50.000Z</time>
      </trkpt>
      <trkpt lat="42.70915" lon="0.66745">
        <ele>1583.3</ele>
        <time>2018-08-08T12:11:51.000Z</time>
      </trkpt>
      <trkpt lat="42.70915" lon="0.66745">
        <ele>1583.3</ele>
        <time>2018-08-08T12:11:52.000Z</time>
      </trkpt>
      <trkpt lat="42.70915" lon="0.66745">
        <ele>1583.3</ele>
        <time>2018-08-08T12:11:53.000Z</time>
      </trkpt>
      <trkpt lat="42.70915" lon="0.66745">
        <ele>1583.3</ele>
        <time>2018-08-08T12:11:54.000Z</time>
      </trkpt>
      <trkpt lat="42.70915" lon="0.66745">
        <ele>1583.3</ele>
        <time>2018-08-08T12:11:55.000Z</time>
      </trkpt>
      <trkpt lat="42.70915" lon="0.66745">
        <ele>1583.3</ele>
        <time>2018-08-08T12:11:56.000Z</time>
      </trkpt>
      <trkpt lat="42.70915" lon="0.66745">
        <ele>1583.3</ele>
        <time>2018-08-08T12:11:57.000Z</time>
      </trkpt>
      <trkpt lat="42.70915" lon="0.66745">
        <ele>1583.3</ele>
        <time>2018-08-08T12:11:58.000Z</time>
      </trkpt>
      <trkpt lat="42.70915" lon="0.66745">
        <ele>1583.3</ele>
        <time>2018-08-08T12:11:59.000Z</time>
      </trkpt>
      <trkpt lat="42.70915" lon="0.66745">
        <ele>1583.3</ele>
        <time>2018-08-08T12:12:00.000Z</time>
      </trkpt>
      <trkpt lat="42.70915" lon="0.66745">
        <ele>1583.3</ele>
        <time>2018-08-08T12:12:01.000Z</time>
      </trkpt>
      <trkpt lat="42.70915" lon="0.66745">
        <ele>1583.3</ele>
        <time>2018-08-08T12:12:02.000Z</time>
      </trkpt>
      <trkpt lat="42.70915" lon="0.66745">
        <ele>1583.3</ele>
        <time>2018-08-08T12:12:03.000Z</time>
      </trkpt>
      <trkpt lat="42.70915" lon="0.66745">
        <ele>1583.3</ele>
        <time>2018-08-08T12:12:04.000Z</time>
      </trkpt>
      <trkpt lat="42.70915" lon="0.66745">
        <ele>1583.3</ele>
        <time>2018-08-08T12:12:05.000Z</time>
      </trkpt>
      <trkpt lat="42.70915" lon="0.66745">
        <ele>1583.3</ele>
        <time>2018-08-08T12:12:06.000Z</time>
      </trkpt>
      <trkpt lat="42.70915" lon="0.66745">
        <ele>1583.3</ele>
        <time>2018-08-08T12:12:07.000Z</time>
      </trkpt>
      <trkpt lat="42.70915" lon="0.66745">
        <ele>1583.3</ele>
        <time>2018-08-08T12:12:08.000Z</time>
      </trkpt>
      <trkpt lat="42.70915" lon="0.66745">
        <ele>1583.3</ele>
        <time>2018-08-08T12:12:09.000Z</time>
      </trkpt>
      <trkpt lat="42.70915" lon="0.66745">
        <ele>1583.3</ele>
        <time>2018-08-08T12:12:10.000Z</time>
      </trkpt>
      <trkpt lat="42.70915" lon="0.66745">
        <ele>1583.3</ele>
        <time>2018-08-08T12:12:11.000Z</time>
      </trkpt>
      <trkpt lat="42.70915" lon="0.66745">
        <ele>1583.3</ele>
        <time>2018-08-08T12:12:12.000Z</time>
      </trkpt>
      <trkpt lat="42.70915" lon="0.66745">
        <ele>1583.3</ele>
        <time>2018-08-08T12:12:13.000Z</time>
      </trkpt>
      <trkpt lat="42.70915" lon="0.66745">
        <ele>1583.3</ele>
        <time>2018-08-08T12:12:14.000Z</time>
      </trkpt>
      <trkpt lat="42.70915" lon="0.66745">
        <ele>1583.3</ele>
        <time>2018-08-08T12:12:15.000Z</time>
      </trkpt>
      <trkpt lat="42.70915" lon="0.66745">
        <ele>1583.3</ele>
        <time>2018-08-08T12:12:16.000Z</time>
      </trkpt>
      <trkpt lat="42.70915" lon="0.66745">
        <ele>1583.3</ele>
        <time>2018-08-08T12:12:17.000Z</time>
      </trkpt>
      <trkpt lat="42.70915" lon="0.66745">
        <ele>1583.3</ele>
        <time>2018-08-08T12:12:18.000Z</time>
      </trkpt>
      <trkpt lat="42.70915" lon="0.66745">
        <ele>1583.3</ele>
        <time>2018-08-08T12:12:19.000Z</time>
      </trkpt>
      <trkpt lat="42.70915" lon="0.66745">
        <ele>1583.3</ele>
        <time>2018-08-08T12:12:20.000Z</time>
      </trkpt>
      <trkpt lat="42.70915" lon="0.66745">
        <ele>1583.3</ele>
        <time>2018-08-08T12:12:21.000Z</time>
      </trkpt>
      <trkpt lat="42.70915" lon="0.66745">
        <ele>1583.3</ele>
        <time>2018-08-08T12:12:22.000Z</time>
      </trkpt>
      <trkpt lat="42.70915" lon="0.66745">
        <ele>1583.3</ele>
        <time>2018-08-08T12:12:23.000Z</time>
      </trkpt>
      <trkpt lat="42.70915" lon="0.66745">
        <ele>1583.3</ele>
        <time>2018-08-08T12:12:24.000Z</time>
      </trkpt>
      <trkpt lat="42.70915" lon="0.66745">
        <ele>1583.3</ele>
        <time>2018-08-08T12:12:25.000Z</time>
      </trkpt>
      <trkpt lat="42.70915" lon="0.66745">
        <ele>1583.3</ele>
        <time>2018-08-08T12:12:26.000Z</time>
      </trkpt>
      <trkpt lat="42.70915" lon="0.66745">
        <ele>1583.3</ele>
        <time>2018-08-08T12:12:27.000Z</time>
      </trkpt>
      <trkpt lat="42.70915" lon="0.66745">
        <ele>1583.3</ele>
        <time>2018-08-08T12:12:28.000Z</time>
      </trkpt>
      <trkpt lat="42.70915" lon="0.66745">
        <ele>1583.3</ele>
        <time>2018-08-08T12:12:29.000Z</time>
      </trkpt>
      <trkpt lat="42.70915" lon="0.66745">
        <ele>1583.3</ele>
        <time>2018-08-08T12:12:30.000Z</time>
      </trkpt>
      <trkpt lat="42.70915" lon="0.66745">
        <ele>1583.3</ele>
        <time>2018-08-08T12:12:31.000Z</time>
      </trkpt>
      <trkpt lat="42.70915" lon="0.66745">
        <ele>1583.3</ele>
        <time>2018-08-08T12:12:32.000Z</time>
      </trkpt>
      <trkpt lat="42.70915" lon="0.66745">
        <ele>1583.3</ele>
        <time>2018-08-08T12:12:33.000Z</time>
      </trkpt>
      <trkpt lat="42.70915" lon="0.66745">
        <ele>1583.3</ele>
        <time>2018-08-08T12:12:34.000Z</time>
      </trkpt>
      <trkpt lat="42.70915" lon="0.66745">
        <ele>1583.3</ele>
        <time>2018-08-08T12:12:35.000Z</time>
      </trkpt>
      <trkpt lat="42.70915" lon="0.66745">
        <ele>1583.3</ele>
        <time>2018-08-08T12:12:36.000Z</time>
      </trkpt>
      <trkpt lat="42.70915" lon="0.66745">
        <ele>1583.3</ele>
        <time>2018-08-08T12:12:37.000Z</time>
      </trkpt>
      <trkpt lat="42.70915" lon="0.66745">
        <ele>1583.3</ele>
        <time>2018-08-08T12:12:38.000Z</time>
      </trkpt>
      <trkpt lat="42.70915" lon="0.66745">
        <ele>1583.3</ele>
        <time>2018-08-08T12:12:39.000Z</time>
      </trkpt>
      <trkpt lat="42.70915" lon="0.66745">
        <ele>1583.3</ele>
        <time>2018-08-08T12:12:40.000Z</time>
      </trkpt>
      <trkpt lat="42.70915" lon="0.66745">
        <ele>1583.3</ele>
        <time>2018-08-08T12:12:41.000Z</time>
      </trkpt>
      <trkpt lat="42.70915" lon="0.66745">
        <ele>1583.3</ele>
        <time>2018-08-08T12:12:42.000Z</time>
      </trkpt>
      <trkpt lat="42.70915" lon="0.66745">
        <ele>1583.3</ele>
        <time>2018-08-08T12:12:43.000Z</time>
      </trkpt>
      <trkpt lat="42.70915" lon="0.66745">
        <ele>1583.3</ele>
        <time>2018-08-08T12:12:44.000Z</time>
      </trkpt>
      <trkpt lat="42.70915" lon="0.66745">
        <ele>1583.3</ele>
        <time>2018-08-08T12:12:45.000Z</time>
      </trkpt>
      <trkpt lat="42.70915" lon="0.66745">
        <ele>1583.3</ele>
        <time>2018-08-08T12:12:46.000Z</time>
      </trkpt>
      <trkpt lat="42.70915" lon="0.66745">
        <ele>1583.3</ele>
        <time>2018-08-08T12:12:47.000Z</time>
      </trkpt>
      <trkpt lat="42.70915" lon="0.66745">
        <ele>1583.3</ele>
        <time>2018-08-08T12:12:48.000Z</time>
      </trkpt>
      <trkpt lat="42.70915" lon="0.66745">
        <ele>1583.3</ele>
        <time>2018-08-08T12:12:49.000Z</time>
      </trkpt>
      <trkpt lat="42.70915" lon="0.66745">
        <ele>1583.3</ele>
        <time>2018-08-08T12:12:50.000Z</time>
      </trkpt>
      <trkpt lat="42.70915" lon="0.66745">
        <ele>1583.3</ele>
        <time>2018-08-08T12:12:51.000Z</time>
      </trkpt>
      <trkpt lat="42.70915" lon="0.66745">
        <ele>1583.3</ele>
        <time>2018-08-08T12:12:52.000Z</time>
      </trkpt>
      <trkpt lat="42.70915" lon="0.66745">
        <ele>1583.3</ele>
        <time>2018-08-08T12:12:53.000Z</time>
      </trkpt>
      <trkpt lat="42.70915" lon="0.66745">
        <ele>1583.3</ele>
        <time>2018-08-08T12:12:54.000Z</time>
      </trkpt>
      <trkpt lat="42.70915" lon="0.66745">
        <ele>1583.3</ele>
        <time>2018-08-08T12:12:55.000Z</time>
      </trkpt>
      <trkpt lat="42.70915" lon="0.66745">
        <ele>1583.3</ele>
        <time>2018-08-08T12:12:56.000Z</time>
      </trkpt>
      <trkpt lat="42.70915" lon="0.66745">
        <ele>1583.3</ele>
        <time>2018-08-08T12:12:57.000Z</time>
      </trkpt>
      <trkpt lat="42.70915" lon="0.66745">
        <ele>1583.3</ele>
        <time>2018-08-08T12:12:58.000Z</time>
      </trkpt>
      <trkpt lat="42.70915" lon="0.66745">
        <ele>1583.3</ele>
        <time>2018-08-08T12:12:59.000Z</time>
      </trkpt>
      <trkpt lat="42.70915" lon="0.66745">
        <ele>1583.3</ele>
        <time>2018-08-08T12:13:00.000Z</time>
      </trkpt>
      <trkpt lat="42.70915" lon="0.66745">
        <ele>1583.3</ele>
        <time>2018-08-08T12:13:01.000Z</time>
      </trkpt>
      <trkpt lat="42.70915" lon="0.66745">
        <ele>1583.3</ele>
        <time>2018-08-08T12:13:02.000Z</time>
      </trkpt>
      <trkpt lat="42.70915" lon="0.66745">
        <ele>1583.3</ele>
        <time>2018-08-08T12:13:03.000Z</time>
      </trkpt>
      <trkpt lat="42.70915" lon="0.66745">
        <ele>1583.3</ele>
        <time>2018-08-08T12:13:04.000Z</time>
      </trkpt>
      <trkpt lat="42.70915" lon="0.66745">
        <ele>1583.3</ele>
        <time>2018-08-08T12:13:05.000Z</time>
      </trkpt>
      <trkpt lat="42.70915" lon="0.66745">
        <ele>1583.3</ele>
        <time>2018-08-08T12:13:06.000Z</time>
      </trkpt>
      <trkpt lat="42.70915" lon="0.66745">
        <ele>1583.3</ele>
        <time>2018-08-08T12:13:07.000Z</time>
      </trkpt>
      <trkpt lat="42.70915" lon="0.66745">
        <ele>1583.3</ele>
        <time>2018-08-08T12:13:08.000Z</time>
      </trkpt>
      <trkpt lat="42.70915" lon="0.66745">
        <ele>1583.3</ele>
        <time>2018-08-08T12:13:09.000Z</time>
      </trkpt>
      <trkpt lat="42.70915" lon="0.66745">
        <ele>1583.3</ele>
        <time>2018-08-08T12:13:10.000Z</time>
      </trkpt>
      <trkpt lat="42.70915" lon="0.66745">
        <ele>1583.3</ele>
        <time>2018-08-08T12:13:11.000Z</time>
      </trkpt>
      <trkpt lat="42.70915" lon="0.66745">
        <ele>1583.3</ele>
        <time>2018-08-08T12:13:12.000Z</time>
      </trkpt>
      <trkpt lat="42.70915" lon="0.66745">
        <ele>1583.3</ele>
        <time>2018-08-08T12:13:13.000Z</time>
      </trkpt>
      <trkpt lat="42.70915" lon="0.66745">
        <ele>1583.3</ele>
        <time>2018-08-08T12:13:14.000Z</time>
      </trkpt>
      <trkpt lat="42.70915" lon="0.66745">
        <ele>1583.3</ele>
        <time>2018-08-08T12:13:15.000Z</time>
      </trkpt>
      <trkpt lat="42.70915" lon="0.66745">
        <ele>1583.3</ele>
        <time>2018-08-08T12:13:16.000Z</time>
      </trkpt>
      <trkpt lat="42.70915" lon="0.66745">
        <ele>1583.3</ele>
        <time>2018-08-08T12:13:17.000Z</time>
      </trkpt>
      <trkpt lat="42.70915" lon="0.66745">
        <ele>1583.3</ele>
        <time>2018-08-08T12:13:18.000Z</time>
      </trkpt>
      <trkpt lat="42.70915" lon="0.66745">
        <ele>1583.3</ele>
        <time>2018-08-08T12:13:19.000Z</time>
      </trkpt>
      <trkpt lat="42.70915" lon="0.66745">
        <ele>1583.3</ele>
        <time>2018-08-08T12:13:20.000Z</time>
      </trkpt>
      <trkpt lat="42.70915" lon="0.66745">
        <ele>1583.3</ele>
        <time>2018-08-08T12:13:21.000Z</time>
      </trkpt>
      <trkpt lat="42.70915" lon="0.66745">
        <ele>1583.3</ele>
        <time>2018-08-08T12:13:22.000Z</time>
      </trkpt>
      <trkpt lat="42.70915" lon="0.66745">
        <ele>1583.3</ele>
        <time>2018-08-08T12:13:23.000Z</time>
      </trkpt>
      <trkpt lat="42.70915" lon="0.66745">
        <ele>1583.3</ele>
        <time>2018-08-08T12:13:24.000Z</time>
      </trkpt>
      <trkpt lat="42.70915" lon="0.66745">
        <ele>1583.3</ele>
        <time>2018-08-08T12:13:25.000Z</time>
      </trkpt>
      <trkpt lat="42.70915" lon="0.66745">
        <ele>1583.3</ele>
        <time>2018-08-08T12:13:26.000Z</time>
      </trkpt>
      <trkpt lat="42.70915" lon="0.66745">
        <ele>1583.3</ele>
        <time>2018-08-08T12:13:27.000Z</time>
      </trkpt>
      <trkpt lat="42.70915" lon="0.66745">
        <ele>1583.3</ele>
        <time>2018-08-08T12:13:28.000Z</time>
      </trkpt>
      <trkpt lat="42.70915" lon="0.66745">
        <ele>1583.3</ele>
        <time>2018-08-08T12:13:29.000Z</time>
      </trkpt>
      <trkpt lat="42.70915" lon="0.66745">
        <ele>1583.3</ele>
        <time>2018-08-08T12:13:30.000Z</time>
      </trkpt>
      <trkpt lat="42.70915" lon="0.66745">
        <ele>1583.3</ele>
        <time>2018-08-08T12:13:31.000Z</time>
      </trkpt>
      <trkpt lat="42.70915" lon="0.66745">
        <ele>1583.3</ele>
        <time>2018-08-08T12:13:32.000Z</time>
      </trkpt>
      <trkpt lat="42.70915" lon="0.66745">
        <ele>1583.3</ele>
        <time>2018-08-08T12:13:33.000Z</time>
      </trkpt>
      <trkpt lat="42.70915" lon="0.66745">
        <ele>1583.3</ele>
        <time>2018-08-08T12:13:34.000Z</time>
      </trkpt>
      <trkpt lat="42.70915" lon="0.66745">
        <ele>1583.3</ele>
        <time>2018-08-08T12:13:35.000Z</time>
      </trkpt>
      <trkpt lat="42.70915" lon="0.66745">
        <ele>1583.3</ele>
        <time>2018-08-08T12:13:36.000Z</time>
      </trkpt>
      <trkpt lat="42.70915" lon="0.66745">
        <ele>1583.3</ele>
        <time>2018-08-08T12:13:37.000Z</time>
      </trkpt>
      <trkpt lat="42.70915" lon="0.66745">
        <ele>1583.3</ele>
        <time>2018-08-08T12:13:38.000Z</time>
      </trkpt>
      <trkpt lat="42.70915" lon="0.66745">
        <ele>1583.3</ele>
        <time>2018-08-08T12:13:39.000Z</time>
      </trkpt>
      <trkpt lat="42.70915" lon="0.66745">
        <ele>1583.3</ele>
        <time>2018-08-08T12:13:40.000Z</time>
      </trkpt>
      <trkpt lat="42.70915" lon="0.66745">
        <ele>1583.3</ele>
        <time>2018-08-08T12:13:41.000Z</time>
      </trkpt>
      <trkpt lat="42.70915" lon="0.66745">
        <ele>1583.3</ele>
        <time>2018-08-08T12:13:42.000Z</time>
      </trkpt>
      <trkpt lat="42.70915" lon="0.66745">
        <ele>1583.3</ele>
        <time>2018-08-08T12:13:43.000Z</time>
      </trkpt>
      <trkpt lat="42.70915" lon="0.66745">
        <ele>1583.3</ele>
        <time>2018-08-08T12:13:44.000Z</time>
      </trkpt>
      <trkpt lat="42.70915" lon="0.66745">
        <ele>1583.3</ele>
        <time>2018-08-08T12:13:45.000Z</time>
      </trkpt>
      <trkpt lat="42.70915" lon="0.66745">
        <ele>1583.3</ele>
        <time>2018-08-08T12:13:46.000Z</time>
      </trkpt>
      <trkpt lat="42.70915" lon="0.66745">
        <ele>1583.3</ele>
        <time>2018-08-08T12:13:47.000Z</time>
      </trkpt>
      <trkpt lat="42.70915" lon="0.66745">
        <ele>1583.3</ele>
        <time>2018-08-08T12:13:48.000Z</time>
      </trkpt>
      <trkpt lat="42.70915" lon="0.66745">
        <ele>1583.3</ele>
        <time>2018-08-08T12:13:49.000Z</time>
      </trkpt>
      <trkpt lat="42.70915" lon="0.66745">
        <ele>1583.3</ele>
        <time>2018-08-08T12:13:50.000Z</time>
      </trkpt>
      <trkpt lat="42.70915" lon="0.66745">
        <ele>1583.3</ele>
        <time>2018-08-08T12:13:51.000Z</time>
      </trkpt>
      <trkpt lat="42.70915" lon="0.66745">
        <ele>1583.3</ele>
        <time>2018-08-08T12:13:52.000Z</time>
      </trkpt>
      <trkpt lat="42.70915" lon="0.66745">
        <ele>1583.3</ele>
        <time>2018-08-08T12:13:53.000Z</time>
      </trkpt>
      <trkpt lat="42.70915" lon="0.66745">
        <ele>1583.3</ele>
        <time>2018-08-08T12:13:54.000Z</time>
      </trkpt>
      <trkpt lat="42.70915" lon="0.66745">
        <ele>1583.3</ele>
        <time>2018-08-08T12:13:55.000Z</time>
      </trkpt>
      <trkpt lat="42.70915" lon="0.66745">
        <ele>1583.3</ele>
        <time>2018-08-08T12:13:56.000Z</time>
      </trkpt>
      <trkpt lat="42.70915" lon="0.66745">
        <ele>1583.3</ele>
        <time>2018-08-08T12:13:57.000Z</time>
      </trkpt>
      <trkpt lat="42.70915" lon="0.66745">
        <ele>1583.3</ele>
        <time>2018-08-08T12:13:58.000Z</time>
      </trkpt>
      <trkpt lat="42.70915" lon="0.66745">
        <ele>1583.3</ele>
        <time>2018-08-08T12:13:59.000Z</time>
      </trkpt>
      <trkpt lat="42.70915" lon="0.66745">
        <ele>1583.3</ele>
        <time>2018-08-08T12:14:00.000Z</time>
      </trkpt>
      <trkpt lat="42.70915" lon="0.66745">
        <ele>1583.3</ele>
        <time>2018-08-08T12:14:01.000Z</time>
      </trkpt>
      <trkpt lat="42.70915" lon="0.66745">
        <ele>1583.3</ele>
        <time>2018-08-08T12:14:02.000Z</time>
      </trkpt>
      <trkpt lat="42.70915" lon="0.66745">
        <ele>1583.3</ele>
        <time>2018-08-08T12:14:03.000Z</time>
      </trkpt>
      <trkpt lat="42.70915" lon="0.66745">
        <ele>1583.3</ele>
        <time>2018-08-08T12:14:04.000Z</time>
      </trkpt>
      <trkpt lat="42.70915" lon="0.66745">
        <ele>1583.3</ele>
        <time>2018-08-08T12:14:05.000Z</time>
      </trkpt>
      <trkpt lat="42.70915" lon="0.66745">
        <ele>1583.3</ele>
        <time>2018-08-08T12:14:06.000Z</time>
      </trkpt>
      <trkpt lat="42.70915" lon="0.66745">
        <ele>1583.3</ele>
        <time>2018-08-08T12:14:07.000Z</time>
      </trkpt>
      <trkpt lat="42.70915" lon="0.66745">
        <ele>1583.3</ele>
        <time>2018-08-08T12:14:08.000Z</time>
      </trkpt>
      <trkpt lat="42.70915" lon="0.66745">
        <ele>1583.3</ele>
        <time>2018-08-08T12:14:09.000Z</time>
      </trkpt>
      <trkpt lat="42.70915" lon="0.66745">
        <ele>1583.3</ele>
        <time>2018-08-08T12:14:10.000Z</time>
      </trkpt>
      <trkpt lat="42.70915" lon="0.66745">
        <ele>1583.3</ele>
        <time>2018-08-08T12:14:11.000Z</time>
      </trkpt>
      <trkpt lat="42.70915" lon="0.66745">
        <ele>1583.3</ele>
        <time>2018-08-08T12:14:12.000Z</time>
      </trkpt>
      <trkpt lat="42.70915" lon="0.66745">
        <ele>1583.4</ele>
        <time>2018-08-08T12:14:13.000Z</time>
      </trkpt>
      <trkpt lat="42.70915" lon="0.66745">
        <ele>1583.4</ele>
        <time>2018-08-08T12:14:14.000Z</time>
      </trkpt>
      <trkpt lat="42.70915" lon="0.66745">
        <ele>1583.4</ele>
        <time>2018-08-08T12:14:15.000Z</time>
      </trkpt>
      <trkpt lat="42.70915" lon="0.66745">
        <ele>1583.4</ele>
        <time>2018-08-08T12:14:16.000Z</time>
      </trkpt>
      <trkpt lat="42.70915" lon="0.66745">
        <ele>1583.4</ele>
        <time>2018-08-08T12:14:17.000Z</time>
      </trkpt>
      <trkpt lat="42.70915" lon="0.66745">
        <ele>1583.4</ele>
        <time>2018-08-08T12:14:18.000Z</time>
      </trkpt>
      <trkpt lat="42.70915" lon="0.66744">
        <ele>1583.4</ele>
        <time>2018-08-08T12:14:19.000Z</time>
      </trkpt>
      <trkpt lat="42.70915" lon="0.66744">
        <ele>1583.4</ele>
        <time>2018-08-08T12:14:20.000Z</time>
      </trkpt>
      <trkpt lat="42.70915" lon="0.66744">
        <ele>1583.4</ele>
        <time>2018-08-08T12:14:21.000Z</time>
      </trkpt>
      <trkpt lat="42.70915" lon="0.66744">
        <ele>1583.4</ele>
        <time>2018-08-08T12:14:22.000Z</time>
      </trkpt>
      <trkpt lat="42.70916" lon="0.66744">
        <ele>1583.4</ele>
        <time>2018-08-08T12:14:23.000Z</time>
      </trkpt>
      <trkpt lat="42.70916" lon="0.66744">
        <ele>1583.4</ele>
        <time>2018-08-08T12:14:24.000Z</time>
      </trkpt>
      <trkpt lat="42.70916" lon="0.66744">
        <ele>1583.4</ele>
        <time>2018-08-08T12:14:25.000Z</time>
      </trkpt>
      <trkpt lat="42.70916" lon="0.66744">
        <ele>1583.5</ele>
        <time>2018-08-08T12:14:26.000Z</time>
      </trkpt>
      <trkpt lat="42.70916" lon="0.66744">
        <ele>1583.4</ele>
        <time>2018-08-08T12:14:27.000Z</time>
      </trkpt>
      <trkpt lat="42.70916" lon="0.66744">
        <ele>1583.5</ele>
        <time>2018-08-08T12:14:28.000Z</time>
      </trkpt>
      <trkpt lat="42.70916" lon="0.66744">
        <ele>1583.5</ele>
        <time>2018-08-08T12:14:29.000Z</time>
      </trkpt>
      <trkpt lat="42.70916" lon="0.66744">
        <ele>1583.5</ele>
        <time>2018-08-08T12:14:30.000Z</time>
      </trkpt>
      <trkpt lat="42.70916" lon="0.66744">
        <ele>1583.5</ele>
        <time>2018-08-08T12:14:31.000Z</time>
      </trkpt>
      <trkpt lat="42.70916" lon="0.66744">
        <ele>1583.5</ele>
        <time>2018-08-08T12:14:32.000Z</time>
      </trkpt>
      <trkpt lat="42.70916" lon="0.66744">
        <ele>1583.6</ele>
        <time>2018-08-08T12:14:33.000Z</time>
      </trkpt>
      <trkpt lat="42.70916" lon="0.66744">
        <ele>1583.6</ele>
        <time>2018-08-08T12:14:34.000Z</time>
      </trkpt>
      <trkpt lat="42.70916" lon="0.66743">
        <ele>1583.6</ele>
        <time>2018-08-08T12:14:35.000Z</time>
      </trkpt>
      <trkpt lat="42.70916" lon="0.66743">
        <ele>1583.6</ele>
        <time>2018-08-08T12:14:36.000Z</time>
      </trkpt>
      <trkpt lat="42.70917" lon="0.66743">
        <ele>1583.7</ele>
        <time>2018-08-08T12:14:37.000Z</time>
      </trkpt>
      <trkpt lat="42.70917" lon="0.66743">
        <ele>1583.7</ele>
        <time>2018-08-08T12:14:38.000Z</time>
      </trkpt>
      <trkpt lat="42.70917" lon="0.66743">
        <ele>1583.7</ele>
        <time>2018-08-08T12:14:39.000Z</time>
      </trkpt>
      <trkpt lat="42.70917" lon="0.66743">
        <ele>1583.7</ele>
        <time>2018-08-08T12:14:40.000Z</time>
      </trkpt>
      <trkpt lat="42.70917" lon="0.66743">
        <ele>1583.8</ele>
        <time>2018-08-08T12:14:41.000Z</time>
      </trkpt>
      <trkpt lat="42.70917" lon="0.66743">
        <ele>1583.8</ele>
        <time>2018-08-08T12:14:42.000Z</time>
      </trkpt>
      <trkpt lat="42.70917" lon="0.66742">
        <ele>1583.9</ele>
        <time>2018-08-08T12:14:43.000Z</time>
      </trkpt>
      <trkpt lat="42.70917" lon="0.66742">
        <ele>1583.9</ele>
        <time>2018-08-08T12:14:44.000Z</time>
      </trkpt>
      <trkpt lat="42.70918" lon="0.66742">
        <ele>1583.9</ele>
        <time>2018-08-08T12:14:45.000Z</time>
      </trkpt>
      <trkpt lat="42.70918" lon="0.66742">
        <ele>1584</ele>
        <time>2018-08-08T12:14:46.000Z</time>
      </trkpt>
      <trkpt lat="42.70918" lon="0.66742">
        <ele>1584</ele>
        <time>2018-08-08T12:14:47.000Z</time>
      </trkpt>
      <trkpt lat="42.70918" lon="0.66742">
        <ele>1584</ele>
        <time>2018-08-08T12:14:48.000Z</time>
      </trkpt>
      <trkpt lat="42.70918" lon="0.66742">
        <ele>1584.1</ele>
        <time>2018-08-08T12:14:49.000Z</time>
      </trkpt>
      <trkpt lat="42.70918" lon="0.66741">
        <ele>1584.1</ele>
        <time>2018-08-08T12:14:50.000Z</time>
      </trkpt>
      <trkpt lat="42.70918" lon="0.66741">
        <ele>1584.2</ele>
        <time>2018-08-08T12:14:51.000Z</time>
      </trkpt>
      <trkpt lat="42.70918" lon="0.66741">
        <ele>1584.2</ele>
        <time>2018-08-08T12:14:52.000Z</time>
      </trkpt>
      <trkpt lat="42.70919" lon="0.66741">
        <ele>1584.2</ele>
        <time>2018-08-08T12:14:53.000Z</time>
      </trkpt>
      <trkpt lat="42.70919" lon="0.66741">
        <ele>1584.2</ele>
        <time>2018-08-08T12:14:54.000Z</time>
      </trkpt>
      <trkpt lat="42.70919" lon="0.66741">
        <ele>1584.3</ele>
        <time>2018-08-08T12:14:55.000Z</time>
      </trkpt>
      <trkpt lat="42.70919" lon="0.66741">
        <ele>1584.3</ele>
        <time>2018-08-08T12:14:56.000Z</time>
      </trkpt>
      <trkpt lat="42.70919" lon="0.66741">
        <ele>1584.3</ele>
        <time>2018-08-08T12:14:57.000Z</time>
      </trkpt>
      <trkpt lat="42.70919" lon="0.66741">
        <ele>1584.4</ele>
        <time>2018-08-08T12:14:58.000Z</time>
      </trkpt>
      <trkpt lat="42.70919" lon="0.66741">
        <ele>1584.4</ele>
        <time>2018-08-08T12:14:59.000Z</time>
      </trkpt>
      <trkpt lat="42.70919" lon="0.6674">
        <ele>1584.4</ele>
        <time>2018-08-08T12:15:00.000Z</time>
      </trkpt>
      <trkpt lat="42.70919" lon="0.6674">
        <ele>1584.4</ele>
        <time>2018-08-08T12:15:01.000Z</time>
      </trkpt>
      <trkpt lat="42.70919" lon="0.6674">
        <ele>1584.4</ele>
        <time>2018-08-08T12:15:02.000Z</time>
      </trkpt>
      <trkpt lat="42.70919" lon="0.6674">
        <ele>1584.5</ele>
        <time>2018-08-08T12:15:03.000Z</time>
      </trkpt>
      <trkpt lat="42.70919" lon="0.6674">
        <ele>1584.5</ele>
        <time>2018-08-08T12:15:04.000Z</time>
      </trkpt>
      <trkpt lat="42.7092" lon="0.6674">
        <ele>1584.5</ele>
        <time>2018-08-08T12:15:05.000Z</time>
      </trkpt>
      <trkpt lat="42.7092" lon="0.6674">
        <ele>1584.5</ele>
        <time>2018-08-08T12:15:06.000Z</time>
      </trkpt>
      <trkpt lat="42.7092" lon="0.6674">
        <ele>1584.5</ele>
        <time>2018-08-08T12:15:07.000Z</time>
      </trkpt>
      <trkpt lat="42.7092" lon="0.6674">
        <ele>1584.5</ele>
        <time>2018-08-08T12:15:08.000Z</time>
      </trkpt>
      <trkpt lat="42.7092" lon="0.6674">
        <ele>1584.5</ele>
        <time>2018-08-08T12:15:09.000Z</time>
      </trkpt>
      <trkpt lat="42.7092" lon="0.6674">
        <ele>1584.5</ele>
        <time>2018-08-08T12:15:10.000Z</time>
      </trkpt>
      <trkpt lat="42.7092" lon="0.6674">
        <ele>1584.5</ele>
        <time>2018-08-08T12:15:11.000Z</time>
      </trkpt>
      <trkpt lat="42.7092" lon="0.6674">
        <ele>1584.5</ele>
        <time>2018-08-08T12:15:12.000Z</time>
      </trkpt>
      <trkpt lat="42.7092" lon="0.6674">
        <ele>1584.5</ele>
        <time>2018-08-08T12:15:13.000Z</time>
      </trkpt>
      <trkpt lat="42.7092" lon="0.6674">
        <ele>1584.5</ele>
        <time>2018-08-08T12:15:14.000Z</time>
      </trkpt>
      <trkpt lat="42.7092" lon="0.6674">
        <ele>1584.5</ele>
        <time>2018-08-08T12:15:15.000Z</time>
      </trkpt>
      <trkpt lat="42.7092" lon="0.6674">
        <ele>1584.5</ele>
        <time>2018-08-08T12:15:16.000Z</time>
      </trkpt>
      <trkpt lat="42.7092" lon="0.6674">
        <ele>1584.5</ele>
        <time>2018-08-08T12:15:17.000Z</time>
      </trkpt>
      <trkpt lat="42.7092" lon="0.6674">
        <ele>1584.5</ele>
        <time>2018-08-08T12:15:18.000Z</time>
      </trkpt>
      <trkpt lat="42.7092" lon="0.6674">
        <ele>1584.5</ele>
        <time>2018-08-08T12:15:19.000Z</time>
      </trkpt>
      <trkpt lat="42.7092" lon="0.6674">
        <ele>1584.5</ele>
        <time>2018-08-08T12:15:20.000Z</time>
      </trkpt>
      <trkpt lat="42.7092" lon="0.6674">
        <ele>1584.5</ele>
        <time>2018-08-08T12:15:21.000Z</time>
      </trkpt>
      <trkpt lat="42.7092" lon="0.6674">
        <ele>1584.5</ele>
        <time>2018-08-08T12:15:22.000Z</time>
      </trkpt>
      <trkpt lat="42.7092" lon="0.6674">
        <ele>1584.5</ele>
        <time>2018-08-08T12:15:23.000Z</time>
      </trkpt>
      <trkpt lat="42.7092" lon="0.6674">
        <ele>1584.5</ele>
        <time>2018-08-08T12:15:24.000Z</time>
      </trkpt>
      <trkpt lat="42.7092" lon="0.6674">
        <ele>1584.5</ele>
        <time>2018-08-08T12:15:25.000Z</time>
      </trkpt>
      <trkpt lat="42.7092" lon="0.6674">
        <ele>1584.5</ele>
        <time>2018-08-08T12:15:26.000Z</time>
      </trkpt>
      <trkpt lat="42.7092" lon="0.6674">
        <ele>1584.5</ele>
        <time>2018-08-08T12:15:27.000Z</time>
      </trkpt>
      <trkpt lat="42.7092" lon="0.6674">
        <ele>1584.5</ele>
        <time>2018-08-08T12:15:28.000Z</time>
      </trkpt>
      <trkpt lat="42.7092" lon="0.6674">
        <ele>1584.5</ele>
        <time>2018-08-08T12:15:29.000Z</time>
      </trkpt>
      <trkpt lat="42.7092" lon="0.6674">
        <ele>1584.5</ele>
        <time>2018-08-08T12:15:30.000Z</time>
      </trkpt>
      <trkpt lat="42.7092" lon="0.6674">
        <ele>1584.5</ele>
        <time>2018-08-08T12:15:31.000Z</time>
      </trkpt>
      <trkpt lat="42.7092" lon="0.6674">
        <ele>1584.5</ele>
        <time>2018-08-08T12:15:32.000Z</time>
      </trkpt>
      <trkpt lat="42.7092" lon="0.6674">
        <ele>1584.5</ele>
        <time>2018-08-08T12:15:33.000Z</time>
      </trkpt>
      <trkpt lat="42.7092" lon="0.6674">
        <ele>1584.5</ele>
        <time>2018-08-08T12:15:34.000Z</time>
      </trkpt>
      <trkpt lat="42.7092" lon="0.6674">
        <ele>1584.5</ele>
        <time>2018-08-08T12:15:35.000Z</time>
      </trkpt>
      <trkpt lat="42.7092" lon="0.6674">
        <ele>1584.5</ele>
        <time>2018-08-08T12:15:36.000Z</time>
      </trkpt>
      <trkpt lat="42.7092" lon="0.6674">
        <ele>1584.5</ele>
        <time>2018-08-08T12:15:37.000Z</time>
      </trkpt>
      <trkpt lat="42.7092" lon="0.6674">
        <ele>1584.5</ele>
        <time>2018-08-08T12:15:38.000Z</time>
      </trkpt>
      <trkpt lat="42.70919" lon="0.6674">
        <ele>1584.4</ele>
        <time>2018-08-08T12:15:39.000Z</time>
      </trkpt>
      <trkpt lat="42.70919" lon="0.6674">
        <ele>1584.4</ele>
        <time>2018-08-08T12:15:40.000Z</time>
      </trkpt>
      <trkpt lat="42.70919" lon="0.66741">
        <ele>1584.3</ele>
        <time>2018-08-08T12:15:41.000Z</time>
      </trkpt>
      <trkpt lat="42.70919" lon="0.66741">
        <ele>1584.3</ele>
        <time>2018-08-08T12:15:42.000Z</time>
      </trkpt>
      <trkpt lat="42.70919" lon="0.66741">
        <ele>1584.2</ele>
        <time>2018-08-08T12:15:43.000Z</time>
      </trkpt>
      <trkpt lat="42.70919" lon="0.66741">
        <ele>1584.1</ele>
        <time>2018-08-08T12:15:44.000Z</time>
      </trkpt>
      <trkpt lat="42.70919" lon="0.66742">
        <ele>1584.1</ele>
        <time>2018-08-08T12:15:45.000Z</time>
      </trkpt>
      <trkpt lat="42.70919" lon="0.66742">
        <ele>1584</ele>
        <time>2018-08-08T12:15:46.000Z</time>
      </trkpt>
      <trkpt lat="42.70918" lon="0.66742">
        <ele>1583.8</ele>
        <time>2018-08-08T12:15:47.000Z</time>
      </trkpt>
      <trkpt lat="42.70918" lon="0.66743">
        <ele>1583.7</ele>
        <time>2018-08-08T12:15:48.000Z</time>
      </trkpt>
      <trkpt lat="42.70918" lon="0.66743">
        <ele>1583.6</ele>
        <time>2018-08-08T12:15:49.000Z</time>
      </trkpt>
      <trkpt lat="42.70918" lon="0.66743">
        <ele>1583.5</ele>
        <time>2018-08-08T12:15:50.000Z</time>
      </trkpt>
      <trkpt lat="42.70917" lon="0.66744">
        <ele>1583.3</ele>
        <time>2018-08-08T12:15:51.000Z</time>
      </trkpt>
      <trkpt lat="42.70917" lon="0.66744">
        <ele>1583.2</ele>
        <time>2018-08-08T12:15:52.000Z</time>
      </trkpt>
      <trkpt lat="42.70917" lon="0.66745">
        <ele>1583.1</ele>
        <time>2018-08-08T12:15:53.000Z</time>
      </trkpt>
      <trkpt lat="42.70917" lon="0.66745">
        <ele>1583</ele>
        <time>2018-08-08T12:15:54.000Z</time>
      </trkpt>
      <trkpt lat="42.70916" lon="0.66745">
        <ele>1582.9</ele>
        <time>2018-08-08T12:15:55.000Z</time>
      </trkpt>
      <trkpt lat="42.70916" lon="0.66746">
        <ele>1582.8</ele>
        <time>2018-08-08T12:15:56.000Z</time>
      </trkpt>
      <trkpt lat="42.70916" lon="0.66746">
        <ele>1582.7</ele>
        <time>2018-08-08T12:15:57.000Z</time>
      </trkpt>
      <trkpt lat="42.70916" lon="0.66746">
        <ele>1582.6</ele>
        <time>2018-08-08T12:15:58.000Z</time>
      </trkpt>
      <trkpt lat="42.70916" lon="0.66747">
        <ele>1582.5</ele>
        <time>2018-08-08T12:15:59.000Z</time>
      </trkpt>
      <trkpt lat="42.70916" lon="0.66747">
        <ele>1582.5</ele>
        <time>2018-08-08T12:16:00.000Z</time>
      </trkpt>
      <trkpt lat="42.70915" lon="0.66747">
        <ele>1582.4</ele>
        <time>2018-08-08T12:16:01.000Z</time>
      </trkpt>
      <trkpt lat="42.70915" lon="0.66747">
        <ele>1582.4</ele>
        <time>2018-08-08T12:16:02.000Z</time>
      </trkpt>
      <trkpt lat="42.70915" lon="0.66747">
        <ele>1582.3</ele>
        <time>2018-08-08T12:16:03.000Z</time>
      </trkpt>
      <trkpt lat="42.70915" lon="0.66747">
        <ele>1582.3</ele>
        <time>2018-08-08T12:16:04.000Z</time>
      </trkpt>
      <trkpt lat="42.70915" lon="0.66747">
        <ele>1582.3</ele>
        <time>2018-08-08T12:16:05.000Z</time>
      </trkpt>
      <trkpt lat="42.70915" lon="0.66747">
        <ele>1582.3</ele>
        <time>2018-08-08T12:16:06.000Z</time>
      </trkpt>
      <trkpt lat="42.70915" lon="0.66748">
        <ele>1582.2</ele>
        <time>2018-08-08T12:16:07.000Z</time>
      </trkpt>
      <trkpt lat="42.70915" lon="0.66748">
        <ele>1582.2</ele>
        <time>2018-08-08T12:16:08.000Z</time>
      </trkpt>
      <trkpt lat="42.70915" lon="0.66748">
        <ele>1582.2</ele>
        <time>2018-08-08T12:16:09.000Z</time>
      </trkpt>
      <trkpt lat="42.70915" lon="0.66748">
        <ele>1582.2</ele>
        <time>2018-08-08T12:16:10.000Z</time>
      </trkpt>
      <trkpt lat="42.70915" lon="0.66748">
        <ele>1582.2</ele>
        <time>2018-08-08T12:16:11.000Z</time>
      </trkpt>
      <trkpt lat="42.70915" lon="0.66748">
        <ele>1582.2</ele>
        <time>2018-08-08T12:16:12.000Z</time>
      </trkpt>
      <trkpt lat="42.70915" lon="0.66748">
        <ele>1582.2</ele>
        <time>2018-08-08T12:16:13.000Z</time>
      </trkpt>
      <trkpt lat="42.70915" lon="0.66748">
        <ele>1582.2</ele>
        <time>2018-08-08T12:16:14.000Z</time>
      </trkpt>
      <trkpt lat="42.70915" lon="0.66748">
        <ele>1582.2</ele>
        <time>2018-08-08T12:16:15.000Z</time>
      </trkpt>
      <trkpt lat="42.70915" lon="0.66748">
        <ele>1582.2</ele>
        <time>2018-08-08T12:16:16.000Z</time>
      </trkpt>
      <trkpt lat="42.70915" lon="0.66748">
        <ele>1582.2</ele>
        <time>2018-08-08T12:16:17.000Z</time>
      </trkpt>
      <trkpt lat="42.70915" lon="0.66748">
        <ele>1582.2</ele>
        <time>2018-08-08T12:16:18.000Z</time>
      </trkpt>
      <trkpt lat="42.70915" lon="0.66748">
        <ele>1582.2</ele>
        <time>2018-08-08T12:16:19.000Z</time>
      </trkpt>
      <trkpt lat="42.70915" lon="0.66748">
        <ele>1582.2</ele>
        <time>2018-08-08T12:16:20.000Z</time>
      </trkpt>
      <trkpt lat="42.70915" lon="0.66748">
        <ele>1582.2</ele>
        <time>2018-08-08T12:16:21.000Z</time>
      </trkpt>
      <trkpt lat="42.70915" lon="0.66748">
        <ele>1582.2</ele>
        <time>2018-08-08T12:16:22.000Z</time>
      </trkpt>
      <trkpt lat="42.70915" lon="0.66748">
        <ele>1582.2</ele>
        <time>2018-08-08T12:16:23.000Z</time>
      </trkpt>
      <trkpt lat="42.70915" lon="0.66748">
        <ele>1582.2</ele>
        <time>2018-08-08T12:16:24.000Z</time>
      </trkpt>
      <trkpt lat="42.70915" lon="0.66748">
        <ele>1582.2</ele>
        <time>2018-08-08T12:16:25.000Z</time>
      </trkpt>
      <trkpt lat="42.70915" lon="0.66748">
        <ele>1582.2</ele>
        <time>2018-08-08T12:16:26.000Z</time>
      </trkpt>
      <trkpt lat="42.70915" lon="0.66748">
        <ele>1582.2</ele>
        <time>2018-08-08T12:16:27.000Z</time>
      </trkpt>
      <trkpt lat="42.70915" lon="0.66748">
        <ele>1582.2</ele>
        <time>2018-08-08T12:16:28.000Z</time>
      </trkpt>
      <trkpt lat="42.70915" lon="0.66748">
        <ele>1582.2</ele>
        <time>2018-08-08T12:16:29.000Z</time>
      </trkpt>
      <trkpt lat="42.70915" lon="0.66748">
        <ele>1582.2</ele>
        <time>2018-08-08T12:16:30.000Z</time>
      </trkpt>
      <trkpt lat="42.70915" lon="0.66748">
        <ele>1582.2</ele>
        <time>2018-08-08T12:16:31.000Z</time>
      </trkpt>
      <trkpt lat="42.70915" lon="0.66747">
        <ele>1582.3</ele>
        <time>2018-08-08T12:16:32.000Z</time>
      </trkpt>
      <trkpt lat="42.70915" lon="0.66747">
        <ele>1582.3</ele>
        <time>2018-08-08T12:16:33.000Z</time>
      </trkpt>
      <trkpt lat="42.70915" lon="0.66747">
        <ele>1582.3</ele>
        <time>2018-08-08T12:16:34.000Z</time>
      </trkpt>
      <trkpt lat="42.70915" lon="0.66747">
        <ele>1582.3</ele>
        <time>2018-08-08T12:16:35.000Z</time>
      </trkpt>
      <trkpt lat="42.70915" lon="0.66747">
        <ele>1582.3</ele>
        <time>2018-08-08T12:16:36.000Z</time>
      </trkpt>
      <trkpt lat="42.70915" lon="0.66747">
        <ele>1582.3</ele>
        <time>2018-08-08T12:16:37.000Z</time>
      </trkpt>
      <trkpt lat="42.70915" lon="0.66747">
        <ele>1582.3</ele>
        <time>2018-08-08T12:16:38.000Z</time>
      </trkpt>
      <trkpt lat="42.70915" lon="0.66747">
        <ele>1582.3</ele>
        <time>2018-08-08T12:16:39.000Z</time>
      </trkpt>
      <trkpt lat="42.70915" lon="0.66747">
        <ele>1582.3</ele>
        <time>2018-08-08T12:16:40.000Z</time>
      </trkpt>
      <trkpt lat="42.70915" lon="0.66747">
        <ele>1582.3</ele>
        <time>2018-08-08T12:16:41.000Z</time>
      </trkpt>
      <trkpt lat="42.70915" lon="0.66747">
        <ele>1582.3</ele>
        <time>2018-08-08T12:16:42.000Z</time>
      </trkpt>
      <trkpt lat="42.70915" lon="0.66747">
        <ele>1582.3</ele>
        <time>2018-08-08T12:16:43.000Z</time>
      </trkpt>
      <trkpt lat="42.70915" lon="0.66747">
        <ele>1582.3</ele>
        <time>2018-08-08T12:16:44.000Z</time>
      </trkpt>
      <trkpt lat="42.70915" lon="0.66747">
        <ele>1582.3</ele>
        <time>2018-08-08T12:16:45.000Z</time>
      </trkpt>
      <trkpt lat="42.70915" lon="0.66747">
        <ele>1582.3</ele>
        <time>2018-08-08T12:16:46.000Z</time>
      </trkpt>
      <trkpt lat="42.70915" lon="0.66747">
        <ele>1582.3</ele>
        <time>2018-08-08T12:16:47.000Z</time>
      </trkpt>
      <trkpt lat="42.70915" lon="0.66747">
        <ele>1582.3</ele>
        <time>2018-08-08T12:16:48.000Z</time>
      </trkpt>
      <trkpt lat="42.70915" lon="0.66747">
        <ele>1582.3</ele>
        <time>2018-08-08T12:16:49.000Z</time>
      </trkpt>
      <trkpt lat="42.70915" lon="0.66747">
        <ele>1582.3</ele>
        <time>2018-08-08T12:16:50.000Z</time>
      </trkpt>
      <trkpt lat="42.70915" lon="0.66747">
        <ele>1582.3</ele>
        <time>2018-08-08T12:16:51.000Z</time>
      </trkpt>
      <trkpt lat="42.70915" lon="0.66747">
        <ele>1582.3</ele>
        <time>2018-08-08T12:16:52.000Z</time>
      </trkpt>
      <trkpt lat="42.70915" lon="0.66747">
        <ele>1582.3</ele>
        <time>2018-08-08T12:16:53.000Z</time>
      </trkpt>
      <trkpt lat="42.70915" lon="0.66747">
        <ele>1582.3</ele>
        <time>2018-08-08T12:16:54.000Z</time>
      </trkpt>
      <trkpt lat="42.70915" lon="0.66747">
        <ele>1582.3</ele>
        <time>2018-08-08T12:16:55.000Z</time>
      </trkpt>
      <trkpt lat="42.70915" lon="0.66747">
        <ele>1582.3</ele>
        <time>2018-08-08T12:16:56.000Z</time>
      </trkpt>
      <trkpt lat="42.70915" lon="0.66747">
        <ele>1582.3</ele>
        <time>2018-08-08T12:16:57.000Z</time>
      </trkpt>
      <trkpt lat="42.70915" lon="0.66747">
        <ele>1582.3</ele>
        <time>2018-08-08T12:16:58.000Z</time>
      </trkpt>
      <trkpt lat="42.70915" lon="0.66747">
        <ele>1582.3</ele>
        <time>2018-08-08T12:16:59.000Z</time>
      </trkpt>
      <trkpt lat="42.70915" lon="0.66747">
        <ele>1582.3</ele>
        <time>2018-08-08T12:17:00.000Z</time>
      </trkpt>
      <trkpt lat="42.70915" lon="0.66747">
        <ele>1582.3</ele>
        <time>2018-08-08T12:17:01.000Z</time>
      </trkpt>
      <trkpt lat="42.70915" lon="0.66747">
        <ele>1582.3</ele>
        <time>2018-08-08T12:17:02.000Z</time>
      </trkpt>
      <trkpt lat="42.70915" lon="0.66747">
        <ele>1582.3</ele>
        <time>2018-08-08T12:17:03.000Z</time>
      </trkpt>
      <trkpt lat="42.70915" lon="0.66747">
        <ele>1582.3</ele>
        <time>2018-08-08T12:17:04.000Z</time>
      </trkpt>
      <trkpt lat="42.70915" lon="0.66747">
        <ele>1582.3</ele>
        <time>2018-08-08T12:17:05.000Z</time>
      </trkpt>
      <trkpt lat="42.70915" lon="0.66747">
        <ele>1582.3</ele>
        <time>2018-08-08T12:17:06.000Z</time>
      </trkpt>
      <trkpt lat="42.70915" lon="0.66747">
        <ele>1582.3</ele>
        <time>2018-08-08T12:17:07.000Z</time>
      </trkpt>
      <trkpt lat="42.70915" lon="0.66747">
        <ele>1582.3</ele>
        <time>2018-08-08T12:17:08.000Z</time>
      </trkpt>
      <trkpt lat="42.70915" lon="0.66747">
        <ele>1582.3</ele>
        <time>2018-08-08T12:17:09.000Z</time>
      </trkpt>
      <trkpt lat="42.70915" lon="0.66747">
        <ele>1582.3</ele>
        <time>2018-08-08T12:17:10.000Z</time>
      </trkpt>
      <trkpt lat="42.70915" lon="0.66747">
        <ele>1582.3</ele>
        <time>2018-08-08T12:17:11.000Z</time>
      </trkpt>
      <trkpt lat="42.70915" lon="0.66747">
        <ele>1582.3</ele>
        <time>2018-08-08T12:17:12.000Z</time>
      </trkpt>
      <trkpt lat="42.70915" lon="0.66747">
        <ele>1582.3</ele>
        <time>2018-08-08T12:17:13.000Z</time>
      </trkpt>
      <trkpt lat="42.70915" lon="0.66747">
        <ele>1582.3</ele>
        <time>2018-08-08T12:17:14.000Z</time>
      </trkpt>
      <trkpt lat="42.70915" lon="0.66747">
        <ele>1582.3</ele>
        <time>2018-08-08T12:17:15.000Z</time>
      </trkpt>
      <trkpt lat="42.70915" lon="0.66747">
        <ele>1582.3</ele>
        <time>2018-08-08T12:17:16.000Z</time>
      </trkpt>
      <trkpt lat="42.70915" lon="0.66747">
        <ele>1582.3</ele>
        <time>2018-08-08T12:17:17.000Z</time>
      </trkpt>
      <trkpt lat="42.70915" lon="0.66747">
        <ele>1582.3</ele>
        <time>2018-08-08T12:17:18.000Z</time>
      </trkpt>
      <trkpt lat="42.70915" lon="0.66747">
        <ele>1582.3</ele>
        <time>2018-08-08T12:17:19.000Z</time>
      </trkpt>
      <trkpt lat="42.70915" lon="0.66747">
        <ele>1582.3</ele>
        <time>2018-08-08T12:17:20.000Z</time>
      </trkpt>
      <trkpt lat="42.70915" lon="0.66747">
        <ele>1582.3</ele>
        <time>2018-08-08T12:17:21.000Z</time>
      </trkpt>
      <trkpt lat="42.70915" lon="0.66747">
        <ele>1582.3</ele>
        <time>2018-08-08T12:17:22.000Z</time>
      </trkpt>
      <trkpt lat="42.70915" lon="0.66747">
        <ele>1582.3</ele>
        <time>2018-08-08T12:17:23.000Z</time>
      </trkpt>
      <trkpt lat="42.70915" lon="0.66747">
        <ele>1582.3</ele>
        <time>2018-08-08T12:17:24.000Z</time>
      </trkpt>
      <trkpt lat="42.70915" lon="0.66747">
        <ele>1582.3</ele>
        <time>2018-08-08T12:17:25.000Z</time>
      </trkpt>
      <trkpt lat="42.70915" lon="0.66747">
        <ele>1582.3</ele>
        <time>2018-08-08T12:17:26.000Z</time>
      </trkpt>
      <trkpt lat="42.70915" lon="0.66747">
        <ele>1582.3</ele>
        <time>2018-08-08T12:17:27.000Z</time>
      </trkpt>
      <trkpt lat="42.70915" lon="0.66747">
        <ele>1582.3</ele>
        <time>2018-08-08T12:17:28.000Z</time>
      </trkpt>
      <trkpt lat="42.70915" lon="0.66747">
        <ele>1582.3</ele>
        <time>2018-08-08T12:17:29.000Z</time>
      </trkpt>
      <trkpt lat="42.70915" lon="0.66747">
        <ele>1582.3</ele>
        <time>2018-08-08T12:17:30.000Z</time>
      </trkpt>
      <trkpt lat="42.70915" lon="0.66747">
        <ele>1582.3</ele>
        <time>2018-08-08T12:17:31.000Z</time>
      </trkpt>
      <trkpt lat="42.70915" lon="0.66747">
        <ele>1582.3</ele>
        <time>2018-08-08T12:17:32.000Z</time>
      </trkpt>
      <trkpt lat="42.70915" lon="0.66747">
        <ele>1582.3</ele>
        <time>2018-08-08T12:17:33.000Z</time>
      </trkpt>
      <trkpt lat="42.70915" lon="0.66747">
        <ele>1582.3</ele>
        <time>2018-08-08T12:17:34.000Z</time>
      </trkpt>
      <trkpt lat="42.70915" lon="0.66747">
        <ele>1582.3</ele>
        <time>2018-08-08T12:17:35.000Z</time>
      </trkpt>
      <trkpt lat="42.70915" lon="0.66747">
        <ele>1582.3</ele>
        <time>2018-08-08T12:17:36.000Z</time>
      </trkpt>
      <trkpt lat="42.70915" lon="0.66747">
        <ele>1582.3</ele>
        <time>2018-08-08T12:17:37.000Z</time>
      </trkpt>
      <trkpt lat="42.70915" lon="0.66747">
        <ele>1582.3</ele>
        <time>2018-08-08T12:17:38.000Z</time>
      </trkpt>
      <trkpt lat="42.70915" lon="0.66747">
        <ele>1582.3</ele>
        <time>2018-08-08T12:17:39.000Z</time>
      </trkpt>
      <trkpt lat="42.70915" lon="0.66747">
        <ele>1582.4</ele>
        <time>2018-08-08T12:17:40.000Z</time>
      </trkpt>
      <trkpt lat="42.70915" lon="0.66747">
        <ele>1582.4</ele>
        <time>2018-08-08T12:17:41.000Z</time>
      </trkpt>
      <trkpt lat="42.70915" lon="0.66747">
        <ele>1582.4</ele>
        <time>2018-08-08T12:17:42.000Z</time>
      </trkpt>
      <trkpt lat="42.70915" lon="0.66747">
        <ele>1582.4</ele>
        <time>2018-08-08T12:17:43.000Z</time>
      </trkpt>
      <trkpt lat="42.70915" lon="0.66747">
        <ele>1582.4</ele>
        <time>2018-08-08T12:17:44.000Z</time>
      </trkpt>
      <trkpt lat="42.70915" lon="0.66747">
        <ele>1582.4</ele>
        <time>2018-08-08T12:17:45.000Z</time>
      </trkpt>
      <trkpt lat="42.70915" lon="0.66747">
        <ele>1582.4</ele>
        <time>2018-08-08T12:17:46.000Z</time>
      </trkpt>
      <trkpt lat="42.70915" lon="0.66747">
        <ele>1582.5</ele>
        <time>2018-08-08T12:17:47.000Z</time>
      </trkpt>
      <trkpt lat="42.70915" lon="0.66747">
        <ele>1582.5</ele>
        <time>2018-08-08T12:17:48.000Z</time>
      </trkpt>
      <trkpt lat="42.70915" lon="0.66747">
        <ele>1582.5</ele>
        <time>2018-08-08T12:17:49.000Z</time>
      </trkpt>
      <trkpt lat="42.70915" lon="0.66747">
        <ele>1582.5</ele>
        <time>2018-08-08T12:17:50.000Z</time>
      </trkpt>
      <trkpt lat="42.70915" lon="0.66747">
        <ele>1582.5</ele>
        <time>2018-08-08T12:17:51.000Z</time>
      </trkpt>
      <trkpt lat="42.70916" lon="0.66747">
        <ele>1582.5</ele>
        <time>2018-08-08T12:17:52.000Z</time>
      </trkpt>
      <trkpt lat="42.70916" lon="0.66746">
        <ele>1582.6</ele>
        <time>2018-08-08T12:17:53.000Z</time>
      </trkpt>
      <trkpt lat="42.70916" lon="0.66746">
        <ele>1582.6</ele>
        <time>2018-08-08T12:17:54.000Z</time>
      </trkpt>
      <trkpt lat="42.70916" lon="0.66746">
        <ele>1582.6</ele>
        <time>2018-08-08T12:17:55.000Z</time>
      </trkpt>
      <trkpt lat="42.70916" lon="0.66746">
        <ele>1582.6</ele>
        <time>2018-08-08T12:17:56.000Z</time>
      </trkpt>
      <trkpt lat="42.70916" lon="0.66746">
        <ele>1582.7</ele>
        <time>2018-08-08T12:17:57.000Z</time>
      </trkpt>
      <trkpt lat="42.70916" lon="0.66746">
        <ele>1582.7</ele>
        <time>2018-08-08T12:17:58.000Z</time>
      </trkpt>
      <trkpt lat="42.70916" lon="0.66746">
        <ele>1582.7</ele>
        <time>2018-08-08T12:17:59.000Z</time>
      </trkpt>
      <trkpt lat="42.70916" lon="0.66746">
        <ele>1582.8</ele>
        <time>2018-08-08T12:18:00.000Z</time>
      </trkpt>
      <trkpt lat="42.70916" lon="0.66746">
        <ele>1582.8</ele>
        <time>2018-08-08T12:18:01.000Z</time>
      </trkpt>
      <trkpt lat="42.70916" lon="0.66746">
        <ele>1582.8</ele>
        <time>2018-08-08T12:18:02.000Z</time>
      </trkpt>
      <trkpt lat="42.70916" lon="0.66746">
        <ele>1582.8</ele>
        <time>2018-08-08T12:18:03.000Z</time>
      </trkpt>
      <trkpt lat="42.70916" lon="0.66745">
        <ele>1582.9</ele>
        <time>2018-08-08T12:18:04.000Z</time>
      </trkpt>
      <trkpt lat="42.70916" lon="0.66745">
        <ele>1582.9</ele>
        <time>2018-08-08T12:18:05.000Z</time>
      </trkpt>
      <trkpt lat="42.70916" lon="0.66745">
        <ele>1582.9</ele>
        <time>2018-08-08T12:18:06.000Z</time>
      </trkpt>
      <trkpt lat="42.70916" lon="0.66745">
        <ele>1583</ele>
        <time>2018-08-08T12:18:07.000Z</time>
      </trkpt>
      <trkpt lat="42.70916" lon="0.66745">
        <ele>1583</ele>
        <time>2018-08-08T12:18:08.000Z</time>
      </trkpt>
      <trkpt lat="42.70916" lon="0.66745">
        <ele>1583</ele>
        <time>2018-08-08T12:18:09.000Z</time>
      </trkpt>
      <trkpt lat="42.70916" lon="0.66745">
        <ele>1583.1</ele>
        <time>2018-08-08T12:18:10.000Z</time>
      </trkpt>
      <trkpt lat="42.70916" lon="0.66745">
        <ele>1583.1</ele>
        <time>2018-08-08T12:18:11.000Z</time>
      </trkpt>
      <trkpt lat="42.70917" lon="0.66745">
        <ele>1583.1</ele>
        <time>2018-08-08T12:18:12.000Z</time>
      </trkpt>
      <trkpt lat="42.70917" lon="0.66744">
        <ele>1583.2</ele>
        <time>2018-08-08T12:18:13.000Z</time>
      </trkpt>
      <trkpt lat="42.70917" lon="0.66744">
        <ele>1583.2</ele>
        <time>2018-08-08T12:18:14.000Z</time>
      </trkpt>
      <trkpt lat="42.70917" lon="0.66744">
        <ele>1583.2</ele>
        <time>2018-08-08T12:18:15.000Z</time>
      </trkpt>
      <trkpt lat="42.70917" lon="0.66744">
        <ele>1583.3</ele>
        <time>2018-08-08T12:18:16.000Z</time>
      </trkpt>
      <trkpt lat="42.70917" lon="0.66744">
        <ele>1583.3</ele>
        <time>2018-08-08T12:18:17.000Z</time>
      </trkpt>
      <trkpt lat="42.70917" lon="0.66744">
        <ele>1583.3</ele>
        <time>2018-08-08T12:18:18.000Z</time>
      </trkpt>
      <trkpt lat="42.70917" lon="0.66744">
        <ele>1583.4</ele>
        <time>2018-08-08T12:18:19.000Z</time>
      </trkpt>
      <trkpt lat="42.70917" lon="0.66744">
        <ele>1583.4</ele>
        <time>2018-08-08T12:18:20.000Z</time>
      </trkpt>
      <trkpt lat="42.70917" lon="0.66744">
        <ele>1583.4</ele>
        <time>2018-08-08T12:18:21.000Z</time>
      </trkpt>
      <trkpt lat="42.70917" lon="0.66744">
        <ele>1583.5</ele>
        <time>2018-08-08T12:18:22.000Z</time>
      </trkpt>
      <trkpt lat="42.70917" lon="0.66743">
        <ele>1583.5</ele>
        <time>2018-08-08T12:18:23.000Z</time>
      </trkpt>
      <trkpt lat="42.70917" lon="0.66743">
        <ele>1583.5</ele>
        <time>2018-08-08T12:18:24.000Z</time>
      </trkpt>
      <trkpt lat="42.70917" lon="0.66743">
        <ele>1583.6</ele>
        <time>2018-08-08T12:18:25.000Z</time>
      </trkpt>
      <trkpt lat="42.70917" lon="0.66743">
        <ele>1583.6</ele>
        <time>2018-08-08T12:18:26.000Z</time>
      </trkpt>
      <trkpt lat="42.70917" lon="0.66743">
        <ele>1583.6</ele>
        <time>2018-08-08T12:18:27.000Z</time>
      </trkpt>
      <trkpt lat="42.70917" lon="0.66743">
        <ele>1583.7</ele>
        <time>2018-08-08T12:18:28.000Z</time>
      </trkpt>
      <trkpt lat="42.70917" lon="0.66743">
        <ele>1583.7</ele>
        <time>2018-08-08T12:18:29.000Z</time>
      </trkpt>
      <trkpt lat="42.70917" lon="0.66743">
        <ele>1583.7</ele>
        <time>2018-08-08T12:18:30.000Z</time>
      </trkpt>
      <trkpt lat="42.70917" lon="0.66743">
        <ele>1583.7</ele>
        <time>2018-08-08T12:18:31.000Z</time>
      </trkpt>
      <trkpt lat="42.70917" lon="0.66743">
        <ele>1583.8</ele>
        <time>2018-08-08T12:18:32.000Z</time>
      </trkpt>
      <trkpt lat="42.70917" lon="0.66743">
        <ele>1583.8</ele>
        <time>2018-08-08T12:18:33.000Z</time>
      </trkpt>
      <trkpt lat="42.70918" lon="0.66743">
        <ele>1583.8</ele>
        <time>2018-08-08T12:18:34.000Z</time>
      </trkpt>
      <trkpt lat="42.70918" lon="0.66742">
        <ele>1583.8</ele>
        <time>2018-08-08T12:18:35.000Z</time>
      </trkpt>
      <trkpt lat="42.70918" lon="0.66742">
        <ele>1583.8</ele>
        <time>2018-08-08T12:18:36.000Z</time>
      </trkpt>
      <trkpt lat="42.70918" lon="0.66742">
        <ele>1583.8</ele>
        <time>2018-08-08T12:18:37.000Z</time>
      </trkpt>
      <trkpt lat="42.70918" lon="0.66742">
        <ele>1583.9</ele>
        <time>2018-08-08T12:18:38.000Z</time>
      </trkpt>
      <trkpt lat="42.70918" lon="0.66742">
        <ele>1583.9</ele>
        <time>2018-08-08T12:18:39.000Z</time>
      </trkpt>
      <trkpt lat="42.70918" lon="0.66742">
        <ele>1583.9</ele>
        <time>2018-08-08T12:18:40.000Z</time>
      </trkpt>
      <trkpt lat="42.70918" lon="0.66742">
        <ele>1583.9</ele>
        <time>2018-08-08T12:18:41.000Z</time>
      </trkpt>
      <trkpt lat="42.70918" lon="0.66742">
        <ele>1583.9</ele>
        <time>2018-08-08T12:18:42.000Z</time>
      </trkpt>
      <trkpt lat="42.70918" lon="0.66742">
        <ele>1583.9</ele>
        <time>2018-08-08T12:18:43.000Z</time>
      </trkpt>
      <trkpt lat="42.70918" lon="0.66742">
        <ele>1583.9</ele>
        <time>2018-08-08T12:18:44.000Z</time>
      </trkpt>
      <trkpt lat="42.70918" lon="0.66742">
        <ele>1583.9</ele>
        <time>2018-08-08T12:18:45.000Z</time>
      </trkpt>
      <trkpt lat="42.70918" lon="0.66742">
        <ele>1583.9</ele>
        <time>2018-08-08T12:18:46.000Z</time>
      </trkpt>
      <trkpt lat="42.70918" lon="0.66742">
        <ele>1583.9</ele>
        <time>2018-08-08T12:18:47.000Z</time>
      </trkpt>
      <trkpt lat="42.70918" lon="0.66742">
        <ele>1583.9</ele>
        <time>2018-08-08T12:18:48.000Z</time>
      </trkpt>
      <trkpt lat="42.70918" lon="0.66742">
        <ele>1583.9</ele>
        <time>2018-08-08T12:18:49.000Z</time>
      </trkpt>
      <trkpt lat="42.70918" lon="0.66742">
        <ele>1583.8</ele>
        <time>2018-08-08T12:18:50.000Z</time>
      </trkpt>
      <trkpt lat="42.70918" lon="0.66742">
        <ele>1583.8</ele>
        <time>2018-08-08T12:18:51.000Z</time>
      </trkpt>
      <trkpt lat="42.70918" lon="0.66743">
        <ele>1583.8</ele>
        <time>2018-08-08T12:18:52.000Z</time>
      </trkpt>
      <trkpt lat="42.70917" lon="0.66743">
        <ele>1583.8</ele>
        <time>2018-08-08T12:18:53.000Z</time>
      </trkpt>
      <trkpt lat="42.70917" lon="0.66743">
        <ele>1583.8</ele>
        <time>2018-08-08T12:18:54.000Z</time>
      </trkpt>
      <trkpt lat="42.70917" lon="0.66743">
        <ele>1583.8</ele>
        <time>2018-08-08T12:18:55.000Z</time>
      </trkpt>
      <trkpt lat="42.70917" lon="0.66742">
        <ele>1583.9</ele>
        <time>2018-08-08T12:18:56.000Z</time>
      </trkpt>
      <trkpt lat="42.70916" lon="0.66742">
        <ele>1584</ele>
        <time>2018-08-08T12:18:57.000Z</time>
      </trkpt>
      <trkpt lat="42.70916" lon="0.66742">
        <ele>1584.1</ele>
        <time>2018-08-08T12:18:58.000Z</time>
      </trkpt>
      <trkpt lat="42.70915" lon="0.66742">
        <ele>1584.4</ele>
        <time>2018-08-08T12:18:59.000Z</time>
      </trkpt>
      <trkpt lat="42.70915" lon="0.66742">
        <ele>1584.6</ele>
        <time>2018-08-08T12:19:00.000Z</time>
      </trkpt>
      <trkpt lat="42.70914" lon="0.66741">
        <ele>1584.9</ele>
        <time>2018-08-08T12:19:01.000Z</time>
      </trkpt>
      <trkpt lat="42.70913" lon="0.66741">
        <ele>1585.1</ele>
        <time>2018-08-08T12:19:02.000Z</time>
      </trkpt>
      <trkpt lat="42.70912" lon="0.66741">
        <ele>1585.4</ele>
        <time>2018-08-08T12:19:03.000Z</time>
      </trkpt>
      <trkpt lat="42.70911" lon="0.6674">
        <ele>1585.7</ele>
        <time>2018-08-08T12:19:04.000Z</time>
      </trkpt>
      <trkpt lat="42.70911" lon="0.6674">
        <ele>1586</ele>
        <time>2018-08-08T12:19:05.000Z</time>
      </trkpt>
      <trkpt lat="42.7091" lon="0.6674">
        <ele>1586.2</ele>
        <time>2018-08-08T12:19:06.000Z</time>
      </trkpt>
      <trkpt lat="42.7091" lon="0.6674">
        <ele>1586.3</ele>
        <time>2018-08-08T12:19:07.000Z</time>
      </trkpt>
      <trkpt lat="42.70909" lon="0.66739">
        <ele>1586.5</ele>
        <time>2018-08-08T12:19:08.000Z</time>
      </trkpt>
      <trkpt lat="42.70909" lon="0.66739">
        <ele>1586.6</ele>
        <time>2018-08-08T12:19:09.000Z</time>
      </trkpt>
      <trkpt lat="42.70908" lon="0.66739">
        <ele>1586.7</ele>
        <time>2018-08-08T12:19:10.000Z</time>
      </trkpt>
      <trkpt lat="42.70908" lon="0.66739">
        <ele>1586.8</ele>
        <time>2018-08-08T12:19:11.000Z</time>
      </trkpt>
      <trkpt lat="42.70908" lon="0.66739">
        <ele>1586.8</ele>
        <time>2018-08-08T12:19:12.000Z</time>
      </trkpt>
      <trkpt lat="42.70908" lon="0.66739">
        <ele>1586.9</ele>
        <time>2018-08-08T12:19:13.000Z</time>
      </trkpt>
      <trkpt lat="42.70908" lon="0.66739">
        <ele>1586.9</ele>
        <time>2018-08-08T12:19:14.000Z</time>
      </trkpt>
      <trkpt lat="42.70908" lon="0.66739">
        <ele>1587</ele>
        <time>2018-08-08T12:19:15.000Z</time>
      </trkpt>
      <trkpt lat="42.70908" lon="0.66739">
        <ele>1587</ele>
        <time>2018-08-08T12:19:16.000Z</time>
      </trkpt>
      <trkpt lat="42.70908" lon="0.66739">
        <ele>1587</ele>
        <time>2018-08-08T12:19:17.000Z</time>
      </trkpt>
      <trkpt lat="42.70908" lon="0.66739">
        <ele>1587</ele>
        <time>2018-08-08T12:19:18.000Z</time>
      </trkpt>
      <trkpt lat="42.70908" lon="0.66739">
        <ele>1587</ele>
        <time>2018-08-08T12:19:19.000Z</time>
      </trkpt>
      <trkpt lat="42.70908" lon="0.66739">
        <ele>1587</ele>
        <time>2018-08-08T12:19:20.000Z</time>
      </trkpt>
      <trkpt lat="42.70908" lon="0.66739">
        <ele>1587</ele>
        <time>2018-08-08T12:19:21.000Z</time>
      </trkpt>
      <trkpt lat="42.70908" lon="0.66739">
        <ele>1587</ele>
        <time>2018-08-08T12:19:22.000Z</time>
      </trkpt>
      <trkpt lat="42.70908" lon="0.66739">
        <ele>1587</ele>
        <time>2018-08-08T12:19:23.000Z</time>
      </trkpt>
      <trkpt lat="42.70908" lon="0.66739">
        <ele>1587</ele>
        <time>2018-08-08T12:19:24.000Z</time>
      </trkpt>
      <trkpt lat="42.70908" lon="0.66739">
        <ele>1587</ele>
        <time>2018-08-08T12:19:25.000Z</time>
      </trkpt>
      <trkpt lat="42.70908" lon="0.66739">
        <ele>1587</ele>
        <time>2018-08-08T12:19:26.000Z</time>
      </trkpt>
      <trkpt lat="42.70908" lon="0.66739">
        <ele>1587.1</ele>
        <time>2018-08-08T12:19:27.000Z</time>
      </trkpt>
      <trkpt lat="42.70908" lon="0.66739">
        <ele>1587.1</ele>
        <time>2018-08-08T12:19:28.000Z</time>
      </trkpt>
      <trkpt lat="42.70908" lon="0.66739">
        <ele>1587.1</ele>
        <time>2018-08-08T12:19:29.000Z</time>
      </trkpt>
      <trkpt lat="42.70908" lon="0.66739">
        <ele>1587.1</ele>
        <time>2018-08-08T12:19:30.000Z</time>
      </trkpt>
      <trkpt lat="42.70908" lon="0.66738">
        <ele>1587.2</ele>
        <time>2018-08-08T12:19:31.000Z</time>
      </trkpt>
      <trkpt lat="42.70908" lon="0.66738">
        <ele>1587.2</ele>
        <time>2018-08-08T12:19:32.000Z</time>
      </trkpt>
      <trkpt lat="42.70908" lon="0.66738">
        <ele>1587.2</ele>
        <time>2018-08-08T12:19:33.000Z</time>
      </trkpt>
      <trkpt lat="42.70908" lon="0.66738">
        <ele>1587.2</ele>
        <time>2018-08-08T12:19:34.000Z</time>
      </trkpt>
      <trkpt lat="42.70908" lon="0.66738">
        <ele>1587.3</ele>
        <time>2018-08-08T12:19:35.000Z</time>
      </trkpt>
      <trkpt lat="42.70908" lon="0.66738">
        <ele>1587.3</ele>
        <time>2018-08-08T12:19:36.000Z</time>
      </trkpt>
      <trkpt lat="42.70908" lon="0.66738">
        <ele>1587.3</ele>
        <time>2018-08-08T12:19:37.000Z</time>
      </trkpt>
      <trkpt lat="42.70908" lon="0.66738">
        <ele>1587.4</ele>
        <time>2018-08-08T12:19:38.000Z</time>
      </trkpt>
      <trkpt lat="42.70908" lon="0.66738">
        <ele>1587.4</ele>
        <time>2018-08-08T12:19:39.000Z</time>
      </trkpt>
      <trkpt lat="42.70908" lon="0.66738">
        <ele>1587.4</ele>
        <time>2018-08-08T12:19:40.000Z</time>
      </trkpt>
      <trkpt lat="42.70908" lon="0.66738">
        <ele>1587.4</ele>
        <time>2018-08-08T12:19:41.000Z</time>
      </trkpt>
      <trkpt lat="42.70908" lon="0.66738">
        <ele>1587.5</ele>
        <time>2018-08-08T12:19:42.000Z</time>
      </trkpt>
      <trkpt lat="42.70908" lon="0.66738">
        <ele>1587.5</ele>
        <time>2018-08-08T12:19:43.000Z</time>
      </trkpt>
      <trkpt lat="42.70908" lon="0.66737">
        <ele>1587.5</ele>
        <time>2018-08-08T12:19:44.000Z</time>
      </trkpt>
      <trkpt lat="42.70908" lon="0.66737">
        <ele>1587.6</ele>
        <time>2018-08-08T12:19:45.000Z</time>
      </trkpt>
      <trkpt lat="42.70908" lon="0.66737">
        <ele>1587.6</ele>
        <time>2018-08-08T12:19:46.000Z</time>
      </trkpt>
      <trkpt lat="42.70908" lon="0.66737">
        <ele>1587.6</ele>
        <time>2018-08-08T12:19:47.000Z</time>
      </trkpt>
      <trkpt lat="42.70908" lon="0.66737">
        <ele>1587.6</ele>
        <time>2018-08-08T12:19:48.000Z</time>
      </trkpt>
      <trkpt lat="42.70908" lon="0.66737">
        <ele>1587.6</ele>
        <time>2018-08-08T12:19:49.000Z</time>
      </trkpt>
      <trkpt lat="42.70908" lon="0.66737">
        <ele>1587.6</ele>
        <time>2018-08-08T12:19:50.000Z</time>
      </trkpt>
      <trkpt lat="42.70908" lon="0.66737">
        <ele>1587.6</ele>
        <time>2018-08-08T12:19:51.000Z</time>
      </trkpt>
      <trkpt lat="42.70908" lon="0.66737">
        <ele>1587.6</ele>
        <time>2018-08-08T12:19:52.000Z</time>
      </trkpt>
      <trkpt lat="42.70908" lon="0.66737">
        <ele>1587.6</ele>
        <time>2018-08-08T12:19:53.000Z</time>
      </trkpt>
      <trkpt lat="42.70908" lon="0.66737">
        <ele>1587.7</ele>
        <time>2018-08-08T12:19:54.000Z</time>
      </trkpt>
      <trkpt lat="42.70908" lon="0.66737">
        <ele>1587.7</ele>
        <time>2018-08-08T12:19:55.000Z</time>
      </trkpt>
      <trkpt lat="42.70908" lon="0.66737">
        <ele>1587.7</ele>
        <time>2018-08-08T12:19:56.000Z</time>
      </trkpt>
      <trkpt lat="42.70908" lon="0.66737">
        <ele>1587.7</ele>
        <time>2018-08-08T12:19:57.000Z</time>
      </trkpt>
      <trkpt lat="42.70908" lon="0.66737">
        <ele>1587.6</ele>
        <time>2018-08-08T12:19:58.000Z</time>
      </trkpt>
      <trkpt lat="42.70908" lon="0.66737">
        <ele>1587.6</ele>
        <time>2018-08-08T12:19:59.000Z</time>
      </trkpt>
      <trkpt lat="42.70908" lon="0.66737">
        <ele>1587.6</ele>
        <time>2018-08-08T12:20:00.000Z</time>
      </trkpt>
      <trkpt lat="42.70908" lon="0.66737">
        <ele>1587.6</ele>
        <time>2018-08-08T12:20:01.000Z</time>
      </trkpt>
      <trkpt lat="42.70908" lon="0.66737">
        <ele>1587.6</ele>
        <time>2018-08-08T12:20:02.000Z</time>
      </trkpt>
      <trkpt lat="42.70908" lon="0.66737">
        <ele>1587.6</ele>
        <time>2018-08-08T12:20:03.000Z</time>
      </trkpt>
      <trkpt lat="42.70908" lon="0.66737">
        <ele>1587.6</ele>
        <time>2018-08-08T12:20:04.000Z</time>
      </trkpt>
      <trkpt lat="42.70908" lon="0.66737">
        <ele>1587.6</ele>
        <time>2018-08-08T12:20:05.000Z</time>
      </trkpt>
      <trkpt lat="42.70908" lon="0.66737">
        <ele>1587.6</ele>
        <time>2018-08-08T12:20:06.000Z</time>
      </trkpt>
      <trkpt lat="42.70908" lon="0.66737">
        <ele>1587.6</ele>
        <time>2018-08-08T12:20:07.000Z</time>
      </trkpt>
      <trkpt lat="42.70908" lon="0.66737">
        <ele>1587.6</ele>
        <time>2018-08-08T12:20:08.000Z</time>
      </trkpt>
      <trkpt lat="42.70908" lon="0.66737">
        <ele>1587.6</ele>
        <time>2018-08-08T12:20:09.000Z</time>
      </trkpt>
      <trkpt lat="42.70908" lon="0.66737">
        <ele>1587.6</ele>
        <time>2018-08-08T12:20:10.000Z</time>
      </trkpt>
      <trkpt lat="42.70908" lon="0.66737">
        <ele>1587.6</ele>
        <time>2018-08-08T12:20:11.000Z</time>
      </trkpt>
      <trkpt lat="42.70908" lon="0.66737">
        <ele>1587.6</ele>
        <time>2018-08-08T12:20:12.000Z</time>
      </trkpt>
      <trkpt lat="42.70908" lon="0.66737">
        <ele>1587.6</ele>
        <time>2018-08-08T12:20:13.000Z</time>
      </trkpt>
      <trkpt lat="42.70908" lon="0.66737">
        <ele>1587.6</ele>
        <time>2018-08-08T12:20:14.000Z</time>
      </trkpt>
      <trkpt lat="42.70908" lon="0.66737">
        <ele>1587.6</ele>
        <time>2018-08-08T12:20:15.000Z</time>
      </trkpt>
      <trkpt lat="42.70908" lon="0.66737">
        <ele>1587.6</ele>
        <time>2018-08-08T12:20:16.000Z</time>
      </trkpt>
      <trkpt lat="42.70908" lon="0.66737">
        <ele>1587.6</ele>
        <time>2018-08-08T12:20:17.000Z</time>
      </trkpt>
      <trkpt lat="42.70908" lon="0.66737">
        <ele>1587.6</ele>
        <time>2018-08-08T12:20:18.000Z</time>
      </trkpt>
      <trkpt lat="42.70908" lon="0.66737">
        <ele>1587.6</ele>
        <time>2018-08-08T12:20:19.000Z</time>
      </trkpt>
      <trkpt lat="42.70908" lon="0.66737">
        <ele>1587.6</ele>
        <time>2018-08-08T12:20:20.000Z</time>
      </trkpt>
      <trkpt lat="42.70908" lon="0.66737">
        <ele>1587.6</ele>
        <time>2018-08-08T12:20:21.000Z</time>
      </trkpt>
      <trkpt lat="42.70908" lon="0.66737">
        <ele>1587.6</ele>
        <time>2018-08-08T12:20:22.000Z</time>
      </trkpt>
      <trkpt lat="42.70908" lon="0.66737">
        <ele>1587.6</ele>
        <time>2018-08-08T12:20:23.000Z</time>
      </trkpt>
      <trkpt lat="42.70908" lon="0.66737">
        <ele>1587.6</ele>
        <time>2018-08-08T12:20:24.000Z</time>
      </trkpt>
      <trkpt lat="42.70908" lon="0.66737">
        <ele>1587.7</ele>
        <time>2018-08-08T12:20:25.000Z</time>
      </trkpt>
      <trkpt lat="42.70908" lon="0.66737">
        <ele>1587.7</ele>
        <time>2018-08-08T12:20:26.000Z</time>
      </trkpt>
      <trkpt lat="42.70908" lon="0.66737">
        <ele>1587.7</ele>
        <time>2018-08-08T12:20:27.000Z</time>
      </trkpt>
      <trkpt lat="42.70908" lon="0.66737">
        <ele>1587.7</ele>
        <time>2018-08-08T12:20:28.000Z</time>
      </trkpt>
      <trkpt lat="42.70909" lon="0.66737">
        <ele>1587.8</ele>
        <time>2018-08-08T12:20:29.000Z</time>
      </trkpt>
      <trkpt lat="42.70909" lon="0.66737">
        <ele>1587.8</ele>
        <time>2018-08-08T12:20:30.000Z</time>
      </trkpt>
      <trkpt lat="42.70909" lon="0.66736">
        <ele>1587.8</ele>
        <time>2018-08-08T12:20:31.000Z</time>
      </trkpt>
      <trkpt lat="42.70909" lon="0.66736">
        <ele>1587.9</ele>
        <time>2018-08-08T12:20:32.000Z</time>
      </trkpt>
      <trkpt lat="42.70909" lon="0.66736">
        <ele>1588</ele>
        <time>2018-08-08T12:20:33.000Z</time>
      </trkpt>
      <trkpt lat="42.70909" lon="0.66736">
        <ele>1588.1</ele>
        <time>2018-08-08T12:20:34.000Z</time>
      </trkpt>
      <trkpt lat="42.70909" lon="0.66736">
        <ele>1588.1</ele>
        <time>2018-08-08T12:20:35.000Z</time>
      </trkpt>
      <trkpt lat="42.70909" lon="0.66735">
        <ele>1588.1</ele>
        <time>2018-08-08T12:20:36.000Z</time>
      </trkpt>
      <trkpt lat="42.70909" lon="0.66735">
        <ele>1588.1</ele>
        <time>2018-08-08T12:20:37.000Z</time>
      </trkpt>
      <trkpt lat="42.70909" lon="0.66735">
        <ele>1588.1</ele>
        <time>2018-08-08T12:20:38.000Z</time>
      </trkpt>
      <trkpt lat="42.70909" lon="0.66735">
        <ele>1588.1</ele>
        <time>2018-08-08T12:20:39.000Z</time>
      </trkpt>
      <trkpt lat="42.70909" lon="0.66735">
        <ele>1588.1</ele>
        <time>2018-08-08T12:20:40.000Z</time>
      </trkpt>
      <trkpt lat="42.70909" lon="0.66735">
        <ele>1588.1</ele>
        <time>2018-08-08T12:20:41.000Z</time>
      </trkpt>
      <trkpt lat="42.70909" lon="0.66735">
        <ele>1588.1</ele>
        <time>2018-08-08T12:20:42.000Z</time>
      </trkpt>
      <trkpt lat="42.70909" lon="0.66735">
        <ele>1588.1</ele>
        <time>2018-08-08T12:20:43.000Z</time>
      </trkpt>
      <trkpt lat="42.70909" lon="0.66735">
        <ele>1588.1</ele>
        <time>2018-08-08T12:20:44.000Z</time>
      </trkpt>
      <trkpt lat="42.70909" lon="0.66735">
        <ele>1588.1</ele>
        <time>2018-08-08T12:20:45.000Z</time>
      </trkpt>
      <trkpt lat="42.70909" lon="0.66735">
        <ele>1588.1</ele>
        <time>2018-08-08T12:20:46.000Z</time>
      </trkpt>
      <trkpt lat="42.70909" lon="0.66735">
        <ele>1588.1</ele>
        <time>2018-08-08T12:20:47.000Z</time>
      </trkpt>
      <trkpt lat="42.70909" lon="0.66735">
        <ele>1588.1</ele>
        <time>2018-08-08T12:20:48.000Z</time>
      </trkpt>
      <trkpt lat="42.70909" lon="0.66735">
        <ele>1588.1</ele>
        <time>2018-08-08T12:20:49.000Z</time>
      </trkpt>
      <trkpt lat="42.70909" lon="0.66735">
        <ele>1588.1</ele>
        <time>2018-08-08T12:20:50.000Z</time>
      </trkpt>
      <trkpt lat="42.70909" lon="0.66735">
        <ele>1588.1</ele>
        <time>2018-08-08T12:20:51.000Z</time>
      </trkpt>
      <trkpt lat="42.70909" lon="0.66735">
        <ele>1588.1</ele>
        <time>2018-08-08T12:20:52.000Z</time>
      </trkpt>
      <trkpt lat="42.70909" lon="0.66735">
        <ele>1588.1</ele>
        <time>2018-08-08T12:20:53.000Z</time>
      </trkpt>
      <trkpt lat="42.70909" lon="0.66735">
        <ele>1588.1</ele>
        <time>2018-08-08T12:20:54.000Z</time>
      </trkpt>
      <trkpt lat="42.70909" lon="0.66735">
        <ele>1588.1</ele>
        <time>2018-08-08T12:20:55.000Z</time>
      </trkpt>
      <trkpt lat="42.70909" lon="0.66736">
        <ele>1588.1</ele>
        <time>2018-08-08T12:20:56.000Z</time>
      </trkpt>
      <trkpt lat="42.70909" lon="0.66736">
        <ele>1588.1</ele>
        <time>2018-08-08T12:20:57.000Z</time>
      </trkpt>
      <trkpt lat="42.70909" lon="0.66736">
        <ele>1588</ele>
        <time>2018-08-08T12:20:58.000Z</time>
      </trkpt>
      <trkpt lat="42.70909" lon="0.66736">
        <ele>1588</ele>
        <time>2018-08-08T12:20:59.000Z</time>
      </trkpt>
      <trkpt lat="42.70909" lon="0.66736">
        <ele>1587.9</ele>
        <time>2018-08-08T12:21:00.000Z</time>
      </trkpt>
      <trkpt lat="42.70909" lon="0.66736">
        <ele>1587.9</ele>
        <time>2018-08-08T12:21:01.000Z</time>
      </trkpt>
      <trkpt lat="42.70909" lon="0.66736">
        <ele>1587.9</ele>
        <time>2018-08-08T12:21:02.000Z</time>
      </trkpt>
      <trkpt lat="42.70909" lon="0.66736">
        <ele>1587.8</ele>
        <time>2018-08-08T12:21:03.000Z</time>
      </trkpt>
      <trkpt lat="42.70909" lon="0.66736">
        <ele>1587.7</ele>
        <time>2018-08-08T12:21:04.000Z</time>
      </trkpt>
      <trkpt lat="42.70909" lon="0.66736">
        <ele>1587.7</ele>
        <time>2018-08-08T12:21:05.000Z</time>
      </trkpt>
      <trkpt lat="42.70909" lon="0.66737">
        <ele>1587.6</ele>
        <time>2018-08-08T12:21:06.000Z</time>
      </trkpt>
      <trkpt lat="42.70909" lon="0.66737">
        <ele>1587.6</ele>
        <time>2018-08-08T12:21:07.000Z</time>
      </trkpt>
      <trkpt lat="42.70909" lon="0.66737">
        <ele>1587.5</ele>
        <time>2018-08-08T12:21:08.000Z</time>
      </trkpt>
      <trkpt lat="42.70909" lon="0.66737">
        <ele>1587.4</ele>
        <time>2018-08-08T12:21:09.000Z</time>
      </trkpt>
      <trkpt lat="42.70909" lon="0.66738">
        <ele>1587.3</ele>
        <time>2018-08-08T12:21:10.000Z</time>
      </trkpt>
      <trkpt lat="42.70909" lon="0.66738">
        <ele>1587.2</ele>
        <time>2018-08-08T12:21:11.000Z</time>
      </trkpt>
      <trkpt lat="42.70909" lon="0.66738">
        <ele>1587.2</ele>
        <time>2018-08-08T12:21:12.000Z</time>
      </trkpt>
      <trkpt lat="42.70909" lon="0.66738">
        <ele>1587.1</ele>
        <time>2018-08-08T12:21:13.000Z</time>
      </trkpt>
      <trkpt lat="42.70909" lon="0.66739">
        <ele>1587</ele>
        <time>2018-08-08T12:21:14.000Z</time>
      </trkpt>
      <trkpt lat="42.70909" lon="0.66739">
        <ele>1586.9</ele>
        <time>2018-08-08T12:21:15.000Z</time>
      </trkpt>
      <trkpt lat="42.70908" lon="0.66739">
        <ele>1586.8</ele>
        <time>2018-08-08T12:21:16.000Z</time>
      </trkpt>
      <trkpt lat="42.70908" lon="0.66739">
        <ele>1586.8</ele>
        <time>2018-08-08T12:21:17.000Z</time>
      </trkpt>
      <trkpt lat="42.70908" lon="0.66739">
        <ele>1586.7</ele>
        <time>2018-08-08T12:21:18.000Z</time>
      </trkpt>
      <trkpt lat="42.70908" lon="0.6674">
        <ele>1586.6</ele>
        <time>2018-08-08T12:21:19.000Z</time>
      </trkpt>
      <trkpt lat="42.70908" lon="0.6674">
        <ele>1586.6</ele>
        <time>2018-08-08T12:21:20.000Z</time>
      </trkpt>
      <trkpt lat="42.70908" lon="0.6674">
        <ele>1586.6</ele>
        <time>2018-08-08T12:21:21.000Z</time>
      </trkpt>
      <trkpt lat="42.70908" lon="0.6674">
        <ele>1586.5</ele>
        <time>2018-08-08T12:21:22.000Z</time>
      </trkpt>
      <trkpt lat="42.70908" lon="0.6674">
        <ele>1586.5</ele>
        <time>2018-08-08T12:21:23.000Z</time>
      </trkpt>
      <trkpt lat="42.70908" lon="0.6674">
        <ele>1586.5</ele>
        <time>2018-08-08T12:21:24.000Z</time>
      </trkpt>
      <trkpt lat="42.70908" lon="0.6674">
        <ele>1586.4</ele>
        <time>2018-08-08T12:21:25.000Z</time>
      </trkpt>
      <trkpt lat="42.70908" lon="0.6674">
        <ele>1586.4</ele>
        <time>2018-08-08T12:21:26.000Z</time>
      </trkpt>
      <trkpt lat="42.70908" lon="0.6674">
        <ele>1586.4</ele>
        <time>2018-08-08T12:21:27.000Z</time>
      </trkpt>
      <trkpt lat="42.70908" lon="0.6674">
        <ele>1586.4</ele>
        <time>2018-08-08T12:21:28.000Z</time>
      </trkpt>
      <trkpt lat="42.70908" lon="0.6674">
        <ele>1586.4</ele>
        <time>2018-08-08T12:21:29.000Z</time>
      </trkpt>
      <trkpt lat="42.70908" lon="0.6674">
        <ele>1586.4</ele>
        <time>2018-08-08T12:21:30.000Z</time>
      </trkpt>
      <trkpt lat="42.70908" lon="0.6674">
        <ele>1586.3</ele>
        <time>2018-08-08T12:21:31.000Z</time>
      </trkpt>
      <trkpt lat="42.70908" lon="0.6674">
        <ele>1586.3</ele>
        <time>2018-08-08T12:21:32.000Z</time>
      </trkpt>
      <trkpt lat="42.70908" lon="0.6674">
        <ele>1586.3</ele>
        <time>2018-08-08T12:21:33.000Z</time>
      </trkpt>
      <trkpt lat="42.70908" lon="0.6674">
        <ele>1586.3</ele>
        <time>2018-08-08T12:21:34.000Z</time>
      </trkpt>
      <trkpt lat="42.70908" lon="0.6674">
        <ele>1586.3</ele>
        <time>2018-08-08T12:21:35.000Z</time>
      </trkpt>
      <trkpt lat="42.70908" lon="0.6674">
        <ele>1586.3</ele>
        <time>2018-08-08T12:21:36.000Z</time>
      </trkpt>
      <trkpt lat="42.70908" lon="0.6674">
        <ele>1586.3</ele>
        <time>2018-08-08T12:21:37.000Z</time>
      </trkpt>
      <trkpt lat="42.70908" lon="0.6674">
        <ele>1586.3</ele>
        <time>2018-08-08T12:21:38.000Z</time>
      </trkpt>
      <trkpt lat="42.70908" lon="0.6674">
        <ele>1586.3</ele>
        <time>2018-08-08T12:21:39.000Z</time>
      </trkpt>
      <trkpt lat="42.70908" lon="0.6674">
        <ele>1586.3</ele>
        <time>2018-08-08T12:21:40.000Z</time>
      </trkpt>
      <trkpt lat="42.70908" lon="0.6674">
        <ele>1586.3</ele>
        <time>2018-08-08T12:21:41.000Z</time>
      </trkpt>
      <trkpt lat="42.70908" lon="0.6674">
        <ele>1586.4</ele>
        <time>2018-08-08T12:21:42.000Z</time>
      </trkpt>
      <trkpt lat="42.70908" lon="0.6674">
        <ele>1586.4</ele>
        <time>2018-08-08T12:21:43.000Z</time>
      </trkpt>
      <trkpt lat="42.70908" lon="0.6674">
        <ele>1586.4</ele>
        <time>2018-08-08T12:21:44.000Z</time>
      </trkpt>
      <trkpt lat="42.70908" lon="0.6674">
        <ele>1586.4</ele>
        <time>2018-08-08T12:21:45.000Z</time>
      </trkpt>
      <trkpt lat="42.70908" lon="0.6674">
        <ele>1586.4</ele>
        <time>2018-08-08T12:21:46.000Z</time>
      </trkpt>
      <trkpt lat="42.70908" lon="0.6674">
        <ele>1586.4</ele>
        <time>2018-08-08T12:21:47.000Z</time>
      </trkpt>
      <trkpt lat="42.70908" lon="0.6674">
        <ele>1586.4</ele>
        <time>2018-08-08T12:21:48.000Z</time>
      </trkpt>
      <trkpt lat="42.70908" lon="0.6674">
        <ele>1586.4</ele>
        <time>2018-08-08T12:21:49.000Z</time>
      </trkpt>
      <trkpt lat="42.70908" lon="0.6674">
        <ele>1586.4</ele>
        <time>2018-08-08T12:21:50.000Z</time>
      </trkpt>
      <trkpt lat="42.70908" lon="0.6674">
        <ele>1586.3</ele>
        <time>2018-08-08T12:21:51.000Z</time>
      </trkpt>
      <trkpt lat="42.70908" lon="0.6674">
        <ele>1586.3</ele>
        <time>2018-08-08T12:21:52.000Z</time>
      </trkpt>
      <trkpt lat="42.70908" lon="0.6674">
        <ele>1586.3</ele>
        <time>2018-08-08T12:21:53.000Z</time>
      </trkpt>
      <trkpt lat="42.70908" lon="0.6674">
        <ele>1586.3</ele>
        <time>2018-08-08T12:21:54.000Z</time>
      </trkpt>
      <trkpt lat="42.70908" lon="0.66741">
        <ele>1586.3</ele>
        <time>2018-08-08T12:21:55.000Z</time>
      </trkpt>
      <trkpt lat="42.70908" lon="0.66741">
        <ele>1586.3</ele>
        <time>2018-08-08T12:21:56.000Z</time>
      </trkpt>
      <trkpt lat="42.70908" lon="0.66741">
        <ele>1586.2</ele>
        <time>2018-08-08T12:21:57.000Z</time>
      </trkpt>
      <trkpt lat="42.70908" lon="0.66741">
        <ele>1586.2</ele>
        <time>2018-08-08T12:21:58.000Z</time>
      </trkpt>
      <trkpt lat="42.70908" lon="0.66741">
        <ele>1586.2</ele>
        <time>2018-08-08T12:21:59.000Z</time>
      </trkpt>
      <trkpt lat="42.70908" lon="0.66741">
        <ele>1586.1</ele>
        <time>2018-08-08T12:22:00.000Z</time>
      </trkpt>
      <trkpt lat="42.70908" lon="0.66741">
        <ele>1586.1</ele>
        <time>2018-08-08T12:22:01.000Z</time>
      </trkpt>
      <trkpt lat="42.70908" lon="0.66741">
        <ele>1586.1</ele>
        <time>2018-08-08T12:22:02.000Z</time>
      </trkpt>
      <trkpt lat="42.70908" lon="0.66741">
        <ele>1586</ele>
        <time>2018-08-08T12:22:03.000Z</time>
      </trkpt>
      <trkpt lat="42.70908" lon="0.66741">
        <ele>1586</ele>
        <time>2018-08-08T12:22:04.000Z</time>
      </trkpt>
      <trkpt lat="42.70908" lon="0.66741">
        <ele>1585.9</ele>
        <time>2018-08-08T12:22:05.000Z</time>
      </trkpt>
      <trkpt lat="42.70909" lon="0.66741">
        <ele>1585.8</ele>
        <time>2018-08-08T12:22:06.000Z</time>
      </trkpt>
      <trkpt lat="42.70909" lon="0.66742">
        <ele>1585.8</ele>
        <time>2018-08-08T12:22:07.000Z</time>
      </trkpt>
      <trkpt lat="42.70909" lon="0.66742">
        <ele>1585.7</ele>
        <time>2018-08-08T12:22:08.000Z</time>
      </trkpt>
      <trkpt lat="42.70909" lon="0.66742">
        <ele>1585.6</ele>
        <time>2018-08-08T12:22:09.000Z</time>
      </trkpt>
      <trkpt lat="42.70909" lon="0.66742">
        <ele>1585.5</ele>
        <time>2018-08-08T12:22:10.000Z</time>
      </trkpt>
      <trkpt lat="42.70909" lon="0.66742">
        <ele>1585.4</ele>
        <time>2018-08-08T12:22:11.000Z</time>
      </trkpt>
      <trkpt lat="42.70909" lon="0.66742">
        <ele>1585.3</ele>
        <time>2018-08-08T12:22:12.000Z</time>
      </trkpt>
      <trkpt lat="42.70909" lon="0.66743">
        <ele>1585.2</ele>
        <time>2018-08-08T12:22:13.000Z</time>
      </trkpt>
      <trkpt lat="42.7091" lon="0.66743">
        <ele>1585.1</ele>
        <time>2018-08-08T12:22:14.000Z</time>
      </trkpt>
      <trkpt lat="42.7091" lon="0.66743">
        <ele>1585</ele>
        <time>2018-08-08T12:22:15.000Z</time>
      </trkpt>
      <trkpt lat="42.7091" lon="0.66743">
        <ele>1584.8</ele>
        <time>2018-08-08T12:22:16.000Z</time>
      </trkpt>
      <trkpt lat="42.7091" lon="0.66744">
        <ele>1584.7</ele>
        <time>2018-08-08T12:22:17.000Z</time>
      </trkpt>
      <trkpt lat="42.7091" lon="0.66744">
        <ele>1584.6</ele>
        <time>2018-08-08T12:22:18.000Z</time>
      </trkpt>
      <trkpt lat="42.70911" lon="0.66744">
        <ele>1584.4</ele>
        <time>2018-08-08T12:22:19.000Z</time>
      </trkpt>
      <trkpt lat="42.70911" lon="0.66744">
        <ele>1584.3</ele>
        <time>2018-08-08T12:22:20.000Z</time>
      </trkpt>
      <trkpt lat="42.70911" lon="0.66745">
        <ele>1584.1</ele>
        <time>2018-08-08T12:22:21.000Z</time>
      </trkpt>
      <trkpt lat="42.70912" lon="0.66745">
        <ele>1583.9</ele>
        <time>2018-08-08T12:22:22.000Z</time>
      </trkpt>
      <trkpt lat="42.70912" lon="0.66745">
        <ele>1583.8</ele>
        <time>2018-08-08T12:22:23.000Z</time>
      </trkpt>
      <trkpt lat="42.70912" lon="0.66745">
        <ele>1583.6</ele>
        <time>2018-08-08T12:22:24.000Z</time>
      </trkpt>
      <trkpt lat="42.70913" lon="0.66745">
        <ele>1583.5</ele>
        <time>2018-08-08T12:22:25.000Z</time>
      </trkpt>
      <trkpt lat="42.70913" lon="0.66746">
        <ele>1583.4</ele>
        <time>2018-08-08T12:22:26.000Z</time>
      </trkpt>
      <trkpt lat="42.70913" lon="0.66746">
        <ele>1583.4</ele>
        <time>2018-08-08T12:22:27.000Z</time>
      </trkpt>
      <trkpt lat="42.70913" lon="0.66746">
        <ele>1583.4</ele>
        <time>2018-08-08T12:22:28.000Z</time>
      </trkpt>
      <trkpt lat="42.70913" lon="0.66746">
        <ele>1583.4</ele>
        <time>2018-08-08T12:22:29.000Z</time>
      </trkpt>
      <trkpt lat="42.70913" lon="0.66746">
        <ele>1583.3</ele>
        <time>2018-08-08T12:22:30.000Z</time>
      </trkpt>
      <trkpt lat="42.70913" lon="0.66746">
        <ele>1583.3</ele>
        <time>2018-08-08T12:22:31.000Z</time>
      </trkpt>
      <trkpt lat="42.70913" lon="0.66746">
        <ele>1583.2</ele>
        <time>2018-08-08T12:22:32.000Z</time>
      </trkpt>
      <trkpt lat="42.70913" lon="0.66746">
        <ele>1583.2</ele>
        <time>2018-08-08T12:22:33.000Z</time>
      </trkpt>
      <trkpt lat="42.70913" lon="0.66746">
        <ele>1583.1</ele>
        <time>2018-08-08T12:22:34.000Z</time>
      </trkpt>
      <trkpt lat="42.70913" lon="0.66746">
        <ele>1583.1</ele>
        <time>2018-08-08T12:22:35.000Z</time>
      </trkpt>
      <trkpt lat="42.70913" lon="0.66746">
        <ele>1583</ele>
        <time>2018-08-08T12:22:36.000Z</time>
      </trkpt>
      <trkpt lat="42.70913" lon="0.66747">
        <ele>1582.9</ele>
        <time>2018-08-08T12:22:37.000Z</time>
      </trkpt>
      <trkpt lat="42.70913" lon="0.66747">
        <ele>1582.8</ele>
        <time>2018-08-08T12:22:38.000Z</time>
      </trkpt>
      <trkpt lat="42.70913" lon="0.66747">
        <ele>1582.8</ele>
        <time>2018-08-08T12:22:39.000Z</time>
      </trkpt>
      <trkpt lat="42.70913" lon="0.66747">
        <ele>1582.7</ele>
        <time>2018-08-08T12:22:40.000Z</time>
      </trkpt>
      <trkpt lat="42.70913" lon="0.66747">
        <ele>1582.7</ele>
        <time>2018-08-08T12:22:41.000Z</time>
      </trkpt>
      <trkpt lat="42.70913" lon="0.66747">
        <ele>1582.6</ele>
        <time>2018-08-08T12:22:42.000Z</time>
      </trkpt>
      <trkpt lat="42.70913" lon="0.66747">
        <ele>1582.6</ele>
        <time>2018-08-08T12:22:43.000Z</time>
      </trkpt>
      <trkpt lat="42.70913" lon="0.66747">
        <ele>1582.6</ele>
        <time>2018-08-08T12:22:44.000Z</time>
      </trkpt>
      <trkpt lat="42.70913" lon="0.66747">
        <ele>1582.6</ele>
        <time>2018-08-08T12:22:45.000Z</time>
      </trkpt>
      <trkpt lat="42.70913" lon="0.66747">
        <ele>1582.6</ele>
        <time>2018-08-08T12:22:46.000Z</time>
      </trkpt>
      <trkpt lat="42.70913" lon="0.66747">
        <ele>1582.6</ele>
        <time>2018-08-08T12:22:47.000Z</time>
      </trkpt>
      <trkpt lat="42.70913" lon="0.66747">
        <ele>1582.6</ele>
        <time>2018-08-08T12:22:48.000Z</time>
      </trkpt>
      <trkpt lat="42.70913" lon="0.66747">
        <ele>1582.6</ele>
        <time>2018-08-08T12:22:49.000Z</time>
      </trkpt>
      <trkpt lat="42.70914" lon="0.66747">
        <ele>1582.6</ele>
        <time>2018-08-08T12:22:50.000Z</time>
      </trkpt>
      <trkpt lat="42.70914" lon="0.66747">
        <ele>1582.5</ele>
        <time>2018-08-08T12:22:51.000Z</time>
      </trkpt>
      <trkpt lat="42.70914" lon="0.66747">
        <ele>1582.5</ele>
        <time>2018-08-08T12:22:52.000Z</time>
      </trkpt>
      <trkpt lat="42.70914" lon="0.66748">
        <ele>1582.5</ele>
        <time>2018-08-08T12:22:53.000Z</time>
      </trkpt>
      <trkpt lat="42.70914" lon="0.66748">
        <ele>1582.5</ele>
        <time>2018-08-08T12:22:54.000Z</time>
      </trkpt>
      <trkpt lat="42.70914" lon="0.66748">
        <ele>1582.4</ele>
        <time>2018-08-08T12:22:55.000Z</time>
      </trkpt>
      <trkpt lat="42.70914" lon="0.66748">
        <ele>1582.3</ele>
        <time>2018-08-08T12:22:56.000Z</time>
      </trkpt>
      <trkpt lat="42.70914" lon="0.66748">
        <ele>1582.2</ele>
        <time>2018-08-08T12:22:57.000Z</time>
      </trkpt>
      <trkpt lat="42.70914" lon="0.66748">
        <ele>1582.1</ele>
        <time>2018-08-08T12:22:58.000Z</time>
      </trkpt>
      <trkpt lat="42.70914" lon="0.66749">
        <ele>1582</ele>
        <time>2018-08-08T12:22:59.000Z</time>
      </trkpt>
      <trkpt lat="42.70915" lon="0.66749">
        <ele>1581.8</ele>
        <time>2018-08-08T12:23:00.000Z</time>
      </trkpt>
      <trkpt lat="42.70915" lon="0.66749">
        <ele>1581.7</ele>
        <time>2018-08-08T12:23:01.000Z</time>
      </trkpt>
      <trkpt lat="42.70915" lon="0.66749">
        <ele>1581.6</ele>
        <time>2018-08-08T12:23:02.000Z</time>
      </trkpt>
      <trkpt lat="42.70915" lon="0.6675">
        <ele>1581.4</ele>
        <time>2018-08-08T12:23:03.000Z</time>
      </trkpt>
      <trkpt lat="42.70915" lon="0.6675">
        <ele>1581.2</ele>
        <time>2018-08-08T12:23:04.000Z</time>
      </trkpt>
      <trkpt lat="42.70916" lon="0.6675">
        <ele>1581.2</ele>
        <time>2018-08-08T12:23:05.000Z</time>
      </trkpt>
      <trkpt lat="42.70916" lon="0.66751">
        <ele>1581.1</ele>
        <time>2018-08-08T12:23:06.000Z</time>
      </trkpt>
      <trkpt lat="42.70916" lon="0.66751">
        <ele>1581.1</ele>
        <time>2018-08-08T12:23:07.000Z</time>
      </trkpt>
      <trkpt lat="42.70916" lon="0.66751">
        <ele>1581</ele>
        <time>2018-08-08T12:23:08.000Z</time>
      </trkpt>
      <trkpt lat="42.70916" lon="0.66751">
        <ele>1581</ele>
        <time>2018-08-08T12:23:09.000Z</time>
      </trkpt>
      <trkpt lat="42.70917" lon="0.66752">
        <ele>1580.9</ele>
        <time>2018-08-08T12:23:10.000Z</time>
      </trkpt>
      <trkpt lat="42.70917" lon="0.66752">
        <ele>1580.9</ele>
        <time>2018-08-08T12:23:11.000Z</time>
      </trkpt>
      <trkpt lat="42.70917" lon="0.66752">
        <ele>1580.9</ele>
        <time>2018-08-08T12:23:12.000Z</time>
      </trkpt>
      <trkpt lat="42.70917" lon="0.66752">
        <ele>1580.8</ele>
        <time>2018-08-08T12:23:13.000Z</time>
      </trkpt>
      <trkpt lat="42.70917" lon="0.66752">
        <ele>1580.8</ele>
        <time>2018-08-08T12:23:14.000Z</time>
      </trkpt>
      <trkpt lat="42.70917" lon="0.66753">
        <ele>1580.8</ele>
        <time>2018-08-08T12:23:15.000Z</time>
      </trkpt>
      <trkpt lat="42.70917" lon="0.66753">
        <ele>1580.8</ele>
        <time>2018-08-08T12:23:16.000Z</time>
      </trkpt>
      <trkpt lat="42.70917" lon="0.66753">
        <ele>1580.8</ele>
        <time>2018-08-08T12:23:17.000Z</time>
      </trkpt>
      <trkpt lat="42.70918" lon="0.66753">
        <ele>1580.7</ele>
        <time>2018-08-08T12:23:18.000Z</time>
      </trkpt>
      <trkpt lat="42.70918" lon="0.66753">
        <ele>1580.7</ele>
        <time>2018-08-08T12:23:19.000Z</time>
      </trkpt>
      <trkpt lat="42.70918" lon="0.66753">
        <ele>1580.7</ele>
        <time>2018-08-08T12:23:20.000Z</time>
      </trkpt>
      <trkpt lat="42.70918" lon="0.66753">
        <ele>1580.7</ele>
        <time>2018-08-08T12:23:21.000Z</time>
      </trkpt>
      <trkpt lat="42.70918" lon="0.66753">
        <ele>1580.7</ele>
        <time>2018-08-08T12:23:22.000Z</time>
      </trkpt>
      <trkpt lat="42.70918" lon="0.66753">
        <ele>1580.7</ele>
        <time>2018-08-08T12:23:23.000Z</time>
      </trkpt>
      <trkpt lat="42.70918" lon="0.66753">
        <ele>1580.7</ele>
        <time>2018-08-08T12:23:24.000Z</time>
      </trkpt>
      <trkpt lat="42.70918" lon="0.66753">
        <ele>1580.7</ele>
        <time>2018-08-08T12:23:25.000Z</time>
      </trkpt>
      <trkpt lat="42.70918" lon="0.66753">
        <ele>1580.7</ele>
        <time>2018-08-08T12:23:26.000Z</time>
      </trkpt>
      <trkpt lat="42.70918" lon="0.66753">
        <ele>1580.7</ele>
        <time>2018-08-08T12:23:27.000Z</time>
      </trkpt>
      <trkpt lat="42.70918" lon="0.66754">
        <ele>1580.7</ele>
        <time>2018-08-08T12:23:28.000Z</time>
      </trkpt>
      <trkpt lat="42.70918" lon="0.66754">
        <ele>1580.7</ele>
        <time>2018-08-08T12:23:29.000Z</time>
      </trkpt>
      <trkpt lat="42.70918" lon="0.66754">
        <ele>1580.7</ele>
        <time>2018-08-08T12:23:30.000Z</time>
      </trkpt>
      <trkpt lat="42.70918" lon="0.66754">
        <ele>1580.7</ele>
        <time>2018-08-08T12:23:31.000Z</time>
      </trkpt>
      <trkpt lat="42.70918" lon="0.66754">
        <ele>1580.7</ele>
        <time>2018-08-08T12:23:32.000Z</time>
      </trkpt>
      <trkpt lat="42.70918" lon="0.66754">
        <ele>1580.7</ele>
        <time>2018-08-08T12:23:33.000Z</time>
      </trkpt>
      <trkpt lat="42.70918" lon="0.66754">
        <ele>1580.7</ele>
        <time>2018-08-08T12:23:34.000Z</time>
      </trkpt>
      <trkpt lat="42.70918" lon="0.66754">
        <ele>1580.7</ele>
        <time>2018-08-08T12:23:35.000Z</time>
      </trkpt>
      <trkpt lat="42.70918" lon="0.66753">
        <ele>1580.7</ele>
        <time>2018-08-08T12:23:36.000Z</time>
      </trkpt>
      <trkpt lat="42.70918" lon="0.66753">
        <ele>1580.7</ele>
        <time>2018-08-08T12:23:37.000Z</time>
      </trkpt>
      <trkpt lat="42.70918" lon="0.66753">
        <ele>1580.7</ele>
        <time>2018-08-08T12:23:38.000Z</time>
      </trkpt>
      <trkpt lat="42.70918" lon="0.66753">
        <ele>1580.7</ele>
        <time>2018-08-08T12:23:39.000Z</time>
      </trkpt>
      <trkpt lat="42.70918" lon="0.66753">
        <ele>1580.7</ele>
        <time>2018-08-08T12:23:40.000Z</time>
      </trkpt>
      <trkpt lat="42.70918" lon="0.66753">
        <ele>1580.7</ele>
        <time>2018-08-08T12:23:41.000Z</time>
      </trkpt>
      <trkpt lat="42.70918" lon="0.66753">
        <ele>1580.7</ele>
        <time>2018-08-08T12:23:42.000Z</time>
      </trkpt>
      <trkpt lat="42.70918" lon="0.66754">
        <ele>1580.7</ele>
        <time>2018-08-08T12:23:43.000Z</time>
      </trkpt>
      <trkpt lat="42.70918" lon="0.66754">
        <ele>1580.7</ele>
        <time>2018-08-08T12:23:44.000Z</time>
      </trkpt>
      <trkpt lat="42.70918" lon="0.66754">
        <ele>1580.7</ele>
        <time>2018-08-08T12:23:45.000Z</time>
      </trkpt>
      <trkpt lat="42.70918" lon="0.66754">
        <ele>1580.7</ele>
        <time>2018-08-08T12:23:46.000Z</time>
      </trkpt>
      <trkpt lat="42.70918" lon="0.66754">
        <ele>1580.7</ele>
        <time>2018-08-08T12:23:47.000Z</time>
      </trkpt>
      <trkpt lat="42.70918" lon="0.66754">
        <ele>1580.7</ele>
        <time>2018-08-08T12:23:48.000Z</time>
      </trkpt>
      <trkpt lat="42.70918" lon="0.66754">
        <ele>1580.7</ele>
        <time>2018-08-08T12:23:49.000Z</time>
      </trkpt>
      <trkpt lat="42.70918" lon="0.66754">
        <ele>1580.7</ele>
        <time>2018-08-08T12:23:50.000Z</time>
      </trkpt>
      <trkpt lat="42.70918" lon="0.66754">
        <ele>1580.7</ele>
        <time>2018-08-08T12:23:51.000Z</time>
      </trkpt>
      <trkpt lat="42.70918" lon="0.66754">
        <ele>1580.7</ele>
        <time>2018-08-08T12:23:52.000Z</time>
      </trkpt>
      <trkpt lat="42.70918" lon="0.66754">
        <ele>1580.7</ele>
        <time>2018-08-08T12:23:53.000Z</time>
      </trkpt>
      <trkpt lat="42.70918" lon="0.66754">
        <ele>1580.7</ele>
        <time>2018-08-08T12:23:54.000Z</time>
      </trkpt>
      <trkpt lat="42.70918" lon="0.66753">
        <ele>1580.7</ele>
        <time>2018-08-08T12:23:55.000Z</time>
      </trkpt>
      <trkpt lat="42.70918" lon="0.66753">
        <ele>1580.7</ele>
        <time>2018-08-08T12:23:56.000Z</time>
      </trkpt>
      <trkpt lat="42.70918" lon="0.66753">
        <ele>1580.7</ele>
        <time>2018-08-08T12:23:57.000Z</time>
      </trkpt>
      <trkpt lat="42.70918" lon="0.66753">
        <ele>1580.7</ele>
        <time>2018-08-08T12:23:58.000Z</time>
      </trkpt>
      <trkpt lat="42.70918" lon="0.66753">
        <ele>1580.7</ele>
        <time>2018-08-08T12:23:59.000Z</time>
      </trkpt>
      <trkpt lat="42.70918" lon="0.66753">
        <ele>1580.7</ele>
        <time>2018-08-08T12:24:00.000Z</time>
      </trkpt>
      <trkpt lat="42.70918" lon="0.66753">
        <ele>1580.7</ele>
        <time>2018-08-08T12:24:01.000Z</time>
      </trkpt>
      <trkpt lat="42.70918" lon="0.66753">
        <ele>1580.7</ele>
        <time>2018-08-08T12:24:02.000Z</time>
      </trkpt>
      <trkpt lat="42.70918" lon="0.66753">
        <ele>1580.7</ele>
        <time>2018-08-08T12:24:03.000Z</time>
      </trkpt>
      <trkpt lat="42.70918" lon="0.66753">
        <ele>1580.7</ele>
        <time>2018-08-08T12:24:04.000Z</time>
      </trkpt>
      <trkpt lat="42.70918" lon="0.66753">
        <ele>1580.7</ele>
        <time>2018-08-08T12:24:05.000Z</time>
      </trkpt>
      <trkpt lat="42.70918" lon="0.66753">
        <ele>1580.7</ele>
        <time>2018-08-08T12:24:06.000Z</time>
      </trkpt>
      <trkpt lat="42.70918" lon="0.66753">
        <ele>1580.7</ele>
        <time>2018-08-08T12:24:07.000Z</time>
      </trkpt>
      <trkpt lat="42.70918" lon="0.66753">
        <ele>1580.7</ele>
        <time>2018-08-08T12:24:08.000Z</time>
      </trkpt>
      <trkpt lat="42.70918" lon="0.66753">
        <ele>1580.7</ele>
        <time>2018-08-08T12:24:09.000Z</time>
      </trkpt>
      <trkpt lat="42.70918" lon="0.66752">
        <ele>1580.7</ele>
        <time>2018-08-08T12:24:10.000Z</time>
      </trkpt>
      <trkpt lat="42.70918" lon="0.66752">
        <ele>1580.7</ele>
        <time>2018-08-08T12:24:11.000Z</time>
      </trkpt>
      <trkpt lat="42.70918" lon="0.66752">
        <ele>1580.8</ele>
        <time>2018-08-08T12:24:12.000Z</time>
      </trkpt>
      <trkpt lat="42.70918" lon="0.66752">
        <ele>1580.8</ele>
        <time>2018-08-08T12:24:13.000Z</time>
      </trkpt>
      <trkpt lat="42.70918" lon="0.66752">
        <ele>1580.8</ele>
        <time>2018-08-08T12:24:14.000Z</time>
      </trkpt>
      <trkpt lat="42.70918" lon="0.66752">
        <ele>1580.8</ele>
        <time>2018-08-08T12:24:15.000Z</time>
      </trkpt>
      <trkpt lat="42.70918" lon="0.66751">
        <ele>1580.8</ele>
        <time>2018-08-08T12:24:16.000Z</time>
      </trkpt>
      <trkpt lat="42.70918" lon="0.66751">
        <ele>1580.8</ele>
        <time>2018-08-08T12:24:17.000Z</time>
      </trkpt>
      <trkpt lat="42.70918" lon="0.66751">
        <ele>1580.8</ele>
        <time>2018-08-08T12:24:18.000Z</time>
      </trkpt>
      <trkpt lat="42.70918" lon="0.66751">
        <ele>1580.9</ele>
        <time>2018-08-08T12:24:19.000Z</time>
      </trkpt>
      <trkpt lat="42.70918" lon="0.66751">
        <ele>1580.9</ele>
        <time>2018-08-08T12:24:20.000Z</time>
      </trkpt>
      <trkpt lat="42.70918" lon="0.6675">
        <ele>1580.9</ele>
        <time>2018-08-08T12:24:21.000Z</time>
      </trkpt>
      <trkpt lat="42.70918" lon="0.6675">
        <ele>1580.9</ele>
        <time>2018-08-08T12:24:22.000Z</time>
      </trkpt>
      <trkpt lat="42.70918" lon="0.6675">
        <ele>1580.9</ele>
        <time>2018-08-08T12:24:23.000Z</time>
      </trkpt>
      <trkpt lat="42.70918" lon="0.6675">
        <ele>1580.9</ele>
        <time>2018-08-08T12:24:24.000Z</time>
      </trkpt>
      <trkpt lat="42.70918" lon="0.6675">
        <ele>1581</ele>
        <time>2018-08-08T12:24:25.000Z</time>
      </trkpt>
      <trkpt lat="42.70918" lon="0.6675">
        <ele>1581.1</ele>
        <time>2018-08-08T12:24:26.000Z</time>
      </trkpt>
      <trkpt lat="42.70918" lon="0.66749">
        <ele>1581.2</ele>
        <time>2018-08-08T12:24:27.000Z</time>
      </trkpt>
      <trkpt lat="42.70918" lon="0.66749">
        <ele>1581.3</ele>
        <time>2018-08-08T12:24:28.000Z</time>
      </trkpt>
      <trkpt lat="42.70918" lon="0.66749">
        <ele>1581.3</ele>
        <time>2018-08-08T12:24:29.000Z</time>
      </trkpt>
      <trkpt lat="42.70918" lon="0.66749">
        <ele>1581.4</ele>
        <time>2018-08-08T12:24:30.000Z</time>
      </trkpt>
      <trkpt lat="42.70918" lon="0.66749">
        <ele>1581.4</ele>
        <time>2018-08-08T12:24:31.000Z</time>
      </trkpt>
      <trkpt lat="42.70918" lon="0.66748">
        <ele>1581.5</ele>
        <time>2018-08-08T12:24:32.000Z</time>
      </trkpt>
      <trkpt lat="42.70918" lon="0.66748">
        <ele>1581.6</ele>
        <time>2018-08-08T12:24:33.000Z</time>
      </trkpt>
      <trkpt lat="42.70918" lon="0.66748">
        <ele>1581.6</ele>
        <time>2018-08-08T12:24:34.000Z</time>
      </trkpt>
      <trkpt lat="42.70918" lon="0.66748">
        <ele>1581.7</ele>
        <time>2018-08-08T12:24:35.000Z</time>
      </trkpt>
      <trkpt lat="42.70918" lon="0.66748">
        <ele>1581.8</ele>
        <time>2018-08-08T12:24:36.000Z</time>
      </trkpt>
      <trkpt lat="42.70918" lon="0.66748">
        <ele>1581.8</ele>
        <time>2018-08-08T12:24:37.000Z</time>
      </trkpt>
      <trkpt lat="42.70918" lon="0.66748">
        <ele>1581.8</ele>
        <time>2018-08-08T12:24:38.000Z</time>
      </trkpt>
      <trkpt lat="42.70918" lon="0.66747">
        <ele>1581.9</ele>
        <time>2018-08-08T12:24:39.000Z</time>
      </trkpt>
      <trkpt lat="42.70918" lon="0.66747">
        <ele>1582</ele>
        <time>2018-08-08T12:24:40.000Z</time>
      </trkpt>
      <trkpt lat="42.70918" lon="0.66747">
        <ele>1582</ele>
        <time>2018-08-08T12:24:41.000Z</time>
      </trkpt>
      <trkpt lat="42.70918" lon="0.66747">
        <ele>1582</ele>
        <time>2018-08-08T12:24:42.000Z</time>
      </trkpt>
      <trkpt lat="42.70918" lon="0.66747">
        <ele>1582.1</ele>
        <time>2018-08-08T12:24:43.000Z</time>
      </trkpt>
      <trkpt lat="42.70918" lon="0.66747">
        <ele>1582.1</ele>
        <time>2018-08-08T12:24:44.000Z</time>
      </trkpt>
      <trkpt lat="42.70918" lon="0.66747">
        <ele>1582.1</ele>
        <time>2018-08-08T12:24:45.000Z</time>
      </trkpt>
      <trkpt lat="42.70918" lon="0.66747">
        <ele>1582.1</ele>
        <time>2018-08-08T12:24:46.000Z</time>
      </trkpt>
      <trkpt lat="42.70918" lon="0.66747">
        <ele>1582.1</ele>
        <time>2018-08-08T12:24:47.000Z</time>
      </trkpt>
      <trkpt lat="42.70918" lon="0.66747">
        <ele>1582.2</ele>
        <time>2018-08-08T12:24:48.000Z</time>
      </trkpt>
      <trkpt lat="42.70918" lon="0.66747">
        <ele>1582.2</ele>
        <time>2018-08-08T12:24:49.000Z</time>
      </trkpt>
      <trkpt lat="42.70918" lon="0.66747">
        <ele>1582.2</ele>
        <time>2018-08-08T12:24:50.000Z</time>
      </trkpt>
      <trkpt lat="42.70918" lon="0.66747">
        <ele>1582.3</ele>
        <time>2018-08-08T12:24:51.000Z</time>
      </trkpt>
      <trkpt lat="42.70918" lon="0.66747">
        <ele>1582.3</ele>
        <time>2018-08-08T12:24:52.000Z</time>
      </trkpt>
      <trkpt lat="42.70918" lon="0.66747">
        <ele>1582.3</ele>
        <time>2018-08-08T12:24:53.000Z</time>
      </trkpt>
      <trkpt lat="42.70918" lon="0.66746">
        <ele>1582.3</ele>
        <time>2018-08-08T12:24:54.000Z</time>
      </trkpt>
      <trkpt lat="42.70918" lon="0.66746">
        <ele>1582.3</ele>
        <time>2018-08-08T12:24:55.000Z</time>
      </trkpt>
      <trkpt lat="42.70918" lon="0.66746">
        <ele>1582.3</ele>
        <time>2018-08-08T12:24:56.000Z</time>
      </trkpt>
      <trkpt lat="42.70918" lon="0.66746">
        <ele>1582.3</ele>
        <time>2018-08-08T12:24:57.000Z</time>
      </trkpt>
      <trkpt lat="42.70918" lon="0.66746">
        <ele>1582.3</ele>
        <time>2018-08-08T12:24:58.000Z</time>
      </trkpt>
      <trkpt lat="42.70918" lon="0.66746">
        <ele>1582.3</ele>
        <time>2018-08-08T12:24:59.000Z</time>
      </trkpt>
      <trkpt lat="42.70918" lon="0.66746">
        <ele>1582.3</ele>
        <time>2018-08-08T12:25:00.000Z</time>
      </trkpt>
      <trkpt lat="42.70918" lon="0.66746">
        <ele>1582.3</ele>
        <time>2018-08-08T12:25:01.000Z</time>
      </trkpt>
      <trkpt lat="42.70918" lon="0.66746">
        <ele>1582.3</ele>
        <time>2018-08-08T12:25:02.000Z</time>
      </trkpt>
      <trkpt lat="42.70918" lon="0.66746">
        <ele>1582.3</ele>
        <time>2018-08-08T12:25:03.000Z</time>
      </trkpt>
      <trkpt lat="42.70918" lon="0.66746">
        <ele>1582.3</ele>
        <time>2018-08-08T12:25:04.000Z</time>
      </trkpt>
      <trkpt lat="42.70918" lon="0.66746">
        <ele>1582.3</ele>
        <time>2018-08-08T12:25:05.000Z</time>
      </trkpt>
      <trkpt lat="42.70918" lon="0.66746">
        <ele>1582.3</ele>
        <time>2018-08-08T12:25:06.000Z</time>
      </trkpt>
      <trkpt lat="42.70918" lon="0.66746">
        <ele>1582.3</ele>
        <time>2018-08-08T12:25:07.000Z</time>
      </trkpt>
      <trkpt lat="42.70918" lon="0.66746">
        <ele>1582.3</ele>
        <time>2018-08-08T12:25:08.000Z</time>
      </trkpt>
      <trkpt lat="42.70918" lon="0.66746">
        <ele>1582.3</ele>
        <time>2018-08-08T12:25:09.000Z</time>
      </trkpt>
      <trkpt lat="42.70918" lon="0.66746">
        <ele>1582.3</ele>
        <time>2018-08-08T12:25:10.000Z</time>
      </trkpt>
      <trkpt lat="42.70918" lon="0.66746">
        <ele>1582.3</ele>
        <time>2018-08-08T12:25:11.000Z</time>
      </trkpt>
      <trkpt lat="42.70918" lon="0.66746">
        <ele>1582.3</ele>
        <time>2018-08-08T12:25:12.000Z</time>
      </trkpt>
      <trkpt lat="42.70918" lon="0.66746">
        <ele>1582.3</ele>
        <time>2018-08-08T12:25:13.000Z</time>
      </trkpt>
      <trkpt lat="42.70918" lon="0.66746">
        <ele>1582.3</ele>
        <time>2018-08-08T12:25:14.000Z</time>
      </trkpt>
      <trkpt lat="42.70918" lon="0.66746">
        <ele>1582.3</ele>
        <time>2018-08-08T12:25:15.000Z</time>
      </trkpt>
      <trkpt lat="42.70918" lon="0.66746">
        <ele>1582.3</ele>
        <time>2018-08-08T12:25:16.000Z</time>
      </trkpt>
      <trkpt lat="42.70918" lon="0.66746">
        <ele>1582.3</ele>
        <time>2018-08-08T12:25:17.000Z</time>
      </trkpt>
      <trkpt lat="42.70918" lon="0.66746">
        <ele>1582.3</ele>
        <time>2018-08-08T12:25:18.000Z</time>
      </trkpt>
      <trkpt lat="42.70918" lon="0.66746">
        <ele>1582.3</ele>
        <time>2018-08-08T12:25:19.000Z</time>
      </trkpt>
      <trkpt lat="42.70918" lon="0.66746">
        <ele>1582.3</ele>
        <time>2018-08-08T12:25:20.000Z</time>
      </trkpt>
      <trkpt lat="42.70918" lon="0.66746">
        <ele>1582.3</ele>
        <time>2018-08-08T12:25:21.000Z</time>
      </trkpt>
      <trkpt lat="42.70918" lon="0.66746">
        <ele>1582.3</ele>
        <time>2018-08-08T12:25:22.000Z</time>
      </trkpt>
      <trkpt lat="42.70918" lon="0.66746">
        <ele>1582.3</ele>
        <time>2018-08-08T12:25:23.000Z</time>
      </trkpt>
      <trkpt lat="42.70918" lon="0.66746">
        <ele>1582.3</ele>
        <time>2018-08-08T12:25:24.000Z</time>
      </trkpt>
      <trkpt lat="42.70918" lon="0.66746">
        <ele>1582.3</ele>
        <time>2018-08-08T12:25:25.000Z</time>
      </trkpt>
      <trkpt lat="42.70917" lon="0.66746">
        <ele>1582.3</ele>
        <time>2018-08-08T12:25:26.000Z</time>
      </trkpt>
      <trkpt lat="42.70917" lon="0.66746">
        <ele>1582.3</ele>
        <time>2018-08-08T12:25:27.000Z</time>
      </trkpt>
      <trkpt lat="42.70917" lon="0.66746">
        <ele>1582.3</ele>
        <time>2018-08-08T12:25:28.000Z</time>
      </trkpt>
      <trkpt lat="42.70917" lon="0.66746">
        <ele>1582.3</ele>
        <time>2018-08-08T12:25:29.000Z</time>
      </trkpt>
      <trkpt lat="42.70917" lon="0.66746">
        <ele>1582.3</ele>
        <time>2018-08-08T12:25:30.000Z</time>
      </trkpt>
      <trkpt lat="42.70917" lon="0.66746">
        <ele>1582.4</ele>
        <time>2018-08-08T12:25:31.000Z</time>
      </trkpt>
      <trkpt lat="42.70917" lon="0.66746">
        <ele>1582.4</ele>
        <time>2018-08-08T12:25:32.000Z</time>
      </trkpt>
      <trkpt lat="42.70917" lon="0.66746">
        <ele>1582.4</ele>
        <time>2018-08-08T12:25:33.000Z</time>
      </trkpt>
      <trkpt lat="42.70917" lon="0.66746">
        <ele>1582.4</ele>
        <time>2018-08-08T12:25:34.000Z</time>
      </trkpt>
      <trkpt lat="42.70917" lon="0.66746">
        <ele>1582.4</ele>
        <time>2018-08-08T12:25:35.000Z</time>
      </trkpt>
      <trkpt lat="42.70917" lon="0.66746">
        <ele>1582.4</ele>
        <time>2018-08-08T12:25:36.000Z</time>
      </trkpt>
      <trkpt lat="42.70917" lon="0.66746">
        <ele>1582.5</ele>
        <time>2018-08-08T12:25:37.000Z</time>
      </trkpt>
      <trkpt lat="42.70917" lon="0.66746">
        <ele>1582.5</ele>
        <time>2018-08-08T12:25:38.000Z</time>
      </trkpt>
      <trkpt lat="42.70917" lon="0.66746">
        <ele>1582.5</ele>
        <time>2018-08-08T12:25:39.000Z</time>
      </trkpt>
      <trkpt lat="42.70917" lon="0.66746">
        <ele>1582.5</ele>
        <time>2018-08-08T12:25:40.000Z</time>
      </trkpt>
      <trkpt lat="42.70917" lon="0.66746">
        <ele>1582.5</ele>
        <time>2018-08-08T12:25:41.000Z</time>
      </trkpt>
      <trkpt lat="42.70917" lon="0.66746">
        <ele>1582.6</ele>
        <time>2018-08-08T12:25:42.000Z</time>
      </trkpt>
      <trkpt lat="42.70917" lon="0.66746">
        <ele>1582.6</ele>
        <time>2018-08-08T12:25:43.000Z</time>
      </trkpt>
      <trkpt lat="42.70917" lon="0.66746">
        <ele>1582.6</ele>
        <time>2018-08-08T12:25:44.000Z</time>
      </trkpt>
      <trkpt lat="42.70917" lon="0.66746">
        <ele>1582.7</ele>
        <time>2018-08-08T12:25:45.000Z</time>
      </trkpt>
      <trkpt lat="42.70917" lon="0.66746">
        <ele>1582.7</ele>
        <time>2018-08-08T12:25:46.000Z</time>
      </trkpt>
      <trkpt lat="42.70917" lon="0.66746">
        <ele>1582.7</ele>
        <time>2018-08-08T12:25:47.000Z</time>
      </trkpt>
      <trkpt lat="42.70917" lon="0.66746">
        <ele>1582.7</ele>
        <time>2018-08-08T12:25:48.000Z</time>
      </trkpt>
      <trkpt lat="42.70917" lon="0.66745">
        <ele>1582.8</ele>
        <time>2018-08-08T12:25:49.000Z</time>
      </trkpt>
      <trkpt lat="42.70917" lon="0.66745">
        <ele>1582.8</ele>
        <time>2018-08-08T12:25:50.000Z</time>
      </trkpt>
      <trkpt lat="42.70916" lon="0.66745">
        <ele>1582.9</ele>
        <time>2018-08-08T12:25:51.000Z</time>
      </trkpt>
      <trkpt lat="42.70916" lon="0.66745">
        <ele>1582.9</ele>
        <time>2018-08-08T12:25:52.000Z</time>
      </trkpt>
      <trkpt lat="42.70916" lon="0.66745">
        <ele>1582.9</ele>
        <time>2018-08-08T12:25:53.000Z</time>
      </trkpt>
      <trkpt lat="42.70916" lon="0.66745">
        <ele>1582.9</ele>
        <time>2018-08-08T12:25:54.000Z</time>
      </trkpt>
      <trkpt lat="42.70916" lon="0.66745">
        <ele>1583</ele>
        <time>2018-08-08T12:25:55.000Z</time>
      </trkpt>
      <trkpt lat="42.70916" lon="0.66745">
        <ele>1583</ele>
        <time>2018-08-08T12:25:56.000Z</time>
      </trkpt>
      <trkpt lat="42.70916" lon="0.66745">
        <ele>1583</ele>
        <time>2018-08-08T12:25:57.000Z</time>
      </trkpt>
      <trkpt lat="42.70916" lon="0.66745">
        <ele>1583</ele>
        <time>2018-08-08T12:25:58.000Z</time>
      </trkpt>
      <trkpt lat="42.70916" lon="0.66745">
        <ele>1583.1</ele>
        <time>2018-08-08T12:25:59.000Z</time>
      </trkpt>
      <trkpt lat="42.70916" lon="0.66745">
        <ele>1583.1</ele>
        <time>2018-08-08T12:26:00.000Z</time>
      </trkpt>
      <trkpt lat="42.70916" lon="0.66745">
        <ele>1583.1</ele>
        <time>2018-08-08T12:26:01.000Z</time>
      </trkpt>
      <trkpt lat="42.70916" lon="0.66745">
        <ele>1583.1</ele>
        <time>2018-08-08T12:26:02.000Z</time>
      </trkpt>
      <trkpt lat="42.70916" lon="0.66745">
        <ele>1583.1</ele>
        <time>2018-08-08T12:26:03.000Z</time>
      </trkpt>
      <trkpt lat="42.70916" lon="0.66745">
        <ele>1583.2</ele>
        <time>2018-08-08T12:26:04.000Z</time>
      </trkpt>
      <trkpt lat="42.70915" lon="0.66745">
        <ele>1583.2</ele>
        <time>2018-08-08T12:26:05.000Z</time>
      </trkpt>
      <trkpt lat="42.70915" lon="0.66745">
        <ele>1583.2</ele>
        <time>2018-08-08T12:26:06.000Z</time>
      </trkpt>
      <trkpt lat="42.70915" lon="0.66745">
        <ele>1583.2</ele>
        <time>2018-08-08T12:26:07.000Z</time>
      </trkpt>
      <trkpt lat="42.70915" lon="0.66745">
        <ele>1583.2</ele>
        <time>2018-08-08T12:26:08.000Z</time>
      </trkpt>
      <trkpt lat="42.70915" lon="0.66745">
        <ele>1583.2</ele>
        <time>2018-08-08T12:26:09.000Z</time>
      </trkpt>
      <trkpt lat="42.70915" lon="0.66745">
        <ele>1583.2</ele>
        <time>2018-08-08T12:26:10.000Z</time>
      </trkpt>
      <trkpt lat="42.70915" lon="0.66745">
        <ele>1583.2</ele>
        <time>2018-08-08T12:26:11.000Z</time>
      </trkpt>
      <trkpt lat="42.70915" lon="0.66745">
        <ele>1583.2</ele>
        <time>2018-08-08T12:26:12.000Z</time>
      </trkpt>
      <trkpt lat="42.70915" lon="0.66745">
        <ele>1583.2</ele>
        <time>2018-08-08T12:26:13.000Z</time>
      </trkpt>
      <trkpt lat="42.70915" lon="0.66745">
        <ele>1583.2</ele>
        <time>2018-08-08T12:26:14.000Z</time>
      </trkpt>
      <trkpt lat="42.70915" lon="0.66745">
        <ele>1583.2</ele>
        <time>2018-08-08T12:26:15.000Z</time>
      </trkpt>
      <trkpt lat="42.70915" lon="0.66745">
        <ele>1583.2</ele>
        <time>2018-08-08T12:26:16.000Z</time>
      </trkpt>
      <trkpt lat="42.70915" lon="0.66745">
        <ele>1583.2</ele>
        <time>2018-08-08T12:26:17.000Z</time>
      </trkpt>
      <trkpt lat="42.70915" lon="0.66745">
        <ele>1583.2</ele>
        <time>2018-08-08T12:26:18.000Z</time>
      </trkpt>
      <trkpt lat="42.70914" lon="0.66745">
        <ele>1583.2</ele>
        <time>2018-08-08T12:26:19.000Z</time>
      </trkpt>
      <trkpt lat="42.70914" lon="0.66745">
        <ele>1583.2</ele>
        <time>2018-08-08T12:26:20.000Z</time>
      </trkpt>
      <trkpt lat="42.70914" lon="0.66745">
        <ele>1583.2</ele>
        <time>2018-08-08T12:26:21.000Z</time>
      </trkpt>
      <trkpt lat="42.70914" lon="0.66745">
        <ele>1583.2</ele>
        <time>2018-08-08T12:26:22.000Z</time>
      </trkpt>
      <trkpt lat="42.70914" lon="0.66745">
        <ele>1583.2</ele>
        <time>2018-08-08T12:26:23.000Z</time>
      </trkpt>
      <trkpt lat="42.70914" lon="0.66746">
        <ele>1583.2</ele>
        <time>2018-08-08T12:26:24.000Z</time>
      </trkpt>
      <trkpt lat="42.70914" lon="0.66746">
        <ele>1583.2</ele>
        <time>2018-08-08T12:26:25.000Z</time>
      </trkpt>
      <trkpt lat="42.70914" lon="0.66746">
        <ele>1583.2</ele>
        <time>2018-08-08T12:26:26.000Z</time>
      </trkpt>
      <trkpt lat="42.70914" lon="0.66746">
        <ele>1583.2</ele>
        <time>2018-08-08T12:26:27.000Z</time>
      </trkpt>
      <trkpt lat="42.70914" lon="0.66746">
        <ele>1583.2</ele>
        <time>2018-08-08T12:26:28.000Z</time>
      </trkpt>
      <trkpt lat="42.70914" lon="0.66746">
        <ele>1583.2</ele>
        <time>2018-08-08T12:26:29.000Z</time>
      </trkpt>
      <trkpt lat="42.70914" lon="0.66746">
        <ele>1583.2</ele>
        <time>2018-08-08T12:26:30.000Z</time>
      </trkpt>
      <trkpt lat="42.70914" lon="0.66746">
        <ele>1583.2</ele>
        <time>2018-08-08T12:26:31.000Z</time>
      </trkpt>
      <trkpt lat="42.70914" lon="0.66746">
        <ele>1583.2</ele>
        <time>2018-08-08T12:26:32.000Z</time>
      </trkpt>
      <trkpt lat="42.70914" lon="0.66746">
        <ele>1583.2</ele>
        <time>2018-08-08T12:26:33.000Z</time>
      </trkpt>
      <trkpt lat="42.70914" lon="0.66746">
        <ele>1583.2</ele>
        <time>2018-08-08T12:26:34.000Z</time>
      </trkpt>
      <trkpt lat="42.70914" lon="0.66746">
        <ele>1583.2</ele>
        <time>2018-08-08T12:26:35.000Z</time>
      </trkpt>
      <trkpt lat="42.70914" lon="0.66746">
        <ele>1583.2</ele>
        <time>2018-08-08T12:26:36.000Z</time>
      </trkpt>
      <trkpt lat="42.70914" lon="0.66746">
        <ele>1583.2</ele>
        <time>2018-08-08T12:26:37.000Z</time>
      </trkpt>
      <trkpt lat="42.70914" lon="0.66746">
        <ele>1583.2</ele>
        <time>2018-08-08T12:26:38.000Z</time>
      </trkpt>
      <trkpt lat="42.70914" lon="0.66746">
        <ele>1583.2</ele>
        <time>2018-08-08T12:26:39.000Z</time>
      </trkpt>
      <trkpt lat="42.70914" lon="0.66746">
        <ele>1583.2</ele>
        <time>2018-08-08T12:26:40.000Z</time>
      </trkpt>
      <trkpt lat="42.70914" lon="0.66745">
        <ele>1583.2</ele>
        <time>2018-08-08T12:26:41.000Z</time>
      </trkpt>
      <trkpt lat="42.70914" lon="0.66745">
        <ele>1583.2</ele>
        <time>2018-08-08T12:26:42.000Z</time>
      </trkpt>
      <trkpt lat="42.70914" lon="0.66745">
        <ele>1583.2</ele>
        <time>2018-08-08T12:26:43.000Z</time>
      </trkpt>
      <trkpt lat="42.70914" lon="0.66745">
        <ele>1583.2</ele>
        <time>2018-08-08T12:26:44.000Z</time>
      </trkpt>
      <trkpt lat="42.70914" lon="0.66745">
        <ele>1583.2</ele>
        <time>2018-08-08T12:26:45.000Z</time>
      </trkpt>
      <trkpt lat="42.70914" lon="0.66745">
        <ele>1583.2</ele>
        <time>2018-08-08T12:26:46.000Z</time>
      </trkpt>
      <trkpt lat="42.70914" lon="0.66745">
        <ele>1583.2</ele>
        <time>2018-08-08T12:26:47.000Z</time>
      </trkpt>
      <trkpt lat="42.70915" lon="0.66745">
        <ele>1583.3</ele>
        <time>2018-08-08T12:26:48.000Z</time>
      </trkpt>
      <trkpt lat="42.70915" lon="0.66745">
        <ele>1583.3</ele>
        <time>2018-08-08T12:26:49.000Z</time>
      </trkpt>
      <trkpt lat="42.70915" lon="0.66745">
        <ele>1583.3</ele>
        <time>2018-08-08T12:26:50.000Z</time>
      </trkpt>
      <trkpt lat="42.70915" lon="0.66745">
        <ele>1583.3</ele>
        <time>2018-08-08T12:26:51.000Z</time>
      </trkpt>
      <trkpt lat="42.70915" lon="0.66745">
        <ele>1583.3</ele>
        <time>2018-08-08T12:26:52.000Z</time>
      </trkpt>
      <trkpt lat="42.70915" lon="0.66745">
        <ele>1583.3</ele>
        <time>2018-08-08T12:26:53.000Z</time>
      </trkpt>
      <trkpt lat="42.70915" lon="0.66745">
        <ele>1583.4</ele>
        <time>2018-08-08T12:26:54.000Z</time>
      </trkpt>
      <trkpt lat="42.70915" lon="0.66745">
        <ele>1583.4</ele>
        <time>2018-08-08T12:26:55.000Z</time>
      </trkpt>
      <trkpt lat="42.70915" lon="0.66745">
        <ele>1583.4</ele>
        <time>2018-08-08T12:26:56.000Z</time>
      </trkpt>
      <trkpt lat="42.70915" lon="0.66745">
        <ele>1583.4</ele>
        <time>2018-08-08T12:26:57.000Z</time>
      </trkpt>
      <trkpt lat="42.70915" lon="0.66744">
        <ele>1583.4</ele>
        <time>2018-08-08T12:26:58.000Z</time>
      </trkpt>
      <trkpt lat="42.70915" lon="0.66744">
        <ele>1583.4</ele>
        <time>2018-08-08T12:26:59.000Z</time>
      </trkpt>
      <trkpt lat="42.70915" lon="0.66744">
        <ele>1583.4</ele>
        <time>2018-08-08T12:27:00.000Z</time>
      </trkpt>
      <trkpt lat="42.70915" lon="0.66744">
        <ele>1583.5</ele>
        <time>2018-08-08T12:27:01.000Z</time>
      </trkpt>
      <trkpt lat="42.70915" lon="0.66744">
        <ele>1583.5</ele>
        <time>2018-08-08T12:27:02.000Z</time>
      </trkpt>
      <trkpt lat="42.70916" lon="0.66744">
        <ele>1583.5</ele>
        <time>2018-08-08T12:27:03.000Z</time>
      </trkpt>
      <trkpt lat="42.70916" lon="0.66744">
        <ele>1583.5</ele>
        <time>2018-08-08T12:27:04.000Z</time>
      </trkpt>
      <trkpt lat="42.70916" lon="0.66744">
        <ele>1583.5</ele>
        <time>2018-08-08T12:27:05.000Z</time>
      </trkpt>
      <trkpt lat="42.70916" lon="0.66744">
        <ele>1583.6</ele>
        <time>2018-08-08T12:27:06.000Z</time>
      </trkpt>
      <trkpt lat="42.70916" lon="0.66744">
        <ele>1583.6</ele>
        <time>2018-08-08T12:27:07.000Z</time>
      </trkpt>
      <trkpt lat="42.70916" lon="0.66744">
        <ele>1583.6</ele>
        <time>2018-08-08T12:27:08.000Z</time>
      </trkpt>
      <trkpt lat="42.70916" lon="0.66744">
        <ele>1583.6</ele>
        <time>2018-08-08T12:27:09.000Z</time>
      </trkpt>
      <trkpt lat="42.70916" lon="0.66744">
        <ele>1583.6</ele>
        <time>2018-08-08T12:27:10.000Z</time>
      </trkpt>
      <trkpt lat="42.70916" lon="0.66743">
        <ele>1583.7</ele>
        <time>2018-08-08T12:27:11.000Z</time>
      </trkpt>
      <trkpt lat="42.70916" lon="0.66743">
        <ele>1583.7</ele>
        <time>2018-08-08T12:27:12.000Z</time>
      </trkpt>
      <trkpt lat="42.70916" lon="0.66743">
        <ele>1583.7</ele>
        <time>2018-08-08T12:27:13.000Z</time>
      </trkpt>
      <trkpt lat="42.70916" lon="0.66743">
        <ele>1583.7</ele>
        <time>2018-08-08T12:27:14.000Z</time>
      </trkpt>
      <trkpt lat="42.70916" lon="0.66743">
        <ele>1583.7</ele>
        <time>2018-08-08T12:27:15.000Z</time>
      </trkpt>
      <trkpt lat="42.70916" lon="0.66743">
        <ele>1583.8</ele>
        <time>2018-08-08T12:27:16.000Z</time>
      </trkpt>
      <trkpt lat="42.70916" lon="0.66743">
        <ele>1583.7</ele>
        <time>2018-08-08T12:27:17.000Z</time>
      </trkpt>
      <trkpt lat="42.70916" lon="0.66743">
        <ele>1583.8</ele>
        <time>2018-08-08T12:27:18.000Z</time>
      </trkpt>
      <trkpt lat="42.70917" lon="0.66743">
        <ele>1583.8</ele>
        <time>2018-08-08T12:27:19.000Z</time>
      </trkpt>
      <trkpt lat="42.70917" lon="0.66743">
        <ele>1583.8</ele>
        <time>2018-08-08T12:27:20.000Z</time>
      </trkpt>
      <trkpt lat="42.70917" lon="0.66743">
        <ele>1583.8</ele>
        <time>2018-08-08T12:27:21.000Z</time>
      </trkpt>
      <trkpt lat="42.70917" lon="0.66743">
        <ele>1583.8</ele>
        <time>2018-08-08T12:27:22.000Z</time>
      </trkpt>
      <trkpt lat="42.70917" lon="0.66743">
        <ele>1583.8</ele>
        <time>2018-08-08T12:27:23.000Z</time>
      </trkpt>
      <trkpt lat="42.70917" lon="0.66743">
        <ele>1583.8</ele>
        <time>2018-08-08T12:27:24.000Z</time>
      </trkpt>
      <trkpt lat="42.70917" lon="0.66743">
        <ele>1583.9</ele>
        <time>2018-08-08T12:27:25.000Z</time>
      </trkpt>
      <trkpt lat="42.70917" lon="0.66743">
        <ele>1583.9</ele>
        <time>2018-08-08T12:27:26.000Z</time>
      </trkpt>
      <trkpt lat="42.70917" lon="0.66742">
        <ele>1583.9</ele>
        <time>2018-08-08T12:27:27.000Z</time>
      </trkpt>
      <trkpt lat="42.70917" lon="0.66742">
        <ele>1583.9</ele>
        <time>2018-08-08T12:27:28.000Z</time>
      </trkpt>
      <trkpt lat="42.70917" lon="0.66742">
        <ele>1583.9</ele>
        <time>2018-08-08T12:27:29.000Z</time>
      </trkpt>
      <trkpt lat="42.70917" lon="0.66742">
        <ele>1583.9</ele>
        <time>2018-08-08T12:27:30.000Z</time>
      </trkpt>
      <trkpt lat="42.70917" lon="0.66742">
        <ele>1583.9</ele>
        <time>2018-08-08T12:27:31.000Z</time>
      </trkpt>
      <trkpt lat="42.70917" lon="0.66742">
        <ele>1583.9</ele>
        <time>2018-08-08T12:27:32.000Z</time>
      </trkpt>
      <trkpt lat="42.70917" lon="0.66742">
        <ele>1583.9</ele>
        <time>2018-08-08T12:27:33.000Z</time>
      </trkpt>
      <trkpt lat="42.70917" lon="0.66742">
        <ele>1583.9</ele>
        <time>2018-08-08T12:27:34.000Z</time>
      </trkpt>
      <trkpt lat="42.70917" lon="0.66742">
        <ele>1583.9</ele>
        <time>2018-08-08T12:27:35.000Z</time>
      </trkpt>
      <trkpt lat="42.70917" lon="0.66742">
        <ele>1583.9</ele>
        <time>2018-08-08T12:27:36.000Z</time>
      </trkpt>
      <trkpt lat="42.70917" lon="0.66742">
        <ele>1584</ele>
        <time>2018-08-08T12:27:37.000Z</time>
      </trkpt>
      <trkpt lat="42.70917" lon="0.66742">
        <ele>1584</ele>
        <time>2018-08-08T12:27:38.000Z</time>
      </trkpt>
      <trkpt lat="42.70917" lon="0.66742">
        <ele>1584</ele>
        <time>2018-08-08T12:27:39.000Z</time>
      </trkpt>
      <trkpt lat="42.70917" lon="0.66742">
        <ele>1584</ele>
        <time>2018-08-08T12:27:40.000Z</time>
      </trkpt>
      <trkpt lat="42.70917" lon="0.66742">
        <ele>1583.9</ele>
        <time>2018-08-08T12:27:41.000Z</time>
      </trkpt>
      <trkpt lat="42.70917" lon="0.66742">
        <ele>1583.9</ele>
        <time>2018-08-08T12:27:42.000Z</time>
      </trkpt>
      <trkpt lat="42.70917" lon="0.66742">
        <ele>1583.9</ele>
        <time>2018-08-08T12:27:43.000Z</time>
      </trkpt>
      <trkpt lat="42.70917" lon="0.66742">
        <ele>1583.9</ele>
        <time>2018-08-08T12:27:44.000Z</time>
      </trkpt>
      <trkpt lat="42.70917" lon="0.66742">
        <ele>1583.9</ele>
        <time>2018-08-08T12:27:45.000Z</time>
      </trkpt>
      <trkpt lat="42.70917" lon="0.66742">
        <ele>1583.9</ele>
        <time>2018-08-08T12:27:46.000Z</time>
      </trkpt>
      <trkpt lat="42.70917" lon="0.66742">
        <ele>1583.9</ele>
        <time>2018-08-08T12:27:47.000Z</time>
      </trkpt>
      <trkpt lat="42.70917" lon="0.66742">
        <ele>1583.9</ele>
        <time>2018-08-08T12:27:48.000Z</time>
      </trkpt>
      <trkpt lat="42.70917" lon="0.66742">
        <ele>1583.9</ele>
        <time>2018-08-08T12:27:49.000Z</time>
      </trkpt>
      <trkpt lat="42.70917" lon="0.66742">
        <ele>1583.9</ele>
        <time>2018-08-08T12:27:50.000Z</time>
      </trkpt>
      <trkpt lat="42.70917" lon="0.66742">
        <ele>1583.9</ele>
        <time>2018-08-08T12:27:51.000Z</time>
      </trkpt>
      <trkpt lat="42.70917" lon="0.66742">
        <ele>1583.9</ele>
        <time>2018-08-08T12:27:52.000Z</time>
      </trkpt>
      <trkpt lat="42.70917" lon="0.66742">
        <ele>1583.9</ele>
        <time>2018-08-08T12:27:53.000Z</time>
      </trkpt>
      <trkpt lat="42.70917" lon="0.66742">
        <ele>1583.9</ele>
        <time>2018-08-08T12:27:54.000Z</time>
      </trkpt>
      <trkpt lat="42.70917" lon="0.66742">
        <ele>1583.9</ele>
        <time>2018-08-08T12:27:55.000Z</time>
      </trkpt>
      <trkpt lat="42.70917" lon="0.66742">
        <ele>1583.8</ele>
        <time>2018-08-08T12:27:56.000Z</time>
      </trkpt>
      <trkpt lat="42.70918" lon="0.66742">
        <ele>1583.8</ele>
        <time>2018-08-08T12:27:57.000Z</time>
      </trkpt>
      <trkpt lat="42.70918" lon="0.66742">
        <ele>1583.8</ele>
        <time>2018-08-08T12:27:58.000Z</time>
      </trkpt>
      <trkpt lat="42.70918" lon="0.66743">
        <ele>1583.8</ele>
        <time>2018-08-08T12:27:59.000Z</time>
      </trkpt>
      <trkpt lat="42.70918" lon="0.66743">
        <ele>1583.8</ele>
        <time>2018-08-08T12:28:00.000Z</time>
      </trkpt>
      <trkpt lat="42.70918" lon="0.66743">
        <ele>1583.7</ele>
        <time>2018-08-08T12:28:01.000Z</time>
      </trkpt>
      <trkpt lat="42.70918" lon="0.66743">
        <ele>1583.7</ele>
        <time>2018-08-08T12:28:02.000Z</time>
      </trkpt>
      <trkpt lat="42.70918" lon="0.66743">
        <ele>1583.7</ele>
        <time>2018-08-08T12:28:03.000Z</time>
      </trkpt>
      <trkpt lat="42.70919" lon="0.66743">
        <ele>1583.7</ele>
        <time>2018-08-08T12:28:04.000Z</time>
      </trkpt>
      <trkpt lat="42.70919" lon="0.66743">
        <ele>1583.7</ele>
        <time>2018-08-08T12:28:05.000Z</time>
      </trkpt>
      <trkpt lat="42.70919" lon="0.66743">
        <ele>1583.7</ele>
        <time>2018-08-08T12:28:06.000Z</time>
      </trkpt>
      <trkpt lat="42.70919" lon="0.66743">
        <ele>1583.6</ele>
        <time>2018-08-08T12:28:07.000Z</time>
      </trkpt>
      <trkpt lat="42.70919" lon="0.66743">
        <ele>1583.6</ele>
        <time>2018-08-08T12:28:08.000Z</time>
      </trkpt>
      <trkpt lat="42.70919" lon="0.66743">
        <ele>1583.6</ele>
        <time>2018-08-08T12:28:09.000Z</time>
      </trkpt>
      <trkpt lat="42.7092" lon="0.66743">
        <ele>1583.6</ele>
        <time>2018-08-08T12:28:10.000Z</time>
      </trkpt>
      <trkpt lat="42.7092" lon="0.66743">
        <ele>1583.6</ele>
        <time>2018-08-08T12:28:11.000Z</time>
      </trkpt>
      <trkpt lat="42.7092" lon="0.66742">
        <ele>1583.6</ele>
        <time>2018-08-08T12:28:12.000Z</time>
      </trkpt>
      <trkpt lat="42.7092" lon="0.66742">
        <ele>1583.6</ele>
        <time>2018-08-08T12:28:13.000Z</time>
      </trkpt>
      <trkpt lat="42.7092" lon="0.66742">
        <ele>1583.5</ele>
        <time>2018-08-08T12:28:14.000Z</time>
      </trkpt>
      <trkpt lat="42.7092" lon="0.66742">
        <ele>1583.5</ele>
        <time>2018-08-08T12:28:15.000Z</time>
      </trkpt>
      <trkpt lat="42.70921" lon="0.66742">
        <ele>1583.5</ele>
        <time>2018-08-08T12:28:16.000Z</time>
      </trkpt>
      <trkpt lat="42.70921" lon="0.66742">
        <ele>1583.5</ele>
        <time>2018-08-08T12:28:17.000Z</time>
      </trkpt>
      <trkpt lat="42.70921" lon="0.66742">
        <ele>1583.5</ele>
        <time>2018-08-08T12:28:18.000Z</time>
      </trkpt>
      <trkpt lat="42.70921" lon="0.66742">
        <ele>1583.5</ele>
        <time>2018-08-08T12:28:19.000Z</time>
      </trkpt>
      <trkpt lat="42.70921" lon="0.66742">
        <ele>1583.4</ele>
        <time>2018-08-08T12:28:20.000Z</time>
      </trkpt>
      <trkpt lat="42.70921" lon="0.66742">
        <ele>1583.4</ele>
        <time>2018-08-08T12:28:21.000Z</time>
      </trkpt>
      <trkpt lat="42.70922" lon="0.66742">
        <ele>1583.4</ele>
        <time>2018-08-08T12:28:22.000Z</time>
      </trkpt>
      <trkpt lat="42.70922" lon="0.66742">
        <ele>1583.4</ele>
        <time>2018-08-08T12:28:23.000Z</time>
      </trkpt>
      <trkpt lat="42.70922" lon="0.66742">
        <ele>1583.4</ele>
        <time>2018-08-08T12:28:24.000Z</time>
      </trkpt>
      <trkpt lat="42.70922" lon="0.66742">
        <ele>1583.4</ele>
        <time>2018-08-08T12:28:25.000Z</time>
      </trkpt>
      <trkpt lat="42.70922" lon="0.66742">
        <ele>1583.4</ele>
        <time>2018-08-08T12:28:26.000Z</time>
      </trkpt>
      <trkpt lat="42.70922" lon="0.66742">
        <ele>1583.4</ele>
        <time>2018-08-08T12:28:27.000Z</time>
      </trkpt>
      <trkpt lat="42.70922" lon="0.66742">
        <ele>1583.4</ele>
        <time>2018-08-08T12:28:28.000Z</time>
      </trkpt>
      <trkpt lat="42.70922" lon="0.66742">
        <ele>1583.3</ele>
        <time>2018-08-08T12:28:29.000Z</time>
      </trkpt>
      <trkpt lat="42.70922" lon="0.66742">
        <ele>1583.4</ele>
        <time>2018-08-08T12:28:30.000Z</time>
      </trkpt>
      <trkpt lat="42.70922" lon="0.66742">
        <ele>1583.4</ele>
        <time>2018-08-08T12:28:31.000Z</time>
      </trkpt>
      <trkpt lat="42.70922" lon="0.66742">
        <ele>1583.4</ele>
        <time>2018-08-08T12:28:32.000Z</time>
      </trkpt>
      <trkpt lat="42.70922" lon="0.66742">
        <ele>1583.4</ele>
        <time>2018-08-08T12:28:33.000Z</time>
      </trkpt>
      <trkpt lat="42.70922" lon="0.66742">
        <ele>1583.4</ele>
        <time>2018-08-08T12:28:34.000Z</time>
      </trkpt>
      <trkpt lat="42.70922" lon="0.66742">
        <ele>1583.4</ele>
        <time>2018-08-08T12:28:35.000Z</time>
      </trkpt>
      <trkpt lat="42.70922" lon="0.66742">
        <ele>1583.4</ele>
        <time>2018-08-08T12:28:36.000Z</time>
      </trkpt>
      <trkpt lat="42.70922" lon="0.66742">
        <ele>1583.4</ele>
        <time>2018-08-08T12:28:37.000Z</time>
      </trkpt>
      <trkpt lat="42.70922" lon="0.66742">
        <ele>1583.4</ele>
        <time>2018-08-08T12:28:38.000Z</time>
      </trkpt>
      <trkpt lat="42.70922" lon="0.66742">
        <ele>1583.4</ele>
        <time>2018-08-08T12:28:39.000Z</time>
      </trkpt>
      <trkpt lat="42.70922" lon="0.66742">
        <ele>1583.4</ele>
        <time>2018-08-08T12:28:40.000Z</time>
      </trkpt>
      <trkpt lat="42.70922" lon="0.66742">
        <ele>1583.4</ele>
        <time>2018-08-08T12:28:41.000Z</time>
      </trkpt>
      <trkpt lat="42.70922" lon="0.66742">
        <ele>1583.4</ele>
        <time>2018-08-08T12:28:42.000Z</time>
      </trkpt>
      <trkpt lat="42.70922" lon="0.66742">
        <ele>1583.4</ele>
        <time>2018-08-08T12:28:43.000Z</time>
      </trkpt>
      <trkpt lat="42.70922" lon="0.66742">
        <ele>1583.4</ele>
        <time>2018-08-08T12:28:44.000Z</time>
      </trkpt>
      <trkpt lat="42.70922" lon="0.66742">
        <ele>1583.4</ele>
        <time>2018-08-08T12:28:45.000Z</time>
      </trkpt>
      <trkpt lat="42.70922" lon="0.66742">
        <ele>1583.4</ele>
        <time>2018-08-08T12:28:46.000Z</time>
      </trkpt>
      <trkpt lat="42.70922" lon="0.66742">
        <ele>1583.4</ele>
        <time>2018-08-08T12:28:47.000Z</time>
      </trkpt>
      <trkpt lat="42.70922" lon="0.66742">
        <ele>1583.4</ele>
        <time>2018-08-08T12:28:48.000Z</time>
      </trkpt>
      <trkpt lat="42.70922" lon="0.66742">
        <ele>1583.4</ele>
        <time>2018-08-08T12:28:49.000Z</time>
      </trkpt>
      <trkpt lat="42.70922" lon="0.66742">
        <ele>1583.4</ele>
        <time>2018-08-08T12:28:50.000Z</time>
      </trkpt>
      <trkpt lat="42.70922" lon="0.66742">
        <ele>1583.4</ele>
        <time>2018-08-08T12:28:51.000Z</time>
      </trkpt>
      <trkpt lat="42.70922" lon="0.66742">
        <ele>1583.4</ele>
        <time>2018-08-08T12:28:52.000Z</time>
      </trkpt>
      <trkpt lat="42.70922" lon="0.66742">
        <ele>1583.4</ele>
        <time>2018-08-08T12:28:53.000Z</time>
      </trkpt>
      <trkpt lat="42.70922" lon="0.66742">
        <ele>1583.4</ele>
        <time>2018-08-08T12:28:54.000Z</time>
      </trkpt>
      <trkpt lat="42.70922" lon="0.66742">
        <ele>1583.4</ele>
        <time>2018-08-08T12:28:55.000Z</time>
      </trkpt>
      <trkpt lat="42.70922" lon="0.66742">
        <ele>1583.4</ele>
        <time>2018-08-08T12:28:56.000Z</time>
      </trkpt>
      <trkpt lat="42.70922" lon="0.66742">
        <ele>1583.4</ele>
        <time>2018-08-08T12:28:57.000Z</time>
      </trkpt>
      <trkpt lat="42.70922" lon="0.66742">
        <ele>1583.4</ele>
        <time>2018-08-08T12:28:58.000Z</time>
      </trkpt>
      <trkpt lat="42.70922" lon="0.66742">
        <ele>1583.4</ele>
        <time>2018-08-08T12:28:59.000Z</time>
      </trkpt>
      <trkpt lat="42.70922" lon="0.66742">
        <ele>1583.4</ele>
        <time>2018-08-08T12:29:00.000Z</time>
      </trkpt>
      <trkpt lat="42.70922" lon="0.66742">
        <ele>1583.4</ele>
        <time>2018-08-08T12:29:01.000Z</time>
      </trkpt>
      <trkpt lat="42.70921" lon="0.66742">
        <ele>1583.4</ele>
        <time>2018-08-08T12:29:02.000Z</time>
      </trkpt>
      <trkpt lat="42.70921" lon="0.66742">
        <ele>1583.5</ele>
        <time>2018-08-08T12:29:03.000Z</time>
      </trkpt>
      <trkpt lat="42.7092" lon="0.66742">
        <ele>1583.5</ele>
        <time>2018-08-08T12:29:04.000Z</time>
      </trkpt>
      <trkpt lat="42.7092" lon="0.66742">
        <ele>1583.6</ele>
        <time>2018-08-08T12:29:05.000Z</time>
      </trkpt>
      <trkpt lat="42.70919" lon="0.66743">
        <ele>1583.6</ele>
        <time>2018-08-08T12:29:06.000Z</time>
      </trkpt>
      <trkpt lat="42.70919" lon="0.66743">
        <ele>1583.6</ele>
        <time>2018-08-08T12:29:07.000Z</time>
      </trkpt>
      <trkpt lat="42.70919" lon="0.66743">
        <ele>1583.7</ele>
        <time>2018-08-08T12:29:08.000Z</time>
      </trkpt>
      <trkpt lat="42.70918" lon="0.66743">
        <ele>1583.6</ele>
        <time>2018-08-08T12:29:09.000Z</time>
      </trkpt>
      <trkpt lat="42.70918" lon="0.66743">
        <ele>1583.6</ele>
        <time>2018-08-08T12:29:10.000Z</time>
      </trkpt>
      <trkpt lat="42.70918" lon="0.66743">
        <ele>1583.6</ele>
        <time>2018-08-08T12:29:11.000Z</time>
      </trkpt>
      <trkpt lat="42.70918" lon="0.66743">
        <ele>1583.6</ele>
        <time>2018-08-08T12:29:12.000Z</time>
      </trkpt>
      <trkpt lat="42.70918" lon="0.66743">
        <ele>1583.6</ele>
        <time>2018-08-08T12:29:13.000Z</time>
      </trkpt>
      <trkpt lat="42.70918" lon="0.66743">
        <ele>1583.5</ele>
        <time>2018-08-08T12:29:14.000Z</time>
      </trkpt>
      <trkpt lat="42.70918" lon="0.66743">
        <ele>1583.5</ele>
        <time>2018-08-08T12:29:15.000Z</time>
      </trkpt>
      <trkpt lat="42.70918" lon="0.66743">
        <ele>1583.5</ele>
        <time>2018-08-08T12:29:16.000Z</time>
      </trkpt>
      <trkpt lat="42.70918" lon="0.66743">
        <ele>1583.5</ele>
        <time>2018-08-08T12:29:17.000Z</time>
      </trkpt>
      <trkpt lat="42.70918" lon="0.66743">
        <ele>1583.5</ele>
        <time>2018-08-08T12:29:18.000Z</time>
      </trkpt>
      <trkpt lat="42.70918" lon="0.66743">
        <ele>1583.5</ele>
        <time>2018-08-08T12:29:19.000Z</time>
      </trkpt>
      <trkpt lat="42.70918" lon="0.66743">
        <ele>1583.5</ele>
        <time>2018-08-08T12:29:20.000Z</time>
      </trkpt>
      <trkpt lat="42.70918" lon="0.66743">
        <ele>1583.5</ele>
        <time>2018-08-08T12:29:21.000Z</time>
      </trkpt>
      <trkpt lat="42.70918" lon="0.66743">
        <ele>1583.5</ele>
        <time>2018-08-08T12:29:22.000Z</time>
      </trkpt>
      <trkpt lat="42.70918" lon="0.66743">
        <ele>1583.5</ele>
        <time>2018-08-08T12:29:23.000Z</time>
      </trkpt>
      <trkpt lat="42.70918" lon="0.66744">
        <ele>1583.4</ele>
        <time>2018-08-08T12:29:24.000Z</time>
      </trkpt>
      <trkpt lat="42.70918" lon="0.66744">
        <ele>1583.4</ele>
        <time>2018-08-08T12:29:25.000Z</time>
      </trkpt>
      <trkpt lat="42.70918" lon="0.66744">
        <ele>1583.3</ele>
        <time>2018-08-08T12:29:26.000Z</time>
      </trkpt>
      <trkpt lat="42.70918" lon="0.66744">
        <ele>1583.2</ele>
        <time>2018-08-08T12:29:27.000Z</time>
      </trkpt>
      <trkpt lat="42.70918" lon="0.66744">
        <ele>1583.2</ele>
        <time>2018-08-08T12:29:28.000Z</time>
      </trkpt>
      <trkpt lat="42.70918" lon="0.66744">
        <ele>1583.2</ele>
        <time>2018-08-08T12:29:29.000Z</time>
      </trkpt>
      <trkpt lat="42.70918" lon="0.66744">
        <ele>1583.3</ele>
        <time>2018-08-08T12:29:30.000Z</time>
      </trkpt>
      <trkpt lat="42.70918" lon="0.66744">
        <ele>1583.4</ele>
        <time>2018-08-08T12:29:31.000Z</time>
      </trkpt>
      <trkpt lat="42.70918" lon="0.66743">
        <ele>1583.5</ele>
        <time>2018-08-08T12:29:32.000Z</time>
      </trkpt>
      <trkpt lat="42.70918" lon="0.66743">
        <ele>1583.6</ele>
        <time>2018-08-08T12:29:33.000Z</time>
      </trkpt>
      <trkpt lat="42.70918" lon="0.66742">
        <ele>1583.8</ele>
        <time>2018-08-08T12:29:34.000Z</time>
      </trkpt>
      <trkpt lat="42.70919" lon="0.66742">
        <ele>1584</ele>
        <time>2018-08-08T12:29:35.000Z</time>
      </trkpt>
      <trkpt lat="42.70919" lon="0.66741">
        <ele>1584.1</ele>
        <time>2018-08-08T12:29:36.000Z</time>
      </trkpt>
      <trkpt lat="42.70919" lon="0.66741">
        <ele>1584.2</ele>
        <time>2018-08-08T12:29:37.000Z</time>
      </trkpt>
      <trkpt lat="42.70919" lon="0.66741">
        <ele>1584.4</ele>
        <time>2018-08-08T12:29:38.000Z</time>
      </trkpt>
      <trkpt lat="42.70919" lon="0.66741">
        <ele>1584.4</ele>
        <time>2018-08-08T12:29:39.000Z</time>
      </trkpt>
      <trkpt lat="42.70919" lon="0.6674">
        <ele>1584.5</ele>
        <time>2018-08-08T12:29:40.000Z</time>
      </trkpt>
      <trkpt lat="42.70919" lon="0.6674">
        <ele>1584.5</ele>
        <time>2018-08-08T12:29:41.000Z</time>
      </trkpt>
      <trkpt lat="42.70919" lon="0.6674">
        <ele>1584.5</ele>
        <time>2018-08-08T12:29:42.000Z</time>
      </trkpt>
      <trkpt lat="42.70919" lon="0.6674">
        <ele>1584.5</ele>
        <time>2018-08-08T12:29:43.000Z</time>
      </trkpt>
      <trkpt lat="42.70919" lon="0.6674">
        <ele>1584.5</ele>
        <time>2018-08-08T12:29:44.000Z</time>
      </trkpt>
      <trkpt lat="42.70919" lon="0.6674">
        <ele>1584.5</ele>
        <time>2018-08-08T12:29:45.000Z</time>
      </trkpt>
      <trkpt lat="42.70919" lon="0.6674">
        <ele>1584.5</ele>
        <time>2018-08-08T12:29:46.000Z</time>
      </trkpt>
      <trkpt lat="42.70919" lon="0.6674">
        <ele>1584.5</ele>
        <time>2018-08-08T12:29:47.000Z</time>
      </trkpt>
      <trkpt lat="42.70919" lon="0.6674">
        <ele>1584.5</ele>
        <time>2018-08-08T12:29:48.000Z</time>
      </trkpt>
      <trkpt lat="42.70919" lon="0.6674">
        <ele>1584.5</ele>
        <time>2018-08-08T12:29:49.000Z</time>
      </trkpt>
      <trkpt lat="42.70919" lon="0.6674">
        <ele>1584.5</ele>
        <time>2018-08-08T12:29:50.000Z</time>
      </trkpt>
      <trkpt lat="42.70919" lon="0.6674">
        <ele>1584.5</ele>
        <time>2018-08-08T12:29:51.000Z</time>
      </trkpt>
      <trkpt lat="42.70919" lon="0.6674">
        <ele>1584.5</ele>
        <time>2018-08-08T12:29:52.000Z</time>
      </trkpt>
      <trkpt lat="42.70919" lon="0.6674">
        <ele>1584.5</ele>
        <time>2018-08-08T12:29:53.000Z</time>
      </trkpt>
      <trkpt lat="42.70919" lon="0.6674">
        <ele>1584.5</ele>
        <time>2018-08-08T12:29:54.000Z</time>
      </trkpt>
      <trkpt lat="42.70919" lon="0.6674">
        <ele>1584.5</ele>
        <time>2018-08-08T12:29:55.000Z</time>
      </trkpt>
      <trkpt lat="42.70919" lon="0.6674">
        <ele>1584.5</ele>
        <time>2018-08-08T12:29:56.000Z</time>
      </trkpt>
      <trkpt lat="42.70919" lon="0.6674">
        <ele>1584.5</ele>
        <time>2018-08-08T12:29:57.000Z</time>
      </trkpt>
      <trkpt lat="42.70919" lon="0.6674">
        <ele>1584.5</ele>
        <time>2018-08-08T12:29:58.000Z</time>
      </trkpt>
      <trkpt lat="42.70919" lon="0.6674">
        <ele>1584.5</ele>
        <time>2018-08-08T12:29:59.000Z</time>
      </trkpt>
      <trkpt lat="42.70919" lon="0.6674">
        <ele>1584.5</ele>
        <time>2018-08-08T12:30:00.000Z</time>
      </trkpt>
      <trkpt lat="42.70919" lon="0.6674">
        <ele>1584.5</ele>
        <time>2018-08-08T12:30:01.000Z</time>
      </trkpt>
      <trkpt lat="42.70919" lon="0.6674">
        <ele>1584.5</ele>
        <time>2018-08-08T12:30:02.000Z</time>
      </trkpt>
      <trkpt lat="42.70919" lon="0.6674">
        <ele>1584.5</ele>
        <time>2018-08-08T12:30:03.000Z</time>
      </trkpt>
      <trkpt lat="42.70919" lon="0.6674">
        <ele>1584.5</ele>
        <time>2018-08-08T12:30:04.000Z</time>
      </trkpt>
      <trkpt lat="42.70919" lon="0.6674">
        <ele>1584.5</ele>
        <time>2018-08-08T12:30:05.000Z</time>
      </trkpt>
      <trkpt lat="42.70919" lon="0.6674">
        <ele>1584.5</ele>
        <time>2018-08-08T12:30:06.000Z</time>
      </trkpt>
      <trkpt lat="42.70919" lon="0.6674">
        <ele>1584.5</ele>
        <time>2018-08-08T12:30:07.000Z</time>
      </trkpt>
      <trkpt lat="42.70919" lon="0.6674">
        <ele>1584.5</ele>
        <time>2018-08-08T12:30:08.000Z</time>
      </trkpt>
      <trkpt lat="42.70919" lon="0.6674">
        <ele>1584.5</ele>
        <time>2018-08-08T12:30:09.000Z</time>
      </trkpt>
      <trkpt lat="42.70919" lon="0.6674">
        <ele>1584.5</ele>
        <time>2018-08-08T12:30:10.000Z</time>
      </trkpt>
      <trkpt lat="42.70919" lon="0.6674">
        <ele>1584.5</ele>
        <time>2018-08-08T12:30:11.000Z</time>
      </trkpt>
      <trkpt lat="42.70919" lon="0.66741">
        <ele>1584.5</ele>
        <time>2018-08-08T12:30:12.000Z</time>
      </trkpt>
      <trkpt lat="42.70918" lon="0.66741">
        <ele>1584.4</ele>
        <time>2018-08-08T12:30:13.000Z</time>
      </trkpt>
      <trkpt lat="42.70918" lon="0.66741">
        <ele>1584.4</ele>
        <time>2018-08-08T12:30:14.000Z</time>
      </trkpt>
      <trkpt lat="42.70918" lon="0.66741">
        <ele>1584.3</ele>
        <time>2018-08-08T12:30:15.000Z</time>
      </trkpt>
      <trkpt lat="42.70918" lon="0.66741">
        <ele>1584.3</ele>
        <time>2018-08-08T12:30:16.000Z</time>
      </trkpt>
      <trkpt lat="42.70918" lon="0.66741">
        <ele>1584.2</ele>
        <time>2018-08-08T12:30:17.000Z</time>
      </trkpt>
      <trkpt lat="42.70918" lon="0.66742">
        <ele>1584.1</ele>
        <time>2018-08-08T12:30:18.000Z</time>
      </trkpt>
      <trkpt lat="42.70918" lon="0.66742">
        <ele>1584.1</ele>
        <time>2018-08-08T12:30:19.000Z</time>
      </trkpt>
      <trkpt lat="42.70917" lon="0.66742">
        <ele>1584</ele>
        <time>2018-08-08T12:30:20.000Z</time>
      </trkpt>
      <trkpt lat="42.70917" lon="0.66742">
        <ele>1583.9</ele>
        <time>2018-08-08T12:30:21.000Z</time>
      </trkpt>
      <trkpt lat="42.70917" lon="0.66743">
        <ele>1583.8</ele>
        <time>2018-08-08T12:30:22.000Z</time>
      </trkpt>
      <trkpt lat="42.70917" lon="0.66743">
        <ele>1583.7</ele>
        <time>2018-08-08T12:30:23.000Z</time>
      </trkpt>
      <trkpt lat="42.70917" lon="0.66743">
        <ele>1583.6</ele>
        <time>2018-08-08T12:30:24.000Z</time>
      </trkpt>
      <trkpt lat="42.70916" lon="0.66744">
        <ele>1583.5</ele>
        <time>2018-08-08T12:30:25.000Z</time>
      </trkpt>
      <trkpt lat="42.70916" lon="0.66744">
        <ele>1583.4</ele>
        <time>2018-08-08T12:30:26.000Z</time>
      </trkpt>
      <trkpt lat="42.70916" lon="0.66744">
        <ele>1583.3</ele>
        <time>2018-08-08T12:30:27.000Z</time>
      </trkpt>
      <trkpt lat="42.70916" lon="0.66745">
        <ele>1583.3</ele>
        <time>2018-08-08T12:30:28.000Z</time>
      </trkpt>
      <trkpt lat="42.70915" lon="0.66745">
        <ele>1583.2</ele>
        <time>2018-08-08T12:30:29.000Z</time>
      </trkpt>
      <trkpt lat="42.70915" lon="0.66745">
        <ele>1583.1</ele>
        <time>2018-08-08T12:30:30.000Z</time>
      </trkpt>
      <trkpt lat="42.70915" lon="0.66746">
        <ele>1583</ele>
        <time>2018-08-08T12:30:31.000Z</time>
      </trkpt>
      <trkpt lat="42.70915" lon="0.66746">
        <ele>1583</ele>
        <time>2018-08-08T12:30:32.000Z</time>
      </trkpt>
      <trkpt lat="42.70915" lon="0.66746">
        <ele>1582.9</ele>
        <time>2018-08-08T12:30:33.000Z</time>
      </trkpt>
      <trkpt lat="42.70914" lon="0.66746">
        <ele>1582.8</ele>
        <time>2018-08-08T12:30:34.000Z</time>
      </trkpt>
      <trkpt lat="42.70914" lon="0.66747">
        <ele>1582.8</ele>
        <time>2018-08-08T12:30:35.000Z</time>
      </trkpt>
      <trkpt lat="42.70914" lon="0.66747">
        <ele>1582.8</ele>
        <time>2018-08-08T12:30:36.000Z</time>
      </trkpt>
      <trkpt lat="42.70914" lon="0.66747">
        <ele>1582.7</ele>
        <time>2018-08-08T12:30:37.000Z</time>
      </trkpt>
      <trkpt lat="42.70914" lon="0.66747">
        <ele>1582.7</ele>
        <time>2018-08-08T12:30:38.000Z</time>
      </trkpt>
      <trkpt lat="42.70914" lon="0.66747">
        <ele>1582.7</ele>
        <time>2018-08-08T12:30:39.000Z</time>
      </trkpt>
      <trkpt lat="42.70914" lon="0.66747">
        <ele>1582.7</ele>
        <time>2018-08-08T12:30:40.000Z</time>
      </trkpt>
      <trkpt lat="42.70914" lon="0.66747">
        <ele>1582.7</ele>
        <time>2018-08-08T12:30:41.000Z</time>
      </trkpt>
      <trkpt lat="42.70914" lon="0.66747">
        <ele>1582.7</ele>
        <time>2018-08-08T12:30:42.000Z</time>
      </trkpt>
      <trkpt lat="42.70914" lon="0.66747">
        <ele>1582.6</ele>
        <time>2018-08-08T12:30:43.000Z</time>
      </trkpt>
      <trkpt lat="42.70914" lon="0.66747">
        <ele>1582.6</ele>
        <time>2018-08-08T12:30:44.000Z</time>
      </trkpt>
      <trkpt lat="42.70914" lon="0.66747">
        <ele>1582.6</ele>
        <time>2018-08-08T12:30:45.000Z</time>
      </trkpt>
      <trkpt lat="42.70914" lon="0.66747">
        <ele>1582.6</ele>
        <time>2018-08-08T12:30:46.000Z</time>
      </trkpt>
      <trkpt lat="42.70914" lon="0.66747">
        <ele>1582.6</ele>
        <time>2018-08-08T12:30:47.000Z</time>
      </trkpt>
      <trkpt lat="42.70914" lon="0.66747">
        <ele>1582.7</ele>
        <time>2018-08-08T12:30:48.000Z</time>
      </trkpt>
      <trkpt lat="42.70914" lon="0.66747">
        <ele>1582.7</ele>
        <time>2018-08-08T12:30:49.000Z</time>
      </trkpt>
      <trkpt lat="42.70914" lon="0.66747">
        <ele>1582.6</ele>
        <time>2018-08-08T12:30:50.000Z</time>
      </trkpt>
      <trkpt lat="42.70914" lon="0.66747">
        <ele>1582.6</ele>
        <time>2018-08-08T12:30:51.000Z</time>
      </trkpt>
      <trkpt lat="42.70914" lon="0.66747">
        <ele>1582.6</ele>
        <time>2018-08-08T12:30:52.000Z</time>
      </trkpt>
      <trkpt lat="42.70914" lon="0.66747">
        <ele>1582.6</ele>
        <time>2018-08-08T12:30:53.000Z</time>
      </trkpt>
      <trkpt lat="42.70914" lon="0.66747">
        <ele>1582.6</ele>
        <time>2018-08-08T12:30:54.000Z</time>
      </trkpt>
      <trkpt lat="42.70914" lon="0.66747">
        <ele>1582.6</ele>
        <time>2018-08-08T12:30:55.000Z</time>
      </trkpt>
      <trkpt lat="42.70914" lon="0.66747">
        <ele>1582.7</ele>
        <time>2018-08-08T12:30:56.000Z</time>
      </trkpt>
      <trkpt lat="42.70914" lon="0.66747">
        <ele>1582.7</ele>
        <time>2018-08-08T12:30:57.000Z</time>
      </trkpt>
      <trkpt lat="42.70914" lon="0.66747">
        <ele>1582.7</ele>
        <time>2018-08-08T12:30:58.000Z</time>
      </trkpt>
      <trkpt lat="42.70914" lon="0.66747">
        <ele>1582.7</ele>
        <time>2018-08-08T12:30:59.000Z</time>
      </trkpt>
      <trkpt lat="42.70914" lon="0.66747">
        <ele>1582.7</ele>
        <time>2018-08-08T12:31:00.000Z</time>
      </trkpt>
      <trkpt lat="42.70914" lon="0.66747">
        <ele>1582.7</ele>
        <time>2018-08-08T12:31:01.000Z</time>
      </trkpt>
      <trkpt lat="42.70914" lon="0.66747">
        <ele>1582.8</ele>
        <time>2018-08-08T12:31:02.000Z</time>
      </trkpt>
      <trkpt lat="42.70914" lon="0.66747">
        <ele>1582.8</ele>
        <time>2018-08-08T12:31:03.000Z</time>
      </trkpt>
      <trkpt lat="42.70914" lon="0.66747">
        <ele>1582.8</ele>
        <time>2018-08-08T12:31:04.000Z</time>
      </trkpt>
      <trkpt lat="42.70914" lon="0.66746">
        <ele>1582.9</ele>
        <time>2018-08-08T12:31:05.000Z</time>
      </trkpt>
      <trkpt lat="42.70914" lon="0.66746">
        <ele>1582.9</ele>
        <time>2018-08-08T12:31:06.000Z</time>
      </trkpt>
      <trkpt lat="42.70914" lon="0.66746">
        <ele>1583</ele>
        <time>2018-08-08T12:31:07.000Z</time>
      </trkpt>
      <trkpt lat="42.70914" lon="0.66746">
        <ele>1583</ele>
        <time>2018-08-08T12:31:08.000Z</time>
      </trkpt>
      <trkpt lat="42.70915" lon="0.66746">
        <ele>1583.1</ele>
        <time>2018-08-08T12:31:09.000Z</time>
      </trkpt>
      <trkpt lat="42.70915" lon="0.66746">
        <ele>1583.1</ele>
        <time>2018-08-08T12:31:10.000Z</time>
      </trkpt>
      <trkpt lat="42.70915" lon="0.66745">
        <ele>1583.2</ele>
        <time>2018-08-08T12:31:11.000Z</time>
      </trkpt>
      <trkpt lat="42.70915" lon="0.66745">
        <ele>1583.2</ele>
        <time>2018-08-08T12:31:12.000Z</time>
      </trkpt>
      <trkpt lat="42.70915" lon="0.66745">
        <ele>1583.2</ele>
        <time>2018-08-08T12:31:13.000Z</time>
      </trkpt>
      <trkpt lat="42.70915" lon="0.66745">
        <ele>1583.2</ele>
        <time>2018-08-08T12:31:14.000Z</time>
      </trkpt>
      <trkpt lat="42.70915" lon="0.66745">
        <ele>1583.3</ele>
        <time>2018-08-08T12:31:15.000Z</time>
      </trkpt>
      <trkpt lat="42.70915" lon="0.66745">
        <ele>1583.3</ele>
        <time>2018-08-08T12:31:16.000Z</time>
      </trkpt>
      <trkpt lat="42.70915" lon="0.66745">
        <ele>1583.3</ele>
        <time>2018-08-08T12:31:17.000Z</time>
      </trkpt>
      <trkpt lat="42.70916" lon="0.66745">
        <ele>1583.3</ele>
        <time>2018-08-08T12:31:18.000Z</time>
      </trkpt>
      <trkpt lat="42.70916" lon="0.66744">
        <ele>1583.3</ele>
        <time>2018-08-08T12:31:19.000Z</time>
      </trkpt>
      <trkpt lat="42.70916" lon="0.66744">
        <ele>1583.4</ele>
        <time>2018-08-08T12:31:20.000Z</time>
      </trkpt>
      <trkpt lat="42.70916" lon="0.66744">
        <ele>1583.4</ele>
        <time>2018-08-08T12:31:21.000Z</time>
      </trkpt>
      <trkpt lat="42.70916" lon="0.66744">
        <ele>1583.4</ele>
        <time>2018-08-08T12:31:22.000Z</time>
      </trkpt>
      <trkpt lat="42.70916" lon="0.66744">
        <ele>1583.4</ele>
        <time>2018-08-08T12:31:23.000Z</time>
      </trkpt>
      <trkpt lat="42.70916" lon="0.66744">
        <ele>1583.4</ele>
        <time>2018-08-08T12:31:24.000Z</time>
      </trkpt>
      <trkpt lat="42.70916" lon="0.66744">
        <ele>1583.4</ele>
        <time>2018-08-08T12:31:25.000Z</time>
      </trkpt>
      <trkpt lat="42.70916" lon="0.66744">
        <ele>1583.4</ele>
        <time>2018-08-08T12:31:26.000Z</time>
      </trkpt>
      <trkpt lat="42.70916" lon="0.66744">
        <ele>1583.4</ele>
        <time>2018-08-08T12:31:27.000Z</time>
      </trkpt>
      <trkpt lat="42.70916" lon="0.66744">
        <ele>1583.4</ele>
        <time>2018-08-08T12:31:28.000Z</time>
      </trkpt>
      <trkpt lat="42.70916" lon="0.66744">
        <ele>1583.4</ele>
        <time>2018-08-08T12:31:29.000Z</time>
      </trkpt>
      <trkpt lat="42.70916" lon="0.66744">
        <ele>1583.4</ele>
        <time>2018-08-08T12:31:30.000Z</time>
      </trkpt>
      <trkpt lat="42.70916" lon="0.66744">
        <ele>1583.4</ele>
        <time>2018-08-08T12:31:31.000Z</time>
      </trkpt>
      <trkpt lat="42.70916" lon="0.66744">
        <ele>1583.4</ele>
        <time>2018-08-08T12:31:32.000Z</time>
      </trkpt>
      <trkpt lat="42.70916" lon="0.66744">
        <ele>1583.3</ele>
        <time>2018-08-08T12:31:33.000Z</time>
      </trkpt>
      <trkpt lat="42.70916" lon="0.66744">
        <ele>1583.3</ele>
        <time>2018-08-08T12:31:34.000Z</time>
      </trkpt>
      <trkpt lat="42.70916" lon="0.66744">
        <ele>1583.3</ele>
        <time>2018-08-08T12:31:35.000Z</time>
      </trkpt>
      <trkpt lat="42.70916" lon="0.66744">
        <ele>1583.3</ele>
        <time>2018-08-08T12:31:36.000Z</time>
      </trkpt>
      <trkpt lat="42.70916" lon="0.66744">
        <ele>1583.3</ele>
        <time>2018-08-08T12:31:37.000Z</time>
      </trkpt>
      <trkpt lat="42.70916" lon="0.66744">
        <ele>1583.3</ele>
        <time>2018-08-08T12:31:38.000Z</time>
      </trkpt>
      <trkpt lat="42.70916" lon="0.66744">
        <ele>1583.3</ele>
        <time>2018-08-08T12:31:39.000Z</time>
      </trkpt>
      <trkpt lat="42.70916" lon="0.66744">
        <ele>1583.3</ele>
        <time>2018-08-08T12:31:40.000Z</time>
      </trkpt>
      <trkpt lat="42.70916" lon="0.66744">
        <ele>1583.3</ele>
        <time>2018-08-08T12:31:41.000Z</time>
      </trkpt>
      <trkpt lat="42.70916" lon="0.66745">
        <ele>1583.2</ele>
        <time>2018-08-08T12:31:42.000Z</time>
      </trkpt>
      <trkpt lat="42.70916" lon="0.66745">
        <ele>1583.2</ele>
        <time>2018-08-08T12:31:43.000Z</time>
      </trkpt>
      <trkpt lat="42.70916" lon="0.66745">
        <ele>1583.2</ele>
        <time>2018-08-08T12:31:44.000Z</time>
      </trkpt>
      <trkpt lat="42.70916" lon="0.66745">
        <ele>1583.2</ele>
        <time>2018-08-08T12:31:45.000Z</time>
      </trkpt>
      <trkpt lat="42.70916" lon="0.66745">
        <ele>1583.2</ele>
        <time>2018-08-08T12:31:46.000Z</time>
      </trkpt>
      <trkpt lat="42.70916" lon="0.66745">
        <ele>1583.2</ele>
        <time>2018-08-08T12:31:47.000Z</time>
      </trkpt>
      <trkpt lat="42.70916" lon="0.66745">
        <ele>1583.2</ele>
        <time>2018-08-08T12:31:48.000Z</time>
      </trkpt>
      <trkpt lat="42.70916" lon="0.66745">
        <ele>1583.2</ele>
        <time>2018-08-08T12:31:49.000Z</time>
      </trkpt>
      <trkpt lat="42.70916" lon="0.66745">
        <ele>1583.1</ele>
        <time>2018-08-08T12:31:50.000Z</time>
      </trkpt>
      <trkpt lat="42.70916" lon="0.66745">
        <ele>1583.1</ele>
        <time>2018-08-08T12:31:51.000Z</time>
      </trkpt>
      <trkpt lat="42.70916" lon="0.66745">
        <ele>1583.1</ele>
        <time>2018-08-08T12:31:52.000Z</time>
      </trkpt>
      <trkpt lat="42.70916" lon="0.66745">
        <ele>1583.1</ele>
        <time>2018-08-08T12:31:53.000Z</time>
      </trkpt>
      <trkpt lat="42.70916" lon="0.66745">
        <ele>1583.1</ele>
        <time>2018-08-08T12:31:54.000Z</time>
      </trkpt>
      <trkpt lat="42.70916" lon="0.66745">
        <ele>1583.1</ele>
        <time>2018-08-08T12:31:55.000Z</time>
      </trkpt>
      <trkpt lat="42.70916" lon="0.66745">
        <ele>1583.1</ele>
        <time>2018-08-08T12:31:56.000Z</time>
      </trkpt>
      <trkpt lat="42.70916" lon="0.66745">
        <ele>1583.1</ele>
        <time>2018-08-08T12:31:57.000Z</time>
      </trkpt>
      <trkpt lat="42.70916" lon="0.66745">
        <ele>1583.1</ele>
        <time>2018-08-08T12:31:58.000Z</time>
      </trkpt>
      <trkpt lat="42.70916" lon="0.66745">
        <ele>1583</ele>
        <time>2018-08-08T12:31:59.000Z</time>
      </trkpt>
      <trkpt lat="42.70916" lon="0.66745">
        <ele>1583</ele>
        <time>2018-08-08T12:32:00.000Z</time>
      </trkpt>
      <trkpt lat="42.70916" lon="0.66745">
        <ele>1583</ele>
        <time>2018-08-08T12:32:01.000Z</time>
      </trkpt>
      <trkpt lat="42.70916" lon="0.66745">
        <ele>1583</ele>
        <time>2018-08-08T12:32:02.000Z</time>
      </trkpt>
      <trkpt lat="42.70916" lon="0.66745">
        <ele>1583</ele>
        <time>2018-08-08T12:32:03.000Z</time>
      </trkpt>
      <trkpt lat="42.70916" lon="0.66745">
        <ele>1583</ele>
        <time>2018-08-08T12:32:04.000Z</time>
      </trkpt>
      <trkpt lat="42.70916" lon="0.66745">
        <ele>1583</ele>
        <time>2018-08-08T12:32:05.000Z</time>
      </trkpt>
      <trkpt lat="42.70916" lon="0.66745">
        <ele>1583</ele>
        <time>2018-08-08T12:32:06.000Z</time>
      </trkpt>
      <trkpt lat="42.70916" lon="0.66745">
        <ele>1583</ele>
        <time>2018-08-08T12:32:07.000Z</time>
      </trkpt>
      <trkpt lat="42.70916" lon="0.66745">
        <ele>1583</ele>
        <time>2018-08-08T12:32:08.000Z</time>
      </trkpt>
      <trkpt lat="42.70916" lon="0.66745">
        <ele>1583</ele>
        <time>2018-08-08T12:32:09.000Z</time>
      </trkpt>
      <trkpt lat="42.70916" lon="0.66745">
        <ele>1583</ele>
        <time>2018-08-08T12:32:10.000Z</time>
      </trkpt>
      <trkpt lat="42.70915" lon="0.66745">
        <ele>1583</ele>
        <time>2018-08-08T12:32:11.000Z</time>
      </trkpt>
      <trkpt lat="42.70915" lon="0.66746">
        <ele>1583</ele>
        <time>2018-08-08T12:32:12.000Z</time>
      </trkpt>
      <trkpt lat="42.70915" lon="0.66746">
        <ele>1583</ele>
        <time>2018-08-08T12:32:13.000Z</time>
      </trkpt>
      <trkpt lat="42.70915" lon="0.66746">
        <ele>1583</ele>
        <time>2018-08-08T12:32:14.000Z</time>
      </trkpt>
      <trkpt lat="42.70915" lon="0.66746">
        <ele>1582.9</ele>
        <time>2018-08-08T12:32:15.000Z</time>
      </trkpt>
      <trkpt lat="42.70915" lon="0.66746">
        <ele>1582.9</ele>
        <time>2018-08-08T12:32:16.000Z</time>
      </trkpt>
      <trkpt lat="42.70915" lon="0.66746">
        <ele>1582.9</ele>
        <time>2018-08-08T12:32:17.000Z</time>
      </trkpt>
      <trkpt lat="42.70915" lon="0.66746">
        <ele>1582.9</ele>
        <time>2018-08-08T12:32:18.000Z</time>
      </trkpt>
      <trkpt lat="42.70915" lon="0.66746">
        <ele>1582.9</ele>
        <time>2018-08-08T12:32:19.000Z</time>
      </trkpt>
      <trkpt lat="42.70915" lon="0.66746">
        <ele>1583</ele>
        <time>2018-08-08T12:32:20.000Z</time>
      </trkpt>
      <trkpt lat="42.70915" lon="0.66746">
        <ele>1583</ele>
        <time>2018-08-08T12:32:21.000Z</time>
      </trkpt>
      <trkpt lat="42.70914" lon="0.66746">
        <ele>1583</ele>
        <time>2018-08-08T12:32:22.000Z</time>
      </trkpt>
      <trkpt lat="42.70914" lon="0.66746">
        <ele>1583</ele>
        <time>2018-08-08T12:32:23.000Z</time>
      </trkpt>
      <trkpt lat="42.70914" lon="0.66746">
        <ele>1583</ele>
        <time>2018-08-08T12:32:24.000Z</time>
      </trkpt>
      <trkpt lat="42.70914" lon="0.66746">
        <ele>1583</ele>
        <time>2018-08-08T12:32:25.000Z</time>
      </trkpt>
      <trkpt lat="42.70914" lon="0.66746">
        <ele>1583.1</ele>
        <time>2018-08-08T12:32:26.000Z</time>
      </trkpt>
      <trkpt lat="42.70914" lon="0.66746">
        <ele>1583.1</ele>
        <time>2018-08-08T12:32:27.000Z</time>
      </trkpt>
      <trkpt lat="42.70914" lon="0.66746">
        <ele>1583.2</ele>
        <time>2018-08-08T12:32:28.000Z</time>
      </trkpt>
      <trkpt lat="42.70914" lon="0.66745">
        <ele>1583.3</ele>
        <time>2018-08-08T12:32:29.000Z</time>
      </trkpt>
      <trkpt lat="42.70914" lon="0.66745">
        <ele>1583.4</ele>
        <time>2018-08-08T12:32:30.000Z</time>
      </trkpt>
      <trkpt lat="42.70913" lon="0.66745">
        <ele>1583.5</ele>
        <time>2018-08-08T12:32:31.000Z</time>
      </trkpt>
      <trkpt lat="42.70913" lon="0.66745">
        <ele>1583.5</ele>
        <time>2018-08-08T12:32:32.000Z</time>
      </trkpt>
      <trkpt lat="42.70913" lon="0.66745">
        <ele>1583.6</ele>
        <time>2018-08-08T12:32:33.000Z</time>
      </trkpt>
      <trkpt lat="42.70913" lon="0.66745">
        <ele>1583.7</ele>
        <time>2018-08-08T12:32:34.000Z</time>
      </trkpt>
      <trkpt lat="42.70913" lon="0.66745">
        <ele>1583.7</ele>
        <time>2018-08-08T12:32:35.000Z</time>
      </trkpt>
      <trkpt lat="42.70913" lon="0.66745">
        <ele>1583.8</ele>
        <time>2018-08-08T12:32:36.000Z</time>
      </trkpt>
      <trkpt lat="42.70913" lon="0.66745">
        <ele>1583.8</ele>
        <time>2018-08-08T12:32:37.000Z</time>
      </trkpt>
      <trkpt lat="42.70913" lon="0.66745">
        <ele>1583.8</ele>
        <time>2018-08-08T12:32:38.000Z</time>
      </trkpt>
      <trkpt lat="42.70913" lon="0.66745">
        <ele>1583.8</ele>
        <time>2018-08-08T12:32:39.000Z</time>
      </trkpt>
      <trkpt lat="42.70913" lon="0.66745">
        <ele>1583.8</ele>
        <time>2018-08-08T12:32:40.000Z</time>
      </trkpt>
      <trkpt lat="42.70913" lon="0.66744">
        <ele>1583.8</ele>
        <time>2018-08-08T12:32:41.000Z</time>
      </trkpt>
      <trkpt lat="42.70913" lon="0.66744">
        <ele>1583.8</ele>
        <time>2018-08-08T12:32:42.000Z</time>
      </trkpt>
      <trkpt lat="42.70913" lon="0.66745">
        <ele>1583.8</ele>
        <time>2018-08-08T12:32:43.000Z</time>
      </trkpt>
      <trkpt lat="42.70913" lon="0.66745">
        <ele>1583.8</ele>
        <time>2018-08-08T12:32:44.000Z</time>
      </trkpt>
      <trkpt lat="42.70913" lon="0.66745">
        <ele>1583.8</ele>
        <time>2018-08-08T12:32:45.000Z</time>
      </trkpt>
      <trkpt lat="42.70913" lon="0.66745">
        <ele>1583.8</ele>
        <time>2018-08-08T12:32:46.000Z</time>
      </trkpt>
      <trkpt lat="42.70913" lon="0.66745">
        <ele>1583.8</ele>
        <time>2018-08-08T12:32:47.000Z</time>
      </trkpt>
      <trkpt lat="42.70913" lon="0.66745">
        <ele>1583.8</ele>
        <time>2018-08-08T12:32:48.000Z</time>
      </trkpt>
      <trkpt lat="42.70913" lon="0.66744">
        <ele>1583.9</ele>
        <time>2018-08-08T12:32:49.000Z</time>
      </trkpt>
      <trkpt lat="42.70913" lon="0.66744">
        <ele>1583.9</ele>
        <time>2018-08-08T12:32:50.000Z</time>
      </trkpt>
      <trkpt lat="42.70913" lon="0.66744">
        <ele>1583.9</ele>
        <time>2018-08-08T12:32:51.000Z</time>
      </trkpt>
      <trkpt lat="42.70913" lon="0.66744">
        <ele>1583.9</ele>
        <time>2018-08-08T12:32:52.000Z</time>
      </trkpt>
      <trkpt lat="42.70913" lon="0.66744">
        <ele>1583.9</ele>
        <time>2018-08-08T12:32:53.000Z</time>
      </trkpt>
      <trkpt lat="42.70913" lon="0.66744">
        <ele>1583.9</ele>
        <time>2018-08-08T12:32:54.000Z</time>
      </trkpt>
      <trkpt lat="42.70913" lon="0.66744">
        <ele>1583.9</ele>
        <time>2018-08-08T12:32:55.000Z</time>
      </trkpt>
      <trkpt lat="42.70913" lon="0.66744">
        <ele>1583.9</ele>
        <time>2018-08-08T12:32:56.000Z</time>
      </trkpt>
      <trkpt lat="42.70913" lon="0.66744">
        <ele>1583.9</ele>
        <time>2018-08-08T12:32:57.000Z</time>
      </trkpt>
      <trkpt lat="42.70913" lon="0.66744">
        <ele>1583.9</ele>
        <time>2018-08-08T12:32:58.000Z</time>
      </trkpt>
      <trkpt lat="42.70913" lon="0.66744">
        <ele>1583.9</ele>
        <time>2018-08-08T12:32:59.000Z</time>
      </trkpt>
      <trkpt lat="42.70913" lon="0.66744">
        <ele>1583.9</ele>
        <time>2018-08-08T12:33:00.000Z</time>
      </trkpt>
      <trkpt lat="42.70913" lon="0.66744">
        <ele>1583.9</ele>
        <time>2018-08-08T12:33:01.000Z</time>
      </trkpt>
      <trkpt lat="42.70913" lon="0.66744">
        <ele>1583.9</ele>
        <time>2018-08-08T12:33:02.000Z</time>
      </trkpt>
      <trkpt lat="42.70913" lon="0.66744">
        <ele>1583.9</ele>
        <time>2018-08-08T12:33:03.000Z</time>
      </trkpt>
      <trkpt lat="42.70913" lon="0.66745">
        <ele>1583.8</ele>
        <time>2018-08-08T12:33:04.000Z</time>
      </trkpt>
      <trkpt lat="42.70913" lon="0.66745">
        <ele>1583.8</ele>
        <time>2018-08-08T12:33:05.000Z</time>
      </trkpt>
      <trkpt lat="42.70913" lon="0.66745">
        <ele>1583.8</ele>
        <time>2018-08-08T12:33:06.000Z</time>
      </trkpt>
      <trkpt lat="42.70913" lon="0.66745">
        <ele>1583.8</ele>
        <time>2018-08-08T12:33:07.000Z</time>
      </trkpt>
      <trkpt lat="42.70913" lon="0.66745">
        <ele>1583.8</ele>
        <time>2018-08-08T12:33:08.000Z</time>
      </trkpt>
      <trkpt lat="42.70913" lon="0.66745">
        <ele>1583.8</ele>
        <time>2018-08-08T12:33:09.000Z</time>
      </trkpt>
      <trkpt lat="42.70913" lon="0.66745">
        <ele>1583.8</ele>
        <time>2018-08-08T12:33:10.000Z</time>
      </trkpt>
      <trkpt lat="42.70913" lon="0.66745">
        <ele>1583.8</ele>
        <time>2018-08-08T12:33:11.000Z</time>
      </trkpt>
      <trkpt lat="42.70913" lon="0.66745">
        <ele>1583.8</ele>
        <time>2018-08-08T12:33:12.000Z</time>
      </trkpt>
      <trkpt lat="42.70913" lon="0.66745">
        <ele>1583.7</ele>
        <time>2018-08-08T12:33:13.000Z</time>
      </trkpt>
      <trkpt lat="42.70913" lon="0.66745">
        <ele>1583.7</ele>
        <time>2018-08-08T12:33:14.000Z</time>
      </trkpt>
      <trkpt lat="42.70913" lon="0.66745">
        <ele>1583.7</ele>
        <time>2018-08-08T12:33:15.000Z</time>
      </trkpt>
      <trkpt lat="42.70913" lon="0.66745">
        <ele>1583.6</ele>
        <time>2018-08-08T12:33:16.000Z</time>
      </trkpt>
      <trkpt lat="42.70913" lon="0.66745">
        <ele>1583.6</ele>
        <time>2018-08-08T12:33:17.000Z</time>
      </trkpt>
      <trkpt lat="42.70913" lon="0.66745">
        <ele>1583.5</ele>
        <time>2018-08-08T12:33:18.000Z</time>
      </trkpt>
      <trkpt lat="42.70913" lon="0.66745">
        <ele>1583.5</ele>
        <time>2018-08-08T12:33:19.000Z</time>
      </trkpt>
      <trkpt lat="42.70913" lon="0.66746">
        <ele>1583.4</ele>
        <time>2018-08-08T12:33:20.000Z</time>
      </trkpt>
      <trkpt lat="42.70913" lon="0.66746">
        <ele>1583.3</ele>
        <time>2018-08-08T12:33:21.000Z</time>
      </trkpt>
      <trkpt lat="42.70913" lon="0.66746">
        <ele>1583.2</ele>
        <time>2018-08-08T12:33:22.000Z</time>
      </trkpt>
      <trkpt lat="42.70913" lon="0.66747">
        <ele>1583</ele>
        <time>2018-08-08T12:33:23.000Z</time>
      </trkpt>
      <trkpt lat="42.70912" lon="0.66747">
        <ele>1582.9</ele>
        <time>2018-08-08T12:33:24.000Z</time>
      </trkpt>
      <trkpt lat="42.70912" lon="0.66747">
        <ele>1582.8</ele>
        <time>2018-08-08T12:33:25.000Z</time>
      </trkpt>
      <trkpt lat="42.70912" lon="0.66748">
        <ele>1582.7</ele>
        <time>2018-08-08T12:33:26.000Z</time>
      </trkpt>
      <trkpt lat="42.70911" lon="0.66748">
        <ele>1582.7</ele>
        <time>2018-08-08T12:33:27.000Z</time>
      </trkpt>
      <trkpt lat="42.70911" lon="0.66748">
        <ele>1582.7</ele>
        <time>2018-08-08T12:33:28.000Z</time>
      </trkpt>
      <trkpt lat="42.7091" lon="0.66749">
        <ele>1582.7</ele>
        <time>2018-08-08T12:33:29.000Z</time>
      </trkpt>
      <trkpt lat="42.7091" lon="0.66749">
        <ele>1582.7</ele>
        <time>2018-08-08T12:33:30.000Z</time>
      </trkpt>
      <trkpt lat="42.70909" lon="0.66749">
        <ele>1582.8</ele>
        <time>2018-08-08T12:33:31.000Z</time>
      </trkpt>
      <trkpt lat="42.70908" lon="0.66749">
        <ele>1582.8</ele>
        <time>2018-08-08T12:33:32.000Z</time>
      </trkpt>
      <trkpt lat="42.70907" lon="0.66749">
        <ele>1582.9</ele>
        <time>2018-08-08T12:33:33.000Z</time>
      </trkpt>
      <trkpt lat="42.70906" lon="0.66749">
        <ele>1583</ele>
        <time>2018-08-08T12:33:34.000Z</time>
      </trkpt>
      <trkpt lat="42.70905" lon="0.66749">
        <ele>1583.2</ele>
        <time>2018-08-08T12:33:35.000Z</time>
      </trkpt>
      <trkpt lat="42.70904" lon="0.6675">
        <ele>1583.3</ele>
        <time>2018-08-08T12:33:36.000Z</time>
      </trkpt>
      <trkpt lat="42.70903" lon="0.6675">
        <ele>1583.4</ele>
        <time>2018-08-08T12:33:37.000Z</time>
      </trkpt>
      <trkpt lat="42.70902" lon="0.6675">
        <ele>1583.5</ele>
        <time>2018-08-08T12:33:38.000Z</time>
      </trkpt>
      <trkpt lat="42.70902" lon="0.6675">
        <ele>1583.6</ele>
        <time>2018-08-08T12:33:39.000Z</time>
      </trkpt>
      <trkpt lat="42.70901" lon="0.6675">
        <ele>1583.7</ele>
        <time>2018-08-08T12:33:40.000Z</time>
      </trkpt>
      <trkpt lat="42.709" lon="0.6675">
        <ele>1583.9</ele>
        <time>2018-08-08T12:33:41.000Z</time>
      </trkpt>
      <trkpt lat="42.70899" lon="0.6675">
        <ele>1584</ele>
        <time>2018-08-08T12:33:42.000Z</time>
      </trkpt>
      <trkpt lat="42.70898" lon="0.66751">
        <ele>1584.1</ele>
        <time>2018-08-08T12:33:43.000Z</time>
      </trkpt>
      <trkpt lat="42.70897" lon="0.66751">
        <ele>1584.3</ele>
        <time>2018-08-08T12:33:44.000Z</time>
      </trkpt>
      <trkpt lat="42.70896" lon="0.66751">
        <ele>1584.4</ele>
        <time>2018-08-08T12:33:45.000Z</time>
      </trkpt>
      <trkpt lat="42.70895" lon="0.66751">
        <ele>1584.5</ele>
        <time>2018-08-08T12:33:46.000Z</time>
      </trkpt>
      <trkpt lat="42.70895" lon="0.66752">
        <ele>1584.7</ele>
        <time>2018-08-08T12:33:47.000Z</time>
      </trkpt>
      <trkpt lat="42.70894" lon="0.66752">
        <ele>1584.8</ele>
        <time>2018-08-08T12:33:48.000Z</time>
      </trkpt>
      <trkpt lat="42.70893" lon="0.66752">
        <ele>1584.9</ele>
        <time>2018-08-08T12:33:49.000Z</time>
      </trkpt>
      <trkpt lat="42.70892" lon="0.66753">
        <ele>1585</ele>
        <time>2018-08-08T12:33:50.000Z</time>
      </trkpt>
      <trkpt lat="42.70892" lon="0.66753">
        <ele>1585.1</ele>
        <time>2018-08-08T12:33:51.000Z</time>
      </trkpt>
      <trkpt lat="42.70891" lon="0.66753">
        <ele>1585.2</ele>
        <time>2018-08-08T12:33:52.000Z</time>
      </trkpt>
      <trkpt lat="42.7089" lon="0.66753">
        <ele>1585.3</ele>
        <time>2018-08-08T12:33:53.000Z</time>
      </trkpt>
      <trkpt lat="42.7089" lon="0.66754">
        <ele>1585.4</ele>
        <time>2018-08-08T12:33:54.000Z</time>
      </trkpt>
      <trkpt lat="42.70889" lon="0.66754">
        <ele>1585.5</ele>
        <time>2018-08-08T12:33:55.000Z</time>
      </trkpt>
      <trkpt lat="42.70889" lon="0.66754">
        <ele>1585.6</ele>
        <time>2018-08-08T12:33:56.000Z</time>
      </trkpt>
      <trkpt lat="42.70888" lon="0.66754">
        <ele>1585.7</ele>
        <time>2018-08-08T12:33:57.000Z</time>
      </trkpt>
      <trkpt lat="42.70888" lon="0.66754">
        <ele>1585.8</ele>
        <time>2018-08-08T12:33:58.000Z</time>
      </trkpt>
      <trkpt lat="42.70887" lon="0.66754">
        <ele>1585.9</ele>
        <time>2018-08-08T12:33:59.000Z</time>
      </trkpt>
      <trkpt lat="42.70887" lon="0.66754">
        <ele>1585.9</ele>
        <time>2018-08-08T12:34:00.000Z</time>
      </trkpt>
      <trkpt lat="42.70886" lon="0.66754">
        <ele>1586</ele>
        <time>2018-08-08T12:34:01.000Z</time>
      </trkpt>
      <trkpt lat="42.70886" lon="0.66754">
        <ele>1586.1</ele>
        <time>2018-08-08T12:34:02.000Z</time>
      </trkpt>
      <trkpt lat="42.70886" lon="0.66754">
        <ele>1586.1</ele>
        <time>2018-08-08T12:34:03.000Z</time>
      </trkpt>
      <trkpt lat="42.70885" lon="0.66754">
        <ele>1586.1</ele>
        <time>2018-08-08T12:34:04.000Z</time>
      </trkpt>
      <trkpt lat="42.70885" lon="0.66754">
        <ele>1586.1</ele>
        <time>2018-08-08T12:34:05.000Z</time>
      </trkpt>
      <trkpt lat="42.70885" lon="0.66754">
        <ele>1586.2</ele>
        <time>2018-08-08T12:34:06.000Z</time>
      </trkpt>
      <trkpt lat="42.70885" lon="0.66754">
        <ele>1586.2</ele>
        <time>2018-08-08T12:34:07.000Z</time>
      </trkpt>
      <trkpt lat="42.70884" lon="0.66754">
        <ele>1586.4</ele>
        <time>2018-08-08T12:34:08.000Z</time>
      </trkpt>
      <trkpt lat="42.70883" lon="0.66754">
        <ele>1586.5</ele>
        <time>2018-08-08T12:34:09.000Z</time>
      </trkpt>
      <trkpt lat="42.70883" lon="0.66754">
        <ele>1586.6</ele>
        <time>2018-08-08T12:34:10.000Z</time>
      </trkpt>
      <trkpt lat="42.70882" lon="0.66754">
        <ele>1586.8</ele>
        <time>2018-08-08T12:34:11.000Z</time>
      </trkpt>
      <trkpt lat="42.70881" lon="0.66754">
        <ele>1586.9</ele>
        <time>2018-08-08T12:34:12.000Z</time>
      </trkpt>
      <trkpt lat="42.7088" lon="0.66754">
        <ele>1587.1</ele>
        <time>2018-08-08T12:34:13.000Z</time>
      </trkpt>
      <trkpt lat="42.70879" lon="0.66754">
        <ele>1587.2</ele>
        <time>2018-08-08T12:34:14.000Z</time>
      </trkpt>
      <trkpt lat="42.70879" lon="0.66754">
        <ele>1587.3</ele>
        <time>2018-08-08T12:34:15.000Z</time>
      </trkpt>
      <trkpt lat="42.70878" lon="0.66754">
        <ele>1587.5</ele>
        <time>2018-08-08T12:34:16.000Z</time>
      </trkpt>
      <trkpt lat="42.70877" lon="0.66754">
        <ele>1587.6</ele>
        <time>2018-08-08T12:34:17.000Z</time>
      </trkpt>
      <trkpt lat="42.70876" lon="0.66754">
        <ele>1587.7</ele>
        <time>2018-08-08T12:34:18.000Z</time>
      </trkpt>
      <trkpt lat="42.70876" lon="0.66753">
        <ele>1587.8</ele>
        <time>2018-08-08T12:34:19.000Z</time>
      </trkpt>
      <trkpt lat="42.70875" lon="0.66753">
        <ele>1588</ele>
        <time>2018-08-08T12:34:20.000Z</time>
      </trkpt>
      <trkpt lat="42.70874" lon="0.66753">
        <ele>1588.1</ele>
        <time>2018-08-08T12:34:21.000Z</time>
      </trkpt>
      <trkpt lat="42.70874" lon="0.66753">
        <ele>1588.2</ele>
        <time>2018-08-08T12:34:22.000Z</time>
      </trkpt>
      <trkpt lat="42.70873" lon="0.66753">
        <ele>1588.3</ele>
        <time>2018-08-08T12:34:23.000Z</time>
      </trkpt>
      <trkpt lat="42.70872" lon="0.66752">
        <ele>1588.4</ele>
        <time>2018-08-08T12:34:24.000Z</time>
      </trkpt>
      <trkpt lat="42.70872" lon="0.66752">
        <ele>1588.6</ele>
        <time>2018-08-08T12:34:25.000Z</time>
      </trkpt>
      <trkpt lat="42.70871" lon="0.66752">
        <ele>1588.7</ele>
        <time>2018-08-08T12:34:26.000Z</time>
      </trkpt>
      <trkpt lat="42.7087" lon="0.66752">
        <ele>1588.8</ele>
        <time>2018-08-08T12:34:27.000Z</time>
      </trkpt>
      <trkpt lat="42.7087" lon="0.66752">
        <ele>1588.9</ele>
        <time>2018-08-08T12:34:28.000Z</time>
      </trkpt>
      <trkpt lat="42.70869" lon="0.66751">
        <ele>1589</ele>
        <time>2018-08-08T12:34:29.000Z</time>
      </trkpt>
      <trkpt lat="42.70869" lon="0.66751">
        <ele>1589.1</ele>
        <time>2018-08-08T12:34:30.000Z</time>
      </trkpt>
      <trkpt lat="42.70868" lon="0.66751">
        <ele>1589.2</ele>
        <time>2018-08-08T12:34:31.000Z</time>
      </trkpt>
      <trkpt lat="42.70868" lon="0.66751">
        <ele>1589.3</ele>
        <time>2018-08-08T12:34:32.000Z</time>
      </trkpt>
      <trkpt lat="42.70867" lon="0.66751">
        <ele>1589.3</ele>
        <time>2018-08-08T12:34:33.000Z</time>
      </trkpt>
      <trkpt lat="42.70867" lon="0.66751">
        <ele>1589.4</ele>
        <time>2018-08-08T12:34:34.000Z</time>
      </trkpt>
      <trkpt lat="42.70866" lon="0.6675">
        <ele>1589.5</ele>
        <time>2018-08-08T12:34:35.000Z</time>
      </trkpt>
      <trkpt lat="42.70866" lon="0.6675">
        <ele>1589.6</ele>
        <time>2018-08-08T12:34:36.000Z</time>
      </trkpt>
      <trkpt lat="42.70865" lon="0.6675">
        <ele>1589.6</ele>
        <time>2018-08-08T12:34:37.000Z</time>
      </trkpt>
      <trkpt lat="42.70865" lon="0.6675">
        <ele>1589.7</ele>
        <time>2018-08-08T12:34:38.000Z</time>
      </trkpt>
      <trkpt lat="42.70865" lon="0.6675">
        <ele>1589.7</ele>
        <time>2018-08-08T12:34:39.000Z</time>
      </trkpt>
      <trkpt lat="42.70864" lon="0.6675">
        <ele>1589.8</ele>
        <time>2018-08-08T12:34:40.000Z</time>
      </trkpt>
      <trkpt lat="42.70864" lon="0.6675">
        <ele>1589.8</ele>
        <time>2018-08-08T12:34:41.000Z</time>
      </trkpt>
      <trkpt lat="42.70864" lon="0.6675">
        <ele>1589.9</ele>
        <time>2018-08-08T12:34:42.000Z</time>
      </trkpt>
      <trkpt lat="42.70863" lon="0.6675">
        <ele>1589.9</ele>
        <time>2018-08-08T12:34:43.000Z</time>
      </trkpt>
      <trkpt lat="42.70863" lon="0.6675">
        <ele>1590</ele>
        <time>2018-08-08T12:34:44.000Z</time>
      </trkpt>
      <trkpt lat="42.70863" lon="0.6675">
        <ele>1590.1</ele>
        <time>2018-08-08T12:34:45.000Z</time>
      </trkpt>
      <trkpt lat="42.70862" lon="0.6675">
        <ele>1590.2</ele>
        <time>2018-08-08T12:34:46.000Z</time>
      </trkpt>
      <trkpt lat="42.70862" lon="0.6675">
        <ele>1590.4</ele>
        <time>2018-08-08T12:34:47.000Z</time>
      </trkpt>
      <trkpt lat="42.70862" lon="0.66749">
        <ele>1590.7</ele>
        <time>2018-08-08T12:34:48.000Z</time>
      </trkpt>
      <trkpt lat="42.70861" lon="0.66749">
        <ele>1590.9</ele>
        <time>2018-08-08T12:34:49.000Z</time>
      </trkpt>
      <trkpt lat="42.70861" lon="0.66748">
        <ele>1591.2</ele>
        <time>2018-08-08T12:34:50.000Z</time>
      </trkpt>
      <trkpt lat="42.70861" lon="0.66748">
        <ele>1591.5</ele>
        <time>2018-08-08T12:34:51.000Z</time>
      </trkpt>
      <trkpt lat="42.7086" lon="0.66747">
        <ele>1591.8</ele>
        <time>2018-08-08T12:34:52.000Z</time>
      </trkpt>
      <trkpt lat="42.7086" lon="0.66747">
        <ele>1592.1</ele>
        <time>2018-08-08T12:34:53.000Z</time>
      </trkpt>
      <trkpt lat="42.7086" lon="0.66746">
        <ele>1592.5</ele>
        <time>2018-08-08T12:34:54.000Z</time>
      </trkpt>
      <trkpt lat="42.7086" lon="0.66745">
        <ele>1592.8</ele>
        <time>2018-08-08T12:34:55.000Z</time>
      </trkpt>
      <trkpt lat="42.7086" lon="0.66745">
        <ele>1593.2</ele>
        <time>2018-08-08T12:34:56.000Z</time>
      </trkpt>
      <trkpt lat="42.7086" lon="0.66744">
        <ele>1593.6</ele>
        <time>2018-08-08T12:34:57.000Z</time>
      </trkpt>
      <trkpt lat="42.7086" lon="0.66743">
        <ele>1593.9</ele>
        <time>2018-08-08T12:34:58.000Z</time>
      </trkpt>
      <trkpt lat="42.70861" lon="0.66742">
        <ele>1594.3</ele>
        <time>2018-08-08T12:34:59.000Z</time>
      </trkpt>
      <trkpt lat="42.70861" lon="0.66741">
        <ele>1594.7</ele>
        <time>2018-08-08T12:35:00.000Z</time>
      </trkpt>
      <trkpt lat="42.70861" lon="0.66741">
        <ele>1595.1</ele>
        <time>2018-08-08T12:35:01.000Z</time>
      </trkpt>
      <trkpt lat="42.70862" lon="0.6674">
        <ele>1595.4</ele>
        <time>2018-08-08T12:35:02.000Z</time>
      </trkpt>
      <trkpt lat="42.70862" lon="0.66739">
        <ele>1595.8</ele>
        <time>2018-08-08T12:35:03.000Z</time>
      </trkpt>
      <trkpt lat="42.70862" lon="0.66738">
        <ele>1596.2</ele>
        <time>2018-08-08T12:35:04.000Z</time>
      </trkpt>
      <trkpt lat="42.70863" lon="0.66737">
        <ele>1596.5</ele>
        <time>2018-08-08T12:35:05.000Z</time>
      </trkpt>
      <trkpt lat="42.70863" lon="0.66736">
        <ele>1596.9</ele>
        <time>2018-08-08T12:35:06.000Z</time>
      </trkpt>
      <trkpt lat="42.70863" lon="0.66736">
        <ele>1597.2</ele>
        <time>2018-08-08T12:35:07.000Z</time>
      </trkpt>
      <trkpt lat="42.70863" lon="0.66735">
        <ele>1597.5</ele>
        <time>2018-08-08T12:35:08.000Z</time>
      </trkpt>
      <trkpt lat="42.70864" lon="0.66734">
        <ele>1597.8</ele>
        <time>2018-08-08T12:35:09.000Z</time>
      </trkpt>
      <trkpt lat="42.70864" lon="0.66733">
        <ele>1598.1</ele>
        <time>2018-08-08T12:35:10.000Z</time>
      </trkpt>
      <trkpt lat="42.70864" lon="0.66733">
        <ele>1598.4</ele>
        <time>2018-08-08T12:35:11.000Z</time>
      </trkpt>
      <trkpt lat="42.70864" lon="0.66732">
        <ele>1598.7</ele>
        <time>2018-08-08T12:35:12.000Z</time>
      </trkpt>
      <trkpt lat="42.70864" lon="0.66732">
        <ele>1598.9</ele>
        <time>2018-08-08T12:35:13.000Z</time>
      </trkpt>
      <trkpt lat="42.70864" lon="0.66731">
        <ele>1599.1</ele>
        <time>2018-08-08T12:35:14.000Z</time>
      </trkpt>
      <trkpt lat="42.70865" lon="0.66731">
        <ele>1599.3</ele>
        <time>2018-08-08T12:35:15.000Z</time>
      </trkpt>
      <trkpt lat="42.70865" lon="0.6673">
        <ele>1599.5</ele>
        <time>2018-08-08T12:35:16.000Z</time>
      </trkpt>
      <trkpt lat="42.70865" lon="0.6673">
        <ele>1599.6</ele>
        <time>2018-08-08T12:35:17.000Z</time>
      </trkpt>
      <trkpt lat="42.70865" lon="0.6673">
        <ele>1599.9</ele>
        <time>2018-08-08T12:35:18.000Z</time>
      </trkpt>
      <trkpt lat="42.70865" lon="0.66729">
        <ele>1600.1</ele>
        <time>2018-08-08T12:35:19.000Z</time>
      </trkpt>
      <trkpt lat="42.70865" lon="0.66728">
        <ele>1600.5</ele>
        <time>2018-08-08T12:35:20.000Z</time>
      </trkpt>
      <trkpt lat="42.70865" lon="0.66728">
        <ele>1600.8</ele>
        <time>2018-08-08T12:35:21.000Z</time>
      </trkpt>
      <trkpt lat="42.70865" lon="0.66727">
        <ele>1601.2</ele>
        <time>2018-08-08T12:35:22.000Z</time>
      </trkpt>
      <trkpt lat="42.70865" lon="0.66726">
        <ele>1601.4</ele>
        <time>2018-08-08T12:35:23.000Z</time>
      </trkpt>
      <trkpt lat="42.70865" lon="0.66726">
        <ele>1601.6</ele>
        <time>2018-08-08T12:35:24.000Z</time>
      </trkpt>
      <trkpt lat="42.70865" lon="0.66726">
        <ele>1601.8</ele>
        <time>2018-08-08T12:35:25.000Z</time>
      </trkpt>
      <trkpt lat="42.70865" lon="0.66725">
        <ele>1601.9</ele>
        <time>2018-08-08T12:35:26.000Z</time>
      </trkpt>
      <trkpt lat="42.70865" lon="0.66725">
        <ele>1602.1</ele>
        <time>2018-08-08T12:35:27.000Z</time>
      </trkpt>
      <trkpt lat="42.70865" lon="0.66725">
        <ele>1602.3</ele>
        <time>2018-08-08T12:35:28.000Z</time>
      </trkpt>
      <trkpt lat="42.70865" lon="0.66724">
        <ele>1602.5</ele>
        <time>2018-08-08T12:35:29.000Z</time>
      </trkpt>
      <trkpt lat="42.70865" lon="0.66723">
        <ele>1602.9</ele>
        <time>2018-08-08T12:35:30.000Z</time>
      </trkpt>
      <trkpt lat="42.70865" lon="0.66723">
        <ele>1603.3</ele>
        <time>2018-08-08T12:35:31.000Z</time>
      </trkpt>
      <trkpt lat="42.70865" lon="0.66722">
        <ele>1603.8</ele>
        <time>2018-08-08T12:35:32.000Z</time>
      </trkpt>
      <trkpt lat="42.70865" lon="0.66721">
        <ele>1604.3</ele>
        <time>2018-08-08T12:35:33.000Z</time>
      </trkpt>
      <trkpt lat="42.70865" lon="0.6672">
        <ele>1604.7</ele>
        <time>2018-08-08T12:35:34.000Z</time>
      </trkpt>
      <trkpt lat="42.70864" lon="0.66719">
        <ele>1605.2</ele>
        <time>2018-08-08T12:35:35.000Z</time>
      </trkpt>
      <trkpt lat="42.70864" lon="0.66718">
        <ele>1605.5</ele>
        <time>2018-08-08T12:35:36.000Z</time>
      </trkpt>
      <trkpt lat="42.70864" lon="0.66718">
        <ele>1605.9</ele>
        <time>2018-08-08T12:35:37.000Z</time>
      </trkpt>
      <trkpt lat="42.70864" lon="0.66717">
        <ele>1606.1</ele>
        <time>2018-08-08T12:35:38.000Z</time>
      </trkpt>
      <trkpt lat="42.70864" lon="0.66717">
        <ele>1606.3</ele>
        <time>2018-08-08T12:35:39.000Z</time>
      </trkpt>
      <trkpt lat="42.70864" lon="0.66717">
        <ele>1606.5</ele>
        <time>2018-08-08T12:35:40.000Z</time>
      </trkpt>
      <trkpt lat="42.70863" lon="0.66716">
        <ele>1606.7</ele>
        <time>2018-08-08T12:35:41.000Z</time>
      </trkpt>
      <trkpt lat="42.70863" lon="0.66716">
        <ele>1607</ele>
        <time>2018-08-08T12:35:42.000Z</time>
      </trkpt>
      <trkpt lat="42.70863" lon="0.66715">
        <ele>1607.3</ele>
        <time>2018-08-08T12:35:43.000Z</time>
      </trkpt>
      <trkpt lat="42.70863" lon="0.66715">
        <ele>1607.7</ele>
        <time>2018-08-08T12:35:44.000Z</time>
      </trkpt>
      <trkpt lat="42.70863" lon="0.66714">
        <ele>1608.1</ele>
        <time>2018-08-08T12:35:45.000Z</time>
      </trkpt>
      <trkpt lat="42.70863" lon="0.66713">
        <ele>1608.6</ele>
        <time>2018-08-08T12:35:46.000Z</time>
      </trkpt>
      <trkpt lat="42.70863" lon="0.66712">
        <ele>1609.1</ele>
        <time>2018-08-08T12:35:47.000Z</time>
      </trkpt>
      <trkpt lat="42.70864" lon="0.66711">
        <ele>1609.6</ele>
        <time>2018-08-08T12:35:48.000Z</time>
      </trkpt>
      <trkpt lat="42.70864" lon="0.6671">
        <ele>1610</ele>
        <time>2018-08-08T12:35:49.000Z</time>
      </trkpt>
      <trkpt lat="42.70864" lon="0.66709">
        <ele>1610.3</ele>
        <time>2018-08-08T12:35:50.000Z</time>
      </trkpt>
      <trkpt lat="42.70864" lon="0.66709">
        <ele>1610.6</ele>
        <time>2018-08-08T12:35:51.000Z</time>
      </trkpt>
      <trkpt lat="42.70864" lon="0.66708">
        <ele>1610.8</ele>
        <time>2018-08-08T12:35:52.000Z</time>
      </trkpt>
      <trkpt lat="42.70864" lon="0.66708">
        <ele>1610.9</ele>
        <time>2018-08-08T12:35:53.000Z</time>
      </trkpt>
      <trkpt lat="42.70864" lon="0.66708">
        <ele>1611</ele>
        <time>2018-08-08T12:35:54.000Z</time>
      </trkpt>
      <trkpt lat="42.70864" lon="0.66707">
        <ele>1611</ele>
        <time>2018-08-08T12:35:55.000Z</time>
      </trkpt>
      <trkpt lat="42.70864" lon="0.66707">
        <ele>1611.1</ele>
        <time>2018-08-08T12:35:56.000Z</time>
      </trkpt>
      <trkpt lat="42.70864" lon="0.66707">
        <ele>1611.3</ele>
        <time>2018-08-08T12:35:57.000Z</time>
      </trkpt>
      <trkpt lat="42.70865" lon="0.66706">
        <ele>1611.5</ele>
        <time>2018-08-08T12:35:58.000Z</time>
      </trkpt>
      <trkpt lat="42.70865" lon="0.66706">
        <ele>1611.8</ele>
        <time>2018-08-08T12:35:59.000Z</time>
      </trkpt>
      <trkpt lat="42.70865" lon="0.66705">
        <ele>1612.1</ele>
        <time>2018-08-08T12:36:00.000Z</time>
      </trkpt>
      <trkpt lat="42.70865" lon="0.66704">
        <ele>1612.5</ele>
        <time>2018-08-08T12:36:01.000Z</time>
      </trkpt>
      <trkpt lat="42.70866" lon="0.66703">
        <ele>1612.8</ele>
        <time>2018-08-08T12:36:02.000Z</time>
      </trkpt>
      <trkpt lat="42.70866" lon="0.66702">
        <ele>1613.2</ele>
        <time>2018-08-08T12:36:03.000Z</time>
      </trkpt>
      <trkpt lat="42.70866" lon="0.66701">
        <ele>1613.5</ele>
        <time>2018-08-08T12:36:04.000Z</time>
      </trkpt>
      <trkpt lat="42.70866" lon="0.66701">
        <ele>1613.8</ele>
        <time>2018-08-08T12:36:05.000Z</time>
      </trkpt>
      <trkpt lat="42.70866" lon="0.667">
        <ele>1614.1</ele>
        <time>2018-08-08T12:36:06.000Z</time>
      </trkpt>
      <trkpt lat="42.70867" lon="0.66699">
        <ele>1614.3</ele>
        <time>2018-08-08T12:36:07.000Z</time>
      </trkpt>
      <trkpt lat="42.70867" lon="0.66699">
        <ele>1614.6</ele>
        <time>2018-08-08T12:36:08.000Z</time>
      </trkpt>
      <trkpt lat="42.70867" lon="0.66698">
        <ele>1614.7</ele>
        <time>2018-08-08T12:36:09.000Z</time>
      </trkpt>
      <trkpt lat="42.70867" lon="0.66698">
        <ele>1614.9</ele>
        <time>2018-08-08T12:36:10.000Z</time>
      </trkpt>
      <trkpt lat="42.70867" lon="0.66697">
        <ele>1615.1</ele>
        <time>2018-08-08T12:36:11.000Z</time>
      </trkpt>
      <trkpt lat="42.70868" lon="0.66697">
        <ele>1615.3</ele>
        <time>2018-08-08T12:36:12.000Z</time>
      </trkpt>
      <trkpt lat="42.70868" lon="0.66696">
        <ele>1615.5</ele>
        <time>2018-08-08T12:36:13.000Z</time>
      </trkpt>
      <trkpt lat="42.70868" lon="0.66696">
        <ele>1615.7</ele>
        <time>2018-08-08T12:36:14.000Z</time>
      </trkpt>
      <trkpt lat="42.70868" lon="0.66695">
        <ele>1615.9</ele>
        <time>2018-08-08T12:36:15.000Z</time>
      </trkpt>
      <trkpt lat="42.70868" lon="0.66695">
        <ele>1616</ele>
        <time>2018-08-08T12:36:16.000Z</time>
      </trkpt>
      <trkpt lat="42.70869" lon="0.66694">
        <ele>1616.3</ele>
        <time>2018-08-08T12:36:17.000Z</time>
      </trkpt>
      <trkpt lat="42.70869" lon="0.66694">
        <ele>1616.5</ele>
        <time>2018-08-08T12:36:18.000Z</time>
      </trkpt>
      <trkpt lat="42.70869" lon="0.66693">
        <ele>1616.7</ele>
        <time>2018-08-08T12:36:19.000Z</time>
      </trkpt>
      <trkpt lat="42.70869" lon="0.66692">
        <ele>1617</ele>
        <time>2018-08-08T12:36:20.000Z</time>
      </trkpt>
      <trkpt lat="42.7087" lon="0.66692">
        <ele>1617.3</ele>
        <time>2018-08-08T12:36:21.000Z</time>
      </trkpt>
      <trkpt lat="42.7087" lon="0.66691">
        <ele>1617.6</ele>
        <time>2018-08-08T12:36:22.000Z</time>
      </trkpt>
      <trkpt lat="42.7087" lon="0.6669">
        <ele>1617.8</ele>
        <time>2018-08-08T12:36:23.000Z</time>
      </trkpt>
      <trkpt lat="42.70871" lon="0.66689">
        <ele>1618.1</ele>
        <time>2018-08-08T12:36:24.000Z</time>
      </trkpt>
      <trkpt lat="42.70871" lon="0.66689">
        <ele>1618.4</ele>
        <time>2018-08-08T12:36:25.000Z</time>
      </trkpt>
      <trkpt lat="42.70871" lon="0.66688">
        <ele>1618.7</ele>
        <time>2018-08-08T12:36:26.000Z</time>
      </trkpt>
      <trkpt lat="42.70872" lon="0.66687">
        <ele>1619</ele>
        <time>2018-08-08T12:36:27.000Z</time>
      </trkpt>
      <trkpt lat="42.70872" lon="0.66686">
        <ele>1619.3</ele>
        <time>2018-08-08T12:36:28.000Z</time>
      </trkpt>
      <trkpt lat="42.70872" lon="0.66685">
        <ele>1619.6</ele>
        <time>2018-08-08T12:36:29.000Z</time>
      </trkpt>
      <trkpt lat="42.70873" lon="0.66684">
        <ele>1619.9</ele>
        <time>2018-08-08T12:36:30.000Z</time>
      </trkpt>
      <trkpt lat="42.70873" lon="0.66684">
        <ele>1620.1</ele>
        <time>2018-08-08T12:36:31.000Z</time>
      </trkpt>
      <trkpt lat="42.70874" lon="0.66683">
        <ele>1620.3</ele>
        <time>2018-08-08T12:36:32.000Z</time>
      </trkpt>
      <trkpt lat="42.70874" lon="0.66682">
        <ele>1620.5</ele>
        <time>2018-08-08T12:36:33.000Z</time>
      </trkpt>
      <trkpt lat="42.70874" lon="0.66682">
        <ele>1620.6</ele>
        <time>2018-08-08T12:36:34.000Z</time>
      </trkpt>
      <trkpt lat="42.70875" lon="0.66681">
        <ele>1620.7</ele>
        <time>2018-08-08T12:36:35.000Z</time>
      </trkpt>
      <trkpt lat="42.70875" lon="0.66681">
        <ele>1620.8</ele>
        <time>2018-08-08T12:36:36.000Z</time>
      </trkpt>
      <trkpt lat="42.70876" lon="0.6668">
        <ele>1620.9</ele>
        <time>2018-08-08T12:36:37.000Z</time>
      </trkpt>
      <trkpt lat="42.70876" lon="0.6668">
        <ele>1620.9</ele>
        <time>2018-08-08T12:36:38.000Z</time>
      </trkpt>
      <trkpt lat="42.70877" lon="0.66679">
        <ele>1621</ele>
        <time>2018-08-08T12:36:39.000Z</time>
      </trkpt>
      <trkpt lat="42.70877" lon="0.66679">
        <ele>1621</ele>
        <time>2018-08-08T12:36:40.000Z</time>
      </trkpt>
      <trkpt lat="42.70878" lon="0.66679">
        <ele>1621</ele>
        <time>2018-08-08T12:36:41.000Z</time>
      </trkpt>
      <trkpt lat="42.70878" lon="0.66678">
        <ele>1621</ele>
        <time>2018-08-08T12:36:42.000Z</time>
      </trkpt>
      <trkpt lat="42.70879" lon="0.66678">
        <ele>1620.9</ele>
        <time>2018-08-08T12:36:43.000Z</time>
      </trkpt>
      <trkpt lat="42.70879" lon="0.66678">
        <ele>1620.8</ele>
        <time>2018-08-08T12:36:44.000Z</time>
      </trkpt>
      <trkpt lat="42.7088" lon="0.66677">
        <ele>1620.8</ele>
        <time>2018-08-08T12:36:45.000Z</time>
      </trkpt>
      <trkpt lat="42.70881" lon="0.66677">
        <ele>1620.7</ele>
        <time>2018-08-08T12:36:46.000Z</time>
      </trkpt>
      <trkpt lat="42.70882" lon="0.66677">
        <ele>1620.6</ele>
        <time>2018-08-08T12:36:47.000Z</time>
      </trkpt>
      <trkpt lat="42.70882" lon="0.66676">
        <ele>1620.5</ele>
        <time>2018-08-08T12:36:48.000Z</time>
      </trkpt>
      <trkpt lat="42.70883" lon="0.66676">
        <ele>1620.4</ele>
        <time>2018-08-08T12:36:49.000Z</time>
      </trkpt>
      <trkpt lat="42.70884" lon="0.66676">
        <ele>1620.3</ele>
        <time>2018-08-08T12:36:50.000Z</time>
      </trkpt>
      <trkpt lat="42.70885" lon="0.66675">
        <ele>1620.2</ele>
        <time>2018-08-08T12:36:51.000Z</time>
      </trkpt>
      <trkpt lat="42.70886" lon="0.66675">
        <ele>1620.1</ele>
        <time>2018-08-08T12:36:52.000Z</time>
      </trkpt>
      <trkpt lat="42.70886" lon="0.66675">
        <ele>1619.9</ele>
        <time>2018-08-08T12:36:53.000Z</time>
      </trkpt>
      <trkpt lat="42.70887" lon="0.66674">
        <ele>1619.8</ele>
        <time>2018-08-08T12:36:54.000Z</time>
      </trkpt>
      <trkpt lat="42.70888" lon="0.66674">
        <ele>1619.8</ele>
        <time>2018-08-08T12:36:55.000Z</time>
      </trkpt>
      <trkpt lat="42.70889" lon="0.66674">
        <ele>1619.6</ele>
        <time>2018-08-08T12:36:56.000Z</time>
      </trkpt>
      <trkpt lat="42.7089" lon="0.66673">
        <ele>1619.5</ele>
        <time>2018-08-08T12:36:57.000Z</time>
      </trkpt>
      <trkpt lat="42.7089" lon="0.66673">
        <ele>1619.4</ele>
        <time>2018-08-08T12:36:58.000Z</time>
      </trkpt>
      <trkpt lat="42.70891" lon="0.66673">
        <ele>1619.3</ele>
        <time>2018-08-08T12:36:59.000Z</time>
      </trkpt>
      <trkpt lat="42.70891" lon="0.66673">
        <ele>1619.3</ele>
        <time>2018-08-08T12:37:00.000Z</time>
      </trkpt>
      <trkpt lat="42.70892" lon="0.66672">
        <ele>1619.2</ele>
        <time>2018-08-08T12:37:01.000Z</time>
      </trkpt>
      <trkpt lat="42.70892" lon="0.66672">
        <ele>1619.2</ele>
        <time>2018-08-08T12:37:02.000Z</time>
      </trkpt>
      <trkpt lat="42.70892" lon="0.66672">
        <ele>1619.2</ele>
        <time>2018-08-08T12:37:03.000Z</time>
      </trkpt>
      <trkpt lat="42.70893" lon="0.66672">
        <ele>1619.2</ele>
        <time>2018-08-08T12:37:04.000Z</time>
      </trkpt>
      <trkpt lat="42.70893" lon="0.66672">
        <ele>1619.2</ele>
        <time>2018-08-08T12:37:05.000Z</time>
      </trkpt>
      <trkpt lat="42.70893" lon="0.66672">
        <ele>1619.2</ele>
        <time>2018-08-08T12:37:06.000Z</time>
      </trkpt>
      <trkpt lat="42.70893" lon="0.66672">
        <ele>1619.3</ele>
        <time>2018-08-08T12:37:07.000Z</time>
      </trkpt>
      <trkpt lat="42.70892" lon="0.66672">
        <ele>1619.3</ele>
        <time>2018-08-08T12:37:08.000Z</time>
      </trkpt>
      <trkpt lat="42.70892" lon="0.66672">
        <ele>1619.4</ele>
        <time>2018-08-08T12:37:09.000Z</time>
      </trkpt>
      <trkpt lat="42.70892" lon="0.66672">
        <ele>1619.5</ele>
        <time>2018-08-08T12:37:10.000Z</time>
      </trkpt>
      <trkpt lat="42.70891" lon="0.66672">
        <ele>1619.6</ele>
        <time>2018-08-08T12:37:11.000Z</time>
      </trkpt>
      <trkpt lat="42.70891" lon="0.66672">
        <ele>1619.7</ele>
        <time>2018-08-08T12:37:12.000Z</time>
      </trkpt>
      <trkpt lat="42.70891" lon="0.66672">
        <ele>1619.9</ele>
        <time>2018-08-08T12:37:13.000Z</time>
      </trkpt>
      <trkpt lat="42.7089" lon="0.66672">
        <ele>1620.1</ele>
        <time>2018-08-08T12:37:14.000Z</time>
      </trkpt>
      <trkpt lat="42.7089" lon="0.66672">
        <ele>1620.2</ele>
        <time>2018-08-08T12:37:15.000Z</time>
      </trkpt>
      <trkpt lat="42.70889" lon="0.66672">
        <ele>1620.4</ele>
        <time>2018-08-08T12:37:16.000Z</time>
      </trkpt>
      <trkpt lat="42.70888" lon="0.66672">
        <ele>1620.6</ele>
        <time>2018-08-08T12:37:17.000Z</time>
      </trkpt>
      <trkpt lat="42.70888" lon="0.66672">
        <ele>1620.9</ele>
        <time>2018-08-08T12:37:18.000Z</time>
      </trkpt>
      <trkpt lat="42.70887" lon="0.66672">
        <ele>1621.1</ele>
        <time>2018-08-08T12:37:19.000Z</time>
      </trkpt>
      <trkpt lat="42.70886" lon="0.66672">
        <ele>1621.3</ele>
        <time>2018-08-08T12:37:20.000Z</time>
      </trkpt>
      <trkpt lat="42.70885" lon="0.66672">
        <ele>1621.6</ele>
        <time>2018-08-08T12:37:21.000Z</time>
      </trkpt>
      <trkpt lat="42.70885" lon="0.66672">
        <ele>1621.9</ele>
        <time>2018-08-08T12:37:22.000Z</time>
      </trkpt>
      <trkpt lat="42.70884" lon="0.66672">
        <ele>1622.2</ele>
        <time>2018-08-08T12:37:23.000Z</time>
      </trkpt>
      <trkpt lat="42.70883" lon="0.66672">
        <ele>1622.5</ele>
        <time>2018-08-08T12:37:24.000Z</time>
      </trkpt>
      <trkpt lat="42.70882" lon="0.66672">
        <ele>1622.8</ele>
        <time>2018-08-08T12:37:25.000Z</time>
      </trkpt>
      <trkpt lat="42.70881" lon="0.66671">
        <ele>1623.2</ele>
        <time>2018-08-08T12:37:26.000Z</time>
      </trkpt>
      <trkpt lat="42.7088" lon="0.66671">
        <ele>1623.6</ele>
        <time>2018-08-08T12:37:27.000Z</time>
      </trkpt>
      <trkpt lat="42.70879" lon="0.66671">
        <ele>1624</ele>
        <time>2018-08-08T12:37:28.000Z</time>
      </trkpt>
      <trkpt lat="42.70879" lon="0.66671">
        <ele>1624.4</ele>
        <time>2018-08-08T12:37:29.000Z</time>
      </trkpt>
      <trkpt lat="42.70878" lon="0.6667">
        <ele>1624.8</ele>
        <time>2018-08-08T12:37:30.000Z</time>
      </trkpt>
      <trkpt lat="42.70877" lon="0.6667">
        <ele>1625.3</ele>
        <time>2018-08-08T12:37:31.000Z</time>
      </trkpt>
      <trkpt lat="42.70876" lon="0.6667">
        <ele>1625.7</ele>
        <time>2018-08-08T12:37:32.000Z</time>
      </trkpt>
      <trkpt lat="42.70875" lon="0.66669">
        <ele>1626.2</ele>
        <time>2018-08-08T12:37:33.000Z</time>
      </trkpt>
      <trkpt lat="42.70874" lon="0.66669">
        <ele>1626.7</ele>
        <time>2018-08-08T12:37:34.000Z</time>
      </trkpt>
      <trkpt lat="42.70874" lon="0.66668">
        <ele>1627.2</ele>
        <time>2018-08-08T12:37:35.000Z</time>
      </trkpt>
      <trkpt lat="42.70873" lon="0.66668">
        <ele>1627.6</ele>
        <time>2018-08-08T12:37:36.000Z</time>
      </trkpt>
      <trkpt lat="42.70872" lon="0.66668">
        <ele>1628.1</ele>
        <time>2018-08-08T12:37:37.000Z</time>
      </trkpt>
      <trkpt lat="42.70871" lon="0.66667">
        <ele>1628.6</ele>
        <time>2018-08-08T12:37:38.000Z</time>
      </trkpt>
      <trkpt lat="42.70871" lon="0.66667">
        <ele>1629</ele>
        <time>2018-08-08T12:37:39.000Z</time>
      </trkpt>
      <trkpt lat="42.7087" lon="0.66666">
        <ele>1629.5</ele>
        <time>2018-08-08T12:37:40.000Z</time>
      </trkpt>
      <trkpt lat="42.70869" lon="0.66666">
        <ele>1629.9</ele>
        <time>2018-08-08T12:37:41.000Z</time>
      </trkpt>
      <trkpt lat="42.70868" lon="0.66666">
        <ele>1630.3</ele>
        <time>2018-08-08T12:37:42.000Z</time>
      </trkpt>
      <trkpt lat="42.70868" lon="0.66666">
        <ele>1630.6</ele>
        <time>2018-08-08T12:37:43.000Z</time>
      </trkpt>
      <trkpt lat="42.70867" lon="0.66665">
        <ele>1630.9</ele>
        <time>2018-08-08T12:37:44.000Z</time>
      </trkpt>
      <trkpt lat="42.70866" lon="0.66665">
        <ele>1631.2</ele>
        <time>2018-08-08T12:37:45.000Z</time>
      </trkpt>
      <trkpt lat="42.70866" lon="0.66665">
        <ele>1631.4</ele>
        <time>2018-08-08T12:37:46.000Z</time>
      </trkpt>
      <trkpt lat="42.70865" lon="0.66665">
        <ele>1631.6</ele>
        <time>2018-08-08T12:37:47.000Z</time>
      </trkpt>
      <trkpt lat="42.70865" lon="0.66665">
        <ele>1631.8</ele>
        <time>2018-08-08T12:37:48.000Z</time>
      </trkpt>
      <trkpt lat="42.70864" lon="0.66666">
        <ele>1631.9</ele>
        <time>2018-08-08T12:37:49.000Z</time>
      </trkpt>
      <trkpt lat="42.70863" lon="0.66666">
        <ele>1632.1</ele>
        <time>2018-08-08T12:37:50.000Z</time>
      </trkpt>
      <trkpt lat="42.70863" lon="0.66666">
        <ele>1632.2</ele>
        <time>2018-08-08T12:37:51.000Z</time>
      </trkpt>
      <trkpt lat="42.70862" lon="0.66666">
        <ele>1632.3</ele>
        <time>2018-08-08T12:37:52.000Z</time>
      </trkpt>
      <trkpt lat="42.70862" lon="0.66666">
        <ele>1632.4</ele>
        <time>2018-08-08T12:37:53.000Z</time>
      </trkpt>
      <trkpt lat="42.70861" lon="0.66666">
        <ele>1632.4</ele>
        <time>2018-08-08T12:37:54.000Z</time>
      </trkpt>
      <trkpt lat="42.70861" lon="0.66667">
        <ele>1632.5</ele>
        <time>2018-08-08T12:37:55.000Z</time>
      </trkpt>
      <trkpt lat="42.70861" lon="0.66667">
        <ele>1632.5</ele>
        <time>2018-08-08T12:37:56.000Z</time>
      </trkpt>
      <trkpt lat="42.7086" lon="0.66667">
        <ele>1632.6</ele>
        <time>2018-08-08T12:37:57.000Z</time>
      </trkpt>
      <trkpt lat="42.7086" lon="0.66667">
        <ele>1632.7</ele>
        <time>2018-08-08T12:37:58.000Z</time>
      </trkpt>
      <trkpt lat="42.7086" lon="0.66667">
        <ele>1632.8</ele>
        <time>2018-08-08T12:37:59.000Z</time>
      </trkpt>
      <trkpt lat="42.70859" lon="0.66667">
        <ele>1632.9</ele>
        <time>2018-08-08T12:38:00.000Z</time>
      </trkpt>
      <trkpt lat="42.70859" lon="0.66667">
        <ele>1633</ele>
        <time>2018-08-08T12:38:01.000Z</time>
      </trkpt>
      <trkpt lat="42.70859" lon="0.66667">
        <ele>1633.1</ele>
        <time>2018-08-08T12:38:02.000Z</time>
      </trkpt>
      <trkpt lat="42.70858" lon="0.66667">
        <ele>1633.3</ele>
        <time>2018-08-08T12:38:03.000Z</time>
      </trkpt>
      <trkpt lat="42.70858" lon="0.66667">
        <ele>1633.5</ele>
        <time>2018-08-08T12:38:04.000Z</time>
      </trkpt>
      <trkpt lat="42.70857" lon="0.66667">
        <ele>1633.7</ele>
        <time>2018-08-08T12:38:05.000Z</time>
      </trkpt>
      <trkpt lat="42.70856" lon="0.66667">
        <ele>1633.9</ele>
        <time>2018-08-08T12:38:06.000Z</time>
      </trkpt>
      <trkpt lat="42.70856" lon="0.66667">
        <ele>1634</ele>
        <time>2018-08-08T12:38:07.000Z</time>
      </trkpt>
      <trkpt lat="42.70855" lon="0.66667">
        <ele>1634.2</ele>
        <time>2018-08-08T12:38:08.000Z</time>
      </trkpt>
      <trkpt lat="42.70855" lon="0.66667">
        <ele>1634.4</ele>
        <time>2018-08-08T12:38:09.000Z</time>
      </trkpt>
      <trkpt lat="42.70854" lon="0.66667">
        <ele>1634.5</ele>
        <time>2018-08-08T12:38:10.000Z</time>
      </trkpt>
      <trkpt lat="42.70854" lon="0.66667">
        <ele>1634.6</ele>
        <time>2018-08-08T12:38:11.000Z</time>
      </trkpt>
      <trkpt lat="42.70853" lon="0.66667">
        <ele>1634.8</ele>
        <time>2018-08-08T12:38:12.000Z</time>
      </trkpt>
      <trkpt lat="42.70853" lon="0.66667">
        <ele>1634.9</ele>
        <time>2018-08-08T12:38:13.000Z</time>
      </trkpt>
      <trkpt lat="42.70852" lon="0.66667">
        <ele>1635</ele>
        <time>2018-08-08T12:38:14.000Z</time>
      </trkpt>
      <trkpt lat="42.70852" lon="0.66668">
        <ele>1635.1</ele>
        <time>2018-08-08T12:38:15.000Z</time>
      </trkpt>
      <trkpt lat="42.70851" lon="0.66668">
        <ele>1635.3</ele>
        <time>2018-08-08T12:38:16.000Z</time>
      </trkpt>
      <trkpt lat="42.70851" lon="0.66668">
        <ele>1635.5</ele>
        <time>2018-08-08T12:38:17.000Z</time>
      </trkpt>
      <trkpt lat="42.7085" lon="0.66668">
        <ele>1635.6</ele>
        <time>2018-08-08T12:38:18.000Z</time>
      </trkpt>
      <trkpt lat="42.7085" lon="0.66668">
        <ele>1635.7</ele>
        <time>2018-08-08T12:38:19.000Z</time>
      </trkpt>
      <trkpt lat="42.70849" lon="0.66668">
        <ele>1635.9</ele>
        <time>2018-08-08T12:38:20.000Z</time>
      </trkpt>
      <trkpt lat="42.70849" lon="0.66668">
        <ele>1636</ele>
        <time>2018-08-08T12:38:21.000Z</time>
      </trkpt>
      <trkpt lat="42.70848" lon="0.66668">
        <ele>1636.2</ele>
        <time>2018-08-08T12:38:22.000Z</time>
      </trkpt>
      <trkpt lat="42.70847" lon="0.66668">
        <ele>1636.4</ele>
        <time>2018-08-08T12:38:23.000Z</time>
      </trkpt>
      <trkpt lat="42.70847" lon="0.66668">
        <ele>1636.5</ele>
        <time>2018-08-08T12:38:24.000Z</time>
      </trkpt>
      <trkpt lat="42.70846" lon="0.66668">
        <ele>1636.7</ele>
        <time>2018-08-08T12:38:25.000Z</time>
      </trkpt>
      <trkpt lat="42.70846" lon="0.66668">
        <ele>1636.9</ele>
        <time>2018-08-08T12:38:26.000Z</time>
      </trkpt>
      <trkpt lat="42.70845" lon="0.66668">
        <ele>1637</ele>
        <time>2018-08-08T12:38:27.000Z</time>
      </trkpt>
      <trkpt lat="42.70844" lon="0.66668">
        <ele>1637.2</ele>
        <time>2018-08-08T12:38:28.000Z</time>
      </trkpt>
      <trkpt lat="42.70844" lon="0.66668">
        <ele>1637.5</ele>
        <time>2018-08-08T12:38:29.000Z</time>
      </trkpt>
      <trkpt lat="42.70843" lon="0.66668">
        <ele>1637.7</ele>
        <time>2018-08-08T12:38:30.000Z</time>
      </trkpt>
      <trkpt lat="42.70842" lon="0.66669">
        <ele>1637.8</ele>
        <time>2018-08-08T12:38:31.000Z</time>
      </trkpt>
      <trkpt lat="42.70842" lon="0.66669">
        <ele>1638.1</ele>
        <time>2018-08-08T12:38:32.000Z</time>
      </trkpt>
      <trkpt lat="42.70841" lon="0.66669">
        <ele>1638.3</ele>
        <time>2018-08-08T12:38:33.000Z</time>
      </trkpt>
      <trkpt lat="42.70841" lon="0.66669">
        <ele>1638.4</ele>
        <time>2018-08-08T12:38:34.000Z</time>
      </trkpt>
      <trkpt lat="42.7084" lon="0.66669">
        <ele>1638.6</ele>
        <time>2018-08-08T12:38:35.000Z</time>
      </trkpt>
      <trkpt lat="42.7084" lon="0.66668">
        <ele>1638.9</ele>
        <time>2018-08-08T12:38:36.000Z</time>
      </trkpt>
      <trkpt lat="42.70839" lon="0.66668">
        <ele>1639</ele>
        <time>2018-08-08T12:38:37.000Z</time>
      </trkpt>
      <trkpt lat="42.70839" lon="0.66668">
        <ele>1639.2</ele>
        <time>2018-08-08T12:38:38.000Z</time>
      </trkpt>
      <trkpt lat="42.70838" lon="0.66668">
        <ele>1639.3</ele>
        <time>2018-08-08T12:38:39.000Z</time>
      </trkpt>
      <trkpt lat="42.70838" lon="0.66668">
        <ele>1639.5</ele>
        <time>2018-08-08T12:38:40.000Z</time>
      </trkpt>
      <trkpt lat="42.70838" lon="0.66668">
        <ele>1639.6</ele>
        <time>2018-08-08T12:38:41.000Z</time>
      </trkpt>
      <trkpt lat="42.70837" lon="0.66668">
        <ele>1639.6</ele>
        <time>2018-08-08T12:38:42.000Z</time>
      </trkpt>
      <trkpt lat="42.70837" lon="0.66668">
        <ele>1639.7</ele>
        <time>2018-08-08T12:38:43.000Z</time>
      </trkpt>
      <trkpt lat="42.70837" lon="0.66669">
        <ele>1639.7</ele>
        <time>2018-08-08T12:38:44.000Z</time>
      </trkpt>
      <trkpt lat="42.70837" lon="0.66669">
        <ele>1639.8</ele>
        <time>2018-08-08T12:38:45.000Z</time>
      </trkpt>
      <trkpt lat="42.70836" lon="0.66669">
        <ele>1640</ele>
        <time>2018-08-08T12:38:46.000Z</time>
      </trkpt>
      <trkpt lat="42.70836" lon="0.66669">
        <ele>1640.2</ele>
        <time>2018-08-08T12:38:47.000Z</time>
      </trkpt>
      <trkpt lat="42.70835" lon="0.66669">
        <ele>1640.4</ele>
        <time>2018-08-08T12:38:48.000Z</time>
      </trkpt>
      <trkpt lat="42.70834" lon="0.66669">
        <ele>1640.7</ele>
        <time>2018-08-08T12:38:49.000Z</time>
      </trkpt>
      <trkpt lat="42.70833" lon="0.66669">
        <ele>1641</ele>
        <time>2018-08-08T12:38:50.000Z</time>
      </trkpt>
      <trkpt lat="42.70832" lon="0.66669">
        <ele>1641.1</ele>
        <time>2018-08-08T12:38:51.000Z</time>
      </trkpt>
      <trkpt lat="42.70832" lon="0.66669">
        <ele>1641.3</ele>
        <time>2018-08-08T12:38:52.000Z</time>
      </trkpt>
      <trkpt lat="42.70831" lon="0.66669">
        <ele>1641.4</ele>
        <time>2018-08-08T12:38:53.000Z</time>
      </trkpt>
      <trkpt lat="42.7083" lon="0.66669">
        <ele>1641.5</ele>
        <time>2018-08-08T12:38:54.000Z</time>
      </trkpt>
      <trkpt lat="42.7083" lon="0.66669">
        <ele>1641.6</ele>
        <time>2018-08-08T12:38:55.000Z</time>
      </trkpt>
      <trkpt lat="42.70829" lon="0.6667">
        <ele>1641.6</ele>
        <time>2018-08-08T12:38:56.000Z</time>
      </trkpt>
      <trkpt lat="42.70829" lon="0.6667">
        <ele>1641.6</ele>
        <time>2018-08-08T12:38:57.000Z</time>
      </trkpt>
      <trkpt lat="42.70828" lon="0.6667">
        <ele>1641.7</ele>
        <time>2018-08-08T12:38:58.000Z</time>
      </trkpt>
      <trkpt lat="42.70828" lon="0.6667">
        <ele>1641.6</ele>
        <time>2018-08-08T12:38:59.000Z</time>
      </trkpt>
      <trkpt lat="42.70828" lon="0.6667">
        <ele>1641.7</ele>
        <time>2018-08-08T12:39:00.000Z</time>
      </trkpt>
      <trkpt lat="42.70828" lon="0.6667">
        <ele>1641.7</ele>
        <time>2018-08-08T12:39:01.000Z</time>
      </trkpt>
      <trkpt lat="42.70827" lon="0.6667">
        <ele>1641.8</ele>
        <time>2018-08-08T12:39:02.000Z</time>
      </trkpt>
      <trkpt lat="42.70827" lon="0.6667">
        <ele>1641.9</ele>
        <time>2018-08-08T12:39:03.000Z</time>
      </trkpt>
      <trkpt lat="42.70826" lon="0.6667">
        <ele>1642.1</ele>
        <time>2018-08-08T12:39:04.000Z</time>
      </trkpt>
      <trkpt lat="42.70826" lon="0.6667">
        <ele>1642.3</ele>
        <time>2018-08-08T12:39:05.000Z</time>
      </trkpt>
      <trkpt lat="42.70825" lon="0.6667">
        <ele>1642.7</ele>
        <time>2018-08-08T12:39:06.000Z</time>
      </trkpt>
      <trkpt lat="42.70824" lon="0.6667">
        <ele>1643</ele>
        <time>2018-08-08T12:39:07.000Z</time>
      </trkpt>
      <trkpt lat="42.70823" lon="0.6667">
        <ele>1643.3</ele>
        <time>2018-08-08T12:39:08.000Z</time>
      </trkpt>
      <trkpt lat="42.70822" lon="0.66669">
        <ele>1643.6</ele>
        <time>2018-08-08T12:39:09.000Z</time>
      </trkpt>
      <trkpt lat="42.70821" lon="0.66669">
        <ele>1643.9</ele>
        <time>2018-08-08T12:39:10.000Z</time>
      </trkpt>
      <trkpt lat="42.7082" lon="0.66669">
        <ele>1644.1</ele>
        <time>2018-08-08T12:39:11.000Z</time>
      </trkpt>
      <trkpt lat="42.70819" lon="0.6667">
        <ele>1644.2</ele>
        <time>2018-08-08T12:39:12.000Z</time>
      </trkpt>
      <trkpt lat="42.70819" lon="0.6667">
        <ele>1644.3</ele>
        <time>2018-08-08T12:39:13.000Z</time>
      </trkpt>
      <trkpt lat="42.70818" lon="0.6667">
        <ele>1644.4</ele>
        <time>2018-08-08T12:39:14.000Z</time>
      </trkpt>
      <trkpt lat="42.70818" lon="0.6667">
        <ele>1644.4</ele>
        <time>2018-08-08T12:39:15.000Z</time>
      </trkpt>
      <trkpt lat="42.70817" lon="0.66671">
        <ele>1644.3</ele>
        <time>2018-08-08T12:39:16.000Z</time>
      </trkpt>
      <trkpt lat="42.70816" lon="0.66671">
        <ele>1644.2</ele>
        <time>2018-08-08T12:39:17.000Z</time>
      </trkpt>
      <trkpt lat="42.70816" lon="0.66672">
        <ele>1644</ele>
        <time>2018-08-08T12:39:18.000Z</time>
      </trkpt>
      <trkpt lat="42.70816" lon="0.66672">
        <ele>1643.8</ele>
        <time>2018-08-08T12:39:19.000Z</time>
      </trkpt>
      <trkpt lat="42.70815" lon="0.66673">
        <ele>1643.7</ele>
        <time>2018-08-08T12:39:20.000Z</time>
      </trkpt>
      <trkpt lat="42.70815" lon="0.66673">
        <ele>1643.5</ele>
        <time>2018-08-08T12:39:21.000Z</time>
      </trkpt>
      <trkpt lat="42.70814" lon="0.66674">
        <ele>1643.2</ele>
        <time>2018-08-08T12:39:22.000Z</time>
      </trkpt>
      <trkpt lat="42.70814" lon="0.66675">
        <ele>1643</ele>
        <time>2018-08-08T12:39:23.000Z</time>
      </trkpt>
      <trkpt lat="42.70814" lon="0.66675">
        <ele>1642.8</ele>
        <time>2018-08-08T12:39:24.000Z</time>
      </trkpt>
      <trkpt lat="42.70813" lon="0.66676">
        <ele>1642.6</ele>
        <time>2018-08-08T12:39:25.000Z</time>
      </trkpt>
      <trkpt lat="42.70813" lon="0.66676">
        <ele>1642.4</ele>
        <time>2018-08-08T12:39:26.000Z</time>
      </trkpt>
      <trkpt lat="42.70812" lon="0.66677">
        <ele>1642.2</ele>
        <time>2018-08-08T12:39:27.000Z</time>
      </trkpt>
      <trkpt lat="42.70812" lon="0.66678">
        <ele>1641.9</ele>
        <time>2018-08-08T12:39:28.000Z</time>
      </trkpt>
      <trkpt lat="42.70812" lon="0.66678">
        <ele>1641.8</ele>
        <time>2018-08-08T12:39:29.000Z</time>
      </trkpt>
      <trkpt lat="42.70811" lon="0.66679">
        <ele>1641.6</ele>
        <time>2018-08-08T12:39:30.000Z</time>
      </trkpt>
      <trkpt lat="42.70811" lon="0.66679">
        <ele>1641.5</ele>
        <time>2018-08-08T12:39:31.000Z</time>
      </trkpt>
      <trkpt lat="42.7081" lon="0.6668">
        <ele>1641.3</ele>
        <time>2018-08-08T12:39:32.000Z</time>
      </trkpt>
      <trkpt lat="42.70809" lon="0.6668">
        <ele>1641.2</ele>
        <time>2018-08-08T12:39:33.000Z</time>
      </trkpt>
      <trkpt lat="42.70809" lon="0.66681">
        <ele>1641.1</ele>
        <time>2018-08-08T12:39:34.000Z</time>
      </trkpt>
      <trkpt lat="42.70808" lon="0.66681">
        <ele>1640.9</ele>
        <time>2018-08-08T12:39:35.000Z</time>
      </trkpt>
      <trkpt lat="42.70808" lon="0.66682">
        <ele>1640.9</ele>
        <time>2018-08-08T12:39:36.000Z</time>
      </trkpt>
      <trkpt lat="42.70807" lon="0.66682">
        <ele>1640.8</ele>
        <time>2018-08-08T12:39:37.000Z</time>
      </trkpt>
      <trkpt lat="42.70807" lon="0.66683">
        <ele>1640.7</ele>
        <time>2018-08-08T12:39:38.000Z</time>
      </trkpt>
      <trkpt lat="42.70806" lon="0.66683">
        <ele>1640.6</ele>
        <time>2018-08-08T12:39:39.000Z</time>
      </trkpt>
      <trkpt lat="42.70806" lon="0.66683">
        <ele>1640.6</ele>
        <time>2018-08-08T12:39:40.000Z</time>
      </trkpt>
      <trkpt lat="42.70805" lon="0.66684">
        <ele>1640.5</ele>
        <time>2018-08-08T12:39:41.000Z</time>
      </trkpt>
      <trkpt lat="42.70805" lon="0.66684">
        <ele>1640.4</ele>
        <time>2018-08-08T12:39:42.000Z</time>
      </trkpt>
      <trkpt lat="42.70804" lon="0.66685">
        <ele>1640.4</ele>
        <time>2018-08-08T12:39:43.000Z</time>
      </trkpt>
      <trkpt lat="42.70803" lon="0.66685">
        <ele>1640.4</ele>
        <time>2018-08-08T12:39:44.000Z</time>
      </trkpt>
      <trkpt lat="42.70803" lon="0.66685">
        <ele>1640.4</ele>
        <time>2018-08-08T12:39:45.000Z</time>
      </trkpt>
      <trkpt lat="42.70802" lon="0.66686">
        <ele>1640.3</ele>
        <time>2018-08-08T12:39:46.000Z</time>
      </trkpt>
      <trkpt lat="42.70802" lon="0.66686">
        <ele>1640.3</ele>
        <time>2018-08-08T12:39:47.000Z</time>
      </trkpt>
      <trkpt lat="42.70801" lon="0.66686">
        <ele>1640.3</ele>
        <time>2018-08-08T12:39:48.000Z</time>
      </trkpt>
      <trkpt lat="42.70801" lon="0.66687">
        <ele>1640.3</ele>
        <time>2018-08-08T12:39:49.000Z</time>
      </trkpt>
      <trkpt lat="42.708" lon="0.66687">
        <ele>1640.3</ele>
        <time>2018-08-08T12:39:50.000Z</time>
      </trkpt>
      <trkpt lat="42.70799" lon="0.66687">
        <ele>1640.3</ele>
        <time>2018-08-08T12:39:51.000Z</time>
      </trkpt>
      <trkpt lat="42.70799" lon="0.66688">
        <ele>1640.3</ele>
        <time>2018-08-08T12:39:52.000Z</time>
      </trkpt>
      <trkpt lat="42.70798" lon="0.66688">
        <ele>1640.3</ele>
        <time>2018-08-08T12:39:53.000Z</time>
      </trkpt>
      <trkpt lat="42.70797" lon="0.66688">
        <ele>1640.3</ele>
        <time>2018-08-08T12:39:54.000Z</time>
      </trkpt>
      <trkpt lat="42.70797" lon="0.66689">
        <ele>1640.3</ele>
        <time>2018-08-08T12:39:55.000Z</time>
      </trkpt>
      <trkpt lat="42.70796" lon="0.66689">
        <ele>1640.3</ele>
        <time>2018-08-08T12:39:56.000Z</time>
      </trkpt>
      <trkpt lat="42.70796" lon="0.66689">
        <ele>1640.3</ele>
        <time>2018-08-08T12:39:57.000Z</time>
      </trkpt>
      <trkpt lat="42.70795" lon="0.6669">
        <ele>1640.3</ele>
        <time>2018-08-08T12:39:58.000Z</time>
      </trkpt>
      <trkpt lat="42.70794" lon="0.6669">
        <ele>1640.3</ele>
        <time>2018-08-08T12:39:59.000Z</time>
      </trkpt>
      <trkpt lat="42.70794" lon="0.6669">
        <ele>1640.3</ele>
        <time>2018-08-08T12:40:00.000Z</time>
      </trkpt>
      <trkpt lat="42.70793" lon="0.66691">
        <ele>1640.2</ele>
        <time>2018-08-08T12:40:01.000Z</time>
      </trkpt>
      <trkpt lat="42.70793" lon="0.66691">
        <ele>1640.1</ele>
        <time>2018-08-08T12:40:02.000Z</time>
      </trkpt>
      <trkpt lat="42.70793" lon="0.66691">
        <ele>1640</ele>
        <time>2018-08-08T12:40:03.000Z</time>
      </trkpt>
      <trkpt lat="42.70792" lon="0.66692">
        <ele>1639.9</ele>
        <time>2018-08-08T12:40:04.000Z</time>
      </trkpt>
      <trkpt lat="42.70792" lon="0.66692">
        <ele>1639.9</ele>
        <time>2018-08-08T12:40:05.000Z</time>
      </trkpt>
      <trkpt lat="42.70792" lon="0.66693">
        <ele>1639.8</ele>
        <time>2018-08-08T12:40:06.000Z</time>
      </trkpt>
      <trkpt lat="42.70791" lon="0.66693">
        <ele>1639.7</ele>
        <time>2018-08-08T12:40:07.000Z</time>
      </trkpt>
      <trkpt lat="42.70791" lon="0.66693">
        <ele>1639.7</ele>
        <time>2018-08-08T12:40:08.000Z</time>
      </trkpt>
      <trkpt lat="42.7079" lon="0.66694">
        <ele>1639.6</ele>
        <time>2018-08-08T12:40:09.000Z</time>
      </trkpt>
      <trkpt lat="42.70789" lon="0.66694">
        <ele>1639.7</ele>
        <time>2018-08-08T12:40:10.000Z</time>
      </trkpt>
      <trkpt lat="42.70788" lon="0.66694">
        <ele>1639.8</ele>
        <time>2018-08-08T12:40:11.000Z</time>
      </trkpt>
      <trkpt lat="42.70788" lon="0.66695">
        <ele>1639.8</ele>
        <time>2018-08-08T12:40:12.000Z</time>
      </trkpt>
      <trkpt lat="42.70787" lon="0.66695">
        <ele>1639.9</ele>
        <time>2018-08-08T12:40:13.000Z</time>
      </trkpt>
      <trkpt lat="42.70786" lon="0.66695">
        <ele>1640</ele>
        <time>2018-08-08T12:40:14.000Z</time>
      </trkpt>
      <trkpt lat="42.70785" lon="0.66696">
        <ele>1640.2</ele>
        <time>2018-08-08T12:40:15.000Z</time>
      </trkpt>
      <trkpt lat="42.70784" lon="0.66696">
        <ele>1640.4</ele>
        <time>2018-08-08T12:40:16.000Z</time>
      </trkpt>
      <trkpt lat="42.70783" lon="0.66696">
        <ele>1640.5</ele>
        <time>2018-08-08T12:40:17.000Z</time>
      </trkpt>
      <trkpt lat="42.70782" lon="0.66696">
        <ele>1640.7</ele>
        <time>2018-08-08T12:40:18.000Z</time>
      </trkpt>
      <trkpt lat="42.70781" lon="0.66697">
        <ele>1640.9</ele>
        <time>2018-08-08T12:40:19.000Z</time>
      </trkpt>
      <trkpt lat="42.7078" lon="0.66697">
        <ele>1641.1</ele>
        <time>2018-08-08T12:40:20.000Z</time>
      </trkpt>
      <trkpt lat="42.70779" lon="0.66697">
        <ele>1641.2</ele>
        <time>2018-08-08T12:40:21.000Z</time>
      </trkpt>
      <trkpt lat="42.70778" lon="0.66697">
        <ele>1641.4</ele>
        <time>2018-08-08T12:40:22.000Z</time>
      </trkpt>
      <trkpt lat="42.70777" lon="0.66697">
        <ele>1641.6</ele>
        <time>2018-08-08T12:40:23.000Z</time>
      </trkpt>
      <trkpt lat="42.70776" lon="0.66698">
        <ele>1641.8</ele>
        <time>2018-08-08T12:40:24.000Z</time>
      </trkpt>
      <trkpt lat="42.70775" lon="0.66698">
        <ele>1641.9</ele>
        <time>2018-08-08T12:40:25.000Z</time>
      </trkpt>
      <trkpt lat="42.70774" lon="0.66698">
        <ele>1642.1</ele>
        <time>2018-08-08T12:40:26.000Z</time>
      </trkpt>
      <trkpt lat="42.70773" lon="0.66698">
        <ele>1642.3</ele>
        <time>2018-08-08T12:40:27.000Z</time>
      </trkpt>
      <trkpt lat="42.70773" lon="0.66698">
        <ele>1642.5</ele>
        <time>2018-08-08T12:40:28.000Z</time>
      </trkpt>
      <trkpt lat="42.70772" lon="0.66698">
        <ele>1642.6</ele>
        <time>2018-08-08T12:40:29.000Z</time>
      </trkpt>
      <trkpt lat="42.70771" lon="0.66698">
        <ele>1642.8</ele>
        <time>2018-08-08T12:40:30.000Z</time>
      </trkpt>
      <trkpt lat="42.70771" lon="0.66698">
        <ele>1642.9</ele>
        <time>2018-08-08T12:40:31.000Z</time>
      </trkpt>
      <trkpt lat="42.7077" lon="0.66698">
        <ele>1643.1</ele>
        <time>2018-08-08T12:40:32.000Z</time>
      </trkpt>
      <trkpt lat="42.70769" lon="0.66698">
        <ele>1643.2</ele>
        <time>2018-08-08T12:40:33.000Z</time>
      </trkpt>
      <trkpt lat="42.70769" lon="0.66698">
        <ele>1643.4</ele>
        <time>2018-08-08T12:40:34.000Z</time>
      </trkpt>
      <trkpt lat="42.70768" lon="0.66699">
        <ele>1643.6</ele>
        <time>2018-08-08T12:40:35.000Z</time>
      </trkpt>
      <trkpt lat="42.70767" lon="0.66699">
        <ele>1643.8</ele>
        <time>2018-08-08T12:40:36.000Z</time>
      </trkpt>
      <trkpt lat="42.70767" lon="0.66699">
        <ele>1643.9</ele>
        <time>2018-08-08T12:40:37.000Z</time>
      </trkpt>
      <trkpt lat="42.70766" lon="0.66699">
        <ele>1644.1</ele>
        <time>2018-08-08T12:40:38.000Z</time>
      </trkpt>
      <trkpt lat="42.70766" lon="0.66698">
        <ele>1644.3</ele>
        <time>2018-08-08T12:40:39.000Z</time>
      </trkpt>
      <trkpt lat="42.70765" lon="0.66698">
        <ele>1644.6</ele>
        <time>2018-08-08T12:40:40.000Z</time>
      </trkpt>
      <trkpt lat="42.70764" lon="0.66698">
        <ele>1644.7</ele>
        <time>2018-08-08T12:40:41.000Z</time>
      </trkpt>
      <trkpt lat="42.70764" lon="0.66698">
        <ele>1645</ele>
        <time>2018-08-08T12:40:42.000Z</time>
      </trkpt>
      <trkpt lat="42.70763" lon="0.66698">
        <ele>1645.2</ele>
        <time>2018-08-08T12:40:43.000Z</time>
      </trkpt>
      <trkpt lat="42.70762" lon="0.66698">
        <ele>1645.5</ele>
        <time>2018-08-08T12:40:44.000Z</time>
      </trkpt>
      <trkpt lat="42.70762" lon="0.66698">
        <ele>1645.7</ele>
        <time>2018-08-08T12:40:45.000Z</time>
      </trkpt>
      <trkpt lat="42.70761" lon="0.66698">
        <ele>1646</ele>
        <time>2018-08-08T12:40:46.000Z</time>
      </trkpt>
      <trkpt lat="42.7076" lon="0.66698">
        <ele>1646.3</ele>
        <time>2018-08-08T12:40:47.000Z</time>
      </trkpt>
      <trkpt lat="42.70759" lon="0.66698">
        <ele>1646.6</ele>
        <time>2018-08-08T12:40:48.000Z</time>
      </trkpt>
      <trkpt lat="42.70758" lon="0.66698">
        <ele>1646.9</ele>
        <time>2018-08-08T12:40:49.000Z</time>
      </trkpt>
      <trkpt lat="42.70757" lon="0.66698">
        <ele>1647.2</ele>
        <time>2018-08-08T12:40:50.000Z</time>
      </trkpt>
      <trkpt lat="42.70757" lon="0.66698">
        <ele>1647.5</ele>
        <time>2018-08-08T12:40:51.000Z</time>
      </trkpt>
      <trkpt lat="42.70756" lon="0.66697">
        <ele>1647.9</ele>
        <time>2018-08-08T12:40:52.000Z</time>
      </trkpt>
      <trkpt lat="42.70755" lon="0.66697">
        <ele>1648.3</ele>
        <time>2018-08-08T12:40:53.000Z</time>
      </trkpt>
      <trkpt lat="42.70753" lon="0.66697">
        <ele>1648.6</ele>
        <time>2018-08-08T12:40:54.000Z</time>
      </trkpt>
      <trkpt lat="42.70752" lon="0.66697">
        <ele>1649</ele>
        <time>2018-08-08T12:40:55.000Z</time>
      </trkpt>
      <trkpt lat="42.70751" lon="0.66697">
        <ele>1649.5</ele>
        <time>2018-08-08T12:40:56.000Z</time>
      </trkpt>
      <trkpt lat="42.7075" lon="0.66697">
        <ele>1649.9</ele>
        <time>2018-08-08T12:40:57.000Z</time>
      </trkpt>
      <trkpt lat="42.70749" lon="0.66696">
        <ele>1650.3</ele>
        <time>2018-08-08T12:40:58.000Z</time>
      </trkpt>
      <trkpt lat="42.70748" lon="0.66696">
        <ele>1650.7</ele>
        <time>2018-08-08T12:40:59.000Z</time>
      </trkpt>
      <trkpt lat="42.70747" lon="0.66696">
        <ele>1651.2</ele>
        <time>2018-08-08T12:41:00.000Z</time>
      </trkpt>
      <trkpt lat="42.70746" lon="0.66695">
        <ele>1651.6</ele>
        <time>2018-08-08T12:41:01.000Z</time>
      </trkpt>
      <trkpt lat="42.70745" lon="0.66695">
        <ele>1652.1</ele>
        <time>2018-08-08T12:41:02.000Z</time>
      </trkpt>
      <trkpt lat="42.70745" lon="0.66695">
        <ele>1652.5</ele>
        <time>2018-08-08T12:41:03.000Z</time>
      </trkpt>
      <trkpt lat="42.70744" lon="0.66694">
        <ele>1653</ele>
        <time>2018-08-08T12:41:04.000Z</time>
      </trkpt>
      <trkpt lat="42.70743" lon="0.66693">
        <ele>1653.5</ele>
        <time>2018-08-08T12:41:05.000Z</time>
      </trkpt>
      <trkpt lat="42.70743" lon="0.66693">
        <ele>1653.9</ele>
        <time>2018-08-08T12:41:06.000Z</time>
      </trkpt>
      <trkpt lat="42.70742" lon="0.66692">
        <ele>1654.4</ele>
        <time>2018-08-08T12:41:07.000Z</time>
      </trkpt>
      <trkpt lat="42.70742" lon="0.66691">
        <ele>1654.9</ele>
        <time>2018-08-08T12:41:08.000Z</time>
      </trkpt>
      <trkpt lat="42.70741" lon="0.66691">
        <ele>1655.4</ele>
        <time>2018-08-08T12:41:09.000Z</time>
      </trkpt>
      <trkpt lat="42.70741" lon="0.6669">
        <ele>1655.8</ele>
        <time>2018-08-08T12:41:10.000Z</time>
      </trkpt>
      <trkpt lat="42.70741" lon="0.66689">
        <ele>1656.3</ele>
        <time>2018-08-08T12:41:11.000Z</time>
      </trkpt>
      <trkpt lat="42.7074" lon="0.66689">
        <ele>1656.7</ele>
        <time>2018-08-08T12:41:12.000Z</time>
      </trkpt>
      <trkpt lat="42.7074" lon="0.66688">
        <ele>1657.2</ele>
        <time>2018-08-08T12:41:13.000Z</time>
      </trkpt>
      <trkpt lat="42.70739" lon="0.66688">
        <ele>1657.6</ele>
        <time>2018-08-08T12:41:14.000Z</time>
      </trkpt>
      <trkpt lat="42.70738" lon="0.66687">
        <ele>1658</ele>
        <time>2018-08-08T12:41:15.000Z</time>
      </trkpt>
      <trkpt lat="42.70737" lon="0.66687">
        <ele>1658.4</ele>
        <time>2018-08-08T12:41:16.000Z</time>
      </trkpt>
      <trkpt lat="42.70737" lon="0.66687">
        <ele>1658.8</ele>
        <time>2018-08-08T12:41:17.000Z</time>
      </trkpt>
      <trkpt lat="42.70736" lon="0.66687">
        <ele>1659.1</ele>
        <time>2018-08-08T12:41:18.000Z</time>
      </trkpt>
      <trkpt lat="42.70735" lon="0.66686">
        <ele>1659.4</ele>
        <time>2018-08-08T12:41:19.000Z</time>
      </trkpt>
      <trkpt lat="42.70734" lon="0.66686">
        <ele>1659.7</ele>
        <time>2018-08-08T12:41:20.000Z</time>
      </trkpt>
      <trkpt lat="42.70733" lon="0.66686">
        <ele>1659.9</ele>
        <time>2018-08-08T12:41:21.000Z</time>
      </trkpt>
      <trkpt lat="42.70732" lon="0.66687">
        <ele>1660.1</ele>
        <time>2018-08-08T12:41:22.000Z</time>
      </trkpt>
      <trkpt lat="42.70731" lon="0.66687">
        <ele>1660.3</ele>
        <time>2018-08-08T12:41:23.000Z</time>
      </trkpt>
      <trkpt lat="42.7073" lon="0.66687">
        <ele>1660.5</ele>
        <time>2018-08-08T12:41:24.000Z</time>
      </trkpt>
      <trkpt lat="42.70729" lon="0.66687">
        <ele>1660.6</ele>
        <time>2018-08-08T12:41:25.000Z</time>
      </trkpt>
      <trkpt lat="42.70729" lon="0.66687">
        <ele>1660.7</ele>
        <time>2018-08-08T12:41:26.000Z</time>
      </trkpt>
      <trkpt lat="42.70728" lon="0.66688">
        <ele>1660.8</ele>
        <time>2018-08-08T12:41:27.000Z</time>
      </trkpt>
      <trkpt lat="42.70727" lon="0.66688">
        <ele>1660.9</ele>
        <time>2018-08-08T12:41:28.000Z</time>
      </trkpt>
      <trkpt lat="42.70727" lon="0.66688">
        <ele>1660.8</ele>
        <time>2018-08-08T12:41:29.000Z</time>
      </trkpt>
      <trkpt lat="42.70726" lon="0.66688">
        <ele>1660.9</ele>
        <time>2018-08-08T12:41:30.000Z</time>
      </trkpt>
      <trkpt lat="42.70725" lon="0.66689">
        <ele>1660.8</ele>
        <time>2018-08-08T12:41:31.000Z</time>
      </trkpt>
      <trkpt lat="42.70725" lon="0.66689">
        <ele>1660.8</ele>
        <time>2018-08-08T12:41:32.000Z</time>
      </trkpt>
      <trkpt lat="42.70724" lon="0.6669">
        <ele>1660.8</ele>
        <time>2018-08-08T12:41:33.000Z</time>
      </trkpt>
      <trkpt lat="42.70723" lon="0.6669">
        <ele>1660.8</ele>
        <time>2018-08-08T12:41:34.000Z</time>
      </trkpt>
      <trkpt lat="42.70723" lon="0.66691">
        <ele>1660.7</ele>
        <time>2018-08-08T12:41:35.000Z</time>
      </trkpt>
      <trkpt lat="42.70722" lon="0.66691">
        <ele>1660.6</ele>
        <time>2018-08-08T12:41:36.000Z</time>
      </trkpt>
      <trkpt lat="42.70722" lon="0.66691">
        <ele>1660.5</ele>
        <time>2018-08-08T12:41:37.000Z</time>
      </trkpt>
      <trkpt lat="42.70721" lon="0.66692">
        <ele>1660.4</ele>
        <time>2018-08-08T12:41:38.000Z</time>
      </trkpt>
      <trkpt lat="42.70721" lon="0.66692">
        <ele>1660.4</ele>
        <time>2018-08-08T12:41:39.000Z</time>
      </trkpt>
      <trkpt lat="42.7072" lon="0.66693">
        <ele>1660.3</ele>
        <time>2018-08-08T12:41:40.000Z</time>
      </trkpt>
      <trkpt lat="42.7072" lon="0.66693">
        <ele>1660.2</ele>
        <time>2018-08-08T12:41:41.000Z</time>
      </trkpt>
      <trkpt lat="42.70719" lon="0.66694">
        <ele>1660.2</ele>
        <time>2018-08-08T12:41:42.000Z</time>
      </trkpt>
      <trkpt lat="42.70719" lon="0.66694">
        <ele>1660.1</ele>
        <time>2018-08-08T12:41:43.000Z</time>
      </trkpt>
      <trkpt lat="42.70718" lon="0.66695">
        <ele>1660</ele>
        <time>2018-08-08T12:41:44.000Z</time>
      </trkpt>
      <trkpt lat="42.70717" lon="0.66695">
        <ele>1660</ele>
        <time>2018-08-08T12:41:45.000Z</time>
      </trkpt>
      <trkpt lat="42.70717" lon="0.66695">
        <ele>1660</ele>
        <time>2018-08-08T12:41:46.000Z</time>
      </trkpt>
      <trkpt lat="42.70716" lon="0.66696">
        <ele>1660</ele>
        <time>2018-08-08T12:41:47.000Z</time>
      </trkpt>
      <trkpt lat="42.70715" lon="0.66696">
        <ele>1660.1</ele>
        <time>2018-08-08T12:41:48.000Z</time>
      </trkpt>
      <trkpt lat="42.70715" lon="0.66696">
        <ele>1660.2</ele>
        <time>2018-08-08T12:41:49.000Z</time>
      </trkpt>
      <trkpt lat="42.70714" lon="0.66697">
        <ele>1660.2</ele>
        <time>2018-08-08T12:41:50.000Z</time>
      </trkpt>
      <trkpt lat="42.70713" lon="0.66697">
        <ele>1660.4</ele>
        <time>2018-08-08T12:41:51.000Z</time>
      </trkpt>
      <trkpt lat="42.70712" lon="0.66697">
        <ele>1660.5</ele>
        <time>2018-08-08T12:41:52.000Z</time>
      </trkpt>
      <trkpt lat="42.70712" lon="0.66697">
        <ele>1660.7</ele>
        <time>2018-08-08T12:41:53.000Z</time>
      </trkpt>
      <trkpt lat="42.70711" lon="0.66697">
        <ele>1660.9</ele>
        <time>2018-08-08T12:41:54.000Z</time>
      </trkpt>
      <trkpt lat="42.7071" lon="0.66697">
        <ele>1661.1</ele>
        <time>2018-08-08T12:41:55.000Z</time>
      </trkpt>
      <trkpt lat="42.70709" lon="0.66697">
        <ele>1661.3</ele>
        <time>2018-08-08T12:41:56.000Z</time>
      </trkpt>
      <trkpt lat="42.70708" lon="0.66697">
        <ele>1661.6</ele>
        <time>2018-08-08T12:41:57.000Z</time>
      </trkpt>
      <trkpt lat="42.70707" lon="0.66697">
        <ele>1661.8</ele>
        <time>2018-08-08T12:41:58.000Z</time>
      </trkpt>
      <trkpt lat="42.70707" lon="0.66697">
        <ele>1662.1</ele>
        <time>2018-08-08T12:41:59.000Z</time>
      </trkpt>
      <trkpt lat="42.70706" lon="0.66697">
        <ele>1662.4</ele>
        <time>2018-08-08T12:42:00.000Z</time>
      </trkpt>
      <trkpt lat="42.70705" lon="0.66697">
        <ele>1662.7</ele>
        <time>2018-08-08T12:42:01.000Z</time>
      </trkpt>
      <trkpt lat="42.70704" lon="0.66697">
        <ele>1663</ele>
        <time>2018-08-08T12:42:02.000Z</time>
      </trkpt>
      <trkpt lat="42.70703" lon="0.66697">
        <ele>1663.3</ele>
        <time>2018-08-08T12:42:03.000Z</time>
      </trkpt>
      <trkpt lat="42.70702" lon="0.66696">
        <ele>1663.7</ele>
        <time>2018-08-08T12:42:04.000Z</time>
      </trkpt>
      <trkpt lat="42.70701" lon="0.66696">
        <ele>1664</ele>
        <time>2018-08-08T12:42:05.000Z</time>
      </trkpt>
      <trkpt lat="42.707" lon="0.66696">
        <ele>1664.4</ele>
        <time>2018-08-08T12:42:06.000Z</time>
      </trkpt>
      <trkpt lat="42.70699" lon="0.66696">
        <ele>1664.8</ele>
        <time>2018-08-08T12:42:07.000Z</time>
      </trkpt>
      <trkpt lat="42.70698" lon="0.66696">
        <ele>1665.2</ele>
        <time>2018-08-08T12:42:08.000Z</time>
      </trkpt>
      <trkpt lat="42.70697" lon="0.66696">
        <ele>1665.5</ele>
        <time>2018-08-08T12:42:09.000Z</time>
      </trkpt>
      <trkpt lat="42.70696" lon="0.66695">
        <ele>1665.9</ele>
        <time>2018-08-08T12:42:10.000Z</time>
      </trkpt>
      <trkpt lat="42.70695" lon="0.66695">
        <ele>1666.2</ele>
        <time>2018-08-08T12:42:11.000Z</time>
      </trkpt>
      <trkpt lat="42.70694" lon="0.66695">
        <ele>1666.6</ele>
        <time>2018-08-08T12:42:12.000Z</time>
      </trkpt>
      <trkpt lat="42.70693" lon="0.66695">
        <ele>1667</ele>
        <time>2018-08-08T12:42:13.000Z</time>
      </trkpt>
      <trkpt lat="42.70692" lon="0.66695">
        <ele>1667.3</ele>
        <time>2018-08-08T12:42:14.000Z</time>
      </trkpt>
      <trkpt lat="42.70692" lon="0.66694">
        <ele>1667.7</ele>
        <time>2018-08-08T12:42:15.000Z</time>
      </trkpt>
      <trkpt lat="42.70691" lon="0.66694">
        <ele>1668</ele>
        <time>2018-08-08T12:42:16.000Z</time>
      </trkpt>
      <trkpt lat="42.7069" lon="0.66694">
        <ele>1668.4</ele>
        <time>2018-08-08T12:42:17.000Z</time>
      </trkpt>
      <trkpt lat="42.70689" lon="0.66694">
        <ele>1668.7</ele>
        <time>2018-08-08T12:42:18.000Z</time>
      </trkpt>
      <trkpt lat="42.70688" lon="0.66694">
        <ele>1669</ele>
        <time>2018-08-08T12:42:19.000Z</time>
      </trkpt>
      <trkpt lat="42.70687" lon="0.66693">
        <ele>1669.4</ele>
        <time>2018-08-08T12:42:20.000Z</time>
      </trkpt>
      <trkpt lat="42.70686" lon="0.66693">
        <ele>1669.7</ele>
        <time>2018-08-08T12:42:21.000Z</time>
      </trkpt>
      <trkpt lat="42.70686" lon="0.66693">
        <ele>1670</ele>
        <time>2018-08-08T12:42:22.000Z</time>
      </trkpt>
      <trkpt lat="42.70685" lon="0.66693">
        <ele>1670.3</ele>
        <time>2018-08-08T12:42:23.000Z</time>
      </trkpt>
      <trkpt lat="42.70684" lon="0.66693">
        <ele>1670.6</ele>
        <time>2018-08-08T12:42:24.000Z</time>
      </trkpt>
      <trkpt lat="42.70683" lon="0.66693">
        <ele>1670.9</ele>
        <time>2018-08-08T12:42:25.000Z</time>
      </trkpt>
      <trkpt lat="42.70683" lon="0.66692">
        <ele>1671.2</ele>
        <time>2018-08-08T12:42:26.000Z</time>
      </trkpt>
      <trkpt lat="42.70682" lon="0.66692">
        <ele>1671.4</ele>
        <time>2018-08-08T12:42:27.000Z</time>
      </trkpt>
      <trkpt lat="42.70681" lon="0.66692">
        <ele>1671.7</ele>
        <time>2018-08-08T12:42:28.000Z</time>
      </trkpt>
      <trkpt lat="42.7068" lon="0.66692">
        <ele>1671.9</ele>
        <time>2018-08-08T12:42:29.000Z</time>
      </trkpt>
      <trkpt lat="42.7068" lon="0.66692">
        <ele>1672.2</ele>
        <time>2018-08-08T12:42:30.000Z</time>
      </trkpt>
      <trkpt lat="42.70679" lon="0.66692">
        <ele>1672.4</ele>
        <time>2018-08-08T12:42:31.000Z</time>
      </trkpt>
      <trkpt lat="42.70678" lon="0.66692">
        <ele>1672.6</ele>
        <time>2018-08-08T12:42:32.000Z</time>
      </trkpt>
      <trkpt lat="42.70677" lon="0.66692">
        <ele>1672.9</ele>
        <time>2018-08-08T12:42:33.000Z</time>
      </trkpt>
      <trkpt lat="42.70677" lon="0.66692">
        <ele>1673.1</ele>
        <time>2018-08-08T12:42:34.000Z</time>
      </trkpt>
      <trkpt lat="42.70676" lon="0.66692">
        <ele>1673.3</ele>
        <time>2018-08-08T12:42:35.000Z</time>
      </trkpt>
      <trkpt lat="42.70675" lon="0.66692">
        <ele>1673.5</ele>
        <time>2018-08-08T12:42:36.000Z</time>
      </trkpt>
      <trkpt lat="42.70675" lon="0.66692">
        <ele>1673.7</ele>
        <time>2018-08-08T12:42:37.000Z</time>
      </trkpt>
      <trkpt lat="42.70674" lon="0.66692">
        <ele>1673.9</ele>
        <time>2018-08-08T12:42:38.000Z</time>
      </trkpt>
      <trkpt lat="42.70673" lon="0.66692">
        <ele>1674</ele>
        <time>2018-08-08T12:42:39.000Z</time>
      </trkpt>
      <trkpt lat="42.70672" lon="0.66692">
        <ele>1674.3</ele>
        <time>2018-08-08T12:42:40.000Z</time>
      </trkpt>
      <trkpt lat="42.70672" lon="0.66692">
        <ele>1674.4</ele>
        <time>2018-08-08T12:42:41.000Z</time>
      </trkpt>
      <trkpt lat="42.70671" lon="0.66692">
        <ele>1674.6</ele>
        <time>2018-08-08T12:42:42.000Z</time>
      </trkpt>
      <trkpt lat="42.7067" lon="0.66692">
        <ele>1674.7</ele>
        <time>2018-08-08T12:42:43.000Z</time>
      </trkpt>
      <trkpt lat="42.7067" lon="0.66692">
        <ele>1674.9</ele>
        <time>2018-08-08T12:42:44.000Z</time>
      </trkpt>
      <trkpt lat="42.70669" lon="0.66693">
        <ele>1675</ele>
        <time>2018-08-08T12:42:45.000Z</time>
      </trkpt>
      <trkpt lat="42.70668" lon="0.66693">
        <ele>1675.1</ele>
        <time>2018-08-08T12:42:46.000Z</time>
      </trkpt>
      <trkpt lat="42.70667" lon="0.66693">
        <ele>1675.3</ele>
        <time>2018-08-08T12:42:47.000Z</time>
      </trkpt>
      <trkpt lat="42.70667" lon="0.66693">
        <ele>1675.4</ele>
        <time>2018-08-08T12:42:48.000Z</time>
      </trkpt>
      <trkpt lat="42.70666" lon="0.66693">
        <ele>1675.4</ele>
        <time>2018-08-08T12:42:49.000Z</time>
      </trkpt>
      <trkpt lat="42.70665" lon="0.66694">
        <ele>1675.5</ele>
        <time>2018-08-08T12:42:50.000Z</time>
      </trkpt>
      <trkpt lat="42.70664" lon="0.66694">
        <ele>1675.5</ele>
        <time>2018-08-08T12:42:51.000Z</time>
      </trkpt>
      <trkpt lat="42.70663" lon="0.66694">
        <ele>1675.6</ele>
        <time>2018-08-08T12:42:52.000Z</time>
      </trkpt>
      <trkpt lat="42.70663" lon="0.66694">
        <ele>1675.6</ele>
        <time>2018-08-08T12:42:53.000Z</time>
      </trkpt>
      <trkpt lat="42.70662" lon="0.66695">
        <ele>1675.7</ele>
        <time>2018-08-08T12:42:54.000Z</time>
      </trkpt>
      <trkpt lat="42.70661" lon="0.66695">
        <ele>1675.7</ele>
        <time>2018-08-08T12:42:55.000Z</time>
      </trkpt>
      <trkpt lat="42.7066" lon="0.66695">
        <ele>1675.7</ele>
        <time>2018-08-08T12:42:56.000Z</time>
      </trkpt>
      <trkpt lat="42.70659" lon="0.66695">
        <ele>1675.8</ele>
        <time>2018-08-08T12:42:57.000Z</time>
      </trkpt>
      <trkpt lat="42.70659" lon="0.66696">
        <ele>1675.8</ele>
        <time>2018-08-08T12:42:58.000Z</time>
      </trkpt>
      <trkpt lat="42.70658" lon="0.66696">
        <ele>1675.9</ele>
        <time>2018-08-08T12:42:59.000Z</time>
      </trkpt>
      <trkpt lat="42.70657" lon="0.66696">
        <ele>1675.9</ele>
        <time>2018-08-08T12:43:00.000Z</time>
      </trkpt>
      <trkpt lat="42.70656" lon="0.66697">
        <ele>1675.9</ele>
        <time>2018-08-08T12:43:01.000Z</time>
      </trkpt>
      <trkpt lat="42.70655" lon="0.66697">
        <ele>1676</ele>
        <time>2018-08-08T12:43:02.000Z</time>
      </trkpt>
      <trkpt lat="42.70655" lon="0.66697">
        <ele>1676</ele>
        <time>2018-08-08T12:43:03.000Z</time>
      </trkpt>
      <trkpt lat="42.70654" lon="0.66697">
        <ele>1676.1</ele>
        <time>2018-08-08T12:43:04.000Z</time>
      </trkpt>
      <trkpt lat="42.70653" lon="0.66698">
        <ele>1676.1</ele>
        <time>2018-08-08T12:43:05.000Z</time>
      </trkpt>
      <trkpt lat="42.70652" lon="0.66698">
        <ele>1676.2</ele>
        <time>2018-08-08T12:43:06.000Z</time>
      </trkpt>
      <trkpt lat="42.70651" lon="0.66698">
        <ele>1676.2</ele>
        <time>2018-08-08T12:43:07.000Z</time>
      </trkpt>
      <trkpt lat="42.7065" lon="0.66698">
        <ele>1676.3</ele>
        <time>2018-08-08T12:43:08.000Z</time>
      </trkpt>
      <trkpt lat="42.7065" lon="0.66699">
        <ele>1676.4</ele>
        <time>2018-08-08T12:43:09.000Z</time>
      </trkpt>
      <trkpt lat="42.70649" lon="0.66699">
        <ele>1676.5</ele>
        <time>2018-08-08T12:43:10.000Z</time>
      </trkpt>
      <trkpt lat="42.70648" lon="0.66699">
        <ele>1676.6</ele>
        <time>2018-08-08T12:43:11.000Z</time>
      </trkpt>
      <trkpt lat="42.70647" lon="0.66699">
        <ele>1676.7</ele>
        <time>2018-08-08T12:43:12.000Z</time>
      </trkpt>
      <trkpt lat="42.70646" lon="0.66699">
        <ele>1676.8</ele>
        <time>2018-08-08T12:43:13.000Z</time>
      </trkpt>
      <trkpt lat="42.70646" lon="0.66699">
        <ele>1676.9</ele>
        <time>2018-08-08T12:43:14.000Z</time>
      </trkpt>
      <trkpt lat="42.70645" lon="0.66699">
        <ele>1677</ele>
        <time>2018-08-08T12:43:15.000Z</time>
      </trkpt>
      <trkpt lat="42.70644" lon="0.667">
        <ele>1677.1</ele>
        <time>2018-08-08T12:43:16.000Z</time>
      </trkpt>
      <trkpt lat="42.70643" lon="0.667">
        <ele>1677.3</ele>
        <time>2018-08-08T12:43:17.000Z</time>
      </trkpt>
      <trkpt lat="42.70643" lon="0.667">
        <ele>1677.4</ele>
        <time>2018-08-08T12:43:18.000Z</time>
      </trkpt>
      <trkpt lat="42.70642" lon="0.667">
        <ele>1677.6</ele>
        <time>2018-08-08T12:43:19.000Z</time>
      </trkpt>
      <trkpt lat="42.70641" lon="0.667">
        <ele>1677.7</ele>
        <time>2018-08-08T12:43:20.000Z</time>
      </trkpt>
      <trkpt lat="42.70641" lon="0.667">
        <ele>1677.9</ele>
        <time>2018-08-08T12:43:21.000Z</time>
      </trkpt>
      <trkpt lat="42.7064" lon="0.667">
        <ele>1678</ele>
        <time>2018-08-08T12:43:22.000Z</time>
      </trkpt>
      <trkpt lat="42.70639" lon="0.667">
        <ele>1678.1</ele>
        <time>2018-08-08T12:43:23.000Z</time>
      </trkpt>
      <trkpt lat="42.70639" lon="0.667">
        <ele>1678.3</ele>
        <time>2018-08-08T12:43:24.000Z</time>
      </trkpt>
      <trkpt lat="42.70638" lon="0.667">
        <ele>1678.4</ele>
        <time>2018-08-08T12:43:25.000Z</time>
      </trkpt>
      <trkpt lat="42.70638" lon="0.667">
        <ele>1678.5</ele>
        <time>2018-08-08T12:43:26.000Z</time>
      </trkpt>
      <trkpt lat="42.70637" lon="0.667">
        <ele>1678.6</ele>
        <time>2018-08-08T12:43:27.000Z</time>
      </trkpt>
      <trkpt lat="42.70637" lon="0.667">
        <ele>1678.7</ele>
        <time>2018-08-08T12:43:28.000Z</time>
      </trkpt>
      <trkpt lat="42.70637" lon="0.667">
        <ele>1678.7</ele>
        <time>2018-08-08T12:43:29.000Z</time>
      </trkpt>
      <trkpt lat="42.70636" lon="0.667">
        <ele>1678.7</ele>
        <time>2018-08-08T12:43:30.000Z</time>
      </trkpt>
      <trkpt lat="42.70636" lon="0.667">
        <ele>1678.7</ele>
        <time>2018-08-08T12:43:31.000Z</time>
      </trkpt>
      <trkpt lat="42.70636" lon="0.667">
        <ele>1678.7</ele>
        <time>2018-08-08T12:43:32.000Z</time>
      </trkpt>
      <trkpt lat="42.70636" lon="0.667">
        <ele>1678.7</ele>
        <time>2018-08-08T12:43:33.000Z</time>
      </trkpt>
      <trkpt lat="42.70636" lon="0.667">
        <ele>1678.7</ele>
        <time>2018-08-08T12:43:34.000Z</time>
      </trkpt>
      <trkpt lat="42.70635" lon="0.667">
        <ele>1678.7</ele>
        <time>2018-08-08T12:43:35.000Z</time>
      </trkpt>
      <trkpt lat="42.70635" lon="0.66701">
        <ele>1678.7</ele>
        <time>2018-08-08T12:43:36.000Z</time>
      </trkpt>
      <trkpt lat="42.70635" lon="0.66701">
        <ele>1678.7</ele>
        <time>2018-08-08T12:43:37.000Z</time>
      </trkpt>
      <trkpt lat="42.70634" lon="0.66701">
        <ele>1678.8</ele>
        <time>2018-08-08T12:43:38.000Z</time>
      </trkpt>
      <trkpt lat="42.70634" lon="0.66701">
        <ele>1678.8</ele>
        <time>2018-08-08T12:43:39.000Z</time>
      </trkpt>
      <trkpt lat="42.70634" lon="0.66701">
        <ele>1678.9</ele>
        <time>2018-08-08T12:43:40.000Z</time>
      </trkpt>
      <trkpt lat="42.70633" lon="0.66701">
        <ele>1678.9</ele>
        <time>2018-08-08T12:43:41.000Z</time>
      </trkpt>
      <trkpt lat="42.70633" lon="0.66701">
        <ele>1679</ele>
        <time>2018-08-08T12:43:42.000Z</time>
      </trkpt>
      <trkpt lat="42.70633" lon="0.66701">
        <ele>1679.1</ele>
        <time>2018-08-08T12:43:43.000Z</time>
      </trkpt>
      <trkpt lat="42.70633" lon="0.66701">
        <ele>1679.2</ele>
        <time>2018-08-08T12:43:44.000Z</time>
      </trkpt>
      <trkpt lat="42.70632" lon="0.66701">
        <ele>1679.3</ele>
        <time>2018-08-08T12:43:45.000Z</time>
      </trkpt>
      <trkpt lat="42.70632" lon="0.667">
        <ele>1679.4</ele>
        <time>2018-08-08T12:43:46.000Z</time>
      </trkpt>
      <trkpt lat="42.70632" lon="0.667">
        <ele>1679.5</ele>
        <time>2018-08-08T12:43:47.000Z</time>
      </trkpt>
      <trkpt lat="42.70632" lon="0.667">
        <ele>1679.6</ele>
        <time>2018-08-08T12:43:48.000Z</time>
      </trkpt>
      <trkpt lat="42.70632" lon="0.667">
        <ele>1679.7</ele>
        <time>2018-08-08T12:43:49.000Z</time>
      </trkpt>
      <trkpt lat="42.70632" lon="0.667">
        <ele>1679.8</ele>
        <time>2018-08-08T12:43:50.000Z</time>
      </trkpt>
      <trkpt lat="42.70632" lon="0.66699">
        <ele>1679.9</ele>
        <time>2018-08-08T12:43:51.000Z</time>
      </trkpt>
      <trkpt lat="42.70632" lon="0.66699">
        <ele>1680.1</ele>
        <time>2018-08-08T12:43:52.000Z</time>
      </trkpt>
      <trkpt lat="42.70632" lon="0.66699">
        <ele>1680.2</ele>
        <time>2018-08-08T12:43:53.000Z</time>
      </trkpt>
      <trkpt lat="42.70631" lon="0.66699">
        <ele>1680.3</ele>
        <time>2018-08-08T12:43:54.000Z</time>
      </trkpt>
      <trkpt lat="42.70631" lon="0.66698">
        <ele>1680.4</ele>
        <time>2018-08-08T12:43:55.000Z</time>
      </trkpt>
      <trkpt lat="42.70631" lon="0.66698">
        <ele>1680.6</ele>
        <time>2018-08-08T12:43:56.000Z</time>
      </trkpt>
      <trkpt lat="42.70631" lon="0.66698">
        <ele>1680.7</ele>
        <time>2018-08-08T12:43:57.000Z</time>
      </trkpt>
      <trkpt lat="42.7063" lon="0.66698">
        <ele>1680.9</ele>
        <time>2018-08-08T12:43:58.000Z</time>
      </trkpt>
      <trkpt lat="42.7063" lon="0.66698">
        <ele>1681</ele>
        <time>2018-08-08T12:43:59.000Z</time>
      </trkpt>
      <trkpt lat="42.7063" lon="0.66697">
        <ele>1681.2</ele>
        <time>2018-08-08T12:44:00.000Z</time>
      </trkpt>
      <trkpt lat="42.70629" lon="0.66697">
        <ele>1681.3</ele>
        <time>2018-08-08T12:44:01.000Z</time>
      </trkpt>
      <trkpt lat="42.70629" lon="0.66697">
        <ele>1681.5</ele>
        <time>2018-08-08T12:44:02.000Z</time>
      </trkpt>
      <trkpt lat="42.70629" lon="0.66697">
        <ele>1681.6</ele>
        <time>2018-08-08T12:44:03.000Z</time>
      </trkpt>
      <trkpt lat="42.70628" lon="0.66697">
        <ele>1681.7</ele>
        <time>2018-08-08T12:44:04.000Z</time>
      </trkpt>
      <trkpt lat="42.70628" lon="0.66697">
        <ele>1681.9</ele>
        <time>2018-08-08T12:44:05.000Z</time>
      </trkpt>
      <trkpt lat="42.70627" lon="0.66697">
        <ele>1682</ele>
        <time>2018-08-08T12:44:06.000Z</time>
      </trkpt>
      <trkpt lat="42.70627" lon="0.66696">
        <ele>1682.2</ele>
        <time>2018-08-08T12:44:07.000Z</time>
      </trkpt>
      <trkpt lat="42.70627" lon="0.66696">
        <ele>1682.3</ele>
        <time>2018-08-08T12:44:08.000Z</time>
      </trkpt>
      <trkpt lat="42.70627" lon="0.66696">
        <ele>1682.4</ele>
        <time>2018-08-08T12:44:09.000Z</time>
      </trkpt>
      <trkpt lat="42.70626" lon="0.66696">
        <ele>1682.5</ele>
        <time>2018-08-08T12:44:10.000Z</time>
      </trkpt>
      <trkpt lat="42.70626" lon="0.66696">
        <ele>1682.6</ele>
        <time>2018-08-08T12:44:11.000Z</time>
      </trkpt>
      <trkpt lat="42.70626" lon="0.66695">
        <ele>1682.8</ele>
        <time>2018-08-08T12:44:12.000Z</time>
      </trkpt>
      <trkpt lat="42.70626" lon="0.66695">
        <ele>1682.9</ele>
        <time>2018-08-08T12:44:13.000Z</time>
      </trkpt>
      <trkpt lat="42.70626" lon="0.66695">
        <ele>1683</ele>
        <time>2018-08-08T12:44:14.000Z</time>
      </trkpt>
      <trkpt lat="42.70626" lon="0.66695">
        <ele>1683.1</ele>
        <time>2018-08-08T12:44:15.000Z</time>
      </trkpt>
      <trkpt lat="42.70626" lon="0.66694">
        <ele>1683.3</ele>
        <time>2018-08-08T12:44:16.000Z</time>
      </trkpt>
      <trkpt lat="42.70626" lon="0.66694">
        <ele>1683.4</ele>
        <time>2018-08-08T12:44:17.000Z</time>
      </trkpt>
      <trkpt lat="42.70625" lon="0.66694">
        <ele>1683.5</ele>
        <time>2018-08-08T12:44:18.000Z</time>
      </trkpt>
      <trkpt lat="42.70625" lon="0.66694">
        <ele>1683.7</ele>
        <time>2018-08-08T12:44:19.000Z</time>
      </trkpt>
      <trkpt lat="42.70625" lon="0.66693">
        <ele>1683.8</ele>
        <time>2018-08-08T12:44:20.000Z</time>
      </trkpt>
      <trkpt lat="42.70625" lon="0.66693">
        <ele>1683.9</ele>
        <time>2018-08-08T12:44:21.000Z</time>
      </trkpt>
      <trkpt lat="42.70625" lon="0.66693">
        <ele>1684</ele>
        <time>2018-08-08T12:44:22.000Z</time>
      </trkpt>
      <trkpt lat="42.70625" lon="0.66693">
        <ele>1684.1</ele>
        <time>2018-08-08T12:44:23.000Z</time>
      </trkpt>
      <trkpt lat="42.70624" lon="0.66693">
        <ele>1684.3</ele>
        <time>2018-08-08T12:44:24.000Z</time>
      </trkpt>
      <trkpt lat="42.70624" lon="0.66692">
        <ele>1684.3</ele>
        <time>2018-08-08T12:44:25.000Z</time>
      </trkpt>
      <trkpt lat="42.70624" lon="0.66692">
        <ele>1684.4</ele>
        <time>2018-08-08T12:44:26.000Z</time>
      </trkpt>
      <trkpt lat="42.70623" lon="0.66692">
        <ele>1684.6</ele>
        <time>2018-08-08T12:44:27.000Z</time>
      </trkpt>
      <trkpt lat="42.70623" lon="0.66692">
        <ele>1684.6</ele>
        <time>2018-08-08T12:44:28.000Z</time>
      </trkpt>
      <trkpt lat="42.70623" lon="0.66692">
        <ele>1684.7</ele>
        <time>2018-08-08T12:44:29.000Z</time>
      </trkpt>
      <trkpt lat="42.70622" lon="0.66692">
        <ele>1684.8</ele>
        <time>2018-08-08T12:44:30.000Z</time>
      </trkpt>
      <trkpt lat="42.70622" lon="0.66692">
        <ele>1684.8</ele>
        <time>2018-08-08T12:44:31.000Z</time>
      </trkpt>
      <trkpt lat="42.70622" lon="0.66692">
        <ele>1684.9</ele>
        <time>2018-08-08T12:44:32.000Z</time>
      </trkpt>
      <trkpt lat="42.70621" lon="0.66692">
        <ele>1685</ele>
        <time>2018-08-08T12:44:33.000Z</time>
      </trkpt>
      <trkpt lat="42.70621" lon="0.66692">
        <ele>1685.1</ele>
        <time>2018-08-08T12:44:34.000Z</time>
      </trkpt>
      <trkpt lat="42.70621" lon="0.66692">
        <ele>1685.1</ele>
        <time>2018-08-08T12:44:35.000Z</time>
      </trkpt>
      <trkpt lat="42.7062" lon="0.66692">
        <ele>1685.1</ele>
        <time>2018-08-08T12:44:36.000Z</time>
      </trkpt>
      <trkpt lat="42.7062" lon="0.66692">
        <ele>1685.2</ele>
        <time>2018-08-08T12:44:37.000Z</time>
      </trkpt>
      <trkpt lat="42.7062" lon="0.66692">
        <ele>1685.2</ele>
        <time>2018-08-08T12:44:38.000Z</time>
      </trkpt>
      <trkpt lat="42.7062" lon="0.66692">
        <ele>1685.3</ele>
        <time>2018-08-08T12:44:39.000Z</time>
      </trkpt>
      <trkpt lat="42.70619" lon="0.66693">
        <ele>1685.3</ele>
        <time>2018-08-08T12:44:40.000Z</time>
      </trkpt>
      <trkpt lat="42.70619" lon="0.66693">
        <ele>1685.3</ele>
        <time>2018-08-08T12:44:41.000Z</time>
      </trkpt>
      <trkpt lat="42.70619" lon="0.66693">
        <ele>1685.3</ele>
        <time>2018-08-08T12:44:42.000Z</time>
      </trkpt>
      <trkpt lat="42.70618" lon="0.66693">
        <ele>1685.3</ele>
        <time>2018-08-08T12:44:43.000Z</time>
      </trkpt>
      <trkpt lat="42.70618" lon="0.66693">
        <ele>1685.4</ele>
        <time>2018-08-08T12:44:44.000Z</time>
      </trkpt>
      <trkpt lat="42.70618" lon="0.66693">
        <ele>1685.4</ele>
        <time>2018-08-08T12:44:45.000Z</time>
      </trkpt>
      <trkpt lat="42.70617" lon="0.66693">
        <ele>1685.4</ele>
        <time>2018-08-08T12:44:46.000Z</time>
      </trkpt>
      <trkpt lat="42.70617" lon="0.66693">
        <ele>1685.5</ele>
        <time>2018-08-08T12:44:47.000Z</time>
      </trkpt>
      <trkpt lat="42.70616" lon="0.66694">
        <ele>1685.5</ele>
        <time>2018-08-08T12:44:48.000Z</time>
      </trkpt>
      <trkpt lat="42.70616" lon="0.66694">
        <ele>1685.5</ele>
        <time>2018-08-08T12:44:49.000Z</time>
      </trkpt>
      <trkpt lat="42.70616" lon="0.66694">
        <ele>1685.6</ele>
        <time>2018-08-08T12:44:50.000Z</time>
      </trkpt>
      <trkpt lat="42.70615" lon="0.66694">
        <ele>1685.5</ele>
        <time>2018-08-08T12:44:51.000Z</time>
      </trkpt>
      <trkpt lat="42.70615" lon="0.66694">
        <ele>1685.6</ele>
        <time>2018-08-08T12:44:52.000Z</time>
      </trkpt>
      <trkpt lat="42.70615" lon="0.66694">
        <ele>1685.6</ele>
        <time>2018-08-08T12:44:53.000Z</time>
      </trkpt>
      <trkpt lat="42.70614" lon="0.66694">
        <ele>1685.6</ele>
        <time>2018-08-08T12:44:54.000Z</time>
      </trkpt>
      <trkpt lat="42.70614" lon="0.66695">
        <ele>1685.6</ele>
        <time>2018-08-08T12:44:55.000Z</time>
      </trkpt>
      <trkpt lat="42.70614" lon="0.66695">
        <ele>1685.6</ele>
        <time>2018-08-08T12:44:56.000Z</time>
      </trkpt>
      <trkpt lat="42.70613" lon="0.66695">
        <ele>1685.5</ele>
        <time>2018-08-08T12:44:57.000Z</time>
      </trkpt>
      <trkpt lat="42.70613" lon="0.66696">
        <ele>1685.5</ele>
        <time>2018-08-08T12:44:58.000Z</time>
      </trkpt>
      <trkpt lat="42.70612" lon="0.66696">
        <ele>1685.4</ele>
        <time>2018-08-08T12:44:59.000Z</time>
      </trkpt>
      <trkpt lat="42.70612" lon="0.66696">
        <ele>1685.4</ele>
        <time>2018-08-08T12:45:00.000Z</time>
      </trkpt>
      <trkpt lat="42.70611" lon="0.66697">
        <ele>1685.4</ele>
        <time>2018-08-08T12:45:01.000Z</time>
      </trkpt>
      <trkpt lat="42.70611" lon="0.66697">
        <ele>1685.3</ele>
        <time>2018-08-08T12:45:02.000Z</time>
      </trkpt>
      <trkpt lat="42.7061" lon="0.66698">
        <ele>1685.3</ele>
        <time>2018-08-08T12:45:03.000Z</time>
      </trkpt>
      <trkpt lat="42.70609" lon="0.66698">
        <ele>1685.3</ele>
        <time>2018-08-08T12:45:04.000Z</time>
      </trkpt>
      <trkpt lat="42.70609" lon="0.66698">
        <ele>1685.3</ele>
        <time>2018-08-08T12:45:05.000Z</time>
      </trkpt>
      <trkpt lat="42.70608" lon="0.66699">
        <ele>1685.3</ele>
        <time>2018-08-08T12:45:06.000Z</time>
      </trkpt>
      <trkpt lat="42.70608" lon="0.66699">
        <ele>1685.3</ele>
        <time>2018-08-08T12:45:07.000Z</time>
      </trkpt>
      <trkpt lat="42.70607" lon="0.66699">
        <ele>1685.3</ele>
        <time>2018-08-08T12:45:08.000Z</time>
      </trkpt>
      <trkpt lat="42.70606" lon="0.667">
        <ele>1685.4</ele>
        <time>2018-08-08T12:45:09.000Z</time>
      </trkpt>
      <trkpt lat="42.70606" lon="0.667">
        <ele>1685.4</ele>
        <time>2018-08-08T12:45:10.000Z</time>
      </trkpt>
      <trkpt lat="42.70605" lon="0.667">
        <ele>1685.5</ele>
        <time>2018-08-08T12:45:11.000Z</time>
      </trkpt>
      <trkpt lat="42.70604" lon="0.667">
        <ele>1685.6</ele>
        <time>2018-08-08T12:45:12.000Z</time>
      </trkpt>
      <trkpt lat="42.70604" lon="0.667">
        <ele>1685.7</ele>
        <time>2018-08-08T12:45:13.000Z</time>
      </trkpt>
      <trkpt lat="42.70603" lon="0.667">
        <ele>1685.8</ele>
        <time>2018-08-08T12:45:14.000Z</time>
      </trkpt>
      <trkpt lat="42.70602" lon="0.667">
        <ele>1686</ele>
        <time>2018-08-08T12:45:15.000Z</time>
      </trkpt>
      <trkpt lat="42.70602" lon="0.667">
        <ele>1686.1</ele>
        <time>2018-08-08T12:45:16.000Z</time>
      </trkpt>
      <trkpt lat="42.70601" lon="0.667">
        <ele>1686.3</ele>
        <time>2018-08-08T12:45:17.000Z</time>
      </trkpt>
      <trkpt lat="42.706" lon="0.667">
        <ele>1686.4</ele>
        <time>2018-08-08T12:45:18.000Z</time>
      </trkpt>
      <trkpt lat="42.706" lon="0.667">
        <ele>1686.5</ele>
        <time>2018-08-08T12:45:19.000Z</time>
      </trkpt>
      <trkpt lat="42.70599" lon="0.667">
        <ele>1686.7</ele>
        <time>2018-08-08T12:45:20.000Z</time>
      </trkpt>
      <trkpt lat="42.70598" lon="0.667">
        <ele>1686.8</ele>
        <time>2018-08-08T12:45:21.000Z</time>
      </trkpt>
      <trkpt lat="42.70598" lon="0.667">
        <ele>1687</ele>
        <time>2018-08-08T12:45:22.000Z</time>
      </trkpt>
      <trkpt lat="42.70597" lon="0.667">
        <ele>1687.1</ele>
        <time>2018-08-08T12:45:23.000Z</time>
      </trkpt>
      <trkpt lat="42.70597" lon="0.667">
        <ele>1687.2</ele>
        <time>2018-08-08T12:45:24.000Z</time>
      </trkpt>
      <trkpt lat="42.70596" lon="0.667">
        <ele>1687.3</ele>
        <time>2018-08-08T12:45:25.000Z</time>
      </trkpt>
      <trkpt lat="42.70596" lon="0.667">
        <ele>1687.4</ele>
        <time>2018-08-08T12:45:26.000Z</time>
      </trkpt>
      <trkpt lat="42.70595" lon="0.667">
        <ele>1687.5</ele>
        <time>2018-08-08T12:45:27.000Z</time>
      </trkpt>
      <trkpt lat="42.70595" lon="0.667">
        <ele>1687.6</ele>
        <time>2018-08-08T12:45:28.000Z</time>
      </trkpt>
      <trkpt lat="42.70594" lon="0.667">
        <ele>1687.7</ele>
        <time>2018-08-08T12:45:29.000Z</time>
      </trkpt>
      <trkpt lat="42.70594" lon="0.667">
        <ele>1687.8</ele>
        <time>2018-08-08T12:45:30.000Z</time>
      </trkpt>
      <trkpt lat="42.70594" lon="0.66701">
        <ele>1687.8</ele>
        <time>2018-08-08T12:45:31.000Z</time>
      </trkpt>
      <trkpt lat="42.70593" lon="0.66701">
        <ele>1687.9</ele>
        <time>2018-08-08T12:45:32.000Z</time>
      </trkpt>
      <trkpt lat="42.70593" lon="0.66701">
        <ele>1688</ele>
        <time>2018-08-08T12:45:33.000Z</time>
      </trkpt>
      <trkpt lat="42.70593" lon="0.66701">
        <ele>1688</ele>
        <time>2018-08-08T12:45:34.000Z</time>
      </trkpt>
      <trkpt lat="42.70592" lon="0.66701">
        <ele>1688.1</ele>
        <time>2018-08-08T12:45:35.000Z</time>
      </trkpt>
      <trkpt lat="42.70592" lon="0.667">
        <ele>1688.2</ele>
        <time>2018-08-08T12:45:36.000Z</time>
      </trkpt>
      <trkpt lat="42.70592" lon="0.667">
        <ele>1688.2</ele>
        <time>2018-08-08T12:45:37.000Z</time>
      </trkpt>
      <trkpt lat="42.70592" lon="0.667">
        <ele>1688.3</ele>
        <time>2018-08-08T12:45:38.000Z</time>
      </trkpt>
      <trkpt lat="42.70591" lon="0.667">
        <ele>1688.4</ele>
        <time>2018-08-08T12:45:39.000Z</time>
      </trkpt>
      <trkpt lat="42.70591" lon="0.667">
        <ele>1688.5</ele>
        <time>2018-08-08T12:45:40.000Z</time>
      </trkpt>
      <trkpt lat="42.70591" lon="0.667">
        <ele>1688.6</ele>
        <time>2018-08-08T12:45:41.000Z</time>
      </trkpt>
      <trkpt lat="42.70591" lon="0.667">
        <ele>1688.6</ele>
        <time>2018-08-08T12:45:42.000Z</time>
      </trkpt>
      <trkpt lat="42.70591" lon="0.667">
        <ele>1688.7</ele>
        <time>2018-08-08T12:45:43.000Z</time>
      </trkpt>
      <trkpt lat="42.7059" lon="0.667">
        <ele>1688.8</ele>
        <time>2018-08-08T12:45:44.000Z</time>
      </trkpt>
      <trkpt lat="42.7059" lon="0.66699">
        <ele>1688.9</ele>
        <time>2018-08-08T12:45:45.000Z</time>
      </trkpt>
      <trkpt lat="42.7059" lon="0.66699">
        <ele>1689</ele>
        <time>2018-08-08T12:45:46.000Z</time>
      </trkpt>
      <trkpt lat="42.7059" lon="0.66699">
        <ele>1689.2</ele>
        <time>2018-08-08T12:45:47.000Z</time>
      </trkpt>
      <trkpt lat="42.7059" lon="0.66699">
        <ele>1689.3</ele>
        <time>2018-08-08T12:45:48.000Z</time>
      </trkpt>
      <trkpt lat="42.70589" lon="0.66699">
        <ele>1689.4</ele>
        <time>2018-08-08T12:45:49.000Z</time>
      </trkpt>
      <trkpt lat="42.70589" lon="0.66698">
        <ele>1689.6</ele>
        <time>2018-08-08T12:45:50.000Z</time>
      </trkpt>
      <trkpt lat="42.70589" lon="0.66698">
        <ele>1689.7</ele>
        <time>2018-08-08T12:45:51.000Z</time>
      </trkpt>
      <trkpt lat="42.70588" lon="0.66698">
        <ele>1689.9</ele>
        <time>2018-08-08T12:45:52.000Z</time>
      </trkpt>
      <trkpt lat="42.70588" lon="0.66698">
        <ele>1690</ele>
        <time>2018-08-08T12:45:53.000Z</time>
      </trkpt>
      <trkpt lat="42.70587" lon="0.66697">
        <ele>1690.2</ele>
        <time>2018-08-08T12:45:54.000Z</time>
      </trkpt>
      <trkpt lat="42.70587" lon="0.66697">
        <ele>1690.4</ele>
        <time>2018-08-08T12:45:55.000Z</time>
      </trkpt>
      <trkpt lat="42.70586" lon="0.66697">
        <ele>1690.6</ele>
        <time>2018-08-08T12:45:56.000Z</time>
      </trkpt>
      <trkpt lat="42.70585" lon="0.66697">
        <ele>1690.8</ele>
        <time>2018-08-08T12:45:57.000Z</time>
      </trkpt>
      <trkpt lat="42.70585" lon="0.66697">
        <ele>1691</ele>
        <time>2018-08-08T12:45:58.000Z</time>
      </trkpt>
      <trkpt lat="42.70584" lon="0.66696">
        <ele>1691.2</ele>
        <time>2018-08-08T12:45:59.000Z</time>
      </trkpt>
      <trkpt lat="42.70584" lon="0.66696">
        <ele>1691.4</ele>
        <time>2018-08-08T12:46:00.000Z</time>
      </trkpt>
      <trkpt lat="42.70583" lon="0.66696">
        <ele>1691.6</ele>
        <time>2018-08-08T12:46:01.000Z</time>
      </trkpt>
      <trkpt lat="42.70582" lon="0.66696">
        <ele>1691.8</ele>
        <time>2018-08-08T12:46:02.000Z</time>
      </trkpt>
      <trkpt lat="42.70582" lon="0.66695">
        <ele>1692.1</ele>
        <time>2018-08-08T12:46:03.000Z</time>
      </trkpt>
      <trkpt lat="42.70581" lon="0.66695">
        <ele>1692.3</ele>
        <time>2018-08-08T12:46:04.000Z</time>
      </trkpt>
      <trkpt lat="42.70581" lon="0.66695">
        <ele>1692.5</ele>
        <time>2018-08-08T12:46:05.000Z</time>
      </trkpt>
      <trkpt lat="42.7058" lon="0.66695">
        <ele>1692.7</ele>
        <time>2018-08-08T12:46:06.000Z</time>
      </trkpt>
      <trkpt lat="42.7058" lon="0.66694">
        <ele>1692.9</ele>
        <time>2018-08-08T12:46:07.000Z</time>
      </trkpt>
      <trkpt lat="42.7058" lon="0.66694">
        <ele>1693.1</ele>
        <time>2018-08-08T12:46:08.000Z</time>
      </trkpt>
      <trkpt lat="42.70579" lon="0.66694">
        <ele>1693.3</ele>
        <time>2018-08-08T12:46:09.000Z</time>
      </trkpt>
      <trkpt lat="42.70579" lon="0.66693">
        <ele>1693.4</ele>
        <time>2018-08-08T12:46:10.000Z</time>
      </trkpt>
      <trkpt lat="42.70579" lon="0.66693">
        <ele>1693.6</ele>
        <time>2018-08-08T12:46:11.000Z</time>
      </trkpt>
      <trkpt lat="42.70578" lon="0.66693">
        <ele>1693.8</ele>
        <time>2018-08-08T12:46:12.000Z</time>
      </trkpt>
      <trkpt lat="42.70578" lon="0.66692">
        <ele>1694</ele>
        <time>2018-08-08T12:46:13.000Z</time>
      </trkpt>
      <trkpt lat="42.70578" lon="0.66692">
        <ele>1694.2</ele>
        <time>2018-08-08T12:46:14.000Z</time>
      </trkpt>
      <trkpt lat="42.70578" lon="0.66691">
        <ele>1694.4</ele>
        <time>2018-08-08T12:46:15.000Z</time>
      </trkpt>
      <trkpt lat="42.70577" lon="0.66691">
        <ele>1694.6</ele>
        <time>2018-08-08T12:46:16.000Z</time>
      </trkpt>
      <trkpt lat="42.70577" lon="0.66691">
        <ele>1694.8</ele>
        <time>2018-08-08T12:46:17.000Z</time>
      </trkpt>
      <trkpt lat="42.70576" lon="0.6669">
        <ele>1695</ele>
        <time>2018-08-08T12:46:18.000Z</time>
      </trkpt>
      <trkpt lat="42.70576" lon="0.6669">
        <ele>1695.2</ele>
        <time>2018-08-08T12:46:19.000Z</time>
      </trkpt>
      <trkpt lat="42.70575" lon="0.6669">
        <ele>1695.5</ele>
        <time>2018-08-08T12:46:20.000Z</time>
      </trkpt>
      <trkpt lat="42.70575" lon="0.66689">
        <ele>1695.7</ele>
        <time>2018-08-08T12:46:21.000Z</time>
      </trkpt>
      <trkpt lat="42.70574" lon="0.66689">
        <ele>1696</ele>
        <time>2018-08-08T12:46:22.000Z</time>
      </trkpt>
      <trkpt lat="42.70573" lon="0.66688">
        <ele>1696.3</ele>
        <time>2018-08-08T12:46:23.000Z</time>
      </trkpt>
      <trkpt lat="42.70573" lon="0.66688">
        <ele>1696.5</ele>
        <time>2018-08-08T12:46:24.000Z</time>
      </trkpt>
      <trkpt lat="42.70572" lon="0.66688">
        <ele>1696.8</ele>
        <time>2018-08-08T12:46:25.000Z</time>
      </trkpt>
      <trkpt lat="42.70571" lon="0.66688">
        <ele>1697.1</ele>
        <time>2018-08-08T12:46:26.000Z</time>
      </trkpt>
      <trkpt lat="42.70571" lon="0.66687">
        <ele>1697.3</ele>
        <time>2018-08-08T12:46:27.000Z</time>
      </trkpt>
      <trkpt lat="42.7057" lon="0.66687">
        <ele>1697.4</ele>
        <time>2018-08-08T12:46:28.000Z</time>
      </trkpt>
      <trkpt lat="42.7057" lon="0.66687">
        <ele>1697.5</ele>
        <time>2018-08-08T12:46:29.000Z</time>
      </trkpt>
      <trkpt lat="42.7057" lon="0.66687">
        <ele>1697.6</ele>
        <time>2018-08-08T12:46:30.000Z</time>
      </trkpt>
      <trkpt lat="42.7057" lon="0.66687">
        <ele>1697.6</ele>
        <time>2018-08-08T12:46:31.000Z</time>
      </trkpt>
      <trkpt lat="42.7057" lon="0.66687">
        <ele>1697.6</ele>
        <time>2018-08-08T12:46:32.000Z</time>
      </trkpt>
      <trkpt lat="42.70569" lon="0.66687">
        <ele>1697.6</ele>
        <time>2018-08-08T12:46:33.000Z</time>
      </trkpt>
      <trkpt lat="42.70569" lon="0.66687">
        <ele>1697.6</ele>
        <time>2018-08-08T12:46:34.000Z</time>
      </trkpt>
      <trkpt lat="42.70569" lon="0.66687">
        <ele>1697.6</ele>
        <time>2018-08-08T12:46:35.000Z</time>
      </trkpt>
      <trkpt lat="42.70569" lon="0.66687">
        <ele>1697.7</ele>
        <time>2018-08-08T12:46:36.000Z</time>
      </trkpt>
      <trkpt lat="42.70569" lon="0.66687">
        <ele>1697.8</ele>
        <time>2018-08-08T12:46:37.000Z</time>
      </trkpt>
      <trkpt lat="42.70569" lon="0.66687">
        <ele>1697.9</ele>
        <time>2018-08-08T12:46:38.000Z</time>
      </trkpt>
      <trkpt lat="42.70569" lon="0.66686">
        <ele>1698</ele>
        <time>2018-08-08T12:46:39.000Z</time>
      </trkpt>
      <trkpt lat="42.70568" lon="0.66686">
        <ele>1698.1</ele>
        <time>2018-08-08T12:46:40.000Z</time>
      </trkpt>
      <trkpt lat="42.70568" lon="0.66686">
        <ele>1698.3</ele>
        <time>2018-08-08T12:46:41.000Z</time>
      </trkpt>
      <trkpt lat="42.70567" lon="0.66686">
        <ele>1698.4</ele>
        <time>2018-08-08T12:46:42.000Z</time>
      </trkpt>
      <trkpt lat="42.70567" lon="0.66686">
        <ele>1698.6</ele>
        <time>2018-08-08T12:46:43.000Z</time>
      </trkpt>
      <trkpt lat="42.70567" lon="0.66685">
        <ele>1698.8</ele>
        <time>2018-08-08T12:46:44.000Z</time>
      </trkpt>
      <trkpt lat="42.70566" lon="0.66685">
        <ele>1699</ele>
        <time>2018-08-08T12:46:45.000Z</time>
      </trkpt>
      <trkpt lat="42.70566" lon="0.66685">
        <ele>1699.1</ele>
        <time>2018-08-08T12:46:46.000Z</time>
      </trkpt>
      <trkpt lat="42.70565" lon="0.66685">
        <ele>1699.3</ele>
        <time>2018-08-08T12:46:47.000Z</time>
      </trkpt>
      <trkpt lat="42.70565" lon="0.66684">
        <ele>1699.5</ele>
        <time>2018-08-08T12:46:48.000Z</time>
      </trkpt>
      <trkpt lat="42.70564" lon="0.66684">
        <ele>1699.6</ele>
        <time>2018-08-08T12:46:49.000Z</time>
      </trkpt>
      <trkpt lat="42.70564" lon="0.66684">
        <ele>1699.8</ele>
        <time>2018-08-08T12:46:50.000Z</time>
      </trkpt>
      <trkpt lat="42.70564" lon="0.66684">
        <ele>1699.9</ele>
        <time>2018-08-08T12:46:51.000Z</time>
      </trkpt>
      <trkpt lat="42.70563" lon="0.66683">
        <ele>1700.1</ele>
        <time>2018-08-08T12:46:52.000Z</time>
      </trkpt>
      <trkpt lat="42.70563" lon="0.66683">
        <ele>1700.2</ele>
        <time>2018-08-08T12:46:53.000Z</time>
      </trkpt>
      <trkpt lat="42.70563" lon="0.66683">
        <ele>1700.3</ele>
        <time>2018-08-08T12:46:54.000Z</time>
      </trkpt>
      <trkpt lat="42.70563" lon="0.66683">
        <ele>1700.4</ele>
        <time>2018-08-08T12:46:55.000Z</time>
      </trkpt>
      <trkpt lat="42.70562" lon="0.66682">
        <ele>1700.6</ele>
        <time>2018-08-08T12:46:56.000Z</time>
      </trkpt>
      <trkpt lat="42.70562" lon="0.66682">
        <ele>1700.8</ele>
        <time>2018-08-08T12:46:57.000Z</time>
      </trkpt>
      <trkpt lat="42.70561" lon="0.66682">
        <ele>1701</ele>
        <time>2018-08-08T12:46:58.000Z</time>
      </trkpt>
      <trkpt lat="42.70561" lon="0.66681">
        <ele>1701.2</ele>
        <time>2018-08-08T12:46:59.000Z</time>
      </trkpt>
      <trkpt lat="42.7056" lon="0.66681">
        <ele>1701.4</ele>
        <time>2018-08-08T12:47:00.000Z</time>
      </trkpt>
      <trkpt lat="42.7056" lon="0.66681">
        <ele>1701.6</ele>
        <time>2018-08-08T12:47:01.000Z</time>
      </trkpt>
      <trkpt lat="42.70559" lon="0.6668">
        <ele>1701.8</ele>
        <time>2018-08-08T12:47:02.000Z</time>
      </trkpt>
      <trkpt lat="42.70559" lon="0.6668">
        <ele>1702</ele>
        <time>2018-08-08T12:47:03.000Z</time>
      </trkpt>
      <trkpt lat="42.70559" lon="0.6668">
        <ele>1702.2</ele>
        <time>2018-08-08T12:47:04.000Z</time>
      </trkpt>
      <trkpt lat="42.70558" lon="0.66679">
        <ele>1702.4</ele>
        <time>2018-08-08T12:47:05.000Z</time>
      </trkpt>
      <trkpt lat="42.70558" lon="0.66679">
        <ele>1702.5</ele>
        <time>2018-08-08T12:47:06.000Z</time>
      </trkpt>
      <trkpt lat="42.70558" lon="0.66679">
        <ele>1702.6</ele>
        <time>2018-08-08T12:47:07.000Z</time>
      </trkpt>
      <trkpt lat="42.70557" lon="0.66679">
        <ele>1702.7</ele>
        <time>2018-08-08T12:47:08.000Z</time>
      </trkpt>
      <trkpt lat="42.70557" lon="0.66679">
        <ele>1702.8</ele>
        <time>2018-08-08T12:47:09.000Z</time>
      </trkpt>
      <trkpt lat="42.70557" lon="0.66678">
        <ele>1702.8</ele>
        <time>2018-08-08T12:47:10.000Z</time>
      </trkpt>
      <trkpt lat="42.70557" lon="0.66678">
        <ele>1702.8</ele>
        <time>2018-08-08T12:47:11.000Z</time>
      </trkpt>
      <trkpt lat="42.70557" lon="0.66678">
        <ele>1702.9</ele>
        <time>2018-08-08T12:47:12.000Z</time>
      </trkpt>
      <trkpt lat="42.70557" lon="0.66678">
        <ele>1702.9</ele>
        <time>2018-08-08T12:47:13.000Z</time>
      </trkpt>
      <trkpt lat="42.70557" lon="0.66678">
        <ele>1702.9</ele>
        <time>2018-08-08T12:47:14.000Z</time>
      </trkpt>
      <trkpt lat="42.70557" lon="0.66678">
        <ele>1702.9</ele>
        <time>2018-08-08T12:47:15.000Z</time>
      </trkpt>
      <trkpt lat="42.70557" lon="0.66678">
        <ele>1702.9</ele>
        <time>2018-08-08T12:47:16.000Z</time>
      </trkpt>
      <trkpt lat="42.70557" lon="0.66678">
        <ele>1702.9</ele>
        <time>2018-08-08T12:47:17.000Z</time>
      </trkpt>
      <trkpt lat="42.70557" lon="0.66678">
        <ele>1702.9</ele>
        <time>2018-08-08T12:47:18.000Z</time>
      </trkpt>
      <trkpt lat="42.70557" lon="0.66678">
        <ele>1702.9</ele>
        <time>2018-08-08T12:47:19.000Z</time>
      </trkpt>
      <trkpt lat="42.70557" lon="0.66678">
        <ele>1702.9</ele>
        <time>2018-08-08T12:47:20.000Z</time>
      </trkpt>
      <trkpt lat="42.70557" lon="0.66678">
        <ele>1702.9</ele>
        <time>2018-08-08T12:47:21.000Z</time>
      </trkpt>
      <trkpt lat="42.70557" lon="0.66678">
        <ele>1702.9</ele>
        <time>2018-08-08T12:47:22.000Z</time>
      </trkpt>
      <trkpt lat="42.70557" lon="0.66678">
        <ele>1702.9</ele>
        <time>2018-08-08T12:47:23.000Z</time>
      </trkpt>
      <trkpt lat="42.70557" lon="0.66678">
        <ele>1702.9</ele>
        <time>2018-08-08T12:47:24.000Z</time>
      </trkpt>
      <trkpt lat="42.70557" lon="0.66678">
        <ele>1702.9</ele>
        <time>2018-08-08T12:47:25.000Z</time>
      </trkpt>
      <trkpt lat="42.70557" lon="0.66678">
        <ele>1703</ele>
        <time>2018-08-08T12:47:26.000Z</time>
      </trkpt>
      <trkpt lat="42.70556" lon="0.66678">
        <ele>1703</ele>
        <time>2018-08-08T12:47:27.000Z</time>
      </trkpt>
      <trkpt lat="42.70556" lon="0.66678">
        <ele>1703.1</ele>
        <time>2018-08-08T12:47:28.000Z</time>
      </trkpt>
      <trkpt lat="42.70556" lon="0.66678">
        <ele>1703.2</ele>
        <time>2018-08-08T12:47:29.000Z</time>
      </trkpt>
      <trkpt lat="42.70556" lon="0.66678">
        <ele>1703.3</ele>
        <time>2018-08-08T12:47:30.000Z</time>
      </trkpt>
      <trkpt lat="42.70555" lon="0.66678">
        <ele>1703.4</ele>
        <time>2018-08-08T12:47:31.000Z</time>
      </trkpt>
      <trkpt lat="42.70555" lon="0.66678">
        <ele>1703.5</ele>
        <time>2018-08-08T12:47:32.000Z</time>
      </trkpt>
      <trkpt lat="42.70554" lon="0.66678">
        <ele>1703.7</ele>
        <time>2018-08-08T12:47:33.000Z</time>
      </trkpt>
      <trkpt lat="42.70554" lon="0.66677">
        <ele>1703.9</ele>
        <time>2018-08-08T12:47:34.000Z</time>
      </trkpt>
      <trkpt lat="42.70553" lon="0.66677">
        <ele>1704</ele>
        <time>2018-08-08T12:47:35.000Z</time>
      </trkpt>
      <trkpt lat="42.70552" lon="0.66677">
        <ele>1704.2</ele>
        <time>2018-08-08T12:47:36.000Z</time>
      </trkpt>
      <trkpt lat="42.70552" lon="0.66677">
        <ele>1704.4</ele>
        <time>2018-08-08T12:47:37.000Z</time>
      </trkpt>
      <trkpt lat="42.70551" lon="0.66676">
        <ele>1704.6</ele>
        <time>2018-08-08T12:47:38.000Z</time>
      </trkpt>
      <trkpt lat="42.70551" lon="0.66676">
        <ele>1704.8</ele>
        <time>2018-08-08T12:47:39.000Z</time>
      </trkpt>
      <trkpt lat="42.7055" lon="0.66676">
        <ele>1704.9</ele>
        <time>2018-08-08T12:47:40.000Z</time>
      </trkpt>
      <trkpt lat="42.7055" lon="0.66676">
        <ele>1705.1</ele>
        <time>2018-08-08T12:47:41.000Z</time>
      </trkpt>
      <trkpt lat="42.7055" lon="0.66675">
        <ele>1705.2</ele>
        <time>2018-08-08T12:47:42.000Z</time>
      </trkpt>
      <trkpt lat="42.70549" lon="0.66675">
        <ele>1705.3</ele>
        <time>2018-08-08T12:47:43.000Z</time>
      </trkpt>
      <trkpt lat="42.70549" lon="0.66675">
        <ele>1705.4</ele>
        <time>2018-08-08T12:47:44.000Z</time>
      </trkpt>
      <trkpt lat="42.70549" lon="0.66675">
        <ele>1705.6</ele>
        <time>2018-08-08T12:47:45.000Z</time>
      </trkpt>
      <trkpt lat="42.70549" lon="0.66674">
        <ele>1705.7</ele>
        <time>2018-08-08T12:47:46.000Z</time>
      </trkpt>
      <trkpt lat="42.70549" lon="0.66674">
        <ele>1705.8</ele>
        <time>2018-08-08T12:47:47.000Z</time>
      </trkpt>
      <trkpt lat="42.70548" lon="0.66674">
        <ele>1705.9</ele>
        <time>2018-08-08T12:47:48.000Z</time>
      </trkpt>
      <trkpt lat="42.70548" lon="0.66674">
        <ele>1706</ele>
        <time>2018-08-08T12:47:49.000Z</time>
      </trkpt>
      <trkpt lat="42.70548" lon="0.66673">
        <ele>1706.2</ele>
        <time>2018-08-08T12:47:50.000Z</time>
      </trkpt>
      <trkpt lat="42.70547" lon="0.66673">
        <ele>1706.3</ele>
        <time>2018-08-08T12:47:51.000Z</time>
      </trkpt>
      <trkpt lat="42.70547" lon="0.66673">
        <ele>1706.5</ele>
        <time>2018-08-08T12:47:52.000Z</time>
      </trkpt>
      <trkpt lat="42.70546" lon="0.66673">
        <ele>1706.6</ele>
        <time>2018-08-08T12:47:53.000Z</time>
      </trkpt>
      <trkpt lat="42.70545" lon="0.66673">
        <ele>1706.8</ele>
        <time>2018-08-08T12:47:54.000Z</time>
      </trkpt>
      <trkpt lat="42.70545" lon="0.66673">
        <ele>1706.9</ele>
        <time>2018-08-08T12:47:55.000Z</time>
      </trkpt>
      <trkpt lat="42.70544" lon="0.66672">
        <ele>1707.1</ele>
        <time>2018-08-08T12:47:56.000Z</time>
      </trkpt>
      <trkpt lat="42.70544" lon="0.66672">
        <ele>1707.2</ele>
        <time>2018-08-08T12:47:57.000Z</time>
      </trkpt>
      <trkpt lat="42.70543" lon="0.66672">
        <ele>1707.4</ele>
        <time>2018-08-08T12:47:58.000Z</time>
      </trkpt>
      <trkpt lat="42.70543" lon="0.66672">
        <ele>1707.5</ele>
        <time>2018-08-08T12:47:59.000Z</time>
      </trkpt>
      <trkpt lat="42.70542" lon="0.66672">
        <ele>1707.7</ele>
        <time>2018-08-08T12:48:00.000Z</time>
      </trkpt>
      <trkpt lat="42.70541" lon="0.66672">
        <ele>1707.8</ele>
        <time>2018-08-08T12:48:01.000Z</time>
      </trkpt>
      <trkpt lat="42.70541" lon="0.66672">
        <ele>1707.9</ele>
        <time>2018-08-08T12:48:02.000Z</time>
      </trkpt>
      <trkpt lat="42.70541" lon="0.66671">
        <ele>1708.1</ele>
        <time>2018-08-08T12:48:03.000Z</time>
      </trkpt>
      <trkpt lat="42.7054" lon="0.66671">
        <ele>1708.2</ele>
        <time>2018-08-08T12:48:04.000Z</time>
      </trkpt>
      <trkpt lat="42.7054" lon="0.66671">
        <ele>1708.3</ele>
        <time>2018-08-08T12:48:05.000Z</time>
      </trkpt>
      <trkpt lat="42.70539" lon="0.66671">
        <ele>1708.4</ele>
        <time>2018-08-08T12:48:06.000Z</time>
      </trkpt>
      <trkpt lat="42.70539" lon="0.66671">
        <ele>1708.5</ele>
        <time>2018-08-08T12:48:07.000Z</time>
      </trkpt>
      <trkpt lat="42.70539" lon="0.66671">
        <ele>1708.6</ele>
        <time>2018-08-08T12:48:08.000Z</time>
      </trkpt>
      <trkpt lat="42.70538" lon="0.66671">
        <ele>1708.6</ele>
        <time>2018-08-08T12:48:09.000Z</time>
      </trkpt>
      <trkpt lat="42.70538" lon="0.66671">
        <ele>1708.7</ele>
        <time>2018-08-08T12:48:10.000Z</time>
      </trkpt>
      <trkpt lat="42.70538" lon="0.66671">
        <ele>1708.8</ele>
        <time>2018-08-08T12:48:11.000Z</time>
      </trkpt>
      <trkpt lat="42.70538" lon="0.66671">
        <ele>1708.8</ele>
        <time>2018-08-08T12:48:12.000Z</time>
      </trkpt>
      <trkpt lat="42.70538" lon="0.6667">
        <ele>1708.9</ele>
        <time>2018-08-08T12:48:13.000Z</time>
      </trkpt>
      <trkpt lat="42.70537" lon="0.6667">
        <ele>1708.9</ele>
        <time>2018-08-08T12:48:14.000Z</time>
      </trkpt>
      <trkpt lat="42.70537" lon="0.6667">
        <ele>1709</ele>
        <time>2018-08-08T12:48:15.000Z</time>
      </trkpt>
      <trkpt lat="42.70537" lon="0.6667">
        <ele>1709</ele>
        <time>2018-08-08T12:48:16.000Z</time>
      </trkpt>
      <trkpt lat="42.70537" lon="0.6667">
        <ele>1709.1</ele>
        <time>2018-08-08T12:48:17.000Z</time>
      </trkpt>
      <trkpt lat="42.70537" lon="0.6667">
        <ele>1709.1</ele>
        <time>2018-08-08T12:48:18.000Z</time>
      </trkpt>
      <trkpt lat="42.70537" lon="0.6667">
        <ele>1709.1</ele>
        <time>2018-08-08T12:48:19.000Z</time>
      </trkpt>
      <trkpt lat="42.70537" lon="0.6667">
        <ele>1709.1</ele>
        <time>2018-08-08T12:48:20.000Z</time>
      </trkpt>
      <trkpt lat="42.70537" lon="0.6667">
        <ele>1709.1</ele>
        <time>2018-08-08T12:48:21.000Z</time>
      </trkpt>
      <trkpt lat="42.70537" lon="0.6667">
        <ele>1709.2</ele>
        <time>2018-08-08T12:48:22.000Z</time>
      </trkpt>
      <trkpt lat="42.70537" lon="0.6667">
        <ele>1709.2</ele>
        <time>2018-08-08T12:48:23.000Z</time>
      </trkpt>
      <trkpt lat="42.70537" lon="0.6667">
        <ele>1709.2</ele>
        <time>2018-08-08T12:48:24.000Z</time>
      </trkpt>
      <trkpt lat="42.70537" lon="0.6667">
        <ele>1709.2</ele>
        <time>2018-08-08T12:48:25.000Z</time>
      </trkpt>
      <trkpt lat="42.70537" lon="0.6667">
        <ele>1709.2</ele>
        <time>2018-08-08T12:48:26.000Z</time>
      </trkpt>
      <trkpt lat="42.70537" lon="0.6667">
        <ele>1709.2</ele>
        <time>2018-08-08T12:48:27.000Z</time>
      </trkpt>
      <trkpt lat="42.70537" lon="0.6667">
        <ele>1709.2</ele>
        <time>2018-08-08T12:48:28.000Z</time>
      </trkpt>
      <trkpt lat="42.70537" lon="0.6667">
        <ele>1709.2</ele>
        <time>2018-08-08T12:48:29.000Z</time>
      </trkpt>
      <trkpt lat="42.70537" lon="0.6667">
        <ele>1709.1</ele>
        <time>2018-08-08T12:48:30.000Z</time>
      </trkpt>
      <trkpt lat="42.70537" lon="0.6667">
        <ele>1709.1</ele>
        <time>2018-08-08T12:48:31.000Z</time>
      </trkpt>
      <trkpt lat="42.70537" lon="0.6667">
        <ele>1709.1</ele>
        <time>2018-08-08T12:48:32.000Z</time>
      </trkpt>
      <trkpt lat="42.70537" lon="0.66671">
        <ele>1709.1</ele>
        <time>2018-08-08T12:48:33.000Z</time>
      </trkpt>
      <trkpt lat="42.70537" lon="0.66671">
        <ele>1709.1</ele>
        <time>2018-08-08T12:48:34.000Z</time>
      </trkpt>
      <trkpt lat="42.70537" lon="0.66671">
        <ele>1709</ele>
        <time>2018-08-08T12:48:35.000Z</time>
      </trkpt>
      <trkpt lat="42.70537" lon="0.66671">
        <ele>1709</ele>
        <time>2018-08-08T12:48:36.000Z</time>
      </trkpt>
      <trkpt lat="42.70537" lon="0.66671">
        <ele>1709</ele>
        <time>2018-08-08T12:48:37.000Z</time>
      </trkpt>
      <trkpt lat="42.70537" lon="0.66671">
        <ele>1708.9</ele>
        <time>2018-08-08T12:48:38.000Z</time>
      </trkpt>
      <trkpt lat="42.70537" lon="0.66671">
        <ele>1708.9</ele>
        <time>2018-08-08T12:48:39.000Z</time>
      </trkpt>
      <trkpt lat="42.70536" lon="0.66672">
        <ele>1708.9</ele>
        <time>2018-08-08T12:48:40.000Z</time>
      </trkpt>
      <trkpt lat="42.70536" lon="0.66672">
        <ele>1708.8</ele>
        <time>2018-08-08T12:48:41.000Z</time>
      </trkpt>
      <trkpt lat="42.70536" lon="0.66672">
        <ele>1708.8</ele>
        <time>2018-08-08T12:48:42.000Z</time>
      </trkpt>
      <trkpt lat="42.70536" lon="0.66672">
        <ele>1708.7</ele>
        <time>2018-08-08T12:48:43.000Z</time>
      </trkpt>
      <trkpt lat="42.70536" lon="0.66672">
        <ele>1708.7</ele>
        <time>2018-08-08T12:48:44.000Z</time>
      </trkpt>
      <trkpt lat="42.70536" lon="0.66673">
        <ele>1708.6</ele>
        <time>2018-08-08T12:48:45.000Z</time>
      </trkpt>
      <trkpt lat="42.70536" lon="0.66673">
        <ele>1708.6</ele>
        <time>2018-08-08T12:48:46.000Z</time>
      </trkpt>
      <trkpt lat="42.70536" lon="0.66673">
        <ele>1708.5</ele>
        <time>2018-08-08T12:48:47.000Z</time>
      </trkpt>
      <trkpt lat="42.70536" lon="0.66674">
        <ele>1708.4</ele>
        <time>2018-08-08T12:48:48.000Z</time>
      </trkpt>
      <trkpt lat="42.70536" lon="0.66674">
        <ele>1708.4</ele>
        <time>2018-08-08T12:48:49.000Z</time>
      </trkpt>
      <trkpt lat="42.70536" lon="0.66674">
        <ele>1708.3</ele>
        <time>2018-08-08T12:48:50.000Z</time>
      </trkpt>
      <trkpt lat="42.70536" lon="0.66675">
        <ele>1708.2</ele>
        <time>2018-08-08T12:48:51.000Z</time>
      </trkpt>
      <trkpt lat="42.70536" lon="0.66675">
        <ele>1708.2</ele>
        <time>2018-08-08T12:48:52.000Z</time>
      </trkpt>
      <trkpt lat="42.70536" lon="0.66675">
        <ele>1708.1</ele>
        <time>2018-08-08T12:48:53.000Z</time>
      </trkpt>
      <trkpt lat="42.70536" lon="0.66675">
        <ele>1708.1</ele>
        <time>2018-08-08T12:48:54.000Z</time>
      </trkpt>
      <trkpt lat="42.70536" lon="0.66676">
        <ele>1708.1</ele>
        <time>2018-08-08T12:48:55.000Z</time>
      </trkpt>
      <trkpt lat="42.70536" lon="0.66676">
        <ele>1708</ele>
        <time>2018-08-08T12:48:56.000Z</time>
      </trkpt>
      <trkpt lat="42.70536" lon="0.66676">
        <ele>1708</ele>
        <time>2018-08-08T12:48:57.000Z</time>
      </trkpt>
      <trkpt lat="42.70536" lon="0.66676">
        <ele>1707.9</ele>
        <time>2018-08-08T12:48:58.000Z</time>
      </trkpt>
      <trkpt lat="42.70536" lon="0.66676">
        <ele>1707.9</ele>
        <time>2018-08-08T12:48:59.000Z</time>
      </trkpt>
      <trkpt lat="42.70536" lon="0.66676">
        <ele>1707.9</ele>
        <time>2018-08-08T12:49:00.000Z</time>
      </trkpt>
      <trkpt lat="42.70536" lon="0.66676">
        <ele>1707.9</ele>
        <time>2018-08-08T12:49:01.000Z</time>
      </trkpt>
      <trkpt lat="42.70536" lon="0.66676">
        <ele>1707.9</ele>
        <time>2018-08-08T12:49:02.000Z</time>
      </trkpt>
      <trkpt lat="42.70536" lon="0.66676">
        <ele>1707.9</ele>
        <time>2018-08-08T12:49:03.000Z</time>
      </trkpt>
      <trkpt lat="42.70536" lon="0.66676">
        <ele>1707.9</ele>
        <time>2018-08-08T12:49:04.000Z</time>
      </trkpt>
      <trkpt lat="42.70536" lon="0.66676">
        <ele>1707.9</ele>
        <time>2018-08-08T12:49:05.000Z</time>
      </trkpt>
      <trkpt lat="42.70536" lon="0.66676">
        <ele>1707.9</ele>
        <time>2018-08-08T12:49:06.000Z</time>
      </trkpt>
      <trkpt lat="42.70536" lon="0.66676">
        <ele>1707.9</ele>
        <time>2018-08-08T12:49:07.000Z</time>
      </trkpt>
      <trkpt lat="42.70536" lon="0.66676">
        <ele>1707.9</ele>
        <time>2018-08-08T12:49:08.000Z</time>
      </trkpt>
      <trkpt lat="42.70536" lon="0.66676">
        <ele>1707.9</ele>
        <time>2018-08-08T12:49:09.000Z</time>
      </trkpt>
      <trkpt lat="42.70536" lon="0.66676">
        <ele>1707.9</ele>
        <time>2018-08-08T12:49:10.000Z</time>
      </trkpt>
      <trkpt lat="42.70536" lon="0.66676">
        <ele>1707.9</ele>
        <time>2018-08-08T12:49:11.000Z</time>
      </trkpt>
      <trkpt lat="42.70535" lon="0.66676">
        <ele>1708</ele>
        <time>2018-08-08T12:49:12.000Z</time>
      </trkpt>
      <trkpt lat="42.70535" lon="0.66676">
        <ele>1708</ele>
        <time>2018-08-08T12:49:13.000Z</time>
      </trkpt>
      <trkpt lat="42.70535" lon="0.66676">
        <ele>1708</ele>
        <time>2018-08-08T12:49:14.000Z</time>
      </trkpt>
      <trkpt lat="42.70535" lon="0.66676">
        <ele>1708</ele>
        <time>2018-08-08T12:49:15.000Z</time>
      </trkpt>
      <trkpt lat="42.70535" lon="0.66676">
        <ele>1708</ele>
        <time>2018-08-08T12:49:16.000Z</time>
      </trkpt>
      <trkpt lat="42.70535" lon="0.66676">
        <ele>1708</ele>
        <time>2018-08-08T12:49:17.000Z</time>
      </trkpt>
      <trkpt lat="42.70535" lon="0.66676">
        <ele>1708.1</ele>
        <time>2018-08-08T12:49:18.000Z</time>
      </trkpt>
      <trkpt lat="42.70535" lon="0.66676">
        <ele>1708.2</ele>
        <time>2018-08-08T12:49:19.000Z</time>
      </trkpt>
      <trkpt lat="42.70535" lon="0.66676">
        <ele>1708.3</ele>
        <time>2018-08-08T12:49:20.000Z</time>
      </trkpt>
      <trkpt lat="42.70535" lon="0.66676">
        <ele>1708.3</ele>
        <time>2018-08-08T12:49:21.000Z</time>
      </trkpt>
      <trkpt lat="42.70535" lon="0.66676">
        <ele>1708.3</ele>
        <time>2018-08-08T12:49:22.000Z</time>
      </trkpt>
      <trkpt lat="42.70535" lon="0.66676">
        <ele>1708.3</ele>
        <time>2018-08-08T12:49:23.000Z</time>
      </trkpt>
      <trkpt lat="42.70535" lon="0.66676">
        <ele>1708.3</ele>
        <time>2018-08-08T12:49:24.000Z</time>
      </trkpt>
      <trkpt lat="42.70535" lon="0.66676">
        <ele>1708.3</ele>
        <time>2018-08-08T12:49:25.000Z</time>
      </trkpt>
      <trkpt lat="42.70535" lon="0.66676">
        <ele>1708.3</ele>
        <time>2018-08-08T12:49:26.000Z</time>
      </trkpt>
      <trkpt lat="42.70535" lon="0.66676">
        <ele>1708.3</ele>
        <time>2018-08-08T12:49:27.000Z</time>
      </trkpt>
      <trkpt lat="42.70534" lon="0.66675">
        <ele>1708.4</ele>
        <time>2018-08-08T12:49:28.000Z</time>
      </trkpt>
      <trkpt lat="42.70534" lon="0.66675">
        <ele>1708.4</ele>
        <time>2018-08-08T12:49:29.000Z</time>
      </trkpt>
      <trkpt lat="42.70534" lon="0.66675">
        <ele>1708.5</ele>
        <time>2018-08-08T12:49:30.000Z</time>
      </trkpt>
      <trkpt lat="42.70534" lon="0.66675">
        <ele>1708.5</ele>
        <time>2018-08-08T12:49:31.000Z</time>
      </trkpt>
      <trkpt lat="42.70534" lon="0.66675">
        <ele>1708.5</ele>
        <time>2018-08-08T12:49:32.000Z</time>
      </trkpt>
      <trkpt lat="42.70534" lon="0.66675">
        <ele>1708.5</ele>
        <time>2018-08-08T12:49:33.000Z</time>
      </trkpt>
      <trkpt lat="42.70534" lon="0.66675">
        <ele>1708.5</ele>
        <time>2018-08-08T12:49:34.000Z</time>
      </trkpt>
      <trkpt lat="42.70534" lon="0.66675">
        <ele>1708.6</ele>
        <time>2018-08-08T12:49:35.000Z</time>
      </trkpt>
      <trkpt lat="42.70534" lon="0.66675">
        <ele>1708.6</ele>
        <time>2018-08-08T12:49:36.000Z</time>
      </trkpt>
      <trkpt lat="42.70534" lon="0.66674">
        <ele>1708.7</ele>
        <time>2018-08-08T12:49:37.000Z</time>
      </trkpt>
      <trkpt lat="42.70534" lon="0.66674">
        <ele>1708.7</ele>
        <time>2018-08-08T12:49:38.000Z</time>
      </trkpt>
      <trkpt lat="42.70535" lon="0.66673">
        <ele>1708.8</ele>
        <time>2018-08-08T12:49:39.000Z</time>
      </trkpt>
      <trkpt lat="42.70535" lon="0.66673">
        <ele>1708.9</ele>
        <time>2018-08-08T12:49:40.000Z</time>
      </trkpt>
      <trkpt lat="42.70535" lon="0.66673">
        <ele>1709</ele>
        <time>2018-08-08T12:49:41.000Z</time>
      </trkpt>
      <trkpt lat="42.70535" lon="0.66672">
        <ele>1709</ele>
        <time>2018-08-08T12:49:42.000Z</time>
      </trkpt>
      <trkpt lat="42.70535" lon="0.66672">
        <ele>1709.1</ele>
        <time>2018-08-08T12:49:43.000Z</time>
      </trkpt>
      <trkpt lat="42.70535" lon="0.66672">
        <ele>1709.1</ele>
        <time>2018-08-08T12:49:44.000Z</time>
      </trkpt>
      <trkpt lat="42.70535" lon="0.66672">
        <ele>1709.1</ele>
        <time>2018-08-08T12:49:45.000Z</time>
      </trkpt>
      <trkpt lat="42.70535" lon="0.66672">
        <ele>1709.2</ele>
        <time>2018-08-08T12:49:46.000Z</time>
      </trkpt>
      <trkpt lat="42.70535" lon="0.66672">
        <ele>1709.2</ele>
        <time>2018-08-08T12:49:47.000Z</time>
      </trkpt>
      <trkpt lat="42.70535" lon="0.66672">
        <ele>1709.2</ele>
        <time>2018-08-08T12:49:48.000Z</time>
      </trkpt>
      <trkpt lat="42.70535" lon="0.66672">
        <ele>1709.2</ele>
        <time>2018-08-08T12:49:49.000Z</time>
      </trkpt>
      <trkpt lat="42.70535" lon="0.66672">
        <ele>1709.2</ele>
        <time>2018-08-08T12:49:50.000Z</time>
      </trkpt>
      <trkpt lat="42.70535" lon="0.66672">
        <ele>1709.2</ele>
        <time>2018-08-08T12:49:51.000Z</time>
      </trkpt>
      <trkpt lat="42.70535" lon="0.66672">
        <ele>1709.2</ele>
        <time>2018-08-08T12:49:52.000Z</time>
      </trkpt>
      <trkpt lat="42.70535" lon="0.66671">
        <ele>1709.2</ele>
        <time>2018-08-08T12:49:53.000Z</time>
      </trkpt>
      <trkpt lat="42.70535" lon="0.66671">
        <ele>1709.2</ele>
        <time>2018-08-08T12:49:54.000Z</time>
      </trkpt>
      <trkpt lat="42.70535" lon="0.66671">
        <ele>1709.2</ele>
        <time>2018-08-08T12:49:55.000Z</time>
      </trkpt>
      <trkpt lat="42.70535" lon="0.66671">
        <ele>1709.2</ele>
        <time>2018-08-08T12:49:56.000Z</time>
      </trkpt>
      <trkpt lat="42.70535" lon="0.66671">
        <ele>1709.2</ele>
        <time>2018-08-08T12:49:57.000Z</time>
      </trkpt>
      <trkpt lat="42.70536" lon="0.66671">
        <ele>1709.2</ele>
        <time>2018-08-08T12:49:58.000Z</time>
      </trkpt>
      <trkpt lat="42.70536" lon="0.66671">
        <ele>1709.2</ele>
        <time>2018-08-08T12:49:59.000Z</time>
      </trkpt>
      <trkpt lat="42.70536" lon="0.66671">
        <ele>1709.2</ele>
        <time>2018-08-08T12:50:00.000Z</time>
      </trkpt>
      <trkpt lat="42.70536" lon="0.6667">
        <ele>1709.2</ele>
        <time>2018-08-08T12:50:01.000Z</time>
      </trkpt>
      <trkpt lat="42.70536" lon="0.6667">
        <ele>1709.2</ele>
        <time>2018-08-08T12:50:02.000Z</time>
      </trkpt>
      <trkpt lat="42.70537" lon="0.6667">
        <ele>1709.3</ele>
        <time>2018-08-08T12:50:03.000Z</time>
      </trkpt>
      <trkpt lat="42.70537" lon="0.66669">
        <ele>1709.3</ele>
        <time>2018-08-08T12:50:04.000Z</time>
      </trkpt>
      <trkpt lat="42.70537" lon="0.66669">
        <ele>1709.3</ele>
        <time>2018-08-08T12:50:05.000Z</time>
      </trkpt>
      <trkpt lat="42.70538" lon="0.66669">
        <ele>1709.3</ele>
        <time>2018-08-08T12:50:06.000Z</time>
      </trkpt>
      <trkpt lat="42.70538" lon="0.66669">
        <ele>1709.3</ele>
        <time>2018-08-08T12:50:07.000Z</time>
      </trkpt>
      <trkpt lat="42.70538" lon="0.66668">
        <ele>1709.4</ele>
        <time>2018-08-08T12:50:08.000Z</time>
      </trkpt>
      <trkpt lat="42.70538" lon="0.66668">
        <ele>1709.4</ele>
        <time>2018-08-08T12:50:09.000Z</time>
      </trkpt>
      <trkpt lat="42.70538" lon="0.66668">
        <ele>1709.4</ele>
        <time>2018-08-08T12:50:10.000Z</time>
      </trkpt>
      <trkpt lat="42.70539" lon="0.66668">
        <ele>1709.4</ele>
        <time>2018-08-08T12:50:11.000Z</time>
      </trkpt>
      <trkpt lat="42.70539" lon="0.66667">
        <ele>1709.4</ele>
        <time>2018-08-08T12:50:12.000Z</time>
      </trkpt>
      <trkpt lat="42.70539" lon="0.66667">
        <ele>1709.4</ele>
        <time>2018-08-08T12:50:13.000Z</time>
      </trkpt>
      <trkpt lat="42.70539" lon="0.66667">
        <ele>1709.4</ele>
        <time>2018-08-08T12:50:14.000Z</time>
      </trkpt>
      <trkpt lat="42.70539" lon="0.66667">
        <ele>1709.4</ele>
        <time>2018-08-08T12:50:15.000Z</time>
      </trkpt>
      <trkpt lat="42.70539" lon="0.66667">
        <ele>1709.4</ele>
        <time>2018-08-08T12:50:16.000Z</time>
      </trkpt>
      <trkpt lat="42.70539" lon="0.66667">
        <ele>1709.4</ele>
        <time>2018-08-08T12:50:17.000Z</time>
      </trkpt>
      <trkpt lat="42.70539" lon="0.66667">
        <ele>1709.4</ele>
        <time>2018-08-08T12:50:18.000Z</time>
      </trkpt>
      <trkpt lat="42.70539" lon="0.66667">
        <ele>1709.4</ele>
        <time>2018-08-08T12:50:19.000Z</time>
      </trkpt>
      <trkpt lat="42.70539" lon="0.66667">
        <ele>1709.4</ele>
        <time>2018-08-08T12:50:20.000Z</time>
      </trkpt>
      <trkpt lat="42.70539" lon="0.66667">
        <ele>1709.4</ele>
        <time>2018-08-08T12:50:21.000Z</time>
      </trkpt>
      <trkpt lat="42.70539" lon="0.66667">
        <ele>1709.4</ele>
        <time>2018-08-08T12:50:22.000Z</time>
      </trkpt>
      <trkpt lat="42.7054" lon="0.66667">
        <ele>1709.4</ele>
        <time>2018-08-08T12:50:23.000Z</time>
      </trkpt>
      <trkpt lat="42.7054" lon="0.66667">
        <ele>1709.4</ele>
        <time>2018-08-08T12:50:24.000Z</time>
      </trkpt>
      <trkpt lat="42.7054" lon="0.66667">
        <ele>1709.4</ele>
        <time>2018-08-08T12:50:25.000Z</time>
      </trkpt>
      <trkpt lat="42.7054" lon="0.66667">
        <ele>1709.4</ele>
        <time>2018-08-08T12:50:26.000Z</time>
      </trkpt>
      <trkpt lat="42.7054" lon="0.66667">
        <ele>1709.4</ele>
        <time>2018-08-08T12:50:27.000Z</time>
      </trkpt>
      <trkpt lat="42.7054" lon="0.66667">
        <ele>1709.4</ele>
        <time>2018-08-08T12:50:28.000Z</time>
      </trkpt>
      <trkpt lat="42.7054" lon="0.66667">
        <ele>1709.4</ele>
        <time>2018-08-08T12:50:29.000Z</time>
      </trkpt>
      <trkpt lat="42.7054" lon="0.66667">
        <ele>1709.4</ele>
        <time>2018-08-08T12:50:30.000Z</time>
      </trkpt>
      <trkpt lat="42.7054" lon="0.66667">
        <ele>1709.4</ele>
        <time>2018-08-08T12:50:31.000Z</time>
      </trkpt>
      <trkpt lat="42.7054" lon="0.66667">
        <ele>1709.4</ele>
        <time>2018-08-08T12:50:32.000Z</time>
      </trkpt>
      <trkpt lat="42.7054" lon="0.66667">
        <ele>1709.4</ele>
        <time>2018-08-08T12:50:33.000Z</time>
      </trkpt>
      <trkpt lat="42.70539" lon="0.66667">
        <ele>1709.4</ele>
        <time>2018-08-08T12:50:34.000Z</time>
      </trkpt>
      <trkpt lat="42.70539" lon="0.66667">
        <ele>1709.4</ele>
        <time>2018-08-08T12:50:35.000Z</time>
      </trkpt>
      <trkpt lat="42.70539" lon="0.66667">
        <ele>1709.4</ele>
        <time>2018-08-08T12:50:36.000Z</time>
      </trkpt>
      <trkpt lat="42.70539" lon="0.66667">
        <ele>1709.4</ele>
        <time>2018-08-08T12:50:37.000Z</time>
      </trkpt>
      <trkpt lat="42.70539" lon="0.66667">
        <ele>1709.4</ele>
        <time>2018-08-08T12:50:38.000Z</time>
      </trkpt>
      <trkpt lat="42.70539" lon="0.66667">
        <ele>1709.4</ele>
        <time>2018-08-08T12:50:39.000Z</time>
      </trkpt>
      <trkpt lat="42.70539" lon="0.66667">
        <ele>1709.4</ele>
        <time>2018-08-08T12:50:40.000Z</time>
      </trkpt>
      <trkpt lat="42.70539" lon="0.66667">
        <ele>1709.4</ele>
        <time>2018-08-08T12:50:41.000Z</time>
      </trkpt>
      <trkpt lat="42.70539" lon="0.66667">
        <ele>1709.4</ele>
        <time>2018-08-08T12:50:42.000Z</time>
      </trkpt>
      <trkpt lat="42.70539" lon="0.66667">
        <ele>1709.4</ele>
        <time>2018-08-08T12:50:43.000Z</time>
      </trkpt>
      <trkpt lat="42.70539" lon="0.66667">
        <ele>1709.4</ele>
        <time>2018-08-08T12:50:44.000Z</time>
      </trkpt>
      <trkpt lat="42.70539" lon="0.66667">
        <ele>1709.5</ele>
        <time>2018-08-08T12:50:45.000Z</time>
      </trkpt>
      <trkpt lat="42.70539" lon="0.66667">
        <ele>1709.5</ele>
        <time>2018-08-08T12:50:46.000Z</time>
      </trkpt>
      <trkpt lat="42.70539" lon="0.66667">
        <ele>1709.5</ele>
        <time>2018-08-08T12:50:47.000Z</time>
      </trkpt>
      <trkpt lat="42.70539" lon="0.66667">
        <ele>1709.5</ele>
        <time>2018-08-08T12:50:48.000Z</time>
      </trkpt>
      <trkpt lat="42.70539" lon="0.66667">
        <ele>1709.5</ele>
        <time>2018-08-08T12:50:49.000Z</time>
      </trkpt>
      <trkpt lat="42.70539" lon="0.66667">
        <ele>1709.5</ele>
        <time>2018-08-08T12:50:50.000Z</time>
      </trkpt>
      <trkpt lat="42.70539" lon="0.66667">
        <ele>1709.5</ele>
        <time>2018-08-08T12:50:51.000Z</time>
      </trkpt>
      <trkpt lat="42.70539" lon="0.66667">
        <ele>1709.4</ele>
        <time>2018-08-08T12:50:52.000Z</time>
      </trkpt>
      <trkpt lat="42.70539" lon="0.66667">
        <ele>1709.4</ele>
        <time>2018-08-08T12:50:53.000Z</time>
      </trkpt>
      <trkpt lat="42.70539" lon="0.66667">
        <ele>1709.4</ele>
        <time>2018-08-08T12:50:54.000Z</time>
      </trkpt>
      <trkpt lat="42.70539" lon="0.66667">
        <ele>1709.4</ele>
        <time>2018-08-08T12:50:55.000Z</time>
      </trkpt>
      <trkpt lat="42.70539" lon="0.66667">
        <ele>1709.4</ele>
        <time>2018-08-08T12:50:56.000Z</time>
      </trkpt>
      <trkpt lat="42.7054" lon="0.66667">
        <ele>1709.4</ele>
        <time>2018-08-08T12:50:57.000Z</time>
      </trkpt>
      <trkpt lat="42.7054" lon="0.66667">
        <ele>1709.4</ele>
        <time>2018-08-08T12:50:58.000Z</time>
      </trkpt>
      <trkpt lat="42.7054" lon="0.66667">
        <ele>1709.4</ele>
        <time>2018-08-08T12:50:59.000Z</time>
      </trkpt>
      <trkpt lat="42.70539" lon="0.66667">
        <ele>1709.4</ele>
        <time>2018-08-08T12:51:00.000Z</time>
      </trkpt>
      <trkpt lat="42.70539" lon="0.66667">
        <ele>1709.4</ele>
        <time>2018-08-08T12:51:01.000Z</time>
      </trkpt>
      <trkpt lat="42.70539" lon="0.66667">
        <ele>1709.4</ele>
        <time>2018-08-08T12:51:02.000Z</time>
      </trkpt>
      <trkpt lat="42.70539" lon="0.66667">
        <ele>1709.4</ele>
        <time>2018-08-08T12:51:03.000Z</time>
      </trkpt>
      <trkpt lat="42.70539" lon="0.66667">
        <ele>1709.4</ele>
        <time>2018-08-08T12:51:04.000Z</time>
      </trkpt>
      <trkpt lat="42.70539" lon="0.66667">
        <ele>1709.4</ele>
        <time>2018-08-08T12:51:05.000Z</time>
      </trkpt>
      <trkpt lat="42.70539" lon="0.66667">
        <ele>1709.4</ele>
        <time>2018-08-08T12:51:06.000Z</time>
      </trkpt>
      <trkpt lat="42.70539" lon="0.66667">
        <ele>1709.4</ele>
        <time>2018-08-08T12:51:07.000Z</time>
      </trkpt>
      <trkpt lat="42.70539" lon="0.66667">
        <ele>1709.5</ele>
        <time>2018-08-08T12:51:08.000Z</time>
      </trkpt>
      <trkpt lat="42.70539" lon="0.66667">
        <ele>1709.4</ele>
        <time>2018-08-08T12:51:09.000Z</time>
      </trkpt>
      <trkpt lat="42.70539" lon="0.66667">
        <ele>1709.5</ele>
        <time>2018-08-08T12:51:10.000Z</time>
      </trkpt>
      <trkpt lat="42.70538" lon="0.66667">
        <ele>1709.5</ele>
        <time>2018-08-08T12:51:11.000Z</time>
      </trkpt>
      <trkpt lat="42.70538" lon="0.66667">
        <ele>1709.5</ele>
        <time>2018-08-08T12:51:12.000Z</time>
      </trkpt>
      <trkpt lat="42.70538" lon="0.66667">
        <ele>1709.6</ele>
        <time>2018-08-08T12:51:13.000Z</time>
      </trkpt>
      <trkpt lat="42.70538" lon="0.66667">
        <ele>1709.6</ele>
        <time>2018-08-08T12:51:14.000Z</time>
      </trkpt>
      <trkpt lat="42.70537" lon="0.66667">
        <ele>1709.7</ele>
        <time>2018-08-08T12:51:15.000Z</time>
      </trkpt>
      <trkpt lat="42.70537" lon="0.66667">
        <ele>1709.8</ele>
        <time>2018-08-08T12:51:16.000Z</time>
      </trkpt>
      <trkpt lat="42.70537" lon="0.66667">
        <ele>1709.8</ele>
        <time>2018-08-08T12:51:17.000Z</time>
      </trkpt>
      <trkpt lat="42.70536" lon="0.66667">
        <ele>1709.9</ele>
        <time>2018-08-08T12:51:18.000Z</time>
      </trkpt>
      <trkpt lat="42.70536" lon="0.66667">
        <ele>1710</ele>
        <time>2018-08-08T12:51:19.000Z</time>
      </trkpt>
      <trkpt lat="42.70535" lon="0.66667">
        <ele>1710.1</ele>
        <time>2018-08-08T12:51:20.000Z</time>
      </trkpt>
      <trkpt lat="42.70535" lon="0.66667">
        <ele>1710.2</ele>
        <time>2018-08-08T12:51:21.000Z</time>
      </trkpt>
      <trkpt lat="42.70534" lon="0.66667">
        <ele>1710.3</ele>
        <time>2018-08-08T12:51:22.000Z</time>
      </trkpt>
      <trkpt lat="42.70534" lon="0.66667">
        <ele>1710.4</ele>
        <time>2018-08-08T12:51:23.000Z</time>
      </trkpt>
      <trkpt lat="42.70533" lon="0.66667">
        <ele>1710.5</ele>
        <time>2018-08-08T12:51:24.000Z</time>
      </trkpt>
      <trkpt lat="42.70532" lon="0.66667">
        <ele>1710.7</ele>
        <time>2018-08-08T12:51:25.000Z</time>
      </trkpt>
      <trkpt lat="42.70532" lon="0.66667">
        <ele>1710.8</ele>
        <time>2018-08-08T12:51:26.000Z</time>
      </trkpt>
      <trkpt lat="42.70531" lon="0.66667">
        <ele>1710.9</ele>
        <time>2018-08-08T12:51:27.000Z</time>
      </trkpt>
      <trkpt lat="42.7053" lon="0.66667">
        <ele>1711</ele>
        <time>2018-08-08T12:51:28.000Z</time>
      </trkpt>
      <trkpt lat="42.7053" lon="0.66667">
        <ele>1711.2</ele>
        <time>2018-08-08T12:51:29.000Z</time>
      </trkpt>
      <trkpt lat="42.70529" lon="0.66668">
        <ele>1711.3</ele>
        <time>2018-08-08T12:51:30.000Z</time>
      </trkpt>
      <trkpt lat="42.70528" lon="0.66668">
        <ele>1711.3</ele>
        <time>2018-08-08T12:51:31.000Z</time>
      </trkpt>
      <trkpt lat="42.70528" lon="0.66668">
        <ele>1711.4</ele>
        <time>2018-08-08T12:51:32.000Z</time>
      </trkpt>
      <trkpt lat="42.70528" lon="0.66668">
        <ele>1711.4</ele>
        <time>2018-08-08T12:51:33.000Z</time>
      </trkpt>
      <trkpt lat="42.70527" lon="0.66668">
        <ele>1711.5</ele>
        <time>2018-08-08T12:51:34.000Z</time>
      </trkpt>
      <trkpt lat="42.70527" lon="0.66668">
        <ele>1711.5</ele>
        <time>2018-08-08T12:51:35.000Z</time>
      </trkpt>
      <trkpt lat="42.70526" lon="0.66669">
        <ele>1711.6</ele>
        <time>2018-08-08T12:51:36.000Z</time>
      </trkpt>
      <trkpt lat="42.70526" lon="0.66669">
        <ele>1711.6</ele>
        <time>2018-08-08T12:51:37.000Z</time>
      </trkpt>
      <trkpt lat="42.70525" lon="0.66669">
        <ele>1711.7</ele>
        <time>2018-08-08T12:51:38.000Z</time>
      </trkpt>
      <trkpt lat="42.70524" lon="0.66669">
        <ele>1711.8</ele>
        <time>2018-08-08T12:51:39.000Z</time>
      </trkpt>
      <trkpt lat="42.70524" lon="0.6667">
        <ele>1711.9</ele>
        <time>2018-08-08T12:51:40.000Z</time>
      </trkpt>
      <trkpt lat="42.70523" lon="0.6667">
        <ele>1712</ele>
        <time>2018-08-08T12:51:41.000Z</time>
      </trkpt>
      <trkpt lat="42.70522" lon="0.6667">
        <ele>1712.1</ele>
        <time>2018-08-08T12:51:42.000Z</time>
      </trkpt>
      <trkpt lat="42.70521" lon="0.6667">
        <ele>1712.2</ele>
        <time>2018-08-08T12:51:43.000Z</time>
      </trkpt>
      <trkpt lat="42.70521" lon="0.6667">
        <ele>1712.4</ele>
        <time>2018-08-08T12:51:44.000Z</time>
      </trkpt>
      <trkpt lat="42.7052" lon="0.6667">
        <ele>1712.5</ele>
        <time>2018-08-08T12:51:45.000Z</time>
      </trkpt>
      <trkpt lat="42.70519" lon="0.6667">
        <ele>1712.7</ele>
        <time>2018-08-08T12:51:46.000Z</time>
      </trkpt>
      <trkpt lat="42.70518" lon="0.6667">
        <ele>1712.9</ele>
        <time>2018-08-08T12:51:47.000Z</time>
      </trkpt>
      <trkpt lat="42.70517" lon="0.6667">
        <ele>1713</ele>
        <time>2018-08-08T12:51:48.000Z</time>
      </trkpt>
      <trkpt lat="42.70517" lon="0.6667">
        <ele>1713.2</ele>
        <time>2018-08-08T12:51:49.000Z</time>
      </trkpt>
      <trkpt lat="42.70516" lon="0.6667">
        <ele>1713.4</ele>
        <time>2018-08-08T12:51:50.000Z</time>
      </trkpt>
      <trkpt lat="42.70515" lon="0.66669">
        <ele>1713.6</ele>
        <time>2018-08-08T12:51:51.000Z</time>
      </trkpt>
      <trkpt lat="42.70514" lon="0.66669">
        <ele>1713.8</ele>
        <time>2018-08-08T12:51:52.000Z</time>
      </trkpt>
      <trkpt lat="42.70514" lon="0.66668">
        <ele>1714.1</ele>
        <time>2018-08-08T12:51:53.000Z</time>
      </trkpt>
      <trkpt lat="42.70513" lon="0.66668">
        <ele>1714.3</ele>
        <time>2018-08-08T12:51:54.000Z</time>
      </trkpt>
      <trkpt lat="42.70512" lon="0.66668">
        <ele>1714.5</ele>
        <time>2018-08-08T12:51:55.000Z</time>
      </trkpt>
      <trkpt lat="42.70512" lon="0.66667">
        <ele>1714.6</ele>
        <time>2018-08-08T12:51:56.000Z</time>
      </trkpt>
      <trkpt lat="42.70512" lon="0.66667">
        <ele>1714.8</ele>
        <time>2018-08-08T12:51:57.000Z</time>
      </trkpt>
      <trkpt lat="42.70511" lon="0.66666">
        <ele>1715</ele>
        <time>2018-08-08T12:51:58.000Z</time>
      </trkpt>
      <trkpt lat="42.70511" lon="0.66666">
        <ele>1715.1</ele>
        <time>2018-08-08T12:51:59.000Z</time>
      </trkpt>
      <trkpt lat="42.70511" lon="0.66666">
        <ele>1715.2</ele>
        <time>2018-08-08T12:52:00.000Z</time>
      </trkpt>
      <trkpt lat="42.70511" lon="0.66666">
        <ele>1715.2</ele>
        <time>2018-08-08T12:52:01.000Z</time>
      </trkpt>
      <trkpt lat="42.70511" lon="0.66666">
        <ele>1715.2</ele>
        <time>2018-08-08T12:52:02.000Z</time>
      </trkpt>
      <trkpt lat="42.70511" lon="0.66666">
        <ele>1715.2</ele>
        <time>2018-08-08T12:52:03.000Z</time>
      </trkpt>
      <trkpt lat="42.70511" lon="0.66666">
        <ele>1715.2</ele>
        <time>2018-08-08T12:52:04.000Z</time>
      </trkpt>
      <trkpt lat="42.70511" lon="0.66666">
        <ele>1715.3</ele>
        <time>2018-08-08T12:52:05.000Z</time>
      </trkpt>
      <trkpt lat="42.70511" lon="0.66666">
        <ele>1715.3</ele>
        <time>2018-08-08T12:52:06.000Z</time>
      </trkpt>
      <trkpt lat="42.70511" lon="0.66666">
        <ele>1715.4</ele>
        <time>2018-08-08T12:52:07.000Z</time>
      </trkpt>
      <trkpt lat="42.7051" lon="0.66666">
        <ele>1715.5</ele>
        <time>2018-08-08T12:52:08.000Z</time>
      </trkpt>
      <trkpt lat="42.7051" lon="0.66665">
        <ele>1715.6</ele>
        <time>2018-08-08T12:52:09.000Z</time>
      </trkpt>
      <trkpt lat="42.7051" lon="0.66665">
        <ele>1715.8</ele>
        <time>2018-08-08T12:52:10.000Z</time>
      </trkpt>
      <trkpt lat="42.7051" lon="0.66665">
        <ele>1716</ele>
        <time>2018-08-08T12:52:11.000Z</time>
      </trkpt>
      <trkpt lat="42.70509" lon="0.66665">
        <ele>1716.1</ele>
        <time>2018-08-08T12:52:12.000Z</time>
      </trkpt>
      <trkpt lat="42.70509" lon="0.66664">
        <ele>1716.3</ele>
        <time>2018-08-08T12:52:13.000Z</time>
      </trkpt>
      <trkpt lat="42.70509" lon="0.66664">
        <ele>1716.5</ele>
        <time>2018-08-08T12:52:14.000Z</time>
      </trkpt>
      <trkpt lat="42.70508" lon="0.66664">
        <ele>1716.7</ele>
        <time>2018-08-08T12:52:15.000Z</time>
      </trkpt>
      <trkpt lat="42.70508" lon="0.66663">
        <ele>1717</ele>
        <time>2018-08-08T12:52:16.000Z</time>
      </trkpt>
      <trkpt lat="42.70507" lon="0.66663">
        <ele>1717.2</ele>
        <time>2018-08-08T12:52:17.000Z</time>
      </trkpt>
      <trkpt lat="42.70507" lon="0.66663">
        <ele>1717.4</ele>
        <time>2018-08-08T12:52:18.000Z</time>
      </trkpt>
      <trkpt lat="42.70506" lon="0.66662">
        <ele>1717.7</ele>
        <time>2018-08-08T12:52:19.000Z</time>
      </trkpt>
      <trkpt lat="42.70506" lon="0.66662">
        <ele>1718</ele>
        <time>2018-08-08T12:52:20.000Z</time>
      </trkpt>
      <trkpt lat="42.70505" lon="0.66662">
        <ele>1718.2</ele>
        <time>2018-08-08T12:52:21.000Z</time>
      </trkpt>
      <trkpt lat="42.70505" lon="0.66661">
        <ele>1718.4</ele>
        <time>2018-08-08T12:52:22.000Z</time>
      </trkpt>
      <trkpt lat="42.70504" lon="0.66661">
        <ele>1718.7</ele>
        <time>2018-08-08T12:52:23.000Z</time>
      </trkpt>
      <trkpt lat="42.70504" lon="0.6666">
        <ele>1718.9</ele>
        <time>2018-08-08T12:52:24.000Z</time>
      </trkpt>
      <trkpt lat="42.70503" lon="0.6666">
        <ele>1719.2</ele>
        <time>2018-08-08T12:52:25.000Z</time>
      </trkpt>
      <trkpt lat="42.70503" lon="0.6666">
        <ele>1719.4</ele>
        <time>2018-08-08T12:52:26.000Z</time>
      </trkpt>
      <trkpt lat="42.70502" lon="0.66659">
        <ele>1719.7</ele>
        <time>2018-08-08T12:52:27.000Z</time>
      </trkpt>
      <trkpt lat="42.70502" lon="0.66659">
        <ele>1719.9</ele>
        <time>2018-08-08T12:52:28.000Z</time>
      </trkpt>
      <trkpt lat="42.70501" lon="0.66659">
        <ele>1720.2</ele>
        <time>2018-08-08T12:52:29.000Z</time>
      </trkpt>
      <trkpt lat="42.70501" lon="0.66658">
        <ele>1720.4</ele>
        <time>2018-08-08T12:52:30.000Z</time>
      </trkpt>
      <trkpt lat="42.705" lon="0.66658">
        <ele>1720.7</ele>
        <time>2018-08-08T12:52:31.000Z</time>
      </trkpt>
      <trkpt lat="42.705" lon="0.66657">
        <ele>1720.9</ele>
        <time>2018-08-08T12:52:32.000Z</time>
      </trkpt>
      <trkpt lat="42.70499" lon="0.66657">
        <ele>1721.3</ele>
        <time>2018-08-08T12:52:33.000Z</time>
      </trkpt>
      <trkpt lat="42.70498" lon="0.66657">
        <ele>1721.6</ele>
        <time>2018-08-08T12:52:34.000Z</time>
      </trkpt>
      <trkpt lat="42.70498" lon="0.66656">
        <ele>1721.9</ele>
        <time>2018-08-08T12:52:35.000Z</time>
      </trkpt>
      <trkpt lat="42.70497" lon="0.66656">
        <ele>1722.3</ele>
        <time>2018-08-08T12:52:36.000Z</time>
      </trkpt>
      <trkpt lat="42.70497" lon="0.66656">
        <ele>1722.6</ele>
        <time>2018-08-08T12:52:37.000Z</time>
      </trkpt>
      <trkpt lat="42.70496" lon="0.66655">
        <ele>1722.9</ele>
        <time>2018-08-08T12:52:38.000Z</time>
      </trkpt>
      <trkpt lat="42.70496" lon="0.66655">
        <ele>1723.2</ele>
        <time>2018-08-08T12:52:39.000Z</time>
      </trkpt>
      <trkpt lat="42.70495" lon="0.66655">
        <ele>1723.5</ele>
        <time>2018-08-08T12:52:40.000Z</time>
      </trkpt>
      <trkpt lat="42.70495" lon="0.66654">
        <ele>1723.8</ele>
        <time>2018-08-08T12:52:41.000Z</time>
      </trkpt>
      <trkpt lat="42.70494" lon="0.66654">
        <ele>1724.1</ele>
        <time>2018-08-08T12:52:42.000Z</time>
      </trkpt>
      <trkpt lat="42.70493" lon="0.66654">
        <ele>1724.4</ele>
        <time>2018-08-08T12:52:43.000Z</time>
      </trkpt>
      <trkpt lat="42.70493" lon="0.66653">
        <ele>1724.8</ele>
        <time>2018-08-08T12:52:44.000Z</time>
      </trkpt>
      <trkpt lat="42.70492" lon="0.66653">
        <ele>1725.1</ele>
        <time>2018-08-08T12:52:45.000Z</time>
      </trkpt>
      <trkpt lat="42.70492" lon="0.66653">
        <ele>1725.4</ele>
        <time>2018-08-08T12:52:46.000Z</time>
      </trkpt>
      <trkpt lat="42.70491" lon="0.66653">
        <ele>1725.7</ele>
        <time>2018-08-08T12:52:47.000Z</time>
      </trkpt>
      <trkpt lat="42.7049" lon="0.66652">
        <ele>1725.9</ele>
        <time>2018-08-08T12:52:48.000Z</time>
      </trkpt>
      <trkpt lat="42.7049" lon="0.66652">
        <ele>1726.2</ele>
        <time>2018-08-08T12:52:49.000Z</time>
      </trkpt>
      <trkpt lat="42.70489" lon="0.66652">
        <ele>1726.5</ele>
        <time>2018-08-08T12:52:50.000Z</time>
      </trkpt>
      <trkpt lat="42.70488" lon="0.66652">
        <ele>1726.8</ele>
        <time>2018-08-08T12:52:51.000Z</time>
      </trkpt>
      <trkpt lat="42.70488" lon="0.66652">
        <ele>1727.1</ele>
        <time>2018-08-08T12:52:52.000Z</time>
      </trkpt>
      <trkpt lat="42.70487" lon="0.66651">
        <ele>1727.4</ele>
        <time>2018-08-08T12:52:53.000Z</time>
      </trkpt>
      <trkpt lat="42.70486" lon="0.66651">
        <ele>1727.7</ele>
        <time>2018-08-08T12:52:54.000Z</time>
      </trkpt>
      <trkpt lat="42.70486" lon="0.66651">
        <ele>1727.9</ele>
        <time>2018-08-08T12:52:55.000Z</time>
      </trkpt>
      <trkpt lat="42.70485" lon="0.66651">
        <ele>1728.2</ele>
        <time>2018-08-08T12:52:56.000Z</time>
      </trkpt>
      <trkpt lat="42.70484" lon="0.66651">
        <ele>1728.4</ele>
        <time>2018-08-08T12:52:57.000Z</time>
      </trkpt>
      <trkpt lat="42.70484" lon="0.66651">
        <ele>1728.7</ele>
        <time>2018-08-08T12:52:58.000Z</time>
      </trkpt>
      <trkpt lat="42.70483" lon="0.66651">
        <ele>1728.9</ele>
        <time>2018-08-08T12:52:59.000Z</time>
      </trkpt>
      <trkpt lat="42.70482" lon="0.66651">
        <ele>1729.2</ele>
        <time>2018-08-08T12:53:00.000Z</time>
      </trkpt>
      <trkpt lat="42.70482" lon="0.66651">
        <ele>1729.4</ele>
        <time>2018-08-08T12:53:01.000Z</time>
      </trkpt>
      <trkpt lat="42.70481" lon="0.66651">
        <ele>1729.7</ele>
        <time>2018-08-08T12:53:02.000Z</time>
      </trkpt>
      <trkpt lat="42.7048" lon="0.66651">
        <ele>1729.9</ele>
        <time>2018-08-08T12:53:03.000Z</time>
      </trkpt>
      <trkpt lat="42.7048" lon="0.66651">
        <ele>1730.1</ele>
        <time>2018-08-08T12:53:04.000Z</time>
      </trkpt>
      <trkpt lat="42.70479" lon="0.66651">
        <ele>1730.3</ele>
        <time>2018-08-08T12:53:05.000Z</time>
      </trkpt>
      <trkpt lat="42.70478" lon="0.66651">
        <ele>1730.5</ele>
        <time>2018-08-08T12:53:06.000Z</time>
      </trkpt>
      <trkpt lat="42.70478" lon="0.66651">
        <ele>1730.7</ele>
        <time>2018-08-08T12:53:07.000Z</time>
      </trkpt>
      <trkpt lat="42.70477" lon="0.66651">
        <ele>1730.9</ele>
        <time>2018-08-08T12:53:08.000Z</time>
      </trkpt>
      <trkpt lat="42.70476" lon="0.66651">
        <ele>1731.1</ele>
        <time>2018-08-08T12:53:09.000Z</time>
      </trkpt>
      <trkpt lat="42.70476" lon="0.66651">
        <ele>1731.3</ele>
        <time>2018-08-08T12:53:10.000Z</time>
      </trkpt>
      <trkpt lat="42.70475" lon="0.66651">
        <ele>1731.5</ele>
        <time>2018-08-08T12:53:11.000Z</time>
      </trkpt>
      <trkpt lat="42.70474" lon="0.66651">
        <ele>1731.7</ele>
        <time>2018-08-08T12:53:12.000Z</time>
      </trkpt>
      <trkpt lat="42.70474" lon="0.66651">
        <ele>1731.8</ele>
        <time>2018-08-08T12:53:13.000Z</time>
      </trkpt>
      <trkpt lat="42.70473" lon="0.66651">
        <ele>1732</ele>
        <time>2018-08-08T12:53:14.000Z</time>
      </trkpt>
      <trkpt lat="42.70472" lon="0.66651">
        <ele>1732.1</ele>
        <time>2018-08-08T12:53:15.000Z</time>
      </trkpt>
      <trkpt lat="42.70472" lon="0.66652">
        <ele>1732.3</ele>
        <time>2018-08-08T12:53:16.000Z</time>
      </trkpt>
      <trkpt lat="42.70471" lon="0.66652">
        <ele>1732.4</ele>
        <time>2018-08-08T12:53:17.000Z</time>
      </trkpt>
      <trkpt lat="42.7047" lon="0.66652">
        <ele>1732.5</ele>
        <time>2018-08-08T12:53:18.000Z</time>
      </trkpt>
      <trkpt lat="42.7047" lon="0.66652">
        <ele>1732.6</ele>
        <time>2018-08-08T12:53:19.000Z</time>
      </trkpt>
      <trkpt lat="42.70469" lon="0.66652">
        <ele>1732.7</ele>
        <time>2018-08-08T12:53:20.000Z</time>
      </trkpt>
      <trkpt lat="42.70468" lon="0.66653">
        <ele>1732.8</ele>
        <time>2018-08-08T12:53:21.000Z</time>
      </trkpt>
      <trkpt lat="42.70468" lon="0.66653">
        <ele>1733</ele>
        <time>2018-08-08T12:53:22.000Z</time>
      </trkpt>
      <trkpt lat="42.70467" lon="0.66653">
        <ele>1733.1</ele>
        <time>2018-08-08T12:53:23.000Z</time>
      </trkpt>
      <trkpt lat="42.70467" lon="0.66653">
        <ele>1733.1</ele>
        <time>2018-08-08T12:53:24.000Z</time>
      </trkpt>
      <trkpt lat="42.70466" lon="0.66654">
        <ele>1733.2</ele>
        <time>2018-08-08T12:53:25.000Z</time>
      </trkpt>
      <trkpt lat="42.70466" lon="0.66654">
        <ele>1733.3</ele>
        <time>2018-08-08T12:53:26.000Z</time>
      </trkpt>
      <trkpt lat="42.70465" lon="0.66654">
        <ele>1733.4</ele>
        <time>2018-08-08T12:53:27.000Z</time>
      </trkpt>
      <trkpt lat="42.70464" lon="0.66654">
        <ele>1733.5</ele>
        <time>2018-08-08T12:53:28.000Z</time>
      </trkpt>
      <trkpt lat="42.70464" lon="0.66654">
        <ele>1733.6</ele>
        <time>2018-08-08T12:53:29.000Z</time>
      </trkpt>
      <trkpt lat="42.70463" lon="0.66655">
        <ele>1733.8</ele>
        <time>2018-08-08T12:53:30.000Z</time>
      </trkpt>
      <trkpt lat="42.70462" lon="0.66655">
        <ele>1733.9</ele>
        <time>2018-08-08T12:53:31.000Z</time>
      </trkpt>
      <trkpt lat="42.70462" lon="0.66655">
        <ele>1734.1</ele>
        <time>2018-08-08T12:53:32.000Z</time>
      </trkpt>
      <trkpt lat="42.70461" lon="0.66655">
        <ele>1734.3</ele>
        <time>2018-08-08T12:53:33.000Z</time>
      </trkpt>
      <trkpt lat="42.7046" lon="0.66655">
        <ele>1734.5</ele>
        <time>2018-08-08T12:53:34.000Z</time>
      </trkpt>
      <trkpt lat="42.7046" lon="0.66655">
        <ele>1734.8</ele>
        <time>2018-08-08T12:53:35.000Z</time>
      </trkpt>
      <trkpt lat="42.70459" lon="0.66655">
        <ele>1735</ele>
        <time>2018-08-08T12:53:36.000Z</time>
      </trkpt>
      <trkpt lat="42.70458" lon="0.66655">
        <ele>1735.2</ele>
        <time>2018-08-08T12:53:37.000Z</time>
      </trkpt>
      <trkpt lat="42.70458" lon="0.66655">
        <ele>1735.4</ele>
        <time>2018-08-08T12:53:38.000Z</time>
      </trkpt>
      <trkpt lat="42.70457" lon="0.66655">
        <ele>1735.6</ele>
        <time>2018-08-08T12:53:39.000Z</time>
      </trkpt>
      <trkpt lat="42.70456" lon="0.66655">
        <ele>1735.8</ele>
        <time>2018-08-08T12:53:40.000Z</time>
      </trkpt>
      <trkpt lat="42.70456" lon="0.66655">
        <ele>1736</ele>
        <time>2018-08-08T12:53:41.000Z</time>
      </trkpt>
      <trkpt lat="42.70455" lon="0.66655">
        <ele>1736.1</ele>
        <time>2018-08-08T12:53:42.000Z</time>
      </trkpt>
      <trkpt lat="42.70454" lon="0.66655">
        <ele>1736.3</ele>
        <time>2018-08-08T12:53:43.000Z</time>
      </trkpt>
      <trkpt lat="42.70454" lon="0.66655">
        <ele>1736.5</ele>
        <time>2018-08-08T12:53:44.000Z</time>
      </trkpt>
      <trkpt lat="42.70453" lon="0.66655">
        <ele>1736.7</ele>
        <time>2018-08-08T12:53:45.000Z</time>
      </trkpt>
      <trkpt lat="42.70453" lon="0.66655">
        <ele>1736.9</ele>
        <time>2018-08-08T12:53:46.000Z</time>
      </trkpt>
      <trkpt lat="42.70452" lon="0.66655">
        <ele>1737.1</ele>
        <time>2018-08-08T12:53:47.000Z</time>
      </trkpt>
      <trkpt lat="42.70451" lon="0.66655">
        <ele>1737.3</ele>
        <time>2018-08-08T12:53:48.000Z</time>
      </trkpt>
      <trkpt lat="42.70451" lon="0.66655">
        <ele>1737.4</ele>
        <time>2018-08-08T12:53:49.000Z</time>
      </trkpt>
      <trkpt lat="42.7045" lon="0.66655">
        <ele>1737.7</ele>
        <time>2018-08-08T12:53:50.000Z</time>
      </trkpt>
      <trkpt lat="42.70449" lon="0.66655">
        <ele>1737.9</ele>
        <time>2018-08-08T12:53:51.000Z</time>
      </trkpt>
      <trkpt lat="42.70449" lon="0.66655">
        <ele>1738.1</ele>
        <time>2018-08-08T12:53:52.000Z</time>
      </trkpt>
      <trkpt lat="42.70448" lon="0.66655">
        <ele>1738.3</ele>
        <time>2018-08-08T12:53:53.000Z</time>
      </trkpt>
      <trkpt lat="42.70448" lon="0.66655">
        <ele>1738.6</ele>
        <time>2018-08-08T12:53:54.000Z</time>
      </trkpt>
      <trkpt lat="42.70447" lon="0.66655">
        <ele>1738.8</ele>
        <time>2018-08-08T12:53:55.000Z</time>
      </trkpt>
      <trkpt lat="42.70446" lon="0.66655">
        <ele>1739</ele>
        <time>2018-08-08T12:53:56.000Z</time>
      </trkpt>
      <trkpt lat="42.70446" lon="0.66655">
        <ele>1739.2</ele>
        <time>2018-08-08T12:53:57.000Z</time>
      </trkpt>
      <trkpt lat="42.70445" lon="0.66655">
        <ele>1739.4</ele>
        <time>2018-08-08T12:53:58.000Z</time>
      </trkpt>
      <trkpt lat="42.70445" lon="0.66655">
        <ele>1739.7</ele>
        <time>2018-08-08T12:53:59.000Z</time>
      </trkpt>
      <trkpt lat="42.70444" lon="0.66655">
        <ele>1739.9</ele>
        <time>2018-08-08T12:54:00.000Z</time>
      </trkpt>
      <trkpt lat="42.70443" lon="0.66655">
        <ele>1740.1</ele>
        <time>2018-08-08T12:54:01.000Z</time>
      </trkpt>
      <trkpt lat="42.70443" lon="0.66654">
        <ele>1740.3</ele>
        <time>2018-08-08T12:54:02.000Z</time>
      </trkpt>
      <trkpt lat="42.70442" lon="0.66654">
        <ele>1740.6</ele>
        <time>2018-08-08T12:54:03.000Z</time>
      </trkpt>
      <trkpt lat="42.70442" lon="0.66654">
        <ele>1740.8</ele>
        <time>2018-08-08T12:54:04.000Z</time>
      </trkpt>
      <trkpt lat="42.70441" lon="0.66654">
        <ele>1741</ele>
        <time>2018-08-08T12:54:05.000Z</time>
      </trkpt>
      <trkpt lat="42.70441" lon="0.66654">
        <ele>1741.2</ele>
        <time>2018-08-08T12:54:06.000Z</time>
      </trkpt>
      <trkpt lat="42.7044" lon="0.66654">
        <ele>1741.4</ele>
        <time>2018-08-08T12:54:07.000Z</time>
      </trkpt>
      <trkpt lat="42.70439" lon="0.66654">
        <ele>1741.6</ele>
        <time>2018-08-08T12:54:08.000Z</time>
      </trkpt>
      <trkpt lat="42.70439" lon="0.66654">
        <ele>1741.8</ele>
        <time>2018-08-08T12:54:09.000Z</time>
      </trkpt>
      <trkpt lat="42.70438" lon="0.66654">
        <ele>1742</ele>
        <time>2018-08-08T12:54:10.000Z</time>
      </trkpt>
      <trkpt lat="42.70438" lon="0.66654">
        <ele>1742.2</ele>
        <time>2018-08-08T12:54:11.000Z</time>
      </trkpt>
      <trkpt lat="42.70437" lon="0.66654">
        <ele>1742.4</ele>
        <time>2018-08-08T12:54:12.000Z</time>
      </trkpt>
      <trkpt lat="42.70436" lon="0.66654">
        <ele>1742.6</ele>
        <time>2018-08-08T12:54:13.000Z</time>
      </trkpt>
      <trkpt lat="42.70436" lon="0.66654">
        <ele>1742.8</ele>
        <time>2018-08-08T12:54:14.000Z</time>
      </trkpt>
      <trkpt lat="42.70435" lon="0.66654">
        <ele>1742.9</ele>
        <time>2018-08-08T12:54:15.000Z</time>
      </trkpt>
      <trkpt lat="42.70435" lon="0.66654">
        <ele>1743.1</ele>
        <time>2018-08-08T12:54:16.000Z</time>
      </trkpt>
      <trkpt lat="42.70434" lon="0.66654">
        <ele>1743.3</ele>
        <time>2018-08-08T12:54:17.000Z</time>
      </trkpt>
      <trkpt lat="42.70434" lon="0.66654">
        <ele>1743.4</ele>
        <time>2018-08-08T12:54:18.000Z</time>
      </trkpt>
      <trkpt lat="42.70433" lon="0.66654">
        <ele>1743.6</ele>
        <time>2018-08-08T12:54:19.000Z</time>
      </trkpt>
      <trkpt lat="42.70433" lon="0.66654">
        <ele>1743.7</ele>
        <time>2018-08-08T12:54:20.000Z</time>
      </trkpt>
      <trkpt lat="42.70432" lon="0.66654">
        <ele>1743.9</ele>
        <time>2018-08-08T12:54:21.000Z</time>
      </trkpt>
      <trkpt lat="42.70432" lon="0.66654">
        <ele>1744</ele>
        <time>2018-08-08T12:54:22.000Z</time>
      </trkpt>
      <trkpt lat="42.70431" lon="0.66654">
        <ele>1744.1</ele>
        <time>2018-08-08T12:54:23.000Z</time>
      </trkpt>
      <trkpt lat="42.7043" lon="0.66655">
        <ele>1744.3</ele>
        <time>2018-08-08T12:54:24.000Z</time>
      </trkpt>
      <trkpt lat="42.7043" lon="0.66655">
        <ele>1744.4</ele>
        <time>2018-08-08T12:54:25.000Z</time>
      </trkpt>
      <trkpt lat="42.70429" lon="0.66655">
        <ele>1744.5</ele>
        <time>2018-08-08T12:54:26.000Z</time>
      </trkpt>
      <trkpt lat="42.70429" lon="0.66655">
        <ele>1744.7</ele>
        <time>2018-08-08T12:54:27.000Z</time>
      </trkpt>
      <trkpt lat="42.70428" lon="0.66655">
        <ele>1744.8</ele>
        <time>2018-08-08T12:54:28.000Z</time>
      </trkpt>
      <trkpt lat="42.70428" lon="0.66655">
        <ele>1744.9</ele>
        <time>2018-08-08T12:54:29.000Z</time>
      </trkpt>
      <trkpt lat="42.70427" lon="0.66655">
        <ele>1745.1</ele>
        <time>2018-08-08T12:54:30.000Z</time>
      </trkpt>
      <trkpt lat="42.70427" lon="0.66655">
        <ele>1745.2</ele>
        <time>2018-08-08T12:54:31.000Z</time>
      </trkpt>
      <trkpt lat="42.70426" lon="0.66655">
        <ele>1745.3</ele>
        <time>2018-08-08T12:54:32.000Z</time>
      </trkpt>
      <trkpt lat="42.70426" lon="0.66656">
        <ele>1745.5</ele>
        <time>2018-08-08T12:54:33.000Z</time>
      </trkpt>
      <trkpt lat="42.70425" lon="0.66656">
        <ele>1745.6</ele>
        <time>2018-08-08T12:54:34.000Z</time>
      </trkpt>
      <trkpt lat="42.70424" lon="0.66656">
        <ele>1745.8</ele>
        <time>2018-08-08T12:54:35.000Z</time>
      </trkpt>
      <trkpt lat="42.70424" lon="0.66656">
        <ele>1746</ele>
        <time>2018-08-08T12:54:36.000Z</time>
      </trkpt>
      <trkpt lat="42.70423" lon="0.66656">
        <ele>1746.1</ele>
        <time>2018-08-08T12:54:37.000Z</time>
      </trkpt>
      <trkpt lat="42.70423" lon="0.66656">
        <ele>1746.2</ele>
        <time>2018-08-08T12:54:38.000Z</time>
      </trkpt>
      <trkpt lat="42.70422" lon="0.66656">
        <ele>1746.4</ele>
        <time>2018-08-08T12:54:39.000Z</time>
      </trkpt>
      <trkpt lat="42.70421" lon="0.66656">
        <ele>1746.6</ele>
        <time>2018-08-08T12:54:40.000Z</time>
      </trkpt>
      <trkpt lat="42.70421" lon="0.66656">
        <ele>1746.8</ele>
        <time>2018-08-08T12:54:41.000Z</time>
      </trkpt>
      <trkpt lat="42.7042" lon="0.66656">
        <ele>1747</ele>
        <time>2018-08-08T12:54:42.000Z</time>
      </trkpt>
      <trkpt lat="42.7042" lon="0.66656">
        <ele>1747.1</ele>
        <time>2018-08-08T12:54:43.000Z</time>
      </trkpt>
      <trkpt lat="42.70419" lon="0.66656">
        <ele>1747.4</ele>
        <time>2018-08-08T12:54:44.000Z</time>
      </trkpt>
      <trkpt lat="42.70418" lon="0.66656">
        <ele>1747.6</ele>
        <time>2018-08-08T12:54:45.000Z</time>
      </trkpt>
      <trkpt lat="42.70418" lon="0.66656">
        <ele>1747.8</ele>
        <time>2018-08-08T12:54:46.000Z</time>
      </trkpt>
      <trkpt lat="42.70417" lon="0.66656">
        <ele>1748</ele>
        <time>2018-08-08T12:54:47.000Z</time>
      </trkpt>
      <trkpt lat="42.70416" lon="0.66656">
        <ele>1748.3</ele>
        <time>2018-08-08T12:54:48.000Z</time>
      </trkpt>
      <trkpt lat="42.70416" lon="0.66656">
        <ele>1748.5</ele>
        <time>2018-08-08T12:54:49.000Z</time>
      </trkpt>
      <trkpt lat="42.70415" lon="0.66656">
        <ele>1748.8</ele>
        <time>2018-08-08T12:54:50.000Z</time>
      </trkpt>
      <trkpt lat="42.70414" lon="0.66656">
        <ele>1749</ele>
        <time>2018-08-08T12:54:51.000Z</time>
      </trkpt>
      <trkpt lat="42.70414" lon="0.66656">
        <ele>1749.2</ele>
        <time>2018-08-08T12:54:52.000Z</time>
      </trkpt>
      <trkpt lat="42.70413" lon="0.66656">
        <ele>1749.4</ele>
        <time>2018-08-08T12:54:53.000Z</time>
      </trkpt>
      <trkpt lat="42.70413" lon="0.66656">
        <ele>1749.7</ele>
        <time>2018-08-08T12:54:54.000Z</time>
      </trkpt>
      <trkpt lat="42.70412" lon="0.66656">
        <ele>1749.9</ele>
        <time>2018-08-08T12:54:55.000Z</time>
      </trkpt>
      <trkpt lat="42.70411" lon="0.66655">
        <ele>1750.1</ele>
        <time>2018-08-08T12:54:56.000Z</time>
      </trkpt>
      <trkpt lat="42.70411" lon="0.66655">
        <ele>1750.3</ele>
        <time>2018-08-08T12:54:57.000Z</time>
      </trkpt>
      <trkpt lat="42.7041" lon="0.66655">
        <ele>1750.5</ele>
        <time>2018-08-08T12:54:58.000Z</time>
      </trkpt>
      <trkpt lat="42.7041" lon="0.66655">
        <ele>1750.6</ele>
        <time>2018-08-08T12:54:59.000Z</time>
      </trkpt>
      <trkpt lat="42.7041" lon="0.66655">
        <ele>1750.8</ele>
        <time>2018-08-08T12:55:00.000Z</time>
      </trkpt>
      <trkpt lat="42.70409" lon="0.66655">
        <ele>1751</ele>
        <time>2018-08-08T12:55:01.000Z</time>
      </trkpt>
      <trkpt lat="42.70409" lon="0.66655">
        <ele>1751.1</ele>
        <time>2018-08-08T12:55:02.000Z</time>
      </trkpt>
      <trkpt lat="42.70408" lon="0.66655">
        <ele>1751.3</ele>
        <time>2018-08-08T12:55:03.000Z</time>
      </trkpt>
      <trkpt lat="42.70408" lon="0.66655">
        <ele>1751.4</ele>
        <time>2018-08-08T12:55:04.000Z</time>
      </trkpt>
      <trkpt lat="42.70408" lon="0.66655">
        <ele>1751.5</ele>
        <time>2018-08-08T12:55:05.000Z</time>
      </trkpt>
      <trkpt lat="42.70408" lon="0.66655">
        <ele>1751.6</ele>
        <time>2018-08-08T12:55:06.000Z</time>
      </trkpt>
      <trkpt lat="42.70407" lon="0.66655">
        <ele>1751.7</ele>
        <time>2018-08-08T12:55:07.000Z</time>
      </trkpt>
      <trkpt lat="42.70407" lon="0.66655">
        <ele>1751.8</ele>
        <time>2018-08-08T12:55:08.000Z</time>
      </trkpt>
      <trkpt lat="42.70407" lon="0.66655">
        <ele>1751.9</ele>
        <time>2018-08-08T12:55:09.000Z</time>
      </trkpt>
      <trkpt lat="42.70407" lon="0.66655">
        <ele>1752</ele>
        <time>2018-08-08T12:55:10.000Z</time>
      </trkpt>
      <trkpt lat="42.70406" lon="0.66655">
        <ele>1752.1</ele>
        <time>2018-08-08T12:55:11.000Z</time>
      </trkpt>
      <trkpt lat="42.70406" lon="0.66655">
        <ele>1752.1</ele>
        <time>2018-08-08T12:55:12.000Z</time>
      </trkpt>
      <trkpt lat="42.70406" lon="0.66655">
        <ele>1752.2</ele>
        <time>2018-08-08T12:55:13.000Z</time>
      </trkpt>
      <trkpt lat="42.70406" lon="0.66654">
        <ele>1752.3</ele>
        <time>2018-08-08T12:55:14.000Z</time>
      </trkpt>
      <trkpt lat="42.70406" lon="0.66654">
        <ele>1752.3</ele>
        <time>2018-08-08T12:55:15.000Z</time>
      </trkpt>
      <trkpt lat="42.70406" lon="0.66654">
        <ele>1752.3</ele>
        <time>2018-08-08T12:55:16.000Z</time>
      </trkpt>
      <trkpt lat="42.70406" lon="0.66654">
        <ele>1752.4</ele>
        <time>2018-08-08T12:55:17.000Z</time>
      </trkpt>
      <trkpt lat="42.70406" lon="0.66654">
        <ele>1752.4</ele>
        <time>2018-08-08T12:55:18.000Z</time>
      </trkpt>
      <trkpt lat="42.70406" lon="0.66654">
        <ele>1752.4</ele>
        <time>2018-08-08T12:55:19.000Z</time>
      </trkpt>
      <trkpt lat="42.70405" lon="0.66654">
        <ele>1752.5</ele>
        <time>2018-08-08T12:55:20.000Z</time>
      </trkpt>
      <trkpt lat="42.70405" lon="0.66654">
        <ele>1752.5</ele>
        <time>2018-08-08T12:55:21.000Z</time>
      </trkpt>
      <trkpt lat="42.70405" lon="0.66654">
        <ele>1752.5</ele>
        <time>2018-08-08T12:55:22.000Z</time>
      </trkpt>
      <trkpt lat="42.70405" lon="0.66654">
        <ele>1752.5</ele>
        <time>2018-08-08T12:55:23.000Z</time>
      </trkpt>
      <trkpt lat="42.70405" lon="0.66654">
        <ele>1752.5</ele>
        <time>2018-08-08T12:55:24.000Z</time>
      </trkpt>
      <trkpt lat="42.70405" lon="0.66654">
        <ele>1752.5</ele>
        <time>2018-08-08T12:55:25.000Z</time>
      </trkpt>
      <trkpt lat="42.70405" lon="0.66654">
        <ele>1752.5</ele>
        <time>2018-08-08T12:55:26.000Z</time>
      </trkpt>
      <trkpt lat="42.70405" lon="0.66654">
        <ele>1752.5</ele>
        <time>2018-08-08T12:55:27.000Z</time>
      </trkpt>
      <trkpt lat="42.70405" lon="0.66654">
        <ele>1752.5</ele>
        <time>2018-08-08T12:55:28.000Z</time>
      </trkpt>
      <trkpt lat="42.70405" lon="0.66654">
        <ele>1752.5</ele>
        <time>2018-08-08T12:55:29.000Z</time>
      </trkpt>
      <trkpt lat="42.70405" lon="0.66654">
        <ele>1752.5</ele>
        <time>2018-08-08T12:55:30.000Z</time>
      </trkpt>
      <trkpt lat="42.70405" lon="0.66654">
        <ele>1752.5</ele>
        <time>2018-08-08T12:55:31.000Z</time>
      </trkpt>
      <trkpt lat="42.70405" lon="0.66654">
        <ele>1752.5</ele>
        <time>2018-08-08T12:55:32.000Z</time>
      </trkpt>
      <trkpt lat="42.70405" lon="0.66654">
        <ele>1752.5</ele>
        <time>2018-08-08T12:55:33.000Z</time>
      </trkpt>
      <trkpt lat="42.70405" lon="0.66654">
        <ele>1752.5</ele>
        <time>2018-08-08T12:55:34.000Z</time>
      </trkpt>
      <trkpt lat="42.70405" lon="0.66654">
        <ele>1752.5</ele>
        <time>2018-08-08T12:55:35.000Z</time>
      </trkpt>
      <trkpt lat="42.70405" lon="0.66654">
        <ele>1752.5</ele>
        <time>2018-08-08T12:55:36.000Z</time>
      </trkpt>
      <trkpt lat="42.70406" lon="0.66654">
        <ele>1752.4</ele>
        <time>2018-08-08T12:55:37.000Z</time>
      </trkpt>
      <trkpt lat="42.70406" lon="0.66654">
        <ele>1752.4</ele>
        <time>2018-08-08T12:55:38.000Z</time>
      </trkpt>
      <trkpt lat="42.70406" lon="0.66654">
        <ele>1752.4</ele>
        <time>2018-08-08T12:55:39.000Z</time>
      </trkpt>
      <trkpt lat="42.70406" lon="0.66654">
        <ele>1752.4</ele>
        <time>2018-08-08T12:55:40.000Z</time>
      </trkpt>
      <trkpt lat="42.70406" lon="0.66654">
        <ele>1752.4</ele>
        <time>2018-08-08T12:55:41.000Z</time>
      </trkpt>
      <trkpt lat="42.70406" lon="0.66654">
        <ele>1752.4</ele>
        <time>2018-08-08T12:55:42.000Z</time>
      </trkpt>
      <trkpt lat="42.70406" lon="0.66654">
        <ele>1752.4</ele>
        <time>2018-08-08T12:55:43.000Z</time>
      </trkpt>
      <trkpt lat="42.70406" lon="0.66654">
        <ele>1752.4</ele>
        <time>2018-08-08T12:55:44.000Z</time>
      </trkpt>
      <trkpt lat="42.70406" lon="0.66654">
        <ele>1752.4</ele>
        <time>2018-08-08T12:55:45.000Z</time>
      </trkpt>
      <trkpt lat="42.70406" lon="0.66654">
        <ele>1752.4</ele>
        <time>2018-08-08T12:55:46.000Z</time>
      </trkpt>
      <trkpt lat="42.70406" lon="0.66654">
        <ele>1752.4</ele>
        <time>2018-08-08T12:55:47.000Z</time>
      </trkpt>
      <trkpt lat="42.70406" lon="0.66654">
        <ele>1752.4</ele>
        <time>2018-08-08T12:55:48.000Z</time>
      </trkpt>
      <trkpt lat="42.70406" lon="0.66654">
        <ele>1752.4</ele>
        <time>2018-08-08T12:55:49.000Z</time>
      </trkpt>
      <trkpt lat="42.70406" lon="0.66654">
        <ele>1752.4</ele>
        <time>2018-08-08T12:55:50.000Z</time>
      </trkpt>
      <trkpt lat="42.70405" lon="0.66654">
        <ele>1752.5</ele>
        <time>2018-08-08T12:55:51.000Z</time>
      </trkpt>
      <trkpt lat="42.70405" lon="0.66654">
        <ele>1752.5</ele>
        <time>2018-08-08T12:55:52.000Z</time>
      </trkpt>
      <trkpt lat="42.70405" lon="0.66654">
        <ele>1752.5</ele>
        <time>2018-08-08T12:55:53.000Z</time>
      </trkpt>
      <trkpt lat="42.70405" lon="0.66654">
        <ele>1752.5</ele>
        <time>2018-08-08T12:55:54.000Z</time>
      </trkpt>
      <trkpt lat="42.70405" lon="0.66654">
        <ele>1752.5</ele>
        <time>2018-08-08T12:55:55.000Z</time>
      </trkpt>
      <trkpt lat="42.70405" lon="0.66654">
        <ele>1752.5</ele>
        <time>2018-08-08T12:55:56.000Z</time>
      </trkpt>
      <trkpt lat="42.70405" lon="0.66654">
        <ele>1752.5</ele>
        <time>2018-08-08T12:55:57.000Z</time>
      </trkpt>
      <trkpt lat="42.70405" lon="0.66654">
        <ele>1752.5</ele>
        <time>2018-08-08T12:55:58.000Z</time>
      </trkpt>
      <trkpt lat="42.70405" lon="0.66654">
        <ele>1752.5</ele>
        <time>2018-08-08T12:55:59.000Z</time>
      </trkpt>
      <trkpt lat="42.70405" lon="0.66654">
        <ele>1752.5</ele>
        <time>2018-08-08T12:56:00.000Z</time>
      </trkpt>
      <trkpt lat="42.70405" lon="0.66654">
        <ele>1752.5</ele>
        <time>2018-08-08T12:56:01.000Z</time>
      </trkpt>
      <trkpt lat="42.70405" lon="0.66654">
        <ele>1752.5</ele>
        <time>2018-08-08T12:56:02.000Z</time>
      </trkpt>
      <trkpt lat="42.70405" lon="0.66654">
        <ele>1752.5</ele>
        <time>2018-08-08T12:56:03.000Z</time>
      </trkpt>
      <trkpt lat="42.70405" lon="0.66654">
        <ele>1752.4</ele>
        <time>2018-08-08T12:56:04.000Z</time>
      </trkpt>
      <trkpt lat="42.70405" lon="0.66654">
        <ele>1752.4</ele>
        <time>2018-08-08T12:56:05.000Z</time>
      </trkpt>
      <trkpt lat="42.70405" lon="0.66654">
        <ele>1752.4</ele>
        <time>2018-08-08T12:56:06.000Z</time>
      </trkpt>
      <trkpt lat="42.70405" lon="0.66654">
        <ele>1752.5</ele>
        <time>2018-08-08T12:56:07.000Z</time>
      </trkpt>
      <trkpt lat="42.70405" lon="0.66654">
        <ele>1752.5</ele>
        <time>2018-08-08T12:56:08.000Z</time>
      </trkpt>
      <trkpt lat="42.70405" lon="0.66655">
        <ele>1752.5</ele>
        <time>2018-08-08T12:56:09.000Z</time>
      </trkpt>
      <trkpt lat="42.70405" lon="0.66655">
        <ele>1752.5</ele>
        <time>2018-08-08T12:56:10.000Z</time>
      </trkpt>
      <trkpt lat="42.70405" lon="0.66655">
        <ele>1752.5</ele>
        <time>2018-08-08T12:56:11.000Z</time>
      </trkpt>
      <trkpt lat="42.70405" lon="0.66655">
        <ele>1752.5</ele>
        <time>2018-08-08T12:56:12.000Z</time>
      </trkpt>
      <trkpt lat="42.70405" lon="0.66655">
        <ele>1752.5</ele>
        <time>2018-08-08T12:56:13.000Z</time>
      </trkpt>
      <trkpt lat="42.70405" lon="0.66655">
        <ele>1752.5</ele>
        <time>2018-08-08T12:56:14.000Z</time>
      </trkpt>
      <trkpt lat="42.70405" lon="0.66655">
        <ele>1752.5</ele>
        <time>2018-08-08T12:56:15.000Z</time>
      </trkpt>
      <trkpt lat="42.70405" lon="0.66655">
        <ele>1752.5</ele>
        <time>2018-08-08T12:56:16.000Z</time>
      </trkpt>
      <trkpt lat="42.70405" lon="0.66655">
        <ele>1752.5</ele>
        <time>2018-08-08T12:56:17.000Z</time>
      </trkpt>
      <trkpt lat="42.70404" lon="0.66655">
        <ele>1752.5</ele>
        <time>2018-08-08T12:56:18.000Z</time>
      </trkpt>
      <trkpt lat="42.70404" lon="0.66655">
        <ele>1752.6</ele>
        <time>2018-08-08T12:56:19.000Z</time>
      </trkpt>
      <trkpt lat="42.70404" lon="0.66655">
        <ele>1752.6</ele>
        <time>2018-08-08T12:56:20.000Z</time>
      </trkpt>
      <trkpt lat="42.70404" lon="0.66655">
        <ele>1752.6</ele>
        <time>2018-08-08T12:56:21.000Z</time>
      </trkpt>
      <trkpt lat="42.70404" lon="0.66655">
        <ele>1752.6</ele>
        <time>2018-08-08T12:56:22.000Z</time>
      </trkpt>
      <trkpt lat="42.70404" lon="0.66655">
        <ele>1752.6</ele>
        <time>2018-08-08T12:56:23.000Z</time>
      </trkpt>
      <trkpt lat="42.70404" lon="0.66655">
        <ele>1752.6</ele>
        <time>2018-08-08T12:56:24.000Z</time>
      </trkpt>
      <trkpt lat="42.70404" lon="0.66655">
        <ele>1752.6</ele>
        <time>2018-08-08T12:56:25.000Z</time>
      </trkpt>
      <trkpt lat="42.70404" lon="0.66655">
        <ele>1752.6</ele>
        <time>2018-08-08T12:56:26.000Z</time>
      </trkpt>
      <trkpt lat="42.70404" lon="0.66655">
        <ele>1752.6</ele>
        <time>2018-08-08T12:56:27.000Z</time>
      </trkpt>
      <trkpt lat="42.70404" lon="0.66655">
        <ele>1752.6</ele>
        <time>2018-08-08T12:56:28.000Z</time>
      </trkpt>
      <trkpt lat="42.70404" lon="0.66655">
        <ele>1752.6</ele>
        <time>2018-08-08T12:56:29.000Z</time>
      </trkpt>
      <trkpt lat="42.70404" lon="0.66655">
        <ele>1752.6</ele>
        <time>2018-08-08T12:56:30.000Z</time>
      </trkpt>
      <trkpt lat="42.70404" lon="0.66655">
        <ele>1752.6</ele>
        <time>2018-08-08T12:56:31.000Z</time>
      </trkpt>
      <trkpt lat="42.70404" lon="0.66655">
        <ele>1752.6</ele>
        <time>2018-08-08T12:56:32.000Z</time>
      </trkpt>
      <trkpt lat="42.70404" lon="0.66655">
        <ele>1752.6</ele>
        <time>2018-08-08T12:56:33.000Z</time>
      </trkpt>
      <trkpt lat="42.70404" lon="0.66655">
        <ele>1752.6</ele>
        <time>2018-08-08T12:56:34.000Z</time>
      </trkpt>
      <trkpt lat="42.70404" lon="0.66656">
        <ele>1752.5</ele>
        <time>2018-08-08T12:56:35.000Z</time>
      </trkpt>
      <trkpt lat="42.70404" lon="0.66656">
        <ele>1752.5</ele>
        <time>2018-08-08T12:56:36.000Z</time>
      </trkpt>
      <trkpt lat="42.70404" lon="0.66656">
        <ele>1752.4</ele>
        <time>2018-08-08T12:56:37.000Z</time>
      </trkpt>
      <trkpt lat="42.70404" lon="0.66656">
        <ele>1752.3</ele>
        <time>2018-08-08T12:56:38.000Z</time>
      </trkpt>
      <trkpt lat="42.70404" lon="0.66656">
        <ele>1752.3</ele>
        <time>2018-08-08T12:56:39.000Z</time>
      </trkpt>
      <trkpt lat="42.70404" lon="0.66656">
        <ele>1752.2</ele>
        <time>2018-08-08T12:56:40.000Z</time>
      </trkpt>
      <trkpt lat="42.70404" lon="0.66657">
        <ele>1752.2</ele>
        <time>2018-08-08T12:56:41.000Z</time>
      </trkpt>
      <trkpt lat="42.70404" lon="0.66657">
        <ele>1752.2</ele>
        <time>2018-08-08T12:56:42.000Z</time>
      </trkpt>
      <trkpt lat="42.70404" lon="0.66657">
        <ele>1752.2</ele>
        <time>2018-08-08T12:56:43.000Z</time>
      </trkpt>
      <trkpt lat="42.70404" lon="0.66657">
        <ele>1752.2</ele>
        <time>2018-08-08T12:56:44.000Z</time>
      </trkpt>
      <trkpt lat="42.70404" lon="0.66657">
        <ele>1752.2</ele>
        <time>2018-08-08T12:56:45.000Z</time>
      </trkpt>
      <trkpt lat="42.70404" lon="0.66657">
        <ele>1752.2</ele>
        <time>2018-08-08T12:56:46.000Z</time>
      </trkpt>
      <trkpt lat="42.70404" lon="0.66657">
        <ele>1752.2</ele>
        <time>2018-08-08T12:56:47.000Z</time>
      </trkpt>
      <trkpt lat="42.70404" lon="0.66657">
        <ele>1752.2</ele>
        <time>2018-08-08T12:56:48.000Z</time>
      </trkpt>
      <trkpt lat="42.70404" lon="0.66657">
        <ele>1752.2</ele>
        <time>2018-08-08T12:56:49.000Z</time>
      </trkpt>
      <trkpt lat="42.70404" lon="0.66657">
        <ele>1752.2</ele>
        <time>2018-08-08T12:56:50.000Z</time>
      </trkpt>
      <trkpt lat="42.70404" lon="0.66657">
        <ele>1752.2</ele>
        <time>2018-08-08T12:56:51.000Z</time>
      </trkpt>
      <trkpt lat="42.70404" lon="0.66657">
        <ele>1752.2</ele>
        <time>2018-08-08T12:56:52.000Z</time>
      </trkpt>
      <trkpt lat="42.70404" lon="0.66657">
        <ele>1752.2</ele>
        <time>2018-08-08T12:56:53.000Z</time>
      </trkpt>
      <trkpt lat="42.70404" lon="0.66657">
        <ele>1752.2</ele>
        <time>2018-08-08T12:56:54.000Z</time>
      </trkpt>
      <trkpt lat="42.70404" lon="0.66657">
        <ele>1752.2</ele>
        <time>2018-08-08T12:56:55.000Z</time>
      </trkpt>
      <trkpt lat="42.70404" lon="0.66657">
        <ele>1752.2</ele>
        <time>2018-08-08T12:56:56.000Z</time>
      </trkpt>
      <trkpt lat="42.70404" lon="0.66657">
        <ele>1752.2</ele>
        <time>2018-08-08T12:56:57.000Z</time>
      </trkpt>
      <trkpt lat="42.70404" lon="0.66657">
        <ele>1752.2</ele>
        <time>2018-08-08T12:56:58.000Z</time>
      </trkpt>
      <trkpt lat="42.70404" lon="0.66657">
        <ele>1752.2</ele>
        <time>2018-08-08T12:56:59.000Z</time>
      </trkpt>
      <trkpt lat="42.70404" lon="0.66657">
        <ele>1752.2</ele>
        <time>2018-08-08T12:57:00.000Z</time>
      </trkpt>
      <trkpt lat="42.70404" lon="0.66657">
        <ele>1752.2</ele>
        <time>2018-08-08T12:57:01.000Z</time>
      </trkpt>
      <trkpt lat="42.70404" lon="0.66657">
        <ele>1752.2</ele>
        <time>2018-08-08T12:57:02.000Z</time>
      </trkpt>
      <trkpt lat="42.70404" lon="0.66657">
        <ele>1752.3</ele>
        <time>2018-08-08T12:57:03.000Z</time>
      </trkpt>
      <trkpt lat="42.70403" lon="0.66656">
        <ele>1752.4</ele>
        <time>2018-08-08T12:57:04.000Z</time>
      </trkpt>
      <trkpt lat="42.70403" lon="0.66656">
        <ele>1752.6</ele>
        <time>2018-08-08T12:57:05.000Z</time>
      </trkpt>
      <trkpt lat="42.70403" lon="0.66656">
        <ele>1752.7</ele>
        <time>2018-08-08T12:57:06.000Z</time>
      </trkpt>
      <trkpt lat="42.70402" lon="0.66656">
        <ele>1752.9</ele>
        <time>2018-08-08T12:57:07.000Z</time>
      </trkpt>
      <trkpt lat="42.70401" lon="0.66656">
        <ele>1753.1</ele>
        <time>2018-08-08T12:57:08.000Z</time>
      </trkpt>
      <trkpt lat="42.70401" lon="0.66656">
        <ele>1753.4</ele>
        <time>2018-08-08T12:57:09.000Z</time>
      </trkpt>
      <trkpt lat="42.704" lon="0.66656">
        <ele>1753.6</ele>
        <time>2018-08-08T12:57:10.000Z</time>
      </trkpt>
      <trkpt lat="42.70399" lon="0.66656">
        <ele>1753.8</ele>
        <time>2018-08-08T12:57:11.000Z</time>
      </trkpt>
      <trkpt lat="42.70399" lon="0.66656">
        <ele>1754.1</ele>
        <time>2018-08-08T12:57:12.000Z</time>
      </trkpt>
      <trkpt lat="42.70398" lon="0.66656">
        <ele>1754.3</ele>
        <time>2018-08-08T12:57:13.000Z</time>
      </trkpt>
      <trkpt lat="42.70397" lon="0.66656">
        <ele>1754.6</ele>
        <time>2018-08-08T12:57:14.000Z</time>
      </trkpt>
      <trkpt lat="42.70396" lon="0.66656">
        <ele>1754.8</ele>
        <time>2018-08-08T12:57:15.000Z</time>
      </trkpt>
      <trkpt lat="42.70396" lon="0.66656">
        <ele>1755.1</ele>
        <time>2018-08-08T12:57:16.000Z</time>
      </trkpt>
      <trkpt lat="42.70395" lon="0.66656">
        <ele>1755.3</ele>
        <time>2018-08-08T12:57:17.000Z</time>
      </trkpt>
      <trkpt lat="42.70394" lon="0.66656">
        <ele>1755.6</ele>
        <time>2018-08-08T12:57:18.000Z</time>
      </trkpt>
      <trkpt lat="42.70393" lon="0.66656">
        <ele>1755.8</ele>
        <time>2018-08-08T12:57:19.000Z</time>
      </trkpt>
      <trkpt lat="42.70392" lon="0.66656">
        <ele>1756.1</ele>
        <time>2018-08-08T12:57:20.000Z</time>
      </trkpt>
      <trkpt lat="42.70392" lon="0.66656">
        <ele>1756.3</ele>
        <time>2018-08-08T12:57:21.000Z</time>
      </trkpt>
      <trkpt lat="42.70391" lon="0.66656">
        <ele>1756.6</ele>
        <time>2018-08-08T12:57:22.000Z</time>
      </trkpt>
      <trkpt lat="42.7039" lon="0.66656">
        <ele>1756.8</ele>
        <time>2018-08-08T12:57:23.000Z</time>
      </trkpt>
      <trkpt lat="42.70389" lon="0.66657">
        <ele>1757</ele>
        <time>2018-08-08T12:57:24.000Z</time>
      </trkpt>
      <trkpt lat="42.70389" lon="0.66657">
        <ele>1757.3</ele>
        <time>2018-08-08T12:57:25.000Z</time>
      </trkpt>
      <trkpt lat="42.70388" lon="0.66657">
        <ele>1757.5</ele>
        <time>2018-08-08T12:57:26.000Z</time>
      </trkpt>
      <trkpt lat="42.70387" lon="0.66657">
        <ele>1757.8</ele>
        <time>2018-08-08T12:57:27.000Z</time>
      </trkpt>
      <trkpt lat="42.70386" lon="0.66657">
        <ele>1758</ele>
        <time>2018-08-08T12:57:28.000Z</time>
      </trkpt>
      <trkpt lat="42.70386" lon="0.66657">
        <ele>1758.2</ele>
        <time>2018-08-08T12:57:29.000Z</time>
      </trkpt>
      <trkpt lat="42.70385" lon="0.66657">
        <ele>1758.5</ele>
        <time>2018-08-08T12:57:30.000Z</time>
      </trkpt>
      <trkpt lat="42.70384" lon="0.66657">
        <ele>1758.7</ele>
        <time>2018-08-08T12:57:31.000Z</time>
      </trkpt>
      <trkpt lat="42.70383" lon="0.66657">
        <ele>1759</ele>
        <time>2018-08-08T12:57:32.000Z</time>
      </trkpt>
      <trkpt lat="42.70383" lon="0.66657">
        <ele>1759.2</ele>
        <time>2018-08-08T12:57:33.000Z</time>
      </trkpt>
      <trkpt lat="42.70382" lon="0.66657">
        <ele>1759.5</ele>
        <time>2018-08-08T12:57:34.000Z</time>
      </trkpt>
      <trkpt lat="42.70381" lon="0.66657">
        <ele>1759.8</ele>
        <time>2018-08-08T12:57:35.000Z</time>
      </trkpt>
      <trkpt lat="42.7038" lon="0.66657">
        <ele>1760</ele>
        <time>2018-08-08T12:57:36.000Z</time>
      </trkpt>
      <trkpt lat="42.70379" lon="0.66657">
        <ele>1760.3</ele>
        <time>2018-08-08T12:57:37.000Z</time>
      </trkpt>
      <trkpt lat="42.70379" lon="0.66656">
        <ele>1760.6</ele>
        <time>2018-08-08T12:57:38.000Z</time>
      </trkpt>
      <trkpt lat="42.70378" lon="0.66656">
        <ele>1760.9</ele>
        <time>2018-08-08T12:57:39.000Z</time>
      </trkpt>
      <trkpt lat="42.70377" lon="0.66656">
        <ele>1761.2</ele>
        <time>2018-08-08T12:57:40.000Z</time>
      </trkpt>
      <trkpt lat="42.70376" lon="0.66656">
        <ele>1761.5</ele>
        <time>2018-08-08T12:57:41.000Z</time>
      </trkpt>
      <trkpt lat="42.70375" lon="0.66656">
        <ele>1761.8</ele>
        <time>2018-08-08T12:57:42.000Z</time>
      </trkpt>
      <trkpt lat="42.70375" lon="0.66656">
        <ele>1762.1</ele>
        <time>2018-08-08T12:57:43.000Z</time>
      </trkpt>
      <trkpt lat="42.70374" lon="0.66656">
        <ele>1762.4</ele>
        <time>2018-08-08T12:57:44.000Z</time>
      </trkpt>
      <trkpt lat="42.70373" lon="0.66656">
        <ele>1762.7</ele>
        <time>2018-08-08T12:57:45.000Z</time>
      </trkpt>
      <trkpt lat="42.70372" lon="0.66656">
        <ele>1763</ele>
        <time>2018-08-08T12:57:46.000Z</time>
      </trkpt>
      <trkpt lat="42.70371" lon="0.66656">
        <ele>1763.3</ele>
        <time>2018-08-08T12:57:47.000Z</time>
      </trkpt>
      <trkpt lat="42.70371" lon="0.66656">
        <ele>1763.6</ele>
        <time>2018-08-08T12:57:48.000Z</time>
      </trkpt>
      <trkpt lat="42.7037" lon="0.66655">
        <ele>1763.9</ele>
        <time>2018-08-08T12:57:49.000Z</time>
      </trkpt>
      <trkpt lat="42.70369" lon="0.66655">
        <ele>1764.1</ele>
        <time>2018-08-08T12:57:50.000Z</time>
      </trkpt>
      <trkpt lat="42.70368" lon="0.66655">
        <ele>1764.4</ele>
        <time>2018-08-08T12:57:51.000Z</time>
      </trkpt>
      <trkpt lat="42.70368" lon="0.66655">
        <ele>1764.6</ele>
        <time>2018-08-08T12:57:52.000Z</time>
      </trkpt>
      <trkpt lat="42.70367" lon="0.66655">
        <ele>1764.9</ele>
        <time>2018-08-08T12:57:53.000Z</time>
      </trkpt>
      <trkpt lat="42.70366" lon="0.66656">
        <ele>1765.1</ele>
        <time>2018-08-08T12:57:54.000Z</time>
      </trkpt>
      <trkpt lat="42.70365" lon="0.66656">
        <ele>1765.4</ele>
        <time>2018-08-08T12:57:55.000Z</time>
      </trkpt>
      <trkpt lat="42.70364" lon="0.66656">
        <ele>1765.6</ele>
        <time>2018-08-08T12:57:56.000Z</time>
      </trkpt>
      <trkpt lat="42.70364" lon="0.66656">
        <ele>1765.9</ele>
        <time>2018-08-08T12:57:57.000Z</time>
      </trkpt>
      <trkpt lat="42.70363" lon="0.66656">
        <ele>1766.1</ele>
        <time>2018-08-08T12:57:58.000Z</time>
      </trkpt>
      <trkpt lat="42.70362" lon="0.66656">
        <ele>1766.3</ele>
        <time>2018-08-08T12:57:59.000Z</time>
      </trkpt>
      <trkpt lat="42.70361" lon="0.66656">
        <ele>1766.6</ele>
        <time>2018-08-08T12:58:00.000Z</time>
      </trkpt>
      <trkpt lat="42.70361" lon="0.66656">
        <ele>1766.8</ele>
        <time>2018-08-08T12:58:01.000Z</time>
      </trkpt>
      <trkpt lat="42.7036" lon="0.66656">
        <ele>1767</ele>
        <time>2018-08-08T12:58:02.000Z</time>
      </trkpt>
      <trkpt lat="42.70359" lon="0.66656">
        <ele>1767.2</ele>
        <time>2018-08-08T12:58:03.000Z</time>
      </trkpt>
      <trkpt lat="42.70358" lon="0.66656">
        <ele>1767.4</ele>
        <time>2018-08-08T12:58:04.000Z</time>
      </trkpt>
      <trkpt lat="42.70358" lon="0.66657">
        <ele>1767.6</ele>
        <time>2018-08-08T12:58:05.000Z</time>
      </trkpt>
      <trkpt lat="42.70357" lon="0.66657">
        <ele>1767.8</ele>
        <time>2018-08-08T12:58:06.000Z</time>
      </trkpt>
      <trkpt lat="42.70356" lon="0.66657">
        <ele>1768</ele>
        <time>2018-08-08T12:58:07.000Z</time>
      </trkpt>
      <trkpt lat="42.70355" lon="0.66657">
        <ele>1768.2</ele>
        <time>2018-08-08T12:58:08.000Z</time>
      </trkpt>
      <trkpt lat="42.70355" lon="0.66657">
        <ele>1768.4</ele>
        <time>2018-08-08T12:58:09.000Z</time>
      </trkpt>
      <trkpt lat="42.70354" lon="0.66657">
        <ele>1768.6</ele>
        <time>2018-08-08T12:58:10.000Z</time>
      </trkpt>
      <trkpt lat="42.70353" lon="0.66657">
        <ele>1768.8</ele>
        <time>2018-08-08T12:58:11.000Z</time>
      </trkpt>
      <trkpt lat="42.70353" lon="0.66657">
        <ele>1769</ele>
        <time>2018-08-08T12:58:12.000Z</time>
      </trkpt>
      <trkpt lat="42.70352" lon="0.66658">
        <ele>1769.2</ele>
        <time>2018-08-08T12:58:13.000Z</time>
      </trkpt>
      <trkpt lat="42.70351" lon="0.66658">
        <ele>1769.4</ele>
        <time>2018-08-08T12:58:14.000Z</time>
      </trkpt>
      <trkpt lat="42.70351" lon="0.66658">
        <ele>1769.6</ele>
        <time>2018-08-08T12:58:15.000Z</time>
      </trkpt>
      <trkpt lat="42.7035" lon="0.66658">
        <ele>1769.8</ele>
        <time>2018-08-08T12:58:16.000Z</time>
      </trkpt>
      <trkpt lat="42.70349" lon="0.66658">
        <ele>1770</ele>
        <time>2018-08-08T12:58:17.000Z</time>
      </trkpt>
      <trkpt lat="42.70349" lon="0.66658">
        <ele>1770.2</ele>
        <time>2018-08-08T12:58:18.000Z</time>
      </trkpt>
      <trkpt lat="42.70348" lon="0.66658">
        <ele>1770.4</ele>
        <time>2018-08-08T12:58:19.000Z</time>
      </trkpt>
      <trkpt lat="42.70347" lon="0.66658">
        <ele>1770.6</ele>
        <time>2018-08-08T12:58:20.000Z</time>
      </trkpt>
      <trkpt lat="42.70347" lon="0.66658">
        <ele>1770.8</ele>
        <time>2018-08-08T12:58:21.000Z</time>
      </trkpt>
      <trkpt lat="42.70346" lon="0.66658">
        <ele>1771</ele>
        <time>2018-08-08T12:58:22.000Z</time>
      </trkpt>
      <trkpt lat="42.70345" lon="0.66658">
        <ele>1771.3</ele>
        <time>2018-08-08T12:58:23.000Z</time>
      </trkpt>
      <trkpt lat="42.70345" lon="0.66658">
        <ele>1771.5</ele>
        <time>2018-08-08T12:58:24.000Z</time>
      </trkpt>
      <trkpt lat="42.70344" lon="0.66658">
        <ele>1771.7</ele>
        <time>2018-08-08T12:58:25.000Z</time>
      </trkpt>
      <trkpt lat="42.70343" lon="0.66658">
        <ele>1771.9</ele>
        <time>2018-08-08T12:58:26.000Z</time>
      </trkpt>
      <trkpt lat="42.70343" lon="0.66658">
        <ele>1772.2</ele>
        <time>2018-08-08T12:58:27.000Z</time>
      </trkpt>
      <trkpt lat="42.70342" lon="0.66658">
        <ele>1772.4</ele>
        <time>2018-08-08T12:58:28.000Z</time>
      </trkpt>
      <trkpt lat="42.70341" lon="0.66658">
        <ele>1772.7</ele>
        <time>2018-08-08T12:58:29.000Z</time>
      </trkpt>
      <trkpt lat="42.7034" lon="0.66658">
        <ele>1772.9</ele>
        <time>2018-08-08T12:58:30.000Z</time>
      </trkpt>
      <trkpt lat="42.7034" lon="0.66658">
        <ele>1773.2</ele>
        <time>2018-08-08T12:58:31.000Z</time>
      </trkpt>
      <trkpt lat="42.70339" lon="0.66658">
        <ele>1773.5</ele>
        <time>2018-08-08T12:58:32.000Z</time>
      </trkpt>
      <trkpt lat="42.70338" lon="0.66658">
        <ele>1773.7</ele>
        <time>2018-08-08T12:58:33.000Z</time>
      </trkpt>
      <trkpt lat="42.70338" lon="0.66658">
        <ele>1774</ele>
        <time>2018-08-08T12:58:34.000Z</time>
      </trkpt>
      <trkpt lat="42.70337" lon="0.66657">
        <ele>1774.3</ele>
        <time>2018-08-08T12:58:35.000Z</time>
      </trkpt>
      <trkpt lat="42.70336" lon="0.66657">
        <ele>1774.6</ele>
        <time>2018-08-08T12:58:36.000Z</time>
      </trkpt>
      <trkpt lat="42.70335" lon="0.66657">
        <ele>1774.9</ele>
        <time>2018-08-08T12:58:37.000Z</time>
      </trkpt>
      <trkpt lat="42.70335" lon="0.66657">
        <ele>1775.2</ele>
        <time>2018-08-08T12:58:38.000Z</time>
      </trkpt>
      <trkpt lat="42.70334" lon="0.66656">
        <ele>1775.5</ele>
        <time>2018-08-08T12:58:39.000Z</time>
      </trkpt>
      <trkpt lat="42.70333" lon="0.66656">
        <ele>1775.8</ele>
        <time>2018-08-08T12:58:40.000Z</time>
      </trkpt>
      <trkpt lat="42.70333" lon="0.66656">
        <ele>1776.2</ele>
        <time>2018-08-08T12:58:41.000Z</time>
      </trkpt>
      <trkpt lat="42.70332" lon="0.66656">
        <ele>1776.6</ele>
        <time>2018-08-08T12:58:42.000Z</time>
      </trkpt>
      <trkpt lat="42.70331" lon="0.66655">
        <ele>1777</ele>
        <time>2018-08-08T12:58:43.000Z</time>
      </trkpt>
      <trkpt lat="42.70331" lon="0.66655">
        <ele>1777.4</ele>
        <time>2018-08-08T12:58:44.000Z</time>
      </trkpt>
      <trkpt lat="42.7033" lon="0.66655">
        <ele>1777.8</ele>
        <time>2018-08-08T12:58:45.000Z</time>
      </trkpt>
      <trkpt lat="42.70329" lon="0.66655">
        <ele>1778.1</ele>
        <time>2018-08-08T12:58:46.000Z</time>
      </trkpt>
      <trkpt lat="42.70329" lon="0.66654">
        <ele>1778.5</ele>
        <time>2018-08-08T12:58:47.000Z</time>
      </trkpt>
      <trkpt lat="42.70328" lon="0.66654">
        <ele>1778.8</ele>
        <time>2018-08-08T12:58:48.000Z</time>
      </trkpt>
      <trkpt lat="42.70328" lon="0.66654">
        <ele>1779.1</ele>
        <time>2018-08-08T12:58:49.000Z</time>
      </trkpt>
      <trkpt lat="42.70327" lon="0.66653">
        <ele>1779.4</ele>
        <time>2018-08-08T12:58:50.000Z</time>
      </trkpt>
      <trkpt lat="42.70327" lon="0.66653">
        <ele>1779.7</ele>
        <time>2018-08-08T12:58:51.000Z</time>
      </trkpt>
      <trkpt lat="42.70327" lon="0.66653">
        <ele>1779.9</ele>
        <time>2018-08-08T12:58:52.000Z</time>
      </trkpt>
      <trkpt lat="42.70326" lon="0.66653">
        <ele>1780.2</ele>
        <time>2018-08-08T12:58:53.000Z</time>
      </trkpt>
      <trkpt lat="42.70326" lon="0.66653">
        <ele>1780.4</ele>
        <time>2018-08-08T12:58:54.000Z</time>
      </trkpt>
      <trkpt lat="42.70326" lon="0.66652">
        <ele>1780.6</ele>
        <time>2018-08-08T12:58:55.000Z</time>
      </trkpt>
      <trkpt lat="42.70325" lon="0.66652">
        <ele>1780.8</ele>
        <time>2018-08-08T12:58:56.000Z</time>
      </trkpt>
      <trkpt lat="42.70325" lon="0.66652">
        <ele>1781</ele>
        <time>2018-08-08T12:58:57.000Z</time>
      </trkpt>
      <trkpt lat="42.70325" lon="0.66652">
        <ele>1781.2</ele>
        <time>2018-08-08T12:58:58.000Z</time>
      </trkpt>
      <trkpt lat="42.70324" lon="0.66652">
        <ele>1781.3</ele>
        <time>2018-08-08T12:58:59.000Z</time>
      </trkpt>
      <trkpt lat="42.70324" lon="0.66652">
        <ele>1781.4</ele>
        <time>2018-08-08T12:59:00.000Z</time>
      </trkpt>
      <trkpt lat="42.70324" lon="0.66652">
        <ele>1781.5</ele>
        <time>2018-08-08T12:59:01.000Z</time>
      </trkpt>
      <trkpt lat="42.70324" lon="0.66652">
        <ele>1781.6</ele>
        <time>2018-08-08T12:59:02.000Z</time>
      </trkpt>
      <trkpt lat="42.70323" lon="0.66652">
        <ele>1781.8</ele>
        <time>2018-08-08T12:59:03.000Z</time>
      </trkpt>
      <trkpt lat="42.70323" lon="0.66652">
        <ele>1781.8</ele>
        <time>2018-08-08T12:59:04.000Z</time>
      </trkpt>
      <trkpt lat="42.70323" lon="0.66653">
        <ele>1781.9</ele>
        <time>2018-08-08T12:59:05.000Z</time>
      </trkpt>
      <trkpt lat="42.70322" lon="0.66653">
        <ele>1782.1</ele>
        <time>2018-08-08T12:59:06.000Z</time>
      </trkpt>
      <trkpt lat="42.70322" lon="0.66653">
        <ele>1782.2</ele>
        <time>2018-08-08T12:59:07.000Z</time>
      </trkpt>
      <trkpt lat="42.70322" lon="0.66653">
        <ele>1782.3</ele>
        <time>2018-08-08T12:59:08.000Z</time>
      </trkpt>
      <trkpt lat="42.70321" lon="0.66653">
        <ele>1782.5</ele>
        <time>2018-08-08T12:59:09.000Z</time>
      </trkpt>
      <trkpt lat="42.70321" lon="0.66653">
        <ele>1782.8</ele>
        <time>2018-08-08T12:59:10.000Z</time>
      </trkpt>
      <trkpt lat="42.7032" lon="0.66654">
        <ele>1783</ele>
        <time>2018-08-08T12:59:11.000Z</time>
      </trkpt>
      <trkpt lat="42.7032" lon="0.66654">
        <ele>1783.2</ele>
        <time>2018-08-08T12:59:12.000Z</time>
      </trkpt>
      <trkpt lat="42.70319" lon="0.66654">
        <ele>1783.5</ele>
        <time>2018-08-08T12:59:13.000Z</time>
      </trkpt>
      <trkpt lat="42.70319" lon="0.66654">
        <ele>1783.7</ele>
        <time>2018-08-08T12:59:14.000Z</time>
      </trkpt>
      <trkpt lat="42.70318" lon="0.66654">
        <ele>1783.9</ele>
        <time>2018-08-08T12:59:15.000Z</time>
      </trkpt>
      <trkpt lat="42.70318" lon="0.66654">
        <ele>1784.1</ele>
        <time>2018-08-08T12:59:16.000Z</time>
      </trkpt>
      <trkpt lat="42.70317" lon="0.66655">
        <ele>1784.2</ele>
        <time>2018-08-08T12:59:17.000Z</time>
      </trkpt>
      <trkpt lat="42.70317" lon="0.66655">
        <ele>1784.3</ele>
        <time>2018-08-08T12:59:18.000Z</time>
      </trkpt>
      <trkpt lat="42.70317" lon="0.66656">
        <ele>1784.3</ele>
        <time>2018-08-08T12:59:19.000Z</time>
      </trkpt>
      <trkpt lat="42.70316" lon="0.66656">
        <ele>1784.4</ele>
        <time>2018-08-08T12:59:20.000Z</time>
      </trkpt>
      <trkpt lat="42.70316" lon="0.66657">
        <ele>1784.5</ele>
        <time>2018-08-08T12:59:21.000Z</time>
      </trkpt>
      <trkpt lat="42.70315" lon="0.66657">
        <ele>1784.6</ele>
        <time>2018-08-08T12:59:22.000Z</time>
      </trkpt>
      <trkpt lat="42.70315" lon="0.66658">
        <ele>1784.8</ele>
        <time>2018-08-08T12:59:23.000Z</time>
      </trkpt>
      <trkpt lat="42.70314" lon="0.66658">
        <ele>1785</ele>
        <time>2018-08-08T12:59:24.000Z</time>
      </trkpt>
      <trkpt lat="42.70314" lon="0.66659">
        <ele>1785.2</ele>
        <time>2018-08-08T12:59:25.000Z</time>
      </trkpt>
      <trkpt lat="42.70313" lon="0.66659">
        <ele>1785.5</ele>
        <time>2018-08-08T12:59:26.000Z</time>
      </trkpt>
      <trkpt lat="42.70312" lon="0.66659">
        <ele>1785.9</ele>
        <time>2018-08-08T12:59:27.000Z</time>
      </trkpt>
      <trkpt lat="42.70311" lon="0.66659">
        <ele>1786.3</ele>
        <time>2018-08-08T12:59:28.000Z</time>
      </trkpt>
      <trkpt lat="42.70311" lon="0.6666">
        <ele>1786.6</ele>
        <time>2018-08-08T12:59:29.000Z</time>
      </trkpt>
      <trkpt lat="42.7031" lon="0.6666">
        <ele>1787</ele>
        <time>2018-08-08T12:59:30.000Z</time>
      </trkpt>
      <trkpt lat="42.70309" lon="0.6666">
        <ele>1787.4</ele>
        <time>2018-08-08T12:59:31.000Z</time>
      </trkpt>
      <trkpt lat="42.70308" lon="0.6666">
        <ele>1787.7</ele>
        <time>2018-08-08T12:59:32.000Z</time>
      </trkpt>
      <trkpt lat="42.70308" lon="0.66659">
        <ele>1788</ele>
        <time>2018-08-08T12:59:33.000Z</time>
      </trkpt>
      <trkpt lat="42.70307" lon="0.66659">
        <ele>1788.4</ele>
        <time>2018-08-08T12:59:34.000Z</time>
      </trkpt>
      <trkpt lat="42.70307" lon="0.66659">
        <ele>1788.7</ele>
        <time>2018-08-08T12:59:35.000Z</time>
      </trkpt>
      <trkpt lat="42.70306" lon="0.66659">
        <ele>1789</ele>
        <time>2018-08-08T12:59:36.000Z</time>
      </trkpt>
      <trkpt lat="42.70306" lon="0.66659">
        <ele>1789.2</ele>
        <time>2018-08-08T12:59:37.000Z</time>
      </trkpt>
      <trkpt lat="42.70305" lon="0.66658">
        <ele>1789.6</ele>
        <time>2018-08-08T12:59:38.000Z</time>
      </trkpt>
      <trkpt lat="42.70305" lon="0.66658">
        <ele>1789.8</ele>
        <time>2018-08-08T12:59:39.000Z</time>
      </trkpt>
      <trkpt lat="42.70304" lon="0.66658">
        <ele>1790</ele>
        <time>2018-08-08T12:59:40.000Z</time>
      </trkpt>
      <trkpt lat="42.70304" lon="0.66658">
        <ele>1790.3</ele>
        <time>2018-08-08T12:59:41.000Z</time>
      </trkpt>
      <trkpt lat="42.70304" lon="0.66658">
        <ele>1790.5</ele>
        <time>2018-08-08T12:59:42.000Z</time>
      </trkpt>
      <trkpt lat="42.70303" lon="0.66658">
        <ele>1790.7</ele>
        <time>2018-08-08T12:59:43.000Z</time>
      </trkpt>
      <trkpt lat="42.70303" lon="0.66658">
        <ele>1790.9</ele>
        <time>2018-08-08T12:59:44.000Z</time>
      </trkpt>
      <trkpt lat="42.70302" lon="0.66658">
        <ele>1791.1</ele>
        <time>2018-08-08T12:59:45.000Z</time>
      </trkpt>
      <trkpt lat="42.70302" lon="0.66658">
        <ele>1791.3</ele>
        <time>2018-08-08T12:59:46.000Z</time>
      </trkpt>
      <trkpt lat="42.70301" lon="0.66658">
        <ele>1791.5</ele>
        <time>2018-08-08T12:59:47.000Z</time>
      </trkpt>
      <trkpt lat="42.70301" lon="0.66659">
        <ele>1791.7</ele>
        <time>2018-08-08T12:59:48.000Z</time>
      </trkpt>
      <trkpt lat="42.703" lon="0.66659">
        <ele>1791.9</ele>
        <time>2018-08-08T12:59:49.000Z</time>
      </trkpt>
      <trkpt lat="42.703" lon="0.66659">
        <ele>1792.1</ele>
        <time>2018-08-08T12:59:50.000Z</time>
      </trkpt>
      <trkpt lat="42.70299" lon="0.6666">
        <ele>1792.3</ele>
        <time>2018-08-08T12:59:51.000Z</time>
      </trkpt>
      <trkpt lat="42.70299" lon="0.6666">
        <ele>1792.6</ele>
        <time>2018-08-08T12:59:52.000Z</time>
      </trkpt>
      <trkpt lat="42.70298" lon="0.66661">
        <ele>1792.8</ele>
        <time>2018-08-08T12:59:53.000Z</time>
      </trkpt>
      <trkpt lat="42.70297" lon="0.66661">
        <ele>1793.2</ele>
        <time>2018-08-08T12:59:54.000Z</time>
      </trkpt>
      <trkpt lat="42.70297" lon="0.66662">
        <ele>1793.4</ele>
        <time>2018-08-08T12:59:55.000Z</time>
      </trkpt>
      <trkpt lat="42.70296" lon="0.66662">
        <ele>1793.7</ele>
        <time>2018-08-08T12:59:56.000Z</time>
      </trkpt>
      <trkpt lat="42.70296" lon="0.66662">
        <ele>1794</ele>
        <time>2018-08-08T12:59:57.000Z</time>
      </trkpt>
      <trkpt lat="42.70295" lon="0.66663">
        <ele>1794.3</ele>
        <time>2018-08-08T12:59:58.000Z</time>
      </trkpt>
      <trkpt lat="42.70294" lon="0.66663">
        <ele>1794.6</ele>
        <time>2018-08-08T12:59:59.000Z</time>
      </trkpt>
      <trkpt lat="42.70294" lon="0.66663">
        <ele>1794.9</ele>
        <time>2018-08-08T13:00:00.000Z</time>
      </trkpt>
      <trkpt lat="42.70293" lon="0.66663">
        <ele>1795.1</ele>
        <time>2018-08-08T13:00:01.000Z</time>
      </trkpt>
      <trkpt lat="42.70293" lon="0.66663">
        <ele>1795.4</ele>
        <time>2018-08-08T13:00:02.000Z</time>
      </trkpt>
      <trkpt lat="42.70292" lon="0.66664">
        <ele>1795.7</ele>
        <time>2018-08-08T13:00:03.000Z</time>
      </trkpt>
      <trkpt lat="42.70292" lon="0.66664">
        <ele>1795.9</ele>
        <time>2018-08-08T13:00:04.000Z</time>
      </trkpt>
      <trkpt lat="42.70291" lon="0.66664">
        <ele>1796.2</ele>
        <time>2018-08-08T13:00:05.000Z</time>
      </trkpt>
      <trkpt lat="42.70291" lon="0.66664">
        <ele>1796.4</ele>
        <time>2018-08-08T13:00:06.000Z</time>
      </trkpt>
      <trkpt lat="42.7029" lon="0.66664">
        <ele>1796.6</ele>
        <time>2018-08-08T13:00:07.000Z</time>
      </trkpt>
      <trkpt lat="42.7029" lon="0.66664">
        <ele>1796.8</ele>
        <time>2018-08-08T13:00:08.000Z</time>
      </trkpt>
      <trkpt lat="42.70289" lon="0.66664">
        <ele>1797.1</ele>
        <time>2018-08-08T13:00:09.000Z</time>
      </trkpt>
      <trkpt lat="42.70289" lon="0.66664">
        <ele>1797.3</ele>
        <time>2018-08-08T13:00:10.000Z</time>
      </trkpt>
      <trkpt lat="42.70288" lon="0.66664">
        <ele>1797.6</ele>
        <time>2018-08-08T13:00:11.000Z</time>
      </trkpt>
      <trkpt lat="42.70288" lon="0.66664">
        <ele>1797.8</ele>
        <time>2018-08-08T13:00:12.000Z</time>
      </trkpt>
      <trkpt lat="42.70288" lon="0.66664">
        <ele>1798</ele>
        <time>2018-08-08T13:00:13.000Z</time>
      </trkpt>
      <trkpt lat="42.70287" lon="0.66664">
        <ele>1798.2</ele>
        <time>2018-08-08T13:00:14.000Z</time>
      </trkpt>
      <trkpt lat="42.70287" lon="0.66665">
        <ele>1798.4</ele>
        <time>2018-08-08T13:00:15.000Z</time>
      </trkpt>
      <trkpt lat="42.70286" lon="0.66665">
        <ele>1798.6</ele>
        <time>2018-08-08T13:00:16.000Z</time>
      </trkpt>
      <trkpt lat="42.70286" lon="0.66665">
        <ele>1798.8</ele>
        <time>2018-08-08T13:00:17.000Z</time>
      </trkpt>
      <trkpt lat="42.70286" lon="0.66665">
        <ele>1799</ele>
        <time>2018-08-08T13:00:18.000Z</time>
      </trkpt>
      <trkpt lat="42.70285" lon="0.66665">
        <ele>1799.2</ele>
        <time>2018-08-08T13:00:19.000Z</time>
      </trkpt>
      <trkpt lat="42.70285" lon="0.66665">
        <ele>1799.3</ele>
        <time>2018-08-08T13:00:20.000Z</time>
      </trkpt>
      <trkpt lat="42.70285" lon="0.66665">
        <ele>1799.4</ele>
        <time>2018-08-08T13:00:21.000Z</time>
      </trkpt>
      <trkpt lat="42.70285" lon="0.66665">
        <ele>1799.4</ele>
        <time>2018-08-08T13:00:22.000Z</time>
      </trkpt>
      <trkpt lat="42.70285" lon="0.66665">
        <ele>1799.4</ele>
        <time>2018-08-08T13:00:23.000Z</time>
      </trkpt>
      <trkpt lat="42.70285" lon="0.66665">
        <ele>1799.4</ele>
        <time>2018-08-08T13:00:24.000Z</time>
      </trkpt>
      <trkpt lat="42.70285" lon="0.66665">
        <ele>1799.3</ele>
        <time>2018-08-08T13:00:25.000Z</time>
      </trkpt>
      <trkpt lat="42.70285" lon="0.66665">
        <ele>1799.2</ele>
        <time>2018-08-08T13:00:26.000Z</time>
      </trkpt>
      <trkpt lat="42.70286" lon="0.66664">
        <ele>1799</ele>
        <time>2018-08-08T13:00:27.000Z</time>
      </trkpt>
      <trkpt lat="42.70286" lon="0.66664">
        <ele>1798.7</ele>
        <time>2018-08-08T13:00:28.000Z</time>
      </trkpt>
      <trkpt lat="42.70287" lon="0.66664">
        <ele>1798.5</ele>
        <time>2018-08-08T13:00:29.000Z</time>
      </trkpt>
      <trkpt lat="42.70287" lon="0.66664">
        <ele>1798.3</ele>
        <time>2018-08-08T13:00:30.000Z</time>
      </trkpt>
      <trkpt lat="42.70287" lon="0.66664">
        <ele>1798.3</ele>
        <time>2018-08-08T13:00:31.000Z</time>
      </trkpt>
      <trkpt lat="42.70287" lon="0.66664">
        <ele>1798.3</ele>
        <time>2018-08-08T13:00:32.000Z</time>
      </trkpt>
      <trkpt lat="42.70287" lon="0.66664">
        <ele>1798.5</ele>
        <time>2018-08-08T13:00:33.000Z</time>
      </trkpt>
      <trkpt lat="42.70286" lon="0.66664">
        <ele>1798.8</ele>
        <time>2018-08-08T13:00:34.000Z</time>
      </trkpt>
      <trkpt lat="42.70285" lon="0.66664">
        <ele>1799.2</ele>
        <time>2018-08-08T13:00:35.000Z</time>
      </trkpt>
      <trkpt lat="42.70285" lon="0.66664">
        <ele>1799.6</ele>
        <time>2018-08-08T13:00:36.000Z</time>
      </trkpt>
      <trkpt lat="42.70284" lon="0.66664">
        <ele>1799.9</ele>
        <time>2018-08-08T13:00:37.000Z</time>
      </trkpt>
      <trkpt lat="42.70283" lon="0.66664">
        <ele>1800.2</ele>
        <time>2018-08-08T13:00:38.000Z</time>
      </trkpt>
      <trkpt lat="42.70283" lon="0.66664">
        <ele>1800.5</ele>
        <time>2018-08-08T13:00:39.000Z</time>
      </trkpt>
      <trkpt lat="42.70283" lon="0.66663">
        <ele>1800.7</ele>
        <time>2018-08-08T13:00:40.000Z</time>
      </trkpt>
      <trkpt lat="42.70282" lon="0.66663">
        <ele>1800.8</ele>
        <time>2018-08-08T13:00:41.000Z</time>
      </trkpt>
      <trkpt lat="42.70282" lon="0.66663">
        <ele>1801</ele>
        <time>2018-08-08T13:00:42.000Z</time>
      </trkpt>
      <trkpt lat="42.70281" lon="0.66663">
        <ele>1801.3</ele>
        <time>2018-08-08T13:00:43.000Z</time>
      </trkpt>
      <trkpt lat="42.70281" lon="0.66663">
        <ele>1801.6</ele>
        <time>2018-08-08T13:00:44.000Z</time>
      </trkpt>
      <trkpt lat="42.7028" lon="0.66663">
        <ele>1802</ele>
        <time>2018-08-08T13:00:45.000Z</time>
      </trkpt>
      <trkpt lat="42.7028" lon="0.66663">
        <ele>1802.3</ele>
        <time>2018-08-08T13:00:46.000Z</time>
      </trkpt>
      <trkpt lat="42.70279" lon="0.66663">
        <ele>1802.7</ele>
        <time>2018-08-08T13:00:47.000Z</time>
      </trkpt>
      <trkpt lat="42.70278" lon="0.66662">
        <ele>1803.1</ele>
        <time>2018-08-08T13:00:48.000Z</time>
      </trkpt>
      <trkpt lat="42.70277" lon="0.66662">
        <ele>1803.5</ele>
        <time>2018-08-08T13:00:49.000Z</time>
      </trkpt>
      <trkpt lat="42.70277" lon="0.66662">
        <ele>1803.9</ele>
        <time>2018-08-08T13:00:50.000Z</time>
      </trkpt>
      <trkpt lat="42.70276" lon="0.66662">
        <ele>1804.2</ele>
        <time>2018-08-08T13:00:51.000Z</time>
      </trkpt>
      <trkpt lat="42.70276" lon="0.66661">
        <ele>1804.5</ele>
        <time>2018-08-08T13:00:52.000Z</time>
      </trkpt>
      <trkpt lat="42.70275" lon="0.66661">
        <ele>1804.8</ele>
        <time>2018-08-08T13:00:53.000Z</time>
      </trkpt>
      <trkpt lat="42.70275" lon="0.66661">
        <ele>1805.1</ele>
        <time>2018-08-08T13:00:54.000Z</time>
      </trkpt>
      <trkpt lat="42.70274" lon="0.6666">
        <ele>1805.3</ele>
        <time>2018-08-08T13:00:55.000Z</time>
      </trkpt>
      <trkpt lat="42.70274" lon="0.6666">
        <ele>1805.4</ele>
        <time>2018-08-08T13:00:56.000Z</time>
      </trkpt>
      <trkpt lat="42.70274" lon="0.66659">
        <ele>1805.5</ele>
        <time>2018-08-08T13:00:57.000Z</time>
      </trkpt>
      <trkpt lat="42.70274" lon="0.66659">
        <ele>1805.4</ele>
        <time>2018-08-08T13:00:58.000Z</time>
      </trkpt>
      <trkpt lat="42.70274" lon="0.66658">
        <ele>1805.4</ele>
        <time>2018-08-08T13:00:59.000Z</time>
      </trkpt>
      <trkpt lat="42.70274" lon="0.66657">
        <ele>1805.4</ele>
        <time>2018-08-08T13:01:00.000Z</time>
      </trkpt>
      <trkpt lat="42.70275" lon="0.66657">
        <ele>1805.2</ele>
        <time>2018-08-08T13:01:01.000Z</time>
      </trkpt>
      <trkpt lat="42.70275" lon="0.66656">
        <ele>1805.1</ele>
        <time>2018-08-08T13:01:02.000Z</time>
      </trkpt>
      <trkpt lat="42.70275" lon="0.66655">
        <ele>1805</ele>
        <time>2018-08-08T13:01:03.000Z</time>
      </trkpt>
      <trkpt lat="42.70276" lon="0.66654">
        <ele>1804.8</ele>
        <time>2018-08-08T13:01:04.000Z</time>
      </trkpt>
      <trkpt lat="42.70276" lon="0.66654">
        <ele>1804.6</ele>
        <time>2018-08-08T13:01:05.000Z</time>
      </trkpt>
      <trkpt lat="42.70277" lon="0.66653">
        <ele>1804.4</ele>
        <time>2018-08-08T13:01:06.000Z</time>
      </trkpt>
      <trkpt lat="42.70277" lon="0.66652">
        <ele>1804.2</ele>
        <time>2018-08-08T13:01:07.000Z</time>
      </trkpt>
      <trkpt lat="42.70278" lon="0.66651">
        <ele>1803.9</ele>
        <time>2018-08-08T13:01:08.000Z</time>
      </trkpt>
      <trkpt lat="42.70278" lon="0.6665">
        <ele>1803.8</ele>
        <time>2018-08-08T13:01:09.000Z</time>
      </trkpt>
      <trkpt lat="42.70279" lon="0.66649">
        <ele>1803.6</ele>
        <time>2018-08-08T13:01:10.000Z</time>
      </trkpt>
      <trkpt lat="42.7028" lon="0.66648">
        <ele>1803.4</ele>
        <time>2018-08-08T13:01:11.000Z</time>
      </trkpt>
      <trkpt lat="42.7028" lon="0.66648">
        <ele>1803.2</ele>
        <time>2018-08-08T13:01:12.000Z</time>
      </trkpt>
      <trkpt lat="42.7028" lon="0.66647">
        <ele>1803.1</ele>
        <time>2018-08-08T13:01:13.000Z</time>
      </trkpt>
      <trkpt lat="42.70281" lon="0.66646">
        <ele>1802.9</ele>
        <time>2018-08-08T13:01:14.000Z</time>
      </trkpt>
      <trkpt lat="42.70281" lon="0.66645">
        <ele>1802.8</ele>
        <time>2018-08-08T13:01:15.000Z</time>
      </trkpt>
      <trkpt lat="42.70282" lon="0.66644">
        <ele>1802.7</ele>
        <time>2018-08-08T13:01:16.000Z</time>
      </trkpt>
      <trkpt lat="42.70282" lon="0.66643">
        <ele>1802.6</ele>
        <time>2018-08-08T13:01:17.000Z</time>
      </trkpt>
      <trkpt lat="42.70282" lon="0.66642">
        <ele>1802.5</ele>
        <time>2018-08-08T13:01:18.000Z</time>
      </trkpt>
      <trkpt lat="42.70283" lon="0.66642">
        <ele>1802.4</ele>
        <time>2018-08-08T13:01:19.000Z</time>
      </trkpt>
      <trkpt lat="42.70283" lon="0.66641">
        <ele>1802.4</ele>
        <time>2018-08-08T13:01:20.000Z</time>
      </trkpt>
      <trkpt lat="42.70283" lon="0.6664">
        <ele>1802.3</ele>
        <time>2018-08-08T13:01:21.000Z</time>
      </trkpt>
      <trkpt lat="42.70283" lon="0.6664">
        <ele>1802.3</ele>
        <time>2018-08-08T13:01:22.000Z</time>
      </trkpt>
      <trkpt lat="42.70283" lon="0.66639">
        <ele>1802.3</ele>
        <time>2018-08-08T13:01:23.000Z</time>
      </trkpt>
      <trkpt lat="42.70284" lon="0.66639">
        <ele>1802.3</ele>
        <time>2018-08-08T13:01:24.000Z</time>
      </trkpt>
      <trkpt lat="42.70284" lon="0.66638">
        <ele>1802.3</ele>
        <time>2018-08-08T13:01:25.000Z</time>
      </trkpt>
      <trkpt lat="42.70284" lon="0.66638">
        <ele>1802.4</ele>
        <time>2018-08-08T13:01:26.000Z</time>
      </trkpt>
      <trkpt lat="42.70283" lon="0.66637">
        <ele>1802.4</ele>
        <time>2018-08-08T13:01:27.000Z</time>
      </trkpt>
      <trkpt lat="42.70283" lon="0.66637">
        <ele>1802.5</ele>
        <time>2018-08-08T13:01:28.000Z</time>
      </trkpt>
      <trkpt lat="42.70283" lon="0.66637">
        <ele>1802.7</ele>
        <time>2018-08-08T13:01:29.000Z</time>
      </trkpt>
      <trkpt lat="42.70283" lon="0.66637">
        <ele>1802.8</ele>
        <time>2018-08-08T13:01:30.000Z</time>
      </trkpt>
      <trkpt lat="42.70282" lon="0.66637">
        <ele>1803</ele>
        <time>2018-08-08T13:01:31.000Z</time>
      </trkpt>
      <trkpt lat="42.70282" lon="0.66637">
        <ele>1803.1</ele>
        <time>2018-08-08T13:01:32.000Z</time>
      </trkpt>
      <trkpt lat="42.70281" lon="0.66637">
        <ele>1803.4</ele>
        <time>2018-08-08T13:01:33.000Z</time>
      </trkpt>
      <trkpt lat="42.70281" lon="0.66637">
        <ele>1803.6</ele>
        <time>2018-08-08T13:01:34.000Z</time>
      </trkpt>
      <trkpt lat="42.7028" lon="0.66637">
        <ele>1803.9</ele>
        <time>2018-08-08T13:01:35.000Z</time>
      </trkpt>
      <trkpt lat="42.70279" lon="0.66637">
        <ele>1804.2</ele>
        <time>2018-08-08T13:01:36.000Z</time>
      </trkpt>
      <trkpt lat="42.70279" lon="0.66637">
        <ele>1804.4</ele>
        <time>2018-08-08T13:01:37.000Z</time>
      </trkpt>
      <trkpt lat="42.70278" lon="0.66638">
        <ele>1804.7</ele>
        <time>2018-08-08T13:01:38.000Z</time>
      </trkpt>
      <trkpt lat="42.70278" lon="0.66638">
        <ele>1804.9</ele>
        <time>2018-08-08T13:01:39.000Z</time>
      </trkpt>
      <trkpt lat="42.70277" lon="0.66638">
        <ele>1805.1</ele>
        <time>2018-08-08T13:01:40.000Z</time>
      </trkpt>
      <trkpt lat="42.70277" lon="0.66638">
        <ele>1805.2</ele>
        <time>2018-08-08T13:01:41.000Z</time>
      </trkpt>
      <trkpt lat="42.70277" lon="0.66638">
        <ele>1805.3</ele>
        <time>2018-08-08T13:01:42.000Z</time>
      </trkpt>
      <trkpt lat="42.70277" lon="0.66638">
        <ele>1805.4</ele>
        <time>2018-08-08T13:01:43.000Z</time>
      </trkpt>
      <trkpt lat="42.70276" lon="0.66638">
        <ele>1805.5</ele>
        <time>2018-08-08T13:01:44.000Z</time>
      </trkpt>
      <trkpt lat="42.70276" lon="0.66638">
        <ele>1805.7</ele>
        <time>2018-08-08T13:01:45.000Z</time>
      </trkpt>
      <trkpt lat="42.70276" lon="0.66638">
        <ele>1805.8</ele>
        <time>2018-08-08T13:01:46.000Z</time>
      </trkpt>
      <trkpt lat="42.70275" lon="0.66638">
        <ele>1806.1</ele>
        <time>2018-08-08T13:01:47.000Z</time>
      </trkpt>
      <trkpt lat="42.70274" lon="0.66638">
        <ele>1806.4</ele>
        <time>2018-08-08T13:01:48.000Z</time>
      </trkpt>
      <trkpt lat="42.70274" lon="0.66638">
        <ele>1806.6</ele>
        <time>2018-08-08T13:01:49.000Z</time>
      </trkpt>
      <trkpt lat="42.70273" lon="0.66638">
        <ele>1806.9</ele>
        <time>2018-08-08T13:01:50.000Z</time>
      </trkpt>
      <trkpt lat="42.70272" lon="0.66638">
        <ele>1807.2</ele>
        <time>2018-08-08T13:01:51.000Z</time>
      </trkpt>
      <trkpt lat="42.70272" lon="0.66638">
        <ele>1807.5</ele>
        <time>2018-08-08T13:01:52.000Z</time>
      </trkpt>
      <trkpt lat="42.70271" lon="0.66638">
        <ele>1807.8</ele>
        <time>2018-08-08T13:01:53.000Z</time>
      </trkpt>
      <trkpt lat="42.7027" lon="0.66638">
        <ele>1808.1</ele>
        <time>2018-08-08T13:01:54.000Z</time>
      </trkpt>
      <trkpt lat="42.7027" lon="0.66638">
        <ele>1808.2</ele>
        <time>2018-08-08T13:01:55.000Z</time>
      </trkpt>
      <trkpt lat="42.7027" lon="0.66638">
        <ele>1808.4</ele>
        <time>2018-08-08T13:01:56.000Z</time>
      </trkpt>
      <trkpt lat="42.70269" lon="0.66637">
        <ele>1808.5</ele>
        <time>2018-08-08T13:01:57.000Z</time>
      </trkpt>
      <trkpt lat="42.70269" lon="0.66637">
        <ele>1808.6</ele>
        <time>2018-08-08T13:01:58.000Z</time>
      </trkpt>
      <trkpt lat="42.70269" lon="0.66637">
        <ele>1808.7</ele>
        <time>2018-08-08T13:01:59.000Z</time>
      </trkpt>
      <trkpt lat="42.70269" lon="0.66636">
        <ele>1808.7</ele>
        <time>2018-08-08T13:02:00.000Z</time>
      </trkpt>
      <trkpt lat="42.70269" lon="0.66636">
        <ele>1808.7</ele>
        <time>2018-08-08T13:02:01.000Z</time>
      </trkpt>
      <trkpt lat="42.70269" lon="0.66635">
        <ele>1808.8</ele>
        <time>2018-08-08T13:02:02.000Z</time>
      </trkpt>
      <trkpt lat="42.70269" lon="0.66635">
        <ele>1808.7</ele>
        <time>2018-08-08T13:02:03.000Z</time>
      </trkpt>
      <trkpt lat="42.70269" lon="0.66634">
        <ele>1808.7</ele>
        <time>2018-08-08T13:02:04.000Z</time>
      </trkpt>
      <trkpt lat="42.70269" lon="0.66634">
        <ele>1808.7</ele>
        <time>2018-08-08T13:02:05.000Z</time>
      </trkpt>
      <trkpt lat="42.7027" lon="0.66633">
        <ele>1808.6</ele>
        <time>2018-08-08T13:02:06.000Z</time>
      </trkpt>
      <trkpt lat="42.7027" lon="0.66632">
        <ele>1808.6</ele>
        <time>2018-08-08T13:02:07.000Z</time>
      </trkpt>
      <trkpt lat="42.7027" lon="0.66632">
        <ele>1808.5</ele>
        <time>2018-08-08T13:02:08.000Z</time>
      </trkpt>
      <trkpt lat="42.7027" lon="0.66631">
        <ele>1808.4</ele>
        <time>2018-08-08T13:02:09.000Z</time>
      </trkpt>
      <trkpt lat="42.70271" lon="0.66631">
        <ele>1808.3</ele>
        <time>2018-08-08T13:02:10.000Z</time>
      </trkpt>
      <trkpt lat="42.70271" lon="0.6663">
        <ele>1808.2</ele>
        <time>2018-08-08T13:02:11.000Z</time>
      </trkpt>
      <trkpt lat="42.70271" lon="0.66629">
        <ele>1808.1</ele>
        <time>2018-08-08T13:02:12.000Z</time>
      </trkpt>
      <trkpt lat="42.70271" lon="0.66629">
        <ele>1808.1</ele>
        <time>2018-08-08T13:02:13.000Z</time>
      </trkpt>
      <trkpt lat="42.70271" lon="0.66628">
        <ele>1808</ele>
        <time>2018-08-08T13:02:14.000Z</time>
      </trkpt>
      <trkpt lat="42.70272" lon="0.66628">
        <ele>1807.9</ele>
        <time>2018-08-08T13:02:15.000Z</time>
      </trkpt>
      <trkpt lat="42.70272" lon="0.66627">
        <ele>1807.9</ele>
        <time>2018-08-08T13:02:16.000Z</time>
      </trkpt>
      <trkpt lat="42.70272" lon="0.66627">
        <ele>1807.9</ele>
        <time>2018-08-08T13:02:17.000Z</time>
      </trkpt>
      <trkpt lat="42.70272" lon="0.66626">
        <ele>1807.8</ele>
        <time>2018-08-08T13:02:18.000Z</time>
      </trkpt>
      <trkpt lat="42.70272" lon="0.66626">
        <ele>1807.8</ele>
        <time>2018-08-08T13:02:19.000Z</time>
      </trkpt>
      <trkpt lat="42.70272" lon="0.66625">
        <ele>1807.8</ele>
        <time>2018-08-08T13:02:20.000Z</time>
      </trkpt>
      <trkpt lat="42.70272" lon="0.66625">
        <ele>1807.9</ele>
        <time>2018-08-08T13:02:21.000Z</time>
      </trkpt>
      <trkpt lat="42.70272" lon="0.66625">
        <ele>1807.9</ele>
        <time>2018-08-08T13:02:22.000Z</time>
      </trkpt>
      <trkpt lat="42.70272" lon="0.66624">
        <ele>1808</ele>
        <time>2018-08-08T13:02:23.000Z</time>
      </trkpt>
      <trkpt lat="42.70272" lon="0.66624">
        <ele>1808</ele>
        <time>2018-08-08T13:02:24.000Z</time>
      </trkpt>
      <trkpt lat="42.70272" lon="0.66624">
        <ele>1808.1</ele>
        <time>2018-08-08T13:02:25.000Z</time>
      </trkpt>
      <trkpt lat="42.70271" lon="0.66624">
        <ele>1808.2</ele>
        <time>2018-08-08T13:02:26.000Z</time>
      </trkpt>
      <trkpt lat="42.70271" lon="0.66624">
        <ele>1808.4</ele>
        <time>2018-08-08T13:02:27.000Z</time>
      </trkpt>
      <trkpt lat="42.70271" lon="0.66624">
        <ele>1808.5</ele>
        <time>2018-08-08T13:02:28.000Z</time>
      </trkpt>
      <trkpt lat="42.7027" lon="0.66624">
        <ele>1808.7</ele>
        <time>2018-08-08T13:02:29.000Z</time>
      </trkpt>
      <trkpt lat="42.7027" lon="0.66624">
        <ele>1808.9</ele>
        <time>2018-08-08T13:02:30.000Z</time>
      </trkpt>
      <trkpt lat="42.70269" lon="0.66624">
        <ele>1809.1</ele>
        <time>2018-08-08T13:02:31.000Z</time>
      </trkpt>
      <trkpt lat="42.70269" lon="0.66624">
        <ele>1809.3</ele>
        <time>2018-08-08T13:02:32.000Z</time>
      </trkpt>
      <trkpt lat="42.70268" lon="0.66624">
        <ele>1809.5</ele>
        <time>2018-08-08T13:02:33.000Z</time>
      </trkpt>
      <trkpt lat="42.70267" lon="0.66624">
        <ele>1809.7</ele>
        <time>2018-08-08T13:02:34.000Z</time>
      </trkpt>
      <trkpt lat="42.70267" lon="0.66624">
        <ele>1810</ele>
        <time>2018-08-08T13:02:35.000Z</time>
      </trkpt>
      <trkpt lat="42.70266" lon="0.66624">
        <ele>1810.3</ele>
        <time>2018-08-08T13:02:36.000Z</time>
      </trkpt>
      <trkpt lat="42.70265" lon="0.66625">
        <ele>1810.5</ele>
        <time>2018-08-08T13:02:37.000Z</time>
      </trkpt>
      <trkpt lat="42.70265" lon="0.66625">
        <ele>1810.8</ele>
        <time>2018-08-08T13:02:38.000Z</time>
      </trkpt>
      <trkpt lat="42.70264" lon="0.66625">
        <ele>1811.1</ele>
        <time>2018-08-08T13:02:39.000Z</time>
      </trkpt>
      <trkpt lat="42.70263" lon="0.66625">
        <ele>1811.4</ele>
        <time>2018-08-08T13:02:40.000Z</time>
      </trkpt>
      <trkpt lat="42.70262" lon="0.66625">
        <ele>1811.7</ele>
        <time>2018-08-08T13:02:41.000Z</time>
      </trkpt>
      <trkpt lat="42.70262" lon="0.66625">
        <ele>1812</ele>
        <time>2018-08-08T13:02:42.000Z</time>
      </trkpt>
      <trkpt lat="42.70261" lon="0.66626">
        <ele>1812.3</ele>
        <time>2018-08-08T13:02:43.000Z</time>
      </trkpt>
      <trkpt lat="42.7026" lon="0.66626">
        <ele>1812.7</ele>
        <time>2018-08-08T13:02:44.000Z</time>
      </trkpt>
      <trkpt lat="42.70259" lon="0.66626">
        <ele>1813</ele>
        <time>2018-08-08T13:02:45.000Z</time>
      </trkpt>
      <trkpt lat="42.70258" lon="0.66626">
        <ele>1813.3</ele>
        <time>2018-08-08T13:02:46.000Z</time>
      </trkpt>
      <trkpt lat="42.70257" lon="0.66626">
        <ele>1813.6</ele>
        <time>2018-08-08T13:02:47.000Z</time>
      </trkpt>
      <trkpt lat="42.70257" lon="0.66626">
        <ele>1813.9</ele>
        <time>2018-08-08T13:02:48.000Z</time>
      </trkpt>
      <trkpt lat="42.70256" lon="0.66626">
        <ele>1814.3</ele>
        <time>2018-08-08T13:02:49.000Z</time>
      </trkpt>
      <trkpt lat="42.70255" lon="0.66626">
        <ele>1814.6</ele>
        <time>2018-08-08T13:02:50.000Z</time>
      </trkpt>
      <trkpt lat="42.70254" lon="0.66626">
        <ele>1814.9</ele>
        <time>2018-08-08T13:02:51.000Z</time>
      </trkpt>
      <trkpt lat="42.70253" lon="0.66626">
        <ele>1815.2</ele>
        <time>2018-08-08T13:02:52.000Z</time>
      </trkpt>
      <trkpt lat="42.70253" lon="0.66626">
        <ele>1815.5</ele>
        <time>2018-08-08T13:02:53.000Z</time>
      </trkpt>
      <trkpt lat="42.70252" lon="0.66626">
        <ele>1815.8</ele>
        <time>2018-08-08T13:02:54.000Z</time>
      </trkpt>
      <trkpt lat="42.70251" lon="0.66626">
        <ele>1816.1</ele>
        <time>2018-08-08T13:02:55.000Z</time>
      </trkpt>
      <trkpt lat="42.7025" lon="0.66625">
        <ele>1816.4</ele>
        <time>2018-08-08T13:02:56.000Z</time>
      </trkpt>
      <trkpt lat="42.7025" lon="0.66625">
        <ele>1816.7</ele>
        <time>2018-08-08T13:02:57.000Z</time>
      </trkpt>
      <trkpt lat="42.70249" lon="0.66625">
        <ele>1816.9</ele>
        <time>2018-08-08T13:02:58.000Z</time>
      </trkpt>
      <trkpt lat="42.70248" lon="0.66625">
        <ele>1817.1</ele>
        <time>2018-08-08T13:02:59.000Z</time>
      </trkpt>
      <trkpt lat="42.70248" lon="0.66625">
        <ele>1817.4</ele>
        <time>2018-08-08T13:03:00.000Z</time>
      </trkpt>
      <trkpt lat="42.70247" lon="0.66625">
        <ele>1817.7</ele>
        <time>2018-08-08T13:03:01.000Z</time>
      </trkpt>
      <trkpt lat="42.70246" lon="0.66624">
        <ele>1817.9</ele>
        <time>2018-08-08T13:03:02.000Z</time>
      </trkpt>
      <trkpt lat="42.70245" lon="0.66624">
        <ele>1818.2</ele>
        <time>2018-08-08T13:03:03.000Z</time>
      </trkpt>
      <trkpt lat="42.70245" lon="0.66624">
        <ele>1818.4</ele>
        <time>2018-08-08T13:03:04.000Z</time>
      </trkpt>
      <trkpt lat="42.70244" lon="0.66624">
        <ele>1818.7</ele>
        <time>2018-08-08T13:03:05.000Z</time>
      </trkpt>
      <trkpt lat="42.70243" lon="0.66624">
        <ele>1818.9</ele>
        <time>2018-08-08T13:03:06.000Z</time>
      </trkpt>
      <trkpt lat="42.70242" lon="0.66624">
        <ele>1819.2</ele>
        <time>2018-08-08T13:03:07.000Z</time>
      </trkpt>
      <trkpt lat="42.70242" lon="0.66624">
        <ele>1819.4</ele>
        <time>2018-08-08T13:03:08.000Z</time>
      </trkpt>
      <trkpt lat="42.70241" lon="0.66624">
        <ele>1819.7</ele>
        <time>2018-08-08T13:03:09.000Z</time>
      </trkpt>
      <trkpt lat="42.7024" lon="0.66624">
        <ele>1820</ele>
        <time>2018-08-08T13:03:10.000Z</time>
      </trkpt>
      <trkpt lat="42.7024" lon="0.66624">
        <ele>1820.2</ele>
        <time>2018-08-08T13:03:11.000Z</time>
      </trkpt>
      <trkpt lat="42.70239" lon="0.66624">
        <ele>1820.5</ele>
        <time>2018-08-08T13:03:12.000Z</time>
      </trkpt>
      <trkpt lat="42.70238" lon="0.66624">
        <ele>1820.7</ele>
        <time>2018-08-08T13:03:13.000Z</time>
      </trkpt>
      <trkpt lat="42.70237" lon="0.66624">
        <ele>1821</ele>
        <time>2018-08-08T13:03:14.000Z</time>
      </trkpt>
      <trkpt lat="42.70237" lon="0.66624">
        <ele>1821.3</ele>
        <time>2018-08-08T13:03:15.000Z</time>
      </trkpt>
      <trkpt lat="42.70236" lon="0.66625">
        <ele>1821.5</ele>
        <time>2018-08-08T13:03:16.000Z</time>
      </trkpt>
      <trkpt lat="42.70235" lon="0.66625">
        <ele>1821.8</ele>
        <time>2018-08-08T13:03:17.000Z</time>
      </trkpt>
      <trkpt lat="42.70235" lon="0.66625">
        <ele>1822</ele>
        <time>2018-08-08T13:03:18.000Z</time>
      </trkpt>
      <trkpt lat="42.70234" lon="0.66625">
        <ele>1822.3</ele>
        <time>2018-08-08T13:03:19.000Z</time>
      </trkpt>
      <trkpt lat="42.70233" lon="0.66625">
        <ele>1822.5</ele>
        <time>2018-08-08T13:03:20.000Z</time>
      </trkpt>
      <trkpt lat="42.70233" lon="0.66625">
        <ele>1822.8</ele>
        <time>2018-08-08T13:03:21.000Z</time>
      </trkpt>
      <trkpt lat="42.70232" lon="0.66625">
        <ele>1823</ele>
        <time>2018-08-08T13:03:22.000Z</time>
      </trkpt>
      <trkpt lat="42.70231" lon="0.66626">
        <ele>1823.3</ele>
        <time>2018-08-08T13:03:23.000Z</time>
      </trkpt>
      <trkpt lat="42.70231" lon="0.66626">
        <ele>1823.5</ele>
        <time>2018-08-08T13:03:24.000Z</time>
      </trkpt>
      <trkpt lat="42.7023" lon="0.66626">
        <ele>1823.7</ele>
        <time>2018-08-08T13:03:25.000Z</time>
      </trkpt>
      <trkpt lat="42.7023" lon="0.66626">
        <ele>1823.9</ele>
        <time>2018-08-08T13:03:26.000Z</time>
      </trkpt>
      <trkpt lat="42.70229" lon="0.66626">
        <ele>1824.2</ele>
        <time>2018-08-08T13:03:27.000Z</time>
      </trkpt>
      <trkpt lat="42.70228" lon="0.66626">
        <ele>1824.4</ele>
        <time>2018-08-08T13:03:28.000Z</time>
      </trkpt>
      <trkpt lat="42.70228" lon="0.66626">
        <ele>1824.6</ele>
        <time>2018-08-08T13:03:29.000Z</time>
      </trkpt>
      <trkpt lat="42.70227" lon="0.66626">
        <ele>1824.9</ele>
        <time>2018-08-08T13:03:30.000Z</time>
      </trkpt>
      <trkpt lat="42.70226" lon="0.66626">
        <ele>1825.1</ele>
        <time>2018-08-08T13:03:31.000Z</time>
      </trkpt>
      <trkpt lat="42.70226" lon="0.66626">
        <ele>1825.3</ele>
        <time>2018-08-08T13:03:32.000Z</time>
      </trkpt>
      <trkpt lat="42.70225" lon="0.66626">
        <ele>1825.5</ele>
        <time>2018-08-08T13:03:33.000Z</time>
      </trkpt>
      <trkpt lat="42.70225" lon="0.66626">
        <ele>1825.7</ele>
        <time>2018-08-08T13:03:34.000Z</time>
      </trkpt>
      <trkpt lat="42.70224" lon="0.66626">
        <ele>1825.9</ele>
        <time>2018-08-08T13:03:35.000Z</time>
      </trkpt>
      <trkpt lat="42.70224" lon="0.66626">
        <ele>1826.2</ele>
        <time>2018-08-08T13:03:36.000Z</time>
      </trkpt>
      <trkpt lat="42.70223" lon="0.66626">
        <ele>1826.4</ele>
        <time>2018-08-08T13:03:37.000Z</time>
      </trkpt>
      <trkpt lat="42.70222" lon="0.66626">
        <ele>1826.6</ele>
        <time>2018-08-08T13:03:38.000Z</time>
      </trkpt>
      <trkpt lat="42.70222" lon="0.66626">
        <ele>1826.8</ele>
        <time>2018-08-08T13:03:39.000Z</time>
      </trkpt>
      <trkpt lat="42.70221" lon="0.66626">
        <ele>1827</ele>
        <time>2018-08-08T13:03:40.000Z</time>
      </trkpt>
      <trkpt lat="42.7022" lon="0.66626">
        <ele>1827.3</ele>
        <time>2018-08-08T13:03:41.000Z</time>
      </trkpt>
      <trkpt lat="42.7022" lon="0.66626">
        <ele>1827.5</ele>
        <time>2018-08-08T13:03:42.000Z</time>
      </trkpt>
      <trkpt lat="42.70219" lon="0.66626">
        <ele>1827.7</ele>
        <time>2018-08-08T13:03:43.000Z</time>
      </trkpt>
      <trkpt lat="42.70219" lon="0.66626">
        <ele>1827.9</ele>
        <time>2018-08-08T13:03:44.000Z</time>
      </trkpt>
      <trkpt lat="42.70218" lon="0.66626">
        <ele>1828.1</ele>
        <time>2018-08-08T13:03:45.000Z</time>
      </trkpt>
      <trkpt lat="42.70217" lon="0.66626">
        <ele>1828.4</ele>
        <time>2018-08-08T13:03:46.000Z</time>
      </trkpt>
      <trkpt lat="42.70217" lon="0.66626">
        <ele>1828.6</ele>
        <time>2018-08-08T13:03:47.000Z</time>
      </trkpt>
      <trkpt lat="42.70216" lon="0.66626">
        <ele>1828.9</ele>
        <time>2018-08-08T13:03:48.000Z</time>
      </trkpt>
      <trkpt lat="42.70215" lon="0.66626">
        <ele>1829.2</ele>
        <time>2018-08-08T13:03:49.000Z</time>
      </trkpt>
      <trkpt lat="42.70214" lon="0.66626">
        <ele>1829.4</ele>
        <time>2018-08-08T13:03:50.000Z</time>
      </trkpt>
      <trkpt lat="42.70214" lon="0.66626">
        <ele>1829.7</ele>
        <time>2018-08-08T13:03:51.000Z</time>
      </trkpt>
      <trkpt lat="42.70213" lon="0.66626">
        <ele>1830</ele>
        <time>2018-08-08T13:03:52.000Z</time>
      </trkpt>
      <trkpt lat="42.70212" lon="0.66626">
        <ele>1830.3</ele>
        <time>2018-08-08T13:03:53.000Z</time>
      </trkpt>
      <trkpt lat="42.70211" lon="0.66626">
        <ele>1830.6</ele>
        <time>2018-08-08T13:03:54.000Z</time>
      </trkpt>
      <trkpt lat="42.7021" lon="0.66626">
        <ele>1830.9</ele>
        <time>2018-08-08T13:03:55.000Z</time>
      </trkpt>
      <trkpt lat="42.7021" lon="0.66626">
        <ele>1831.1</ele>
        <time>2018-08-08T13:03:56.000Z</time>
      </trkpt>
      <trkpt lat="42.70209" lon="0.66626">
        <ele>1831.5</ele>
        <time>2018-08-08T13:03:57.000Z</time>
      </trkpt>
      <trkpt lat="42.70208" lon="0.66626">
        <ele>1831.8</ele>
        <time>2018-08-08T13:03:58.000Z</time>
      </trkpt>
      <trkpt lat="42.70207" lon="0.66626">
        <ele>1832.1</ele>
        <time>2018-08-08T13:03:59.000Z</time>
      </trkpt>
      <trkpt lat="42.70206" lon="0.66626">
        <ele>1832.4</ele>
        <time>2018-08-08T13:04:00.000Z</time>
      </trkpt>
      <trkpt lat="42.70205" lon="0.66626">
        <ele>1832.8</ele>
        <time>2018-08-08T13:04:01.000Z</time>
      </trkpt>
      <trkpt lat="42.70204" lon="0.66626">
        <ele>1833.1</ele>
        <time>2018-08-08T13:04:02.000Z</time>
      </trkpt>
      <trkpt lat="42.70203" lon="0.66626">
        <ele>1833.4</ele>
        <time>2018-08-08T13:04:03.000Z</time>
      </trkpt>
      <trkpt lat="42.70202" lon="0.66626">
        <ele>1833.8</ele>
        <time>2018-08-08T13:04:04.000Z</time>
      </trkpt>
      <trkpt lat="42.70202" lon="0.66626">
        <ele>1834</ele>
        <time>2018-08-08T13:04:05.000Z</time>
      </trkpt>
      <trkpt lat="42.70201" lon="0.66626">
        <ele>1834.4</ele>
        <time>2018-08-08T13:04:06.000Z</time>
      </trkpt>
      <trkpt lat="42.702" lon="0.66626">
        <ele>1834.7</ele>
        <time>2018-08-08T13:04:07.000Z</time>
      </trkpt>
      <trkpt lat="42.70199" lon="0.66626">
        <ele>1835</ele>
        <time>2018-08-08T13:04:08.000Z</time>
      </trkpt>
      <trkpt lat="42.70198" lon="0.66626">
        <ele>1835.3</ele>
        <time>2018-08-08T13:04:09.000Z</time>
      </trkpt>
      <trkpt lat="42.70197" lon="0.66626">
        <ele>1835.7</ele>
        <time>2018-08-08T13:04:10.000Z</time>
      </trkpt>
      <trkpt lat="42.70196" lon="0.66626">
        <ele>1835.9</ele>
        <time>2018-08-08T13:04:11.000Z</time>
      </trkpt>
      <trkpt lat="42.70195" lon="0.66626">
        <ele>1836.2</ele>
        <time>2018-08-08T13:04:12.000Z</time>
      </trkpt>
      <trkpt lat="42.70195" lon="0.66625">
        <ele>1836.5</ele>
        <time>2018-08-08T13:04:13.000Z</time>
      </trkpt>
      <trkpt lat="42.70194" lon="0.66625">
        <ele>1836.7</ele>
        <time>2018-08-08T13:04:14.000Z</time>
      </trkpt>
      <trkpt lat="42.70193" lon="0.66625">
        <ele>1837</ele>
        <time>2018-08-08T13:04:15.000Z</time>
      </trkpt>
      <trkpt lat="42.70192" lon="0.66624">
        <ele>1837.2</ele>
        <time>2018-08-08T13:04:16.000Z</time>
      </trkpt>
      <trkpt lat="42.70192" lon="0.66624">
        <ele>1837.4</ele>
        <time>2018-08-08T13:04:17.000Z</time>
      </trkpt>
      <trkpt lat="42.70191" lon="0.66623">
        <ele>1837.5</ele>
        <time>2018-08-08T13:04:18.000Z</time>
      </trkpt>
      <trkpt lat="42.7019" lon="0.66622">
        <ele>1837.7</ele>
        <time>2018-08-08T13:04:19.000Z</time>
      </trkpt>
      <trkpt lat="42.7019" lon="0.66622">
        <ele>1837.8</ele>
        <time>2018-08-08T13:04:20.000Z</time>
      </trkpt>
      <trkpt lat="42.70189" lon="0.66621">
        <ele>1837.9</ele>
        <time>2018-08-08T13:04:21.000Z</time>
      </trkpt>
      <trkpt lat="42.70189" lon="0.6662">
        <ele>1837.9</ele>
        <time>2018-08-08T13:04:22.000Z</time>
      </trkpt>
      <trkpt lat="42.70189" lon="0.66619">
        <ele>1837.8</ele>
        <time>2018-08-08T13:04:23.000Z</time>
      </trkpt>
      <trkpt lat="42.70189" lon="0.66618">
        <ele>1837.7</ele>
        <time>2018-08-08T13:04:24.000Z</time>
      </trkpt>
      <trkpt lat="42.70189" lon="0.66617">
        <ele>1837.5</ele>
        <time>2018-08-08T13:04:25.000Z</time>
      </trkpt>
      <trkpt lat="42.70189" lon="0.66616">
        <ele>1837.2</ele>
        <time>2018-08-08T13:04:26.000Z</time>
      </trkpt>
      <trkpt lat="42.70189" lon="0.66615">
        <ele>1836.9</ele>
        <time>2018-08-08T13:04:27.000Z</time>
      </trkpt>
      <trkpt lat="42.7019" lon="0.66614">
        <ele>1836.6</ele>
        <time>2018-08-08T13:04:28.000Z</time>
      </trkpt>
      <trkpt lat="42.70191" lon="0.66613">
        <ele>1836.2</ele>
        <time>2018-08-08T13:04:29.000Z</time>
      </trkpt>
      <trkpt lat="42.70191" lon="0.66612">
        <ele>1835.8</ele>
        <time>2018-08-08T13:04:30.000Z</time>
      </trkpt>
      <trkpt lat="42.70192" lon="0.66611">
        <ele>1835.5</ele>
        <time>2018-08-08T13:04:31.000Z</time>
      </trkpt>
      <trkpt lat="42.70193" lon="0.6661">
        <ele>1835.1</ele>
        <time>2018-08-08T13:04:32.000Z</time>
      </trkpt>
      <trkpt lat="42.70193" lon="0.66609">
        <ele>1834.7</ele>
        <time>2018-08-08T13:04:33.000Z</time>
      </trkpt>
      <trkpt lat="42.70194" lon="0.66608">
        <ele>1834.4</ele>
        <time>2018-08-08T13:04:34.000Z</time>
      </trkpt>
      <trkpt lat="42.70195" lon="0.66606">
        <ele>1834</ele>
        <time>2018-08-08T13:04:35.000Z</time>
      </trkpt>
      <trkpt lat="42.70195" lon="0.66605">
        <ele>1833.7</ele>
        <time>2018-08-08T13:04:36.000Z</time>
      </trkpt>
      <trkpt lat="42.70196" lon="0.66604">
        <ele>1833.4</ele>
        <time>2018-08-08T13:04:37.000Z</time>
      </trkpt>
      <trkpt lat="42.70196" lon="0.66603">
        <ele>1833.1</ele>
        <time>2018-08-08T13:04:38.000Z</time>
      </trkpt>
      <trkpt lat="42.70197" lon="0.66602">
        <ele>1832.8</ele>
        <time>2018-08-08T13:04:39.000Z</time>
      </trkpt>
      <trkpt lat="42.70197" lon="0.66601">
        <ele>1832.5</ele>
        <time>2018-08-08T13:04:40.000Z</time>
      </trkpt>
      <trkpt lat="42.70197" lon="0.666">
        <ele>1832.2</ele>
        <time>2018-08-08T13:04:41.000Z</time>
      </trkpt>
      <trkpt lat="42.70198" lon="0.66599">
        <ele>1831.9</ele>
        <time>2018-08-08T13:04:42.000Z</time>
      </trkpt>
      <trkpt lat="42.70198" lon="0.66597">
        <ele>1831.7</ele>
        <time>2018-08-08T13:04:43.000Z</time>
      </trkpt>
      <trkpt lat="42.70199" lon="0.66596">
        <ele>1831.4</ele>
        <time>2018-08-08T13:04:44.000Z</time>
      </trkpt>
      <trkpt lat="42.70199" lon="0.66595">
        <ele>1831.1</ele>
        <time>2018-08-08T13:04:45.000Z</time>
      </trkpt>
      <trkpt lat="42.702" lon="0.66594">
        <ele>1830.9</ele>
        <time>2018-08-08T13:04:46.000Z</time>
      </trkpt>
      <trkpt lat="42.702" lon="0.66593">
        <ele>1830.6</ele>
        <time>2018-08-08T13:04:47.000Z</time>
      </trkpt>
      <trkpt lat="42.702" lon="0.66592">
        <ele>1830.4</ele>
        <time>2018-08-08T13:04:48.000Z</time>
      </trkpt>
      <trkpt lat="42.70201" lon="0.66591">
        <ele>1830.1</ele>
        <time>2018-08-08T13:04:49.000Z</time>
      </trkpt>
      <trkpt lat="42.70201" lon="0.6659">
        <ele>1829.9</ele>
        <time>2018-08-08T13:04:50.000Z</time>
      </trkpt>
      <trkpt lat="42.70202" lon="0.66589">
        <ele>1829.6</ele>
        <time>2018-08-08T13:04:51.000Z</time>
      </trkpt>
      <trkpt lat="42.70202" lon="0.66588">
        <ele>1829.4</ele>
        <time>2018-08-08T13:04:52.000Z</time>
      </trkpt>
      <trkpt lat="42.70202" lon="0.66587">
        <ele>1829.2</ele>
        <time>2018-08-08T13:04:53.000Z</time>
      </trkpt>
      <trkpt lat="42.70203" lon="0.66586">
        <ele>1828.9</ele>
        <time>2018-08-08T13:04:54.000Z</time>
      </trkpt>
      <trkpt lat="42.70203" lon="0.66585">
        <ele>1828.7</ele>
        <time>2018-08-08T13:04:55.000Z</time>
      </trkpt>
      <trkpt lat="42.70204" lon="0.66584">
        <ele>1828.5</ele>
        <time>2018-08-08T13:04:56.000Z</time>
      </trkpt>
      <trkpt lat="42.70204" lon="0.66583">
        <ele>1828.2</ele>
        <time>2018-08-08T13:04:57.000Z</time>
      </trkpt>
      <trkpt lat="42.70205" lon="0.66582">
        <ele>1828.4</ele>
        <time>2018-08-08T13:04:58.000Z</time>
      </trkpt>
      <trkpt lat="42.70205" lon="0.66582">
        <ele>1828.5</ele>
        <time>2018-08-08T13:04:59.000Z</time>
      </trkpt>
      <trkpt lat="42.70206" lon="0.66581">
        <ele>1828.6</ele>
        <time>2018-08-08T13:05:00.000Z</time>
      </trkpt>
      <trkpt lat="42.70206" lon="0.6658">
        <ele>1828.8</ele>
        <time>2018-08-08T13:05:01.000Z</time>
      </trkpt>
      <trkpt lat="42.70207" lon="0.66579">
        <ele>1828.9</ele>
        <time>2018-08-08T13:05:02.000Z</time>
      </trkpt>
      <trkpt lat="42.70207" lon="0.66578">
        <ele>1829</ele>
        <time>2018-08-08T13:05:03.000Z</time>
      </trkpt>
      <trkpt lat="42.70208" lon="0.66577">
        <ele>1829.1</ele>
        <time>2018-08-08T13:05:04.000Z</time>
      </trkpt>
      <trkpt lat="42.70208" lon="0.66576">
        <ele>1829.2</ele>
        <time>2018-08-08T13:05:05.000Z</time>
      </trkpt>
      <trkpt lat="42.70209" lon="0.66575">
        <ele>1829.3</ele>
        <time>2018-08-08T13:05:06.000Z</time>
      </trkpt>
      <trkpt lat="42.7021" lon="0.66575">
        <ele>1829.4</ele>
        <time>2018-08-08T13:05:07.000Z</time>
      </trkpt>
      <trkpt lat="42.7021" lon="0.66574">
        <ele>1829.5</ele>
        <time>2018-08-08T13:05:08.000Z</time>
      </trkpt>
      <trkpt lat="42.70211" lon="0.66573">
        <ele>1829.6</ele>
        <time>2018-08-08T13:05:09.000Z</time>
      </trkpt>
      <trkpt lat="42.70211" lon="0.66572">
        <ele>1829.7</ele>
        <time>2018-08-08T13:05:10.000Z</time>
      </trkpt>
      <trkpt lat="42.70212" lon="0.66572">
        <ele>1829.8</ele>
        <time>2018-08-08T13:05:11.000Z</time>
      </trkpt>
      <trkpt lat="42.70212" lon="0.66571">
        <ele>1829.8</ele>
        <time>2018-08-08T13:05:12.000Z</time>
      </trkpt>
      <trkpt lat="42.70213" lon="0.6657">
        <ele>1829.9</ele>
        <time>2018-08-08T13:05:13.000Z</time>
      </trkpt>
      <trkpt lat="42.70213" lon="0.6657">
        <ele>1829.9</ele>
        <time>2018-08-08T13:05:14.000Z</time>
      </trkpt>
      <trkpt lat="42.70213" lon="0.66569">
        <ele>1830</ele>
        <time>2018-08-08T13:05:15.000Z</time>
      </trkpt>
      <trkpt lat="42.70214" lon="0.66569">
        <ele>1830</ele>
        <time>2018-08-08T13:05:16.000Z</time>
      </trkpt>
      <trkpt lat="42.70214" lon="0.66568">
        <ele>1830.1</ele>
        <time>2018-08-08T13:05:17.000Z</time>
      </trkpt>
      <trkpt lat="42.70214" lon="0.66568">
        <ele>1830.1</ele>
        <time>2018-08-08T13:05:18.000Z</time>
      </trkpt>
      <trkpt lat="42.70215" lon="0.66568">
        <ele>1830.2</ele>
        <time>2018-08-08T13:05:19.000Z</time>
      </trkpt>
      <trkpt lat="42.70215" lon="0.66567">
        <ele>1830.2</ele>
        <time>2018-08-08T13:05:20.000Z</time>
      </trkpt>
      <trkpt lat="42.70215" lon="0.66567">
        <ele>1830.3</ele>
        <time>2018-08-08T13:05:21.000Z</time>
      </trkpt>
      <trkpt lat="42.70215" lon="0.66566">
        <ele>1830.4</ele>
        <time>2018-08-08T13:05:22.000Z</time>
      </trkpt>
      <trkpt lat="42.70215" lon="0.66566">
        <ele>1830.6</ele>
        <time>2018-08-08T13:05:23.000Z</time>
      </trkpt>
      <trkpt lat="42.70215" lon="0.66566">
        <ele>1830.7</ele>
        <time>2018-08-08T13:05:24.000Z</time>
      </trkpt>
      <trkpt lat="42.70215" lon="0.66565">
        <ele>1830.8</ele>
        <time>2018-08-08T13:05:25.000Z</time>
      </trkpt>
      <trkpt lat="42.70215" lon="0.66565">
        <ele>1831</ele>
        <time>2018-08-08T13:05:26.000Z</time>
      </trkpt>
      <trkpt lat="42.70215" lon="0.66564">
        <ele>1831.2</ele>
        <time>2018-08-08T13:05:27.000Z</time>
      </trkpt>
      <trkpt lat="42.70214" lon="0.66564">
        <ele>1831.5</ele>
        <time>2018-08-08T13:05:28.000Z</time>
      </trkpt>
      <trkpt lat="42.70214" lon="0.66563">
        <ele>1831.7</ele>
        <time>2018-08-08T13:05:29.000Z</time>
      </trkpt>
      <trkpt lat="42.70213" lon="0.66563">
        <ele>1832</ele>
        <time>2018-08-08T13:05:30.000Z</time>
      </trkpt>
      <trkpt lat="42.70213" lon="0.66562">
        <ele>1832.4</ele>
        <time>2018-08-08T13:05:31.000Z</time>
      </trkpt>
      <trkpt lat="42.70212" lon="0.66562">
        <ele>1832.7</ele>
        <time>2018-08-08T13:05:32.000Z</time>
      </trkpt>
      <trkpt lat="42.70211" lon="0.66561">
        <ele>1833.1</ele>
        <time>2018-08-08T13:05:33.000Z</time>
      </trkpt>
      <trkpt lat="42.70211" lon="0.6656">
        <ele>1833.5</ele>
        <time>2018-08-08T13:05:34.000Z</time>
      </trkpt>
      <trkpt lat="42.7021" lon="0.6656">
        <ele>1833.9</ele>
        <time>2018-08-08T13:05:35.000Z</time>
      </trkpt>
      <trkpt lat="42.70209" lon="0.66559">
        <ele>1834.3</ele>
        <time>2018-08-08T13:05:36.000Z</time>
      </trkpt>
      <trkpt lat="42.70209" lon="0.66558">
        <ele>1834.7</ele>
        <time>2018-08-08T13:05:37.000Z</time>
      </trkpt>
      <trkpt lat="42.70208" lon="0.66558">
        <ele>1835.1</ele>
        <time>2018-08-08T13:05:38.000Z</time>
      </trkpt>
      <trkpt lat="42.70207" lon="0.66557">
        <ele>1835.5</ele>
        <time>2018-08-08T13:05:39.000Z</time>
      </trkpt>
      <trkpt lat="42.70207" lon="0.66557">
        <ele>1835.8</ele>
        <time>2018-08-08T13:05:40.000Z</time>
      </trkpt>
      <trkpt lat="42.70206" lon="0.66556">
        <ele>1836.1</ele>
        <time>2018-08-08T13:05:41.000Z</time>
      </trkpt>
      <trkpt lat="42.70206" lon="0.66556">
        <ele>1836.4</ele>
        <time>2018-08-08T13:05:42.000Z</time>
      </trkpt>
      <trkpt lat="42.70205" lon="0.66555">
        <ele>1836.6</ele>
        <time>2018-08-08T13:05:43.000Z</time>
      </trkpt>
      <trkpt lat="42.70205" lon="0.66555">
        <ele>1836.8</ele>
        <time>2018-08-08T13:05:44.000Z</time>
      </trkpt>
      <trkpt lat="42.70205" lon="0.66555">
        <ele>1837</ele>
        <time>2018-08-08T13:05:45.000Z</time>
      </trkpt>
      <trkpt lat="42.70204" lon="0.66554">
        <ele>1837.1</ele>
        <time>2018-08-08T13:05:46.000Z</time>
      </trkpt>
      <trkpt lat="42.70204" lon="0.66554">
        <ele>1837.2</ele>
        <time>2018-08-08T13:05:47.000Z</time>
      </trkpt>
      <trkpt lat="42.70204" lon="0.66554">
        <ele>1837.3</ele>
        <time>2018-08-08T13:05:48.000Z</time>
      </trkpt>
      <trkpt lat="42.70204" lon="0.66554">
        <ele>1837.3</ele>
        <time>2018-08-08T13:05:49.000Z</time>
      </trkpt>
      <trkpt lat="42.70204" lon="0.66554">
        <ele>1837.3</ele>
        <time>2018-08-08T13:05:50.000Z</time>
      </trkpt>
      <trkpt lat="42.70204" lon="0.66554">
        <ele>1837.4</ele>
        <time>2018-08-08T13:05:51.000Z</time>
      </trkpt>
      <trkpt lat="42.70204" lon="0.66554">
        <ele>1837.4</ele>
        <time>2018-08-08T13:05:52.000Z</time>
      </trkpt>
      <trkpt lat="42.70204" lon="0.66554">
        <ele>1837.4</ele>
        <time>2018-08-08T13:05:53.000Z</time>
      </trkpt>
      <trkpt lat="42.70204" lon="0.66554">
        <ele>1837.4</ele>
        <time>2018-08-08T13:05:54.000Z</time>
      </trkpt>
      <trkpt lat="42.70204" lon="0.66554">
        <ele>1837.4</ele>
        <time>2018-08-08T13:05:55.000Z</time>
      </trkpt>
      <trkpt lat="42.70203" lon="0.66554">
        <ele>1837.4</ele>
        <time>2018-08-08T13:05:56.000Z</time>
      </trkpt>
      <trkpt lat="42.70203" lon="0.66554">
        <ele>1837.5</ele>
        <time>2018-08-08T13:05:57.000Z</time>
      </trkpt>
      <trkpt lat="42.70203" lon="0.66554">
        <ele>1837.5</ele>
        <time>2018-08-08T13:05:58.000Z</time>
      </trkpt>
      <trkpt lat="42.70202" lon="0.66555">
        <ele>1837.6</ele>
        <time>2018-08-08T13:05:59.000Z</time>
      </trkpt>
      <trkpt lat="42.70201" lon="0.66555">
        <ele>1837.8</ele>
        <time>2018-08-08T13:06:00.000Z</time>
      </trkpt>
      <trkpt lat="42.70201" lon="0.66555">
        <ele>1837.9</ele>
        <time>2018-08-08T13:06:01.000Z</time>
      </trkpt>
      <trkpt lat="42.702" lon="0.66555">
        <ele>1838</ele>
        <time>2018-08-08T13:06:02.000Z</time>
      </trkpt>
      <trkpt lat="42.70199" lon="0.66555">
        <ele>1838.2</ele>
        <time>2018-08-08T13:06:03.000Z</time>
      </trkpt>
      <trkpt lat="42.70199" lon="0.66555">
        <ele>1838.3</ele>
        <time>2018-08-08T13:06:04.000Z</time>
      </trkpt>
      <trkpt lat="42.70198" lon="0.66556">
        <ele>1838.4</ele>
        <time>2018-08-08T13:06:05.000Z</time>
      </trkpt>
      <trkpt lat="42.70198" lon="0.66556">
        <ele>1838.5</ele>
        <time>2018-08-08T13:06:06.000Z</time>
      </trkpt>
      <trkpt lat="42.70197" lon="0.66556">
        <ele>1838.5</ele>
        <time>2018-08-08T13:06:07.000Z</time>
      </trkpt>
      <trkpt lat="42.70197" lon="0.66556">
        <ele>1838.6</ele>
        <time>2018-08-08T13:06:08.000Z</time>
      </trkpt>
      <trkpt lat="42.70197" lon="0.66556">
        <ele>1838.6</ele>
        <time>2018-08-08T13:06:09.000Z</time>
      </trkpt>
      <trkpt lat="42.70197" lon="0.66556">
        <ele>1838.6</ele>
        <time>2018-08-08T13:06:10.000Z</time>
      </trkpt>
      <trkpt lat="42.70197" lon="0.66556">
        <ele>1838.7</ele>
        <time>2018-08-08T13:06:11.000Z</time>
      </trkpt>
      <trkpt lat="42.70197" lon="0.66556">
        <ele>1838.7</ele>
        <time>2018-08-08T13:06:12.000Z</time>
      </trkpt>
      <trkpt lat="42.70197" lon="0.66556">
        <ele>1838.7</ele>
        <time>2018-08-08T13:06:13.000Z</time>
      </trkpt>
      <trkpt lat="42.70197" lon="0.66556">
        <ele>1838.7</ele>
        <time>2018-08-08T13:06:14.000Z</time>
      </trkpt>
      <trkpt lat="42.70197" lon="0.66556">
        <ele>1838.7</ele>
        <time>2018-08-08T13:06:15.000Z</time>
      </trkpt>
      <trkpt lat="42.70197" lon="0.66556">
        <ele>1838.8</ele>
        <time>2018-08-08T13:06:16.000Z</time>
      </trkpt>
      <trkpt lat="42.70197" lon="0.66556">
        <ele>1838.8</ele>
        <time>2018-08-08T13:06:17.000Z</time>
      </trkpt>
      <trkpt lat="42.70197" lon="0.66556">
        <ele>1838.8</ele>
        <time>2018-08-08T13:06:18.000Z</time>
      </trkpt>
      <trkpt lat="42.70197" lon="0.66556">
        <ele>1838.8</ele>
        <time>2018-08-08T13:06:19.000Z</time>
      </trkpt>
      <trkpt lat="42.70197" lon="0.66556">
        <ele>1838.8</ele>
        <time>2018-08-08T13:06:20.000Z</time>
      </trkpt>
      <trkpt lat="42.70197" lon="0.66556">
        <ele>1838.8</ele>
        <time>2018-08-08T13:06:21.000Z</time>
      </trkpt>
      <trkpt lat="42.70196" lon="0.66556">
        <ele>1838.8</ele>
        <time>2018-08-08T13:06:22.000Z</time>
      </trkpt>
      <trkpt lat="42.70196" lon="0.66556">
        <ele>1838.8</ele>
        <time>2018-08-08T13:06:23.000Z</time>
      </trkpt>
      <trkpt lat="42.70196" lon="0.66556">
        <ele>1838.8</ele>
        <time>2018-08-08T13:06:24.000Z</time>
      </trkpt>
      <trkpt lat="42.70196" lon="0.66556">
        <ele>1838.8</ele>
        <time>2018-08-08T13:06:25.000Z</time>
      </trkpt>
      <trkpt lat="42.70196" lon="0.66556">
        <ele>1838.9</ele>
        <time>2018-08-08T13:06:26.000Z</time>
      </trkpt>
      <trkpt lat="42.70196" lon="0.66555">
        <ele>1838.9</ele>
        <time>2018-08-08T13:06:27.000Z</time>
      </trkpt>
      <trkpt lat="42.70196" lon="0.66555">
        <ele>1838.9</ele>
        <time>2018-08-08T13:06:28.000Z</time>
      </trkpt>
      <trkpt lat="42.70196" lon="0.66555">
        <ele>1838.9</ele>
        <time>2018-08-08T13:06:29.000Z</time>
      </trkpt>
      <trkpt lat="42.70196" lon="0.66555">
        <ele>1838.9</ele>
        <time>2018-08-08T13:06:30.000Z</time>
      </trkpt>
      <trkpt lat="42.70196" lon="0.66555">
        <ele>1838.9</ele>
        <time>2018-08-08T13:06:31.000Z</time>
      </trkpt>
      <trkpt lat="42.70196" lon="0.66555">
        <ele>1838.9</ele>
        <time>2018-08-08T13:06:32.000Z</time>
      </trkpt>
      <trkpt lat="42.70196" lon="0.66555">
        <ele>1839</ele>
        <time>2018-08-08T13:06:33.000Z</time>
      </trkpt>
      <trkpt lat="42.70196" lon="0.66555">
        <ele>1839</ele>
        <time>2018-08-08T13:06:34.000Z</time>
      </trkpt>
      <trkpt lat="42.70196" lon="0.66555">
        <ele>1839.1</ele>
        <time>2018-08-08T13:06:35.000Z</time>
      </trkpt>
      <trkpt lat="42.70196" lon="0.66555">
        <ele>1839.1</ele>
        <time>2018-08-08T13:06:36.000Z</time>
      </trkpt>
      <trkpt lat="42.70196" lon="0.66555">
        <ele>1839.1</ele>
        <time>2018-08-08T13:06:37.000Z</time>
      </trkpt>
      <trkpt lat="42.70196" lon="0.66555">
        <ele>1839.1</ele>
        <time>2018-08-08T13:06:38.000Z</time>
      </trkpt>
      <trkpt lat="42.70196" lon="0.66555">
        <ele>1839.2</ele>
        <time>2018-08-08T13:06:39.000Z</time>
      </trkpt>
      <trkpt lat="42.70196" lon="0.66555">
        <ele>1839.2</ele>
        <time>2018-08-08T13:06:40.000Z</time>
      </trkpt>
      <trkpt lat="42.70196" lon="0.66555">
        <ele>1839.3</ele>
        <time>2018-08-08T13:06:41.000Z</time>
      </trkpt>
      <trkpt lat="42.70195" lon="0.66554">
        <ele>1839.5</ele>
        <time>2018-08-08T13:06:42.000Z</time>
      </trkpt>
      <trkpt lat="42.70195" lon="0.66554">
        <ele>1839.9</ele>
        <time>2018-08-08T13:06:43.000Z</time>
      </trkpt>
      <trkpt lat="42.70194" lon="0.66553">
        <ele>1840.3</ele>
        <time>2018-08-08T13:06:44.000Z</time>
      </trkpt>
      <trkpt lat="42.70194" lon="0.66552">
        <ele>1840.6</ele>
        <time>2018-08-08T13:06:45.000Z</time>
      </trkpt>
      <trkpt lat="42.70193" lon="0.66552">
        <ele>1840.8</ele>
        <time>2018-08-08T13:06:46.000Z</time>
      </trkpt>
      <trkpt lat="42.70193" lon="0.66552">
        <ele>1840.8</ele>
        <time>2018-08-08T13:06:47.000Z</time>
      </trkpt>
      <trkpt lat="42.70193" lon="0.66552">
        <ele>1840.9</ele>
        <time>2018-08-08T13:06:48.000Z</time>
      </trkpt>
      <trkpt lat="42.70193" lon="0.66552">
        <ele>1840.9</ele>
        <time>2018-08-08T13:06:49.000Z</time>
      </trkpt>
      <trkpt lat="42.70193" lon="0.66552">
        <ele>1840.9</ele>
        <time>2018-08-08T13:06:50.000Z</time>
      </trkpt>
      <trkpt lat="42.70193" lon="0.66552">
        <ele>1840.9</ele>
        <time>2018-08-08T13:06:51.000Z</time>
      </trkpt>
      <trkpt lat="42.70193" lon="0.66552">
        <ele>1840.9</ele>
        <time>2018-08-08T13:06:52.000Z</time>
      </trkpt>
      <trkpt lat="42.70193" lon="0.66552">
        <ele>1840.9</ele>
        <time>2018-08-08T13:06:53.000Z</time>
      </trkpt>
      <trkpt lat="42.70193" lon="0.66552">
        <ele>1840.9</ele>
        <time>2018-08-08T13:06:54.000Z</time>
      </trkpt>
      <trkpt lat="42.70193" lon="0.66552">
        <ele>1840.9</ele>
        <time>2018-08-08T13:06:55.000Z</time>
      </trkpt>
      <trkpt lat="42.70193" lon="0.66552">
        <ele>1840.9</ele>
        <time>2018-08-08T13:06:56.000Z</time>
      </trkpt>
      <trkpt lat="42.70193" lon="0.66552">
        <ele>1840.9</ele>
        <time>2018-08-08T13:06:57.000Z</time>
      </trkpt>
      <trkpt lat="42.70193" lon="0.66552">
        <ele>1840.9</ele>
        <time>2018-08-08T13:06:58.000Z</time>
      </trkpt>
      <trkpt lat="42.70193" lon="0.66552">
        <ele>1840.9</ele>
        <time>2018-08-08T13:06:59.000Z</time>
      </trkpt>
      <trkpt lat="42.70193" lon="0.66552">
        <ele>1840.9</ele>
        <time>2018-08-08T13:07:00.000Z</time>
      </trkpt>
      <trkpt lat="42.70193" lon="0.66552">
        <ele>1840.9</ele>
        <time>2018-08-08T13:07:01.000Z</time>
      </trkpt>
      <trkpt lat="42.70193" lon="0.66552">
        <ele>1840.9</ele>
        <time>2018-08-08T13:07:02.000Z</time>
      </trkpt>
      <trkpt lat="42.70193" lon="0.66552">
        <ele>1840.9</ele>
        <time>2018-08-08T13:07:03.000Z</time>
      </trkpt>
      <trkpt lat="42.70192" lon="0.66552">
        <ele>1840.9</ele>
        <time>2018-08-08T13:07:04.000Z</time>
      </trkpt>
      <trkpt lat="42.70191" lon="0.66554">
        <ele>1840.9</ele>
        <time>2018-08-08T13:07:05.000Z</time>
      </trkpt>
      <trkpt lat="42.70189" lon="0.66555">
        <ele>1840.8</ele>
        <time>2018-08-08T13:07:06.000Z</time>
      </trkpt>
      <trkpt lat="42.70189" lon="0.66556">
        <ele>1840.8</ele>
        <time>2018-08-08T13:07:07.000Z</time>
      </trkpt>
      <trkpt lat="42.70189" lon="0.66556">
        <ele>1840.8</ele>
        <time>2018-08-08T13:07:08.000Z</time>
      </trkpt>
      <trkpt lat="42.70189" lon="0.66556">
        <ele>1840.8</ele>
        <time>2018-08-08T13:07:09.000Z</time>
      </trkpt>
      <trkpt lat="42.70189" lon="0.66556">
        <ele>1840.8</ele>
        <time>2018-08-08T13:07:10.000Z</time>
      </trkpt>
      <trkpt lat="42.70188" lon="0.66556">
        <ele>1840.8</ele>
        <time>2018-08-08T13:07:11.000Z</time>
      </trkpt>
      <trkpt lat="42.70188" lon="0.66556">
        <ele>1840.8</ele>
        <time>2018-08-08T13:07:12.000Z</time>
      </trkpt>
      <trkpt lat="42.70188" lon="0.66556">
        <ele>1840.8</ele>
        <time>2018-08-08T13:07:13.000Z</time>
      </trkpt>
      <trkpt lat="42.70188" lon="0.66557">
        <ele>1840.8</ele>
        <time>2018-08-08T13:07:14.000Z</time>
      </trkpt>
      <trkpt lat="42.70188" lon="0.66557">
        <ele>1840.8</ele>
        <time>2018-08-08T13:07:15.000Z</time>
      </trkpt>
      <trkpt lat="42.70188" lon="0.66557">
        <ele>1840.8</ele>
        <time>2018-08-08T13:07:16.000Z</time>
      </trkpt>
      <trkpt lat="42.70188" lon="0.66557">
        <ele>1840.8</ele>
        <time>2018-08-08T13:07:17.000Z</time>
      </trkpt>
      <trkpt lat="42.70188" lon="0.66557">
        <ele>1840.8</ele>
        <time>2018-08-08T13:07:18.000Z</time>
      </trkpt>
      <trkpt lat="42.70188" lon="0.66557">
        <ele>1840.8</ele>
        <time>2018-08-08T13:07:19.000Z</time>
      </trkpt>
      <trkpt lat="42.70188" lon="0.66557">
        <ele>1840.8</ele>
        <time>2018-08-08T13:07:20.000Z</time>
      </trkpt>
      <trkpt lat="42.70187" lon="0.66557">
        <ele>1840.8</ele>
        <time>2018-08-08T13:07:21.000Z</time>
      </trkpt>
      <trkpt lat="42.70187" lon="0.66557">
        <ele>1840.8</ele>
        <time>2018-08-08T13:07:22.000Z</time>
      </trkpt>
      <trkpt lat="42.70187" lon="0.66557">
        <ele>1840.9</ele>
        <time>2018-08-08T13:07:23.000Z</time>
      </trkpt>
      <trkpt lat="42.70187" lon="0.66557">
        <ele>1840.9</ele>
        <time>2018-08-08T13:07:24.000Z</time>
      </trkpt>
      <trkpt lat="42.70187" lon="0.66557">
        <ele>1840.9</ele>
        <time>2018-08-08T13:07:25.000Z</time>
      </trkpt>
      <trkpt lat="42.70187" lon="0.66557">
        <ele>1841</ele>
        <time>2018-08-08T13:07:26.000Z</time>
      </trkpt>
      <trkpt lat="42.70187" lon="0.66557">
        <ele>1841</ele>
        <time>2018-08-08T13:07:27.000Z</time>
      </trkpt>
      <trkpt lat="42.70187" lon="0.66557">
        <ele>1841</ele>
        <time>2018-08-08T13:07:28.000Z</time>
      </trkpt>
      <trkpt lat="42.70187" lon="0.66557">
        <ele>1841</ele>
        <time>2018-08-08T13:07:29.000Z</time>
      </trkpt>
      <trkpt lat="42.70187" lon="0.66557">
        <ele>1841</ele>
        <time>2018-08-08T13:07:30.000Z</time>
      </trkpt>
      <trkpt lat="42.70187" lon="0.66557">
        <ele>1841</ele>
        <time>2018-08-08T13:07:31.000Z</time>
      </trkpt>
      <trkpt lat="42.70187" lon="0.66557">
        <ele>1841</ele>
        <time>2018-08-08T13:07:32.000Z</time>
      </trkpt>
      <trkpt lat="42.70187" lon="0.66557">
        <ele>1841</ele>
        <time>2018-08-08T13:07:33.000Z</time>
      </trkpt>
      <trkpt lat="42.70187" lon="0.66557">
        <ele>1841</ele>
        <time>2018-08-08T13:07:34.000Z</time>
      </trkpt>
      <trkpt lat="42.70187" lon="0.66557">
        <ele>1841</ele>
        <time>2018-08-08T13:07:35.000Z</time>
      </trkpt>
      <trkpt lat="42.70187" lon="0.66557">
        <ele>1841</ele>
        <time>2018-08-08T13:07:36.000Z</time>
      </trkpt>
      <trkpt lat="42.70187" lon="0.66557">
        <ele>1841</ele>
        <time>2018-08-08T13:07:37.000Z</time>
      </trkpt>
      <trkpt lat="42.70187" lon="0.66557">
        <ele>1841</ele>
        <time>2018-08-08T13:07:38.000Z</time>
      </trkpt>
      <trkpt lat="42.70187" lon="0.66557">
        <ele>1841</ele>
        <time>2018-08-08T13:07:39.000Z</time>
      </trkpt>
      <trkpt lat="42.70187" lon="0.66557">
        <ele>1841</ele>
        <time>2018-08-08T13:07:40.000Z</time>
      </trkpt>
      <trkpt lat="42.70187" lon="0.66557">
        <ele>1841</ele>
        <time>2018-08-08T13:07:41.000Z</time>
      </trkpt>
      <trkpt lat="42.70187" lon="0.66557">
        <ele>1841</ele>
        <time>2018-08-08T13:07:42.000Z</time>
      </trkpt>
      <trkpt lat="42.70187" lon="0.66557">
        <ele>1841</ele>
        <time>2018-08-08T13:07:43.000Z</time>
      </trkpt>
      <trkpt lat="42.70187" lon="0.66557">
        <ele>1841</ele>
        <time>2018-08-08T13:07:44.000Z</time>
      </trkpt>
      <trkpt lat="42.70187" lon="0.66557">
        <ele>1841</ele>
        <time>2018-08-08T13:07:45.000Z</time>
      </trkpt>
      <trkpt lat="42.70187" lon="0.66557">
        <ele>1841</ele>
        <time>2018-08-08T13:07:46.000Z</time>
      </trkpt>
      <trkpt lat="42.70187" lon="0.66557">
        <ele>1841</ele>
        <time>2018-08-08T13:07:47.000Z</time>
      </trkpt>
      <trkpt lat="42.70187" lon="0.66557">
        <ele>1841</ele>
        <time>2018-08-08T13:07:48.000Z</time>
      </trkpt>
      <trkpt lat="42.70187" lon="0.66557">
        <ele>1841</ele>
        <time>2018-08-08T13:07:49.000Z</time>
      </trkpt>
      <trkpt lat="42.70187" lon="0.66557">
        <ele>1841</ele>
        <time>2018-08-08T13:07:50.000Z</time>
      </trkpt>
      <trkpt lat="42.70187" lon="0.66557">
        <ele>1841</ele>
        <time>2018-08-08T13:07:51.000Z</time>
      </trkpt>
      <trkpt lat="42.70187" lon="0.66557">
        <ele>1841</ele>
        <time>2018-08-08T13:07:52.000Z</time>
      </trkpt>
      <trkpt lat="42.70187" lon="0.66557">
        <ele>1841</ele>
        <time>2018-08-08T13:07:53.000Z</time>
      </trkpt>
      <trkpt lat="42.70187" lon="0.66557">
        <ele>1841</ele>
        <time>2018-08-08T13:07:54.000Z</time>
      </trkpt>
      <trkpt lat="42.70187" lon="0.66557">
        <ele>1841</ele>
        <time>2018-08-08T13:07:55.000Z</time>
      </trkpt>
      <trkpt lat="42.70187" lon="0.66557">
        <ele>1840.9</ele>
        <time>2018-08-08T13:07:56.000Z</time>
      </trkpt>
      <trkpt lat="42.70187" lon="0.66557">
        <ele>1840.9</ele>
        <time>2018-08-08T13:07:57.000Z</time>
      </trkpt>
      <trkpt lat="42.70188" lon="0.66556">
        <ele>1840.8</ele>
        <time>2018-08-08T13:07:58.000Z</time>
      </trkpt>
      <trkpt lat="42.7019" lon="0.66556">
        <ele>1840.6</ele>
        <time>2018-08-08T13:07:59.000Z</time>
      </trkpt>
      <trkpt lat="42.70192" lon="0.66555">
        <ele>1840.3</ele>
        <time>2018-08-08T13:08:00.000Z</time>
      </trkpt>
      <trkpt lat="42.70194" lon="0.66554">
        <ele>1840</ele>
        <time>2018-08-08T13:08:01.000Z</time>
      </trkpt>
      <trkpt lat="42.70195" lon="0.66553">
        <ele>1840</ele>
        <time>2018-08-08T13:08:02.000Z</time>
      </trkpt>
      <trkpt lat="42.70195" lon="0.66553">
        <ele>1840</ele>
        <time>2018-08-08T13:08:03.000Z</time>
      </trkpt>
      <trkpt lat="42.70195" lon="0.66553">
        <ele>1840.1</ele>
        <time>2018-08-08T13:08:04.000Z</time>
      </trkpt>
      <trkpt lat="42.70195" lon="0.66553">
        <ele>1840.1</ele>
        <time>2018-08-08T13:08:05.000Z</time>
      </trkpt>
      <trkpt lat="42.70195" lon="0.66553">
        <ele>1840</ele>
        <time>2018-08-08T13:08:06.000Z</time>
      </trkpt>
      <trkpt lat="42.70195" lon="0.66553">
        <ele>1840</ele>
        <time>2018-08-08T13:08:07.000Z</time>
      </trkpt>
      <trkpt lat="42.70195" lon="0.66553">
        <ele>1840</ele>
        <time>2018-08-08T13:08:08.000Z</time>
      </trkpt>
      <trkpt lat="42.70195" lon="0.66553">
        <ele>1840.1</ele>
        <time>2018-08-08T13:08:09.000Z</time>
      </trkpt>
      <trkpt lat="42.70195" lon="0.66553">
        <ele>1840.1</ele>
        <time>2018-08-08T13:08:10.000Z</time>
      </trkpt>
      <trkpt lat="42.70195" lon="0.66553">
        <ele>1840.1</ele>
        <time>2018-08-08T13:08:11.000Z</time>
      </trkpt>
      <trkpt lat="42.70195" lon="0.66552">
        <ele>1840.1</ele>
        <time>2018-08-08T13:08:12.000Z</time>
      </trkpt>
      <trkpt lat="42.70195" lon="0.66552">
        <ele>1840.1</ele>
        <time>2018-08-08T13:08:13.000Z</time>
      </trkpt>
      <trkpt lat="42.70195" lon="0.66552">
        <ele>1840.1</ele>
        <time>2018-08-08T13:08:14.000Z</time>
      </trkpt>
      <trkpt lat="42.70195" lon="0.66552">
        <ele>1840.1</ele>
        <time>2018-08-08T13:08:15.000Z</time>
      </trkpt>
      <trkpt lat="42.70195" lon="0.66552">
        <ele>1840.1</ele>
        <time>2018-08-08T13:08:16.000Z</time>
      </trkpt>
      <trkpt lat="42.70195" lon="0.66553">
        <ele>1840</ele>
        <time>2018-08-08T13:08:17.000Z</time>
      </trkpt>
      <trkpt lat="42.70195" lon="0.66553">
        <ele>1840</ele>
        <time>2018-08-08T13:08:18.000Z</time>
      </trkpt>
      <trkpt lat="42.70195" lon="0.66553">
        <ele>1840</ele>
        <time>2018-08-08T13:08:19.000Z</time>
      </trkpt>
      <trkpt lat="42.70195" lon="0.66553">
        <ele>1840</ele>
        <time>2018-08-08T13:08:20.000Z</time>
      </trkpt>
      <trkpt lat="42.70195" lon="0.66553">
        <ele>1840</ele>
        <time>2018-08-08T13:08:21.000Z</time>
      </trkpt>
      <trkpt lat="42.70196" lon="0.66553">
        <ele>1839.9</ele>
        <time>2018-08-08T13:08:22.000Z</time>
      </trkpt>
      <trkpt lat="42.70196" lon="0.66553">
        <ele>1839.9</ele>
        <time>2018-08-08T13:08:23.000Z</time>
      </trkpt>
      <trkpt lat="42.70196" lon="0.66553">
        <ele>1839.9</ele>
        <time>2018-08-08T13:08:24.000Z</time>
      </trkpt>
      <trkpt lat="42.70196" lon="0.66553">
        <ele>1839.8</ele>
        <time>2018-08-08T13:08:25.000Z</time>
      </trkpt>
      <trkpt lat="42.70196" lon="0.66553">
        <ele>1839.8</ele>
        <time>2018-08-08T13:08:26.000Z</time>
      </trkpt>
      <trkpt lat="42.70196" lon="0.66553">
        <ele>1839.7</ele>
        <time>2018-08-08T13:08:27.000Z</time>
      </trkpt>
      <trkpt lat="42.70196" lon="0.66553">
        <ele>1839.7</ele>
        <time>2018-08-08T13:08:28.000Z</time>
      </trkpt>
      <trkpt lat="42.70196" lon="0.66553">
        <ele>1839.7</ele>
        <time>2018-08-08T13:08:29.000Z</time>
      </trkpt>
      <trkpt lat="42.70196" lon="0.66553">
        <ele>1839.6</ele>
        <time>2018-08-08T13:08:30.000Z</time>
      </trkpt>
      <trkpt lat="42.70196" lon="0.66553">
        <ele>1839.6</ele>
        <time>2018-08-08T13:08:31.000Z</time>
      </trkpt>
      <trkpt lat="42.70196" lon="0.66554">
        <ele>1839.6</ele>
        <time>2018-08-08T13:08:32.000Z</time>
      </trkpt>
      <trkpt lat="42.70196" lon="0.66554">
        <ele>1839.6</ele>
        <time>2018-08-08T13:08:33.000Z</time>
      </trkpt>
      <trkpt lat="42.70196" lon="0.66554">
        <ele>1839.6</ele>
        <time>2018-08-08T13:08:34.000Z</time>
      </trkpt>
      <trkpt lat="42.70195" lon="0.66554">
        <ele>1839.5</ele>
        <time>2018-08-08T13:08:35.000Z</time>
      </trkpt>
      <trkpt lat="42.70195" lon="0.66554">
        <ele>1839.6</ele>
        <time>2018-08-08T13:08:36.000Z</time>
      </trkpt>
      <trkpt lat="42.70195" lon="0.66555">
        <ele>1839.5</ele>
        <time>2018-08-08T13:08:37.000Z</time>
      </trkpt>
      <trkpt lat="42.70194" lon="0.66555">
        <ele>1839.6</ele>
        <time>2018-08-08T13:08:38.000Z</time>
      </trkpt>
      <trkpt lat="42.70194" lon="0.66555">
        <ele>1839.6</ele>
        <time>2018-08-08T13:08:39.000Z</time>
      </trkpt>
      <trkpt lat="42.70193" lon="0.66556">
        <ele>1839.6</ele>
        <time>2018-08-08T13:08:40.000Z</time>
      </trkpt>
      <trkpt lat="42.70193" lon="0.66556">
        <ele>1839.7</ele>
        <time>2018-08-08T13:08:41.000Z</time>
      </trkpt>
      <trkpt lat="42.70192" lon="0.66556">
        <ele>1839.8</ele>
        <time>2018-08-08T13:08:42.000Z</time>
      </trkpt>
      <trkpt lat="42.70191" lon="0.66557">
        <ele>1839.8</ele>
        <time>2018-08-08T13:08:43.000Z</time>
      </trkpt>
      <trkpt lat="42.70191" lon="0.66557">
        <ele>1839.9</ele>
        <time>2018-08-08T13:08:44.000Z</time>
      </trkpt>
      <trkpt lat="42.7019" lon="0.66557">
        <ele>1840</ele>
        <time>2018-08-08T13:08:45.000Z</time>
      </trkpt>
      <trkpt lat="42.70189" lon="0.66558">
        <ele>1840.1</ele>
        <time>2018-08-08T13:08:46.000Z</time>
      </trkpt>
      <trkpt lat="42.70189" lon="0.66558">
        <ele>1840.2</ele>
        <time>2018-08-08T13:08:47.000Z</time>
      </trkpt>
      <trkpt lat="42.70188" lon="0.66558">
        <ele>1840.3</ele>
        <time>2018-08-08T13:08:48.000Z</time>
      </trkpt>
      <trkpt lat="42.70187" lon="0.66559">
        <ele>1840.5</ele>
        <time>2018-08-08T13:08:49.000Z</time>
      </trkpt>
      <trkpt lat="42.70186" lon="0.66559">
        <ele>1840.6</ele>
        <time>2018-08-08T13:08:50.000Z</time>
      </trkpt>
      <trkpt lat="42.70185" lon="0.66559">
        <ele>1840.7</ele>
        <time>2018-08-08T13:08:51.000Z</time>
      </trkpt>
      <trkpt lat="42.70184" lon="0.66559">
        <ele>1840.9</ele>
        <time>2018-08-08T13:08:52.000Z</time>
      </trkpt>
      <trkpt lat="42.70184" lon="0.6656">
        <ele>1841.1</ele>
        <time>2018-08-08T13:08:53.000Z</time>
      </trkpt>
      <trkpt lat="42.70183" lon="0.6656">
        <ele>1841.3</ele>
        <time>2018-08-08T13:08:54.000Z</time>
      </trkpt>
      <trkpt lat="42.70182" lon="0.6656">
        <ele>1841.4</ele>
        <time>2018-08-08T13:08:55.000Z</time>
      </trkpt>
      <trkpt lat="42.70181" lon="0.6656">
        <ele>1841.6</ele>
        <time>2018-08-08T13:08:56.000Z</time>
      </trkpt>
      <trkpt lat="42.7018" lon="0.6656">
        <ele>1841.8</ele>
        <time>2018-08-08T13:08:57.000Z</time>
      </trkpt>
      <trkpt lat="42.70179" lon="0.6656">
        <ele>1842</ele>
        <time>2018-08-08T13:08:58.000Z</time>
      </trkpt>
      <trkpt lat="42.70178" lon="0.6656">
        <ele>1842.3</ele>
        <time>2018-08-08T13:08:59.000Z</time>
      </trkpt>
      <trkpt lat="42.70178" lon="0.6656">
        <ele>1842.5</ele>
        <time>2018-08-08T13:09:00.000Z</time>
      </trkpt>
      <trkpt lat="42.70177" lon="0.6656">
        <ele>1842.7</ele>
        <time>2018-08-08T13:09:01.000Z</time>
      </trkpt>
      <trkpt lat="42.70176" lon="0.6656">
        <ele>1843</ele>
        <time>2018-08-08T13:09:02.000Z</time>
      </trkpt>
      <trkpt lat="42.70175" lon="0.6656">
        <ele>1843.2</ele>
        <time>2018-08-08T13:09:03.000Z</time>
      </trkpt>
      <trkpt lat="42.70174" lon="0.6656">
        <ele>1843.5</ele>
        <time>2018-08-08T13:09:04.000Z</time>
      </trkpt>
      <trkpt lat="42.70173" lon="0.6656">
        <ele>1843.7</ele>
        <time>2018-08-08T13:09:05.000Z</time>
      </trkpt>
      <trkpt lat="42.70173" lon="0.6656">
        <ele>1844</ele>
        <time>2018-08-08T13:09:06.000Z</time>
      </trkpt>
      <trkpt lat="42.70172" lon="0.66559">
        <ele>1844.2</ele>
        <time>2018-08-08T13:09:07.000Z</time>
      </trkpt>
      <trkpt lat="42.70171" lon="0.66559">
        <ele>1844.5</ele>
        <time>2018-08-08T13:09:08.000Z</time>
      </trkpt>
      <trkpt lat="42.7017" lon="0.66559">
        <ele>1844.8</ele>
        <time>2018-08-08T13:09:09.000Z</time>
      </trkpt>
      <trkpt lat="42.7017" lon="0.66559">
        <ele>1845.1</ele>
        <time>2018-08-08T13:09:10.000Z</time>
      </trkpt>
      <trkpt lat="42.70169" lon="0.66558">
        <ele>1845.4</ele>
        <time>2018-08-08T13:09:11.000Z</time>
      </trkpt>
      <trkpt lat="42.70168" lon="0.66558">
        <ele>1845.7</ele>
        <time>2018-08-08T13:09:12.000Z</time>
      </trkpt>
      <trkpt lat="42.70167" lon="0.66558">
        <ele>1846</ele>
        <time>2018-08-08T13:09:13.000Z</time>
      </trkpt>
      <trkpt lat="42.70166" lon="0.66557">
        <ele>1846.4</ele>
        <time>2018-08-08T13:09:14.000Z</time>
      </trkpt>
      <trkpt lat="42.70166" lon="0.66557">
        <ele>1847</ele>
        <time>2018-08-08T13:09:15.000Z</time>
      </trkpt>
      <trkpt lat="42.70165" lon="0.66557">
        <ele>1847.6</ele>
        <time>2018-08-08T13:09:16.000Z</time>
      </trkpt>
      <trkpt lat="42.70164" lon="0.66556">
        <ele>1848.2</ele>
        <time>2018-08-08T13:09:17.000Z</time>
      </trkpt>
      <trkpt lat="42.70163" lon="0.66556">
        <ele>1848.9</ele>
        <time>2018-08-08T13:09:18.000Z</time>
      </trkpt>
      <trkpt lat="42.70162" lon="0.66556">
        <ele>1849.5</ele>
        <time>2018-08-08T13:09:19.000Z</time>
      </trkpt>
      <trkpt lat="42.70162" lon="0.66555">
        <ele>1850.1</ele>
        <time>2018-08-08T13:09:20.000Z</time>
      </trkpt>
      <trkpt lat="42.70161" lon="0.66555">
        <ele>1850.7</ele>
        <time>2018-08-08T13:09:21.000Z</time>
      </trkpt>
      <trkpt lat="42.7016" lon="0.66554">
        <ele>1851.3</ele>
        <time>2018-08-08T13:09:22.000Z</time>
      </trkpt>
      <trkpt lat="42.7016" lon="0.66554">
        <ele>1851.9</ele>
        <time>2018-08-08T13:09:23.000Z</time>
      </trkpt>
      <trkpt lat="42.70159" lon="0.66553">
        <ele>1852.6</ele>
        <time>2018-08-08T13:09:24.000Z</time>
      </trkpt>
      <trkpt lat="42.70158" lon="0.66552">
        <ele>1853.2</ele>
        <time>2018-08-08T13:09:25.000Z</time>
      </trkpt>
      <trkpt lat="42.70157" lon="0.66552">
        <ele>1853.8</ele>
        <time>2018-08-08T13:09:26.000Z</time>
      </trkpt>
      <trkpt lat="42.70156" lon="0.66551">
        <ele>1854.6</ele>
        <time>2018-08-08T13:09:27.000Z</time>
      </trkpt>
      <trkpt lat="42.70156" lon="0.6655">
        <ele>1855.3</ele>
        <time>2018-08-08T13:09:28.000Z</time>
      </trkpt>
      <trkpt lat="42.70155" lon="0.6655">
        <ele>1855.9</ele>
        <time>2018-08-08T13:09:29.000Z</time>
      </trkpt>
      <trkpt lat="42.70154" lon="0.66549">
        <ele>1856.6</ele>
        <time>2018-08-08T13:09:30.000Z</time>
      </trkpt>
      <trkpt lat="42.70153" lon="0.66548">
        <ele>1857.2</ele>
        <time>2018-08-08T13:09:31.000Z</time>
      </trkpt>
      <trkpt lat="42.70152" lon="0.66548">
        <ele>1857.8</ele>
        <time>2018-08-08T13:09:32.000Z</time>
      </trkpt>
      <trkpt lat="42.70152" lon="0.66547">
        <ele>1858.3</ele>
        <time>2018-08-08T13:09:33.000Z</time>
      </trkpt>
      <trkpt lat="42.70151" lon="0.66547">
        <ele>1858.9</ele>
        <time>2018-08-08T13:09:34.000Z</time>
      </trkpt>
      <trkpt lat="42.7015" lon="0.66547">
        <ele>1859.3</ele>
        <time>2018-08-08T13:09:35.000Z</time>
      </trkpt>
      <trkpt lat="42.7015" lon="0.66546">
        <ele>1859.8</ele>
        <time>2018-08-08T13:09:36.000Z</time>
      </trkpt>
      <trkpt lat="42.70149" lon="0.66546">
        <ele>1860.2</ele>
        <time>2018-08-08T13:09:37.000Z</time>
      </trkpt>
      <trkpt lat="42.70149" lon="0.66546">
        <ele>1860.6</ele>
        <time>2018-08-08T13:09:38.000Z</time>
      </trkpt>
      <trkpt lat="42.70148" lon="0.66546">
        <ele>1860.9</ele>
        <time>2018-08-08T13:09:39.000Z</time>
      </trkpt>
      <trkpt lat="42.70148" lon="0.66545">
        <ele>1861.2</ele>
        <time>2018-08-08T13:09:40.000Z</time>
      </trkpt>
      <trkpt lat="42.70147" lon="0.66545">
        <ele>1861.6</ele>
        <time>2018-08-08T13:09:41.000Z</time>
      </trkpt>
      <trkpt lat="42.70147" lon="0.66545">
        <ele>1861.9</ele>
        <time>2018-08-08T13:09:42.000Z</time>
      </trkpt>
      <trkpt lat="42.70146" lon="0.66545">
        <ele>1862.2</ele>
        <time>2018-08-08T13:09:43.000Z</time>
      </trkpt>
      <trkpt lat="42.70146" lon="0.66545">
        <ele>1862.4</ele>
        <time>2018-08-08T13:09:44.000Z</time>
      </trkpt>
      <trkpt lat="42.70146" lon="0.66545">
        <ele>1862.7</ele>
        <time>2018-08-08T13:09:45.000Z</time>
      </trkpt>
      <trkpt lat="42.70145" lon="0.66545">
        <ele>1863</ele>
        <time>2018-08-08T13:09:46.000Z</time>
      </trkpt>
      <trkpt lat="42.70145" lon="0.66545">
        <ele>1863.3</ele>
        <time>2018-08-08T13:09:47.000Z</time>
      </trkpt>
      <trkpt lat="42.70144" lon="0.66545">
        <ele>1863.6</ele>
        <time>2018-08-08T13:09:48.000Z</time>
      </trkpt>
      <trkpt lat="42.70144" lon="0.66544">
        <ele>1863.9</ele>
        <time>2018-08-08T13:09:49.000Z</time>
      </trkpt>
      <trkpt lat="42.70143" lon="0.66544">
        <ele>1864.2</ele>
        <time>2018-08-08T13:09:50.000Z</time>
      </trkpt>
      <trkpt lat="42.70143" lon="0.66544">
        <ele>1864.5</ele>
        <time>2018-08-08T13:09:51.000Z</time>
      </trkpt>
      <trkpt lat="42.70142" lon="0.66544">
        <ele>1864.8</ele>
        <time>2018-08-08T13:09:52.000Z</time>
      </trkpt>
      <trkpt lat="42.70142" lon="0.66544">
        <ele>1865.1</ele>
        <time>2018-08-08T13:09:53.000Z</time>
      </trkpt>
      <trkpt lat="42.70141" lon="0.66544">
        <ele>1865.5</ele>
        <time>2018-08-08T13:09:54.000Z</time>
      </trkpt>
      <trkpt lat="42.70141" lon="0.66544">
        <ele>1865.8</ele>
        <time>2018-08-08T13:09:55.000Z</time>
      </trkpt>
      <trkpt lat="42.7014" lon="0.66543">
        <ele>1866.1</ele>
        <time>2018-08-08T13:09:56.000Z</time>
      </trkpt>
      <trkpt lat="42.7014" lon="0.66543">
        <ele>1866.5</ele>
        <time>2018-08-08T13:09:57.000Z</time>
      </trkpt>
      <trkpt lat="42.70139" lon="0.66543">
        <ele>1866.8</ele>
        <time>2018-08-08T13:09:58.000Z</time>
      </trkpt>
      <trkpt lat="42.70139" lon="0.66543">
        <ele>1867.2</ele>
        <time>2018-08-08T13:09:59.000Z</time>
      </trkpt>
      <trkpt lat="42.70138" lon="0.66543">
        <ele>1867.5</ele>
        <time>2018-08-08T13:10:00.000Z</time>
      </trkpt>
      <trkpt lat="42.70138" lon="0.66543">
        <ele>1867.9</ele>
        <time>2018-08-08T13:10:01.000Z</time>
      </trkpt>
      <trkpt lat="42.70137" lon="0.66543">
        <ele>1868.2</ele>
        <time>2018-08-08T13:10:02.000Z</time>
      </trkpt>
      <trkpt lat="42.70136" lon="0.66543">
        <ele>1868.7</ele>
        <time>2018-08-08T13:10:03.000Z</time>
      </trkpt>
      <trkpt lat="42.70136" lon="0.66543">
        <ele>1869</ele>
        <time>2018-08-08T13:10:04.000Z</time>
      </trkpt>
      <trkpt lat="42.70135" lon="0.66543">
        <ele>1869.5</ele>
        <time>2018-08-08T13:10:05.000Z</time>
      </trkpt>
      <trkpt lat="42.70135" lon="0.66543">
        <ele>1869.8</ele>
        <time>2018-08-08T13:10:06.000Z</time>
      </trkpt>
      <trkpt lat="42.70134" lon="0.66543">
        <ele>1870.3</ele>
        <time>2018-08-08T13:10:07.000Z</time>
      </trkpt>
      <trkpt lat="42.70133" lon="0.66543">
        <ele>1870.6</ele>
        <time>2018-08-08T13:10:08.000Z</time>
      </trkpt>
      <trkpt lat="42.70133" lon="0.66543">
        <ele>1871</ele>
        <time>2018-08-08T13:10:09.000Z</time>
      </trkpt>
      <trkpt lat="42.70132" lon="0.66542">
        <ele>1871.5</ele>
        <time>2018-08-08T13:10:10.000Z</time>
      </trkpt>
      <trkpt lat="42.70131" lon="0.66542">
        <ele>1871.8</ele>
        <time>2018-08-08T13:10:11.000Z</time>
      </trkpt>
      <trkpt lat="42.70131" lon="0.66542">
        <ele>1872.2</ele>
        <time>2018-08-08T13:10:12.000Z</time>
      </trkpt>
      <trkpt lat="42.7013" lon="0.66542">
        <ele>1872.6</ele>
        <time>2018-08-08T13:10:13.000Z</time>
      </trkpt>
      <trkpt lat="42.7013" lon="0.66542">
        <ele>1872.9</ele>
        <time>2018-08-08T13:10:14.000Z</time>
      </trkpt>
      <trkpt lat="42.70129" lon="0.66541">
        <ele>1873.3</ele>
        <time>2018-08-08T13:10:15.000Z</time>
      </trkpt>
      <trkpt lat="42.70129" lon="0.66541">
        <ele>1873.6</ele>
        <time>2018-08-08T13:10:16.000Z</time>
      </trkpt>
      <trkpt lat="42.70129" lon="0.6654">
        <ele>1873.8</ele>
        <time>2018-08-08T13:10:17.000Z</time>
      </trkpt>
      <trkpt lat="42.70128" lon="0.6654">
        <ele>1874.1</ele>
        <time>2018-08-08T13:10:18.000Z</time>
      </trkpt>
      <trkpt lat="42.70128" lon="0.66539">
        <ele>1874.3</ele>
        <time>2018-08-08T13:10:19.000Z</time>
      </trkpt>
      <trkpt lat="42.70128" lon="0.66539">
        <ele>1874.4</ele>
        <time>2018-08-08T13:10:20.000Z</time>
      </trkpt>
      <trkpt lat="42.70128" lon="0.66539">
        <ele>1874.4</ele>
        <time>2018-08-08T13:10:21.000Z</time>
      </trkpt>
      <trkpt lat="42.70128" lon="0.66538">
        <ele>1874.4</ele>
        <time>2018-08-08T13:10:22.000Z</time>
      </trkpt>
      <trkpt lat="42.70128" lon="0.66538">
        <ele>1874.3</ele>
        <time>2018-08-08T13:10:23.000Z</time>
      </trkpt>
      <trkpt lat="42.70128" lon="0.66538">
        <ele>1874.1</ele>
        <time>2018-08-08T13:10:24.000Z</time>
      </trkpt>
      <trkpt lat="42.70129" lon="0.66538">
        <ele>1873.9</ele>
        <time>2018-08-08T13:10:25.000Z</time>
      </trkpt>
      <trkpt lat="42.70129" lon="0.66538">
        <ele>1873.8</ele>
        <time>2018-08-08T13:10:26.000Z</time>
      </trkpt>
      <trkpt lat="42.7013" lon="0.66537">
        <ele>1873.6</ele>
        <time>2018-08-08T13:10:27.000Z</time>
      </trkpt>
      <trkpt lat="42.7013" lon="0.66536">
        <ele>1873.5</ele>
        <time>2018-08-08T13:10:28.000Z</time>
      </trkpt>
      <trkpt lat="42.70131" lon="0.66535">
        <ele>1873.3</ele>
        <time>2018-08-08T13:10:29.000Z</time>
      </trkpt>
      <trkpt lat="42.70131" lon="0.66534">
        <ele>1873.1</ele>
        <time>2018-08-08T13:10:30.000Z</time>
      </trkpt>
      <trkpt lat="42.70132" lon="0.66533">
        <ele>1872.8</ele>
        <time>2018-08-08T13:10:31.000Z</time>
      </trkpt>
      <trkpt lat="42.70133" lon="0.66533">
        <ele>1872.4</ele>
        <time>2018-08-08T13:10:32.000Z</time>
      </trkpt>
      <trkpt lat="42.70133" lon="0.66532">
        <ele>1872.1</ele>
        <time>2018-08-08T13:10:33.000Z</time>
      </trkpt>
      <trkpt lat="42.70134" lon="0.66532">
        <ele>1871.7</ele>
        <time>2018-08-08T13:10:34.000Z</time>
      </trkpt>
      <trkpt lat="42.70135" lon="0.66531">
        <ele>1871.3</ele>
        <time>2018-08-08T13:10:35.000Z</time>
      </trkpt>
      <trkpt lat="42.70136" lon="0.66531">
        <ele>1871</ele>
        <time>2018-08-08T13:10:36.000Z</time>
      </trkpt>
      <trkpt lat="42.70136" lon="0.6653">
        <ele>1870.6</ele>
        <time>2018-08-08T13:10:37.000Z</time>
      </trkpt>
      <trkpt lat="42.70137" lon="0.6653">
        <ele>1870.4</ele>
        <time>2018-08-08T13:10:38.000Z</time>
      </trkpt>
      <trkpt lat="42.70138" lon="0.66529">
        <ele>1870.2</ele>
        <time>2018-08-08T13:10:39.000Z</time>
      </trkpt>
      <trkpt lat="42.70138" lon="0.66529">
        <ele>1870</ele>
        <time>2018-08-08T13:10:40.000Z</time>
      </trkpt>
      <trkpt lat="42.70139" lon="0.66528">
        <ele>1869.8</ele>
        <time>2018-08-08T13:10:41.000Z</time>
      </trkpt>
      <trkpt lat="42.70139" lon="0.66528">
        <ele>1869.6</ele>
        <time>2018-08-08T13:10:42.000Z</time>
      </trkpt>
      <trkpt lat="42.7014" lon="0.66527">
        <ele>1869.5</ele>
        <time>2018-08-08T13:10:43.000Z</time>
      </trkpt>
      <trkpt lat="42.7014" lon="0.66526">
        <ele>1869.3</ele>
        <time>2018-08-08T13:10:44.000Z</time>
      </trkpt>
      <trkpt lat="42.70141" lon="0.66526">
        <ele>1869</ele>
        <time>2018-08-08T13:10:45.000Z</time>
      </trkpt>
      <trkpt lat="42.70141" lon="0.66525">
        <ele>1868.8</ele>
        <time>2018-08-08T13:10:46.000Z</time>
      </trkpt>
      <trkpt lat="42.70142" lon="0.66524">
        <ele>1868.4</ele>
        <time>2018-08-08T13:10:47.000Z</time>
      </trkpt>
      <trkpt lat="42.70143" lon="0.66524">
        <ele>1868.2</ele>
        <time>2018-08-08T13:10:48.000Z</time>
      </trkpt>
      <trkpt lat="42.70144" lon="0.66523">
        <ele>1867.8</ele>
        <time>2018-08-08T13:10:49.000Z</time>
      </trkpt>
      <trkpt lat="42.70145" lon="0.66522">
        <ele>1867.5</ele>
        <time>2018-08-08T13:10:50.000Z</time>
      </trkpt>
      <trkpt lat="42.70146" lon="0.66522">
        <ele>1867.2</ele>
        <time>2018-08-08T13:10:51.000Z</time>
      </trkpt>
      <trkpt lat="42.70146" lon="0.66521">
        <ele>1866.8</ele>
        <time>2018-08-08T13:10:52.000Z</time>
      </trkpt>
      <trkpt lat="42.70147" lon="0.6652">
        <ele>1866.5</ele>
        <time>2018-08-08T13:10:53.000Z</time>
      </trkpt>
      <trkpt lat="42.70148" lon="0.6652">
        <ele>1866.2</ele>
        <time>2018-08-08T13:10:54.000Z</time>
      </trkpt>
      <trkpt lat="42.70149" lon="0.66519">
        <ele>1865.8</ele>
        <time>2018-08-08T13:10:55.000Z</time>
      </trkpt>
      <trkpt lat="42.7015" lon="0.66519">
        <ele>1865.5</ele>
        <time>2018-08-08T13:10:56.000Z</time>
      </trkpt>
      <trkpt lat="42.70151" lon="0.66518">
        <ele>1865.2</ele>
        <time>2018-08-08T13:10:57.000Z</time>
      </trkpt>
      <trkpt lat="42.70152" lon="0.66517">
        <ele>1864.9</ele>
        <time>2018-08-08T13:10:58.000Z</time>
      </trkpt>
      <trkpt lat="42.70153" lon="0.66517">
        <ele>1864.6</ele>
        <time>2018-08-08T13:10:59.000Z</time>
      </trkpt>
      <trkpt lat="42.70153" lon="0.66516">
        <ele>1864.3</ele>
        <time>2018-08-08T13:11:00.000Z</time>
      </trkpt>
      <trkpt lat="42.70154" lon="0.66515">
        <ele>1864.1</ele>
        <time>2018-08-08T13:11:01.000Z</time>
      </trkpt>
      <trkpt lat="42.70155" lon="0.66515">
        <ele>1863.8</ele>
        <time>2018-08-08T13:11:02.000Z</time>
      </trkpt>
      <trkpt lat="42.70156" lon="0.66514">
        <ele>1863.6</ele>
        <time>2018-08-08T13:11:03.000Z</time>
      </trkpt>
      <trkpt lat="42.70156" lon="0.66514">
        <ele>1863.4</ele>
        <time>2018-08-08T13:11:04.000Z</time>
      </trkpt>
      <trkpt lat="42.70157" lon="0.66513">
        <ele>1863.2</ele>
        <time>2018-08-08T13:11:05.000Z</time>
      </trkpt>
      <trkpt lat="42.70158" lon="0.66513">
        <ele>1863.1</ele>
        <time>2018-08-08T13:11:06.000Z</time>
      </trkpt>
      <trkpt lat="42.70158" lon="0.66512">
        <ele>1862.9</ele>
        <time>2018-08-08T13:11:07.000Z</time>
      </trkpt>
      <trkpt lat="42.70159" lon="0.66511">
        <ele>1862.7</ele>
        <time>2018-08-08T13:11:08.000Z</time>
      </trkpt>
      <trkpt lat="42.70159" lon="0.66511">
        <ele>1862.6</ele>
        <time>2018-08-08T13:11:09.000Z</time>
      </trkpt>
      <trkpt lat="42.7016" lon="0.6651">
        <ele>1862.4</ele>
        <time>2018-08-08T13:11:10.000Z</time>
      </trkpt>
      <trkpt lat="42.7016" lon="0.6651">
        <ele>1862.3</ele>
        <time>2018-08-08T13:11:11.000Z</time>
      </trkpt>
      <trkpt lat="42.70161" lon="0.66509">
        <ele>1862.2</ele>
        <time>2018-08-08T13:11:12.000Z</time>
      </trkpt>
      <trkpt lat="42.70161" lon="0.66509">
        <ele>1862.1</ele>
        <time>2018-08-08T13:11:13.000Z</time>
      </trkpt>
      <trkpt lat="42.70162" lon="0.66508">
        <ele>1862</ele>
        <time>2018-08-08T13:11:14.000Z</time>
      </trkpt>
      <trkpt lat="42.70162" lon="0.66508">
        <ele>1861.9</ele>
        <time>2018-08-08T13:11:15.000Z</time>
      </trkpt>
      <trkpt lat="42.70163" lon="0.66507">
        <ele>1861.9</ele>
        <time>2018-08-08T13:11:16.000Z</time>
      </trkpt>
      <trkpt lat="42.70163" lon="0.66507">
        <ele>1861.8</ele>
        <time>2018-08-08T13:11:17.000Z</time>
      </trkpt>
      <trkpt lat="42.70164" lon="0.66506">
        <ele>1861.8</ele>
        <time>2018-08-08T13:11:18.000Z</time>
      </trkpt>
      <trkpt lat="42.70164" lon="0.66505">
        <ele>1861.7</ele>
        <time>2018-08-08T13:11:19.000Z</time>
      </trkpt>
      <trkpt lat="42.70165" lon="0.66505">
        <ele>1861.6</ele>
        <time>2018-08-08T13:11:20.000Z</time>
      </trkpt>
      <trkpt lat="42.70165" lon="0.66504">
        <ele>1861.6</ele>
        <time>2018-08-08T13:11:21.000Z</time>
      </trkpt>
      <trkpt lat="42.70165" lon="0.66504">
        <ele>1861.6</ele>
        <time>2018-08-08T13:11:22.000Z</time>
      </trkpt>
      <trkpt lat="42.70166" lon="0.66503">
        <ele>1861.5</ele>
        <time>2018-08-08T13:11:23.000Z</time>
      </trkpt>
      <trkpt lat="42.70166" lon="0.66503">
        <ele>1861.5</ele>
        <time>2018-08-08T13:11:24.000Z</time>
      </trkpt>
      <trkpt lat="42.70167" lon="0.66502">
        <ele>1861.5</ele>
        <time>2018-08-08T13:11:25.000Z</time>
      </trkpt>
      <trkpt lat="42.70167" lon="0.66502">
        <ele>1861.5</ele>
        <time>2018-08-08T13:11:26.000Z</time>
      </trkpt>
      <trkpt lat="42.70167" lon="0.66501">
        <ele>1861.6</ele>
        <time>2018-08-08T13:11:27.000Z</time>
      </trkpt>
      <trkpt lat="42.70168" lon="0.66501">
        <ele>1861.6</ele>
        <time>2018-08-08T13:11:28.000Z</time>
      </trkpt>
      <trkpt lat="42.70168" lon="0.665">
        <ele>1861.7</ele>
        <time>2018-08-08T13:11:29.000Z</time>
      </trkpt>
      <trkpt lat="42.70168" lon="0.665">
        <ele>1861.8</ele>
        <time>2018-08-08T13:11:30.000Z</time>
      </trkpt>
      <trkpt lat="42.70168" lon="0.66499">
        <ele>1861.9</ele>
        <time>2018-08-08T13:11:31.000Z</time>
      </trkpt>
      <trkpt lat="42.70168" lon="0.66499">
        <ele>1862</ele>
        <time>2018-08-08T13:11:32.000Z</time>
      </trkpt>
      <trkpt lat="42.70168" lon="0.66499">
        <ele>1862.2</ele>
        <time>2018-08-08T13:11:33.000Z</time>
      </trkpt>
      <trkpt lat="42.70168" lon="0.66499">
        <ele>1862.2</ele>
        <time>2018-08-08T13:11:34.000Z</time>
      </trkpt>
      <trkpt lat="42.70168" lon="0.66499">
        <ele>1862.3</ele>
        <time>2018-08-08T13:11:35.000Z</time>
      </trkpt>
      <trkpt lat="42.70167" lon="0.66499">
        <ele>1862.3</ele>
        <time>2018-08-08T13:11:36.000Z</time>
      </trkpt>
      <trkpt lat="42.70167" lon="0.66499">
        <ele>1862.3</ele>
        <time>2018-08-08T13:11:37.000Z</time>
      </trkpt>
      <trkpt lat="42.70166" lon="0.665">
        <ele>1862.5</ele>
        <time>2018-08-08T13:11:38.000Z</time>
      </trkpt>
      <trkpt lat="42.70165" lon="0.665">
        <ele>1862.7</ele>
        <time>2018-08-08T13:11:39.000Z</time>
      </trkpt>
      <trkpt lat="42.70164" lon="0.665">
        <ele>1862.9</ele>
        <time>2018-08-08T13:11:40.000Z</time>
      </trkpt>
      <trkpt lat="42.70164" lon="0.66501">
        <ele>1863.2</ele>
        <time>2018-08-08T13:11:41.000Z</time>
      </trkpt>
      <trkpt lat="42.70163" lon="0.66501">
        <ele>1863.5</ele>
        <time>2018-08-08T13:11:42.000Z</time>
      </trkpt>
      <trkpt lat="42.70162" lon="0.66501">
        <ele>1863.8</ele>
        <time>2018-08-08T13:11:43.000Z</time>
      </trkpt>
      <trkpt lat="42.70161" lon="0.66502">
        <ele>1864.1</ele>
        <time>2018-08-08T13:11:44.000Z</time>
      </trkpt>
      <trkpt lat="42.7016" lon="0.66502">
        <ele>1864.4</ele>
        <time>2018-08-08T13:11:45.000Z</time>
      </trkpt>
      <trkpt lat="42.70159" lon="0.66502">
        <ele>1864.8</ele>
        <time>2018-08-08T13:11:46.000Z</time>
      </trkpt>
      <trkpt lat="42.70159" lon="0.66502">
        <ele>1865.1</ele>
        <time>2018-08-08T13:11:47.000Z</time>
      </trkpt>
      <trkpt lat="42.70158" lon="0.66502">
        <ele>1865.4</ele>
        <time>2018-08-08T13:11:48.000Z</time>
      </trkpt>
      <trkpt lat="42.70157" lon="0.66502">
        <ele>1865.8</ele>
        <time>2018-08-08T13:11:49.000Z</time>
      </trkpt>
      <trkpt lat="42.70157" lon="0.66502">
        <ele>1866.1</ele>
        <time>2018-08-08T13:11:50.000Z</time>
      </trkpt>
      <trkpt lat="42.70156" lon="0.66501">
        <ele>1866.4</ele>
        <time>2018-08-08T13:11:51.000Z</time>
      </trkpt>
      <trkpt lat="42.70155" lon="0.66501">
        <ele>1866.8</ele>
        <time>2018-08-08T13:11:52.000Z</time>
      </trkpt>
      <trkpt lat="42.70155" lon="0.66501">
        <ele>1867.1</ele>
        <time>2018-08-08T13:11:53.000Z</time>
      </trkpt>
      <trkpt lat="42.70154" lon="0.66501">
        <ele>1867.5</ele>
        <time>2018-08-08T13:11:54.000Z</time>
      </trkpt>
      <trkpt lat="42.70153" lon="0.66501">
        <ele>1867.8</ele>
        <time>2018-08-08T13:11:55.000Z</time>
      </trkpt>
      <trkpt lat="42.70153" lon="0.665">
        <ele>1868.2</ele>
        <time>2018-08-08T13:11:56.000Z</time>
      </trkpt>
      <trkpt lat="42.70152" lon="0.665">
        <ele>1868.5</ele>
        <time>2018-08-08T13:11:57.000Z</time>
      </trkpt>
      <trkpt lat="42.70151" lon="0.665">
        <ele>1869</ele>
        <time>2018-08-08T13:11:58.000Z</time>
      </trkpt>
      <trkpt lat="42.7015" lon="0.665">
        <ele>1869.3</ele>
        <time>2018-08-08T13:11:59.000Z</time>
      </trkpt>
      <trkpt lat="42.7015" lon="0.665">
        <ele>1869.8</ele>
        <time>2018-08-08T13:12:00.000Z</time>
      </trkpt>
      <trkpt lat="42.70149" lon="0.66499">
        <ele>1870.2</ele>
        <time>2018-08-08T13:12:01.000Z</time>
      </trkpt>
      <trkpt lat="42.70148" lon="0.66499">
        <ele>1870.6</ele>
        <time>2018-08-08T13:12:02.000Z</time>
      </trkpt>
      <trkpt lat="42.70147" lon="0.66499">
        <ele>1871</ele>
        <time>2018-08-08T13:12:03.000Z</time>
      </trkpt>
      <trkpt lat="42.70146" lon="0.66499">
        <ele>1871.5</ele>
        <time>2018-08-08T13:12:04.000Z</time>
      </trkpt>
      <trkpt lat="42.70146" lon="0.66499">
        <ele>1871.9</ele>
        <time>2018-08-08T13:12:05.000Z</time>
      </trkpt>
      <trkpt lat="42.70145" lon="0.66499">
        <ele>1872.3</ele>
        <time>2018-08-08T13:12:06.000Z</time>
      </trkpt>
      <trkpt lat="42.70144" lon="0.66498">
        <ele>1872.7</ele>
        <time>2018-08-08T13:12:07.000Z</time>
      </trkpt>
      <trkpt lat="42.70143" lon="0.66498">
        <ele>1873.1</ele>
        <time>2018-08-08T13:12:08.000Z</time>
      </trkpt>
      <trkpt lat="42.70142" lon="0.66498">
        <ele>1873.5</ele>
        <time>2018-08-08T13:12:09.000Z</time>
      </trkpt>
      <trkpt lat="42.70142" lon="0.66498">
        <ele>1873.9</ele>
        <time>2018-08-08T13:12:10.000Z</time>
      </trkpt>
      <trkpt lat="42.70141" lon="0.66498">
        <ele>1874.3</ele>
        <time>2018-08-08T13:12:11.000Z</time>
      </trkpt>
      <trkpt lat="42.7014" lon="0.66498">
        <ele>1874.6</ele>
        <time>2018-08-08T13:12:12.000Z</time>
      </trkpt>
      <trkpt lat="42.70139" lon="0.66498">
        <ele>1875</ele>
        <time>2018-08-08T13:12:13.000Z</time>
      </trkpt>
      <trkpt lat="42.70139" lon="0.66498">
        <ele>1875.3</ele>
        <time>2018-08-08T13:12:14.000Z</time>
      </trkpt>
      <trkpt lat="42.70138" lon="0.66498">
        <ele>1875.7</ele>
        <time>2018-08-08T13:12:15.000Z</time>
      </trkpt>
      <trkpt lat="42.70137" lon="0.66498">
        <ele>1876</ele>
        <time>2018-08-08T13:12:16.000Z</time>
      </trkpt>
      <trkpt lat="42.70136" lon="0.66497">
        <ele>1876.4</ele>
        <time>2018-08-08T13:12:17.000Z</time>
      </trkpt>
      <trkpt lat="42.70136" lon="0.66497">
        <ele>1876.7</ele>
        <time>2018-08-08T13:12:18.000Z</time>
      </trkpt>
      <trkpt lat="42.70135" lon="0.66497">
        <ele>1877</ele>
        <time>2018-08-08T13:12:19.000Z</time>
      </trkpt>
      <trkpt lat="42.70135" lon="0.66497">
        <ele>1877.3</ele>
        <time>2018-08-08T13:12:20.000Z</time>
      </trkpt>
      <trkpt lat="42.70134" lon="0.66497">
        <ele>1877.5</ele>
        <time>2018-08-08T13:12:21.000Z</time>
      </trkpt>
      <trkpt lat="42.70133" lon="0.66497">
        <ele>1877.8</ele>
        <time>2018-08-08T13:12:22.000Z</time>
      </trkpt>
      <trkpt lat="42.70133" lon="0.66497">
        <ele>1878</ele>
        <time>2018-08-08T13:12:23.000Z</time>
      </trkpt>
      <trkpt lat="42.70132" lon="0.66497">
        <ele>1878.3</ele>
        <time>2018-08-08T13:12:24.000Z</time>
      </trkpt>
      <trkpt lat="42.70132" lon="0.66497">
        <ele>1878.5</ele>
        <time>2018-08-08T13:12:25.000Z</time>
      </trkpt>
      <trkpt lat="42.70132" lon="0.66497">
        <ele>1878.7</ele>
        <time>2018-08-08T13:12:26.000Z</time>
      </trkpt>
      <trkpt lat="42.70131" lon="0.66497">
        <ele>1878.8</ele>
        <time>2018-08-08T13:12:27.000Z</time>
      </trkpt>
      <trkpt lat="42.70131" lon="0.66497">
        <ele>1879</ele>
        <time>2018-08-08T13:12:28.000Z</time>
      </trkpt>
      <trkpt lat="42.70131" lon="0.66497">
        <ele>1879.1</ele>
        <time>2018-08-08T13:12:29.000Z</time>
      </trkpt>
      <trkpt lat="42.7013" lon="0.66497">
        <ele>1879.3</ele>
        <time>2018-08-08T13:12:30.000Z</time>
      </trkpt>
      <trkpt lat="42.7013" lon="0.66497">
        <ele>1879.4</ele>
        <time>2018-08-08T13:12:31.000Z</time>
      </trkpt>
      <trkpt lat="42.7013" lon="0.66497">
        <ele>1879.5</ele>
        <time>2018-08-08T13:12:32.000Z</time>
      </trkpt>
      <trkpt lat="42.7013" lon="0.66497">
        <ele>1879.6</ele>
        <time>2018-08-08T13:12:33.000Z</time>
      </trkpt>
      <trkpt lat="42.7013" lon="0.66497">
        <ele>1879.7</ele>
        <time>2018-08-08T13:12:34.000Z</time>
      </trkpt>
      <trkpt lat="42.70129" lon="0.66497">
        <ele>1879.7</ele>
        <time>2018-08-08T13:12:35.000Z</time>
      </trkpt>
      <trkpt lat="42.70129" lon="0.66497">
        <ele>1879.8</ele>
        <time>2018-08-08T13:12:36.000Z</time>
      </trkpt>
      <trkpt lat="42.70129" lon="0.66497">
        <ele>1879.8</ele>
        <time>2018-08-08T13:12:37.000Z</time>
      </trkpt>
      <trkpt lat="42.70129" lon="0.66497">
        <ele>1879.9</ele>
        <time>2018-08-08T13:12:38.000Z</time>
      </trkpt>
      <trkpt lat="42.70129" lon="0.66497">
        <ele>1879.9</ele>
        <time>2018-08-08T13:12:39.000Z</time>
      </trkpt>
      <trkpt lat="42.70129" lon="0.66497">
        <ele>1880</ele>
        <time>2018-08-08T13:12:40.000Z</time>
      </trkpt>
      <trkpt lat="42.70129" lon="0.66497">
        <ele>1880</ele>
        <time>2018-08-08T13:12:41.000Z</time>
      </trkpt>
      <trkpt lat="42.70129" lon="0.66497">
        <ele>1880</ele>
        <time>2018-08-08T13:12:42.000Z</time>
      </trkpt>
      <trkpt lat="42.70129" lon="0.66497">
        <ele>1880</ele>
        <time>2018-08-08T13:12:43.000Z</time>
      </trkpt>
      <trkpt lat="42.70129" lon="0.66497">
        <ele>1880</ele>
        <time>2018-08-08T13:12:44.000Z</time>
      </trkpt>
      <trkpt lat="42.70129" lon="0.66497">
        <ele>1880</ele>
        <time>2018-08-08T13:12:45.000Z</time>
      </trkpt>
      <trkpt lat="42.70129" lon="0.66497">
        <ele>1880</ele>
        <time>2018-08-08T13:12:46.000Z</time>
      </trkpt>
      <trkpt lat="42.70129" lon="0.66497">
        <ele>1880</ele>
        <time>2018-08-08T13:12:47.000Z</time>
      </trkpt>
      <trkpt lat="42.70129" lon="0.66496">
        <ele>1880</ele>
        <time>2018-08-08T13:12:48.000Z</time>
      </trkpt>
      <trkpt lat="42.70129" lon="0.66496">
        <ele>1880</ele>
        <time>2018-08-08T13:12:49.000Z</time>
      </trkpt>
      <trkpt lat="42.70129" lon="0.66496">
        <ele>1880</ele>
        <time>2018-08-08T13:12:50.000Z</time>
      </trkpt>
      <trkpt lat="42.70129" lon="0.66496">
        <ele>1880</ele>
        <time>2018-08-08T13:12:51.000Z</time>
      </trkpt>
      <trkpt lat="42.70129" lon="0.66496">
        <ele>1880</ele>
        <time>2018-08-08T13:12:52.000Z</time>
      </trkpt>
      <trkpt lat="42.70129" lon="0.66496">
        <ele>1880</ele>
        <time>2018-08-08T13:12:53.000Z</time>
      </trkpt>
      <trkpt lat="42.70129" lon="0.66496">
        <ele>1880</ele>
        <time>2018-08-08T13:12:54.000Z</time>
      </trkpt>
      <trkpt lat="42.70129" lon="0.66496">
        <ele>1880</ele>
        <time>2018-08-08T13:12:55.000Z</time>
      </trkpt>
      <trkpt lat="42.70129" lon="0.66496">
        <ele>1880</ele>
        <time>2018-08-08T13:12:56.000Z</time>
      </trkpt>
      <trkpt lat="42.70129" lon="0.66496">
        <ele>1880</ele>
        <time>2018-08-08T13:12:57.000Z</time>
      </trkpt>
      <trkpt lat="42.70129" lon="0.66496">
        <ele>1880</ele>
        <time>2018-08-08T13:12:58.000Z</time>
      </trkpt>
      <trkpt lat="42.70129" lon="0.66496">
        <ele>1880</ele>
        <time>2018-08-08T13:12:59.000Z</time>
      </trkpt>
      <trkpt lat="42.70129" lon="0.66496">
        <ele>1880</ele>
        <time>2018-08-08T13:13:00.000Z</time>
      </trkpt>
      <trkpt lat="42.70129" lon="0.66496">
        <ele>1880</ele>
        <time>2018-08-08T13:13:01.000Z</time>
      </trkpt>
      <trkpt lat="42.70129" lon="0.66496">
        <ele>1880</ele>
        <time>2018-08-08T13:13:02.000Z</time>
      </trkpt>
      <trkpt lat="42.70129" lon="0.66496">
        <ele>1880</ele>
        <time>2018-08-08T13:13:03.000Z</time>
      </trkpt>
      <trkpt lat="42.70129" lon="0.66496">
        <ele>1880</ele>
        <time>2018-08-08T13:13:04.000Z</time>
      </trkpt>
      <trkpt lat="42.70129" lon="0.66496">
        <ele>1880</ele>
        <time>2018-08-08T13:13:05.000Z</time>
      </trkpt>
      <trkpt lat="42.70129" lon="0.66496">
        <ele>1880</ele>
        <time>2018-08-08T13:13:06.000Z</time>
      </trkpt>
      <trkpt lat="42.70129" lon="0.66496">
        <ele>1880</ele>
        <time>2018-08-08T13:13:07.000Z</time>
      </trkpt>
      <trkpt lat="42.70129" lon="0.66496">
        <ele>1880</ele>
        <time>2018-08-08T13:13:08.000Z</time>
      </trkpt>
      <trkpt lat="42.70129" lon="0.66496">
        <ele>1880</ele>
        <time>2018-08-08T13:13:09.000Z</time>
      </trkpt>
      <trkpt lat="42.70129" lon="0.66496">
        <ele>1880</ele>
        <time>2018-08-08T13:13:10.000Z</time>
      </trkpt>
      <trkpt lat="42.70129" lon="0.66496">
        <ele>1880.1</ele>
        <time>2018-08-08T13:13:11.000Z</time>
      </trkpt>
      <trkpt lat="42.70129" lon="0.66496">
        <ele>1880.1</ele>
        <time>2018-08-08T13:13:12.000Z</time>
      </trkpt>
      <trkpt lat="42.70129" lon="0.66496">
        <ele>1880.1</ele>
        <time>2018-08-08T13:13:13.000Z</time>
      </trkpt>
      <trkpt lat="42.70129" lon="0.66496">
        <ele>1880.1</ele>
        <time>2018-08-08T13:13:14.000Z</time>
      </trkpt>
      <trkpt lat="42.70129" lon="0.66496">
        <ele>1880.2</ele>
        <time>2018-08-08T13:13:15.000Z</time>
      </trkpt>
      <trkpt lat="42.70129" lon="0.66496">
        <ele>1880.2</ele>
        <time>2018-08-08T13:13:16.000Z</time>
      </trkpt>
      <trkpt lat="42.70129" lon="0.66496">
        <ele>1880.2</ele>
        <time>2018-08-08T13:13:17.000Z</time>
      </trkpt>
      <trkpt lat="42.70129" lon="0.66496">
        <ele>1880.2</ele>
        <time>2018-08-08T13:13:18.000Z</time>
      </trkpt>
      <trkpt lat="42.70129" lon="0.66496">
        <ele>1880.2</ele>
        <time>2018-08-08T13:13:19.000Z</time>
      </trkpt>
      <trkpt lat="42.70129" lon="0.66496">
        <ele>1880.2</ele>
        <time>2018-08-08T13:13:20.000Z</time>
      </trkpt>
      <trkpt lat="42.70129" lon="0.66496">
        <ele>1880.3</ele>
        <time>2018-08-08T13:13:21.000Z</time>
      </trkpt>
      <trkpt lat="42.70129" lon="0.66496">
        <ele>1880.3</ele>
        <time>2018-08-08T13:13:22.000Z</time>
      </trkpt>
      <trkpt lat="42.70129" lon="0.66496">
        <ele>1880.3</ele>
        <time>2018-08-08T13:13:23.000Z</time>
      </trkpt>
      <trkpt lat="42.70129" lon="0.66496">
        <ele>1880.3</ele>
        <time>2018-08-08T13:13:24.000Z</time>
      </trkpt>
      <trkpt lat="42.70128" lon="0.66496">
        <ele>1880.4</ele>
        <time>2018-08-08T13:13:25.000Z</time>
      </trkpt>
      <trkpt lat="42.70128" lon="0.66496">
        <ele>1880.5</ele>
        <time>2018-08-08T13:13:26.000Z</time>
      </trkpt>
      <trkpt lat="42.70128" lon="0.66496">
        <ele>1880.7</ele>
        <time>2018-08-08T13:13:27.000Z</time>
      </trkpt>
      <trkpt lat="42.70127" lon="0.66496">
        <ele>1881</ele>
        <time>2018-08-08T13:13:28.000Z</time>
      </trkpt>
      <trkpt lat="42.70126" lon="0.66495">
        <ele>1881.5</ele>
        <time>2018-08-08T13:13:29.000Z</time>
      </trkpt>
      <trkpt lat="42.70125" lon="0.66495">
        <ele>1882.1</ele>
        <time>2018-08-08T13:13:30.000Z</time>
      </trkpt>
      <trkpt lat="42.70124" lon="0.66495">
        <ele>1882.9</ele>
        <time>2018-08-08T13:13:31.000Z</time>
      </trkpt>
      <trkpt lat="42.70123" lon="0.66494">
        <ele>1883.5</ele>
        <time>2018-08-08T13:13:32.000Z</time>
      </trkpt>
      <trkpt lat="42.70122" lon="0.66494">
        <ele>1883.7</ele>
        <time>2018-08-08T13:13:33.000Z</time>
      </trkpt>
      <trkpt lat="42.70122" lon="0.66494">
        <ele>1883.7</ele>
        <time>2018-08-08T13:13:34.000Z</time>
      </trkpt>
      <trkpt lat="42.70122" lon="0.66494">
        <ele>1883.8</ele>
        <time>2018-08-08T13:13:35.000Z</time>
      </trkpt>
      <trkpt lat="42.70122" lon="0.66494">
        <ele>1883.8</ele>
        <time>2018-08-08T13:13:36.000Z</time>
      </trkpt>
      <trkpt lat="42.70122" lon="0.66494">
        <ele>1883.9</ele>
        <time>2018-08-08T13:13:37.000Z</time>
      </trkpt>
      <trkpt lat="42.70122" lon="0.66494">
        <ele>1884</ele>
        <time>2018-08-08T13:13:38.000Z</time>
      </trkpt>
      <trkpt lat="42.70122" lon="0.66494">
        <ele>1884</ele>
        <time>2018-08-08T13:13:39.000Z</time>
      </trkpt>
      <trkpt lat="42.70122" lon="0.66494">
        <ele>1884</ele>
        <time>2018-08-08T13:13:40.000Z</time>
      </trkpt>
      <trkpt lat="42.70122" lon="0.66494">
        <ele>1884.1</ele>
        <time>2018-08-08T13:13:41.000Z</time>
      </trkpt>
      <trkpt lat="42.70121" lon="0.66494">
        <ele>1884.1</ele>
        <time>2018-08-08T13:13:42.000Z</time>
      </trkpt>
      <trkpt lat="42.70121" lon="0.66494">
        <ele>1884.1</ele>
        <time>2018-08-08T13:13:43.000Z</time>
      </trkpt>
      <trkpt lat="42.70121" lon="0.66494">
        <ele>1884</ele>
        <time>2018-08-08T13:13:44.000Z</time>
      </trkpt>
      <trkpt lat="42.70121" lon="0.66494">
        <ele>1884.1</ele>
        <time>2018-08-08T13:13:45.000Z</time>
      </trkpt>
      <trkpt lat="42.70121" lon="0.66494">
        <ele>1884.1</ele>
        <time>2018-08-08T13:13:46.000Z</time>
      </trkpt>
      <trkpt lat="42.70121" lon="0.66494">
        <ele>1884.1</ele>
        <time>2018-08-08T13:13:47.000Z</time>
      </trkpt>
      <trkpt lat="42.70121" lon="0.66494">
        <ele>1884.1</ele>
        <time>2018-08-08T13:13:48.000Z</time>
      </trkpt>
      <trkpt lat="42.70121" lon="0.66494">
        <ele>1884.1</ele>
        <time>2018-08-08T13:13:49.000Z</time>
      </trkpt>
      <trkpt lat="42.70121" lon="0.66494">
        <ele>1884.1</ele>
        <time>2018-08-08T13:13:50.000Z</time>
      </trkpt>
      <trkpt lat="42.70121" lon="0.66494">
        <ele>1884.1</ele>
        <time>2018-08-08T13:13:51.000Z</time>
      </trkpt>
      <trkpt lat="42.70121" lon="0.66494">
        <ele>1884.1</ele>
        <time>2018-08-08T13:13:52.000Z</time>
      </trkpt>
      <trkpt lat="42.70121" lon="0.66494">
        <ele>1884.2</ele>
        <time>2018-08-08T13:13:53.000Z</time>
      </trkpt>
      <trkpt lat="42.70121" lon="0.66494">
        <ele>1884.2</ele>
        <time>2018-08-08T13:13:54.000Z</time>
      </trkpt>
      <trkpt lat="42.70121" lon="0.66494">
        <ele>1884.2</ele>
        <time>2018-08-08T13:13:55.000Z</time>
      </trkpt>
      <trkpt lat="42.70121" lon="0.66494">
        <ele>1884.2</ele>
        <time>2018-08-08T13:13:56.000Z</time>
      </trkpt>
      <trkpt lat="42.70121" lon="0.66494">
        <ele>1884.2</ele>
        <time>2018-08-08T13:13:57.000Z</time>
      </trkpt>
      <trkpt lat="42.70121" lon="0.66494">
        <ele>1884.2</ele>
        <time>2018-08-08T13:13:58.000Z</time>
      </trkpt>
      <trkpt lat="42.70121" lon="0.66494">
        <ele>1884.3</ele>
        <time>2018-08-08T13:13:59.000Z</time>
      </trkpt>
      <trkpt lat="42.70121" lon="0.66494">
        <ele>1884.3</ele>
        <time>2018-08-08T13:14:00.000Z</time>
      </trkpt>
      <trkpt lat="42.70121" lon="0.66494">
        <ele>1884.3</ele>
        <time>2018-08-08T13:14:01.000Z</time>
      </trkpt>
      <trkpt lat="42.70121" lon="0.66494">
        <ele>1884.3</ele>
        <time>2018-08-08T13:14:02.000Z</time>
      </trkpt>
      <trkpt lat="42.70121" lon="0.66494">
        <ele>1884.3</ele>
        <time>2018-08-08T13:14:03.000Z</time>
      </trkpt>
      <trkpt lat="42.70121" lon="0.66494">
        <ele>1884.3</ele>
        <time>2018-08-08T13:14:04.000Z</time>
      </trkpt>
      <trkpt lat="42.70121" lon="0.66494">
        <ele>1884.3</ele>
        <time>2018-08-08T13:14:05.000Z</time>
      </trkpt>
      <trkpt lat="42.70121" lon="0.66494">
        <ele>1884.3</ele>
        <time>2018-08-08T13:14:06.000Z</time>
      </trkpt>
      <trkpt lat="42.70121" lon="0.66494">
        <ele>1884.2</ele>
        <time>2018-08-08T13:14:07.000Z</time>
      </trkpt>
      <trkpt lat="42.70121" lon="0.66494">
        <ele>1884.2</ele>
        <time>2018-08-08T13:14:08.000Z</time>
      </trkpt>
      <trkpt lat="42.70121" lon="0.66494">
        <ele>1884.2</ele>
        <time>2018-08-08T13:14:09.000Z</time>
      </trkpt>
      <trkpt lat="42.70121" lon="0.66494">
        <ele>1884.1</ele>
        <time>2018-08-08T13:14:10.000Z</time>
      </trkpt>
      <trkpt lat="42.70121" lon="0.66494">
        <ele>1884.1</ele>
        <time>2018-08-08T13:14:11.000Z</time>
      </trkpt>
      <trkpt lat="42.70121" lon="0.66494">
        <ele>1884.1</ele>
        <time>2018-08-08T13:14:12.000Z</time>
      </trkpt>
      <trkpt lat="42.70121" lon="0.66494">
        <ele>1884.1</ele>
        <time>2018-08-08T13:14:13.000Z</time>
      </trkpt>
      <trkpt lat="42.70121" lon="0.66494">
        <ele>1884.2</ele>
        <time>2018-08-08T13:14:14.000Z</time>
      </trkpt>
      <trkpt lat="42.70121" lon="0.66494">
        <ele>1884.2</ele>
        <time>2018-08-08T13:14:15.000Z</time>
      </trkpt>
      <trkpt lat="42.70121" lon="0.66494">
        <ele>1884.2</ele>
        <time>2018-08-08T13:14:16.000Z</time>
      </trkpt>
      <trkpt lat="42.70121" lon="0.66494">
        <ele>1884.3</ele>
        <time>2018-08-08T13:14:17.000Z</time>
      </trkpt>
      <trkpt lat="42.7012" lon="0.66494">
        <ele>1884.4</ele>
        <time>2018-08-08T13:14:18.000Z</time>
      </trkpt>
      <trkpt lat="42.7012" lon="0.66494">
        <ele>1884.6</ele>
        <time>2018-08-08T13:14:19.000Z</time>
      </trkpt>
      <trkpt lat="42.7012" lon="0.66494">
        <ele>1884.7</ele>
        <time>2018-08-08T13:14:20.000Z</time>
      </trkpt>
      <trkpt lat="42.70119" lon="0.66494">
        <ele>1884.9</ele>
        <time>2018-08-08T13:14:21.000Z</time>
      </trkpt>
      <trkpt lat="42.70119" lon="0.66494">
        <ele>1885.2</ele>
        <time>2018-08-08T13:14:22.000Z</time>
      </trkpt>
      <trkpt lat="42.70118" lon="0.66494">
        <ele>1885.4</ele>
        <time>2018-08-08T13:14:23.000Z</time>
      </trkpt>
      <trkpt lat="42.70117" lon="0.66494">
        <ele>1885.7</ele>
        <time>2018-08-08T13:14:24.000Z</time>
      </trkpt>
      <trkpt lat="42.70117" lon="0.66494">
        <ele>1886</ele>
        <time>2018-08-08T13:14:25.000Z</time>
      </trkpt>
      <trkpt lat="42.70116" lon="0.66494">
        <ele>1886.3</ele>
        <time>2018-08-08T13:14:26.000Z</time>
      </trkpt>
      <trkpt lat="42.70115" lon="0.66494">
        <ele>1886.6</ele>
        <time>2018-08-08T13:14:27.000Z</time>
      </trkpt>
      <trkpt lat="42.70115" lon="0.66494">
        <ele>1887</ele>
        <time>2018-08-08T13:14:28.000Z</time>
      </trkpt>
      <trkpt lat="42.70114" lon="0.66494">
        <ele>1887.3</ele>
        <time>2018-08-08T13:14:29.000Z</time>
      </trkpt>
      <trkpt lat="42.70113" lon="0.66494">
        <ele>1887.7</ele>
        <time>2018-08-08T13:14:30.000Z</time>
      </trkpt>
      <trkpt lat="42.70112" lon="0.66494">
        <ele>1888.1</ele>
        <time>2018-08-08T13:14:31.000Z</time>
      </trkpt>
      <trkpt lat="42.70112" lon="0.66494">
        <ele>1888.4</ele>
        <time>2018-08-08T13:14:32.000Z</time>
      </trkpt>
      <trkpt lat="42.70111" lon="0.66494">
        <ele>1888.8</ele>
        <time>2018-08-08T13:14:33.000Z</time>
      </trkpt>
      <trkpt lat="42.7011" lon="0.66493">
        <ele>1889.2</ele>
        <time>2018-08-08T13:14:34.000Z</time>
      </trkpt>
      <trkpt lat="42.7011" lon="0.66493">
        <ele>1889.5</ele>
        <time>2018-08-08T13:14:35.000Z</time>
      </trkpt>
      <trkpt lat="42.70109" lon="0.66493">
        <ele>1889.8</ele>
        <time>2018-08-08T13:14:36.000Z</time>
      </trkpt>
      <trkpt lat="42.70108" lon="0.66493">
        <ele>1890.1</ele>
        <time>2018-08-08T13:14:37.000Z</time>
      </trkpt>
      <trkpt lat="42.70108" lon="0.66493">
        <ele>1890.5</ele>
        <time>2018-08-08T13:14:38.000Z</time>
      </trkpt>
      <trkpt lat="42.70107" lon="0.66492">
        <ele>1890.8</ele>
        <time>2018-08-08T13:14:39.000Z</time>
      </trkpt>
      <trkpt lat="42.70106" lon="0.66492">
        <ele>1891.1</ele>
        <time>2018-08-08T13:14:40.000Z</time>
      </trkpt>
      <trkpt lat="42.70106" lon="0.66492">
        <ele>1891.4</ele>
        <time>2018-08-08T13:14:41.000Z</time>
      </trkpt>
      <trkpt lat="42.70105" lon="0.66492">
        <ele>1891.7</ele>
        <time>2018-08-08T13:14:42.000Z</time>
      </trkpt>
      <trkpt lat="42.70105" lon="0.66492">
        <ele>1891.9</ele>
        <time>2018-08-08T13:14:43.000Z</time>
      </trkpt>
      <trkpt lat="42.70105" lon="0.66491">
        <ele>1892.2</ele>
        <time>2018-08-08T13:14:44.000Z</time>
      </trkpt>
      <trkpt lat="42.70104" lon="0.66491">
        <ele>1892.4</ele>
        <time>2018-08-08T13:14:45.000Z</time>
      </trkpt>
      <trkpt lat="42.70104" lon="0.66491">
        <ele>1892.6</ele>
        <time>2018-08-08T13:14:46.000Z</time>
      </trkpt>
      <trkpt lat="42.70104" lon="0.66491">
        <ele>1892.8</ele>
        <time>2018-08-08T13:14:47.000Z</time>
      </trkpt>
      <trkpt lat="42.70103" lon="0.6649">
        <ele>1893</ele>
        <time>2018-08-08T13:14:48.000Z</time>
      </trkpt>
      <trkpt lat="42.70103" lon="0.6649">
        <ele>1893.2</ele>
        <time>2018-08-08T13:14:49.000Z</time>
      </trkpt>
      <trkpt lat="42.70103" lon="0.6649">
        <ele>1893.3</ele>
        <time>2018-08-08T13:14:50.000Z</time>
      </trkpt>
      <trkpt lat="42.70103" lon="0.6649">
        <ele>1893.4</ele>
        <time>2018-08-08T13:14:51.000Z</time>
      </trkpt>
      <trkpt lat="42.70102" lon="0.6649">
        <ele>1893.6</ele>
        <time>2018-08-08T13:14:52.000Z</time>
      </trkpt>
      <trkpt lat="42.70102" lon="0.66489">
        <ele>1893.7</ele>
        <time>2018-08-08T13:14:53.000Z</time>
      </trkpt>
      <trkpt lat="42.70102" lon="0.66489">
        <ele>1893.7</ele>
        <time>2018-08-08T13:14:54.000Z</time>
      </trkpt>
      <trkpt lat="42.70102" lon="0.66489">
        <ele>1893.8</ele>
        <time>2018-08-08T13:14:55.000Z</time>
      </trkpt>
      <trkpt lat="42.70102" lon="0.66489">
        <ele>1893.9</ele>
        <time>2018-08-08T13:14:56.000Z</time>
      </trkpt>
      <trkpt lat="42.70102" lon="0.66489">
        <ele>1893.9</ele>
        <time>2018-08-08T13:14:57.000Z</time>
      </trkpt>
      <trkpt lat="42.70103" lon="0.66488">
        <ele>1894</ele>
        <time>2018-08-08T13:14:58.000Z</time>
      </trkpt>
      <trkpt lat="42.70103" lon="0.66488">
        <ele>1894</ele>
        <time>2018-08-08T13:14:59.000Z</time>
      </trkpt>
      <trkpt lat="42.70103" lon="0.66488">
        <ele>1894</ele>
        <time>2018-08-08T13:15:00.000Z</time>
      </trkpt>
      <trkpt lat="42.70103" lon="0.66487">
        <ele>1893.9</ele>
        <time>2018-08-08T13:15:01.000Z</time>
      </trkpt>
      <trkpt lat="42.70104" lon="0.66487">
        <ele>1893.9</ele>
        <time>2018-08-08T13:15:02.000Z</time>
      </trkpt>
      <trkpt lat="42.70104" lon="0.66487">
        <ele>1893.9</ele>
        <time>2018-08-08T13:15:03.000Z</time>
      </trkpt>
      <trkpt lat="42.70104" lon="0.66486">
        <ele>1893.8</ele>
        <time>2018-08-08T13:15:04.000Z</time>
      </trkpt>
      <trkpt lat="42.70105" lon="0.66486">
        <ele>1893.8</ele>
        <time>2018-08-08T13:15:05.000Z</time>
      </trkpt>
      <trkpt lat="42.70105" lon="0.66485">
        <ele>1893.7</ele>
        <time>2018-08-08T13:15:06.000Z</time>
      </trkpt>
      <trkpt lat="42.70106" lon="0.66485">
        <ele>1893.6</ele>
        <time>2018-08-08T13:15:07.000Z</time>
      </trkpt>
      <trkpt lat="42.70106" lon="0.66485">
        <ele>1893.6</ele>
        <time>2018-08-08T13:15:08.000Z</time>
      </trkpt>
      <trkpt lat="42.70106" lon="0.66484">
        <ele>1893.5</ele>
        <time>2018-08-08T13:15:09.000Z</time>
      </trkpt>
      <trkpt lat="42.70107" lon="0.66484">
        <ele>1893.5</ele>
        <time>2018-08-08T13:15:10.000Z</time>
      </trkpt>
      <trkpt lat="42.70107" lon="0.66484">
        <ele>1893.4</ele>
        <time>2018-08-08T13:15:11.000Z</time>
      </trkpt>
      <trkpt lat="42.70107" lon="0.66484">
        <ele>1893.3</ele>
        <time>2018-08-08T13:15:12.000Z</time>
      </trkpt>
      <trkpt lat="42.70108" lon="0.66483">
        <ele>1893.2</ele>
        <time>2018-08-08T13:15:13.000Z</time>
      </trkpt>
      <trkpt lat="42.70108" lon="0.66483">
        <ele>1893.2</ele>
        <time>2018-08-08T13:15:14.000Z</time>
      </trkpt>
      <trkpt lat="42.70108" lon="0.66483">
        <ele>1893.1</ele>
        <time>2018-08-08T13:15:15.000Z</time>
      </trkpt>
      <trkpt lat="42.70109" lon="0.66483">
        <ele>1893</ele>
        <time>2018-08-08T13:15:16.000Z</time>
      </trkpt>
      <trkpt lat="42.70109" lon="0.66483">
        <ele>1893</ele>
        <time>2018-08-08T13:15:17.000Z</time>
      </trkpt>
      <trkpt lat="42.70109" lon="0.66483">
        <ele>1893</ele>
        <time>2018-08-08T13:15:18.000Z</time>
      </trkpt>
      <trkpt lat="42.70109" lon="0.66482">
        <ele>1892.9</ele>
        <time>2018-08-08T13:15:19.000Z</time>
      </trkpt>
      <trkpt lat="42.7011" lon="0.66482">
        <ele>1892.9</ele>
        <time>2018-08-08T13:15:20.000Z</time>
      </trkpt>
      <trkpt lat="42.7011" lon="0.66482">
        <ele>1892.8</ele>
        <time>2018-08-08T13:15:21.000Z</time>
      </trkpt>
      <trkpt lat="42.7011" lon="0.66482">
        <ele>1892.7</ele>
        <time>2018-08-08T13:15:22.000Z</time>
      </trkpt>
      <trkpt lat="42.70111" lon="0.66481">
        <ele>1892.6</ele>
        <time>2018-08-08T13:15:23.000Z</time>
      </trkpt>
      <trkpt lat="42.70111" lon="0.66481">
        <ele>1892.5</ele>
        <time>2018-08-08T13:15:24.000Z</time>
      </trkpt>
      <trkpt lat="42.70112" lon="0.66481">
        <ele>1892.3</ele>
        <time>2018-08-08T13:15:25.000Z</time>
      </trkpt>
      <trkpt lat="42.70113" lon="0.6648">
        <ele>1892.1</ele>
        <time>2018-08-08T13:15:26.000Z</time>
      </trkpt>
      <trkpt lat="42.70114" lon="0.6648">
        <ele>1891.9</ele>
        <time>2018-08-08T13:15:27.000Z</time>
      </trkpt>
      <trkpt lat="42.70115" lon="0.6648">
        <ele>1891.6</ele>
        <time>2018-08-08T13:15:28.000Z</time>
      </trkpt>
      <trkpt lat="42.70116" lon="0.66479">
        <ele>1891.4</ele>
        <time>2018-08-08T13:15:29.000Z</time>
      </trkpt>
      <trkpt lat="42.70117" lon="0.66479">
        <ele>1891.2</ele>
        <time>2018-08-08T13:15:30.000Z</time>
      </trkpt>
      <trkpt lat="42.70118" lon="0.66478">
        <ele>1891</ele>
        <time>2018-08-08T13:15:31.000Z</time>
      </trkpt>
      <trkpt lat="42.70118" lon="0.66478">
        <ele>1890.8</ele>
        <time>2018-08-08T13:15:32.000Z</time>
      </trkpt>
      <trkpt lat="42.70119" lon="0.66477">
        <ele>1890.6</ele>
        <time>2018-08-08T13:15:33.000Z</time>
      </trkpt>
      <trkpt lat="42.7012" lon="0.66477">
        <ele>1890.5</ele>
        <time>2018-08-08T13:15:34.000Z</time>
      </trkpt>
      <trkpt lat="42.70121" lon="0.66476">
        <ele>1890.4</ele>
        <time>2018-08-08T13:15:35.000Z</time>
      </trkpt>
      <trkpt lat="42.70121" lon="0.66475">
        <ele>1890.3</ele>
        <time>2018-08-08T13:15:36.000Z</time>
      </trkpt>
      <trkpt lat="42.70122" lon="0.66475">
        <ele>1890.2</ele>
        <time>2018-08-08T13:15:37.000Z</time>
      </trkpt>
      <trkpt lat="42.70123" lon="0.66474">
        <ele>1890.2</ele>
        <time>2018-08-08T13:15:38.000Z</time>
      </trkpt>
      <trkpt lat="42.70124" lon="0.66474">
        <ele>1890.1</ele>
        <time>2018-08-08T13:15:39.000Z</time>
      </trkpt>
      <trkpt lat="42.70124" lon="0.66473">
        <ele>1890</ele>
        <time>2018-08-08T13:15:40.000Z</time>
      </trkpt>
      <trkpt lat="42.70125" lon="0.66472">
        <ele>1890</ele>
        <time>2018-08-08T13:15:41.000Z</time>
      </trkpt>
      <trkpt lat="42.70126" lon="0.66472">
        <ele>1889.9</ele>
        <time>2018-08-08T13:15:42.000Z</time>
      </trkpt>
      <trkpt lat="42.70127" lon="0.66471">
        <ele>1889.8</ele>
        <time>2018-08-08T13:15:43.000Z</time>
      </trkpt>
      <trkpt lat="42.70128" lon="0.6647">
        <ele>1889.8</ele>
        <time>2018-08-08T13:15:44.000Z</time>
      </trkpt>
      <trkpt lat="42.70129" lon="0.66469">
        <ele>1889.6</ele>
        <time>2018-08-08T13:15:45.000Z</time>
      </trkpt>
      <trkpt lat="42.7013" lon="0.66469">
        <ele>1889.5</ele>
        <time>2018-08-08T13:15:46.000Z</time>
      </trkpt>
      <trkpt lat="42.70131" lon="0.66468">
        <ele>1889.4</ele>
        <time>2018-08-08T13:15:47.000Z</time>
      </trkpt>
      <trkpt lat="42.70132" lon="0.66467">
        <ele>1889.3</ele>
        <time>2018-08-08T13:15:48.000Z</time>
      </trkpt>
      <trkpt lat="42.70132" lon="0.66467">
        <ele>1889.2</ele>
        <time>2018-08-08T13:15:49.000Z</time>
      </trkpt>
      <trkpt lat="42.70133" lon="0.66466">
        <ele>1889.1</ele>
        <time>2018-08-08T13:15:50.000Z</time>
      </trkpt>
      <trkpt lat="42.70134" lon="0.66466">
        <ele>1889</ele>
        <time>2018-08-08T13:15:51.000Z</time>
      </trkpt>
      <trkpt lat="42.70135" lon="0.66465">
        <ele>1888.9</ele>
        <time>2018-08-08T13:15:52.000Z</time>
      </trkpt>
      <trkpt lat="42.70135" lon="0.66465">
        <ele>1888.9</ele>
        <time>2018-08-08T13:15:53.000Z</time>
      </trkpt>
      <trkpt lat="42.70135" lon="0.66465">
        <ele>1888.8</ele>
        <time>2018-08-08T13:15:54.000Z</time>
      </trkpt>
      <trkpt lat="42.70136" lon="0.66465">
        <ele>1888.8</ele>
        <time>2018-08-08T13:15:55.000Z</time>
      </trkpt>
      <trkpt lat="42.70136" lon="0.66464">
        <ele>1888.8</ele>
        <time>2018-08-08T13:15:56.000Z</time>
      </trkpt>
      <trkpt lat="42.70137" lon="0.66464">
        <ele>1888.7</ele>
        <time>2018-08-08T13:15:57.000Z</time>
      </trkpt>
      <trkpt lat="42.70137" lon="0.66463">
        <ele>1888.7</ele>
        <time>2018-08-08T13:15:58.000Z</time>
      </trkpt>
      <trkpt lat="42.70138" lon="0.66462">
        <ele>1888.6</ele>
        <time>2018-08-08T13:15:59.000Z</time>
      </trkpt>
      <trkpt lat="42.70139" lon="0.66462">
        <ele>1888.6</ele>
        <time>2018-08-08T13:16:00.000Z</time>
      </trkpt>
      <trkpt lat="42.7014" lon="0.66461">
        <ele>1888.5</ele>
        <time>2018-08-08T13:16:01.000Z</time>
      </trkpt>
      <trkpt lat="42.7014" lon="0.6646">
        <ele>1888.6</ele>
        <time>2018-08-08T13:16:02.000Z</time>
      </trkpt>
      <trkpt lat="42.70141" lon="0.6646">
        <ele>1888.5</ele>
        <time>2018-08-08T13:16:03.000Z</time>
      </trkpt>
      <trkpt lat="42.70142" lon="0.66459">
        <ele>1888.5</ele>
        <time>2018-08-08T13:16:04.000Z</time>
      </trkpt>
      <trkpt lat="42.70142" lon="0.66459">
        <ele>1888.5</ele>
        <time>2018-08-08T13:16:05.000Z</time>
      </trkpt>
      <trkpt lat="42.70142" lon="0.66458">
        <ele>1888.6</ele>
        <time>2018-08-08T13:16:06.000Z</time>
      </trkpt>
      <trkpt lat="42.70143" lon="0.66458">
        <ele>1888.6</ele>
        <time>2018-08-08T13:16:07.000Z</time>
      </trkpt>
      <trkpt lat="42.70143" lon="0.66457">
        <ele>1888.7</ele>
        <time>2018-08-08T13:16:08.000Z</time>
      </trkpt>
      <trkpt lat="42.70144" lon="0.66457">
        <ele>1888.7</ele>
        <time>2018-08-08T13:16:09.000Z</time>
      </trkpt>
      <trkpt lat="42.70144" lon="0.66456">
        <ele>1888.8</ele>
        <time>2018-08-08T13:16:10.000Z</time>
      </trkpt>
      <trkpt lat="42.70144" lon="0.66456">
        <ele>1888.9</ele>
        <time>2018-08-08T13:16:11.000Z</time>
      </trkpt>
      <trkpt lat="42.70145" lon="0.66455">
        <ele>1889</ele>
        <time>2018-08-08T13:16:12.000Z</time>
      </trkpt>
      <trkpt lat="42.70145" lon="0.66455">
        <ele>1889.1</ele>
        <time>2018-08-08T13:16:13.000Z</time>
      </trkpt>
      <trkpt lat="42.70145" lon="0.66454">
        <ele>1889.2</ele>
        <time>2018-08-08T13:16:14.000Z</time>
      </trkpt>
      <trkpt lat="42.70146" lon="0.66454">
        <ele>1889.2</ele>
        <time>2018-08-08T13:16:15.000Z</time>
      </trkpt>
      <trkpt lat="42.70146" lon="0.66453">
        <ele>1889.3</ele>
        <time>2018-08-08T13:16:16.000Z</time>
      </trkpt>
      <trkpt lat="42.70146" lon="0.66453">
        <ele>1889.3</ele>
        <time>2018-08-08T13:16:17.000Z</time>
      </trkpt>
      <trkpt lat="42.70147" lon="0.66453">
        <ele>1889.4</ele>
        <time>2018-08-08T13:16:18.000Z</time>
      </trkpt>
      <trkpt lat="42.70147" lon="0.66452">
        <ele>1889.4</ele>
        <time>2018-08-08T13:16:19.000Z</time>
      </trkpt>
      <trkpt lat="42.70147" lon="0.66452">
        <ele>1889.5</ele>
        <time>2018-08-08T13:16:20.000Z</time>
      </trkpt>
      <trkpt lat="42.70147" lon="0.66452">
        <ele>1889.5</ele>
        <time>2018-08-08T13:16:21.000Z</time>
      </trkpt>
      <trkpt lat="42.70147" lon="0.66452">
        <ele>1889.6</ele>
        <time>2018-08-08T13:16:22.000Z</time>
      </trkpt>
      <trkpt lat="42.70147" lon="0.66452">
        <ele>1889.6</ele>
        <time>2018-08-08T13:16:23.000Z</time>
      </trkpt>
      <trkpt lat="42.70147" lon="0.66451">
        <ele>1889.6</ele>
        <time>2018-08-08T13:16:24.000Z</time>
      </trkpt>
      <trkpt lat="42.70147" lon="0.66451">
        <ele>1889.7</ele>
        <time>2018-08-08T13:16:25.000Z</time>
      </trkpt>
      <trkpt lat="42.70147" lon="0.66451">
        <ele>1889.7</ele>
        <time>2018-08-08T13:16:26.000Z</time>
      </trkpt>
      <trkpt lat="42.70147" lon="0.66451">
        <ele>1889.8</ele>
        <time>2018-08-08T13:16:27.000Z</time>
      </trkpt>
      <trkpt lat="42.70147" lon="0.66451">
        <ele>1889.8</ele>
        <time>2018-08-08T13:16:28.000Z</time>
      </trkpt>
      <trkpt lat="42.70146" lon="0.66452">
        <ele>1889.9</ele>
        <time>2018-08-08T13:16:29.000Z</time>
      </trkpt>
      <trkpt lat="42.70146" lon="0.66452">
        <ele>1890</ele>
        <time>2018-08-08T13:16:30.000Z</time>
      </trkpt>
      <trkpt lat="42.70145" lon="0.66452">
        <ele>1890.1</ele>
        <time>2018-08-08T13:16:31.000Z</time>
      </trkpt>
      <trkpt lat="42.70145" lon="0.66452">
        <ele>1890.1</ele>
        <time>2018-08-08T13:16:32.000Z</time>
      </trkpt>
      <trkpt lat="42.70144" lon="0.66452">
        <ele>1890.3</ele>
        <time>2018-08-08T13:16:33.000Z</time>
      </trkpt>
      <trkpt lat="42.70144" lon="0.66453">
        <ele>1890.4</ele>
        <time>2018-08-08T13:16:34.000Z</time>
      </trkpt>
      <trkpt lat="42.70143" lon="0.66453">
        <ele>1890.5</ele>
        <time>2018-08-08T13:16:35.000Z</time>
      </trkpt>
      <trkpt lat="42.70142" lon="0.66453">
        <ele>1890.6</ele>
        <time>2018-08-08T13:16:36.000Z</time>
      </trkpt>
      <trkpt lat="42.70142" lon="0.66454">
        <ele>1890.7</ele>
        <time>2018-08-08T13:16:37.000Z</time>
      </trkpt>
      <trkpt lat="42.70141" lon="0.66454">
        <ele>1890.9</ele>
        <time>2018-08-08T13:16:38.000Z</time>
      </trkpt>
      <trkpt lat="42.7014" lon="0.66454">
        <ele>1891.1</ele>
        <time>2018-08-08T13:16:39.000Z</time>
      </trkpt>
      <trkpt lat="42.70139" lon="0.66454">
        <ele>1891.2</ele>
        <time>2018-08-08T13:16:40.000Z</time>
      </trkpt>
      <trkpt lat="42.70138" lon="0.66455">
        <ele>1891.4</ele>
        <time>2018-08-08T13:16:41.000Z</time>
      </trkpt>
      <trkpt lat="42.70138" lon="0.66455">
        <ele>1891.5</ele>
        <time>2018-08-08T13:16:42.000Z</time>
      </trkpt>
      <trkpt lat="42.70137" lon="0.66455">
        <ele>1891.7</ele>
        <time>2018-08-08T13:16:43.000Z</time>
      </trkpt>
      <trkpt lat="42.70136" lon="0.66455">
        <ele>1891.9</ele>
        <time>2018-08-08T13:16:44.000Z</time>
      </trkpt>
      <trkpt lat="42.70135" lon="0.66456">
        <ele>1892.1</ele>
        <time>2018-08-08T13:16:45.000Z</time>
      </trkpt>
      <trkpt lat="42.70135" lon="0.66456">
        <ele>1892.3</ele>
        <time>2018-08-08T13:16:46.000Z</time>
      </trkpt>
      <trkpt lat="42.70134" lon="0.66456">
        <ele>1892.5</ele>
        <time>2018-08-08T13:16:47.000Z</time>
      </trkpt>
      <trkpt lat="42.70133" lon="0.66456">
        <ele>1892.7</ele>
        <time>2018-08-08T13:16:48.000Z</time>
      </trkpt>
      <trkpt lat="42.70132" lon="0.66456">
        <ele>1892.9</ele>
        <time>2018-08-08T13:16:49.000Z</time>
      </trkpt>
      <trkpt lat="42.70132" lon="0.66456">
        <ele>1893.1</ele>
        <time>2018-08-08T13:16:50.000Z</time>
      </trkpt>
      <trkpt lat="42.70131" lon="0.66456">
        <ele>1893.3</ele>
        <time>2018-08-08T13:16:51.000Z</time>
      </trkpt>
      <trkpt lat="42.7013" lon="0.66456">
        <ele>1893.6</ele>
        <time>2018-08-08T13:16:52.000Z</time>
      </trkpt>
      <trkpt lat="42.7013" lon="0.66456">
        <ele>1893.8</ele>
        <time>2018-08-08T13:16:53.000Z</time>
      </trkpt>
      <trkpt lat="42.70129" lon="0.66456">
        <ele>1894.1</ele>
        <time>2018-08-08T13:16:54.000Z</time>
      </trkpt>
      <trkpt lat="42.70128" lon="0.66456">
        <ele>1894.3</ele>
        <time>2018-08-08T13:16:55.000Z</time>
      </trkpt>
      <trkpt lat="42.70127" lon="0.66456">
        <ele>1894.6</ele>
        <time>2018-08-08T13:16:56.000Z</time>
      </trkpt>
      <trkpt lat="42.70127" lon="0.66456">
        <ele>1894.8</ele>
        <time>2018-08-08T13:16:57.000Z</time>
      </trkpt>
      <trkpt lat="42.70126" lon="0.66456">
        <ele>1895.1</ele>
        <time>2018-08-08T13:16:58.000Z</time>
      </trkpt>
      <trkpt lat="42.70125" lon="0.66456">
        <ele>1895.3</ele>
        <time>2018-08-08T13:16:59.000Z</time>
      </trkpt>
      <trkpt lat="42.70125" lon="0.66456">
        <ele>1895.6</ele>
        <time>2018-08-08T13:17:00.000Z</time>
      </trkpt>
      <trkpt lat="42.70124" lon="0.66456">
        <ele>1895.8</ele>
        <time>2018-08-08T13:17:01.000Z</time>
      </trkpt>
      <trkpt lat="42.70123" lon="0.66456">
        <ele>1896.1</ele>
        <time>2018-08-08T13:17:02.000Z</time>
      </trkpt>
      <trkpt lat="42.70123" lon="0.66456">
        <ele>1896.4</ele>
        <time>2018-08-08T13:17:03.000Z</time>
      </trkpt>
      <trkpt lat="42.70122" lon="0.66456">
        <ele>1896.6</ele>
        <time>2018-08-08T13:17:04.000Z</time>
      </trkpt>
      <trkpt lat="42.70121" lon="0.66456">
        <ele>1896.9</ele>
        <time>2018-08-08T13:17:05.000Z</time>
      </trkpt>
      <trkpt lat="42.70121" lon="0.66456">
        <ele>1897.2</ele>
        <time>2018-08-08T13:17:06.000Z</time>
      </trkpt>
      <trkpt lat="42.7012" lon="0.66456">
        <ele>1897.5</ele>
        <time>2018-08-08T13:17:07.000Z</time>
      </trkpt>
      <trkpt lat="42.70119" lon="0.66456">
        <ele>1897.7</ele>
        <time>2018-08-08T13:17:08.000Z</time>
      </trkpt>
      <trkpt lat="42.70118" lon="0.66456">
        <ele>1898</ele>
        <time>2018-08-08T13:17:09.000Z</time>
      </trkpt>
      <trkpt lat="42.70118" lon="0.66455">
        <ele>1898.3</ele>
        <time>2018-08-08T13:17:10.000Z</time>
      </trkpt>
      <trkpt lat="42.70117" lon="0.66455">
        <ele>1898.6</ele>
        <time>2018-08-08T13:17:11.000Z</time>
      </trkpt>
      <trkpt lat="42.70116" lon="0.66455">
        <ele>1898.8</ele>
        <time>2018-08-08T13:17:12.000Z</time>
      </trkpt>
      <trkpt lat="42.70116" lon="0.66455">
        <ele>1899.1</ele>
        <time>2018-08-08T13:17:13.000Z</time>
      </trkpt>
      <trkpt lat="42.70115" lon="0.66455">
        <ele>1899.4</ele>
        <time>2018-08-08T13:17:14.000Z</time>
      </trkpt>
      <trkpt lat="42.70114" lon="0.66455">
        <ele>1899.7</ele>
        <time>2018-08-08T13:17:15.000Z</time>
      </trkpt>
      <trkpt lat="42.70114" lon="0.66455">
        <ele>1900</ele>
        <time>2018-08-08T13:17:16.000Z</time>
      </trkpt>
      <trkpt lat="42.70113" lon="0.66454">
        <ele>1900.3</ele>
        <time>2018-08-08T13:17:17.000Z</time>
      </trkpt>
      <trkpt lat="42.70112" lon="0.66454">
        <ele>1900.6</ele>
        <time>2018-08-08T13:17:18.000Z</time>
      </trkpt>
      <trkpt lat="42.70111" lon="0.66454">
        <ele>1900.9</ele>
        <time>2018-08-08T13:17:19.000Z</time>
      </trkpt>
      <trkpt lat="42.70111" lon="0.66454">
        <ele>1901.2</ele>
        <time>2018-08-08T13:17:20.000Z</time>
      </trkpt>
      <trkpt lat="42.7011" lon="0.66454">
        <ele>1901.6</ele>
        <time>2018-08-08T13:17:21.000Z</time>
      </trkpt>
      <trkpt lat="42.70109" lon="0.66453">
        <ele>1901.9</ele>
        <time>2018-08-08T13:17:22.000Z</time>
      </trkpt>
      <trkpt lat="42.70108" lon="0.66453">
        <ele>1902.2</ele>
        <time>2018-08-08T13:17:23.000Z</time>
      </trkpt>
      <trkpt lat="42.70108" lon="0.66453">
        <ele>1902.5</ele>
        <time>2018-08-08T13:17:24.000Z</time>
      </trkpt>
      <trkpt lat="42.70107" lon="0.66453">
        <ele>1902.8</ele>
        <time>2018-08-08T13:17:25.000Z</time>
      </trkpt>
      <trkpt lat="42.70106" lon="0.66453">
        <ele>1903.2</ele>
        <time>2018-08-08T13:17:26.000Z</time>
      </trkpt>
      <trkpt lat="42.70105" lon="0.66452">
        <ele>1903.5</ele>
        <time>2018-08-08T13:17:27.000Z</time>
      </trkpt>
      <trkpt lat="42.70105" lon="0.66452">
        <ele>1903.9</ele>
        <time>2018-08-08T13:17:28.000Z</time>
      </trkpt>
      <trkpt lat="42.70104" lon="0.66452">
        <ele>1904.2</ele>
        <time>2018-08-08T13:17:29.000Z</time>
      </trkpt>
      <trkpt lat="42.70103" lon="0.66451">
        <ele>1904.5</ele>
        <time>2018-08-08T13:17:30.000Z</time>
      </trkpt>
      <trkpt lat="42.70102" lon="0.66451">
        <ele>1904.9</ele>
        <time>2018-08-08T13:17:31.000Z</time>
      </trkpt>
      <trkpt lat="42.70102" lon="0.66451">
        <ele>1905.2</ele>
        <time>2018-08-08T13:17:32.000Z</time>
      </trkpt>
      <trkpt lat="42.70101" lon="0.66451">
        <ele>1905.5</ele>
        <time>2018-08-08T13:17:33.000Z</time>
      </trkpt>
      <trkpt lat="42.70101" lon="0.6645">
        <ele>1905.8</ele>
        <time>2018-08-08T13:17:34.000Z</time>
      </trkpt>
      <trkpt lat="42.701" lon="0.6645">
        <ele>1906.1</ele>
        <time>2018-08-08T13:17:35.000Z</time>
      </trkpt>
      <trkpt lat="42.701" lon="0.66449">
        <ele>1906.3</ele>
        <time>2018-08-08T13:17:36.000Z</time>
      </trkpt>
      <trkpt lat="42.70099" lon="0.66449">
        <ele>1906.5</ele>
        <time>2018-08-08T13:17:37.000Z</time>
      </trkpt>
      <trkpt lat="42.70099" lon="0.66449">
        <ele>1906.7</ele>
        <time>2018-08-08T13:17:38.000Z</time>
      </trkpt>
      <trkpt lat="42.70099" lon="0.66448">
        <ele>1906.8</ele>
        <time>2018-08-08T13:17:39.000Z</time>
      </trkpt>
      <trkpt lat="42.70099" lon="0.66448">
        <ele>1906.9</ele>
        <time>2018-08-08T13:17:40.000Z</time>
      </trkpt>
      <trkpt lat="42.70099" lon="0.66447">
        <ele>1907</ele>
        <time>2018-08-08T13:17:41.000Z</time>
      </trkpt>
      <trkpt lat="42.701" lon="0.66447">
        <ele>1907.1</ele>
        <time>2018-08-08T13:17:42.000Z</time>
      </trkpt>
      <trkpt lat="42.701" lon="0.66446">
        <ele>1907.3</ele>
        <time>2018-08-08T13:17:43.000Z</time>
      </trkpt>
      <trkpt lat="42.701" lon="0.66446">
        <ele>1907.3</ele>
        <time>2018-08-08T13:17:44.000Z</time>
      </trkpt>
      <trkpt lat="42.70101" lon="0.66445">
        <ele>1907.2</ele>
        <time>2018-08-08T13:17:45.000Z</time>
      </trkpt>
      <trkpt lat="42.70102" lon="0.66445">
        <ele>1907</ele>
        <time>2018-08-08T13:17:46.000Z</time>
      </trkpt>
      <trkpt lat="42.70102" lon="0.66445">
        <ele>1907</ele>
        <time>2018-08-08T13:17:47.000Z</time>
      </trkpt>
      <trkpt lat="42.70102" lon="0.66444">
        <ele>1906.9</ele>
        <time>2018-08-08T13:17:48.000Z</time>
      </trkpt>
      <trkpt lat="42.70103" lon="0.66444">
        <ele>1906.8</ele>
        <time>2018-08-08T13:17:49.000Z</time>
      </trkpt>
      <trkpt lat="42.70103" lon="0.66444">
        <ele>1906.7</ele>
        <time>2018-08-08T13:17:50.000Z</time>
      </trkpt>
      <trkpt lat="42.70104" lon="0.66444">
        <ele>1906.5</ele>
        <time>2018-08-08T13:17:51.000Z</time>
      </trkpt>
      <trkpt lat="42.70105" lon="0.66443">
        <ele>1906.4</ele>
        <time>2018-08-08T13:17:52.000Z</time>
      </trkpt>
      <trkpt lat="42.70106" lon="0.66443">
        <ele>1906.2</ele>
        <time>2018-08-08T13:17:53.000Z</time>
      </trkpt>
      <trkpt lat="42.70107" lon="0.66442">
        <ele>1906.1</ele>
        <time>2018-08-08T13:17:54.000Z</time>
      </trkpt>
      <trkpt lat="42.70108" lon="0.66441">
        <ele>1906</ele>
        <time>2018-08-08T13:17:55.000Z</time>
      </trkpt>
      <trkpt lat="42.70109" lon="0.66441">
        <ele>1905.9</ele>
        <time>2018-08-08T13:17:56.000Z</time>
      </trkpt>
      <trkpt lat="42.7011" lon="0.6644">
        <ele>1905.8</ele>
        <time>2018-08-08T13:17:57.000Z</time>
      </trkpt>
      <trkpt lat="42.7011" lon="0.6644">
        <ele>1905.7</ele>
        <time>2018-08-08T13:17:58.000Z</time>
      </trkpt>
      <trkpt lat="42.70111" lon="0.66439">
        <ele>1905.6</ele>
        <time>2018-08-08T13:17:59.000Z</time>
      </trkpt>
      <trkpt lat="42.70112" lon="0.66439">
        <ele>1905.5</ele>
        <time>2018-08-08T13:18:00.000Z</time>
      </trkpt>
      <trkpt lat="42.70113" lon="0.66439">
        <ele>1905.4</ele>
        <time>2018-08-08T13:18:01.000Z</time>
      </trkpt>
      <trkpt lat="42.70113" lon="0.66438">
        <ele>1905.3</ele>
        <time>2018-08-08T13:18:02.000Z</time>
      </trkpt>
      <trkpt lat="42.70114" lon="0.66438">
        <ele>1905.2</ele>
        <time>2018-08-08T13:18:03.000Z</time>
      </trkpt>
      <trkpt lat="42.70115" lon="0.66437">
        <ele>1905.2</ele>
        <time>2018-08-08T13:18:04.000Z</time>
      </trkpt>
      <trkpt lat="42.70116" lon="0.66436">
        <ele>1905.1</ele>
        <time>2018-08-08T13:18:05.000Z</time>
      </trkpt>
      <trkpt lat="42.70116" lon="0.66436">
        <ele>1905.1</ele>
        <time>2018-08-08T13:18:06.000Z</time>
      </trkpt>
      <trkpt lat="42.70117" lon="0.66435">
        <ele>1905</ele>
        <time>2018-08-08T13:18:07.000Z</time>
      </trkpt>
      <trkpt lat="42.70118" lon="0.66435">
        <ele>1905</ele>
        <time>2018-08-08T13:18:08.000Z</time>
      </trkpt>
      <trkpt lat="42.70119" lon="0.66434">
        <ele>1904.9</ele>
        <time>2018-08-08T13:18:09.000Z</time>
      </trkpt>
      <trkpt lat="42.7012" lon="0.66434">
        <ele>1904.8</ele>
        <time>2018-08-08T13:18:10.000Z</time>
      </trkpt>
      <trkpt lat="42.7012" lon="0.66433">
        <ele>1904.8</ele>
        <time>2018-08-08T13:18:11.000Z</time>
      </trkpt>
      <trkpt lat="42.70121" lon="0.66433">
        <ele>1904.8</ele>
        <time>2018-08-08T13:18:12.000Z</time>
      </trkpt>
      <trkpt lat="42.70121" lon="0.66432">
        <ele>1904.8</ele>
        <time>2018-08-08T13:18:13.000Z</time>
      </trkpt>
      <trkpt lat="42.70122" lon="0.66432">
        <ele>1904.8</ele>
        <time>2018-08-08T13:18:14.000Z</time>
      </trkpt>
      <trkpt lat="42.70122" lon="0.66431">
        <ele>1904.9</ele>
        <time>2018-08-08T13:18:15.000Z</time>
      </trkpt>
      <trkpt lat="42.70122" lon="0.66431">
        <ele>1905</ele>
        <time>2018-08-08T13:18:16.000Z</time>
      </trkpt>
      <trkpt lat="42.70122" lon="0.66431">
        <ele>1905.1</ele>
        <time>2018-08-08T13:18:17.000Z</time>
      </trkpt>
      <trkpt lat="42.70121" lon="0.66431">
        <ele>1905.3</ele>
        <time>2018-08-08T13:18:18.000Z</time>
      </trkpt>
      <trkpt lat="42.70121" lon="0.6643">
        <ele>1905.5</ele>
        <time>2018-08-08T13:18:19.000Z</time>
      </trkpt>
      <trkpt lat="42.7012" lon="0.6643">
        <ele>1905.8</ele>
        <time>2018-08-08T13:18:20.000Z</time>
      </trkpt>
      <trkpt lat="42.7012" lon="0.6643">
        <ele>1906.1</ele>
        <time>2018-08-08T13:18:21.000Z</time>
      </trkpt>
      <trkpt lat="42.7012" lon="0.66429">
        <ele>1906.3</ele>
        <time>2018-08-08T13:18:22.000Z</time>
      </trkpt>
      <trkpt lat="42.70119" lon="0.66429">
        <ele>1906.5</ele>
        <time>2018-08-08T13:18:23.000Z</time>
      </trkpt>
      <trkpt lat="42.70119" lon="0.66428">
        <ele>1906.6</ele>
        <time>2018-08-08T13:18:24.000Z</time>
      </trkpt>
      <trkpt lat="42.70119" lon="0.66428">
        <ele>1906.7</ele>
        <time>2018-08-08T13:18:25.000Z</time>
      </trkpt>
      <trkpt lat="42.7012" lon="0.66428">
        <ele>1906.8</ele>
        <time>2018-08-08T13:18:26.000Z</time>
      </trkpt>
      <trkpt lat="42.7012" lon="0.66427">
        <ele>1906.8</ele>
        <time>2018-08-08T13:18:27.000Z</time>
      </trkpt>
      <trkpt lat="42.7012" lon="0.66427">
        <ele>1906.8</ele>
        <time>2018-08-08T13:18:28.000Z</time>
      </trkpt>
      <trkpt lat="42.7012" lon="0.66427">
        <ele>1906.8</ele>
        <time>2018-08-08T13:18:29.000Z</time>
      </trkpt>
      <trkpt lat="42.7012" lon="0.66427">
        <ele>1906.9</ele>
        <time>2018-08-08T13:18:30.000Z</time>
      </trkpt>
      <trkpt lat="42.7012" lon="0.66427">
        <ele>1906.9</ele>
        <time>2018-08-08T13:18:31.000Z</time>
      </trkpt>
      <trkpt lat="42.7012" lon="0.66426">
        <ele>1907</ele>
        <time>2018-08-08T13:18:32.000Z</time>
      </trkpt>
      <trkpt lat="42.70121" lon="0.66426">
        <ele>1907.1</ele>
        <time>2018-08-08T13:18:33.000Z</time>
      </trkpt>
      <trkpt lat="42.70121" lon="0.66425">
        <ele>1907.3</ele>
        <time>2018-08-08T13:18:34.000Z</time>
      </trkpt>
      <trkpt lat="42.70121" lon="0.66425">
        <ele>1907.4</ele>
        <time>2018-08-08T13:18:35.000Z</time>
      </trkpt>
      <trkpt lat="42.70121" lon="0.66424">
        <ele>1907.6</ele>
        <time>2018-08-08T13:18:36.000Z</time>
      </trkpt>
      <trkpt lat="42.70121" lon="0.66424">
        <ele>1907.7</ele>
        <time>2018-08-08T13:18:37.000Z</time>
      </trkpt>
      <trkpt lat="42.70121" lon="0.66423">
        <ele>1907.8</ele>
        <time>2018-08-08T13:18:38.000Z</time>
      </trkpt>
      <trkpt lat="42.70121" lon="0.66423">
        <ele>1907.9</ele>
        <time>2018-08-08T13:18:39.000Z</time>
      </trkpt>
      <trkpt lat="42.70121" lon="0.66423">
        <ele>1908.1</ele>
        <time>2018-08-08T13:18:40.000Z</time>
      </trkpt>
      <trkpt lat="42.70121" lon="0.66422">
        <ele>1908.2</ele>
        <time>2018-08-08T13:18:41.000Z</time>
      </trkpt>
      <trkpt lat="42.70121" lon="0.66422">
        <ele>1908.3</ele>
        <time>2018-08-08T13:18:42.000Z</time>
      </trkpt>
      <trkpt lat="42.70121" lon="0.66422">
        <ele>1908.4</ele>
        <time>2018-08-08T13:18:43.000Z</time>
      </trkpt>
      <trkpt lat="42.70121" lon="0.66421">
        <ele>1908.4</ele>
        <time>2018-08-08T13:18:44.000Z</time>
      </trkpt>
      <trkpt lat="42.70121" lon="0.66421">
        <ele>1908.5</ele>
        <time>2018-08-08T13:18:45.000Z</time>
      </trkpt>
      <trkpt lat="42.70121" lon="0.66421">
        <ele>1908.5</ele>
        <time>2018-08-08T13:18:46.000Z</time>
      </trkpt>
      <trkpt lat="42.70121" lon="0.66421">
        <ele>1908.5</ele>
        <time>2018-08-08T13:18:47.000Z</time>
      </trkpt>
      <trkpt lat="42.70121" lon="0.66421">
        <ele>1908.6</ele>
        <time>2018-08-08T13:18:48.000Z</time>
      </trkpt>
      <trkpt lat="42.70122" lon="0.66421">
        <ele>1908.6</ele>
        <time>2018-08-08T13:18:49.000Z</time>
      </trkpt>
      <trkpt lat="42.70122" lon="0.66421">
        <ele>1908.6</ele>
        <time>2018-08-08T13:18:50.000Z</time>
      </trkpt>
      <trkpt lat="42.70122" lon="0.6642">
        <ele>1908.6</ele>
        <time>2018-08-08T13:18:51.000Z</time>
      </trkpt>
      <trkpt lat="42.70122" lon="0.6642">
        <ele>1908.7</ele>
        <time>2018-08-08T13:18:52.000Z</time>
      </trkpt>
      <trkpt lat="42.70122" lon="0.6642">
        <ele>1908.8</ele>
        <time>2018-08-08T13:18:53.000Z</time>
      </trkpt>
      <trkpt lat="42.70122" lon="0.6642">
        <ele>1908.8</ele>
        <time>2018-08-08T13:18:54.000Z</time>
      </trkpt>
      <trkpt lat="42.70122" lon="0.6642">
        <ele>1908.9</ele>
        <time>2018-08-08T13:18:55.000Z</time>
      </trkpt>
      <trkpt lat="42.70122" lon="0.6642">
        <ele>1908.9</ele>
        <time>2018-08-08T13:18:56.000Z</time>
      </trkpt>
      <trkpt lat="42.70122" lon="0.66419">
        <ele>1909</ele>
        <time>2018-08-08T13:18:57.000Z</time>
      </trkpt>
      <trkpt lat="42.70122" lon="0.66419">
        <ele>1909.1</ele>
        <time>2018-08-08T13:18:58.000Z</time>
      </trkpt>
      <trkpt lat="42.70122" lon="0.66419">
        <ele>1909.2</ele>
        <time>2018-08-08T13:18:59.000Z</time>
      </trkpt>
      <trkpt lat="42.70121" lon="0.66419">
        <ele>1909.3</ele>
        <time>2018-08-08T13:19:00.000Z</time>
      </trkpt>
      <trkpt lat="42.70121" lon="0.66419">
        <ele>1909.4</ele>
        <time>2018-08-08T13:19:01.000Z</time>
      </trkpt>
      <trkpt lat="42.70121" lon="0.66418">
        <ele>1909.4</ele>
        <time>2018-08-08T13:19:02.000Z</time>
      </trkpt>
      <trkpt lat="42.70121" lon="0.66418">
        <ele>1909.5</ele>
        <time>2018-08-08T13:19:03.000Z</time>
      </trkpt>
      <trkpt lat="42.70121" lon="0.66418">
        <ele>1909.6</ele>
        <time>2018-08-08T13:19:04.000Z</time>
      </trkpt>
      <trkpt lat="42.70121" lon="0.66418">
        <ele>1909.7</ele>
        <time>2018-08-08T13:19:05.000Z</time>
      </trkpt>
      <trkpt lat="42.70121" lon="0.66418">
        <ele>1909.7</ele>
        <time>2018-08-08T13:19:06.000Z</time>
      </trkpt>
      <trkpt lat="42.70121" lon="0.66418">
        <ele>1909.8</ele>
        <time>2018-08-08T13:19:07.000Z</time>
      </trkpt>
      <trkpt lat="42.70121" lon="0.66418">
        <ele>1909.8</ele>
        <time>2018-08-08T13:19:08.000Z</time>
      </trkpt>
      <trkpt lat="42.70121" lon="0.66417">
        <ele>1909.8</ele>
        <time>2018-08-08T13:19:09.000Z</time>
      </trkpt>
      <trkpt lat="42.70121" lon="0.66417">
        <ele>1909.9</ele>
        <time>2018-08-08T13:19:10.000Z</time>
      </trkpt>
      <trkpt lat="42.70121" lon="0.66417">
        <ele>1909.9</ele>
        <time>2018-08-08T13:19:11.000Z</time>
      </trkpt>
      <trkpt lat="42.70121" lon="0.66417">
        <ele>1909.9</ele>
        <time>2018-08-08T13:19:12.000Z</time>
      </trkpt>
      <trkpt lat="42.70121" lon="0.66417">
        <ele>1910</ele>
        <time>2018-08-08T13:19:13.000Z</time>
      </trkpt>
      <trkpt lat="42.70121" lon="0.66417">
        <ele>1910</ele>
        <time>2018-08-08T13:19:14.000Z</time>
      </trkpt>
      <trkpt lat="42.7012" lon="0.66417">
        <ele>1910</ele>
        <time>2018-08-08T13:19:15.000Z</time>
      </trkpt>
      <trkpt lat="42.7012" lon="0.66417">
        <ele>1910.1</ele>
        <time>2018-08-08T13:19:16.000Z</time>
      </trkpt>
      <trkpt lat="42.7012" lon="0.66417">
        <ele>1910.1</ele>
        <time>2018-08-08T13:19:17.000Z</time>
      </trkpt>
      <trkpt lat="42.7012" lon="0.66417">
        <ele>1910.2</ele>
        <time>2018-08-08T13:19:18.000Z</time>
      </trkpt>
      <trkpt lat="42.70119" lon="0.66417">
        <ele>1910.3</ele>
        <time>2018-08-08T13:19:19.000Z</time>
      </trkpt>
      <trkpt lat="42.70119" lon="0.66418">
        <ele>1910.3</ele>
        <time>2018-08-08T13:19:20.000Z</time>
      </trkpt>
      <trkpt lat="42.70118" lon="0.66418">
        <ele>1910.5</ele>
        <time>2018-08-08T13:19:21.000Z</time>
      </trkpt>
      <trkpt lat="42.70118" lon="0.66418">
        <ele>1910.6</ele>
        <time>2018-08-08T13:19:22.000Z</time>
      </trkpt>
      <trkpt lat="42.70117" lon="0.66418">
        <ele>1910.7</ele>
        <time>2018-08-08T13:19:23.000Z</time>
      </trkpt>
      <trkpt lat="42.70117" lon="0.66418">
        <ele>1910.8</ele>
        <time>2018-08-08T13:19:24.000Z</time>
      </trkpt>
      <trkpt lat="42.70116" lon="0.66418">
        <ele>1911</ele>
        <time>2018-08-08T13:19:25.000Z</time>
      </trkpt>
      <trkpt lat="42.70115" lon="0.66418">
        <ele>1911.2</ele>
        <time>2018-08-08T13:19:26.000Z</time>
      </trkpt>
      <trkpt lat="42.70115" lon="0.66418">
        <ele>1911.3</ele>
        <time>2018-08-08T13:19:27.000Z</time>
      </trkpt>
      <trkpt lat="42.70114" lon="0.66418">
        <ele>1911.5</ele>
        <time>2018-08-08T13:19:28.000Z</time>
      </trkpt>
      <trkpt lat="42.70113" lon="0.66418">
        <ele>1911.7</ele>
        <time>2018-08-08T13:19:29.000Z</time>
      </trkpt>
      <trkpt lat="42.70112" lon="0.66418">
        <ele>1912</ele>
        <time>2018-08-08T13:19:30.000Z</time>
      </trkpt>
      <trkpt lat="42.70112" lon="0.66418">
        <ele>1912.2</ele>
        <time>2018-08-08T13:19:31.000Z</time>
      </trkpt>
      <trkpt lat="42.70111" lon="0.66418">
        <ele>1912.4</ele>
        <time>2018-08-08T13:19:32.000Z</time>
      </trkpt>
      <trkpt lat="42.7011" lon="0.66418">
        <ele>1912.6</ele>
        <time>2018-08-08T13:19:33.000Z</time>
      </trkpt>
      <trkpt lat="42.7011" lon="0.66417">
        <ele>1912.9</ele>
        <time>2018-08-08T13:19:34.000Z</time>
      </trkpt>
      <trkpt lat="42.70109" lon="0.66417">
        <ele>1913.1</ele>
        <time>2018-08-08T13:19:35.000Z</time>
      </trkpt>
      <trkpt lat="42.70108" lon="0.66417">
        <ele>1913.3</ele>
        <time>2018-08-08T13:19:36.000Z</time>
      </trkpt>
      <trkpt lat="42.70108" lon="0.66416">
        <ele>1913.7</ele>
        <time>2018-08-08T13:19:37.000Z</time>
      </trkpt>
      <trkpt lat="42.70107" lon="0.66416">
        <ele>1914</ele>
        <time>2018-08-08T13:19:38.000Z</time>
      </trkpt>
      <trkpt lat="42.70107" lon="0.66416">
        <ele>1914.3</ele>
        <time>2018-08-08T13:19:39.000Z</time>
      </trkpt>
      <trkpt lat="42.70106" lon="0.66416">
        <ele>1914.6</ele>
        <time>2018-08-08T13:19:40.000Z</time>
      </trkpt>
      <trkpt lat="42.70106" lon="0.66415">
        <ele>1914.9</ele>
        <time>2018-08-08T13:19:41.000Z</time>
      </trkpt>
      <trkpt lat="42.70105" lon="0.66415">
        <ele>1915.2</ele>
        <time>2018-08-08T13:19:42.000Z</time>
      </trkpt>
      <trkpt lat="42.70104" lon="0.66415">
        <ele>1915.5</ele>
        <time>2018-08-08T13:19:43.000Z</time>
      </trkpt>
      <trkpt lat="42.70104" lon="0.66414">
        <ele>1915.8</ele>
        <time>2018-08-08T13:19:44.000Z</time>
      </trkpt>
      <trkpt lat="42.70104" lon="0.66414">
        <ele>1916.2</ele>
        <time>2018-08-08T13:19:45.000Z</time>
      </trkpt>
      <trkpt lat="42.70104" lon="0.66413">
        <ele>1916.5</ele>
        <time>2018-08-08T13:19:46.000Z</time>
      </trkpt>
      <trkpt lat="42.70104" lon="0.66413">
        <ele>1916.9</ele>
        <time>2018-08-08T13:19:47.000Z</time>
      </trkpt>
      <trkpt lat="42.70104" lon="0.66412">
        <ele>1917.1</ele>
        <time>2018-08-08T13:19:48.000Z</time>
      </trkpt>
      <trkpt lat="42.70104" lon="0.66412">
        <ele>1917.4</ele>
        <time>2018-08-08T13:19:49.000Z</time>
      </trkpt>
      <trkpt lat="42.70105" lon="0.66411">
        <ele>1917.7</ele>
        <time>2018-08-08T13:19:50.000Z</time>
      </trkpt>
      <trkpt lat="42.70105" lon="0.6641">
        <ele>1917.9</ele>
        <time>2018-08-08T13:19:51.000Z</time>
      </trkpt>
      <trkpt lat="42.70106" lon="0.6641">
        <ele>1918</ele>
        <time>2018-08-08T13:19:52.000Z</time>
      </trkpt>
      <trkpt lat="42.70107" lon="0.66409">
        <ele>1918.2</ele>
        <time>2018-08-08T13:19:53.000Z</time>
      </trkpt>
      <trkpt lat="42.70107" lon="0.66409">
        <ele>1918.2</ele>
        <time>2018-08-08T13:19:54.000Z</time>
      </trkpt>
      <trkpt lat="42.70108" lon="0.66408">
        <ele>1918.3</ele>
        <time>2018-08-08T13:19:55.000Z</time>
      </trkpt>
      <trkpt lat="42.70109" lon="0.66408">
        <ele>1918.3</ele>
        <time>2018-08-08T13:19:56.000Z</time>
      </trkpt>
      <trkpt lat="42.70109" lon="0.66408">
        <ele>1918.3</ele>
        <time>2018-08-08T13:19:57.000Z</time>
      </trkpt>
      <trkpt lat="42.7011" lon="0.66408">
        <ele>1918.2</ele>
        <time>2018-08-08T13:19:58.000Z</time>
      </trkpt>
      <trkpt lat="42.7011" lon="0.66408">
        <ele>1918.2</ele>
        <time>2018-08-08T13:19:59.000Z</time>
      </trkpt>
      <trkpt lat="42.7011" lon="0.66408">
        <ele>1918.1</ele>
        <time>2018-08-08T13:20:00.000Z</time>
      </trkpt>
      <trkpt lat="42.70111" lon="0.66407">
        <ele>1918.1</ele>
        <time>2018-08-08T13:20:01.000Z</time>
      </trkpt>
      <trkpt lat="42.70111" lon="0.66407">
        <ele>1918</ele>
        <time>2018-08-08T13:20:02.000Z</time>
      </trkpt>
      <trkpt lat="42.70111" lon="0.66407">
        <ele>1918</ele>
        <time>2018-08-08T13:20:03.000Z</time>
      </trkpt>
      <trkpt lat="42.70112" lon="0.66407">
        <ele>1918.1</ele>
        <time>2018-08-08T13:20:04.000Z</time>
      </trkpt>
      <trkpt lat="42.70112" lon="0.66407">
        <ele>1918.2</ele>
        <time>2018-08-08T13:20:05.000Z</time>
      </trkpt>
      <trkpt lat="42.70113" lon="0.66406">
        <ele>1918.4</ele>
        <time>2018-08-08T13:20:06.000Z</time>
      </trkpt>
      <trkpt lat="42.70113" lon="0.66405">
        <ele>1918.6</ele>
        <time>2018-08-08T13:20:07.000Z</time>
      </trkpt>
      <trkpt lat="42.70113" lon="0.66405">
        <ele>1918.8</ele>
        <time>2018-08-08T13:20:08.000Z</time>
      </trkpt>
      <trkpt lat="42.70114" lon="0.66404">
        <ele>1919</ele>
        <time>2018-08-08T13:20:09.000Z</time>
      </trkpt>
      <trkpt lat="42.70115" lon="0.66403">
        <ele>1919.4</ele>
        <time>2018-08-08T13:20:10.000Z</time>
      </trkpt>
      <trkpt lat="42.70115" lon="0.66403">
        <ele>1919.6</ele>
        <time>2018-08-08T13:20:11.000Z</time>
      </trkpt>
      <trkpt lat="42.70116" lon="0.66402">
        <ele>1919.9</ele>
        <time>2018-08-08T13:20:12.000Z</time>
      </trkpt>
      <trkpt lat="42.70116" lon="0.66401">
        <ele>1920.3</ele>
        <time>2018-08-08T13:20:13.000Z</time>
      </trkpt>
      <trkpt lat="42.70117" lon="0.664">
        <ele>1920.6</ele>
        <time>2018-08-08T13:20:14.000Z</time>
      </trkpt>
      <trkpt lat="42.70117" lon="0.66399">
        <ele>1921</ele>
        <time>2018-08-08T13:20:15.000Z</time>
      </trkpt>
      <trkpt lat="42.70118" lon="0.66398">
        <ele>1921.3</ele>
        <time>2018-08-08T13:20:16.000Z</time>
      </trkpt>
      <trkpt lat="42.70118" lon="0.66398">
        <ele>1921.7</ele>
        <time>2018-08-08T13:20:17.000Z</time>
      </trkpt>
      <trkpt lat="42.70119" lon="0.66397">
        <ele>1922</ele>
        <time>2018-08-08T13:20:18.000Z</time>
      </trkpt>
      <trkpt lat="42.70119" lon="0.66396">
        <ele>1922.4</ele>
        <time>2018-08-08T13:20:19.000Z</time>
      </trkpt>
      <trkpt lat="42.7012" lon="0.66395">
        <ele>1922.8</ele>
        <time>2018-08-08T13:20:20.000Z</time>
      </trkpt>
      <trkpt lat="42.7012" lon="0.66394">
        <ele>1923.1</ele>
        <time>2018-08-08T13:20:21.000Z</time>
      </trkpt>
      <trkpt lat="42.70121" lon="0.66393">
        <ele>1923.5</ele>
        <time>2018-08-08T13:20:22.000Z</time>
      </trkpt>
      <trkpt lat="42.70121" lon="0.66392">
        <ele>1923.9</ele>
        <time>2018-08-08T13:20:23.000Z</time>
      </trkpt>
      <trkpt lat="42.70122" lon="0.66391">
        <ele>1924.2</ele>
        <time>2018-08-08T13:20:24.000Z</time>
      </trkpt>
      <trkpt lat="42.70122" lon="0.66391">
        <ele>1924.5</ele>
        <time>2018-08-08T13:20:25.000Z</time>
      </trkpt>
      <trkpt lat="42.70123" lon="0.6639">
        <ele>1924.9</ele>
        <time>2018-08-08T13:20:26.000Z</time>
      </trkpt>
      <trkpt lat="42.70123" lon="0.66389">
        <ele>1925.2</ele>
        <time>2018-08-08T13:20:27.000Z</time>
      </trkpt>
      <trkpt lat="42.70124" lon="0.66388">
        <ele>1925.6</ele>
        <time>2018-08-08T13:20:28.000Z</time>
      </trkpt>
      <trkpt lat="42.70124" lon="0.66387">
        <ele>1925.9</ele>
        <time>2018-08-08T13:20:29.000Z</time>
      </trkpt>
      <trkpt lat="42.70125" lon="0.66386">
        <ele>1926.2</ele>
        <time>2018-08-08T13:20:30.000Z</time>
      </trkpt>
      <trkpt lat="42.70125" lon="0.66386">
        <ele>1926.5</ele>
        <time>2018-08-08T13:20:31.000Z</time>
      </trkpt>
      <trkpt lat="42.70126" lon="0.66385">
        <ele>1926.8</ele>
        <time>2018-08-08T13:20:32.000Z</time>
      </trkpt>
      <trkpt lat="42.70127" lon="0.66384">
        <ele>1927</ele>
        <time>2018-08-08T13:20:33.000Z</time>
      </trkpt>
      <trkpt lat="42.70127" lon="0.66383">
        <ele>1927.2</ele>
        <time>2018-08-08T13:20:34.000Z</time>
      </trkpt>
      <trkpt lat="42.70128" lon="0.66383">
        <ele>1927.4</ele>
        <time>2018-08-08T13:20:35.000Z</time>
      </trkpt>
      <trkpt lat="42.70129" lon="0.66382">
        <ele>1927.6</ele>
        <time>2018-08-08T13:20:36.000Z</time>
      </trkpt>
      <trkpt lat="42.70129" lon="0.66381">
        <ele>1927.8</ele>
        <time>2018-08-08T13:20:37.000Z</time>
      </trkpt>
      <trkpt lat="42.7013" lon="0.66381">
        <ele>1927.9</ele>
        <time>2018-08-08T13:20:38.000Z</time>
      </trkpt>
      <trkpt lat="42.70131" lon="0.6638">
        <ele>1928.1</ele>
        <time>2018-08-08T13:20:39.000Z</time>
      </trkpt>
      <trkpt lat="42.70131" lon="0.66379">
        <ele>1928.3</ele>
        <time>2018-08-08T13:20:40.000Z</time>
      </trkpt>
      <trkpt lat="42.70132" lon="0.66379">
        <ele>1928.4</ele>
        <time>2018-08-08T13:20:41.000Z</time>
      </trkpt>
      <trkpt lat="42.70133" lon="0.66379">
        <ele>1928.4</ele>
        <time>2018-08-08T13:20:42.000Z</time>
      </trkpt>
      <trkpt lat="42.70133" lon="0.66378">
        <ele>1928.6</ele>
        <time>2018-08-08T13:20:43.000Z</time>
      </trkpt>
      <trkpt lat="42.70134" lon="0.66378">
        <ele>1928.6</ele>
        <time>2018-08-08T13:20:44.000Z</time>
      </trkpt>
      <trkpt lat="42.70134" lon="0.66377">
        <ele>1928.7</ele>
        <time>2018-08-08T13:20:45.000Z</time>
      </trkpt>
      <trkpt lat="42.70134" lon="0.66377">
        <ele>1928.8</ele>
        <time>2018-08-08T13:20:46.000Z</time>
      </trkpt>
      <trkpt lat="42.70135" lon="0.66377">
        <ele>1928.8</ele>
        <time>2018-08-08T13:20:47.000Z</time>
      </trkpt>
      <trkpt lat="42.70135" lon="0.66377">
        <ele>1928.8</ele>
        <time>2018-08-08T13:20:48.000Z</time>
      </trkpt>
      <trkpt lat="42.70135" lon="0.66377">
        <ele>1928.8</ele>
        <time>2018-08-08T13:20:49.000Z</time>
      </trkpt>
      <trkpt lat="42.70136" lon="0.66376">
        <ele>1928.9</ele>
        <time>2018-08-08T13:20:50.000Z</time>
      </trkpt>
      <trkpt lat="42.70136" lon="0.66376">
        <ele>1928.9</ele>
        <time>2018-08-08T13:20:51.000Z</time>
      </trkpt>
      <trkpt lat="42.70136" lon="0.66376">
        <ele>1929</ele>
        <time>2018-08-08T13:20:52.000Z</time>
      </trkpt>
      <trkpt lat="42.70137" lon="0.66376">
        <ele>1929</ele>
        <time>2018-08-08T13:20:53.000Z</time>
      </trkpt>
      <trkpt lat="42.70137" lon="0.66375">
        <ele>1929</ele>
        <time>2018-08-08T13:20:54.000Z</time>
      </trkpt>
      <trkpt lat="42.70137" lon="0.66375">
        <ele>1929.1</ele>
        <time>2018-08-08T13:20:55.000Z</time>
      </trkpt>
      <trkpt lat="42.70138" lon="0.66375">
        <ele>1929.2</ele>
        <time>2018-08-08T13:20:56.000Z</time>
      </trkpt>
      <trkpt lat="42.70138" lon="0.66374">
        <ele>1929.3</ele>
        <time>2018-08-08T13:20:57.000Z</time>
      </trkpt>
      <trkpt lat="42.70138" lon="0.66374">
        <ele>1929.4</ele>
        <time>2018-08-08T13:20:58.000Z</time>
      </trkpt>
      <trkpt lat="42.70138" lon="0.66374">
        <ele>1929.5</ele>
        <time>2018-08-08T13:20:59.000Z</time>
      </trkpt>
      <trkpt lat="42.70138" lon="0.66374">
        <ele>1929.6</ele>
        <time>2018-08-08T13:21:00.000Z</time>
      </trkpt>
      <trkpt lat="42.70138" lon="0.66374">
        <ele>1929.8</ele>
        <time>2018-08-08T13:21:01.000Z</time>
      </trkpt>
      <trkpt lat="42.70138" lon="0.66374">
        <ele>1929.8</ele>
        <time>2018-08-08T13:21:02.000Z</time>
      </trkpt>
      <trkpt lat="42.70138" lon="0.66373">
        <ele>1930</ele>
        <time>2018-08-08T13:21:03.000Z</time>
      </trkpt>
      <trkpt lat="42.70137" lon="0.66373">
        <ele>1930.2</ele>
        <time>2018-08-08T13:21:04.000Z</time>
      </trkpt>
      <trkpt lat="42.70137" lon="0.66373">
        <ele>1930.4</ele>
        <time>2018-08-08T13:21:05.000Z</time>
      </trkpt>
      <trkpt lat="42.70137" lon="0.66373">
        <ele>1930.5</ele>
        <time>2018-08-08T13:21:06.000Z</time>
      </trkpt>
      <trkpt lat="42.70137" lon="0.66372">
        <ele>1930.7</ele>
        <time>2018-08-08T13:21:07.000Z</time>
      </trkpt>
      <trkpt lat="42.70137" lon="0.66372">
        <ele>1930.9</ele>
        <time>2018-08-08T13:21:08.000Z</time>
      </trkpt>
      <trkpt lat="42.70136" lon="0.66372">
        <ele>1931.1</ele>
        <time>2018-08-08T13:21:09.000Z</time>
      </trkpt>
      <trkpt lat="42.70136" lon="0.66372">
        <ele>1931.2</ele>
        <time>2018-08-08T13:21:10.000Z</time>
      </trkpt>
      <trkpt lat="42.70136" lon="0.66372">
        <ele>1931.4</ele>
        <time>2018-08-08T13:21:11.000Z</time>
      </trkpt>
      <trkpt lat="42.70136" lon="0.66372">
        <ele>1931.5</ele>
        <time>2018-08-08T13:21:12.000Z</time>
      </trkpt>
      <trkpt lat="42.70135" lon="0.66371">
        <ele>1931.7</ele>
        <time>2018-08-08T13:21:13.000Z</time>
      </trkpt>
      <trkpt lat="42.70135" lon="0.66371">
        <ele>1931.8</ele>
        <time>2018-08-08T13:21:14.000Z</time>
      </trkpt>
      <trkpt lat="42.70135" lon="0.66371">
        <ele>1932</ele>
        <time>2018-08-08T13:21:15.000Z</time>
      </trkpt>
      <trkpt lat="42.70135" lon="0.66371">
        <ele>1932.1</ele>
        <time>2018-08-08T13:21:16.000Z</time>
      </trkpt>
      <trkpt lat="42.70135" lon="0.66371">
        <ele>1932.1</ele>
        <time>2018-08-08T13:21:17.000Z</time>
      </trkpt>
      <trkpt lat="42.70135" lon="0.66371">
        <ele>1932.2</ele>
        <time>2018-08-08T13:21:18.000Z</time>
      </trkpt>
      <trkpt lat="42.70135" lon="0.66371">
        <ele>1932.2</ele>
        <time>2018-08-08T13:21:19.000Z</time>
      </trkpt>
      <trkpt lat="42.70135" lon="0.66371">
        <ele>1932.3</ele>
        <time>2018-08-08T13:21:20.000Z</time>
      </trkpt>
      <trkpt lat="42.70135" lon="0.66371">
        <ele>1932.3</ele>
        <time>2018-08-08T13:21:21.000Z</time>
      </trkpt>
      <trkpt lat="42.70135" lon="0.66371">
        <ele>1932.3</ele>
        <time>2018-08-08T13:21:22.000Z</time>
      </trkpt>
      <trkpt lat="42.70135" lon="0.66371">
        <ele>1932.3</ele>
        <time>2018-08-08T13:21:23.000Z</time>
      </trkpt>
      <trkpt lat="42.70135" lon="0.66371">
        <ele>1932.2</ele>
        <time>2018-08-08T13:21:24.000Z</time>
      </trkpt>
      <trkpt lat="42.70135" lon="0.66371">
        <ele>1932.2</ele>
        <time>2018-08-08T13:21:25.000Z</time>
      </trkpt>
      <trkpt lat="42.70135" lon="0.66371">
        <ele>1932.2</ele>
        <time>2018-08-08T13:21:26.000Z</time>
      </trkpt>
      <trkpt lat="42.70135" lon="0.66371">
        <ele>1932.2</ele>
        <time>2018-08-08T13:21:27.000Z</time>
      </trkpt>
      <trkpt lat="42.70135" lon="0.66371">
        <ele>1932.2</ele>
        <time>2018-08-08T13:21:28.000Z</time>
      </trkpt>
      <trkpt lat="42.70135" lon="0.66371">
        <ele>1932.2</ele>
        <time>2018-08-08T13:21:29.000Z</time>
      </trkpt>
      <trkpt lat="42.70135" lon="0.66371">
        <ele>1932.2</ele>
        <time>2018-08-08T13:21:30.000Z</time>
      </trkpt>
      <trkpt lat="42.70135" lon="0.66371">
        <ele>1932.2</ele>
        <time>2018-08-08T13:21:31.000Z</time>
      </trkpt>
      <trkpt lat="42.70135" lon="0.66371">
        <ele>1932.2</ele>
        <time>2018-08-08T13:21:32.000Z</time>
      </trkpt>
      <trkpt lat="42.70135" lon="0.66371">
        <ele>1932.2</ele>
        <time>2018-08-08T13:21:33.000Z</time>
      </trkpt>
      <trkpt lat="42.70135" lon="0.66371">
        <ele>1932.2</ele>
        <time>2018-08-08T13:21:34.000Z</time>
      </trkpt>
      <trkpt lat="42.70135" lon="0.66371">
        <ele>1932.2</ele>
        <time>2018-08-08T13:21:35.000Z</time>
      </trkpt>
      <trkpt lat="42.70134" lon="0.66371">
        <ele>1932.3</ele>
        <time>2018-08-08T13:21:36.000Z</time>
      </trkpt>
      <trkpt lat="42.70134" lon="0.66371">
        <ele>1932.3</ele>
        <time>2018-08-08T13:21:37.000Z</time>
      </trkpt>
      <trkpt lat="42.70134" lon="0.66371">
        <ele>1932.3</ele>
        <time>2018-08-08T13:21:38.000Z</time>
      </trkpt>
      <trkpt lat="42.70134" lon="0.66371">
        <ele>1932.2</ele>
        <time>2018-08-08T13:21:39.000Z</time>
      </trkpt>
      <trkpt lat="42.70134" lon="0.66371">
        <ele>1932.2</ele>
        <time>2018-08-08T13:21:40.000Z</time>
      </trkpt>
      <trkpt lat="42.70134" lon="0.66371">
        <ele>1932.2</ele>
        <time>2018-08-08T13:21:41.000Z</time>
      </trkpt>
      <trkpt lat="42.70135" lon="0.66371">
        <ele>1932</ele>
        <time>2018-08-08T13:21:42.000Z</time>
      </trkpt>
      <trkpt lat="42.70135" lon="0.66371">
        <ele>1932</ele>
        <time>2018-08-08T13:21:43.000Z</time>
      </trkpt>
      <trkpt lat="42.70135" lon="0.66372">
        <ele>1931.8</ele>
        <time>2018-08-08T13:21:44.000Z</time>
      </trkpt>
      <trkpt lat="42.70135" lon="0.66372">
        <ele>1931.7</ele>
        <time>2018-08-08T13:21:45.000Z</time>
      </trkpt>
      <trkpt lat="42.70135" lon="0.66372">
        <ele>1931.6</ele>
        <time>2018-08-08T13:21:46.000Z</time>
      </trkpt>
      <trkpt lat="42.70135" lon="0.66372">
        <ele>1931.5</ele>
        <time>2018-08-08T13:21:47.000Z</time>
      </trkpt>
      <trkpt lat="42.70135" lon="0.66372">
        <ele>1931.5</ele>
        <time>2018-08-08T13:21:48.000Z</time>
      </trkpt>
      <trkpt lat="42.70135" lon="0.66372">
        <ele>1931.5</ele>
        <time>2018-08-08T13:21:49.000Z</time>
      </trkpt>
      <trkpt lat="42.70135" lon="0.66372">
        <ele>1931.4</ele>
        <time>2018-08-08T13:21:50.000Z</time>
      </trkpt>
      <trkpt lat="42.70135" lon="0.66372">
        <ele>1931.4</ele>
        <time>2018-08-08T13:21:51.000Z</time>
      </trkpt>
      <trkpt lat="42.70135" lon="0.66372">
        <ele>1931.3</ele>
        <time>2018-08-08T13:21:52.000Z</time>
      </trkpt>
      <trkpt lat="42.70135" lon="0.66372">
        <ele>1931.3</ele>
        <time>2018-08-08T13:21:53.000Z</time>
      </trkpt>
      <trkpt lat="42.70135" lon="0.66372">
        <ele>1931.3</ele>
        <time>2018-08-08T13:21:54.000Z</time>
      </trkpt>
      <trkpt lat="42.70135" lon="0.66373">
        <ele>1931.2</ele>
        <time>2018-08-08T13:21:55.000Z</time>
      </trkpt>
      <trkpt lat="42.70135" lon="0.66373">
        <ele>1931.2</ele>
        <time>2018-08-08T13:21:56.000Z</time>
      </trkpt>
      <trkpt lat="42.70135" lon="0.66373">
        <ele>1931.3</ele>
        <time>2018-08-08T13:21:57.000Z</time>
      </trkpt>
      <trkpt lat="42.70135" lon="0.66373">
        <ele>1931.3</ele>
        <time>2018-08-08T13:21:58.000Z</time>
      </trkpt>
      <trkpt lat="42.70134" lon="0.66373">
        <ele>1931.3</ele>
        <time>2018-08-08T13:21:59.000Z</time>
      </trkpt>
      <trkpt lat="42.70134" lon="0.66373">
        <ele>1931.3</ele>
        <time>2018-08-08T13:22:00.000Z</time>
      </trkpt>
      <trkpt lat="42.70133" lon="0.66373">
        <ele>1931.5</ele>
        <time>2018-08-08T13:22:01.000Z</time>
      </trkpt>
      <trkpt lat="42.70133" lon="0.66373">
        <ele>1931.6</ele>
        <time>2018-08-08T13:22:02.000Z</time>
      </trkpt>
      <trkpt lat="42.70132" lon="0.66373">
        <ele>1931.6</ele>
        <time>2018-08-08T13:22:03.000Z</time>
      </trkpt>
      <trkpt lat="42.70132" lon="0.66373">
        <ele>1931.7</ele>
        <time>2018-08-08T13:22:04.000Z</time>
      </trkpt>
      <trkpt lat="42.70131" lon="0.66373">
        <ele>1931.9</ele>
        <time>2018-08-08T13:22:05.000Z</time>
      </trkpt>
      <trkpt lat="42.7013" lon="0.66373">
        <ele>1932</ele>
        <time>2018-08-08T13:22:06.000Z</time>
      </trkpt>
      <trkpt lat="42.7013" lon="0.66373">
        <ele>1932.2</ele>
        <time>2018-08-08T13:22:07.000Z</time>
      </trkpt>
      <trkpt lat="42.70129" lon="0.66373">
        <ele>1932.4</ele>
        <time>2018-08-08T13:22:08.000Z</time>
      </trkpt>
      <trkpt lat="42.70128" lon="0.66374">
        <ele>1932.5</ele>
        <time>2018-08-08T13:22:09.000Z</time>
      </trkpt>
      <trkpt lat="42.70127" lon="0.66374">
        <ele>1932.7</ele>
        <time>2018-08-08T13:22:10.000Z</time>
      </trkpt>
      <trkpt lat="42.70127" lon="0.66374">
        <ele>1932.8</ele>
        <time>2018-08-08T13:22:11.000Z</time>
      </trkpt>
      <trkpt lat="42.70126" lon="0.66374">
        <ele>1932.9</ele>
        <time>2018-08-08T13:22:12.000Z</time>
      </trkpt>
      <trkpt lat="42.70126" lon="0.66374">
        <ele>1933</ele>
        <time>2018-08-08T13:22:13.000Z</time>
      </trkpt>
      <trkpt lat="42.70126" lon="0.66374">
        <ele>1933.2</ele>
        <time>2018-08-08T13:22:14.000Z</time>
      </trkpt>
      <trkpt lat="42.70126" lon="0.66374">
        <ele>1933.2</ele>
        <time>2018-08-08T13:22:15.000Z</time>
      </trkpt>
      <trkpt lat="42.70125" lon="0.66373">
        <ele>1933.3</ele>
        <time>2018-08-08T13:22:16.000Z</time>
      </trkpt>
      <trkpt lat="42.70125" lon="0.66373">
        <ele>1933.5</ele>
        <time>2018-08-08T13:22:17.000Z</time>
      </trkpt>
      <trkpt lat="42.70124" lon="0.66373">
        <ele>1933.7</ele>
        <time>2018-08-08T13:22:18.000Z</time>
      </trkpt>
      <trkpt lat="42.70124" lon="0.66373">
        <ele>1934.1</ele>
        <time>2018-08-08T13:22:19.000Z</time>
      </trkpt>
      <trkpt lat="42.70123" lon="0.66373">
        <ele>1934.4</ele>
        <time>2018-08-08T13:22:20.000Z</time>
      </trkpt>
      <trkpt lat="42.70122" lon="0.66372">
        <ele>1934.7</ele>
        <time>2018-08-08T13:22:21.000Z</time>
      </trkpt>
      <trkpt lat="42.70122" lon="0.66372">
        <ele>1935</ele>
        <time>2018-08-08T13:22:22.000Z</time>
      </trkpt>
      <trkpt lat="42.70121" lon="0.66372">
        <ele>1935.3</ele>
        <time>2018-08-08T13:22:23.000Z</time>
      </trkpt>
      <trkpt lat="42.7012" lon="0.66372">
        <ele>1935.5</ele>
        <time>2018-08-08T13:22:24.000Z</time>
      </trkpt>
      <trkpt lat="42.70119" lon="0.66372">
        <ele>1935.7</ele>
        <time>2018-08-08T13:22:25.000Z</time>
      </trkpt>
      <trkpt lat="42.70119" lon="0.66372">
        <ele>1935.9</ele>
        <time>2018-08-08T13:22:26.000Z</time>
      </trkpt>
      <trkpt lat="42.70118" lon="0.66372">
        <ele>1935.9</ele>
        <time>2018-08-08T13:22:27.000Z</time>
      </trkpt>
      <trkpt lat="42.70117" lon="0.66373">
        <ele>1936</ele>
        <time>2018-08-08T13:22:28.000Z</time>
      </trkpt>
      <trkpt lat="42.70117" lon="0.66373">
        <ele>1936</ele>
        <time>2018-08-08T13:22:29.000Z</time>
      </trkpt>
      <trkpt lat="42.70116" lon="0.66373">
        <ele>1936.1</ele>
        <time>2018-08-08T13:22:30.000Z</time>
      </trkpt>
      <trkpt lat="42.70115" lon="0.66374">
        <ele>1936</ele>
        <time>2018-08-08T13:22:31.000Z</time>
      </trkpt>
      <trkpt lat="42.70115" lon="0.66374">
        <ele>1936</ele>
        <time>2018-08-08T13:22:32.000Z</time>
      </trkpt>
      <trkpt lat="42.70114" lon="0.66374">
        <ele>1935.9</ele>
        <time>2018-08-08T13:22:33.000Z</time>
      </trkpt>
      <trkpt lat="42.70113" lon="0.66375">
        <ele>1935.8</ele>
        <time>2018-08-08T13:22:34.000Z</time>
      </trkpt>
      <trkpt lat="42.70113" lon="0.66375">
        <ele>1935.8</ele>
        <time>2018-08-08T13:22:35.000Z</time>
      </trkpt>
      <trkpt lat="42.70112" lon="0.66376">
        <ele>1935.7</ele>
        <time>2018-08-08T13:22:36.000Z</time>
      </trkpt>
      <trkpt lat="42.70111" lon="0.66376">
        <ele>1935.6</ele>
        <time>2018-08-08T13:22:37.000Z</time>
      </trkpt>
      <trkpt lat="42.70111" lon="0.66377">
        <ele>1935.5</ele>
        <time>2018-08-08T13:22:38.000Z</time>
      </trkpt>
      <trkpt lat="42.7011" lon="0.66377">
        <ele>1935.5</ele>
        <time>2018-08-08T13:22:39.000Z</time>
      </trkpt>
      <trkpt lat="42.70109" lon="0.66378">
        <ele>1935.5</ele>
        <time>2018-08-08T13:22:40.000Z</time>
      </trkpt>
      <trkpt lat="42.70108" lon="0.66378">
        <ele>1935.5</ele>
        <time>2018-08-08T13:22:41.000Z</time>
      </trkpt>
      <trkpt lat="42.70108" lon="0.66378">
        <ele>1935.5</ele>
        <time>2018-08-08T13:22:42.000Z</time>
      </trkpt>
      <trkpt lat="42.70107" lon="0.66378">
        <ele>1935.6</ele>
        <time>2018-08-08T13:22:43.000Z</time>
      </trkpt>
      <trkpt lat="42.70106" lon="0.66378">
        <ele>1935.7</ele>
        <time>2018-08-08T13:22:44.000Z</time>
      </trkpt>
      <trkpt lat="42.70106" lon="0.66379">
        <ele>1935.9</ele>
        <time>2018-08-08T13:22:45.000Z</time>
      </trkpt>
      <trkpt lat="42.70105" lon="0.66378">
        <ele>1936.1</ele>
        <time>2018-08-08T13:22:46.000Z</time>
      </trkpt>
      <trkpt lat="42.70104" lon="0.66378">
        <ele>1936.3</ele>
        <time>2018-08-08T13:22:47.000Z</time>
      </trkpt>
      <trkpt lat="42.70104" lon="0.66378">
        <ele>1936.6</ele>
        <time>2018-08-08T13:22:48.000Z</time>
      </trkpt>
      <trkpt lat="42.70103" lon="0.66378">
        <ele>1937</ele>
        <time>2018-08-08T13:22:49.000Z</time>
      </trkpt>
      <trkpt lat="42.70103" lon="0.66377">
        <ele>1937.3</ele>
        <time>2018-08-08T13:22:50.000Z</time>
      </trkpt>
      <trkpt lat="42.70102" lon="0.66377">
        <ele>1937.7</ele>
        <time>2018-08-08T13:22:51.000Z</time>
      </trkpt>
      <trkpt lat="42.70102" lon="0.66376">
        <ele>1938.2</ele>
        <time>2018-08-08T13:22:52.000Z</time>
      </trkpt>
      <trkpt lat="42.70102" lon="0.66375">
        <ele>1938.7</ele>
        <time>2018-08-08T13:22:53.000Z</time>
      </trkpt>
      <trkpt lat="42.70102" lon="0.66375">
        <ele>1939.2</ele>
        <time>2018-08-08T13:22:54.000Z</time>
      </trkpt>
      <trkpt lat="42.70102" lon="0.66374">
        <ele>1939.8</ele>
        <time>2018-08-08T13:22:55.000Z</time>
      </trkpt>
      <trkpt lat="42.70102" lon="0.66372">
        <ele>1940.4</ele>
        <time>2018-08-08T13:22:56.000Z</time>
      </trkpt>
      <trkpt lat="42.70102" lon="0.66371">
        <ele>1941.1</ele>
        <time>2018-08-08T13:22:57.000Z</time>
      </trkpt>
      <trkpt lat="42.70102" lon="0.6637">
        <ele>1941.8</ele>
        <time>2018-08-08T13:22:58.000Z</time>
      </trkpt>
      <trkpt lat="42.70103" lon="0.66369">
        <ele>1942.3</ele>
        <time>2018-08-08T13:22:59.000Z</time>
      </trkpt>
      <trkpt lat="42.70103" lon="0.66368">
        <ele>1942.8</ele>
        <time>2018-08-08T13:23:00.000Z</time>
      </trkpt>
      <trkpt lat="42.70104" lon="0.66367">
        <ele>1943</ele>
        <time>2018-08-08T13:23:01.000Z</time>
      </trkpt>
      <trkpt lat="42.70104" lon="0.66366">
        <ele>1943.1</ele>
        <time>2018-08-08T13:23:02.000Z</time>
      </trkpt>
      <trkpt lat="42.70105" lon="0.66366">
        <ele>1943.3</ele>
        <time>2018-08-08T13:23:03.000Z</time>
      </trkpt>
      <trkpt lat="42.70105" lon="0.66365">
        <ele>1943.4</ele>
        <time>2018-08-08T13:23:04.000Z</time>
      </trkpt>
      <trkpt lat="42.70106" lon="0.66365">
        <ele>1943.5</ele>
        <time>2018-08-08T13:23:05.000Z</time>
      </trkpt>
      <trkpt lat="42.70107" lon="0.66364">
        <ele>1943.8</ele>
        <time>2018-08-08T13:23:06.000Z</time>
      </trkpt>
      <trkpt lat="42.70107" lon="0.66363">
        <ele>1944.2</ele>
        <time>2018-08-08T13:23:07.000Z</time>
      </trkpt>
      <trkpt lat="42.70108" lon="0.66362">
        <ele>1944.5</ele>
        <time>2018-08-08T13:23:08.000Z</time>
      </trkpt>
      <trkpt lat="42.70108" lon="0.66361">
        <ele>1944.9</ele>
        <time>2018-08-08T13:23:09.000Z</time>
      </trkpt>
      <trkpt lat="42.70109" lon="0.6636">
        <ele>1945.3</ele>
        <time>2018-08-08T13:23:10.000Z</time>
      </trkpt>
      <trkpt lat="42.70109" lon="0.66359">
        <ele>1945.7</ele>
        <time>2018-08-08T13:23:11.000Z</time>
      </trkpt>
      <trkpt lat="42.7011" lon="0.66358">
        <ele>1946.1</ele>
        <time>2018-08-08T13:23:12.000Z</time>
      </trkpt>
      <trkpt lat="42.7011" lon="0.66358">
        <ele>1946.4</ele>
        <time>2018-08-08T13:23:13.000Z</time>
      </trkpt>
      <trkpt lat="42.70111" lon="0.66357">
        <ele>1946.7</ele>
        <time>2018-08-08T13:23:14.000Z</time>
      </trkpt>
      <trkpt lat="42.70111" lon="0.66356">
        <ele>1947</ele>
        <time>2018-08-08T13:23:15.000Z</time>
      </trkpt>
      <trkpt lat="42.70112" lon="0.66356">
        <ele>1947.2</ele>
        <time>2018-08-08T13:23:16.000Z</time>
      </trkpt>
      <trkpt lat="42.70112" lon="0.66355">
        <ele>1947.5</ele>
        <time>2018-08-08T13:23:17.000Z</time>
      </trkpt>
      <trkpt lat="42.70112" lon="0.66355">
        <ele>1947.6</ele>
        <time>2018-08-08T13:23:18.000Z</time>
      </trkpt>
      <trkpt lat="42.70113" lon="0.66354">
        <ele>1947.9</ele>
        <time>2018-08-08T13:23:19.000Z</time>
      </trkpt>
      <trkpt lat="42.70113" lon="0.66354">
        <ele>1948</ele>
        <time>2018-08-08T13:23:20.000Z</time>
      </trkpt>
      <trkpt lat="42.70113" lon="0.66353">
        <ele>1948.2</ele>
        <time>2018-08-08T13:23:21.000Z</time>
      </trkpt>
      <trkpt lat="42.70113" lon="0.66353">
        <ele>1948.3</ele>
        <time>2018-08-08T13:23:22.000Z</time>
      </trkpt>
      <trkpt lat="42.70113" lon="0.66353">
        <ele>1948.4</ele>
        <time>2018-08-08T13:23:23.000Z</time>
      </trkpt>
      <trkpt lat="42.70114" lon="0.66353">
        <ele>1948.4</ele>
        <time>2018-08-08T13:23:24.000Z</time>
      </trkpt>
      <trkpt lat="42.70114" lon="0.66352">
        <ele>1948.5</ele>
        <time>2018-08-08T13:23:25.000Z</time>
      </trkpt>
      <trkpt lat="42.70114" lon="0.66352">
        <ele>1948.6</ele>
        <time>2018-08-08T13:23:26.000Z</time>
      </trkpt>
      <trkpt lat="42.70114" lon="0.66352">
        <ele>1948.5</ele>
        <time>2018-08-08T13:23:27.000Z</time>
      </trkpt>
      <trkpt lat="42.70114" lon="0.66352">
        <ele>1948.6</ele>
        <time>2018-08-08T13:23:28.000Z</time>
      </trkpt>
      <trkpt lat="42.70114" lon="0.66352">
        <ele>1948.6</ele>
        <time>2018-08-08T13:23:29.000Z</time>
      </trkpt>
      <trkpt lat="42.70114" lon="0.66352">
        <ele>1948.6</ele>
        <time>2018-08-08T13:23:30.000Z</time>
      </trkpt>
      <trkpt lat="42.70114" lon="0.66352">
        <ele>1948.6</ele>
        <time>2018-08-08T13:23:31.000Z</time>
      </trkpt>
      <trkpt lat="42.70114" lon="0.66352">
        <ele>1948.6</ele>
        <time>2018-08-08T13:23:32.000Z</time>
      </trkpt>
      <trkpt lat="42.70114" lon="0.66352">
        <ele>1948.6</ele>
        <time>2018-08-08T13:23:33.000Z</time>
      </trkpt>
      <trkpt lat="42.70114" lon="0.66352">
        <ele>1948.5</ele>
        <time>2018-08-08T13:23:34.000Z</time>
      </trkpt>
      <trkpt lat="42.70114" lon="0.66352">
        <ele>1948.5</ele>
        <time>2018-08-08T13:23:35.000Z</time>
      </trkpt>
      <trkpt lat="42.70114" lon="0.66352">
        <ele>1948.5</ele>
        <time>2018-08-08T13:23:36.000Z</time>
      </trkpt>
      <trkpt lat="42.70114" lon="0.66352">
        <ele>1948.5</ele>
        <time>2018-08-08T13:23:37.000Z</time>
      </trkpt>
      <trkpt lat="42.70114" lon="0.66352">
        <ele>1948.6</ele>
        <time>2018-08-08T13:23:38.000Z</time>
      </trkpt>
      <trkpt lat="42.70114" lon="0.66352">
        <ele>1948.6</ele>
        <time>2018-08-08T13:23:39.000Z</time>
      </trkpt>
      <trkpt lat="42.70114" lon="0.66352">
        <ele>1948.7</ele>
        <time>2018-08-08T13:23:40.000Z</time>
      </trkpt>
      <trkpt lat="42.70114" lon="0.66352">
        <ele>1948.7</ele>
        <time>2018-08-08T13:23:41.000Z</time>
      </trkpt>
      <trkpt lat="42.70114" lon="0.66352">
        <ele>1948.7</ele>
        <time>2018-08-08T13:23:42.000Z</time>
      </trkpt>
      <trkpt lat="42.70114" lon="0.66352">
        <ele>1948.8</ele>
        <time>2018-08-08T13:23:43.000Z</time>
      </trkpt>
      <trkpt lat="42.70113" lon="0.66352">
        <ele>1948.6</ele>
        <time>2018-08-08T13:23:44.000Z</time>
      </trkpt>
      <trkpt lat="42.70113" lon="0.66353">
        <ele>1948.6</ele>
        <time>2018-08-08T13:23:45.000Z</time>
      </trkpt>
      <trkpt lat="42.70113" lon="0.66353">
        <ele>1948.5</ele>
        <time>2018-08-08T13:23:46.000Z</time>
      </trkpt>
      <trkpt lat="42.70112" lon="0.66353">
        <ele>1948.5</ele>
        <time>2018-08-08T13:23:47.000Z</time>
      </trkpt>
      <trkpt lat="42.70112" lon="0.66353">
        <ele>1948.5</ele>
        <time>2018-08-08T13:23:48.000Z</time>
      </trkpt>
      <trkpt lat="42.70112" lon="0.66353">
        <ele>1948.5</ele>
        <time>2018-08-08T13:23:49.000Z</time>
      </trkpt>
      <trkpt lat="42.70111" lon="0.66354">
        <ele>1948.5</ele>
        <time>2018-08-08T13:23:50.000Z</time>
      </trkpt>
      <trkpt lat="42.70111" lon="0.66354">
        <ele>1948.5</ele>
        <time>2018-08-08T13:23:51.000Z</time>
      </trkpt>
      <trkpt lat="42.70111" lon="0.66354">
        <ele>1948.6</ele>
        <time>2018-08-08T13:23:52.000Z</time>
      </trkpt>
      <trkpt lat="42.70111" lon="0.66354">
        <ele>1948.6</ele>
        <time>2018-08-08T13:23:53.000Z</time>
      </trkpt>
      <trkpt lat="42.70111" lon="0.66353">
        <ele>1948.7</ele>
        <time>2018-08-08T13:23:54.000Z</time>
      </trkpt>
      <trkpt lat="42.70111" lon="0.66353">
        <ele>1948.7</ele>
        <time>2018-08-08T13:23:55.000Z</time>
      </trkpt>
      <trkpt lat="42.70111" lon="0.66353">
        <ele>1948.8</ele>
        <time>2018-08-08T13:23:56.000Z</time>
      </trkpt>
      <trkpt lat="42.70111" lon="0.66353">
        <ele>1948.8</ele>
        <time>2018-08-08T13:23:57.000Z</time>
      </trkpt>
      <trkpt lat="42.7011" lon="0.66353">
        <ele>1948.9</ele>
        <time>2018-08-08T13:23:58.000Z</time>
      </trkpt>
      <trkpt lat="42.7011" lon="0.66353">
        <ele>1949.1</ele>
        <time>2018-08-08T13:23:59.000Z</time>
      </trkpt>
      <trkpt lat="42.70109" lon="0.66353">
        <ele>1949.2</ele>
        <time>2018-08-08T13:24:00.000Z</time>
      </trkpt>
      <trkpt lat="42.70108" lon="0.66354">
        <ele>1949.3</ele>
        <time>2018-08-08T13:24:01.000Z</time>
      </trkpt>
      <trkpt lat="42.70108" lon="0.66354">
        <ele>1949.5</ele>
        <time>2018-08-08T13:24:02.000Z</time>
      </trkpt>
      <trkpt lat="42.70107" lon="0.66354">
        <ele>1949.6</ele>
        <time>2018-08-08T13:24:03.000Z</time>
      </trkpt>
      <trkpt lat="42.70106" lon="0.66354">
        <ele>1949.8</ele>
        <time>2018-08-08T13:24:04.000Z</time>
      </trkpt>
      <trkpt lat="42.70106" lon="0.66354">
        <ele>1949.8</ele>
        <time>2018-08-08T13:24:05.000Z</time>
      </trkpt>
      <trkpt lat="42.70105" lon="0.66354">
        <ele>1949.9</ele>
        <time>2018-08-08T13:24:06.000Z</time>
      </trkpt>
      <trkpt lat="42.70105" lon="0.66354">
        <ele>1949.9</ele>
        <time>2018-08-08T13:24:07.000Z</time>
      </trkpt>
      <trkpt lat="42.70105" lon="0.66354">
        <ele>1950</ele>
        <time>2018-08-08T13:24:08.000Z</time>
      </trkpt>
      <trkpt lat="42.70105" lon="0.66354">
        <ele>1950</ele>
        <time>2018-08-08T13:24:09.000Z</time>
      </trkpt>
      <trkpt lat="42.70105" lon="0.66354">
        <ele>1949.9</ele>
        <time>2018-08-08T13:24:10.000Z</time>
      </trkpt>
      <trkpt lat="42.70105" lon="0.66354">
        <ele>1950</ele>
        <time>2018-08-08T13:24:11.000Z</time>
      </trkpt>
      <trkpt lat="42.70105" lon="0.66354">
        <ele>1950</ele>
        <time>2018-08-08T13:24:12.000Z</time>
      </trkpt>
      <trkpt lat="42.70105" lon="0.66354">
        <ele>1950</ele>
        <time>2018-08-08T13:24:13.000Z</time>
      </trkpt>
      <trkpt lat="42.70105" lon="0.66354">
        <ele>1950</ele>
        <time>2018-08-08T13:24:14.000Z</time>
      </trkpt>
      <trkpt lat="42.70104" lon="0.66354">
        <ele>1950.1</ele>
        <time>2018-08-08T13:24:15.000Z</time>
      </trkpt>
      <trkpt lat="42.70104" lon="0.66354">
        <ele>1950.2</ele>
        <time>2018-08-08T13:24:16.000Z</time>
      </trkpt>
      <trkpt lat="42.70104" lon="0.66354">
        <ele>1950.3</ele>
        <time>2018-08-08T13:24:17.000Z</time>
      </trkpt>
      <trkpt lat="42.70103" lon="0.66354">
        <ele>1950.3</ele>
        <time>2018-08-08T13:24:18.000Z</time>
      </trkpt>
      <trkpt lat="42.70102" lon="0.66354">
        <ele>1950.5</ele>
        <time>2018-08-08T13:24:19.000Z</time>
      </trkpt>
      <trkpt lat="42.70102" lon="0.66355">
        <ele>1950.7</ele>
        <time>2018-08-08T13:24:20.000Z</time>
      </trkpt>
      <trkpt lat="42.70101" lon="0.66355">
        <ele>1950.9</ele>
        <time>2018-08-08T13:24:21.000Z</time>
      </trkpt>
      <trkpt lat="42.701" lon="0.66355">
        <ele>1951.1</ele>
        <time>2018-08-08T13:24:22.000Z</time>
      </trkpt>
      <trkpt lat="42.701" lon="0.66355">
        <ele>1951.3</ele>
        <time>2018-08-08T13:24:23.000Z</time>
      </trkpt>
      <trkpt lat="42.70099" lon="0.66355">
        <ele>1951.4</ele>
        <time>2018-08-08T13:24:24.000Z</time>
      </trkpt>
      <trkpt lat="42.70099" lon="0.66355">
        <ele>1951.4</ele>
        <time>2018-08-08T13:24:25.000Z</time>
      </trkpt>
      <trkpt lat="42.70099" lon="0.66355">
        <ele>1951.4</ele>
        <time>2018-08-08T13:24:26.000Z</time>
      </trkpt>
      <trkpt lat="42.70098" lon="0.66355">
        <ele>1951.5</ele>
        <time>2018-08-08T13:24:27.000Z</time>
      </trkpt>
      <trkpt lat="42.70098" lon="0.66355">
        <ele>1951.6</ele>
        <time>2018-08-08T13:24:28.000Z</time>
      </trkpt>
      <trkpt lat="42.70098" lon="0.66355">
        <ele>1951.6</ele>
        <time>2018-08-08T13:24:29.000Z</time>
      </trkpt>
      <trkpt lat="42.70097" lon="0.66355">
        <ele>1951.9</ele>
        <time>2018-08-08T13:24:30.000Z</time>
      </trkpt>
      <trkpt lat="42.70096" lon="0.66355">
        <ele>1952.1</ele>
        <time>2018-08-08T13:24:31.000Z</time>
      </trkpt>
      <trkpt lat="42.70096" lon="0.66354">
        <ele>1952.4</ele>
        <time>2018-08-08T13:24:32.000Z</time>
      </trkpt>
      <trkpt lat="42.70095" lon="0.66354">
        <ele>1952.7</ele>
        <time>2018-08-08T13:24:33.000Z</time>
      </trkpt>
      <trkpt lat="42.70094" lon="0.66354">
        <ele>1952.9</ele>
        <time>2018-08-08T13:24:34.000Z</time>
      </trkpt>
      <trkpt lat="42.70094" lon="0.66354">
        <ele>1953.1</ele>
        <time>2018-08-08T13:24:35.000Z</time>
      </trkpt>
      <trkpt lat="42.70094" lon="0.66354">
        <ele>1953.2</ele>
        <time>2018-08-08T13:24:36.000Z</time>
      </trkpt>
      <trkpt lat="42.70094" lon="0.66354">
        <ele>1953.2</ele>
        <time>2018-08-08T13:24:37.000Z</time>
      </trkpt>
      <trkpt lat="42.70093" lon="0.66354">
        <ele>1953.3</ele>
        <time>2018-08-08T13:24:38.000Z</time>
      </trkpt>
      <trkpt lat="42.70093" lon="0.66354">
        <ele>1953.3</ele>
        <time>2018-08-08T13:24:39.000Z</time>
      </trkpt>
      <trkpt lat="42.70093" lon="0.66354">
        <ele>1953.3</ele>
        <time>2018-08-08T13:24:40.000Z</time>
      </trkpt>
      <trkpt lat="42.70093" lon="0.66354">
        <ele>1953.3</ele>
        <time>2018-08-08T13:24:41.000Z</time>
      </trkpt>
      <trkpt lat="42.70093" lon="0.66354">
        <ele>1953.4</ele>
        <time>2018-08-08T13:24:42.000Z</time>
      </trkpt>
      <trkpt lat="42.70093" lon="0.66354">
        <ele>1953.4</ele>
        <time>2018-08-08T13:24:43.000Z</time>
      </trkpt>
      <trkpt lat="42.70093" lon="0.66354">
        <ele>1953.4</ele>
        <time>2018-08-08T13:24:44.000Z</time>
      </trkpt>
      <trkpt lat="42.70093" lon="0.66354">
        <ele>1953.4</ele>
        <time>2018-08-08T13:24:45.000Z</time>
      </trkpt>
      <trkpt lat="42.70093" lon="0.66354">
        <ele>1953.4</ele>
        <time>2018-08-08T13:24:46.000Z</time>
      </trkpt>
      <trkpt lat="42.70093" lon="0.66354">
        <ele>1953.4</ele>
        <time>2018-08-08T13:24:47.000Z</time>
      </trkpt>
      <trkpt lat="42.70093" lon="0.66354">
        <ele>1953.4</ele>
        <time>2018-08-08T13:24:48.000Z</time>
      </trkpt>
      <trkpt lat="42.70093" lon="0.66354">
        <ele>1953.4</ele>
        <time>2018-08-08T13:24:49.000Z</time>
      </trkpt>
      <trkpt lat="42.70093" lon="0.66354">
        <ele>1953.4</ele>
        <time>2018-08-08T13:24:50.000Z</time>
      </trkpt>
      <trkpt lat="42.70093" lon="0.66354">
        <ele>1953.5</ele>
        <time>2018-08-08T13:24:51.000Z</time>
      </trkpt>
      <trkpt lat="42.70093" lon="0.66354">
        <ele>1953.5</ele>
        <time>2018-08-08T13:24:52.000Z</time>
      </trkpt>
      <trkpt lat="42.70093" lon="0.66354">
        <ele>1953.5</ele>
        <time>2018-08-08T13:24:53.000Z</time>
      </trkpt>
      <trkpt lat="42.70093" lon="0.66354">
        <ele>1953.6</ele>
        <time>2018-08-08T13:24:54.000Z</time>
      </trkpt>
      <trkpt lat="42.70093" lon="0.66354">
        <ele>1953.7</ele>
        <time>2018-08-08T13:24:55.000Z</time>
      </trkpt>
      <trkpt lat="42.70093" lon="0.66354">
        <ele>1953.8</ele>
        <time>2018-08-08T13:24:56.000Z</time>
      </trkpt>
      <trkpt lat="42.70093" lon="0.66353">
        <ele>1953.9</ele>
        <time>2018-08-08T13:24:57.000Z</time>
      </trkpt>
      <trkpt lat="42.70092" lon="0.66353">
        <ele>1954</ele>
        <time>2018-08-08T13:24:58.000Z</time>
      </trkpt>
      <trkpt lat="42.70092" lon="0.66353">
        <ele>1954.1</ele>
        <time>2018-08-08T13:24:59.000Z</time>
      </trkpt>
      <trkpt lat="42.70092" lon="0.66353">
        <ele>1954.3</ele>
        <time>2018-08-08T13:25:00.000Z</time>
      </trkpt>
      <trkpt lat="42.70092" lon="0.66353">
        <ele>1954.5</ele>
        <time>2018-08-08T13:25:01.000Z</time>
      </trkpt>
      <trkpt lat="42.70091" lon="0.66353">
        <ele>1954.7</ele>
        <time>2018-08-08T13:25:02.000Z</time>
      </trkpt>
      <trkpt lat="42.70091" lon="0.66352">
        <ele>1955</ele>
        <time>2018-08-08T13:25:03.000Z</time>
      </trkpt>
      <trkpt lat="42.70091" lon="0.66352">
        <ele>1955.3</ele>
        <time>2018-08-08T13:25:04.000Z</time>
      </trkpt>
      <trkpt lat="42.7009" lon="0.66352">
        <ele>1955.6</ele>
        <time>2018-08-08T13:25:05.000Z</time>
      </trkpt>
      <trkpt lat="42.7009" lon="0.66351">
        <ele>1955.9</ele>
        <time>2018-08-08T13:25:06.000Z</time>
      </trkpt>
      <trkpt lat="42.7009" lon="0.66351">
        <ele>1956.1</ele>
        <time>2018-08-08T13:25:07.000Z</time>
      </trkpt>
      <trkpt lat="42.70089" lon="0.66351">
        <ele>1956.2</ele>
        <time>2018-08-08T13:25:08.000Z</time>
      </trkpt>
      <trkpt lat="42.70089" lon="0.66351">
        <ele>1956.3</ele>
        <time>2018-08-08T13:25:09.000Z</time>
      </trkpt>
      <trkpt lat="42.70088" lon="0.66351">
        <ele>1956.4</ele>
        <time>2018-08-08T13:25:10.000Z</time>
      </trkpt>
      <trkpt lat="42.70088" lon="0.66351">
        <ele>1956.4</ele>
        <time>2018-08-08T13:25:11.000Z</time>
      </trkpt>
      <trkpt lat="42.70088" lon="0.66351">
        <ele>1956.4</ele>
        <time>2018-08-08T13:25:12.000Z</time>
      </trkpt>
      <trkpt lat="42.70087" lon="0.66352">
        <ele>1956.3</ele>
        <time>2018-08-08T13:25:13.000Z</time>
      </trkpt>
      <trkpt lat="42.70087" lon="0.66352">
        <ele>1956.3</ele>
        <time>2018-08-08T13:25:14.000Z</time>
      </trkpt>
      <trkpt lat="42.70086" lon="0.66352">
        <ele>1956.2</ele>
        <time>2018-08-08T13:25:15.000Z</time>
      </trkpt>
      <trkpt lat="42.70086" lon="0.66353">
        <ele>1956.1</ele>
        <time>2018-08-08T13:25:16.000Z</time>
      </trkpt>
      <trkpt lat="42.70086" lon="0.66353">
        <ele>1956</ele>
        <time>2018-08-08T13:25:17.000Z</time>
      </trkpt>
      <trkpt lat="42.70085" lon="0.66353">
        <ele>1955.9</ele>
        <time>2018-08-08T13:25:18.000Z</time>
      </trkpt>
      <trkpt lat="42.70085" lon="0.66354">
        <ele>1955.8</ele>
        <time>2018-08-08T13:25:19.000Z</time>
      </trkpt>
      <trkpt lat="42.70085" lon="0.66354">
        <ele>1955.7</ele>
        <time>2018-08-08T13:25:20.000Z</time>
      </trkpt>
      <trkpt lat="42.70085" lon="0.66354">
        <ele>1955.7</ele>
        <time>2018-08-08T13:25:21.000Z</time>
      </trkpt>
      <trkpt lat="42.70085" lon="0.66354">
        <ele>1955.7</ele>
        <time>2018-08-08T13:25:22.000Z</time>
      </trkpt>
      <trkpt lat="42.70084" lon="0.66354">
        <ele>1955.6</ele>
        <time>2018-08-08T13:25:23.000Z</time>
      </trkpt>
      <trkpt lat="42.70084" lon="0.66354">
        <ele>1955.6</ele>
        <time>2018-08-08T13:25:24.000Z</time>
      </trkpt>
      <trkpt lat="42.70084" lon="0.66354">
        <ele>1955.6</ele>
        <time>2018-08-08T13:25:25.000Z</time>
      </trkpt>
      <trkpt lat="42.70084" lon="0.66354">
        <ele>1955.6</ele>
        <time>2018-08-08T13:25:26.000Z</time>
      </trkpt>
      <trkpt lat="42.70084" lon="0.66354">
        <ele>1955.7</ele>
        <time>2018-08-08T13:25:27.000Z</time>
      </trkpt>
      <trkpt lat="42.70084" lon="0.66354">
        <ele>1955.7</ele>
        <time>2018-08-08T13:25:28.000Z</time>
      </trkpt>
      <trkpt lat="42.70084" lon="0.66354">
        <ele>1955.7</ele>
        <time>2018-08-08T13:25:29.000Z</time>
      </trkpt>
      <trkpt lat="42.70084" lon="0.66354">
        <ele>1955.8</ele>
        <time>2018-08-08T13:25:30.000Z</time>
      </trkpt>
      <trkpt lat="42.70084" lon="0.66354">
        <ele>1955.9</ele>
        <time>2018-08-08T13:25:31.000Z</time>
      </trkpt>
      <trkpt lat="42.70084" lon="0.66354">
        <ele>1955.9</ele>
        <time>2018-08-08T13:25:32.000Z</time>
      </trkpt>
      <trkpt lat="42.70084" lon="0.66354">
        <ele>1955.9</ele>
        <time>2018-08-08T13:25:33.000Z</time>
      </trkpt>
      <trkpt lat="42.70084" lon="0.66354">
        <ele>1956</ele>
        <time>2018-08-08T13:25:34.000Z</time>
      </trkpt>
      <trkpt lat="42.70083" lon="0.66354">
        <ele>1956</ele>
        <time>2018-08-08T13:25:35.000Z</time>
      </trkpt>
      <trkpt lat="42.70083" lon="0.66354">
        <ele>1956.2</ele>
        <time>2018-08-08T13:25:36.000Z</time>
      </trkpt>
      <trkpt lat="42.70082" lon="0.66355">
        <ele>1956.2</ele>
        <time>2018-08-08T13:25:37.000Z</time>
      </trkpt>
      <trkpt lat="42.70082" lon="0.66355">
        <ele>1956.4</ele>
        <time>2018-08-08T13:25:38.000Z</time>
      </trkpt>
      <trkpt lat="42.70081" lon="0.66355">
        <ele>1956.7</ele>
        <time>2018-08-08T13:25:39.000Z</time>
      </trkpt>
      <trkpt lat="42.70081" lon="0.66355">
        <ele>1956.9</ele>
        <time>2018-08-08T13:25:40.000Z</time>
      </trkpt>
      <trkpt lat="42.70081" lon="0.66355">
        <ele>1957</ele>
        <time>2018-08-08T13:25:41.000Z</time>
      </trkpt>
      <trkpt lat="42.7008" lon="0.66355">
        <ele>1957.1</ele>
        <time>2018-08-08T13:25:42.000Z</time>
      </trkpt>
      <trkpt lat="42.7008" lon="0.66355">
        <ele>1957.1</ele>
        <time>2018-08-08T13:25:43.000Z</time>
      </trkpt>
      <trkpt lat="42.7008" lon="0.66355">
        <ele>1957.1</ele>
        <time>2018-08-08T13:25:44.000Z</time>
      </trkpt>
      <trkpt lat="42.7008" lon="0.66355">
        <ele>1957.2</ele>
        <time>2018-08-08T13:25:45.000Z</time>
      </trkpt>
      <trkpt lat="42.7008" lon="0.66355">
        <ele>1957.1</ele>
        <time>2018-08-08T13:25:46.000Z</time>
      </trkpt>
      <trkpt lat="42.7008" lon="0.66355">
        <ele>1957.2</ele>
        <time>2018-08-08T13:25:47.000Z</time>
      </trkpt>
      <trkpt lat="42.7008" lon="0.66355">
        <ele>1957.2</ele>
        <time>2018-08-08T13:25:48.000Z</time>
      </trkpt>
      <trkpt lat="42.7008" lon="0.66355">
        <ele>1957.2</ele>
        <time>2018-08-08T13:25:49.000Z</time>
      </trkpt>
      <trkpt lat="42.7008" lon="0.66355">
        <ele>1957.2</ele>
        <time>2018-08-08T13:25:50.000Z</time>
      </trkpt>
      <trkpt lat="42.7008" lon="0.66355">
        <ele>1957.2</ele>
        <time>2018-08-08T13:25:51.000Z</time>
      </trkpt>
      <trkpt lat="42.7008" lon="0.66355">
        <ele>1957.2</ele>
        <time>2018-08-08T13:25:52.000Z</time>
      </trkpt>
      <trkpt lat="42.7008" lon="0.66355">
        <ele>1957.2</ele>
        <time>2018-08-08T13:25:53.000Z</time>
      </trkpt>
      <trkpt lat="42.70079" lon="0.66355">
        <ele>1957.3</ele>
        <time>2018-08-08T13:25:54.000Z</time>
      </trkpt>
      <trkpt lat="42.70079" lon="0.66355">
        <ele>1957.4</ele>
        <time>2018-08-08T13:25:55.000Z</time>
      </trkpt>
      <trkpt lat="42.70079" lon="0.66356">
        <ele>1957.5</ele>
        <time>2018-08-08T13:25:56.000Z</time>
      </trkpt>
      <trkpt lat="42.70078" lon="0.66356">
        <ele>1957.7</ele>
        <time>2018-08-08T13:25:57.000Z</time>
      </trkpt>
      <trkpt lat="42.70077" lon="0.66356">
        <ele>1958</ele>
        <time>2018-08-08T13:25:58.000Z</time>
      </trkpt>
      <trkpt lat="42.70076" lon="0.66356">
        <ele>1958.3</ele>
        <time>2018-08-08T13:25:59.000Z</time>
      </trkpt>
      <trkpt lat="42.70075" lon="0.66357">
        <ele>1958.5</ele>
        <time>2018-08-08T13:26:00.000Z</time>
      </trkpt>
      <trkpt lat="42.70075" lon="0.66357">
        <ele>1958.7</ele>
        <time>2018-08-08T13:26:01.000Z</time>
      </trkpt>
      <trkpt lat="42.70074" lon="0.66357">
        <ele>1958.9</ele>
        <time>2018-08-08T13:26:02.000Z</time>
      </trkpt>
      <trkpt lat="42.70073" lon="0.66358">
        <ele>1959.1</ele>
        <time>2018-08-08T13:26:03.000Z</time>
      </trkpt>
      <trkpt lat="42.70073" lon="0.66358">
        <ele>1959.1</ele>
        <time>2018-08-08T13:26:04.000Z</time>
      </trkpt>
      <trkpt lat="42.70073" lon="0.66358">
        <ele>1959.1</ele>
        <time>2018-08-08T13:26:05.000Z</time>
      </trkpt>
      <trkpt lat="42.70072" lon="0.66358">
        <ele>1959.1</ele>
        <time>2018-08-08T13:26:06.000Z</time>
      </trkpt>
      <trkpt lat="42.70072" lon="0.66359">
        <ele>1959</ele>
        <time>2018-08-08T13:26:07.000Z</time>
      </trkpt>
      <trkpt lat="42.70072" lon="0.66359">
        <ele>1959</ele>
        <time>2018-08-08T13:26:08.000Z</time>
      </trkpt>
      <trkpt lat="42.70072" lon="0.66359">
        <ele>1958.9</ele>
        <time>2018-08-08T13:26:09.000Z</time>
      </trkpt>
      <trkpt lat="42.70072" lon="0.66359">
        <ele>1959</ele>
        <time>2018-08-08T13:26:10.000Z</time>
      </trkpt>
      <trkpt lat="42.70072" lon="0.66359">
        <ele>1959.1</ele>
        <time>2018-08-08T13:26:11.000Z</time>
      </trkpt>
      <trkpt lat="42.70072" lon="0.66359">
        <ele>1959.3</ele>
        <time>2018-08-08T13:26:12.000Z</time>
      </trkpt>
      <trkpt lat="42.70071" lon="0.66359">
        <ele>1959.6</ele>
        <time>2018-08-08T13:26:13.000Z</time>
      </trkpt>
      <trkpt lat="42.70071" lon="0.66358">
        <ele>1959.9</ele>
        <time>2018-08-08T13:26:14.000Z</time>
      </trkpt>
      <trkpt lat="42.7007" lon="0.66358">
        <ele>1960.2</ele>
        <time>2018-08-08T13:26:15.000Z</time>
      </trkpt>
      <trkpt lat="42.7007" lon="0.66358">
        <ele>1960.5</ele>
        <time>2018-08-08T13:26:16.000Z</time>
      </trkpt>
      <trkpt lat="42.7007" lon="0.66358">
        <ele>1960.8</ele>
        <time>2018-08-08T13:26:17.000Z</time>
      </trkpt>
      <trkpt lat="42.7007" lon="0.66357">
        <ele>1961.1</ele>
        <time>2018-08-08T13:26:18.000Z</time>
      </trkpt>
      <trkpt lat="42.7007" lon="0.66357">
        <ele>1961.4</ele>
        <time>2018-08-08T13:26:19.000Z</time>
      </trkpt>
      <trkpt lat="42.7007" lon="0.66356">
        <ele>1961.6</ele>
        <time>2018-08-08T13:26:20.000Z</time>
      </trkpt>
      <trkpt lat="42.7007" lon="0.66356">
        <ele>1961.9</ele>
        <time>2018-08-08T13:26:21.000Z</time>
      </trkpt>
      <trkpt lat="42.7007" lon="0.66355">
        <ele>1962</ele>
        <time>2018-08-08T13:26:22.000Z</time>
      </trkpt>
      <trkpt lat="42.7007" lon="0.66355">
        <ele>1962.2</ele>
        <time>2018-08-08T13:26:23.000Z</time>
      </trkpt>
      <trkpt lat="42.7007" lon="0.66354">
        <ele>1962.3</ele>
        <time>2018-08-08T13:26:24.000Z</time>
      </trkpt>
      <trkpt lat="42.7007" lon="0.66354">
        <ele>1962.4</ele>
        <time>2018-08-08T13:26:25.000Z</time>
      </trkpt>
      <trkpt lat="42.7007" lon="0.66354">
        <ele>1962.5</ele>
        <time>2018-08-08T13:26:26.000Z</time>
      </trkpt>
      <trkpt lat="42.7007" lon="0.66354">
        <ele>1962.5</ele>
        <time>2018-08-08T13:26:27.000Z</time>
      </trkpt>
      <trkpt lat="42.7007" lon="0.66354">
        <ele>1962.5</ele>
        <time>2018-08-08T13:26:28.000Z</time>
      </trkpt>
      <trkpt lat="42.7007" lon="0.66354">
        <ele>1962.5</ele>
        <time>2018-08-08T13:26:29.000Z</time>
      </trkpt>
      <trkpt lat="42.7007" lon="0.66354">
        <ele>1962.5</ele>
        <time>2018-08-08T13:26:30.000Z</time>
      </trkpt>
      <trkpt lat="42.7007" lon="0.66354">
        <ele>1962.5</ele>
        <time>2018-08-08T13:26:31.000Z</time>
      </trkpt>
      <trkpt lat="42.7007" lon="0.66354">
        <ele>1962.5</ele>
        <time>2018-08-08T13:26:32.000Z</time>
      </trkpt>
      <trkpt lat="42.7007" lon="0.66354">
        <ele>1962.5</ele>
        <time>2018-08-08T13:26:33.000Z</time>
      </trkpt>
      <trkpt lat="42.7007" lon="0.66354">
        <ele>1962.6</ele>
        <time>2018-08-08T13:26:34.000Z</time>
      </trkpt>
      <trkpt lat="42.7007" lon="0.66354">
        <ele>1962.6</ele>
        <time>2018-08-08T13:26:35.000Z</time>
      </trkpt>
      <trkpt lat="42.7007" lon="0.66354">
        <ele>1962.7</ele>
        <time>2018-08-08T13:26:36.000Z</time>
      </trkpt>
      <trkpt lat="42.7007" lon="0.66353">
        <ele>1962.7</ele>
        <time>2018-08-08T13:26:37.000Z</time>
      </trkpt>
      <trkpt lat="42.7007" lon="0.66353">
        <ele>1962.8</ele>
        <time>2018-08-08T13:26:38.000Z</time>
      </trkpt>
      <trkpt lat="42.7007" lon="0.66353">
        <ele>1962.8</ele>
        <time>2018-08-08T13:26:39.000Z</time>
      </trkpt>
      <trkpt lat="42.7007" lon="0.66353">
        <ele>1962.9</ele>
        <time>2018-08-08T13:26:40.000Z</time>
      </trkpt>
      <trkpt lat="42.7007" lon="0.66353">
        <ele>1963</ele>
        <time>2018-08-08T13:26:41.000Z</time>
      </trkpt>
      <trkpt lat="42.7007" lon="0.66353">
        <ele>1963.3</ele>
        <time>2018-08-08T13:26:42.000Z</time>
      </trkpt>
      <trkpt lat="42.70069" lon="0.66353">
        <ele>1963.5</ele>
        <time>2018-08-08T13:26:43.000Z</time>
      </trkpt>
      <trkpt lat="42.70069" lon="0.66353">
        <ele>1963.7</ele>
        <time>2018-08-08T13:26:44.000Z</time>
      </trkpt>
      <trkpt lat="42.70068" lon="0.66353">
        <ele>1963.7</ele>
        <time>2018-08-08T13:26:45.000Z</time>
      </trkpt>
      <trkpt lat="42.70068" lon="0.66353">
        <ele>1963.7</ele>
        <time>2018-08-08T13:26:46.000Z</time>
      </trkpt>
      <trkpt lat="42.70068" lon="0.66353">
        <ele>1963.7</ele>
        <time>2018-08-08T13:26:47.000Z</time>
      </trkpt>
      <trkpt lat="42.70068" lon="0.66353">
        <ele>1963.9</ele>
        <time>2018-08-08T13:26:48.000Z</time>
      </trkpt>
      <trkpt lat="42.70068" lon="0.66353">
        <ele>1964</ele>
        <time>2018-08-08T13:26:49.000Z</time>
      </trkpt>
      <trkpt lat="42.70068" lon="0.66353">
        <ele>1964.1</ele>
        <time>2018-08-08T13:26:50.000Z</time>
      </trkpt>
      <trkpt lat="42.70067" lon="0.66353">
        <ele>1964.3</ele>
        <time>2018-08-08T13:26:51.000Z</time>
      </trkpt>
      <trkpt lat="42.70067" lon="0.66353">
        <ele>1964.5</ele>
        <time>2018-08-08T13:26:52.000Z</time>
      </trkpt>
      <trkpt lat="42.70067" lon="0.66353">
        <ele>1964.6</ele>
        <time>2018-08-08T13:26:53.000Z</time>
      </trkpt>
      <trkpt lat="42.70067" lon="0.66353">
        <ele>1964.7</ele>
        <time>2018-08-08T13:26:54.000Z</time>
      </trkpt>
      <trkpt lat="42.70067" lon="0.66353">
        <ele>1964.7</ele>
        <time>2018-08-08T13:26:55.000Z</time>
      </trkpt>
      <trkpt lat="42.70067" lon="0.66353">
        <ele>1964.7</ele>
        <time>2018-08-08T13:26:56.000Z</time>
      </trkpt>
      <trkpt lat="42.70067" lon="0.66353">
        <ele>1964.7</ele>
        <time>2018-08-08T13:26:57.000Z</time>
      </trkpt>
      <trkpt lat="42.70067" lon="0.66353">
        <ele>1964.7</ele>
        <time>2018-08-08T13:26:58.000Z</time>
      </trkpt>
      <trkpt lat="42.70067" lon="0.66353">
        <ele>1964.6</ele>
        <time>2018-08-08T13:26:59.000Z</time>
      </trkpt>
      <trkpt lat="42.70066" lon="0.66353">
        <ele>1964.7</ele>
        <time>2018-08-08T13:27:00.000Z</time>
      </trkpt>
      <trkpt lat="42.70066" lon="0.66354">
        <ele>1964.9</ele>
        <time>2018-08-08T13:27:01.000Z</time>
      </trkpt>
      <trkpt lat="42.70065" lon="0.66354">
        <ele>1965</ele>
        <time>2018-08-08T13:27:02.000Z</time>
      </trkpt>
      <trkpt lat="42.70064" lon="0.66355">
        <ele>1965.4</ele>
        <time>2018-08-08T13:27:03.000Z</time>
      </trkpt>
      <trkpt lat="42.70063" lon="0.66355">
        <ele>1965.5</ele>
        <time>2018-08-08T13:27:04.000Z</time>
      </trkpt>
      <trkpt lat="42.70062" lon="0.66355">
        <ele>1965.7</ele>
        <time>2018-08-08T13:27:05.000Z</time>
      </trkpt>
      <trkpt lat="42.70062" lon="0.66355">
        <ele>1965.9</ele>
        <time>2018-08-08T13:27:06.000Z</time>
      </trkpt>
      <trkpt lat="42.70062" lon="0.66355">
        <ele>1965.9</ele>
        <time>2018-08-08T13:27:07.000Z</time>
      </trkpt>
      <trkpt lat="42.70062" lon="0.66355">
        <ele>1965.9</ele>
        <time>2018-08-08T13:27:08.000Z</time>
      </trkpt>
      <trkpt lat="42.70061" lon="0.66356">
        <ele>1965.9</ele>
        <time>2018-08-08T13:27:09.000Z</time>
      </trkpt>
      <trkpt lat="42.70061" lon="0.66356">
        <ele>1966</ele>
        <time>2018-08-08T13:27:10.000Z</time>
      </trkpt>
      <trkpt lat="42.70061" lon="0.66356">
        <ele>1966</ele>
        <time>2018-08-08T13:27:11.000Z</time>
      </trkpt>
      <trkpt lat="42.70061" lon="0.66356">
        <ele>1966.1</ele>
        <time>2018-08-08T13:27:12.000Z</time>
      </trkpt>
      <trkpt lat="42.70061" lon="0.66356">
        <ele>1966.2</ele>
        <time>2018-08-08T13:27:13.000Z</time>
      </trkpt>
      <trkpt lat="42.70061" lon="0.66356">
        <ele>1966.2</ele>
        <time>2018-08-08T13:27:14.000Z</time>
      </trkpt>
      <trkpt lat="42.7006" lon="0.66356">
        <ele>1966.3</ele>
        <time>2018-08-08T13:27:15.000Z</time>
      </trkpt>
      <trkpt lat="42.7006" lon="0.66356">
        <ele>1966.3</ele>
        <time>2018-08-08T13:27:16.000Z</time>
      </trkpt>
      <trkpt lat="42.7006" lon="0.66356">
        <ele>1966.4</ele>
        <time>2018-08-08T13:27:17.000Z</time>
      </trkpt>
      <trkpt lat="42.7006" lon="0.66356">
        <ele>1966.5</ele>
        <time>2018-08-08T13:27:18.000Z</time>
      </trkpt>
      <trkpt lat="42.7006" lon="0.66356">
        <ele>1966.6</ele>
        <time>2018-08-08T13:27:19.000Z</time>
      </trkpt>
      <trkpt lat="42.7006" lon="0.66356">
        <ele>1966.7</ele>
        <time>2018-08-08T13:27:20.000Z</time>
      </trkpt>
      <trkpt lat="42.70059" lon="0.66356">
        <ele>1966.8</ele>
        <time>2018-08-08T13:27:21.000Z</time>
      </trkpt>
      <trkpt lat="42.70059" lon="0.66356">
        <ele>1966.9</ele>
        <time>2018-08-08T13:27:22.000Z</time>
      </trkpt>
      <trkpt lat="42.70058" lon="0.66356">
        <ele>1967.2</ele>
        <time>2018-08-08T13:27:23.000Z</time>
      </trkpt>
      <trkpt lat="42.70058" lon="0.66356">
        <ele>1967.3</ele>
        <time>2018-08-08T13:27:24.000Z</time>
      </trkpt>
      <trkpt lat="42.70058" lon="0.66356">
        <ele>1967.5</ele>
        <time>2018-08-08T13:27:25.000Z</time>
      </trkpt>
      <trkpt lat="42.70058" lon="0.66356">
        <ele>1967.5</ele>
        <time>2018-08-08T13:27:26.000Z</time>
      </trkpt>
      <trkpt lat="42.70058" lon="0.66356">
        <ele>1967.5</ele>
        <time>2018-08-08T13:27:27.000Z</time>
      </trkpt>
      <trkpt lat="42.70058" lon="0.66356">
        <ele>1967.5</ele>
        <time>2018-08-08T13:27:28.000Z</time>
      </trkpt>
      <trkpt lat="42.70058" lon="0.66356">
        <ele>1967.5</ele>
        <time>2018-08-08T13:27:29.000Z</time>
      </trkpt>
      <trkpt lat="42.70057" lon="0.66356">
        <ele>1967.5</ele>
        <time>2018-08-08T13:27:30.000Z</time>
      </trkpt>
      <trkpt lat="42.70057" lon="0.66356">
        <ele>1967.6</ele>
        <time>2018-08-08T13:27:31.000Z</time>
      </trkpt>
      <trkpt lat="42.70057" lon="0.66356">
        <ele>1967.6</ele>
        <time>2018-08-08T13:27:32.000Z</time>
      </trkpt>
      <trkpt lat="42.70057" lon="0.66356">
        <ele>1967.7</ele>
        <time>2018-08-08T13:27:33.000Z</time>
      </trkpt>
      <trkpt lat="42.70057" lon="0.66356">
        <ele>1967.8</ele>
        <time>2018-08-08T13:27:34.000Z</time>
      </trkpt>
      <trkpt lat="42.70057" lon="0.66356">
        <ele>1967.9</ele>
        <time>2018-08-08T13:27:35.000Z</time>
      </trkpt>
      <trkpt lat="42.70056" lon="0.66356">
        <ele>1968</ele>
        <time>2018-08-08T13:27:36.000Z</time>
      </trkpt>
      <trkpt lat="42.70056" lon="0.66356">
        <ele>1968.1</ele>
        <time>2018-08-08T13:27:37.000Z</time>
      </trkpt>
      <trkpt lat="42.70056" lon="0.66356">
        <ele>1968.2</ele>
        <time>2018-08-08T13:27:38.000Z</time>
      </trkpt>
      <trkpt lat="42.70056" lon="0.66356">
        <ele>1968.3</ele>
        <time>2018-08-08T13:27:39.000Z</time>
      </trkpt>
      <trkpt lat="42.70055" lon="0.66356">
        <ele>1968.4</ele>
        <time>2018-08-08T13:27:40.000Z</time>
      </trkpt>
      <trkpt lat="42.70055" lon="0.66356">
        <ele>1968.5</ele>
        <time>2018-08-08T13:27:41.000Z</time>
      </trkpt>
      <trkpt lat="42.70055" lon="0.66356">
        <ele>1968.6</ele>
        <time>2018-08-08T13:27:42.000Z</time>
      </trkpt>
      <trkpt lat="42.70055" lon="0.66356">
        <ele>1968.6</ele>
        <time>2018-08-08T13:27:43.000Z</time>
      </trkpt>
      <trkpt lat="42.70055" lon="0.66356">
        <ele>1968.7</ele>
        <time>2018-08-08T13:27:44.000Z</time>
      </trkpt>
      <trkpt lat="42.70055" lon="0.66356">
        <ele>1968.7</ele>
        <time>2018-08-08T13:27:45.000Z</time>
      </trkpt>
      <trkpt lat="42.70055" lon="0.66357">
        <ele>1968.7</ele>
        <time>2018-08-08T13:27:46.000Z</time>
      </trkpt>
      <trkpt lat="42.70055" lon="0.66357">
        <ele>1968.7</ele>
        <time>2018-08-08T13:27:47.000Z</time>
      </trkpt>
      <trkpt lat="42.70055" lon="0.66357">
        <ele>1968.7</ele>
        <time>2018-08-08T13:27:48.000Z</time>
      </trkpt>
      <trkpt lat="42.70055" lon="0.66357">
        <ele>1968.7</ele>
        <time>2018-08-08T13:27:49.000Z</time>
      </trkpt>
      <trkpt lat="42.70055" lon="0.66357">
        <ele>1968.7</ele>
        <time>2018-08-08T13:27:50.000Z</time>
      </trkpt>
      <trkpt lat="42.70054" lon="0.66357">
        <ele>1968.7</ele>
        <time>2018-08-08T13:27:51.000Z</time>
      </trkpt>
      <trkpt lat="42.70054" lon="0.66357">
        <ele>1968.8</ele>
        <time>2018-08-08T13:27:52.000Z</time>
      </trkpt>
      <trkpt lat="42.70053" lon="0.66358">
        <ele>1968.9</ele>
        <time>2018-08-08T13:27:53.000Z</time>
      </trkpt>
      <trkpt lat="42.70053" lon="0.66358">
        <ele>1968.9</ele>
        <time>2018-08-08T13:27:54.000Z</time>
      </trkpt>
      <trkpt lat="42.70053" lon="0.66358">
        <ele>1969</ele>
        <time>2018-08-08T13:27:55.000Z</time>
      </trkpt>
      <trkpt lat="42.70053" lon="0.66358">
        <ele>1969</ele>
        <time>2018-08-08T13:27:56.000Z</time>
      </trkpt>
      <trkpt lat="42.70053" lon="0.66358">
        <ele>1968.9</ele>
        <time>2018-08-08T13:27:57.000Z</time>
      </trkpt>
      <trkpt lat="42.70053" lon="0.66358">
        <ele>1968.9</ele>
        <time>2018-08-08T13:27:58.000Z</time>
      </trkpt>
      <trkpt lat="42.70053" lon="0.66358">
        <ele>1968.9</ele>
        <time>2018-08-08T13:27:59.000Z</time>
      </trkpt>
      <trkpt lat="42.70053" lon="0.66358">
        <ele>1968.9</ele>
        <time>2018-08-08T13:28:00.000Z</time>
      </trkpt>
      <trkpt lat="42.70052" lon="0.66358">
        <ele>1968.9</ele>
        <time>2018-08-08T13:28:01.000Z</time>
      </trkpt>
      <trkpt lat="42.70052" lon="0.66358">
        <ele>1968.9</ele>
        <time>2018-08-08T13:28:02.000Z</time>
      </trkpt>
      <trkpt lat="42.70052" lon="0.66359">
        <ele>1969</ele>
        <time>2018-08-08T13:28:03.000Z</time>
      </trkpt>
      <trkpt lat="42.70052" lon="0.66359">
        <ele>1969.1</ele>
        <time>2018-08-08T13:28:04.000Z</time>
      </trkpt>
      <trkpt lat="42.70052" lon="0.66359">
        <ele>1969.1</ele>
        <time>2018-08-08T13:28:05.000Z</time>
      </trkpt>
      <trkpt lat="42.70052" lon="0.66359">
        <ele>1969.2</ele>
        <time>2018-08-08T13:28:06.000Z</time>
      </trkpt>
      <trkpt lat="42.70051" lon="0.66359">
        <ele>1969.2</ele>
        <time>2018-08-08T13:28:07.000Z</time>
      </trkpt>
      <trkpt lat="42.70051" lon="0.66359">
        <ele>1969.3</ele>
        <time>2018-08-08T13:28:08.000Z</time>
      </trkpt>
      <trkpt lat="42.70051" lon="0.66359">
        <ele>1969.4</ele>
        <time>2018-08-08T13:28:09.000Z</time>
      </trkpt>
      <trkpt lat="42.70051" lon="0.66359">
        <ele>1969.4</ele>
        <time>2018-08-08T13:28:10.000Z</time>
      </trkpt>
      <trkpt lat="42.70051" lon="0.66359">
        <ele>1969.5</ele>
        <time>2018-08-08T13:28:11.000Z</time>
      </trkpt>
      <trkpt lat="42.7005" lon="0.66359">
        <ele>1969.6</ele>
        <time>2018-08-08T13:28:12.000Z</time>
      </trkpt>
      <trkpt lat="42.7005" lon="0.66359">
        <ele>1969.6</ele>
        <time>2018-08-08T13:28:13.000Z</time>
      </trkpt>
      <trkpt lat="42.7005" lon="0.66359">
        <ele>1969.6</ele>
        <time>2018-08-08T13:28:14.000Z</time>
      </trkpt>
      <trkpt lat="42.7005" lon="0.66359">
        <ele>1969.7</ele>
        <time>2018-08-08T13:28:15.000Z</time>
      </trkpt>
      <trkpt lat="42.7005" lon="0.66359">
        <ele>1969.7</ele>
        <time>2018-08-08T13:28:16.000Z</time>
      </trkpt>
      <trkpt lat="42.7005" lon="0.6636">
        <ele>1969.6</ele>
        <time>2018-08-08T13:28:17.000Z</time>
      </trkpt>
      <trkpt lat="42.7005" lon="0.6636">
        <ele>1969.6</ele>
        <time>2018-08-08T13:28:18.000Z</time>
      </trkpt>
      <trkpt lat="42.70049" lon="0.66361">
        <ele>1969.7</ele>
        <time>2018-08-08T13:28:19.000Z</time>
      </trkpt>
      <trkpt lat="42.70048" lon="0.66361">
        <ele>1969.8</ele>
        <time>2018-08-08T13:28:20.000Z</time>
      </trkpt>
      <trkpt lat="42.70048" lon="0.66361">
        <ele>1969.9</ele>
        <time>2018-08-08T13:28:21.000Z</time>
      </trkpt>
      <trkpt lat="42.70047" lon="0.66361">
        <ele>1970</ele>
        <time>2018-08-08T13:28:22.000Z</time>
      </trkpt>
      <trkpt lat="42.70047" lon="0.66362">
        <ele>1970.1</ele>
        <time>2018-08-08T13:28:23.000Z</time>
      </trkpt>
      <trkpt lat="42.70046" lon="0.66362">
        <ele>1970.3</ele>
        <time>2018-08-08T13:28:24.000Z</time>
      </trkpt>
      <trkpt lat="42.70046" lon="0.66362">
        <ele>1970.6</ele>
        <time>2018-08-08T13:28:25.000Z</time>
      </trkpt>
      <trkpt lat="42.70045" lon="0.66362">
        <ele>1970.9</ele>
        <time>2018-08-08T13:28:26.000Z</time>
      </trkpt>
      <trkpt lat="42.70044" lon="0.66362">
        <ele>1971.2</ele>
        <time>2018-08-08T13:28:27.000Z</time>
      </trkpt>
      <trkpt lat="42.70044" lon="0.66362">
        <ele>1971.5</ele>
        <time>2018-08-08T13:28:28.000Z</time>
      </trkpt>
      <trkpt lat="42.70044" lon="0.66362">
        <ele>1971.6</ele>
        <time>2018-08-08T13:28:29.000Z</time>
      </trkpt>
      <trkpt lat="42.70043" lon="0.66362">
        <ele>1971.8</ele>
        <time>2018-08-08T13:28:30.000Z</time>
      </trkpt>
      <trkpt lat="42.70043" lon="0.66362">
        <ele>1972</ele>
        <time>2018-08-08T13:28:31.000Z</time>
      </trkpt>
      <trkpt lat="42.70042" lon="0.66362">
        <ele>1972.3</ele>
        <time>2018-08-08T13:28:32.000Z</time>
      </trkpt>
      <trkpt lat="42.70041" lon="0.66362">
        <ele>1972.8</ele>
        <time>2018-08-08T13:28:33.000Z</time>
      </trkpt>
      <trkpt lat="42.7004" lon="0.66362">
        <ele>1973.2</ele>
        <time>2018-08-08T13:28:34.000Z</time>
      </trkpt>
      <trkpt lat="42.7004" lon="0.66362">
        <ele>1973.4</ele>
        <time>2018-08-08T13:28:35.000Z</time>
      </trkpt>
      <trkpt lat="42.70039" lon="0.66363">
        <ele>1973.7</ele>
        <time>2018-08-08T13:28:36.000Z</time>
      </trkpt>
      <trkpt lat="42.70039" lon="0.66363">
        <ele>1973.9</ele>
        <time>2018-08-08T13:28:37.000Z</time>
      </trkpt>
      <trkpt lat="42.70038" lon="0.66363">
        <ele>1974</ele>
        <time>2018-08-08T13:28:38.000Z</time>
      </trkpt>
      <trkpt lat="42.70038" lon="0.66363">
        <ele>1974.2</ele>
        <time>2018-08-08T13:28:39.000Z</time>
      </trkpt>
      <trkpt lat="42.70038" lon="0.66363">
        <ele>1974.2</ele>
        <time>2018-08-08T13:28:40.000Z</time>
      </trkpt>
      <trkpt lat="42.70038" lon="0.66363">
        <ele>1974.3</ele>
        <time>2018-08-08T13:28:41.000Z</time>
      </trkpt>
      <trkpt lat="42.70037" lon="0.66363">
        <ele>1974.4</ele>
        <time>2018-08-08T13:28:42.000Z</time>
      </trkpt>
      <trkpt lat="42.70037" lon="0.66363">
        <ele>1974.5</ele>
        <time>2018-08-08T13:28:43.000Z</time>
      </trkpt>
      <trkpt lat="42.70037" lon="0.66363">
        <ele>1974.6</ele>
        <time>2018-08-08T13:28:44.000Z</time>
      </trkpt>
      <trkpt lat="42.70037" lon="0.66363">
        <ele>1974.7</ele>
        <time>2018-08-08T13:28:45.000Z</time>
      </trkpt>
      <trkpt lat="42.70036" lon="0.66363">
        <ele>1974.8</ele>
        <time>2018-08-08T13:28:46.000Z</time>
      </trkpt>
      <trkpt lat="42.70036" lon="0.66363">
        <ele>1975</ele>
        <time>2018-08-08T13:28:47.000Z</time>
      </trkpt>
      <trkpt lat="42.70035" lon="0.66363">
        <ele>1975.3</ele>
        <time>2018-08-08T13:28:48.000Z</time>
      </trkpt>
      <trkpt lat="42.70035" lon="0.66363">
        <ele>1975.5</ele>
        <time>2018-08-08T13:28:49.000Z</time>
      </trkpt>
      <trkpt lat="42.70034" lon="0.66363">
        <ele>1975.9</ele>
        <time>2018-08-08T13:28:50.000Z</time>
      </trkpt>
      <trkpt lat="42.70033" lon="0.66363">
        <ele>1976.2</ele>
        <time>2018-08-08T13:28:51.000Z</time>
      </trkpt>
      <trkpt lat="42.70033" lon="0.66363">
        <ele>1976.6</ele>
        <time>2018-08-08T13:28:52.000Z</time>
      </trkpt>
      <trkpt lat="42.70032" lon="0.66363">
        <ele>1977</ele>
        <time>2018-08-08T13:28:53.000Z</time>
      </trkpt>
      <trkpt lat="42.70032" lon="0.66363">
        <ele>1977.3</ele>
        <time>2018-08-08T13:28:54.000Z</time>
      </trkpt>
      <trkpt lat="42.70031" lon="0.66363">
        <ele>1977.7</ele>
        <time>2018-08-08T13:28:55.000Z</time>
      </trkpt>
      <trkpt lat="42.70031" lon="0.66363">
        <ele>1977.9</ele>
        <time>2018-08-08T13:28:56.000Z</time>
      </trkpt>
      <trkpt lat="42.7003" lon="0.66363">
        <ele>1978.1</ele>
        <time>2018-08-08T13:28:57.000Z</time>
      </trkpt>
      <trkpt lat="42.7003" lon="0.66363">
        <ele>1978.2</ele>
        <time>2018-08-08T13:28:58.000Z</time>
      </trkpt>
      <trkpt lat="42.7003" lon="0.66363">
        <ele>1978.2</ele>
        <time>2018-08-08T13:28:59.000Z</time>
      </trkpt>
      <trkpt lat="42.7003" lon="0.66363">
        <ele>1978.3</ele>
        <time>2018-08-08T13:29:00.000Z</time>
      </trkpt>
      <trkpt lat="42.7003" lon="0.66363">
        <ele>1978.3</ele>
        <time>2018-08-08T13:29:01.000Z</time>
      </trkpt>
      <trkpt lat="42.7003" lon="0.66363">
        <ele>1978.2</ele>
        <time>2018-08-08T13:29:02.000Z</time>
      </trkpt>
      <trkpt lat="42.7003" lon="0.66363">
        <ele>1978.2</ele>
        <time>2018-08-08T13:29:03.000Z</time>
      </trkpt>
      <trkpt lat="42.7003" lon="0.66363">
        <ele>1978.2</ele>
        <time>2018-08-08T13:29:04.000Z</time>
      </trkpt>
      <trkpt lat="42.7003" lon="0.66363">
        <ele>1978.2</ele>
        <time>2018-08-08T13:29:05.000Z</time>
      </trkpt>
      <trkpt lat="42.7003" lon="0.66363">
        <ele>1978.3</ele>
        <time>2018-08-08T13:29:06.000Z</time>
      </trkpt>
      <trkpt lat="42.7003" lon="0.66363">
        <ele>1978.4</ele>
        <time>2018-08-08T13:29:07.000Z</time>
      </trkpt>
      <trkpt lat="42.7003" lon="0.66363">
        <ele>1978.5</ele>
        <time>2018-08-08T13:29:08.000Z</time>
      </trkpt>
      <trkpt lat="42.70029" lon="0.66363">
        <ele>1978.6</ele>
        <time>2018-08-08T13:29:09.000Z</time>
      </trkpt>
      <trkpt lat="42.70029" lon="0.66363">
        <ele>1978.8</ele>
        <time>2018-08-08T13:29:10.000Z</time>
      </trkpt>
      <trkpt lat="42.70029" lon="0.66362">
        <ele>1979</ele>
        <time>2018-08-08T13:29:11.000Z</time>
      </trkpt>
      <trkpt lat="42.70029" lon="0.66362">
        <ele>1979.1</ele>
        <time>2018-08-08T13:29:12.000Z</time>
      </trkpt>
      <trkpt lat="42.70028" lon="0.66362">
        <ele>1979.2</ele>
        <time>2018-08-08T13:29:13.000Z</time>
      </trkpt>
      <trkpt lat="42.70028" lon="0.66362">
        <ele>1979.3</ele>
        <time>2018-08-08T13:29:14.000Z</time>
      </trkpt>
      <trkpt lat="42.70028" lon="0.66362">
        <ele>1979.4</ele>
        <time>2018-08-08T13:29:15.000Z</time>
      </trkpt>
      <trkpt lat="42.70028" lon="0.66362">
        <ele>1979.5</ele>
        <time>2018-08-08T13:29:16.000Z</time>
      </trkpt>
      <trkpt lat="42.70028" lon="0.66362">
        <ele>1979.6</ele>
        <time>2018-08-08T13:29:17.000Z</time>
      </trkpt>
      <trkpt lat="42.70028" lon="0.66362">
        <ele>1979.6</ele>
        <time>2018-08-08T13:29:18.000Z</time>
      </trkpt>
      <trkpt lat="42.70028" lon="0.66362">
        <ele>1979.7</ele>
        <time>2018-08-08T13:29:19.000Z</time>
      </trkpt>
      <trkpt lat="42.70027" lon="0.66362">
        <ele>1979.7</ele>
        <time>2018-08-08T13:29:20.000Z</time>
      </trkpt>
      <trkpt lat="42.70027" lon="0.66362">
        <ele>1979.7</ele>
        <time>2018-08-08T13:29:21.000Z</time>
      </trkpt>
      <trkpt lat="42.70027" lon="0.66362">
        <ele>1979.8</ele>
        <time>2018-08-08T13:29:22.000Z</time>
      </trkpt>
      <trkpt lat="42.70027" lon="0.66362">
        <ele>1979.8</ele>
        <time>2018-08-08T13:29:23.000Z</time>
      </trkpt>
      <trkpt lat="42.70027" lon="0.66362">
        <ele>1979.8</ele>
        <time>2018-08-08T13:29:24.000Z</time>
      </trkpt>
      <trkpt lat="42.70027" lon="0.66362">
        <ele>1979.8</ele>
        <time>2018-08-08T13:29:25.000Z</time>
      </trkpt>
      <trkpt lat="42.70027" lon="0.66362">
        <ele>1979.8</ele>
        <time>2018-08-08T13:29:26.000Z</time>
      </trkpt>
      <trkpt lat="42.70027" lon="0.66362">
        <ele>1979.8</ele>
        <time>2018-08-08T13:29:27.000Z</time>
      </trkpt>
      <trkpt lat="42.70027" lon="0.66362">
        <ele>1979.8</ele>
        <time>2018-08-08T13:29:28.000Z</time>
      </trkpt>
      <trkpt lat="42.70027" lon="0.66362">
        <ele>1979.8</ele>
        <time>2018-08-08T13:29:29.000Z</time>
      </trkpt>
      <trkpt lat="42.70027" lon="0.66362">
        <ele>1979.8</ele>
        <time>2018-08-08T13:29:30.000Z</time>
      </trkpt>
      <trkpt lat="42.70027" lon="0.66362">
        <ele>1979.8</ele>
        <time>2018-08-08T13:29:31.000Z</time>
      </trkpt>
      <trkpt lat="42.70027" lon="0.66362">
        <ele>1979.9</ele>
        <time>2018-08-08T13:29:32.000Z</time>
      </trkpt>
      <trkpt lat="42.70027" lon="0.66362">
        <ele>1979.9</ele>
        <time>2018-08-08T13:29:33.000Z</time>
      </trkpt>
      <trkpt lat="42.70027" lon="0.66362">
        <ele>1979.9</ele>
        <time>2018-08-08T13:29:34.000Z</time>
      </trkpt>
      <trkpt lat="42.70027" lon="0.66362">
        <ele>1979.9</ele>
        <time>2018-08-08T13:29:35.000Z</time>
      </trkpt>
      <trkpt lat="42.70027" lon="0.66362">
        <ele>1980</ele>
        <time>2018-08-08T13:29:36.000Z</time>
      </trkpt>
      <trkpt lat="42.70027" lon="0.66362">
        <ele>1980</ele>
        <time>2018-08-08T13:29:37.000Z</time>
      </trkpt>
      <trkpt lat="42.70027" lon="0.66362">
        <ele>1980.1</ele>
        <time>2018-08-08T13:29:38.000Z</time>
      </trkpt>
      <trkpt lat="42.70027" lon="0.66362">
        <ele>1980.1</ele>
        <time>2018-08-08T13:29:39.000Z</time>
      </trkpt>
      <trkpt lat="42.70027" lon="0.66362">
        <ele>1980.2</ele>
        <time>2018-08-08T13:29:40.000Z</time>
      </trkpt>
      <trkpt lat="42.70027" lon="0.66362">
        <ele>1980.3</ele>
        <time>2018-08-08T13:29:41.000Z</time>
      </trkpt>
      <trkpt lat="42.70027" lon="0.66362">
        <ele>1980.3</ele>
        <time>2018-08-08T13:29:42.000Z</time>
      </trkpt>
      <trkpt lat="42.70026" lon="0.66362">
        <ele>1980.4</ele>
        <time>2018-08-08T13:29:43.000Z</time>
      </trkpt>
      <trkpt lat="42.70026" lon="0.66362">
        <ele>1980.5</ele>
        <time>2018-08-08T13:29:44.000Z</time>
      </trkpt>
      <trkpt lat="42.70026" lon="0.66362">
        <ele>1980.6</ele>
        <time>2018-08-08T13:29:45.000Z</time>
      </trkpt>
      <trkpt lat="42.70026" lon="0.66362">
        <ele>1980.6</ele>
        <time>2018-08-08T13:29:46.000Z</time>
      </trkpt>
      <trkpt lat="42.70026" lon="0.66362">
        <ele>1980.7</ele>
        <time>2018-08-08T13:29:47.000Z</time>
      </trkpt>
      <trkpt lat="42.70026" lon="0.66362">
        <ele>1980.7</ele>
        <time>2018-08-08T13:29:48.000Z</time>
      </trkpt>
      <trkpt lat="42.70026" lon="0.66362">
        <ele>1980.9</ele>
        <time>2018-08-08T13:29:49.000Z</time>
      </trkpt>
      <trkpt lat="42.70026" lon="0.66361">
        <ele>1981.1</ele>
        <time>2018-08-08T13:29:50.000Z</time>
      </trkpt>
      <trkpt lat="42.70025" lon="0.66361">
        <ele>1981.4</ele>
        <time>2018-08-08T13:29:51.000Z</time>
      </trkpt>
      <trkpt lat="42.70025" lon="0.66361">
        <ele>1981.8</ele>
        <time>2018-08-08T13:29:52.000Z</time>
      </trkpt>
      <trkpt lat="42.70024" lon="0.6636">
        <ele>1982</ele>
        <time>2018-08-08T13:29:53.000Z</time>
      </trkpt>
      <trkpt lat="42.70024" lon="0.6636">
        <ele>1982.1</ele>
        <time>2018-08-08T13:29:54.000Z</time>
      </trkpt>
      <trkpt lat="42.70024" lon="0.6636">
        <ele>1982.2</ele>
        <time>2018-08-08T13:29:55.000Z</time>
      </trkpt>
      <trkpt lat="42.70024" lon="0.6636">
        <ele>1982.3</ele>
        <time>2018-08-08T13:29:56.000Z</time>
      </trkpt>
      <trkpt lat="42.70024" lon="0.6636">
        <ele>1982.4</ele>
        <time>2018-08-08T13:29:57.000Z</time>
      </trkpt>
      <trkpt lat="42.70024" lon="0.6636">
        <ele>1982.5</ele>
        <time>2018-08-08T13:29:58.000Z</time>
      </trkpt>
      <trkpt lat="42.70024" lon="0.6636">
        <ele>1982.5</ele>
        <time>2018-08-08T13:29:59.000Z</time>
      </trkpt>
      <trkpt lat="42.70024" lon="0.6636">
        <ele>1982.6</ele>
        <time>2018-08-08T13:30:00.000Z</time>
      </trkpt>
      <trkpt lat="42.70024" lon="0.6636">
        <ele>1982.7</ele>
        <time>2018-08-08T13:30:01.000Z</time>
      </trkpt>
      <trkpt lat="42.70024" lon="0.6636">
        <ele>1982.7</ele>
        <time>2018-08-08T13:30:02.000Z</time>
      </trkpt>
      <trkpt lat="42.70024" lon="0.6636">
        <ele>1982.7</ele>
        <time>2018-08-08T13:30:03.000Z</time>
      </trkpt>
      <trkpt lat="42.70024" lon="0.6636">
        <ele>1982.7</ele>
        <time>2018-08-08T13:30:04.000Z</time>
      </trkpt>
      <trkpt lat="42.70024" lon="0.6636">
        <ele>1982.7</ele>
        <time>2018-08-08T13:30:05.000Z</time>
      </trkpt>
      <trkpt lat="42.70024" lon="0.66359">
        <ele>1982.8</ele>
        <time>2018-08-08T13:30:06.000Z</time>
      </trkpt>
      <trkpt lat="42.70024" lon="0.66359">
        <ele>1982.8</ele>
        <time>2018-08-08T13:30:07.000Z</time>
      </trkpt>
      <trkpt lat="42.70024" lon="0.66359">
        <ele>1982.8</ele>
        <time>2018-08-08T13:30:08.000Z</time>
      </trkpt>
      <trkpt lat="42.70024" lon="0.66359">
        <ele>1982.8</ele>
        <time>2018-08-08T13:30:09.000Z</time>
      </trkpt>
      <trkpt lat="42.70024" lon="0.66359">
        <ele>1982.8</ele>
        <time>2018-08-08T13:30:10.000Z</time>
      </trkpt>
      <trkpt lat="42.70024" lon="0.66359">
        <ele>1982.8</ele>
        <time>2018-08-08T13:30:11.000Z</time>
      </trkpt>
      <trkpt lat="42.70024" lon="0.66359">
        <ele>1982.9</ele>
        <time>2018-08-08T13:30:12.000Z</time>
      </trkpt>
      <trkpt lat="42.70023" lon="0.66359">
        <ele>1982.9</ele>
        <time>2018-08-08T13:30:13.000Z</time>
      </trkpt>
      <trkpt lat="42.70023" lon="0.66359">
        <ele>1982.9</ele>
        <time>2018-08-08T13:30:14.000Z</time>
      </trkpt>
      <trkpt lat="42.70023" lon="0.66359">
        <ele>1982.9</ele>
        <time>2018-08-08T13:30:15.000Z</time>
      </trkpt>
      <trkpt lat="42.70023" lon="0.66359">
        <ele>1982.9</ele>
        <time>2018-08-08T13:30:16.000Z</time>
      </trkpt>
      <trkpt lat="42.70023" lon="0.66359">
        <ele>1982.9</ele>
        <time>2018-08-08T13:30:17.000Z</time>
      </trkpt>
      <trkpt lat="42.70023" lon="0.66359">
        <ele>1982.9</ele>
        <time>2018-08-08T13:30:18.000Z</time>
      </trkpt>
      <trkpt lat="42.70023" lon="0.66359">
        <ele>1982.9</ele>
        <time>2018-08-08T13:30:19.000Z</time>
      </trkpt>
      <trkpt lat="42.70023" lon="0.66359">
        <ele>1982.9</ele>
        <time>2018-08-08T13:30:20.000Z</time>
      </trkpt>
      <trkpt lat="42.70023" lon="0.66359">
        <ele>1982.9</ele>
        <time>2018-08-08T13:30:21.000Z</time>
      </trkpt>
      <trkpt lat="42.70023" lon="0.66359">
        <ele>1982.9</ele>
        <time>2018-08-08T13:30:22.000Z</time>
      </trkpt>
      <trkpt lat="42.70023" lon="0.66359">
        <ele>1982.9</ele>
        <time>2018-08-08T13:30:23.000Z</time>
      </trkpt>
      <trkpt lat="42.70023" lon="0.66359">
        <ele>1982.9</ele>
        <time>2018-08-08T13:30:24.000Z</time>
      </trkpt>
      <trkpt lat="42.70023" lon="0.66359">
        <ele>1982.9</ele>
        <time>2018-08-08T13:30:25.000Z</time>
      </trkpt>
      <trkpt lat="42.70023" lon="0.66359">
        <ele>1982.9</ele>
        <time>2018-08-08T13:30:26.000Z</time>
      </trkpt>
      <trkpt lat="42.70023" lon="0.66359">
        <ele>1982.9</ele>
        <time>2018-08-08T13:30:27.000Z</time>
      </trkpt>
      <trkpt lat="42.70023" lon="0.66359">
        <ele>1983</ele>
        <time>2018-08-08T13:30:28.000Z</time>
      </trkpt>
      <trkpt lat="42.70023" lon="0.66359">
        <ele>1983</ele>
        <time>2018-08-08T13:30:29.000Z</time>
      </trkpt>
      <trkpt lat="42.70023" lon="0.66359">
        <ele>1983</ele>
        <time>2018-08-08T13:30:30.000Z</time>
      </trkpt>
      <trkpt lat="42.70023" lon="0.66359">
        <ele>1983.1</ele>
        <time>2018-08-08T13:30:31.000Z</time>
      </trkpt>
      <trkpt lat="42.70023" lon="0.66359">
        <ele>1983.2</ele>
        <time>2018-08-08T13:30:32.000Z</time>
      </trkpt>
      <trkpt lat="42.70023" lon="0.66359">
        <ele>1983.5</ele>
        <time>2018-08-08T13:30:33.000Z</time>
      </trkpt>
      <trkpt lat="42.70022" lon="0.66359">
        <ele>1983.8</ele>
        <time>2018-08-08T13:30:34.000Z</time>
      </trkpt>
      <trkpt lat="42.70021" lon="0.66359">
        <ele>1984.3</ele>
        <time>2018-08-08T13:30:35.000Z</time>
      </trkpt>
      <trkpt lat="42.7002" lon="0.66359">
        <ele>1984.7</ele>
        <time>2018-08-08T13:30:36.000Z</time>
      </trkpt>
      <trkpt lat="42.7002" lon="0.66359">
        <ele>1985</ele>
        <time>2018-08-08T13:30:37.000Z</time>
      </trkpt>
      <trkpt lat="42.7002" lon="0.66358">
        <ele>1985.2</ele>
        <time>2018-08-08T13:30:38.000Z</time>
      </trkpt>
      <trkpt lat="42.70019" lon="0.66358">
        <ele>1985.4</ele>
        <time>2018-08-08T13:30:39.000Z</time>
      </trkpt>
      <trkpt lat="42.70019" lon="0.66358">
        <ele>1985.6</ele>
        <time>2018-08-08T13:30:40.000Z</time>
      </trkpt>
      <trkpt lat="42.70019" lon="0.66358">
        <ele>1985.8</ele>
        <time>2018-08-08T13:30:41.000Z</time>
      </trkpt>
      <trkpt lat="42.70018" lon="0.66358">
        <ele>1986</ele>
        <time>2018-08-08T13:30:42.000Z</time>
      </trkpt>
      <trkpt lat="42.70018" lon="0.66358">
        <ele>1986.1</ele>
        <time>2018-08-08T13:30:43.000Z</time>
      </trkpt>
      <trkpt lat="42.70018" lon="0.66358">
        <ele>1986.3</ele>
        <time>2018-08-08T13:30:44.000Z</time>
      </trkpt>
      <trkpt lat="42.70017" lon="0.66358">
        <ele>1986.6</ele>
        <time>2018-08-08T13:30:45.000Z</time>
      </trkpt>
      <trkpt lat="42.70017" lon="0.66357">
        <ele>1987.1</ele>
        <time>2018-08-08T13:30:46.000Z</time>
      </trkpt>
      <trkpt lat="42.70016" lon="0.66357">
        <ele>1987.6</ele>
        <time>2018-08-08T13:30:47.000Z</time>
      </trkpt>
      <trkpt lat="42.70016" lon="0.66357">
        <ele>1987.9</ele>
        <time>2018-08-08T13:30:48.000Z</time>
      </trkpt>
      <trkpt lat="42.70015" lon="0.66356">
        <ele>1988</ele>
        <time>2018-08-08T13:30:49.000Z</time>
      </trkpt>
      <trkpt lat="42.70015" lon="0.66356">
        <ele>1988.1</ele>
        <time>2018-08-08T13:30:50.000Z</time>
      </trkpt>
      <trkpt lat="42.70015" lon="0.66356">
        <ele>1988.2</ele>
        <time>2018-08-08T13:30:51.000Z</time>
      </trkpt>
      <trkpt lat="42.70015" lon="0.66356">
        <ele>1988.2</ele>
        <time>2018-08-08T13:30:52.000Z</time>
      </trkpt>
      <trkpt lat="42.70015" lon="0.66356">
        <ele>1988.3</ele>
        <time>2018-08-08T13:30:53.000Z</time>
      </trkpt>
      <trkpt lat="42.70015" lon="0.66356">
        <ele>1988.4</ele>
        <time>2018-08-08T13:30:54.000Z</time>
      </trkpt>
      <trkpt lat="42.70015" lon="0.66356">
        <ele>1988.4</ele>
        <time>2018-08-08T13:30:55.000Z</time>
      </trkpt>
      <trkpt lat="42.70015" lon="0.66356">
        <ele>1988.5</ele>
        <time>2018-08-08T13:30:56.000Z</time>
      </trkpt>
      <trkpt lat="42.70015" lon="0.66356">
        <ele>1988.6</ele>
        <time>2018-08-08T13:30:57.000Z</time>
      </trkpt>
      <trkpt lat="42.70014" lon="0.66356">
        <ele>1988.7</ele>
        <time>2018-08-08T13:30:58.000Z</time>
      </trkpt>
      <trkpt lat="42.70014" lon="0.66356">
        <ele>1988.8</ele>
        <time>2018-08-08T13:30:59.000Z</time>
      </trkpt>
      <trkpt lat="42.70014" lon="0.66356">
        <ele>1988.9</ele>
        <time>2018-08-08T13:31:00.000Z</time>
      </trkpt>
      <trkpt lat="42.70014" lon="0.66355">
        <ele>1989</ele>
        <time>2018-08-08T13:31:01.000Z</time>
      </trkpt>
      <trkpt lat="42.70014" lon="0.66355">
        <ele>1989</ele>
        <time>2018-08-08T13:31:02.000Z</time>
      </trkpt>
      <trkpt lat="42.70014" lon="0.66355">
        <ele>1989.1</ele>
        <time>2018-08-08T13:31:03.000Z</time>
      </trkpt>
      <trkpt lat="42.70014" lon="0.66355">
        <ele>1989.2</ele>
        <time>2018-08-08T13:31:04.000Z</time>
      </trkpt>
      <trkpt lat="42.70014" lon="0.66355">
        <ele>1989.2</ele>
        <time>2018-08-08T13:31:05.000Z</time>
      </trkpt>
      <trkpt lat="42.70014" lon="0.66355">
        <ele>1989.3</ele>
        <time>2018-08-08T13:31:06.000Z</time>
      </trkpt>
      <trkpt lat="42.70014" lon="0.66355">
        <ele>1989.3</ele>
        <time>2018-08-08T13:31:07.000Z</time>
      </trkpt>
      <trkpt lat="42.70014" lon="0.66355">
        <ele>1989.3</ele>
        <time>2018-08-08T13:31:08.000Z</time>
      </trkpt>
      <trkpt lat="42.70014" lon="0.66355">
        <ele>1989.4</ele>
        <time>2018-08-08T13:31:09.000Z</time>
      </trkpt>
      <trkpt lat="42.70014" lon="0.66355">
        <ele>1989.4</ele>
        <time>2018-08-08T13:31:10.000Z</time>
      </trkpt>
      <trkpt lat="42.70014" lon="0.66354">
        <ele>1989.5</ele>
        <time>2018-08-08T13:31:11.000Z</time>
      </trkpt>
      <trkpt lat="42.70014" lon="0.66354">
        <ele>1989.5</ele>
        <time>2018-08-08T13:31:12.000Z</time>
      </trkpt>
      <trkpt lat="42.70014" lon="0.66354">
        <ele>1989.6</ele>
        <time>2018-08-08T13:31:13.000Z</time>
      </trkpt>
      <trkpt lat="42.70014" lon="0.66354">
        <ele>1989.7</ele>
        <time>2018-08-08T13:31:14.000Z</time>
      </trkpt>
      <trkpt lat="42.70014" lon="0.66354">
        <ele>1989.7</ele>
        <time>2018-08-08T13:31:15.000Z</time>
      </trkpt>
      <trkpt lat="42.70014" lon="0.66354">
        <ele>1989.8</ele>
        <time>2018-08-08T13:31:16.000Z</time>
      </trkpt>
      <trkpt lat="42.70014" lon="0.66353">
        <ele>1990</ele>
        <time>2018-08-08T13:31:17.000Z</time>
      </trkpt>
      <trkpt lat="42.70014" lon="0.66352">
        <ele>1990.1</ele>
        <time>2018-08-08T13:31:18.000Z</time>
      </trkpt>
      <trkpt lat="42.70014" lon="0.66352">
        <ele>1990.4</ele>
        <time>2018-08-08T13:31:19.000Z</time>
      </trkpt>
      <trkpt lat="42.70014" lon="0.66351">
        <ele>1990.5</ele>
        <time>2018-08-08T13:31:20.000Z</time>
      </trkpt>
      <trkpt lat="42.70015" lon="0.66351">
        <ele>1990.6</ele>
        <time>2018-08-08T13:31:21.000Z</time>
      </trkpt>
      <trkpt lat="42.70015" lon="0.66351">
        <ele>1990.6</ele>
        <time>2018-08-08T13:31:22.000Z</time>
      </trkpt>
      <trkpt lat="42.70015" lon="0.6635">
        <ele>1990.6</ele>
        <time>2018-08-08T13:31:23.000Z</time>
      </trkpt>
      <trkpt lat="42.70014" lon="0.6635">
        <ele>1990.7</ele>
        <time>2018-08-08T13:31:24.000Z</time>
      </trkpt>
      <trkpt lat="42.70014" lon="0.6635">
        <ele>1990.8</ele>
        <time>2018-08-08T13:31:25.000Z</time>
      </trkpt>
      <trkpt lat="42.70014" lon="0.6635">
        <ele>1990.8</ele>
        <time>2018-08-08T13:31:26.000Z</time>
      </trkpt>
      <trkpt lat="42.70014" lon="0.6635">
        <ele>1990.9</ele>
        <time>2018-08-08T13:31:27.000Z</time>
      </trkpt>
      <trkpt lat="42.70014" lon="0.6635">
        <ele>1990.9</ele>
        <time>2018-08-08T13:31:28.000Z</time>
      </trkpt>
      <trkpt lat="42.70014" lon="0.6635">
        <ele>1990.9</ele>
        <time>2018-08-08T13:31:29.000Z</time>
      </trkpt>
      <trkpt lat="42.70014" lon="0.6635">
        <ele>1990.9</ele>
        <time>2018-08-08T13:31:30.000Z</time>
      </trkpt>
      <trkpt lat="42.70014" lon="0.6635">
        <ele>1990.9</ele>
        <time>2018-08-08T13:31:31.000Z</time>
      </trkpt>
      <trkpt lat="42.70014" lon="0.6635">
        <ele>1990.9</ele>
        <time>2018-08-08T13:31:32.000Z</time>
      </trkpt>
      <trkpt lat="42.70014" lon="0.6635">
        <ele>1990.9</ele>
        <time>2018-08-08T13:31:33.000Z</time>
      </trkpt>
      <trkpt lat="42.70014" lon="0.6635">
        <ele>1990.9</ele>
        <time>2018-08-08T13:31:34.000Z</time>
      </trkpt>
      <trkpt lat="42.70014" lon="0.6635">
        <ele>1990.9</ele>
        <time>2018-08-08T13:31:35.000Z</time>
      </trkpt>
      <trkpt lat="42.70014" lon="0.6635">
        <ele>1990.9</ele>
        <time>2018-08-08T13:31:36.000Z</time>
      </trkpt>
      <trkpt lat="42.70014" lon="0.6635">
        <ele>1990.9</ele>
        <time>2018-08-08T13:31:37.000Z</time>
      </trkpt>
      <trkpt lat="42.70014" lon="0.6635">
        <ele>1991</ele>
        <time>2018-08-08T13:31:38.000Z</time>
      </trkpt>
      <trkpt lat="42.70014" lon="0.6635">
        <ele>1991</ele>
        <time>2018-08-08T13:31:39.000Z</time>
      </trkpt>
      <trkpt lat="42.70014" lon="0.6635">
        <ele>1990.9</ele>
        <time>2018-08-08T13:31:40.000Z</time>
      </trkpt>
      <trkpt lat="42.70014" lon="0.6635">
        <ele>1990.9</ele>
        <time>2018-08-08T13:31:41.000Z</time>
      </trkpt>
      <trkpt lat="42.70015" lon="0.6635">
        <ele>1990.9</ele>
        <time>2018-08-08T13:31:42.000Z</time>
      </trkpt>
      <trkpt lat="42.70015" lon="0.66349">
        <ele>1990.9</ele>
        <time>2018-08-08T13:31:43.000Z</time>
      </trkpt>
      <trkpt lat="42.70015" lon="0.66349">
        <ele>1990.9</ele>
        <time>2018-08-08T13:31:44.000Z</time>
      </trkpt>
      <trkpt lat="42.70016" lon="0.66348">
        <ele>1990.9</ele>
        <time>2018-08-08T13:31:45.000Z</time>
      </trkpt>
      <trkpt lat="42.70016" lon="0.66348">
        <ele>1990.8</ele>
        <time>2018-08-08T13:31:46.000Z</time>
      </trkpt>
      <trkpt lat="42.70017" lon="0.66347">
        <ele>1990.8</ele>
        <time>2018-08-08T13:31:47.000Z</time>
      </trkpt>
      <trkpt lat="42.70017" lon="0.66347">
        <ele>1990.8</ele>
        <time>2018-08-08T13:31:48.000Z</time>
      </trkpt>
      <trkpt lat="42.70018" lon="0.66346">
        <ele>1990.7</ele>
        <time>2018-08-08T13:31:49.000Z</time>
      </trkpt>
      <trkpt lat="42.70018" lon="0.66346">
        <ele>1990.7</ele>
        <time>2018-08-08T13:31:50.000Z</time>
      </trkpt>
      <trkpt lat="42.70018" lon="0.66346">
        <ele>1990.7</ele>
        <time>2018-08-08T13:31:51.000Z</time>
      </trkpt>
      <trkpt lat="42.70018" lon="0.66345">
        <ele>1990.7</ele>
        <time>2018-08-08T13:31:52.000Z</time>
      </trkpt>
      <trkpt lat="42.70018" lon="0.66345">
        <ele>1990.7</ele>
        <time>2018-08-08T13:31:53.000Z</time>
      </trkpt>
      <trkpt lat="42.70019" lon="0.66345">
        <ele>1990.7</ele>
        <time>2018-08-08T13:31:54.000Z</time>
      </trkpt>
      <trkpt lat="42.70019" lon="0.66345">
        <ele>1990.7</ele>
        <time>2018-08-08T13:31:55.000Z</time>
      </trkpt>
      <trkpt lat="42.70019" lon="0.66345">
        <ele>1990.7</ele>
        <time>2018-08-08T13:31:56.000Z</time>
      </trkpt>
      <trkpt lat="42.70019" lon="0.66345">
        <ele>1990.7</ele>
        <time>2018-08-08T13:31:57.000Z</time>
      </trkpt>
      <trkpt lat="42.70019" lon="0.66345">
        <ele>1990.7</ele>
        <time>2018-08-08T13:31:58.000Z</time>
      </trkpt>
      <trkpt lat="42.70019" lon="0.66345">
        <ele>1990.8</ele>
        <time>2018-08-08T13:31:59.000Z</time>
      </trkpt>
      <trkpt lat="42.70019" lon="0.66344">
        <ele>1990.8</ele>
        <time>2018-08-08T13:32:00.000Z</time>
      </trkpt>
      <trkpt lat="42.70019" lon="0.66344">
        <ele>1990.7</ele>
        <time>2018-08-08T13:32:01.000Z</time>
      </trkpt>
      <trkpt lat="42.7002" lon="0.66344">
        <ele>1990.7</ele>
        <time>2018-08-08T13:32:02.000Z</time>
      </trkpt>
      <trkpt lat="42.7002" lon="0.66344">
        <ele>1990.7</ele>
        <time>2018-08-08T13:32:03.000Z</time>
      </trkpt>
      <trkpt lat="42.7002" lon="0.66344">
        <ele>1990.7</ele>
        <time>2018-08-08T13:32:04.000Z</time>
      </trkpt>
      <trkpt lat="42.7002" lon="0.66344">
        <ele>1990.6</ele>
        <time>2018-08-08T13:32:05.000Z</time>
      </trkpt>
      <trkpt lat="42.7002" lon="0.66344">
        <ele>1990.6</ele>
        <time>2018-08-08T13:32:06.000Z</time>
      </trkpt>
      <trkpt lat="42.7002" lon="0.66344">
        <ele>1990.5</ele>
        <time>2018-08-08T13:32:07.000Z</time>
      </trkpt>
      <trkpt lat="42.7002" lon="0.66344">
        <ele>1990.5</ele>
        <time>2018-08-08T13:32:08.000Z</time>
      </trkpt>
      <trkpt lat="42.70021" lon="0.66343">
        <ele>1990.5</ele>
        <time>2018-08-08T13:32:09.000Z</time>
      </trkpt>
      <trkpt lat="42.70021" lon="0.66343">
        <ele>1990.4</ele>
        <time>2018-08-08T13:32:10.000Z</time>
      </trkpt>
      <trkpt lat="42.70021" lon="0.66343">
        <ele>1990.5</ele>
        <time>2018-08-08T13:32:11.000Z</time>
      </trkpt>
      <trkpt lat="42.70021" lon="0.66342">
        <ele>1990.5</ele>
        <time>2018-08-08T13:32:12.000Z</time>
      </trkpt>
      <trkpt lat="42.70022" lon="0.66342">
        <ele>1990.5</ele>
        <time>2018-08-08T13:32:13.000Z</time>
      </trkpt>
      <trkpt lat="42.70022" lon="0.66341">
        <ele>1990.5</ele>
        <time>2018-08-08T13:32:14.000Z</time>
      </trkpt>
      <trkpt lat="42.70023" lon="0.66341">
        <ele>1990.6</ele>
        <time>2018-08-08T13:32:15.000Z</time>
      </trkpt>
      <trkpt lat="42.70023" lon="0.6634">
        <ele>1990.6</ele>
        <time>2018-08-08T13:32:16.000Z</time>
      </trkpt>
      <trkpt lat="42.70023" lon="0.6634">
        <ele>1990.6</ele>
        <time>2018-08-08T13:32:17.000Z</time>
      </trkpt>
      <trkpt lat="42.70023" lon="0.6634">
        <ele>1990.7</ele>
        <time>2018-08-08T13:32:18.000Z</time>
      </trkpt>
      <trkpt lat="42.70024" lon="0.66339">
        <ele>1990.7</ele>
        <time>2018-08-08T13:32:19.000Z</time>
      </trkpt>
      <trkpt lat="42.70024" lon="0.66339">
        <ele>1990.7</ele>
        <time>2018-08-08T13:32:20.000Z</time>
      </trkpt>
      <trkpt lat="42.70024" lon="0.66339">
        <ele>1990.8</ele>
        <time>2018-08-08T13:32:21.000Z</time>
      </trkpt>
      <trkpt lat="42.70024" lon="0.66339">
        <ele>1990.8</ele>
        <time>2018-08-08T13:32:22.000Z</time>
      </trkpt>
      <trkpt lat="42.70024" lon="0.66339">
        <ele>1990.7</ele>
        <time>2018-08-08T13:32:23.000Z</time>
      </trkpt>
      <trkpt lat="42.70024" lon="0.66339">
        <ele>1990.8</ele>
        <time>2018-08-08T13:32:24.000Z</time>
      </trkpt>
      <trkpt lat="42.70024" lon="0.66339">
        <ele>1990.7</ele>
        <time>2018-08-08T13:32:25.000Z</time>
      </trkpt>
      <trkpt lat="42.70024" lon="0.66339">
        <ele>1990.7</ele>
        <time>2018-08-08T13:32:26.000Z</time>
      </trkpt>
      <trkpt lat="42.70024" lon="0.66339">
        <ele>1990.7</ele>
        <time>2018-08-08T13:32:27.000Z</time>
      </trkpt>
      <trkpt lat="42.70024" lon="0.66339">
        <ele>1990.7</ele>
        <time>2018-08-08T13:32:28.000Z</time>
      </trkpt>
      <trkpt lat="42.70024" lon="0.66339">
        <ele>1990.7</ele>
        <time>2018-08-08T13:32:29.000Z</time>
      </trkpt>
      <trkpt lat="42.70024" lon="0.66339">
        <ele>1990.7</ele>
        <time>2018-08-08T13:32:30.000Z</time>
      </trkpt>
      <trkpt lat="42.70024" lon="0.66339">
        <ele>1990.7</ele>
        <time>2018-08-08T13:32:31.000Z</time>
      </trkpt>
      <trkpt lat="42.70024" lon="0.66339">
        <ele>1990.7</ele>
        <time>2018-08-08T13:32:32.000Z</time>
      </trkpt>
      <trkpt lat="42.70024" lon="0.66339">
        <ele>1990.7</ele>
        <time>2018-08-08T13:32:33.000Z</time>
      </trkpt>
      <trkpt lat="42.70024" lon="0.66339">
        <ele>1990.7</ele>
        <time>2018-08-08T13:32:34.000Z</time>
      </trkpt>
      <trkpt lat="42.70024" lon="0.66339">
        <ele>1990.7</ele>
        <time>2018-08-08T13:32:35.000Z</time>
      </trkpt>
      <trkpt lat="42.70024" lon="0.66339">
        <ele>1990.7</ele>
        <time>2018-08-08T13:32:36.000Z</time>
      </trkpt>
      <trkpt lat="42.70024" lon="0.66339">
        <ele>1990.7</ele>
        <time>2018-08-08T13:32:37.000Z</time>
      </trkpt>
      <trkpt lat="42.70024" lon="0.66339">
        <ele>1990.7</ele>
        <time>2018-08-08T13:32:38.000Z</time>
      </trkpt>
      <trkpt lat="42.70024" lon="0.66339">
        <ele>1990.7</ele>
        <time>2018-08-08T13:32:39.000Z</time>
      </trkpt>
      <trkpt lat="42.70024" lon="0.66339">
        <ele>1990.7</ele>
        <time>2018-08-08T13:32:40.000Z</time>
      </trkpt>
      <trkpt lat="42.70024" lon="0.66339">
        <ele>1990.7</ele>
        <time>2018-08-08T13:32:41.000Z</time>
      </trkpt>
      <trkpt lat="42.70024" lon="0.66339">
        <ele>1990.7</ele>
        <time>2018-08-08T13:32:42.000Z</time>
      </trkpt>
      <trkpt lat="42.70024" lon="0.66339">
        <ele>1990.7</ele>
        <time>2018-08-08T13:32:43.000Z</time>
      </trkpt>
      <trkpt lat="42.70024" lon="0.66339">
        <ele>1990.7</ele>
        <time>2018-08-08T13:32:44.000Z</time>
      </trkpt>
      <trkpt lat="42.70024" lon="0.66339">
        <ele>1990.7</ele>
        <time>2018-08-08T13:32:45.000Z</time>
      </trkpt>
      <trkpt lat="42.70024" lon="0.66339">
        <ele>1990.7</ele>
        <time>2018-08-08T13:32:46.000Z</time>
      </trkpt>
      <trkpt lat="42.70024" lon="0.66339">
        <ele>1990.8</ele>
        <time>2018-08-08T13:32:47.000Z</time>
      </trkpt>
      <trkpt lat="42.70024" lon="0.66339">
        <ele>1990.8</ele>
        <time>2018-08-08T13:32:48.000Z</time>
      </trkpt>
      <trkpt lat="42.70024" lon="0.66339">
        <ele>1990.8</ele>
        <time>2018-08-08T13:32:49.000Z</time>
      </trkpt>
      <trkpt lat="42.70024" lon="0.66339">
        <ele>1990.8</ele>
        <time>2018-08-08T13:32:50.000Z</time>
      </trkpt>
      <trkpt lat="42.70024" lon="0.66338">
        <ele>1990.8</ele>
        <time>2018-08-08T13:32:51.000Z</time>
      </trkpt>
      <trkpt lat="42.70024" lon="0.66338">
        <ele>1990.8</ele>
        <time>2018-08-08T13:32:52.000Z</time>
      </trkpt>
      <trkpt lat="42.70024" lon="0.66338">
        <ele>1990.8</ele>
        <time>2018-08-08T13:32:53.000Z</time>
      </trkpt>
      <trkpt lat="42.70024" lon="0.66338">
        <ele>1990.8</ele>
        <time>2018-08-08T13:32:54.000Z</time>
      </trkpt>
      <trkpt lat="42.70024" lon="0.66338">
        <ele>1990.9</ele>
        <time>2018-08-08T13:32:55.000Z</time>
      </trkpt>
      <trkpt lat="42.70024" lon="0.66338">
        <ele>1990.9</ele>
        <time>2018-08-08T13:32:56.000Z</time>
      </trkpt>
      <trkpt lat="42.70024" lon="0.66338">
        <ele>1990.9</ele>
        <time>2018-08-08T13:32:57.000Z</time>
      </trkpt>
      <trkpt lat="42.70024" lon="0.66338">
        <ele>1990.9</ele>
        <time>2018-08-08T13:32:58.000Z</time>
      </trkpt>
      <trkpt lat="42.70024" lon="0.66338">
        <ele>1990.9</ele>
        <time>2018-08-08T13:32:59.000Z</time>
      </trkpt>
      <trkpt lat="42.70024" lon="0.66338">
        <ele>1990.9</ele>
        <time>2018-08-08T13:33:00.000Z</time>
      </trkpt>
      <trkpt lat="42.70024" lon="0.66338">
        <ele>1990.9</ele>
        <time>2018-08-08T13:33:01.000Z</time>
      </trkpt>
      <trkpt lat="42.70024" lon="0.66338">
        <ele>1990.9</ele>
        <time>2018-08-08T13:33:02.000Z</time>
      </trkpt>
      <trkpt lat="42.70024" lon="0.66338">
        <ele>1990.9</ele>
        <time>2018-08-08T13:33:03.000Z</time>
      </trkpt>
      <trkpt lat="42.70024" lon="0.66338">
        <ele>1991</ele>
        <time>2018-08-08T13:33:04.000Z</time>
      </trkpt>
      <trkpt lat="42.70024" lon="0.66338">
        <ele>1991.1</ele>
        <time>2018-08-08T13:33:05.000Z</time>
      </trkpt>
      <trkpt lat="42.70024" lon="0.66338">
        <ele>1991.1</ele>
        <time>2018-08-08T13:33:06.000Z</time>
      </trkpt>
      <trkpt lat="42.70024" lon="0.66338">
        <ele>1991.2</ele>
        <time>2018-08-08T13:33:07.000Z</time>
      </trkpt>
      <trkpt lat="42.70024" lon="0.66337">
        <ele>1991.3</ele>
        <time>2018-08-08T13:33:08.000Z</time>
      </trkpt>
      <trkpt lat="42.70024" lon="0.66337">
        <ele>1991.4</ele>
        <time>2018-08-08T13:33:09.000Z</time>
      </trkpt>
      <trkpt lat="42.70024" lon="0.66337">
        <ele>1991.5</ele>
        <time>2018-08-08T13:33:10.000Z</time>
      </trkpt>
      <trkpt lat="42.70024" lon="0.66337">
        <ele>1991.6</ele>
        <time>2018-08-08T13:33:11.000Z</time>
      </trkpt>
      <trkpt lat="42.70024" lon="0.66337">
        <ele>1991.7</ele>
        <time>2018-08-08T13:33:12.000Z</time>
      </trkpt>
      <trkpt lat="42.70024" lon="0.66336">
        <ele>1991.7</ele>
        <time>2018-08-08T13:33:13.000Z</time>
      </trkpt>
      <trkpt lat="42.70024" lon="0.66336">
        <ele>1991.7</ele>
        <time>2018-08-08T13:33:14.000Z</time>
      </trkpt>
      <trkpt lat="42.70024" lon="0.66336">
        <ele>1991.7</ele>
        <time>2018-08-08T13:33:15.000Z</time>
      </trkpt>
      <trkpt lat="42.70024" lon="0.66336">
        <ele>1991.7</ele>
        <time>2018-08-08T13:33:16.000Z</time>
      </trkpt>
      <trkpt lat="42.70024" lon="0.66336">
        <ele>1991.8</ele>
        <time>2018-08-08T13:33:17.000Z</time>
      </trkpt>
      <trkpt lat="42.70024" lon="0.66336">
        <ele>1991.8</ele>
        <time>2018-08-08T13:33:18.000Z</time>
      </trkpt>
      <trkpt lat="42.70024" lon="0.66336">
        <ele>1992</ele>
        <time>2018-08-08T13:33:19.000Z</time>
      </trkpt>
      <trkpt lat="42.70024" lon="0.66335">
        <ele>1992.3</ele>
        <time>2018-08-08T13:33:20.000Z</time>
      </trkpt>
      <trkpt lat="42.70023" lon="0.66335">
        <ele>1992.6</ele>
        <time>2018-08-08T13:33:21.000Z</time>
      </trkpt>
      <trkpt lat="42.70023" lon="0.66334">
        <ele>1993</ele>
        <time>2018-08-08T13:33:22.000Z</time>
      </trkpt>
      <trkpt lat="42.70023" lon="0.66334">
        <ele>1993.5</ele>
        <time>2018-08-08T13:33:23.000Z</time>
      </trkpt>
      <trkpt lat="42.70022" lon="0.66333">
        <ele>1994</ele>
        <time>2018-08-08T13:33:24.000Z</time>
      </trkpt>
      <trkpt lat="42.70022" lon="0.66332">
        <ele>1994.4</ele>
        <time>2018-08-08T13:33:25.000Z</time>
      </trkpt>
      <trkpt lat="42.70022" lon="0.66332">
        <ele>1994.8</ele>
        <time>2018-08-08T13:33:26.000Z</time>
      </trkpt>
      <trkpt lat="42.70021" lon="0.66331">
        <ele>1995.1</ele>
        <time>2018-08-08T13:33:27.000Z</time>
      </trkpt>
      <trkpt lat="42.70021" lon="0.66331">
        <ele>1995.4</ele>
        <time>2018-08-08T13:33:28.000Z</time>
      </trkpt>
      <trkpt lat="42.70021" lon="0.6633">
        <ele>1995.7</ele>
        <time>2018-08-08T13:33:29.000Z</time>
      </trkpt>
      <trkpt lat="42.70021" lon="0.6633">
        <ele>1995.8</ele>
        <time>2018-08-08T13:33:30.000Z</time>
      </trkpt>
      <trkpt lat="42.70021" lon="0.6633">
        <ele>1996</ele>
        <time>2018-08-08T13:33:31.000Z</time>
      </trkpt>
      <trkpt lat="42.70021" lon="0.6633">
        <ele>1996</ele>
        <time>2018-08-08T13:33:32.000Z</time>
      </trkpt>
      <trkpt lat="42.70021" lon="0.6633">
        <ele>1996.1</ele>
        <time>2018-08-08T13:33:33.000Z</time>
      </trkpt>
      <trkpt lat="42.70021" lon="0.6633">
        <ele>1996.2</ele>
        <time>2018-08-08T13:33:34.000Z</time>
      </trkpt>
      <trkpt lat="42.70021" lon="0.6633">
        <ele>1996.2</ele>
        <time>2018-08-08T13:33:35.000Z</time>
      </trkpt>
      <trkpt lat="42.70021" lon="0.6633">
        <ele>1996.1</ele>
        <time>2018-08-08T13:33:36.000Z</time>
      </trkpt>
      <trkpt lat="42.70021" lon="0.6633">
        <ele>1996.1</ele>
        <time>2018-08-08T13:33:37.000Z</time>
      </trkpt>
      <trkpt lat="42.70021" lon="0.6633">
        <ele>1996.1</ele>
        <time>2018-08-08T13:33:38.000Z</time>
      </trkpt>
      <trkpt lat="42.70021" lon="0.6633">
        <ele>1996.1</ele>
        <time>2018-08-08T13:33:39.000Z</time>
      </trkpt>
      <trkpt lat="42.70021" lon="0.6633">
        <ele>1996.1</ele>
        <time>2018-08-08T13:33:40.000Z</time>
      </trkpt>
      <trkpt lat="42.70021" lon="0.66329">
        <ele>1996.2</ele>
        <time>2018-08-08T13:33:41.000Z</time>
      </trkpt>
      <trkpt lat="42.70021" lon="0.66329">
        <ele>1996.2</ele>
        <time>2018-08-08T13:33:42.000Z</time>
      </trkpt>
      <trkpt lat="42.70021" lon="0.66329">
        <ele>1996.3</ele>
        <time>2018-08-08T13:33:43.000Z</time>
      </trkpt>
      <trkpt lat="42.70021" lon="0.66329">
        <ele>1996.4</ele>
        <time>2018-08-08T13:33:44.000Z</time>
      </trkpt>
      <trkpt lat="42.7002" lon="0.66329">
        <ele>1996.6</ele>
        <time>2018-08-08T13:33:45.000Z</time>
      </trkpt>
      <trkpt lat="42.7002" lon="0.66329">
        <ele>1996.7</ele>
        <time>2018-08-08T13:33:46.000Z</time>
      </trkpt>
      <trkpt lat="42.7002" lon="0.66328">
        <ele>1996.8</ele>
        <time>2018-08-08T13:33:47.000Z</time>
      </trkpt>
      <trkpt lat="42.7002" lon="0.66328">
        <ele>1996.9</ele>
        <time>2018-08-08T13:33:48.000Z</time>
      </trkpt>
      <trkpt lat="42.7002" lon="0.66328">
        <ele>1997</ele>
        <time>2018-08-08T13:33:49.000Z</time>
      </trkpt>
      <trkpt lat="42.7002" lon="0.66328">
        <ele>1997.1</ele>
        <time>2018-08-08T13:33:50.000Z</time>
      </trkpt>
      <trkpt lat="42.70021" lon="0.66328">
        <ele>1997.1</ele>
        <time>2018-08-08T13:33:51.000Z</time>
      </trkpt>
      <trkpt lat="42.70021" lon="0.66327">
        <ele>1997.1</ele>
        <time>2018-08-08T13:33:52.000Z</time>
      </trkpt>
      <trkpt lat="42.70021" lon="0.66327">
        <ele>1997.1</ele>
        <time>2018-08-08T13:33:53.000Z</time>
      </trkpt>
      <trkpt lat="42.70021" lon="0.66327">
        <ele>1997.1</ele>
        <time>2018-08-08T13:33:54.000Z</time>
      </trkpt>
      <trkpt lat="42.70021" lon="0.66327">
        <ele>1997.1</ele>
        <time>2018-08-08T13:33:55.000Z</time>
      </trkpt>
      <trkpt lat="42.70021" lon="0.66327">
        <ele>1997</ele>
        <time>2018-08-08T13:33:56.000Z</time>
      </trkpt>
      <trkpt lat="42.70021" lon="0.66327">
        <ele>1997</ele>
        <time>2018-08-08T13:33:57.000Z</time>
      </trkpt>
      <trkpt lat="42.70021" lon="0.66327">
        <ele>1996.9</ele>
        <time>2018-08-08T13:33:58.000Z</time>
      </trkpt>
      <trkpt lat="42.70021" lon="0.66327">
        <ele>1996.9</ele>
        <time>2018-08-08T13:33:59.000Z</time>
      </trkpt>
      <trkpt lat="42.70021" lon="0.66327">
        <ele>1996.9</ele>
        <time>2018-08-08T13:34:00.000Z</time>
      </trkpt>
      <trkpt lat="42.70021" lon="0.66327">
        <ele>1996.9</ele>
        <time>2018-08-08T13:34:01.000Z</time>
      </trkpt>
      <trkpt lat="42.70021" lon="0.66327">
        <ele>1996.8</ele>
        <time>2018-08-08T13:34:02.000Z</time>
      </trkpt>
      <trkpt lat="42.70021" lon="0.66327">
        <ele>1996.9</ele>
        <time>2018-08-08T13:34:03.000Z</time>
      </trkpt>
      <trkpt lat="42.70021" lon="0.66328">
        <ele>1996.8</ele>
        <time>2018-08-08T13:34:04.000Z</time>
      </trkpt>
      <trkpt lat="42.70021" lon="0.66328">
        <ele>1996.8</ele>
        <time>2018-08-08T13:34:05.000Z</time>
      </trkpt>
      <trkpt lat="42.70021" lon="0.66328">
        <ele>1996.8</ele>
        <time>2018-08-08T13:34:06.000Z</time>
      </trkpt>
      <trkpt lat="42.70021" lon="0.66328">
        <ele>1996.8</ele>
        <time>2018-08-08T13:34:07.000Z</time>
      </trkpt>
      <trkpt lat="42.70021" lon="0.66328">
        <ele>1996.8</ele>
        <time>2018-08-08T13:34:08.000Z</time>
      </trkpt>
      <trkpt lat="42.70021" lon="0.66328">
        <ele>1996.8</ele>
        <time>2018-08-08T13:34:09.000Z</time>
      </trkpt>
      <trkpt lat="42.70021" lon="0.66328">
        <ele>1996.8</ele>
        <time>2018-08-08T13:34:10.000Z</time>
      </trkpt>
      <trkpt lat="42.70021" lon="0.66328">
        <ele>1996.8</ele>
        <time>2018-08-08T13:34:11.000Z</time>
      </trkpt>
      <trkpt lat="42.70021" lon="0.66328">
        <ele>1996.8</ele>
        <time>2018-08-08T13:34:12.000Z</time>
      </trkpt>
      <trkpt lat="42.70022" lon="0.66327">
        <ele>1996.8</ele>
        <time>2018-08-08T13:34:13.000Z</time>
      </trkpt>
      <trkpt lat="42.70022" lon="0.66327">
        <ele>1996.8</ele>
        <time>2018-08-08T13:34:14.000Z</time>
      </trkpt>
      <trkpt lat="42.70022" lon="0.66327">
        <ele>1996.9</ele>
        <time>2018-08-08T13:34:15.000Z</time>
      </trkpt>
      <trkpt lat="42.70023" lon="0.66326">
        <ele>1997</ele>
        <time>2018-08-08T13:34:16.000Z</time>
      </trkpt>
      <trkpt lat="42.70024" lon="0.66325">
        <ele>1997.1</ele>
        <time>2018-08-08T13:34:17.000Z</time>
      </trkpt>
      <trkpt lat="42.70024" lon="0.66324">
        <ele>1997.2</ele>
        <time>2018-08-08T13:34:18.000Z</time>
      </trkpt>
      <trkpt lat="42.70025" lon="0.66324">
        <ele>1997.3</ele>
        <time>2018-08-08T13:34:19.000Z</time>
      </trkpt>
      <trkpt lat="42.70025" lon="0.66323">
        <ele>1997.4</ele>
        <time>2018-08-08T13:34:20.000Z</time>
      </trkpt>
      <trkpt lat="42.70025" lon="0.66323">
        <ele>1997.5</ele>
        <time>2018-08-08T13:34:21.000Z</time>
      </trkpt>
      <trkpt lat="42.70025" lon="0.66323">
        <ele>1997.5</ele>
        <time>2018-08-08T13:34:22.000Z</time>
      </trkpt>
      <trkpt lat="42.70025" lon="0.66323">
        <ele>1997.5</ele>
        <time>2018-08-08T13:34:23.000Z</time>
      </trkpt>
      <trkpt lat="42.70025" lon="0.66323">
        <ele>1997.5</ele>
        <time>2018-08-08T13:34:24.000Z</time>
      </trkpt>
      <trkpt lat="42.70025" lon="0.66323">
        <ele>1997.4</ele>
        <time>2018-08-08T13:34:25.000Z</time>
      </trkpt>
      <trkpt lat="42.70025" lon="0.66323">
        <ele>1997.4</ele>
        <time>2018-08-08T13:34:26.000Z</time>
      </trkpt>
      <trkpt lat="42.70025" lon="0.66323">
        <ele>1997.3</ele>
        <time>2018-08-08T13:34:27.000Z</time>
      </trkpt>
      <trkpt lat="42.70025" lon="0.66323">
        <ele>1997.3</ele>
        <time>2018-08-08T13:34:28.000Z</time>
      </trkpt>
      <trkpt lat="42.70026" lon="0.66323">
        <ele>1997.2</ele>
        <time>2018-08-08T13:34:29.000Z</time>
      </trkpt>
      <trkpt lat="42.70026" lon="0.66323">
        <ele>1997.1</ele>
        <time>2018-08-08T13:34:30.000Z</time>
      </trkpt>
      <trkpt lat="42.70026" lon="0.66323">
        <ele>1997</ele>
        <time>2018-08-08T13:34:31.000Z</time>
      </trkpt>
      <trkpt lat="42.70026" lon="0.66322">
        <ele>1997.2</ele>
        <time>2018-08-08T13:34:32.000Z</time>
      </trkpt>
      <trkpt lat="42.70027" lon="0.66321">
        <ele>1997.5</ele>
        <time>2018-08-08T13:34:33.000Z</time>
      </trkpt>
      <trkpt lat="42.70028" lon="0.66321">
        <ele>1997.6</ele>
        <time>2018-08-08T13:34:34.000Z</time>
      </trkpt>
      <trkpt lat="42.70028" lon="0.6632">
        <ele>1997.7</ele>
        <time>2018-08-08T13:34:35.000Z</time>
      </trkpt>
      <trkpt lat="42.70028" lon="0.6632">
        <ele>1997.8</ele>
        <time>2018-08-08T13:34:36.000Z</time>
      </trkpt>
      <trkpt lat="42.70028" lon="0.66319">
        <ele>1997.9</ele>
        <time>2018-08-08T13:34:37.000Z</time>
      </trkpt>
      <trkpt lat="42.70028" lon="0.66319">
        <ele>1997.9</ele>
        <time>2018-08-08T13:34:38.000Z</time>
      </trkpt>
      <trkpt lat="42.70028" lon="0.66319">
        <ele>1997.9</ele>
        <time>2018-08-08T13:34:39.000Z</time>
      </trkpt>
      <trkpt lat="42.70028" lon="0.66319">
        <ele>1997.9</ele>
        <time>2018-08-08T13:34:40.000Z</time>
      </trkpt>
      <trkpt lat="42.70028" lon="0.66319">
        <ele>1997.9</ele>
        <time>2018-08-08T13:34:41.000Z</time>
      </trkpt>
      <trkpt lat="42.70028" lon="0.66319">
        <ele>1997.9</ele>
        <time>2018-08-08T13:34:42.000Z</time>
      </trkpt>
      <trkpt lat="42.70028" lon="0.66319">
        <ele>1997.9</ele>
        <time>2018-08-08T13:34:43.000Z</time>
      </trkpt>
      <trkpt lat="42.70028" lon="0.66319">
        <ele>1997.9</ele>
        <time>2018-08-08T13:34:44.000Z</time>
      </trkpt>
      <trkpt lat="42.70028" lon="0.66319">
        <ele>1997.9</ele>
        <time>2018-08-08T13:34:45.000Z</time>
      </trkpt>
      <trkpt lat="42.70028" lon="0.66319">
        <ele>1997.9</ele>
        <time>2018-08-08T13:34:46.000Z</time>
      </trkpt>
      <trkpt lat="42.70028" lon="0.66319">
        <ele>1997.9</ele>
        <time>2018-08-08T13:34:47.000Z</time>
      </trkpt>
      <trkpt lat="42.70028" lon="0.66319">
        <ele>1997.9</ele>
        <time>2018-08-08T13:34:48.000Z</time>
      </trkpt>
      <trkpt lat="42.70028" lon="0.66319">
        <ele>1997.9</ele>
        <time>2018-08-08T13:34:49.000Z</time>
      </trkpt>
      <trkpt lat="42.70028" lon="0.66319">
        <ele>1997.9</ele>
        <time>2018-08-08T13:34:50.000Z</time>
      </trkpt>
      <trkpt lat="42.70028" lon="0.66319">
        <ele>1997.9</ele>
        <time>2018-08-08T13:34:51.000Z</time>
      </trkpt>
      <trkpt lat="42.70029" lon="0.66319">
        <ele>1997.8</ele>
        <time>2018-08-08T13:34:52.000Z</time>
      </trkpt>
      <trkpt lat="42.70029" lon="0.66319">
        <ele>1997.8</ele>
        <time>2018-08-08T13:34:53.000Z</time>
      </trkpt>
      <trkpt lat="42.70029" lon="0.66319">
        <ele>1997.8</ele>
        <time>2018-08-08T13:34:54.000Z</time>
      </trkpt>
      <trkpt lat="42.70029" lon="0.66319">
        <ele>1997.8</ele>
        <time>2018-08-08T13:34:55.000Z</time>
      </trkpt>
      <trkpt lat="42.70029" lon="0.66319">
        <ele>1997.7</ele>
        <time>2018-08-08T13:34:56.000Z</time>
      </trkpt>
      <trkpt lat="42.70029" lon="0.66319">
        <ele>1997.7</ele>
        <time>2018-08-08T13:34:57.000Z</time>
      </trkpt>
      <trkpt lat="42.70029" lon="0.66319">
        <ele>1997.7</ele>
        <time>2018-08-08T13:34:58.000Z</time>
      </trkpt>
      <trkpt lat="42.70029" lon="0.66319">
        <ele>1997.6</ele>
        <time>2018-08-08T13:34:59.000Z</time>
      </trkpt>
      <trkpt lat="42.70029" lon="0.66319">
        <ele>1997.5</ele>
        <time>2018-08-08T13:35:00.000Z</time>
      </trkpt>
      <trkpt lat="42.70029" lon="0.66319">
        <ele>1997.4</ele>
        <time>2018-08-08T13:35:01.000Z</time>
      </trkpt>
      <trkpt lat="42.7003" lon="0.66319">
        <ele>1997.3</ele>
        <time>2018-08-08T13:35:02.000Z</time>
      </trkpt>
      <trkpt lat="42.7003" lon="0.66319">
        <ele>1997.3</ele>
        <time>2018-08-08T13:35:03.000Z</time>
      </trkpt>
      <trkpt lat="42.7003" lon="0.66319">
        <ele>1997.2</ele>
        <time>2018-08-08T13:35:04.000Z</time>
      </trkpt>
      <trkpt lat="42.70031" lon="0.66319">
        <ele>1997.1</ele>
        <time>2018-08-08T13:35:05.000Z</time>
      </trkpt>
      <trkpt lat="42.70031" lon="0.66319">
        <ele>1997</ele>
        <time>2018-08-08T13:35:06.000Z</time>
      </trkpt>
      <trkpt lat="42.70031" lon="0.66319">
        <ele>1996.9</ele>
        <time>2018-08-08T13:35:07.000Z</time>
      </trkpt>
      <trkpt lat="42.70032" lon="0.66319">
        <ele>1996.9</ele>
        <time>2018-08-08T13:35:08.000Z</time>
      </trkpt>
      <trkpt lat="42.70032" lon="0.66318">
        <ele>1996.8</ele>
        <time>2018-08-08T13:35:09.000Z</time>
      </trkpt>
      <trkpt lat="42.70032" lon="0.66318">
        <ele>1996.8</ele>
        <time>2018-08-08T13:35:10.000Z</time>
      </trkpt>
      <trkpt lat="42.70032" lon="0.66318">
        <ele>1996.7</ele>
        <time>2018-08-08T13:35:11.000Z</time>
      </trkpt>
      <trkpt lat="42.70033" lon="0.66318">
        <ele>1996.7</ele>
        <time>2018-08-08T13:35:12.000Z</time>
      </trkpt>
      <trkpt lat="42.70033" lon="0.66318">
        <ele>1996.7</ele>
        <time>2018-08-08T13:35:13.000Z</time>
      </trkpt>
      <trkpt lat="42.70033" lon="0.66318">
        <ele>1996.6</ele>
        <time>2018-08-08T13:35:14.000Z</time>
      </trkpt>
      <trkpt lat="42.70033" lon="0.66318">
        <ele>1996.6</ele>
        <time>2018-08-08T13:35:15.000Z</time>
      </trkpt>
      <trkpt lat="42.70033" lon="0.66318">
        <ele>1996.6</ele>
        <time>2018-08-08T13:35:16.000Z</time>
      </trkpt>
      <trkpt lat="42.70033" lon="0.66318">
        <ele>1996.6</ele>
        <time>2018-08-08T13:35:17.000Z</time>
      </trkpt>
      <trkpt lat="42.70033" lon="0.66318">
        <ele>1996.6</ele>
        <time>2018-08-08T13:35:18.000Z</time>
      </trkpt>
      <trkpt lat="42.70033" lon="0.66318">
        <ele>1996.6</ele>
        <time>2018-08-08T13:35:19.000Z</time>
      </trkpt>
      <trkpt lat="42.70033" lon="0.66318">
        <ele>1996.6</ele>
        <time>2018-08-08T13:35:20.000Z</time>
      </trkpt>
      <trkpt lat="42.70033" lon="0.66318">
        <ele>1996.6</ele>
        <time>2018-08-08T13:35:21.000Z</time>
      </trkpt>
      <trkpt lat="42.70033" lon="0.66318">
        <ele>1996.6</ele>
        <time>2018-08-08T13:35:22.000Z</time>
      </trkpt>
      <trkpt lat="42.70033" lon="0.66318">
        <ele>1996.6</ele>
        <time>2018-08-08T13:35:23.000Z</time>
      </trkpt>
      <trkpt lat="42.70033" lon="0.66318">
        <ele>1996.6</ele>
        <time>2018-08-08T13:35:24.000Z</time>
      </trkpt>
      <trkpt lat="42.70033" lon="0.66318">
        <ele>1996.6</ele>
        <time>2018-08-08T13:35:25.000Z</time>
      </trkpt>
      <trkpt lat="42.70033" lon="0.66318">
        <ele>1996.6</ele>
        <time>2018-08-08T13:35:26.000Z</time>
      </trkpt>
      <trkpt lat="42.70033" lon="0.66318">
        <ele>1996.6</ele>
        <time>2018-08-08T13:35:27.000Z</time>
      </trkpt>
      <trkpt lat="42.70033" lon="0.66318">
        <ele>1996.6</ele>
        <time>2018-08-08T13:35:28.000Z</time>
      </trkpt>
      <trkpt lat="42.70033" lon="0.66318">
        <ele>1996.6</ele>
        <time>2018-08-08T13:35:29.000Z</time>
      </trkpt>
      <trkpt lat="42.70033" lon="0.66318">
        <ele>1996.5</ele>
        <time>2018-08-08T13:35:30.000Z</time>
      </trkpt>
      <trkpt lat="42.70033" lon="0.66318">
        <ele>1996.5</ele>
        <time>2018-08-08T13:35:31.000Z</time>
      </trkpt>
      <trkpt lat="42.70033" lon="0.66318">
        <ele>1996.5</ele>
        <time>2018-08-08T13:35:32.000Z</time>
      </trkpt>
      <trkpt lat="42.70033" lon="0.66318">
        <ele>1996.5</ele>
        <time>2018-08-08T13:35:33.000Z</time>
      </trkpt>
      <trkpt lat="42.70033" lon="0.66318">
        <ele>1996.4</ele>
        <time>2018-08-08T13:35:34.000Z</time>
      </trkpt>
      <trkpt lat="42.70033" lon="0.66318">
        <ele>1996.4</ele>
        <time>2018-08-08T13:35:35.000Z</time>
      </trkpt>
      <trkpt lat="42.70033" lon="0.66319">
        <ele>1996.3</ele>
        <time>2018-08-08T13:35:36.000Z</time>
      </trkpt>
      <trkpt lat="42.70033" lon="0.66319">
        <ele>1996.2</ele>
        <time>2018-08-08T13:35:37.000Z</time>
      </trkpt>
      <trkpt lat="42.70033" lon="0.66319">
        <ele>1996.2</ele>
        <time>2018-08-08T13:35:38.000Z</time>
      </trkpt>
      <trkpt lat="42.70033" lon="0.66319">
        <ele>1996.1</ele>
        <time>2018-08-08T13:35:39.000Z</time>
      </trkpt>
      <trkpt lat="42.70033" lon="0.66319">
        <ele>1996</ele>
        <time>2018-08-08T13:35:40.000Z</time>
      </trkpt>
      <trkpt lat="42.70033" lon="0.66319">
        <ele>1996</ele>
        <time>2018-08-08T13:35:41.000Z</time>
      </trkpt>
      <trkpt lat="42.70033" lon="0.66319">
        <ele>1995.9</ele>
        <time>2018-08-08T13:35:42.000Z</time>
      </trkpt>
      <trkpt lat="42.70033" lon="0.66319">
        <ele>1995.8</ele>
        <time>2018-08-08T13:35:43.000Z</time>
      </trkpt>
      <trkpt lat="42.70034" lon="0.66319">
        <ele>1995.7</ele>
        <time>2018-08-08T13:35:44.000Z</time>
      </trkpt>
      <trkpt lat="42.70034" lon="0.6632">
        <ele>1995.7</ele>
        <time>2018-08-08T13:35:45.000Z</time>
      </trkpt>
      <trkpt lat="42.70034" lon="0.6632">
        <ele>1995.6</ele>
        <time>2018-08-08T13:35:46.000Z</time>
      </trkpt>
      <trkpt lat="42.70034" lon="0.6632">
        <ele>1995.5</ele>
        <time>2018-08-08T13:35:47.000Z</time>
      </trkpt>
      <trkpt lat="42.70034" lon="0.6632">
        <ele>1995.4</ele>
        <time>2018-08-08T13:35:48.000Z</time>
      </trkpt>
      <trkpt lat="42.70034" lon="0.6632">
        <ele>1995.4</ele>
        <time>2018-08-08T13:35:49.000Z</time>
      </trkpt>
      <trkpt lat="42.70034" lon="0.6632">
        <ele>1995.3</ele>
        <time>2018-08-08T13:35:50.000Z</time>
      </trkpt>
      <trkpt lat="42.70034" lon="0.6632">
        <ele>1995.3</ele>
        <time>2018-08-08T13:35:51.000Z</time>
      </trkpt>
      <trkpt lat="42.70034" lon="0.6632">
        <ele>1995.2</ele>
        <time>2018-08-08T13:35:52.000Z</time>
      </trkpt>
      <trkpt lat="42.70034" lon="0.6632">
        <ele>1995.2</ele>
        <time>2018-08-08T13:35:53.000Z</time>
      </trkpt>
      <trkpt lat="42.70034" lon="0.6632">
        <ele>1995.1</ele>
        <time>2018-08-08T13:35:54.000Z</time>
      </trkpt>
      <trkpt lat="42.70034" lon="0.6632">
        <ele>1995.1</ele>
        <time>2018-08-08T13:35:55.000Z</time>
      </trkpt>
      <trkpt lat="42.70034" lon="0.6632">
        <ele>1995.1</ele>
        <time>2018-08-08T13:35:56.000Z</time>
      </trkpt>
      <trkpt lat="42.70034" lon="0.6632">
        <ele>1995.1</ele>
        <time>2018-08-08T13:35:57.000Z</time>
      </trkpt>
      <trkpt lat="42.70034" lon="0.6632">
        <ele>1995.1</ele>
        <time>2018-08-08T13:35:58.000Z</time>
      </trkpt>
      <trkpt lat="42.70034" lon="0.6632">
        <ele>1995</ele>
        <time>2018-08-08T13:35:59.000Z</time>
      </trkpt>
      <trkpt lat="42.70034" lon="0.6632">
        <ele>1995</ele>
        <time>2018-08-08T13:36:00.000Z</time>
      </trkpt>
      <trkpt lat="42.70034" lon="0.6632">
        <ele>1995</ele>
        <time>2018-08-08T13:36:01.000Z</time>
      </trkpt>
      <trkpt lat="42.70034" lon="0.6632">
        <ele>1995.1</ele>
        <time>2018-08-08T13:36:02.000Z</time>
      </trkpt>
      <trkpt lat="42.70034" lon="0.6632">
        <ele>1995</ele>
        <time>2018-08-08T13:36:03.000Z</time>
      </trkpt>
      <trkpt lat="42.70034" lon="0.6632">
        <ele>1995</ele>
        <time>2018-08-08T13:36:04.000Z</time>
      </trkpt>
      <trkpt lat="42.70034" lon="0.6632">
        <ele>1995</ele>
        <time>2018-08-08T13:36:05.000Z</time>
      </trkpt>
      <trkpt lat="42.70034" lon="0.6632">
        <ele>1995</ele>
        <time>2018-08-08T13:36:06.000Z</time>
      </trkpt>
      <trkpt lat="42.70034" lon="0.6632">
        <ele>1995</ele>
        <time>2018-08-08T13:36:07.000Z</time>
      </trkpt>
      <trkpt lat="42.70034" lon="0.6632">
        <ele>1995</ele>
        <time>2018-08-08T13:36:08.000Z</time>
      </trkpt>
      <trkpt lat="42.70034" lon="0.6632">
        <ele>1995</ele>
        <time>2018-08-08T13:36:09.000Z</time>
      </trkpt>
      <trkpt lat="42.70034" lon="0.6632">
        <ele>1995</ele>
        <time>2018-08-08T13:36:10.000Z</time>
      </trkpt>
      <trkpt lat="42.70034" lon="0.6632">
        <ele>1995</ele>
        <time>2018-08-08T13:36:11.000Z</time>
      </trkpt>
      <trkpt lat="42.70034" lon="0.6632">
        <ele>1995</ele>
        <time>2018-08-08T13:36:12.000Z</time>
      </trkpt>
      <trkpt lat="42.70034" lon="0.6632">
        <ele>1995.1</ele>
        <time>2018-08-08T13:36:13.000Z</time>
      </trkpt>
      <trkpt lat="42.70034" lon="0.6632">
        <ele>1995.2</ele>
        <time>2018-08-08T13:36:14.000Z</time>
      </trkpt>
      <trkpt lat="42.70034" lon="0.6632">
        <ele>1995.4</ele>
        <time>2018-08-08T13:36:15.000Z</time>
      </trkpt>
      <trkpt lat="42.70033" lon="0.6632">
        <ele>1995.6</ele>
        <time>2018-08-08T13:36:16.000Z</time>
      </trkpt>
      <trkpt lat="42.70033" lon="0.6632">
        <ele>1995.8</ele>
        <time>2018-08-08T13:36:17.000Z</time>
      </trkpt>
      <trkpt lat="42.70033" lon="0.66319">
        <ele>1996.1</ele>
        <time>2018-08-08T13:36:18.000Z</time>
      </trkpt>
      <trkpt lat="42.70032" lon="0.66319">
        <ele>1996.4</ele>
        <time>2018-08-08T13:36:19.000Z</time>
      </trkpt>
      <trkpt lat="42.70032" lon="0.66319">
        <ele>1996.7</ele>
        <time>2018-08-08T13:36:20.000Z</time>
      </trkpt>
      <trkpt lat="42.70032" lon="0.66318">
        <ele>1997.1</ele>
        <time>2018-08-08T13:36:21.000Z</time>
      </trkpt>
      <trkpt lat="42.70031" lon="0.66318">
        <ele>1997.4</ele>
        <time>2018-08-08T13:36:22.000Z</time>
      </trkpt>
      <trkpt lat="42.70031" lon="0.66317">
        <ele>1997.8</ele>
        <time>2018-08-08T13:36:23.000Z</time>
      </trkpt>
      <trkpt lat="42.7003" lon="0.66317">
        <ele>1998.2</ele>
        <time>2018-08-08T13:36:24.000Z</time>
      </trkpt>
      <trkpt lat="42.7003" lon="0.66316">
        <ele>1998.7</ele>
        <time>2018-08-08T13:36:25.000Z</time>
      </trkpt>
      <trkpt lat="42.70029" lon="0.66316">
        <ele>1999.1</ele>
        <time>2018-08-08T13:36:26.000Z</time>
      </trkpt>
      <trkpt lat="42.70029" lon="0.66315">
        <ele>1999.6</ele>
        <time>2018-08-08T13:36:27.000Z</time>
      </trkpt>
      <trkpt lat="42.70028" lon="0.66315">
        <ele>2000</ele>
        <time>2018-08-08T13:36:28.000Z</time>
      </trkpt>
      <trkpt lat="42.70028" lon="0.66314">
        <ele>2000.3</ele>
        <time>2018-08-08T13:36:29.000Z</time>
      </trkpt>
      <trkpt lat="42.70028" lon="0.66314">
        <ele>2000.7</ele>
        <time>2018-08-08T13:36:30.000Z</time>
      </trkpt>
      <trkpt lat="42.70028" lon="0.66313">
        <ele>2000.9</ele>
        <time>2018-08-08T13:36:31.000Z</time>
      </trkpt>
      <trkpt lat="42.70028" lon="0.66313">
        <ele>2001.2</ele>
        <time>2018-08-08T13:36:32.000Z</time>
      </trkpt>
      <trkpt lat="42.70028" lon="0.66313">
        <ele>2001.4</ele>
        <time>2018-08-08T13:36:33.000Z</time>
      </trkpt>
      <trkpt lat="42.70028" lon="0.66312">
        <ele>2001.6</ele>
        <time>2018-08-08T13:36:34.000Z</time>
      </trkpt>
      <trkpt lat="42.70027" lon="0.66312">
        <ele>2001.8</ele>
        <time>2018-08-08T13:36:35.000Z</time>
      </trkpt>
      <trkpt lat="42.70027" lon="0.66311">
        <ele>2002.1</ele>
        <time>2018-08-08T13:36:36.000Z</time>
      </trkpt>
      <trkpt lat="42.70027" lon="0.66311">
        <ele>2002.3</ele>
        <time>2018-08-08T13:36:37.000Z</time>
      </trkpt>
      <trkpt lat="42.70027" lon="0.66311">
        <ele>2002.6</ele>
        <time>2018-08-08T13:36:38.000Z</time>
      </trkpt>
      <trkpt lat="42.70027" lon="0.6631">
        <ele>2002.8</ele>
        <time>2018-08-08T13:36:39.000Z</time>
      </trkpt>
      <trkpt lat="42.70026" lon="0.6631">
        <ele>2003.1</ele>
        <time>2018-08-08T13:36:40.000Z</time>
      </trkpt>
      <trkpt lat="42.70026" lon="0.6631">
        <ele>2003.3</ele>
        <time>2018-08-08T13:36:41.000Z</time>
      </trkpt>
      <trkpt lat="42.70026" lon="0.66309">
        <ele>2003.5</ele>
        <time>2018-08-08T13:36:42.000Z</time>
      </trkpt>
      <trkpt lat="42.70026" lon="0.66309">
        <ele>2003.8</ele>
        <time>2018-08-08T13:36:43.000Z</time>
      </trkpt>
      <trkpt lat="42.70026" lon="0.66309">
        <ele>2003.9</ele>
        <time>2018-08-08T13:36:44.000Z</time>
      </trkpt>
      <trkpt lat="42.70026" lon="0.66308">
        <ele>2004.1</ele>
        <time>2018-08-08T13:36:45.000Z</time>
      </trkpt>
      <trkpt lat="42.70026" lon="0.66308">
        <ele>2004.2</ele>
        <time>2018-08-08T13:36:46.000Z</time>
      </trkpt>
      <trkpt lat="42.70026" lon="0.66308">
        <ele>2004.3</ele>
        <time>2018-08-08T13:36:47.000Z</time>
      </trkpt>
      <trkpt lat="42.70026" lon="0.66308">
        <ele>2004.4</ele>
        <time>2018-08-08T13:36:48.000Z</time>
      </trkpt>
      <trkpt lat="42.70025" lon="0.66308">
        <ele>2004.5</ele>
        <time>2018-08-08T13:36:49.000Z</time>
      </trkpt>
      <trkpt lat="42.70025" lon="0.66308">
        <ele>2004.6</ele>
        <time>2018-08-08T13:36:50.000Z</time>
      </trkpt>
      <trkpt lat="42.70025" lon="0.66308">
        <ele>2004.8</ele>
        <time>2018-08-08T13:36:51.000Z</time>
      </trkpt>
      <trkpt lat="42.70025" lon="0.66307">
        <ele>2004.9</ele>
        <time>2018-08-08T13:36:52.000Z</time>
      </trkpt>
      <trkpt lat="42.70025" lon="0.66307">
        <ele>2005</ele>
        <time>2018-08-08T13:36:53.000Z</time>
      </trkpt>
      <trkpt lat="42.70025" lon="0.66307">
        <ele>2005.1</ele>
        <time>2018-08-08T13:36:54.000Z</time>
      </trkpt>
      <trkpt lat="42.70025" lon="0.66307">
        <ele>2005.2</ele>
        <time>2018-08-08T13:36:55.000Z</time>
      </trkpt>
      <trkpt lat="42.70024" lon="0.66307">
        <ele>2005.3</ele>
        <time>2018-08-08T13:36:56.000Z</time>
      </trkpt>
      <trkpt lat="42.70024" lon="0.66307">
        <ele>2005.5</ele>
        <time>2018-08-08T13:36:57.000Z</time>
      </trkpt>
      <trkpt lat="42.70024" lon="0.66307">
        <ele>2005.6</ele>
        <time>2018-08-08T13:36:58.000Z</time>
      </trkpt>
      <trkpt lat="42.70024" lon="0.66307">
        <ele>2005.7</ele>
        <time>2018-08-08T13:36:59.000Z</time>
      </trkpt>
      <trkpt lat="42.70024" lon="0.66306">
        <ele>2005.8</ele>
        <time>2018-08-08T13:37:00.000Z</time>
      </trkpt>
      <trkpt lat="42.70024" lon="0.66306">
        <ele>2006</ele>
        <time>2018-08-08T13:37:01.000Z</time>
      </trkpt>
      <trkpt lat="42.70023" lon="0.66306">
        <ele>2006.2</ele>
        <time>2018-08-08T13:37:02.000Z</time>
      </trkpt>
      <trkpt lat="42.70023" lon="0.66306">
        <ele>2006.3</ele>
        <time>2018-08-08T13:37:03.000Z</time>
      </trkpt>
      <trkpt lat="42.70023" lon="0.66306">
        <ele>2006.3</ele>
        <time>2018-08-08T13:37:04.000Z</time>
      </trkpt>
      <trkpt lat="42.70023" lon="0.66306">
        <ele>2006.4</ele>
        <time>2018-08-08T13:37:05.000Z</time>
      </trkpt>
      <trkpt lat="42.70023" lon="0.66306">
        <ele>2006.4</ele>
        <time>2018-08-08T13:37:06.000Z</time>
      </trkpt>
      <trkpt lat="42.70023" lon="0.66306">
        <ele>2006.5</ele>
        <time>2018-08-08T13:37:07.000Z</time>
      </trkpt>
      <trkpt lat="42.70022" lon="0.66306">
        <ele>2006.5</ele>
        <time>2018-08-08T13:37:08.000Z</time>
      </trkpt>
      <trkpt lat="42.70022" lon="0.66306">
        <ele>2006.6</ele>
        <time>2018-08-08T13:37:09.000Z</time>
      </trkpt>
      <trkpt lat="42.70022" lon="0.66306">
        <ele>2006.7</ele>
        <time>2018-08-08T13:37:10.000Z</time>
      </trkpt>
      <trkpt lat="42.70022" lon="0.66306">
        <ele>2006.8</ele>
        <time>2018-08-08T13:37:11.000Z</time>
      </trkpt>
      <trkpt lat="42.70022" lon="0.66306">
        <ele>2006.8</ele>
        <time>2018-08-08T13:37:12.000Z</time>
      </trkpt>
      <trkpt lat="42.70022" lon="0.66306">
        <ele>2006.9</ele>
        <time>2018-08-08T13:37:13.000Z</time>
      </trkpt>
      <trkpt lat="42.70022" lon="0.66306">
        <ele>2007</ele>
        <time>2018-08-08T13:37:14.000Z</time>
      </trkpt>
      <trkpt lat="42.70022" lon="0.66306">
        <ele>2007.1</ele>
        <time>2018-08-08T13:37:15.000Z</time>
      </trkpt>
      <trkpt lat="42.70021" lon="0.66306">
        <ele>2007.1</ele>
        <time>2018-08-08T13:37:16.000Z</time>
      </trkpt>
      <trkpt lat="42.70021" lon="0.66306">
        <ele>2007.1</ele>
        <time>2018-08-08T13:37:17.000Z</time>
      </trkpt>
      <trkpt lat="42.70021" lon="0.66305">
        <ele>2007.3</ele>
        <time>2018-08-08T13:37:18.000Z</time>
      </trkpt>
      <trkpt lat="42.70021" lon="0.66305">
        <ele>2007.8</ele>
        <time>2018-08-08T13:37:19.000Z</time>
      </trkpt>
      <trkpt lat="42.7002" lon="0.66304">
        <ele>2008.5</ele>
        <time>2018-08-08T13:37:20.000Z</time>
      </trkpt>
      <trkpt lat="42.7002" lon="0.66303">
        <ele>2009.1</ele>
        <time>2018-08-08T13:37:21.000Z</time>
      </trkpt>
      <trkpt lat="42.7002" lon="0.66302">
        <ele>2009.5</ele>
        <time>2018-08-08T13:37:22.000Z</time>
      </trkpt>
      <trkpt lat="42.7002" lon="0.66302">
        <ele>2009.7</ele>
        <time>2018-08-08T13:37:23.000Z</time>
      </trkpt>
      <trkpt lat="42.7002" lon="0.66301">
        <ele>2009.8</ele>
        <time>2018-08-08T13:37:24.000Z</time>
      </trkpt>
      <trkpt lat="42.7002" lon="0.66301">
        <ele>2010</ele>
        <time>2018-08-08T13:37:25.000Z</time>
      </trkpt>
      <trkpt lat="42.70019" lon="0.663">
        <ele>2010.3</ele>
        <time>2018-08-08T13:37:26.000Z</time>
      </trkpt>
      <trkpt lat="42.70019" lon="0.66299">
        <ele>2010.8</ele>
        <time>2018-08-08T13:37:27.000Z</time>
      </trkpt>
      <trkpt lat="42.70019" lon="0.66299">
        <ele>2011.3</ele>
        <time>2018-08-08T13:37:28.000Z</time>
      </trkpt>
      <trkpt lat="42.70019" lon="0.66298">
        <ele>2011.6</ele>
        <time>2018-08-08T13:37:29.000Z</time>
      </trkpt>
      <trkpt lat="42.70019" lon="0.66297">
        <ele>2011.8</ele>
        <time>2018-08-08T13:37:30.000Z</time>
      </trkpt>
      <trkpt lat="42.70019" lon="0.66297">
        <ele>2011.9</ele>
        <time>2018-08-08T13:37:31.000Z</time>
      </trkpt>
      <trkpt lat="42.70019" lon="0.66297">
        <ele>2012</ele>
        <time>2018-08-08T13:37:32.000Z</time>
      </trkpt>
      <trkpt lat="42.70019" lon="0.66297">
        <ele>2012.1</ele>
        <time>2018-08-08T13:37:33.000Z</time>
      </trkpt>
      <trkpt lat="42.70019" lon="0.66297">
        <ele>2012.2</ele>
        <time>2018-08-08T13:37:34.000Z</time>
      </trkpt>
      <trkpt lat="42.70019" lon="0.66297">
        <ele>2012.3</ele>
        <time>2018-08-08T13:37:35.000Z</time>
      </trkpt>
      <trkpt lat="42.70019" lon="0.66296">
        <ele>2012.4</ele>
        <time>2018-08-08T13:37:36.000Z</time>
      </trkpt>
      <trkpt lat="42.70019" lon="0.66296">
        <ele>2012.6</ele>
        <time>2018-08-08T13:37:37.000Z</time>
      </trkpt>
      <trkpt lat="42.70019" lon="0.66296">
        <ele>2012.7</ele>
        <time>2018-08-08T13:37:38.000Z</time>
      </trkpt>
      <trkpt lat="42.70019" lon="0.66295">
        <ele>2012.9</ele>
        <time>2018-08-08T13:37:39.000Z</time>
      </trkpt>
      <trkpt lat="42.70019" lon="0.66295">
        <ele>2013</ele>
        <time>2018-08-08T13:37:40.000Z</time>
      </trkpt>
      <trkpt lat="42.70019" lon="0.66295">
        <ele>2013.2</ele>
        <time>2018-08-08T13:37:41.000Z</time>
      </trkpt>
      <trkpt lat="42.70019" lon="0.66294">
        <ele>2013.6</ele>
        <time>2018-08-08T13:37:42.000Z</time>
      </trkpt>
      <trkpt lat="42.70018" lon="0.66293">
        <ele>2014.1</ele>
        <time>2018-08-08T13:37:43.000Z</time>
      </trkpt>
      <trkpt lat="42.70017" lon="0.66293">
        <ele>2014.4</ele>
        <time>2018-08-08T13:37:44.000Z</time>
      </trkpt>
      <trkpt lat="42.70016" lon="0.66294">
        <ele>2014.7</ele>
        <time>2018-08-08T13:37:45.000Z</time>
      </trkpt>
      <trkpt lat="42.70015" lon="0.66294">
        <ele>2014.9</ele>
        <time>2018-08-08T13:37:46.000Z</time>
      </trkpt>
      <trkpt lat="42.70014" lon="0.66294">
        <ele>2015.1</ele>
        <time>2018-08-08T13:37:47.000Z</time>
      </trkpt>
      <trkpt lat="42.70014" lon="0.66295">
        <ele>2015.1</ele>
        <time>2018-08-08T13:37:48.000Z</time>
      </trkpt>
      <trkpt lat="42.70013" lon="0.66295">
        <ele>2015.2</ele>
        <time>2018-08-08T13:37:49.000Z</time>
      </trkpt>
      <trkpt lat="42.70013" lon="0.66295">
        <ele>2015.2</ele>
        <time>2018-08-08T13:37:50.000Z</time>
      </trkpt>
      <trkpt lat="42.70013" lon="0.66295">
        <ele>2015.2</ele>
        <time>2018-08-08T13:37:51.000Z</time>
      </trkpt>
      <trkpt lat="42.70013" lon="0.66295">
        <ele>2015.2</ele>
        <time>2018-08-08T13:37:52.000Z</time>
      </trkpt>
      <trkpt lat="42.70013" lon="0.66295">
        <ele>2015.2</ele>
        <time>2018-08-08T13:37:53.000Z</time>
      </trkpt>
      <trkpt lat="42.70013" lon="0.66295">
        <ele>2015.2</ele>
        <time>2018-08-08T13:37:54.000Z</time>
      </trkpt>
      <trkpt lat="42.70013" lon="0.66295">
        <ele>2015.2</ele>
        <time>2018-08-08T13:37:55.000Z</time>
      </trkpt>
      <trkpt lat="42.70013" lon="0.66295">
        <ele>2015.2</ele>
        <time>2018-08-08T13:37:56.000Z</time>
      </trkpt>
      <trkpt lat="42.70013" lon="0.66295">
        <ele>2015.2</ele>
        <time>2018-08-08T13:37:57.000Z</time>
      </trkpt>
      <trkpt lat="42.70013" lon="0.66295">
        <ele>2015.2</ele>
        <time>2018-08-08T13:37:58.000Z</time>
      </trkpt>
      <trkpt lat="42.70012" lon="0.66296">
        <ele>2015.1</ele>
        <time>2018-08-08T13:37:59.000Z</time>
      </trkpt>
      <trkpt lat="42.70012" lon="0.66296">
        <ele>2015.1</ele>
        <time>2018-08-08T13:38:00.000Z</time>
      </trkpt>
      <trkpt lat="42.70012" lon="0.66297">
        <ele>2014.9</ele>
        <time>2018-08-08T13:38:01.000Z</time>
      </trkpt>
      <trkpt lat="42.70012" lon="0.66297">
        <ele>2014.8</ele>
        <time>2018-08-08T13:38:02.000Z</time>
      </trkpt>
      <trkpt lat="42.70011" lon="0.66298">
        <ele>2014.6</ele>
        <time>2018-08-08T13:38:03.000Z</time>
      </trkpt>
      <trkpt lat="42.70011" lon="0.66299">
        <ele>2014.4</ele>
        <time>2018-08-08T13:38:04.000Z</time>
      </trkpt>
      <trkpt lat="42.7001" lon="0.663">
        <ele>2014.2</ele>
        <time>2018-08-08T13:38:05.000Z</time>
      </trkpt>
      <trkpt lat="42.7001" lon="0.663">
        <ele>2014</ele>
        <time>2018-08-08T13:38:06.000Z</time>
      </trkpt>
      <trkpt lat="42.70009" lon="0.66301">
        <ele>2013.9</ele>
        <time>2018-08-08T13:38:07.000Z</time>
      </trkpt>
      <trkpt lat="42.70009" lon="0.66302">
        <ele>2013.8</ele>
        <time>2018-08-08T13:38:08.000Z</time>
      </trkpt>
      <trkpt lat="42.70009" lon="0.66302">
        <ele>2013.7</ele>
        <time>2018-08-08T13:38:09.000Z</time>
      </trkpt>
      <trkpt lat="42.70008" lon="0.66302">
        <ele>2013.7</ele>
        <time>2018-08-08T13:38:10.000Z</time>
      </trkpt>
      <trkpt lat="42.70008" lon="0.66303">
        <ele>2013.6</ele>
        <time>2018-08-08T13:38:11.000Z</time>
      </trkpt>
      <trkpt lat="42.70008" lon="0.66303">
        <ele>2013.6</ele>
        <time>2018-08-08T13:38:12.000Z</time>
      </trkpt>
      <trkpt lat="42.70008" lon="0.66303">
        <ele>2013.6</ele>
        <time>2018-08-08T13:38:13.000Z</time>
      </trkpt>
      <trkpt lat="42.70007" lon="0.66304">
        <ele>2013.5</ele>
        <time>2018-08-08T13:38:14.000Z</time>
      </trkpt>
      <trkpt lat="42.70007" lon="0.66304">
        <ele>2013.4</ele>
        <time>2018-08-08T13:38:15.000Z</time>
      </trkpt>
      <trkpt lat="42.70006" lon="0.66305">
        <ele>2013.3</ele>
        <time>2018-08-08T13:38:16.000Z</time>
      </trkpt>
      <trkpt lat="42.70006" lon="0.66305">
        <ele>2013.4</ele>
        <time>2018-08-08T13:38:17.000Z</time>
      </trkpt>
      <trkpt lat="42.70005" lon="0.66305">
        <ele>2013.4</ele>
        <time>2018-08-08T13:38:18.000Z</time>
      </trkpt>
      <trkpt lat="42.70005" lon="0.66306">
        <ele>2013.4</ele>
        <time>2018-08-08T13:38:19.000Z</time>
      </trkpt>
      <trkpt lat="42.70005" lon="0.66306">
        <ele>2013.4</ele>
        <time>2018-08-08T13:38:20.000Z</time>
      </trkpt>
      <trkpt lat="42.70004" lon="0.66306">
        <ele>2013.4</ele>
        <time>2018-08-08T13:38:21.000Z</time>
      </trkpt>
      <trkpt lat="42.70004" lon="0.66306">
        <ele>2013.4</ele>
        <time>2018-08-08T13:38:22.000Z</time>
      </trkpt>
      <trkpt lat="42.70004" lon="0.66307">
        <ele>2013.4</ele>
        <time>2018-08-08T13:38:23.000Z</time>
      </trkpt>
      <trkpt lat="42.70004" lon="0.66307">
        <ele>2013.4</ele>
        <time>2018-08-08T13:38:24.000Z</time>
      </trkpt>
      <trkpt lat="42.70003" lon="0.66307">
        <ele>2013.5</ele>
        <time>2018-08-08T13:38:25.000Z</time>
      </trkpt>
      <trkpt lat="42.70003" lon="0.66308">
        <ele>2013.4</ele>
        <time>2018-08-08T13:38:26.000Z</time>
      </trkpt>
      <trkpt lat="42.70002" lon="0.66308">
        <ele>2013.4</ele>
        <time>2018-08-08T13:38:27.000Z</time>
      </trkpt>
      <trkpt lat="42.70001" lon="0.66309">
        <ele>2013.3</ele>
        <time>2018-08-08T13:38:28.000Z</time>
      </trkpt>
      <trkpt lat="42.70001" lon="0.6631">
        <ele>2013.4</ele>
        <time>2018-08-08T13:38:29.000Z</time>
      </trkpt>
      <trkpt lat="42.7" lon="0.6631">
        <ele>2013.4</ele>
        <time>2018-08-08T13:38:30.000Z</time>
      </trkpt>
      <trkpt lat="42.7" lon="0.6631">
        <ele>2013.5</ele>
        <time>2018-08-08T13:38:31.000Z</time>
      </trkpt>
      <trkpt lat="42.69999" lon="0.6631">
        <ele>2013.6</ele>
        <time>2018-08-08T13:38:32.000Z</time>
      </trkpt>
      <trkpt lat="42.69999" lon="0.6631">
        <ele>2013.6</ele>
        <time>2018-08-08T13:38:33.000Z</time>
      </trkpt>
      <trkpt lat="42.69999" lon="0.66311">
        <ele>2013.7</ele>
        <time>2018-08-08T13:38:34.000Z</time>
      </trkpt>
      <trkpt lat="42.69999" lon="0.66311">
        <ele>2013.7</ele>
        <time>2018-08-08T13:38:35.000Z</time>
      </trkpt>
      <trkpt lat="42.69999" lon="0.66311">
        <ele>2013.8</ele>
        <time>2018-08-08T13:38:36.000Z</time>
      </trkpt>
      <trkpt lat="42.69998" lon="0.66311">
        <ele>2013.8</ele>
        <time>2018-08-08T13:38:37.000Z</time>
      </trkpt>
      <trkpt lat="42.69998" lon="0.66311">
        <ele>2013.8</ele>
        <time>2018-08-08T13:38:38.000Z</time>
      </trkpt>
      <trkpt lat="42.69998" lon="0.66311">
        <ele>2013.8</ele>
        <time>2018-08-08T13:38:39.000Z</time>
      </trkpt>
      <trkpt lat="42.69998" lon="0.66311">
        <ele>2013.8</ele>
        <time>2018-08-08T13:38:40.000Z</time>
      </trkpt>
      <trkpt lat="42.69998" lon="0.66311">
        <ele>2013.8</ele>
        <time>2018-08-08T13:38:41.000Z</time>
      </trkpt>
      <trkpt lat="42.69998" lon="0.66311">
        <ele>2013.8</ele>
        <time>2018-08-08T13:38:42.000Z</time>
      </trkpt>
      <trkpt lat="42.69998" lon="0.66311">
        <ele>2013.8</ele>
        <time>2018-08-08T13:38:43.000Z</time>
      </trkpt>
      <trkpt lat="42.69998" lon="0.66311">
        <ele>2013.8</ele>
        <time>2018-08-08T13:38:44.000Z</time>
      </trkpt>
      <trkpt lat="42.69998" lon="0.66311">
        <ele>2013.8</ele>
        <time>2018-08-08T13:38:45.000Z</time>
      </trkpt>
      <trkpt lat="42.69998" lon="0.66311">
        <ele>2013.8</ele>
        <time>2018-08-08T13:38:46.000Z</time>
      </trkpt>
      <trkpt lat="42.69998" lon="0.66311">
        <ele>2013.8</ele>
        <time>2018-08-08T13:38:47.000Z</time>
      </trkpt>
      <trkpt lat="42.69998" lon="0.66311">
        <ele>2013.8</ele>
        <time>2018-08-08T13:38:48.000Z</time>
      </trkpt>
      <trkpt lat="42.69998" lon="0.66311">
        <ele>2013.8</ele>
        <time>2018-08-08T13:38:49.000Z</time>
      </trkpt>
      <trkpt lat="42.69998" lon="0.66311">
        <ele>2013.8</ele>
        <time>2018-08-08T13:38:50.000Z</time>
      </trkpt>
      <trkpt lat="42.69998" lon="0.66311">
        <ele>2013.8</ele>
        <time>2018-08-08T13:38:51.000Z</time>
      </trkpt>
      <trkpt lat="42.69998" lon="0.66311">
        <ele>2013.8</ele>
        <time>2018-08-08T13:38:52.000Z</time>
      </trkpt>
      <trkpt lat="42.69998" lon="0.66311">
        <ele>2013.8</ele>
        <time>2018-08-08T13:38:53.000Z</time>
      </trkpt>
      <trkpt lat="42.69998" lon="0.66311">
        <ele>2013.8</ele>
        <time>2018-08-08T13:38:54.000Z</time>
      </trkpt>
      <trkpt lat="42.69998" lon="0.66311">
        <ele>2013.8</ele>
        <time>2018-08-08T13:38:55.000Z</time>
      </trkpt>
      <trkpt lat="42.69998" lon="0.66311">
        <ele>2013.8</ele>
        <time>2018-08-08T13:38:56.000Z</time>
      </trkpt>
      <trkpt lat="42.69998" lon="0.66311">
        <ele>2013.8</ele>
        <time>2018-08-08T13:38:57.000Z</time>
      </trkpt>
      <trkpt lat="42.69998" lon="0.66311">
        <ele>2013.8</ele>
        <time>2018-08-08T13:38:58.000Z</time>
      </trkpt>
      <trkpt lat="42.69998" lon="0.66311">
        <ele>2013.8</ele>
        <time>2018-08-08T13:38:59.000Z</time>
      </trkpt>
      <trkpt lat="42.69998" lon="0.66311">
        <ele>2013.8</ele>
        <time>2018-08-08T13:39:00.000Z</time>
      </trkpt>
      <trkpt lat="42.69998" lon="0.66311">
        <ele>2013.8</ele>
        <time>2018-08-08T13:39:01.000Z</time>
      </trkpt>
      <trkpt lat="42.69998" lon="0.66311">
        <ele>2013.8</ele>
        <time>2018-08-08T13:39:02.000Z</time>
      </trkpt>
      <trkpt lat="42.69998" lon="0.66311">
        <ele>2013.8</ele>
        <time>2018-08-08T13:39:03.000Z</time>
      </trkpt>
      <trkpt lat="42.69998" lon="0.66311">
        <ele>2013.8</ele>
        <time>2018-08-08T13:39:04.000Z</time>
      </trkpt>
      <trkpt lat="42.69998" lon="0.66311">
        <ele>2013.8</ele>
        <time>2018-08-08T13:39:05.000Z</time>
      </trkpt>
      <trkpt lat="42.69998" lon="0.66311">
        <ele>2013.8</ele>
        <time>2018-08-08T13:39:06.000Z</time>
      </trkpt>
      <trkpt lat="42.69998" lon="0.66311">
        <ele>2013.8</ele>
        <time>2018-08-08T13:39:07.000Z</time>
      </trkpt>
      <trkpt lat="42.69998" lon="0.66311">
        <ele>2013.8</ele>
        <time>2018-08-08T13:39:08.000Z</time>
      </trkpt>
      <trkpt lat="42.69998" lon="0.66311">
        <ele>2013.8</ele>
        <time>2018-08-08T13:39:09.000Z</time>
      </trkpt>
      <trkpt lat="42.69998" lon="0.66311">
        <ele>2013.8</ele>
        <time>2018-08-08T13:39:10.000Z</time>
      </trkpt>
      <trkpt lat="42.69998" lon="0.66311">
        <ele>2013.8</ele>
        <time>2018-08-08T13:39:11.000Z</time>
      </trkpt>
      <trkpt lat="42.69998" lon="0.66311">
        <ele>2013.8</ele>
        <time>2018-08-08T13:39:12.000Z</time>
      </trkpt>
      <trkpt lat="42.69998" lon="0.66311">
        <ele>2013.8</ele>
        <time>2018-08-08T13:39:13.000Z</time>
      </trkpt>
      <trkpt lat="42.69998" lon="0.66311">
        <ele>2013.8</ele>
        <time>2018-08-08T13:39:14.000Z</time>
      </trkpt>
      <trkpt lat="42.69998" lon="0.66311">
        <ele>2013.8</ele>
        <time>2018-08-08T13:39:15.000Z</time>
      </trkpt>
      <trkpt lat="42.69998" lon="0.66311">
        <ele>2013.8</ele>
        <time>2018-08-08T13:39:16.000Z</time>
      </trkpt>
      <trkpt lat="42.69998" lon="0.66311">
        <ele>2013.8</ele>
        <time>2018-08-08T13:39:17.000Z</time>
      </trkpt>
      <trkpt lat="42.69998" lon="0.66311">
        <ele>2013.8</ele>
        <time>2018-08-08T13:39:18.000Z</time>
      </trkpt>
      <trkpt lat="42.69998" lon="0.66311">
        <ele>2013.8</ele>
        <time>2018-08-08T13:39:19.000Z</time>
      </trkpt>
      <trkpt lat="42.69998" lon="0.66311">
        <ele>2013.8</ele>
        <time>2018-08-08T13:39:20.000Z</time>
      </trkpt>
      <trkpt lat="42.69998" lon="0.66311">
        <ele>2013.8</ele>
        <time>2018-08-08T13:39:21.000Z</time>
      </trkpt>
      <trkpt lat="42.69998" lon="0.66311">
        <ele>2013.8</ele>
        <time>2018-08-08T13:39:22.000Z</time>
      </trkpt>
      <trkpt lat="42.69998" lon="0.66311">
        <ele>2013.8</ele>
        <time>2018-08-08T13:39:23.000Z</time>
      </trkpt>
      <trkpt lat="42.69998" lon="0.66311">
        <ele>2013.8</ele>
        <time>2018-08-08T13:39:24.000Z</time>
      </trkpt>
      <trkpt lat="42.69998" lon="0.66311">
        <ele>2013.8</ele>
        <time>2018-08-08T13:39:25.000Z</time>
      </trkpt>
      <trkpt lat="42.69998" lon="0.66311">
        <ele>2013.8</ele>
        <time>2018-08-08T13:39:26.000Z</time>
      </trkpt>
      <trkpt lat="42.69998" lon="0.66311">
        <ele>2013.8</ele>
        <time>2018-08-08T13:39:27.000Z</time>
      </trkpt>
      <trkpt lat="42.69998" lon="0.66311">
        <ele>2013.8</ele>
        <time>2018-08-08T13:39:28.000Z</time>
      </trkpt>
      <trkpt lat="42.69998" lon="0.66311">
        <ele>2013.8</ele>
        <time>2018-08-08T13:39:29.000Z</time>
      </trkpt>
      <trkpt lat="42.69998" lon="0.66311">
        <ele>2013.8</ele>
        <time>2018-08-08T13:39:30.000Z</time>
      </trkpt>
      <trkpt lat="42.69998" lon="0.66311">
        <ele>2013.8</ele>
        <time>2018-08-08T13:39:31.000Z</time>
      </trkpt>
      <trkpt lat="42.69998" lon="0.66311">
        <ele>2013.8</ele>
        <time>2018-08-08T13:39:32.000Z</time>
      </trkpt>
      <trkpt lat="42.69998" lon="0.66311">
        <ele>2013.8</ele>
        <time>2018-08-08T13:39:33.000Z</time>
      </trkpt>
      <trkpt lat="42.69998" lon="0.66311">
        <ele>2013.8</ele>
        <time>2018-08-08T13:39:34.000Z</time>
      </trkpt>
      <trkpt lat="42.69998" lon="0.66311">
        <ele>2013.8</ele>
        <time>2018-08-08T13:39:35.000Z</time>
      </trkpt>
      <trkpt lat="42.69998" lon="0.66311">
        <ele>2013.8</ele>
        <time>2018-08-08T13:39:36.000Z</time>
      </trkpt>
      <trkpt lat="42.69998" lon="0.66311">
        <ele>2013.8</ele>
        <time>2018-08-08T13:39:37.000Z</time>
      </trkpt>
      <trkpt lat="42.69998" lon="0.66311">
        <ele>2013.8</ele>
        <time>2018-08-08T13:39:38.000Z</time>
      </trkpt>
      <trkpt lat="42.69998" lon="0.66311">
        <ele>2013.8</ele>
        <time>2018-08-08T13:39:39.000Z</time>
      </trkpt>
      <trkpt lat="42.69998" lon="0.66311">
        <ele>2013.8</ele>
        <time>2018-08-08T13:39:40.000Z</time>
      </trkpt>
      <trkpt lat="42.69998" lon="0.66311">
        <ele>2013.8</ele>
        <time>2018-08-08T13:39:41.000Z</time>
      </trkpt>
      <trkpt lat="42.69998" lon="0.66311">
        <ele>2013.8</ele>
        <time>2018-08-08T13:39:42.000Z</time>
      </trkpt>
      <trkpt lat="42.69998" lon="0.66311">
        <ele>2013.8</ele>
        <time>2018-08-08T13:39:43.000Z</time>
      </trkpt>
      <trkpt lat="42.69998" lon="0.66311">
        <ele>2013.8</ele>
        <time>2018-08-08T13:39:44.000Z</time>
      </trkpt>
      <trkpt lat="42.69998" lon="0.66311">
        <ele>2013.8</ele>
        <time>2018-08-08T13:39:45.000Z</time>
      </trkpt>
      <trkpt lat="42.69998" lon="0.66311">
        <ele>2013.8</ele>
        <time>2018-08-08T13:39:46.000Z</time>
      </trkpt>
      <trkpt lat="42.69998" lon="0.66311">
        <ele>2013.8</ele>
        <time>2018-08-08T13:39:47.000Z</time>
      </trkpt>
      <trkpt lat="42.69998" lon="0.66311">
        <ele>2013.8</ele>
        <time>2018-08-08T13:39:48.000Z</time>
      </trkpt>
      <trkpt lat="42.69998" lon="0.66311">
        <ele>2013.8</ele>
        <time>2018-08-08T13:39:49.000Z</time>
      </trkpt>
      <trkpt lat="42.69998" lon="0.66311">
        <ele>2013.8</ele>
        <time>2018-08-08T13:39:50.000Z</time>
      </trkpt>
      <trkpt lat="42.69998" lon="0.66311">
        <ele>2013.8</ele>
        <time>2018-08-08T13:39:51.000Z</time>
      </trkpt>
      <trkpt lat="42.69998" lon="0.66311">
        <ele>2013.8</ele>
        <time>2018-08-08T13:39:52.000Z</time>
      </trkpt>
      <trkpt lat="42.69998" lon="0.66311">
        <ele>2013.8</ele>
        <time>2018-08-08T13:39:53.000Z</time>
      </trkpt>
      <trkpt lat="42.69998" lon="0.66311">
        <ele>2013.8</ele>
        <time>2018-08-08T13:39:54.000Z</time>
      </trkpt>
      <trkpt lat="42.69998" lon="0.66311">
        <ele>2013.8</ele>
        <time>2018-08-08T13:39:55.000Z</time>
      </trkpt>
      <trkpt lat="42.69998" lon="0.66311">
        <ele>2013.8</ele>
        <time>2018-08-08T13:39:56.000Z</time>
      </trkpt>
      <trkpt lat="42.69998" lon="0.66311">
        <ele>2013.8</ele>
        <time>2018-08-08T13:39:57.000Z</time>
      </trkpt>
      <trkpt lat="42.69998" lon="0.66311">
        <ele>2013.8</ele>
        <time>2018-08-08T13:39:58.000Z</time>
      </trkpt>
      <trkpt lat="42.69998" lon="0.66311">
        <ele>2013.8</ele>
        <time>2018-08-08T13:39:59.000Z</time>
      </trkpt>
      <trkpt lat="42.69998" lon="0.66311">
        <ele>2013.8</ele>
        <time>2018-08-08T13:40:00.000Z</time>
      </trkpt>
      <trkpt lat="42.69998" lon="0.66311">
        <ele>2013.8</ele>
        <time>2018-08-08T13:40:01.000Z</time>
      </trkpt>
      <trkpt lat="42.69998" lon="0.66311">
        <ele>2013.8</ele>
        <time>2018-08-08T13:40:02.000Z</time>
      </trkpt>
      <trkpt lat="42.69998" lon="0.66311">
        <ele>2013.8</ele>
        <time>2018-08-08T13:40:03.000Z</time>
      </trkpt>
      <trkpt lat="42.69998" lon="0.66311">
        <ele>2013.8</ele>
        <time>2018-08-08T13:40:04.000Z</time>
      </trkpt>
      <trkpt lat="42.69998" lon="0.66311">
        <ele>2013.8</ele>
        <time>2018-08-08T13:40:05.000Z</time>
      </trkpt>
      <trkpt lat="42.69998" lon="0.66311">
        <ele>2013.8</ele>
        <time>2018-08-08T13:40:06.000Z</time>
      </trkpt>
      <trkpt lat="42.69998" lon="0.66311">
        <ele>2013.8</ele>
        <time>2018-08-08T13:40:07.000Z</time>
      </trkpt>
      <trkpt lat="42.69998" lon="0.66311">
        <ele>2013.8</ele>
        <time>2018-08-08T13:40:08.000Z</time>
      </trkpt>
      <trkpt lat="42.69998" lon="0.66311">
        <ele>2013.8</ele>
        <time>2018-08-08T13:40:09.000Z</time>
      </trkpt>
      <trkpt lat="42.69998" lon="0.66311">
        <ele>2013.8</ele>
        <time>2018-08-08T13:40:10.000Z</time>
      </trkpt>
      <trkpt lat="42.69998" lon="0.66311">
        <ele>2013.8</ele>
        <time>2018-08-08T13:40:11.000Z</time>
      </trkpt>
      <trkpt lat="42.69998" lon="0.66311">
        <ele>2013.8</ele>
        <time>2018-08-08T13:40:12.000Z</time>
      </trkpt>
      <trkpt lat="42.69998" lon="0.66311">
        <ele>2013.8</ele>
        <time>2018-08-08T13:40:13.000Z</time>
      </trkpt>
      <trkpt lat="42.69998" lon="0.66311">
        <ele>2013.8</ele>
        <time>2018-08-08T13:40:14.000Z</time>
      </trkpt>
      <trkpt lat="42.69998" lon="0.66311">
        <ele>2013.8</ele>
        <time>2018-08-08T13:40:15.000Z</time>
      </trkpt>
      <trkpt lat="42.69998" lon="0.66311">
        <ele>2013.8</ele>
        <time>2018-08-08T13:40:16.000Z</time>
      </trkpt>
      <trkpt lat="42.69998" lon="0.66311">
        <ele>2013.8</ele>
        <time>2018-08-08T13:40:17.000Z</time>
      </trkpt>
      <trkpt lat="42.69998" lon="0.66311">
        <ele>2013.8</ele>
        <time>2018-08-08T13:40:18.000Z</time>
      </trkpt>
      <trkpt lat="42.69998" lon="0.66311">
        <ele>2013.8</ele>
        <time>2018-08-08T13:40:19.000Z</time>
      </trkpt>
      <trkpt lat="42.69998" lon="0.66311">
        <ele>2013.8</ele>
        <time>2018-08-08T13:40:20.000Z</time>
      </trkpt>
      <trkpt lat="42.69998" lon="0.66311">
        <ele>2013.8</ele>
        <time>2018-08-08T13:40:21.000Z</time>
      </trkpt>
      <trkpt lat="42.69998" lon="0.66311">
        <ele>2013.8</ele>
        <time>2018-08-08T13:40:22.000Z</time>
      </trkpt>
      <trkpt lat="42.69998" lon="0.66311">
        <ele>2013.8</ele>
        <time>2018-08-08T13:40:23.000Z</time>
      </trkpt>
      <trkpt lat="42.69998" lon="0.66311">
        <ele>2013.8</ele>
        <time>2018-08-08T13:40:24.000Z</time>
      </trkpt>
      <trkpt lat="42.69998" lon="0.66311">
        <ele>2013.8</ele>
        <time>2018-08-08T13:40:25.000Z</time>
      </trkpt>
      <trkpt lat="42.69998" lon="0.66311">
        <ele>2013.8</ele>
        <time>2018-08-08T13:40:26.000Z</time>
      </trkpt>
      <trkpt lat="42.69998" lon="0.66311">
        <ele>2013.8</ele>
        <time>2018-08-08T13:40:27.000Z</time>
      </trkpt>
      <trkpt lat="42.69998" lon="0.66311">
        <ele>2013.8</ele>
        <time>2018-08-08T13:40:28.000Z</time>
      </trkpt>
      <trkpt lat="42.69998" lon="0.66311">
        <ele>2013.8</ele>
        <time>2018-08-08T13:40:29.000Z</time>
      </trkpt>
      <trkpt lat="42.69998" lon="0.66311">
        <ele>2013.8</ele>
        <time>2018-08-08T13:40:30.000Z</time>
      </trkpt>
      <trkpt lat="42.69998" lon="0.66311">
        <ele>2013.8</ele>
        <time>2018-08-08T13:40:31.000Z</time>
      </trkpt>
      <trkpt lat="42.69998" lon="0.66311">
        <ele>2013.8</ele>
        <time>2018-08-08T13:40:32.000Z</time>
      </trkpt>
      <trkpt lat="42.69998" lon="0.66311">
        <ele>2013.8</ele>
        <time>2018-08-08T13:40:33.000Z</time>
      </trkpt>
      <trkpt lat="42.69998" lon="0.66311">
        <ele>2013.8</ele>
        <time>2018-08-08T13:40:34.000Z</time>
      </trkpt>
      <trkpt lat="42.69998" lon="0.66311">
        <ele>2013.8</ele>
        <time>2018-08-08T13:40:35.000Z</time>
      </trkpt>
      <trkpt lat="42.69998" lon="0.66311">
        <ele>2013.8</ele>
        <time>2018-08-08T13:40:36.000Z</time>
      </trkpt>
      <trkpt lat="42.69998" lon="0.66311">
        <ele>2013.8</ele>
        <time>2018-08-08T13:40:37.000Z</time>
      </trkpt>
      <trkpt lat="42.69998" lon="0.66311">
        <ele>2013.8</ele>
        <time>2018-08-08T13:40:38.000Z</time>
      </trkpt>
      <trkpt lat="42.69998" lon="0.66311">
        <ele>2013.8</ele>
        <time>2018-08-08T13:40:39.000Z</time>
      </trkpt>
      <trkpt lat="42.69998" lon="0.66311">
        <ele>2013.8</ele>
        <time>2018-08-08T13:40:40.000Z</time>
      </trkpt>
      <trkpt lat="42.69998" lon="0.66311">
        <ele>2013.8</ele>
        <time>2018-08-08T13:40:41.000Z</time>
      </trkpt>
      <trkpt lat="42.69998" lon="0.66311">
        <ele>2013.8</ele>
        <time>2018-08-08T13:40:42.000Z</time>
      </trkpt>
      <trkpt lat="42.69998" lon="0.66311">
        <ele>2013.8</ele>
        <time>2018-08-08T13:40:43.000Z</time>
      </trkpt>
      <trkpt lat="42.69998" lon="0.66311">
        <ele>2013.8</ele>
        <time>2018-08-08T13:40:44.000Z</time>
      </trkpt>
      <trkpt lat="42.69998" lon="0.66311">
        <ele>2013.8</ele>
        <time>2018-08-08T13:40:45.000Z</time>
      </trkpt>
      <trkpt lat="42.69998" lon="0.66311">
        <ele>2013.8</ele>
        <time>2018-08-08T13:40:46.000Z</time>
      </trkpt>
      <trkpt lat="42.69998" lon="0.66311">
        <ele>2013.8</ele>
        <time>2018-08-08T13:40:47.000Z</time>
      </trkpt>
      <trkpt lat="42.69998" lon="0.66311">
        <ele>2013.8</ele>
        <time>2018-08-08T13:40:48.000Z</time>
      </trkpt>
      <trkpt lat="42.69998" lon="0.66311">
        <ele>2013.8</ele>
        <time>2018-08-08T13:40:49.000Z</time>
      </trkpt>
      <trkpt lat="42.69998" lon="0.66311">
        <ele>2013.8</ele>
        <time>2018-08-08T13:40:50.000Z</time>
      </trkpt>
      <trkpt lat="42.69998" lon="0.66311">
        <ele>2013.8</ele>
        <time>2018-08-08T13:40:51.000Z</time>
      </trkpt>
      <trkpt lat="42.69998" lon="0.66311">
        <ele>2013.8</ele>
        <time>2018-08-08T13:40:52.000Z</time>
      </trkpt>
      <trkpt lat="42.69998" lon="0.66311">
        <ele>2013.8</ele>
        <time>2018-08-08T13:40:53.000Z</time>
      </trkpt>
      <trkpt lat="42.69998" lon="0.66311">
        <ele>2013.8</ele>
        <time>2018-08-08T13:40:54.000Z</time>
      </trkpt>
      <trkpt lat="42.69998" lon="0.66311">
        <ele>2013.8</ele>
        <time>2018-08-08T13:40:55.000Z</time>
      </trkpt>
      <trkpt lat="42.69998" lon="0.66311">
        <ele>2013.8</ele>
        <time>2018-08-08T13:40:56.000Z</time>
      </trkpt>
      <trkpt lat="42.69998" lon="0.66311">
        <ele>2013.8</ele>
        <time>2018-08-08T13:40:57.000Z</time>
      </trkpt>
      <trkpt lat="42.69998" lon="0.66311">
        <ele>2013.8</ele>
        <time>2018-08-08T13:40:58.000Z</time>
      </trkpt>
      <trkpt lat="42.69998" lon="0.66311">
        <ele>2013.8</ele>
        <time>2018-08-08T13:40:59.000Z</time>
      </trkpt>
      <trkpt lat="42.69998" lon="0.66311">
        <ele>2013.8</ele>
        <time>2018-08-08T13:41:00.000Z</time>
      </trkpt>
      <trkpt lat="42.69998" lon="0.66311">
        <ele>2013.8</ele>
        <time>2018-08-08T13:41:01.000Z</time>
      </trkpt>
      <trkpt lat="42.69998" lon="0.66311">
        <ele>2013.8</ele>
        <time>2018-08-08T13:41:02.000Z</time>
      </trkpt>
      <trkpt lat="42.69998" lon="0.66311">
        <ele>2013.8</ele>
        <time>2018-08-08T13:41:03.000Z</time>
      </trkpt>
      <trkpt lat="42.69998" lon="0.66311">
        <ele>2013.8</ele>
        <time>2018-08-08T13:41:04.000Z</time>
      </trkpt>
      <trkpt lat="42.69998" lon="0.66311">
        <ele>2013.8</ele>
        <time>2018-08-08T13:41:05.000Z</time>
      </trkpt>
      <trkpt lat="42.69998" lon="0.66311">
        <ele>2013.8</ele>
        <time>2018-08-08T13:41:06.000Z</time>
      </trkpt>
      <trkpt lat="42.69998" lon="0.66311">
        <ele>2013.8</ele>
        <time>2018-08-08T13:41:07.000Z</time>
      </trkpt>
      <trkpt lat="42.69998" lon="0.66311">
        <ele>2013.8</ele>
        <time>2018-08-08T13:41:08.000Z</time>
      </trkpt>
      <trkpt lat="42.69998" lon="0.66311">
        <ele>2013.8</ele>
        <time>2018-08-08T13:41:09.000Z</time>
      </trkpt>
      <trkpt lat="42.69998" lon="0.66311">
        <ele>2013.8</ele>
        <time>2018-08-08T13:41:10.000Z</time>
      </trkpt>
      <trkpt lat="42.69998" lon="0.66311">
        <ele>2013.8</ele>
        <time>2018-08-08T13:41:11.000Z</time>
      </trkpt>
      <trkpt lat="42.69998" lon="0.66311">
        <ele>2013.8</ele>
        <time>2018-08-08T13:41:12.000Z</time>
      </trkpt>
      <trkpt lat="42.69998" lon="0.66311">
        <ele>2013.8</ele>
        <time>2018-08-08T13:41:13.000Z</time>
      </trkpt>
      <trkpt lat="42.69998" lon="0.66311">
        <ele>2013.8</ele>
        <time>2018-08-08T13:41:14.000Z</time>
      </trkpt>
      <trkpt lat="42.69998" lon="0.66311">
        <ele>2013.8</ele>
        <time>2018-08-08T13:41:15.000Z</time>
      </trkpt>
      <trkpt lat="42.69998" lon="0.66311">
        <ele>2013.8</ele>
        <time>2018-08-08T13:41:16.000Z</time>
      </trkpt>
      <trkpt lat="42.69998" lon="0.66311">
        <ele>2013.8</ele>
        <time>2018-08-08T13:41:17.000Z</time>
      </trkpt>
      <trkpt lat="42.69998" lon="0.66311">
        <ele>2013.8</ele>
        <time>2018-08-08T13:41:18.000Z</time>
      </trkpt>
      <trkpt lat="42.69998" lon="0.66311">
        <ele>2013.8</ele>
        <time>2018-08-08T13:41:19.000Z</time>
      </trkpt>
      <trkpt lat="42.69998" lon="0.66311">
        <ele>2013.8</ele>
        <time>2018-08-08T13:41:20.000Z</time>
      </trkpt>
      <trkpt lat="42.69998" lon="0.66311">
        <ele>2013.8</ele>
        <time>2018-08-08T13:41:21.000Z</time>
      </trkpt>
      <trkpt lat="42.69998" lon="0.66311">
        <ele>2013.8</ele>
        <time>2018-08-08T13:41:22.000Z</time>
      </trkpt>
      <trkpt lat="42.69998" lon="0.66311">
        <ele>2013.8</ele>
        <time>2018-08-08T13:41:23.000Z</time>
      </trkpt>
      <trkpt lat="42.69998" lon="0.66311">
        <ele>2013.8</ele>
        <time>2018-08-08T13:41:24.000Z</time>
      </trkpt>
      <trkpt lat="42.69998" lon="0.66311">
        <ele>2013.8</ele>
        <time>2018-08-08T13:41:25.000Z</time>
      </trkpt>
      <trkpt lat="42.69998" lon="0.66311">
        <ele>2013.8</ele>
        <time>2018-08-08T13:41:26.000Z</time>
      </trkpt>
      <trkpt lat="42.69998" lon="0.66311">
        <ele>2013.8</ele>
        <time>2018-08-08T13:41:27.000Z</time>
      </trkpt>
      <trkpt lat="42.69998" lon="0.66311">
        <ele>2013.8</ele>
        <time>2018-08-08T13:41:28.000Z</time>
      </trkpt>
      <trkpt lat="42.69998" lon="0.66311">
        <ele>2013.8</ele>
        <time>2018-08-08T13:41:29.000Z</time>
      </trkpt>
      <trkpt lat="42.69998" lon="0.66311">
        <ele>2013.8</ele>
        <time>2018-08-08T13:41:30.000Z</time>
      </trkpt>
      <trkpt lat="42.69998" lon="0.66311">
        <ele>2013.8</ele>
        <time>2018-08-08T13:41:31.000Z</time>
      </trkpt>
      <trkpt lat="42.69998" lon="0.66311">
        <ele>2013.8</ele>
        <time>2018-08-08T13:41:32.000Z</time>
      </trkpt>
      <trkpt lat="42.69998" lon="0.66311">
        <ele>2013.8</ele>
        <time>2018-08-08T13:41:33.000Z</time>
      </trkpt>
      <trkpt lat="42.69998" lon="0.66311">
        <ele>2013.8</ele>
        <time>2018-08-08T13:41:34.000Z</time>
      </trkpt>
      <trkpt lat="42.69998" lon="0.66311">
        <ele>2013.8</ele>
        <time>2018-08-08T13:41:35.000Z</time>
      </trkpt>
      <trkpt lat="42.69998" lon="0.66311">
        <ele>2013.8</ele>
        <time>2018-08-08T13:41:36.000Z</time>
      </trkpt>
      <trkpt lat="42.69998" lon="0.66311">
        <ele>2013.8</ele>
        <time>2018-08-08T13:41:37.000Z</time>
      </trkpt>
      <trkpt lat="42.69998" lon="0.66311">
        <ele>2013.8</ele>
        <time>2018-08-08T13:41:38.000Z</time>
      </trkpt>
      <trkpt lat="42.69998" lon="0.66311">
        <ele>2013.8</ele>
        <time>2018-08-08T13:41:39.000Z</time>
      </trkpt>
      <trkpt lat="42.69998" lon="0.66311">
        <ele>2013.8</ele>
        <time>2018-08-08T13:41:40.000Z</time>
      </trkpt>
      <trkpt lat="42.69998" lon="0.66311">
        <ele>2013.8</ele>
        <time>2018-08-08T13:41:41.000Z</time>
      </trkpt>
      <trkpt lat="42.69998" lon="0.66311">
        <ele>2013.8</ele>
        <time>2018-08-08T13:41:42.000Z</time>
      </trkpt>
      <trkpt lat="42.69998" lon="0.66311">
        <ele>2013.8</ele>
        <time>2018-08-08T13:41:43.000Z</time>
      </trkpt>
      <trkpt lat="42.69998" lon="0.66311">
        <ele>2013.8</ele>
        <time>2018-08-08T13:41:44.000Z</time>
      </trkpt>
      <trkpt lat="42.69998" lon="0.66311">
        <ele>2013.8</ele>
        <time>2018-08-08T13:41:45.000Z</time>
      </trkpt>
      <trkpt lat="42.69998" lon="0.66311">
        <ele>2013.8</ele>
        <time>2018-08-08T13:41:46.000Z</time>
      </trkpt>
      <trkpt lat="42.69998" lon="0.66311">
        <ele>2013.8</ele>
        <time>2018-08-08T13:41:47.000Z</time>
      </trkpt>
      <trkpt lat="42.69998" lon="0.66311">
        <ele>2013.8</ele>
        <time>2018-08-08T13:41:48.000Z</time>
      </trkpt>
      <trkpt lat="42.69998" lon="0.66311">
        <ele>2013.8</ele>
        <time>2018-08-08T13:41:49.000Z</time>
      </trkpt>
      <trkpt lat="42.69998" lon="0.66311">
        <ele>2013.8</ele>
        <time>2018-08-08T13:41:50.000Z</time>
      </trkpt>
      <trkpt lat="42.69998" lon="0.66311">
        <ele>2013.8</ele>
        <time>2018-08-08T13:41:51.000Z</time>
      </trkpt>
      <trkpt lat="42.69998" lon="0.66311">
        <ele>2013.8</ele>
        <time>2018-08-08T13:41:52.000Z</time>
      </trkpt>
      <trkpt lat="42.69998" lon="0.66311">
        <ele>2013.8</ele>
        <time>2018-08-08T13:41:53.000Z</time>
      </trkpt>
      <trkpt lat="42.69998" lon="0.66311">
        <ele>2013.8</ele>
        <time>2018-08-08T13:41:54.000Z</time>
      </trkpt>
      <trkpt lat="42.69998" lon="0.66311">
        <ele>2013.8</ele>
        <time>2018-08-08T13:41:55.000Z</time>
      </trkpt>
      <trkpt lat="42.69998" lon="0.66311">
        <ele>2013.8</ele>
        <time>2018-08-08T13:41:56.000Z</time>
      </trkpt>
      <trkpt lat="42.69998" lon="0.66311">
        <ele>2013.8</ele>
        <time>2018-08-08T13:41:57.000Z</time>
      </trkpt>
      <trkpt lat="42.69998" lon="0.66311">
        <ele>2013.8</ele>
        <time>2018-08-08T13:41:58.000Z</time>
      </trkpt>
      <trkpt lat="42.69998" lon="0.66311">
        <ele>2013.8</ele>
        <time>2018-08-08T13:41:59.000Z</time>
      </trkpt>
      <trkpt lat="42.69998" lon="0.66311">
        <ele>2013.8</ele>
        <time>2018-08-08T13:42:00.000Z</time>
      </trkpt>
      <trkpt lat="42.69998" lon="0.66311">
        <ele>2013.8</ele>
        <time>2018-08-08T13:42:01.000Z</time>
      </trkpt>
      <trkpt lat="42.69998" lon="0.66311">
        <ele>2013.8</ele>
        <time>2018-08-08T13:42:02.000Z</time>
      </trkpt>
      <trkpt lat="42.69998" lon="0.66311">
        <ele>2013.8</ele>
        <time>2018-08-08T13:42:03.000Z</time>
      </trkpt>
      <trkpt lat="42.69998" lon="0.66311">
        <ele>2013.8</ele>
        <time>2018-08-08T13:42:04.000Z</time>
      </trkpt>
      <trkpt lat="42.69998" lon="0.66311">
        <ele>2013.8</ele>
        <time>2018-08-08T13:42:05.000Z</time>
      </trkpt>
      <trkpt lat="42.69998" lon="0.66311">
        <ele>2013.8</ele>
        <time>2018-08-08T13:42:06.000Z</time>
      </trkpt>
      <trkpt lat="42.69998" lon="0.66311">
        <ele>2013.8</ele>
        <time>2018-08-08T13:42:07.000Z</time>
      </trkpt>
      <trkpt lat="42.69998" lon="0.66311">
        <ele>2013.8</ele>
        <time>2018-08-08T13:42:08.000Z</time>
      </trkpt>
      <trkpt lat="42.69998" lon="0.66311">
        <ele>2013.8</ele>
        <time>2018-08-08T13:42:09.000Z</time>
      </trkpt>
      <trkpt lat="42.69998" lon="0.66311">
        <ele>2013.8</ele>
        <time>2018-08-08T13:42:10.000Z</time>
      </trkpt>
      <trkpt lat="42.69998" lon="0.66311">
        <ele>2013.8</ele>
        <time>2018-08-08T13:42:11.000Z</time>
      </trkpt>
      <trkpt lat="42.69998" lon="0.66311">
        <ele>2013.8</ele>
        <time>2018-08-08T13:42:12.000Z</time>
      </trkpt>
      <trkpt lat="42.69998" lon="0.66311">
        <ele>2013.8</ele>
        <time>2018-08-08T13:42:13.000Z</time>
      </trkpt>
      <trkpt lat="42.69998" lon="0.66311">
        <ele>2013.8</ele>
        <time>2018-08-08T13:42:14.000Z</time>
      </trkpt>
      <trkpt lat="42.69998" lon="0.66311">
        <ele>2013.8</ele>
        <time>2018-08-08T13:42:15.000Z</time>
      </trkpt>
      <trkpt lat="42.69998" lon="0.66311">
        <ele>2013.8</ele>
        <time>2018-08-08T13:42:16.000Z</time>
      </trkpt>
      <trkpt lat="42.69998" lon="0.66311">
        <ele>2013.8</ele>
        <time>2018-08-08T13:42:17.000Z</time>
      </trkpt>
      <trkpt lat="42.69998" lon="0.66311">
        <ele>2013.8</ele>
        <time>2018-08-08T13:42:18.000Z</time>
      </trkpt>
      <trkpt lat="42.69998" lon="0.66311">
        <ele>2013.8</ele>
        <time>2018-08-08T13:42:19.000Z</time>
      </trkpt>
      <trkpt lat="42.69998" lon="0.66311">
        <ele>2013.8</ele>
        <time>2018-08-08T13:42:20.000Z</time>
      </trkpt>
      <trkpt lat="42.69998" lon="0.66311">
        <ele>2013.8</ele>
        <time>2018-08-08T13:42:21.000Z</time>
      </trkpt>
      <trkpt lat="42.69998" lon="0.66311">
        <ele>2013.8</ele>
        <time>2018-08-08T13:42:22.000Z</time>
      </trkpt>
      <trkpt lat="42.69998" lon="0.66311">
        <ele>2013.8</ele>
        <time>2018-08-08T13:42:23.000Z</time>
      </trkpt>
      <trkpt lat="42.69998" lon="0.66311">
        <ele>2013.8</ele>
        <time>2018-08-08T13:42:24.000Z</time>
      </trkpt>
      <trkpt lat="42.69998" lon="0.66311">
        <ele>2013.8</ele>
        <time>2018-08-08T13:42:25.000Z</time>
      </trkpt>
      <trkpt lat="42.69998" lon="0.66311">
        <ele>2013.8</ele>
        <time>2018-08-08T13:42:26.000Z</time>
      </trkpt>
      <trkpt lat="42.69998" lon="0.66311">
        <ele>2013.8</ele>
        <time>2018-08-08T13:42:27.000Z</time>
      </trkpt>
      <trkpt lat="42.69998" lon="0.66311">
        <ele>2013.8</ele>
        <time>2018-08-08T13:42:28.000Z</time>
      </trkpt>
      <trkpt lat="42.69998" lon="0.66311">
        <ele>2013.8</ele>
        <time>2018-08-08T13:42:29.000Z</time>
      </trkpt>
      <trkpt lat="42.69998" lon="0.66311">
        <ele>2013.8</ele>
        <time>2018-08-08T13:42:30.000Z</time>
      </trkpt>
      <trkpt lat="42.69998" lon="0.66311">
        <ele>2013.8</ele>
        <time>2018-08-08T13:42:31.000Z</time>
      </trkpt>
      <trkpt lat="42.69998" lon="0.66311">
        <ele>2013.8</ele>
        <time>2018-08-08T13:42:32.000Z</time>
      </trkpt>
      <trkpt lat="42.69998" lon="0.66311">
        <ele>2013.8</ele>
        <time>2018-08-08T13:42:33.000Z</time>
      </trkpt>
      <trkpt lat="42.69998" lon="0.66311">
        <ele>2013.8</ele>
        <time>2018-08-08T13:42:34.000Z</time>
      </trkpt>
      <trkpt lat="42.69998" lon="0.66311">
        <ele>2013.8</ele>
        <time>2018-08-08T13:42:35.000Z</time>
      </trkpt>
      <trkpt lat="42.69998" lon="0.66311">
        <ele>2013.8</ele>
        <time>2018-08-08T13:42:36.000Z</time>
      </trkpt>
      <trkpt lat="42.69998" lon="0.66311">
        <ele>2013.8</ele>
        <time>2018-08-08T13:42:37.000Z</time>
      </trkpt>
      <trkpt lat="42.69998" lon="0.66311">
        <ele>2013.8</ele>
        <time>2018-08-08T13:42:38.000Z</time>
      </trkpt>
      <trkpt lat="42.69998" lon="0.66311">
        <ele>2013.8</ele>
        <time>2018-08-08T13:42:39.000Z</time>
      </trkpt>
      <trkpt lat="42.69998" lon="0.66311">
        <ele>2013.8</ele>
        <time>2018-08-08T13:42:40.000Z</time>
      </trkpt>
      <trkpt lat="42.69998" lon="0.66311">
        <ele>2013.8</ele>
        <time>2018-08-08T13:42:41.000Z</time>
      </trkpt>
      <trkpt lat="42.69998" lon="0.66311">
        <ele>2013.8</ele>
        <time>2018-08-08T13:42:42.000Z</time>
      </trkpt>
      <trkpt lat="42.69998" lon="0.66311">
        <ele>2013.8</ele>
        <time>2018-08-08T13:42:43.000Z</time>
      </trkpt>
      <trkpt lat="42.69998" lon="0.66311">
        <ele>2013.8</ele>
        <time>2018-08-08T13:42:44.000Z</time>
      </trkpt>
      <trkpt lat="42.69998" lon="0.66311">
        <ele>2013.8</ele>
        <time>2018-08-08T13:42:45.000Z</time>
      </trkpt>
      <trkpt lat="42.69998" lon="0.66311">
        <ele>2013.8</ele>
        <time>2018-08-08T13:42:46.000Z</time>
      </trkpt>
      <trkpt lat="42.69998" lon="0.66311">
        <ele>2013.8</ele>
        <time>2018-08-08T13:42:47.000Z</time>
      </trkpt>
      <trkpt lat="42.69998" lon="0.66311">
        <ele>2013.8</ele>
        <time>2018-08-08T13:42:48.000Z</time>
      </trkpt>
      <trkpt lat="42.69998" lon="0.66311">
        <ele>2013.8</ele>
        <time>2018-08-08T13:42:49.000Z</time>
      </trkpt>
      <trkpt lat="42.69998" lon="0.66311">
        <ele>2013.8</ele>
        <time>2018-08-08T13:42:50.000Z</time>
      </trkpt>
      <trkpt lat="42.69998" lon="0.66311">
        <ele>2013.8</ele>
        <time>2018-08-08T13:42:51.000Z</time>
      </trkpt>
      <trkpt lat="42.69998" lon="0.66311">
        <ele>2013.8</ele>
        <time>2018-08-08T13:42:52.000Z</time>
      </trkpt>
      <trkpt lat="42.69998" lon="0.66311">
        <ele>2013.8</ele>
        <time>2018-08-08T13:42:53.000Z</time>
      </trkpt>
      <trkpt lat="42.69998" lon="0.66311">
        <ele>2013.8</ele>
        <time>2018-08-08T13:42:54.000Z</time>
      </trkpt>
      <trkpt lat="42.69998" lon="0.66311">
        <ele>2013.8</ele>
        <time>2018-08-08T13:42:55.000Z</time>
      </trkpt>
      <trkpt lat="42.69998" lon="0.66311">
        <ele>2013.8</ele>
        <time>2018-08-08T13:42:56.000Z</time>
      </trkpt>
      <trkpt lat="42.69998" lon="0.66311">
        <ele>2013.8</ele>
        <time>2018-08-08T13:42:57.000Z</time>
      </trkpt>
      <trkpt lat="42.69998" lon="0.66311">
        <ele>2013.8</ele>
        <time>2018-08-08T13:42:58.000Z</time>
      </trkpt>
      <trkpt lat="42.69998" lon="0.66311">
        <ele>2013.8</ele>
        <time>2018-08-08T13:42:59.000Z</time>
      </trkpt>
      <trkpt lat="42.69998" lon="0.66311">
        <ele>2013.8</ele>
        <time>2018-08-08T13:43:00.000Z</time>
      </trkpt>
      <trkpt lat="42.69998" lon="0.66311">
        <ele>2013.8</ele>
        <time>2018-08-08T13:43:01.000Z</time>
      </trkpt>
      <trkpt lat="42.69998" lon="0.66311">
        <ele>2013.9</ele>
        <time>2018-08-08T13:43:02.000Z</time>
      </trkpt>
      <trkpt lat="42.69997" lon="0.66312">
        <ele>2014.1</ele>
        <time>2018-08-08T13:43:03.000Z</time>
      </trkpt>
      <trkpt lat="42.69996" lon="0.66313">
        <ele>2014.1</ele>
        <time>2018-08-08T13:43:04.000Z</time>
      </trkpt>
      <trkpt lat="42.69996" lon="0.66313">
        <ele>2014.2</ele>
        <time>2018-08-08T13:43:05.000Z</time>
      </trkpt>
      <trkpt lat="42.69996" lon="0.66313">
        <ele>2014.2</ele>
        <time>2018-08-08T13:43:06.000Z</time>
      </trkpt>
      <trkpt lat="42.69996" lon="0.66313">
        <ele>2014.2</ele>
        <time>2018-08-08T13:43:07.000Z</time>
      </trkpt>
      <trkpt lat="42.69996" lon="0.66313">
        <ele>2014.2</ele>
        <time>2018-08-08T13:43:08.000Z</time>
      </trkpt>
      <trkpt lat="42.69996" lon="0.66313">
        <ele>2014.2</ele>
        <time>2018-08-08T13:43:09.000Z</time>
      </trkpt>
      <trkpt lat="42.69996" lon="0.66313">
        <ele>2014.2</ele>
        <time>2018-08-08T13:43:10.000Z</time>
      </trkpt>
      <trkpt lat="42.69996" lon="0.66313">
        <ele>2014.3</ele>
        <time>2018-08-08T13:43:11.000Z</time>
      </trkpt>
      <trkpt lat="42.69996" lon="0.66313">
        <ele>2014.3</ele>
        <time>2018-08-08T13:43:12.000Z</time>
      </trkpt>
      <trkpt lat="42.69996" lon="0.66313">
        <ele>2014.3</ele>
        <time>2018-08-08T13:43:13.000Z</time>
      </trkpt>
      <trkpt lat="42.69996" lon="0.66313">
        <ele>2014.3</ele>
        <time>2018-08-08T13:43:14.000Z</time>
      </trkpt>
      <trkpt lat="42.69996" lon="0.66313">
        <ele>2014.3</ele>
        <time>2018-08-08T13:43:15.000Z</time>
      </trkpt>
      <trkpt lat="42.69996" lon="0.66313">
        <ele>2014.2</ele>
        <time>2018-08-08T13:43:16.000Z</time>
      </trkpt>
      <trkpt lat="42.69996" lon="0.66313">
        <ele>2014.2</ele>
        <time>2018-08-08T13:43:17.000Z</time>
      </trkpt>
      <trkpt lat="42.69995" lon="0.66313">
        <ele>2014.3</ele>
        <time>2018-08-08T13:43:18.000Z</time>
      </trkpt>
      <trkpt lat="42.69995" lon="0.66313">
        <ele>2014.3</ele>
        <time>2018-08-08T13:43:19.000Z</time>
      </trkpt>
      <trkpt lat="42.69995" lon="0.66313">
        <ele>2014.3</ele>
        <time>2018-08-08T13:43:20.000Z</time>
      </trkpt>
      <trkpt lat="42.69995" lon="0.66313">
        <ele>2014.3</ele>
        <time>2018-08-08T13:43:21.000Z</time>
      </trkpt>
      <trkpt lat="42.69995" lon="0.66313">
        <ele>2014.3</ele>
        <time>2018-08-08T13:43:22.000Z</time>
      </trkpt>
      <trkpt lat="42.69995" lon="0.66313">
        <ele>2014.3</ele>
        <time>2018-08-08T13:43:23.000Z</time>
      </trkpt>
      <trkpt lat="42.69995" lon="0.66313">
        <ele>2014.3</ele>
        <time>2018-08-08T13:43:24.000Z</time>
      </trkpt>
      <trkpt lat="42.69995" lon="0.66313">
        <ele>2014.3</ele>
        <time>2018-08-08T13:43:25.000Z</time>
      </trkpt>
      <trkpt lat="42.69995" lon="0.66313">
        <ele>2014.3</ele>
        <time>2018-08-08T13:43:26.000Z</time>
      </trkpt>
      <trkpt lat="42.69995" lon="0.66313">
        <ele>2014.3</ele>
        <time>2018-08-08T13:43:27.000Z</time>
      </trkpt>
      <trkpt lat="42.69995" lon="0.66313">
        <ele>2014.3</ele>
        <time>2018-08-08T13:43:28.000Z</time>
      </trkpt>
      <trkpt lat="42.69995" lon="0.66313">
        <ele>2014.3</ele>
        <time>2018-08-08T13:43:29.000Z</time>
      </trkpt>
      <trkpt lat="42.69995" lon="0.66313">
        <ele>2014.3</ele>
        <time>2018-08-08T13:43:30.000Z</time>
      </trkpt>
      <trkpt lat="42.69995" lon="0.66313">
        <ele>2014.3</ele>
        <time>2018-08-08T13:43:31.000Z</time>
      </trkpt>
      <trkpt lat="42.69995" lon="0.66313">
        <ele>2014.3</ele>
        <time>2018-08-08T13:43:32.000Z</time>
      </trkpt>
      <trkpt lat="42.69995" lon="0.66313">
        <ele>2014.3</ele>
        <time>2018-08-08T13:43:33.000Z</time>
      </trkpt>
      <trkpt lat="42.69995" lon="0.66313">
        <ele>2014.3</ele>
        <time>2018-08-08T13:43:34.000Z</time>
      </trkpt>
      <trkpt lat="42.69995" lon="0.66313">
        <ele>2014.3</ele>
        <time>2018-08-08T13:43:35.000Z</time>
      </trkpt>
      <trkpt lat="42.69995" lon="0.66313">
        <ele>2014.3</ele>
        <time>2018-08-08T13:43:36.000Z</time>
      </trkpt>
      <trkpt lat="42.69995" lon="0.66313">
        <ele>2014.3</ele>
        <time>2018-08-08T13:43:37.000Z</time>
      </trkpt>
      <trkpt lat="42.69995" lon="0.66313">
        <ele>2014.3</ele>
        <time>2018-08-08T13:43:38.000Z</time>
      </trkpt>
      <trkpt lat="42.69995" lon="0.66313">
        <ele>2014.3</ele>
        <time>2018-08-08T13:43:39.000Z</time>
      </trkpt>
      <trkpt lat="42.69995" lon="0.66313">
        <ele>2014.3</ele>
        <time>2018-08-08T13:43:40.000Z</time>
      </trkpt>
      <trkpt lat="42.69995" lon="0.66313">
        <ele>2014.3</ele>
        <time>2018-08-08T13:43:41.000Z</time>
      </trkpt>
      <trkpt lat="42.69995" lon="0.66313">
        <ele>2014.3</ele>
        <time>2018-08-08T13:43:42.000Z</time>
      </trkpt>
      <trkpt lat="42.69995" lon="0.66313">
        <ele>2014.3</ele>
        <time>2018-08-08T13:43:43.000Z</time>
      </trkpt>
      <trkpt lat="42.69995" lon="0.66313">
        <ele>2014.3</ele>
        <time>2018-08-08T13:43:44.000Z</time>
      </trkpt>
      <trkpt lat="42.69995" lon="0.66313">
        <ele>2014.3</ele>
        <time>2018-08-08T13:43:45.000Z</time>
      </trkpt>
      <trkpt lat="42.69995" lon="0.66313">
        <ele>2014.3</ele>
        <time>2018-08-08T13:43:46.000Z</time>
      </trkpt>
      <trkpt lat="42.69995" lon="0.66313">
        <ele>2014.3</ele>
        <time>2018-08-08T13:43:47.000Z</time>
      </trkpt>
      <trkpt lat="42.69995" lon="0.66313">
        <ele>2014.3</ele>
        <time>2018-08-08T13:43:48.000Z</time>
      </trkpt>
      <trkpt lat="42.69995" lon="0.66313">
        <ele>2014.3</ele>
        <time>2018-08-08T13:43:49.000Z</time>
      </trkpt>
      <trkpt lat="42.69995" lon="0.66313">
        <ele>2014.3</ele>
        <time>2018-08-08T13:43:50.000Z</time>
      </trkpt>
      <trkpt lat="42.69995" lon="0.66313">
        <ele>2014.3</ele>
        <time>2018-08-08T13:43:51.000Z</time>
      </trkpt>
      <trkpt lat="42.69995" lon="0.66313">
        <ele>2014.3</ele>
        <time>2018-08-08T13:43:52.000Z</time>
      </trkpt>
      <trkpt lat="42.69995" lon="0.66313">
        <ele>2014.3</ele>
        <time>2018-08-08T13:43:53.000Z</time>
      </trkpt>
      <trkpt lat="42.69995" lon="0.66313">
        <ele>2014.3</ele>
        <time>2018-08-08T13:43:54.000Z</time>
      </trkpt>
      <trkpt lat="42.69995" lon="0.66313">
        <ele>2014.3</ele>
        <time>2018-08-08T13:43:55.000Z</time>
      </trkpt>
      <trkpt lat="42.69995" lon="0.66313">
        <ele>2014.3</ele>
        <time>2018-08-08T13:43:56.000Z</time>
      </trkpt>
      <trkpt lat="42.69995" lon="0.66313">
        <ele>2014.3</ele>
        <time>2018-08-08T13:43:57.000Z</time>
      </trkpt>
      <trkpt lat="42.69995" lon="0.66313">
        <ele>2014.3</ele>
        <time>2018-08-08T13:43:58.000Z</time>
      </trkpt>
      <trkpt lat="42.69995" lon="0.66313">
        <ele>2014.3</ele>
        <time>2018-08-08T13:43:59.000Z</time>
      </trkpt>
      <trkpt lat="42.69995" lon="0.66313">
        <ele>2014.3</ele>
        <time>2018-08-08T13:44:00.000Z</time>
      </trkpt>
      <trkpt lat="42.69995" lon="0.66313">
        <ele>2014.3</ele>
        <time>2018-08-08T13:44:01.000Z</time>
      </trkpt>
      <trkpt lat="42.69995" lon="0.66313">
        <ele>2014.3</ele>
        <time>2018-08-08T13:44:02.000Z</time>
      </trkpt>
      <trkpt lat="42.69995" lon="0.66313">
        <ele>2014.3</ele>
        <time>2018-08-08T13:44:03.000Z</time>
      </trkpt>
      <trkpt lat="42.69995" lon="0.66313">
        <ele>2014.3</ele>
        <time>2018-08-08T13:44:04.000Z</time>
      </trkpt>
      <trkpt lat="42.69995" lon="0.66313">
        <ele>2014.3</ele>
        <time>2018-08-08T13:44:05.000Z</time>
      </trkpt>
      <trkpt lat="42.69995" lon="0.66313">
        <ele>2014.3</ele>
        <time>2018-08-08T13:44:06.000Z</time>
      </trkpt>
      <trkpt lat="42.69995" lon="0.66313">
        <ele>2014.3</ele>
        <time>2018-08-08T13:44:07.000Z</time>
      </trkpt>
      <trkpt lat="42.69995" lon="0.66313">
        <ele>2014.3</ele>
        <time>2018-08-08T13:44:08.000Z</time>
      </trkpt>
      <trkpt lat="42.69995" lon="0.66313">
        <ele>2014.3</ele>
        <time>2018-08-08T13:44:09.000Z</time>
      </trkpt>
      <trkpt lat="42.69995" lon="0.66313">
        <ele>2014.3</ele>
        <time>2018-08-08T13:44:10.000Z</time>
      </trkpt>
      <trkpt lat="42.69995" lon="0.66313">
        <ele>2014.3</ele>
        <time>2018-08-08T13:44:11.000Z</time>
      </trkpt>
      <trkpt lat="42.69995" lon="0.66313">
        <ele>2014.3</ele>
        <time>2018-08-08T13:44:12.000Z</time>
      </trkpt>
      <trkpt lat="42.69995" lon="0.66313">
        <ele>2014.3</ele>
        <time>2018-08-08T13:44:13.000Z</time>
      </trkpt>
      <trkpt lat="42.69995" lon="0.66313">
        <ele>2014.3</ele>
        <time>2018-08-08T13:44:14.000Z</time>
      </trkpt>
      <trkpt lat="42.69995" lon="0.66313">
        <ele>2014.3</ele>
        <time>2018-08-08T13:44:15.000Z</time>
      </trkpt>
      <trkpt lat="42.69995" lon="0.66313">
        <ele>2014.3</ele>
        <time>2018-08-08T13:44:16.000Z</time>
      </trkpt>
      <trkpt lat="42.69995" lon="0.66313">
        <ele>2014.3</ele>
        <time>2018-08-08T13:44:17.000Z</time>
      </trkpt>
      <trkpt lat="42.69995" lon="0.66313">
        <ele>2014.3</ele>
        <time>2018-08-08T13:44:18.000Z</time>
      </trkpt>
      <trkpt lat="42.69995" lon="0.66313">
        <ele>2014.3</ele>
        <time>2018-08-08T13:44:19.000Z</time>
      </trkpt>
      <trkpt lat="42.69995" lon="0.66313">
        <ele>2014.3</ele>
        <time>2018-08-08T13:44:20.000Z</time>
      </trkpt>
      <trkpt lat="42.69995" lon="0.66313">
        <ele>2014.3</ele>
        <time>2018-08-08T13:44:21.000Z</time>
      </trkpt>
      <trkpt lat="42.69995" lon="0.66313">
        <ele>2014.3</ele>
        <time>2018-08-08T13:44:22.000Z</time>
      </trkpt>
      <trkpt lat="42.69995" lon="0.66313">
        <ele>2014.3</ele>
        <time>2018-08-08T13:44:23.000Z</time>
      </trkpt>
      <trkpt lat="42.69995" lon="0.66313">
        <ele>2014.3</ele>
        <time>2018-08-08T13:44:24.000Z</time>
      </trkpt>
      <trkpt lat="42.69995" lon="0.66313">
        <ele>2014.3</ele>
        <time>2018-08-08T13:44:25.000Z</time>
      </trkpt>
      <trkpt lat="42.69995" lon="0.66313">
        <ele>2014.3</ele>
        <time>2018-08-08T13:44:26.000Z</time>
      </trkpt>
      <trkpt lat="42.69995" lon="0.66313">
        <ele>2014.3</ele>
        <time>2018-08-08T13:44:27.000Z</time>
      </trkpt>
      <trkpt lat="42.69995" lon="0.66313">
        <ele>2014.3</ele>
        <time>2018-08-08T13:44:28.000Z</time>
      </trkpt>
      <trkpt lat="42.69995" lon="0.66313">
        <ele>2014.3</ele>
        <time>2018-08-08T13:44:29.000Z</time>
      </trkpt>
      <trkpt lat="42.69995" lon="0.66313">
        <ele>2014.3</ele>
        <time>2018-08-08T13:44:30.000Z</time>
      </trkpt>
      <trkpt lat="42.69995" lon="0.66313">
        <ele>2014.3</ele>
        <time>2018-08-08T13:44:31.000Z</time>
      </trkpt>
      <trkpt lat="42.69995" lon="0.66313">
        <ele>2014.3</ele>
        <time>2018-08-08T13:44:32.000Z</time>
      </trkpt>
      <trkpt lat="42.69995" lon="0.66313">
        <ele>2014.3</ele>
        <time>2018-08-08T13:44:33.000Z</time>
      </trkpt>
      <trkpt lat="42.69995" lon="0.66313">
        <ele>2014.3</ele>
        <time>2018-08-08T13:44:34.000Z</time>
      </trkpt>
      <trkpt lat="42.69995" lon="0.66313">
        <ele>2014.3</ele>
        <time>2018-08-08T13:44:35.000Z</time>
      </trkpt>
      <trkpt lat="42.69995" lon="0.66313">
        <ele>2014.3</ele>
        <time>2018-08-08T13:44:36.000Z</time>
      </trkpt>
      <trkpt lat="42.69995" lon="0.66313">
        <ele>2014.3</ele>
        <time>2018-08-08T13:44:37.000Z</time>
      </trkpt>
      <trkpt lat="42.69995" lon="0.66313">
        <ele>2014.3</ele>
        <time>2018-08-08T13:44:38.000Z</time>
      </trkpt>
      <trkpt lat="42.69995" lon="0.66313">
        <ele>2014.3</ele>
        <time>2018-08-08T13:44:39.000Z</time>
      </trkpt>
      <trkpt lat="42.69995" lon="0.66313">
        <ele>2014.3</ele>
        <time>2018-08-08T13:44:40.000Z</time>
      </trkpt>
      <trkpt lat="42.69995" lon="0.66313">
        <ele>2014.3</ele>
        <time>2018-08-08T13:44:41.000Z</time>
      </trkpt>
      <trkpt lat="42.69995" lon="0.66313">
        <ele>2014.3</ele>
        <time>2018-08-08T13:44:42.000Z</time>
      </trkpt>
      <trkpt lat="42.69995" lon="0.66313">
        <ele>2014.3</ele>
        <time>2018-08-08T13:44:43.000Z</time>
      </trkpt>
      <trkpt lat="42.69995" lon="0.66313">
        <ele>2014.3</ele>
        <time>2018-08-08T13:44:44.000Z</time>
      </trkpt>
      <trkpt lat="42.69995" lon="0.66313">
        <ele>2014.3</ele>
        <time>2018-08-08T13:44:45.000Z</time>
      </trkpt>
      <trkpt lat="42.69995" lon="0.66313">
        <ele>2014.3</ele>
        <time>2018-08-08T13:44:46.000Z</time>
      </trkpt>
      <trkpt lat="42.69995" lon="0.66313">
        <ele>2014.3</ele>
        <time>2018-08-08T13:44:47.000Z</time>
      </trkpt>
      <trkpt lat="42.69995" lon="0.66313">
        <ele>2014.3</ele>
        <time>2018-08-08T13:44:48.000Z</time>
      </trkpt>
      <trkpt lat="42.69995" lon="0.66313">
        <ele>2014.3</ele>
        <time>2018-08-08T13:44:49.000Z</time>
      </trkpt>
      <trkpt lat="42.69995" lon="0.66313">
        <ele>2014.3</ele>
        <time>2018-08-08T13:44:50.000Z</time>
      </trkpt>
      <trkpt lat="42.69995" lon="0.66313">
        <ele>2014.3</ele>
        <time>2018-08-08T13:44:51.000Z</time>
      </trkpt>
      <trkpt lat="42.69995" lon="0.66313">
        <ele>2014.3</ele>
        <time>2018-08-08T13:44:52.000Z</time>
      </trkpt>
      <trkpt lat="42.69995" lon="0.66313">
        <ele>2014.3</ele>
        <time>2018-08-08T13:44:53.000Z</time>
      </trkpt>
      <trkpt lat="42.69995" lon="0.66313">
        <ele>2014.3</ele>
        <time>2018-08-08T13:44:54.000Z</time>
      </trkpt>
      <trkpt lat="42.69995" lon="0.66313">
        <ele>2014.3</ele>
        <time>2018-08-08T13:44:55.000Z</time>
      </trkpt>
      <trkpt lat="42.69995" lon="0.66313">
        <ele>2014.3</ele>
        <time>2018-08-08T13:44:56.000Z</time>
      </trkpt>
      <trkpt lat="42.69995" lon="0.66313">
        <ele>2014.3</ele>
        <time>2018-08-08T13:44:57.000Z</time>
      </trkpt>
      <trkpt lat="42.69995" lon="0.66313">
        <ele>2014.3</ele>
        <time>2018-08-08T13:44:58.000Z</time>
      </trkpt>
      <trkpt lat="42.69995" lon="0.66313">
        <ele>2014.3</ele>
        <time>2018-08-08T13:44:59.000Z</time>
      </trkpt>
      <trkpt lat="42.69995" lon="0.66313">
        <ele>2014.3</ele>
        <time>2018-08-08T13:45:00.000Z</time>
      </trkpt>
      <trkpt lat="42.69995" lon="0.66313">
        <ele>2014.3</ele>
        <time>2018-08-08T13:45:01.000Z</time>
      </trkpt>
      <trkpt lat="42.69995" lon="0.66313">
        <ele>2014.3</ele>
        <time>2018-08-08T13:45:02.000Z</time>
      </trkpt>
      <trkpt lat="42.69995" lon="0.66313">
        <ele>2014.3</ele>
        <time>2018-08-08T13:45:03.000Z</time>
      </trkpt>
      <trkpt lat="42.69995" lon="0.66313">
        <ele>2014.3</ele>
        <time>2018-08-08T13:45:04.000Z</time>
      </trkpt>
      <trkpt lat="42.69995" lon="0.66313">
        <ele>2014.3</ele>
        <time>2018-08-08T13:45:05.000Z</time>
      </trkpt>
      <trkpt lat="42.69995" lon="0.66313">
        <ele>2014.3</ele>
        <time>2018-08-08T13:45:06.000Z</time>
      </trkpt>
      <trkpt lat="42.69995" lon="0.66313">
        <ele>2014.3</ele>
        <time>2018-08-08T13:45:07.000Z</time>
      </trkpt>
      <trkpt lat="42.69995" lon="0.66313">
        <ele>2014.3</ele>
        <time>2018-08-08T13:45:08.000Z</time>
      </trkpt>
      <trkpt lat="42.69995" lon="0.66313">
        <ele>2014.3</ele>
        <time>2018-08-08T13:45:09.000Z</time>
      </trkpt>
      <trkpt lat="42.69995" lon="0.66313">
        <ele>2014.3</ele>
        <time>2018-08-08T13:45:10.000Z</time>
      </trkpt>
      <trkpt lat="42.69995" lon="0.66313">
        <ele>2014.3</ele>
        <time>2018-08-08T13:45:11.000Z</time>
      </trkpt>
      <trkpt lat="42.69995" lon="0.66313">
        <ele>2014.3</ele>
        <time>2018-08-08T13:45:12.000Z</time>
      </trkpt>
      <trkpt lat="42.69995" lon="0.66313">
        <ele>2014.3</ele>
        <time>2018-08-08T13:45:13.000Z</time>
      </trkpt>
      <trkpt lat="42.69995" lon="0.66313">
        <ele>2014.3</ele>
        <time>2018-08-08T13:45:14.000Z</time>
      </trkpt>
      <trkpt lat="42.69995" lon="0.66313">
        <ele>2014.3</ele>
        <time>2018-08-08T13:45:15.000Z</time>
      </trkpt>
      <trkpt lat="42.69995" lon="0.66313">
        <ele>2014.3</ele>
        <time>2018-08-08T13:45:16.000Z</time>
      </trkpt>
      <trkpt lat="42.69995" lon="0.66313">
        <ele>2014.3</ele>
        <time>2018-08-08T13:45:17.000Z</time>
      </trkpt>
      <trkpt lat="42.69995" lon="0.66313">
        <ele>2014.3</ele>
        <time>2018-08-08T13:45:18.000Z</time>
      </trkpt>
      <trkpt lat="42.69995" lon="0.66313">
        <ele>2014.3</ele>
        <time>2018-08-08T13:45:19.000Z</time>
      </trkpt>
      <trkpt lat="42.69996" lon="0.66313">
        <ele>2014.2</ele>
        <time>2018-08-08T13:45:20.000Z</time>
      </trkpt>
      <trkpt lat="42.69996" lon="0.66313">
        <ele>2014.2</ele>
        <time>2018-08-08T13:45:21.000Z</time>
      </trkpt>
      <trkpt lat="42.69995" lon="0.66313">
        <ele>2014.3</ele>
        <time>2018-08-08T13:45:22.000Z</time>
      </trkpt>
      <trkpt lat="42.69995" lon="0.66313">
        <ele>2014.3</ele>
        <time>2018-08-08T13:45:23.000Z</time>
      </trkpt>
      <trkpt lat="42.69995" lon="0.66313">
        <ele>2014.3</ele>
        <time>2018-08-08T13:45:24.000Z</time>
      </trkpt>
      <trkpt lat="42.69995" lon="0.66313">
        <ele>2014.4</ele>
        <time>2018-08-08T13:45:25.000Z</time>
      </trkpt>
      <trkpt lat="42.69995" lon="0.66313">
        <ele>2014.5</ele>
        <time>2018-08-08T13:45:26.000Z</time>
      </trkpt>
      <trkpt lat="42.69994" lon="0.66313">
        <ele>2014.7</ele>
        <time>2018-08-08T13:45:27.000Z</time>
      </trkpt>
      <trkpt lat="42.69994" lon="0.66313">
        <ele>2014.8</ele>
        <time>2018-08-08T13:45:28.000Z</time>
      </trkpt>
      <trkpt lat="42.69993" lon="0.66314">
        <ele>2015</ele>
        <time>2018-08-08T13:45:29.000Z</time>
      </trkpt>
      <trkpt lat="42.69993" lon="0.66314">
        <ele>2015.2</ele>
        <time>2018-08-08T13:45:30.000Z</time>
      </trkpt>
      <trkpt lat="42.69992" lon="0.66314">
        <ele>2015.4</ele>
        <time>2018-08-08T13:45:31.000Z</time>
      </trkpt>
      <trkpt lat="42.69991" lon="0.66314">
        <ele>2015.7</ele>
        <time>2018-08-08T13:45:32.000Z</time>
      </trkpt>
      <trkpt lat="42.6999" lon="0.66315">
        <ele>2016</ele>
        <time>2018-08-08T13:45:33.000Z</time>
      </trkpt>
      <trkpt lat="42.6999" lon="0.66315">
        <ele>2016.2</ele>
        <time>2018-08-08T13:45:34.000Z</time>
      </trkpt>
      <trkpt lat="42.69989" lon="0.66315">
        <ele>2016.4</ele>
        <time>2018-08-08T13:45:35.000Z</time>
      </trkpt>
      <trkpt lat="42.69988" lon="0.66316">
        <ele>2016.6</ele>
        <time>2018-08-08T13:45:36.000Z</time>
      </trkpt>
      <trkpt lat="42.69987" lon="0.66316">
        <ele>2016.8</ele>
        <time>2018-08-08T13:45:37.000Z</time>
      </trkpt>
      <trkpt lat="42.69987" lon="0.66316">
        <ele>2017.1</ele>
        <time>2018-08-08T13:45:38.000Z</time>
      </trkpt>
      <trkpt lat="42.69986" lon="0.66316">
        <ele>2017.4</ele>
        <time>2018-08-08T13:45:39.000Z</time>
      </trkpt>
      <trkpt lat="42.69985" lon="0.66317">
        <ele>2017.6</ele>
        <time>2018-08-08T13:45:40.000Z</time>
      </trkpt>
      <trkpt lat="42.69985" lon="0.66317">
        <ele>2017.9</ele>
        <time>2018-08-08T13:45:41.000Z</time>
      </trkpt>
      <trkpt lat="42.69984" lon="0.66317">
        <ele>2018.1</ele>
        <time>2018-08-08T13:45:42.000Z</time>
      </trkpt>
      <trkpt lat="42.69983" lon="0.66317">
        <ele>2018.4</ele>
        <time>2018-08-08T13:45:43.000Z</time>
      </trkpt>
      <trkpt lat="42.69983" lon="0.66317">
        <ele>2018.6</ele>
        <time>2018-08-08T13:45:44.000Z</time>
      </trkpt>
      <trkpt lat="42.69982" lon="0.66317">
        <ele>2018.9</ele>
        <time>2018-08-08T13:45:45.000Z</time>
      </trkpt>
      <trkpt lat="42.69981" lon="0.66318">
        <ele>2019</ele>
        <time>2018-08-08T13:45:46.000Z</time>
      </trkpt>
      <trkpt lat="42.69981" lon="0.66318">
        <ele>2019.2</ele>
        <time>2018-08-08T13:45:47.000Z</time>
      </trkpt>
      <trkpt lat="42.6998" lon="0.66319">
        <ele>2019.3</ele>
        <time>2018-08-08T13:45:48.000Z</time>
      </trkpt>
      <trkpt lat="42.69979" lon="0.66319">
        <ele>2019.4</ele>
        <time>2018-08-08T13:45:49.000Z</time>
      </trkpt>
      <trkpt lat="42.69979" lon="0.6632">
        <ele>2019.4</ele>
        <time>2018-08-08T13:45:50.000Z</time>
      </trkpt>
      <trkpt lat="42.69978" lon="0.6632">
        <ele>2019.6</ele>
        <time>2018-08-08T13:45:51.000Z</time>
      </trkpt>
      <trkpt lat="42.69978" lon="0.66321">
        <ele>2019.6</ele>
        <time>2018-08-08T13:45:52.000Z</time>
      </trkpt>
      <trkpt lat="42.69977" lon="0.66321">
        <ele>2019.7</ele>
        <time>2018-08-08T13:45:53.000Z</time>
      </trkpt>
      <trkpt lat="42.69976" lon="0.66322">
        <ele>2019.8</ele>
        <time>2018-08-08T13:45:54.000Z</time>
      </trkpt>
      <trkpt lat="42.69976" lon="0.66323">
        <ele>2019.8</ele>
        <time>2018-08-08T13:45:55.000Z</time>
      </trkpt>
      <trkpt lat="42.69975" lon="0.66323">
        <ele>2019.9</ele>
        <time>2018-08-08T13:45:56.000Z</time>
      </trkpt>
      <trkpt lat="42.69974" lon="0.66324">
        <ele>2020</ele>
        <time>2018-08-08T13:45:57.000Z</time>
      </trkpt>
      <trkpt lat="42.69974" lon="0.66324">
        <ele>2020</ele>
        <time>2018-08-08T13:45:58.000Z</time>
      </trkpt>
      <trkpt lat="42.69973" lon="0.66325">
        <ele>2020.1</ele>
        <time>2018-08-08T13:45:59.000Z</time>
      </trkpt>
      <trkpt lat="42.69973" lon="0.66326">
        <ele>2020.1</ele>
        <time>2018-08-08T13:46:00.000Z</time>
      </trkpt>
      <trkpt lat="42.69972" lon="0.66326">
        <ele>2020.2</ele>
        <time>2018-08-08T13:46:01.000Z</time>
      </trkpt>
      <trkpt lat="42.69972" lon="0.66327">
        <ele>2020.2</ele>
        <time>2018-08-08T13:46:02.000Z</time>
      </trkpt>
      <trkpt lat="42.69971" lon="0.66328">
        <ele>2020.3</ele>
        <time>2018-08-08T13:46:03.000Z</time>
      </trkpt>
      <trkpt lat="42.6997" lon="0.66328">
        <ele>2020.2</ele>
        <time>2018-08-08T13:46:04.000Z</time>
      </trkpt>
      <trkpt lat="42.6997" lon="0.66329">
        <ele>2020.3</ele>
        <time>2018-08-08T13:46:05.000Z</time>
      </trkpt>
      <trkpt lat="42.69969" lon="0.6633">
        <ele>2020.2</ele>
        <time>2018-08-08T13:46:06.000Z</time>
      </trkpt>
      <trkpt lat="42.69969" lon="0.66331">
        <ele>2020.2</ele>
        <time>2018-08-08T13:46:07.000Z</time>
      </trkpt>
      <trkpt lat="42.69968" lon="0.66331">
        <ele>2020.2</ele>
        <time>2018-08-08T13:46:08.000Z</time>
      </trkpt>
      <trkpt lat="42.69968" lon="0.66332">
        <ele>2020.1</ele>
        <time>2018-08-08T13:46:09.000Z</time>
      </trkpt>
      <trkpt lat="42.69967" lon="0.66333">
        <ele>2020.1</ele>
        <time>2018-08-08T13:46:10.000Z</time>
      </trkpt>
      <trkpt lat="42.69967" lon="0.66334">
        <ele>2020.1</ele>
        <time>2018-08-08T13:46:11.000Z</time>
      </trkpt>
      <trkpt lat="42.69966" lon="0.66335">
        <ele>2020.1</ele>
        <time>2018-08-08T13:46:12.000Z</time>
      </trkpt>
      <trkpt lat="42.69966" lon="0.66336">
        <ele>2020.1</ele>
        <time>2018-08-08T13:46:13.000Z</time>
      </trkpt>
      <trkpt lat="42.69965" lon="0.66336">
        <ele>2020.2</ele>
        <time>2018-08-08T13:46:14.000Z</time>
      </trkpt>
      <trkpt lat="42.69965" lon="0.66337">
        <ele>2020.1</ele>
        <time>2018-08-08T13:46:15.000Z</time>
      </trkpt>
      <trkpt lat="42.69964" lon="0.66338">
        <ele>2020.2</ele>
        <time>2018-08-08T13:46:16.000Z</time>
      </trkpt>
      <trkpt lat="42.69964" lon="0.66338">
        <ele>2020.2</ele>
        <time>2018-08-08T13:46:17.000Z</time>
      </trkpt>
      <trkpt lat="42.69964" lon="0.66338">
        <ele>2020.3</ele>
        <time>2018-08-08T13:46:18.000Z</time>
      </trkpt>
      <trkpt lat="42.69964" lon="0.66339">
        <ele>2020.3</ele>
        <time>2018-08-08T13:46:19.000Z</time>
      </trkpt>
      <trkpt lat="42.69964" lon="0.66339">
        <ele>2020.3</ele>
        <time>2018-08-08T13:46:20.000Z</time>
      </trkpt>
      <trkpt lat="42.69963" lon="0.66339">
        <ele>2020.3</ele>
        <time>2018-08-08T13:46:21.000Z</time>
      </trkpt>
      <trkpt lat="42.69963" lon="0.66339">
        <ele>2020.3</ele>
        <time>2018-08-08T13:46:22.000Z</time>
      </trkpt>
      <trkpt lat="42.69963" lon="0.66339">
        <ele>2020.3</ele>
        <time>2018-08-08T13:46:23.000Z</time>
      </trkpt>
      <trkpt lat="42.69963" lon="0.6634">
        <ele>2020.3</ele>
        <time>2018-08-08T13:46:24.000Z</time>
      </trkpt>
      <trkpt lat="42.69963" lon="0.6634">
        <ele>2020.3</ele>
        <time>2018-08-08T13:46:25.000Z</time>
      </trkpt>
      <trkpt lat="42.69963" lon="0.66341">
        <ele>2020.1</ele>
        <time>2018-08-08T13:46:26.000Z</time>
      </trkpt>
      <trkpt lat="42.69963" lon="0.66342">
        <ele>2020</ele>
        <time>2018-08-08T13:46:27.000Z</time>
      </trkpt>
      <trkpt lat="42.69962" lon="0.66343">
        <ele>2019.8</ele>
        <time>2018-08-08T13:46:28.000Z</time>
      </trkpt>
      <trkpt lat="42.69962" lon="0.66345">
        <ele>2019.5</ele>
        <time>2018-08-08T13:46:29.000Z</time>
      </trkpt>
      <trkpt lat="42.69962" lon="0.66346">
        <ele>2019.2</ele>
        <time>2018-08-08T13:46:30.000Z</time>
      </trkpt>
      <trkpt lat="42.69962" lon="0.66347">
        <ele>2019</ele>
        <time>2018-08-08T13:46:31.000Z</time>
      </trkpt>
      <trkpt lat="42.69962" lon="0.66348">
        <ele>2018.7</ele>
        <time>2018-08-08T13:46:32.000Z</time>
      </trkpt>
      <trkpt lat="42.69961" lon="0.6635">
        <ele>2018.5</ele>
        <time>2018-08-08T13:46:33.000Z</time>
      </trkpt>
      <trkpt lat="42.69961" lon="0.66351">
        <ele>2018.3</ele>
        <time>2018-08-08T13:46:34.000Z</time>
      </trkpt>
      <trkpt lat="42.69961" lon="0.66352">
        <ele>2018.2</ele>
        <time>2018-08-08T13:46:35.000Z</time>
      </trkpt>
      <trkpt lat="42.6996" lon="0.66353">
        <ele>2018.2</ele>
        <time>2018-08-08T13:46:36.000Z</time>
      </trkpt>
      <trkpt lat="42.6996" lon="0.66354">
        <ele>2018.2</ele>
        <time>2018-08-08T13:46:37.000Z</time>
      </trkpt>
      <trkpt lat="42.69959" lon="0.66355">
        <ele>2018.3</ele>
        <time>2018-08-08T13:46:38.000Z</time>
      </trkpt>
      <trkpt lat="42.69959" lon="0.66356">
        <ele>2018.4</ele>
        <time>2018-08-08T13:46:39.000Z</time>
      </trkpt>
      <trkpt lat="42.69958" lon="0.66357">
        <ele>2018.5</ele>
        <time>2018-08-08T13:46:40.000Z</time>
      </trkpt>
      <trkpt lat="42.69957" lon="0.66357">
        <ele>2018.6</ele>
        <time>2018-08-08T13:46:41.000Z</time>
      </trkpt>
      <trkpt lat="42.69957" lon="0.66358">
        <ele>2018.8</ele>
        <time>2018-08-08T13:46:42.000Z</time>
      </trkpt>
      <trkpt lat="42.69956" lon="0.66358">
        <ele>2019</ele>
        <time>2018-08-08T13:46:43.000Z</time>
      </trkpt>
      <trkpt lat="42.69955" lon="0.66359">
        <ele>2019.2</ele>
        <time>2018-08-08T13:46:44.000Z</time>
      </trkpt>
      <trkpt lat="42.69955" lon="0.6636">
        <ele>2019.4</ele>
        <time>2018-08-08T13:46:45.000Z</time>
      </trkpt>
      <trkpt lat="42.69954" lon="0.6636">
        <ele>2019.5</ele>
        <time>2018-08-08T13:46:46.000Z</time>
      </trkpt>
      <trkpt lat="42.69954" lon="0.66361">
        <ele>2019.7</ele>
        <time>2018-08-08T13:46:47.000Z</time>
      </trkpt>
      <trkpt lat="42.69953" lon="0.66361">
        <ele>2019.8</ele>
        <time>2018-08-08T13:46:48.000Z</time>
      </trkpt>
      <trkpt lat="42.69953" lon="0.66362">
        <ele>2020</ele>
        <time>2018-08-08T13:46:49.000Z</time>
      </trkpt>
      <trkpt lat="42.69952" lon="0.66363">
        <ele>2020.1</ele>
        <time>2018-08-08T13:46:50.000Z</time>
      </trkpt>
      <trkpt lat="42.69952" lon="0.66363">
        <ele>2020.1</ele>
        <time>2018-08-08T13:46:51.000Z</time>
      </trkpt>
      <trkpt lat="42.69951" lon="0.66364">
        <ele>2020.2</ele>
        <time>2018-08-08T13:46:52.000Z</time>
      </trkpt>
      <trkpt lat="42.69951" lon="0.66365">
        <ele>2020.3</ele>
        <time>2018-08-08T13:46:53.000Z</time>
      </trkpt>
      <trkpt lat="42.6995" lon="0.66366">
        <ele>2020.3</ele>
        <time>2018-08-08T13:46:54.000Z</time>
      </trkpt>
      <trkpt lat="42.6995" lon="0.66367">
        <ele>2020.3</ele>
        <time>2018-08-08T13:46:55.000Z</time>
      </trkpt>
      <trkpt lat="42.69949" lon="0.66367">
        <ele>2020.3</ele>
        <time>2018-08-08T13:46:56.000Z</time>
      </trkpt>
      <trkpt lat="42.69949" lon="0.66368">
        <ele>2020.3</ele>
        <time>2018-08-08T13:46:57.000Z</time>
      </trkpt>
      <trkpt lat="42.69949" lon="0.66369">
        <ele>2020.3</ele>
        <time>2018-08-08T13:46:58.000Z</time>
      </trkpt>
      <trkpt lat="42.69948" lon="0.6637">
        <ele>2020.3</ele>
        <time>2018-08-08T13:46:59.000Z</time>
      </trkpt>
      <trkpt lat="42.69948" lon="0.66371">
        <ele>2020.3</ele>
        <time>2018-08-08T13:47:00.000Z</time>
      </trkpt>
      <trkpt lat="42.69947" lon="0.66372">
        <ele>2020.2</ele>
        <time>2018-08-08T13:47:01.000Z</time>
      </trkpt>
      <trkpt lat="42.69947" lon="0.66373">
        <ele>2020.2</ele>
        <time>2018-08-08T13:47:02.000Z</time>
      </trkpt>
      <trkpt lat="42.69947" lon="0.66374">
        <ele>2020.1</ele>
        <time>2018-08-08T13:47:03.000Z</time>
      </trkpt>
      <trkpt lat="42.69946" lon="0.66375">
        <ele>2020.1</ele>
        <time>2018-08-08T13:47:04.000Z</time>
      </trkpt>
      <trkpt lat="42.69946" lon="0.66376">
        <ele>2020.2</ele>
        <time>2018-08-08T13:47:05.000Z</time>
      </trkpt>
      <trkpt lat="42.69945" lon="0.66377">
        <ele>2020.1</ele>
        <time>2018-08-08T13:47:06.000Z</time>
      </trkpt>
      <trkpt lat="42.69945" lon="0.66378">
        <ele>2020.1</ele>
        <time>2018-08-08T13:47:07.000Z</time>
      </trkpt>
      <trkpt lat="42.69945" lon="0.66379">
        <ele>2020.1</ele>
        <time>2018-08-08T13:47:08.000Z</time>
      </trkpt>
      <trkpt lat="42.69944" lon="0.6638">
        <ele>2020.2</ele>
        <time>2018-08-08T13:47:09.000Z</time>
      </trkpt>
      <trkpt lat="42.69944" lon="0.66381">
        <ele>2020.2</ele>
        <time>2018-08-08T13:47:10.000Z</time>
      </trkpt>
      <trkpt lat="42.69943" lon="0.66382">
        <ele>2020.2</ele>
        <time>2018-08-08T13:47:11.000Z</time>
      </trkpt>
      <trkpt lat="42.69943" lon="0.66382">
        <ele>2020.3</ele>
        <time>2018-08-08T13:47:12.000Z</time>
      </trkpt>
      <trkpt lat="42.69942" lon="0.66383">
        <ele>2020.4</ele>
        <time>2018-08-08T13:47:13.000Z</time>
      </trkpt>
      <trkpt lat="42.69942" lon="0.66384">
        <ele>2020.5</ele>
        <time>2018-08-08T13:47:14.000Z</time>
      </trkpt>
      <trkpt lat="42.69941" lon="0.66385">
        <ele>2020.6</ele>
        <time>2018-08-08T13:47:15.000Z</time>
      </trkpt>
      <trkpt lat="42.69941" lon="0.66386">
        <ele>2020.7</ele>
        <time>2018-08-08T13:47:16.000Z</time>
      </trkpt>
      <trkpt lat="42.6994" lon="0.66387">
        <ele>2020.8</ele>
        <time>2018-08-08T13:47:17.000Z</time>
      </trkpt>
      <trkpt lat="42.6994" lon="0.66387">
        <ele>2021</ele>
        <time>2018-08-08T13:47:18.000Z</time>
      </trkpt>
      <trkpt lat="42.69939" lon="0.66388">
        <ele>2021.1</ele>
        <time>2018-08-08T13:47:19.000Z</time>
      </trkpt>
      <trkpt lat="42.69938" lon="0.66389">
        <ele>2021.3</ele>
        <time>2018-08-08T13:47:20.000Z</time>
      </trkpt>
      <trkpt lat="42.69938" lon="0.6639">
        <ele>2021.5</ele>
        <time>2018-08-08T13:47:21.000Z</time>
      </trkpt>
      <trkpt lat="42.69937" lon="0.6639">
        <ele>2021.6</ele>
        <time>2018-08-08T13:47:22.000Z</time>
      </trkpt>
      <trkpt lat="42.69937" lon="0.66391">
        <ele>2021.8</ele>
        <time>2018-08-08T13:47:23.000Z</time>
      </trkpt>
      <trkpt lat="42.69936" lon="0.66392">
        <ele>2022</ele>
        <time>2018-08-08T13:47:24.000Z</time>
      </trkpt>
      <trkpt lat="42.69935" lon="0.66392">
        <ele>2022.2</ele>
        <time>2018-08-08T13:47:25.000Z</time>
      </trkpt>
      <trkpt lat="42.69935" lon="0.66393">
        <ele>2022.4</ele>
        <time>2018-08-08T13:47:26.000Z</time>
      </trkpt>
      <trkpt lat="42.69934" lon="0.66394">
        <ele>2022.6</ele>
        <time>2018-08-08T13:47:27.000Z</time>
      </trkpt>
      <trkpt lat="42.69934" lon="0.66395">
        <ele>2022.8</ele>
        <time>2018-08-08T13:47:28.000Z</time>
      </trkpt>
      <trkpt lat="42.69933" lon="0.66395">
        <ele>2022.9</ele>
        <time>2018-08-08T13:47:29.000Z</time>
      </trkpt>
      <trkpt lat="42.69932" lon="0.66396">
        <ele>2023.1</ele>
        <time>2018-08-08T13:47:30.000Z</time>
      </trkpt>
      <trkpt lat="42.69932" lon="0.66397">
        <ele>2023.2</ele>
        <time>2018-08-08T13:47:31.000Z</time>
      </trkpt>
      <trkpt lat="42.69931" lon="0.66398">
        <ele>2023.3</ele>
        <time>2018-08-08T13:47:32.000Z</time>
      </trkpt>
      <trkpt lat="42.69931" lon="0.66398">
        <ele>2023.3</ele>
        <time>2018-08-08T13:47:33.000Z</time>
      </trkpt>
      <trkpt lat="42.69931" lon="0.66399">
        <ele>2023.4</ele>
        <time>2018-08-08T13:47:34.000Z</time>
      </trkpt>
      <trkpt lat="42.6993" lon="0.664">
        <ele>2023.4</ele>
        <time>2018-08-08T13:47:35.000Z</time>
      </trkpt>
      <trkpt lat="42.6993" lon="0.66401">
        <ele>2023.4</ele>
        <time>2018-08-08T13:47:36.000Z</time>
      </trkpt>
      <trkpt lat="42.6993" lon="0.66402">
        <ele>2023.3</ele>
        <time>2018-08-08T13:47:37.000Z</time>
      </trkpt>
      <trkpt lat="42.6993" lon="0.66403">
        <ele>2023.1</ele>
        <time>2018-08-08T13:47:38.000Z</time>
      </trkpt>
      <trkpt lat="42.6993" lon="0.66404">
        <ele>2022.9</ele>
        <time>2018-08-08T13:47:39.000Z</time>
      </trkpt>
      <trkpt lat="42.6993" lon="0.66405">
        <ele>2022.7</ele>
        <time>2018-08-08T13:47:40.000Z</time>
      </trkpt>
      <trkpt lat="42.69929" lon="0.66406">
        <ele>2022.5</ele>
        <time>2018-08-08T13:47:41.000Z</time>
      </trkpt>
      <trkpt lat="42.69929" lon="0.66407">
        <ele>2022.4</ele>
        <time>2018-08-08T13:47:42.000Z</time>
      </trkpt>
      <trkpt lat="42.69929" lon="0.66408">
        <ele>2022.4</ele>
        <time>2018-08-08T13:47:43.000Z</time>
      </trkpt>
      <trkpt lat="42.69928" lon="0.66409">
        <ele>2022.5</ele>
        <time>2018-08-08T13:47:44.000Z</time>
      </trkpt>
      <trkpt lat="42.69928" lon="0.6641">
        <ele>2022.6</ele>
        <time>2018-08-08T13:47:45.000Z</time>
      </trkpt>
      <trkpt lat="42.69928" lon="0.66411">
        <ele>2022.7</ele>
        <time>2018-08-08T13:47:46.000Z</time>
      </trkpt>
      <trkpt lat="42.69927" lon="0.66411">
        <ele>2022.8</ele>
        <time>2018-08-08T13:47:47.000Z</time>
      </trkpt>
      <trkpt lat="42.69927" lon="0.66412">
        <ele>2022.8</ele>
        <time>2018-08-08T13:47:48.000Z</time>
      </trkpt>
      <trkpt lat="42.69926" lon="0.66413">
        <ele>2022.7</ele>
        <time>2018-08-08T13:47:49.000Z</time>
      </trkpt>
      <trkpt lat="42.69926" lon="0.66414">
        <ele>2022.6</ele>
        <time>2018-08-08T13:47:50.000Z</time>
      </trkpt>
      <trkpt lat="42.69926" lon="0.66415">
        <ele>2022.5</ele>
        <time>2018-08-08T13:47:51.000Z</time>
      </trkpt>
      <trkpt lat="42.69926" lon="0.66416">
        <ele>2022.3</ele>
        <time>2018-08-08T13:47:52.000Z</time>
      </trkpt>
      <trkpt lat="42.69926" lon="0.66417">
        <ele>2022.1</ele>
        <time>2018-08-08T13:47:53.000Z</time>
      </trkpt>
      <trkpt lat="42.69926" lon="0.66419">
        <ele>2022</ele>
        <time>2018-08-08T13:47:54.000Z</time>
      </trkpt>
      <trkpt lat="42.69926" lon="0.6642">
        <ele>2021.8</ele>
        <time>2018-08-08T13:47:55.000Z</time>
      </trkpt>
      <trkpt lat="42.69927" lon="0.66421">
        <ele>2021.5</ele>
        <time>2018-08-08T13:47:56.000Z</time>
      </trkpt>
      <trkpt lat="42.69927" lon="0.66422">
        <ele>2021.3</ele>
        <time>2018-08-08T13:47:57.000Z</time>
      </trkpt>
      <trkpt lat="42.69927" lon="0.66424">
        <ele>2021</ele>
        <time>2018-08-08T13:47:58.000Z</time>
      </trkpt>
      <trkpt lat="42.69927" lon="0.66425">
        <ele>2020.7</ele>
        <time>2018-08-08T13:47:59.000Z</time>
      </trkpt>
      <trkpt lat="42.69928" lon="0.66427">
        <ele>2020.3</ele>
        <time>2018-08-08T13:48:00.000Z</time>
      </trkpt>
      <trkpt lat="42.69928" lon="0.66428">
        <ele>2020</ele>
        <time>2018-08-08T13:48:01.000Z</time>
      </trkpt>
      <trkpt lat="42.69929" lon="0.66429">
        <ele>2019.6</ele>
        <time>2018-08-08T13:48:02.000Z</time>
      </trkpt>
      <trkpt lat="42.69929" lon="0.66431">
        <ele>2019.2</ele>
        <time>2018-08-08T13:48:03.000Z</time>
      </trkpt>
      <trkpt lat="42.6993" lon="0.66432">
        <ele>2018.9</ele>
        <time>2018-08-08T13:48:04.000Z</time>
      </trkpt>
      <trkpt lat="42.6993" lon="0.66434">
        <ele>2018.4</ele>
        <time>2018-08-08T13:48:05.000Z</time>
      </trkpt>
      <trkpt lat="42.6993" lon="0.66435">
        <ele>2018.1</ele>
        <time>2018-08-08T13:48:06.000Z</time>
      </trkpt>
      <trkpt lat="42.69931" lon="0.66436">
        <ele>2017.7</ele>
        <time>2018-08-08T13:48:07.000Z</time>
      </trkpt>
      <trkpt lat="42.69931" lon="0.66438">
        <ele>2017.4</ele>
        <time>2018-08-08T13:48:08.000Z</time>
      </trkpt>
      <trkpt lat="42.69931" lon="0.66439">
        <ele>2017.2</ele>
        <time>2018-08-08T13:48:09.000Z</time>
      </trkpt>
      <trkpt lat="42.69932" lon="0.6644">
        <ele>2016.9</ele>
        <time>2018-08-08T13:48:10.000Z</time>
      </trkpt>
      <trkpt lat="42.69932" lon="0.66442">
        <ele>2016.8</ele>
        <time>2018-08-08T13:48:11.000Z</time>
      </trkpt>
      <trkpt lat="42.69932" lon="0.66443">
        <ele>2016.7</ele>
        <time>2018-08-08T13:48:12.000Z</time>
      </trkpt>
      <trkpt lat="42.69932" lon="0.66444">
        <ele>2016.7</ele>
        <time>2018-08-08T13:48:13.000Z</time>
      </trkpt>
      <trkpt lat="42.69931" lon="0.66446">
        <ele>2016.7</ele>
        <time>2018-08-08T13:48:14.000Z</time>
      </trkpt>
      <trkpt lat="42.69931" lon="0.66447">
        <ele>2016.7</ele>
        <time>2018-08-08T13:48:15.000Z</time>
      </trkpt>
      <trkpt lat="42.69931" lon="0.66448">
        <ele>2016.6</ele>
        <time>2018-08-08T13:48:16.000Z</time>
      </trkpt>
      <trkpt lat="42.69931" lon="0.6645">
        <ele>2016.6</ele>
        <time>2018-08-08T13:48:17.000Z</time>
      </trkpt>
      <trkpt lat="42.69931" lon="0.66451">
        <ele>2016.5</ele>
        <time>2018-08-08T13:48:18.000Z</time>
      </trkpt>
      <trkpt lat="42.69931" lon="0.66453">
        <ele>2016.4</ele>
        <time>2018-08-08T13:48:19.000Z</time>
      </trkpt>
      <trkpt lat="42.69931" lon="0.66454">
        <ele>2016.3</ele>
        <time>2018-08-08T13:48:20.000Z</time>
      </trkpt>
      <trkpt lat="42.69931" lon="0.66456">
        <ele>2016.2</ele>
        <time>2018-08-08T13:48:21.000Z</time>
      </trkpt>
      <trkpt lat="42.69931" lon="0.66458">
        <ele>2016.1</ele>
        <time>2018-08-08T13:48:22.000Z</time>
      </trkpt>
      <trkpt lat="42.69931" lon="0.66459">
        <ele>2016</ele>
        <time>2018-08-08T13:48:23.000Z</time>
      </trkpt>
      <trkpt lat="42.69931" lon="0.6646">
        <ele>2016.1</ele>
        <time>2018-08-08T13:48:24.000Z</time>
      </trkpt>
      <trkpt lat="42.6993" lon="0.66462">
        <ele>2016.1</ele>
        <time>2018-08-08T13:48:25.000Z</time>
      </trkpt>
      <trkpt lat="42.6993" lon="0.66463">
        <ele>2016.2</ele>
        <time>2018-08-08T13:48:26.000Z</time>
      </trkpt>
      <trkpt lat="42.6993" lon="0.66464">
        <ele>2016.4</ele>
        <time>2018-08-08T13:48:27.000Z</time>
      </trkpt>
      <trkpt lat="42.69929" lon="0.66465">
        <ele>2016.6</ele>
        <time>2018-08-08T13:48:28.000Z</time>
      </trkpt>
      <trkpt lat="42.69929" lon="0.66466">
        <ele>2016.8</ele>
        <time>2018-08-08T13:48:29.000Z</time>
      </trkpt>
      <trkpt lat="42.69928" lon="0.66467">
        <ele>2017.1</ele>
        <time>2018-08-08T13:48:30.000Z</time>
      </trkpt>
      <trkpt lat="42.69928" lon="0.66468">
        <ele>2017.3</ele>
        <time>2018-08-08T13:48:31.000Z</time>
      </trkpt>
      <trkpt lat="42.69927" lon="0.66469">
        <ele>2017.6</ele>
        <time>2018-08-08T13:48:32.000Z</time>
      </trkpt>
      <trkpt lat="42.69927" lon="0.6647">
        <ele>2017.8</ele>
        <time>2018-08-08T13:48:33.000Z</time>
      </trkpt>
      <trkpt lat="42.69926" lon="0.66471">
        <ele>2018.1</ele>
        <time>2018-08-08T13:48:34.000Z</time>
      </trkpt>
      <trkpt lat="42.69926" lon="0.66472">
        <ele>2018.4</ele>
        <time>2018-08-08T13:48:35.000Z</time>
      </trkpt>
      <trkpt lat="42.69925" lon="0.66473">
        <ele>2018.6</ele>
        <time>2018-08-08T13:48:36.000Z</time>
      </trkpt>
      <trkpt lat="42.69925" lon="0.66474">
        <ele>2018.8</ele>
        <time>2018-08-08T13:48:37.000Z</time>
      </trkpt>
      <trkpt lat="42.69924" lon="0.66475">
        <ele>2019</ele>
        <time>2018-08-08T13:48:38.000Z</time>
      </trkpt>
      <trkpt lat="42.69924" lon="0.66476">
        <ele>2019.3</ele>
        <time>2018-08-08T13:48:39.000Z</time>
      </trkpt>
      <trkpt lat="42.69923" lon="0.66477">
        <ele>2019.5</ele>
        <time>2018-08-08T13:48:40.000Z</time>
      </trkpt>
      <trkpt lat="42.69923" lon="0.66478">
        <ele>2019.6</ele>
        <time>2018-08-08T13:48:41.000Z</time>
      </trkpt>
      <trkpt lat="42.69923" lon="0.66479">
        <ele>2019.8</ele>
        <time>2018-08-08T13:48:42.000Z</time>
      </trkpt>
      <trkpt lat="42.69922" lon="0.6648">
        <ele>2019.9</ele>
        <time>2018-08-08T13:48:43.000Z</time>
      </trkpt>
      <trkpt lat="42.69922" lon="0.66481">
        <ele>2020</ele>
        <time>2018-08-08T13:48:44.000Z</time>
      </trkpt>
      <trkpt lat="42.69922" lon="0.66482">
        <ele>2020</ele>
        <time>2018-08-08T13:48:45.000Z</time>
      </trkpt>
      <trkpt lat="42.69922" lon="0.66483">
        <ele>2020</ele>
        <time>2018-08-08T13:48:46.000Z</time>
      </trkpt>
      <trkpt lat="42.69922" lon="0.66484">
        <ele>2020.1</ele>
        <time>2018-08-08T13:48:47.000Z</time>
      </trkpt>
      <trkpt lat="42.69921" lon="0.66485">
        <ele>2020.1</ele>
        <time>2018-08-08T13:48:48.000Z</time>
      </trkpt>
      <trkpt lat="42.69921" lon="0.66486">
        <ele>2020.2</ele>
        <time>2018-08-08T13:48:49.000Z</time>
      </trkpt>
      <trkpt lat="42.69921" lon="0.66487">
        <ele>2020.4</ele>
        <time>2018-08-08T13:48:50.000Z</time>
      </trkpt>
      <trkpt lat="42.6992" lon="0.66488">
        <ele>2020.7</ele>
        <time>2018-08-08T13:48:51.000Z</time>
      </trkpt>
      <trkpt lat="42.6992" lon="0.66489">
        <ele>2020.8</ele>
        <time>2018-08-08T13:48:52.000Z</time>
      </trkpt>
      <trkpt lat="42.69919" lon="0.6649">
        <ele>2021</ele>
        <time>2018-08-08T13:48:53.000Z</time>
      </trkpt>
      <trkpt lat="42.69919" lon="0.66491">
        <ele>2021</ele>
        <time>2018-08-08T13:48:54.000Z</time>
      </trkpt>
      <trkpt lat="42.69919" lon="0.66493">
        <ele>2020.9</ele>
        <time>2018-08-08T13:48:55.000Z</time>
      </trkpt>
      <trkpt lat="42.69919" lon="0.66494">
        <ele>2020.7</ele>
        <time>2018-08-08T13:48:56.000Z</time>
      </trkpt>
      <trkpt lat="42.6992" lon="0.66495">
        <ele>2020.5</ele>
        <time>2018-08-08T13:48:57.000Z</time>
      </trkpt>
      <trkpt lat="42.6992" lon="0.66496">
        <ele>2020.3</ele>
        <time>2018-08-08T13:48:58.000Z</time>
      </trkpt>
      <trkpt lat="42.6992" lon="0.66497">
        <ele>2020</ele>
        <time>2018-08-08T13:48:59.000Z</time>
      </trkpt>
      <trkpt lat="42.69921" lon="0.66498">
        <ele>2019.7</ele>
        <time>2018-08-08T13:49:00.000Z</time>
      </trkpt>
      <trkpt lat="42.69921" lon="0.66499">
        <ele>2019.5</ele>
        <time>2018-08-08T13:49:01.000Z</time>
      </trkpt>
      <trkpt lat="42.69921" lon="0.665">
        <ele>2019.2</ele>
        <time>2018-08-08T13:49:02.000Z</time>
      </trkpt>
      <trkpt lat="42.69921" lon="0.66501">
        <ele>2019.1</ele>
        <time>2018-08-08T13:49:03.000Z</time>
      </trkpt>
      <trkpt lat="42.69921" lon="0.66502">
        <ele>2018.9</ele>
        <time>2018-08-08T13:49:04.000Z</time>
      </trkpt>
      <trkpt lat="42.69922" lon="0.66504">
        <ele>2018.8</ele>
        <time>2018-08-08T13:49:05.000Z</time>
      </trkpt>
      <trkpt lat="42.69922" lon="0.66505">
        <ele>2018.7</ele>
        <time>2018-08-08T13:49:06.000Z</time>
      </trkpt>
      <trkpt lat="42.69922" lon="0.66506">
        <ele>2018.5</ele>
        <time>2018-08-08T13:49:07.000Z</time>
      </trkpt>
      <trkpt lat="42.69922" lon="0.66507">
        <ele>2018.4</ele>
        <time>2018-08-08T13:49:08.000Z</time>
      </trkpt>
      <trkpt lat="42.69922" lon="0.66508">
        <ele>2018.3</ele>
        <time>2018-08-08T13:49:09.000Z</time>
      </trkpt>
      <trkpt lat="42.69922" lon="0.66509">
        <ele>2018.2</ele>
        <time>2018-08-08T13:49:10.000Z</time>
      </trkpt>
      <trkpt lat="42.69922" lon="0.66511">
        <ele>2018.1</ele>
        <time>2018-08-08T13:49:11.000Z</time>
      </trkpt>
      <trkpt lat="42.69922" lon="0.66512">
        <ele>2017.9</ele>
        <time>2018-08-08T13:49:12.000Z</time>
      </trkpt>
      <trkpt lat="42.69922" lon="0.66513">
        <ele>2017.8</ele>
        <time>2018-08-08T13:49:13.000Z</time>
      </trkpt>
      <trkpt lat="42.69923" lon="0.66514">
        <ele>2017.6</ele>
        <time>2018-08-08T13:49:14.000Z</time>
      </trkpt>
      <trkpt lat="42.69923" lon="0.66515">
        <ele>2017.4</ele>
        <time>2018-08-08T13:49:15.000Z</time>
      </trkpt>
      <trkpt lat="42.69923" lon="0.66517">
        <ele>2017.2</ele>
        <time>2018-08-08T13:49:16.000Z</time>
      </trkpt>
      <trkpt lat="42.69923" lon="0.66518">
        <ele>2017</ele>
        <time>2018-08-08T13:49:17.000Z</time>
      </trkpt>
      <trkpt lat="42.69923" lon="0.66519">
        <ele>2016.9</ele>
        <time>2018-08-08T13:49:18.000Z</time>
      </trkpt>
      <trkpt lat="42.69924" lon="0.6652">
        <ele>2016.7</ele>
        <time>2018-08-08T13:49:19.000Z</time>
      </trkpt>
      <trkpt lat="42.69924" lon="0.66521">
        <ele>2016.6</ele>
        <time>2018-08-08T13:49:20.000Z</time>
      </trkpt>
      <trkpt lat="42.69924" lon="0.66523">
        <ele>2016.5</ele>
        <time>2018-08-08T13:49:21.000Z</time>
      </trkpt>
      <trkpt lat="42.69924" lon="0.66524">
        <ele>2016.5</ele>
        <time>2018-08-08T13:49:22.000Z</time>
      </trkpt>
      <trkpt lat="42.69923" lon="0.66525">
        <ele>2016.6</ele>
        <time>2018-08-08T13:49:23.000Z</time>
      </trkpt>
      <trkpt lat="42.69923" lon="0.66526">
        <ele>2016.8</ele>
        <time>2018-08-08T13:49:24.000Z</time>
      </trkpt>
      <trkpt lat="42.69923" lon="0.66527">
        <ele>2016.9</ele>
        <time>2018-08-08T13:49:25.000Z</time>
      </trkpt>
      <trkpt lat="42.69922" lon="0.66528">
        <ele>2017.1</ele>
        <time>2018-08-08T13:49:26.000Z</time>
      </trkpt>
      <trkpt lat="42.69922" lon="0.66528">
        <ele>2017.4</ele>
        <time>2018-08-08T13:49:27.000Z</time>
      </trkpt>
      <trkpt lat="42.69922" lon="0.66529">
        <ele>2017.6</ele>
        <time>2018-08-08T13:49:28.000Z</time>
      </trkpt>
      <trkpt lat="42.69921" lon="0.6653">
        <ele>2017.8</ele>
        <time>2018-08-08T13:49:29.000Z</time>
      </trkpt>
      <trkpt lat="42.69921" lon="0.66531">
        <ele>2017.9</ele>
        <time>2018-08-08T13:49:30.000Z</time>
      </trkpt>
      <trkpt lat="42.6992" lon="0.66532">
        <ele>2018.1</ele>
        <time>2018-08-08T13:49:31.000Z</time>
      </trkpt>
      <trkpt lat="42.6992" lon="0.66533">
        <ele>2018.2</ele>
        <time>2018-08-08T13:49:32.000Z</time>
      </trkpt>
      <trkpt lat="42.6992" lon="0.66534">
        <ele>2018.3</ele>
        <time>2018-08-08T13:49:33.000Z</time>
      </trkpt>
      <trkpt lat="42.6992" lon="0.66536">
        <ele>2018.4</ele>
        <time>2018-08-08T13:49:34.000Z</time>
      </trkpt>
      <trkpt lat="42.6992" lon="0.66537">
        <ele>2018.4</ele>
        <time>2018-08-08T13:49:35.000Z</time>
      </trkpt>
      <trkpt lat="42.69919" lon="0.66538">
        <ele>2018.5</ele>
        <time>2018-08-08T13:49:36.000Z</time>
      </trkpt>
      <trkpt lat="42.69919" lon="0.66539">
        <ele>2018.5</ele>
        <time>2018-08-08T13:49:37.000Z</time>
      </trkpt>
      <trkpt lat="42.69919" lon="0.6654">
        <ele>2018.5</ele>
        <time>2018-08-08T13:49:38.000Z</time>
      </trkpt>
      <trkpt lat="42.69919" lon="0.66541">
        <ele>2018.5</ele>
        <time>2018-08-08T13:49:39.000Z</time>
      </trkpt>
      <trkpt lat="42.69919" lon="0.66542">
        <ele>2018.6</ele>
        <time>2018-08-08T13:49:40.000Z</time>
      </trkpt>
      <trkpt lat="42.69919" lon="0.66543">
        <ele>2018.6</ele>
        <time>2018-08-08T13:49:41.000Z</time>
      </trkpt>
      <trkpt lat="42.69919" lon="0.66544">
        <ele>2018.6</ele>
        <time>2018-08-08T13:49:42.000Z</time>
      </trkpt>
      <trkpt lat="42.69919" lon="0.66545">
        <ele>2018.6</ele>
        <time>2018-08-08T13:49:43.000Z</time>
      </trkpt>
      <trkpt lat="42.69918" lon="0.66546">
        <ele>2018.7</ele>
        <time>2018-08-08T13:49:44.000Z</time>
      </trkpt>
      <trkpt lat="42.69918" lon="0.66547">
        <ele>2018.7</ele>
        <time>2018-08-08T13:49:45.000Z</time>
      </trkpt>
      <trkpt lat="42.69918" lon="0.66548">
        <ele>2018.7</ele>
        <time>2018-08-08T13:49:46.000Z</time>
      </trkpt>
      <trkpt lat="42.69918" lon="0.66549">
        <ele>2018.6</ele>
        <time>2018-08-08T13:49:47.000Z</time>
      </trkpt>
      <trkpt lat="42.69919" lon="0.6655">
        <ele>2018.4</ele>
        <time>2018-08-08T13:49:48.000Z</time>
      </trkpt>
      <trkpt lat="42.69919" lon="0.66551">
        <ele>2018.2</ele>
        <time>2018-08-08T13:49:49.000Z</time>
      </trkpt>
      <trkpt lat="42.69919" lon="0.66552">
        <ele>2017.9</ele>
        <time>2018-08-08T13:49:50.000Z</time>
      </trkpt>
      <trkpt lat="42.6992" lon="0.66553">
        <ele>2017.7</ele>
        <time>2018-08-08T13:49:51.000Z</time>
      </trkpt>
      <trkpt lat="42.6992" lon="0.66554">
        <ele>2017.4</ele>
        <time>2018-08-08T13:49:52.000Z</time>
      </trkpt>
      <trkpt lat="42.6992" lon="0.66556">
        <ele>2017.3</ele>
        <time>2018-08-08T13:49:53.000Z</time>
      </trkpt>
      <trkpt lat="42.6992" lon="0.66557">
        <ele>2017.3</ele>
        <time>2018-08-08T13:49:54.000Z</time>
      </trkpt>
      <trkpt lat="42.6992" lon="0.66559">
        <ele>2017.3</ele>
        <time>2018-08-08T13:49:55.000Z</time>
      </trkpt>
      <trkpt lat="42.69919" lon="0.66559">
        <ele>2017.6</ele>
        <time>2018-08-08T13:49:56.000Z</time>
      </trkpt>
      <trkpt lat="42.69919" lon="0.6656">
        <ele>2017.9</ele>
        <time>2018-08-08T13:49:57.000Z</time>
      </trkpt>
      <trkpt lat="42.69918" lon="0.6656">
        <ele>2018.2</ele>
        <time>2018-08-08T13:49:58.000Z</time>
      </trkpt>
      <trkpt lat="42.69918" lon="0.6656">
        <ele>2018.4</ele>
        <time>2018-08-08T13:49:59.000Z</time>
      </trkpt>
      <trkpt lat="42.69918" lon="0.66561">
        <ele>2018.6</ele>
        <time>2018-08-08T13:50:00.000Z</time>
      </trkpt>
      <trkpt lat="42.69917" lon="0.66561">
        <ele>2018.6</ele>
        <time>2018-08-08T13:50:01.000Z</time>
      </trkpt>
      <trkpt lat="42.69917" lon="0.66562">
        <ele>2018.6</ele>
        <time>2018-08-08T13:50:02.000Z</time>
      </trkpt>
      <trkpt lat="42.69917" lon="0.66562">
        <ele>2018.7</ele>
        <time>2018-08-08T13:50:03.000Z</time>
      </trkpt>
      <trkpt lat="42.69917" lon="0.66563">
        <ele>2018.6</ele>
        <time>2018-08-08T13:50:04.000Z</time>
      </trkpt>
      <trkpt lat="42.69917" lon="0.66564">
        <ele>2018.6</ele>
        <time>2018-08-08T13:50:05.000Z</time>
      </trkpt>
      <trkpt lat="42.69917" lon="0.66565">
        <ele>2018.6</ele>
        <time>2018-08-08T13:50:06.000Z</time>
      </trkpt>
      <trkpt lat="42.69917" lon="0.66566">
        <ele>2018.6</ele>
        <time>2018-08-08T13:50:07.000Z</time>
      </trkpt>
      <trkpt lat="42.69917" lon="0.66566">
        <ele>2018.5</ele>
        <time>2018-08-08T13:50:08.000Z</time>
      </trkpt>
      <trkpt lat="42.69917" lon="0.66567">
        <ele>2018.6</ele>
        <time>2018-08-08T13:50:09.000Z</time>
      </trkpt>
      <trkpt lat="42.69917" lon="0.66568">
        <ele>2018.6</ele>
        <time>2018-08-08T13:50:10.000Z</time>
      </trkpt>
      <trkpt lat="42.69917" lon="0.66569">
        <ele>2018.7</ele>
        <time>2018-08-08T13:50:11.000Z</time>
      </trkpt>
      <trkpt lat="42.69916" lon="0.6657">
        <ele>2018.8</ele>
        <time>2018-08-08T13:50:12.000Z</time>
      </trkpt>
      <trkpt lat="42.69916" lon="0.66571">
        <ele>2018.9</ele>
        <time>2018-08-08T13:50:13.000Z</time>
      </trkpt>
      <trkpt lat="42.69916" lon="0.66572">
        <ele>2019</ele>
        <time>2018-08-08T13:50:14.000Z</time>
      </trkpt>
      <trkpt lat="42.69916" lon="0.66573">
        <ele>2019.1</ele>
        <time>2018-08-08T13:50:15.000Z</time>
      </trkpt>
      <trkpt lat="42.69915" lon="0.66574">
        <ele>2019.2</ele>
        <time>2018-08-08T13:50:16.000Z</time>
      </trkpt>
      <trkpt lat="42.69915" lon="0.66575">
        <ele>2019.4</ele>
        <time>2018-08-08T13:50:17.000Z</time>
      </trkpt>
      <trkpt lat="42.69915" lon="0.66576">
        <ele>2019.4</ele>
        <time>2018-08-08T13:50:18.000Z</time>
      </trkpt>
      <trkpt lat="42.69915" lon="0.66577">
        <ele>2019.5</ele>
        <time>2018-08-08T13:50:19.000Z</time>
      </trkpt>
      <trkpt lat="42.69915" lon="0.66578">
        <ele>2019.4</ele>
        <time>2018-08-08T13:50:20.000Z</time>
      </trkpt>
      <trkpt lat="42.69915" lon="0.66579">
        <ele>2019.4</ele>
        <time>2018-08-08T13:50:21.000Z</time>
      </trkpt>
      <trkpt lat="42.69915" lon="0.6658">
        <ele>2019.3</ele>
        <time>2018-08-08T13:50:22.000Z</time>
      </trkpt>
      <trkpt lat="42.69915" lon="0.66581">
        <ele>2019.2</ele>
        <time>2018-08-08T13:50:23.000Z</time>
      </trkpt>
      <trkpt lat="42.69915" lon="0.66582">
        <ele>2019.2</ele>
        <time>2018-08-08T13:50:24.000Z</time>
      </trkpt>
      <trkpt lat="42.69915" lon="0.66584">
        <ele>2019.1</ele>
        <time>2018-08-08T13:50:25.000Z</time>
      </trkpt>
      <trkpt lat="42.69915" lon="0.66585">
        <ele>2019.3</ele>
        <time>2018-08-08T13:50:26.000Z</time>
      </trkpt>
      <trkpt lat="42.69914" lon="0.66586">
        <ele>2019.5</ele>
        <time>2018-08-08T13:50:27.000Z</time>
      </trkpt>
      <trkpt lat="42.69914" lon="0.66587">
        <ele>2019.8</ele>
        <time>2018-08-08T13:50:28.000Z</time>
      </trkpt>
      <trkpt lat="42.69914" lon="0.66588">
        <ele>2020.2</ele>
        <time>2018-08-08T13:50:29.000Z</time>
      </trkpt>
      <trkpt lat="42.69913" lon="0.66589">
        <ele>2020.5</ele>
        <time>2018-08-08T13:50:30.000Z</time>
      </trkpt>
      <trkpt lat="42.69913" lon="0.6659">
        <ele>2020.8</ele>
        <time>2018-08-08T13:50:31.000Z</time>
      </trkpt>
      <trkpt lat="42.69913" lon="0.66591">
        <ele>2021</ele>
        <time>2018-08-08T13:50:32.000Z</time>
      </trkpt>
      <trkpt lat="42.69912" lon="0.66592">
        <ele>2021.3</ele>
        <time>2018-08-08T13:50:33.000Z</time>
      </trkpt>
      <trkpt lat="42.69912" lon="0.66592">
        <ele>2021.5</ele>
        <time>2018-08-08T13:50:34.000Z</time>
      </trkpt>
      <trkpt lat="42.69912" lon="0.66592">
        <ele>2021.6</ele>
        <time>2018-08-08T13:50:35.000Z</time>
      </trkpt>
      <trkpt lat="42.69912" lon="0.66593">
        <ele>2021.6</ele>
        <time>2018-08-08T13:50:36.000Z</time>
      </trkpt>
      <trkpt lat="42.69912" lon="0.66593">
        <ele>2021.6</ele>
        <time>2018-08-08T13:50:37.000Z</time>
      </trkpt>
      <trkpt lat="42.69912" lon="0.66593">
        <ele>2021.6</ele>
        <time>2018-08-08T13:50:38.000Z</time>
      </trkpt>
      <trkpt lat="42.69912" lon="0.66593">
        <ele>2021.6</ele>
        <time>2018-08-08T13:50:39.000Z</time>
      </trkpt>
      <trkpt lat="42.69912" lon="0.66593">
        <ele>2021.6</ele>
        <time>2018-08-08T13:50:40.000Z</time>
      </trkpt>
      <trkpt lat="42.69912" lon="0.66593">
        <ele>2021.6</ele>
        <time>2018-08-08T13:50:41.000Z</time>
      </trkpt>
      <trkpt lat="42.69912" lon="0.66593">
        <ele>2021.8</ele>
        <time>2018-08-08T13:50:42.000Z</time>
      </trkpt>
      <trkpt lat="42.69911" lon="0.66593">
        <ele>2021.9</ele>
        <time>2018-08-08T13:50:43.000Z</time>
      </trkpt>
      <trkpt lat="42.69911" lon="0.66594">
        <ele>2022.1</ele>
        <time>2018-08-08T13:50:44.000Z</time>
      </trkpt>
      <trkpt lat="42.69911" lon="0.66594">
        <ele>2022.4</ele>
        <time>2018-08-08T13:50:45.000Z</time>
      </trkpt>
      <trkpt lat="42.6991" lon="0.66595">
        <ele>2022.8</ele>
        <time>2018-08-08T13:50:46.000Z</time>
      </trkpt>
      <trkpt lat="42.69909" lon="0.66596">
        <ele>2023.2</ele>
        <time>2018-08-08T13:50:47.000Z</time>
      </trkpt>
      <trkpt lat="42.69909" lon="0.66597">
        <ele>2023.6</ele>
        <time>2018-08-08T13:50:48.000Z</time>
      </trkpt>
      <trkpt lat="42.69908" lon="0.66598">
        <ele>2024</ele>
        <time>2018-08-08T13:50:49.000Z</time>
      </trkpt>
      <trkpt lat="42.69908" lon="0.66599">
        <ele>2024.2</ele>
        <time>2018-08-08T13:50:50.000Z</time>
      </trkpt>
      <trkpt lat="42.69908" lon="0.666">
        <ele>2024.4</ele>
        <time>2018-08-08T13:50:51.000Z</time>
      </trkpt>
      <trkpt lat="42.69908" lon="0.66602">
        <ele>2024.6</ele>
        <time>2018-08-08T13:50:52.000Z</time>
      </trkpt>
      <trkpt lat="42.69908" lon="0.66603">
        <ele>2024.7</ele>
        <time>2018-08-08T13:50:53.000Z</time>
      </trkpt>
      <trkpt lat="42.69908" lon="0.66604">
        <ele>2024.8</ele>
        <time>2018-08-08T13:50:54.000Z</time>
      </trkpt>
      <trkpt lat="42.69908" lon="0.66605">
        <ele>2024.9</ele>
        <time>2018-08-08T13:50:55.000Z</time>
      </trkpt>
      <trkpt lat="42.69908" lon="0.66607">
        <ele>2025</ele>
        <time>2018-08-08T13:50:56.000Z</time>
      </trkpt>
      <trkpt lat="42.69908" lon="0.66608">
        <ele>2025</ele>
        <time>2018-08-08T13:50:57.000Z</time>
      </trkpt>
      <trkpt lat="42.69908" lon="0.66609">
        <ele>2025.1</ele>
        <time>2018-08-08T13:50:58.000Z</time>
      </trkpt>
      <trkpt lat="42.69908" lon="0.66611">
        <ele>2025.1</ele>
        <time>2018-08-08T13:50:59.000Z</time>
      </trkpt>
      <trkpt lat="42.69908" lon="0.66612">
        <ele>2025.2</ele>
        <time>2018-08-08T13:51:00.000Z</time>
      </trkpt>
      <trkpt lat="42.69908" lon="0.66613">
        <ele>2025.2</ele>
        <time>2018-08-08T13:51:01.000Z</time>
      </trkpt>
      <trkpt lat="42.69909" lon="0.66615">
        <ele>2025.2</ele>
        <time>2018-08-08T13:51:02.000Z</time>
      </trkpt>
      <trkpt lat="42.69909" lon="0.66616">
        <ele>2025.3</ele>
        <time>2018-08-08T13:51:03.000Z</time>
      </trkpt>
      <trkpt lat="42.69909" lon="0.66618">
        <ele>2025.3</ele>
        <time>2018-08-08T13:51:04.000Z</time>
      </trkpt>
      <trkpt lat="42.69909" lon="0.66619">
        <ele>2025.4</ele>
        <time>2018-08-08T13:51:05.000Z</time>
      </trkpt>
      <trkpt lat="42.69909" lon="0.6662">
        <ele>2025.5</ele>
        <time>2018-08-08T13:51:06.000Z</time>
      </trkpt>
      <trkpt lat="42.69909" lon="0.66622">
        <ele>2025.6</ele>
        <time>2018-08-08T13:51:07.000Z</time>
      </trkpt>
      <trkpt lat="42.69909" lon="0.66623">
        <ele>2025.7</ele>
        <time>2018-08-08T13:51:08.000Z</time>
      </trkpt>
      <trkpt lat="42.69909" lon="0.66625">
        <ele>2025.8</ele>
        <time>2018-08-08T13:51:09.000Z</time>
      </trkpt>
      <trkpt lat="42.69909" lon="0.66626">
        <ele>2026</ele>
        <time>2018-08-08T13:51:10.000Z</time>
      </trkpt>
      <trkpt lat="42.69909" lon="0.66627">
        <ele>2026.1</ele>
        <time>2018-08-08T13:51:11.000Z</time>
      </trkpt>
      <trkpt lat="42.69909" lon="0.66629">
        <ele>2026.3</ele>
        <time>2018-08-08T13:51:12.000Z</time>
      </trkpt>
      <trkpt lat="42.69909" lon="0.6663">
        <ele>2026.5</ele>
        <time>2018-08-08T13:51:13.000Z</time>
      </trkpt>
      <trkpt lat="42.69909" lon="0.66632">
        <ele>2026.6</ele>
        <time>2018-08-08T13:51:14.000Z</time>
      </trkpt>
      <trkpt lat="42.69909" lon="0.66633">
        <ele>2026.7</ele>
        <time>2018-08-08T13:51:15.000Z</time>
      </trkpt>
      <trkpt lat="42.69909" lon="0.66635">
        <ele>2026.8</ele>
        <time>2018-08-08T13:51:16.000Z</time>
      </trkpt>
      <trkpt lat="42.69909" lon="0.66636">
        <ele>2026.9</ele>
        <time>2018-08-08T13:51:17.000Z</time>
      </trkpt>
      <trkpt lat="42.69909" lon="0.66638">
        <ele>2026.9</ele>
        <time>2018-08-08T13:51:18.000Z</time>
      </trkpt>
      <trkpt lat="42.6991" lon="0.66639">
        <ele>2026.8</ele>
        <time>2018-08-08T13:51:19.000Z</time>
      </trkpt>
      <trkpt lat="42.6991" lon="0.66641">
        <ele>2026.7</ele>
        <time>2018-08-08T13:51:20.000Z</time>
      </trkpt>
      <trkpt lat="42.6991" lon="0.66642">
        <ele>2026.7</ele>
        <time>2018-08-08T13:51:21.000Z</time>
      </trkpt>
      <trkpt lat="42.69911" lon="0.66644">
        <ele>2026.7</ele>
        <time>2018-08-08T13:51:22.000Z</time>
      </trkpt>
      <trkpt lat="42.69911" lon="0.66645">
        <ele>2026.6</ele>
        <time>2018-08-08T13:51:23.000Z</time>
      </trkpt>
      <trkpt lat="42.69911" lon="0.66647">
        <ele>2026.7</ele>
        <time>2018-08-08T13:51:24.000Z</time>
      </trkpt>
      <trkpt lat="42.69911" lon="0.66648">
        <ele>2026.8</ele>
        <time>2018-08-08T13:51:25.000Z</time>
      </trkpt>
      <trkpt lat="42.69911" lon="0.66649">
        <ele>2027</ele>
        <time>2018-08-08T13:51:26.000Z</time>
      </trkpt>
      <trkpt lat="42.69911" lon="0.6665">
        <ele>2027.1</ele>
        <time>2018-08-08T13:51:27.000Z</time>
      </trkpt>
      <trkpt lat="42.69911" lon="0.66651">
        <ele>2027.3</ele>
        <time>2018-08-08T13:51:28.000Z</time>
      </trkpt>
      <trkpt lat="42.69911" lon="0.66652">
        <ele>2027.3</ele>
        <time>2018-08-08T13:51:29.000Z</time>
      </trkpt>
      <trkpt lat="42.69911" lon="0.66652">
        <ele>2027.4</ele>
        <time>2018-08-08T13:51:30.000Z</time>
      </trkpt>
      <trkpt lat="42.69911" lon="0.66652">
        <ele>2027.4</ele>
        <time>2018-08-08T13:51:31.000Z</time>
      </trkpt>
      <trkpt lat="42.69911" lon="0.66653">
        <ele>2027.4</ele>
        <time>2018-08-08T13:51:32.000Z</time>
      </trkpt>
      <trkpt lat="42.69911" lon="0.66654">
        <ele>2027.6</ele>
        <time>2018-08-08T13:51:33.000Z</time>
      </trkpt>
      <trkpt lat="42.69911" lon="0.66655">
        <ele>2027.7</ele>
        <time>2018-08-08T13:51:34.000Z</time>
      </trkpt>
      <trkpt lat="42.6991" lon="0.66656">
        <ele>2027.9</ele>
        <time>2018-08-08T13:51:35.000Z</time>
      </trkpt>
      <trkpt lat="42.6991" lon="0.66658">
        <ele>2028.1</ele>
        <time>2018-08-08T13:51:36.000Z</time>
      </trkpt>
      <trkpt lat="42.6991" lon="0.66659">
        <ele>2028.3</ele>
        <time>2018-08-08T13:51:37.000Z</time>
      </trkpt>
      <trkpt lat="42.6991" lon="0.6666">
        <ele>2028.3</ele>
        <time>2018-08-08T13:51:38.000Z</time>
      </trkpt>
      <trkpt lat="42.6991" lon="0.6666">
        <ele>2028.4</ele>
        <time>2018-08-08T13:51:39.000Z</time>
      </trkpt>
      <trkpt lat="42.6991" lon="0.66661">
        <ele>2028.5</ele>
        <time>2018-08-08T13:51:40.000Z</time>
      </trkpt>
      <trkpt lat="42.6991" lon="0.66662">
        <ele>2028.5</ele>
        <time>2018-08-08T13:51:41.000Z</time>
      </trkpt>
      <trkpt lat="42.6991" lon="0.66663">
        <ele>2028.5</ele>
        <time>2018-08-08T13:51:42.000Z</time>
      </trkpt>
      <trkpt lat="42.6991" lon="0.66664">
        <ele>2028.6</ele>
        <time>2018-08-08T13:51:43.000Z</time>
      </trkpt>
      <trkpt lat="42.69911" lon="0.66665">
        <ele>2028.5</ele>
        <time>2018-08-08T13:51:44.000Z</time>
      </trkpt>
      <trkpt lat="42.69911" lon="0.66665">
        <ele>2028.5</ele>
        <time>2018-08-08T13:51:45.000Z</time>
      </trkpt>
      <trkpt lat="42.69911" lon="0.66666">
        <ele>2028.5</ele>
        <time>2018-08-08T13:51:46.000Z</time>
      </trkpt>
      <trkpt lat="42.69911" lon="0.66667">
        <ele>2028.5</ele>
        <time>2018-08-08T13:51:47.000Z</time>
      </trkpt>
      <trkpt lat="42.69911" lon="0.66668">
        <ele>2028.4</ele>
        <time>2018-08-08T13:51:48.000Z</time>
      </trkpt>
      <trkpt lat="42.69912" lon="0.66668">
        <ele>2028.3</ele>
        <time>2018-08-08T13:51:49.000Z</time>
      </trkpt>
      <trkpt lat="42.69912" lon="0.66669">
        <ele>2028.2</ele>
        <time>2018-08-08T13:51:50.000Z</time>
      </trkpt>
      <trkpt lat="42.69912" lon="0.6667">
        <ele>2028.1</ele>
        <time>2018-08-08T13:51:51.000Z</time>
      </trkpt>
      <trkpt lat="42.69912" lon="0.66671">
        <ele>2028</ele>
        <time>2018-08-08T13:51:52.000Z</time>
      </trkpt>
      <trkpt lat="42.69913" lon="0.66671">
        <ele>2027.9</ele>
        <time>2018-08-08T13:51:53.000Z</time>
      </trkpt>
      <trkpt lat="42.69913" lon="0.66672">
        <ele>2027.8</ele>
        <time>2018-08-08T13:51:54.000Z</time>
      </trkpt>
      <trkpt lat="42.69913" lon="0.66673">
        <ele>2027.7</ele>
        <time>2018-08-08T13:51:55.000Z</time>
      </trkpt>
      <trkpt lat="42.69913" lon="0.66673">
        <ele>2027.7</ele>
        <time>2018-08-08T13:51:56.000Z</time>
      </trkpt>
      <trkpt lat="42.69913" lon="0.66673">
        <ele>2027.6</ele>
        <time>2018-08-08T13:51:57.000Z</time>
      </trkpt>
      <trkpt lat="42.69913" lon="0.66674">
        <ele>2027.5</ele>
        <time>2018-08-08T13:51:58.000Z</time>
      </trkpt>
      <trkpt lat="42.69913" lon="0.66674">
        <ele>2027.5</ele>
        <time>2018-08-08T13:51:59.000Z</time>
      </trkpt>
      <trkpt lat="42.69914" lon="0.66674">
        <ele>2027.5</ele>
        <time>2018-08-08T13:52:00.000Z</time>
      </trkpt>
      <trkpt lat="42.69914" lon="0.66674">
        <ele>2027.5</ele>
        <time>2018-08-08T13:52:01.000Z</time>
      </trkpt>
      <trkpt lat="42.69914" lon="0.66675">
        <ele>2027.5</ele>
        <time>2018-08-08T13:52:02.000Z</time>
      </trkpt>
      <trkpt lat="42.69913" lon="0.66675">
        <ele>2027.5</ele>
        <time>2018-08-08T13:52:03.000Z</time>
      </trkpt>
      <trkpt lat="42.69913" lon="0.66675">
        <ele>2027.5</ele>
        <time>2018-08-08T13:52:04.000Z</time>
      </trkpt>
      <trkpt lat="42.69913" lon="0.66675">
        <ele>2027.5</ele>
        <time>2018-08-08T13:52:05.000Z</time>
      </trkpt>
      <trkpt lat="42.69913" lon="0.66675">
        <ele>2027.5</ele>
        <time>2018-08-08T13:52:06.000Z</time>
      </trkpt>
      <trkpt lat="42.69913" lon="0.66676">
        <ele>2027.5</ele>
        <time>2018-08-08T13:52:07.000Z</time>
      </trkpt>
      <trkpt lat="42.69914" lon="0.66676">
        <ele>2027.5</ele>
        <time>2018-08-08T13:52:08.000Z</time>
      </trkpt>
      <trkpt lat="42.69914" lon="0.66677">
        <ele>2027.4</ele>
        <time>2018-08-08T13:52:09.000Z</time>
      </trkpt>
      <trkpt lat="42.69914" lon="0.66678">
        <ele>2027.4</ele>
        <time>2018-08-08T13:52:10.000Z</time>
      </trkpt>
      <trkpt lat="42.69914" lon="0.66678">
        <ele>2027.4</ele>
        <time>2018-08-08T13:52:11.000Z</time>
      </trkpt>
      <trkpt lat="42.69914" lon="0.66678">
        <ele>2027.4</ele>
        <time>2018-08-08T13:52:12.000Z</time>
      </trkpt>
      <trkpt lat="42.69914" lon="0.66678">
        <ele>2027.4</ele>
        <time>2018-08-08T13:52:13.000Z</time>
      </trkpt>
      <trkpt lat="42.69914" lon="0.66679">
        <ele>2027.3</ele>
        <time>2018-08-08T13:52:14.000Z</time>
      </trkpt>
      <trkpt lat="42.69914" lon="0.66679">
        <ele>2027.3</ele>
        <time>2018-08-08T13:52:15.000Z</time>
      </trkpt>
      <trkpt lat="42.69914" lon="0.66679">
        <ele>2027.3</ele>
        <time>2018-08-08T13:52:16.000Z</time>
      </trkpt>
      <trkpt lat="42.69914" lon="0.6668">
        <ele>2027.2</ele>
        <time>2018-08-08T13:52:17.000Z</time>
      </trkpt>
      <trkpt lat="42.69914" lon="0.6668">
        <ele>2027.3</ele>
        <time>2018-08-08T13:52:18.000Z</time>
      </trkpt>
      <trkpt lat="42.69914" lon="0.66681">
        <ele>2027.5</ele>
        <time>2018-08-08T13:52:19.000Z</time>
      </trkpt>
      <trkpt lat="42.69913" lon="0.66682">
        <ele>2027.5</ele>
        <time>2018-08-08T13:52:20.000Z</time>
      </trkpt>
      <trkpt lat="42.69913" lon="0.66682">
        <ele>2027.6</ele>
        <time>2018-08-08T13:52:21.000Z</time>
      </trkpt>
      <trkpt lat="42.69913" lon="0.66682">
        <ele>2027.5</ele>
        <time>2018-08-08T13:52:22.000Z</time>
      </trkpt>
      <trkpt lat="42.69913" lon="0.66682">
        <ele>2027.5</ele>
        <time>2018-08-08T13:52:23.000Z</time>
      </trkpt>
      <trkpt lat="42.69913" lon="0.66682">
        <ele>2027.6</ele>
        <time>2018-08-08T13:52:24.000Z</time>
      </trkpt>
      <trkpt lat="42.69913" lon="0.66682">
        <ele>2027.6</ele>
        <time>2018-08-08T13:52:25.000Z</time>
      </trkpt>
      <trkpt lat="42.69913" lon="0.66682">
        <ele>2027.6</ele>
        <time>2018-08-08T13:52:26.000Z</time>
      </trkpt>
      <trkpt lat="42.69913" lon="0.66682">
        <ele>2027.7</ele>
        <time>2018-08-08T13:52:27.000Z</time>
      </trkpt>
      <trkpt lat="42.69913" lon="0.66682">
        <ele>2027.7</ele>
        <time>2018-08-08T13:52:28.000Z</time>
      </trkpt>
      <trkpt lat="42.69913" lon="0.66682">
        <ele>2027.7</ele>
        <time>2018-08-08T13:52:29.000Z</time>
      </trkpt>
      <trkpt lat="42.69913" lon="0.66682">
        <ele>2027.8</ele>
        <time>2018-08-08T13:52:30.000Z</time>
      </trkpt>
      <trkpt lat="42.69913" lon="0.66682">
        <ele>2027.8</ele>
        <time>2018-08-08T13:52:31.000Z</time>
      </trkpt>
      <trkpt lat="42.69913" lon="0.66682">
        <ele>2027.8</ele>
        <time>2018-08-08T13:52:32.000Z</time>
      </trkpt>
      <trkpt lat="42.69913" lon="0.66682">
        <ele>2027.9</ele>
        <time>2018-08-08T13:52:33.000Z</time>
      </trkpt>
      <trkpt lat="42.69913" lon="0.66682">
        <ele>2027.9</ele>
        <time>2018-08-08T13:52:34.000Z</time>
      </trkpt>
      <trkpt lat="42.69913" lon="0.66682">
        <ele>2027.9</ele>
        <time>2018-08-08T13:52:35.000Z</time>
      </trkpt>
      <trkpt lat="42.69913" lon="0.66682">
        <ele>2027.9</ele>
        <time>2018-08-08T13:52:36.000Z</time>
      </trkpt>
      <trkpt lat="42.69913" lon="0.66682">
        <ele>2027.9</ele>
        <time>2018-08-08T13:52:37.000Z</time>
      </trkpt>
      <trkpt lat="42.69912" lon="0.66682">
        <ele>2028</ele>
        <time>2018-08-08T13:52:38.000Z</time>
      </trkpt>
      <trkpt lat="42.69912" lon="0.66682">
        <ele>2028</ele>
        <time>2018-08-08T13:52:39.000Z</time>
      </trkpt>
      <trkpt lat="42.69912" lon="0.66683">
        <ele>2028.2</ele>
        <time>2018-08-08T13:52:40.000Z</time>
      </trkpt>
      <trkpt lat="42.69911" lon="0.66682">
        <ele>2028.5</ele>
        <time>2018-08-08T13:52:41.000Z</time>
      </trkpt>
      <trkpt lat="42.69911" lon="0.66682">
        <ele>2028.8</ele>
        <time>2018-08-08T13:52:42.000Z</time>
      </trkpt>
      <trkpt lat="42.6991" lon="0.66682">
        <ele>2029</ele>
        <time>2018-08-08T13:52:43.000Z</time>
      </trkpt>
      <trkpt lat="42.69909" lon="0.66682">
        <ele>2029.2</ele>
        <time>2018-08-08T13:52:44.000Z</time>
      </trkpt>
      <trkpt lat="42.69909" lon="0.66682">
        <ele>2029.5</ele>
        <time>2018-08-08T13:52:45.000Z</time>
      </trkpt>
      <trkpt lat="42.69908" lon="0.66682">
        <ele>2029.8</ele>
        <time>2018-08-08T13:52:46.000Z</time>
      </trkpt>
      <trkpt lat="42.69908" lon="0.66682">
        <ele>2030</ele>
        <time>2018-08-08T13:52:47.000Z</time>
      </trkpt>
      <trkpt lat="42.69907" lon="0.66682">
        <ele>2030.3</ele>
        <time>2018-08-08T13:52:48.000Z</time>
      </trkpt>
      <trkpt lat="42.69906" lon="0.66681">
        <ele>2030.6</ele>
        <time>2018-08-08T13:52:49.000Z</time>
      </trkpt>
      <trkpt lat="42.69906" lon="0.66681">
        <ele>2030.8</ele>
        <time>2018-08-08T13:52:50.000Z</time>
      </trkpt>
      <trkpt lat="42.69905" lon="0.66681">
        <ele>2031</ele>
        <time>2018-08-08T13:52:51.000Z</time>
      </trkpt>
      <trkpt lat="42.69905" lon="0.66681">
        <ele>2031.1</ele>
        <time>2018-08-08T13:52:52.000Z</time>
      </trkpt>
      <trkpt lat="42.69905" lon="0.66681">
        <ele>2031.3</ele>
        <time>2018-08-08T13:52:53.000Z</time>
      </trkpt>
      <trkpt lat="42.69904" lon="0.6668">
        <ele>2031.4</ele>
        <time>2018-08-08T13:52:54.000Z</time>
      </trkpt>
      <trkpt lat="42.69904" lon="0.6668">
        <ele>2031.5</ele>
        <time>2018-08-08T13:52:55.000Z</time>
      </trkpt>
      <trkpt lat="42.69904" lon="0.6668">
        <ele>2031.5</ele>
        <time>2018-08-08T13:52:56.000Z</time>
      </trkpt>
      <trkpt lat="42.69904" lon="0.6668">
        <ele>2031.6</ele>
        <time>2018-08-08T13:52:57.000Z</time>
      </trkpt>
      <trkpt lat="42.69904" lon="0.6668">
        <ele>2031.7</ele>
        <time>2018-08-08T13:52:58.000Z</time>
      </trkpt>
      <trkpt lat="42.69903" lon="0.6668">
        <ele>2031.7</ele>
        <time>2018-08-08T13:52:59.000Z</time>
      </trkpt>
      <trkpt lat="42.69903" lon="0.6668">
        <ele>2031.8</ele>
        <time>2018-08-08T13:53:00.000Z</time>
      </trkpt>
      <trkpt lat="42.69903" lon="0.6668">
        <ele>2031.9</ele>
        <time>2018-08-08T13:53:01.000Z</time>
      </trkpt>
      <trkpt lat="42.69903" lon="0.6668">
        <ele>2032</ele>
        <time>2018-08-08T13:53:02.000Z</time>
      </trkpt>
      <trkpt lat="42.69902" lon="0.6668">
        <ele>2032.2</ele>
        <time>2018-08-08T13:53:03.000Z</time>
      </trkpt>
      <trkpt lat="42.69902" lon="0.6668">
        <ele>2032.3</ele>
        <time>2018-08-08T13:53:04.000Z</time>
      </trkpt>
      <trkpt lat="42.69901" lon="0.66681">
        <ele>2032.7</ele>
        <time>2018-08-08T13:53:05.000Z</time>
      </trkpt>
      <trkpt lat="42.69901" lon="0.66682">
        <ele>2032.9</ele>
        <time>2018-08-08T13:53:06.000Z</time>
      </trkpt>
      <trkpt lat="42.699" lon="0.66682">
        <ele>2033</ele>
        <time>2018-08-08T13:53:07.000Z</time>
      </trkpt>
      <trkpt lat="42.699" lon="0.66683">
        <ele>2033.1</ele>
        <time>2018-08-08T13:53:08.000Z</time>
      </trkpt>
      <trkpt lat="42.699" lon="0.66684">
        <ele>2033.1</ele>
        <time>2018-08-08T13:53:09.000Z</time>
      </trkpt>
      <trkpt lat="42.699" lon="0.66685">
        <ele>2033.1</ele>
        <time>2018-08-08T13:53:10.000Z</time>
      </trkpt>
      <trkpt lat="42.699" lon="0.66686">
        <ele>2033.1</ele>
        <time>2018-08-08T13:53:11.000Z</time>
      </trkpt>
      <trkpt lat="42.699" lon="0.66687">
        <ele>2033.1</ele>
        <time>2018-08-08T13:53:12.000Z</time>
      </trkpt>
      <trkpt lat="42.699" lon="0.66688">
        <ele>2033</ele>
        <time>2018-08-08T13:53:13.000Z</time>
      </trkpt>
      <trkpt lat="42.699" lon="0.66689">
        <ele>2033</ele>
        <time>2018-08-08T13:53:14.000Z</time>
      </trkpt>
      <trkpt lat="42.699" lon="0.6669">
        <ele>2033</ele>
        <time>2018-08-08T13:53:15.000Z</time>
      </trkpt>
      <trkpt lat="42.699" lon="0.66691">
        <ele>2032.9</ele>
        <time>2018-08-08T13:53:16.000Z</time>
      </trkpt>
      <trkpt lat="42.699" lon="0.66692">
        <ele>2032.9</ele>
        <time>2018-08-08T13:53:17.000Z</time>
      </trkpt>
      <trkpt lat="42.699" lon="0.66693">
        <ele>2032.8</ele>
        <time>2018-08-08T13:53:18.000Z</time>
      </trkpt>
      <trkpt lat="42.699" lon="0.66693">
        <ele>2032.8</ele>
        <time>2018-08-08T13:53:19.000Z</time>
      </trkpt>
      <trkpt lat="42.699" lon="0.66694">
        <ele>2032.8</ele>
        <time>2018-08-08T13:53:20.000Z</time>
      </trkpt>
      <trkpt lat="42.69901" lon="0.66694">
        <ele>2032.7</ele>
        <time>2018-08-08T13:53:21.000Z</time>
      </trkpt>
      <trkpt lat="42.69901" lon="0.66694">
        <ele>2032.7</ele>
        <time>2018-08-08T13:53:22.000Z</time>
      </trkpt>
      <trkpt lat="42.69901" lon="0.66694">
        <ele>2032.7</ele>
        <time>2018-08-08T13:53:23.000Z</time>
      </trkpt>
      <trkpt lat="42.69901" lon="0.66694">
        <ele>2032.7</ele>
        <time>2018-08-08T13:53:24.000Z</time>
      </trkpt>
      <trkpt lat="42.69901" lon="0.66694">
        <ele>2032.7</ele>
        <time>2018-08-08T13:53:25.000Z</time>
      </trkpt>
      <trkpt lat="42.69901" lon="0.66694">
        <ele>2032.7</ele>
        <time>2018-08-08T13:53:26.000Z</time>
      </trkpt>
      <trkpt lat="42.69901" lon="0.66694">
        <ele>2032.7</ele>
        <time>2018-08-08T13:53:27.000Z</time>
      </trkpt>
      <trkpt lat="42.69901" lon="0.66694">
        <ele>2032.7</ele>
        <time>2018-08-08T13:53:28.000Z</time>
      </trkpt>
      <trkpt lat="42.69901" lon="0.66694">
        <ele>2032.7</ele>
        <time>2018-08-08T13:53:29.000Z</time>
      </trkpt>
      <trkpt lat="42.69901" lon="0.66695">
        <ele>2032.7</ele>
        <time>2018-08-08T13:53:30.000Z</time>
      </trkpt>
      <trkpt lat="42.69901" lon="0.66695">
        <ele>2032.7</ele>
        <time>2018-08-08T13:53:31.000Z</time>
      </trkpt>
      <trkpt lat="42.69901" lon="0.66696">
        <ele>2032.7</ele>
        <time>2018-08-08T13:53:32.000Z</time>
      </trkpt>
      <trkpt lat="42.69901" lon="0.66697">
        <ele>2032.7</ele>
        <time>2018-08-08T13:53:33.000Z</time>
      </trkpt>
      <trkpt lat="42.69901" lon="0.66698">
        <ele>2032.6</ele>
        <time>2018-08-08T13:53:34.000Z</time>
      </trkpt>
      <trkpt lat="42.69901" lon="0.66698">
        <ele>2032.6</ele>
        <time>2018-08-08T13:53:35.000Z</time>
      </trkpt>
      <trkpt lat="42.69901" lon="0.66699">
        <ele>2032.5</ele>
        <time>2018-08-08T13:53:36.000Z</time>
      </trkpt>
      <trkpt lat="42.69901" lon="0.66699">
        <ele>2032.5</ele>
        <time>2018-08-08T13:53:37.000Z</time>
      </trkpt>
      <trkpt lat="42.69901" lon="0.667">
        <ele>2032.5</ele>
        <time>2018-08-08T13:53:38.000Z</time>
      </trkpt>
      <trkpt lat="42.69901" lon="0.667">
        <ele>2032.5</ele>
        <time>2018-08-08T13:53:39.000Z</time>
      </trkpt>
      <trkpt lat="42.69901" lon="0.667">
        <ele>2032.5</ele>
        <time>2018-08-08T13:53:40.000Z</time>
      </trkpt>
      <trkpt lat="42.69901" lon="0.667">
        <ele>2032.5</ele>
        <time>2018-08-08T13:53:41.000Z</time>
      </trkpt>
      <trkpt lat="42.69901" lon="0.667">
        <ele>2032.5</ele>
        <time>2018-08-08T13:53:42.000Z</time>
      </trkpt>
      <trkpt lat="42.69901" lon="0.667">
        <ele>2032.5</ele>
        <time>2018-08-08T13:53:43.000Z</time>
      </trkpt>
      <trkpt lat="42.69901" lon="0.66701">
        <ele>2032.5</ele>
        <time>2018-08-08T13:53:44.000Z</time>
      </trkpt>
      <trkpt lat="42.69901" lon="0.66701">
        <ele>2032.5</ele>
        <time>2018-08-08T13:53:45.000Z</time>
      </trkpt>
      <trkpt lat="42.69901" lon="0.66701">
        <ele>2032.5</ele>
        <time>2018-08-08T13:53:46.000Z</time>
      </trkpt>
      <trkpt lat="42.69901" lon="0.66702">
        <ele>2032.5</ele>
        <time>2018-08-08T13:53:47.000Z</time>
      </trkpt>
      <trkpt lat="42.69901" lon="0.66702">
        <ele>2032.5</ele>
        <time>2018-08-08T13:53:48.000Z</time>
      </trkpt>
      <trkpt lat="42.69901" lon="0.66703">
        <ele>2032.5</ele>
        <time>2018-08-08T13:53:49.000Z</time>
      </trkpt>
      <trkpt lat="42.69901" lon="0.66703">
        <ele>2032.4</ele>
        <time>2018-08-08T13:53:50.000Z</time>
      </trkpt>
      <trkpt lat="42.69901" lon="0.66703">
        <ele>2032.4</ele>
        <time>2018-08-08T13:53:51.000Z</time>
      </trkpt>
      <trkpt lat="42.69901" lon="0.66703">
        <ele>2032.4</ele>
        <time>2018-08-08T13:53:52.000Z</time>
      </trkpt>
      <trkpt lat="42.69901" lon="0.66703">
        <ele>2032.4</ele>
        <time>2018-08-08T13:53:53.000Z</time>
      </trkpt>
      <trkpt lat="42.69901" lon="0.66704">
        <ele>2032.4</ele>
        <time>2018-08-08T13:53:54.000Z</time>
      </trkpt>
      <trkpt lat="42.69901" lon="0.66705">
        <ele>2032.4</ele>
        <time>2018-08-08T13:53:55.000Z</time>
      </trkpt>
      <trkpt lat="42.69901" lon="0.66705">
        <ele>2032.5</ele>
        <time>2018-08-08T13:53:56.000Z</time>
      </trkpt>
      <trkpt lat="42.69901" lon="0.66706">
        <ele>2032.5</ele>
        <time>2018-08-08T13:53:57.000Z</time>
      </trkpt>
      <trkpt lat="42.69901" lon="0.66707">
        <ele>2032.5</ele>
        <time>2018-08-08T13:53:58.000Z</time>
      </trkpt>
      <trkpt lat="42.699" lon="0.66707">
        <ele>2032.6</ele>
        <time>2018-08-08T13:53:59.000Z</time>
      </trkpt>
      <trkpt lat="42.699" lon="0.66707">
        <ele>2032.6</ele>
        <time>2018-08-08T13:54:00.000Z</time>
      </trkpt>
      <trkpt lat="42.699" lon="0.66707">
        <ele>2032.6</ele>
        <time>2018-08-08T13:54:01.000Z</time>
      </trkpt>
      <trkpt lat="42.699" lon="0.66707">
        <ele>2032.6</ele>
        <time>2018-08-08T13:54:02.000Z</time>
      </trkpt>
      <trkpt lat="42.699" lon="0.66708">
        <ele>2032.6</ele>
        <time>2018-08-08T13:54:03.000Z</time>
      </trkpt>
      <trkpt lat="42.699" lon="0.66708">
        <ele>2032.6</ele>
        <time>2018-08-08T13:54:04.000Z</time>
      </trkpt>
      <trkpt lat="42.699" lon="0.66708">
        <ele>2032.6</ele>
        <time>2018-08-08T13:54:05.000Z</time>
      </trkpt>
      <trkpt lat="42.699" lon="0.66709">
        <ele>2032.7</ele>
        <time>2018-08-08T13:54:06.000Z</time>
      </trkpt>
      <trkpt lat="42.699" lon="0.6671">
        <ele>2032.8</ele>
        <time>2018-08-08T13:54:07.000Z</time>
      </trkpt>
      <trkpt lat="42.69899" lon="0.66711">
        <ele>2032.9</ele>
        <time>2018-08-08T13:54:08.000Z</time>
      </trkpt>
      <trkpt lat="42.69899" lon="0.66712">
        <ele>2033</ele>
        <time>2018-08-08T13:54:09.000Z</time>
      </trkpt>
      <trkpt lat="42.69899" lon="0.66712">
        <ele>2033</ele>
        <time>2018-08-08T13:54:10.000Z</time>
      </trkpt>
      <trkpt lat="42.69899" lon="0.66713">
        <ele>2033.1</ele>
        <time>2018-08-08T13:54:11.000Z</time>
      </trkpt>
      <trkpt lat="42.69899" lon="0.66714">
        <ele>2033.1</ele>
        <time>2018-08-08T13:54:12.000Z</time>
      </trkpt>
      <trkpt lat="42.69898" lon="0.66715">
        <ele>2033.2</ele>
        <time>2018-08-08T13:54:13.000Z</time>
      </trkpt>
      <trkpt lat="42.69898" lon="0.66716">
        <ele>2033.3</ele>
        <time>2018-08-08T13:54:14.000Z</time>
      </trkpt>
      <trkpt lat="42.69898" lon="0.66717">
        <ele>2033.3</ele>
        <time>2018-08-08T13:54:15.000Z</time>
      </trkpt>
      <trkpt lat="42.69898" lon="0.66718">
        <ele>2033.4</ele>
        <time>2018-08-08T13:54:16.000Z</time>
      </trkpt>
      <trkpt lat="42.69897" lon="0.66719">
        <ele>2033.4</ele>
        <time>2018-08-08T13:54:17.000Z</time>
      </trkpt>
      <trkpt lat="42.69897" lon="0.6672">
        <ele>2033.5</ele>
        <time>2018-08-08T13:54:18.000Z</time>
      </trkpt>
      <trkpt lat="42.69897" lon="0.66721">
        <ele>2033.6</ele>
        <time>2018-08-08T13:54:19.000Z</time>
      </trkpt>
      <trkpt lat="42.69897" lon="0.66722">
        <ele>2033.6</ele>
        <time>2018-08-08T13:54:20.000Z</time>
      </trkpt>
      <trkpt lat="42.69896" lon="0.66724">
        <ele>2033.7</ele>
        <time>2018-08-08T13:54:21.000Z</time>
      </trkpt>
      <trkpt lat="42.69896" lon="0.66725">
        <ele>2033.7</ele>
        <time>2018-08-08T13:54:22.000Z</time>
      </trkpt>
      <trkpt lat="42.69896" lon="0.66726">
        <ele>2033.8</ele>
        <time>2018-08-08T13:54:23.000Z</time>
      </trkpt>
      <trkpt lat="42.69896" lon="0.66727">
        <ele>2033.8</ele>
        <time>2018-08-08T13:54:24.000Z</time>
      </trkpt>
      <trkpt lat="42.69896" lon="0.66728">
        <ele>2033.9</ele>
        <time>2018-08-08T13:54:25.000Z</time>
      </trkpt>
      <trkpt lat="42.69895" lon="0.66729">
        <ele>2033.9</ele>
        <time>2018-08-08T13:54:26.000Z</time>
      </trkpt>
      <trkpt lat="42.69895" lon="0.66729">
        <ele>2033.9</ele>
        <time>2018-08-08T13:54:27.000Z</time>
      </trkpt>
      <trkpt lat="42.69895" lon="0.6673">
        <ele>2034</ele>
        <time>2018-08-08T13:54:28.000Z</time>
      </trkpt>
      <trkpt lat="42.69895" lon="0.6673">
        <ele>2034</ele>
        <time>2018-08-08T13:54:29.000Z</time>
      </trkpt>
      <trkpt lat="42.69895" lon="0.66731">
        <ele>2034</ele>
        <time>2018-08-08T13:54:30.000Z</time>
      </trkpt>
      <trkpt lat="42.69895" lon="0.66731">
        <ele>2034</ele>
        <time>2018-08-08T13:54:31.000Z</time>
      </trkpt>
      <trkpt lat="42.69895" lon="0.66731">
        <ele>2034</ele>
        <time>2018-08-08T13:54:32.000Z</time>
      </trkpt>
      <trkpt lat="42.69895" lon="0.66732">
        <ele>2034.1</ele>
        <time>2018-08-08T13:54:33.000Z</time>
      </trkpt>
      <trkpt lat="42.69894" lon="0.66732">
        <ele>2034.2</ele>
        <time>2018-08-08T13:54:34.000Z</time>
      </trkpt>
      <trkpt lat="42.69894" lon="0.66733">
        <ele>2034.4</ele>
        <time>2018-08-08T13:54:35.000Z</time>
      </trkpt>
      <trkpt lat="42.69893" lon="0.66734">
        <ele>2034.6</ele>
        <time>2018-08-08T13:54:36.000Z</time>
      </trkpt>
      <trkpt lat="42.69893" lon="0.66735">
        <ele>2034.7</ele>
        <time>2018-08-08T13:54:37.000Z</time>
      </trkpt>
      <trkpt lat="42.69892" lon="0.66736">
        <ele>2034.8</ele>
        <time>2018-08-08T13:54:38.000Z</time>
      </trkpt>
      <trkpt lat="42.69892" lon="0.66736">
        <ele>2034.9</ele>
        <time>2018-08-08T13:54:39.000Z</time>
      </trkpt>
      <trkpt lat="42.69892" lon="0.66736">
        <ele>2035</ele>
        <time>2018-08-08T13:54:40.000Z</time>
      </trkpt>
      <trkpt lat="42.69891" lon="0.66736">
        <ele>2035</ele>
        <time>2018-08-08T13:54:41.000Z</time>
      </trkpt>
      <trkpt lat="42.69891" lon="0.66737">
        <ele>2035.1</ele>
        <time>2018-08-08T13:54:42.000Z</time>
      </trkpt>
      <trkpt lat="42.69891" lon="0.66738">
        <ele>2035.2</ele>
        <time>2018-08-08T13:54:43.000Z</time>
      </trkpt>
      <trkpt lat="42.6989" lon="0.66739">
        <ele>2035.3</ele>
        <time>2018-08-08T13:54:44.000Z</time>
      </trkpt>
      <trkpt lat="42.6989" lon="0.6674">
        <ele>2035.4</ele>
        <time>2018-08-08T13:54:45.000Z</time>
      </trkpt>
      <trkpt lat="42.6989" lon="0.66741">
        <ele>2035.5</ele>
        <time>2018-08-08T13:54:46.000Z</time>
      </trkpt>
      <trkpt lat="42.69889" lon="0.66742">
        <ele>2035.6</ele>
        <time>2018-08-08T13:54:47.000Z</time>
      </trkpt>
      <trkpt lat="42.69889" lon="0.66743">
        <ele>2035.7</ele>
        <time>2018-08-08T13:54:48.000Z</time>
      </trkpt>
      <trkpt lat="42.69888" lon="0.66744">
        <ele>2035.7</ele>
        <time>2018-08-08T13:54:49.000Z</time>
      </trkpt>
      <trkpt lat="42.69888" lon="0.66745">
        <ele>2035.8</ele>
        <time>2018-08-08T13:54:50.000Z</time>
      </trkpt>
      <trkpt lat="42.69888" lon="0.66746">
        <ele>2035.9</ele>
        <time>2018-08-08T13:54:51.000Z</time>
      </trkpt>
      <trkpt lat="42.69887" lon="0.66747">
        <ele>2036</ele>
        <time>2018-08-08T13:54:52.000Z</time>
      </trkpt>
      <trkpt lat="42.69887" lon="0.66748">
        <ele>2036.1</ele>
        <time>2018-08-08T13:54:53.000Z</time>
      </trkpt>
      <trkpt lat="42.69886" lon="0.66749">
        <ele>2036.2</ele>
        <time>2018-08-08T13:54:54.000Z</time>
      </trkpt>
      <trkpt lat="42.69886" lon="0.66751">
        <ele>2036.3</ele>
        <time>2018-08-08T13:54:55.000Z</time>
      </trkpt>
      <trkpt lat="42.69885" lon="0.66752">
        <ele>2036.3</ele>
        <time>2018-08-08T13:54:56.000Z</time>
      </trkpt>
      <trkpt lat="42.69885" lon="0.66753">
        <ele>2036.4</ele>
        <time>2018-08-08T13:54:57.000Z</time>
      </trkpt>
      <trkpt lat="42.69884" lon="0.66754">
        <ele>2036.6</ele>
        <time>2018-08-08T13:54:58.000Z</time>
      </trkpt>
      <trkpt lat="42.69884" lon="0.66755">
        <ele>2036.7</ele>
        <time>2018-08-08T13:54:59.000Z</time>
      </trkpt>
      <trkpt lat="42.69883" lon="0.66756">
        <ele>2036.8</ele>
        <time>2018-08-08T13:55:00.000Z</time>
      </trkpt>
      <trkpt lat="42.69882" lon="0.66756">
        <ele>2037</ele>
        <time>2018-08-08T13:55:01.000Z</time>
      </trkpt>
      <trkpt lat="42.69881" lon="0.66757">
        <ele>2037.1</ele>
        <time>2018-08-08T13:55:02.000Z</time>
      </trkpt>
      <trkpt lat="42.69881" lon="0.66757">
        <ele>2037.4</ele>
        <time>2018-08-08T13:55:03.000Z</time>
      </trkpt>
      <trkpt lat="42.6988" lon="0.66757">
        <ele>2037.7</ele>
        <time>2018-08-08T13:55:04.000Z</time>
      </trkpt>
      <trkpt lat="42.69879" lon="0.66757">
        <ele>2037.9</ele>
        <time>2018-08-08T13:55:05.000Z</time>
      </trkpt>
      <trkpt lat="42.69878" lon="0.66757">
        <ele>2038.2</ele>
        <time>2018-08-08T13:55:06.000Z</time>
      </trkpt>
      <trkpt lat="42.69877" lon="0.66757">
        <ele>2038.3</ele>
        <time>2018-08-08T13:55:07.000Z</time>
      </trkpt>
      <trkpt lat="42.69877" lon="0.66757">
        <ele>2038.5</ele>
        <time>2018-08-08T13:55:08.000Z</time>
      </trkpt>
      <trkpt lat="42.69876" lon="0.66757">
        <ele>2038.6</ele>
        <time>2018-08-08T13:55:09.000Z</time>
      </trkpt>
      <trkpt lat="42.69876" lon="0.66757">
        <ele>2038.6</ele>
        <time>2018-08-08T13:55:10.000Z</time>
      </trkpt>
      <trkpt lat="42.69876" lon="0.66757">
        <ele>2038.7</ele>
        <time>2018-08-08T13:55:11.000Z</time>
      </trkpt>
      <trkpt lat="42.69876" lon="0.66757">
        <ele>2038.7</ele>
        <time>2018-08-08T13:55:12.000Z</time>
      </trkpt>
      <trkpt lat="42.69876" lon="0.66757">
        <ele>2038.7</ele>
        <time>2018-08-08T13:55:13.000Z</time>
      </trkpt>
      <trkpt lat="42.69876" lon="0.66757">
        <ele>2038.8</ele>
        <time>2018-08-08T13:55:14.000Z</time>
      </trkpt>
      <trkpt lat="42.69876" lon="0.66757">
        <ele>2038.8</ele>
        <time>2018-08-08T13:55:15.000Z</time>
      </trkpt>
      <trkpt lat="42.69876" lon="0.66757">
        <ele>2038.8</ele>
        <time>2018-08-08T13:55:16.000Z</time>
      </trkpt>
      <trkpt lat="42.69876" lon="0.66757">
        <ele>2038.8</ele>
        <time>2018-08-08T13:55:17.000Z</time>
      </trkpt>
      <trkpt lat="42.69876" lon="0.66757">
        <ele>2038.8</ele>
        <time>2018-08-08T13:55:18.000Z</time>
      </trkpt>
      <trkpt lat="42.69876" lon="0.66757">
        <ele>2038.9</ele>
        <time>2018-08-08T13:55:19.000Z</time>
      </trkpt>
      <trkpt lat="42.69875" lon="0.66756">
        <ele>2039</ele>
        <time>2018-08-08T13:55:20.000Z</time>
      </trkpt>
      <trkpt lat="42.69875" lon="0.66756">
        <ele>2039.1</ele>
        <time>2018-08-08T13:55:21.000Z</time>
      </trkpt>
      <trkpt lat="42.69874" lon="0.66756">
        <ele>2039.3</ele>
        <time>2018-08-08T13:55:22.000Z</time>
      </trkpt>
      <trkpt lat="42.69873" lon="0.66756">
        <ele>2039.6</ele>
        <time>2018-08-08T13:55:23.000Z</time>
      </trkpt>
      <trkpt lat="42.69873" lon="0.66756">
        <ele>2039.8</ele>
        <time>2018-08-08T13:55:24.000Z</time>
      </trkpt>
      <trkpt lat="42.69872" lon="0.66756">
        <ele>2040.1</ele>
        <time>2018-08-08T13:55:25.000Z</time>
      </trkpt>
      <trkpt lat="42.69871" lon="0.66756">
        <ele>2040.3</ele>
        <time>2018-08-08T13:55:26.000Z</time>
      </trkpt>
      <trkpt lat="42.6987" lon="0.66756">
        <ele>2040.5</ele>
        <time>2018-08-08T13:55:27.000Z</time>
      </trkpt>
      <trkpt lat="42.6987" lon="0.66756">
        <ele>2040.6</ele>
        <time>2018-08-08T13:55:28.000Z</time>
      </trkpt>
      <trkpt lat="42.69869" lon="0.66757">
        <ele>2040.7</ele>
        <time>2018-08-08T13:55:29.000Z</time>
      </trkpt>
      <trkpt lat="42.69869" lon="0.66757">
        <ele>2040.7</ele>
        <time>2018-08-08T13:55:30.000Z</time>
      </trkpt>
      <trkpt lat="42.69869" lon="0.66756">
        <ele>2040.8</ele>
        <time>2018-08-08T13:55:31.000Z</time>
      </trkpt>
      <trkpt lat="42.69869" lon="0.66756">
        <ele>2040.9</ele>
        <time>2018-08-08T13:55:32.000Z</time>
      </trkpt>
      <trkpt lat="42.69868" lon="0.66756">
        <ele>2041</ele>
        <time>2018-08-08T13:55:33.000Z</time>
      </trkpt>
      <trkpt lat="42.69868" lon="0.66755">
        <ele>2041.2</ele>
        <time>2018-08-08T13:55:34.000Z</time>
      </trkpt>
      <trkpt lat="42.69868" lon="0.66755">
        <ele>2041.3</ele>
        <time>2018-08-08T13:55:35.000Z</time>
      </trkpt>
      <trkpt lat="42.69867" lon="0.66755">
        <ele>2041.4</ele>
        <time>2018-08-08T13:55:36.000Z</time>
      </trkpt>
      <trkpt lat="42.69867" lon="0.66755">
        <ele>2041.5</ele>
        <time>2018-08-08T13:55:37.000Z</time>
      </trkpt>
      <trkpt lat="42.69867" lon="0.66755">
        <ele>2041.5</ele>
        <time>2018-08-08T13:55:38.000Z</time>
      </trkpt>
      <trkpt lat="42.69867" lon="0.66755">
        <ele>2041.5</ele>
        <time>2018-08-08T13:55:39.000Z</time>
      </trkpt>
      <trkpt lat="42.69867" lon="0.66755">
        <ele>2041.5</ele>
        <time>2018-08-08T13:55:40.000Z</time>
      </trkpt>
      <trkpt lat="42.69867" lon="0.66755">
        <ele>2041.5</ele>
        <time>2018-08-08T13:55:41.000Z</time>
      </trkpt>
      <trkpt lat="42.69867" lon="0.66755">
        <ele>2041.5</ele>
        <time>2018-08-08T13:55:42.000Z</time>
      </trkpt>
      <trkpt lat="42.69867" lon="0.66755">
        <ele>2041.5</ele>
        <time>2018-08-08T13:55:43.000Z</time>
      </trkpt>
      <trkpt lat="42.69867" lon="0.66755">
        <ele>2041.5</ele>
        <time>2018-08-08T13:55:44.000Z</time>
      </trkpt>
      <trkpt lat="42.69867" lon="0.66755">
        <ele>2041.5</ele>
        <time>2018-08-08T13:55:45.000Z</time>
      </trkpt>
      <trkpt lat="42.69867" lon="0.66755">
        <ele>2041.5</ele>
        <time>2018-08-08T13:55:46.000Z</time>
      </trkpt>
      <trkpt lat="42.69867" lon="0.66755">
        <ele>2041.5</ele>
        <time>2018-08-08T13:55:47.000Z</time>
      </trkpt>
      <trkpt lat="42.69867" lon="0.66755">
        <ele>2041.5</ele>
        <time>2018-08-08T13:55:48.000Z</time>
      </trkpt>
      <trkpt lat="42.69867" lon="0.66755">
        <ele>2041.5</ele>
        <time>2018-08-08T13:55:49.000Z</time>
      </trkpt>
      <trkpt lat="42.69867" lon="0.66755">
        <ele>2041.5</ele>
        <time>2018-08-08T13:55:50.000Z</time>
      </trkpt>
      <trkpt lat="42.69867" lon="0.66755">
        <ele>2041.5</ele>
        <time>2018-08-08T13:55:51.000Z</time>
      </trkpt>
      <trkpt lat="42.69867" lon="0.66755">
        <ele>2041.5</ele>
        <time>2018-08-08T13:55:52.000Z</time>
      </trkpt>
      <trkpt lat="42.69867" lon="0.66755">
        <ele>2041.5</ele>
        <time>2018-08-08T13:55:53.000Z</time>
      </trkpt>
      <trkpt lat="42.69867" lon="0.66755">
        <ele>2041.5</ele>
        <time>2018-08-08T13:55:54.000Z</time>
      </trkpt>
      <trkpt lat="42.69867" lon="0.66755">
        <ele>2041.5</ele>
        <time>2018-08-08T13:55:55.000Z</time>
      </trkpt>
      <trkpt lat="42.69867" lon="0.66755">
        <ele>2041.5</ele>
        <time>2018-08-08T13:55:56.000Z</time>
      </trkpt>
      <trkpt lat="42.69867" lon="0.66755">
        <ele>2041.5</ele>
        <time>2018-08-08T13:55:57.000Z</time>
      </trkpt>
      <trkpt lat="42.69867" lon="0.66755">
        <ele>2041.5</ele>
        <time>2018-08-08T13:55:58.000Z</time>
      </trkpt>
      <trkpt lat="42.69867" lon="0.66755">
        <ele>2041.5</ele>
        <time>2018-08-08T13:55:59.000Z</time>
      </trkpt>
      <trkpt lat="42.69867" lon="0.66755">
        <ele>2041.5</ele>
        <time>2018-08-08T13:56:00.000Z</time>
      </trkpt>
      <trkpt lat="42.69867" lon="0.66755">
        <ele>2041.5</ele>
        <time>2018-08-08T13:56:01.000Z</time>
      </trkpt>
      <trkpt lat="42.69867" lon="0.66755">
        <ele>2041.5</ele>
        <time>2018-08-08T13:56:02.000Z</time>
      </trkpt>
      <trkpt lat="42.69867" lon="0.66755">
        <ele>2041.5</ele>
        <time>2018-08-08T13:56:03.000Z</time>
      </trkpt>
      <trkpt lat="42.69867" lon="0.66755">
        <ele>2041.5</ele>
        <time>2018-08-08T13:56:04.000Z</time>
      </trkpt>
      <trkpt lat="42.69867" lon="0.66755">
        <ele>2041.5</ele>
        <time>2018-08-08T13:56:05.000Z</time>
      </trkpt>
      <trkpt lat="42.69867" lon="0.66754">
        <ele>2041.6</ele>
        <time>2018-08-08T13:56:06.000Z</time>
      </trkpt>
      <trkpt lat="42.69867" lon="0.66754">
        <ele>2041.6</ele>
        <time>2018-08-08T13:56:07.000Z</time>
      </trkpt>
      <trkpt lat="42.69867" lon="0.66754">
        <ele>2041.7</ele>
        <time>2018-08-08T13:56:08.000Z</time>
      </trkpt>
      <trkpt lat="42.69867" lon="0.66754">
        <ele>2041.8</ele>
        <time>2018-08-08T13:56:09.000Z</time>
      </trkpt>
      <trkpt lat="42.69866" lon="0.66753">
        <ele>2041.9</ele>
        <time>2018-08-08T13:56:10.000Z</time>
      </trkpt>
      <trkpt lat="42.69866" lon="0.66752">
        <ele>2042</ele>
        <time>2018-08-08T13:56:11.000Z</time>
      </trkpt>
      <trkpt lat="42.69866" lon="0.66752">
        <ele>2042.1</ele>
        <time>2018-08-08T13:56:12.000Z</time>
      </trkpt>
      <trkpt lat="42.69865" lon="0.66751">
        <ele>2042.3</ele>
        <time>2018-08-08T13:56:13.000Z</time>
      </trkpt>
      <trkpt lat="42.69865" lon="0.6675">
        <ele>2042.5</ele>
        <time>2018-08-08T13:56:14.000Z</time>
      </trkpt>
      <trkpt lat="42.69865" lon="0.6675">
        <ele>2042.6</ele>
        <time>2018-08-08T13:56:15.000Z</time>
      </trkpt>
      <trkpt lat="42.69865" lon="0.66749">
        <ele>2042.7</ele>
        <time>2018-08-08T13:56:16.000Z</time>
      </trkpt>
      <trkpt lat="42.69864" lon="0.66749">
        <ele>2042.8</ele>
        <time>2018-08-08T13:56:17.000Z</time>
      </trkpt>
      <trkpt lat="42.69864" lon="0.66749">
        <ele>2042.9</ele>
        <time>2018-08-08T13:56:18.000Z</time>
      </trkpt>
      <trkpt lat="42.69864" lon="0.66748">
        <ele>2042.9</ele>
        <time>2018-08-08T13:56:19.000Z</time>
      </trkpt>
      <trkpt lat="42.69864" lon="0.66748">
        <ele>2043</ele>
        <time>2018-08-08T13:56:20.000Z</time>
      </trkpt>
      <trkpt lat="42.69864" lon="0.66748">
        <ele>2043.1</ele>
        <time>2018-08-08T13:56:21.000Z</time>
      </trkpt>
      <trkpt lat="42.69864" lon="0.66747">
        <ele>2043.1</ele>
        <time>2018-08-08T13:56:22.000Z</time>
      </trkpt>
      <trkpt lat="42.69863" lon="0.66747">
        <ele>2043.2</ele>
        <time>2018-08-08T13:56:23.000Z</time>
      </trkpt>
      <trkpt lat="42.69863" lon="0.66747">
        <ele>2043.4</ele>
        <time>2018-08-08T13:56:24.000Z</time>
      </trkpt>
      <trkpt lat="42.69863" lon="0.66746">
        <ele>2043.6</ele>
        <time>2018-08-08T13:56:25.000Z</time>
      </trkpt>
      <trkpt lat="42.69862" lon="0.66745">
        <ele>2043.8</ele>
        <time>2018-08-08T13:56:26.000Z</time>
      </trkpt>
      <trkpt lat="42.69861" lon="0.66745">
        <ele>2044.1</ele>
        <time>2018-08-08T13:56:27.000Z</time>
      </trkpt>
      <trkpt lat="42.69861" lon="0.66744">
        <ele>2044.3</ele>
        <time>2018-08-08T13:56:28.000Z</time>
      </trkpt>
      <trkpt lat="42.6986" lon="0.66744">
        <ele>2044.5</ele>
        <time>2018-08-08T13:56:29.000Z</time>
      </trkpt>
      <trkpt lat="42.6986" lon="0.66743">
        <ele>2044.6</ele>
        <time>2018-08-08T13:56:30.000Z</time>
      </trkpt>
      <trkpt lat="42.69859" lon="0.66742">
        <ele>2044.9</ele>
        <time>2018-08-08T13:56:31.000Z</time>
      </trkpt>
      <trkpt lat="42.69859" lon="0.66741">
        <ele>2045.1</ele>
        <time>2018-08-08T13:56:32.000Z</time>
      </trkpt>
      <trkpt lat="42.69858" lon="0.66741">
        <ele>2045.4</ele>
        <time>2018-08-08T13:56:33.000Z</time>
      </trkpt>
      <trkpt lat="42.69858" lon="0.6674">
        <ele>2045.6</ele>
        <time>2018-08-08T13:56:34.000Z</time>
      </trkpt>
      <trkpt lat="42.69857" lon="0.6674">
        <ele>2045.9</ele>
        <time>2018-08-08T13:56:35.000Z</time>
      </trkpt>
      <trkpt lat="42.69856" lon="0.66739">
        <ele>2046.1</ele>
        <time>2018-08-08T13:56:36.000Z</time>
      </trkpt>
      <trkpt lat="42.69856" lon="0.66739">
        <ele>2046.3</ele>
        <time>2018-08-08T13:56:37.000Z</time>
      </trkpt>
      <trkpt lat="42.69855" lon="0.66739">
        <ele>2046.4</ele>
        <time>2018-08-08T13:56:38.000Z</time>
      </trkpt>
      <trkpt lat="42.69855" lon="0.66739">
        <ele>2046.5</ele>
        <time>2018-08-08T13:56:39.000Z</time>
      </trkpt>
      <trkpt lat="42.69855" lon="0.66739">
        <ele>2046.6</ele>
        <time>2018-08-08T13:56:40.000Z</time>
      </trkpt>
      <trkpt lat="42.69855" lon="0.66739">
        <ele>2046.7</ele>
        <time>2018-08-08T13:56:41.000Z</time>
      </trkpt>
      <trkpt lat="42.69854" lon="0.66739">
        <ele>2046.8</ele>
        <time>2018-08-08T13:56:42.000Z</time>
      </trkpt>
      <trkpt lat="42.69854" lon="0.66739">
        <ele>2046.9</ele>
        <time>2018-08-08T13:56:43.000Z</time>
      </trkpt>
      <trkpt lat="42.69853" lon="0.66738">
        <ele>2047.1</ele>
        <time>2018-08-08T13:56:44.000Z</time>
      </trkpt>
      <trkpt lat="42.69853" lon="0.66738">
        <ele>2047.4</ele>
        <time>2018-08-08T13:56:45.000Z</time>
      </trkpt>
      <trkpt lat="42.69852" lon="0.66737">
        <ele>2047.7</ele>
        <time>2018-08-08T13:56:46.000Z</time>
      </trkpt>
      <trkpt lat="42.69851" lon="0.66737">
        <ele>2048</ele>
        <time>2018-08-08T13:56:47.000Z</time>
      </trkpt>
      <trkpt lat="42.69851" lon="0.66736">
        <ele>2048.3</ele>
        <time>2018-08-08T13:56:48.000Z</time>
      </trkpt>
      <trkpt lat="42.6985" lon="0.66735">
        <ele>2048.5</ele>
        <time>2018-08-08T13:56:49.000Z</time>
      </trkpt>
      <trkpt lat="42.69849" lon="0.66735">
        <ele>2048.8</ele>
        <time>2018-08-08T13:56:50.000Z</time>
      </trkpt>
      <trkpt lat="42.69849" lon="0.66734">
        <ele>2049</ele>
        <time>2018-08-08T13:56:51.000Z</time>
      </trkpt>
      <trkpt lat="42.69848" lon="0.66734">
        <ele>2049.3</ele>
        <time>2018-08-08T13:56:52.000Z</time>
      </trkpt>
      <trkpt lat="42.69848" lon="0.66733">
        <ele>2049.5</ele>
        <time>2018-08-08T13:56:53.000Z</time>
      </trkpt>
      <trkpt lat="42.69847" lon="0.66733">
        <ele>2049.8</ele>
        <time>2018-08-08T13:56:54.000Z</time>
      </trkpt>
      <trkpt lat="42.69846" lon="0.66732">
        <ele>2050</ele>
        <time>2018-08-08T13:56:55.000Z</time>
      </trkpt>
      <trkpt lat="42.69846" lon="0.66732">
        <ele>2050.3</ele>
        <time>2018-08-08T13:56:56.000Z</time>
      </trkpt>
      <trkpt lat="42.69845" lon="0.66731">
        <ele>2050.5</ele>
        <time>2018-08-08T13:56:57.000Z</time>
      </trkpt>
      <trkpt lat="42.69845" lon="0.66731">
        <ele>2050.8</ele>
        <time>2018-08-08T13:56:58.000Z</time>
      </trkpt>
      <trkpt lat="42.69844" lon="0.6673">
        <ele>2051.1</ele>
        <time>2018-08-08T13:56:59.000Z</time>
      </trkpt>
      <trkpt lat="42.69843" lon="0.6673">
        <ele>2051.3</ele>
        <time>2018-08-08T13:57:00.000Z</time>
      </trkpt>
      <trkpt lat="42.69843" lon="0.66729">
        <ele>2051.6</ele>
        <time>2018-08-08T13:57:01.000Z</time>
      </trkpt>
      <trkpt lat="42.69842" lon="0.66729">
        <ele>2051.9</ele>
        <time>2018-08-08T13:57:02.000Z</time>
      </trkpt>
      <trkpt lat="42.69842" lon="0.66728">
        <ele>2052.1</ele>
        <time>2018-08-08T13:57:03.000Z</time>
      </trkpt>
      <trkpt lat="42.69841" lon="0.66727">
        <ele>2052.4</ele>
        <time>2018-08-08T13:57:04.000Z</time>
      </trkpt>
      <trkpt lat="42.6984" lon="0.66727">
        <ele>2052.7</ele>
        <time>2018-08-08T13:57:05.000Z</time>
      </trkpt>
      <trkpt lat="42.6984" lon="0.66726">
        <ele>2052.9</ele>
        <time>2018-08-08T13:57:06.000Z</time>
      </trkpt>
      <trkpt lat="42.69839" lon="0.66726">
        <ele>2053.2</ele>
        <time>2018-08-08T13:57:07.000Z</time>
      </trkpt>
      <trkpt lat="42.69839" lon="0.66725">
        <ele>2053.5</ele>
        <time>2018-08-08T13:57:08.000Z</time>
      </trkpt>
      <trkpt lat="42.69838" lon="0.66724">
        <ele>2053.7</ele>
        <time>2018-08-08T13:57:09.000Z</time>
      </trkpt>
      <trkpt lat="42.69838" lon="0.66723">
        <ele>2054</ele>
        <time>2018-08-08T13:57:10.000Z</time>
      </trkpt>
      <trkpt lat="42.69837" lon="0.66723">
        <ele>2054.2</ele>
        <time>2018-08-08T13:57:11.000Z</time>
      </trkpt>
      <trkpt lat="42.69837" lon="0.66722">
        <ele>2054.5</ele>
        <time>2018-08-08T13:57:12.000Z</time>
      </trkpt>
      <trkpt lat="42.69836" lon="0.66721">
        <ele>2054.8</ele>
        <time>2018-08-08T13:57:13.000Z</time>
      </trkpt>
      <trkpt lat="42.69836" lon="0.6672">
        <ele>2055</ele>
        <time>2018-08-08T13:57:14.000Z</time>
      </trkpt>
      <trkpt lat="42.69836" lon="0.6672">
        <ele>2055.2</ele>
        <time>2018-08-08T13:57:15.000Z</time>
      </trkpt>
      <trkpt lat="42.69835" lon="0.66719">
        <ele>2055.4</ele>
        <time>2018-08-08T13:57:16.000Z</time>
      </trkpt>
      <trkpt lat="42.69835" lon="0.66718">
        <ele>2055.6</ele>
        <time>2018-08-08T13:57:17.000Z</time>
      </trkpt>
      <trkpt lat="42.69835" lon="0.66717">
        <ele>2055.8</ele>
        <time>2018-08-08T13:57:18.000Z</time>
      </trkpt>
      <trkpt lat="42.69835" lon="0.66717">
        <ele>2056</ele>
        <time>2018-08-08T13:57:19.000Z</time>
      </trkpt>
      <trkpt lat="42.69834" lon="0.66716">
        <ele>2056.2</ele>
        <time>2018-08-08T13:57:20.000Z</time>
      </trkpt>
      <trkpt lat="42.69834" lon="0.66716">
        <ele>2056.3</ele>
        <time>2018-08-08T13:57:21.000Z</time>
      </trkpt>
      <trkpt lat="42.69834" lon="0.66715">
        <ele>2056.4</ele>
        <time>2018-08-08T13:57:22.000Z</time>
      </trkpt>
      <trkpt lat="42.69834" lon="0.66715">
        <ele>2056.6</ele>
        <time>2018-08-08T13:57:23.000Z</time>
      </trkpt>
      <trkpt lat="42.69834" lon="0.66715">
        <ele>2056.6</ele>
        <time>2018-08-08T13:57:24.000Z</time>
      </trkpt>
      <trkpt lat="42.69833" lon="0.66714">
        <ele>2056.7</ele>
        <time>2018-08-08T13:57:25.000Z</time>
      </trkpt>
      <trkpt lat="42.69833" lon="0.66714">
        <ele>2056.7</ele>
        <time>2018-08-08T13:57:26.000Z</time>
      </trkpt>
      <trkpt lat="42.69833" lon="0.66714">
        <ele>2056.7</ele>
        <time>2018-08-08T13:57:27.000Z</time>
      </trkpt>
      <trkpt lat="42.69833" lon="0.66713">
        <ele>2057</ele>
        <time>2018-08-08T13:57:28.000Z</time>
      </trkpt>
      <trkpt lat="42.69832" lon="0.66713">
        <ele>2057.2</ele>
        <time>2018-08-08T13:57:29.000Z</time>
      </trkpt>
      <trkpt lat="42.69832" lon="0.66713">
        <ele>2057.3</ele>
        <time>2018-08-08T13:57:30.000Z</time>
      </trkpt>
      <trkpt lat="42.69832" lon="0.66712">
        <ele>2057.4</ele>
        <time>2018-08-08T13:57:31.000Z</time>
      </trkpt>
      <trkpt lat="42.69832" lon="0.66712">
        <ele>2057.4</ele>
        <time>2018-08-08T13:57:32.000Z</time>
      </trkpt>
      <trkpt lat="42.69832" lon="0.66712">
        <ele>2057.4</ele>
        <time>2018-08-08T13:57:33.000Z</time>
      </trkpt>
      <trkpt lat="42.69831" lon="0.66712">
        <ele>2057.5</ele>
        <time>2018-08-08T13:57:34.000Z</time>
      </trkpt>
      <trkpt lat="42.69831" lon="0.66712">
        <ele>2057.5</ele>
        <time>2018-08-08T13:57:35.000Z</time>
      </trkpt>
      <trkpt lat="42.69831" lon="0.66712">
        <ele>2057.6</ele>
        <time>2018-08-08T13:57:36.000Z</time>
      </trkpt>
      <trkpt lat="42.69831" lon="0.66712">
        <ele>2057.7</ele>
        <time>2018-08-08T13:57:37.000Z</time>
      </trkpt>
      <trkpt lat="42.69831" lon="0.66711">
        <ele>2057.8</ele>
        <time>2018-08-08T13:57:38.000Z</time>
      </trkpt>
      <trkpt lat="42.6983" lon="0.66711">
        <ele>2057.9</ele>
        <time>2018-08-08T13:57:39.000Z</time>
      </trkpt>
      <trkpt lat="42.6983" lon="0.66711">
        <ele>2058</ele>
        <time>2018-08-08T13:57:40.000Z</time>
      </trkpt>
      <trkpt lat="42.6983" lon="0.66711">
        <ele>2058.1</ele>
        <time>2018-08-08T13:57:41.000Z</time>
      </trkpt>
      <trkpt lat="42.6983" lon="0.66711">
        <ele>2058.2</ele>
        <time>2018-08-08T13:57:42.000Z</time>
      </trkpt>
      <trkpt lat="42.69829" lon="0.6671">
        <ele>2058.3</ele>
        <time>2018-08-08T13:57:43.000Z</time>
      </trkpt>
      <trkpt lat="42.69829" lon="0.6671">
        <ele>2058.5</ele>
        <time>2018-08-08T13:57:44.000Z</time>
      </trkpt>
      <trkpt lat="42.69828" lon="0.66709">
        <ele>2058.7</ele>
        <time>2018-08-08T13:57:45.000Z</time>
      </trkpt>
      <trkpt lat="42.69827" lon="0.66709">
        <ele>2058.9</ele>
        <time>2018-08-08T13:57:46.000Z</time>
      </trkpt>
      <trkpt lat="42.69827" lon="0.66708">
        <ele>2059.1</ele>
        <time>2018-08-08T13:57:47.000Z</time>
      </trkpt>
      <trkpt lat="42.69826" lon="0.66708">
        <ele>2059.3</ele>
        <time>2018-08-08T13:57:48.000Z</time>
      </trkpt>
      <trkpt lat="42.69826" lon="0.66707">
        <ele>2059.5</ele>
        <time>2018-08-08T13:57:49.000Z</time>
      </trkpt>
      <trkpt lat="42.69825" lon="0.66706">
        <ele>2059.7</ele>
        <time>2018-08-08T13:57:50.000Z</time>
      </trkpt>
      <trkpt lat="42.69825" lon="0.66706">
        <ele>2059.9</ele>
        <time>2018-08-08T13:57:51.000Z</time>
      </trkpt>
      <trkpt lat="42.69824" lon="0.66705">
        <ele>2060.2</ele>
        <time>2018-08-08T13:57:52.000Z</time>
      </trkpt>
      <trkpt lat="42.69824" lon="0.66704">
        <ele>2060.4</ele>
        <time>2018-08-08T13:57:53.000Z</time>
      </trkpt>
      <trkpt lat="42.69824" lon="0.66703">
        <ele>2060.6</ele>
        <time>2018-08-08T13:57:54.000Z</time>
      </trkpt>
      <trkpt lat="42.69823" lon="0.66702">
        <ele>2060.8</ele>
        <time>2018-08-08T13:57:55.000Z</time>
      </trkpt>
      <trkpt lat="42.69823" lon="0.66701">
        <ele>2061</ele>
        <time>2018-08-08T13:57:56.000Z</time>
      </trkpt>
      <trkpt lat="42.69823" lon="0.667">
        <ele>2061.2</ele>
        <time>2018-08-08T13:57:57.000Z</time>
      </trkpt>
      <trkpt lat="42.69822" lon="0.667">
        <ele>2061.3</ele>
        <time>2018-08-08T13:57:58.000Z</time>
      </trkpt>
      <trkpt lat="42.69822" lon="0.667">
        <ele>2061.4</ele>
        <time>2018-08-08T13:57:59.000Z</time>
      </trkpt>
      <trkpt lat="42.69822" lon="0.66699">
        <ele>2061.5</ele>
        <time>2018-08-08T13:58:00.000Z</time>
      </trkpt>
      <trkpt lat="42.69822" lon="0.66699">
        <ele>2061.5</ele>
        <time>2018-08-08T13:58:01.000Z</time>
      </trkpt>
      <trkpt lat="42.69822" lon="0.66699">
        <ele>2061.6</ele>
        <time>2018-08-08T13:58:02.000Z</time>
      </trkpt>
      <trkpt lat="42.69822" lon="0.66699">
        <ele>2061.6</ele>
        <time>2018-08-08T13:58:03.000Z</time>
      </trkpt>
      <trkpt lat="42.69821" lon="0.66699">
        <ele>2061.6</ele>
        <time>2018-08-08T13:58:04.000Z</time>
      </trkpt>
      <trkpt lat="42.69821" lon="0.66699">
        <ele>2061.6</ele>
        <time>2018-08-08T13:58:05.000Z</time>
      </trkpt>
      <trkpt lat="42.69821" lon="0.66699">
        <ele>2061.7</ele>
        <time>2018-08-08T13:58:06.000Z</time>
      </trkpt>
      <trkpt lat="42.69821" lon="0.66699">
        <ele>2061.8</ele>
        <time>2018-08-08T13:58:07.000Z</time>
      </trkpt>
      <trkpt lat="42.69821" lon="0.66698">
        <ele>2061.9</ele>
        <time>2018-08-08T13:58:08.000Z</time>
      </trkpt>
      <trkpt lat="42.6982" lon="0.66698">
        <ele>2062.1</ele>
        <time>2018-08-08T13:58:09.000Z</time>
      </trkpt>
      <trkpt lat="42.69819" lon="0.66697">
        <ele>2062.4</ele>
        <time>2018-08-08T13:58:10.000Z</time>
      </trkpt>
      <trkpt lat="42.69818" lon="0.66696">
        <ele>2062.7</ele>
        <time>2018-08-08T13:58:11.000Z</time>
      </trkpt>
      <trkpt lat="42.69818" lon="0.66696">
        <ele>2062.9</ele>
        <time>2018-08-08T13:58:12.000Z</time>
      </trkpt>
      <trkpt lat="42.69817" lon="0.66695">
        <ele>2063.1</ele>
        <time>2018-08-08T13:58:13.000Z</time>
      </trkpt>
      <trkpt lat="42.69817" lon="0.66695">
        <ele>2063.2</ele>
        <time>2018-08-08T13:58:14.000Z</time>
      </trkpt>
      <trkpt lat="42.69817" lon="0.66695">
        <ele>2063.3</ele>
        <time>2018-08-08T13:58:15.000Z</time>
      </trkpt>
      <trkpt lat="42.69816" lon="0.66695">
        <ele>2063.4</ele>
        <time>2018-08-08T13:58:16.000Z</time>
      </trkpt>
      <trkpt lat="42.69816" lon="0.66695">
        <ele>2063.4</ele>
        <time>2018-08-08T13:58:17.000Z</time>
      </trkpt>
      <trkpt lat="42.69816" lon="0.66695">
        <ele>2063.4</ele>
        <time>2018-08-08T13:58:18.000Z</time>
      </trkpt>
      <trkpt lat="42.69816" lon="0.66695">
        <ele>2063.5</ele>
        <time>2018-08-08T13:58:19.000Z</time>
      </trkpt>
      <trkpt lat="42.69816" lon="0.66694">
        <ele>2063.6</ele>
        <time>2018-08-08T13:58:20.000Z</time>
      </trkpt>
      <trkpt lat="42.69815" lon="0.66694">
        <ele>2063.8</ele>
        <time>2018-08-08T13:58:21.000Z</time>
      </trkpt>
      <trkpt lat="42.69815" lon="0.66694">
        <ele>2063.9</ele>
        <time>2018-08-08T13:58:22.000Z</time>
      </trkpt>
      <trkpt lat="42.69814" lon="0.66693">
        <ele>2064.1</ele>
        <time>2018-08-08T13:58:23.000Z</time>
      </trkpt>
      <trkpt lat="42.69813" lon="0.66693">
        <ele>2064.3</ele>
        <time>2018-08-08T13:58:24.000Z</time>
      </trkpt>
      <trkpt lat="42.69813" lon="0.66692">
        <ele>2064.5</ele>
        <time>2018-08-08T13:58:25.000Z</time>
      </trkpt>
      <trkpt lat="42.69813" lon="0.66692">
        <ele>2064.6</ele>
        <time>2018-08-08T13:58:26.000Z</time>
      </trkpt>
      <trkpt lat="42.69812" lon="0.66692">
        <ele>2064.7</ele>
        <time>2018-08-08T13:58:27.000Z</time>
      </trkpt>
      <trkpt lat="42.69812" lon="0.66692">
        <ele>2064.8</ele>
        <time>2018-08-08T13:58:28.000Z</time>
      </trkpt>
      <trkpt lat="42.69812" lon="0.66691">
        <ele>2064.8</ele>
        <time>2018-08-08T13:58:29.000Z</time>
      </trkpt>
      <trkpt lat="42.69812" lon="0.66691">
        <ele>2064.8</ele>
        <time>2018-08-08T13:58:30.000Z</time>
      </trkpt>
      <trkpt lat="42.69812" lon="0.66691">
        <ele>2064.8</ele>
        <time>2018-08-08T13:58:31.000Z</time>
      </trkpt>
      <trkpt lat="42.69812" lon="0.66691">
        <ele>2064.8</ele>
        <time>2018-08-08T13:58:32.000Z</time>
      </trkpt>
      <trkpt lat="42.69812" lon="0.66691">
        <ele>2064.9</ele>
        <time>2018-08-08T13:58:33.000Z</time>
      </trkpt>
      <trkpt lat="42.69811" lon="0.66691">
        <ele>2065</ele>
        <time>2018-08-08T13:58:34.000Z</time>
      </trkpt>
      <trkpt lat="42.69811" lon="0.66691">
        <ele>2065.3</ele>
        <time>2018-08-08T13:58:35.000Z</time>
      </trkpt>
      <trkpt lat="42.6981" lon="0.6669">
        <ele>2065.5</ele>
        <time>2018-08-08T13:58:36.000Z</time>
      </trkpt>
      <trkpt lat="42.69809" lon="0.6669">
        <ele>2065.7</ele>
        <time>2018-08-08T13:58:37.000Z</time>
      </trkpt>
      <trkpt lat="42.69808" lon="0.6669">
        <ele>2066</ele>
        <time>2018-08-08T13:58:38.000Z</time>
      </trkpt>
      <trkpt lat="42.69808" lon="0.6669">
        <ele>2066.1</ele>
        <time>2018-08-08T13:58:39.000Z</time>
      </trkpt>
      <trkpt lat="42.69807" lon="0.6669">
        <ele>2066.1</ele>
        <time>2018-08-08T13:58:40.000Z</time>
      </trkpt>
      <trkpt lat="42.69807" lon="0.6669">
        <ele>2066.2</ele>
        <time>2018-08-08T13:58:41.000Z</time>
      </trkpt>
      <trkpt lat="42.69807" lon="0.6669">
        <ele>2066.3</ele>
        <time>2018-08-08T13:58:42.000Z</time>
      </trkpt>
      <trkpt lat="42.69806" lon="0.66689">
        <ele>2066.5</ele>
        <time>2018-08-08T13:58:43.000Z</time>
      </trkpt>
      <trkpt lat="42.69806" lon="0.66688">
        <ele>2066.7</ele>
        <time>2018-08-08T13:58:44.000Z</time>
      </trkpt>
      <trkpt lat="42.69805" lon="0.66688">
        <ele>2066.9</ele>
        <time>2018-08-08T13:58:45.000Z</time>
      </trkpt>
      <trkpt lat="42.69805" lon="0.66687">
        <ele>2067.1</ele>
        <time>2018-08-08T13:58:46.000Z</time>
      </trkpt>
      <trkpt lat="42.69804" lon="0.66686">
        <ele>2067.3</ele>
        <time>2018-08-08T13:58:47.000Z</time>
      </trkpt>
      <trkpt lat="42.69804" lon="0.66685">
        <ele>2067.6</ele>
        <time>2018-08-08T13:58:48.000Z</time>
      </trkpt>
      <trkpt lat="42.69803" lon="0.66684">
        <ele>2067.8</ele>
        <time>2018-08-08T13:58:49.000Z</time>
      </trkpt>
      <trkpt lat="42.69803" lon="0.66683">
        <ele>2068</ele>
        <time>2018-08-08T13:58:50.000Z</time>
      </trkpt>
      <trkpt lat="42.69802" lon="0.66683">
        <ele>2068.2</ele>
        <time>2018-08-08T13:58:51.000Z</time>
      </trkpt>
      <trkpt lat="42.69802" lon="0.66682">
        <ele>2068.4</ele>
        <time>2018-08-08T13:58:52.000Z</time>
      </trkpt>
      <trkpt lat="42.69801" lon="0.66682">
        <ele>2068.5</ele>
        <time>2018-08-08T13:58:53.000Z</time>
      </trkpt>
      <trkpt lat="42.69801" lon="0.66682">
        <ele>2068.6</ele>
        <time>2018-08-08T13:58:54.000Z</time>
      </trkpt>
      <trkpt lat="42.698" lon="0.66682">
        <ele>2068.8</ele>
        <time>2018-08-08T13:58:55.000Z</time>
      </trkpt>
      <trkpt lat="42.698" lon="0.66682">
        <ele>2068.9</ele>
        <time>2018-08-08T13:58:56.000Z</time>
      </trkpt>
      <trkpt lat="42.69799" lon="0.66682">
        <ele>2069</ele>
        <time>2018-08-08T13:58:57.000Z</time>
      </trkpt>
      <trkpt lat="42.69799" lon="0.66682">
        <ele>2069.1</ele>
        <time>2018-08-08T13:58:58.000Z</time>
      </trkpt>
      <trkpt lat="42.69798" lon="0.66682">
        <ele>2069.2</ele>
        <time>2018-08-08T13:58:59.000Z</time>
      </trkpt>
      <trkpt lat="42.69798" lon="0.66682">
        <ele>2069.3</ele>
        <time>2018-08-08T13:59:00.000Z</time>
      </trkpt>
      <trkpt lat="42.69798" lon="0.66682">
        <ele>2069.3</ele>
        <time>2018-08-08T13:59:01.000Z</time>
      </trkpt>
      <trkpt lat="42.69798" lon="0.66682">
        <ele>2069.3</ele>
        <time>2018-08-08T13:59:02.000Z</time>
      </trkpt>
      <trkpt lat="42.69798" lon="0.66682">
        <ele>2069.4</ele>
        <time>2018-08-08T13:59:03.000Z</time>
      </trkpt>
      <trkpt lat="42.69798" lon="0.66682">
        <ele>2069.4</ele>
        <time>2018-08-08T13:59:04.000Z</time>
      </trkpt>
      <trkpt lat="42.69798" lon="0.66682">
        <ele>2069.4</ele>
        <time>2018-08-08T13:59:05.000Z</time>
      </trkpt>
      <trkpt lat="42.69798" lon="0.66682">
        <ele>2069.4</ele>
        <time>2018-08-08T13:59:06.000Z</time>
      </trkpt>
      <trkpt lat="42.69797" lon="0.66682">
        <ele>2069.4</ele>
        <time>2018-08-08T13:59:07.000Z</time>
      </trkpt>
      <trkpt lat="42.69797" lon="0.66682">
        <ele>2069.5</ele>
        <time>2018-08-08T13:59:08.000Z</time>
      </trkpt>
      <trkpt lat="42.69797" lon="0.66683">
        <ele>2069.5</ele>
        <time>2018-08-08T13:59:09.000Z</time>
      </trkpt>
      <trkpt lat="42.69796" lon="0.66683">
        <ele>2069.6</ele>
        <time>2018-08-08T13:59:10.000Z</time>
      </trkpt>
      <trkpt lat="42.69795" lon="0.66684">
        <ele>2069.7</ele>
        <time>2018-08-08T13:59:11.000Z</time>
      </trkpt>
      <trkpt lat="42.69795" lon="0.66684">
        <ele>2069.8</ele>
        <time>2018-08-08T13:59:12.000Z</time>
      </trkpt>
      <trkpt lat="42.69794" lon="0.66685">
        <ele>2069.8</ele>
        <time>2018-08-08T13:59:13.000Z</time>
      </trkpt>
      <trkpt lat="42.69794" lon="0.66686">
        <ele>2069.9</ele>
        <time>2018-08-08T13:59:14.000Z</time>
      </trkpt>
      <trkpt lat="42.69793" lon="0.66686">
        <ele>2069.9</ele>
        <time>2018-08-08T13:59:15.000Z</time>
      </trkpt>
      <trkpt lat="42.69793" lon="0.66687">
        <ele>2069.9</ele>
        <time>2018-08-08T13:59:16.000Z</time>
      </trkpt>
      <trkpt lat="42.69793" lon="0.66687">
        <ele>2069.9</ele>
        <time>2018-08-08T13:59:17.000Z</time>
      </trkpt>
      <trkpt lat="42.69793" lon="0.66688">
        <ele>2069.9</ele>
        <time>2018-08-08T13:59:18.000Z</time>
      </trkpt>
      <trkpt lat="42.69792" lon="0.66688">
        <ele>2069.9</ele>
        <time>2018-08-08T13:59:19.000Z</time>
      </trkpt>
      <trkpt lat="42.69792" lon="0.66688">
        <ele>2070</ele>
        <time>2018-08-08T13:59:20.000Z</time>
      </trkpt>
      <trkpt lat="42.69792" lon="0.66688">
        <ele>2070</ele>
        <time>2018-08-08T13:59:21.000Z</time>
      </trkpt>
      <trkpt lat="42.69792" lon="0.66688">
        <ele>2070.1</ele>
        <time>2018-08-08T13:59:22.000Z</time>
      </trkpt>
      <trkpt lat="42.69791" lon="0.66689">
        <ele>2070.2</ele>
        <time>2018-08-08T13:59:23.000Z</time>
      </trkpt>
      <trkpt lat="42.6979" lon="0.66689">
        <ele>2070.3</ele>
        <time>2018-08-08T13:59:24.000Z</time>
      </trkpt>
      <trkpt lat="42.6979" lon="0.66689">
        <ele>2070.4</ele>
        <time>2018-08-08T13:59:25.000Z</time>
      </trkpt>
      <trkpt lat="42.69789" lon="0.66689">
        <ele>2070.6</ele>
        <time>2018-08-08T13:59:26.000Z</time>
      </trkpt>
      <trkpt lat="42.69788" lon="0.66689">
        <ele>2070.8</ele>
        <time>2018-08-08T13:59:27.000Z</time>
      </trkpt>
      <trkpt lat="42.69787" lon="0.66689">
        <ele>2071</ele>
        <time>2018-08-08T13:59:28.000Z</time>
      </trkpt>
      <trkpt lat="42.69787" lon="0.66689">
        <ele>2071.2</ele>
        <time>2018-08-08T13:59:29.000Z</time>
      </trkpt>
      <trkpt lat="42.69786" lon="0.66689">
        <ele>2071.4</ele>
        <time>2018-08-08T13:59:30.000Z</time>
      </trkpt>
      <trkpt lat="42.69785" lon="0.66689">
        <ele>2071.5</ele>
        <time>2018-08-08T13:59:31.000Z</time>
      </trkpt>
      <trkpt lat="42.69784" lon="0.66689">
        <ele>2071.8</ele>
        <time>2018-08-08T13:59:32.000Z</time>
      </trkpt>
      <trkpt lat="42.69784" lon="0.66688">
        <ele>2071.9</ele>
        <time>2018-08-08T13:59:33.000Z</time>
      </trkpt>
      <trkpt lat="42.69783" lon="0.66688">
        <ele>2072.1</ele>
        <time>2018-08-08T13:59:34.000Z</time>
      </trkpt>
      <trkpt lat="42.69782" lon="0.66688">
        <ele>2072.3</ele>
        <time>2018-08-08T13:59:35.000Z</time>
      </trkpt>
      <trkpt lat="42.69781" lon="0.66688">
        <ele>2072.5</ele>
        <time>2018-08-08T13:59:36.000Z</time>
      </trkpt>
      <trkpt lat="42.69781" lon="0.66688">
        <ele>2072.7</ele>
        <time>2018-08-08T13:59:37.000Z</time>
      </trkpt>
      <trkpt lat="42.6978" lon="0.66688">
        <ele>2072.9</ele>
        <time>2018-08-08T13:59:38.000Z</time>
      </trkpt>
      <trkpt lat="42.69779" lon="0.66688">
        <ele>2073</ele>
        <time>2018-08-08T13:59:39.000Z</time>
      </trkpt>
      <trkpt lat="42.69778" lon="0.66688">
        <ele>2073.2</ele>
        <time>2018-08-08T13:59:40.000Z</time>
      </trkpt>
      <trkpt lat="42.69778" lon="0.66688">
        <ele>2073.4</ele>
        <time>2018-08-08T13:59:41.000Z</time>
      </trkpt>
      <trkpt lat="42.69777" lon="0.66688">
        <ele>2073.6</ele>
        <time>2018-08-08T13:59:42.000Z</time>
      </trkpt>
      <trkpt lat="42.69776" lon="0.66688">
        <ele>2073.8</ele>
        <time>2018-08-08T13:59:43.000Z</time>
      </trkpt>
      <trkpt lat="42.69775" lon="0.66688">
        <ele>2073.9</ele>
        <time>2018-08-08T13:59:44.000Z</time>
      </trkpt>
      <trkpt lat="42.69774" lon="0.66688">
        <ele>2074.1</ele>
        <time>2018-08-08T13:59:45.000Z</time>
      </trkpt>
      <trkpt lat="42.69774" lon="0.66688">
        <ele>2074.3</ele>
        <time>2018-08-08T13:59:46.000Z</time>
      </trkpt>
      <trkpt lat="42.69773" lon="0.66688">
        <ele>2074.5</ele>
        <time>2018-08-08T13:59:47.000Z</time>
      </trkpt>
      <trkpt lat="42.69772" lon="0.66689">
        <ele>2074.7</ele>
        <time>2018-08-08T13:59:48.000Z</time>
      </trkpt>
      <trkpt lat="42.69771" lon="0.66689">
        <ele>2075</ele>
        <time>2018-08-08T13:59:49.000Z</time>
      </trkpt>
      <trkpt lat="42.6977" lon="0.66689">
        <ele>2075.2</ele>
        <time>2018-08-08T13:59:50.000Z</time>
      </trkpt>
      <trkpt lat="42.69769" lon="0.66689">
        <ele>2075.4</ele>
        <time>2018-08-08T13:59:51.000Z</time>
      </trkpt>
      <trkpt lat="42.69768" lon="0.66689">
        <ele>2075.6</ele>
        <time>2018-08-08T13:59:52.000Z</time>
      </trkpt>
      <trkpt lat="42.69767" lon="0.66689">
        <ele>2075.8</ele>
        <time>2018-08-08T13:59:53.000Z</time>
      </trkpt>
      <trkpt lat="42.69766" lon="0.6669">
        <ele>2076.1</ele>
        <time>2018-08-08T13:59:54.000Z</time>
      </trkpt>
      <trkpt lat="42.69765" lon="0.6669">
        <ele>2076.3</ele>
        <time>2018-08-08T13:59:55.000Z</time>
      </trkpt>
      <trkpt lat="42.69764" lon="0.6669">
        <ele>2076.6</ele>
        <time>2018-08-08T13:59:56.000Z</time>
      </trkpt>
      <trkpt lat="42.69763" lon="0.6669">
        <ele>2076.8</ele>
        <time>2018-08-08T13:59:57.000Z</time>
      </trkpt>
      <trkpt lat="42.69761" lon="0.6669">
        <ele>2077</ele>
        <time>2018-08-08T13:59:58.000Z</time>
      </trkpt>
      <trkpt lat="42.6976" lon="0.6669">
        <ele>2077.2</ele>
        <time>2018-08-08T13:59:59.000Z</time>
      </trkpt>
      <trkpt lat="42.69759" lon="0.66691">
        <ele>2077.5</ele>
        <time>2018-08-08T14:00:00.000Z</time>
      </trkpt>
      <trkpt lat="42.69758" lon="0.66691">
        <ele>2077.7</ele>
        <time>2018-08-08T14:00:01.000Z</time>
      </trkpt>
      <trkpt lat="42.69757" lon="0.66691">
        <ele>2078</ele>
        <time>2018-08-08T14:00:02.000Z</time>
      </trkpt>
      <trkpt lat="42.69756" lon="0.66691">
        <ele>2078.2</ele>
        <time>2018-08-08T14:00:03.000Z</time>
      </trkpt>
      <trkpt lat="42.69755" lon="0.66691">
        <ele>2078.4</ele>
        <time>2018-08-08T14:00:04.000Z</time>
      </trkpt>
      <trkpt lat="42.69754" lon="0.66691">
        <ele>2078.7</ele>
        <time>2018-08-08T14:00:05.000Z</time>
      </trkpt>
      <trkpt lat="42.69753" lon="0.66691">
        <ele>2078.9</ele>
        <time>2018-08-08T14:00:06.000Z</time>
      </trkpt>
      <trkpt lat="42.69752" lon="0.6669">
        <ele>2079.2</ele>
        <time>2018-08-08T14:00:07.000Z</time>
      </trkpt>
      <trkpt lat="42.69751" lon="0.6669">
        <ele>2079.5</ele>
        <time>2018-08-08T14:00:08.000Z</time>
      </trkpt>
      <trkpt lat="42.6975" lon="0.6669">
        <ele>2079.8</ele>
        <time>2018-08-08T14:00:09.000Z</time>
      </trkpt>
      <trkpt lat="42.69749" lon="0.66689">
        <ele>2080</ele>
        <time>2018-08-08T14:00:10.000Z</time>
      </trkpt>
      <trkpt lat="42.69748" lon="0.66689">
        <ele>2080.1</ele>
        <time>2018-08-08T14:00:11.000Z</time>
      </trkpt>
      <trkpt lat="42.69747" lon="0.66688">
        <ele>2080.3</ele>
        <time>2018-08-08T14:00:12.000Z</time>
      </trkpt>
      <trkpt lat="42.69746" lon="0.66688">
        <ele>2080.4</ele>
        <time>2018-08-08T14:00:13.000Z</time>
      </trkpt>
      <trkpt lat="42.69745" lon="0.66688">
        <ele>2080.6</ele>
        <time>2018-08-08T14:00:14.000Z</time>
      </trkpt>
      <trkpt lat="42.69744" lon="0.66688">
        <ele>2080.7</ele>
        <time>2018-08-08T14:00:15.000Z</time>
      </trkpt>
      <trkpt lat="42.69743" lon="0.66688">
        <ele>2080.8</ele>
        <time>2018-08-08T14:00:16.000Z</time>
      </trkpt>
      <trkpt lat="42.69742" lon="0.66688">
        <ele>2080.9</ele>
        <time>2018-08-08T14:00:17.000Z</time>
      </trkpt>
      <trkpt lat="42.69741" lon="0.66689">
        <ele>2081</ele>
        <time>2018-08-08T14:00:18.000Z</time>
      </trkpt>
      <trkpt lat="42.6974" lon="0.66689">
        <ele>2081.1</ele>
        <time>2018-08-08T14:00:19.000Z</time>
      </trkpt>
      <trkpt lat="42.69739" lon="0.66689">
        <ele>2081.1</ele>
        <time>2018-08-08T14:00:20.000Z</time>
      </trkpt>
      <trkpt lat="42.69738" lon="0.6669">
        <ele>2081.2</ele>
        <time>2018-08-08T14:00:21.000Z</time>
      </trkpt>
      <trkpt lat="42.69737" lon="0.6669">
        <ele>2081.4</ele>
        <time>2018-08-08T14:00:22.000Z</time>
      </trkpt>
      <trkpt lat="42.69736" lon="0.6669">
        <ele>2081.5</ele>
        <time>2018-08-08T14:00:23.000Z</time>
      </trkpt>
      <trkpt lat="42.69735" lon="0.66689">
        <ele>2081.6</ele>
        <time>2018-08-08T14:00:24.000Z</time>
      </trkpt>
      <trkpt lat="42.69734" lon="0.66689">
        <ele>2081.8</ele>
        <time>2018-08-08T14:00:25.000Z</time>
      </trkpt>
      <trkpt lat="42.69733" lon="0.66689">
        <ele>2081.9</ele>
        <time>2018-08-08T14:00:26.000Z</time>
      </trkpt>
      <trkpt lat="42.69732" lon="0.66688">
        <ele>2082.1</ele>
        <time>2018-08-08T14:00:27.000Z</time>
      </trkpt>
      <trkpt lat="42.69731" lon="0.66688">
        <ele>2082.2</ele>
        <time>2018-08-08T14:00:28.000Z</time>
      </trkpt>
      <trkpt lat="42.6973" lon="0.66688">
        <ele>2082.4</ele>
        <time>2018-08-08T14:00:29.000Z</time>
      </trkpt>
      <trkpt lat="42.69729" lon="0.66687">
        <ele>2082.5</ele>
        <time>2018-08-08T14:00:30.000Z</time>
      </trkpt>
      <trkpt lat="42.69728" lon="0.66687">
        <ele>2082.7</ele>
        <time>2018-08-08T14:00:31.000Z</time>
      </trkpt>
      <trkpt lat="42.69727" lon="0.66687">
        <ele>2082.8</ele>
        <time>2018-08-08T14:00:32.000Z</time>
      </trkpt>
      <trkpt lat="42.69726" lon="0.66686">
        <ele>2083</ele>
        <time>2018-08-08T14:00:33.000Z</time>
      </trkpt>
      <trkpt lat="42.69725" lon="0.66686">
        <ele>2083.1</ele>
        <time>2018-08-08T14:00:34.000Z</time>
      </trkpt>
      <trkpt lat="42.69724" lon="0.66686">
        <ele>2083.2</ele>
        <time>2018-08-08T14:00:35.000Z</time>
      </trkpt>
      <trkpt lat="42.69723" lon="0.66685">
        <ele>2083.4</ele>
        <time>2018-08-08T14:00:36.000Z</time>
      </trkpt>
      <trkpt lat="42.69722" lon="0.66685">
        <ele>2083.6</ele>
        <time>2018-08-08T14:00:37.000Z</time>
      </trkpt>
      <trkpt lat="42.69721" lon="0.66684">
        <ele>2083.7</ele>
        <time>2018-08-08T14:00:38.000Z</time>
      </trkpt>
      <trkpt lat="42.69721" lon="0.66684">
        <ele>2083.9</ele>
        <time>2018-08-08T14:00:39.000Z</time>
      </trkpt>
      <trkpt lat="42.6972" lon="0.66683">
        <ele>2084</ele>
        <time>2018-08-08T14:00:40.000Z</time>
      </trkpt>
      <trkpt lat="42.69719" lon="0.66682">
        <ele>2084.2</ele>
        <time>2018-08-08T14:00:41.000Z</time>
      </trkpt>
      <trkpt lat="42.69718" lon="0.66682">
        <ele>2084.3</ele>
        <time>2018-08-08T14:00:42.000Z</time>
      </trkpt>
      <trkpt lat="42.69717" lon="0.66681">
        <ele>2084.4</ele>
        <time>2018-08-08T14:00:43.000Z</time>
      </trkpt>
      <trkpt lat="42.69717" lon="0.66681">
        <ele>2084.5</ele>
        <time>2018-08-08T14:00:44.000Z</time>
      </trkpt>
      <trkpt lat="42.69716" lon="0.66682">
        <ele>2084.5</ele>
        <time>2018-08-08T14:00:45.000Z</time>
      </trkpt>
      <trkpt lat="42.69715" lon="0.66682">
        <ele>2084.6</ele>
        <time>2018-08-08T14:00:46.000Z</time>
      </trkpt>
      <trkpt lat="42.69715" lon="0.66683">
        <ele>2084.6</ele>
        <time>2018-08-08T14:00:47.000Z</time>
      </trkpt>
      <trkpt lat="42.69714" lon="0.66684">
        <ele>2084.6</ele>
        <time>2018-08-08T14:00:48.000Z</time>
      </trkpt>
      <trkpt lat="42.69714" lon="0.66684">
        <ele>2084.6</ele>
        <time>2018-08-08T14:00:49.000Z</time>
      </trkpt>
      <trkpt lat="42.69713" lon="0.66685">
        <ele>2084.6</ele>
        <time>2018-08-08T14:00:50.000Z</time>
      </trkpt>
      <trkpt lat="42.69712" lon="0.66686">
        <ele>2084.7</ele>
        <time>2018-08-08T14:00:51.000Z</time>
      </trkpt>
      <trkpt lat="42.69712" lon="0.66686">
        <ele>2084.7</ele>
        <time>2018-08-08T14:00:52.000Z</time>
      </trkpt>
      <trkpt lat="42.69711" lon="0.66687">
        <ele>2084.8</ele>
        <time>2018-08-08T14:00:53.000Z</time>
      </trkpt>
      <trkpt lat="42.6971" lon="0.66687">
        <ele>2084.8</ele>
        <time>2018-08-08T14:00:54.000Z</time>
      </trkpt>
      <trkpt lat="42.6971" lon="0.66688">
        <ele>2084.9</ele>
        <time>2018-08-08T14:00:55.000Z</time>
      </trkpt>
      <trkpt lat="42.69709" lon="0.66688">
        <ele>2084.9</ele>
        <time>2018-08-08T14:00:56.000Z</time>
      </trkpt>
      <trkpt lat="42.69708" lon="0.66688">
        <ele>2085</ele>
        <time>2018-08-08T14:00:57.000Z</time>
      </trkpt>
      <trkpt lat="42.69707" lon="0.66689">
        <ele>2085.1</ele>
        <time>2018-08-08T14:00:58.000Z</time>
      </trkpt>
      <trkpt lat="42.69706" lon="0.66689">
        <ele>2085.1</ele>
        <time>2018-08-08T14:00:59.000Z</time>
      </trkpt>
      <trkpt lat="42.69706" lon="0.66689">
        <ele>2085.2</ele>
        <time>2018-08-08T14:01:00.000Z</time>
      </trkpt>
      <trkpt lat="42.69705" lon="0.6669">
        <ele>2085.3</ele>
        <time>2018-08-08T14:01:01.000Z</time>
      </trkpt>
      <trkpt lat="42.69704" lon="0.6669">
        <ele>2085.3</ele>
        <time>2018-08-08T14:01:02.000Z</time>
      </trkpt>
      <trkpt lat="42.69703" lon="0.6669">
        <ele>2085.4</ele>
        <time>2018-08-08T14:01:03.000Z</time>
      </trkpt>
      <trkpt lat="42.69703" lon="0.66691">
        <ele>2085.5</ele>
        <time>2018-08-08T14:01:04.000Z</time>
      </trkpt>
      <trkpt lat="42.69702" lon="0.66691">
        <ele>2085.5</ele>
        <time>2018-08-08T14:01:05.000Z</time>
      </trkpt>
      <trkpt lat="42.69701" lon="0.66692">
        <ele>2085.6</ele>
        <time>2018-08-08T14:01:06.000Z</time>
      </trkpt>
      <trkpt lat="42.697" lon="0.66692">
        <ele>2085.7</ele>
        <time>2018-08-08T14:01:07.000Z</time>
      </trkpt>
      <trkpt lat="42.69699" lon="0.66693">
        <ele>2085.8</ele>
        <time>2018-08-08T14:01:08.000Z</time>
      </trkpt>
      <trkpt lat="42.69699" lon="0.66693">
        <ele>2085.8</ele>
        <time>2018-08-08T14:01:09.000Z</time>
      </trkpt>
      <trkpt lat="42.69698" lon="0.66693">
        <ele>2085.9</ele>
        <time>2018-08-08T14:01:10.000Z</time>
      </trkpt>
      <trkpt lat="42.69697" lon="0.66694">
        <ele>2085.9</ele>
        <time>2018-08-08T14:01:11.000Z</time>
      </trkpt>
      <trkpt lat="42.69696" lon="0.66694">
        <ele>2086</ele>
        <time>2018-08-08T14:01:12.000Z</time>
      </trkpt>
      <trkpt lat="42.69695" lon="0.66695">
        <ele>2086.1</ele>
        <time>2018-08-08T14:01:13.000Z</time>
      </trkpt>
      <trkpt lat="42.69695" lon="0.66695">
        <ele>2086.2</ele>
        <time>2018-08-08T14:01:14.000Z</time>
      </trkpt>
      <trkpt lat="42.69694" lon="0.66696">
        <ele>2086.2</ele>
        <time>2018-08-08T14:01:15.000Z</time>
      </trkpt>
      <trkpt lat="42.69693" lon="0.66696">
        <ele>2086.3</ele>
        <time>2018-08-08T14:01:16.000Z</time>
      </trkpt>
      <trkpt lat="42.69693" lon="0.66696">
        <ele>2086.3</ele>
        <time>2018-08-08T14:01:17.000Z</time>
      </trkpt>
      <trkpt lat="42.69692" lon="0.66697">
        <ele>2086.4</ele>
        <time>2018-08-08T14:01:18.000Z</time>
      </trkpt>
      <trkpt lat="42.69691" lon="0.66697">
        <ele>2086.5</ele>
        <time>2018-08-08T14:01:19.000Z</time>
      </trkpt>
      <trkpt lat="42.69691" lon="0.66697">
        <ele>2086.5</ele>
        <time>2018-08-08T14:01:20.000Z</time>
      </trkpt>
      <trkpt lat="42.69691" lon="0.66697">
        <ele>2086.5</ele>
        <time>2018-08-08T14:01:21.000Z</time>
      </trkpt>
      <trkpt lat="42.6969" lon="0.66697">
        <ele>2086.6</ele>
        <time>2018-08-08T14:01:22.000Z</time>
      </trkpt>
      <trkpt lat="42.6969" lon="0.66697">
        <ele>2086.6</ele>
        <time>2018-08-08T14:01:23.000Z</time>
      </trkpt>
      <trkpt lat="42.6969" lon="0.66697">
        <ele>2086.7</ele>
        <time>2018-08-08T14:01:24.000Z</time>
      </trkpt>
      <trkpt lat="42.69689" lon="0.66697">
        <ele>2086.7</ele>
        <time>2018-08-08T14:01:25.000Z</time>
      </trkpt>
      <trkpt lat="42.69689" lon="0.66697">
        <ele>2086.7</ele>
        <time>2018-08-08T14:01:26.000Z</time>
      </trkpt>
      <trkpt lat="42.69689" lon="0.66697">
        <ele>2086.8</ele>
        <time>2018-08-08T14:01:27.000Z</time>
      </trkpt>
      <trkpt lat="42.69689" lon="0.66697">
        <ele>2086.8</ele>
        <time>2018-08-08T14:01:28.000Z</time>
      </trkpt>
      <trkpt lat="42.69688" lon="0.66697">
        <ele>2086.8</ele>
        <time>2018-08-08T14:01:29.000Z</time>
      </trkpt>
      <trkpt lat="42.69688" lon="0.66697">
        <ele>2086.9</ele>
        <time>2018-08-08T14:01:30.000Z</time>
      </trkpt>
      <trkpt lat="42.69687" lon="0.66696">
        <ele>2087</ele>
        <time>2018-08-08T14:01:31.000Z</time>
      </trkpt>
      <trkpt lat="42.69687" lon="0.66696">
        <ele>2087.1</ele>
        <time>2018-08-08T14:01:32.000Z</time>
      </trkpt>
      <trkpt lat="42.69686" lon="0.66695">
        <ele>2087.2</ele>
        <time>2018-08-08T14:01:33.000Z</time>
      </trkpt>
      <trkpt lat="42.69686" lon="0.66695">
        <ele>2087.3</ele>
        <time>2018-08-08T14:01:34.000Z</time>
      </trkpt>
      <trkpt lat="42.69685" lon="0.66694">
        <ele>2087.4</ele>
        <time>2018-08-08T14:01:35.000Z</time>
      </trkpt>
      <trkpt lat="42.69684" lon="0.66694">
        <ele>2087.5</ele>
        <time>2018-08-08T14:01:36.000Z</time>
      </trkpt>
      <trkpt lat="42.69684" lon="0.66694">
        <ele>2087.6</ele>
        <time>2018-08-08T14:01:37.000Z</time>
      </trkpt>
      <trkpt lat="42.69683" lon="0.66693">
        <ele>2087.7</ele>
        <time>2018-08-08T14:01:38.000Z</time>
      </trkpt>
      <trkpt lat="42.69682" lon="0.66693">
        <ele>2087.9</ele>
        <time>2018-08-08T14:01:39.000Z</time>
      </trkpt>
      <trkpt lat="42.69681" lon="0.66692">
        <ele>2088</ele>
        <time>2018-08-08T14:01:40.000Z</time>
      </trkpt>
      <trkpt lat="42.6968" lon="0.66692">
        <ele>2088.1</ele>
        <time>2018-08-08T14:01:41.000Z</time>
      </trkpt>
      <trkpt lat="42.6968" lon="0.66692">
        <ele>2088.2</ele>
        <time>2018-08-08T14:01:42.000Z</time>
      </trkpt>
      <trkpt lat="42.69679" lon="0.66692">
        <ele>2088.3</ele>
        <time>2018-08-08T14:01:43.000Z</time>
      </trkpt>
      <trkpt lat="42.69678" lon="0.66692">
        <ele>2088.4</ele>
        <time>2018-08-08T14:01:44.000Z</time>
      </trkpt>
      <trkpt lat="42.69677" lon="0.66692">
        <ele>2088.5</ele>
        <time>2018-08-08T14:01:45.000Z</time>
      </trkpt>
      <trkpt lat="42.69676" lon="0.66692">
        <ele>2088.6</ele>
        <time>2018-08-08T14:01:46.000Z</time>
      </trkpt>
      <trkpt lat="42.69676" lon="0.66692">
        <ele>2088.7</ele>
        <time>2018-08-08T14:01:47.000Z</time>
      </trkpt>
      <trkpt lat="42.69675" lon="0.66692">
        <ele>2088.8</ele>
        <time>2018-08-08T14:01:48.000Z</time>
      </trkpt>
      <trkpt lat="42.69674" lon="0.66692">
        <ele>2088.9</ele>
        <time>2018-08-08T14:01:49.000Z</time>
      </trkpt>
      <trkpt lat="42.69673" lon="0.66692">
        <ele>2089</ele>
        <time>2018-08-08T14:01:50.000Z</time>
      </trkpt>
      <trkpt lat="42.69673" lon="0.66692">
        <ele>2089.1</ele>
        <time>2018-08-08T14:01:51.000Z</time>
      </trkpt>
      <trkpt lat="42.69672" lon="0.66693">
        <ele>2089.1</ele>
        <time>2018-08-08T14:01:52.000Z</time>
      </trkpt>
      <trkpt lat="42.69671" lon="0.66693">
        <ele>2089.2</ele>
        <time>2018-08-08T14:01:53.000Z</time>
      </trkpt>
      <trkpt lat="42.6967" lon="0.66693">
        <ele>2089.3</ele>
        <time>2018-08-08T14:01:54.000Z</time>
      </trkpt>
      <trkpt lat="42.69669" lon="0.66694">
        <ele>2089.4</ele>
        <time>2018-08-08T14:01:55.000Z</time>
      </trkpt>
      <trkpt lat="42.69669" lon="0.66694">
        <ele>2089.5</ele>
        <time>2018-08-08T14:01:56.000Z</time>
      </trkpt>
      <trkpt lat="42.69668" lon="0.66695">
        <ele>2089.5</ele>
        <time>2018-08-08T14:01:57.000Z</time>
      </trkpt>
      <trkpt lat="42.69667" lon="0.66695">
        <ele>2089.6</ele>
        <time>2018-08-08T14:01:58.000Z</time>
      </trkpt>
      <trkpt lat="42.69666" lon="0.66696">
        <ele>2089.7</ele>
        <time>2018-08-08T14:01:59.000Z</time>
      </trkpt>
      <trkpt lat="42.69665" lon="0.66696">
        <ele>2089.8</ele>
        <time>2018-08-08T14:02:00.000Z</time>
      </trkpt>
      <trkpt lat="42.69665" lon="0.66697">
        <ele>2089.8</ele>
        <time>2018-08-08T14:02:01.000Z</time>
      </trkpt>
      <trkpt lat="42.69664" lon="0.66697">
        <ele>2089.9</ele>
        <time>2018-08-08T14:02:02.000Z</time>
      </trkpt>
      <trkpt lat="42.69663" lon="0.66698">
        <ele>2090</ele>
        <time>2018-08-08T14:02:03.000Z</time>
      </trkpt>
      <trkpt lat="42.69662" lon="0.66698">
        <ele>2090</ele>
        <time>2018-08-08T14:02:04.000Z</time>
      </trkpt>
      <trkpt lat="42.69662" lon="0.66699">
        <ele>2090.1</ele>
        <time>2018-08-08T14:02:05.000Z</time>
      </trkpt>
      <trkpt lat="42.69661" lon="0.66699">
        <ele>2090.2</ele>
        <time>2018-08-08T14:02:06.000Z</time>
      </trkpt>
      <trkpt lat="42.6966" lon="0.667">
        <ele>2090.2</ele>
        <time>2018-08-08T14:02:07.000Z</time>
      </trkpt>
      <trkpt lat="42.6966" lon="0.667">
        <ele>2090.3</ele>
        <time>2018-08-08T14:02:08.000Z</time>
      </trkpt>
      <trkpt lat="42.69659" lon="0.66701">
        <ele>2090.4</ele>
        <time>2018-08-08T14:02:09.000Z</time>
      </trkpt>
      <trkpt lat="42.69658" lon="0.66701">
        <ele>2090.4</ele>
        <time>2018-08-08T14:02:10.000Z</time>
      </trkpt>
      <trkpt lat="42.69657" lon="0.66702">
        <ele>2090.5</ele>
        <time>2018-08-08T14:02:11.000Z</time>
      </trkpt>
      <trkpt lat="42.69657" lon="0.66702">
        <ele>2090.6</ele>
        <time>2018-08-08T14:02:12.000Z</time>
      </trkpt>
      <trkpt lat="42.69656" lon="0.66703">
        <ele>2090.6</ele>
        <time>2018-08-08T14:02:13.000Z</time>
      </trkpt>
      <trkpt lat="42.69655" lon="0.66703">
        <ele>2090.7</ele>
        <time>2018-08-08T14:02:14.000Z</time>
      </trkpt>
      <trkpt lat="42.69655" lon="0.66703">
        <ele>2090.8</ele>
        <time>2018-08-08T14:02:15.000Z</time>
      </trkpt>
      <trkpt lat="42.69654" lon="0.66704">
        <ele>2090.9</ele>
        <time>2018-08-08T14:02:16.000Z</time>
      </trkpt>
      <trkpt lat="42.69653" lon="0.66704">
        <ele>2091</ele>
        <time>2018-08-08T14:02:17.000Z</time>
      </trkpt>
      <trkpt lat="42.69652" lon="0.66704">
        <ele>2091.1</ele>
        <time>2018-08-08T14:02:18.000Z</time>
      </trkpt>
      <trkpt lat="42.69652" lon="0.66704">
        <ele>2091.1</ele>
        <time>2018-08-08T14:02:19.000Z</time>
      </trkpt>
      <trkpt lat="42.69651" lon="0.66705">
        <ele>2091.2</ele>
        <time>2018-08-08T14:02:20.000Z</time>
      </trkpt>
      <trkpt lat="42.6965" lon="0.66705">
        <ele>2091.3</ele>
        <time>2018-08-08T14:02:21.000Z</time>
      </trkpt>
      <trkpt lat="42.69649" lon="0.66705">
        <ele>2091.4</ele>
        <time>2018-08-08T14:02:22.000Z</time>
      </trkpt>
      <trkpt lat="42.69649" lon="0.66706">
        <ele>2091.5</ele>
        <time>2018-08-08T14:02:23.000Z</time>
      </trkpt>
      <trkpt lat="42.69648" lon="0.66706">
        <ele>2091.6</ele>
        <time>2018-08-08T14:02:24.000Z</time>
      </trkpt>
      <trkpt lat="42.69647" lon="0.66707">
        <ele>2091.6</ele>
        <time>2018-08-08T14:02:25.000Z</time>
      </trkpt>
      <trkpt lat="42.69647" lon="0.66707">
        <ele>2091.7</ele>
        <time>2018-08-08T14:02:26.000Z</time>
      </trkpt>
      <trkpt lat="42.69646" lon="0.66708">
        <ele>2091.7</ele>
        <time>2018-08-08T14:02:27.000Z</time>
      </trkpt>
      <trkpt lat="42.69646" lon="0.66708">
        <ele>2091.7</ele>
        <time>2018-08-08T14:02:28.000Z</time>
      </trkpt>
      <trkpt lat="42.69646" lon="0.66708">
        <ele>2091.8</ele>
        <time>2018-08-08T14:02:29.000Z</time>
      </trkpt>
      <trkpt lat="42.69645" lon="0.66709">
        <ele>2091.8</ele>
        <time>2018-08-08T14:02:30.000Z</time>
      </trkpt>
      <trkpt lat="42.69645" lon="0.66709">
        <ele>2091.8</ele>
        <time>2018-08-08T14:02:31.000Z</time>
      </trkpt>
      <trkpt lat="42.69645" lon="0.66709">
        <ele>2091.8</ele>
        <time>2018-08-08T14:02:32.000Z</time>
      </trkpt>
      <trkpt lat="42.69645" lon="0.66709">
        <ele>2091.8</ele>
        <time>2018-08-08T14:02:33.000Z</time>
      </trkpt>
      <trkpt lat="42.69645" lon="0.66709">
        <ele>2091.8</ele>
        <time>2018-08-08T14:02:34.000Z</time>
      </trkpt>
      <trkpt lat="42.69645" lon="0.66709">
        <ele>2091.8</ele>
        <time>2018-08-08T14:02:35.000Z</time>
      </trkpt>
      <trkpt lat="42.69645" lon="0.66709">
        <ele>2091.8</ele>
        <time>2018-08-08T14:02:36.000Z</time>
      </trkpt>
      <trkpt lat="42.69645" lon="0.66709">
        <ele>2091.8</ele>
        <time>2018-08-08T14:02:37.000Z</time>
      </trkpt>
      <trkpt lat="42.69645" lon="0.66709">
        <ele>2091.8</ele>
        <time>2018-08-08T14:02:38.000Z</time>
      </trkpt>
      <trkpt lat="42.69645" lon="0.66709">
        <ele>2091.8</ele>
        <time>2018-08-08T14:02:39.000Z</time>
      </trkpt>
      <trkpt lat="42.69645" lon="0.66709">
        <ele>2091.8</ele>
        <time>2018-08-08T14:02:40.000Z</time>
      </trkpt>
      <trkpt lat="42.69645" lon="0.66709">
        <ele>2091.8</ele>
        <time>2018-08-08T14:02:41.000Z</time>
      </trkpt>
      <trkpt lat="42.69645" lon="0.66709">
        <ele>2091.8</ele>
        <time>2018-08-08T14:02:42.000Z</time>
      </trkpt>
      <trkpt lat="42.69645" lon="0.66709">
        <ele>2091.8</ele>
        <time>2018-08-08T14:02:43.000Z</time>
      </trkpt>
      <trkpt lat="42.69645" lon="0.66709">
        <ele>2091.8</ele>
        <time>2018-08-08T14:02:44.000Z</time>
      </trkpt>
      <trkpt lat="42.69645" lon="0.66709">
        <ele>2091.8</ele>
        <time>2018-08-08T14:02:45.000Z</time>
      </trkpt>
      <trkpt lat="42.69645" lon="0.66709">
        <ele>2091.9</ele>
        <time>2018-08-08T14:02:46.000Z</time>
      </trkpt>
      <trkpt lat="42.69645" lon="0.66709">
        <ele>2091.9</ele>
        <time>2018-08-08T14:02:47.000Z</time>
      </trkpt>
      <trkpt lat="42.69645" lon="0.66709">
        <ele>2091.9</ele>
        <time>2018-08-08T14:02:48.000Z</time>
      </trkpt>
      <trkpt lat="42.69645" lon="0.66709">
        <ele>2091.9</ele>
        <time>2018-08-08T14:02:49.000Z</time>
      </trkpt>
      <trkpt lat="42.69645" lon="0.66709">
        <ele>2091.9</ele>
        <time>2018-08-08T14:02:50.000Z</time>
      </trkpt>
      <trkpt lat="42.69645" lon="0.66709">
        <ele>2091.9</ele>
        <time>2018-08-08T14:02:51.000Z</time>
      </trkpt>
      <trkpt lat="42.69645" lon="0.66709">
        <ele>2091.9</ele>
        <time>2018-08-08T14:02:52.000Z</time>
      </trkpt>
      <trkpt lat="42.69645" lon="0.66709">
        <ele>2091.9</ele>
        <time>2018-08-08T14:02:53.000Z</time>
      </trkpt>
      <trkpt lat="42.69645" lon="0.66709">
        <ele>2091.9</ele>
        <time>2018-08-08T14:02:54.000Z</time>
      </trkpt>
      <trkpt lat="42.69645" lon="0.66709">
        <ele>2091.9</ele>
        <time>2018-08-08T14:02:55.000Z</time>
      </trkpt>
      <trkpt lat="42.69645" lon="0.66709">
        <ele>2091.9</ele>
        <time>2018-08-08T14:02:56.000Z</time>
      </trkpt>
      <trkpt lat="42.69645" lon="0.6671">
        <ele>2091.9</ele>
        <time>2018-08-08T14:02:57.000Z</time>
      </trkpt>
      <trkpt lat="42.69645" lon="0.6671">
        <ele>2091.9</ele>
        <time>2018-08-08T14:02:58.000Z</time>
      </trkpt>
      <trkpt lat="42.69645" lon="0.6671">
        <ele>2091.9</ele>
        <time>2018-08-08T14:02:59.000Z</time>
      </trkpt>
      <trkpt lat="42.69645" lon="0.6671">
        <ele>2091.9</ele>
        <time>2018-08-08T14:03:00.000Z</time>
      </trkpt>
      <trkpt lat="42.69645" lon="0.6671">
        <ele>2091.9</ele>
        <time>2018-08-08T14:03:01.000Z</time>
      </trkpt>
      <trkpt lat="42.69645" lon="0.6671">
        <ele>2091.9</ele>
        <time>2018-08-08T14:03:02.000Z</time>
      </trkpt>
      <trkpt lat="42.69645" lon="0.6671">
        <ele>2091.9</ele>
        <time>2018-08-08T14:03:03.000Z</time>
      </trkpt>
      <trkpt lat="42.69644" lon="0.6671">
        <ele>2091.9</ele>
        <time>2018-08-08T14:03:04.000Z</time>
      </trkpt>
      <trkpt lat="42.69644" lon="0.6671">
        <ele>2091.9</ele>
        <time>2018-08-08T14:03:05.000Z</time>
      </trkpt>
      <trkpt lat="42.69644" lon="0.6671">
        <ele>2091.9</ele>
        <time>2018-08-08T14:03:06.000Z</time>
      </trkpt>
      <trkpt lat="42.69644" lon="0.6671">
        <ele>2091.9</ele>
        <time>2018-08-08T14:03:07.000Z</time>
      </trkpt>
      <trkpt lat="42.69644" lon="0.6671">
        <ele>2091.9</ele>
        <time>2018-08-08T14:03:08.000Z</time>
      </trkpt>
      <trkpt lat="42.69644" lon="0.6671">
        <ele>2091.9</ele>
        <time>2018-08-08T14:03:09.000Z</time>
      </trkpt>
      <trkpt lat="42.69644" lon="0.6671">
        <ele>2091.9</ele>
        <time>2018-08-08T14:03:10.000Z</time>
      </trkpt>
      <trkpt lat="42.69644" lon="0.6671">
        <ele>2091.9</ele>
        <time>2018-08-08T14:03:11.000Z</time>
      </trkpt>
      <trkpt lat="42.69644" lon="0.6671">
        <ele>2091.9</ele>
        <time>2018-08-08T14:03:12.000Z</time>
      </trkpt>
      <trkpt lat="42.69644" lon="0.6671">
        <ele>2091.9</ele>
        <time>2018-08-08T14:03:13.000Z</time>
      </trkpt>
      <trkpt lat="42.69644" lon="0.6671">
        <ele>2091.9</ele>
        <time>2018-08-08T14:03:14.000Z</time>
      </trkpt>
      <trkpt lat="42.69644" lon="0.6671">
        <ele>2091.9</ele>
        <time>2018-08-08T14:03:15.000Z</time>
      </trkpt>
      <trkpt lat="42.69644" lon="0.6671">
        <ele>2091.9</ele>
        <time>2018-08-08T14:03:16.000Z</time>
      </trkpt>
      <trkpt lat="42.69644" lon="0.6671">
        <ele>2091.9</ele>
        <time>2018-08-08T14:03:17.000Z</time>
      </trkpt>
      <trkpt lat="42.69644" lon="0.6671">
        <ele>2091.9</ele>
        <time>2018-08-08T14:03:18.000Z</time>
      </trkpt>
      <trkpt lat="42.69644" lon="0.6671">
        <ele>2091.9</ele>
        <time>2018-08-08T14:03:19.000Z</time>
      </trkpt>
      <trkpt lat="42.69644" lon="0.6671">
        <ele>2091.9</ele>
        <time>2018-08-08T14:03:20.000Z</time>
      </trkpt>
      <trkpt lat="42.69644" lon="0.6671">
        <ele>2091.9</ele>
        <time>2018-08-08T14:03:21.000Z</time>
      </trkpt>
      <trkpt lat="42.69644" lon="0.6671">
        <ele>2091.9</ele>
        <time>2018-08-08T14:03:22.000Z</time>
      </trkpt>
      <trkpt lat="42.69644" lon="0.6671">
        <ele>2091.9</ele>
        <time>2018-08-08T14:03:23.000Z</time>
      </trkpt>
      <trkpt lat="42.69644" lon="0.6671">
        <ele>2091.9</ele>
        <time>2018-08-08T14:03:24.000Z</time>
      </trkpt>
      <trkpt lat="42.69644" lon="0.6671">
        <ele>2091.9</ele>
        <time>2018-08-08T14:03:25.000Z</time>
      </trkpt>
      <trkpt lat="42.69644" lon="0.6671">
        <ele>2091.9</ele>
        <time>2018-08-08T14:03:26.000Z</time>
      </trkpt>
      <trkpt lat="42.69644" lon="0.6671">
        <ele>2091.9</ele>
        <time>2018-08-08T14:03:27.000Z</time>
      </trkpt>
      <trkpt lat="42.69644" lon="0.6671">
        <ele>2091.9</ele>
        <time>2018-08-08T14:03:28.000Z</time>
      </trkpt>
      <trkpt lat="42.69644" lon="0.6671">
        <ele>2091.9</ele>
        <time>2018-08-08T14:03:29.000Z</time>
      </trkpt>
      <trkpt lat="42.69644" lon="0.6671">
        <ele>2091.9</ele>
        <time>2018-08-08T14:03:30.000Z</time>
      </trkpt>
      <trkpt lat="42.69644" lon="0.6671">
        <ele>2091.9</ele>
        <time>2018-08-08T14:03:31.000Z</time>
      </trkpt>
      <trkpt lat="42.69644" lon="0.6671">
        <ele>2091.9</ele>
        <time>2018-08-08T14:03:32.000Z</time>
      </trkpt>
      <trkpt lat="42.69644" lon="0.6671">
        <ele>2091.9</ele>
        <time>2018-08-08T14:03:33.000Z</time>
      </trkpt>
      <trkpt lat="42.69644" lon="0.6671">
        <ele>2091.9</ele>
        <time>2018-08-08T14:03:34.000Z</time>
      </trkpt>
      <trkpt lat="42.69644" lon="0.6671">
        <ele>2091.9</ele>
        <time>2018-08-08T14:03:35.000Z</time>
      </trkpt>
      <trkpt lat="42.69644" lon="0.6671">
        <ele>2091.9</ele>
        <time>2018-08-08T14:03:36.000Z</time>
      </trkpt>
      <trkpt lat="42.69644" lon="0.6671">
        <ele>2091.9</ele>
        <time>2018-08-08T14:03:37.000Z</time>
      </trkpt>
      <trkpt lat="42.69644" lon="0.6671">
        <ele>2091.9</ele>
        <time>2018-08-08T14:03:38.000Z</time>
      </trkpt>
      <trkpt lat="42.69644" lon="0.6671">
        <ele>2091.9</ele>
        <time>2018-08-08T14:03:39.000Z</time>
      </trkpt>
      <trkpt lat="42.69644" lon="0.6671">
        <ele>2091.9</ele>
        <time>2018-08-08T14:03:40.000Z</time>
      </trkpt>
      <trkpt lat="42.69644" lon="0.6671">
        <ele>2091.9</ele>
        <time>2018-08-08T14:03:41.000Z</time>
      </trkpt>
      <trkpt lat="42.69644" lon="0.6671">
        <ele>2091.9</ele>
        <time>2018-08-08T14:03:42.000Z</time>
      </trkpt>
      <trkpt lat="42.69644" lon="0.6671">
        <ele>2091.9</ele>
        <time>2018-08-08T14:03:43.000Z</time>
      </trkpt>
      <trkpt lat="42.69644" lon="0.6671">
        <ele>2091.9</ele>
        <time>2018-08-08T14:03:44.000Z</time>
      </trkpt>
      <trkpt lat="42.69644" lon="0.6671">
        <ele>2091.9</ele>
        <time>2018-08-08T14:03:45.000Z</time>
      </trkpt>
      <trkpt lat="42.69644" lon="0.6671">
        <ele>2091.9</ele>
        <time>2018-08-08T14:03:46.000Z</time>
      </trkpt>
      <trkpt lat="42.69644" lon="0.6671">
        <ele>2091.9</ele>
        <time>2018-08-08T14:03:47.000Z</time>
      </trkpt>
      <trkpt lat="42.69644" lon="0.6671">
        <ele>2091.9</ele>
        <time>2018-08-08T14:03:48.000Z</time>
      </trkpt>
      <trkpt lat="42.69644" lon="0.6671">
        <ele>2091.9</ele>
        <time>2018-08-08T14:03:49.000Z</time>
      </trkpt>
      <trkpt lat="42.69644" lon="0.6671">
        <ele>2091.9</ele>
        <time>2018-08-08T14:03:50.000Z</time>
      </trkpt>
      <trkpt lat="42.69644" lon="0.6671">
        <ele>2091.9</ele>
        <time>2018-08-08T14:03:51.000Z</time>
      </trkpt>
      <trkpt lat="42.69644" lon="0.6671">
        <ele>2091.9</ele>
        <time>2018-08-08T14:03:52.000Z</time>
      </trkpt>
      <trkpt lat="42.69644" lon="0.6671">
        <ele>2091.9</ele>
        <time>2018-08-08T14:03:53.000Z</time>
      </trkpt>
      <trkpt lat="42.69644" lon="0.6671">
        <ele>2091.9</ele>
        <time>2018-08-08T14:03:54.000Z</time>
      </trkpt>
      <trkpt lat="42.69644" lon="0.6671">
        <ele>2091.9</ele>
        <time>2018-08-08T14:03:55.000Z</time>
      </trkpt>
      <trkpt lat="42.69644" lon="0.6671">
        <ele>2091.9</ele>
        <time>2018-08-08T14:03:56.000Z</time>
      </trkpt>
      <trkpt lat="42.69644" lon="0.6671">
        <ele>2091.9</ele>
        <time>2018-08-08T14:03:57.000Z</time>
      </trkpt>
      <trkpt lat="42.69644" lon="0.6671">
        <ele>2091.9</ele>
        <time>2018-08-08T14:03:58.000Z</time>
      </trkpt>
      <trkpt lat="42.69644" lon="0.6671">
        <ele>2091.9</ele>
        <time>2018-08-08T14:03:59.000Z</time>
      </trkpt>
      <trkpt lat="42.69644" lon="0.6671">
        <ele>2091.9</ele>
        <time>2018-08-08T14:04:00.000Z</time>
      </trkpt>
      <trkpt lat="42.69644" lon="0.6671">
        <ele>2091.9</ele>
        <time>2018-08-08T14:04:01.000Z</time>
      </trkpt>
      <trkpt lat="42.69644" lon="0.6671">
        <ele>2091.9</ele>
        <time>2018-08-08T14:04:02.000Z</time>
      </trkpt>
      <trkpt lat="42.69644" lon="0.6671">
        <ele>2091.9</ele>
        <time>2018-08-08T14:04:03.000Z</time>
      </trkpt>
      <trkpt lat="42.69644" lon="0.6671">
        <ele>2091.9</ele>
        <time>2018-08-08T14:04:04.000Z</time>
      </trkpt>
      <trkpt lat="42.69644" lon="0.6671">
        <ele>2091.9</ele>
        <time>2018-08-08T14:04:05.000Z</time>
      </trkpt>
      <trkpt lat="42.69644" lon="0.6671">
        <ele>2091.9</ele>
        <time>2018-08-08T14:04:06.000Z</time>
      </trkpt>
      <trkpt lat="42.69644" lon="0.6671">
        <ele>2091.9</ele>
        <time>2018-08-08T14:04:07.000Z</time>
      </trkpt>
      <trkpt lat="42.69644" lon="0.6671">
        <ele>2091.9</ele>
        <time>2018-08-08T14:04:08.000Z</time>
      </trkpt>
      <trkpt lat="42.69644" lon="0.6671">
        <ele>2091.9</ele>
        <time>2018-08-08T14:04:09.000Z</time>
      </trkpt>
      <trkpt lat="42.69644" lon="0.6671">
        <ele>2091.9</ele>
        <time>2018-08-08T14:04:10.000Z</time>
      </trkpt>
      <trkpt lat="42.69644" lon="0.6671">
        <ele>2091.9</ele>
        <time>2018-08-08T14:04:11.000Z</time>
      </trkpt>
      <trkpt lat="42.69644" lon="0.6671">
        <ele>2091.9</ele>
        <time>2018-08-08T14:04:12.000Z</time>
      </trkpt>
      <trkpt lat="42.69644" lon="0.6671">
        <ele>2091.9</ele>
        <time>2018-08-08T14:04:13.000Z</time>
      </trkpt>
      <trkpt lat="42.69644" lon="0.6671">
        <ele>2091.9</ele>
        <time>2018-08-08T14:04:14.000Z</time>
      </trkpt>
      <trkpt lat="42.69644" lon="0.6671">
        <ele>2091.9</ele>
        <time>2018-08-08T14:04:15.000Z</time>
      </trkpt>
      <trkpt lat="42.69644" lon="0.6671">
        <ele>2091.9</ele>
        <time>2018-08-08T14:04:16.000Z</time>
      </trkpt>
      <trkpt lat="42.69644" lon="0.6671">
        <ele>2091.9</ele>
        <time>2018-08-08T14:04:17.000Z</time>
      </trkpt>
      <trkpt lat="42.69644" lon="0.6671">
        <ele>2091.9</ele>
        <time>2018-08-08T14:04:18.000Z</time>
      </trkpt>
      <trkpt lat="42.69644" lon="0.6671">
        <ele>2091.9</ele>
        <time>2018-08-08T14:04:19.000Z</time>
      </trkpt>
      <trkpt lat="42.69644" lon="0.6671">
        <ele>2091.9</ele>
        <time>2018-08-08T14:04:20.000Z</time>
      </trkpt>
      <trkpt lat="42.69644" lon="0.6671">
        <ele>2091.9</ele>
        <time>2018-08-08T14:04:21.000Z</time>
      </trkpt>
      <trkpt lat="42.69644" lon="0.6671">
        <ele>2091.9</ele>
        <time>2018-08-08T14:04:22.000Z</time>
      </trkpt>
      <trkpt lat="42.69644" lon="0.6671">
        <ele>2091.9</ele>
        <time>2018-08-08T14:04:23.000Z</time>
      </trkpt>
      <trkpt lat="42.69644" lon="0.6671">
        <ele>2091.9</ele>
        <time>2018-08-08T14:04:24.000Z</time>
      </trkpt>
      <trkpt lat="42.69644" lon="0.6671">
        <ele>2091.9</ele>
        <time>2018-08-08T14:04:25.000Z</time>
      </trkpt>
      <trkpt lat="42.69644" lon="0.6671">
        <ele>2091.9</ele>
        <time>2018-08-08T14:04:26.000Z</time>
      </trkpt>
      <trkpt lat="42.69644" lon="0.6671">
        <ele>2091.9</ele>
        <time>2018-08-08T14:04:27.000Z</time>
      </trkpt>
      <trkpt lat="42.69644" lon="0.6671">
        <ele>2091.9</ele>
        <time>2018-08-08T14:04:28.000Z</time>
      </trkpt>
      <trkpt lat="42.69644" lon="0.6671">
        <ele>2091.9</ele>
        <time>2018-08-08T14:04:29.000Z</time>
      </trkpt>
      <trkpt lat="42.69644" lon="0.6671">
        <ele>2091.9</ele>
        <time>2018-08-08T14:04:30.000Z</time>
      </trkpt>
      <trkpt lat="42.69644" lon="0.6671">
        <ele>2091.9</ele>
        <time>2018-08-08T14:04:31.000Z</time>
      </trkpt>
      <trkpt lat="42.69644" lon="0.6671">
        <ele>2091.9</ele>
        <time>2018-08-08T14:04:32.000Z</time>
      </trkpt>
      <trkpt lat="42.69644" lon="0.6671">
        <ele>2091.9</ele>
        <time>2018-08-08T14:04:33.000Z</time>
      </trkpt>
      <trkpt lat="42.69644" lon="0.6671">
        <ele>2091.9</ele>
        <time>2018-08-08T14:04:34.000Z</time>
      </trkpt>
      <trkpt lat="42.69644" lon="0.6671">
        <ele>2091.9</ele>
        <time>2018-08-08T14:04:35.000Z</time>
      </trkpt>
      <trkpt lat="42.69644" lon="0.6671">
        <ele>2091.9</ele>
        <time>2018-08-08T14:04:36.000Z</time>
      </trkpt>
      <trkpt lat="42.69644" lon="0.6671">
        <ele>2091.9</ele>
        <time>2018-08-08T14:04:37.000Z</time>
      </trkpt>
      <trkpt lat="42.69644" lon="0.6671">
        <ele>2091.9</ele>
        <time>2018-08-08T14:04:38.000Z</time>
      </trkpt>
      <trkpt lat="42.69644" lon="0.6671">
        <ele>2091.9</ele>
        <time>2018-08-08T14:04:39.000Z</time>
      </trkpt>
      <trkpt lat="42.69644" lon="0.6671">
        <ele>2091.9</ele>
        <time>2018-08-08T14:04:40.000Z</time>
      </trkpt>
      <trkpt lat="42.69644" lon="0.6671">
        <ele>2091.9</ele>
        <time>2018-08-08T14:04:41.000Z</time>
      </trkpt>
      <trkpt lat="42.69644" lon="0.6671">
        <ele>2091.9</ele>
        <time>2018-08-08T14:04:42.000Z</time>
      </trkpt>
      <trkpt lat="42.69644" lon="0.6671">
        <ele>2091.9</ele>
        <time>2018-08-08T14:04:43.000Z</time>
      </trkpt>
      <trkpt lat="42.69644" lon="0.6671">
        <ele>2091.9</ele>
        <time>2018-08-08T14:04:44.000Z</time>
      </trkpt>
      <trkpt lat="42.69644" lon="0.6671">
        <ele>2091.9</ele>
        <time>2018-08-08T14:04:45.000Z</time>
      </trkpt>
      <trkpt lat="42.69644" lon="0.6671">
        <ele>2091.9</ele>
        <time>2018-08-08T14:04:46.000Z</time>
      </trkpt>
      <trkpt lat="42.69644" lon="0.6671">
        <ele>2092</ele>
        <time>2018-08-08T14:04:47.000Z</time>
      </trkpt>
      <trkpt lat="42.69644" lon="0.6671">
        <ele>2092</ele>
        <time>2018-08-08T14:04:48.000Z</time>
      </trkpt>
      <trkpt lat="42.69644" lon="0.6671">
        <ele>2092</ele>
        <time>2018-08-08T14:04:49.000Z</time>
      </trkpt>
      <trkpt lat="42.69644" lon="0.6671">
        <ele>2092</ele>
        <time>2018-08-08T14:04:50.000Z</time>
      </trkpt>
      <trkpt lat="42.69644" lon="0.6671">
        <ele>2092</ele>
        <time>2018-08-08T14:04:51.000Z</time>
      </trkpt>
      <trkpt lat="42.69644" lon="0.6671">
        <ele>2092</ele>
        <time>2018-08-08T14:04:52.000Z</time>
      </trkpt>
      <trkpt lat="42.69644" lon="0.6671">
        <ele>2092</ele>
        <time>2018-08-08T14:04:53.000Z</time>
      </trkpt>
      <trkpt lat="42.69644" lon="0.6671">
        <ele>2092</ele>
        <time>2018-08-08T14:04:54.000Z</time>
      </trkpt>
      <trkpt lat="42.69644" lon="0.6671">
        <ele>2092</ele>
        <time>2018-08-08T14:04:55.000Z</time>
      </trkpt>
      <trkpt lat="42.69644" lon="0.6671">
        <ele>2092</ele>
        <time>2018-08-08T14:04:56.000Z</time>
      </trkpt>
      <trkpt lat="42.69643" lon="0.6671">
        <ele>2092.1</ele>
        <time>2018-08-08T14:04:57.000Z</time>
      </trkpt>
      <trkpt lat="42.69642" lon="0.66709">
        <ele>2092.3</ele>
        <time>2018-08-08T14:04:58.000Z</time>
      </trkpt>
      <trkpt lat="42.69641" lon="0.66709">
        <ele>2092.4</ele>
        <time>2018-08-08T14:04:59.000Z</time>
      </trkpt>
      <trkpt lat="42.6964" lon="0.66709">
        <ele>2092.5</ele>
        <time>2018-08-08T14:05:00.000Z</time>
      </trkpt>
      <trkpt lat="42.69639" lon="0.66709">
        <ele>2092.6</ele>
        <time>2018-08-08T14:05:01.000Z</time>
      </trkpt>
      <trkpt lat="42.69639" lon="0.66709">
        <ele>2092.7</ele>
        <time>2018-08-08T14:05:02.000Z</time>
      </trkpt>
      <trkpt lat="42.69638" lon="0.66709">
        <ele>2092.8</ele>
        <time>2018-08-08T14:05:03.000Z</time>
      </trkpt>
      <trkpt lat="42.69637" lon="0.66709">
        <ele>2092.9</ele>
        <time>2018-08-08T14:05:04.000Z</time>
      </trkpt>
      <trkpt lat="42.69636" lon="0.66709">
        <ele>2093.1</ele>
        <time>2018-08-08T14:05:05.000Z</time>
      </trkpt>
      <trkpt lat="42.69635" lon="0.66708">
        <ele>2093.2</ele>
        <time>2018-08-08T14:05:06.000Z</time>
      </trkpt>
      <trkpt lat="42.69634" lon="0.66708">
        <ele>2093.3</ele>
        <time>2018-08-08T14:05:07.000Z</time>
      </trkpt>
      <trkpt lat="42.69633" lon="0.66708">
        <ele>2093.4</ele>
        <time>2018-08-08T14:05:08.000Z</time>
      </trkpt>
      <trkpt lat="42.69632" lon="0.66707">
        <ele>2093.6</ele>
        <time>2018-08-08T14:05:09.000Z</time>
      </trkpt>
      <trkpt lat="42.69631" lon="0.66707">
        <ele>2093.7</ele>
        <time>2018-08-08T14:05:10.000Z</time>
      </trkpt>
      <trkpt lat="42.6963" lon="0.66706">
        <ele>2093.8</ele>
        <time>2018-08-08T14:05:11.000Z</time>
      </trkpt>
      <trkpt lat="42.6963" lon="0.66706">
        <ele>2094</ele>
        <time>2018-08-08T14:05:12.000Z</time>
      </trkpt>
      <trkpt lat="42.69629" lon="0.66705">
        <ele>2094.1</ele>
        <time>2018-08-08T14:05:13.000Z</time>
      </trkpt>
      <trkpt lat="42.69628" lon="0.66705">
        <ele>2094.2</ele>
        <time>2018-08-08T14:05:14.000Z</time>
      </trkpt>
      <trkpt lat="42.69627" lon="0.66704">
        <ele>2094.3</ele>
        <time>2018-08-08T14:05:15.000Z</time>
      </trkpt>
      <trkpt lat="42.69626" lon="0.66704">
        <ele>2094.4</ele>
        <time>2018-08-08T14:05:16.000Z</time>
      </trkpt>
      <trkpt lat="42.69626" lon="0.66703">
        <ele>2094.5</ele>
        <time>2018-08-08T14:05:17.000Z</time>
      </trkpt>
      <trkpt lat="42.69625" lon="0.66702">
        <ele>2094.6</ele>
        <time>2018-08-08T14:05:18.000Z</time>
      </trkpt>
      <trkpt lat="42.69625" lon="0.66702">
        <ele>2094.7</ele>
        <time>2018-08-08T14:05:19.000Z</time>
      </trkpt>
      <trkpt lat="42.69624" lon="0.66701">
        <ele>2094.8</ele>
        <time>2018-08-08T14:05:20.000Z</time>
      </trkpt>
      <trkpt lat="42.69623" lon="0.667">
        <ele>2094.9</ele>
        <time>2018-08-08T14:05:21.000Z</time>
      </trkpt>
      <trkpt lat="42.69623" lon="0.66699">
        <ele>2095</ele>
        <time>2018-08-08T14:05:22.000Z</time>
      </trkpt>
      <trkpt lat="42.69622" lon="0.66699">
        <ele>2095.1</ele>
        <time>2018-08-08T14:05:23.000Z</time>
      </trkpt>
      <trkpt lat="42.69622" lon="0.66698">
        <ele>2095.1</ele>
        <time>2018-08-08T14:05:24.000Z</time>
      </trkpt>
      <trkpt lat="42.69621" lon="0.66698">
        <ele>2095.2</ele>
        <time>2018-08-08T14:05:25.000Z</time>
      </trkpt>
      <trkpt lat="42.69621" lon="0.66697">
        <ele>2095.3</ele>
        <time>2018-08-08T14:05:26.000Z</time>
      </trkpt>
      <trkpt lat="42.6962" lon="0.66697">
        <ele>2095.4</ele>
        <time>2018-08-08T14:05:27.000Z</time>
      </trkpt>
      <trkpt lat="42.69619" lon="0.66696">
        <ele>2095.5</ele>
        <time>2018-08-08T14:05:28.000Z</time>
      </trkpt>
      <trkpt lat="42.69619" lon="0.66696">
        <ele>2095.6</ele>
        <time>2018-08-08T14:05:29.000Z</time>
      </trkpt>
      <trkpt lat="42.69618" lon="0.66695">
        <ele>2095.7</ele>
        <time>2018-08-08T14:05:30.000Z</time>
      </trkpt>
      <trkpt lat="42.69618" lon="0.66695">
        <ele>2095.8</ele>
        <time>2018-08-08T14:05:31.000Z</time>
      </trkpt>
      <trkpt lat="42.69617" lon="0.66694">
        <ele>2095.8</ele>
        <time>2018-08-08T14:05:32.000Z</time>
      </trkpt>
      <trkpt lat="42.69616" lon="0.66694">
        <ele>2095.9</ele>
        <time>2018-08-08T14:05:33.000Z</time>
      </trkpt>
      <trkpt lat="42.69616" lon="0.66693">
        <ele>2096</ele>
        <time>2018-08-08T14:05:34.000Z</time>
      </trkpt>
      <trkpt lat="42.69615" lon="0.66693">
        <ele>2096.1</ele>
        <time>2018-08-08T14:05:35.000Z</time>
      </trkpt>
      <trkpt lat="42.69614" lon="0.66692">
        <ele>2096.2</ele>
        <time>2018-08-08T14:05:36.000Z</time>
      </trkpt>
      <trkpt lat="42.69614" lon="0.66691">
        <ele>2096.3</ele>
        <time>2018-08-08T14:05:37.000Z</time>
      </trkpt>
      <trkpt lat="42.69613" lon="0.66691">
        <ele>2096.4</ele>
        <time>2018-08-08T14:05:38.000Z</time>
      </trkpt>
      <trkpt lat="42.69612" lon="0.6669">
        <ele>2096.5</ele>
        <time>2018-08-08T14:05:39.000Z</time>
      </trkpt>
      <trkpt lat="42.69612" lon="0.6669">
        <ele>2096.6</ele>
        <time>2018-08-08T14:05:40.000Z</time>
      </trkpt>
      <trkpt lat="42.69611" lon="0.66689">
        <ele>2096.7</ele>
        <time>2018-08-08T14:05:41.000Z</time>
      </trkpt>
      <trkpt lat="42.6961" lon="0.66689">
        <ele>2096.8</ele>
        <time>2018-08-08T14:05:42.000Z</time>
      </trkpt>
      <trkpt lat="42.6961" lon="0.66688">
        <ele>2096.9</ele>
        <time>2018-08-08T14:05:43.000Z</time>
      </trkpt>
      <trkpt lat="42.69609" lon="0.66688">
        <ele>2096.9</ele>
        <time>2018-08-08T14:05:44.000Z</time>
      </trkpt>
      <trkpt lat="42.69608" lon="0.66687">
        <ele>2097</ele>
        <time>2018-08-08T14:05:45.000Z</time>
      </trkpt>
      <trkpt lat="42.69608" lon="0.66687">
        <ele>2097.1</ele>
        <time>2018-08-08T14:05:46.000Z</time>
      </trkpt>
      <trkpt lat="42.69607" lon="0.66686">
        <ele>2097.2</ele>
        <time>2018-08-08T14:05:47.000Z</time>
      </trkpt>
      <trkpt lat="42.69607" lon="0.66686">
        <ele>2097.2</ele>
        <time>2018-08-08T14:05:48.000Z</time>
      </trkpt>
      <trkpt lat="42.69606" lon="0.66685">
        <ele>2097.3</ele>
        <time>2018-08-08T14:05:49.000Z</time>
      </trkpt>
      <trkpt lat="42.69606" lon="0.66685">
        <ele>2097.4</ele>
        <time>2018-08-08T14:05:50.000Z</time>
      </trkpt>
      <trkpt lat="42.69606" lon="0.66684">
        <ele>2097.4</ele>
        <time>2018-08-08T14:05:51.000Z</time>
      </trkpt>
      <trkpt lat="42.69606" lon="0.66683">
        <ele>2097.4</ele>
        <time>2018-08-08T14:05:52.000Z</time>
      </trkpt>
      <trkpt lat="42.69606" lon="0.66682">
        <ele>2097.4</ele>
        <time>2018-08-08T14:05:53.000Z</time>
      </trkpt>
      <trkpt lat="42.69606" lon="0.66681">
        <ele>2097.4</ele>
        <time>2018-08-08T14:05:54.000Z</time>
      </trkpt>
      <trkpt lat="42.69606" lon="0.6668">
        <ele>2097.4</ele>
        <time>2018-08-08T14:05:55.000Z</time>
      </trkpt>
      <trkpt lat="42.69606" lon="0.66679">
        <ele>2097.4</ele>
        <time>2018-08-08T14:05:56.000Z</time>
      </trkpt>
      <trkpt lat="42.69606" lon="0.66679">
        <ele>2097.4</ele>
        <time>2018-08-08T14:05:57.000Z</time>
      </trkpt>
      <trkpt lat="42.69607" lon="0.66678">
        <ele>2097.3</ele>
        <time>2018-08-08T14:05:58.000Z</time>
      </trkpt>
      <trkpt lat="42.69607" lon="0.66677">
        <ele>2097.3</ele>
        <time>2018-08-08T14:05:59.000Z</time>
      </trkpt>
      <trkpt lat="42.69607" lon="0.66677">
        <ele>2097.3</ele>
        <time>2018-08-08T14:06:00.000Z</time>
      </trkpt>
      <trkpt lat="42.69607" lon="0.66677">
        <ele>2097.3</ele>
        <time>2018-08-08T14:06:01.000Z</time>
      </trkpt>
      <trkpt lat="42.69607" lon="0.66677">
        <ele>2097.3</ele>
        <time>2018-08-08T14:06:02.000Z</time>
      </trkpt>
      <trkpt lat="42.69607" lon="0.66677">
        <ele>2097.3</ele>
        <time>2018-08-08T14:06:03.000Z</time>
      </trkpt>
      <trkpt lat="42.69607" lon="0.66677">
        <ele>2097.3</ele>
        <time>2018-08-08T14:06:04.000Z</time>
      </trkpt>
      <trkpt lat="42.69607" lon="0.66677">
        <ele>2097.3</ele>
        <time>2018-08-08T14:06:05.000Z</time>
      </trkpt>
      <trkpt lat="42.69607" lon="0.66677">
        <ele>2097.3</ele>
        <time>2018-08-08T14:06:06.000Z</time>
      </trkpt>
      <trkpt lat="42.69607" lon="0.66677">
        <ele>2097.4</ele>
        <time>2018-08-08T14:06:07.000Z</time>
      </trkpt>
      <trkpt lat="42.69607" lon="0.66677">
        <ele>2097.4</ele>
        <time>2018-08-08T14:06:08.000Z</time>
      </trkpt>
      <trkpt lat="42.69607" lon="0.66677">
        <ele>2097.4</ele>
        <time>2018-08-08T14:06:09.000Z</time>
      </trkpt>
      <trkpt lat="42.69607" lon="0.66677">
        <ele>2097.4</ele>
        <time>2018-08-08T14:06:10.000Z</time>
      </trkpt>
      <trkpt lat="42.69607" lon="0.66677">
        <ele>2097.4</ele>
        <time>2018-08-08T14:06:11.000Z</time>
      </trkpt>
      <trkpt lat="42.69607" lon="0.66677">
        <ele>2097.4</ele>
        <time>2018-08-08T14:06:12.000Z</time>
      </trkpt>
      <trkpt lat="42.69607" lon="0.66677">
        <ele>2097.4</ele>
        <time>2018-08-08T14:06:13.000Z</time>
      </trkpt>
      <trkpt lat="42.69607" lon="0.66677">
        <ele>2097.4</ele>
        <time>2018-08-08T14:06:14.000Z</time>
      </trkpt>
      <trkpt lat="42.69607" lon="0.66677">
        <ele>2097.4</ele>
        <time>2018-08-08T14:06:15.000Z</time>
      </trkpt>
      <trkpt lat="42.69607" lon="0.66677">
        <ele>2097.4</ele>
        <time>2018-08-08T14:06:16.000Z</time>
      </trkpt>
      <trkpt lat="42.69607" lon="0.66677">
        <ele>2097.4</ele>
        <time>2018-08-08T14:06:17.000Z</time>
      </trkpt>
      <trkpt lat="42.69607" lon="0.66677">
        <ele>2097.4</ele>
        <time>2018-08-08T14:06:18.000Z</time>
      </trkpt>
      <trkpt lat="42.69607" lon="0.66677">
        <ele>2097.4</ele>
        <time>2018-08-08T14:06:19.000Z</time>
      </trkpt>
      <trkpt lat="42.69607" lon="0.66677">
        <ele>2097.4</ele>
        <time>2018-08-08T14:06:20.000Z</time>
      </trkpt>
      <trkpt lat="42.69607" lon="0.66677">
        <ele>2097.4</ele>
        <time>2018-08-08T14:06:21.000Z</time>
      </trkpt>
      <trkpt lat="42.69607" lon="0.66677">
        <ele>2097.4</ele>
        <time>2018-08-08T14:06:22.000Z</time>
      </trkpt>
      <trkpt lat="42.69607" lon="0.66677">
        <ele>2097.4</ele>
        <time>2018-08-08T14:06:23.000Z</time>
      </trkpt>
      <trkpt lat="42.69607" lon="0.66677">
        <ele>2097.4</ele>
        <time>2018-08-08T14:06:24.000Z</time>
      </trkpt>
      <trkpt lat="42.69607" lon="0.66677">
        <ele>2097.4</ele>
        <time>2018-08-08T14:06:25.000Z</time>
      </trkpt>
      <trkpt lat="42.69607" lon="0.66677">
        <ele>2097.4</ele>
        <time>2018-08-08T14:06:26.000Z</time>
      </trkpt>
      <trkpt lat="42.69607" lon="0.66677">
        <ele>2097.4</ele>
        <time>2018-08-08T14:06:27.000Z</time>
      </trkpt>
      <trkpt lat="42.69607" lon="0.66677">
        <ele>2097.4</ele>
        <time>2018-08-08T14:06:28.000Z</time>
      </trkpt>
      <trkpt lat="42.69607" lon="0.66677">
        <ele>2097.4</ele>
        <time>2018-08-08T14:06:29.000Z</time>
      </trkpt>
      <trkpt lat="42.69607" lon="0.66677">
        <ele>2097.4</ele>
        <time>2018-08-08T14:06:30.000Z</time>
      </trkpt>
      <trkpt lat="42.69607" lon="0.66677">
        <ele>2097.4</ele>
        <time>2018-08-08T14:06:31.000Z</time>
      </trkpt>
      <trkpt lat="42.69607" lon="0.66677">
        <ele>2097.4</ele>
        <time>2018-08-08T14:06:32.000Z</time>
      </trkpt>
      <trkpt lat="42.69607" lon="0.66677">
        <ele>2097.4</ele>
        <time>2018-08-08T14:06:33.000Z</time>
      </trkpt>
      <trkpt lat="42.69607" lon="0.66677">
        <ele>2097.4</ele>
        <time>2018-08-08T14:06:34.000Z</time>
      </trkpt>
      <trkpt lat="42.69607" lon="0.66677">
        <ele>2097.4</ele>
        <time>2018-08-08T14:06:35.000Z</time>
      </trkpt>
      <trkpt lat="42.69607" lon="0.66677">
        <ele>2097.4</ele>
        <time>2018-08-08T14:06:36.000Z</time>
      </trkpt>
      <trkpt lat="42.69607" lon="0.66677">
        <ele>2097.4</ele>
        <time>2018-08-08T14:06:37.000Z</time>
      </trkpt>
      <trkpt lat="42.69607" lon="0.66677">
        <ele>2097.4</ele>
        <time>2018-08-08T14:06:38.000Z</time>
      </trkpt>
      <trkpt lat="42.69607" lon="0.66677">
        <ele>2097.4</ele>
        <time>2018-08-08T14:06:39.000Z</time>
      </trkpt>
      <trkpt lat="42.69607" lon="0.66677">
        <ele>2097.4</ele>
        <time>2018-08-08T14:06:40.000Z</time>
      </trkpt>
      <trkpt lat="42.69607" lon="0.66677">
        <ele>2097.4</ele>
        <time>2018-08-08T14:06:41.000Z</time>
      </trkpt>
      <trkpt lat="42.69607" lon="0.66677">
        <ele>2097.4</ele>
        <time>2018-08-08T14:06:42.000Z</time>
      </trkpt>
      <trkpt lat="42.69607" lon="0.66677">
        <ele>2097.4</ele>
        <time>2018-08-08T14:06:43.000Z</time>
      </trkpt>
      <trkpt lat="42.69607" lon="0.66677">
        <ele>2097.4</ele>
        <time>2018-08-08T14:06:44.000Z</time>
      </trkpt>
      <trkpt lat="42.69607" lon="0.66677">
        <ele>2097.4</ele>
        <time>2018-08-08T14:06:45.000Z</time>
      </trkpt>
      <trkpt lat="42.69607" lon="0.66677">
        <ele>2097.3</ele>
        <time>2018-08-08T14:06:46.000Z</time>
      </trkpt>
      <trkpt lat="42.69607" lon="0.66677">
        <ele>2097.3</ele>
        <time>2018-08-08T14:06:47.000Z</time>
      </trkpt>
      <trkpt lat="42.69607" lon="0.66677">
        <ele>2097.3</ele>
        <time>2018-08-08T14:21:21.000Z</time>
      </trkpt>
      <trkpt lat="42.69632" lon="0.66699">
        <ele>2093.8</ele>
        <time>2018-08-08T14:21:22.000Z</time>
      </trkpt>
      <trkpt lat="42.69644" lon="0.66709">
        <ele>2092</ele>
        <time>2018-08-08T14:21:23.000Z</time>
      </trkpt>
      <trkpt lat="42.69645" lon="0.6671">
        <ele>2091.8</ele>
        <time>2018-08-08T14:21:24.000Z</time>
      </trkpt>
      <trkpt lat="42.69644" lon="0.6671">
        <ele>2091.9</ele>
        <time>2018-08-08T14:21:25.000Z</time>
      </trkpt>
      <trkpt lat="42.69645" lon="0.6671">
        <ele>2091.9</ele>
        <time>2018-08-08T14:21:26.000Z</time>
      </trkpt>
      <trkpt lat="42.69645" lon="0.6671">
        <ele>2091.8</ele>
        <time>2018-08-08T14:21:27.000Z</time>
      </trkpt>
      <trkpt lat="42.69645" lon="0.6671">
        <ele>2091.8</ele>
        <time>2018-08-08T14:21:28.000Z</time>
      </trkpt>
      <trkpt lat="42.69645" lon="0.6671">
        <ele>2091.8</ele>
        <time>2018-08-08T14:21:29.000Z</time>
      </trkpt>
      <trkpt lat="42.69645" lon="0.6671">
        <ele>2091.9</ele>
        <time>2018-08-08T14:21:30.000Z</time>
      </trkpt>
      <trkpt lat="42.69645" lon="0.6671">
        <ele>2091.9</ele>
        <time>2018-08-08T14:21:31.000Z</time>
      </trkpt>
      <trkpt lat="42.69645" lon="0.6671">
        <ele>2091.9</ele>
        <time>2018-08-08T14:21:32.000Z</time>
      </trkpt>
      <trkpt lat="42.69645" lon="0.6671">
        <ele>2091.9</ele>
        <time>2018-08-08T14:21:33.000Z</time>
      </trkpt>
      <trkpt lat="42.69645" lon="0.6671">
        <ele>2091.9</ele>
        <time>2018-08-08T14:21:34.000Z</time>
      </trkpt>
      <trkpt lat="42.69645" lon="0.6671">
        <ele>2091.9</ele>
        <time>2018-08-08T14:21:35.000Z</time>
      </trkpt>
      <trkpt lat="42.69645" lon="0.6671">
        <ele>2091.9</ele>
        <time>2018-08-08T14:21:36.000Z</time>
      </trkpt>
      <trkpt lat="42.69645" lon="0.6671">
        <ele>2091.9</ele>
        <time>2018-08-08T14:21:37.000Z</time>
      </trkpt>
      <trkpt lat="42.69645" lon="0.6671">
        <ele>2091.9</ele>
        <time>2018-08-08T14:21:38.000Z</time>
      </trkpt>
      <trkpt lat="42.69645" lon="0.66711">
        <ele>2091.8</ele>
        <time>2018-08-08T14:21:39.000Z</time>
      </trkpt>
      <trkpt lat="42.69645" lon="0.66711">
        <ele>2091.8</ele>
        <time>2018-08-08T14:21:40.000Z</time>
      </trkpt>
      <trkpt lat="42.69645" lon="0.6671">
        <ele>2091.9</ele>
        <time>2018-08-08T14:21:41.000Z</time>
      </trkpt>
      <trkpt lat="42.69645" lon="0.6671">
        <ele>2091.9</ele>
        <time>2018-08-08T14:21:42.000Z</time>
      </trkpt>
      <trkpt lat="42.69645" lon="0.6671">
        <ele>2091.9</ele>
        <time>2018-08-08T14:21:43.000Z</time>
      </trkpt>
      <trkpt lat="42.69645" lon="0.6671">
        <ele>2091.9</ele>
        <time>2018-08-08T14:21:44.000Z</time>
      </trkpt>
      <trkpt lat="42.69645" lon="0.6671">
        <ele>2091.9</ele>
        <time>2018-08-08T14:21:45.000Z</time>
      </trkpt>
      <trkpt lat="42.69645" lon="0.66711">
        <ele>2091.8</ele>
        <time>2018-08-08T14:21:46.000Z</time>
      </trkpt>
      <trkpt lat="42.69645" lon="0.66711">
        <ele>2091.7</ele>
        <time>2018-08-08T14:21:47.000Z</time>
      </trkpt>
      <trkpt lat="42.69646" lon="0.66713">
        <ele>2091.6</ele>
        <time>2018-08-08T14:21:48.000Z</time>
      </trkpt>
      <trkpt lat="42.69647" lon="0.66714">
        <ele>2091.5</ele>
        <time>2018-08-08T14:21:49.000Z</time>
      </trkpt>
      <trkpt lat="42.69647" lon="0.66715">
        <ele>2091.3</ele>
        <time>2018-08-08T14:21:50.000Z</time>
      </trkpt>
      <trkpt lat="42.69648" lon="0.66717">
        <ele>2091.2</ele>
        <time>2018-08-08T14:21:51.000Z</time>
      </trkpt>
      <trkpt lat="42.69648" lon="0.66718">
        <ele>2091.1</ele>
        <time>2018-08-08T14:21:52.000Z</time>
      </trkpt>
      <trkpt lat="42.69649" lon="0.66719">
        <ele>2090.9</ele>
        <time>2018-08-08T14:21:53.000Z</time>
      </trkpt>
      <trkpt lat="42.6965" lon="0.66719">
        <ele>2090.8</ele>
        <time>2018-08-08T14:21:54.000Z</time>
      </trkpt>
      <trkpt lat="42.69651" lon="0.6672">
        <ele>2090.7</ele>
        <time>2018-08-08T14:21:55.000Z</time>
      </trkpt>
      <trkpt lat="42.69651" lon="0.6672">
        <ele>2090.6</ele>
        <time>2018-08-08T14:21:56.000Z</time>
      </trkpt>
      <trkpt lat="42.69652" lon="0.6672">
        <ele>2090.5</ele>
        <time>2018-08-08T14:21:57.000Z</time>
      </trkpt>
      <trkpt lat="42.69652" lon="0.6672">
        <ele>2090.4</ele>
        <time>2018-08-08T14:21:58.000Z</time>
      </trkpt>
      <trkpt lat="42.69653" lon="0.66721">
        <ele>2090.3</ele>
        <time>2018-08-08T14:21:59.000Z</time>
      </trkpt>
      <trkpt lat="42.69654" lon="0.66721">
        <ele>2090.2</ele>
        <time>2018-08-08T14:22:00.000Z</time>
      </trkpt>
      <trkpt lat="42.69654" lon="0.66722">
        <ele>2090.1</ele>
        <time>2018-08-08T14:22:01.000Z</time>
      </trkpt>
      <trkpt lat="42.69655" lon="0.66722">
        <ele>2090</ele>
        <time>2018-08-08T14:22:02.000Z</time>
      </trkpt>
      <trkpt lat="42.69655" lon="0.66723">
        <ele>2089.9</ele>
        <time>2018-08-08T14:22:03.000Z</time>
      </trkpt>
      <trkpt lat="42.69656" lon="0.66724">
        <ele>2089.8</ele>
        <time>2018-08-08T14:22:04.000Z</time>
      </trkpt>
      <trkpt lat="42.69656" lon="0.66725">
        <ele>2089.7</ele>
        <time>2018-08-08T14:22:05.000Z</time>
      </trkpt>
      <trkpt lat="42.69657" lon="0.66725">
        <ele>2089.6</ele>
        <time>2018-08-08T14:22:06.000Z</time>
      </trkpt>
      <trkpt lat="42.69657" lon="0.66726">
        <ele>2089.5</ele>
        <time>2018-08-08T14:22:07.000Z</time>
      </trkpt>
      <trkpt lat="42.69658" lon="0.66728">
        <ele>2089.3</ele>
        <time>2018-08-08T14:22:08.000Z</time>
      </trkpt>
      <trkpt lat="42.69659" lon="0.66729">
        <ele>2089.2</ele>
        <time>2018-08-08T14:22:09.000Z</time>
      </trkpt>
      <trkpt lat="42.69659" lon="0.6673">
        <ele>2089.1</ele>
        <time>2018-08-08T14:22:10.000Z</time>
      </trkpt>
      <trkpt lat="42.6966" lon="0.66731">
        <ele>2088.9</ele>
        <time>2018-08-08T14:22:11.000Z</time>
      </trkpt>
      <trkpt lat="42.6966" lon="0.66732">
        <ele>2088.8</ele>
        <time>2018-08-08T14:22:12.000Z</time>
      </trkpt>
      <trkpt lat="42.69661" lon="0.66733">
        <ele>2088.6</ele>
        <time>2018-08-08T14:22:13.000Z</time>
      </trkpt>
      <trkpt lat="42.69662" lon="0.66734">
        <ele>2088.5</ele>
        <time>2018-08-08T14:22:14.000Z</time>
      </trkpt>
      <trkpt lat="42.69662" lon="0.66735">
        <ele>2088.3</ele>
        <time>2018-08-08T14:22:15.000Z</time>
      </trkpt>
      <trkpt lat="42.69663" lon="0.66737">
        <ele>2088.2</ele>
        <time>2018-08-08T14:22:16.000Z</time>
      </trkpt>
      <trkpt lat="42.69664" lon="0.66738">
        <ele>2088</ele>
        <time>2018-08-08T14:22:17.000Z</time>
      </trkpt>
      <trkpt lat="42.69664" lon="0.66739">
        <ele>2087.9</ele>
        <time>2018-08-08T14:22:18.000Z</time>
      </trkpt>
      <trkpt lat="42.69665" lon="0.6674">
        <ele>2087.8</ele>
        <time>2018-08-08T14:22:19.000Z</time>
      </trkpt>
      <trkpt lat="42.69666" lon="0.66741">
        <ele>2087.6</ele>
        <time>2018-08-08T14:22:20.000Z</time>
      </trkpt>
      <trkpt lat="42.69666" lon="0.66742">
        <ele>2087.5</ele>
        <time>2018-08-08T14:22:21.000Z</time>
      </trkpt>
      <trkpt lat="42.69667" lon="0.66743">
        <ele>2087.3</ele>
        <time>2018-08-08T14:22:22.000Z</time>
      </trkpt>
      <trkpt lat="42.69667" lon="0.66744">
        <ele>2087.2</ele>
        <time>2018-08-08T14:22:23.000Z</time>
      </trkpt>
      <trkpt lat="42.69668" lon="0.66745">
        <ele>2087</ele>
        <time>2018-08-08T14:22:24.000Z</time>
      </trkpt>
      <trkpt lat="42.69669" lon="0.66746">
        <ele>2086.9</ele>
        <time>2018-08-08T14:22:25.000Z</time>
      </trkpt>
      <trkpt lat="42.69669" lon="0.66747">
        <ele>2086.7</ele>
        <time>2018-08-08T14:22:26.000Z</time>
      </trkpt>
      <trkpt lat="42.6967" lon="0.66748">
        <ele>2086.6</ele>
        <time>2018-08-08T14:22:27.000Z</time>
      </trkpt>
      <trkpt lat="42.6967" lon="0.66749">
        <ele>2086.5</ele>
        <time>2018-08-08T14:22:28.000Z</time>
      </trkpt>
      <trkpt lat="42.69671" lon="0.6675">
        <ele>2086.4</ele>
        <time>2018-08-08T14:22:29.000Z</time>
      </trkpt>
      <trkpt lat="42.69671" lon="0.66751">
        <ele>2086.4</ele>
        <time>2018-08-08T14:22:30.000Z</time>
      </trkpt>
      <trkpt lat="42.69672" lon="0.66752">
        <ele>2086.5</ele>
        <time>2018-08-08T14:22:31.000Z</time>
      </trkpt>
      <trkpt lat="42.69672" lon="0.66753">
        <ele>2086.6</ele>
        <time>2018-08-08T14:22:32.000Z</time>
      </trkpt>
      <trkpt lat="42.69673" lon="0.66754">
        <ele>2086.6</ele>
        <time>2018-08-08T14:22:33.000Z</time>
      </trkpt>
      <trkpt lat="42.69673" lon="0.66754">
        <ele>2086.7</ele>
        <time>2018-08-08T14:22:34.000Z</time>
      </trkpt>
      <trkpt lat="42.69674" lon="0.66755">
        <ele>2086.8</ele>
        <time>2018-08-08T14:22:35.000Z</time>
      </trkpt>
      <trkpt lat="42.69674" lon="0.66756">
        <ele>2086.8</ele>
        <time>2018-08-08T14:22:36.000Z</time>
      </trkpt>
      <trkpt lat="42.69674" lon="0.66757">
        <ele>2086.9</ele>
        <time>2018-08-08T14:22:37.000Z</time>
      </trkpt>
      <trkpt lat="42.69674" lon="0.66758">
        <ele>2087.1</ele>
        <time>2018-08-08T14:22:38.000Z</time>
      </trkpt>
      <trkpt lat="42.69674" lon="0.66759">
        <ele>2087.2</ele>
        <time>2018-08-08T14:22:39.000Z</time>
      </trkpt>
      <trkpt lat="42.69674" lon="0.6676">
        <ele>2087.3</ele>
        <time>2018-08-08T14:22:40.000Z</time>
      </trkpt>
      <trkpt lat="42.69674" lon="0.66761">
        <ele>2087.4</ele>
        <time>2018-08-08T14:22:41.000Z</time>
      </trkpt>
      <trkpt lat="42.69674" lon="0.66762">
        <ele>2087.6</ele>
        <time>2018-08-08T14:22:42.000Z</time>
      </trkpt>
      <trkpt lat="42.69674" lon="0.66763">
        <ele>2087.8</ele>
        <time>2018-08-08T14:22:43.000Z</time>
      </trkpt>
      <trkpt lat="42.69674" lon="0.66764">
        <ele>2088</ele>
        <time>2018-08-08T14:22:44.000Z</time>
      </trkpt>
      <trkpt lat="42.69674" lon="0.66765">
        <ele>2088.1</ele>
        <time>2018-08-08T14:22:45.000Z</time>
      </trkpt>
      <trkpt lat="42.69674" lon="0.66766">
        <ele>2088.3</ele>
        <time>2018-08-08T14:22:46.000Z</time>
      </trkpt>
      <trkpt lat="42.69674" lon="0.66766">
        <ele>2088.5</ele>
        <time>2018-08-08T14:22:47.000Z</time>
      </trkpt>
      <trkpt lat="42.69674" lon="0.66767">
        <ele>2088.6</ele>
        <time>2018-08-08T14:22:48.000Z</time>
      </trkpt>
      <trkpt lat="42.69674" lon="0.66768">
        <ele>2088.8</ele>
        <time>2018-08-08T14:22:49.000Z</time>
      </trkpt>
      <trkpt lat="42.69674" lon="0.66769">
        <ele>2088.9</ele>
        <time>2018-08-08T14:22:50.000Z</time>
      </trkpt>
      <trkpt lat="42.69674" lon="0.6677">
        <ele>2089</ele>
        <time>2018-08-08T14:22:51.000Z</time>
      </trkpt>
      <trkpt lat="42.69675" lon="0.66771">
        <ele>2089</ele>
        <time>2018-08-08T14:22:52.000Z</time>
      </trkpt>
      <trkpt lat="42.69675" lon="0.66771">
        <ele>2089</ele>
        <time>2018-08-08T14:22:53.000Z</time>
      </trkpt>
      <trkpt lat="42.69675" lon="0.66772">
        <ele>2089</ele>
        <time>2018-08-08T14:22:54.000Z</time>
      </trkpt>
      <trkpt lat="42.69676" lon="0.66772">
        <ele>2089</ele>
        <time>2018-08-08T14:22:55.000Z</time>
      </trkpt>
      <trkpt lat="42.69677" lon="0.66773">
        <ele>2088.9</ele>
        <time>2018-08-08T14:22:56.000Z</time>
      </trkpt>
      <trkpt lat="42.69678" lon="0.66773">
        <ele>2088.7</ele>
        <time>2018-08-08T14:22:57.000Z</time>
      </trkpt>
      <trkpt lat="42.69678" lon="0.66773">
        <ele>2088.6</ele>
        <time>2018-08-08T14:22:58.000Z</time>
      </trkpt>
      <trkpt lat="42.69679" lon="0.66773">
        <ele>2088.5</ele>
        <time>2018-08-08T14:22:59.000Z</time>
      </trkpt>
      <trkpt lat="42.69679" lon="0.66773">
        <ele>2088.5</ele>
        <time>2018-08-08T14:23:00.000Z</time>
      </trkpt>
      <trkpt lat="42.69679" lon="0.66773">
        <ele>2088.5</ele>
        <time>2018-08-08T14:23:01.000Z</time>
      </trkpt>
      <trkpt lat="42.6968" lon="0.66773">
        <ele>2088.3</ele>
        <time>2018-08-08T14:23:02.000Z</time>
      </trkpt>
      <trkpt lat="42.69681" lon="0.66773">
        <ele>2088.1</ele>
        <time>2018-08-08T14:23:03.000Z</time>
      </trkpt>
      <trkpt lat="42.69682" lon="0.66773">
        <ele>2087.9</ele>
        <time>2018-08-08T14:23:04.000Z</time>
      </trkpt>
      <trkpt lat="42.69683" lon="0.66772">
        <ele>2087.7</ele>
        <time>2018-08-08T14:23:05.000Z</time>
      </trkpt>
      <trkpt lat="42.69684" lon="0.66772">
        <ele>2087.4</ele>
        <time>2018-08-08T14:23:06.000Z</time>
      </trkpt>
      <trkpt lat="42.69685" lon="0.66771">
        <ele>2087.2</ele>
        <time>2018-08-08T14:23:07.000Z</time>
      </trkpt>
      <trkpt lat="42.69686" lon="0.66771">
        <ele>2087</ele>
        <time>2018-08-08T14:23:08.000Z</time>
      </trkpt>
      <trkpt lat="42.69687" lon="0.6677">
        <ele>2086.7</ele>
        <time>2018-08-08T14:23:09.000Z</time>
      </trkpt>
      <trkpt lat="42.69688" lon="0.6677">
        <ele>2086.5</ele>
        <time>2018-08-08T14:23:10.000Z</time>
      </trkpt>
      <trkpt lat="42.69689" lon="0.6677">
        <ele>2086.2</ele>
        <time>2018-08-08T14:23:11.000Z</time>
      </trkpt>
      <trkpt lat="42.6969" lon="0.66769">
        <ele>2086</ele>
        <time>2018-08-08T14:23:12.000Z</time>
      </trkpt>
      <trkpt lat="42.69691" lon="0.66769">
        <ele>2085.8</ele>
        <time>2018-08-08T14:23:13.000Z</time>
      </trkpt>
      <trkpt lat="42.69692" lon="0.66769">
        <ele>2085.6</ele>
        <time>2018-08-08T14:23:14.000Z</time>
      </trkpt>
      <trkpt lat="42.69692" lon="0.66769">
        <ele>2085.4</ele>
        <time>2018-08-08T14:23:15.000Z</time>
      </trkpt>
      <trkpt lat="42.69693" lon="0.66769">
        <ele>2085.3</ele>
        <time>2018-08-08T14:23:16.000Z</time>
      </trkpt>
      <trkpt lat="42.69694" lon="0.66769">
        <ele>2085.2</ele>
        <time>2018-08-08T14:23:17.000Z</time>
      </trkpt>
      <trkpt lat="42.69695" lon="0.6677">
        <ele>2085.2</ele>
        <time>2018-08-08T14:23:18.000Z</time>
      </trkpt>
      <trkpt lat="42.69696" lon="0.66771">
        <ele>2085.1</ele>
        <time>2018-08-08T14:23:19.000Z</time>
      </trkpt>
      <trkpt lat="42.69696" lon="0.66772">
        <ele>2085.1</ele>
        <time>2018-08-08T14:23:20.000Z</time>
      </trkpt>
      <trkpt lat="42.69697" lon="0.66773">
        <ele>2085.1</ele>
        <time>2018-08-08T14:23:21.000Z</time>
      </trkpt>
      <trkpt lat="42.69698" lon="0.66774">
        <ele>2085.1</ele>
        <time>2018-08-08T14:23:22.000Z</time>
      </trkpt>
      <trkpt lat="42.69698" lon="0.66775">
        <ele>2085.1</ele>
        <time>2018-08-08T14:23:23.000Z</time>
      </trkpt>
      <trkpt lat="42.69699" lon="0.66776">
        <ele>2085.1</ele>
        <time>2018-08-08T14:23:24.000Z</time>
      </trkpt>
      <trkpt lat="42.697" lon="0.66777">
        <ele>2085.1</ele>
        <time>2018-08-08T14:23:25.000Z</time>
      </trkpt>
      <trkpt lat="42.697" lon="0.66778">
        <ele>2085.1</ele>
        <time>2018-08-08T14:23:26.000Z</time>
      </trkpt>
      <trkpt lat="42.69701" lon="0.66779">
        <ele>2085</ele>
        <time>2018-08-08T14:23:27.000Z</time>
      </trkpt>
      <trkpt lat="42.69702" lon="0.66779">
        <ele>2085</ele>
        <time>2018-08-08T14:23:28.000Z</time>
      </trkpt>
      <trkpt lat="42.69702" lon="0.6678">
        <ele>2085</ele>
        <time>2018-08-08T14:23:29.000Z</time>
      </trkpt>
      <trkpt lat="42.69703" lon="0.66781">
        <ele>2084.9</ele>
        <time>2018-08-08T14:23:30.000Z</time>
      </trkpt>
      <trkpt lat="42.69703" lon="0.66782">
        <ele>2084.9</ele>
        <time>2018-08-08T14:23:31.000Z</time>
      </trkpt>
      <trkpt lat="42.69704" lon="0.66782">
        <ele>2084.9</ele>
        <time>2018-08-08T14:23:32.000Z</time>
      </trkpt>
      <trkpt lat="42.69705" lon="0.66783">
        <ele>2084.8</ele>
        <time>2018-08-08T14:23:33.000Z</time>
      </trkpt>
      <trkpt lat="42.69705" lon="0.66784">
        <ele>2084.8</ele>
        <time>2018-08-08T14:23:34.000Z</time>
      </trkpt>
      <trkpt lat="42.69706" lon="0.66785">
        <ele>2084.7</ele>
        <time>2018-08-08T14:23:35.000Z</time>
      </trkpt>
      <trkpt lat="42.69707" lon="0.66785">
        <ele>2084.6</ele>
        <time>2018-08-08T14:23:36.000Z</time>
      </trkpt>
      <trkpt lat="42.69708" lon="0.66786">
        <ele>2084.5</ele>
        <time>2018-08-08T14:23:37.000Z</time>
      </trkpt>
      <trkpt lat="42.69709" lon="0.66787">
        <ele>2084.4</ele>
        <time>2018-08-08T14:23:38.000Z</time>
      </trkpt>
      <trkpt lat="42.69709" lon="0.66787">
        <ele>2084.3</ele>
        <time>2018-08-08T14:23:39.000Z</time>
      </trkpt>
      <trkpt lat="42.6971" lon="0.66788">
        <ele>2084.2</ele>
        <time>2018-08-08T14:23:40.000Z</time>
      </trkpt>
      <trkpt lat="42.69711" lon="0.66788">
        <ele>2084</ele>
        <time>2018-08-08T14:23:41.000Z</time>
      </trkpt>
      <trkpt lat="42.69712" lon="0.66789">
        <ele>2083.9</ele>
        <time>2018-08-08T14:23:42.000Z</time>
      </trkpt>
      <trkpt lat="42.69713" lon="0.6679">
        <ele>2083.8</ele>
        <time>2018-08-08T14:23:43.000Z</time>
      </trkpt>
      <trkpt lat="42.69714" lon="0.6679">
        <ele>2083.6</ele>
        <time>2018-08-08T14:23:44.000Z</time>
      </trkpt>
      <trkpt lat="42.69715" lon="0.66791">
        <ele>2083.5</ele>
        <time>2018-08-08T14:23:45.000Z</time>
      </trkpt>
      <trkpt lat="42.69715" lon="0.66791">
        <ele>2083.4</ele>
        <time>2018-08-08T14:23:46.000Z</time>
      </trkpt>
      <trkpt lat="42.69716" lon="0.66791">
        <ele>2083.3</ele>
        <time>2018-08-08T14:23:47.000Z</time>
      </trkpt>
      <trkpt lat="42.69717" lon="0.66792">
        <ele>2083.2</ele>
        <time>2018-08-08T14:23:48.000Z</time>
      </trkpt>
      <trkpt lat="42.69717" lon="0.66792">
        <ele>2083.1</ele>
        <time>2018-08-08T14:23:49.000Z</time>
      </trkpt>
      <trkpt lat="42.69718" lon="0.66792">
        <ele>2083</ele>
        <time>2018-08-08T14:23:50.000Z</time>
      </trkpt>
      <trkpt lat="42.69718" lon="0.66793">
        <ele>2082.9</ele>
        <time>2018-08-08T14:23:51.000Z</time>
      </trkpt>
      <trkpt lat="42.69719" lon="0.66793">
        <ele>2082.8</ele>
        <time>2018-08-08T14:23:52.000Z</time>
      </trkpt>
      <trkpt lat="42.6972" lon="0.66793">
        <ele>2082.6</ele>
        <time>2018-08-08T14:23:53.000Z</time>
      </trkpt>
      <trkpt lat="42.69721" lon="0.66794">
        <ele>2082.5</ele>
        <time>2018-08-08T14:23:54.000Z</time>
      </trkpt>
      <trkpt lat="42.69722" lon="0.66794">
        <ele>2082.3</ele>
        <time>2018-08-08T14:23:55.000Z</time>
      </trkpt>
      <trkpt lat="42.69723" lon="0.66794">
        <ele>2082.1</ele>
        <time>2018-08-08T14:23:56.000Z</time>
      </trkpt>
      <trkpt lat="42.69724" lon="0.66795">
        <ele>2081.9</ele>
        <time>2018-08-08T14:23:57.000Z</time>
      </trkpt>
      <trkpt lat="42.69725" lon="0.66795">
        <ele>2081.8</ele>
        <time>2018-08-08T14:23:58.000Z</time>
      </trkpt>
      <trkpt lat="42.69725" lon="0.66795">
        <ele>2081.6</ele>
        <time>2018-08-08T14:23:59.000Z</time>
      </trkpt>
      <trkpt lat="42.69726" lon="0.66796">
        <ele>2081.5</ele>
        <time>2018-08-08T14:24:00.000Z</time>
      </trkpt>
      <trkpt lat="42.69726" lon="0.66796">
        <ele>2081.5</ele>
        <time>2018-08-08T14:24:01.000Z</time>
      </trkpt>
      <trkpt lat="42.69727" lon="0.66796">
        <ele>2081.4</ele>
        <time>2018-08-08T14:24:02.000Z</time>
      </trkpt>
      <trkpt lat="42.69727" lon="0.66796">
        <ele>2081.4</ele>
        <time>2018-08-08T14:24:03.000Z</time>
      </trkpt>
      <trkpt lat="42.69727" lon="0.66797">
        <ele>2081.4</ele>
        <time>2018-08-08T14:24:04.000Z</time>
      </trkpt>
      <trkpt lat="42.69727" lon="0.66797">
        <ele>2081.4</ele>
        <time>2018-08-08T14:24:05.000Z</time>
      </trkpt>
      <trkpt lat="42.69727" lon="0.66797">
        <ele>2081.3</ele>
        <time>2018-08-08T14:24:06.000Z</time>
      </trkpt>
      <trkpt lat="42.69727" lon="0.66797">
        <ele>2081.3</ele>
        <time>2018-08-08T14:24:07.000Z</time>
      </trkpt>
      <trkpt lat="42.69727" lon="0.66797">
        <ele>2081.3</ele>
        <time>2018-08-08T14:24:08.000Z</time>
      </trkpt>
      <trkpt lat="42.69728" lon="0.66797">
        <ele>2081.3</ele>
        <time>2018-08-08T14:24:09.000Z</time>
      </trkpt>
      <trkpt lat="42.69728" lon="0.66797">
        <ele>2081.3</ele>
        <time>2018-08-08T14:24:10.000Z</time>
      </trkpt>
      <trkpt lat="42.69728" lon="0.66797">
        <ele>2081.3</ele>
        <time>2018-08-08T14:24:11.000Z</time>
      </trkpt>
      <trkpt lat="42.69728" lon="0.66798">
        <ele>2081.3</ele>
        <time>2018-08-08T14:24:12.000Z</time>
      </trkpt>
      <trkpt lat="42.69727" lon="0.66798">
        <ele>2081.4</ele>
        <time>2018-08-08T14:24:13.000Z</time>
      </trkpt>
      <trkpt lat="42.69727" lon="0.66799">
        <ele>2081.5</ele>
        <time>2018-08-08T14:24:14.000Z</time>
      </trkpt>
      <trkpt lat="42.69727" lon="0.668">
        <ele>2081.7</ele>
        <time>2018-08-08T14:24:15.000Z</time>
      </trkpt>
      <trkpt lat="42.69726" lon="0.66801">
        <ele>2081.9</ele>
        <time>2018-08-08T14:24:16.000Z</time>
      </trkpt>
      <trkpt lat="42.69726" lon="0.66802">
        <ele>2082.1</ele>
        <time>2018-08-08T14:24:17.000Z</time>
      </trkpt>
      <trkpt lat="42.69726" lon="0.66803">
        <ele>2082.2</ele>
        <time>2018-08-08T14:24:18.000Z</time>
      </trkpt>
      <trkpt lat="42.69725" lon="0.66804">
        <ele>2082.4</ele>
        <time>2018-08-08T14:24:19.000Z</time>
      </trkpt>
      <trkpt lat="42.69725" lon="0.66805">
        <ele>2082.5</ele>
        <time>2018-08-08T14:24:20.000Z</time>
      </trkpt>
      <trkpt lat="42.69725" lon="0.66806">
        <ele>2082.7</ele>
        <time>2018-08-08T14:24:21.000Z</time>
      </trkpt>
      <trkpt lat="42.69725" lon="0.66807">
        <ele>2082.8</ele>
        <time>2018-08-08T14:24:22.000Z</time>
      </trkpt>
      <trkpt lat="42.69724" lon="0.66808">
        <ele>2083</ele>
        <time>2018-08-08T14:24:23.000Z</time>
      </trkpt>
      <trkpt lat="42.69724" lon="0.6681">
        <ele>2083.1</ele>
        <time>2018-08-08T14:24:24.000Z</time>
      </trkpt>
      <trkpt lat="42.69724" lon="0.66811">
        <ele>2083.3</ele>
        <time>2018-08-08T14:24:25.000Z</time>
      </trkpt>
      <trkpt lat="42.69724" lon="0.66812">
        <ele>2083.4</ele>
        <time>2018-08-08T14:24:26.000Z</time>
      </trkpt>
      <trkpt lat="42.69724" lon="0.66813">
        <ele>2083.5</ele>
        <time>2018-08-08T14:24:27.000Z</time>
      </trkpt>
      <trkpt lat="42.69724" lon="0.66814">
        <ele>2083.7</ele>
        <time>2018-08-08T14:24:28.000Z</time>
      </trkpt>
      <trkpt lat="42.69724" lon="0.66815">
        <ele>2083.8</ele>
        <time>2018-08-08T14:24:29.000Z</time>
      </trkpt>
      <trkpt lat="42.69724" lon="0.66817">
        <ele>2083.9</ele>
        <time>2018-08-08T14:24:30.000Z</time>
      </trkpt>
      <trkpt lat="42.69724" lon="0.66818">
        <ele>2083.9</ele>
        <time>2018-08-08T14:24:31.000Z</time>
      </trkpt>
      <trkpt lat="42.69724" lon="0.66819">
        <ele>2084</ele>
        <time>2018-08-08T14:24:32.000Z</time>
      </trkpt>
      <trkpt lat="42.69724" lon="0.6682">
        <ele>2084.1</ele>
        <time>2018-08-08T14:24:33.000Z</time>
      </trkpt>
      <trkpt lat="42.69724" lon="0.66821">
        <ele>2084.1</ele>
        <time>2018-08-08T14:24:34.000Z</time>
      </trkpt>
      <trkpt lat="42.69724" lon="0.66822">
        <ele>2084.1</ele>
        <time>2018-08-08T14:24:35.000Z</time>
      </trkpt>
      <trkpt lat="42.69725" lon="0.66823">
        <ele>2084.1</ele>
        <time>2018-08-08T14:24:36.000Z</time>
      </trkpt>
      <trkpt lat="42.69725" lon="0.66824">
        <ele>2084.1</ele>
        <time>2018-08-08T14:24:37.000Z</time>
      </trkpt>
      <trkpt lat="42.69725" lon="0.66825">
        <ele>2084.1</ele>
        <time>2018-08-08T14:24:38.000Z</time>
      </trkpt>
      <trkpt lat="42.69726" lon="0.66826">
        <ele>2084.1</ele>
        <time>2018-08-08T14:24:39.000Z</time>
      </trkpt>
      <trkpt lat="42.69726" lon="0.66827">
        <ele>2084</ele>
        <time>2018-08-08T14:24:40.000Z</time>
      </trkpt>
      <trkpt lat="42.69727" lon="0.66828">
        <ele>2083.9</ele>
        <time>2018-08-08T14:24:41.000Z</time>
      </trkpt>
      <trkpt lat="42.69728" lon="0.66829">
        <ele>2083.7</ele>
        <time>2018-08-08T14:24:42.000Z</time>
      </trkpt>
      <trkpt lat="42.69729" lon="0.66829">
        <ele>2083.6</ele>
        <time>2018-08-08T14:24:43.000Z</time>
      </trkpt>
      <trkpt lat="42.6973" lon="0.6683">
        <ele>2083.4</ele>
        <time>2018-08-08T14:24:44.000Z</time>
      </trkpt>
      <trkpt lat="42.69731" lon="0.6683">
        <ele>2083.1</ele>
        <time>2018-08-08T14:24:45.000Z</time>
      </trkpt>
      <trkpt lat="42.69732" lon="0.6683">
        <ele>2082.9</ele>
        <time>2018-08-08T14:24:46.000Z</time>
      </trkpt>
      <trkpt lat="42.69733" lon="0.6683">
        <ele>2082.6</ele>
        <time>2018-08-08T14:24:47.000Z</time>
      </trkpt>
      <trkpt lat="42.69734" lon="0.6683">
        <ele>2082.3</ele>
        <time>2018-08-08T14:24:48.000Z</time>
      </trkpt>
      <trkpt lat="42.69735" lon="0.6683">
        <ele>2082</ele>
        <time>2018-08-08T14:24:49.000Z</time>
      </trkpt>
      <trkpt lat="42.69736" lon="0.6683">
        <ele>2081.7</ele>
        <time>2018-08-08T14:24:50.000Z</time>
      </trkpt>
      <trkpt lat="42.69737" lon="0.66829">
        <ele>2081.4</ele>
        <time>2018-08-08T14:24:51.000Z</time>
      </trkpt>
      <trkpt lat="42.69738" lon="0.66829">
        <ele>2081.1</ele>
        <time>2018-08-08T14:24:52.000Z</time>
      </trkpt>
      <trkpt lat="42.69739" lon="0.66828">
        <ele>2080.8</ele>
        <time>2018-08-08T14:24:53.000Z</time>
      </trkpt>
      <trkpt lat="42.69739" lon="0.66827">
        <ele>2080.5</ele>
        <time>2018-08-08T14:24:54.000Z</time>
      </trkpt>
      <trkpt lat="42.6974" lon="0.66826">
        <ele>2080.3</ele>
        <time>2018-08-08T14:24:55.000Z</time>
      </trkpt>
      <trkpt lat="42.69741" lon="0.66825">
        <ele>2080</ele>
        <time>2018-08-08T14:24:56.000Z</time>
      </trkpt>
      <trkpt lat="42.69741" lon="0.66824">
        <ele>2079.8</ele>
        <time>2018-08-08T14:24:57.000Z</time>
      </trkpt>
      <trkpt lat="42.69742" lon="0.66823">
        <ele>2079.6</ele>
        <time>2018-08-08T14:24:58.000Z</time>
      </trkpt>
      <trkpt lat="42.69743" lon="0.66822">
        <ele>2079.4</ele>
        <time>2018-08-08T14:24:59.000Z</time>
      </trkpt>
      <trkpt lat="42.69743" lon="0.66821">
        <ele>2079.1</ele>
        <time>2018-08-08T14:25:00.000Z</time>
      </trkpt>
      <trkpt lat="42.69744" lon="0.66821">
        <ele>2078.9</ele>
        <time>2018-08-08T14:25:01.000Z</time>
      </trkpt>
      <trkpt lat="42.69745" lon="0.66821">
        <ele>2078.6</ele>
        <time>2018-08-08T14:25:02.000Z</time>
      </trkpt>
      <trkpt lat="42.69746" lon="0.66821">
        <ele>2078.4</ele>
        <time>2018-08-08T14:25:03.000Z</time>
      </trkpt>
      <trkpt lat="42.69747" lon="0.66821">
        <ele>2078.2</ele>
        <time>2018-08-08T14:25:04.000Z</time>
      </trkpt>
      <trkpt lat="42.69747" lon="0.66822">
        <ele>2078.2</ele>
        <time>2018-08-08T14:25:05.000Z</time>
      </trkpt>
      <trkpt lat="42.69747" lon="0.66823">
        <ele>2078.3</ele>
        <time>2018-08-08T14:25:06.000Z</time>
      </trkpt>
      <trkpt lat="42.69747" lon="0.66824">
        <ele>2078.4</ele>
        <time>2018-08-08T14:25:07.000Z</time>
      </trkpt>
      <trkpt lat="42.69747" lon="0.66825">
        <ele>2078.5</ele>
        <time>2018-08-08T14:25:08.000Z</time>
      </trkpt>
      <trkpt lat="42.69746" lon="0.66826">
        <ele>2078.7</ele>
        <time>2018-08-08T14:25:09.000Z</time>
      </trkpt>
      <trkpt lat="42.69746" lon="0.66826">
        <ele>2078.8</ele>
        <time>2018-08-08T14:25:10.000Z</time>
      </trkpt>
      <trkpt lat="42.69746" lon="0.66827">
        <ele>2078.9</ele>
        <time>2018-08-08T14:25:11.000Z</time>
      </trkpt>
      <trkpt lat="42.69745" lon="0.66827">
        <ele>2078.9</ele>
        <time>2018-08-08T14:25:12.000Z</time>
      </trkpt>
      <trkpt lat="42.69745" lon="0.66827">
        <ele>2079</ele>
        <time>2018-08-08T14:25:13.000Z</time>
      </trkpt>
      <trkpt lat="42.69745" lon="0.66827">
        <ele>2079</ele>
        <time>2018-08-08T14:25:14.000Z</time>
      </trkpt>
      <trkpt lat="42.69745" lon="0.66827">
        <ele>2079</ele>
        <time>2018-08-08T14:25:15.000Z</time>
      </trkpt>
      <trkpt lat="42.69745" lon="0.66827">
        <ele>2079</ele>
        <time>2018-08-08T14:25:16.000Z</time>
      </trkpt>
      <trkpt lat="42.69745" lon="0.66827">
        <ele>2079</ele>
        <time>2018-08-08T14:25:17.000Z</time>
      </trkpt>
      <trkpt lat="42.69745" lon="0.66827">
        <ele>2079</ele>
        <time>2018-08-08T14:25:18.000Z</time>
      </trkpt>
      <trkpt lat="42.69745" lon="0.66827">
        <ele>2078.9</ele>
        <time>2018-08-08T14:25:19.000Z</time>
      </trkpt>
      <trkpt lat="42.69745" lon="0.66828">
        <ele>2079</ele>
        <time>2018-08-08T14:25:20.000Z</time>
      </trkpt>
      <trkpt lat="42.69745" lon="0.66828">
        <ele>2079</ele>
        <time>2018-08-08T14:25:21.000Z</time>
      </trkpt>
      <trkpt lat="42.69745" lon="0.66828">
        <ele>2079</ele>
        <time>2018-08-08T14:25:22.000Z</time>
      </trkpt>
      <trkpt lat="42.69745" lon="0.66828">
        <ele>2079</ele>
        <time>2018-08-08T14:25:23.000Z</time>
      </trkpt>
      <trkpt lat="42.69745" lon="0.66828">
        <ele>2079</ele>
        <time>2018-08-08T14:25:24.000Z</time>
      </trkpt>
      <trkpt lat="42.69745" lon="0.66828">
        <ele>2079</ele>
        <time>2018-08-08T14:25:25.000Z</time>
      </trkpt>
      <trkpt lat="42.69745" lon="0.66828">
        <ele>2079</ele>
        <time>2018-08-08T14:25:26.000Z</time>
      </trkpt>
      <trkpt lat="42.69745" lon="0.66828">
        <ele>2079</ele>
        <time>2018-08-08T14:25:27.000Z</time>
      </trkpt>
      <trkpt lat="42.69745" lon="0.66828">
        <ele>2079</ele>
        <time>2018-08-08T14:25:28.000Z</time>
      </trkpt>
      <trkpt lat="42.69745" lon="0.66828">
        <ele>2079</ele>
        <time>2018-08-08T14:25:29.000Z</time>
      </trkpt>
      <trkpt lat="42.69745" lon="0.66828">
        <ele>2079</ele>
        <time>2018-08-08T14:25:30.000Z</time>
      </trkpt>
      <trkpt lat="42.69745" lon="0.66828">
        <ele>2079</ele>
        <time>2018-08-08T14:25:31.000Z</time>
      </trkpt>
      <trkpt lat="42.69745" lon="0.66828">
        <ele>2079</ele>
        <time>2018-08-08T14:25:32.000Z</time>
      </trkpt>
      <trkpt lat="42.69745" lon="0.66828">
        <ele>2079</ele>
        <time>2018-08-08T14:25:33.000Z</time>
      </trkpt>
      <trkpt lat="42.69745" lon="0.66828">
        <ele>2079</ele>
        <time>2018-08-08T14:25:34.000Z</time>
      </trkpt>
      <trkpt lat="42.69745" lon="0.66828">
        <ele>2079</ele>
        <time>2018-08-08T14:25:35.000Z</time>
      </trkpt>
      <trkpt lat="42.69745" lon="0.66828">
        <ele>2079</ele>
        <time>2018-08-08T14:25:36.000Z</time>
      </trkpt>
      <trkpt lat="42.69745" lon="0.66828">
        <ele>2079</ele>
        <time>2018-08-08T14:25:37.000Z</time>
      </trkpt>
      <trkpt lat="42.69745" lon="0.66828">
        <ele>2079</ele>
        <time>2018-08-08T14:25:38.000Z</time>
      </trkpt>
      <trkpt lat="42.69745" lon="0.66828">
        <ele>2079</ele>
        <time>2018-08-08T14:25:39.000Z</time>
      </trkpt>
      <trkpt lat="42.69745" lon="0.66828">
        <ele>2079.1</ele>
        <time>2018-08-08T14:25:40.000Z</time>
      </trkpt>
      <trkpt lat="42.69745" lon="0.66828">
        <ele>2079.2</ele>
        <time>2018-08-08T14:25:41.000Z</time>
      </trkpt>
      <trkpt lat="42.69744" lon="0.66828">
        <ele>2079.3</ele>
        <time>2018-08-08T14:25:42.000Z</time>
      </trkpt>
      <trkpt lat="42.69744" lon="0.66828">
        <ele>2079.5</ele>
        <time>2018-08-08T14:25:43.000Z</time>
      </trkpt>
      <trkpt lat="42.69743" lon="0.66827">
        <ele>2079.6</ele>
        <time>2018-08-08T14:25:44.000Z</time>
      </trkpt>
      <trkpt lat="42.69743" lon="0.66827">
        <ele>2079.6</ele>
        <time>2018-08-08T14:25:45.000Z</time>
      </trkpt>
      <trkpt lat="42.69743" lon="0.66827">
        <ele>2079.6</ele>
        <time>2018-08-08T14:25:46.000Z</time>
      </trkpt>
      <trkpt lat="42.69743" lon="0.66827">
        <ele>2079.6</ele>
        <time>2018-08-08T14:25:47.000Z</time>
      </trkpt>
      <trkpt lat="42.69743" lon="0.66827">
        <ele>2079.6</ele>
        <time>2018-08-08T14:25:48.000Z</time>
      </trkpt>
      <trkpt lat="42.69743" lon="0.66827">
        <ele>2079.6</ele>
        <time>2018-08-08T14:25:49.000Z</time>
      </trkpt>
      <trkpt lat="42.69743" lon="0.66827">
        <ele>2079.6</ele>
        <time>2018-08-08T14:25:50.000Z</time>
      </trkpt>
      <trkpt lat="42.69743" lon="0.66827">
        <ele>2079.6</ele>
        <time>2018-08-08T14:25:51.000Z</time>
      </trkpt>
      <trkpt lat="42.69743" lon="0.66827">
        <ele>2079.6</ele>
        <time>2018-08-08T14:25:52.000Z</time>
      </trkpt>
      <trkpt lat="42.69743" lon="0.66827">
        <ele>2079.6</ele>
        <time>2018-08-08T14:25:53.000Z</time>
      </trkpt>
      <trkpt lat="42.69743" lon="0.66827">
        <ele>2079.6</ele>
        <time>2018-08-08T14:25:54.000Z</time>
      </trkpt>
      <trkpt lat="42.69743" lon="0.66827">
        <ele>2079.6</ele>
        <time>2018-08-08T14:25:55.000Z</time>
      </trkpt>
      <trkpt lat="42.69743" lon="0.66827">
        <ele>2079.7</ele>
        <time>2018-08-08T14:25:56.000Z</time>
      </trkpt>
      <trkpt lat="42.69743" lon="0.66827">
        <ele>2079.7</ele>
        <time>2018-08-08T14:25:57.000Z</time>
      </trkpt>
      <trkpt lat="42.69743" lon="0.66827">
        <ele>2079.7</ele>
        <time>2018-08-08T14:25:58.000Z</time>
      </trkpt>
      <trkpt lat="42.69743" lon="0.66827">
        <ele>2079.7</ele>
        <time>2018-08-08T14:25:59.000Z</time>
      </trkpt>
      <trkpt lat="42.69743" lon="0.66827">
        <ele>2079.7</ele>
        <time>2018-08-08T14:26:00.000Z</time>
      </trkpt>
      <trkpt lat="42.69743" lon="0.66827">
        <ele>2079.7</ele>
        <time>2018-08-08T14:26:01.000Z</time>
      </trkpt>
      <trkpt lat="42.69743" lon="0.66827">
        <ele>2079.7</ele>
        <time>2018-08-08T14:26:02.000Z</time>
      </trkpt>
      <trkpt lat="42.69743" lon="0.66827">
        <ele>2079.7</ele>
        <time>2018-08-08T14:26:03.000Z</time>
      </trkpt>
      <trkpt lat="42.69743" lon="0.66827">
        <ele>2079.7</ele>
        <time>2018-08-08T14:26:04.000Z</time>
      </trkpt>
      <trkpt lat="42.69743" lon="0.66827">
        <ele>2079.7</ele>
        <time>2018-08-08T14:26:05.000Z</time>
      </trkpt>
      <trkpt lat="42.69743" lon="0.66827">
        <ele>2079.7</ele>
        <time>2018-08-08T14:26:06.000Z</time>
      </trkpt>
      <trkpt lat="42.69743" lon="0.66827">
        <ele>2079.7</ele>
        <time>2018-08-08T14:26:07.000Z</time>
      </trkpt>
      <trkpt lat="42.69743" lon="0.66827">
        <ele>2079.7</ele>
        <time>2018-08-08T14:26:08.000Z</time>
      </trkpt>
      <trkpt lat="42.69743" lon="0.66827">
        <ele>2079.7</ele>
        <time>2018-08-08T14:26:09.000Z</time>
      </trkpt>
      <trkpt lat="42.69743" lon="0.66827">
        <ele>2079.7</ele>
        <time>2018-08-08T14:26:10.000Z</time>
      </trkpt>
      <trkpt lat="42.69743" lon="0.66827">
        <ele>2079.7</ele>
        <time>2018-08-08T14:26:11.000Z</time>
      </trkpt>
      <trkpt lat="42.69743" lon="0.66827">
        <ele>2079.7</ele>
        <time>2018-08-08T14:26:12.000Z</time>
      </trkpt>
      <trkpt lat="42.69743" lon="0.66827">
        <ele>2079.7</ele>
        <time>2018-08-08T14:26:13.000Z</time>
      </trkpt>
      <trkpt lat="42.69743" lon="0.66827">
        <ele>2079.7</ele>
        <time>2018-08-08T14:26:14.000Z</time>
      </trkpt>
      <trkpt lat="42.69743" lon="0.66827">
        <ele>2079.7</ele>
        <time>2018-08-08T14:26:15.000Z</time>
      </trkpt>
      <trkpt lat="42.69743" lon="0.66827">
        <ele>2079.7</ele>
        <time>2018-08-08T14:26:16.000Z</time>
      </trkpt>
      <trkpt lat="42.69743" lon="0.66827">
        <ele>2079.7</ele>
        <time>2018-08-08T14:26:17.000Z</time>
      </trkpt>
      <trkpt lat="42.69743" lon="0.66827">
        <ele>2079.7</ele>
        <time>2018-08-08T14:26:18.000Z</time>
      </trkpt>
      <trkpt lat="42.69743" lon="0.66827">
        <ele>2079.7</ele>
        <time>2018-08-08T14:26:19.000Z</time>
      </trkpt>
      <trkpt lat="42.69743" lon="0.66827">
        <ele>2079.7</ele>
        <time>2018-08-08T14:26:20.000Z</time>
      </trkpt>
      <trkpt lat="42.69743" lon="0.66827">
        <ele>2079.7</ele>
        <time>2018-08-08T14:26:21.000Z</time>
      </trkpt>
      <trkpt lat="42.69743" lon="0.66827">
        <ele>2079.7</ele>
        <time>2018-08-08T14:26:22.000Z</time>
      </trkpt>
      <trkpt lat="42.69743" lon="0.66827">
        <ele>2079.7</ele>
        <time>2018-08-08T14:26:23.000Z</time>
      </trkpt>
      <trkpt lat="42.69743" lon="0.66827">
        <ele>2079.7</ele>
        <time>2018-08-08T14:26:24.000Z</time>
      </trkpt>
      <trkpt lat="42.69743" lon="0.66827">
        <ele>2079.7</ele>
        <time>2018-08-08T14:26:25.000Z</time>
      </trkpt>
      <trkpt lat="42.69743" lon="0.66827">
        <ele>2079.7</ele>
        <time>2018-08-08T14:26:26.000Z</time>
      </trkpt>
      <trkpt lat="42.69743" lon="0.66827">
        <ele>2079.7</ele>
        <time>2018-08-08T14:26:27.000Z</time>
      </trkpt>
      <trkpt lat="42.69743" lon="0.66827">
        <ele>2079.7</ele>
        <time>2018-08-08T14:26:28.000Z</time>
      </trkpt>
      <trkpt lat="42.69743" lon="0.66827">
        <ele>2079.7</ele>
        <time>2018-08-08T14:26:29.000Z</time>
      </trkpt>
      <trkpt lat="42.69743" lon="0.66827">
        <ele>2079.7</ele>
        <time>2018-08-08T14:26:30.000Z</time>
      </trkpt>
      <trkpt lat="42.69743" lon="0.66827">
        <ele>2079.7</ele>
        <time>2018-08-08T14:26:31.000Z</time>
      </trkpt>
      <trkpt lat="42.69743" lon="0.66827">
        <ele>2079.7</ele>
        <time>2018-08-08T14:26:32.000Z</time>
      </trkpt>
      <trkpt lat="42.69743" lon="0.66827">
        <ele>2079.7</ele>
        <time>2018-08-08T14:26:33.000Z</time>
      </trkpt>
      <trkpt lat="42.69743" lon="0.66827">
        <ele>2079.7</ele>
        <time>2018-08-08T14:26:34.000Z</time>
      </trkpt>
      <trkpt lat="42.69743" lon="0.66827">
        <ele>2079.7</ele>
        <time>2018-08-08T14:26:35.000Z</time>
      </trkpt>
      <trkpt lat="42.69743" lon="0.66827">
        <ele>2079.7</ele>
        <time>2018-08-08T14:26:36.000Z</time>
      </trkpt>
      <trkpt lat="42.69743" lon="0.66827">
        <ele>2079.7</ele>
        <time>2018-08-08T14:26:37.000Z</time>
      </trkpt>
      <trkpt lat="42.69743" lon="0.66827">
        <ele>2079.7</ele>
        <time>2018-08-08T14:26:38.000Z</time>
      </trkpt>
      <trkpt lat="42.69743" lon="0.66827">
        <ele>2079.7</ele>
        <time>2018-08-08T14:26:39.000Z</time>
      </trkpt>
      <trkpt lat="42.69743" lon="0.66827">
        <ele>2079.7</ele>
        <time>2018-08-08T14:26:40.000Z</time>
      </trkpt>
      <trkpt lat="42.69743" lon="0.66827">
        <ele>2079.7</ele>
        <time>2018-08-08T14:26:41.000Z</time>
      </trkpt>
      <trkpt lat="42.69743" lon="0.66827">
        <ele>2079.7</ele>
        <time>2018-08-08T14:26:42.000Z</time>
      </trkpt>
      <trkpt lat="42.69743" lon="0.66827">
        <ele>2079.7</ele>
        <time>2018-08-08T14:26:43.000Z</time>
      </trkpt>
      <trkpt lat="42.69743" lon="0.66827">
        <ele>2079.7</ele>
        <time>2018-08-08T14:26:44.000Z</time>
      </trkpt>
      <trkpt lat="42.69743" lon="0.66827">
        <ele>2079.7</ele>
        <time>2018-08-08T14:26:45.000Z</time>
      </trkpt>
      <trkpt lat="42.69743" lon="0.66827">
        <ele>2079.7</ele>
        <time>2018-08-08T14:26:46.000Z</time>
      </trkpt>
      <trkpt lat="42.69743" lon="0.66827">
        <ele>2079.7</ele>
        <time>2018-08-08T14:26:47.000Z</time>
      </trkpt>
      <trkpt lat="42.69743" lon="0.66827">
        <ele>2079.7</ele>
        <time>2018-08-08T14:26:48.000Z</time>
      </trkpt>
      <trkpt lat="42.69743" lon="0.66827">
        <ele>2079.7</ele>
        <time>2018-08-08T14:26:49.000Z</time>
      </trkpt>
      <trkpt lat="42.69743" lon="0.66827">
        <ele>2079.7</ele>
        <time>2018-08-08T14:26:50.000Z</time>
      </trkpt>
      <trkpt lat="42.69743" lon="0.66827">
        <ele>2079.7</ele>
        <time>2018-08-08T14:26:51.000Z</time>
      </trkpt>
      <trkpt lat="42.69743" lon="0.66827">
        <ele>2079.7</ele>
        <time>2018-08-08T14:26:52.000Z</time>
      </trkpt>
      <trkpt lat="42.69743" lon="0.66827">
        <ele>2079.7</ele>
        <time>2018-08-08T14:26:53.000Z</time>
      </trkpt>
      <trkpt lat="42.69743" lon="0.66827">
        <ele>2079.7</ele>
        <time>2018-08-08T14:26:54.000Z</time>
      </trkpt>
      <trkpt lat="42.69743" lon="0.66827">
        <ele>2079.7</ele>
        <time>2018-08-08T14:26:55.000Z</time>
      </trkpt>
      <trkpt lat="42.69743" lon="0.66827">
        <ele>2079.7</ele>
        <time>2018-08-08T14:26:56.000Z</time>
      </trkpt>
      <trkpt lat="42.69743" lon="0.66827">
        <ele>2079.7</ele>
        <time>2018-08-08T14:26:57.000Z</time>
      </trkpt>
      <trkpt lat="42.69743" lon="0.66827">
        <ele>2079.7</ele>
        <time>2018-08-08T14:26:58.000Z</time>
      </trkpt>
      <trkpt lat="42.69743" lon="0.66827">
        <ele>2079.7</ele>
        <time>2018-08-08T14:26:59.000Z</time>
      </trkpt>
      <trkpt lat="42.69743" lon="0.66827">
        <ele>2079.7</ele>
        <time>2018-08-08T14:27:00.000Z</time>
      </trkpt>
      <trkpt lat="42.69743" lon="0.66827">
        <ele>2079.7</ele>
        <time>2018-08-08T14:27:01.000Z</time>
      </trkpt>
      <trkpt lat="42.69743" lon="0.66827">
        <ele>2079.7</ele>
        <time>2018-08-08T14:27:02.000Z</time>
      </trkpt>
      <trkpt lat="42.69743" lon="0.66827">
        <ele>2079.7</ele>
        <time>2018-08-08T14:27:03.000Z</time>
      </trkpt>
      <trkpt lat="42.69743" lon="0.66827">
        <ele>2079.7</ele>
        <time>2018-08-08T14:27:04.000Z</time>
      </trkpt>
      <trkpt lat="42.69743" lon="0.66827">
        <ele>2079.7</ele>
        <time>2018-08-08T14:27:05.000Z</time>
      </trkpt>
      <trkpt lat="42.69743" lon="0.66827">
        <ele>2079.7</ele>
        <time>2018-08-08T14:27:06.000Z</time>
      </trkpt>
      <trkpt lat="42.69743" lon="0.66827">
        <ele>2079.7</ele>
        <time>2018-08-08T14:27:07.000Z</time>
      </trkpt>
      <trkpt lat="42.69743" lon="0.66827">
        <ele>2079.7</ele>
        <time>2018-08-08T14:27:08.000Z</time>
      </trkpt>
      <trkpt lat="42.69743" lon="0.66827">
        <ele>2079.7</ele>
        <time>2018-08-08T14:27:09.000Z</time>
      </trkpt>
      <trkpt lat="42.69743" lon="0.66827">
        <ele>2079.7</ele>
        <time>2018-08-08T14:27:10.000Z</time>
      </trkpt>
      <trkpt lat="42.69743" lon="0.66827">
        <ele>2079.7</ele>
        <time>2018-08-08T14:27:11.000Z</time>
      </trkpt>
      <trkpt lat="42.69743" lon="0.66827">
        <ele>2079.7</ele>
        <time>2018-08-08T14:27:12.000Z</time>
      </trkpt>
      <trkpt lat="42.69743" lon="0.66827">
        <ele>2079.7</ele>
        <time>2018-08-08T14:27:13.000Z</time>
      </trkpt>
      <trkpt lat="42.69743" lon="0.66827">
        <ele>2079.7</ele>
        <time>2018-08-08T14:27:14.000Z</time>
      </trkpt>
      <trkpt lat="42.69743" lon="0.66827">
        <ele>2079.7</ele>
        <time>2018-08-08T14:27:15.000Z</time>
      </trkpt>
      <trkpt lat="42.69743" lon="0.66827">
        <ele>2079.7</ele>
        <time>2018-08-08T14:27:16.000Z</time>
      </trkpt>
      <trkpt lat="42.69743" lon="0.66827">
        <ele>2079.7</ele>
        <time>2018-08-08T14:27:17.000Z</time>
      </trkpt>
      <trkpt lat="42.69743" lon="0.66827">
        <ele>2079.7</ele>
        <time>2018-08-08T14:27:18.000Z</time>
      </trkpt>
      <trkpt lat="42.69743" lon="0.66827">
        <ele>2079.7</ele>
        <time>2018-08-08T14:27:19.000Z</time>
      </trkpt>
      <trkpt lat="42.69743" lon="0.66827">
        <ele>2079.7</ele>
        <time>2018-08-08T14:27:20.000Z</time>
      </trkpt>
      <trkpt lat="42.69743" lon="0.66827">
        <ele>2079.7</ele>
        <time>2018-08-08T14:27:21.000Z</time>
      </trkpt>
      <trkpt lat="42.69743" lon="0.66827">
        <ele>2079.7</ele>
        <time>2018-08-08T14:27:22.000Z</time>
      </trkpt>
      <trkpt lat="42.69743" lon="0.66827">
        <ele>2079.7</ele>
        <time>2018-08-08T14:27:23.000Z</time>
      </trkpt>
      <trkpt lat="42.69743" lon="0.66827">
        <ele>2079.7</ele>
        <time>2018-08-08T14:27:24.000Z</time>
      </trkpt>
      <trkpt lat="42.69743" lon="0.66827">
        <ele>2079.7</ele>
        <time>2018-08-08T14:27:25.000Z</time>
      </trkpt>
      <trkpt lat="42.69743" lon="0.66827">
        <ele>2079.7</ele>
        <time>2018-08-08T14:27:26.000Z</time>
      </trkpt>
      <trkpt lat="42.69743" lon="0.66827">
        <ele>2079.7</ele>
        <time>2018-08-08T14:27:27.000Z</time>
      </trkpt>
      <trkpt lat="42.69743" lon="0.66827">
        <ele>2079.7</ele>
        <time>2018-08-08T14:27:28.000Z</time>
      </trkpt>
      <trkpt lat="42.69743" lon="0.66827">
        <ele>2079.7</ele>
        <time>2018-08-08T14:27:29.000Z</time>
      </trkpt>
      <trkpt lat="42.69743" lon="0.66827">
        <ele>2079.7</ele>
        <time>2018-08-08T14:27:30.000Z</time>
      </trkpt>
      <trkpt lat="42.69743" lon="0.66827">
        <ele>2079.7</ele>
        <time>2018-08-08T14:27:31.000Z</time>
      </trkpt>
      <trkpt lat="42.69743" lon="0.66827">
        <ele>2079.7</ele>
        <time>2018-08-08T14:27:32.000Z</time>
      </trkpt>
      <trkpt lat="42.69743" lon="0.66827">
        <ele>2079.7</ele>
        <time>2018-08-08T14:27:33.000Z</time>
      </trkpt>
      <trkpt lat="42.69743" lon="0.66827">
        <ele>2079.7</ele>
        <time>2018-08-08T14:27:34.000Z</time>
      </trkpt>
      <trkpt lat="42.69743" lon="0.66827">
        <ele>2079.7</ele>
        <time>2018-08-08T14:27:35.000Z</time>
      </trkpt>
      <trkpt lat="42.69743" lon="0.66827">
        <ele>2079.7</ele>
        <time>2018-08-08T14:27:36.000Z</time>
      </trkpt>
      <trkpt lat="42.69743" lon="0.66827">
        <ele>2079.7</ele>
        <time>2018-08-08T14:27:37.000Z</time>
      </trkpt>
      <trkpt lat="42.69743" lon="0.66827">
        <ele>2079.7</ele>
        <time>2018-08-08T14:27:38.000Z</time>
      </trkpt>
      <trkpt lat="42.69743" lon="0.66827">
        <ele>2079.7</ele>
        <time>2018-08-08T14:27:39.000Z</time>
      </trkpt>
      <trkpt lat="42.69743" lon="0.66827">
        <ele>2079.7</ele>
        <time>2018-08-08T14:27:40.000Z</time>
      </trkpt>
      <trkpt lat="42.69743" lon="0.66827">
        <ele>2079.7</ele>
        <time>2018-08-08T14:27:41.000Z</time>
      </trkpt>
      <trkpt lat="42.69743" lon="0.66827">
        <ele>2079.7</ele>
        <time>2018-08-08T14:27:42.000Z</time>
      </trkpt>
      <trkpt lat="42.69743" lon="0.66827">
        <ele>2079.7</ele>
        <time>2018-08-08T14:27:43.000Z</time>
      </trkpt>
      <trkpt lat="42.69743" lon="0.66827">
        <ele>2079.7</ele>
        <time>2018-08-08T14:27:44.000Z</time>
      </trkpt>
      <trkpt lat="42.69743" lon="0.66827">
        <ele>2079.7</ele>
        <time>2018-08-08T14:27:45.000Z</time>
      </trkpt>
      <trkpt lat="42.69743" lon="0.66827">
        <ele>2079.7</ele>
        <time>2018-08-08T14:27:46.000Z</time>
      </trkpt>
      <trkpt lat="42.69743" lon="0.66827">
        <ele>2079.7</ele>
        <time>2018-08-08T14:27:47.000Z</time>
      </trkpt>
      <trkpt lat="42.69743" lon="0.66827">
        <ele>2079.7</ele>
        <time>2018-08-08T14:27:48.000Z</time>
      </trkpt>
      <trkpt lat="42.69743" lon="0.66827">
        <ele>2079.7</ele>
        <time>2018-08-08T14:27:49.000Z</time>
      </trkpt>
      <trkpt lat="42.69743" lon="0.66827">
        <ele>2079.7</ele>
        <time>2018-08-08T14:27:50.000Z</time>
      </trkpt>
      <trkpt lat="42.69743" lon="0.66827">
        <ele>2079.7</ele>
        <time>2018-08-08T14:27:51.000Z</time>
      </trkpt>
      <trkpt lat="42.69743" lon="0.66827">
        <ele>2079.7</ele>
        <time>2018-08-08T14:27:52.000Z</time>
      </trkpt>
      <trkpt lat="42.69743" lon="0.66827">
        <ele>2079.7</ele>
        <time>2018-08-08T14:27:53.000Z</time>
      </trkpt>
      <trkpt lat="42.69743" lon="0.66827">
        <ele>2079.7</ele>
        <time>2018-08-08T14:27:54.000Z</time>
      </trkpt>
      <trkpt lat="42.69743" lon="0.66827">
        <ele>2079.7</ele>
        <time>2018-08-08T14:27:55.000Z</time>
      </trkpt>
      <trkpt lat="42.69743" lon="0.66827">
        <ele>2079.7</ele>
        <time>2018-08-08T14:27:56.000Z</time>
      </trkpt>
      <trkpt lat="42.69743" lon="0.66827">
        <ele>2079.7</ele>
        <time>2018-08-08T14:27:57.000Z</time>
      </trkpt>
      <trkpt lat="42.69743" lon="0.66827">
        <ele>2079.7</ele>
        <time>2018-08-08T14:27:58.000Z</time>
      </trkpt>
      <trkpt lat="42.69743" lon="0.66827">
        <ele>2079.7</ele>
        <time>2018-08-08T14:27:59.000Z</time>
      </trkpt>
      <trkpt lat="42.69743" lon="0.66827">
        <ele>2079.7</ele>
        <time>2018-08-08T14:28:00.000Z</time>
      </trkpt>
      <trkpt lat="42.69743" lon="0.66827">
        <ele>2079.7</ele>
        <time>2018-08-08T14:28:01.000Z</time>
      </trkpt>
      <trkpt lat="42.69743" lon="0.66827">
        <ele>2079.7</ele>
        <time>2018-08-08T14:28:02.000Z</time>
      </trkpt>
      <trkpt lat="42.69743" lon="0.66827">
        <ele>2079.7</ele>
        <time>2018-08-08T14:28:03.000Z</time>
      </trkpt>
      <trkpt lat="42.69743" lon="0.66827">
        <ele>2079.7</ele>
        <time>2018-08-08T14:28:04.000Z</time>
      </trkpt>
      <trkpt lat="42.69743" lon="0.66827">
        <ele>2079.7</ele>
        <time>2018-08-08T14:28:05.000Z</time>
      </trkpt>
      <trkpt lat="42.69743" lon="0.66827">
        <ele>2079.7</ele>
        <time>2018-08-08T14:28:06.000Z</time>
      </trkpt>
      <trkpt lat="42.69743" lon="0.66827">
        <ele>2079.7</ele>
        <time>2018-08-08T14:28:07.000Z</time>
      </trkpt>
      <trkpt lat="42.69743" lon="0.66827">
        <ele>2079.7</ele>
        <time>2018-08-08T14:28:08.000Z</time>
      </trkpt>
      <trkpt lat="42.69743" lon="0.66827">
        <ele>2079.7</ele>
        <time>2018-08-08T14:28:09.000Z</time>
      </trkpt>
      <trkpt lat="42.69743" lon="0.66827">
        <ele>2079.7</ele>
        <time>2018-08-08T14:28:10.000Z</time>
      </trkpt>
      <trkpt lat="42.69743" lon="0.66827">
        <ele>2079.7</ele>
        <time>2018-08-08T14:28:11.000Z</time>
      </trkpt>
      <trkpt lat="42.69743" lon="0.66827">
        <ele>2079.7</ele>
        <time>2018-08-08T14:28:12.000Z</time>
      </trkpt>
      <trkpt lat="42.69743" lon="0.66827">
        <ele>2079.7</ele>
        <time>2018-08-08T14:28:13.000Z</time>
      </trkpt>
      <trkpt lat="42.69743" lon="0.66827">
        <ele>2079.7</ele>
        <time>2018-08-08T14:28:14.000Z</time>
      </trkpt>
      <trkpt lat="42.69743" lon="0.66827">
        <ele>2079.7</ele>
        <time>2018-08-08T14:28:15.000Z</time>
      </trkpt>
      <trkpt lat="42.69743" lon="0.66827">
        <ele>2079.7</ele>
        <time>2018-08-08T14:28:16.000Z</time>
      </trkpt>
      <trkpt lat="42.69743" lon="0.66827">
        <ele>2079.7</ele>
        <time>2018-08-08T14:28:17.000Z</time>
      </trkpt>
      <trkpt lat="42.69743" lon="0.66827">
        <ele>2079.7</ele>
        <time>2018-08-08T14:28:18.000Z</time>
      </trkpt>
      <trkpt lat="42.69743" lon="0.66827">
        <ele>2079.7</ele>
        <time>2018-08-08T14:28:19.000Z</time>
      </trkpt>
      <trkpt lat="42.69743" lon="0.66827">
        <ele>2079.7</ele>
        <time>2018-08-08T14:28:20.000Z</time>
      </trkpt>
      <trkpt lat="42.69743" lon="0.66827">
        <ele>2079.7</ele>
        <time>2018-08-08T14:28:21.000Z</time>
      </trkpt>
      <trkpt lat="42.69743" lon="0.66827">
        <ele>2079.7</ele>
        <time>2018-08-08T14:28:22.000Z</time>
      </trkpt>
      <trkpt lat="42.69743" lon="0.66827">
        <ele>2079.7</ele>
        <time>2018-08-08T14:28:23.000Z</time>
      </trkpt>
      <trkpt lat="42.69743" lon="0.66827">
        <ele>2079.7</ele>
        <time>2018-08-08T14:28:24.000Z</time>
      </trkpt>
      <trkpt lat="42.69743" lon="0.66827">
        <ele>2079.6</ele>
        <time>2018-08-08T14:28:25.000Z</time>
      </trkpt>
      <trkpt lat="42.69743" lon="0.66827">
        <ele>2079.6</ele>
        <time>2018-08-08T14:28:26.000Z</time>
      </trkpt>
      <trkpt lat="42.69743" lon="0.66827">
        <ele>2079.6</ele>
        <time>2018-08-08T14:28:27.000Z</time>
      </trkpt>
      <trkpt lat="42.69743" lon="0.66827">
        <ele>2079.6</ele>
        <time>2018-08-08T14:28:28.000Z</time>
      </trkpt>
      <trkpt lat="42.69743" lon="0.66827">
        <ele>2079.6</ele>
        <time>2018-08-08T14:28:29.000Z</time>
      </trkpt>
      <trkpt lat="42.69743" lon="0.66827">
        <ele>2079.6</ele>
        <time>2018-08-08T14:28:30.000Z</time>
      </trkpt>
      <trkpt lat="42.69743" lon="0.66827">
        <ele>2079.6</ele>
        <time>2018-08-08T14:28:31.000Z</time>
      </trkpt>
      <trkpt lat="42.69743" lon="0.66827">
        <ele>2079.6</ele>
        <time>2018-08-08T14:28:32.000Z</time>
      </trkpt>
      <trkpt lat="42.69743" lon="0.66827">
        <ele>2079.6</ele>
        <time>2018-08-08T14:28:33.000Z</time>
      </trkpt>
      <trkpt lat="42.69743" lon="0.66827">
        <ele>2079.6</ele>
        <time>2018-08-08T14:28:34.000Z</time>
      </trkpt>
      <trkpt lat="42.69743" lon="0.66827">
        <ele>2079.6</ele>
        <time>2018-08-08T14:28:35.000Z</time>
      </trkpt>
      <trkpt lat="42.69743" lon="0.66827">
        <ele>2079.6</ele>
        <time>2018-08-08T14:28:36.000Z</time>
      </trkpt>
      <trkpt lat="42.69743" lon="0.66827">
        <ele>2079.6</ele>
        <time>2018-08-08T14:28:37.000Z</time>
      </trkpt>
      <trkpt lat="42.69743" lon="0.66827">
        <ele>2079.5</ele>
        <time>2018-08-08T14:28:38.000Z</time>
      </trkpt>
      <trkpt lat="42.69743" lon="0.66827">
        <ele>2079.5</ele>
        <time>2018-08-08T14:28:39.000Z</time>
      </trkpt>
      <trkpt lat="42.69743" lon="0.66827">
        <ele>2079.5</ele>
        <time>2018-08-08T14:28:40.000Z</time>
      </trkpt>
      <trkpt lat="42.69743" lon="0.66827">
        <ele>2079.5</ele>
        <time>2018-08-08T14:28:41.000Z</time>
      </trkpt>
      <trkpt lat="42.69743" lon="0.66827">
        <ele>2079.5</ele>
        <time>2018-08-08T14:28:42.000Z</time>
      </trkpt>
      <trkpt lat="42.69743" lon="0.66827">
        <ele>2079.5</ele>
        <time>2018-08-08T14:28:43.000Z</time>
      </trkpt>
      <trkpt lat="42.69743" lon="0.66827">
        <ele>2079.5</ele>
        <time>2018-08-08T14:28:44.000Z</time>
      </trkpt>
      <trkpt lat="42.69744" lon="0.66827">
        <ele>2079.4</ele>
        <time>2018-08-08T14:28:45.000Z</time>
      </trkpt>
      <trkpt lat="42.69744" lon="0.66827">
        <ele>2079.4</ele>
        <time>2018-08-08T14:28:46.000Z</time>
      </trkpt>
      <trkpt lat="42.69744" lon="0.66827">
        <ele>2079.4</ele>
        <time>2018-08-08T14:28:47.000Z</time>
      </trkpt>
      <trkpt lat="42.69744" lon="0.66827">
        <ele>2079.4</ele>
        <time>2018-08-08T14:28:48.000Z</time>
      </trkpt>
      <trkpt lat="42.69744" lon="0.66827">
        <ele>2079.4</ele>
        <time>2018-08-08T14:28:49.000Z</time>
      </trkpt>
      <trkpt lat="42.69744" lon="0.66827">
        <ele>2079.4</ele>
        <time>2018-08-08T14:28:50.000Z</time>
      </trkpt>
      <trkpt lat="42.69744" lon="0.66827">
        <ele>2079.4</ele>
        <time>2018-08-08T14:28:51.000Z</time>
      </trkpt>
      <trkpt lat="42.69744" lon="0.66827">
        <ele>2079.4</ele>
        <time>2018-08-08T14:28:52.000Z</time>
      </trkpt>
      <trkpt lat="42.69744" lon="0.66827">
        <ele>2079.3</ele>
        <time>2018-08-08T14:28:53.000Z</time>
      </trkpt>
      <trkpt lat="42.69744" lon="0.66827">
        <ele>2079.3</ele>
        <time>2018-08-08T14:28:54.000Z</time>
      </trkpt>
      <trkpt lat="42.69744" lon="0.66827">
        <ele>2079.3</ele>
        <time>2018-08-08T14:28:55.000Z</time>
      </trkpt>
      <trkpt lat="42.69744" lon="0.66827">
        <ele>2079.3</ele>
        <time>2018-08-08T14:28:56.000Z</time>
      </trkpt>
      <trkpt lat="42.69744" lon="0.66827">
        <ele>2079.3</ele>
        <time>2018-08-08T14:28:57.000Z</time>
      </trkpt>
      <trkpt lat="42.69744" lon="0.66827">
        <ele>2079.3</ele>
        <time>2018-08-08T14:28:58.000Z</time>
      </trkpt>
      <trkpt lat="42.69744" lon="0.66827">
        <ele>2079.3</ele>
        <time>2018-08-08T14:28:59.000Z</time>
      </trkpt>
      <trkpt lat="42.69744" lon="0.66827">
        <ele>2079.3</ele>
        <time>2018-08-08T14:29:00.000Z</time>
      </trkpt>
      <trkpt lat="42.69744" lon="0.66827">
        <ele>2079.3</ele>
        <time>2018-08-08T14:29:01.000Z</time>
      </trkpt>
      <trkpt lat="42.69744" lon="0.66827">
        <ele>2079.3</ele>
        <time>2018-08-08T14:29:02.000Z</time>
      </trkpt>
      <trkpt lat="42.69744" lon="0.66827">
        <ele>2079.3</ele>
        <time>2018-08-08T14:29:03.000Z</time>
      </trkpt>
      <trkpt lat="42.69744" lon="0.66827">
        <ele>2079.3</ele>
        <time>2018-08-08T14:29:04.000Z</time>
      </trkpt>
      <trkpt lat="42.69744" lon="0.66827">
        <ele>2079.3</ele>
        <time>2018-08-08T14:29:05.000Z</time>
      </trkpt>
      <trkpt lat="42.69744" lon="0.66827">
        <ele>2079.3</ele>
        <time>2018-08-08T14:29:06.000Z</time>
      </trkpt>
      <trkpt lat="42.69744" lon="0.66827">
        <ele>2079.3</ele>
        <time>2018-08-08T14:29:07.000Z</time>
      </trkpt>
      <trkpt lat="42.69744" lon="0.66827">
        <ele>2079.3</ele>
        <time>2018-08-08T14:29:08.000Z</time>
      </trkpt>
      <trkpt lat="42.69744" lon="0.66827">
        <ele>2079.3</ele>
        <time>2018-08-08T14:29:09.000Z</time>
      </trkpt>
      <trkpt lat="42.69744" lon="0.66827">
        <ele>2079.3</ele>
        <time>2018-08-08T14:29:10.000Z</time>
      </trkpt>
      <trkpt lat="42.69744" lon="0.66827">
        <ele>2079.3</ele>
        <time>2018-08-08T14:29:11.000Z</time>
      </trkpt>
      <trkpt lat="42.69744" lon="0.66827">
        <ele>2079.3</ele>
        <time>2018-08-08T14:29:12.000Z</time>
      </trkpt>
      <trkpt lat="42.69744" lon="0.66827">
        <ele>2079.3</ele>
        <time>2018-08-08T14:29:13.000Z</time>
      </trkpt>
      <trkpt lat="42.69744" lon="0.66827">
        <ele>2079.3</ele>
        <time>2018-08-08T14:29:14.000Z</time>
      </trkpt>
      <trkpt lat="42.69744" lon="0.66827">
        <ele>2079.3</ele>
        <time>2018-08-08T14:29:15.000Z</time>
      </trkpt>
      <trkpt lat="42.69744" lon="0.66827">
        <ele>2079.3</ele>
        <time>2018-08-08T14:29:16.000Z</time>
      </trkpt>
      <trkpt lat="42.69744" lon="0.66827">
        <ele>2079.3</ele>
        <time>2018-08-08T14:29:17.000Z</time>
      </trkpt>
      <trkpt lat="42.69744" lon="0.66827">
        <ele>2079.3</ele>
        <time>2018-08-08T14:29:18.000Z</time>
      </trkpt>
      <trkpt lat="42.69744" lon="0.66827">
        <ele>2079.3</ele>
        <time>2018-08-08T14:29:19.000Z</time>
      </trkpt>
      <trkpt lat="42.69744" lon="0.66827">
        <ele>2079.3</ele>
        <time>2018-08-08T14:29:20.000Z</time>
      </trkpt>
      <trkpt lat="42.69744" lon="0.66827">
        <ele>2079.3</ele>
        <time>2018-08-08T14:29:21.000Z</time>
      </trkpt>
      <trkpt lat="42.69744" lon="0.66827">
        <ele>2079.3</ele>
        <time>2018-08-08T14:29:22.000Z</time>
      </trkpt>
      <trkpt lat="42.69744" lon="0.66827">
        <ele>2079.3</ele>
        <time>2018-08-08T14:29:23.000Z</time>
      </trkpt>
      <trkpt lat="42.69744" lon="0.66827">
        <ele>2079.3</ele>
        <time>2018-08-08T14:29:24.000Z</time>
      </trkpt>
      <trkpt lat="42.69744" lon="0.66827">
        <ele>2079.3</ele>
        <time>2018-08-08T14:29:25.000Z</time>
      </trkpt>
      <trkpt lat="42.69744" lon="0.66827">
        <ele>2079.3</ele>
        <time>2018-08-08T14:29:26.000Z</time>
      </trkpt>
      <trkpt lat="42.69744" lon="0.66827">
        <ele>2079.3</ele>
        <time>2018-08-08T14:29:27.000Z</time>
      </trkpt>
      <trkpt lat="42.69744" lon="0.66827">
        <ele>2079.3</ele>
        <time>2018-08-08T14:29:28.000Z</time>
      </trkpt>
      <trkpt lat="42.69744" lon="0.66827">
        <ele>2079.3</ele>
        <time>2018-08-08T14:29:29.000Z</time>
      </trkpt>
      <trkpt lat="42.69744" lon="0.66827">
        <ele>2079.3</ele>
        <time>2018-08-08T14:29:30.000Z</time>
      </trkpt>
      <trkpt lat="42.69744" lon="0.66827">
        <ele>2079.3</ele>
        <time>2018-08-08T14:29:31.000Z</time>
      </trkpt>
      <trkpt lat="42.69744" lon="0.66827">
        <ele>2079.3</ele>
        <time>2018-08-08T14:29:32.000Z</time>
      </trkpt>
      <trkpt lat="42.69744" lon="0.66827">
        <ele>2079.3</ele>
        <time>2018-08-08T14:29:33.000Z</time>
      </trkpt>
      <trkpt lat="42.69744" lon="0.66827">
        <ele>2079.3</ele>
        <time>2018-08-08T14:29:34.000Z</time>
      </trkpt>
      <trkpt lat="42.69744" lon="0.66827">
        <ele>2079.3</ele>
        <time>2018-08-08T14:29:35.000Z</time>
      </trkpt>
      <trkpt lat="42.69744" lon="0.66827">
        <ele>2079.3</ele>
        <time>2018-08-08T14:29:36.000Z</time>
      </trkpt>
      <trkpt lat="42.69744" lon="0.66827">
        <ele>2079.3</ele>
        <time>2018-08-08T14:29:37.000Z</time>
      </trkpt>
      <trkpt lat="42.69744" lon="0.66827">
        <ele>2079.3</ele>
        <time>2018-08-08T14:29:38.000Z</time>
      </trkpt>
      <trkpt lat="42.69744" lon="0.66827">
        <ele>2079.3</ele>
        <time>2018-08-08T14:29:39.000Z</time>
      </trkpt>
      <trkpt lat="42.69744" lon="0.66827">
        <ele>2079.3</ele>
        <time>2018-08-08T14:29:40.000Z</time>
      </trkpt>
      <trkpt lat="42.69744" lon="0.66827">
        <ele>2079.3</ele>
        <time>2018-08-08T14:29:41.000Z</time>
      </trkpt>
      <trkpt lat="42.69744" lon="0.66827">
        <ele>2079.3</ele>
        <time>2018-08-08T14:29:42.000Z</time>
      </trkpt>
      <trkpt lat="42.69744" lon="0.66827">
        <ele>2079.3</ele>
        <time>2018-08-08T14:29:43.000Z</time>
      </trkpt>
      <trkpt lat="42.69744" lon="0.66827">
        <ele>2079.3</ele>
        <time>2018-08-08T14:29:44.000Z</time>
      </trkpt>
      <trkpt lat="42.69744" lon="0.66827">
        <ele>2079.3</ele>
        <time>2018-08-08T14:29:45.000Z</time>
      </trkpt>
      <trkpt lat="42.69744" lon="0.66827">
        <ele>2079.3</ele>
        <time>2018-08-08T14:29:46.000Z</time>
      </trkpt>
      <trkpt lat="42.69744" lon="0.66827">
        <ele>2079.3</ele>
        <time>2018-08-08T14:29:47.000Z</time>
      </trkpt>
      <trkpt lat="42.69744" lon="0.66827">
        <ele>2079.3</ele>
        <time>2018-08-08T14:29:48.000Z</time>
      </trkpt>
      <trkpt lat="42.69744" lon="0.66827">
        <ele>2079.3</ele>
        <time>2018-08-08T14:29:49.000Z</time>
      </trkpt>
      <trkpt lat="42.69744" lon="0.66827">
        <ele>2079.3</ele>
        <time>2018-08-08T14:29:50.000Z</time>
      </trkpt>
      <trkpt lat="42.69744" lon="0.66827">
        <ele>2079.3</ele>
        <time>2018-08-08T14:29:51.000Z</time>
      </trkpt>
      <trkpt lat="42.69744" lon="0.66827">
        <ele>2079.3</ele>
        <time>2018-08-08T14:29:52.000Z</time>
      </trkpt>
      <trkpt lat="42.69744" lon="0.66827">
        <ele>2079.3</ele>
        <time>2018-08-08T14:29:53.000Z</time>
      </trkpt>
      <trkpt lat="42.69744" lon="0.66827">
        <ele>2079.3</ele>
        <time>2018-08-08T14:29:54.000Z</time>
      </trkpt>
      <trkpt lat="42.69744" lon="0.66827">
        <ele>2079.3</ele>
        <time>2018-08-08T14:29:55.000Z</time>
      </trkpt>
      <trkpt lat="42.69744" lon="0.66827">
        <ele>2079.3</ele>
        <time>2018-08-08T14:29:56.000Z</time>
      </trkpt>
      <trkpt lat="42.69744" lon="0.66827">
        <ele>2079.3</ele>
        <time>2018-08-08T14:29:57.000Z</time>
      </trkpt>
      <trkpt lat="42.69744" lon="0.66827">
        <ele>2079.3</ele>
        <time>2018-08-08T14:29:58.000Z</time>
      </trkpt>
      <trkpt lat="42.69744" lon="0.66827">
        <ele>2079.3</ele>
        <time>2018-08-08T14:29:59.000Z</time>
      </trkpt>
      <trkpt lat="42.69744" lon="0.66827">
        <ele>2079.3</ele>
        <time>2018-08-08T14:30:00.000Z</time>
      </trkpt>
      <trkpt lat="42.69744" lon="0.66827">
        <ele>2079.3</ele>
        <time>2018-08-08T14:30:01.000Z</time>
      </trkpt>
      <trkpt lat="42.69744" lon="0.66827">
        <ele>2079.3</ele>
        <time>2018-08-08T14:30:02.000Z</time>
      </trkpt>
      <trkpt lat="42.69744" lon="0.66827">
        <ele>2079.3</ele>
        <time>2018-08-08T14:30:03.000Z</time>
      </trkpt>
      <trkpt lat="42.69744" lon="0.66827">
        <ele>2079.3</ele>
        <time>2018-08-08T14:30:04.000Z</time>
      </trkpt>
      <trkpt lat="42.69744" lon="0.66827">
        <ele>2079.3</ele>
        <time>2018-08-08T14:30:05.000Z</time>
      </trkpt>
      <trkpt lat="42.69744" lon="0.66827">
        <ele>2079.3</ele>
        <time>2018-08-08T14:30:06.000Z</time>
      </trkpt>
      <trkpt lat="42.69744" lon="0.66827">
        <ele>2079.3</ele>
        <time>2018-08-08T14:30:07.000Z</time>
      </trkpt>
      <trkpt lat="42.69744" lon="0.66827">
        <ele>2079.3</ele>
        <time>2018-08-08T14:30:08.000Z</time>
      </trkpt>
      <trkpt lat="42.69744" lon="0.66827">
        <ele>2079.3</ele>
        <time>2018-08-08T14:30:09.000Z</time>
      </trkpt>
      <trkpt lat="42.69744" lon="0.66827">
        <ele>2079.3</ele>
        <time>2018-08-08T14:30:10.000Z</time>
      </trkpt>
      <trkpt lat="42.69744" lon="0.66827">
        <ele>2079.3</ele>
        <time>2018-08-08T14:30:11.000Z</time>
      </trkpt>
      <trkpt lat="42.69744" lon="0.66827">
        <ele>2079.3</ele>
        <time>2018-08-08T14:30:12.000Z</time>
      </trkpt>
      <trkpt lat="42.69744" lon="0.66827">
        <ele>2079.3</ele>
        <time>2018-08-08T14:30:13.000Z</time>
      </trkpt>
      <trkpt lat="42.69744" lon="0.66827">
        <ele>2079.3</ele>
        <time>2018-08-08T14:30:14.000Z</time>
      </trkpt>
      <trkpt lat="42.69744" lon="0.66827">
        <ele>2079.3</ele>
        <time>2018-08-08T14:30:15.000Z</time>
      </trkpt>
      <trkpt lat="42.69744" lon="0.66827">
        <ele>2079.3</ele>
        <time>2018-08-08T14:30:16.000Z</time>
      </trkpt>
      <trkpt lat="42.69744" lon="0.66827">
        <ele>2079.3</ele>
        <time>2018-08-08T14:30:17.000Z</time>
      </trkpt>
      <trkpt lat="42.69744" lon="0.66827">
        <ele>2079.3</ele>
        <time>2018-08-08T14:30:18.000Z</time>
      </trkpt>
      <trkpt lat="42.69744" lon="0.66827">
        <ele>2079.3</ele>
        <time>2018-08-08T14:30:19.000Z</time>
      </trkpt>
      <trkpt lat="42.69744" lon="0.66827">
        <ele>2079.3</ele>
        <time>2018-08-08T14:30:20.000Z</time>
      </trkpt>
      <trkpt lat="42.69744" lon="0.66827">
        <ele>2079.3</ele>
        <time>2018-08-08T14:30:21.000Z</time>
      </trkpt>
      <trkpt lat="42.69744" lon="0.66827">
        <ele>2079.3</ele>
        <time>2018-08-08T14:30:22.000Z</time>
      </trkpt>
      <trkpt lat="42.69744" lon="0.66827">
        <ele>2079.3</ele>
        <time>2018-08-08T14:30:23.000Z</time>
      </trkpt>
      <trkpt lat="42.69744" lon="0.66827">
        <ele>2079.3</ele>
        <time>2018-08-08T14:30:24.000Z</time>
      </trkpt>
      <trkpt lat="42.69744" lon="0.66827">
        <ele>2079.3</ele>
        <time>2018-08-08T14:30:25.000Z</time>
      </trkpt>
      <trkpt lat="42.69744" lon="0.66827">
        <ele>2079.3</ele>
        <time>2018-08-08T14:30:26.000Z</time>
      </trkpt>
      <trkpt lat="42.69744" lon="0.66827">
        <ele>2079.3</ele>
        <time>2018-08-08T14:30:27.000Z</time>
      </trkpt>
      <trkpt lat="42.69744" lon="0.66827">
        <ele>2079.3</ele>
        <time>2018-08-08T14:30:28.000Z</time>
      </trkpt>
      <trkpt lat="42.69744" lon="0.66827">
        <ele>2079.3</ele>
        <time>2018-08-08T14:30:29.000Z</time>
      </trkpt>
      <trkpt lat="42.69744" lon="0.66827">
        <ele>2079.3</ele>
        <time>2018-08-08T14:30:30.000Z</time>
      </trkpt>
      <trkpt lat="42.69744" lon="0.66827">
        <ele>2079.3</ele>
        <time>2018-08-08T14:30:31.000Z</time>
      </trkpt>
      <trkpt lat="42.69744" lon="0.66827">
        <ele>2079.3</ele>
        <time>2018-08-08T14:30:32.000Z</time>
      </trkpt>
      <trkpt lat="42.69744" lon="0.66827">
        <ele>2079.3</ele>
        <time>2018-08-08T14:30:33.000Z</time>
      </trkpt>
      <trkpt lat="42.69744" lon="0.66827">
        <ele>2079.3</ele>
        <time>2018-08-08T14:30:34.000Z</time>
      </trkpt>
      <trkpt lat="42.69744" lon="0.66827">
        <ele>2079.3</ele>
        <time>2018-08-08T14:30:35.000Z</time>
      </trkpt>
      <trkpt lat="42.69744" lon="0.66827">
        <ele>2079.3</ele>
        <time>2018-08-08T14:30:36.000Z</time>
      </trkpt>
      <trkpt lat="42.69744" lon="0.66827">
        <ele>2079.3</ele>
        <time>2018-08-08T14:30:37.000Z</time>
      </trkpt>
      <trkpt lat="42.69744" lon="0.66827">
        <ele>2079.3</ele>
        <time>2018-08-08T14:30:38.000Z</time>
      </trkpt>
      <trkpt lat="42.69744" lon="0.66827">
        <ele>2079.3</ele>
        <time>2018-08-08T14:30:39.000Z</time>
      </trkpt>
      <trkpt lat="42.69744" lon="0.66827">
        <ele>2079.3</ele>
        <time>2018-08-08T14:30:40.000Z</time>
      </trkpt>
      <trkpt lat="42.69744" lon="0.66827">
        <ele>2079.3</ele>
        <time>2018-08-08T14:30:41.000Z</time>
      </trkpt>
      <trkpt lat="42.69744" lon="0.66827">
        <ele>2079.3</ele>
        <time>2018-08-08T14:30:42.000Z</time>
      </trkpt>
      <trkpt lat="42.69744" lon="0.66827">
        <ele>2079.3</ele>
        <time>2018-08-08T14:30:43.000Z</time>
      </trkpt>
      <trkpt lat="42.69744" lon="0.66827">
        <ele>2079.3</ele>
        <time>2018-08-08T14:30:44.000Z</time>
      </trkpt>
      <trkpt lat="42.69744" lon="0.66827">
        <ele>2079.3</ele>
        <time>2018-08-08T14:30:45.000Z</time>
      </trkpt>
      <trkpt lat="42.69744" lon="0.66827">
        <ele>2079.3</ele>
        <time>2018-08-08T14:30:46.000Z</time>
      </trkpt>
      <trkpt lat="42.69744" lon="0.66827">
        <ele>2079.3</ele>
        <time>2018-08-08T14:30:47.000Z</time>
      </trkpt>
      <trkpt lat="42.69744" lon="0.66827">
        <ele>2079.3</ele>
        <time>2018-08-08T14:30:48.000Z</time>
      </trkpt>
      <trkpt lat="42.69744" lon="0.66827">
        <ele>2079.3</ele>
        <time>2018-08-08T14:30:49.000Z</time>
      </trkpt>
      <trkpt lat="42.69744" lon="0.66827">
        <ele>2079.3</ele>
        <time>2018-08-08T14:30:50.000Z</time>
      </trkpt>
      <trkpt lat="42.69744" lon="0.66827">
        <ele>2079.3</ele>
        <time>2018-08-08T14:30:51.000Z</time>
      </trkpt>
      <trkpt lat="42.69744" lon="0.66827">
        <ele>2079.3</ele>
        <time>2018-08-08T14:30:52.000Z</time>
      </trkpt>
      <trkpt lat="42.69744" lon="0.66827">
        <ele>2079.3</ele>
        <time>2018-08-08T14:30:53.000Z</time>
      </trkpt>
      <trkpt lat="42.69744" lon="0.66827">
        <ele>2079.3</ele>
        <time>2018-08-08T14:30:54.000Z</time>
      </trkpt>
      <trkpt lat="42.69744" lon="0.66827">
        <ele>2079.3</ele>
        <time>2018-08-08T14:30:55.000Z</time>
      </trkpt>
      <trkpt lat="42.69744" lon="0.66827">
        <ele>2079.3</ele>
        <time>2018-08-08T14:30:56.000Z</time>
      </trkpt>
      <trkpt lat="42.69744" lon="0.66827">
        <ele>2079.3</ele>
        <time>2018-08-08T14:30:57.000Z</time>
      </trkpt>
      <trkpt lat="42.69744" lon="0.66827">
        <ele>2079.3</ele>
        <time>2018-08-08T14:30:58.000Z</time>
      </trkpt>
      <trkpt lat="42.69744" lon="0.66827">
        <ele>2079.3</ele>
        <time>2018-08-08T14:30:59.000Z</time>
      </trkpt>
      <trkpt lat="42.69744" lon="0.66827">
        <ele>2079.3</ele>
        <time>2018-08-08T14:31:00.000Z</time>
      </trkpt>
      <trkpt lat="42.69744" lon="0.66827">
        <ele>2079.3</ele>
        <time>2018-08-08T14:31:01.000Z</time>
      </trkpt>
      <trkpt lat="42.69744" lon="0.66827">
        <ele>2079.3</ele>
        <time>2018-08-08T14:31:02.000Z</time>
      </trkpt>
      <trkpt lat="42.69744" lon="0.66827">
        <ele>2079.3</ele>
        <time>2018-08-08T14:31:03.000Z</time>
      </trkpt>
      <trkpt lat="42.69744" lon="0.66827">
        <ele>2079.3</ele>
        <time>2018-08-08T14:31:04.000Z</time>
      </trkpt>
      <trkpt lat="42.69744" lon="0.66827">
        <ele>2079.3</ele>
        <time>2018-08-08T14:31:05.000Z</time>
      </trkpt>
      <trkpt lat="42.69744" lon="0.66827">
        <ele>2079.3</ele>
        <time>2018-08-08T14:31:06.000Z</time>
      </trkpt>
      <trkpt lat="42.69744" lon="0.66827">
        <ele>2079.3</ele>
        <time>2018-08-08T14:31:07.000Z</time>
      </trkpt>
      <trkpt lat="42.69744" lon="0.66827">
        <ele>2079.3</ele>
        <time>2018-08-08T14:31:08.000Z</time>
      </trkpt>
      <trkpt lat="42.69744" lon="0.66827">
        <ele>2079.3</ele>
        <time>2018-08-08T14:31:09.000Z</time>
      </trkpt>
      <trkpt lat="42.69744" lon="0.66827">
        <ele>2079.3</ele>
        <time>2018-08-08T14:31:10.000Z</time>
      </trkpt>
      <trkpt lat="42.69744" lon="0.66827">
        <ele>2079.3</ele>
        <time>2018-08-08T14:31:11.000Z</time>
      </trkpt>
      <trkpt lat="42.69744" lon="0.66827">
        <ele>2079.3</ele>
        <time>2018-08-08T14:31:12.000Z</time>
      </trkpt>
      <trkpt lat="42.69744" lon="0.66827">
        <ele>2079.3</ele>
        <time>2018-08-08T14:31:13.000Z</time>
      </trkpt>
      <trkpt lat="42.69744" lon="0.66827">
        <ele>2079.3</ele>
        <time>2018-08-08T14:31:14.000Z</time>
      </trkpt>
      <trkpt lat="42.69744" lon="0.66827">
        <ele>2079.3</ele>
        <time>2018-08-08T14:31:15.000Z</time>
      </trkpt>
      <trkpt lat="42.69744" lon="0.66827">
        <ele>2079.3</ele>
        <time>2018-08-08T14:31:16.000Z</time>
      </trkpt>
      <trkpt lat="42.69744" lon="0.66827">
        <ele>2079.3</ele>
        <time>2018-08-08T14:31:17.000Z</time>
      </trkpt>
      <trkpt lat="42.69744" lon="0.66827">
        <ele>2079.3</ele>
        <time>2018-08-08T14:31:18.000Z</time>
      </trkpt>
      <trkpt lat="42.69744" lon="0.66827">
        <ele>2079.3</ele>
        <time>2018-08-08T14:31:19.000Z</time>
      </trkpt>
      <trkpt lat="42.69744" lon="0.66827">
        <ele>2079.3</ele>
        <time>2018-08-08T14:31:20.000Z</time>
      </trkpt>
      <trkpt lat="42.69744" lon="0.66827">
        <ele>2079.3</ele>
        <time>2018-08-08T14:31:21.000Z</time>
      </trkpt>
      <trkpt lat="42.69744" lon="0.66827">
        <ele>2079.3</ele>
        <time>2018-08-08T14:31:22.000Z</time>
      </trkpt>
      <trkpt lat="42.69744" lon="0.66827">
        <ele>2079.3</ele>
        <time>2018-08-08T14:31:23.000Z</time>
      </trkpt>
      <trkpt lat="42.69744" lon="0.66827">
        <ele>2079.3</ele>
        <time>2018-08-08T14:31:24.000Z</time>
      </trkpt>
      <trkpt lat="42.69744" lon="0.66827">
        <ele>2079.3</ele>
        <time>2018-08-08T14:31:25.000Z</time>
      </trkpt>
      <trkpt lat="42.69744" lon="0.66827">
        <ele>2079.3</ele>
        <time>2018-08-08T14:31:26.000Z</time>
      </trkpt>
      <trkpt lat="42.69744" lon="0.66827">
        <ele>2079.3</ele>
        <time>2018-08-08T14:31:27.000Z</time>
      </trkpt>
      <trkpt lat="42.69744" lon="0.66827">
        <ele>2079.3</ele>
        <time>2018-08-08T14:31:28.000Z</time>
      </trkpt>
      <trkpt lat="42.69744" lon="0.66827">
        <ele>2079.3</ele>
        <time>2018-08-08T14:31:29.000Z</time>
      </trkpt>
      <trkpt lat="42.69744" lon="0.66827">
        <ele>2079.3</ele>
        <time>2018-08-08T14:31:30.000Z</time>
      </trkpt>
      <trkpt lat="42.69744" lon="0.66827">
        <ele>2079.3</ele>
        <time>2018-08-08T14:31:31.000Z</time>
      </trkpt>
      <trkpt lat="42.69744" lon="0.66827">
        <ele>2079.3</ele>
        <time>2018-08-08T14:31:32.000Z</time>
      </trkpt>
      <trkpt lat="42.69744" lon="0.66827">
        <ele>2079.3</ele>
        <time>2018-08-08T14:31:33.000Z</time>
      </trkpt>
      <trkpt lat="42.69744" lon="0.66827">
        <ele>2079.3</ele>
        <time>2018-08-08T14:31:34.000Z</time>
      </trkpt>
      <trkpt lat="42.69744" lon="0.66827">
        <ele>2079.3</ele>
        <time>2018-08-08T14:31:35.000Z</time>
      </trkpt>
      <trkpt lat="42.69744" lon="0.66827">
        <ele>2079.3</ele>
        <time>2018-08-08T14:31:36.000Z</time>
      </trkpt>
      <trkpt lat="42.69744" lon="0.66827">
        <ele>2079.3</ele>
        <time>2018-08-08T14:31:37.000Z</time>
      </trkpt>
      <trkpt lat="42.69744" lon="0.66827">
        <ele>2079.3</ele>
        <time>2018-08-08T14:31:38.000Z</time>
      </trkpt>
      <trkpt lat="42.69744" lon="0.66827">
        <ele>2079.3</ele>
        <time>2018-08-08T14:31:39.000Z</time>
      </trkpt>
      <trkpt lat="42.69744" lon="0.66827">
        <ele>2079.3</ele>
        <time>2018-08-08T14:31:40.000Z</time>
      </trkpt>
      <trkpt lat="42.69744" lon="0.66827">
        <ele>2079.3</ele>
        <time>2018-08-08T14:31:41.000Z</time>
      </trkpt>
      <trkpt lat="42.69744" lon="0.66827">
        <ele>2079.3</ele>
        <time>2018-08-08T14:31:42.000Z</time>
      </trkpt>
      <trkpt lat="42.69744" lon="0.66827">
        <ele>2079.3</ele>
        <time>2018-08-08T14:31:43.000Z</time>
      </trkpt>
      <trkpt lat="42.69744" lon="0.66827">
        <ele>2079.3</ele>
        <time>2018-08-08T14:31:44.000Z</time>
      </trkpt>
      <trkpt lat="42.69744" lon="0.66827">
        <ele>2079.3</ele>
        <time>2018-08-08T14:31:45.000Z</time>
      </trkpt>
      <trkpt lat="42.69744" lon="0.66827">
        <ele>2079.3</ele>
        <time>2018-08-08T14:31:46.000Z</time>
      </trkpt>
      <trkpt lat="42.69744" lon="0.66827">
        <ele>2079.3</ele>
        <time>2018-08-08T14:31:47.000Z</time>
      </trkpt>
      <trkpt lat="42.69744" lon="0.66827">
        <ele>2079.3</ele>
        <time>2018-08-08T14:31:48.000Z</time>
      </trkpt>
      <trkpt lat="42.69744" lon="0.66827">
        <ele>2079.3</ele>
        <time>2018-08-08T14:31:49.000Z</time>
      </trkpt>
      <trkpt lat="42.69744" lon="0.66827">
        <ele>2079.3</ele>
        <time>2018-08-08T14:31:50.000Z</time>
      </trkpt>
      <trkpt lat="42.69744" lon="0.66827">
        <ele>2079.3</ele>
        <time>2018-08-08T14:31:51.000Z</time>
      </trkpt>
      <trkpt lat="42.69744" lon="0.66827">
        <ele>2079.3</ele>
        <time>2018-08-08T14:31:52.000Z</time>
      </trkpt>
      <trkpt lat="42.69744" lon="0.66827">
        <ele>2079.3</ele>
        <time>2018-08-08T14:31:53.000Z</time>
      </trkpt>
      <trkpt lat="42.69744" lon="0.66827">
        <ele>2079.3</ele>
        <time>2018-08-08T14:31:54.000Z</time>
      </trkpt>
      <trkpt lat="42.69744" lon="0.66827">
        <ele>2079.3</ele>
        <time>2018-08-08T14:31:55.000Z</time>
      </trkpt>
      <trkpt lat="42.69744" lon="0.66827">
        <ele>2079.3</ele>
        <time>2018-08-08T14:31:56.000Z</time>
      </trkpt>
      <trkpt lat="42.69744" lon="0.66827">
        <ele>2079.3</ele>
        <time>2018-08-08T14:31:57.000Z</time>
      </trkpt>
      <trkpt lat="42.69744" lon="0.66827">
        <ele>2079.3</ele>
        <time>2018-08-08T14:31:58.000Z</time>
      </trkpt>
      <trkpt lat="42.69744" lon="0.66827">
        <ele>2079.3</ele>
        <time>2018-08-08T14:31:59.000Z</time>
      </trkpt>
      <trkpt lat="42.69744" lon="0.66827">
        <ele>2079.3</ele>
        <time>2018-08-08T14:32:00.000Z</time>
      </trkpt>
      <trkpt lat="42.69744" lon="0.66827">
        <ele>2079.3</ele>
        <time>2018-08-08T14:32:01.000Z</time>
      </trkpt>
      <trkpt lat="42.69744" lon="0.66827">
        <ele>2079.3</ele>
        <time>2018-08-08T14:32:02.000Z</time>
      </trkpt>
      <trkpt lat="42.69744" lon="0.66827">
        <ele>2079.3</ele>
        <time>2018-08-08T14:32:03.000Z</time>
      </trkpt>
      <trkpt lat="42.69744" lon="0.66827">
        <ele>2079.3</ele>
        <time>2018-08-08T14:32:04.000Z</time>
      </trkpt>
      <trkpt lat="42.69744" lon="0.66827">
        <ele>2079.3</ele>
        <time>2018-08-08T14:32:05.000Z</time>
      </trkpt>
      <trkpt lat="42.69744" lon="0.66827">
        <ele>2079.3</ele>
        <time>2018-08-08T14:32:06.000Z</time>
      </trkpt>
      <trkpt lat="42.69744" lon="0.66827">
        <ele>2079.3</ele>
        <time>2018-08-08T14:32:07.000Z</time>
      </trkpt>
      <trkpt lat="42.69744" lon="0.66827">
        <ele>2079.3</ele>
        <time>2018-08-08T14:32:08.000Z</time>
      </trkpt>
      <trkpt lat="42.69744" lon="0.66827">
        <ele>2079.3</ele>
        <time>2018-08-08T14:32:09.000Z</time>
      </trkpt>
      <trkpt lat="42.69744" lon="0.66827">
        <ele>2079.3</ele>
        <time>2018-08-08T14:32:10.000Z</time>
      </trkpt>
      <trkpt lat="42.69744" lon="0.66827">
        <ele>2079.3</ele>
        <time>2018-08-08T14:32:11.000Z</time>
      </trkpt>
      <trkpt lat="42.69744" lon="0.66827">
        <ele>2079.3</ele>
        <time>2018-08-08T14:32:12.000Z</time>
      </trkpt>
      <trkpt lat="42.69744" lon="0.66827">
        <ele>2079.3</ele>
        <time>2018-08-08T14:32:13.000Z</time>
      </trkpt>
      <trkpt lat="42.69744" lon="0.66827">
        <ele>2079.3</ele>
        <time>2018-08-08T14:32:14.000Z</time>
      </trkpt>
      <trkpt lat="42.69744" lon="0.66827">
        <ele>2079.3</ele>
        <time>2018-08-08T14:32:15.000Z</time>
      </trkpt>
      <trkpt lat="42.69744" lon="0.66827">
        <ele>2079.3</ele>
        <time>2018-08-08T14:32:16.000Z</time>
      </trkpt>
      <trkpt lat="42.69744" lon="0.66827">
        <ele>2079.3</ele>
        <time>2018-08-08T14:32:17.000Z</time>
      </trkpt>
      <trkpt lat="42.69744" lon="0.66827">
        <ele>2079.3</ele>
        <time>2018-08-08T14:32:18.000Z</time>
      </trkpt>
      <trkpt lat="42.69744" lon="0.66827">
        <ele>2079.3</ele>
        <time>2018-08-08T14:32:19.000Z</time>
      </trkpt>
      <trkpt lat="42.69744" lon="0.66827">
        <ele>2079.3</ele>
        <time>2018-08-08T14:32:20.000Z</time>
      </trkpt>
      <trkpt lat="42.69744" lon="0.66827">
        <ele>2079.3</ele>
        <time>2018-08-08T14:32:21.000Z</time>
      </trkpt>
      <trkpt lat="42.69744" lon="0.66827">
        <ele>2079.3</ele>
        <time>2018-08-08T14:32:22.000Z</time>
      </trkpt>
      <trkpt lat="42.69744" lon="0.66827">
        <ele>2079.3</ele>
        <time>2018-08-08T14:32:23.000Z</time>
      </trkpt>
      <trkpt lat="42.69744" lon="0.66827">
        <ele>2079.3</ele>
        <time>2018-08-08T14:32:24.000Z</time>
      </trkpt>
      <trkpt lat="42.69744" lon="0.66827">
        <ele>2079.3</ele>
        <time>2018-08-08T14:32:25.000Z</time>
      </trkpt>
      <trkpt lat="42.69744" lon="0.66827">
        <ele>2079.3</ele>
        <time>2018-08-08T14:32:26.000Z</time>
      </trkpt>
      <trkpt lat="42.69744" lon="0.66827">
        <ele>2079.3</ele>
        <time>2018-08-08T14:32:27.000Z</time>
      </trkpt>
      <trkpt lat="42.69744" lon="0.66827">
        <ele>2079.3</ele>
        <time>2018-08-08T14:32:28.000Z</time>
      </trkpt>
      <trkpt lat="42.69744" lon="0.66827">
        <ele>2079.3</ele>
        <time>2018-08-08T14:32:29.000Z</time>
      </trkpt>
      <trkpt lat="42.69744" lon="0.66827">
        <ele>2079.3</ele>
        <time>2018-08-08T14:32:30.000Z</time>
      </trkpt>
      <trkpt lat="42.69744" lon="0.66827">
        <ele>2079.3</ele>
        <time>2018-08-08T14:32:31.000Z</time>
      </trkpt>
      <trkpt lat="42.69744" lon="0.66827">
        <ele>2079.3</ele>
        <time>2018-08-08T14:32:32.000Z</time>
      </trkpt>
      <trkpt lat="42.69744" lon="0.66827">
        <ele>2079.3</ele>
        <time>2018-08-08T14:32:33.000Z</time>
      </trkpt>
      <trkpt lat="42.69744" lon="0.66827">
        <ele>2079.3</ele>
        <time>2018-08-08T14:32:34.000Z</time>
      </trkpt>
      <trkpt lat="42.69744" lon="0.66827">
        <ele>2079.3</ele>
        <time>2018-08-08T14:32:35.000Z</time>
      </trkpt>
      <trkpt lat="42.69744" lon="0.66827">
        <ele>2079.3</ele>
        <time>2018-08-08T14:32:36.000Z</time>
      </trkpt>
      <trkpt lat="42.69744" lon="0.66827">
        <ele>2079.3</ele>
        <time>2018-08-08T14:32:37.000Z</time>
      </trkpt>
      <trkpt lat="42.69744" lon="0.66827">
        <ele>2079.3</ele>
        <time>2018-08-08T14:32:38.000Z</time>
      </trkpt>
      <trkpt lat="42.69744" lon="0.66827">
        <ele>2079.3</ele>
        <time>2018-08-08T14:32:39.000Z</time>
      </trkpt>
      <trkpt lat="42.69744" lon="0.66827">
        <ele>2079.3</ele>
        <time>2018-08-08T14:32:40.000Z</time>
      </trkpt>
      <trkpt lat="42.69744" lon="0.66827">
        <ele>2079.3</ele>
        <time>2018-08-08T14:32:41.000Z</time>
      </trkpt>
      <trkpt lat="42.69744" lon="0.66827">
        <ele>2079.3</ele>
        <time>2018-08-08T14:32:42.000Z</time>
      </trkpt>
      <trkpt lat="42.69744" lon="0.66827">
        <ele>2079.3</ele>
        <time>2018-08-08T14:32:43.000Z</time>
      </trkpt>
      <trkpt lat="42.69744" lon="0.66827">
        <ele>2079.3</ele>
        <time>2018-08-08T14:32:44.000Z</time>
      </trkpt>
      <trkpt lat="42.69744" lon="0.66827">
        <ele>2079.3</ele>
        <time>2018-08-08T14:32:45.000Z</time>
      </trkpt>
      <trkpt lat="42.69744" lon="0.66827">
        <ele>2079.3</ele>
        <time>2018-08-08T14:32:46.000Z</time>
      </trkpt>
      <trkpt lat="42.69744" lon="0.66827">
        <ele>2079.3</ele>
        <time>2018-08-08T14:32:47.000Z</time>
      </trkpt>
      <trkpt lat="42.69744" lon="0.66827">
        <ele>2079.3</ele>
        <time>2018-08-08T14:32:48.000Z</time>
      </trkpt>
      <trkpt lat="42.69744" lon="0.66827">
        <ele>2079.3</ele>
        <time>2018-08-08T14:32:49.000Z</time>
      </trkpt>
      <trkpt lat="42.69744" lon="0.66827">
        <ele>2079.3</ele>
        <time>2018-08-08T14:32:50.000Z</time>
      </trkpt>
      <trkpt lat="42.69744" lon="0.66827">
        <ele>2079.3</ele>
        <time>2018-08-08T14:32:51.000Z</time>
      </trkpt>
      <trkpt lat="42.69744" lon="0.66827">
        <ele>2079.3</ele>
        <time>2018-08-08T14:32:52.000Z</time>
      </trkpt>
      <trkpt lat="42.69744" lon="0.66827">
        <ele>2079.3</ele>
        <time>2018-08-08T14:32:53.000Z</time>
      </trkpt>
      <trkpt lat="42.69744" lon="0.66827">
        <ele>2079.3</ele>
        <time>2018-08-08T14:32:54.000Z</time>
      </trkpt>
      <trkpt lat="42.69744" lon="0.66827">
        <ele>2079.3</ele>
        <time>2018-08-08T14:32:55.000Z</time>
      </trkpt>
      <trkpt lat="42.69744" lon="0.66827">
        <ele>2079.3</ele>
        <time>2018-08-08T14:32:56.000Z</time>
      </trkpt>
      <trkpt lat="42.69744" lon="0.66827">
        <ele>2079.3</ele>
        <time>2018-08-08T14:32:57.000Z</time>
      </trkpt>
      <trkpt lat="42.69744" lon="0.66827">
        <ele>2079.3</ele>
        <time>2018-08-08T14:32:58.000Z</time>
      </trkpt>
      <trkpt lat="42.69744" lon="0.66827">
        <ele>2079.3</ele>
        <time>2018-08-08T14:32:59.000Z</time>
      </trkpt>
      <trkpt lat="42.69744" lon="0.66827">
        <ele>2079.3</ele>
        <time>2018-08-08T14:33:00.000Z</time>
      </trkpt>
      <trkpt lat="42.69744" lon="0.66827">
        <ele>2079.3</ele>
        <time>2018-08-08T14:33:01.000Z</time>
      </trkpt>
      <trkpt lat="42.69744" lon="0.66827">
        <ele>2079.3</ele>
        <time>2018-08-08T14:33:02.000Z</time>
      </trkpt>
      <trkpt lat="42.69744" lon="0.66827">
        <ele>2079.3</ele>
        <time>2018-08-08T14:33:03.000Z</time>
      </trkpt>
      <trkpt lat="42.69744" lon="0.66827">
        <ele>2079.3</ele>
        <time>2018-08-08T14:33:04.000Z</time>
      </trkpt>
      <trkpt lat="42.69744" lon="0.66827">
        <ele>2079.3</ele>
        <time>2018-08-08T14:33:05.000Z</time>
      </trkpt>
      <trkpt lat="42.69744" lon="0.66827">
        <ele>2079.3</ele>
        <time>2018-08-08T14:33:06.000Z</time>
      </trkpt>
      <trkpt lat="42.69744" lon="0.66827">
        <ele>2079.3</ele>
        <time>2018-08-08T14:33:07.000Z</time>
      </trkpt>
      <trkpt lat="42.69744" lon="0.66827">
        <ele>2079.3</ele>
        <time>2018-08-08T14:33:08.000Z</time>
      </trkpt>
      <trkpt lat="42.69744" lon="0.66827">
        <ele>2079.3</ele>
        <time>2018-08-08T14:33:09.000Z</time>
      </trkpt>
      <trkpt lat="42.69744" lon="0.66827">
        <ele>2079.3</ele>
        <time>2018-08-08T14:33:10.000Z</time>
      </trkpt>
      <trkpt lat="42.69744" lon="0.66827">
        <ele>2079.3</ele>
        <time>2018-08-08T14:33:11.000Z</time>
      </trkpt>
      <trkpt lat="42.69744" lon="0.66827">
        <ele>2079.3</ele>
        <time>2018-08-08T14:33:12.000Z</time>
      </trkpt>
      <trkpt lat="42.69744" lon="0.66827">
        <ele>2079.3</ele>
        <time>2018-08-08T14:33:13.000Z</time>
      </trkpt>
      <trkpt lat="42.69744" lon="0.66827">
        <ele>2079.3</ele>
        <time>2018-08-08T14:33:14.000Z</time>
      </trkpt>
      <trkpt lat="42.69744" lon="0.66827">
        <ele>2079.3</ele>
        <time>2018-08-08T14:33:15.000Z</time>
      </trkpt>
      <trkpt lat="42.69744" lon="0.66827">
        <ele>2079.3</ele>
        <time>2018-08-08T14:33:16.000Z</time>
      </trkpt>
      <trkpt lat="42.69744" lon="0.66827">
        <ele>2079.3</ele>
        <time>2018-08-08T14:33:17.000Z</time>
      </trkpt>
      <trkpt lat="42.69744" lon="0.66827">
        <ele>2079.3</ele>
        <time>2018-08-08T14:33:18.000Z</time>
      </trkpt>
      <trkpt lat="42.69744" lon="0.66827">
        <ele>2079.2</ele>
        <time>2018-08-08T14:33:19.000Z</time>
      </trkpt>
      <trkpt lat="42.69745" lon="0.66828">
        <ele>2079.1</ele>
        <time>2018-08-08T14:33:20.000Z</time>
      </trkpt>
      <trkpt lat="42.69745" lon="0.66828">
        <ele>2079</ele>
        <time>2018-08-08T14:33:21.000Z</time>
      </trkpt>
      <trkpt lat="42.69745" lon="0.66828">
        <ele>2079</ele>
        <time>2018-08-08T14:33:22.000Z</time>
      </trkpt>
      <trkpt lat="42.69746" lon="0.66827">
        <ele>2078.9</ele>
        <time>2018-08-08T14:33:23.000Z</time>
      </trkpt>
      <trkpt lat="42.69746" lon="0.66827">
        <ele>2078.9</ele>
        <time>2018-08-08T14:33:24.000Z</time>
      </trkpt>
      <trkpt lat="42.69746" lon="0.66827">
        <ele>2078.8</ele>
        <time>2018-08-08T14:33:25.000Z</time>
      </trkpt>
      <trkpt lat="42.69746" lon="0.66827">
        <ele>2078.8</ele>
        <time>2018-08-08T14:33:26.000Z</time>
      </trkpt>
      <trkpt lat="42.69746" lon="0.66827">
        <ele>2078.8</ele>
        <time>2018-08-08T14:33:27.000Z</time>
      </trkpt>
      <trkpt lat="42.69746" lon="0.66827">
        <ele>2078.8</ele>
        <time>2018-08-08T14:33:28.000Z</time>
      </trkpt>
      <trkpt lat="42.69746" lon="0.66827">
        <ele>2078.8</ele>
        <time>2018-08-08T14:33:29.000Z</time>
      </trkpt>
      <trkpt lat="42.69746" lon="0.66827">
        <ele>2078.8</ele>
        <time>2018-08-08T14:33:30.000Z</time>
      </trkpt>
      <trkpt lat="42.69746" lon="0.66827">
        <ele>2078.8</ele>
        <time>2018-08-08T14:33:31.000Z</time>
      </trkpt>
      <trkpt lat="42.69746" lon="0.66827">
        <ele>2078.8</ele>
        <time>2018-08-08T14:33:32.000Z</time>
      </trkpt>
      <trkpt lat="42.69746" lon="0.66827">
        <ele>2078.8</ele>
        <time>2018-08-08T14:33:33.000Z</time>
      </trkpt>
      <trkpt lat="42.69746" lon="0.66827">
        <ele>2078.8</ele>
        <time>2018-08-08T14:33:34.000Z</time>
      </trkpt>
      <trkpt lat="42.69746" lon="0.66827">
        <ele>2078.8</ele>
        <time>2018-08-08T14:33:35.000Z</time>
      </trkpt>
      <trkpt lat="42.69746" lon="0.66827">
        <ele>2078.8</ele>
        <time>2018-08-08T14:33:36.000Z</time>
      </trkpt>
      <trkpt lat="42.69746" lon="0.66827">
        <ele>2078.8</ele>
        <time>2018-08-08T14:33:37.000Z</time>
      </trkpt>
      <trkpt lat="42.69746" lon="0.66827">
        <ele>2078.8</ele>
        <time>2018-08-08T14:33:38.000Z</time>
      </trkpt>
      <trkpt lat="42.69746" lon="0.66827">
        <ele>2078.8</ele>
        <time>2018-08-08T14:33:39.000Z</time>
      </trkpt>
      <trkpt lat="42.69746" lon="0.66827">
        <ele>2078.8</ele>
        <time>2018-08-08T14:33:40.000Z</time>
      </trkpt>
      <trkpt lat="42.69746" lon="0.66827">
        <ele>2078.8</ele>
        <time>2018-08-08T14:33:41.000Z</time>
      </trkpt>
      <trkpt lat="42.69746" lon="0.66827">
        <ele>2078.8</ele>
        <time>2018-08-08T14:33:42.000Z</time>
      </trkpt>
      <trkpt lat="42.69746" lon="0.66827">
        <ele>2078.8</ele>
        <time>2018-08-08T14:33:43.000Z</time>
      </trkpt>
      <trkpt lat="42.69746" lon="0.66827">
        <ele>2078.8</ele>
        <time>2018-08-08T14:33:44.000Z</time>
      </trkpt>
      <trkpt lat="42.69746" lon="0.66827">
        <ele>2078.8</ele>
        <time>2018-08-08T14:33:45.000Z</time>
      </trkpt>
      <trkpt lat="42.69746" lon="0.66827">
        <ele>2078.8</ele>
        <time>2018-08-08T14:33:46.000Z</time>
      </trkpt>
      <trkpt lat="42.69746" lon="0.66827">
        <ele>2078.8</ele>
        <time>2018-08-08T14:33:47.000Z</time>
      </trkpt>
      <trkpt lat="42.69746" lon="0.66827">
        <ele>2078.8</ele>
        <time>2018-08-08T14:33:48.000Z</time>
      </trkpt>
      <trkpt lat="42.69746" lon="0.66827">
        <ele>2078.8</ele>
        <time>2018-08-08T14:33:49.000Z</time>
      </trkpt>
      <trkpt lat="42.69746" lon="0.66827">
        <ele>2078.8</ele>
        <time>2018-08-08T14:33:50.000Z</time>
      </trkpt>
      <trkpt lat="42.69746" lon="0.66827">
        <ele>2078.8</ele>
        <time>2018-08-08T14:33:51.000Z</time>
      </trkpt>
      <trkpt lat="42.69746" lon="0.66827">
        <ele>2078.8</ele>
        <time>2018-08-08T14:33:52.000Z</time>
      </trkpt>
      <trkpt lat="42.69746" lon="0.66827">
        <ele>2078.8</ele>
        <time>2018-08-08T14:33:53.000Z</time>
      </trkpt>
      <trkpt lat="42.69746" lon="0.66827">
        <ele>2078.8</ele>
        <time>2018-08-08T14:33:54.000Z</time>
      </trkpt>
      <trkpt lat="42.69746" lon="0.66827">
        <ele>2078.8</ele>
        <time>2018-08-08T14:33:55.000Z</time>
      </trkpt>
      <trkpt lat="42.69746" lon="0.66827">
        <ele>2078.8</ele>
        <time>2018-08-08T14:33:56.000Z</time>
      </trkpt>
      <trkpt lat="42.69746" lon="0.66827">
        <ele>2078.8</ele>
        <time>2018-08-08T14:33:57.000Z</time>
      </trkpt>
      <trkpt lat="42.69746" lon="0.66827">
        <ele>2078.8</ele>
        <time>2018-08-08T14:33:58.000Z</time>
      </trkpt>
      <trkpt lat="42.69746" lon="0.66827">
        <ele>2078.8</ele>
        <time>2018-08-08T14:33:59.000Z</time>
      </trkpt>
      <trkpt lat="42.69746" lon="0.66827">
        <ele>2078.8</ele>
        <time>2018-08-08T14:34:00.000Z</time>
      </trkpt>
      <trkpt lat="42.69746" lon="0.66827">
        <ele>2078.8</ele>
        <time>2018-08-08T14:34:01.000Z</time>
      </trkpt>
      <trkpt lat="42.69746" lon="0.66827">
        <ele>2078.8</ele>
        <time>2018-08-08T14:34:02.000Z</time>
      </trkpt>
      <trkpt lat="42.69746" lon="0.66827">
        <ele>2078.8</ele>
        <time>2018-08-08T14:34:03.000Z</time>
      </trkpt>
      <trkpt lat="42.69746" lon="0.66827">
        <ele>2078.8</ele>
        <time>2018-08-08T14:34:04.000Z</time>
      </trkpt>
      <trkpt lat="42.69746" lon="0.66827">
        <ele>2078.8</ele>
        <time>2018-08-08T14:34:05.000Z</time>
      </trkpt>
      <trkpt lat="42.69746" lon="0.66827">
        <ele>2078.8</ele>
        <time>2018-08-08T14:34:06.000Z</time>
      </trkpt>
      <trkpt lat="42.69746" lon="0.66827">
        <ele>2078.8</ele>
        <time>2018-08-08T14:34:07.000Z</time>
      </trkpt>
      <trkpt lat="42.69746" lon="0.66827">
        <ele>2078.8</ele>
        <time>2018-08-08T14:34:08.000Z</time>
      </trkpt>
      <trkpt lat="42.69746" lon="0.66827">
        <ele>2078.8</ele>
        <time>2018-08-08T14:34:09.000Z</time>
      </trkpt>
      <trkpt lat="42.69746" lon="0.66827">
        <ele>2078.8</ele>
        <time>2018-08-08T14:34:10.000Z</time>
      </trkpt>
      <trkpt lat="42.69746" lon="0.66827">
        <ele>2078.8</ele>
        <time>2018-08-08T14:34:11.000Z</time>
      </trkpt>
      <trkpt lat="42.69746" lon="0.66827">
        <ele>2078.8</ele>
        <time>2018-08-08T14:34:12.000Z</time>
      </trkpt>
      <trkpt lat="42.69746" lon="0.66827">
        <ele>2078.8</ele>
        <time>2018-08-08T14:34:13.000Z</time>
      </trkpt>
      <trkpt lat="42.69746" lon="0.66827">
        <ele>2078.8</ele>
        <time>2018-08-08T14:34:14.000Z</time>
      </trkpt>
      <trkpt lat="42.69746" lon="0.66827">
        <ele>2078.8</ele>
        <time>2018-08-08T14:34:15.000Z</time>
      </trkpt>
      <trkpt lat="42.69746" lon="0.66827">
        <ele>2078.8</ele>
        <time>2018-08-08T14:34:16.000Z</time>
      </trkpt>
      <trkpt lat="42.69746" lon="0.66827">
        <ele>2078.8</ele>
        <time>2018-08-08T14:34:17.000Z</time>
      </trkpt>
      <trkpt lat="42.69746" lon="0.66827">
        <ele>2078.8</ele>
        <time>2018-08-08T14:34:18.000Z</time>
      </trkpt>
      <trkpt lat="42.69746" lon="0.66827">
        <ele>2078.8</ele>
        <time>2018-08-08T14:34:19.000Z</time>
      </trkpt>
      <trkpt lat="42.69746" lon="0.66827">
        <ele>2078.8</ele>
        <time>2018-08-08T14:34:20.000Z</time>
      </trkpt>
      <trkpt lat="42.69746" lon="0.66827">
        <ele>2078.8</ele>
        <time>2018-08-08T14:34:21.000Z</time>
      </trkpt>
      <trkpt lat="42.69746" lon="0.66827">
        <ele>2078.8</ele>
        <time>2018-08-08T14:34:22.000Z</time>
      </trkpt>
      <trkpt lat="42.69746" lon="0.66827">
        <ele>2078.8</ele>
        <time>2018-08-08T14:34:23.000Z</time>
      </trkpt>
      <trkpt lat="42.69746" lon="0.66827">
        <ele>2078.8</ele>
        <time>2018-08-08T14:34:24.000Z</time>
      </trkpt>
      <trkpt lat="42.69746" lon="0.66827">
        <ele>2078.8</ele>
        <time>2018-08-08T14:34:25.000Z</time>
      </trkpt>
      <trkpt lat="42.69746" lon="0.66827">
        <ele>2078.8</ele>
        <time>2018-08-08T14:34:26.000Z</time>
      </trkpt>
      <trkpt lat="42.69746" lon="0.66827">
        <ele>2078.8</ele>
        <time>2018-08-08T14:34:27.000Z</time>
      </trkpt>
      <trkpt lat="42.69746" lon="0.66827">
        <ele>2078.8</ele>
        <time>2018-08-08T14:34:28.000Z</time>
      </trkpt>
      <trkpt lat="42.69746" lon="0.66827">
        <ele>2078.8</ele>
        <time>2018-08-08T14:34:29.000Z</time>
      </trkpt>
      <trkpt lat="42.69746" lon="0.66827">
        <ele>2078.8</ele>
        <time>2018-08-08T14:34:30.000Z</time>
      </trkpt>
      <trkpt lat="42.69746" lon="0.66827">
        <ele>2078.8</ele>
        <time>2018-08-08T14:34:31.000Z</time>
      </trkpt>
      <trkpt lat="42.69746" lon="0.66827">
        <ele>2078.8</ele>
        <time>2018-08-08T14:34:32.000Z</time>
      </trkpt>
      <trkpt lat="42.69746" lon="0.66827">
        <ele>2078.8</ele>
        <time>2018-08-08T14:34:33.000Z</time>
      </trkpt>
      <trkpt lat="42.69746" lon="0.66827">
        <ele>2078.8</ele>
        <time>2018-08-08T14:34:34.000Z</time>
      </trkpt>
      <trkpt lat="42.69746" lon="0.66827">
        <ele>2078.8</ele>
        <time>2018-08-08T14:34:35.000Z</time>
      </trkpt>
      <trkpt lat="42.69746" lon="0.66827">
        <ele>2078.8</ele>
        <time>2018-08-08T14:34:36.000Z</time>
      </trkpt>
      <trkpt lat="42.69746" lon="0.66827">
        <ele>2078.8</ele>
        <time>2018-08-08T14:34:37.000Z</time>
      </trkpt>
      <trkpt lat="42.69746" lon="0.66827">
        <ele>2078.8</ele>
        <time>2018-08-08T14:34:38.000Z</time>
      </trkpt>
      <trkpt lat="42.69746" lon="0.66827">
        <ele>2078.8</ele>
        <time>2018-08-08T14:34:39.000Z</time>
      </trkpt>
      <trkpt lat="42.69746" lon="0.66827">
        <ele>2078.8</ele>
        <time>2018-08-08T14:34:40.000Z</time>
      </trkpt>
      <trkpt lat="42.69746" lon="0.66827">
        <ele>2078.8</ele>
        <time>2018-08-08T14:34:41.000Z</time>
      </trkpt>
      <trkpt lat="42.69746" lon="0.66827">
        <ele>2078.8</ele>
        <time>2018-08-08T14:34:42.000Z</time>
      </trkpt>
      <trkpt lat="42.69746" lon="0.66827">
        <ele>2078.8</ele>
        <time>2018-08-08T14:34:43.000Z</time>
      </trkpt>
      <trkpt lat="42.69746" lon="0.66827">
        <ele>2078.8</ele>
        <time>2018-08-08T14:34:44.000Z</time>
      </trkpt>
      <trkpt lat="42.69746" lon="0.66827">
        <ele>2078.8</ele>
        <time>2018-08-08T14:34:45.000Z</time>
      </trkpt>
      <trkpt lat="42.69746" lon="0.66827">
        <ele>2078.8</ele>
        <time>2018-08-08T14:34:46.000Z</time>
      </trkpt>
      <trkpt lat="42.69746" lon="0.66827">
        <ele>2078.8</ele>
        <time>2018-08-08T14:34:47.000Z</time>
      </trkpt>
      <trkpt lat="42.69746" lon="0.66827">
        <ele>2078.8</ele>
        <time>2018-08-08T14:34:48.000Z</time>
      </trkpt>
      <trkpt lat="42.69746" lon="0.66827">
        <ele>2078.8</ele>
        <time>2018-08-08T14:34:49.000Z</time>
      </trkpt>
      <trkpt lat="42.69746" lon="0.66827">
        <ele>2078.8</ele>
        <time>2018-08-08T14:34:50.000Z</time>
      </trkpt>
      <trkpt lat="42.69746" lon="0.66827">
        <ele>2078.8</ele>
        <time>2018-08-08T14:34:51.000Z</time>
      </trkpt>
      <trkpt lat="42.69746" lon="0.66827">
        <ele>2078.8</ele>
        <time>2018-08-08T14:34:52.000Z</time>
      </trkpt>
      <trkpt lat="42.69746" lon="0.66827">
        <ele>2078.8</ele>
        <time>2018-08-08T14:34:53.000Z</time>
      </trkpt>
      <trkpt lat="42.69746" lon="0.66827">
        <ele>2078.8</ele>
        <time>2018-08-08T14:34:54.000Z</time>
      </trkpt>
      <trkpt lat="42.69746" lon="0.66827">
        <ele>2078.8</ele>
        <time>2018-08-08T14:34:55.000Z</time>
      </trkpt>
      <trkpt lat="42.69746" lon="0.66827">
        <ele>2078.8</ele>
        <time>2018-08-08T14:34:56.000Z</time>
      </trkpt>
      <trkpt lat="42.69746" lon="0.66827">
        <ele>2078.8</ele>
        <time>2018-08-08T14:34:57.000Z</time>
      </trkpt>
      <trkpt lat="42.69746" lon="0.66827">
        <ele>2078.8</ele>
        <time>2018-08-08T14:34:58.000Z</time>
      </trkpt>
      <trkpt lat="42.69746" lon="0.66827">
        <ele>2078.8</ele>
        <time>2018-08-08T14:34:59.000Z</time>
      </trkpt>
      <trkpt lat="42.69746" lon="0.66827">
        <ele>2078.8</ele>
        <time>2018-08-08T14:35:00.000Z</time>
      </trkpt>
      <trkpt lat="42.69746" lon="0.66827">
        <ele>2078.8</ele>
        <time>2018-08-08T14:35:01.000Z</time>
      </trkpt>
      <trkpt lat="42.69746" lon="0.66827">
        <ele>2078.8</ele>
        <time>2018-08-08T14:35:02.000Z</time>
      </trkpt>
      <trkpt lat="42.69746" lon="0.66827">
        <ele>2078.8</ele>
        <time>2018-08-08T14:35:03.000Z</time>
      </trkpt>
      <trkpt lat="42.69746" lon="0.66827">
        <ele>2078.8</ele>
        <time>2018-08-08T14:35:04.000Z</time>
      </trkpt>
      <trkpt lat="42.69746" lon="0.66827">
        <ele>2078.8</ele>
        <time>2018-08-08T14:35:05.000Z</time>
      </trkpt>
      <trkpt lat="42.69746" lon="0.66827">
        <ele>2078.8</ele>
        <time>2018-08-08T14:35:06.000Z</time>
      </trkpt>
      <trkpt lat="42.69746" lon="0.66827">
        <ele>2078.8</ele>
        <time>2018-08-08T14:35:07.000Z</time>
      </trkpt>
      <trkpt lat="42.69746" lon="0.66827">
        <ele>2078.8</ele>
        <time>2018-08-08T14:35:08.000Z</time>
      </trkpt>
      <trkpt lat="42.69746" lon="0.66827">
        <ele>2078.8</ele>
        <time>2018-08-08T14:35:09.000Z</time>
      </trkpt>
      <trkpt lat="42.69746" lon="0.66827">
        <ele>2078.8</ele>
        <time>2018-08-08T14:35:10.000Z</time>
      </trkpt>
      <trkpt lat="42.69746" lon="0.66827">
        <ele>2078.8</ele>
        <time>2018-08-08T14:35:11.000Z</time>
      </trkpt>
      <trkpt lat="42.69746" lon="0.66827">
        <ele>2078.8</ele>
        <time>2018-08-08T14:35:12.000Z</time>
      </trkpt>
      <trkpt lat="42.69746" lon="0.66827">
        <ele>2078.8</ele>
        <time>2018-08-08T14:35:13.000Z</time>
      </trkpt>
      <trkpt lat="42.69746" lon="0.66827">
        <ele>2078.8</ele>
        <time>2018-08-08T14:35:14.000Z</time>
      </trkpt>
      <trkpt lat="42.69746" lon="0.66827">
        <ele>2078.8</ele>
        <time>2018-08-08T14:35:15.000Z</time>
      </trkpt>
      <trkpt lat="42.69746" lon="0.66827">
        <ele>2078.8</ele>
        <time>2018-08-08T14:35:16.000Z</time>
      </trkpt>
      <trkpt lat="42.69746" lon="0.66827">
        <ele>2078.8</ele>
        <time>2018-08-08T14:35:17.000Z</time>
      </trkpt>
      <trkpt lat="42.69746" lon="0.66827">
        <ele>2078.8</ele>
        <time>2018-08-08T14:35:18.000Z</time>
      </trkpt>
      <trkpt lat="42.69746" lon="0.66827">
        <ele>2078.8</ele>
        <time>2018-08-08T14:35:19.000Z</time>
      </trkpt>
      <trkpt lat="42.69746" lon="0.66827">
        <ele>2078.8</ele>
        <time>2018-08-08T14:35:20.000Z</time>
      </trkpt>
      <trkpt lat="42.69746" lon="0.66827">
        <ele>2078.8</ele>
        <time>2018-08-08T14:35:21.000Z</time>
      </trkpt>
      <trkpt lat="42.69746" lon="0.66827">
        <ele>2078.8</ele>
        <time>2018-08-08T14:35:22.000Z</time>
      </trkpt>
      <trkpt lat="42.69746" lon="0.66827">
        <ele>2078.8</ele>
        <time>2018-08-08T14:35:23.000Z</time>
      </trkpt>
      <trkpt lat="42.69746" lon="0.66827">
        <ele>2078.8</ele>
        <time>2018-08-08T14:35:24.000Z</time>
      </trkpt>
      <trkpt lat="42.69746" lon="0.66827">
        <ele>2078.8</ele>
        <time>2018-08-08T14:35:25.000Z</time>
      </trkpt>
      <trkpt lat="42.69746" lon="0.66827">
        <ele>2078.8</ele>
        <time>2018-08-08T14:35:26.000Z</time>
      </trkpt>
      <trkpt lat="42.69746" lon="0.66827">
        <ele>2078.8</ele>
        <time>2018-08-08T14:35:27.000Z</time>
      </trkpt>
      <trkpt lat="42.69746" lon="0.66827">
        <ele>2078.8</ele>
        <time>2018-08-08T14:35:28.000Z</time>
      </trkpt>
      <trkpt lat="42.69746" lon="0.66827">
        <ele>2078.8</ele>
        <time>2018-08-08T14:35:29.000Z</time>
      </trkpt>
      <trkpt lat="42.69746" lon="0.66827">
        <ele>2078.8</ele>
        <time>2018-08-08T14:35:30.000Z</time>
      </trkpt>
      <trkpt lat="42.69746" lon="0.66827">
        <ele>2078.8</ele>
        <time>2018-08-08T14:35:31.000Z</time>
      </trkpt>
      <trkpt lat="42.69746" lon="0.66827">
        <ele>2078.8</ele>
        <time>2018-08-08T14:35:32.000Z</time>
      </trkpt>
      <trkpt lat="42.69746" lon="0.66827">
        <ele>2078.8</ele>
        <time>2018-08-08T14:35:33.000Z</time>
      </trkpt>
      <trkpt lat="42.69746" lon="0.66827">
        <ele>2078.8</ele>
        <time>2018-08-08T14:35:34.000Z</time>
      </trkpt>
      <trkpt lat="42.69746" lon="0.66827">
        <ele>2078.8</ele>
        <time>2018-08-08T14:35:35.000Z</time>
      </trkpt>
      <trkpt lat="42.69746" lon="0.66827">
        <ele>2078.8</ele>
        <time>2018-08-08T14:35:36.000Z</time>
      </trkpt>
      <trkpt lat="42.69746" lon="0.66827">
        <ele>2078.8</ele>
        <time>2018-08-08T14:35:37.000Z</time>
      </trkpt>
      <trkpt lat="42.69746" lon="0.66827">
        <ele>2078.8</ele>
        <time>2018-08-08T14:35:38.000Z</time>
      </trkpt>
      <trkpt lat="42.69746" lon="0.66827">
        <ele>2078.8</ele>
        <time>2018-08-08T14:35:39.000Z</time>
      </trkpt>
      <trkpt lat="42.69746" lon="0.66827">
        <ele>2078.8</ele>
        <time>2018-08-08T14:35:40.000Z</time>
      </trkpt>
      <trkpt lat="42.69746" lon="0.66827">
        <ele>2078.8</ele>
        <time>2018-08-08T14:35:41.000Z</time>
      </trkpt>
      <trkpt lat="42.69746" lon="0.66827">
        <ele>2078.8</ele>
        <time>2018-08-08T14:35:42.000Z</time>
      </trkpt>
      <trkpt lat="42.69746" lon="0.66827">
        <ele>2078.8</ele>
        <time>2018-08-08T14:35:43.000Z</time>
      </trkpt>
      <trkpt lat="42.69746" lon="0.66827">
        <ele>2078.8</ele>
        <time>2018-08-08T14:35:44.000Z</time>
      </trkpt>
      <trkpt lat="42.69746" lon="0.66827">
        <ele>2078.8</ele>
        <time>2018-08-08T14:35:45.000Z</time>
      </trkpt>
      <trkpt lat="42.69746" lon="0.66827">
        <ele>2078.8</ele>
        <time>2018-08-08T14:35:46.000Z</time>
      </trkpt>
      <trkpt lat="42.69746" lon="0.66827">
        <ele>2078.8</ele>
        <time>2018-08-08T14:35:47.000Z</time>
      </trkpt>
      <trkpt lat="42.69746" lon="0.66827">
        <ele>2078.8</ele>
        <time>2018-08-08T14:35:48.000Z</time>
      </trkpt>
      <trkpt lat="42.69746" lon="0.66827">
        <ele>2078.8</ele>
        <time>2018-08-08T14:35:49.000Z</time>
      </trkpt>
      <trkpt lat="42.69746" lon="0.66827">
        <ele>2078.8</ele>
        <time>2018-08-08T14:35:50.000Z</time>
      </trkpt>
      <trkpt lat="42.69746" lon="0.66827">
        <ele>2078.8</ele>
        <time>2018-08-08T14:35:51.000Z</time>
      </trkpt>
      <trkpt lat="42.69746" lon="0.66827">
        <ele>2078.8</ele>
        <time>2018-08-08T14:35:52.000Z</time>
      </trkpt>
      <trkpt lat="42.69746" lon="0.66827">
        <ele>2078.8</ele>
        <time>2018-08-08T14:35:53.000Z</time>
      </trkpt>
      <trkpt lat="42.69746" lon="0.66827">
        <ele>2078.8</ele>
        <time>2018-08-08T14:35:54.000Z</time>
      </trkpt>
      <trkpt lat="42.69746" lon="0.66827">
        <ele>2078.8</ele>
        <time>2018-08-08T14:35:55.000Z</time>
      </trkpt>
      <trkpt lat="42.69746" lon="0.66827">
        <ele>2078.8</ele>
        <time>2018-08-08T14:35:56.000Z</time>
      </trkpt>
      <trkpt lat="42.69746" lon="0.66827">
        <ele>2078.8</ele>
        <time>2018-08-08T14:35:57.000Z</time>
      </trkpt>
      <trkpt lat="42.69746" lon="0.66827">
        <ele>2078.8</ele>
        <time>2018-08-08T14:35:58.000Z</time>
      </trkpt>
      <trkpt lat="42.69746" lon="0.66827">
        <ele>2078.8</ele>
        <time>2018-08-08T14:35:59.000Z</time>
      </trkpt>
      <trkpt lat="42.69746" lon="0.66827">
        <ele>2078.8</ele>
        <time>2018-08-08T14:36:00.000Z</time>
      </trkpt>
      <trkpt lat="42.69746" lon="0.66827">
        <ele>2078.9</ele>
        <time>2018-08-08T14:36:01.000Z</time>
      </trkpt>
      <trkpt lat="42.69745" lon="0.66827">
        <ele>2078.9</ele>
        <time>2018-08-08T14:36:02.000Z</time>
      </trkpt>
      <trkpt lat="42.69745" lon="0.66827">
        <ele>2079</ele>
        <time>2018-08-08T14:36:03.000Z</time>
      </trkpt>
      <trkpt lat="42.69745" lon="0.66827">
        <ele>2079</ele>
        <time>2018-08-08T14:36:04.000Z</time>
      </trkpt>
      <trkpt lat="42.69745" lon="0.66826">
        <ele>2079.1</ele>
        <time>2018-08-08T14:36:05.000Z</time>
      </trkpt>
      <trkpt lat="42.69744" lon="0.66826">
        <ele>2079.1</ele>
        <time>2018-08-08T14:36:06.000Z</time>
      </trkpt>
      <trkpt lat="42.69744" lon="0.66826">
        <ele>2079.2</ele>
        <time>2018-08-08T14:36:07.000Z</time>
      </trkpt>
      <trkpt lat="42.69744" lon="0.66826">
        <ele>2079.2</ele>
        <time>2018-08-08T14:36:08.000Z</time>
      </trkpt>
      <trkpt lat="42.69744" lon="0.66826">
        <ele>2079.2</ele>
        <time>2018-08-08T14:36:09.000Z</time>
      </trkpt>
      <trkpt lat="42.69744" lon="0.66826">
        <ele>2079.2</ele>
        <time>2018-08-08T14:36:10.000Z</time>
      </trkpt>
      <trkpt lat="42.69744" lon="0.66826">
        <ele>2079.2</ele>
        <time>2018-08-08T14:36:11.000Z</time>
      </trkpt>
      <trkpt lat="42.69744" lon="0.66826">
        <ele>2079.2</ele>
        <time>2018-08-08T14:36:12.000Z</time>
      </trkpt>
      <trkpt lat="42.69744" lon="0.66826">
        <ele>2079.2</ele>
        <time>2018-08-08T14:36:13.000Z</time>
      </trkpt>
      <trkpt lat="42.69744" lon="0.66826">
        <ele>2079.3</ele>
        <time>2018-08-08T14:36:14.000Z</time>
      </trkpt>
      <trkpt lat="42.69744" lon="0.66826">
        <ele>2079.3</ele>
        <time>2018-08-08T14:36:15.000Z</time>
      </trkpt>
      <trkpt lat="42.69744" lon="0.66826">
        <ele>2079.3</ele>
        <time>2018-08-08T14:36:16.000Z</time>
      </trkpt>
      <trkpt lat="42.69744" lon="0.66826">
        <ele>2079.3</ele>
        <time>2018-08-08T14:36:17.000Z</time>
      </trkpt>
      <trkpt lat="42.69744" lon="0.66826">
        <ele>2079.3</ele>
        <time>2018-08-08T14:36:18.000Z</time>
      </trkpt>
      <trkpt lat="42.69744" lon="0.66826">
        <ele>2079.3</ele>
        <time>2018-08-08T14:36:19.000Z</time>
      </trkpt>
      <trkpt lat="42.69744" lon="0.66827">
        <ele>2079.3</ele>
        <time>2018-08-08T14:36:20.000Z</time>
      </trkpt>
      <trkpt lat="42.69744" lon="0.66827">
        <ele>2079.3</ele>
        <time>2018-08-08T14:36:21.000Z</time>
      </trkpt>
      <trkpt lat="42.69744" lon="0.66828">
        <ele>2079.2</ele>
        <time>2018-08-08T14:36:22.000Z</time>
      </trkpt>
      <trkpt lat="42.69744" lon="0.66828">
        <ele>2079.2</ele>
        <time>2018-08-08T14:36:23.000Z</time>
      </trkpt>
      <trkpt lat="42.69745" lon="0.66828">
        <ele>2079.2</ele>
        <time>2018-08-08T14:36:24.000Z</time>
      </trkpt>
      <trkpt lat="42.69745" lon="0.66829">
        <ele>2079.2</ele>
        <time>2018-08-08T14:36:25.000Z</time>
      </trkpt>
      <trkpt lat="42.69745" lon="0.66829">
        <ele>2079.2</ele>
        <time>2018-08-08T14:36:26.000Z</time>
      </trkpt>
      <trkpt lat="42.69745" lon="0.66829">
        <ele>2079.2</ele>
        <time>2018-08-08T14:36:27.000Z</time>
      </trkpt>
      <trkpt lat="42.69745" lon="0.66829">
        <ele>2079.2</ele>
        <time>2018-08-08T14:36:28.000Z</time>
      </trkpt>
      <trkpt lat="42.69745" lon="0.66829">
        <ele>2079.2</ele>
        <time>2018-08-08T14:36:29.000Z</time>
      </trkpt>
      <trkpt lat="42.69745" lon="0.66829">
        <ele>2079.2</ele>
        <time>2018-08-08T14:36:30.000Z</time>
      </trkpt>
      <trkpt lat="42.69745" lon="0.66829">
        <ele>2079.2</ele>
        <time>2018-08-08T14:36:31.000Z</time>
      </trkpt>
      <trkpt lat="42.69745" lon="0.66829">
        <ele>2079.3</ele>
        <time>2018-08-08T14:36:32.000Z</time>
      </trkpt>
      <trkpt lat="42.69745" lon="0.66829">
        <ele>2079.3</ele>
        <time>2018-08-08T14:36:33.000Z</time>
      </trkpt>
      <trkpt lat="42.69744" lon="0.66829">
        <ele>2079.3</ele>
        <time>2018-08-08T14:36:34.000Z</time>
      </trkpt>
      <trkpt lat="42.69744" lon="0.66829">
        <ele>2079.3</ele>
        <time>2018-08-08T14:36:35.000Z</time>
      </trkpt>
      <trkpt lat="42.69744" lon="0.66828">
        <ele>2079.3</ele>
        <time>2018-08-08T14:36:36.000Z</time>
      </trkpt>
      <trkpt lat="42.69744" lon="0.66828">
        <ele>2079.3</ele>
        <time>2018-08-08T14:36:37.000Z</time>
      </trkpt>
      <trkpt lat="42.69744" lon="0.66828">
        <ele>2079.3</ele>
        <time>2018-08-08T14:36:38.000Z</time>
      </trkpt>
      <trkpt lat="42.69744" lon="0.66828">
        <ele>2079.3</ele>
        <time>2018-08-08T14:36:39.000Z</time>
      </trkpt>
      <trkpt lat="42.69744" lon="0.66828">
        <ele>2079.3</ele>
        <time>2018-08-08T14:36:40.000Z</time>
      </trkpt>
      <trkpt lat="42.69744" lon="0.66828">
        <ele>2079.3</ele>
        <time>2018-08-08T14:36:41.000Z</time>
      </trkpt>
      <trkpt lat="42.69744" lon="0.66828">
        <ele>2079.3</ele>
        <time>2018-08-08T14:36:42.000Z</time>
      </trkpt>
      <trkpt lat="42.69744" lon="0.66829">
        <ele>2079.3</ele>
        <time>2018-08-08T14:36:43.000Z</time>
      </trkpt>
      <trkpt lat="42.69744" lon="0.66829">
        <ele>2079.3</ele>
        <time>2018-08-08T14:36:44.000Z</time>
      </trkpt>
      <trkpt lat="42.69744" lon="0.66829">
        <ele>2079.3</ele>
        <time>2018-08-08T14:36:45.000Z</time>
      </trkpt>
      <trkpt lat="42.69744" lon="0.66829">
        <ele>2079.3</ele>
        <time>2018-08-08T14:36:46.000Z</time>
      </trkpt>
      <trkpt lat="42.69744" lon="0.66829">
        <ele>2079.3</ele>
        <time>2018-08-08T14:36:47.000Z</time>
      </trkpt>
      <trkpt lat="42.69744" lon="0.66829">
        <ele>2079.3</ele>
        <time>2018-08-08T14:36:48.000Z</time>
      </trkpt>
      <trkpt lat="42.69744" lon="0.66829">
        <ele>2079.3</ele>
        <time>2018-08-08T14:36:49.000Z</time>
      </trkpt>
      <trkpt lat="42.69744" lon="0.66829">
        <ele>2079.3</ele>
        <time>2018-08-08T14:36:50.000Z</time>
      </trkpt>
      <trkpt lat="42.69744" lon="0.66829">
        <ele>2079.3</ele>
        <time>2018-08-08T14:36:51.000Z</time>
      </trkpt>
      <trkpt lat="42.69744" lon="0.66829">
        <ele>2079.3</ele>
        <time>2018-08-08T14:36:52.000Z</time>
      </trkpt>
      <trkpt lat="42.69744" lon="0.66829">
        <ele>2079.3</ele>
        <time>2018-08-08T14:36:53.000Z</time>
      </trkpt>
      <trkpt lat="42.69744" lon="0.66829">
        <ele>2079.3</ele>
        <time>2018-08-08T14:36:54.000Z</time>
      </trkpt>
      <trkpt lat="42.69744" lon="0.66829">
        <ele>2079.3</ele>
        <time>2018-08-08T14:36:55.000Z</time>
      </trkpt>
      <trkpt lat="42.69744" lon="0.66829">
        <ele>2079.3</ele>
        <time>2018-08-08T14:36:56.000Z</time>
      </trkpt>
      <trkpt lat="42.69744" lon="0.66829">
        <ele>2079.3</ele>
        <time>2018-08-08T14:36:57.000Z</time>
      </trkpt>
      <trkpt lat="42.69744" lon="0.66829">
        <ele>2079.3</ele>
        <time>2018-08-08T14:36:58.000Z</time>
      </trkpt>
      <trkpt lat="42.69744" lon="0.66829">
        <ele>2079.3</ele>
        <time>2018-08-08T14:36:59.000Z</time>
      </trkpt>
      <trkpt lat="42.69744" lon="0.66829">
        <ele>2079.3</ele>
        <time>2018-08-08T14:37:00.000Z</time>
      </trkpt>
      <trkpt lat="42.69744" lon="0.66829">
        <ele>2079.3</ele>
        <time>2018-08-08T14:37:01.000Z</time>
      </trkpt>
      <trkpt lat="42.69744" lon="0.66829">
        <ele>2079.3</ele>
        <time>2018-08-08T14:37:02.000Z</time>
      </trkpt>
      <trkpt lat="42.69744" lon="0.66828">
        <ele>2079.3</ele>
        <time>2018-08-08T14:37:03.000Z</time>
      </trkpt>
      <trkpt lat="42.69744" lon="0.66828">
        <ele>2079.3</ele>
        <time>2018-08-08T14:37:04.000Z</time>
      </trkpt>
      <trkpt lat="42.69744" lon="0.66828">
        <ele>2079.3</ele>
        <time>2018-08-08T14:37:05.000Z</time>
      </trkpt>
      <trkpt lat="42.69744" lon="0.66828">
        <ele>2079.3</ele>
        <time>2018-08-08T14:37:06.000Z</time>
      </trkpt>
      <trkpt lat="42.69744" lon="0.66828">
        <ele>2079.3</ele>
        <time>2018-08-08T14:37:07.000Z</time>
      </trkpt>
      <trkpt lat="42.69744" lon="0.66828">
        <ele>2079.3</ele>
        <time>2018-08-08T14:37:08.000Z</time>
      </trkpt>
      <trkpt lat="42.69744" lon="0.66828">
        <ele>2079.3</ele>
        <time>2018-08-08T14:37:09.000Z</time>
      </trkpt>
      <trkpt lat="42.69744" lon="0.66828">
        <ele>2079.3</ele>
        <time>2018-08-08T14:37:10.000Z</time>
      </trkpt>
      <trkpt lat="42.69744" lon="0.66828">
        <ele>2079.3</ele>
        <time>2018-08-08T14:37:11.000Z</time>
      </trkpt>
      <trkpt lat="42.69744" lon="0.66828">
        <ele>2079.4</ele>
        <time>2018-08-08T14:37:12.000Z</time>
      </trkpt>
      <trkpt lat="42.69744" lon="0.66828">
        <ele>2079.4</ele>
        <time>2018-08-08T14:37:13.000Z</time>
      </trkpt>
      <trkpt lat="42.69744" lon="0.66828">
        <ele>2079.3</ele>
        <time>2018-08-08T14:37:14.000Z</time>
      </trkpt>
      <trkpt lat="42.69744" lon="0.66828">
        <ele>2079.3</ele>
        <time>2018-08-08T14:37:15.000Z</time>
      </trkpt>
      <trkpt lat="42.69744" lon="0.66828">
        <ele>2079.3</ele>
        <time>2018-08-08T14:37:16.000Z</time>
      </trkpt>
      <trkpt lat="42.69744" lon="0.66828">
        <ele>2079.3</ele>
        <time>2018-08-08T14:37:17.000Z</time>
      </trkpt>
      <trkpt lat="42.69744" lon="0.66828">
        <ele>2079.3</ele>
        <time>2018-08-08T14:37:18.000Z</time>
      </trkpt>
      <trkpt lat="42.69744" lon="0.66828">
        <ele>2079.3</ele>
        <time>2018-08-08T14:37:19.000Z</time>
      </trkpt>
      <trkpt lat="42.69744" lon="0.66828">
        <ele>2079.3</ele>
        <time>2018-08-08T14:37:20.000Z</time>
      </trkpt>
      <trkpt lat="42.69744" lon="0.66828">
        <ele>2079.3</ele>
        <time>2018-08-08T14:37:21.000Z</time>
      </trkpt>
      <trkpt lat="42.69744" lon="0.66828">
        <ele>2079.3</ele>
        <time>2018-08-08T14:37:22.000Z</time>
      </trkpt>
      <trkpt lat="42.69744" lon="0.66828">
        <ele>2079.3</ele>
        <time>2018-08-08T14:37:23.000Z</time>
      </trkpt>
      <trkpt lat="42.69744" lon="0.66828">
        <ele>2079.3</ele>
        <time>2018-08-08T14:37:24.000Z</time>
      </trkpt>
      <trkpt lat="42.69744" lon="0.66828">
        <ele>2079.3</ele>
        <time>2018-08-08T14:37:25.000Z</time>
      </trkpt>
      <trkpt lat="42.69744" lon="0.66828">
        <ele>2079.3</ele>
        <time>2018-08-08T14:37:26.000Z</time>
      </trkpt>
      <trkpt lat="42.69744" lon="0.66828">
        <ele>2079.3</ele>
        <time>2018-08-08T14:37:27.000Z</time>
      </trkpt>
      <trkpt lat="42.69744" lon="0.66828">
        <ele>2079.3</ele>
        <time>2018-08-08T14:37:28.000Z</time>
      </trkpt>
      <trkpt lat="42.69744" lon="0.66828">
        <ele>2079.3</ele>
        <time>2018-08-08T14:37:29.000Z</time>
      </trkpt>
      <trkpt lat="42.69744" lon="0.66828">
        <ele>2079.3</ele>
        <time>2018-08-08T14:37:30.000Z</time>
      </trkpt>
      <trkpt lat="42.69744" lon="0.66827">
        <ele>2079.3</ele>
        <time>2018-08-08T14:37:31.000Z</time>
      </trkpt>
      <trkpt lat="42.69744" lon="0.66827">
        <ele>2079.3</ele>
        <time>2018-08-08T14:37:32.000Z</time>
      </trkpt>
      <trkpt lat="42.69744" lon="0.66827">
        <ele>2079.3</ele>
        <time>2018-08-08T14:37:33.000Z</time>
      </trkpt>
      <trkpt lat="42.69744" lon="0.66827">
        <ele>2079.3</ele>
        <time>2018-08-08T14:37:34.000Z</time>
      </trkpt>
      <trkpt lat="42.69744" lon="0.66827">
        <ele>2079.3</ele>
        <time>2018-08-08T14:37:35.000Z</time>
      </trkpt>
      <trkpt lat="42.69744" lon="0.66827">
        <ele>2079.3</ele>
        <time>2018-08-08T14:37:36.000Z</time>
      </trkpt>
      <trkpt lat="42.69744" lon="0.66827">
        <ele>2079.3</ele>
        <time>2018-08-08T14:37:37.000Z</time>
      </trkpt>
      <trkpt lat="42.69744" lon="0.66827">
        <ele>2079.3</ele>
        <time>2018-08-08T14:37:38.000Z</time>
      </trkpt>
      <trkpt lat="42.69744" lon="0.66827">
        <ele>2079.3</ele>
        <time>2018-08-08T14:37:39.000Z</time>
      </trkpt>
      <trkpt lat="42.69744" lon="0.66827">
        <ele>2079.3</ele>
        <time>2018-08-08T14:37:40.000Z</time>
      </trkpt>
      <trkpt lat="42.69744" lon="0.66827">
        <ele>2079.3</ele>
        <time>2018-08-08T14:37:41.000Z</time>
      </trkpt>
      <trkpt lat="42.69744" lon="0.66827">
        <ele>2079.3</ele>
        <time>2018-08-08T14:37:42.000Z</time>
      </trkpt>
      <trkpt lat="42.69744" lon="0.66827">
        <ele>2079.3</ele>
        <time>2018-08-08T14:37:43.000Z</time>
      </trkpt>
      <trkpt lat="42.69744" lon="0.66827">
        <ele>2079.2</ele>
        <time>2018-08-08T14:37:44.000Z</time>
      </trkpt>
      <trkpt lat="42.69744" lon="0.66827">
        <ele>2079.2</ele>
        <time>2018-08-08T14:37:45.000Z</time>
      </trkpt>
      <trkpt lat="42.69744" lon="0.66827">
        <ele>2079.2</ele>
        <time>2018-08-08T14:37:46.000Z</time>
      </trkpt>
      <trkpt lat="42.69744" lon="0.66827">
        <ele>2079.2</ele>
        <time>2018-08-08T14:37:47.000Z</time>
      </trkpt>
      <trkpt lat="42.69744" lon="0.66827">
        <ele>2079.2</ele>
        <time>2018-08-08T14:37:48.000Z</time>
      </trkpt>
      <trkpt lat="42.69744" lon="0.66827">
        <ele>2079.2</ele>
        <time>2018-08-08T14:37:49.000Z</time>
      </trkpt>
      <trkpt lat="42.69744" lon="0.66827">
        <ele>2079.2</ele>
        <time>2018-08-08T14:37:50.000Z</time>
      </trkpt>
      <trkpt lat="42.69744" lon="0.66827">
        <ele>2079.2</ele>
        <time>2018-08-08T14:37:51.000Z</time>
      </trkpt>
      <trkpt lat="42.69745" lon="0.66827">
        <ele>2079.2</ele>
        <time>2018-08-08T14:37:52.000Z</time>
      </trkpt>
      <trkpt lat="42.69745" lon="0.66827">
        <ele>2079.2</ele>
        <time>2018-08-08T14:37:53.000Z</time>
      </trkpt>
      <trkpt lat="42.69745" lon="0.66827">
        <ele>2079.2</ele>
        <time>2018-08-08T14:37:54.000Z</time>
      </trkpt>
      <trkpt lat="42.69745" lon="0.66827">
        <ele>2079.2</ele>
        <time>2018-08-08T14:37:55.000Z</time>
      </trkpt>
      <trkpt lat="42.69745" lon="0.66827">
        <ele>2079.2</ele>
        <time>2018-08-08T14:37:56.000Z</time>
      </trkpt>
      <trkpt lat="42.69745" lon="0.66827">
        <ele>2079.2</ele>
        <time>2018-08-08T14:37:57.000Z</time>
      </trkpt>
      <trkpt lat="42.69745" lon="0.66827">
        <ele>2079.2</ele>
        <time>2018-08-08T14:37:58.000Z</time>
      </trkpt>
      <trkpt lat="42.69745" lon="0.66827">
        <ele>2079.2</ele>
        <time>2018-08-08T14:37:59.000Z</time>
      </trkpt>
      <trkpt lat="42.69745" lon="0.66827">
        <ele>2079.2</ele>
        <time>2018-08-08T14:38:00.000Z</time>
      </trkpt>
      <trkpt lat="42.69745" lon="0.66827">
        <ele>2079.2</ele>
        <time>2018-08-08T14:38:01.000Z</time>
      </trkpt>
      <trkpt lat="42.69745" lon="0.66828">
        <ele>2079.2</ele>
        <time>2018-08-08T14:38:02.000Z</time>
      </trkpt>
      <trkpt lat="42.69745" lon="0.66828">
        <ele>2079.2</ele>
        <time>2018-08-08T14:38:03.000Z</time>
      </trkpt>
      <trkpt lat="42.69745" lon="0.66828">
        <ele>2079.2</ele>
        <time>2018-08-08T14:38:04.000Z</time>
      </trkpt>
      <trkpt lat="42.69745" lon="0.66828">
        <ele>2079.2</ele>
        <time>2018-08-08T14:38:05.000Z</time>
      </trkpt>
      <trkpt lat="42.69745" lon="0.66828">
        <ele>2079.2</ele>
        <time>2018-08-08T14:38:06.000Z</time>
      </trkpt>
      <trkpt lat="42.69745" lon="0.66828">
        <ele>2079.2</ele>
        <time>2018-08-08T14:38:07.000Z</time>
      </trkpt>
      <trkpt lat="42.69745" lon="0.66828">
        <ele>2079.2</ele>
        <time>2018-08-08T14:38:08.000Z</time>
      </trkpt>
      <trkpt lat="42.69745" lon="0.66828">
        <ele>2079.2</ele>
        <time>2018-08-08T14:38:09.000Z</time>
      </trkpt>
      <trkpt lat="42.69745" lon="0.66828">
        <ele>2079.2</ele>
        <time>2018-08-08T14:38:10.000Z</time>
      </trkpt>
      <trkpt lat="42.69744" lon="0.66828">
        <ele>2079.3</ele>
        <time>2018-08-08T14:38:11.000Z</time>
      </trkpt>
      <trkpt lat="42.69744" lon="0.66828">
        <ele>2079.3</ele>
        <time>2018-08-08T14:38:12.000Z</time>
      </trkpt>
      <trkpt lat="42.69744" lon="0.66829">
        <ele>2079.3</ele>
        <time>2018-08-08T14:38:13.000Z</time>
      </trkpt>
      <trkpt lat="42.69744" lon="0.66829">
        <ele>2079.3</ele>
        <time>2018-08-08T14:38:14.000Z</time>
      </trkpt>
      <trkpt lat="42.69744" lon="0.66829">
        <ele>2079.4</ele>
        <time>2018-08-08T14:38:15.000Z</time>
      </trkpt>
      <trkpt lat="42.69744" lon="0.66829">
        <ele>2079.4</ele>
        <time>2018-08-08T14:38:16.000Z</time>
      </trkpt>
      <trkpt lat="42.69744" lon="0.66829">
        <ele>2079.4</ele>
        <time>2018-08-08T14:38:17.000Z</time>
      </trkpt>
      <trkpt lat="42.69744" lon="0.6683">
        <ele>2079.4</ele>
        <time>2018-08-08T14:38:18.000Z</time>
      </trkpt>
      <trkpt lat="42.69744" lon="0.6683">
        <ele>2079.4</ele>
        <time>2018-08-08T14:38:19.000Z</time>
      </trkpt>
      <trkpt lat="42.69744" lon="0.6683">
        <ele>2079.4</ele>
        <time>2018-08-08T14:38:20.000Z</time>
      </trkpt>
      <trkpt lat="42.69744" lon="0.6683">
        <ele>2079.4</ele>
        <time>2018-08-08T14:38:21.000Z</time>
      </trkpt>
      <trkpt lat="42.69744" lon="0.6683">
        <ele>2079.4</ele>
        <time>2018-08-08T14:38:22.000Z</time>
      </trkpt>
      <trkpt lat="42.69744" lon="0.6683">
        <ele>2079.5</ele>
        <time>2018-08-08T14:38:23.000Z</time>
      </trkpt>
      <trkpt lat="42.69744" lon="0.6683">
        <ele>2079.5</ele>
        <time>2018-08-08T14:38:24.000Z</time>
      </trkpt>
      <trkpt lat="42.69744" lon="0.6683">
        <ele>2079.5</ele>
        <time>2018-08-08T14:38:25.000Z</time>
      </trkpt>
      <trkpt lat="42.69744" lon="0.6683">
        <ele>2079.5</ele>
        <time>2018-08-08T14:38:26.000Z</time>
      </trkpt>
      <trkpt lat="42.69744" lon="0.6683">
        <ele>2079.5</ele>
        <time>2018-08-08T14:38:27.000Z</time>
      </trkpt>
      <trkpt lat="42.69744" lon="0.6683">
        <ele>2079.5</ele>
        <time>2018-08-08T14:38:28.000Z</time>
      </trkpt>
      <trkpt lat="42.69744" lon="0.6683">
        <ele>2079.5</ele>
        <time>2018-08-08T14:38:29.000Z</time>
      </trkpt>
      <trkpt lat="42.69744" lon="0.6683">
        <ele>2079.5</ele>
        <time>2018-08-08T14:38:30.000Z</time>
      </trkpt>
      <trkpt lat="42.69744" lon="0.6683">
        <ele>2079.5</ele>
        <time>2018-08-08T14:38:31.000Z</time>
      </trkpt>
      <trkpt lat="42.69744" lon="0.6683">
        <ele>2079.5</ele>
        <time>2018-08-08T14:38:32.000Z</time>
      </trkpt>
      <trkpt lat="42.69744" lon="0.6683">
        <ele>2079.5</ele>
        <time>2018-08-08T14:38:33.000Z</time>
      </trkpt>
      <trkpt lat="42.69744" lon="0.6683">
        <ele>2079.5</ele>
        <time>2018-08-08T14:38:34.000Z</time>
      </trkpt>
      <trkpt lat="42.69744" lon="0.6683">
        <ele>2079.5</ele>
        <time>2018-08-08T14:38:35.000Z</time>
      </trkpt>
      <trkpt lat="42.69744" lon="0.6683">
        <ele>2079.5</ele>
        <time>2018-08-08T14:38:36.000Z</time>
      </trkpt>
      <trkpt lat="42.69744" lon="0.6683">
        <ele>2079.5</ele>
        <time>2018-08-08T14:38:37.000Z</time>
      </trkpt>
      <trkpt lat="42.69744" lon="0.6683">
        <ele>2079.5</ele>
        <time>2018-08-08T14:38:38.000Z</time>
      </trkpt>
      <trkpt lat="42.69744" lon="0.6683">
        <ele>2079.5</ele>
        <time>2018-08-08T14:38:39.000Z</time>
      </trkpt>
      <trkpt lat="42.69744" lon="0.6683">
        <ele>2079.5</ele>
        <time>2018-08-08T14:38:40.000Z</time>
      </trkpt>
      <trkpt lat="42.69744" lon="0.6683">
        <ele>2079.5</ele>
        <time>2018-08-08T14:38:41.000Z</time>
      </trkpt>
      <trkpt lat="42.69744" lon="0.6683">
        <ele>2079.5</ele>
        <time>2018-08-08T14:38:42.000Z</time>
      </trkpt>
      <trkpt lat="42.69744" lon="0.6683">
        <ele>2079.5</ele>
        <time>2018-08-08T14:38:43.000Z</time>
      </trkpt>
      <trkpt lat="42.69744" lon="0.6683">
        <ele>2079.5</ele>
        <time>2018-08-08T14:38:44.000Z</time>
      </trkpt>
      <trkpt lat="42.69744" lon="0.6683">
        <ele>2079.5</ele>
        <time>2018-08-08T14:38:45.000Z</time>
      </trkpt>
      <trkpt lat="42.69744" lon="0.6683">
        <ele>2079.5</ele>
        <time>2018-08-08T14:38:46.000Z</time>
      </trkpt>
      <trkpt lat="42.69744" lon="0.6683">
        <ele>2079.5</ele>
        <time>2018-08-08T14:38:47.000Z</time>
      </trkpt>
      <trkpt lat="42.69744" lon="0.6683">
        <ele>2079.5</ele>
        <time>2018-08-08T14:38:48.000Z</time>
      </trkpt>
      <trkpt lat="42.69744" lon="0.6683">
        <ele>2079.5</ele>
        <time>2018-08-08T14:38:49.000Z</time>
      </trkpt>
      <trkpt lat="42.69744" lon="0.6683">
        <ele>2079.5</ele>
        <time>2018-08-08T14:38:50.000Z</time>
      </trkpt>
      <trkpt lat="42.69744" lon="0.6683">
        <ele>2079.5</ele>
        <time>2018-08-08T14:38:51.000Z</time>
      </trkpt>
      <trkpt lat="42.69744" lon="0.6683">
        <ele>2079.5</ele>
        <time>2018-08-08T14:38:52.000Z</time>
      </trkpt>
      <trkpt lat="42.69744" lon="0.6683">
        <ele>2079.6</ele>
        <time>2018-08-08T14:38:53.000Z</time>
      </trkpt>
      <trkpt lat="42.69744" lon="0.6683">
        <ele>2079.6</ele>
        <time>2018-08-08T14:38:54.000Z</time>
      </trkpt>
      <trkpt lat="42.69744" lon="0.6683">
        <ele>2079.6</ele>
        <time>2018-08-08T14:38:55.000Z</time>
      </trkpt>
      <trkpt lat="42.69744" lon="0.6683">
        <ele>2079.5</ele>
        <time>2018-08-08T14:38:56.000Z</time>
      </trkpt>
      <trkpt lat="42.69744" lon="0.6683">
        <ele>2079.5</ele>
        <time>2018-08-08T14:38:57.000Z</time>
      </trkpt>
      <trkpt lat="42.69744" lon="0.6683">
        <ele>2079.5</ele>
        <time>2018-08-08T14:38:58.000Z</time>
      </trkpt>
      <trkpt lat="42.69744" lon="0.66829">
        <ele>2079.6</ele>
        <time>2018-08-08T14:38:59.000Z</time>
      </trkpt>
      <trkpt lat="42.69744" lon="0.66829">
        <ele>2079.6</ele>
        <time>2018-08-08T14:39:00.000Z</time>
      </trkpt>
      <trkpt lat="42.69744" lon="0.66829">
        <ele>2079.6</ele>
        <time>2018-08-08T14:39:01.000Z</time>
      </trkpt>
      <trkpt lat="42.69744" lon="0.66829">
        <ele>2079.6</ele>
        <time>2018-08-08T14:39:02.000Z</time>
      </trkpt>
      <trkpt lat="42.69744" lon="0.66829">
        <ele>2079.6</ele>
        <time>2018-08-08T14:39:03.000Z</time>
      </trkpt>
      <trkpt lat="42.69744" lon="0.66829">
        <ele>2079.6</ele>
        <time>2018-08-08T14:39:04.000Z</time>
      </trkpt>
      <trkpt lat="42.69744" lon="0.66829">
        <ele>2079.6</ele>
        <time>2018-08-08T14:39:05.000Z</time>
      </trkpt>
      <trkpt lat="42.69743" lon="0.66829">
        <ele>2079.6</ele>
        <time>2018-08-08T14:39:06.000Z</time>
      </trkpt>
      <trkpt lat="42.69743" lon="0.66829">
        <ele>2079.6</ele>
        <time>2018-08-08T14:39:07.000Z</time>
      </trkpt>
      <trkpt lat="42.69743" lon="0.66829">
        <ele>2079.6</ele>
        <time>2018-08-08T14:39:08.000Z</time>
      </trkpt>
      <trkpt lat="42.69743" lon="0.66829">
        <ele>2079.6</ele>
        <time>2018-08-08T14:39:09.000Z</time>
      </trkpt>
      <trkpt lat="42.69744" lon="0.66829">
        <ele>2079.6</ele>
        <time>2018-08-08T14:39:10.000Z</time>
      </trkpt>
      <trkpt lat="42.69744" lon="0.66829">
        <ele>2079.6</ele>
        <time>2018-08-08T14:39:11.000Z</time>
      </trkpt>
      <trkpt lat="42.69744" lon="0.66829">
        <ele>2079.6</ele>
        <time>2018-08-08T14:39:12.000Z</time>
      </trkpt>
      <trkpt lat="42.69744" lon="0.66829">
        <ele>2079.5</ele>
        <time>2018-08-08T14:39:13.000Z</time>
      </trkpt>
      <trkpt lat="42.69744" lon="0.66829">
        <ele>2079.5</ele>
        <time>2018-08-08T14:39:14.000Z</time>
      </trkpt>
      <trkpt lat="42.69744" lon="0.66829">
        <ele>2079.5</ele>
        <time>2018-08-08T14:39:15.000Z</time>
      </trkpt>
      <trkpt lat="42.69744" lon="0.66829">
        <ele>2079.5</ele>
        <time>2018-08-08T14:39:16.000Z</time>
      </trkpt>
      <trkpt lat="42.69744" lon="0.66829">
        <ele>2079.5</ele>
        <time>2018-08-08T14:39:17.000Z</time>
      </trkpt>
      <trkpt lat="42.69744" lon="0.66829">
        <ele>2079.5</ele>
        <time>2018-08-08T14:39:18.000Z</time>
      </trkpt>
      <trkpt lat="42.69744" lon="0.66829">
        <ele>2079.5</ele>
        <time>2018-08-08T14:39:19.000Z</time>
      </trkpt>
      <trkpt lat="42.69744" lon="0.66829">
        <ele>2079.5</ele>
        <time>2018-08-08T14:39:20.000Z</time>
      </trkpt>
      <trkpt lat="42.69744" lon="0.66829">
        <ele>2079.5</ele>
        <time>2018-08-08T14:39:21.000Z</time>
      </trkpt>
      <trkpt lat="42.69744" lon="0.66829">
        <ele>2079.4</ele>
        <time>2018-08-08T14:39:22.000Z</time>
      </trkpt>
      <trkpt lat="42.69744" lon="0.66829">
        <ele>2079.3</ele>
        <time>2018-08-08T14:39:23.000Z</time>
      </trkpt>
      <trkpt lat="42.69745" lon="0.66829">
        <ele>2079.2</ele>
        <time>2018-08-08T14:39:24.000Z</time>
      </trkpt>
      <trkpt lat="42.69745" lon="0.66829">
        <ele>2079</ele>
        <time>2018-08-08T14:39:25.000Z</time>
      </trkpt>
      <trkpt lat="42.69746" lon="0.66829">
        <ele>2078.9</ele>
        <time>2018-08-08T14:39:26.000Z</time>
      </trkpt>
      <trkpt lat="42.69746" lon="0.66829">
        <ele>2078.7</ele>
        <time>2018-08-08T14:39:27.000Z</time>
      </trkpt>
      <trkpt lat="42.69747" lon="0.66829">
        <ele>2078.6</ele>
        <time>2018-08-08T14:39:28.000Z</time>
      </trkpt>
      <trkpt lat="42.69747" lon="0.66828">
        <ele>2078.5</ele>
        <time>2018-08-08T14:39:29.000Z</time>
      </trkpt>
      <trkpt lat="42.69747" lon="0.66828">
        <ele>2078.5</ele>
        <time>2018-08-08T14:39:30.000Z</time>
      </trkpt>
      <trkpt lat="42.69747" lon="0.66828">
        <ele>2078.5</ele>
        <time>2018-08-08T14:39:31.000Z</time>
      </trkpt>
      <trkpt lat="42.69747" lon="0.66828">
        <ele>2078.5</ele>
        <time>2018-08-08T14:39:32.000Z</time>
      </trkpt>
      <trkpt lat="42.69747" lon="0.66828">
        <ele>2078.5</ele>
        <time>2018-08-08T14:39:33.000Z</time>
      </trkpt>
      <trkpt lat="42.69747" lon="0.66828">
        <ele>2078.5</ele>
        <time>2018-08-08T14:39:34.000Z</time>
      </trkpt>
      <trkpt lat="42.69747" lon="0.66828">
        <ele>2078.5</ele>
        <time>2018-08-08T14:39:35.000Z</time>
      </trkpt>
      <trkpt lat="42.69747" lon="0.66828">
        <ele>2078.5</ele>
        <time>2018-08-08T14:39:36.000Z</time>
      </trkpt>
      <trkpt lat="42.69747" lon="0.66828">
        <ele>2078.5</ele>
        <time>2018-08-08T14:39:37.000Z</time>
      </trkpt>
      <trkpt lat="42.69747" lon="0.66828">
        <ele>2078.5</ele>
        <time>2018-08-08T14:39:38.000Z</time>
      </trkpt>
      <trkpt lat="42.69747" lon="0.66828">
        <ele>2078.5</ele>
        <time>2018-08-08T14:39:39.000Z</time>
      </trkpt>
      <trkpt lat="42.69747" lon="0.66828">
        <ele>2078.5</ele>
        <time>2018-08-08T14:39:40.000Z</time>
      </trkpt>
      <trkpt lat="42.69747" lon="0.66828">
        <ele>2078.5</ele>
        <time>2018-08-08T14:39:41.000Z</time>
      </trkpt>
      <trkpt lat="42.69747" lon="0.66828">
        <ele>2078.5</ele>
        <time>2018-08-08T14:39:42.000Z</time>
      </trkpt>
      <trkpt lat="42.69747" lon="0.66828">
        <ele>2078.5</ele>
        <time>2018-08-08T14:39:43.000Z</time>
      </trkpt>
      <trkpt lat="42.69747" lon="0.66828">
        <ele>2078.5</ele>
        <time>2018-08-08T14:39:44.000Z</time>
      </trkpt>
      <trkpt lat="42.69747" lon="0.66828">
        <ele>2078.5</ele>
        <time>2018-08-08T14:39:45.000Z</time>
      </trkpt>
      <trkpt lat="42.69747" lon="0.66828">
        <ele>2078.5</ele>
        <time>2018-08-08T14:39:46.000Z</time>
      </trkpt>
      <trkpt lat="42.69747" lon="0.66828">
        <ele>2078.5</ele>
        <time>2018-08-08T14:39:47.000Z</time>
      </trkpt>
      <trkpt lat="42.69747" lon="0.66828">
        <ele>2078.5</ele>
        <time>2018-08-08T14:39:48.000Z</time>
      </trkpt>
      <trkpt lat="42.69747" lon="0.66828">
        <ele>2078.5</ele>
        <time>2018-08-08T14:39:49.000Z</time>
      </trkpt>
      <trkpt lat="42.69747" lon="0.66828">
        <ele>2078.5</ele>
        <time>2018-08-08T14:39:50.000Z</time>
      </trkpt>
      <trkpt lat="42.69747" lon="0.66828">
        <ele>2078.5</ele>
        <time>2018-08-08T14:39:51.000Z</time>
      </trkpt>
      <trkpt lat="42.69747" lon="0.66828">
        <ele>2078.5</ele>
        <time>2018-08-08T14:39:52.000Z</time>
      </trkpt>
      <trkpt lat="42.69747" lon="0.66828">
        <ele>2078.5</ele>
        <time>2018-08-08T14:39:53.000Z</time>
      </trkpt>
      <trkpt lat="42.69747" lon="0.66828">
        <ele>2078.5</ele>
        <time>2018-08-08T14:39:54.000Z</time>
      </trkpt>
      <trkpt lat="42.69747" lon="0.66828">
        <ele>2078.5</ele>
        <time>2018-08-08T14:39:55.000Z</time>
      </trkpt>
      <trkpt lat="42.69747" lon="0.66828">
        <ele>2078.5</ele>
        <time>2018-08-08T14:39:56.000Z</time>
      </trkpt>
      <trkpt lat="42.69747" lon="0.66828">
        <ele>2078.5</ele>
        <time>2018-08-08T14:39:57.000Z</time>
      </trkpt>
      <trkpt lat="42.69747" lon="0.66828">
        <ele>2078.5</ele>
        <time>2018-08-08T14:39:58.000Z</time>
      </trkpt>
      <trkpt lat="42.69747" lon="0.66828">
        <ele>2078.5</ele>
        <time>2018-08-08T14:39:59.000Z</time>
      </trkpt>
      <trkpt lat="42.69747" lon="0.66828">
        <ele>2078.5</ele>
        <time>2018-08-08T14:40:00.000Z</time>
      </trkpt>
      <trkpt lat="42.69747" lon="0.66828">
        <ele>2078.5</ele>
        <time>2018-08-08T14:40:01.000Z</time>
      </trkpt>
      <trkpt lat="42.69747" lon="0.66828">
        <ele>2078.5</ele>
        <time>2018-08-08T14:40:02.000Z</time>
      </trkpt>
      <trkpt lat="42.69747" lon="0.66828">
        <ele>2078.5</ele>
        <time>2018-08-08T14:40:03.000Z</time>
      </trkpt>
      <trkpt lat="42.69747" lon="0.66828">
        <ele>2078.5</ele>
        <time>2018-08-08T14:40:04.000Z</time>
      </trkpt>
      <trkpt lat="42.69747" lon="0.66828">
        <ele>2078.5</ele>
        <time>2018-08-08T14:40:05.000Z</time>
      </trkpt>
      <trkpt lat="42.69747" lon="0.66828">
        <ele>2078.5</ele>
        <time>2018-08-08T14:40:06.000Z</time>
      </trkpt>
      <trkpt lat="42.69747" lon="0.66828">
        <ele>2078.5</ele>
        <time>2018-08-08T14:40:07.000Z</time>
      </trkpt>
      <trkpt lat="42.69747" lon="0.66828">
        <ele>2078.5</ele>
        <time>2018-08-08T14:40:08.000Z</time>
      </trkpt>
      <trkpt lat="42.69747" lon="0.66828">
        <ele>2078.5</ele>
        <time>2018-08-08T14:40:09.000Z</time>
      </trkpt>
      <trkpt lat="42.69747" lon="0.66828">
        <ele>2078.5</ele>
        <time>2018-08-08T14:40:10.000Z</time>
      </trkpt>
      <trkpt lat="42.69747" lon="0.66828">
        <ele>2078.5</ele>
        <time>2018-08-08T14:40:11.000Z</time>
      </trkpt>
      <trkpt lat="42.69747" lon="0.66828">
        <ele>2078.5</ele>
        <time>2018-08-08T14:40:12.000Z</time>
      </trkpt>
      <trkpt lat="42.69747" lon="0.66828">
        <ele>2078.5</ele>
        <time>2018-08-08T14:40:13.000Z</time>
      </trkpt>
      <trkpt lat="42.69747" lon="0.66828">
        <ele>2078.5</ele>
        <time>2018-08-08T14:40:14.000Z</time>
      </trkpt>
      <trkpt lat="42.69747" lon="0.66828">
        <ele>2078.5</ele>
        <time>2018-08-08T14:40:15.000Z</time>
      </trkpt>
      <trkpt lat="42.69747" lon="0.66828">
        <ele>2078.5</ele>
        <time>2018-08-08T14:40:16.000Z</time>
      </trkpt>
      <trkpt lat="42.69747" lon="0.66828">
        <ele>2078.5</ele>
        <time>2018-08-08T14:40:17.000Z</time>
      </trkpt>
      <trkpt lat="42.69747" lon="0.66828">
        <ele>2078.5</ele>
        <time>2018-08-08T14:40:18.000Z</time>
      </trkpt>
      <trkpt lat="42.69747" lon="0.66828">
        <ele>2078.5</ele>
        <time>2018-08-08T14:40:19.000Z</time>
      </trkpt>
      <trkpt lat="42.69747" lon="0.66828">
        <ele>2078.5</ele>
        <time>2018-08-08T14:40:20.000Z</time>
      </trkpt>
      <trkpt lat="42.69747" lon="0.66828">
        <ele>2078.5</ele>
        <time>2018-08-08T14:40:21.000Z</time>
      </trkpt>
      <trkpt lat="42.69747" lon="0.66828">
        <ele>2078.5</ele>
        <time>2018-08-08T14:40:22.000Z</time>
      </trkpt>
      <trkpt lat="42.69747" lon="0.66828">
        <ele>2078.5</ele>
        <time>2018-08-08T14:40:23.000Z</time>
      </trkpt>
      <trkpt lat="42.69747" lon="0.66828">
        <ele>2078.5</ele>
        <time>2018-08-08T14:40:24.000Z</time>
      </trkpt>
      <trkpt lat="42.69747" lon="0.66828">
        <ele>2078.5</ele>
        <time>2018-08-08T14:40:25.000Z</time>
      </trkpt>
      <trkpt lat="42.69747" lon="0.66828">
        <ele>2078.5</ele>
        <time>2018-08-08T14:40:26.000Z</time>
      </trkpt>
      <trkpt lat="42.69747" lon="0.66828">
        <ele>2078.5</ele>
        <time>2018-08-08T14:40:27.000Z</time>
      </trkpt>
      <trkpt lat="42.69747" lon="0.66828">
        <ele>2078.5</ele>
        <time>2018-08-08T14:40:28.000Z</time>
      </trkpt>
      <trkpt lat="42.69747" lon="0.66828">
        <ele>2078.5</ele>
        <time>2018-08-08T14:40:29.000Z</time>
      </trkpt>
      <trkpt lat="42.69747" lon="0.66828">
        <ele>2078.5</ele>
        <time>2018-08-08T14:40:30.000Z</time>
      </trkpt>
      <trkpt lat="42.69747" lon="0.66828">
        <ele>2078.5</ele>
        <time>2018-08-08T14:40:31.000Z</time>
      </trkpt>
      <trkpt lat="42.69747" lon="0.66828">
        <ele>2078.5</ele>
        <time>2018-08-08T14:40:32.000Z</time>
      </trkpt>
      <trkpt lat="42.69747" lon="0.66828">
        <ele>2078.5</ele>
        <time>2018-08-08T14:40:33.000Z</time>
      </trkpt>
      <trkpt lat="42.69747" lon="0.66828">
        <ele>2078.5</ele>
        <time>2018-08-08T14:40:34.000Z</time>
      </trkpt>
      <trkpt lat="42.69747" lon="0.66828">
        <ele>2078.5</ele>
        <time>2018-08-08T14:40:35.000Z</time>
      </trkpt>
      <trkpt lat="42.69747" lon="0.66828">
        <ele>2078.5</ele>
        <time>2018-08-08T14:40:36.000Z</time>
      </trkpt>
      <trkpt lat="42.69747" lon="0.66828">
        <ele>2078.5</ele>
        <time>2018-08-08T14:40:37.000Z</time>
      </trkpt>
      <trkpt lat="42.69747" lon="0.66828">
        <ele>2078.5</ele>
        <time>2018-08-08T14:40:38.000Z</time>
      </trkpt>
      <trkpt lat="42.69747" lon="0.66828">
        <ele>2078.5</ele>
        <time>2018-08-08T14:40:39.000Z</time>
      </trkpt>
      <trkpt lat="42.69747" lon="0.66828">
        <ele>2078.5</ele>
        <time>2018-08-08T14:40:40.000Z</time>
      </trkpt>
      <trkpt lat="42.69747" lon="0.66828">
        <ele>2078.5</ele>
        <time>2018-08-08T14:40:41.000Z</time>
      </trkpt>
      <trkpt lat="42.69747" lon="0.66828">
        <ele>2078.5</ele>
        <time>2018-08-08T14:40:42.000Z</time>
      </trkpt>
      <trkpt lat="42.69747" lon="0.66828">
        <ele>2078.5</ele>
        <time>2018-08-08T14:40:43.000Z</time>
      </trkpt>
      <trkpt lat="42.69747" lon="0.66828">
        <ele>2078.5</ele>
        <time>2018-08-08T14:40:44.000Z</time>
      </trkpt>
      <trkpt lat="42.69747" lon="0.66828">
        <ele>2078.5</ele>
        <time>2018-08-08T14:40:45.000Z</time>
      </trkpt>
      <trkpt lat="42.69747" lon="0.66828">
        <ele>2078.5</ele>
        <time>2018-08-08T14:40:46.000Z</time>
      </trkpt>
      <trkpt lat="42.69747" lon="0.66828">
        <ele>2078.5</ele>
        <time>2018-08-08T14:40:47.000Z</time>
      </trkpt>
      <trkpt lat="42.69747" lon="0.66828">
        <ele>2078.5</ele>
        <time>2018-08-08T14:40:48.000Z</time>
      </trkpt>
      <trkpt lat="42.69747" lon="0.66828">
        <ele>2078.5</ele>
        <time>2018-08-08T14:40:49.000Z</time>
      </trkpt>
      <trkpt lat="42.69747" lon="0.66828">
        <ele>2078.5</ele>
        <time>2018-08-08T14:40:50.000Z</time>
      </trkpt>
      <trkpt lat="42.69747" lon="0.66828">
        <ele>2078.5</ele>
        <time>2018-08-08T14:40:51.000Z</time>
      </trkpt>
      <trkpt lat="42.69747" lon="0.66828">
        <ele>2078.5</ele>
        <time>2018-08-08T14:40:52.000Z</time>
      </trkpt>
      <trkpt lat="42.69747" lon="0.66828">
        <ele>2078.5</ele>
        <time>2018-08-08T14:40:53.000Z</time>
      </trkpt>
      <trkpt lat="42.69747" lon="0.66828">
        <ele>2078.5</ele>
        <time>2018-08-08T14:40:54.000Z</time>
      </trkpt>
      <trkpt lat="42.69747" lon="0.66828">
        <ele>2078.5</ele>
        <time>2018-08-08T14:40:55.000Z</time>
      </trkpt>
      <trkpt lat="42.69747" lon="0.66828">
        <ele>2078.5</ele>
        <time>2018-08-08T14:40:56.000Z</time>
      </trkpt>
      <trkpt lat="42.69747" lon="0.66828">
        <ele>2078.5</ele>
        <time>2018-08-08T14:40:57.000Z</time>
      </trkpt>
      <trkpt lat="42.69747" lon="0.66828">
        <ele>2078.5</ele>
        <time>2018-08-08T14:40:58.000Z</time>
      </trkpt>
      <trkpt lat="42.69747" lon="0.66828">
        <ele>2078.5</ele>
        <time>2018-08-08T14:40:59.000Z</time>
      </trkpt>
      <trkpt lat="42.69747" lon="0.66828">
        <ele>2078.5</ele>
        <time>2018-08-08T14:41:00.000Z</time>
      </trkpt>
      <trkpt lat="42.69747" lon="0.66828">
        <ele>2078.5</ele>
        <time>2018-08-08T14:41:01.000Z</time>
      </trkpt>
      <trkpt lat="42.69747" lon="0.66828">
        <ele>2078.5</ele>
        <time>2018-08-08T14:41:02.000Z</time>
      </trkpt>
      <trkpt lat="42.69747" lon="0.66828">
        <ele>2078.5</ele>
        <time>2018-08-08T14:41:03.000Z</time>
      </trkpt>
      <trkpt lat="42.69747" lon="0.66828">
        <ele>2078.5</ele>
        <time>2018-08-08T14:41:04.000Z</time>
      </trkpt>
      <trkpt lat="42.69747" lon="0.66828">
        <ele>2078.5</ele>
        <time>2018-08-08T14:41:05.000Z</time>
      </trkpt>
      <trkpt lat="42.69747" lon="0.66828">
        <ele>2078.5</ele>
        <time>2018-08-08T14:41:06.000Z</time>
      </trkpt>
      <trkpt lat="42.69747" lon="0.66828">
        <ele>2078.5</ele>
        <time>2018-08-08T14:41:07.000Z</time>
      </trkpt>
      <trkpt lat="42.69747" lon="0.66828">
        <ele>2078.5</ele>
        <time>2018-08-08T14:41:08.000Z</time>
      </trkpt>
      <trkpt lat="42.69747" lon="0.66828">
        <ele>2078.5</ele>
        <time>2018-08-08T14:41:09.000Z</time>
      </trkpt>
      <trkpt lat="42.69747" lon="0.66828">
        <ele>2078.5</ele>
        <time>2018-08-08T14:41:10.000Z</time>
      </trkpt>
      <trkpt lat="42.69747" lon="0.66828">
        <ele>2078.5</ele>
        <time>2018-08-08T14:41:11.000Z</time>
      </trkpt>
      <trkpt lat="42.69747" lon="0.66828">
        <ele>2078.5</ele>
        <time>2018-08-08T14:41:12.000Z</time>
      </trkpt>
      <trkpt lat="42.69747" lon="0.66828">
        <ele>2078.5</ele>
        <time>2018-08-08T14:41:13.000Z</time>
      </trkpt>
      <trkpt lat="42.69747" lon="0.66828">
        <ele>2078.5</ele>
        <time>2018-08-08T14:41:14.000Z</time>
      </trkpt>
      <trkpt lat="42.69747" lon="0.66828">
        <ele>2078.5</ele>
        <time>2018-08-08T14:41:15.000Z</time>
      </trkpt>
      <trkpt lat="42.69747" lon="0.66828">
        <ele>2078.5</ele>
        <time>2018-08-08T14:41:16.000Z</time>
      </trkpt>
      <trkpt lat="42.69747" lon="0.66828">
        <ele>2078.5</ele>
        <time>2018-08-08T14:41:17.000Z</time>
      </trkpt>
      <trkpt lat="42.69747" lon="0.66828">
        <ele>2078.5</ele>
        <time>2018-08-08T14:41:18.000Z</time>
      </trkpt>
      <trkpt lat="42.69747" lon="0.66828">
        <ele>2078.5</ele>
        <time>2018-08-08T14:41:19.000Z</time>
      </trkpt>
      <trkpt lat="42.69747" lon="0.66828">
        <ele>2078.5</ele>
        <time>2018-08-08T14:41:20.000Z</time>
      </trkpt>
      <trkpt lat="42.69747" lon="0.66828">
        <ele>2078.5</ele>
        <time>2018-08-08T14:41:21.000Z</time>
      </trkpt>
      <trkpt lat="42.69747" lon="0.66828">
        <ele>2078.5</ele>
        <time>2018-08-08T14:41:22.000Z</time>
      </trkpt>
      <trkpt lat="42.69747" lon="0.66828">
        <ele>2078.5</ele>
        <time>2018-08-08T14:41:23.000Z</time>
      </trkpt>
      <trkpt lat="42.69747" lon="0.66828">
        <ele>2078.5</ele>
        <time>2018-08-08T14:41:24.000Z</time>
      </trkpt>
      <trkpt lat="42.69747" lon="0.66828">
        <ele>2078.5</ele>
        <time>2018-08-08T14:41:25.000Z</time>
      </trkpt>
      <trkpt lat="42.69747" lon="0.66828">
        <ele>2078.5</ele>
        <time>2018-08-08T14:41:26.000Z</time>
      </trkpt>
      <trkpt lat="42.69747" lon="0.66828">
        <ele>2078.5</ele>
        <time>2018-08-08T14:41:27.000Z</time>
      </trkpt>
      <trkpt lat="42.69747" lon="0.66828">
        <ele>2078.5</ele>
        <time>2018-08-08T14:41:28.000Z</time>
      </trkpt>
      <trkpt lat="42.69747" lon="0.66828">
        <ele>2078.5</ele>
        <time>2018-08-08T14:41:29.000Z</time>
      </trkpt>
      <trkpt lat="42.69747" lon="0.66828">
        <ele>2078.5</ele>
        <time>2018-08-08T14:41:30.000Z</time>
      </trkpt>
      <trkpt lat="42.69747" lon="0.66828">
        <ele>2078.5</ele>
        <time>2018-08-08T14:41:31.000Z</time>
      </trkpt>
      <trkpt lat="42.69747" lon="0.66828">
        <ele>2078.5</ele>
        <time>2018-08-08T14:41:32.000Z</time>
      </trkpt>
      <trkpt lat="42.69747" lon="0.66828">
        <ele>2078.5</ele>
        <time>2018-08-08T14:41:33.000Z</time>
      </trkpt>
      <trkpt lat="42.69747" lon="0.66828">
        <ele>2078.5</ele>
        <time>2018-08-08T14:41:34.000Z</time>
      </trkpt>
      <trkpt lat="42.69747" lon="0.66828">
        <ele>2078.5</ele>
        <time>2018-08-08T14:41:35.000Z</time>
      </trkpt>
      <trkpt lat="42.69747" lon="0.66828">
        <ele>2078.5</ele>
        <time>2018-08-08T14:41:36.000Z</time>
      </trkpt>
      <trkpt lat="42.69747" lon="0.66828">
        <ele>2078.5</ele>
        <time>2018-08-08T14:41:37.000Z</time>
      </trkpt>
      <trkpt lat="42.69747" lon="0.66828">
        <ele>2078.5</ele>
        <time>2018-08-08T14:41:38.000Z</time>
      </trkpt>
      <trkpt lat="42.69747" lon="0.66828">
        <ele>2078.5</ele>
        <time>2018-08-08T14:41:39.000Z</time>
      </trkpt>
      <trkpt lat="42.69747" lon="0.66828">
        <ele>2078.5</ele>
        <time>2018-08-08T14:41:40.000Z</time>
      </trkpt>
      <trkpt lat="42.69747" lon="0.66828">
        <ele>2078.5</ele>
        <time>2018-08-08T14:41:41.000Z</time>
      </trkpt>
      <trkpt lat="42.69747" lon="0.66828">
        <ele>2078.5</ele>
        <time>2018-08-08T14:41:42.000Z</time>
      </trkpt>
      <trkpt lat="42.69747" lon="0.66828">
        <ele>2078.5</ele>
        <time>2018-08-08T14:41:43.000Z</time>
      </trkpt>
      <trkpt lat="42.69747" lon="0.66828">
        <ele>2078.5</ele>
        <time>2018-08-08T14:41:44.000Z</time>
      </trkpt>
      <trkpt lat="42.69747" lon="0.66828">
        <ele>2078.5</ele>
        <time>2018-08-08T14:41:45.000Z</time>
      </trkpt>
      <trkpt lat="42.69747" lon="0.66828">
        <ele>2078.5</ele>
        <time>2018-08-08T14:41:46.000Z</time>
      </trkpt>
      <trkpt lat="42.69747" lon="0.66828">
        <ele>2078.5</ele>
        <time>2018-08-08T14:41:47.000Z</time>
      </trkpt>
      <trkpt lat="42.69747" lon="0.66828">
        <ele>2078.5</ele>
        <time>2018-08-08T14:41:48.000Z</time>
      </trkpt>
      <trkpt lat="42.69747" lon="0.66828">
        <ele>2078.5</ele>
        <time>2018-08-08T14:41:49.000Z</time>
      </trkpt>
      <trkpt lat="42.69747" lon="0.66828">
        <ele>2078.5</ele>
        <time>2018-08-08T14:41:50.000Z</time>
      </trkpt>
      <trkpt lat="42.69747" lon="0.66828">
        <ele>2078.5</ele>
        <time>2018-08-08T14:41:51.000Z</time>
      </trkpt>
      <trkpt lat="42.69747" lon="0.66828">
        <ele>2078.5</ele>
        <time>2018-08-08T14:41:52.000Z</time>
      </trkpt>
      <trkpt lat="42.69747" lon="0.66828">
        <ele>2078.5</ele>
        <time>2018-08-08T14:41:53.000Z</time>
      </trkpt>
      <trkpt lat="42.69747" lon="0.66828">
        <ele>2078.5</ele>
        <time>2018-08-08T14:41:54.000Z</time>
      </trkpt>
      <trkpt lat="42.69747" lon="0.66828">
        <ele>2078.5</ele>
        <time>2018-08-08T14:41:55.000Z</time>
      </trkpt>
      <trkpt lat="42.69747" lon="0.66828">
        <ele>2078.5</ele>
        <time>2018-08-08T14:41:56.000Z</time>
      </trkpt>
      <trkpt lat="42.69747" lon="0.66828">
        <ele>2078.5</ele>
        <time>2018-08-08T14:41:57.000Z</time>
      </trkpt>
      <trkpt lat="42.69747" lon="0.66828">
        <ele>2078.5</ele>
        <time>2018-08-08T14:41:58.000Z</time>
      </trkpt>
      <trkpt lat="42.69747" lon="0.66828">
        <ele>2078.5</ele>
        <time>2018-08-08T14:41:59.000Z</time>
      </trkpt>
      <trkpt lat="42.69747" lon="0.66828">
        <ele>2078.5</ele>
        <time>2018-08-08T14:42:00.000Z</time>
      </trkpt>
      <trkpt lat="42.69747" lon="0.66828">
        <ele>2078.5</ele>
        <time>2018-08-08T14:42:01.000Z</time>
      </trkpt>
      <trkpt lat="42.69747" lon="0.66828">
        <ele>2078.5</ele>
        <time>2018-08-08T14:42:02.000Z</time>
      </trkpt>
      <trkpt lat="42.69747" lon="0.66828">
        <ele>2078.5</ele>
        <time>2018-08-08T14:42:03.000Z</time>
      </trkpt>
      <trkpt lat="42.69747" lon="0.66828">
        <ele>2078.5</ele>
        <time>2018-08-08T14:42:04.000Z</time>
      </trkpt>
      <trkpt lat="42.69747" lon="0.66828">
        <ele>2078.5</ele>
        <time>2018-08-08T14:42:05.000Z</time>
      </trkpt>
      <trkpt lat="42.69747" lon="0.66828">
        <ele>2078.5</ele>
        <time>2018-08-08T14:42:06.000Z</time>
      </trkpt>
      <trkpt lat="42.69747" lon="0.66828">
        <ele>2078.5</ele>
        <time>2018-08-08T14:42:07.000Z</time>
      </trkpt>
      <trkpt lat="42.69747" lon="0.66828">
        <ele>2078.5</ele>
        <time>2018-08-08T14:42:08.000Z</time>
      </trkpt>
      <trkpt lat="42.69747" lon="0.66828">
        <ele>2078.5</ele>
        <time>2018-08-08T14:42:09.000Z</time>
      </trkpt>
      <trkpt lat="42.69747" lon="0.66828">
        <ele>2078.5</ele>
        <time>2018-08-08T14:42:10.000Z</time>
      </trkpt>
      <trkpt lat="42.69747" lon="0.66828">
        <ele>2078.5</ele>
        <time>2018-08-08T14:42:11.000Z</time>
      </trkpt>
      <trkpt lat="42.69747" lon="0.66828">
        <ele>2078.5</ele>
        <time>2018-08-08T14:42:12.000Z</time>
      </trkpt>
      <trkpt lat="42.69747" lon="0.66828">
        <ele>2078.5</ele>
        <time>2018-08-08T14:42:13.000Z</time>
      </trkpt>
      <trkpt lat="42.69747" lon="0.66828">
        <ele>2078.5</ele>
        <time>2018-08-08T14:42:14.000Z</time>
      </trkpt>
      <trkpt lat="42.69747" lon="0.66828">
        <ele>2078.5</ele>
        <time>2018-08-08T14:42:15.000Z</time>
      </trkpt>
      <trkpt lat="42.69747" lon="0.66828">
        <ele>2078.5</ele>
        <time>2018-08-08T14:42:16.000Z</time>
      </trkpt>
      <trkpt lat="42.69747" lon="0.66828">
        <ele>2078.5</ele>
        <time>2018-08-08T14:42:17.000Z</time>
      </trkpt>
      <trkpt lat="42.69747" lon="0.66828">
        <ele>2078.5</ele>
        <time>2018-08-08T14:42:18.000Z</time>
      </trkpt>
      <trkpt lat="42.69747" lon="0.66828">
        <ele>2078.5</ele>
        <time>2018-08-08T14:42:19.000Z</time>
      </trkpt>
      <trkpt lat="42.69747" lon="0.66828">
        <ele>2078.5</ele>
        <time>2018-08-08T14:42:20.000Z</time>
      </trkpt>
      <trkpt lat="42.69747" lon="0.66828">
        <ele>2078.5</ele>
        <time>2018-08-08T14:42:21.000Z</time>
      </trkpt>
      <trkpt lat="42.69747" lon="0.66828">
        <ele>2078.5</ele>
        <time>2018-08-08T14:42:22.000Z</time>
      </trkpt>
      <trkpt lat="42.69747" lon="0.66828">
        <ele>2078.5</ele>
        <time>2018-08-08T14:42:23.000Z</time>
      </trkpt>
      <trkpt lat="42.69747" lon="0.66828">
        <ele>2078.5</ele>
        <time>2018-08-08T14:42:24.000Z</time>
      </trkpt>
      <trkpt lat="42.69747" lon="0.66828">
        <ele>2078.5</ele>
        <time>2018-08-08T14:42:25.000Z</time>
      </trkpt>
      <trkpt lat="42.69747" lon="0.66828">
        <ele>2078.5</ele>
        <time>2018-08-08T14:42:26.000Z</time>
      </trkpt>
      <trkpt lat="42.69747" lon="0.66828">
        <ele>2078.5</ele>
        <time>2018-08-08T14:42:27.000Z</time>
      </trkpt>
      <trkpt lat="42.69747" lon="0.66828">
        <ele>2078.5</ele>
        <time>2018-08-08T14:42:28.000Z</time>
      </trkpt>
      <trkpt lat="42.69747" lon="0.66828">
        <ele>2078.5</ele>
        <time>2018-08-08T14:42:29.000Z</time>
      </trkpt>
      <trkpt lat="42.69747" lon="0.66828">
        <ele>2078.5</ele>
        <time>2018-08-08T14:42:30.000Z</time>
      </trkpt>
      <trkpt lat="42.69747" lon="0.66828">
        <ele>2078.5</ele>
        <time>2018-08-08T14:42:31.000Z</time>
      </trkpt>
      <trkpt lat="42.69747" lon="0.66828">
        <ele>2078.5</ele>
        <time>2018-08-08T14:42:32.000Z</time>
      </trkpt>
      <trkpt lat="42.69747" lon="0.66828">
        <ele>2078.5</ele>
        <time>2018-08-08T14:42:33.000Z</time>
      </trkpt>
      <trkpt lat="42.69747" lon="0.66828">
        <ele>2078.5</ele>
        <time>2018-08-08T14:42:34.000Z</time>
      </trkpt>
      <trkpt lat="42.69747" lon="0.66828">
        <ele>2078.5</ele>
        <time>2018-08-08T14:42:35.000Z</time>
      </trkpt>
      <trkpt lat="42.69747" lon="0.66828">
        <ele>2078.5</ele>
        <time>2018-08-08T14:42:36.000Z</time>
      </trkpt>
      <trkpt lat="42.69747" lon="0.66828">
        <ele>2078.5</ele>
        <time>2018-08-08T14:42:37.000Z</time>
      </trkpt>
      <trkpt lat="42.69747" lon="0.66828">
        <ele>2078.5</ele>
        <time>2018-08-08T14:42:38.000Z</time>
      </trkpt>
      <trkpt lat="42.69747" lon="0.66828">
        <ele>2078.5</ele>
        <time>2018-08-08T14:42:39.000Z</time>
      </trkpt>
      <trkpt lat="42.69747" lon="0.66828">
        <ele>2078.5</ele>
        <time>2018-08-08T14:42:40.000Z</time>
      </trkpt>
      <trkpt lat="42.69747" lon="0.66828">
        <ele>2078.5</ele>
        <time>2018-08-08T14:42:41.000Z</time>
      </trkpt>
      <trkpt lat="42.69747" lon="0.66828">
        <ele>2078.5</ele>
        <time>2018-08-08T14:42:42.000Z</time>
      </trkpt>
      <trkpt lat="42.69747" lon="0.66828">
        <ele>2078.5</ele>
        <time>2018-08-08T14:42:43.000Z</time>
      </trkpt>
      <trkpt lat="42.69747" lon="0.66828">
        <ele>2078.5</ele>
        <time>2018-08-08T14:42:44.000Z</time>
      </trkpt>
      <trkpt lat="42.69747" lon="0.66828">
        <ele>2078.5</ele>
        <time>2018-08-08T14:42:45.000Z</time>
      </trkpt>
      <trkpt lat="42.69747" lon="0.66828">
        <ele>2078.5</ele>
        <time>2018-08-08T14:42:46.000Z</time>
      </trkpt>
      <trkpt lat="42.69747" lon="0.66828">
        <ele>2078.5</ele>
        <time>2018-08-08T14:42:47.000Z</time>
      </trkpt>
      <trkpt lat="42.69747" lon="0.66828">
        <ele>2078.5</ele>
        <time>2018-08-08T14:42:48.000Z</time>
      </trkpt>
      <trkpt lat="42.69747" lon="0.66828">
        <ele>2078.5</ele>
        <time>2018-08-08T14:42:49.000Z</time>
      </trkpt>
      <trkpt lat="42.69747" lon="0.66828">
        <ele>2078.5</ele>
        <time>2018-08-08T14:42:50.000Z</time>
      </trkpt>
      <trkpt lat="42.69747" lon="0.66828">
        <ele>2078.5</ele>
        <time>2018-08-08T14:42:51.000Z</time>
      </trkpt>
      <trkpt lat="42.69747" lon="0.66828">
        <ele>2078.5</ele>
        <time>2018-08-08T14:42:52.000Z</time>
      </trkpt>
      <trkpt lat="42.69747" lon="0.66828">
        <ele>2078.5</ele>
        <time>2018-08-08T14:42:53.000Z</time>
      </trkpt>
      <trkpt lat="42.69747" lon="0.66828">
        <ele>2078.5</ele>
        <time>2018-08-08T14:42:54.000Z</time>
      </trkpt>
      <trkpt lat="42.69747" lon="0.66828">
        <ele>2078.5</ele>
        <time>2018-08-08T14:42:55.000Z</time>
      </trkpt>
      <trkpt lat="42.69747" lon="0.66828">
        <ele>2078.5</ele>
        <time>2018-08-08T14:42:56.000Z</time>
      </trkpt>
      <trkpt lat="42.69747" lon="0.66828">
        <ele>2078.5</ele>
        <time>2018-08-08T14:42:57.000Z</time>
      </trkpt>
      <trkpt lat="42.69747" lon="0.66828">
        <ele>2078.5</ele>
        <time>2018-08-08T14:42:58.000Z</time>
      </trkpt>
      <trkpt lat="42.69747" lon="0.66828">
        <ele>2078.5</ele>
        <time>2018-08-08T14:42:59.000Z</time>
      </trkpt>
      <trkpt lat="42.69747" lon="0.66828">
        <ele>2078.5</ele>
        <time>2018-08-08T14:43:00.000Z</time>
      </trkpt>
      <trkpt lat="42.69747" lon="0.66828">
        <ele>2078.5</ele>
        <time>2018-08-08T14:43:01.000Z</time>
      </trkpt>
      <trkpt lat="42.69747" lon="0.66828">
        <ele>2078.5</ele>
        <time>2018-08-08T14:43:02.000Z</time>
      </trkpt>
      <trkpt lat="42.69747" lon="0.66828">
        <ele>2078.5</ele>
        <time>2018-08-08T14:43:03.000Z</time>
      </trkpt>
      <trkpt lat="42.69747" lon="0.66828">
        <ele>2078.5</ele>
        <time>2018-08-08T14:43:04.000Z</time>
      </trkpt>
      <trkpt lat="42.69747" lon="0.66828">
        <ele>2078.5</ele>
        <time>2018-08-08T14:43:05.000Z</time>
      </trkpt>
      <trkpt lat="42.69747" lon="0.66828">
        <ele>2078.5</ele>
        <time>2018-08-08T14:43:06.000Z</time>
      </trkpt>
      <trkpt lat="42.69747" lon="0.66828">
        <ele>2078.5</ele>
        <time>2018-08-08T14:43:07.000Z</time>
      </trkpt>
      <trkpt lat="42.69747" lon="0.66828">
        <ele>2078.5</ele>
        <time>2018-08-08T14:43:08.000Z</time>
      </trkpt>
      <trkpt lat="42.69747" lon="0.66828">
        <ele>2078.5</ele>
        <time>2018-08-08T14:43:09.000Z</time>
      </trkpt>
      <trkpt lat="42.69747" lon="0.66828">
        <ele>2078.5</ele>
        <time>2018-08-08T14:43:10.000Z</time>
      </trkpt>
      <trkpt lat="42.69747" lon="0.66828">
        <ele>2078.7</ele>
        <time>2018-08-08T14:43:11.000Z</time>
      </trkpt>
      <trkpt lat="42.69746" lon="0.66828">
        <ele>2078.8</ele>
        <time>2018-08-08T14:43:12.000Z</time>
      </trkpt>
      <trkpt lat="42.69746" lon="0.66828">
        <ele>2078.9</ele>
        <time>2018-08-08T14:43:13.000Z</time>
      </trkpt>
      <trkpt lat="42.69745" lon="0.66828">
        <ele>2079</ele>
        <time>2018-08-08T14:43:14.000Z</time>
      </trkpt>
      <trkpt lat="42.69745" lon="0.66829">
        <ele>2079.1</ele>
        <time>2018-08-08T14:43:15.000Z</time>
      </trkpt>
      <trkpt lat="42.69745" lon="0.66829">
        <ele>2079.1</ele>
        <time>2018-08-08T14:43:16.000Z</time>
      </trkpt>
      <trkpt lat="42.69745" lon="0.66829">
        <ele>2079.2</ele>
        <time>2018-08-08T14:43:17.000Z</time>
      </trkpt>
      <trkpt lat="42.69745" lon="0.66829">
        <ele>2079.2</ele>
        <time>2018-08-08T14:43:18.000Z</time>
      </trkpt>
      <trkpt lat="42.69745" lon="0.66829">
        <ele>2079.3</ele>
        <time>2018-08-08T14:43:19.000Z</time>
      </trkpt>
      <trkpt lat="42.69744" lon="0.66829">
        <ele>2079.3</ele>
        <time>2018-08-08T14:43:20.000Z</time>
      </trkpt>
      <trkpt lat="42.69744" lon="0.66829">
        <ele>2079.4</ele>
        <time>2018-08-08T14:43:21.000Z</time>
      </trkpt>
      <trkpt lat="42.69744" lon="0.66829">
        <ele>2079.4</ele>
        <time>2018-08-08T14:43:22.000Z</time>
      </trkpt>
      <trkpt lat="42.69744" lon="0.66829">
        <ele>2079.4</ele>
        <time>2018-08-08T14:43:23.000Z</time>
      </trkpt>
      <trkpt lat="42.69744" lon="0.66829">
        <ele>2079.4</ele>
        <time>2018-08-08T14:43:24.000Z</time>
      </trkpt>
      <trkpt lat="42.69744" lon="0.66829">
        <ele>2079.4</ele>
        <time>2018-08-08T14:43:25.000Z</time>
      </trkpt>
      <trkpt lat="42.69744" lon="0.66829">
        <ele>2079.4</ele>
        <time>2018-08-08T14:43:26.000Z</time>
      </trkpt>
      <trkpt lat="42.69744" lon="0.66829">
        <ele>2079.4</ele>
        <time>2018-08-08T14:43:27.000Z</time>
      </trkpt>
      <trkpt lat="42.69744" lon="0.66829">
        <ele>2079.4</ele>
        <time>2018-08-08T14:43:28.000Z</time>
      </trkpt>
      <trkpt lat="42.69744" lon="0.66829">
        <ele>2079.4</ele>
        <time>2018-08-08T14:43:29.000Z</time>
      </trkpt>
      <trkpt lat="42.69744" lon="0.66829">
        <ele>2079.4</ele>
        <time>2018-08-08T14:43:30.000Z</time>
      </trkpt>
      <trkpt lat="42.69744" lon="0.66829">
        <ele>2079.4</ele>
        <time>2018-08-08T14:43:31.000Z</time>
      </trkpt>
      <trkpt lat="42.69744" lon="0.66829">
        <ele>2079.4</ele>
        <time>2018-08-08T14:43:32.000Z</time>
      </trkpt>
      <trkpt lat="42.69744" lon="0.66829">
        <ele>2079.4</ele>
        <time>2018-08-08T14:43:33.000Z</time>
      </trkpt>
      <trkpt lat="42.69744" lon="0.66829">
        <ele>2079.4</ele>
        <time>2018-08-08T14:43:34.000Z</time>
      </trkpt>
      <trkpt lat="42.69744" lon="0.66829">
        <ele>2079.4</ele>
        <time>2018-08-08T14:43:35.000Z</time>
      </trkpt>
      <trkpt lat="42.69744" lon="0.66829">
        <ele>2079.4</ele>
        <time>2018-08-08T14:43:36.000Z</time>
      </trkpt>
      <trkpt lat="42.69744" lon="0.66829">
        <ele>2079.4</ele>
        <time>2018-08-08T14:43:37.000Z</time>
      </trkpt>
      <trkpt lat="42.69744" lon="0.66829">
        <ele>2079.4</ele>
        <time>2018-08-08T14:43:38.000Z</time>
      </trkpt>
      <trkpt lat="42.69744" lon="0.66829">
        <ele>2079.4</ele>
        <time>2018-08-08T14:43:39.000Z</time>
      </trkpt>
      <trkpt lat="42.69744" lon="0.66829">
        <ele>2079.4</ele>
        <time>2018-08-08T14:43:40.000Z</time>
      </trkpt>
      <trkpt lat="42.69744" lon="0.66829">
        <ele>2079.4</ele>
        <time>2018-08-08T14:43:41.000Z</time>
      </trkpt>
      <trkpt lat="42.69744" lon="0.66829">
        <ele>2079.4</ele>
        <time>2018-08-08T14:43:42.000Z</time>
      </trkpt>
      <trkpt lat="42.69744" lon="0.66829">
        <ele>2079.4</ele>
        <time>2018-08-08T14:43:43.000Z</time>
      </trkpt>
      <trkpt lat="42.69744" lon="0.66829">
        <ele>2079.4</ele>
        <time>2018-08-08T14:43:44.000Z</time>
      </trkpt>
      <trkpt lat="42.69744" lon="0.66829">
        <ele>2079.4</ele>
        <time>2018-08-08T14:43:45.000Z</time>
      </trkpt>
      <trkpt lat="42.69744" lon="0.66829">
        <ele>2079.4</ele>
        <time>2018-08-08T14:43:46.000Z</time>
      </trkpt>
      <trkpt lat="42.69744" lon="0.66829">
        <ele>2079.4</ele>
        <time>2018-08-08T14:43:47.000Z</time>
      </trkpt>
      <trkpt lat="42.69744" lon="0.66829">
        <ele>2079.4</ele>
        <time>2018-08-08T14:43:48.000Z</time>
      </trkpt>
      <trkpt lat="42.69744" lon="0.66829">
        <ele>2079.4</ele>
        <time>2018-08-08T14:43:49.000Z</time>
      </trkpt>
      <trkpt lat="42.69744" lon="0.66829">
        <ele>2079.4</ele>
        <time>2018-08-08T14:43:50.000Z</time>
      </trkpt>
      <trkpt lat="42.69744" lon="0.66829">
        <ele>2079.4</ele>
        <time>2018-08-08T14:43:51.000Z</time>
      </trkpt>
      <trkpt lat="42.69744" lon="0.66829">
        <ele>2079.4</ele>
        <time>2018-08-08T14:43:52.000Z</time>
      </trkpt>
      <trkpt lat="42.69744" lon="0.66829">
        <ele>2079.4</ele>
        <time>2018-08-08T14:43:53.000Z</time>
      </trkpt>
      <trkpt lat="42.69744" lon="0.66829">
        <ele>2079.4</ele>
        <time>2018-08-08T14:43:54.000Z</time>
      </trkpt>
      <trkpt lat="42.69744" lon="0.66829">
        <ele>2079.4</ele>
        <time>2018-08-08T14:43:55.000Z</time>
      </trkpt>
      <trkpt lat="42.69744" lon="0.66829">
        <ele>2079.4</ele>
        <time>2018-08-08T14:43:56.000Z</time>
      </trkpt>
      <trkpt lat="42.69744" lon="0.66829">
        <ele>2079.4</ele>
        <time>2018-08-08T14:43:57.000Z</time>
      </trkpt>
      <trkpt lat="42.69744" lon="0.66829">
        <ele>2079.4</ele>
        <time>2018-08-08T14:43:58.000Z</time>
      </trkpt>
      <trkpt lat="42.69744" lon="0.66829">
        <ele>2079.4</ele>
        <time>2018-08-08T14:43:59.000Z</time>
      </trkpt>
      <trkpt lat="42.69744" lon="0.66829">
        <ele>2079.4</ele>
        <time>2018-08-08T14:44:00.000Z</time>
      </trkpt>
      <trkpt lat="42.69744" lon="0.66829">
        <ele>2079.4</ele>
        <time>2018-08-08T14:44:01.000Z</time>
      </trkpt>
      <trkpt lat="42.69744" lon="0.66829">
        <ele>2079.4</ele>
        <time>2018-08-08T14:44:02.000Z</time>
      </trkpt>
      <trkpt lat="42.69744" lon="0.66829">
        <ele>2079.4</ele>
        <time>2018-08-08T14:44:03.000Z</time>
      </trkpt>
      <trkpt lat="42.69744" lon="0.66829">
        <ele>2079.4</ele>
        <time>2018-08-08T14:44:04.000Z</time>
      </trkpt>
      <trkpt lat="42.69744" lon="0.66829">
        <ele>2079.4</ele>
        <time>2018-08-08T14:44:05.000Z</time>
      </trkpt>
      <trkpt lat="42.69744" lon="0.66829">
        <ele>2079.4</ele>
        <time>2018-08-08T14:44:06.000Z</time>
      </trkpt>
      <trkpt lat="42.69744" lon="0.66829">
        <ele>2079.4</ele>
        <time>2018-08-08T14:44:07.000Z</time>
      </trkpt>
      <trkpt lat="42.69744" lon="0.66829">
        <ele>2079.4</ele>
        <time>2018-08-08T14:44:08.000Z</time>
      </trkpt>
      <trkpt lat="42.69744" lon="0.66829">
        <ele>2079.4</ele>
        <time>2018-08-08T14:44:09.000Z</time>
      </trkpt>
      <trkpt lat="42.69744" lon="0.66829">
        <ele>2079.4</ele>
        <time>2018-08-08T14:44:10.000Z</time>
      </trkpt>
      <trkpt lat="42.69744" lon="0.66829">
        <ele>2079.4</ele>
        <time>2018-08-08T14:44:11.000Z</time>
      </trkpt>
      <trkpt lat="42.69744" lon="0.66829">
        <ele>2079.4</ele>
        <time>2018-08-08T14:44:12.000Z</time>
      </trkpt>
      <trkpt lat="42.69744" lon="0.66829">
        <ele>2079.4</ele>
        <time>2018-08-08T14:44:13.000Z</time>
      </trkpt>
      <trkpt lat="42.69744" lon="0.66829">
        <ele>2079.4</ele>
        <time>2018-08-08T14:44:14.000Z</time>
      </trkpt>
      <trkpt lat="42.69744" lon="0.66829">
        <ele>2079.4</ele>
        <time>2018-08-08T14:44:15.000Z</time>
      </trkpt>
      <trkpt lat="42.69744" lon="0.66829">
        <ele>2079.4</ele>
        <time>2018-08-08T14:44:16.000Z</time>
      </trkpt>
      <trkpt lat="42.69744" lon="0.66829">
        <ele>2079.4</ele>
        <time>2018-08-08T14:44:17.000Z</time>
      </trkpt>
      <trkpt lat="42.69744" lon="0.66829">
        <ele>2079.4</ele>
        <time>2018-08-08T14:44:18.000Z</time>
      </trkpt>
      <trkpt lat="42.69744" lon="0.66829">
        <ele>2079.4</ele>
        <time>2018-08-08T14:44:19.000Z</time>
      </trkpt>
      <trkpt lat="42.69744" lon="0.66829">
        <ele>2079.4</ele>
        <time>2018-08-08T14:44:20.000Z</time>
      </trkpt>
      <trkpt lat="42.69744" lon="0.66829">
        <ele>2079.4</ele>
        <time>2018-08-08T14:44:21.000Z</time>
      </trkpt>
      <trkpt lat="42.69744" lon="0.66829">
        <ele>2079.4</ele>
        <time>2018-08-08T14:44:22.000Z</time>
      </trkpt>
      <trkpt lat="42.69744" lon="0.66829">
        <ele>2079.4</ele>
        <time>2018-08-08T14:44:23.000Z</time>
      </trkpt>
      <trkpt lat="42.69744" lon="0.66829">
        <ele>2079.4</ele>
        <time>2018-08-08T14:44:24.000Z</time>
      </trkpt>
      <trkpt lat="42.69744" lon="0.66829">
        <ele>2079.4</ele>
        <time>2018-08-08T14:44:25.000Z</time>
      </trkpt>
      <trkpt lat="42.69744" lon="0.66829">
        <ele>2079.4</ele>
        <time>2018-08-08T14:44:26.000Z</time>
      </trkpt>
      <trkpt lat="42.69744" lon="0.66829">
        <ele>2079.4</ele>
        <time>2018-08-08T14:44:27.000Z</time>
      </trkpt>
      <trkpt lat="42.69744" lon="0.66829">
        <ele>2079.4</ele>
        <time>2018-08-08T14:44:28.000Z</time>
      </trkpt>
      <trkpt lat="42.69744" lon="0.66829">
        <ele>2079.4</ele>
        <time>2018-08-08T14:44:29.000Z</time>
      </trkpt>
      <trkpt lat="42.69744" lon="0.66829">
        <ele>2079.4</ele>
        <time>2018-08-08T14:44:30.000Z</time>
      </trkpt>
      <trkpt lat="42.69744" lon="0.66829">
        <ele>2079.4</ele>
        <time>2018-08-08T14:44:31.000Z</time>
      </trkpt>
      <trkpt lat="42.69744" lon="0.66829">
        <ele>2079.4</ele>
        <time>2018-08-08T14:44:32.000Z</time>
      </trkpt>
      <trkpt lat="42.69744" lon="0.66829">
        <ele>2079.4</ele>
        <time>2018-08-08T14:44:33.000Z</time>
      </trkpt>
      <trkpt lat="42.69744" lon="0.66829">
        <ele>2079.4</ele>
        <time>2018-08-08T14:44:34.000Z</time>
      </trkpt>
      <trkpt lat="42.69744" lon="0.66829">
        <ele>2079.4</ele>
        <time>2018-08-08T14:44:35.000Z</time>
      </trkpt>
      <trkpt lat="42.69744" lon="0.66829">
        <ele>2079.4</ele>
        <time>2018-08-08T14:44:36.000Z</time>
      </trkpt>
      <trkpt lat="42.69744" lon="0.66829">
        <ele>2079.4</ele>
        <time>2018-08-08T14:44:37.000Z</time>
      </trkpt>
      <trkpt lat="42.69744" lon="0.66829">
        <ele>2079.4</ele>
        <time>2018-08-08T14:44:38.000Z</time>
      </trkpt>
      <trkpt lat="42.69744" lon="0.66829">
        <ele>2079.4</ele>
        <time>2018-08-08T14:44:39.000Z</time>
      </trkpt>
      <trkpt lat="42.69744" lon="0.66829">
        <ele>2079.4</ele>
        <time>2018-08-08T14:44:40.000Z</time>
      </trkpt>
      <trkpt lat="42.69744" lon="0.66829">
        <ele>2079.4</ele>
        <time>2018-08-08T14:44:41.000Z</time>
      </trkpt>
      <trkpt lat="42.69744" lon="0.66829">
        <ele>2079.4</ele>
        <time>2018-08-08T14:44:42.000Z</time>
      </trkpt>
      <trkpt lat="42.69744" lon="0.66829">
        <ele>2079.4</ele>
        <time>2018-08-08T14:44:43.000Z</time>
      </trkpt>
      <trkpt lat="42.69744" lon="0.66829">
        <ele>2079.4</ele>
        <time>2018-08-08T14:44:44.000Z</time>
      </trkpt>
      <trkpt lat="42.69744" lon="0.66829">
        <ele>2079.4</ele>
        <time>2018-08-08T14:44:45.000Z</time>
      </trkpt>
      <trkpt lat="42.69744" lon="0.66829">
        <ele>2079.4</ele>
        <time>2018-08-08T14:44:46.000Z</time>
      </trkpt>
      <trkpt lat="42.69744" lon="0.66829">
        <ele>2079.4</ele>
        <time>2018-08-08T14:44:47.000Z</time>
      </trkpt>
      <trkpt lat="42.69744" lon="0.66829">
        <ele>2079.4</ele>
        <time>2018-08-08T14:44:48.000Z</time>
      </trkpt>
      <trkpt lat="42.69744" lon="0.66829">
        <ele>2079.4</ele>
        <time>2018-08-08T14:44:49.000Z</time>
      </trkpt>
      <trkpt lat="42.69744" lon="0.66829">
        <ele>2079.4</ele>
        <time>2018-08-08T14:44:50.000Z</time>
      </trkpt>
      <trkpt lat="42.69744" lon="0.66829">
        <ele>2079.4</ele>
        <time>2018-08-08T14:44:51.000Z</time>
      </trkpt>
      <trkpt lat="42.69744" lon="0.66829">
        <ele>2079.4</ele>
        <time>2018-08-08T14:44:52.000Z</time>
      </trkpt>
      <trkpt lat="42.69744" lon="0.66829">
        <ele>2079.4</ele>
        <time>2018-08-08T14:44:53.000Z</time>
      </trkpt>
      <trkpt lat="42.69744" lon="0.66829">
        <ele>2079.4</ele>
        <time>2018-08-08T14:44:54.000Z</time>
      </trkpt>
      <trkpt lat="42.69744" lon="0.66829">
        <ele>2079.4</ele>
        <time>2018-08-08T14:44:55.000Z</time>
      </trkpt>
      <trkpt lat="42.69744" lon="0.66829">
        <ele>2079.4</ele>
        <time>2018-08-08T14:44:56.000Z</time>
      </trkpt>
      <trkpt lat="42.69744" lon="0.66829">
        <ele>2079.4</ele>
        <time>2018-08-08T14:44:57.000Z</time>
      </trkpt>
      <trkpt lat="42.69744" lon="0.66829">
        <ele>2079.4</ele>
        <time>2018-08-08T14:44:58.000Z</time>
      </trkpt>
      <trkpt lat="42.69744" lon="0.66829">
        <ele>2079.4</ele>
        <time>2018-08-08T14:44:59.000Z</time>
      </trkpt>
      <trkpt lat="42.69744" lon="0.66829">
        <ele>2079.4</ele>
        <time>2018-08-08T14:45:00.000Z</time>
      </trkpt>
      <trkpt lat="42.69744" lon="0.66829">
        <ele>2079.4</ele>
        <time>2018-08-08T14:45:01.000Z</time>
      </trkpt>
      <trkpt lat="42.69744" lon="0.66829">
        <ele>2079.4</ele>
        <time>2018-08-08T14:45:02.000Z</time>
      </trkpt>
      <trkpt lat="42.69744" lon="0.66829">
        <ele>2079.4</ele>
        <time>2018-08-08T14:45:03.000Z</time>
      </trkpt>
      <trkpt lat="42.69744" lon="0.66829">
        <ele>2079.4</ele>
        <time>2018-08-08T14:45:04.000Z</time>
      </trkpt>
      <trkpt lat="42.69744" lon="0.66829">
        <ele>2079.4</ele>
        <time>2018-08-08T14:45:05.000Z</time>
      </trkpt>
      <trkpt lat="42.69744" lon="0.66829">
        <ele>2079.4</ele>
        <time>2018-08-08T14:45:06.000Z</time>
      </trkpt>
      <trkpt lat="42.69744" lon="0.66829">
        <ele>2079.4</ele>
        <time>2018-08-08T14:45:07.000Z</time>
      </trkpt>
      <trkpt lat="42.69744" lon="0.66829">
        <ele>2079.4</ele>
        <time>2018-08-08T14:45:08.000Z</time>
      </trkpt>
      <trkpt lat="42.69744" lon="0.66829">
        <ele>2079.4</ele>
        <time>2018-08-08T14:45:09.000Z</time>
      </trkpt>
      <trkpt lat="42.69744" lon="0.66829">
        <ele>2079.3</ele>
        <time>2018-08-08T14:45:10.000Z</time>
      </trkpt>
      <trkpt lat="42.69744" lon="0.66829">
        <ele>2079.3</ele>
        <time>2018-08-08T14:45:11.000Z</time>
      </trkpt>
      <trkpt lat="42.69745" lon="0.66829">
        <ele>2079.3</ele>
        <time>2018-08-08T14:45:12.000Z</time>
      </trkpt>
      <trkpt lat="42.69745" lon="0.66829">
        <ele>2079.3</ele>
        <time>2018-08-08T14:45:13.000Z</time>
      </trkpt>
      <trkpt lat="42.69745" lon="0.66829">
        <ele>2079.3</ele>
        <time>2018-08-08T14:45:14.000Z</time>
      </trkpt>
      <trkpt lat="42.69745" lon="0.66829">
        <ele>2079.2</ele>
        <time>2018-08-08T14:45:15.000Z</time>
      </trkpt>
      <trkpt lat="42.69745" lon="0.66829">
        <ele>2079.2</ele>
        <time>2018-08-08T14:45:16.000Z</time>
      </trkpt>
      <trkpt lat="42.69745" lon="0.66829">
        <ele>2079.2</ele>
        <time>2018-08-08T14:45:17.000Z</time>
      </trkpt>
      <trkpt lat="42.69745" lon="0.66829">
        <ele>2079.2</ele>
        <time>2018-08-08T14:45:18.000Z</time>
      </trkpt>
      <trkpt lat="42.69745" lon="0.66829">
        <ele>2079.2</ele>
        <time>2018-08-08T14:45:19.000Z</time>
      </trkpt>
      <trkpt lat="42.69745" lon="0.66829">
        <ele>2079.2</ele>
        <time>2018-08-08T14:45:20.000Z</time>
      </trkpt>
      <trkpt lat="42.69745" lon="0.66829">
        <ele>2079.2</ele>
        <time>2018-08-08T14:45:21.000Z</time>
      </trkpt>
      <trkpt lat="42.69745" lon="0.66829">
        <ele>2079.2</ele>
        <time>2018-08-08T14:45:22.000Z</time>
      </trkpt>
      <trkpt lat="42.69745" lon="0.66829">
        <ele>2079.2</ele>
        <time>2018-08-08T14:45:23.000Z</time>
      </trkpt>
      <trkpt lat="42.69745" lon="0.66829">
        <ele>2079.2</ele>
        <time>2018-08-08T14:45:24.000Z</time>
      </trkpt>
      <trkpt lat="42.69745" lon="0.66829">
        <ele>2079.2</ele>
        <time>2018-08-08T14:45:25.000Z</time>
      </trkpt>
      <trkpt lat="42.69745" lon="0.66829">
        <ele>2079.2</ele>
        <time>2018-08-08T14:45:26.000Z</time>
      </trkpt>
      <trkpt lat="42.69745" lon="0.66829">
        <ele>2079.2</ele>
        <time>2018-08-08T14:45:27.000Z</time>
      </trkpt>
      <trkpt lat="42.69745" lon="0.66829">
        <ele>2079.2</ele>
        <time>2018-08-08T14:45:28.000Z</time>
      </trkpt>
      <trkpt lat="42.69745" lon="0.66829">
        <ele>2079.2</ele>
        <time>2018-08-08T14:45:29.000Z</time>
      </trkpt>
      <trkpt lat="42.69745" lon="0.66829">
        <ele>2079.2</ele>
        <time>2018-08-08T14:45:30.000Z</time>
      </trkpt>
      <trkpt lat="42.69745" lon="0.66829">
        <ele>2079.2</ele>
        <time>2018-08-08T14:45:31.000Z</time>
      </trkpt>
      <trkpt lat="42.69745" lon="0.66829">
        <ele>2079.2</ele>
        <time>2018-08-08T14:45:32.000Z</time>
      </trkpt>
      <trkpt lat="42.69745" lon="0.66829">
        <ele>2079.2</ele>
        <time>2018-08-08T14:45:33.000Z</time>
      </trkpt>
      <trkpt lat="42.69745" lon="0.66829">
        <ele>2079.2</ele>
        <time>2018-08-08T14:45:34.000Z</time>
      </trkpt>
      <trkpt lat="42.69745" lon="0.66829">
        <ele>2079.2</ele>
        <time>2018-08-08T14:45:35.000Z</time>
      </trkpt>
      <trkpt lat="42.69745" lon="0.66829">
        <ele>2079.2</ele>
        <time>2018-08-08T14:45:36.000Z</time>
      </trkpt>
      <trkpt lat="42.69745" lon="0.66829">
        <ele>2079.2</ele>
        <time>2018-08-08T14:45:37.000Z</time>
      </trkpt>
      <trkpt lat="42.69745" lon="0.66829">
        <ele>2079.2</ele>
        <time>2018-08-08T14:45:38.000Z</time>
      </trkpt>
      <trkpt lat="42.69745" lon="0.66829">
        <ele>2079.2</ele>
        <time>2018-08-08T14:45:39.000Z</time>
      </trkpt>
      <trkpt lat="42.69745" lon="0.66829">
        <ele>2079.2</ele>
        <time>2018-08-08T14:45:40.000Z</time>
      </trkpt>
      <trkpt lat="42.69745" lon="0.66829">
        <ele>2079.2</ele>
        <time>2018-08-08T14:45:41.000Z</time>
      </trkpt>
      <trkpt lat="42.69745" lon="0.66829">
        <ele>2079.2</ele>
        <time>2018-08-08T14:45:42.000Z</time>
      </trkpt>
      <trkpt lat="42.69745" lon="0.66829">
        <ele>2079.2</ele>
        <time>2018-08-08T14:45:43.000Z</time>
      </trkpt>
      <trkpt lat="42.69745" lon="0.66829">
        <ele>2079.2</ele>
        <time>2018-08-08T14:45:44.000Z</time>
      </trkpt>
      <trkpt lat="42.69745" lon="0.66829">
        <ele>2079.2</ele>
        <time>2018-08-08T14:45:45.000Z</time>
      </trkpt>
      <trkpt lat="42.69745" lon="0.66829">
        <ele>2079.2</ele>
        <time>2018-08-08T14:45:46.000Z</time>
      </trkpt>
      <trkpt lat="42.69745" lon="0.66829">
        <ele>2079.2</ele>
        <time>2018-08-08T14:45:47.000Z</time>
      </trkpt>
      <trkpt lat="42.69745" lon="0.66829">
        <ele>2079.2</ele>
        <time>2018-08-08T14:45:48.000Z</time>
      </trkpt>
      <trkpt lat="42.69745" lon="0.66829">
        <ele>2079.2</ele>
        <time>2018-08-08T14:45:49.000Z</time>
      </trkpt>
      <trkpt lat="42.69745" lon="0.66829">
        <ele>2079.2</ele>
        <time>2018-08-08T14:45:50.000Z</time>
      </trkpt>
      <trkpt lat="42.69745" lon="0.66829">
        <ele>2079.2</ele>
        <time>2018-08-08T14:45:51.000Z</time>
      </trkpt>
      <trkpt lat="42.69745" lon="0.66829">
        <ele>2079.2</ele>
        <time>2018-08-08T14:45:52.000Z</time>
      </trkpt>
      <trkpt lat="42.69745" lon="0.66829">
        <ele>2079.2</ele>
        <time>2018-08-08T14:45:53.000Z</time>
      </trkpt>
      <trkpt lat="42.69745" lon="0.66829">
        <ele>2079.2</ele>
        <time>2018-08-08T14:45:54.000Z</time>
      </trkpt>
      <trkpt lat="42.69745" lon="0.66829">
        <ele>2079.2</ele>
        <time>2018-08-08T14:45:55.000Z</time>
      </trkpt>
      <trkpt lat="42.69745" lon="0.66829">
        <ele>2079.2</ele>
        <time>2018-08-08T14:45:56.000Z</time>
      </trkpt>
      <trkpt lat="42.69745" lon="0.66829">
        <ele>2079.2</ele>
        <time>2018-08-08T14:45:57.000Z</time>
      </trkpt>
      <trkpt lat="42.69745" lon="0.66829">
        <ele>2079.2</ele>
        <time>2018-08-08T14:45:58.000Z</time>
      </trkpt>
      <trkpt lat="42.69745" lon="0.66829">
        <ele>2079.2</ele>
        <time>2018-08-08T14:45:59.000Z</time>
      </trkpt>
      <trkpt lat="42.69745" lon="0.66829">
        <ele>2079.2</ele>
        <time>2018-08-08T14:46:00.000Z</time>
      </trkpt>
      <trkpt lat="42.69745" lon="0.66829">
        <ele>2079.2</ele>
        <time>2018-08-08T14:46:01.000Z</time>
      </trkpt>
      <trkpt lat="42.69745" lon="0.66829">
        <ele>2079.2</ele>
        <time>2018-08-08T14:46:02.000Z</time>
      </trkpt>
      <trkpt lat="42.69745" lon="0.66829">
        <ele>2079.2</ele>
        <time>2018-08-08T14:46:03.000Z</time>
      </trkpt>
      <trkpt lat="42.69745" lon="0.66829">
        <ele>2079.2</ele>
        <time>2018-08-08T14:46:04.000Z</time>
      </trkpt>
      <trkpt lat="42.69745" lon="0.66829">
        <ele>2079.2</ele>
        <time>2018-08-08T14:46:05.000Z</time>
      </trkpt>
      <trkpt lat="42.69745" lon="0.66829">
        <ele>2079.2</ele>
        <time>2018-08-08T14:46:06.000Z</time>
      </trkpt>
      <trkpt lat="42.69745" lon="0.66829">
        <ele>2079.2</ele>
        <time>2018-08-08T14:46:07.000Z</time>
      </trkpt>
      <trkpt lat="42.69745" lon="0.66829">
        <ele>2079.2</ele>
        <time>2018-08-08T14:46:08.000Z</time>
      </trkpt>
      <trkpt lat="42.69745" lon="0.66829">
        <ele>2079.2</ele>
        <time>2018-08-08T14:46:09.000Z</time>
      </trkpt>
      <trkpt lat="42.69745" lon="0.66829">
        <ele>2079.2</ele>
        <time>2018-08-08T14:46:10.000Z</time>
      </trkpt>
      <trkpt lat="42.69745" lon="0.66829">
        <ele>2079.2</ele>
        <time>2018-08-08T14:46:11.000Z</time>
      </trkpt>
      <trkpt lat="42.69745" lon="0.66829">
        <ele>2079.2</ele>
        <time>2018-08-08T14:46:12.000Z</time>
      </trkpt>
      <trkpt lat="42.69745" lon="0.66829">
        <ele>2079.2</ele>
        <time>2018-08-08T14:46:13.000Z</time>
      </trkpt>
      <trkpt lat="42.69745" lon="0.66829">
        <ele>2079.2</ele>
        <time>2018-08-08T14:46:14.000Z</time>
      </trkpt>
      <trkpt lat="42.69745" lon="0.66829">
        <ele>2079.2</ele>
        <time>2018-08-08T14:46:15.000Z</time>
      </trkpt>
      <trkpt lat="42.69745" lon="0.66829">
        <ele>2079.2</ele>
        <time>2018-08-08T14:46:16.000Z</time>
      </trkpt>
      <trkpt lat="42.69745" lon="0.66829">
        <ele>2079.2</ele>
        <time>2018-08-08T14:46:17.000Z</time>
      </trkpt>
      <trkpt lat="42.69745" lon="0.66829">
        <ele>2079.2</ele>
        <time>2018-08-08T14:46:18.000Z</time>
      </trkpt>
      <trkpt lat="42.69745" lon="0.66829">
        <ele>2079.2</ele>
        <time>2018-08-08T14:46:19.000Z</time>
      </trkpt>
      <trkpt lat="42.69745" lon="0.66829">
        <ele>2079.2</ele>
        <time>2018-08-08T14:46:20.000Z</time>
      </trkpt>
      <trkpt lat="42.69745" lon="0.66829">
        <ele>2079.2</ele>
        <time>2018-08-08T14:46:21.000Z</time>
      </trkpt>
      <trkpt lat="42.69745" lon="0.66829">
        <ele>2079.2</ele>
        <time>2018-08-08T14:46:22.000Z</time>
      </trkpt>
      <trkpt lat="42.69745" lon="0.66829">
        <ele>2079.2</ele>
        <time>2018-08-08T14:46:23.000Z</time>
      </trkpt>
      <trkpt lat="42.69745" lon="0.66829">
        <ele>2079.2</ele>
        <time>2018-08-08T14:46:24.000Z</time>
      </trkpt>
      <trkpt lat="42.69745" lon="0.66829">
        <ele>2079.2</ele>
        <time>2018-08-08T14:46:25.000Z</time>
      </trkpt>
      <trkpt lat="42.69745" lon="0.66829">
        <ele>2079.2</ele>
        <time>2018-08-08T14:46:26.000Z</time>
      </trkpt>
      <trkpt lat="42.69745" lon="0.66829">
        <ele>2079.2</ele>
        <time>2018-08-08T14:46:27.000Z</time>
      </trkpt>
      <trkpt lat="42.69745" lon="0.66829">
        <ele>2079.2</ele>
        <time>2018-08-08T14:46:28.000Z</time>
      </trkpt>
      <trkpt lat="42.69745" lon="0.66829">
        <ele>2079.2</ele>
        <time>2018-08-08T14:46:29.000Z</time>
      </trkpt>
      <trkpt lat="42.69745" lon="0.66829">
        <ele>2079.2</ele>
        <time>2018-08-08T14:46:30.000Z</time>
      </trkpt>
      <trkpt lat="42.69745" lon="0.66829">
        <ele>2079.2</ele>
        <time>2018-08-08T14:46:31.000Z</time>
      </trkpt>
      <trkpt lat="42.69745" lon="0.66829">
        <ele>2079.2</ele>
        <time>2018-08-08T14:46:32.000Z</time>
      </trkpt>
      <trkpt lat="42.69745" lon="0.66829">
        <ele>2079.2</ele>
        <time>2018-08-08T14:46:33.000Z</time>
      </trkpt>
      <trkpt lat="42.69745" lon="0.66829">
        <ele>2079.2</ele>
        <time>2018-08-08T14:46:34.000Z</time>
      </trkpt>
      <trkpt lat="42.69745" lon="0.66829">
        <ele>2079.2</ele>
        <time>2018-08-08T14:46:35.000Z</time>
      </trkpt>
      <trkpt lat="42.69745" lon="0.66829">
        <ele>2079.2</ele>
        <time>2018-08-08T14:46:36.000Z</time>
      </trkpt>
      <trkpt lat="42.69745" lon="0.66829">
        <ele>2079.2</ele>
        <time>2018-08-08T14:46:37.000Z</time>
      </trkpt>
      <trkpt lat="42.69745" lon="0.66829">
        <ele>2079.2</ele>
        <time>2018-08-08T14:46:38.000Z</time>
      </trkpt>
      <trkpt lat="42.69745" lon="0.66829">
        <ele>2079.2</ele>
        <time>2018-08-08T14:46:39.000Z</time>
      </trkpt>
      <trkpt lat="42.69745" lon="0.66829">
        <ele>2079.2</ele>
        <time>2018-08-08T14:46:40.000Z</time>
      </trkpt>
      <trkpt lat="42.69745" lon="0.66829">
        <ele>2079.2</ele>
        <time>2018-08-08T14:46:41.000Z</time>
      </trkpt>
      <trkpt lat="42.69745" lon="0.66829">
        <ele>2079.2</ele>
        <time>2018-08-08T14:46:42.000Z</time>
      </trkpt>
      <trkpt lat="42.69745" lon="0.66829">
        <ele>2079.2</ele>
        <time>2018-08-08T14:46:43.000Z</time>
      </trkpt>
      <trkpt lat="42.69745" lon="0.66829">
        <ele>2079.2</ele>
        <time>2018-08-08T14:46:44.000Z</time>
      </trkpt>
      <trkpt lat="42.69745" lon="0.66829">
        <ele>2079.2</ele>
        <time>2018-08-08T14:46:45.000Z</time>
      </trkpt>
      <trkpt lat="42.69745" lon="0.66829">
        <ele>2079.2</ele>
        <time>2018-08-08T14:46:46.000Z</time>
      </trkpt>
      <trkpt lat="42.69745" lon="0.66829">
        <ele>2079.2</ele>
        <time>2018-08-08T14:46:47.000Z</time>
      </trkpt>
      <trkpt lat="42.69745" lon="0.66829">
        <ele>2079.2</ele>
        <time>2018-08-08T14:46:48.000Z</time>
      </trkpt>
      <trkpt lat="42.69745" lon="0.66829">
        <ele>2079.2</ele>
        <time>2018-08-08T14:46:49.000Z</time>
      </trkpt>
      <trkpt lat="42.69745" lon="0.66829">
        <ele>2079.2</ele>
        <time>2018-08-08T14:46:50.000Z</time>
      </trkpt>
      <trkpt lat="42.69745" lon="0.66829">
        <ele>2079.2</ele>
        <time>2018-08-08T14:46:51.000Z</time>
      </trkpt>
      <trkpt lat="42.69745" lon="0.66829">
        <ele>2079.2</ele>
        <time>2018-08-08T14:46:52.000Z</time>
      </trkpt>
      <trkpt lat="42.69745" lon="0.66829">
        <ele>2079.2</ele>
        <time>2018-08-08T14:46:53.000Z</time>
      </trkpt>
      <trkpt lat="42.69745" lon="0.66829">
        <ele>2079.2</ele>
        <time>2018-08-08T14:46:54.000Z</time>
      </trkpt>
      <trkpt lat="42.69745" lon="0.66829">
        <ele>2079.1</ele>
        <time>2018-08-08T14:46:55.000Z</time>
      </trkpt>
      <trkpt lat="42.69745" lon="0.66829">
        <ele>2079.1</ele>
        <time>2018-08-08T14:46:56.000Z</time>
      </trkpt>
      <trkpt lat="42.69745" lon="0.66829">
        <ele>2079.2</ele>
        <time>2018-08-08T14:46:57.000Z</time>
      </trkpt>
      <trkpt lat="42.69745" lon="0.66829">
        <ele>2079.2</ele>
        <time>2018-08-08T14:46:58.000Z</time>
      </trkpt>
      <trkpt lat="42.69745" lon="0.66829">
        <ele>2079.2</ele>
        <time>2018-08-08T14:46:59.000Z</time>
      </trkpt>
      <trkpt lat="42.69745" lon="0.66829">
        <ele>2079.1</ele>
        <time>2018-08-08T14:47:00.000Z</time>
      </trkpt>
      <trkpt lat="42.69745" lon="0.66829">
        <ele>2079.1</ele>
        <time>2018-08-08T14:47:01.000Z</time>
      </trkpt>
      <trkpt lat="42.69745" lon="0.66829">
        <ele>2079</ele>
        <time>2018-08-08T14:47:02.000Z</time>
      </trkpt>
      <trkpt lat="42.69746" lon="0.66829">
        <ele>2078.9</ele>
        <time>2018-08-08T14:47:03.000Z</time>
      </trkpt>
      <trkpt lat="42.69746" lon="0.66829">
        <ele>2078.8</ele>
        <time>2018-08-08T14:47:04.000Z</time>
      </trkpt>
      <trkpt lat="42.69747" lon="0.6683">
        <ele>2078.7</ele>
        <time>2018-08-08T14:47:05.000Z</time>
      </trkpt>
      <trkpt lat="42.69747" lon="0.6683">
        <ele>2078.5</ele>
        <time>2018-08-08T14:47:06.000Z</time>
      </trkpt>
      <trkpt lat="42.69748" lon="0.6683">
        <ele>2078.4</ele>
        <time>2018-08-08T14:47:07.000Z</time>
      </trkpt>
      <trkpt lat="42.69749" lon="0.66831">
        <ele>2078.3</ele>
        <time>2018-08-08T14:47:08.000Z</time>
      </trkpt>
      <trkpt lat="42.69749" lon="0.66831">
        <ele>2078.2</ele>
        <time>2018-08-08T14:47:09.000Z</time>
      </trkpt>
      <trkpt lat="42.69749" lon="0.66831">
        <ele>2078.2</ele>
        <time>2018-08-08T14:47:10.000Z</time>
      </trkpt>
      <trkpt lat="42.69749" lon="0.66831">
        <ele>2078.2</ele>
        <time>2018-08-08T14:47:11.000Z</time>
      </trkpt>
      <trkpt lat="42.69749" lon="0.66831">
        <ele>2078.2</ele>
        <time>2018-08-08T14:47:12.000Z</time>
      </trkpt>
      <trkpt lat="42.69749" lon="0.66831">
        <ele>2078.2</ele>
        <time>2018-08-08T14:47:13.000Z</time>
      </trkpt>
      <trkpt lat="42.69749" lon="0.66831">
        <ele>2078.2</ele>
        <time>2018-08-08T14:47:14.000Z</time>
      </trkpt>
      <trkpt lat="42.69749" lon="0.66831">
        <ele>2078.2</ele>
        <time>2018-08-08T14:47:15.000Z</time>
      </trkpt>
      <trkpt lat="42.69749" lon="0.66831">
        <ele>2078.2</ele>
        <time>2018-08-08T14:47:16.000Z</time>
      </trkpt>
      <trkpt lat="42.69749" lon="0.66831">
        <ele>2078.2</ele>
        <time>2018-08-08T14:47:17.000Z</time>
      </trkpt>
      <trkpt lat="42.69749" lon="0.66831">
        <ele>2078.2</ele>
        <time>2018-08-08T14:47:18.000Z</time>
      </trkpt>
      <trkpt lat="42.69749" lon="0.66831">
        <ele>2078.2</ele>
        <time>2018-08-08T14:47:19.000Z</time>
      </trkpt>
      <trkpt lat="42.69749" lon="0.66831">
        <ele>2078.2</ele>
        <time>2018-08-08T14:47:20.000Z</time>
      </trkpt>
      <trkpt lat="42.69749" lon="0.66831">
        <ele>2078.2</ele>
        <time>2018-08-08T14:47:21.000Z</time>
      </trkpt>
      <trkpt lat="42.69749" lon="0.66831">
        <ele>2078.2</ele>
        <time>2018-08-08T14:47:22.000Z</time>
      </trkpt>
      <trkpt lat="42.69749" lon="0.66831">
        <ele>2078.2</ele>
        <time>2018-08-08T14:47:23.000Z</time>
      </trkpt>
      <trkpt lat="42.69749" lon="0.66831">
        <ele>2078.2</ele>
        <time>2018-08-08T14:47:24.000Z</time>
      </trkpt>
      <trkpt lat="42.69749" lon="0.66831">
        <ele>2078.2</ele>
        <time>2018-08-08T14:47:25.000Z</time>
      </trkpt>
      <trkpt lat="42.69749" lon="0.66831">
        <ele>2078.2</ele>
        <time>2018-08-08T14:47:26.000Z</time>
      </trkpt>
      <trkpt lat="42.69749" lon="0.66831">
        <ele>2078.2</ele>
        <time>2018-08-08T14:47:27.000Z</time>
      </trkpt>
      <trkpt lat="42.69749" lon="0.66831">
        <ele>2078.2</ele>
        <time>2018-08-08T14:47:28.000Z</time>
      </trkpt>
      <trkpt lat="42.69749" lon="0.66831">
        <ele>2078.2</ele>
        <time>2018-08-08T14:47:29.000Z</time>
      </trkpt>
      <trkpt lat="42.69749" lon="0.66831">
        <ele>2078.2</ele>
        <time>2018-08-08T14:47:30.000Z</time>
      </trkpt>
      <trkpt lat="42.69749" lon="0.66831">
        <ele>2078.2</ele>
        <time>2018-08-08T14:47:31.000Z</time>
      </trkpt>
      <trkpt lat="42.69749" lon="0.66831">
        <ele>2078.2</ele>
        <time>2018-08-08T14:47:32.000Z</time>
      </trkpt>
      <trkpt lat="42.69749" lon="0.66831">
        <ele>2078.2</ele>
        <time>2018-08-08T14:47:33.000Z</time>
      </trkpt>
      <trkpt lat="42.69749" lon="0.66831">
        <ele>2078.2</ele>
        <time>2018-08-08T14:47:34.000Z</time>
      </trkpt>
      <trkpt lat="42.69749" lon="0.66831">
        <ele>2078.2</ele>
        <time>2018-08-08T14:47:35.000Z</time>
      </trkpt>
      <trkpt lat="42.69749" lon="0.66831">
        <ele>2078.2</ele>
        <time>2018-08-08T14:47:36.000Z</time>
      </trkpt>
      <trkpt lat="42.69749" lon="0.66831">
        <ele>2078.2</ele>
        <time>2018-08-08T14:47:37.000Z</time>
      </trkpt>
      <trkpt lat="42.69749" lon="0.66831">
        <ele>2078.2</ele>
        <time>2018-08-08T14:47:38.000Z</time>
      </trkpt>
      <trkpt lat="42.69749" lon="0.66831">
        <ele>2078.2</ele>
        <time>2018-08-08T14:47:39.000Z</time>
      </trkpt>
      <trkpt lat="42.69749" lon="0.66831">
        <ele>2078.2</ele>
        <time>2018-08-08T14:47:40.000Z</time>
      </trkpt>
      <trkpt lat="42.69749" lon="0.66831">
        <ele>2078.2</ele>
        <time>2018-08-08T14:47:41.000Z</time>
      </trkpt>
      <trkpt lat="42.69749" lon="0.66831">
        <ele>2078.2</ele>
        <time>2018-08-08T14:47:42.000Z</time>
      </trkpt>
      <trkpt lat="42.69749" lon="0.66831">
        <ele>2078.2</ele>
        <time>2018-08-08T14:47:43.000Z</time>
      </trkpt>
      <trkpt lat="42.69749" lon="0.66831">
        <ele>2078.2</ele>
        <time>2018-08-08T14:47:44.000Z</time>
      </trkpt>
      <trkpt lat="42.69749" lon="0.66831">
        <ele>2078.2</ele>
        <time>2018-08-08T14:47:45.000Z</time>
      </trkpt>
      <trkpt lat="42.69749" lon="0.66831">
        <ele>2078.2</ele>
        <time>2018-08-08T14:47:46.000Z</time>
      </trkpt>
      <trkpt lat="42.69749" lon="0.66831">
        <ele>2078.2</ele>
        <time>2018-08-08T14:47:47.000Z</time>
      </trkpt>
      <trkpt lat="42.69749" lon="0.66831">
        <ele>2078.2</ele>
        <time>2018-08-08T14:47:48.000Z</time>
      </trkpt>
      <trkpt lat="42.69749" lon="0.66831">
        <ele>2078.2</ele>
        <time>2018-08-08T14:47:49.000Z</time>
      </trkpt>
      <trkpt lat="42.69749" lon="0.66831">
        <ele>2078.2</ele>
        <time>2018-08-08T14:47:50.000Z</time>
      </trkpt>
      <trkpt lat="42.69749" lon="0.66831">
        <ele>2078.2</ele>
        <time>2018-08-08T14:47:51.000Z</time>
      </trkpt>
      <trkpt lat="42.69749" lon="0.66831">
        <ele>2078.2</ele>
        <time>2018-08-08T14:47:52.000Z</time>
      </trkpt>
      <trkpt lat="42.69749" lon="0.66831">
        <ele>2078.2</ele>
        <time>2018-08-08T14:47:53.000Z</time>
      </trkpt>
      <trkpt lat="42.69749" lon="0.66831">
        <ele>2078.2</ele>
        <time>2018-08-08T14:47:54.000Z</time>
      </trkpt>
      <trkpt lat="42.69749" lon="0.66831">
        <ele>2078.2</ele>
        <time>2018-08-08T14:47:55.000Z</time>
      </trkpt>
      <trkpt lat="42.69749" lon="0.66831">
        <ele>2078.2</ele>
        <time>2018-08-08T14:47:56.000Z</time>
      </trkpt>
      <trkpt lat="42.69749" lon="0.66831">
        <ele>2078.2</ele>
        <time>2018-08-08T14:47:57.000Z</time>
      </trkpt>
      <trkpt lat="42.69749" lon="0.66831">
        <ele>2078.2</ele>
        <time>2018-08-08T14:47:58.000Z</time>
      </trkpt>
      <trkpt lat="42.69749" lon="0.66831">
        <ele>2078.2</ele>
        <time>2018-08-08T14:47:59.000Z</time>
      </trkpt>
      <trkpt lat="42.69749" lon="0.66831">
        <ele>2078.2</ele>
        <time>2018-08-08T14:48:00.000Z</time>
      </trkpt>
      <trkpt lat="42.69749" lon="0.66831">
        <ele>2078.2</ele>
        <time>2018-08-08T14:48:01.000Z</time>
      </trkpt>
      <trkpt lat="42.69749" lon="0.66831">
        <ele>2078.2</ele>
        <time>2018-08-08T14:48:02.000Z</time>
      </trkpt>
      <trkpt lat="42.69749" lon="0.66831">
        <ele>2078.2</ele>
        <time>2018-08-08T14:48:03.000Z</time>
      </trkpt>
      <trkpt lat="42.69749" lon="0.66831">
        <ele>2078.2</ele>
        <time>2018-08-08T14:48:04.000Z</time>
      </trkpt>
      <trkpt lat="42.69749" lon="0.66831">
        <ele>2078.2</ele>
        <time>2018-08-08T14:48:05.000Z</time>
      </trkpt>
      <trkpt lat="42.69749" lon="0.66831">
        <ele>2078.2</ele>
        <time>2018-08-08T14:48:06.000Z</time>
      </trkpt>
      <trkpt lat="42.69749" lon="0.66831">
        <ele>2078.2</ele>
        <time>2018-08-08T14:48:07.000Z</time>
      </trkpt>
      <trkpt lat="42.69749" lon="0.66831">
        <ele>2078.2</ele>
        <time>2018-08-08T14:48:08.000Z</time>
      </trkpt>
      <trkpt lat="42.69749" lon="0.66831">
        <ele>2078.2</ele>
        <time>2018-08-08T14:48:09.000Z</time>
      </trkpt>
      <trkpt lat="42.69749" lon="0.66831">
        <ele>2078.2</ele>
        <time>2018-08-08T14:48:10.000Z</time>
      </trkpt>
      <trkpt lat="42.69749" lon="0.66831">
        <ele>2078.2</ele>
        <time>2018-08-08T14:48:11.000Z</time>
      </trkpt>
      <trkpt lat="42.69749" lon="0.66831">
        <ele>2078.2</ele>
        <time>2018-08-08T14:48:12.000Z</time>
      </trkpt>
      <trkpt lat="42.69749" lon="0.66831">
        <ele>2078.2</ele>
        <time>2018-08-08T14:48:13.000Z</time>
      </trkpt>
      <trkpt lat="42.69749" lon="0.66831">
        <ele>2078.2</ele>
        <time>2018-08-08T14:48:14.000Z</time>
      </trkpt>
      <trkpt lat="42.69749" lon="0.66831">
        <ele>2078.2</ele>
        <time>2018-08-08T14:48:15.000Z</time>
      </trkpt>
      <trkpt lat="42.69749" lon="0.66831">
        <ele>2078.2</ele>
        <time>2018-08-08T14:48:16.000Z</time>
      </trkpt>
      <trkpt lat="42.69749" lon="0.66831">
        <ele>2078.2</ele>
        <time>2018-08-08T14:48:17.000Z</time>
      </trkpt>
      <trkpt lat="42.69749" lon="0.66831">
        <ele>2078.2</ele>
        <time>2018-08-08T14:48:18.000Z</time>
      </trkpt>
      <trkpt lat="42.69749" lon="0.66831">
        <ele>2078.2</ele>
        <time>2018-08-08T14:48:19.000Z</time>
      </trkpt>
      <trkpt lat="42.69749" lon="0.66831">
        <ele>2078.2</ele>
        <time>2018-08-08T14:48:20.000Z</time>
      </trkpt>
      <trkpt lat="42.69749" lon="0.66831">
        <ele>2078.2</ele>
        <time>2018-08-08T14:48:21.000Z</time>
      </trkpt>
      <trkpt lat="42.69749" lon="0.66831">
        <ele>2078.2</ele>
        <time>2018-08-08T14:48:22.000Z</time>
      </trkpt>
      <trkpt lat="42.69749" lon="0.66831">
        <ele>2078.2</ele>
        <time>2018-08-08T14:48:23.000Z</time>
      </trkpt>
      <trkpt lat="42.69749" lon="0.66831">
        <ele>2078.2</ele>
        <time>2018-08-08T14:48:24.000Z</time>
      </trkpt>
      <trkpt lat="42.69749" lon="0.66831">
        <ele>2078.2</ele>
        <time>2018-08-08T14:48:25.000Z</time>
      </trkpt>
      <trkpt lat="42.69749" lon="0.66831">
        <ele>2078.3</ele>
        <time>2018-08-08T14:48:26.000Z</time>
      </trkpt>
      <trkpt lat="42.69748" lon="0.66831">
        <ele>2078.4</ele>
        <time>2018-08-08T14:48:27.000Z</time>
      </trkpt>
      <trkpt lat="42.69747" lon="0.6683">
        <ele>2078.7</ele>
        <time>2018-08-08T14:48:28.000Z</time>
      </trkpt>
      <trkpt lat="42.69745" lon="0.6683">
        <ele>2079.1</ele>
        <time>2018-08-08T14:48:29.000Z</time>
      </trkpt>
      <trkpt lat="42.69745" lon="0.6683">
        <ele>2079.1</ele>
        <time>2018-08-08T14:48:30.000Z</time>
      </trkpt>
      <trkpt lat="42.69745" lon="0.6683">
        <ele>2079.1</ele>
        <time>2018-08-08T14:48:31.000Z</time>
      </trkpt>
      <trkpt lat="42.69745" lon="0.6683">
        <ele>2079.2</ele>
        <time>2018-08-08T14:48:32.000Z</time>
      </trkpt>
      <trkpt lat="42.69745" lon="0.6683">
        <ele>2079.2</ele>
        <time>2018-08-08T14:48:33.000Z</time>
      </trkpt>
      <trkpt lat="42.69745" lon="0.6683">
        <ele>2079.2</ele>
        <time>2018-08-08T14:48:34.000Z</time>
      </trkpt>
      <trkpt lat="42.69745" lon="0.6683">
        <ele>2079.3</ele>
        <time>2018-08-08T14:48:35.000Z</time>
      </trkpt>
      <trkpt lat="42.69745" lon="0.6683">
        <ele>2079.3</ele>
        <time>2018-08-08T14:48:36.000Z</time>
      </trkpt>
      <trkpt lat="42.69745" lon="0.6683">
        <ele>2079.3</ele>
        <time>2018-08-08T14:48:37.000Z</time>
      </trkpt>
      <trkpt lat="42.69745" lon="0.6683">
        <ele>2079.3</ele>
        <time>2018-08-08T14:48:38.000Z</time>
      </trkpt>
      <trkpt lat="42.69745" lon="0.6683">
        <ele>2079.3</ele>
        <time>2018-08-08T14:48:39.000Z</time>
      </trkpt>
      <trkpt lat="42.69745" lon="0.6683">
        <ele>2079.3</ele>
        <time>2018-08-08T14:48:40.000Z</time>
      </trkpt>
      <trkpt lat="42.69745" lon="0.6683">
        <ele>2079.3</ele>
        <time>2018-08-08T14:48:41.000Z</time>
      </trkpt>
      <trkpt lat="42.69745" lon="0.6683">
        <ele>2079.3</ele>
        <time>2018-08-08T14:48:42.000Z</time>
      </trkpt>
      <trkpt lat="42.69745" lon="0.6683">
        <ele>2079.3</ele>
        <time>2018-08-08T14:48:43.000Z</time>
      </trkpt>
      <trkpt lat="42.69745" lon="0.6683">
        <ele>2079.3</ele>
        <time>2018-08-08T14:48:44.000Z</time>
      </trkpt>
      <trkpt lat="42.69745" lon="0.6683">
        <ele>2079.3</ele>
        <time>2018-08-08T14:48:45.000Z</time>
      </trkpt>
      <trkpt lat="42.69745" lon="0.6683">
        <ele>2079.3</ele>
        <time>2018-08-08T14:48:46.000Z</time>
      </trkpt>
      <trkpt lat="42.69745" lon="0.6683">
        <ele>2079.3</ele>
        <time>2018-08-08T14:48:47.000Z</time>
      </trkpt>
      <trkpt lat="42.69745" lon="0.6683">
        <ele>2079.3</ele>
        <time>2018-08-08T14:48:48.000Z</time>
      </trkpt>
      <trkpt lat="42.69745" lon="0.6683">
        <ele>2079.3</ele>
        <time>2018-08-08T14:48:49.000Z</time>
      </trkpt>
      <trkpt lat="42.69745" lon="0.6683">
        <ele>2079.3</ele>
        <time>2018-08-08T14:48:50.000Z</time>
      </trkpt>
      <trkpt lat="42.69745" lon="0.6683">
        <ele>2079.3</ele>
        <time>2018-08-08T14:48:51.000Z</time>
      </trkpt>
      <trkpt lat="42.69745" lon="0.6683">
        <ele>2079.3</ele>
        <time>2018-08-08T14:48:52.000Z</time>
      </trkpt>
      <trkpt lat="42.69745" lon="0.6683">
        <ele>2079.3</ele>
        <time>2018-08-08T14:48:53.000Z</time>
      </trkpt>
      <trkpt lat="42.69745" lon="0.6683">
        <ele>2079.3</ele>
        <time>2018-08-08T14:48:54.000Z</time>
      </trkpt>
      <trkpt lat="42.69745" lon="0.6683">
        <ele>2079.3</ele>
        <time>2018-08-08T14:48:55.000Z</time>
      </trkpt>
      <trkpt lat="42.69745" lon="0.6683">
        <ele>2079.3</ele>
        <time>2018-08-08T14:48:56.000Z</time>
      </trkpt>
      <trkpt lat="42.69745" lon="0.6683">
        <ele>2079.3</ele>
        <time>2018-08-08T14:48:57.000Z</time>
      </trkpt>
      <trkpt lat="42.69745" lon="0.6683">
        <ele>2079.3</ele>
        <time>2018-08-08T14:48:58.000Z</time>
      </trkpt>
      <trkpt lat="42.69745" lon="0.6683">
        <ele>2079.3</ele>
        <time>2018-08-08T14:48:59.000Z</time>
      </trkpt>
      <trkpt lat="42.69745" lon="0.6683">
        <ele>2079.3</ele>
        <time>2018-08-08T14:49:00.000Z</time>
      </trkpt>
      <trkpt lat="42.69745" lon="0.6683">
        <ele>2079.3</ele>
        <time>2018-08-08T14:49:01.000Z</time>
      </trkpt>
      <trkpt lat="42.69745" lon="0.6683">
        <ele>2079.3</ele>
        <time>2018-08-08T14:49:02.000Z</time>
      </trkpt>
      <trkpt lat="42.69745" lon="0.6683">
        <ele>2079.3</ele>
        <time>2018-08-08T14:49:03.000Z</time>
      </trkpt>
      <trkpt lat="42.69745" lon="0.6683">
        <ele>2079.3</ele>
        <time>2018-08-08T14:49:04.000Z</time>
      </trkpt>
      <trkpt lat="42.69745" lon="0.6683">
        <ele>2079.3</ele>
        <time>2018-08-08T14:49:05.000Z</time>
      </trkpt>
      <trkpt lat="42.69745" lon="0.6683">
        <ele>2079.3</ele>
        <time>2018-08-08T14:49:06.000Z</time>
      </trkpt>
      <trkpt lat="42.69745" lon="0.6683">
        <ele>2079.3</ele>
        <time>2018-08-08T14:49:07.000Z</time>
      </trkpt>
      <trkpt lat="42.69745" lon="0.6683">
        <ele>2079.3</ele>
        <time>2018-08-08T14:49:08.000Z</time>
      </trkpt>
      <trkpt lat="42.69745" lon="0.6683">
        <ele>2079.3</ele>
        <time>2018-08-08T14:49:09.000Z</time>
      </trkpt>
      <trkpt lat="42.69745" lon="0.6683">
        <ele>2079.3</ele>
        <time>2018-08-08T14:49:10.000Z</time>
      </trkpt>
      <trkpt lat="42.69745" lon="0.6683">
        <ele>2079.3</ele>
        <time>2018-08-08T14:49:11.000Z</time>
      </trkpt>
      <trkpt lat="42.69745" lon="0.6683">
        <ele>2079.3</ele>
        <time>2018-08-08T14:49:12.000Z</time>
      </trkpt>
      <trkpt lat="42.69745" lon="0.6683">
        <ele>2079.3</ele>
        <time>2018-08-08T14:49:13.000Z</time>
      </trkpt>
      <trkpt lat="42.69745" lon="0.6683">
        <ele>2079.3</ele>
        <time>2018-08-08T14:49:14.000Z</time>
      </trkpt>
      <trkpt lat="42.69745" lon="0.6683">
        <ele>2079.3</ele>
        <time>2018-08-08T14:49:15.000Z</time>
      </trkpt>
      <trkpt lat="42.69745" lon="0.6683">
        <ele>2079.3</ele>
        <time>2018-08-08T14:49:16.000Z</time>
      </trkpt>
      <trkpt lat="42.69745" lon="0.6683">
        <ele>2079.3</ele>
        <time>2018-08-08T14:49:17.000Z</time>
      </trkpt>
      <trkpt lat="42.69745" lon="0.6683">
        <ele>2079.3</ele>
        <time>2018-08-08T14:49:18.000Z</time>
      </trkpt>
      <trkpt lat="42.69745" lon="0.6683">
        <ele>2079.3</ele>
        <time>2018-08-08T14:49:19.000Z</time>
      </trkpt>
      <trkpt lat="42.69745" lon="0.6683">
        <ele>2079.3</ele>
        <time>2018-08-08T14:49:20.000Z</time>
      </trkpt>
      <trkpt lat="42.69745" lon="0.6683">
        <ele>2079.3</ele>
        <time>2018-08-08T14:49:21.000Z</time>
      </trkpt>
      <trkpt lat="42.69745" lon="0.6683">
        <ele>2079.3</ele>
        <time>2018-08-08T14:49:22.000Z</time>
      </trkpt>
      <trkpt lat="42.69745" lon="0.6683">
        <ele>2079.3</ele>
        <time>2018-08-08T14:49:23.000Z</time>
      </trkpt>
      <trkpt lat="42.69745" lon="0.6683">
        <ele>2079.3</ele>
        <time>2018-08-08T14:49:24.000Z</time>
      </trkpt>
      <trkpt lat="42.69745" lon="0.6683">
        <ele>2079.3</ele>
        <time>2018-08-08T14:49:25.000Z</time>
      </trkpt>
      <trkpt lat="42.69745" lon="0.6683">
        <ele>2079.3</ele>
        <time>2018-08-08T14:49:26.000Z</time>
      </trkpt>
      <trkpt lat="42.69745" lon="0.6683">
        <ele>2079.3</ele>
        <time>2018-08-08T14:49:27.000Z</time>
      </trkpt>
      <trkpt lat="42.69745" lon="0.6683">
        <ele>2079.3</ele>
        <time>2018-08-08T14:49:28.000Z</time>
      </trkpt>
      <trkpt lat="42.69745" lon="0.6683">
        <ele>2079.3</ele>
        <time>2018-08-08T14:49:29.000Z</time>
      </trkpt>
      <trkpt lat="42.69745" lon="0.6683">
        <ele>2079.3</ele>
        <time>2018-08-08T14:49:30.000Z</time>
      </trkpt>
      <trkpt lat="42.69745" lon="0.6683">
        <ele>2079.3</ele>
        <time>2018-08-08T14:49:31.000Z</time>
      </trkpt>
      <trkpt lat="42.69745" lon="0.6683">
        <ele>2079.3</ele>
        <time>2018-08-08T14:49:32.000Z</time>
      </trkpt>
      <trkpt lat="42.69745" lon="0.6683">
        <ele>2079.3</ele>
        <time>2018-08-08T14:49:33.000Z</time>
      </trkpt>
      <trkpt lat="42.69745" lon="0.6683">
        <ele>2079.3</ele>
        <time>2018-08-08T14:49:34.000Z</time>
      </trkpt>
      <trkpt lat="42.69745" lon="0.6683">
        <ele>2079.3</ele>
        <time>2018-08-08T14:49:35.000Z</time>
      </trkpt>
      <trkpt lat="42.69745" lon="0.6683">
        <ele>2079.3</ele>
        <time>2018-08-08T14:49:36.000Z</time>
      </trkpt>
      <trkpt lat="42.69745" lon="0.6683">
        <ele>2079.3</ele>
        <time>2018-08-08T14:49:37.000Z</time>
      </trkpt>
      <trkpt lat="42.69745" lon="0.6683">
        <ele>2079.3</ele>
        <time>2018-08-08T14:49:38.000Z</time>
      </trkpt>
      <trkpt lat="42.69745" lon="0.6683">
        <ele>2079.3</ele>
        <time>2018-08-08T14:49:39.000Z</time>
      </trkpt>
      <trkpt lat="42.69745" lon="0.6683">
        <ele>2079.3</ele>
        <time>2018-08-08T14:49:40.000Z</time>
      </trkpt>
      <trkpt lat="42.69745" lon="0.6683">
        <ele>2079.3</ele>
        <time>2018-08-08T14:49:41.000Z</time>
      </trkpt>
      <trkpt lat="42.69745" lon="0.6683">
        <ele>2079.3</ele>
        <time>2018-08-08T14:49:42.000Z</time>
      </trkpt>
      <trkpt lat="42.69745" lon="0.6683">
        <ele>2079.3</ele>
        <time>2018-08-08T14:49:43.000Z</time>
      </trkpt>
      <trkpt lat="42.69745" lon="0.6683">
        <ele>2079.3</ele>
        <time>2018-08-08T14:49:44.000Z</time>
      </trkpt>
      <trkpt lat="42.69745" lon="0.6683">
        <ele>2079.3</ele>
        <time>2018-08-08T14:49:45.000Z</time>
      </trkpt>
      <trkpt lat="42.69745" lon="0.6683">
        <ele>2079.3</ele>
        <time>2018-08-08T14:49:46.000Z</time>
      </trkpt>
      <trkpt lat="42.69745" lon="0.6683">
        <ele>2079.3</ele>
        <time>2018-08-08T14:49:47.000Z</time>
      </trkpt>
      <trkpt lat="42.69745" lon="0.6683">
        <ele>2079.3</ele>
        <time>2018-08-08T14:49:48.000Z</time>
      </trkpt>
      <trkpt lat="42.69745" lon="0.6683">
        <ele>2079.3</ele>
        <time>2018-08-08T14:49:49.000Z</time>
      </trkpt>
      <trkpt lat="42.69745" lon="0.6683">
        <ele>2079.3</ele>
        <time>2018-08-08T14:49:50.000Z</time>
      </trkpt>
      <trkpt lat="42.69745" lon="0.6683">
        <ele>2079.3</ele>
        <time>2018-08-08T14:49:51.000Z</time>
      </trkpt>
      <trkpt lat="42.69745" lon="0.6683">
        <ele>2079.3</ele>
        <time>2018-08-08T14:49:52.000Z</time>
      </trkpt>
      <trkpt lat="42.69745" lon="0.6683">
        <ele>2079.3</ele>
        <time>2018-08-08T14:49:53.000Z</time>
      </trkpt>
      <trkpt lat="42.69745" lon="0.6683">
        <ele>2079.3</ele>
        <time>2018-08-08T14:49:54.000Z</time>
      </trkpt>
      <trkpt lat="42.69745" lon="0.6683">
        <ele>2079.3</ele>
        <time>2018-08-08T14:49:55.000Z</time>
      </trkpt>
      <trkpt lat="42.69745" lon="0.6683">
        <ele>2079.3</ele>
        <time>2018-08-08T14:49:56.000Z</time>
      </trkpt>
      <trkpt lat="42.69745" lon="0.6683">
        <ele>2079.3</ele>
        <time>2018-08-08T14:49:57.000Z</time>
      </trkpt>
      <trkpt lat="42.69745" lon="0.6683">
        <ele>2079.3</ele>
        <time>2018-08-08T14:49:58.000Z</time>
      </trkpt>
      <trkpt lat="42.69745" lon="0.6683">
        <ele>2079.3</ele>
        <time>2018-08-08T14:49:59.000Z</time>
      </trkpt>
      <trkpt lat="42.69745" lon="0.6683">
        <ele>2079.3</ele>
        <time>2018-08-08T14:50:00.000Z</time>
      </trkpt>
      <trkpt lat="42.69745" lon="0.6683">
        <ele>2079.3</ele>
        <time>2018-08-08T14:50:01.000Z</time>
      </trkpt>
      <trkpt lat="42.69745" lon="0.6683">
        <ele>2079.3</ele>
        <time>2018-08-08T14:50:02.000Z</time>
      </trkpt>
      <trkpt lat="42.69745" lon="0.6683">
        <ele>2079.3</ele>
        <time>2018-08-08T14:50:03.000Z</time>
      </trkpt>
      <trkpt lat="42.69745" lon="0.6683">
        <ele>2079.3</ele>
        <time>2018-08-08T14:50:04.000Z</time>
      </trkpt>
      <trkpt lat="42.69745" lon="0.6683">
        <ele>2079.3</ele>
        <time>2018-08-08T14:50:05.000Z</time>
      </trkpt>
      <trkpt lat="42.69745" lon="0.6683">
        <ele>2079.3</ele>
        <time>2018-08-08T14:50:06.000Z</time>
      </trkpt>
      <trkpt lat="42.69745" lon="0.6683">
        <ele>2079.3</ele>
        <time>2018-08-08T14:50:07.000Z</time>
      </trkpt>
      <trkpt lat="42.69745" lon="0.6683">
        <ele>2079.3</ele>
        <time>2018-08-08T14:50:08.000Z</time>
      </trkpt>
      <trkpt lat="42.69745" lon="0.6683">
        <ele>2079.3</ele>
        <time>2018-08-08T14:50:09.000Z</time>
      </trkpt>
      <trkpt lat="42.69745" lon="0.6683">
        <ele>2079.3</ele>
        <time>2018-08-08T14:50:10.000Z</time>
      </trkpt>
      <trkpt lat="42.69745" lon="0.6683">
        <ele>2079.3</ele>
        <time>2018-08-08T14:50:11.000Z</time>
      </trkpt>
      <trkpt lat="42.69745" lon="0.6683">
        <ele>2079.3</ele>
        <time>2018-08-08T14:50:12.000Z</time>
      </trkpt>
      <trkpt lat="42.69745" lon="0.6683">
        <ele>2079.3</ele>
        <time>2018-08-08T14:50:13.000Z</time>
      </trkpt>
      <trkpt lat="42.69745" lon="0.6683">
        <ele>2079.3</ele>
        <time>2018-08-08T14:50:14.000Z</time>
      </trkpt>
      <trkpt lat="42.69745" lon="0.6683">
        <ele>2079.3</ele>
        <time>2018-08-08T14:50:15.000Z</time>
      </trkpt>
      <trkpt lat="42.69745" lon="0.6683">
        <ele>2079.3</ele>
        <time>2018-08-08T14:50:16.000Z</time>
      </trkpt>
      <trkpt lat="42.69745" lon="0.6683">
        <ele>2079.3</ele>
        <time>2018-08-08T14:50:17.000Z</time>
      </trkpt>
      <trkpt lat="42.69745" lon="0.6683">
        <ele>2079.3</ele>
        <time>2018-08-08T14:50:18.000Z</time>
      </trkpt>
      <trkpt lat="42.69745" lon="0.6683">
        <ele>2079.3</ele>
        <time>2018-08-08T14:50:19.000Z</time>
      </trkpt>
      <trkpt lat="42.69745" lon="0.6683">
        <ele>2079.3</ele>
        <time>2018-08-08T14:50:20.000Z</time>
      </trkpt>
      <trkpt lat="42.69745" lon="0.6683">
        <ele>2079.3</ele>
        <time>2018-08-08T14:50:21.000Z</time>
      </trkpt>
      <trkpt lat="42.69745" lon="0.6683">
        <ele>2079.3</ele>
        <time>2018-08-08T14:50:22.000Z</time>
      </trkpt>
      <trkpt lat="42.69745" lon="0.6683">
        <ele>2079.3</ele>
        <time>2018-08-08T14:50:23.000Z</time>
      </trkpt>
      <trkpt lat="42.69745" lon="0.6683">
        <ele>2079.3</ele>
        <time>2018-08-08T14:50:24.000Z</time>
      </trkpt>
      <trkpt lat="42.69745" lon="0.6683">
        <ele>2079.3</ele>
        <time>2018-08-08T14:50:25.000Z</time>
      </trkpt>
      <trkpt lat="42.69745" lon="0.6683">
        <ele>2079.3</ele>
        <time>2018-08-08T14:50:26.000Z</time>
      </trkpt>
      <trkpt lat="42.69745" lon="0.6683">
        <ele>2079.3</ele>
        <time>2018-08-08T14:50:27.000Z</time>
      </trkpt>
      <trkpt lat="42.69745" lon="0.6683">
        <ele>2079.3</ele>
        <time>2018-08-08T14:50:28.000Z</time>
      </trkpt>
      <trkpt lat="42.69745" lon="0.6683">
        <ele>2079.3</ele>
        <time>2018-08-08T14:50:29.000Z</time>
      </trkpt>
      <trkpt lat="42.69745" lon="0.6683">
        <ele>2079.3</ele>
        <time>2018-08-08T14:50:30.000Z</time>
      </trkpt>
      <trkpt lat="42.69745" lon="0.6683">
        <ele>2079.3</ele>
        <time>2018-08-08T14:50:31.000Z</time>
      </trkpt>
      <trkpt lat="42.69745" lon="0.6683">
        <ele>2079.3</ele>
        <time>2018-08-08T14:50:32.000Z</time>
      </trkpt>
      <trkpt lat="42.69745" lon="0.6683">
        <ele>2079.3</ele>
        <time>2018-08-08T14:50:33.000Z</time>
      </trkpt>
      <trkpt lat="42.69745" lon="0.6683">
        <ele>2079.3</ele>
        <time>2018-08-08T14:50:34.000Z</time>
      </trkpt>
      <trkpt lat="42.69745" lon="0.6683">
        <ele>2079.3</ele>
        <time>2018-08-08T14:50:35.000Z</time>
      </trkpt>
      <trkpt lat="42.69745" lon="0.6683">
        <ele>2079.3</ele>
        <time>2018-08-08T14:50:36.000Z</time>
      </trkpt>
      <trkpt lat="42.69745" lon="0.6683">
        <ele>2079.3</ele>
        <time>2018-08-08T14:50:37.000Z</time>
      </trkpt>
      <trkpt lat="42.69745" lon="0.6683">
        <ele>2079.3</ele>
        <time>2018-08-08T14:50:38.000Z</time>
      </trkpt>
      <trkpt lat="42.69745" lon="0.6683">
        <ele>2079.3</ele>
        <time>2018-08-08T14:50:39.000Z</time>
      </trkpt>
      <trkpt lat="42.69745" lon="0.6683">
        <ele>2079.3</ele>
        <time>2018-08-08T14:50:40.000Z</time>
      </trkpt>
      <trkpt lat="42.69745" lon="0.6683">
        <ele>2079.3</ele>
        <time>2018-08-08T14:50:41.000Z</time>
      </trkpt>
      <trkpt lat="42.69745" lon="0.6683">
        <ele>2079.3</ele>
        <time>2018-08-08T14:50:42.000Z</time>
      </trkpt>
      <trkpt lat="42.69745" lon="0.6683">
        <ele>2079.3</ele>
        <time>2018-08-08T14:50:43.000Z</time>
      </trkpt>
      <trkpt lat="42.69745" lon="0.6683">
        <ele>2079.3</ele>
        <time>2018-08-08T14:50:44.000Z</time>
      </trkpt>
      <trkpt lat="42.69745" lon="0.6683">
        <ele>2079.3</ele>
        <time>2018-08-08T14:50:45.000Z</time>
      </trkpt>
      <trkpt lat="42.69745" lon="0.6683">
        <ele>2079.3</ele>
        <time>2018-08-08T14:50:46.000Z</time>
      </trkpt>
      <trkpt lat="42.69745" lon="0.6683">
        <ele>2079.3</ele>
        <time>2018-08-08T14:50:47.000Z</time>
      </trkpt>
      <trkpt lat="42.69745" lon="0.6683">
        <ele>2079.3</ele>
        <time>2018-08-08T14:50:48.000Z</time>
      </trkpt>
      <trkpt lat="42.69745" lon="0.6683">
        <ele>2079.3</ele>
        <time>2018-08-08T14:50:49.000Z</time>
      </trkpt>
      <trkpt lat="42.69745" lon="0.6683">
        <ele>2079.3</ele>
        <time>2018-08-08T14:50:50.000Z</time>
      </trkpt>
      <trkpt lat="42.69745" lon="0.6683">
        <ele>2079.3</ele>
        <time>2018-08-08T14:50:51.000Z</time>
      </trkpt>
      <trkpt lat="42.69745" lon="0.6683">
        <ele>2079.3</ele>
        <time>2018-08-08T14:50:52.000Z</time>
      </trkpt>
      <trkpt lat="42.69745" lon="0.6683">
        <ele>2079.3</ele>
        <time>2018-08-08T14:50:53.000Z</time>
      </trkpt>
      <trkpt lat="42.69745" lon="0.6683">
        <ele>2079.3</ele>
        <time>2018-08-08T14:50:54.000Z</time>
      </trkpt>
      <trkpt lat="42.69745" lon="0.6683">
        <ele>2079.3</ele>
        <time>2018-08-08T14:50:55.000Z</time>
      </trkpt>
      <trkpt lat="42.69745" lon="0.6683">
        <ele>2079.3</ele>
        <time>2018-08-08T14:50:56.000Z</time>
      </trkpt>
      <trkpt lat="42.69745" lon="0.6683">
        <ele>2079.3</ele>
        <time>2018-08-08T14:50:57.000Z</time>
      </trkpt>
      <trkpt lat="42.69745" lon="0.6683">
        <ele>2079.3</ele>
        <time>2018-08-08T14:50:58.000Z</time>
      </trkpt>
      <trkpt lat="42.69745" lon="0.6683">
        <ele>2079.3</ele>
        <time>2018-08-08T14:50:59.000Z</time>
      </trkpt>
      <trkpt lat="42.69745" lon="0.6683">
        <ele>2079.3</ele>
        <time>2018-08-08T14:51:00.000Z</time>
      </trkpt>
      <trkpt lat="42.69745" lon="0.6683">
        <ele>2079.3</ele>
        <time>2018-08-08T14:51:01.000Z</time>
      </trkpt>
      <trkpt lat="42.69745" lon="0.6683">
        <ele>2079.3</ele>
        <time>2018-08-08T14:51:02.000Z</time>
      </trkpt>
      <trkpt lat="42.69745" lon="0.6683">
        <ele>2079.3</ele>
        <time>2018-08-08T14:51:03.000Z</time>
      </trkpt>
      <trkpt lat="42.69745" lon="0.6683">
        <ele>2079.3</ele>
        <time>2018-08-08T14:51:04.000Z</time>
      </trkpt>
      <trkpt lat="42.69745" lon="0.6683">
        <ele>2079.3</ele>
        <time>2018-08-08T14:51:05.000Z</time>
      </trkpt>
      <trkpt lat="42.69745" lon="0.6683">
        <ele>2079.3</ele>
        <time>2018-08-08T14:51:06.000Z</time>
      </trkpt>
      <trkpt lat="42.69745" lon="0.6683">
        <ele>2079.3</ele>
        <time>2018-08-08T14:51:07.000Z</time>
      </trkpt>
      <trkpt lat="42.69745" lon="0.6683">
        <ele>2079.3</ele>
        <time>2018-08-08T14:51:08.000Z</time>
      </trkpt>
      <trkpt lat="42.69745" lon="0.6683">
        <ele>2079.3</ele>
        <time>2018-08-08T14:51:09.000Z</time>
      </trkpt>
      <trkpt lat="42.69745" lon="0.6683">
        <ele>2079.3</ele>
        <time>2018-08-08T14:51:10.000Z</time>
      </trkpt>
      <trkpt lat="42.69745" lon="0.6683">
        <ele>2079.3</ele>
        <time>2018-08-08T14:51:11.000Z</time>
      </trkpt>
      <trkpt lat="42.69745" lon="0.6683">
        <ele>2079.3</ele>
        <time>2018-08-08T14:51:12.000Z</time>
      </trkpt>
      <trkpt lat="42.69745" lon="0.6683">
        <ele>2079.3</ele>
        <time>2018-08-08T14:51:13.000Z</time>
      </trkpt>
      <trkpt lat="42.69745" lon="0.6683">
        <ele>2079.3</ele>
        <time>2018-08-08T14:51:14.000Z</time>
      </trkpt>
      <trkpt lat="42.69745" lon="0.6683">
        <ele>2079.3</ele>
        <time>2018-08-08T14:51:15.000Z</time>
      </trkpt>
      <trkpt lat="42.69745" lon="0.6683">
        <ele>2079.3</ele>
        <time>2018-08-08T14:51:16.000Z</time>
      </trkpt>
      <trkpt lat="42.69745" lon="0.6683">
        <ele>2079.3</ele>
        <time>2018-08-08T14:51:17.000Z</time>
      </trkpt>
      <trkpt lat="42.69745" lon="0.6683">
        <ele>2079.3</ele>
        <time>2018-08-08T14:51:18.000Z</time>
      </trkpt>
      <trkpt lat="42.69745" lon="0.6683">
        <ele>2079.3</ele>
        <time>2018-08-08T14:51:19.000Z</time>
      </trkpt>
      <trkpt lat="42.69745" lon="0.6683">
        <ele>2079.3</ele>
        <time>2018-08-08T14:51:20.000Z</time>
      </trkpt>
      <trkpt lat="42.69745" lon="0.6683">
        <ele>2079.3</ele>
        <time>2018-08-08T14:51:21.000Z</time>
      </trkpt>
      <trkpt lat="42.69745" lon="0.6683">
        <ele>2079.3</ele>
        <time>2018-08-08T14:51:22.000Z</time>
      </trkpt>
      <trkpt lat="42.69745" lon="0.6683">
        <ele>2079.3</ele>
        <time>2018-08-08T14:51:23.000Z</time>
      </trkpt>
      <trkpt lat="42.69745" lon="0.6683">
        <ele>2079.3</ele>
        <time>2018-08-08T14:51:24.000Z</time>
      </trkpt>
      <trkpt lat="42.69745" lon="0.6683">
        <ele>2079.3</ele>
        <time>2018-08-08T14:51:25.000Z</time>
      </trkpt>
      <trkpt lat="42.69745" lon="0.6683">
        <ele>2079.3</ele>
        <time>2018-08-08T14:51:26.000Z</time>
      </trkpt>
      <trkpt lat="42.69745" lon="0.6683">
        <ele>2079.3</ele>
        <time>2018-08-08T14:51:27.000Z</time>
      </trkpt>
      <trkpt lat="42.69745" lon="0.6683">
        <ele>2079.3</ele>
        <time>2018-08-08T14:51:28.000Z</time>
      </trkpt>
      <trkpt lat="42.69745" lon="0.6683">
        <ele>2079.3</ele>
        <time>2018-08-08T14:51:29.000Z</time>
      </trkpt>
      <trkpt lat="42.69745" lon="0.6683">
        <ele>2079.3</ele>
        <time>2018-08-08T14:51:30.000Z</time>
      </trkpt>
      <trkpt lat="42.69745" lon="0.6683">
        <ele>2079.3</ele>
        <time>2018-08-08T14:51:31.000Z</time>
      </trkpt>
      <trkpt lat="42.69745" lon="0.6683">
        <ele>2079.3</ele>
        <time>2018-08-08T14:51:32.000Z</time>
      </trkpt>
      <trkpt lat="42.69745" lon="0.6683">
        <ele>2079.3</ele>
        <time>2018-08-08T14:51:33.000Z</time>
      </trkpt>
      <trkpt lat="42.69745" lon="0.6683">
        <ele>2079.3</ele>
        <time>2018-08-08T14:51:34.000Z</time>
      </trkpt>
      <trkpt lat="42.69745" lon="0.6683">
        <ele>2079.3</ele>
        <time>2018-08-08T14:51:35.000Z</time>
      </trkpt>
      <trkpt lat="42.69745" lon="0.6683">
        <ele>2079.3</ele>
        <time>2018-08-08T14:51:36.000Z</time>
      </trkpt>
      <trkpt lat="42.69745" lon="0.6683">
        <ele>2079.3</ele>
        <time>2018-08-08T14:51:37.000Z</time>
      </trkpt>
      <trkpt lat="42.69745" lon="0.6683">
        <ele>2079.3</ele>
        <time>2018-08-08T14:51:38.000Z</time>
      </trkpt>
      <trkpt lat="42.69745" lon="0.6683">
        <ele>2079.3</ele>
        <time>2018-08-08T14:51:39.000Z</time>
      </trkpt>
      <trkpt lat="42.69745" lon="0.6683">
        <ele>2079.3</ele>
        <time>2018-08-08T14:51:40.000Z</time>
      </trkpt>
      <trkpt lat="42.69745" lon="0.6683">
        <ele>2079.3</ele>
        <time>2018-08-08T14:51:41.000Z</time>
      </trkpt>
      <trkpt lat="42.69745" lon="0.6683">
        <ele>2079.3</ele>
        <time>2018-08-08T14:51:42.000Z</time>
      </trkpt>
      <trkpt lat="42.69745" lon="0.6683">
        <ele>2079.3</ele>
        <time>2018-08-08T14:51:43.000Z</time>
      </trkpt>
      <trkpt lat="42.69745" lon="0.6683">
        <ele>2079.3</ele>
        <time>2018-08-08T14:51:44.000Z</time>
      </trkpt>
      <trkpt lat="42.69745" lon="0.6683">
        <ele>2079.3</ele>
        <time>2018-08-08T14:51:45.000Z</time>
      </trkpt>
      <trkpt lat="42.69745" lon="0.6683">
        <ele>2079.3</ele>
        <time>2018-08-08T14:51:46.000Z</time>
      </trkpt>
      <trkpt lat="42.69745" lon="0.6683">
        <ele>2079.3</ele>
        <time>2018-08-08T14:51:47.000Z</time>
      </trkpt>
      <trkpt lat="42.69745" lon="0.6683">
        <ele>2079.3</ele>
        <time>2018-08-08T14:51:48.000Z</time>
      </trkpt>
      <trkpt lat="42.69745" lon="0.6683">
        <ele>2079.3</ele>
        <time>2018-08-08T14:51:49.000Z</time>
      </trkpt>
      <trkpt lat="42.69745" lon="0.6683">
        <ele>2079.3</ele>
        <time>2018-08-08T14:51:50.000Z</time>
      </trkpt>
      <trkpt lat="42.69745" lon="0.6683">
        <ele>2079.3</ele>
        <time>2018-08-08T14:51:51.000Z</time>
      </trkpt>
      <trkpt lat="42.69745" lon="0.6683">
        <ele>2079.3</ele>
        <time>2018-08-08T14:51:52.000Z</time>
      </trkpt>
      <trkpt lat="42.69745" lon="0.6683">
        <ele>2079.3</ele>
        <time>2018-08-08T14:51:53.000Z</time>
      </trkpt>
      <trkpt lat="42.69745" lon="0.6683">
        <ele>2079.3</ele>
        <time>2018-08-08T14:51:54.000Z</time>
      </trkpt>
      <trkpt lat="42.69745" lon="0.6683">
        <ele>2079.3</ele>
        <time>2018-08-08T14:51:55.000Z</time>
      </trkpt>
      <trkpt lat="42.69745" lon="0.6683">
        <ele>2079.3</ele>
        <time>2018-08-08T14:51:56.000Z</time>
      </trkpt>
      <trkpt lat="42.69745" lon="0.6683">
        <ele>2079.3</ele>
        <time>2018-08-08T14:51:57.000Z</time>
      </trkpt>
      <trkpt lat="42.69745" lon="0.6683">
        <ele>2079.3</ele>
        <time>2018-08-08T14:51:58.000Z</time>
      </trkpt>
      <trkpt lat="42.69745" lon="0.6683">
        <ele>2079.3</ele>
        <time>2018-08-08T14:51:59.000Z</time>
      </trkpt>
      <trkpt lat="42.69745" lon="0.6683">
        <ele>2079.3</ele>
        <time>2018-08-08T14:52:00.000Z</time>
      </trkpt>
      <trkpt lat="42.69745" lon="0.6683">
        <ele>2079.3</ele>
        <time>2018-08-08T14:52:01.000Z</time>
      </trkpt>
      <trkpt lat="42.69745" lon="0.6683">
        <ele>2079.3</ele>
        <time>2018-08-08T14:52:02.000Z</time>
      </trkpt>
      <trkpt lat="42.69745" lon="0.6683">
        <ele>2079.3</ele>
        <time>2018-08-08T14:52:03.000Z</time>
      </trkpt>
      <trkpt lat="42.69745" lon="0.6683">
        <ele>2079.3</ele>
        <time>2018-08-08T14:52:04.000Z</time>
      </trkpt>
      <trkpt lat="42.69745" lon="0.6683">
        <ele>2079.3</ele>
        <time>2018-08-08T14:52:05.000Z</time>
      </trkpt>
      <trkpt lat="42.69745" lon="0.6683">
        <ele>2079.3</ele>
        <time>2018-08-08T14:52:06.000Z</time>
      </trkpt>
      <trkpt lat="42.69745" lon="0.6683">
        <ele>2079.3</ele>
        <time>2018-08-08T14:52:07.000Z</time>
      </trkpt>
      <trkpt lat="42.69745" lon="0.6683">
        <ele>2079.3</ele>
        <time>2018-08-08T14:52:08.000Z</time>
      </trkpt>
      <trkpt lat="42.69745" lon="0.6683">
        <ele>2079.3</ele>
        <time>2018-08-08T14:52:09.000Z</time>
      </trkpt>
      <trkpt lat="42.69745" lon="0.6683">
        <ele>2079.3</ele>
        <time>2018-08-08T14:52:10.000Z</time>
      </trkpt>
      <trkpt lat="42.69745" lon="0.6683">
        <ele>2079.3</ele>
        <time>2018-08-08T14:52:11.000Z</time>
      </trkpt>
      <trkpt lat="42.69745" lon="0.6683">
        <ele>2079.3</ele>
        <time>2018-08-08T14:52:12.000Z</time>
      </trkpt>
      <trkpt lat="42.69745" lon="0.6683">
        <ele>2079.3</ele>
        <time>2018-08-08T14:52:13.000Z</time>
      </trkpt>
      <trkpt lat="42.69745" lon="0.6683">
        <ele>2079.3</ele>
        <time>2018-08-08T14:52:14.000Z</time>
      </trkpt>
      <trkpt lat="42.69745" lon="0.6683">
        <ele>2079.3</ele>
        <time>2018-08-08T14:52:15.000Z</time>
      </trkpt>
      <trkpt lat="42.69745" lon="0.6683">
        <ele>2079.3</ele>
        <time>2018-08-08T14:52:16.000Z</time>
      </trkpt>
      <trkpt lat="42.69745" lon="0.6683">
        <ele>2079.3</ele>
        <time>2018-08-08T14:52:17.000Z</time>
      </trkpt>
      <trkpt lat="42.69745" lon="0.6683">
        <ele>2079.3</ele>
        <time>2018-08-08T14:52:18.000Z</time>
      </trkpt>
      <trkpt lat="42.69745" lon="0.6683">
        <ele>2079.3</ele>
        <time>2018-08-08T14:52:19.000Z</time>
      </trkpt>
      <trkpt lat="42.69745" lon="0.6683">
        <ele>2079.3</ele>
        <time>2018-08-08T14:52:20.000Z</time>
      </trkpt>
      <trkpt lat="42.69745" lon="0.6683">
        <ele>2079.3</ele>
        <time>2018-08-08T14:52:21.000Z</time>
      </trkpt>
      <trkpt lat="42.69745" lon="0.6683">
        <ele>2079.3</ele>
        <time>2018-08-08T14:52:22.000Z</time>
      </trkpt>
      <trkpt lat="42.69745" lon="0.6683">
        <ele>2079.3</ele>
        <time>2018-08-08T14:52:23.000Z</time>
      </trkpt>
      <trkpt lat="42.69745" lon="0.6683">
        <ele>2079.3</ele>
        <time>2018-08-08T14:52:24.000Z</time>
      </trkpt>
      <trkpt lat="42.69745" lon="0.6683">
        <ele>2079.3</ele>
        <time>2018-08-08T14:52:25.000Z</time>
      </trkpt>
      <trkpt lat="42.69745" lon="0.6683">
        <ele>2079.3</ele>
        <time>2018-08-08T14:52:26.000Z</time>
      </trkpt>
      <trkpt lat="42.69745" lon="0.6683">
        <ele>2079.3</ele>
        <time>2018-08-08T14:52:27.000Z</time>
      </trkpt>
      <trkpt lat="42.69745" lon="0.6683">
        <ele>2079.3</ele>
        <time>2018-08-08T14:52:28.000Z</time>
      </trkpt>
      <trkpt lat="42.69745" lon="0.6683">
        <ele>2079.3</ele>
        <time>2018-08-08T14:52:29.000Z</time>
      </trkpt>
      <trkpt lat="42.69745" lon="0.6683">
        <ele>2079.3</ele>
        <time>2018-08-08T14:52:30.000Z</time>
      </trkpt>
      <trkpt lat="42.69745" lon="0.6683">
        <ele>2079.3</ele>
        <time>2018-08-08T14:52:31.000Z</time>
      </trkpt>
      <trkpt lat="42.69745" lon="0.6683">
        <ele>2079.3</ele>
        <time>2018-08-08T14:52:32.000Z</time>
      </trkpt>
      <trkpt lat="42.69745" lon="0.6683">
        <ele>2079.3</ele>
        <time>2018-08-08T14:52:33.000Z</time>
      </trkpt>
      <trkpt lat="42.69745" lon="0.6683">
        <ele>2079.3</ele>
        <time>2018-08-08T14:52:34.000Z</time>
      </trkpt>
      <trkpt lat="42.69745" lon="0.6683">
        <ele>2079.3</ele>
        <time>2018-08-08T14:52:35.000Z</time>
      </trkpt>
      <trkpt lat="42.69745" lon="0.6683">
        <ele>2079.3</ele>
        <time>2018-08-08T14:52:36.000Z</time>
      </trkpt>
      <trkpt lat="42.69745" lon="0.6683">
        <ele>2079.3</ele>
        <time>2018-08-08T14:52:37.000Z</time>
      </trkpt>
      <trkpt lat="42.69745" lon="0.6683">
        <ele>2079.3</ele>
        <time>2018-08-08T14:52:38.000Z</time>
      </trkpt>
      <trkpt lat="42.69745" lon="0.6683">
        <ele>2079.3</ele>
        <time>2018-08-08T14:52:39.000Z</time>
      </trkpt>
      <trkpt lat="42.69745" lon="0.6683">
        <ele>2079.3</ele>
        <time>2018-08-08T14:52:40.000Z</time>
      </trkpt>
      <trkpt lat="42.69745" lon="0.6683">
        <ele>2079.3</ele>
        <time>2018-08-08T14:52:41.000Z</time>
      </trkpt>
      <trkpt lat="42.69745" lon="0.6683">
        <ele>2079.3</ele>
        <time>2018-08-08T14:52:42.000Z</time>
      </trkpt>
      <trkpt lat="42.69745" lon="0.6683">
        <ele>2079.3</ele>
        <time>2018-08-08T14:52:43.000Z</time>
      </trkpt>
      <trkpt lat="42.69745" lon="0.6683">
        <ele>2079.3</ele>
        <time>2018-08-08T14:52:44.000Z</time>
      </trkpt>
      <trkpt lat="42.69745" lon="0.6683">
        <ele>2079.3</ele>
        <time>2018-08-08T14:52:45.000Z</time>
      </trkpt>
      <trkpt lat="42.69745" lon="0.6683">
        <ele>2079.3</ele>
        <time>2018-08-08T14:52:46.000Z</time>
      </trkpt>
      <trkpt lat="42.69745" lon="0.6683">
        <ele>2079.3</ele>
        <time>2018-08-08T14:52:47.000Z</time>
      </trkpt>
      <trkpt lat="42.69745" lon="0.6683">
        <ele>2079.3</ele>
        <time>2018-08-08T14:52:48.000Z</time>
      </trkpt>
      <trkpt lat="42.69745" lon="0.6683">
        <ele>2079.3</ele>
        <time>2018-08-08T14:52:49.000Z</time>
      </trkpt>
      <trkpt lat="42.69745" lon="0.6683">
        <ele>2079.3</ele>
        <time>2018-08-08T14:52:50.000Z</time>
      </trkpt>
      <trkpt lat="42.69745" lon="0.6683">
        <ele>2079.3</ele>
        <time>2018-08-08T14:52:51.000Z</time>
      </trkpt>
      <trkpt lat="42.69745" lon="0.6683">
        <ele>2079.3</ele>
        <time>2018-08-08T14:52:52.000Z</time>
      </trkpt>
      <trkpt lat="42.69745" lon="0.6683">
        <ele>2079.3</ele>
        <time>2018-08-08T14:52:53.000Z</time>
      </trkpt>
      <trkpt lat="42.69745" lon="0.6683">
        <ele>2079.3</ele>
        <time>2018-08-08T14:52:54.000Z</time>
      </trkpt>
      <trkpt lat="42.69745" lon="0.6683">
        <ele>2079.3</ele>
        <time>2018-08-08T14:52:55.000Z</time>
      </trkpt>
      <trkpt lat="42.69745" lon="0.6683">
        <ele>2079.3</ele>
        <time>2018-08-08T14:52:56.000Z</time>
      </trkpt>
      <trkpt lat="42.69745" lon="0.6683">
        <ele>2079.3</ele>
        <time>2018-08-08T14:52:57.000Z</time>
      </trkpt>
      <trkpt lat="42.69745" lon="0.6683">
        <ele>2079.3</ele>
        <time>2018-08-08T14:52:58.000Z</time>
      </trkpt>
      <trkpt lat="42.69745" lon="0.6683">
        <ele>2079.3</ele>
        <time>2018-08-08T14:52:59.000Z</time>
      </trkpt>
      <trkpt lat="42.69745" lon="0.6683">
        <ele>2079.3</ele>
        <time>2018-08-08T14:53:00.000Z</time>
      </trkpt>
      <trkpt lat="42.69745" lon="0.6683">
        <ele>2079.3</ele>
        <time>2018-08-08T14:53:01.000Z</time>
      </trkpt>
      <trkpt lat="42.69745" lon="0.6683">
        <ele>2079.3</ele>
        <time>2018-08-08T14:53:02.000Z</time>
      </trkpt>
      <trkpt lat="42.69745" lon="0.6683">
        <ele>2079.3</ele>
        <time>2018-08-08T14:53:03.000Z</time>
      </trkpt>
      <trkpt lat="42.69745" lon="0.6683">
        <ele>2079.3</ele>
        <time>2018-08-08T14:53:04.000Z</time>
      </trkpt>
      <trkpt lat="42.69745" lon="0.6683">
        <ele>2079.3</ele>
        <time>2018-08-08T14:53:05.000Z</time>
      </trkpt>
      <trkpt lat="42.69745" lon="0.6683">
        <ele>2079.3</ele>
        <time>2018-08-08T14:53:06.000Z</time>
      </trkpt>
      <trkpt lat="42.69745" lon="0.6683">
        <ele>2079.3</ele>
        <time>2018-08-08T14:53:07.000Z</time>
      </trkpt>
      <trkpt lat="42.69745" lon="0.6683">
        <ele>2079.3</ele>
        <time>2018-08-08T14:53:08.000Z</time>
      </trkpt>
      <trkpt lat="42.69745" lon="0.6683">
        <ele>2079.3</ele>
        <time>2018-08-08T14:53:09.000Z</time>
      </trkpt>
      <trkpt lat="42.69745" lon="0.6683">
        <ele>2079.3</ele>
        <time>2018-08-08T14:53:10.000Z</time>
      </trkpt>
      <trkpt lat="42.69745" lon="0.6683">
        <ele>2079.3</ele>
        <time>2018-08-08T14:53:11.000Z</time>
      </trkpt>
      <trkpt lat="42.69745" lon="0.6683">
        <ele>2079.3</ele>
        <time>2018-08-08T14:53:12.000Z</time>
      </trkpt>
      <trkpt lat="42.69745" lon="0.6683">
        <ele>2079.3</ele>
        <time>2018-08-08T14:53:13.000Z</time>
      </trkpt>
      <trkpt lat="42.69745" lon="0.6683">
        <ele>2079.3</ele>
        <time>2018-08-08T14:53:14.000Z</time>
      </trkpt>
      <trkpt lat="42.69745" lon="0.6683">
        <ele>2079.3</ele>
        <time>2018-08-08T14:53:15.000Z</time>
      </trkpt>
      <trkpt lat="42.69745" lon="0.6683">
        <ele>2079.3</ele>
        <time>2018-08-08T14:53:16.000Z</time>
      </trkpt>
      <trkpt lat="42.69745" lon="0.6683">
        <ele>2079.3</ele>
        <time>2018-08-08T14:53:17.000Z</time>
      </trkpt>
      <trkpt lat="42.69745" lon="0.6683">
        <ele>2079.3</ele>
        <time>2018-08-08T14:53:18.000Z</time>
      </trkpt>
      <trkpt lat="42.69745" lon="0.6683">
        <ele>2079.3</ele>
        <time>2018-08-08T14:53:19.000Z</time>
      </trkpt>
      <trkpt lat="42.69745" lon="0.6683">
        <ele>2079.3</ele>
        <time>2018-08-08T14:53:20.000Z</time>
      </trkpt>
      <trkpt lat="42.69745" lon="0.6683">
        <ele>2079.3</ele>
        <time>2018-08-08T14:53:21.000Z</time>
      </trkpt>
      <trkpt lat="42.69745" lon="0.6683">
        <ele>2079.3</ele>
        <time>2018-08-08T14:53:22.000Z</time>
      </trkpt>
      <trkpt lat="42.69745" lon="0.6683">
        <ele>2079.3</ele>
        <time>2018-08-08T14:53:23.000Z</time>
      </trkpt>
      <trkpt lat="42.69745" lon="0.6683">
        <ele>2079.3</ele>
        <time>2018-08-08T14:53:24.000Z</time>
      </trkpt>
      <trkpt lat="42.69745" lon="0.6683">
        <ele>2079.3</ele>
        <time>2018-08-08T14:53:25.000Z</time>
      </trkpt>
      <trkpt lat="42.69745" lon="0.6683">
        <ele>2079.3</ele>
        <time>2018-08-08T14:53:26.000Z</time>
      </trkpt>
      <trkpt lat="42.69745" lon="0.6683">
        <ele>2079.3</ele>
        <time>2018-08-08T14:53:27.000Z</time>
      </trkpt>
      <trkpt lat="42.69745" lon="0.6683">
        <ele>2079.3</ele>
        <time>2018-08-08T14:53:28.000Z</time>
      </trkpt>
      <trkpt lat="42.69745" lon="0.6683">
        <ele>2079.3</ele>
        <time>2018-08-08T14:53:29.000Z</time>
      </trkpt>
      <trkpt lat="42.69745" lon="0.6683">
        <ele>2079.3</ele>
        <time>2018-08-08T14:53:30.000Z</time>
      </trkpt>
      <trkpt lat="42.69745" lon="0.6683">
        <ele>2079.3</ele>
        <time>2018-08-08T14:53:31.000Z</time>
      </trkpt>
      <trkpt lat="42.69745" lon="0.6683">
        <ele>2079.3</ele>
        <time>2018-08-08T14:53:32.000Z</time>
      </trkpt>
      <trkpt lat="42.69745" lon="0.6683">
        <ele>2079.3</ele>
        <time>2018-08-08T14:53:33.000Z</time>
      </trkpt>
      <trkpt lat="42.69745" lon="0.6683">
        <ele>2079.3</ele>
        <time>2018-08-08T14:53:34.000Z</time>
      </trkpt>
      <trkpt lat="42.69745" lon="0.6683">
        <ele>2079.3</ele>
        <time>2018-08-08T14:53:35.000Z</time>
      </trkpt>
      <trkpt lat="42.69745" lon="0.6683">
        <ele>2079.3</ele>
        <time>2018-08-08T14:53:36.000Z</time>
      </trkpt>
      <trkpt lat="42.69745" lon="0.6683">
        <ele>2079.3</ele>
        <time>2018-08-08T14:53:37.000Z</time>
      </trkpt>
      <trkpt lat="42.69745" lon="0.6683">
        <ele>2079.3</ele>
        <time>2018-08-08T14:53:38.000Z</time>
      </trkpt>
      <trkpt lat="42.69745" lon="0.6683">
        <ele>2079.3</ele>
        <time>2018-08-08T14:53:39.000Z</time>
      </trkpt>
      <trkpt lat="42.69745" lon="0.6683">
        <ele>2079.3</ele>
        <time>2018-08-08T14:53:40.000Z</time>
      </trkpt>
      <trkpt lat="42.69745" lon="0.6683">
        <ele>2079.3</ele>
        <time>2018-08-08T14:53:41.000Z</time>
      </trkpt>
      <trkpt lat="42.69745" lon="0.6683">
        <ele>2079.3</ele>
        <time>2018-08-08T14:53:42.000Z</time>
      </trkpt>
      <trkpt lat="42.69745" lon="0.6683">
        <ele>2079.3</ele>
        <time>2018-08-08T14:53:43.000Z</time>
      </trkpt>
      <trkpt lat="42.69745" lon="0.6683">
        <ele>2079.3</ele>
        <time>2018-08-08T14:53:44.000Z</time>
      </trkpt>
      <trkpt lat="42.69745" lon="0.6683">
        <ele>2079.3</ele>
        <time>2018-08-08T14:53:45.000Z</time>
      </trkpt>
      <trkpt lat="42.69745" lon="0.6683">
        <ele>2079.3</ele>
        <time>2018-08-08T14:53:46.000Z</time>
      </trkpt>
      <trkpt lat="42.69745" lon="0.6683">
        <ele>2079.3</ele>
        <time>2018-08-08T14:53:47.000Z</time>
      </trkpt>
      <trkpt lat="42.69745" lon="0.6683">
        <ele>2079.3</ele>
        <time>2018-08-08T14:53:48.000Z</time>
      </trkpt>
      <trkpt lat="42.69745" lon="0.6683">
        <ele>2079.3</ele>
        <time>2018-08-08T14:53:49.000Z</time>
      </trkpt>
      <trkpt lat="42.69745" lon="0.6683">
        <ele>2079.3</ele>
        <time>2018-08-08T14:53:50.000Z</time>
      </trkpt>
      <trkpt lat="42.69745" lon="0.6683">
        <ele>2079.3</ele>
        <time>2018-08-08T14:53:51.000Z</time>
      </trkpt>
      <trkpt lat="42.69745" lon="0.6683">
        <ele>2079.3</ele>
        <time>2018-08-08T14:53:52.000Z</time>
      </trkpt>
      <trkpt lat="42.69745" lon="0.6683">
        <ele>2079.3</ele>
        <time>2018-08-08T14:53:53.000Z</time>
      </trkpt>
      <trkpt lat="42.69745" lon="0.6683">
        <ele>2079.3</ele>
        <time>2018-08-08T14:53:54.000Z</time>
      </trkpt>
      <trkpt lat="42.69745" lon="0.6683">
        <ele>2079.3</ele>
        <time>2018-08-08T14:53:55.000Z</time>
      </trkpt>
      <trkpt lat="42.69745" lon="0.6683">
        <ele>2079.3</ele>
        <time>2018-08-08T14:53:56.000Z</time>
      </trkpt>
      <trkpt lat="42.69745" lon="0.6683">
        <ele>2079.3</ele>
        <time>2018-08-08T14:53:57.000Z</time>
      </trkpt>
      <trkpt lat="42.69745" lon="0.6683">
        <ele>2079.3</ele>
        <time>2018-08-08T14:53:58.000Z</time>
      </trkpt>
      <trkpt lat="42.69745" lon="0.6683">
        <ele>2079.3</ele>
        <time>2018-08-08T14:53:59.000Z</time>
      </trkpt>
      <trkpt lat="42.69745" lon="0.6683">
        <ele>2079.3</ele>
        <time>2018-08-08T14:54:00.000Z</time>
      </trkpt>
      <trkpt lat="42.69745" lon="0.6683">
        <ele>2079.3</ele>
        <time>2018-08-08T14:54:01.000Z</time>
      </trkpt>
      <trkpt lat="42.69745" lon="0.6683">
        <ele>2079.3</ele>
        <time>2018-08-08T14:54:02.000Z</time>
      </trkpt>
      <trkpt lat="42.69745" lon="0.6683">
        <ele>2079.3</ele>
        <time>2018-08-08T14:54:03.000Z</time>
      </trkpt>
      <trkpt lat="42.69745" lon="0.6683">
        <ele>2079.3</ele>
        <time>2018-08-08T14:54:04.000Z</time>
      </trkpt>
      <trkpt lat="42.69745" lon="0.6683">
        <ele>2079.3</ele>
        <time>2018-08-08T14:54:05.000Z</time>
      </trkpt>
      <trkpt lat="42.69745" lon="0.6683">
        <ele>2079.3</ele>
        <time>2018-08-08T14:54:06.000Z</time>
      </trkpt>
      <trkpt lat="42.69745" lon="0.6683">
        <ele>2079.3</ele>
        <time>2018-08-08T14:54:07.000Z</time>
      </trkpt>
      <trkpt lat="42.69745" lon="0.6683">
        <ele>2079.3</ele>
        <time>2018-08-08T14:54:08.000Z</time>
      </trkpt>
      <trkpt lat="42.69745" lon="0.6683">
        <ele>2079.3</ele>
        <time>2018-08-08T14:54:09.000Z</time>
      </trkpt>
      <trkpt lat="42.69745" lon="0.6683">
        <ele>2079.3</ele>
        <time>2018-08-08T14:54:10.000Z</time>
      </trkpt>
      <trkpt lat="42.69745" lon="0.6683">
        <ele>2079.3</ele>
        <time>2018-08-08T14:54:11.000Z</time>
      </trkpt>
      <trkpt lat="42.69745" lon="0.6683">
        <ele>2079.3</ele>
        <time>2018-08-08T14:54:12.000Z</time>
      </trkpt>
      <trkpt lat="42.69745" lon="0.6683">
        <ele>2079.3</ele>
        <time>2018-08-08T14:54:13.000Z</time>
      </trkpt>
      <trkpt lat="42.69745" lon="0.6683">
        <ele>2079.3</ele>
        <time>2018-08-08T14:54:14.000Z</time>
      </trkpt>
      <trkpt lat="42.69745" lon="0.6683">
        <ele>2079.3</ele>
        <time>2018-08-08T14:54:15.000Z</time>
      </trkpt>
      <trkpt lat="42.69745" lon="0.6683">
        <ele>2079.3</ele>
        <time>2018-08-08T14:54:16.000Z</time>
      </trkpt>
      <trkpt lat="42.69745" lon="0.6683">
        <ele>2079.3</ele>
        <time>2018-08-08T14:54:17.000Z</time>
      </trkpt>
      <trkpt lat="42.69745" lon="0.6683">
        <ele>2079.3</ele>
        <time>2018-08-08T14:54:18.000Z</time>
      </trkpt>
      <trkpt lat="42.69745" lon="0.6683">
        <ele>2079.3</ele>
        <time>2018-08-08T14:54:19.000Z</time>
      </trkpt>
      <trkpt lat="42.69745" lon="0.6683">
        <ele>2079.3</ele>
        <time>2018-08-08T14:54:20.000Z</time>
      </trkpt>
      <trkpt lat="42.69745" lon="0.6683">
        <ele>2079.3</ele>
        <time>2018-08-08T14:54:21.000Z</time>
      </trkpt>
      <trkpt lat="42.69745" lon="0.6683">
        <ele>2079.3</ele>
        <time>2018-08-08T14:54:22.000Z</time>
      </trkpt>
      <trkpt lat="42.69745" lon="0.6683">
        <ele>2079.3</ele>
        <time>2018-08-08T14:54:23.000Z</time>
      </trkpt>
      <trkpt lat="42.69745" lon="0.6683">
        <ele>2079.3</ele>
        <time>2018-08-08T14:54:24.000Z</time>
      </trkpt>
      <trkpt lat="42.69745" lon="0.6683">
        <ele>2079.3</ele>
        <time>2018-08-08T14:54:25.000Z</time>
      </trkpt>
      <trkpt lat="42.69745" lon="0.6683">
        <ele>2079.3</ele>
        <time>2018-08-08T14:54:26.000Z</time>
      </trkpt>
      <trkpt lat="42.69745" lon="0.6683">
        <ele>2079.3</ele>
        <time>2018-08-08T14:54:27.000Z</time>
      </trkpt>
      <trkpt lat="42.69745" lon="0.6683">
        <ele>2079.3</ele>
        <time>2018-08-08T14:54:28.000Z</time>
      </trkpt>
      <trkpt lat="42.69745" lon="0.6683">
        <ele>2079.3</ele>
        <time>2018-08-08T14:54:29.000Z</time>
      </trkpt>
      <trkpt lat="42.69745" lon="0.6683">
        <ele>2079.3</ele>
        <time>2018-08-08T14:54:30.000Z</time>
      </trkpt>
      <trkpt lat="42.69745" lon="0.6683">
        <ele>2079.3</ele>
        <time>2018-08-08T14:54:31.000Z</time>
      </trkpt>
      <trkpt lat="42.69745" lon="0.6683">
        <ele>2079.3</ele>
        <time>2018-08-08T14:54:32.000Z</time>
      </trkpt>
      <trkpt lat="42.69745" lon="0.6683">
        <ele>2079.3</ele>
        <time>2018-08-08T14:54:33.000Z</time>
      </trkpt>
      <trkpt lat="42.69745" lon="0.6683">
        <ele>2079.3</ele>
        <time>2018-08-08T14:54:34.000Z</time>
      </trkpt>
      <trkpt lat="42.69745" lon="0.6683">
        <ele>2079.3</ele>
        <time>2018-08-08T14:54:35.000Z</time>
      </trkpt>
      <trkpt lat="42.69745" lon="0.6683">
        <ele>2079.3</ele>
        <time>2018-08-08T14:54:36.000Z</time>
      </trkpt>
      <trkpt lat="42.69745" lon="0.6683">
        <ele>2079.3</ele>
        <time>2018-08-08T14:54:37.000Z</time>
      </trkpt>
      <trkpt lat="42.69745" lon="0.6683">
        <ele>2079.3</ele>
        <time>2018-08-08T14:54:38.000Z</time>
      </trkpt>
      <trkpt lat="42.69745" lon="0.6683">
        <ele>2079.3</ele>
        <time>2018-08-08T14:54:39.000Z</time>
      </trkpt>
      <trkpt lat="42.69745" lon="0.6683">
        <ele>2079.3</ele>
        <time>2018-08-08T14:54:40.000Z</time>
      </trkpt>
      <trkpt lat="42.69745" lon="0.6683">
        <ele>2079.3</ele>
        <time>2018-08-08T14:54:41.000Z</time>
      </trkpt>
      <trkpt lat="42.69745" lon="0.6683">
        <ele>2079.3</ele>
        <time>2018-08-08T14:54:42.000Z</time>
      </trkpt>
      <trkpt lat="42.69745" lon="0.6683">
        <ele>2079.3</ele>
        <time>2018-08-08T14:54:43.000Z</time>
      </trkpt>
      <trkpt lat="42.69745" lon="0.6683">
        <ele>2079.3</ele>
        <time>2018-08-08T14:54:44.000Z</time>
      </trkpt>
      <trkpt lat="42.69745" lon="0.6683">
        <ele>2079.3</ele>
        <time>2018-08-08T14:54:45.000Z</time>
      </trkpt>
      <trkpt lat="42.69745" lon="0.6683">
        <ele>2079.3</ele>
        <time>2018-08-08T14:54:46.000Z</time>
      </trkpt>
      <trkpt lat="42.69745" lon="0.6683">
        <ele>2079.3</ele>
        <time>2018-08-08T14:54:47.000Z</time>
      </trkpt>
      <trkpt lat="42.69745" lon="0.6683">
        <ele>2079.3</ele>
        <time>2018-08-08T14:54:48.000Z</time>
      </trkpt>
      <trkpt lat="42.69745" lon="0.6683">
        <ele>2079.3</ele>
        <time>2018-08-08T14:54:49.000Z</time>
      </trkpt>
      <trkpt lat="42.69745" lon="0.6683">
        <ele>2079.3</ele>
        <time>2018-08-08T14:54:50.000Z</time>
      </trkpt>
      <trkpt lat="42.69745" lon="0.6683">
        <ele>2079.3</ele>
        <time>2018-08-08T14:54:51.000Z</time>
      </trkpt>
      <trkpt lat="42.69745" lon="0.6683">
        <ele>2079.3</ele>
        <time>2018-08-08T14:54:52.000Z</time>
      </trkpt>
      <trkpt lat="42.69745" lon="0.6683">
        <ele>2079.3</ele>
        <time>2018-08-08T14:54:53.000Z</time>
      </trkpt>
      <trkpt lat="42.69745" lon="0.6683">
        <ele>2079.3</ele>
        <time>2018-08-08T14:54:54.000Z</time>
      </trkpt>
      <trkpt lat="42.69745" lon="0.6683">
        <ele>2079.3</ele>
        <time>2018-08-08T14:54:55.000Z</time>
      </trkpt>
      <trkpt lat="42.69745" lon="0.6683">
        <ele>2079.3</ele>
        <time>2018-08-08T14:54:56.000Z</time>
      </trkpt>
      <trkpt lat="42.69745" lon="0.6683">
        <ele>2079.3</ele>
        <time>2018-08-08T14:54:57.000Z</time>
      </trkpt>
      <trkpt lat="42.69745" lon="0.6683">
        <ele>2079.3</ele>
        <time>2018-08-08T14:54:58.000Z</time>
      </trkpt>
      <trkpt lat="42.69745" lon="0.6683">
        <ele>2079.3</ele>
        <time>2018-08-08T14:54:59.000Z</time>
      </trkpt>
      <trkpt lat="42.69745" lon="0.6683">
        <ele>2079.3</ele>
        <time>2018-08-08T14:55:00.000Z</time>
      </trkpt>
      <trkpt lat="42.69745" lon="0.6683">
        <ele>2079.3</ele>
        <time>2018-08-08T14:55:01.000Z</time>
      </trkpt>
      <trkpt lat="42.69745" lon="0.6683">
        <ele>2079.3</ele>
        <time>2018-08-08T14:55:02.000Z</time>
      </trkpt>
      <trkpt lat="42.69745" lon="0.6683">
        <ele>2079.3</ele>
        <time>2018-08-08T14:55:03.000Z</time>
      </trkpt>
      <trkpt lat="42.69745" lon="0.6683">
        <ele>2079.3</ele>
        <time>2018-08-08T14:55:04.000Z</time>
      </trkpt>
      <trkpt lat="42.69745" lon="0.6683">
        <ele>2079.3</ele>
        <time>2018-08-08T14:55:05.000Z</time>
      </trkpt>
      <trkpt lat="42.69745" lon="0.6683">
        <ele>2079.3</ele>
        <time>2018-08-08T14:55:06.000Z</time>
      </trkpt>
      <trkpt lat="42.69745" lon="0.6683">
        <ele>2079.3</ele>
        <time>2018-08-08T14:55:07.000Z</time>
      </trkpt>
      <trkpt lat="42.69745" lon="0.6683">
        <ele>2079.3</ele>
        <time>2018-08-08T14:55:08.000Z</time>
      </trkpt>
      <trkpt lat="42.69745" lon="0.6683">
        <ele>2079.3</ele>
        <time>2018-08-08T14:55:09.000Z</time>
      </trkpt>
      <trkpt lat="42.69745" lon="0.6683">
        <ele>2079.3</ele>
        <time>2018-08-08T14:55:10.000Z</time>
      </trkpt>
      <trkpt lat="42.69745" lon="0.6683">
        <ele>2079.3</ele>
        <time>2018-08-08T14:55:11.000Z</time>
      </trkpt>
      <trkpt lat="42.69745" lon="0.6683">
        <ele>2079.3</ele>
        <time>2018-08-08T14:55:12.000Z</time>
      </trkpt>
      <trkpt lat="42.69745" lon="0.6683">
        <ele>2079.3</ele>
        <time>2018-08-08T14:55:13.000Z</time>
      </trkpt>
      <trkpt lat="42.69745" lon="0.6683">
        <ele>2079.3</ele>
        <time>2018-08-08T14:55:14.000Z</time>
      </trkpt>
      <trkpt lat="42.69745" lon="0.6683">
        <ele>2079.3</ele>
        <time>2018-08-08T14:55:15.000Z</time>
      </trkpt>
      <trkpt lat="42.69745" lon="0.6683">
        <ele>2079.3</ele>
        <time>2018-08-08T14:55:16.000Z</time>
      </trkpt>
      <trkpt lat="42.69745" lon="0.6683">
        <ele>2079.3</ele>
        <time>2018-08-08T14:55:17.000Z</time>
      </trkpt>
      <trkpt lat="42.69745" lon="0.6683">
        <ele>2079.3</ele>
        <time>2018-08-08T14:55:18.000Z</time>
      </trkpt>
      <trkpt lat="42.69745" lon="0.6683">
        <ele>2079.3</ele>
        <time>2018-08-08T14:55:19.000Z</time>
      </trkpt>
      <trkpt lat="42.69745" lon="0.6683">
        <ele>2079.3</ele>
        <time>2018-08-08T14:55:20.000Z</time>
      </trkpt>
      <trkpt lat="42.69745" lon="0.6683">
        <ele>2079.3</ele>
        <time>2018-08-08T14:55:21.000Z</time>
      </trkpt>
      <trkpt lat="42.69745" lon="0.6683">
        <ele>2079.3</ele>
        <time>2018-08-08T14:55:22.000Z</time>
      </trkpt>
      <trkpt lat="42.69745" lon="0.6683">
        <ele>2079.3</ele>
        <time>2018-08-08T14:55:23.000Z</time>
      </trkpt>
      <trkpt lat="42.69745" lon="0.6683">
        <ele>2079.3</ele>
        <time>2018-08-08T14:55:24.000Z</time>
      </trkpt>
      <trkpt lat="42.69745" lon="0.6683">
        <ele>2079.3</ele>
        <time>2018-08-08T14:55:25.000Z</time>
      </trkpt>
      <trkpt lat="42.69745" lon="0.6683">
        <ele>2079.3</ele>
        <time>2018-08-08T14:55:26.000Z</time>
      </trkpt>
      <trkpt lat="42.69745" lon="0.6683">
        <ele>2079.3</ele>
        <time>2018-08-08T14:55:27.000Z</time>
      </trkpt>
      <trkpt lat="42.69745" lon="0.6683">
        <ele>2079.3</ele>
        <time>2018-08-08T14:55:28.000Z</time>
      </trkpt>
      <trkpt lat="42.69745" lon="0.6683">
        <ele>2079.3</ele>
        <time>2018-08-08T14:55:29.000Z</time>
      </trkpt>
      <trkpt lat="42.69745" lon="0.6683">
        <ele>2079.3</ele>
        <time>2018-08-08T14:55:30.000Z</time>
      </trkpt>
      <trkpt lat="42.69745" lon="0.6683">
        <ele>2079.3</ele>
        <time>2018-08-08T14:55:31.000Z</time>
      </trkpt>
      <trkpt lat="42.69745" lon="0.6683">
        <ele>2079.3</ele>
        <time>2018-08-08T14:55:32.000Z</time>
      </trkpt>
      <trkpt lat="42.69745" lon="0.6683">
        <ele>2079.3</ele>
        <time>2018-08-08T14:55:33.000Z</time>
      </trkpt>
      <trkpt lat="42.69745" lon="0.6683">
        <ele>2079.3</ele>
        <time>2018-08-08T14:55:34.000Z</time>
      </trkpt>
      <trkpt lat="42.69745" lon="0.6683">
        <ele>2079.3</ele>
        <time>2018-08-08T14:55:35.000Z</time>
      </trkpt>
      <trkpt lat="42.69745" lon="0.6683">
        <ele>2079.3</ele>
        <time>2018-08-08T14:55:36.000Z</time>
      </trkpt>
      <trkpt lat="42.69745" lon="0.6683">
        <ele>2079.3</ele>
        <time>2018-08-08T14:55:37.000Z</time>
      </trkpt>
      <trkpt lat="42.69745" lon="0.6683">
        <ele>2079.3</ele>
        <time>2018-08-08T14:55:38.000Z</time>
      </trkpt>
      <trkpt lat="42.69745" lon="0.6683">
        <ele>2079.3</ele>
        <time>2018-08-08T14:55:39.000Z</time>
      </trkpt>
      <trkpt lat="42.69745" lon="0.6683">
        <ele>2079.3</ele>
        <time>2018-08-08T14:55:40.000Z</time>
      </trkpt>
      <trkpt lat="42.69745" lon="0.6683">
        <ele>2079.3</ele>
        <time>2018-08-08T14:55:41.000Z</time>
      </trkpt>
      <trkpt lat="42.69745" lon="0.6683">
        <ele>2079.3</ele>
        <time>2018-08-08T14:55:42.000Z</time>
      </trkpt>
      <trkpt lat="42.69745" lon="0.6683">
        <ele>2079.3</ele>
        <time>2018-08-08T14:55:43.000Z</time>
      </trkpt>
      <trkpt lat="42.69745" lon="0.6683">
        <ele>2079.3</ele>
        <time>2018-08-08T14:55:44.000Z</time>
      </trkpt>
      <trkpt lat="42.69745" lon="0.6683">
        <ele>2079.3</ele>
        <time>2018-08-08T14:55:45.000Z</time>
      </trkpt>
      <trkpt lat="42.69745" lon="0.6683">
        <ele>2079.3</ele>
        <time>2018-08-08T14:55:46.000Z</time>
      </trkpt>
      <trkpt lat="42.69745" lon="0.6683">
        <ele>2079.3</ele>
        <time>2018-08-08T14:55:47.000Z</time>
      </trkpt>
      <trkpt lat="42.69745" lon="0.6683">
        <ele>2079.3</ele>
        <time>2018-08-08T14:55:48.000Z</time>
      </trkpt>
      <trkpt lat="42.69745" lon="0.6683">
        <ele>2079.3</ele>
        <time>2018-08-08T14:55:49.000Z</time>
      </trkpt>
      <trkpt lat="42.69745" lon="0.6683">
        <ele>2079.3</ele>
        <time>2018-08-08T14:55:50.000Z</time>
      </trkpt>
      <trkpt lat="42.69745" lon="0.6683">
        <ele>2079.3</ele>
        <time>2018-08-08T14:55:51.000Z</time>
      </trkpt>
      <trkpt lat="42.69745" lon="0.6683">
        <ele>2079.3</ele>
        <time>2018-08-08T14:55:52.000Z</time>
      </trkpt>
      <trkpt lat="42.69745" lon="0.6683">
        <ele>2079.3</ele>
        <time>2018-08-08T14:55:53.000Z</time>
      </trkpt>
      <trkpt lat="42.69745" lon="0.6683">
        <ele>2079.3</ele>
        <time>2018-08-08T14:55:54.000Z</time>
      </trkpt>
      <trkpt lat="42.69745" lon="0.6683">
        <ele>2079.3</ele>
        <time>2018-08-08T14:55:55.000Z</time>
      </trkpt>
      <trkpt lat="42.69745" lon="0.6683">
        <ele>2079.3</ele>
        <time>2018-08-08T14:55:56.000Z</time>
      </trkpt>
      <trkpt lat="42.69745" lon="0.6683">
        <ele>2079.3</ele>
        <time>2018-08-08T14:55:57.000Z</time>
      </trkpt>
      <trkpt lat="42.69745" lon="0.6683">
        <ele>2079.3</ele>
        <time>2018-08-08T14:55:58.000Z</time>
      </trkpt>
      <trkpt lat="42.69745" lon="0.6683">
        <ele>2079.3</ele>
        <time>2018-08-08T14:55:59.000Z</time>
      </trkpt>
      <trkpt lat="42.69745" lon="0.6683">
        <ele>2079.3</ele>
        <time>2018-08-08T14:56:00.000Z</time>
      </trkpt>
      <trkpt lat="42.69745" lon="0.6683">
        <ele>2079.3</ele>
        <time>2018-08-08T14:56:01.000Z</time>
      </trkpt>
      <trkpt lat="42.69745" lon="0.6683">
        <ele>2079.3</ele>
        <time>2018-08-08T14:56:02.000Z</time>
      </trkpt>
      <trkpt lat="42.69745" lon="0.6683">
        <ele>2079.3</ele>
        <time>2018-08-08T14:56:03.000Z</time>
      </trkpt>
      <trkpt lat="42.69745" lon="0.6683">
        <ele>2079.3</ele>
        <time>2018-08-08T14:56:04.000Z</time>
      </trkpt>
      <trkpt lat="42.69745" lon="0.6683">
        <ele>2079.3</ele>
        <time>2018-08-08T14:56:05.000Z</time>
      </trkpt>
      <trkpt lat="42.69745" lon="0.6683">
        <ele>2079.3</ele>
        <time>2018-08-08T14:56:06.000Z</time>
      </trkpt>
      <trkpt lat="42.69745" lon="0.6683">
        <ele>2079.3</ele>
        <time>2018-08-08T14:56:07.000Z</time>
      </trkpt>
      <trkpt lat="42.69745" lon="0.6683">
        <ele>2079.3</ele>
        <time>2018-08-08T14:56:08.000Z</time>
      </trkpt>
      <trkpt lat="42.69745" lon="0.6683">
        <ele>2079.3</ele>
        <time>2018-08-08T14:56:09.000Z</time>
      </trkpt>
      <trkpt lat="42.69745" lon="0.6683">
        <ele>2079.3</ele>
        <time>2018-08-08T14:56:10.000Z</time>
      </trkpt>
      <trkpt lat="42.69745" lon="0.6683">
        <ele>2079.3</ele>
        <time>2018-08-08T14:56:11.000Z</time>
      </trkpt>
      <trkpt lat="42.69745" lon="0.6683">
        <ele>2079.3</ele>
        <time>2018-08-08T14:56:12.000Z</time>
      </trkpt>
      <trkpt lat="42.69745" lon="0.6683">
        <ele>2079.3</ele>
        <time>2018-08-08T14:56:13.000Z</time>
      </trkpt>
      <trkpt lat="42.69745" lon="0.6683">
        <ele>2079.3</ele>
        <time>2018-08-08T14:56:14.000Z</time>
      </trkpt>
      <trkpt lat="42.69745" lon="0.6683">
        <ele>2079.3</ele>
        <time>2018-08-08T14:56:15.000Z</time>
      </trkpt>
      <trkpt lat="42.69745" lon="0.6683">
        <ele>2079.3</ele>
        <time>2018-08-08T14:56:16.000Z</time>
      </trkpt>
      <trkpt lat="42.69745" lon="0.6683">
        <ele>2079.3</ele>
        <time>2018-08-08T14:56:17.000Z</time>
      </trkpt>
      <trkpt lat="42.69745" lon="0.6683">
        <ele>2079.3</ele>
        <time>2018-08-08T14:56:18.000Z</time>
      </trkpt>
      <trkpt lat="42.69745" lon="0.6683">
        <ele>2079.3</ele>
        <time>2018-08-08T14:56:19.000Z</time>
      </trkpt>
      <trkpt lat="42.69745" lon="0.6683">
        <ele>2079.3</ele>
        <time>2018-08-08T14:56:20.000Z</time>
      </trkpt>
      <trkpt lat="42.69745" lon="0.6683">
        <ele>2079.3</ele>
        <time>2018-08-08T14:56:21.000Z</time>
      </trkpt>
      <trkpt lat="42.69745" lon="0.6683">
        <ele>2079.3</ele>
        <time>2018-08-08T14:56:22.000Z</time>
      </trkpt>
      <trkpt lat="42.69745" lon="0.6683">
        <ele>2079.3</ele>
        <time>2018-08-08T14:56:23.000Z</time>
      </trkpt>
      <trkpt lat="42.69745" lon="0.6683">
        <ele>2079.3</ele>
        <time>2018-08-08T14:56:24.000Z</time>
      </trkpt>
      <trkpt lat="42.69745" lon="0.6683">
        <ele>2079.3</ele>
        <time>2018-08-08T14:56:25.000Z</time>
      </trkpt>
      <trkpt lat="42.69745" lon="0.6683">
        <ele>2079.3</ele>
        <time>2018-08-08T14:56:26.000Z</time>
      </trkpt>
      <trkpt lat="42.69745" lon="0.6683">
        <ele>2079.3</ele>
        <time>2018-08-08T14:56:27.000Z</time>
      </trkpt>
      <trkpt lat="42.69745" lon="0.6683">
        <ele>2079.3</ele>
        <time>2018-08-08T14:56:28.000Z</time>
      </trkpt>
      <trkpt lat="42.69745" lon="0.6683">
        <ele>2079.3</ele>
        <time>2018-08-08T14:56:29.000Z</time>
      </trkpt>
      <trkpt lat="42.69745" lon="0.6683">
        <ele>2079.3</ele>
        <time>2018-08-08T14:56:30.000Z</time>
      </trkpt>
      <trkpt lat="42.69745" lon="0.6683">
        <ele>2079.3</ele>
        <time>2018-08-08T14:56:31.000Z</time>
      </trkpt>
      <trkpt lat="42.69745" lon="0.6683">
        <ele>2079.3</ele>
        <time>2018-08-08T14:56:32.000Z</time>
      </trkpt>
      <trkpt lat="42.69745" lon="0.6683">
        <ele>2079.3</ele>
        <time>2018-08-08T14:56:33.000Z</time>
      </trkpt>
      <trkpt lat="42.69745" lon="0.6683">
        <ele>2079.3</ele>
        <time>2018-08-08T14:56:34.000Z</time>
      </trkpt>
      <trkpt lat="42.69745" lon="0.6683">
        <ele>2079.3</ele>
        <time>2018-08-08T14:56:35.000Z</time>
      </trkpt>
      <trkpt lat="42.69745" lon="0.6683">
        <ele>2079.3</ele>
        <time>2018-08-08T14:56:36.000Z</time>
      </trkpt>
      <trkpt lat="42.69745" lon="0.6683">
        <ele>2079.3</ele>
        <time>2018-08-08T14:56:37.000Z</time>
      </trkpt>
      <trkpt lat="42.69745" lon="0.6683">
        <ele>2079.3</ele>
        <time>2018-08-08T14:56:38.000Z</time>
      </trkpt>
      <trkpt lat="42.69745" lon="0.6683">
        <ele>2079.3</ele>
        <time>2018-08-08T14:56:39.000Z</time>
      </trkpt>
      <trkpt lat="42.69745" lon="0.6683">
        <ele>2079.3</ele>
        <time>2018-08-08T14:56:40.000Z</time>
      </trkpt>
      <trkpt lat="42.69745" lon="0.6683">
        <ele>2079.3</ele>
        <time>2018-08-08T14:56:41.000Z</time>
      </trkpt>
      <trkpt lat="42.69745" lon="0.6683">
        <ele>2079.3</ele>
        <time>2018-08-08T14:56:42.000Z</time>
      </trkpt>
      <trkpt lat="42.69745" lon="0.6683">
        <ele>2079.3</ele>
        <time>2018-08-08T14:56:43.000Z</time>
      </trkpt>
      <trkpt lat="42.69745" lon="0.6683">
        <ele>2079.3</ele>
        <time>2018-08-08T14:56:44.000Z</time>
      </trkpt>
      <trkpt lat="42.69745" lon="0.6683">
        <ele>2079.3</ele>
        <time>2018-08-08T14:56:45.000Z</time>
      </trkpt>
      <trkpt lat="42.69745" lon="0.6683">
        <ele>2079.3</ele>
        <time>2018-08-08T14:56:46.000Z</time>
      </trkpt>
      <trkpt lat="42.69745" lon="0.6683">
        <ele>2079.3</ele>
        <time>2018-08-08T14:56:47.000Z</time>
      </trkpt>
      <trkpt lat="42.69745" lon="0.6683">
        <ele>2079.3</ele>
        <time>2018-08-08T14:56:48.000Z</time>
      </trkpt>
      <trkpt lat="42.69745" lon="0.6683">
        <ele>2079.3</ele>
        <time>2018-08-08T14:56:49.000Z</time>
      </trkpt>
      <trkpt lat="42.69745" lon="0.6683">
        <ele>2079.3</ele>
        <time>2018-08-08T14:56:50.000Z</time>
      </trkpt>
      <trkpt lat="42.69745" lon="0.6683">
        <ele>2079.3</ele>
        <time>2018-08-08T14:56:51.000Z</time>
      </trkpt>
      <trkpt lat="42.69745" lon="0.6683">
        <ele>2079.3</ele>
        <time>2018-08-08T14:56:52.000Z</time>
      </trkpt>
      <trkpt lat="42.69745" lon="0.6683">
        <ele>2079.3</ele>
        <time>2018-08-08T14:56:53.000Z</time>
      </trkpt>
      <trkpt lat="42.69745" lon="0.6683">
        <ele>2079.3</ele>
        <time>2018-08-08T14:56:54.000Z</time>
      </trkpt>
      <trkpt lat="42.69745" lon="0.6683">
        <ele>2079.3</ele>
        <time>2018-08-08T14:56:55.000Z</time>
      </trkpt>
      <trkpt lat="42.69745" lon="0.6683">
        <ele>2079.3</ele>
        <time>2018-08-08T14:56:56.000Z</time>
      </trkpt>
      <trkpt lat="42.69745" lon="0.6683">
        <ele>2079.3</ele>
        <time>2018-08-08T14:56:57.000Z</time>
      </trkpt>
      <trkpt lat="42.69745" lon="0.6683">
        <ele>2079.3</ele>
        <time>2018-08-08T14:56:58.000Z</time>
      </trkpt>
      <trkpt lat="42.69745" lon="0.6683">
        <ele>2079.3</ele>
        <time>2018-08-08T14:56:59.000Z</time>
      </trkpt>
      <trkpt lat="42.69745" lon="0.6683">
        <ele>2079.3</ele>
        <time>2018-08-08T14:57:00.000Z</time>
      </trkpt>
      <trkpt lat="42.69745" lon="0.6683">
        <ele>2079.3</ele>
        <time>2018-08-08T14:57:01.000Z</time>
      </trkpt>
      <trkpt lat="42.69745" lon="0.6683">
        <ele>2079.3</ele>
        <time>2018-08-08T14:57:02.000Z</time>
      </trkpt>
      <trkpt lat="42.69745" lon="0.6683">
        <ele>2079.3</ele>
        <time>2018-08-08T14:57:03.000Z</time>
      </trkpt>
      <trkpt lat="42.69745" lon="0.6683">
        <ele>2079.3</ele>
        <time>2018-08-08T14:57:04.000Z</time>
      </trkpt>
      <trkpt lat="42.69745" lon="0.6683">
        <ele>2079.3</ele>
        <time>2018-08-08T14:57:05.000Z</time>
      </trkpt>
      <trkpt lat="42.69745" lon="0.6683">
        <ele>2079.3</ele>
        <time>2018-08-08T14:57:06.000Z</time>
      </trkpt>
      <trkpt lat="42.69745" lon="0.6683">
        <ele>2079.3</ele>
        <time>2018-08-08T14:57:07.000Z</time>
      </trkpt>
      <trkpt lat="42.69745" lon="0.6683">
        <ele>2079.3</ele>
        <time>2018-08-08T14:57:08.000Z</time>
      </trkpt>
      <trkpt lat="42.69745" lon="0.6683">
        <ele>2079.3</ele>
        <time>2018-08-08T14:57:09.000Z</time>
      </trkpt>
      <trkpt lat="42.69745" lon="0.6683">
        <ele>2079.3</ele>
        <time>2018-08-08T14:57:10.000Z</time>
      </trkpt>
      <trkpt lat="42.69745" lon="0.6683">
        <ele>2079.3</ele>
        <time>2018-08-08T14:57:11.000Z</time>
      </trkpt>
      <trkpt lat="42.69745" lon="0.6683">
        <ele>2079.3</ele>
        <time>2018-08-08T14:57:12.000Z</time>
      </trkpt>
      <trkpt lat="42.69745" lon="0.6683">
        <ele>2079.3</ele>
        <time>2018-08-08T14:57:13.000Z</time>
      </trkpt>
      <trkpt lat="42.69745" lon="0.6683">
        <ele>2079.3</ele>
        <time>2018-08-08T14:57:14.000Z</time>
      </trkpt>
      <trkpt lat="42.69745" lon="0.6683">
        <ele>2079.3</ele>
        <time>2018-08-08T14:57:15.000Z</time>
      </trkpt>
      <trkpt lat="42.69745" lon="0.6683">
        <ele>2079.3</ele>
        <time>2018-08-08T14:57:16.000Z</time>
      </trkpt>
      <trkpt lat="42.69745" lon="0.6683">
        <ele>2079.3</ele>
        <time>2018-08-08T14:57:17.000Z</time>
      </trkpt>
      <trkpt lat="42.69745" lon="0.6683">
        <ele>2079.3</ele>
        <time>2018-08-08T14:57:18.000Z</time>
      </trkpt>
      <trkpt lat="42.69745" lon="0.6683">
        <ele>2079.3</ele>
        <time>2018-08-08T14:57:19.000Z</time>
      </trkpt>
      <trkpt lat="42.69745" lon="0.6683">
        <ele>2079.3</ele>
        <time>2018-08-08T14:57:20.000Z</time>
      </trkpt>
      <trkpt lat="42.69745" lon="0.6683">
        <ele>2079.3</ele>
        <time>2018-08-08T14:57:21.000Z</time>
      </trkpt>
      <trkpt lat="42.69745" lon="0.6683">
        <ele>2079.3</ele>
        <time>2018-08-08T14:57:22.000Z</time>
      </trkpt>
      <trkpt lat="42.69745" lon="0.6683">
        <ele>2079.3</ele>
        <time>2018-08-08T14:57:23.000Z</time>
      </trkpt>
      <trkpt lat="42.69745" lon="0.6683">
        <ele>2079.3</ele>
        <time>2018-08-08T14:57:24.000Z</time>
      </trkpt>
      <trkpt lat="42.69745" lon="0.6683">
        <ele>2079.3</ele>
        <time>2018-08-08T14:57:25.000Z</time>
      </trkpt>
      <trkpt lat="42.69745" lon="0.6683">
        <ele>2079.3</ele>
        <time>2018-08-08T14:57:26.000Z</time>
      </trkpt>
      <trkpt lat="42.69745" lon="0.6683">
        <ele>2079.3</ele>
        <time>2018-08-08T14:57:27.000Z</time>
      </trkpt>
      <trkpt lat="42.69745" lon="0.6683">
        <ele>2079.3</ele>
        <time>2018-08-08T14:57:28.000Z</time>
      </trkpt>
      <trkpt lat="42.69745" lon="0.6683">
        <ele>2079.3</ele>
        <time>2018-08-08T14:57:29.000Z</time>
      </trkpt>
      <trkpt lat="42.69745" lon="0.6683">
        <ele>2079.3</ele>
        <time>2018-08-08T14:57:30.000Z</time>
      </trkpt>
      <trkpt lat="42.69745" lon="0.6683">
        <ele>2079.3</ele>
        <time>2018-08-08T14:57:31.000Z</time>
      </trkpt>
      <trkpt lat="42.69745" lon="0.6683">
        <ele>2079.3</ele>
        <time>2018-08-08T14:57:32.000Z</time>
      </trkpt>
      <trkpt lat="42.69745" lon="0.6683">
        <ele>2079.3</ele>
        <time>2018-08-08T14:57:33.000Z</time>
      </trkpt>
      <trkpt lat="42.69745" lon="0.6683">
        <ele>2079.3</ele>
        <time>2018-08-08T14:57:34.000Z</time>
      </trkpt>
      <trkpt lat="42.69745" lon="0.6683">
        <ele>2079.3</ele>
        <time>2018-08-08T14:57:35.000Z</time>
      </trkpt>
      <trkpt lat="42.69745" lon="0.6683">
        <ele>2079.3</ele>
        <time>2018-08-08T14:57:36.000Z</time>
      </trkpt>
      <trkpt lat="42.69745" lon="0.6683">
        <ele>2079.3</ele>
        <time>2018-08-08T14:57:37.000Z</time>
      </trkpt>
      <trkpt lat="42.69745" lon="0.6683">
        <ele>2079.3</ele>
        <time>2018-08-08T14:57:38.000Z</time>
      </trkpt>
      <trkpt lat="42.69745" lon="0.6683">
        <ele>2079.3</ele>
        <time>2018-08-08T14:57:39.000Z</time>
      </trkpt>
      <trkpt lat="42.69745" lon="0.6683">
        <ele>2079.3</ele>
        <time>2018-08-08T14:57:40.000Z</time>
      </trkpt>
      <trkpt lat="42.69745" lon="0.6683">
        <ele>2079.3</ele>
        <time>2018-08-08T14:57:41.000Z</time>
      </trkpt>
      <trkpt lat="42.69745" lon="0.6683">
        <ele>2079.3</ele>
        <time>2018-08-08T14:57:42.000Z</time>
      </trkpt>
      <trkpt lat="42.69745" lon="0.6683">
        <ele>2079.3</ele>
        <time>2018-08-08T14:57:43.000Z</time>
      </trkpt>
      <trkpt lat="42.69745" lon="0.6683">
        <ele>2079.3</ele>
        <time>2018-08-08T14:57:44.000Z</time>
      </trkpt>
      <trkpt lat="42.69745" lon="0.6683">
        <ele>2079.3</ele>
        <time>2018-08-08T14:57:45.000Z</time>
      </trkpt>
      <trkpt lat="42.69745" lon="0.6683">
        <ele>2079.3</ele>
        <time>2018-08-08T14:57:46.000Z</time>
      </trkpt>
      <trkpt lat="42.69745" lon="0.6683">
        <ele>2079.3</ele>
        <time>2018-08-08T14:57:47.000Z</time>
      </trkpt>
      <trkpt lat="42.69745" lon="0.6683">
        <ele>2079.3</ele>
        <time>2018-08-08T14:57:48.000Z</time>
      </trkpt>
      <trkpt lat="42.69745" lon="0.6683">
        <ele>2079.3</ele>
        <time>2018-08-08T14:57:49.000Z</time>
      </trkpt>
      <trkpt lat="42.69745" lon="0.6683">
        <ele>2079.3</ele>
        <time>2018-08-08T14:57:50.000Z</time>
      </trkpt>
      <trkpt lat="42.69745" lon="0.6683">
        <ele>2079.3</ele>
        <time>2018-08-08T14:57:51.000Z</time>
      </trkpt>
      <trkpt lat="42.69745" lon="0.6683">
        <ele>2079.3</ele>
        <time>2018-08-08T14:57:52.000Z</time>
      </trkpt>
      <trkpt lat="42.69745" lon="0.6683">
        <ele>2079.3</ele>
        <time>2018-08-08T14:57:53.000Z</time>
      </trkpt>
      <trkpt lat="42.69745" lon="0.6683">
        <ele>2079.3</ele>
        <time>2018-08-08T14:57:54.000Z</time>
      </trkpt>
      <trkpt lat="42.69745" lon="0.6683">
        <ele>2079.3</ele>
        <time>2018-08-08T14:57:55.000Z</time>
      </trkpt>
      <trkpt lat="42.69745" lon="0.6683">
        <ele>2079.3</ele>
        <time>2018-08-08T14:57:56.000Z</time>
      </trkpt>
      <trkpt lat="42.69745" lon="0.6683">
        <ele>2079.3</ele>
        <time>2018-08-08T14:57:57.000Z</time>
      </trkpt>
      <trkpt lat="42.69745" lon="0.6683">
        <ele>2079.3</ele>
        <time>2018-08-08T14:57:58.000Z</time>
      </trkpt>
      <trkpt lat="42.69745" lon="0.6683">
        <ele>2079.3</ele>
        <time>2018-08-08T14:57:59.000Z</time>
      </trkpt>
      <trkpt lat="42.69745" lon="0.6683">
        <ele>2079.3</ele>
        <time>2018-08-08T14:58:00.000Z</time>
      </trkpt>
      <trkpt lat="42.69745" lon="0.6683">
        <ele>2079.3</ele>
        <time>2018-08-08T14:58:01.000Z</time>
      </trkpt>
      <trkpt lat="42.69745" lon="0.6683">
        <ele>2079.3</ele>
        <time>2018-08-08T14:58:02.000Z</time>
      </trkpt>
      <trkpt lat="42.69745" lon="0.6683">
        <ele>2079.3</ele>
        <time>2018-08-08T14:58:03.000Z</time>
      </trkpt>
      <trkpt lat="42.69745" lon="0.6683">
        <ele>2079.3</ele>
        <time>2018-08-08T14:58:04.000Z</time>
      </trkpt>
      <trkpt lat="42.69745" lon="0.6683">
        <ele>2079.3</ele>
        <time>2018-08-08T14:58:05.000Z</time>
      </trkpt>
      <trkpt lat="42.69745" lon="0.6683">
        <ele>2079.3</ele>
        <time>2018-08-08T14:58:06.000Z</time>
      </trkpt>
      <trkpt lat="42.69745" lon="0.6683">
        <ele>2079.3</ele>
        <time>2018-08-08T14:58:07.000Z</time>
      </trkpt>
      <trkpt lat="42.69745" lon="0.6683">
        <ele>2079.3</ele>
        <time>2018-08-08T14:58:08.000Z</time>
      </trkpt>
      <trkpt lat="42.69745" lon="0.6683">
        <ele>2079.3</ele>
        <time>2018-08-08T14:58:09.000Z</time>
      </trkpt>
      <trkpt lat="42.69745" lon="0.6683">
        <ele>2079.3</ele>
        <time>2018-08-08T14:58:10.000Z</time>
      </trkpt>
      <trkpt lat="42.69745" lon="0.6683">
        <ele>2079.3</ele>
        <time>2018-08-08T14:58:11.000Z</time>
      </trkpt>
      <trkpt lat="42.69745" lon="0.6683">
        <ele>2079.3</ele>
        <time>2018-08-08T14:58:12.000Z</time>
      </trkpt>
      <trkpt lat="42.69745" lon="0.6683">
        <ele>2079.3</ele>
        <time>2018-08-08T14:58:13.000Z</time>
      </trkpt>
      <trkpt lat="42.69745" lon="0.6683">
        <ele>2079.3</ele>
        <time>2018-08-08T14:58:14.000Z</time>
      </trkpt>
      <trkpt lat="42.69745" lon="0.6683">
        <ele>2079.3</ele>
        <time>2018-08-08T14:58:15.000Z</time>
      </trkpt>
      <trkpt lat="42.69745" lon="0.6683">
        <ele>2079.3</ele>
        <time>2018-08-08T14:58:16.000Z</time>
      </trkpt>
      <trkpt lat="42.69745" lon="0.6683">
        <ele>2079.3</ele>
        <time>2018-08-08T14:58:17.000Z</time>
      </trkpt>
      <trkpt lat="42.69745" lon="0.6683">
        <ele>2079.3</ele>
        <time>2018-08-08T14:58:18.000Z</time>
      </trkpt>
      <trkpt lat="42.69745" lon="0.6683">
        <ele>2079.3</ele>
        <time>2018-08-08T14:58:19.000Z</time>
      </trkpt>
      <trkpt lat="42.69745" lon="0.6683">
        <ele>2079.3</ele>
        <time>2018-08-08T14:58:20.000Z</time>
      </trkpt>
      <trkpt lat="42.69745" lon="0.6683">
        <ele>2079.3</ele>
        <time>2018-08-08T14:58:21.000Z</time>
      </trkpt>
      <trkpt lat="42.69745" lon="0.6683">
        <ele>2079.3</ele>
        <time>2018-08-08T14:58:22.000Z</time>
      </trkpt>
      <trkpt lat="42.69745" lon="0.6683">
        <ele>2079.3</ele>
        <time>2018-08-08T14:58:23.000Z</time>
      </trkpt>
      <trkpt lat="42.69745" lon="0.6683">
        <ele>2079.3</ele>
        <time>2018-08-08T14:58:24.000Z</time>
      </trkpt>
      <trkpt lat="42.69745" lon="0.6683">
        <ele>2079.3</ele>
        <time>2018-08-08T14:58:25.000Z</time>
      </trkpt>
      <trkpt lat="42.69745" lon="0.6683">
        <ele>2079.3</ele>
        <time>2018-08-08T14:58:26.000Z</time>
      </trkpt>
      <trkpt lat="42.69745" lon="0.6683">
        <ele>2079.3</ele>
        <time>2018-08-08T14:58:27.000Z</time>
      </trkpt>
      <trkpt lat="42.69745" lon="0.6683">
        <ele>2079.3</ele>
        <time>2018-08-08T14:58:28.000Z</time>
      </trkpt>
      <trkpt lat="42.69745" lon="0.6683">
        <ele>2079.3</ele>
        <time>2018-08-08T14:58:29.000Z</time>
      </trkpt>
      <trkpt lat="42.69745" lon="0.6683">
        <ele>2079.3</ele>
        <time>2018-08-08T14:58:30.000Z</time>
      </trkpt>
      <trkpt lat="42.69745" lon="0.6683">
        <ele>2079.3</ele>
        <time>2018-08-08T14:58:31.000Z</time>
      </trkpt>
      <trkpt lat="42.69745" lon="0.6683">
        <ele>2079.3</ele>
        <time>2018-08-08T14:58:32.000Z</time>
      </trkpt>
      <trkpt lat="42.69745" lon="0.6683">
        <ele>2079.3</ele>
        <time>2018-08-08T14:58:33.000Z</time>
      </trkpt>
      <trkpt lat="42.69745" lon="0.6683">
        <ele>2079.3</ele>
        <time>2018-08-08T14:58:34.000Z</time>
      </trkpt>
      <trkpt lat="42.69745" lon="0.6683">
        <ele>2079.3</ele>
        <time>2018-08-08T14:58:35.000Z</time>
      </trkpt>
      <trkpt lat="42.69745" lon="0.6683">
        <ele>2079.3</ele>
        <time>2018-08-08T14:58:36.000Z</time>
      </trkpt>
      <trkpt lat="42.69745" lon="0.6683">
        <ele>2079.3</ele>
        <time>2018-08-08T14:58:37.000Z</time>
      </trkpt>
      <trkpt lat="42.69745" lon="0.6683">
        <ele>2079.3</ele>
        <time>2018-08-08T14:58:38.000Z</time>
      </trkpt>
      <trkpt lat="42.69745" lon="0.6683">
        <ele>2079.3</ele>
        <time>2018-08-08T14:58:39.000Z</time>
      </trkpt>
      <trkpt lat="42.69745" lon="0.6683">
        <ele>2079.3</ele>
        <time>2018-08-08T14:58:40.000Z</time>
      </trkpt>
      <trkpt lat="42.69745" lon="0.6683">
        <ele>2079.3</ele>
        <time>2018-08-08T14:58:41.000Z</time>
      </trkpt>
      <trkpt lat="42.69745" lon="0.6683">
        <ele>2079.3</ele>
        <time>2018-08-08T14:58:42.000Z</time>
      </trkpt>
      <trkpt lat="42.69745" lon="0.6683">
        <ele>2079.3</ele>
        <time>2018-08-08T14:58:43.000Z</time>
      </trkpt>
      <trkpt lat="42.69745" lon="0.6683">
        <ele>2079.3</ele>
        <time>2018-08-08T14:58:44.000Z</time>
      </trkpt>
      <trkpt lat="42.69745" lon="0.6683">
        <ele>2079.3</ele>
        <time>2018-08-08T14:58:45.000Z</time>
      </trkpt>
      <trkpt lat="42.69745" lon="0.6683">
        <ele>2079.3</ele>
        <time>2018-08-08T14:58:46.000Z</time>
      </trkpt>
      <trkpt lat="42.69745" lon="0.6683">
        <ele>2079.3</ele>
        <time>2018-08-08T14:58:47.000Z</time>
      </trkpt>
      <trkpt lat="42.69745" lon="0.6683">
        <ele>2079.3</ele>
        <time>2018-08-08T14:58:48.000Z</time>
      </trkpt>
      <trkpt lat="42.69745" lon="0.6683">
        <ele>2079.3</ele>
        <time>2018-08-08T14:58:49.000Z</time>
      </trkpt>
      <trkpt lat="42.69745" lon="0.6683">
        <ele>2079.3</ele>
        <time>2018-08-08T14:58:50.000Z</time>
      </trkpt>
      <trkpt lat="42.69745" lon="0.6683">
        <ele>2079.3</ele>
        <time>2018-08-08T14:58:51.000Z</time>
      </trkpt>
      <trkpt lat="42.69745" lon="0.6683">
        <ele>2079.3</ele>
        <time>2018-08-08T14:58:52.000Z</time>
      </trkpt>
      <trkpt lat="42.69745" lon="0.6683">
        <ele>2079.3</ele>
        <time>2018-08-08T14:58:53.000Z</time>
      </trkpt>
      <trkpt lat="42.69745" lon="0.6683">
        <ele>2079.3</ele>
        <time>2018-08-08T14:58:54.000Z</time>
      </trkpt>
      <trkpt lat="42.69745" lon="0.6683">
        <ele>2079.3</ele>
        <time>2018-08-08T14:58:55.000Z</time>
      </trkpt>
      <trkpt lat="42.69745" lon="0.6683">
        <ele>2079.3</ele>
        <time>2018-08-08T14:58:56.000Z</time>
      </trkpt>
      <trkpt lat="42.69745" lon="0.6683">
        <ele>2079.3</ele>
        <time>2018-08-08T14:58:57.000Z</time>
      </trkpt>
      <trkpt lat="42.69745" lon="0.6683">
        <ele>2079.3</ele>
        <time>2018-08-08T14:58:58.000Z</time>
      </trkpt>
      <trkpt lat="42.69745" lon="0.6683">
        <ele>2079.3</ele>
        <time>2018-08-08T14:58:59.000Z</time>
      </trkpt>
      <trkpt lat="42.69745" lon="0.6683">
        <ele>2079.3</ele>
        <time>2018-08-08T14:59:00.000Z</time>
      </trkpt>
      <trkpt lat="42.69745" lon="0.6683">
        <ele>2079.3</ele>
        <time>2018-08-08T14:59:01.000Z</time>
      </trkpt>
      <trkpt lat="42.69745" lon="0.6683">
        <ele>2079.3</ele>
        <time>2018-08-08T14:59:02.000Z</time>
      </trkpt>
      <trkpt lat="42.69745" lon="0.6683">
        <ele>2079.3</ele>
        <time>2018-08-08T14:59:03.000Z</time>
      </trkpt>
      <trkpt lat="42.69745" lon="0.6683">
        <ele>2079.3</ele>
        <time>2018-08-08T14:59:04.000Z</time>
      </trkpt>
      <trkpt lat="42.69745" lon="0.6683">
        <ele>2079.3</ele>
        <time>2018-08-08T14:59:05.000Z</time>
      </trkpt>
      <trkpt lat="42.69745" lon="0.6683">
        <ele>2079.3</ele>
        <time>2018-08-08T14:59:06.000Z</time>
      </trkpt>
      <trkpt lat="42.69745" lon="0.6683">
        <ele>2079.3</ele>
        <time>2018-08-08T14:59:07.000Z</time>
      </trkpt>
      <trkpt lat="42.69745" lon="0.6683">
        <ele>2079.3</ele>
        <time>2018-08-08T14:59:08.000Z</time>
      </trkpt>
      <trkpt lat="42.69745" lon="0.6683">
        <ele>2079.3</ele>
        <time>2018-08-08T14:59:09.000Z</time>
      </trkpt>
      <trkpt lat="42.69745" lon="0.6683">
        <ele>2079.3</ele>
        <time>2018-08-08T14:59:10.000Z</time>
      </trkpt>
      <trkpt lat="42.69745" lon="0.6683">
        <ele>2079.3</ele>
        <time>2018-08-08T14:59:11.000Z</time>
      </trkpt>
      <trkpt lat="42.69745" lon="0.6683">
        <ele>2079.3</ele>
        <time>2018-08-08T14:59:12.000Z</time>
      </trkpt>
      <trkpt lat="42.69745" lon="0.6683">
        <ele>2079.3</ele>
        <time>2018-08-08T14:59:13.000Z</time>
      </trkpt>
      <trkpt lat="42.69745" lon="0.6683">
        <ele>2079.3</ele>
        <time>2018-08-08T14:59:14.000Z</time>
      </trkpt>
      <trkpt lat="42.69745" lon="0.6683">
        <ele>2079.3</ele>
        <time>2018-08-08T14:59:15.000Z</time>
      </trkpt>
      <trkpt lat="42.69745" lon="0.6683">
        <ele>2079.3</ele>
        <time>2018-08-08T14:59:16.000Z</time>
      </trkpt>
      <trkpt lat="42.69745" lon="0.6683">
        <ele>2079.3</ele>
        <time>2018-08-08T14:59:17.000Z</time>
      </trkpt>
      <trkpt lat="42.69745" lon="0.6683">
        <ele>2079.3</ele>
        <time>2018-08-08T14:59:18.000Z</time>
      </trkpt>
      <trkpt lat="42.69745" lon="0.6683">
        <ele>2079.3</ele>
        <time>2018-08-08T14:59:19.000Z</time>
      </trkpt>
      <trkpt lat="42.69745" lon="0.6683">
        <ele>2079.3</ele>
        <time>2018-08-08T14:59:20.000Z</time>
      </trkpt>
      <trkpt lat="42.69745" lon="0.6683">
        <ele>2079.3</ele>
        <time>2018-08-08T14:59:21.000Z</time>
      </trkpt>
      <trkpt lat="42.69745" lon="0.6683">
        <ele>2079.3</ele>
        <time>2018-08-08T14:59:22.000Z</time>
      </trkpt>
      <trkpt lat="42.69745" lon="0.6683">
        <ele>2079.3</ele>
        <time>2018-08-08T14:59:23.000Z</time>
      </trkpt>
      <trkpt lat="42.69745" lon="0.6683">
        <ele>2079.3</ele>
        <time>2018-08-08T14:59:24.000Z</time>
      </trkpt>
      <trkpt lat="42.69745" lon="0.6683">
        <ele>2079.3</ele>
        <time>2018-08-08T14:59:25.000Z</time>
      </trkpt>
      <trkpt lat="42.69745" lon="0.6683">
        <ele>2079.3</ele>
        <time>2018-08-08T14:59:26.000Z</time>
      </trkpt>
      <trkpt lat="42.69745" lon="0.6683">
        <ele>2079.3</ele>
        <time>2018-08-08T14:59:27.000Z</time>
      </trkpt>
      <trkpt lat="42.69745" lon="0.6683">
        <ele>2079.3</ele>
        <time>2018-08-08T14:59:28.000Z</time>
      </trkpt>
      <trkpt lat="42.69745" lon="0.6683">
        <ele>2079.3</ele>
        <time>2018-08-08T14:59:29.000Z</time>
      </trkpt>
      <trkpt lat="42.69745" lon="0.6683">
        <ele>2079.3</ele>
        <time>2018-08-08T14:59:30.000Z</time>
      </trkpt>
      <trkpt lat="42.69745" lon="0.6683">
        <ele>2079.3</ele>
        <time>2018-08-08T14:59:31.000Z</time>
      </trkpt>
      <trkpt lat="42.69745" lon="0.6683">
        <ele>2079.3</ele>
        <time>2018-08-08T14:59:32.000Z</time>
      </trkpt>
      <trkpt lat="42.69745" lon="0.6683">
        <ele>2079.3</ele>
        <time>2018-08-08T14:59:33.000Z</time>
      </trkpt>
      <trkpt lat="42.69745" lon="0.6683">
        <ele>2079.3</ele>
        <time>2018-08-08T14:59:34.000Z</time>
      </trkpt>
      <trkpt lat="42.69745" lon="0.6683">
        <ele>2079.3</ele>
        <time>2018-08-08T14:59:35.000Z</time>
      </trkpt>
      <trkpt lat="42.69745" lon="0.6683">
        <ele>2079.3</ele>
        <time>2018-08-08T14:59:36.000Z</time>
      </trkpt>
      <trkpt lat="42.69745" lon="0.6683">
        <ele>2079.3</ele>
        <time>2018-08-08T14:59:37.000Z</time>
      </trkpt>
      <trkpt lat="42.69745" lon="0.6683">
        <ele>2079.3</ele>
        <time>2018-08-08T14:59:38.000Z</time>
      </trkpt>
      <trkpt lat="42.69745" lon="0.6683">
        <ele>2079.3</ele>
        <time>2018-08-08T14:59:39.000Z</time>
      </trkpt>
      <trkpt lat="42.69745" lon="0.6683">
        <ele>2079.3</ele>
        <time>2018-08-08T14:59:40.000Z</time>
      </trkpt>
      <trkpt lat="42.69745" lon="0.6683">
        <ele>2079.3</ele>
        <time>2018-08-08T14:59:41.000Z</time>
      </trkpt>
      <trkpt lat="42.69745" lon="0.6683">
        <ele>2079.3</ele>
        <time>2018-08-08T14:59:42.000Z</time>
      </trkpt>
      <trkpt lat="42.69745" lon="0.6683">
        <ele>2079.3</ele>
        <time>2018-08-08T14:59:43.000Z</time>
      </trkpt>
      <trkpt lat="42.69745" lon="0.6683">
        <ele>2079.3</ele>
        <time>2018-08-08T14:59:44.000Z</time>
      </trkpt>
      <trkpt lat="42.69745" lon="0.6683">
        <ele>2079.3</ele>
        <time>2018-08-08T14:59:45.000Z</time>
      </trkpt>
      <trkpt lat="42.69745" lon="0.6683">
        <ele>2079.3</ele>
        <time>2018-08-08T14:59:46.000Z</time>
      </trkpt>
      <trkpt lat="42.69745" lon="0.66829">
        <ele>2079.2</ele>
        <time>2018-08-08T14:59:47.000Z</time>
      </trkpt>
      <trkpt lat="42.69745" lon="0.66828">
        <ele>2079.2</ele>
        <time>2018-08-08T14:59:48.000Z</time>
      </trkpt>
      <trkpt lat="42.69744" lon="0.66827">
        <ele>2079.2</ele>
        <time>2018-08-08T14:59:49.000Z</time>
      </trkpt>
      <trkpt lat="42.69744" lon="0.66826">
        <ele>2079.2</ele>
        <time>2018-08-08T14:59:50.000Z</time>
      </trkpt>
      <trkpt lat="42.69744" lon="0.66826">
        <ele>2079.3</ele>
        <time>2018-08-08T14:59:51.000Z</time>
      </trkpt>
      <trkpt lat="42.69744" lon="0.66826">
        <ele>2079.3</ele>
        <time>2018-08-08T14:59:52.000Z</time>
      </trkpt>
      <trkpt lat="42.69744" lon="0.66826">
        <ele>2079.3</ele>
        <time>2018-08-08T14:59:53.000Z</time>
      </trkpt>
      <trkpt lat="42.69744" lon="0.66826">
        <ele>2079.2</ele>
        <time>2018-08-08T14:59:54.000Z</time>
      </trkpt>
      <trkpt lat="42.69744" lon="0.66826">
        <ele>2079.2</ele>
        <time>2018-08-08T14:59:55.000Z</time>
      </trkpt>
      <trkpt lat="42.69744" lon="0.66826">
        <ele>2079.2</ele>
        <time>2018-08-08T14:59:56.000Z</time>
      </trkpt>
      <trkpt lat="42.69744" lon="0.66826">
        <ele>2079.2</ele>
        <time>2018-08-08T14:59:57.000Z</time>
      </trkpt>
      <trkpt lat="42.69744" lon="0.66826">
        <ele>2079.2</ele>
        <time>2018-08-08T14:59:58.000Z</time>
      </trkpt>
      <trkpt lat="42.69744" lon="0.66826">
        <ele>2079.2</ele>
        <time>2018-08-08T14:59:59.000Z</time>
      </trkpt>
      <trkpt lat="42.69744" lon="0.66826">
        <ele>2079.2</ele>
        <time>2018-08-08T15:00:00.000Z</time>
      </trkpt>
      <trkpt lat="42.69744" lon="0.66826">
        <ele>2079.2</ele>
        <time>2018-08-08T15:00:01.000Z</time>
      </trkpt>
      <trkpt lat="42.69744" lon="0.66826">
        <ele>2079.2</ele>
        <time>2018-08-08T15:00:02.000Z</time>
      </trkpt>
      <trkpt lat="42.69744" lon="0.66826">
        <ele>2079.2</ele>
        <time>2018-08-08T15:00:03.000Z</time>
      </trkpt>
      <trkpt lat="42.69744" lon="0.66826">
        <ele>2079.2</ele>
        <time>2018-08-08T15:00:04.000Z</time>
      </trkpt>
      <trkpt lat="42.69744" lon="0.66826">
        <ele>2079.2</ele>
        <time>2018-08-08T15:00:05.000Z</time>
      </trkpt>
      <trkpt lat="42.69744" lon="0.66826">
        <ele>2079.2</ele>
        <time>2018-08-08T15:00:06.000Z</time>
      </trkpt>
      <trkpt lat="42.69744" lon="0.66826">
        <ele>2079.2</ele>
        <time>2018-08-08T15:00:07.000Z</time>
      </trkpt>
      <trkpt lat="42.69744" lon="0.66826">
        <ele>2079.2</ele>
        <time>2018-08-08T15:00:08.000Z</time>
      </trkpt>
      <trkpt lat="42.69744" lon="0.66826">
        <ele>2079.2</ele>
        <time>2018-08-08T15:00:09.000Z</time>
      </trkpt>
      <trkpt lat="42.69744" lon="0.66826">
        <ele>2079.2</ele>
        <time>2018-08-08T15:00:10.000Z</time>
      </trkpt>
      <trkpt lat="42.69744" lon="0.66826">
        <ele>2079.2</ele>
        <time>2018-08-08T15:00:11.000Z</time>
      </trkpt>
      <trkpt lat="42.69744" lon="0.66826">
        <ele>2079.2</ele>
        <time>2018-08-08T15:00:12.000Z</time>
      </trkpt>
      <trkpt lat="42.69744" lon="0.66826">
        <ele>2079.2</ele>
        <time>2018-08-08T15:00:13.000Z</time>
      </trkpt>
      <trkpt lat="42.69744" lon="0.66826">
        <ele>2079.2</ele>
        <time>2018-08-08T15:00:14.000Z</time>
      </trkpt>
      <trkpt lat="42.69744" lon="0.66826">
        <ele>2079.2</ele>
        <time>2018-08-08T15:00:15.000Z</time>
      </trkpt>
      <trkpt lat="42.69744" lon="0.66826">
        <ele>2079.2</ele>
        <time>2018-08-08T15:00:16.000Z</time>
      </trkpt>
      <trkpt lat="42.69744" lon="0.66826">
        <ele>2079.2</ele>
        <time>2018-08-08T15:00:17.000Z</time>
      </trkpt>
      <trkpt lat="42.69744" lon="0.66826">
        <ele>2079.2</ele>
        <time>2018-08-08T15:00:18.000Z</time>
      </trkpt>
      <trkpt lat="42.69744" lon="0.66826">
        <ele>2079.2</ele>
        <time>2018-08-08T15:00:19.000Z</time>
      </trkpt>
      <trkpt lat="42.69744" lon="0.66826">
        <ele>2079.2</ele>
        <time>2018-08-08T15:00:20.000Z</time>
      </trkpt>
      <trkpt lat="42.69744" lon="0.66826">
        <ele>2079.2</ele>
        <time>2018-08-08T15:00:21.000Z</time>
      </trkpt>
      <trkpt lat="42.69744" lon="0.66826">
        <ele>2079.2</ele>
        <time>2018-08-08T15:00:22.000Z</time>
      </trkpt>
      <trkpt lat="42.69744" lon="0.66826">
        <ele>2079.2</ele>
        <time>2018-08-08T15:00:23.000Z</time>
      </trkpt>
      <trkpt lat="42.69744" lon="0.66826">
        <ele>2079.2</ele>
        <time>2018-08-08T15:00:24.000Z</time>
      </trkpt>
      <trkpt lat="42.69744" lon="0.66826">
        <ele>2079.2</ele>
        <time>2018-08-08T15:00:25.000Z</time>
      </trkpt>
      <trkpt lat="42.69744" lon="0.66826">
        <ele>2079.2</ele>
        <time>2018-08-08T15:00:26.000Z</time>
      </trkpt>
      <trkpt lat="42.69744" lon="0.66826">
        <ele>2079.2</ele>
        <time>2018-08-08T15:00:27.000Z</time>
      </trkpt>
      <trkpt lat="42.69744" lon="0.66826">
        <ele>2079.2</ele>
        <time>2018-08-08T15:00:28.000Z</time>
      </trkpt>
      <trkpt lat="42.69744" lon="0.66826">
        <ele>2079.2</ele>
        <time>2018-08-08T15:00:29.000Z</time>
      </trkpt>
      <trkpt lat="42.69744" lon="0.66826">
        <ele>2079.2</ele>
        <time>2018-08-08T15:00:30.000Z</time>
      </trkpt>
      <trkpt lat="42.69744" lon="0.66826">
        <ele>2079.2</ele>
        <time>2018-08-08T15:00:31.000Z</time>
      </trkpt>
      <trkpt lat="42.69744" lon="0.66826">
        <ele>2079.2</ele>
        <time>2018-08-08T15:00:32.000Z</time>
      </trkpt>
      <trkpt lat="42.69744" lon="0.66826">
        <ele>2079.2</ele>
        <time>2018-08-08T15:00:33.000Z</time>
      </trkpt>
      <trkpt lat="42.69744" lon="0.66826">
        <ele>2079.2</ele>
        <time>2018-08-08T15:00:34.000Z</time>
      </trkpt>
      <trkpt lat="42.69744" lon="0.66826">
        <ele>2079.2</ele>
        <time>2018-08-08T15:00:35.000Z</time>
      </trkpt>
      <trkpt lat="42.69744" lon="0.66826">
        <ele>2079.2</ele>
        <time>2018-08-08T15:00:36.000Z</time>
      </trkpt>
      <trkpt lat="42.69744" lon="0.66826">
        <ele>2079.2</ele>
        <time>2018-08-08T15:00:37.000Z</time>
      </trkpt>
      <trkpt lat="42.69744" lon="0.66826">
        <ele>2079.2</ele>
        <time>2018-08-08T15:00:38.000Z</time>
      </trkpt>
      <trkpt lat="42.69744" lon="0.66826">
        <ele>2079.2</ele>
        <time>2018-08-08T15:00:39.000Z</time>
      </trkpt>
      <trkpt lat="42.69744" lon="0.66826">
        <ele>2079.2</ele>
        <time>2018-08-08T15:00:40.000Z</time>
      </trkpt>
      <trkpt lat="42.69744" lon="0.66826">
        <ele>2079.2</ele>
        <time>2018-08-08T15:00:41.000Z</time>
      </trkpt>
      <trkpt lat="42.69744" lon="0.66826">
        <ele>2079.2</ele>
        <time>2018-08-08T15:00:42.000Z</time>
      </trkpt>
      <trkpt lat="42.69744" lon="0.66826">
        <ele>2079.2</ele>
        <time>2018-08-08T15:00:43.000Z</time>
      </trkpt>
      <trkpt lat="42.69744" lon="0.66826">
        <ele>2079.2</ele>
        <time>2018-08-08T15:00:44.000Z</time>
      </trkpt>
      <trkpt lat="42.69744" lon="0.66826">
        <ele>2079.2</ele>
        <time>2018-08-08T15:00:45.000Z</time>
      </trkpt>
      <trkpt lat="42.69744" lon="0.66826">
        <ele>2079.2</ele>
        <time>2018-08-08T15:00:46.000Z</time>
      </trkpt>
      <trkpt lat="42.69744" lon="0.66826">
        <ele>2079.2</ele>
        <time>2018-08-08T15:00:47.000Z</time>
      </trkpt>
      <trkpt lat="42.69744" lon="0.66826">
        <ele>2079.2</ele>
        <time>2018-08-08T15:00:48.000Z</time>
      </trkpt>
      <trkpt lat="42.69744" lon="0.66826">
        <ele>2079.2</ele>
        <time>2018-08-08T15:00:49.000Z</time>
      </trkpt>
      <trkpt lat="42.69744" lon="0.66826">
        <ele>2079.2</ele>
        <time>2018-08-08T15:00:50.000Z</time>
      </trkpt>
      <trkpt lat="42.69744" lon="0.66826">
        <ele>2079.2</ele>
        <time>2018-08-08T15:00:51.000Z</time>
      </trkpt>
      <trkpt lat="42.69744" lon="0.66826">
        <ele>2079.2</ele>
        <time>2018-08-08T15:00:52.000Z</time>
      </trkpt>
      <trkpt lat="42.69744" lon="0.66826">
        <ele>2079.2</ele>
        <time>2018-08-08T15:00:53.000Z</time>
      </trkpt>
      <trkpt lat="42.69744" lon="0.66826">
        <ele>2079.2</ele>
        <time>2018-08-08T15:00:54.000Z</time>
      </trkpt>
      <trkpt lat="42.69744" lon="0.66826">
        <ele>2079.2</ele>
        <time>2018-08-08T15:00:55.000Z</time>
      </trkpt>
      <trkpt lat="42.69744" lon="0.66826">
        <ele>2079.2</ele>
        <time>2018-08-08T15:00:56.000Z</time>
      </trkpt>
      <trkpt lat="42.69744" lon="0.66826">
        <ele>2079.2</ele>
        <time>2018-08-08T15:00:57.000Z</time>
      </trkpt>
      <trkpt lat="42.69744" lon="0.66826">
        <ele>2079.2</ele>
        <time>2018-08-08T15:00:58.000Z</time>
      </trkpt>
      <trkpt lat="42.69744" lon="0.66826">
        <ele>2079.2</ele>
        <time>2018-08-08T15:00:59.000Z</time>
      </trkpt>
      <trkpt lat="42.69744" lon="0.66826">
        <ele>2079.2</ele>
        <time>2018-08-08T15:01:00.000Z</time>
      </trkpt>
      <trkpt lat="42.69744" lon="0.66826">
        <ele>2079.2</ele>
        <time>2018-08-08T15:01:01.000Z</time>
      </trkpt>
      <trkpt lat="42.69744" lon="0.66826">
        <ele>2079.2</ele>
        <time>2018-08-08T15:01:02.000Z</time>
      </trkpt>
      <trkpt lat="42.69744" lon="0.66826">
        <ele>2079.2</ele>
        <time>2018-08-08T15:01:03.000Z</time>
      </trkpt>
      <trkpt lat="42.69744" lon="0.66826">
        <ele>2079.2</ele>
        <time>2018-08-08T15:01:04.000Z</time>
      </trkpt>
      <trkpt lat="42.69744" lon="0.66826">
        <ele>2079.2</ele>
        <time>2018-08-08T15:01:05.000Z</time>
      </trkpt>
      <trkpt lat="42.69744" lon="0.66826">
        <ele>2079.2</ele>
        <time>2018-08-08T15:01:06.000Z</time>
      </trkpt>
      <trkpt lat="42.69744" lon="0.66826">
        <ele>2079.2</ele>
        <time>2018-08-08T15:01:07.000Z</time>
      </trkpt>
      <trkpt lat="42.69744" lon="0.66826">
        <ele>2079.2</ele>
        <time>2018-08-08T15:01:08.000Z</time>
      </trkpt>
      <trkpt lat="42.69744" lon="0.66826">
        <ele>2079.2</ele>
        <time>2018-08-08T15:01:09.000Z</time>
      </trkpt>
      <trkpt lat="42.69744" lon="0.66826">
        <ele>2079.2</ele>
        <time>2018-08-08T15:01:10.000Z</time>
      </trkpt>
      <trkpt lat="42.69744" lon="0.66826">
        <ele>2079.2</ele>
        <time>2018-08-08T15:01:11.000Z</time>
      </trkpt>
      <trkpt lat="42.69744" lon="0.66826">
        <ele>2079.2</ele>
        <time>2018-08-08T15:01:12.000Z</time>
      </trkpt>
      <trkpt lat="42.69744" lon="0.66826">
        <ele>2079.2</ele>
        <time>2018-08-08T15:01:13.000Z</time>
      </trkpt>
      <trkpt lat="42.69744" lon="0.66826">
        <ele>2079.2</ele>
        <time>2018-08-08T15:01:14.000Z</time>
      </trkpt>
      <trkpt lat="42.69744" lon="0.66826">
        <ele>2079.2</ele>
        <time>2018-08-08T15:01:15.000Z</time>
      </trkpt>
      <trkpt lat="42.69744" lon="0.66826">
        <ele>2079.2</ele>
        <time>2018-08-08T15:01:16.000Z</time>
      </trkpt>
      <trkpt lat="42.69744" lon="0.66826">
        <ele>2079.2</ele>
        <time>2018-08-08T15:01:17.000Z</time>
      </trkpt>
      <trkpt lat="42.69744" lon="0.66826">
        <ele>2079.2</ele>
        <time>2018-08-08T15:01:18.000Z</time>
      </trkpt>
      <trkpt lat="42.69744" lon="0.66826">
        <ele>2079.2</ele>
        <time>2018-08-08T15:01:19.000Z</time>
      </trkpt>
      <trkpt lat="42.69744" lon="0.66826">
        <ele>2079.2</ele>
        <time>2018-08-08T15:01:20.000Z</time>
      </trkpt>
      <trkpt lat="42.69744" lon="0.66826">
        <ele>2079.2</ele>
        <time>2018-08-08T15:01:21.000Z</time>
      </trkpt>
      <trkpt lat="42.69744" lon="0.66826">
        <ele>2079.2</ele>
        <time>2018-08-08T15:01:22.000Z</time>
      </trkpt>
      <trkpt lat="42.69744" lon="0.66826">
        <ele>2079.2</ele>
        <time>2018-08-08T15:01:23.000Z</time>
      </trkpt>
      <trkpt lat="42.69744" lon="0.66826">
        <ele>2079.2</ele>
        <time>2018-08-08T15:01:24.000Z</time>
      </trkpt>
      <trkpt lat="42.69744" lon="0.66826">
        <ele>2079.2</ele>
        <time>2018-08-08T15:01:25.000Z</time>
      </trkpt>
      <trkpt lat="42.69744" lon="0.66826">
        <ele>2079.2</ele>
        <time>2018-08-08T15:01:26.000Z</time>
      </trkpt>
      <trkpt lat="42.69744" lon="0.66826">
        <ele>2079.2</ele>
        <time>2018-08-08T15:01:27.000Z</time>
      </trkpt>
      <trkpt lat="42.69744" lon="0.66826">
        <ele>2079.2</ele>
        <time>2018-08-08T15:01:28.000Z</time>
      </trkpt>
      <trkpt lat="42.69744" lon="0.66826">
        <ele>2079.2</ele>
        <time>2018-08-08T15:01:29.000Z</time>
      </trkpt>
      <trkpt lat="42.69744" lon="0.66826">
        <ele>2079.2</ele>
        <time>2018-08-08T15:01:30.000Z</time>
      </trkpt>
      <trkpt lat="42.69744" lon="0.66826">
        <ele>2079.2</ele>
        <time>2018-08-08T15:01:31.000Z</time>
      </trkpt>
      <trkpt lat="42.69744" lon="0.66826">
        <ele>2079.2</ele>
        <time>2018-08-08T15:01:32.000Z</time>
      </trkpt>
      <trkpt lat="42.69744" lon="0.66826">
        <ele>2079.2</ele>
        <time>2018-08-08T15:01:33.000Z</time>
      </trkpt>
      <trkpt lat="42.69744" lon="0.66826">
        <ele>2079.2</ele>
        <time>2018-08-08T15:01:34.000Z</time>
      </trkpt>
      <trkpt lat="42.69744" lon="0.66826">
        <ele>2079.2</ele>
        <time>2018-08-08T15:01:35.000Z</time>
      </trkpt>
      <trkpt lat="42.69744" lon="0.66826">
        <ele>2079.2</ele>
        <time>2018-08-08T15:01:36.000Z</time>
      </trkpt>
      <trkpt lat="42.69744" lon="0.66826">
        <ele>2079.2</ele>
        <time>2018-08-08T15:01:37.000Z</time>
      </trkpt>
      <trkpt lat="42.69744" lon="0.66826">
        <ele>2079.2</ele>
        <time>2018-08-08T15:01:38.000Z</time>
      </trkpt>
      <trkpt lat="42.69744" lon="0.66826">
        <ele>2079.2</ele>
        <time>2018-08-08T15:01:39.000Z</time>
      </trkpt>
      <trkpt lat="42.69744" lon="0.66826">
        <ele>2079.2</ele>
        <time>2018-08-08T15:01:40.000Z</time>
      </trkpt>
      <trkpt lat="42.69744" lon="0.66826">
        <ele>2079.2</ele>
        <time>2018-08-08T15:01:41.000Z</time>
      </trkpt>
      <trkpt lat="42.69744" lon="0.66826">
        <ele>2079.2</ele>
        <time>2018-08-08T15:01:42.000Z</time>
      </trkpt>
      <trkpt lat="42.69744" lon="0.66826">
        <ele>2079.2</ele>
        <time>2018-08-08T15:01:43.000Z</time>
      </trkpt>
      <trkpt lat="42.69744" lon="0.66826">
        <ele>2079.2</ele>
        <time>2018-08-08T15:01:44.000Z</time>
      </trkpt>
      <trkpt lat="42.69744" lon="0.66826">
        <ele>2079.2</ele>
        <time>2018-08-08T15:01:45.000Z</time>
      </trkpt>
      <trkpt lat="42.69744" lon="0.66826">
        <ele>2079.2</ele>
        <time>2018-08-08T15:01:46.000Z</time>
      </trkpt>
      <trkpt lat="42.69744" lon="0.66826">
        <ele>2079.2</ele>
        <time>2018-08-08T15:01:47.000Z</time>
      </trkpt>
      <trkpt lat="42.69744" lon="0.66826">
        <ele>2079.2</ele>
        <time>2018-08-08T15:01:48.000Z</time>
      </trkpt>
      <trkpt lat="42.69744" lon="0.66826">
        <ele>2079.2</ele>
        <time>2018-08-08T15:01:49.000Z</time>
      </trkpt>
      <trkpt lat="42.69744" lon="0.66826">
        <ele>2079.2</ele>
        <time>2018-08-08T15:01:50.000Z</time>
      </trkpt>
      <trkpt lat="42.69744" lon="0.66826">
        <ele>2079.2</ele>
        <time>2018-08-08T15:01:51.000Z</time>
      </trkpt>
      <trkpt lat="42.69744" lon="0.66826">
        <ele>2079.2</ele>
        <time>2018-08-08T15:01:52.000Z</time>
      </trkpt>
      <trkpt lat="42.69744" lon="0.66826">
        <ele>2079.2</ele>
        <time>2018-08-08T15:01:53.000Z</time>
      </trkpt>
      <trkpt lat="42.69744" lon="0.66826">
        <ele>2079.2</ele>
        <time>2018-08-08T15:01:54.000Z</time>
      </trkpt>
      <trkpt lat="42.69744" lon="0.66826">
        <ele>2079.2</ele>
        <time>2018-08-08T15:01:55.000Z</time>
      </trkpt>
      <trkpt lat="42.69744" lon="0.66826">
        <ele>2079.2</ele>
        <time>2018-08-08T15:01:56.000Z</time>
      </trkpt>
      <trkpt lat="42.69744" lon="0.66826">
        <ele>2079.2</ele>
        <time>2018-08-08T15:01:57.000Z</time>
      </trkpt>
      <trkpt lat="42.69744" lon="0.66826">
        <ele>2079.2</ele>
        <time>2018-08-08T15:01:58.000Z</time>
      </trkpt>
      <trkpt lat="42.69744" lon="0.66826">
        <ele>2079.2</ele>
        <time>2018-08-08T15:01:59.000Z</time>
      </trkpt>
      <trkpt lat="42.69744" lon="0.66826">
        <ele>2079.2</ele>
        <time>2018-08-08T15:02:00.000Z</time>
      </trkpt>
      <trkpt lat="42.69744" lon="0.66826">
        <ele>2079.2</ele>
        <time>2018-08-08T15:02:01.000Z</time>
      </trkpt>
      <trkpt lat="42.69744" lon="0.66826">
        <ele>2079.2</ele>
        <time>2018-08-08T15:02:02.000Z</time>
      </trkpt>
      <trkpt lat="42.69744" lon="0.66826">
        <ele>2079.2</ele>
        <time>2018-08-08T15:02:03.000Z</time>
      </trkpt>
      <trkpt lat="42.69744" lon="0.66826">
        <ele>2079.2</ele>
        <time>2018-08-08T15:02:04.000Z</time>
      </trkpt>
      <trkpt lat="42.69744" lon="0.66826">
        <ele>2079.2</ele>
        <time>2018-08-08T15:02:05.000Z</time>
      </trkpt>
      <trkpt lat="42.69744" lon="0.66826">
        <ele>2079.2</ele>
        <time>2018-08-08T15:02:06.000Z</time>
      </trkpt>
      <trkpt lat="42.69744" lon="0.66826">
        <ele>2079.2</ele>
        <time>2018-08-08T15:02:07.000Z</time>
      </trkpt>
      <trkpt lat="42.69744" lon="0.66826">
        <ele>2079.2</ele>
        <time>2018-08-08T15:02:08.000Z</time>
      </trkpt>
      <trkpt lat="42.69744" lon="0.66826">
        <ele>2079.2</ele>
        <time>2018-08-08T15:02:09.000Z</time>
      </trkpt>
      <trkpt lat="42.69744" lon="0.66826">
        <ele>2079.2</ele>
        <time>2018-08-08T15:02:10.000Z</time>
      </trkpt>
      <trkpt lat="42.69744" lon="0.66826">
        <ele>2079.2</ele>
        <time>2018-08-08T15:02:11.000Z</time>
      </trkpt>
      <trkpt lat="42.69744" lon="0.66826">
        <ele>2079.2</ele>
        <time>2018-08-08T15:02:12.000Z</time>
      </trkpt>
      <trkpt lat="42.69744" lon="0.66826">
        <ele>2079.2</ele>
        <time>2018-08-08T15:02:13.000Z</time>
      </trkpt>
      <trkpt lat="42.69744" lon="0.66826">
        <ele>2079.2</ele>
        <time>2018-08-08T15:02:14.000Z</time>
      </trkpt>
      <trkpt lat="42.69744" lon="0.66826">
        <ele>2079.2</ele>
        <time>2018-08-08T15:02:15.000Z</time>
      </trkpt>
      <trkpt lat="42.69744" lon="0.66826">
        <ele>2079.2</ele>
        <time>2018-08-08T15:02:16.000Z</time>
      </trkpt>
      <trkpt lat="42.69744" lon="0.66826">
        <ele>2079.2</ele>
        <time>2018-08-08T15:02:17.000Z</time>
      </trkpt>
      <trkpt lat="42.69744" lon="0.66826">
        <ele>2079.2</ele>
        <time>2018-08-08T15:02:18.000Z</time>
      </trkpt>
      <trkpt lat="42.69744" lon="0.66826">
        <ele>2079.2</ele>
        <time>2018-08-08T15:02:19.000Z</time>
      </trkpt>
      <trkpt lat="42.69744" lon="0.66826">
        <ele>2079.2</ele>
        <time>2018-08-08T15:02:20.000Z</time>
      </trkpt>
      <trkpt lat="42.69744" lon="0.66826">
        <ele>2079.2</ele>
        <time>2018-08-08T15:02:21.000Z</time>
      </trkpt>
      <trkpt lat="42.69744" lon="0.66826">
        <ele>2079.2</ele>
        <time>2018-08-08T15:02:22.000Z</time>
      </trkpt>
      <trkpt lat="42.69744" lon="0.66826">
        <ele>2079.2</ele>
        <time>2018-08-08T15:02:23.000Z</time>
      </trkpt>
      <trkpt lat="42.69744" lon="0.66826">
        <ele>2079.2</ele>
        <time>2018-08-08T15:02:24.000Z</time>
      </trkpt>
      <trkpt lat="42.69744" lon="0.66826">
        <ele>2079.2</ele>
        <time>2018-08-08T15:02:25.000Z</time>
      </trkpt>
      <trkpt lat="42.69744" lon="0.66826">
        <ele>2079.2</ele>
        <time>2018-08-08T15:02:26.000Z</time>
      </trkpt>
      <trkpt lat="42.69744" lon="0.66826">
        <ele>2079.2</ele>
        <time>2018-08-08T15:02:27.000Z</time>
      </trkpt>
      <trkpt lat="42.69744" lon="0.66826">
        <ele>2079.2</ele>
        <time>2018-08-08T15:02:28.000Z</time>
      </trkpt>
      <trkpt lat="42.69744" lon="0.66826">
        <ele>2079.2</ele>
        <time>2018-08-08T15:02:29.000Z</time>
      </trkpt>
      <trkpt lat="42.69744" lon="0.66826">
        <ele>2079.2</ele>
        <time>2018-08-08T15:02:30.000Z</time>
      </trkpt>
      <trkpt lat="42.69744" lon="0.66826">
        <ele>2079.2</ele>
        <time>2018-08-08T15:02:31.000Z</time>
      </trkpt>
      <trkpt lat="42.69744" lon="0.66826">
        <ele>2079.2</ele>
        <time>2018-08-08T15:02:32.000Z</time>
      </trkpt>
      <trkpt lat="42.69744" lon="0.66826">
        <ele>2079.2</ele>
        <time>2018-08-08T15:02:33.000Z</time>
      </trkpt>
      <trkpt lat="42.69744" lon="0.66826">
        <ele>2079.2</ele>
        <time>2018-08-08T15:02:34.000Z</time>
      </trkpt>
      <trkpt lat="42.69744" lon="0.66826">
        <ele>2079.2</ele>
        <time>2018-08-08T15:02:35.000Z</time>
      </trkpt>
      <trkpt lat="42.69744" lon="0.66826">
        <ele>2079.2</ele>
        <time>2018-08-08T15:02:36.000Z</time>
      </trkpt>
      <trkpt lat="42.69744" lon="0.66826">
        <ele>2079.2</ele>
        <time>2018-08-08T15:02:37.000Z</time>
      </trkpt>
      <trkpt lat="42.69744" lon="0.66826">
        <ele>2079.2</ele>
        <time>2018-08-08T15:02:38.000Z</time>
      </trkpt>
      <trkpt lat="42.69744" lon="0.66826">
        <ele>2079.2</ele>
        <time>2018-08-08T15:02:39.000Z</time>
      </trkpt>
      <trkpt lat="42.69744" lon="0.66826">
        <ele>2079.2</ele>
        <time>2018-08-08T15:02:40.000Z</time>
      </trkpt>
      <trkpt lat="42.69744" lon="0.66826">
        <ele>2079.2</ele>
        <time>2018-08-08T15:02:41.000Z</time>
      </trkpt>
      <trkpt lat="42.69744" lon="0.66826">
        <ele>2079.2</ele>
        <time>2018-08-08T15:02:42.000Z</time>
      </trkpt>
      <trkpt lat="42.69744" lon="0.66826">
        <ele>2079.2</ele>
        <time>2018-08-08T15:02:43.000Z</time>
      </trkpt>
      <trkpt lat="42.69744" lon="0.66826">
        <ele>2079.2</ele>
        <time>2018-08-08T15:02:44.000Z</time>
      </trkpt>
      <trkpt lat="42.69744" lon="0.66826">
        <ele>2079.2</ele>
        <time>2018-08-08T15:02:45.000Z</time>
      </trkpt>
      <trkpt lat="42.69744" lon="0.66826">
        <ele>2079.2</ele>
        <time>2018-08-08T15:02:46.000Z</time>
      </trkpt>
      <trkpt lat="42.69744" lon="0.66826">
        <ele>2079.2</ele>
        <time>2018-08-08T15:02:47.000Z</time>
      </trkpt>
      <trkpt lat="42.69744" lon="0.66826">
        <ele>2079.2</ele>
        <time>2018-08-08T15:02:48.000Z</time>
      </trkpt>
      <trkpt lat="42.69744" lon="0.66826">
        <ele>2079.2</ele>
        <time>2018-08-08T15:02:49.000Z</time>
      </trkpt>
      <trkpt lat="42.69744" lon="0.66826">
        <ele>2079.2</ele>
        <time>2018-08-08T15:02:50.000Z</time>
      </trkpt>
      <trkpt lat="42.69744" lon="0.66826">
        <ele>2079.2</ele>
        <time>2018-08-08T15:02:51.000Z</time>
      </trkpt>
      <trkpt lat="42.69744" lon="0.66826">
        <ele>2079.2</ele>
        <time>2018-08-08T15:02:52.000Z</time>
      </trkpt>
      <trkpt lat="42.69744" lon="0.66826">
        <ele>2079.2</ele>
        <time>2018-08-08T15:02:53.000Z</time>
      </trkpt>
      <trkpt lat="42.69744" lon="0.66826">
        <ele>2079.2</ele>
        <time>2018-08-08T15:02:54.000Z</time>
      </trkpt>
      <trkpt lat="42.69744" lon="0.66826">
        <ele>2079.2</ele>
        <time>2018-08-08T15:02:55.000Z</time>
      </trkpt>
      <trkpt lat="42.69744" lon="0.66826">
        <ele>2079.2</ele>
        <time>2018-08-08T15:02:56.000Z</time>
      </trkpt>
      <trkpt lat="42.69744" lon="0.66826">
        <ele>2079.2</ele>
        <time>2018-08-08T15:02:57.000Z</time>
      </trkpt>
      <trkpt lat="42.69744" lon="0.66826">
        <ele>2079.3</ele>
        <time>2018-08-08T15:02:58.000Z</time>
      </trkpt>
      <trkpt lat="42.69744" lon="0.66826">
        <ele>2079.3</ele>
        <time>2018-08-08T15:02:59.000Z</time>
      </trkpt>
      <trkpt lat="42.69744" lon="0.66826">
        <ele>2079.3</ele>
        <time>2018-08-08T15:03:00.000Z</time>
      </trkpt>
      <trkpt lat="42.69744" lon="0.66826">
        <ele>2079.3</ele>
        <time>2018-08-08T15:03:01.000Z</time>
      </trkpt>
      <trkpt lat="42.69744" lon="0.66826">
        <ele>2079.2</ele>
        <time>2018-08-08T15:03:02.000Z</time>
      </trkpt>
      <trkpt lat="42.69744" lon="0.66826">
        <ele>2079.2</ele>
        <time>2018-08-08T15:03:03.000Z</time>
      </trkpt>
      <trkpt lat="42.69745" lon="0.66826">
        <ele>2079.1</ele>
        <time>2018-08-08T15:03:04.000Z</time>
      </trkpt>
      <trkpt lat="42.69745" lon="0.66827">
        <ele>2079.1</ele>
        <time>2018-08-08T15:03:05.000Z</time>
      </trkpt>
      <trkpt lat="42.69745" lon="0.66828">
        <ele>2079</ele>
        <time>2018-08-08T15:03:06.000Z</time>
      </trkpt>
      <trkpt lat="42.69745" lon="0.66828">
        <ele>2079</ele>
        <time>2018-08-08T15:03:07.000Z</time>
      </trkpt>
      <trkpt lat="42.69746" lon="0.66828">
        <ele>2078.9</ele>
        <time>2018-08-08T15:03:08.000Z</time>
      </trkpt>
      <trkpt lat="42.69746" lon="0.66828">
        <ele>2078.9</ele>
        <time>2018-08-08T15:03:09.000Z</time>
      </trkpt>
      <trkpt lat="42.69746" lon="0.66828">
        <ele>2078.9</ele>
        <time>2018-08-08T15:03:10.000Z</time>
      </trkpt>
      <trkpt lat="42.69746" lon="0.66828">
        <ele>2078.8</ele>
        <time>2018-08-08T15:03:11.000Z</time>
      </trkpt>
      <trkpt lat="42.69746" lon="0.66828">
        <ele>2078.8</ele>
        <time>2018-08-08T15:03:12.000Z</time>
      </trkpt>
      <trkpt lat="42.69746" lon="0.66828">
        <ele>2078.8</ele>
        <time>2018-08-08T15:03:13.000Z</time>
      </trkpt>
      <trkpt lat="42.69746" lon="0.66828">
        <ele>2078.8</ele>
        <time>2018-08-08T15:03:14.000Z</time>
      </trkpt>
      <trkpt lat="42.69746" lon="0.66828">
        <ele>2078.8</ele>
        <time>2018-08-08T15:03:15.000Z</time>
      </trkpt>
      <trkpt lat="42.69746" lon="0.66828">
        <ele>2078.8</ele>
        <time>2018-08-08T15:03:16.000Z</time>
      </trkpt>
      <trkpt lat="42.69746" lon="0.66828">
        <ele>2078.8</ele>
        <time>2018-08-08T15:03:17.000Z</time>
      </trkpt>
      <trkpt lat="42.69746" lon="0.66828">
        <ele>2078.8</ele>
        <time>2018-08-08T15:03:18.000Z</time>
      </trkpt>
      <trkpt lat="42.69746" lon="0.66828">
        <ele>2078.8</ele>
        <time>2018-08-08T15:03:19.000Z</time>
      </trkpt>
      <trkpt lat="42.69746" lon="0.66828">
        <ele>2078.8</ele>
        <time>2018-08-08T15:03:20.000Z</time>
      </trkpt>
      <trkpt lat="42.69746" lon="0.66828">
        <ele>2078.8</ele>
        <time>2018-08-08T15:03:21.000Z</time>
      </trkpt>
      <trkpt lat="42.69746" lon="0.66828">
        <ele>2078.8</ele>
        <time>2018-08-08T15:03:22.000Z</time>
      </trkpt>
      <trkpt lat="42.69746" lon="0.66828">
        <ele>2078.8</ele>
        <time>2018-08-08T15:03:23.000Z</time>
      </trkpt>
      <trkpt lat="42.69746" lon="0.66828">
        <ele>2078.8</ele>
        <time>2018-08-08T15:03:24.000Z</time>
      </trkpt>
      <trkpt lat="42.69746" lon="0.66828">
        <ele>2078.8</ele>
        <time>2018-08-08T15:03:25.000Z</time>
      </trkpt>
      <trkpt lat="42.69746" lon="0.66828">
        <ele>2078.8</ele>
        <time>2018-08-08T15:03:26.000Z</time>
      </trkpt>
      <trkpt lat="42.69746" lon="0.66828">
        <ele>2078.8</ele>
        <time>2018-08-08T15:03:27.000Z</time>
      </trkpt>
      <trkpt lat="42.69746" lon="0.66828">
        <ele>2078.8</ele>
        <time>2018-08-08T15:03:28.000Z</time>
      </trkpt>
      <trkpt lat="42.69746" lon="0.66828">
        <ele>2078.8</ele>
        <time>2018-08-08T15:03:29.000Z</time>
      </trkpt>
      <trkpt lat="42.69746" lon="0.66828">
        <ele>2078.8</ele>
        <time>2018-08-08T15:03:30.000Z</time>
      </trkpt>
      <trkpt lat="42.69746" lon="0.66828">
        <ele>2078.8</ele>
        <time>2018-08-08T15:03:31.000Z</time>
      </trkpt>
      <trkpt lat="42.69746" lon="0.66828">
        <ele>2078.8</ele>
        <time>2018-08-08T15:03:32.000Z</time>
      </trkpt>
      <trkpt lat="42.69746" lon="0.66828">
        <ele>2078.8</ele>
        <time>2018-08-08T15:03:33.000Z</time>
      </trkpt>
      <trkpt lat="42.69746" lon="0.66827">
        <ele>2078.8</ele>
        <time>2018-08-08T15:03:34.000Z</time>
      </trkpt>
      <trkpt lat="42.69746" lon="0.66827">
        <ele>2078.8</ele>
        <time>2018-08-08T15:03:35.000Z</time>
      </trkpt>
      <trkpt lat="42.69746" lon="0.66827">
        <ele>2078.8</ele>
        <time>2018-08-08T15:03:36.000Z</time>
      </trkpt>
      <trkpt lat="42.69746" lon="0.66827">
        <ele>2078.8</ele>
        <time>2018-08-08T15:03:37.000Z</time>
      </trkpt>
      <trkpt lat="42.69746" lon="0.66826">
        <ele>2078.8</ele>
        <time>2018-08-08T15:03:38.000Z</time>
      </trkpt>
      <trkpt lat="42.69746" lon="0.66826">
        <ele>2078.8</ele>
        <time>2018-08-08T15:03:39.000Z</time>
      </trkpt>
      <trkpt lat="42.69746" lon="0.66826">
        <ele>2078.8</ele>
        <time>2018-08-08T15:03:40.000Z</time>
      </trkpt>
      <trkpt lat="42.69746" lon="0.66826">
        <ele>2078.7</ele>
        <time>2018-08-08T15:03:41.000Z</time>
      </trkpt>
      <trkpt lat="42.69746" lon="0.66826">
        <ele>2078.7</ele>
        <time>2018-08-08T15:03:42.000Z</time>
      </trkpt>
      <trkpt lat="42.69746" lon="0.66825">
        <ele>2078.7</ele>
        <time>2018-08-08T15:03:43.000Z</time>
      </trkpt>
      <trkpt lat="42.69746" lon="0.66825">
        <ele>2078.7</ele>
        <time>2018-08-08T15:03:44.000Z</time>
      </trkpt>
      <trkpt lat="42.69746" lon="0.66825">
        <ele>2078.7</ele>
        <time>2018-08-08T15:03:45.000Z</time>
      </trkpt>
      <trkpt lat="42.69746" lon="0.66825">
        <ele>2078.7</ele>
        <time>2018-08-08T15:03:46.000Z</time>
      </trkpt>
      <trkpt lat="42.69746" lon="0.66825">
        <ele>2078.7</ele>
        <time>2018-08-08T15:03:47.000Z</time>
      </trkpt>
      <trkpt lat="42.69746" lon="0.66825">
        <ele>2078.7</ele>
        <time>2018-08-08T15:03:48.000Z</time>
      </trkpt>
      <trkpt lat="42.69746" lon="0.66825">
        <ele>2078.7</ele>
        <time>2018-08-08T15:03:49.000Z</time>
      </trkpt>
      <trkpt lat="42.69746" lon="0.66825">
        <ele>2078.7</ele>
        <time>2018-08-08T15:03:50.000Z</time>
      </trkpt>
      <trkpt lat="42.69746" lon="0.66825">
        <ele>2078.7</ele>
        <time>2018-08-08T15:03:51.000Z</time>
      </trkpt>
      <trkpt lat="42.69746" lon="0.66825">
        <ele>2078.7</ele>
        <time>2018-08-08T15:03:52.000Z</time>
      </trkpt>
      <trkpt lat="42.69746" lon="0.66825">
        <ele>2078.7</ele>
        <time>2018-08-08T15:03:53.000Z</time>
      </trkpt>
      <trkpt lat="42.69746" lon="0.66825">
        <ele>2078.7</ele>
        <time>2018-08-08T15:03:54.000Z</time>
      </trkpt>
      <trkpt lat="42.69746" lon="0.66825">
        <ele>2078.7</ele>
        <time>2018-08-08T15:03:55.000Z</time>
      </trkpt>
      <trkpt lat="42.69746" lon="0.66825">
        <ele>2078.7</ele>
        <time>2018-08-08T15:03:56.000Z</time>
      </trkpt>
      <trkpt lat="42.69746" lon="0.66825">
        <ele>2078.7</ele>
        <time>2018-08-08T15:03:57.000Z</time>
      </trkpt>
      <trkpt lat="42.69746" lon="0.66825">
        <ele>2078.7</ele>
        <time>2018-08-08T15:03:58.000Z</time>
      </trkpt>
      <trkpt lat="42.69746" lon="0.66825">
        <ele>2078.7</ele>
        <time>2018-08-08T15:03:59.000Z</time>
      </trkpt>
      <trkpt lat="42.69746" lon="0.66825">
        <ele>2078.7</ele>
        <time>2018-08-08T15:04:00.000Z</time>
      </trkpt>
      <trkpt lat="42.69746" lon="0.66825">
        <ele>2078.7</ele>
        <time>2018-08-08T15:04:01.000Z</time>
      </trkpt>
      <trkpt lat="42.69746" lon="0.66825">
        <ele>2078.7</ele>
        <time>2018-08-08T15:04:02.000Z</time>
      </trkpt>
      <trkpt lat="42.69746" lon="0.66825">
        <ele>2078.7</ele>
        <time>2018-08-08T15:04:03.000Z</time>
      </trkpt>
      <trkpt lat="42.69746" lon="0.66825">
        <ele>2078.7</ele>
        <time>2018-08-08T15:04:04.000Z</time>
      </trkpt>
      <trkpt lat="42.69746" lon="0.66825">
        <ele>2078.7</ele>
        <time>2018-08-08T15:04:05.000Z</time>
      </trkpt>
      <trkpt lat="42.69746" lon="0.66825">
        <ele>2078.7</ele>
        <time>2018-08-08T15:04:06.000Z</time>
      </trkpt>
      <trkpt lat="42.69746" lon="0.66825">
        <ele>2078.7</ele>
        <time>2018-08-08T15:04:07.000Z</time>
      </trkpt>
      <trkpt lat="42.69746" lon="0.66825">
        <ele>2078.7</ele>
        <time>2018-08-08T15:04:08.000Z</time>
      </trkpt>
      <trkpt lat="42.69746" lon="0.66825">
        <ele>2078.7</ele>
        <time>2018-08-08T15:04:09.000Z</time>
      </trkpt>
      <trkpt lat="42.69746" lon="0.66825">
        <ele>2078.7</ele>
        <time>2018-08-08T15:04:10.000Z</time>
      </trkpt>
      <trkpt lat="42.69746" lon="0.66825">
        <ele>2078.7</ele>
        <time>2018-08-08T15:04:11.000Z</time>
      </trkpt>
      <trkpt lat="42.69746" lon="0.66825">
        <ele>2078.7</ele>
        <time>2018-08-08T15:04:12.000Z</time>
      </trkpt>
      <trkpt lat="42.69746" lon="0.66825">
        <ele>2078.7</ele>
        <time>2018-08-08T15:04:13.000Z</time>
      </trkpt>
      <trkpt lat="42.69746" lon="0.66825">
        <ele>2078.7</ele>
        <time>2018-08-08T15:04:14.000Z</time>
      </trkpt>
      <trkpt lat="42.69746" lon="0.66825">
        <ele>2078.7</ele>
        <time>2018-08-08T15:04:15.000Z</time>
      </trkpt>
      <trkpt lat="42.69746" lon="0.66825">
        <ele>2078.7</ele>
        <time>2018-08-08T15:04:16.000Z</time>
      </trkpt>
      <trkpt lat="42.69746" lon="0.66825">
        <ele>2078.7</ele>
        <time>2018-08-08T15:04:17.000Z</time>
      </trkpt>
      <trkpt lat="42.69746" lon="0.66825">
        <ele>2078.7</ele>
        <time>2018-08-08T15:04:18.000Z</time>
      </trkpt>
      <trkpt lat="42.69746" lon="0.66825">
        <ele>2078.7</ele>
        <time>2018-08-08T15:04:19.000Z</time>
      </trkpt>
      <trkpt lat="42.69746" lon="0.66825">
        <ele>2078.7</ele>
        <time>2018-08-08T15:04:20.000Z</time>
      </trkpt>
      <trkpt lat="42.69746" lon="0.66825">
        <ele>2078.7</ele>
        <time>2018-08-08T15:04:21.000Z</time>
      </trkpt>
      <trkpt lat="42.69746" lon="0.66825">
        <ele>2078.7</ele>
        <time>2018-08-08T15:04:22.000Z</time>
      </trkpt>
      <trkpt lat="42.69746" lon="0.66825">
        <ele>2078.7</ele>
        <time>2018-08-08T15:04:23.000Z</time>
      </trkpt>
      <trkpt lat="42.69746" lon="0.66825">
        <ele>2078.7</ele>
        <time>2018-08-08T15:04:24.000Z</time>
      </trkpt>
      <trkpt lat="42.69746" lon="0.66825">
        <ele>2078.7</ele>
        <time>2018-08-08T15:04:25.000Z</time>
      </trkpt>
      <trkpt lat="42.69746" lon="0.66825">
        <ele>2078.7</ele>
        <time>2018-08-08T15:04:26.000Z</time>
      </trkpt>
      <trkpt lat="42.69746" lon="0.66825">
        <ele>2078.7</ele>
        <time>2018-08-08T15:04:27.000Z</time>
      </trkpt>
      <trkpt lat="42.69746" lon="0.66825">
        <ele>2078.7</ele>
        <time>2018-08-08T15:04:28.000Z</time>
      </trkpt>
      <trkpt lat="42.69746" lon="0.66825">
        <ele>2078.7</ele>
        <time>2018-08-08T15:04:29.000Z</time>
      </trkpt>
      <trkpt lat="42.69746" lon="0.66825">
        <ele>2078.7</ele>
        <time>2018-08-08T15:04:30.000Z</time>
      </trkpt>
      <trkpt lat="42.69746" lon="0.66825">
        <ele>2078.7</ele>
        <time>2018-08-08T15:04:31.000Z</time>
      </trkpt>
      <trkpt lat="42.69746" lon="0.66825">
        <ele>2078.7</ele>
        <time>2018-08-08T15:04:32.000Z</time>
      </trkpt>
      <trkpt lat="42.69746" lon="0.66825">
        <ele>2078.7</ele>
        <time>2018-08-08T15:04:33.000Z</time>
      </trkpt>
      <trkpt lat="42.69746" lon="0.66825">
        <ele>2078.7</ele>
        <time>2018-08-08T15:04:34.000Z</time>
      </trkpt>
      <trkpt lat="42.69746" lon="0.66825">
        <ele>2078.7</ele>
        <time>2018-08-08T15:04:35.000Z</time>
      </trkpt>
      <trkpt lat="42.69746" lon="0.66825">
        <ele>2078.7</ele>
        <time>2018-08-08T15:04:36.000Z</time>
      </trkpt>
      <trkpt lat="42.69746" lon="0.66825">
        <ele>2078.7</ele>
        <time>2018-08-08T15:04:37.000Z</time>
      </trkpt>
      <trkpt lat="42.69746" lon="0.66825">
        <ele>2078.7</ele>
        <time>2018-08-08T15:04:38.000Z</time>
      </trkpt>
      <trkpt lat="42.69746" lon="0.66825">
        <ele>2078.7</ele>
        <time>2018-08-08T15:04:39.000Z</time>
      </trkpt>
      <trkpt lat="42.69746" lon="0.66825">
        <ele>2078.7</ele>
        <time>2018-08-08T15:04:40.000Z</time>
      </trkpt>
      <trkpt lat="42.69746" lon="0.66825">
        <ele>2078.7</ele>
        <time>2018-08-08T15:04:41.000Z</time>
      </trkpt>
      <trkpt lat="42.69746" lon="0.66825">
        <ele>2078.7</ele>
        <time>2018-08-08T15:04:42.000Z</time>
      </trkpt>
      <trkpt lat="42.69746" lon="0.66825">
        <ele>2078.7</ele>
        <time>2018-08-08T15:04:43.000Z</time>
      </trkpt>
      <trkpt lat="42.69746" lon="0.66825">
        <ele>2078.7</ele>
        <time>2018-08-08T15:04:44.000Z</time>
      </trkpt>
      <trkpt lat="42.69746" lon="0.66825">
        <ele>2078.7</ele>
        <time>2018-08-08T15:04:45.000Z</time>
      </trkpt>
      <trkpt lat="42.69746" lon="0.66825">
        <ele>2078.7</ele>
        <time>2018-08-08T15:04:46.000Z</time>
      </trkpt>
      <trkpt lat="42.69746" lon="0.66825">
        <ele>2078.7</ele>
        <time>2018-08-08T15:04:47.000Z</time>
      </trkpt>
      <trkpt lat="42.69746" lon="0.66825">
        <ele>2078.7</ele>
        <time>2018-08-08T15:04:48.000Z</time>
      </trkpt>
      <trkpt lat="42.69746" lon="0.66825">
        <ele>2078.7</ele>
        <time>2018-08-08T15:04:49.000Z</time>
      </trkpt>
      <trkpt lat="42.69746" lon="0.66825">
        <ele>2078.7</ele>
        <time>2018-08-08T15:04:50.000Z</time>
      </trkpt>
      <trkpt lat="42.69746" lon="0.66825">
        <ele>2078.7</ele>
        <time>2018-08-08T15:04:51.000Z</time>
      </trkpt>
      <trkpt lat="42.69746" lon="0.66825">
        <ele>2078.7</ele>
        <time>2018-08-08T15:04:52.000Z</time>
      </trkpt>
      <trkpt lat="42.69746" lon="0.66825">
        <ele>2078.7</ele>
        <time>2018-08-08T15:04:53.000Z</time>
      </trkpt>
      <trkpt lat="42.69746" lon="0.66825">
        <ele>2078.7</ele>
        <time>2018-08-08T15:04:54.000Z</time>
      </trkpt>
      <trkpt lat="42.69746" lon="0.66825">
        <ele>2078.7</ele>
        <time>2018-08-08T15:04:55.000Z</time>
      </trkpt>
      <trkpt lat="42.69746" lon="0.66825">
        <ele>2078.7</ele>
        <time>2018-08-08T15:04:56.000Z</time>
      </trkpt>
      <trkpt lat="42.69746" lon="0.66825">
        <ele>2078.7</ele>
        <time>2018-08-08T15:04:57.000Z</time>
      </trkpt>
      <trkpt lat="42.69746" lon="0.66825">
        <ele>2078.7</ele>
        <time>2018-08-08T15:04:58.000Z</time>
      </trkpt>
      <trkpt lat="42.69746" lon="0.66825">
        <ele>2078.7</ele>
        <time>2018-08-08T15:04:59.000Z</time>
      </trkpt>
      <trkpt lat="42.69746" lon="0.66825">
        <ele>2078.7</ele>
        <time>2018-08-08T15:05:00.000Z</time>
      </trkpt>
      <trkpt lat="42.69746" lon="0.66825">
        <ele>2078.7</ele>
        <time>2018-08-08T15:05:01.000Z</time>
      </trkpt>
      <trkpt lat="42.69746" lon="0.66825">
        <ele>2078.7</ele>
        <time>2018-08-08T15:05:02.000Z</time>
      </trkpt>
      <trkpt lat="42.69746" lon="0.66825">
        <ele>2078.7</ele>
        <time>2018-08-08T15:05:03.000Z</time>
      </trkpt>
      <trkpt lat="42.69746" lon="0.66825">
        <ele>2078.7</ele>
        <time>2018-08-08T15:05:04.000Z</time>
      </trkpt>
      <trkpt lat="42.69746" lon="0.66825">
        <ele>2078.7</ele>
        <time>2018-08-08T15:05:05.000Z</time>
      </trkpt>
      <trkpt lat="42.69746" lon="0.66825">
        <ele>2078.7</ele>
        <time>2018-08-08T15:05:06.000Z</time>
      </trkpt>
      <trkpt lat="42.69746" lon="0.66825">
        <ele>2078.7</ele>
        <time>2018-08-08T15:05:07.000Z</time>
      </trkpt>
      <trkpt lat="42.69746" lon="0.66825">
        <ele>2078.7</ele>
        <time>2018-08-08T15:05:08.000Z</time>
      </trkpt>
      <trkpt lat="42.69746" lon="0.66825">
        <ele>2078.7</ele>
        <time>2018-08-08T15:05:09.000Z</time>
      </trkpt>
      <trkpt lat="42.69746" lon="0.66825">
        <ele>2078.7</ele>
        <time>2018-08-08T15:05:10.000Z</time>
      </trkpt>
      <trkpt lat="42.69746" lon="0.66825">
        <ele>2078.7</ele>
        <time>2018-08-08T15:05:11.000Z</time>
      </trkpt>
      <trkpt lat="42.69746" lon="0.66825">
        <ele>2078.7</ele>
        <time>2018-08-08T15:05:12.000Z</time>
      </trkpt>
      <trkpt lat="42.69746" lon="0.66825">
        <ele>2078.7</ele>
        <time>2018-08-08T15:05:13.000Z</time>
      </trkpt>
      <trkpt lat="42.69746" lon="0.66825">
        <ele>2078.7</ele>
        <time>2018-08-08T15:05:14.000Z</time>
      </trkpt>
      <trkpt lat="42.69746" lon="0.66825">
        <ele>2078.7</ele>
        <time>2018-08-08T15:05:15.000Z</time>
      </trkpt>
      <trkpt lat="42.69746" lon="0.66825">
        <ele>2078.7</ele>
        <time>2018-08-08T15:05:16.000Z</time>
      </trkpt>
      <trkpt lat="42.69746" lon="0.66825">
        <ele>2078.7</ele>
        <time>2018-08-08T15:05:17.000Z</time>
      </trkpt>
      <trkpt lat="42.69746" lon="0.66825">
        <ele>2078.7</ele>
        <time>2018-08-08T15:05:18.000Z</time>
      </trkpt>
      <trkpt lat="42.69746" lon="0.66825">
        <ele>2078.7</ele>
        <time>2018-08-08T15:05:19.000Z</time>
      </trkpt>
      <trkpt lat="42.69746" lon="0.66825">
        <ele>2078.7</ele>
        <time>2018-08-08T15:05:20.000Z</time>
      </trkpt>
      <trkpt lat="42.69746" lon="0.66825">
        <ele>2078.7</ele>
        <time>2018-08-08T15:05:21.000Z</time>
      </trkpt>
      <trkpt lat="42.69746" lon="0.66825">
        <ele>2078.7</ele>
        <time>2018-08-08T15:05:22.000Z</time>
      </trkpt>
      <trkpt lat="42.69746" lon="0.66825">
        <ele>2078.7</ele>
        <time>2018-08-08T15:05:23.000Z</time>
      </trkpt>
      <trkpt lat="42.69746" lon="0.66825">
        <ele>2078.7</ele>
        <time>2018-08-08T15:05:24.000Z</time>
      </trkpt>
      <trkpt lat="42.69746" lon="0.66825">
        <ele>2078.7</ele>
        <time>2018-08-08T15:05:25.000Z</time>
      </trkpt>
      <trkpt lat="42.69746" lon="0.66825">
        <ele>2078.7</ele>
        <time>2018-08-08T15:05:26.000Z</time>
      </trkpt>
      <trkpt lat="42.69746" lon="0.66825">
        <ele>2078.7</ele>
        <time>2018-08-08T15:05:27.000Z</time>
      </trkpt>
      <trkpt lat="42.69746" lon="0.66825">
        <ele>2078.7</ele>
        <time>2018-08-08T15:05:28.000Z</time>
      </trkpt>
      <trkpt lat="42.69746" lon="0.66825">
        <ele>2078.7</ele>
        <time>2018-08-08T15:05:29.000Z</time>
      </trkpt>
      <trkpt lat="42.69746" lon="0.66825">
        <ele>2078.7</ele>
        <time>2018-08-08T15:05:30.000Z</time>
      </trkpt>
      <trkpt lat="42.69746" lon="0.66825">
        <ele>2078.7</ele>
        <time>2018-08-08T15:05:31.000Z</time>
      </trkpt>
      <trkpt lat="42.69746" lon="0.66825">
        <ele>2078.7</ele>
        <time>2018-08-08T15:05:32.000Z</time>
      </trkpt>
      <trkpt lat="42.69746" lon="0.66825">
        <ele>2078.7</ele>
        <time>2018-08-08T15:05:33.000Z</time>
      </trkpt>
      <trkpt lat="42.69746" lon="0.66825">
        <ele>2078.7</ele>
        <time>2018-08-08T15:05:34.000Z</time>
      </trkpt>
      <trkpt lat="42.69746" lon="0.66825">
        <ele>2078.7</ele>
        <time>2018-08-08T15:05:35.000Z</time>
      </trkpt>
      <trkpt lat="42.69746" lon="0.66825">
        <ele>2078.7</ele>
        <time>2018-08-08T15:05:36.000Z</time>
      </trkpt>
      <trkpt lat="42.69746" lon="0.66825">
        <ele>2078.7</ele>
        <time>2018-08-08T15:05:37.000Z</time>
      </trkpt>
      <trkpt lat="42.69746" lon="0.66825">
        <ele>2078.7</ele>
        <time>2018-08-08T15:05:38.000Z</time>
      </trkpt>
      <trkpt lat="42.69746" lon="0.66825">
        <ele>2078.7</ele>
        <time>2018-08-08T15:05:39.000Z</time>
      </trkpt>
      <trkpt lat="42.69746" lon="0.66825">
        <ele>2078.7</ele>
        <time>2018-08-08T15:05:40.000Z</time>
      </trkpt>
      <trkpt lat="42.69746" lon="0.66825">
        <ele>2078.7</ele>
        <time>2018-08-08T15:05:41.000Z</time>
      </trkpt>
      <trkpt lat="42.69746" lon="0.66825">
        <ele>2078.7</ele>
        <time>2018-08-08T15:05:42.000Z</time>
      </trkpt>
      <trkpt lat="42.69746" lon="0.66825">
        <ele>2078.7</ele>
        <time>2018-08-08T15:05:43.000Z</time>
      </trkpt>
      <trkpt lat="42.69746" lon="0.66825">
        <ele>2078.7</ele>
        <time>2018-08-08T15:05:44.000Z</time>
      </trkpt>
      <trkpt lat="42.69746" lon="0.66825">
        <ele>2078.7</ele>
        <time>2018-08-08T15:05:45.000Z</time>
      </trkpt>
      <trkpt lat="42.69746" lon="0.66825">
        <ele>2078.7</ele>
        <time>2018-08-08T15:05:46.000Z</time>
      </trkpt>
      <trkpt lat="42.69746" lon="0.66825">
        <ele>2078.7</ele>
        <time>2018-08-08T15:05:47.000Z</time>
      </trkpt>
      <trkpt lat="42.69746" lon="0.66825">
        <ele>2078.7</ele>
        <time>2018-08-08T15:05:48.000Z</time>
      </trkpt>
      <trkpt lat="42.69746" lon="0.66825">
        <ele>2078.7</ele>
        <time>2018-08-08T15:05:49.000Z</time>
      </trkpt>
      <trkpt lat="42.69746" lon="0.66825">
        <ele>2078.7</ele>
        <time>2018-08-08T15:05:50.000Z</time>
      </trkpt>
      <trkpt lat="42.69746" lon="0.66825">
        <ele>2078.7</ele>
        <time>2018-08-08T15:05:51.000Z</time>
      </trkpt>
      <trkpt lat="42.69746" lon="0.66825">
        <ele>2078.7</ele>
        <time>2018-08-08T15:05:52.000Z</time>
      </trkpt>
      <trkpt lat="42.69746" lon="0.66825">
        <ele>2078.7</ele>
        <time>2018-08-08T15:05:53.000Z</time>
      </trkpt>
      <trkpt lat="42.69746" lon="0.66825">
        <ele>2078.7</ele>
        <time>2018-08-08T15:05:54.000Z</time>
      </trkpt>
      <trkpt lat="42.69746" lon="0.66825">
        <ele>2078.7</ele>
        <time>2018-08-08T15:05:55.000Z</time>
      </trkpt>
      <trkpt lat="42.69746" lon="0.66825">
        <ele>2078.7</ele>
        <time>2018-08-08T15:05:56.000Z</time>
      </trkpt>
      <trkpt lat="42.69746" lon="0.66825">
        <ele>2078.7</ele>
        <time>2018-08-08T15:05:57.000Z</time>
      </trkpt>
      <trkpt lat="42.69746" lon="0.66825">
        <ele>2078.7</ele>
        <time>2018-08-08T15:05:58.000Z</time>
      </trkpt>
      <trkpt lat="42.69746" lon="0.66825">
        <ele>2078.7</ele>
        <time>2018-08-08T15:05:59.000Z</time>
      </trkpt>
      <trkpt lat="42.69746" lon="0.66825">
        <ele>2078.7</ele>
        <time>2018-08-08T15:06:00.000Z</time>
      </trkpt>
      <trkpt lat="42.69746" lon="0.66825">
        <ele>2078.7</ele>
        <time>2018-08-08T15:06:01.000Z</time>
      </trkpt>
      <trkpt lat="42.69746" lon="0.66825">
        <ele>2078.7</ele>
        <time>2018-08-08T15:06:02.000Z</time>
      </trkpt>
      <trkpt lat="42.69746" lon="0.66825">
        <ele>2078.7</ele>
        <time>2018-08-08T15:06:03.000Z</time>
      </trkpt>
      <trkpt lat="42.69746" lon="0.66825">
        <ele>2078.7</ele>
        <time>2018-08-08T15:06:04.000Z</time>
      </trkpt>
      <trkpt lat="42.69746" lon="0.66825">
        <ele>2078.7</ele>
        <time>2018-08-08T15:06:05.000Z</time>
      </trkpt>
      <trkpt lat="42.69746" lon="0.66825">
        <ele>2078.7</ele>
        <time>2018-08-08T15:06:06.000Z</time>
      </trkpt>
      <trkpt lat="42.69746" lon="0.66825">
        <ele>2078.7</ele>
        <time>2018-08-08T15:06:07.000Z</time>
      </trkpt>
      <trkpt lat="42.69746" lon="0.66825">
        <ele>2078.7</ele>
        <time>2018-08-08T15:06:08.000Z</time>
      </trkpt>
      <trkpt lat="42.69746" lon="0.66825">
        <ele>2078.7</ele>
        <time>2018-08-08T15:06:09.000Z</time>
      </trkpt>
      <trkpt lat="42.69746" lon="0.66825">
        <ele>2078.7</ele>
        <time>2018-08-08T15:06:10.000Z</time>
      </trkpt>
      <trkpt lat="42.69746" lon="0.66825">
        <ele>2078.7</ele>
        <time>2018-08-08T15:06:11.000Z</time>
      </trkpt>
      <trkpt lat="42.69746" lon="0.66825">
        <ele>2078.7</ele>
        <time>2018-08-08T15:06:12.000Z</time>
      </trkpt>
      <trkpt lat="42.69746" lon="0.66825">
        <ele>2078.7</ele>
        <time>2018-08-08T15:06:13.000Z</time>
      </trkpt>
      <trkpt lat="42.69746" lon="0.66825">
        <ele>2078.7</ele>
        <time>2018-08-08T15:06:14.000Z</time>
      </trkpt>
      <trkpt lat="42.69746" lon="0.66825">
        <ele>2078.7</ele>
        <time>2018-08-08T15:06:15.000Z</time>
      </trkpt>
      <trkpt lat="42.69746" lon="0.66825">
        <ele>2078.7</ele>
        <time>2018-08-08T15:06:16.000Z</time>
      </trkpt>
      <trkpt lat="42.69746" lon="0.66825">
        <ele>2078.7</ele>
        <time>2018-08-08T15:06:17.000Z</time>
      </trkpt>
      <trkpt lat="42.69746" lon="0.66825">
        <ele>2078.7</ele>
        <time>2018-08-08T15:06:18.000Z</time>
      </trkpt>
      <trkpt lat="42.69746" lon="0.66825">
        <ele>2078.7</ele>
        <time>2018-08-08T15:06:19.000Z</time>
      </trkpt>
      <trkpt lat="42.69746" lon="0.66825">
        <ele>2078.7</ele>
        <time>2018-08-08T15:06:20.000Z</time>
      </trkpt>
      <trkpt lat="42.69746" lon="0.66825">
        <ele>2078.7</ele>
        <time>2018-08-08T15:06:21.000Z</time>
      </trkpt>
      <trkpt lat="42.69746" lon="0.66825">
        <ele>2078.7</ele>
        <time>2018-08-08T15:06:22.000Z</time>
      </trkpt>
      <trkpt lat="42.69746" lon="0.66825">
        <ele>2078.7</ele>
        <time>2018-08-08T15:06:23.000Z</time>
      </trkpt>
      <trkpt lat="42.69746" lon="0.66825">
        <ele>2078.7</ele>
        <time>2018-08-08T15:06:24.000Z</time>
      </trkpt>
      <trkpt lat="42.69746" lon="0.66825">
        <ele>2078.7</ele>
        <time>2018-08-08T15:06:25.000Z</time>
      </trkpt>
      <trkpt lat="42.69746" lon="0.66825">
        <ele>2078.7</ele>
        <time>2018-08-08T15:06:26.000Z</time>
      </trkpt>
      <trkpt lat="42.69746" lon="0.66825">
        <ele>2078.7</ele>
        <time>2018-08-08T15:06:27.000Z</time>
      </trkpt>
      <trkpt lat="42.69746" lon="0.66825">
        <ele>2078.7</ele>
        <time>2018-08-08T15:06:28.000Z</time>
      </trkpt>
      <trkpt lat="42.69746" lon="0.66825">
        <ele>2078.7</ele>
        <time>2018-08-08T15:06:29.000Z</time>
      </trkpt>
      <trkpt lat="42.69746" lon="0.66825">
        <ele>2078.7</ele>
        <time>2018-08-08T15:06:30.000Z</time>
      </trkpt>
      <trkpt lat="42.69746" lon="0.66825">
        <ele>2078.7</ele>
        <time>2018-08-08T15:06:31.000Z</time>
      </trkpt>
      <trkpt lat="42.69746" lon="0.66825">
        <ele>2078.7</ele>
        <time>2018-08-08T15:06:32.000Z</time>
      </trkpt>
      <trkpt lat="42.69746" lon="0.66825">
        <ele>2078.7</ele>
        <time>2018-08-08T15:06:33.000Z</time>
      </trkpt>
      <trkpt lat="42.69746" lon="0.66825">
        <ele>2078.7</ele>
        <time>2018-08-08T15:06:34.000Z</time>
      </trkpt>
      <trkpt lat="42.69746" lon="0.66825">
        <ele>2078.7</ele>
        <time>2018-08-08T15:06:35.000Z</time>
      </trkpt>
      <trkpt lat="42.69746" lon="0.66825">
        <ele>2078.7</ele>
        <time>2018-08-08T15:06:36.000Z</time>
      </trkpt>
      <trkpt lat="42.69747" lon="0.66826">
        <ele>2078.6</ele>
        <time>2018-08-08T15:06:37.000Z</time>
      </trkpt>
      <trkpt lat="42.69748" lon="0.66826">
        <ele>2078.3</ele>
        <time>2018-08-08T15:06:38.000Z</time>
      </trkpt>
      <trkpt lat="42.69748" lon="0.66827">
        <ele>2078.2</ele>
        <time>2018-08-08T15:06:39.000Z</time>
      </trkpt>
      <trkpt lat="42.69748" lon="0.66827">
        <ele>2078.1</ele>
        <time>2018-08-08T15:06:40.000Z</time>
      </trkpt>
      <trkpt lat="42.69749" lon="0.66827">
        <ele>2078.1</ele>
        <time>2018-08-08T15:06:41.000Z</time>
      </trkpt>
      <trkpt lat="42.69749" lon="0.66827">
        <ele>2078.1</ele>
        <time>2018-08-08T15:06:42.000Z</time>
      </trkpt>
      <trkpt lat="42.69749" lon="0.66827">
        <ele>2078.1</ele>
        <time>2018-08-08T15:06:43.000Z</time>
      </trkpt>
      <trkpt lat="42.69749" lon="0.66827">
        <ele>2078</ele>
        <time>2018-08-08T15:06:44.000Z</time>
      </trkpt>
      <trkpt lat="42.69749" lon="0.66828">
        <ele>2078</ele>
        <time>2018-08-08T15:06:45.000Z</time>
      </trkpt>
      <trkpt lat="42.69749" lon="0.66828">
        <ele>2078</ele>
        <time>2018-08-08T15:06:46.000Z</time>
      </trkpt>
      <trkpt lat="42.69749" lon="0.66828">
        <ele>2078</ele>
        <time>2018-08-08T15:06:47.000Z</time>
      </trkpt>
      <trkpt lat="42.69749" lon="0.66828">
        <ele>2078</ele>
        <time>2018-08-08T15:06:48.000Z</time>
      </trkpt>
      <trkpt lat="42.69749" lon="0.66828">
        <ele>2078</ele>
        <time>2018-08-08T15:06:49.000Z</time>
      </trkpt>
      <trkpt lat="42.69749" lon="0.66828">
        <ele>2078</ele>
        <time>2018-08-08T15:06:50.000Z</time>
      </trkpt>
      <trkpt lat="42.69749" lon="0.66828">
        <ele>2078</ele>
        <time>2018-08-08T15:06:51.000Z</time>
      </trkpt>
      <trkpt lat="42.69749" lon="0.66828">
        <ele>2078</ele>
        <time>2018-08-08T15:06:52.000Z</time>
      </trkpt>
      <trkpt lat="42.69749" lon="0.66828">
        <ele>2078</ele>
        <time>2018-08-08T15:06:53.000Z</time>
      </trkpt>
      <trkpt lat="42.69749" lon="0.66828">
        <ele>2078</ele>
        <time>2018-08-08T15:06:54.000Z</time>
      </trkpt>
      <trkpt lat="42.69749" lon="0.66828">
        <ele>2078</ele>
        <time>2018-08-08T15:06:55.000Z</time>
      </trkpt>
      <trkpt lat="42.69749" lon="0.66828">
        <ele>2078</ele>
        <time>2018-08-08T15:06:56.000Z</time>
      </trkpt>
      <trkpt lat="42.69749" lon="0.66828">
        <ele>2078</ele>
        <time>2018-08-08T15:06:57.000Z</time>
      </trkpt>
      <trkpt lat="42.69749" lon="0.66828">
        <ele>2078</ele>
        <time>2018-08-08T15:06:58.000Z</time>
      </trkpt>
      <trkpt lat="42.69749" lon="0.66828">
        <ele>2078</ele>
        <time>2018-08-08T15:06:59.000Z</time>
      </trkpt>
      <trkpt lat="42.69749" lon="0.66828">
        <ele>2078</ele>
        <time>2018-08-08T15:07:00.000Z</time>
      </trkpt>
      <trkpt lat="42.69749" lon="0.66828">
        <ele>2078</ele>
        <time>2018-08-08T15:07:01.000Z</time>
      </trkpt>
      <trkpt lat="42.69749" lon="0.66828">
        <ele>2078</ele>
        <time>2018-08-08T15:07:02.000Z</time>
      </trkpt>
      <trkpt lat="42.69749" lon="0.66828">
        <ele>2078</ele>
        <time>2018-08-08T15:07:03.000Z</time>
      </trkpt>
      <trkpt lat="42.69749" lon="0.66828">
        <ele>2078</ele>
        <time>2018-08-08T15:07:04.000Z</time>
      </trkpt>
      <trkpt lat="42.69749" lon="0.66828">
        <ele>2078</ele>
        <time>2018-08-08T15:07:05.000Z</time>
      </trkpt>
      <trkpt lat="42.69749" lon="0.66828">
        <ele>2078</ele>
        <time>2018-08-08T15:07:06.000Z</time>
      </trkpt>
      <trkpt lat="42.69749" lon="0.66828">
        <ele>2078</ele>
        <time>2018-08-08T15:07:07.000Z</time>
      </trkpt>
      <trkpt lat="42.69749" lon="0.66828">
        <ele>2078</ele>
        <time>2018-08-08T15:07:08.000Z</time>
      </trkpt>
      <trkpt lat="42.69749" lon="0.66828">
        <ele>2078</ele>
        <time>2018-08-08T15:07:09.000Z</time>
      </trkpt>
      <trkpt lat="42.69749" lon="0.66828">
        <ele>2078</ele>
        <time>2018-08-08T15:07:10.000Z</time>
      </trkpt>
      <trkpt lat="42.69749" lon="0.66828">
        <ele>2078</ele>
        <time>2018-08-08T15:07:11.000Z</time>
      </trkpt>
      <trkpt lat="42.69749" lon="0.66828">
        <ele>2078</ele>
        <time>2018-08-08T15:07:12.000Z</time>
      </trkpt>
      <trkpt lat="42.69749" lon="0.66828">
        <ele>2078</ele>
        <time>2018-08-08T15:07:13.000Z</time>
      </trkpt>
      <trkpt lat="42.69749" lon="0.66828">
        <ele>2078</ele>
        <time>2018-08-08T15:07:14.000Z</time>
      </trkpt>
      <trkpt lat="42.69749" lon="0.66828">
        <ele>2078</ele>
        <time>2018-08-08T15:07:15.000Z</time>
      </trkpt>
      <trkpt lat="42.69749" lon="0.66828">
        <ele>2078</ele>
        <time>2018-08-08T15:07:16.000Z</time>
      </trkpt>
      <trkpt lat="42.69749" lon="0.66828">
        <ele>2078</ele>
        <time>2018-08-08T15:07:17.000Z</time>
      </trkpt>
      <trkpt lat="42.69749" lon="0.66828">
        <ele>2078</ele>
        <time>2018-08-08T15:07:18.000Z</time>
      </trkpt>
      <trkpt lat="42.69749" lon="0.66828">
        <ele>2078</ele>
        <time>2018-08-08T15:07:19.000Z</time>
      </trkpt>
      <trkpt lat="42.69749" lon="0.66828">
        <ele>2078</ele>
        <time>2018-08-08T15:07:20.000Z</time>
      </trkpt>
      <trkpt lat="42.69749" lon="0.66828">
        <ele>2078</ele>
        <time>2018-08-08T15:07:21.000Z</time>
      </trkpt>
      <trkpt lat="42.69749" lon="0.66828">
        <ele>2078</ele>
        <time>2018-08-08T15:07:22.000Z</time>
      </trkpt>
      <trkpt lat="42.69749" lon="0.66828">
        <ele>2078</ele>
        <time>2018-08-08T15:07:23.000Z</time>
      </trkpt>
      <trkpt lat="42.69749" lon="0.66828">
        <ele>2078</ele>
        <time>2018-08-08T15:07:24.000Z</time>
      </trkpt>
      <trkpt lat="42.69749" lon="0.66828">
        <ele>2078</ele>
        <time>2018-08-08T15:07:25.000Z</time>
      </trkpt>
      <trkpt lat="42.69749" lon="0.66828">
        <ele>2078</ele>
        <time>2018-08-08T15:07:26.000Z</time>
      </trkpt>
      <trkpt lat="42.69749" lon="0.66828">
        <ele>2078</ele>
        <time>2018-08-08T15:07:27.000Z</time>
      </trkpt>
      <trkpt lat="42.69749" lon="0.66828">
        <ele>2078</ele>
        <time>2018-08-08T15:07:28.000Z</time>
      </trkpt>
      <trkpt lat="42.69749" lon="0.66828">
        <ele>2078</ele>
        <time>2018-08-08T15:07:29.000Z</time>
      </trkpt>
      <trkpt lat="42.69749" lon="0.66828">
        <ele>2078</ele>
        <time>2018-08-08T15:07:30.000Z</time>
      </trkpt>
      <trkpt lat="42.69749" lon="0.66828">
        <ele>2078</ele>
        <time>2018-08-08T15:07:31.000Z</time>
      </trkpt>
      <trkpt lat="42.69749" lon="0.66828">
        <ele>2078</ele>
        <time>2018-08-08T15:07:32.000Z</time>
      </trkpt>
      <trkpt lat="42.69749" lon="0.66828">
        <ele>2078</ele>
        <time>2018-08-08T15:07:33.000Z</time>
      </trkpt>
      <trkpt lat="42.69749" lon="0.66828">
        <ele>2078</ele>
        <time>2018-08-08T15:07:34.000Z</time>
      </trkpt>
      <trkpt lat="42.69749" lon="0.66828">
        <ele>2078</ele>
        <time>2018-08-08T15:07:35.000Z</time>
      </trkpt>
      <trkpt lat="42.69749" lon="0.66828">
        <ele>2078</ele>
        <time>2018-08-08T15:07:36.000Z</time>
      </trkpt>
      <trkpt lat="42.69749" lon="0.66828">
        <ele>2078</ele>
        <time>2018-08-08T15:07:37.000Z</time>
      </trkpt>
      <trkpt lat="42.69749" lon="0.66828">
        <ele>2078</ele>
        <time>2018-08-08T15:07:38.000Z</time>
      </trkpt>
      <trkpt lat="42.69749" lon="0.66828">
        <ele>2078</ele>
        <time>2018-08-08T15:07:39.000Z</time>
      </trkpt>
      <trkpt lat="42.69749" lon="0.66828">
        <ele>2078</ele>
        <time>2018-08-08T15:07:40.000Z</time>
      </trkpt>
      <trkpt lat="42.69749" lon="0.66828">
        <ele>2078</ele>
        <time>2018-08-08T15:07:41.000Z</time>
      </trkpt>
      <trkpt lat="42.69749" lon="0.66828">
        <ele>2078</ele>
        <time>2018-08-08T15:07:42.000Z</time>
      </trkpt>
      <trkpt lat="42.69749" lon="0.66828">
        <ele>2078</ele>
        <time>2018-08-08T15:07:43.000Z</time>
      </trkpt>
      <trkpt lat="42.69749" lon="0.66828">
        <ele>2078</ele>
        <time>2018-08-08T15:07:44.000Z</time>
      </trkpt>
      <trkpt lat="42.69749" lon="0.66828">
        <ele>2078</ele>
        <time>2018-08-08T15:07:45.000Z</time>
      </trkpt>
      <trkpt lat="42.69749" lon="0.66828">
        <ele>2078</ele>
        <time>2018-08-08T15:07:46.000Z</time>
      </trkpt>
      <trkpt lat="42.69749" lon="0.66828">
        <ele>2078</ele>
        <time>2018-08-08T15:07:47.000Z</time>
      </trkpt>
      <trkpt lat="42.69749" lon="0.66828">
        <ele>2078</ele>
        <time>2018-08-08T15:07:48.000Z</time>
      </trkpt>
      <trkpt lat="42.69749" lon="0.66828">
        <ele>2078</ele>
        <time>2018-08-08T15:07:49.000Z</time>
      </trkpt>
      <trkpt lat="42.69749" lon="0.66828">
        <ele>2078</ele>
        <time>2018-08-08T15:07:50.000Z</time>
      </trkpt>
      <trkpt lat="42.69749" lon="0.66828">
        <ele>2078</ele>
        <time>2018-08-08T15:07:51.000Z</time>
      </trkpt>
      <trkpt lat="42.69749" lon="0.66828">
        <ele>2078</ele>
        <time>2018-08-08T15:07:52.000Z</time>
      </trkpt>
      <trkpt lat="42.69749" lon="0.66828">
        <ele>2078</ele>
        <time>2018-08-08T15:07:53.000Z</time>
      </trkpt>
      <trkpt lat="42.69749" lon="0.66828">
        <ele>2078</ele>
        <time>2018-08-08T15:07:54.000Z</time>
      </trkpt>
      <trkpt lat="42.69749" lon="0.66828">
        <ele>2078</ele>
        <time>2018-08-08T15:07:55.000Z</time>
      </trkpt>
      <trkpt lat="42.69749" lon="0.66828">
        <ele>2078</ele>
        <time>2018-08-08T15:07:56.000Z</time>
      </trkpt>
      <trkpt lat="42.69749" lon="0.66828">
        <ele>2078</ele>
        <time>2018-08-08T15:07:57.000Z</time>
      </trkpt>
      <trkpt lat="42.69749" lon="0.66828">
        <ele>2078</ele>
        <time>2018-08-08T15:07:58.000Z</time>
      </trkpt>
      <trkpt lat="42.69749" lon="0.66828">
        <ele>2078</ele>
        <time>2018-08-08T15:07:59.000Z</time>
      </trkpt>
      <trkpt lat="42.69749" lon="0.66828">
        <ele>2078</ele>
        <time>2018-08-08T15:08:00.000Z</time>
      </trkpt>
      <trkpt lat="42.69749" lon="0.66828">
        <ele>2078</ele>
        <time>2018-08-08T15:08:01.000Z</time>
      </trkpt>
      <trkpt lat="42.69749" lon="0.66828">
        <ele>2078</ele>
        <time>2018-08-08T15:08:02.000Z</time>
      </trkpt>
      <trkpt lat="42.69749" lon="0.66828">
        <ele>2078</ele>
        <time>2018-08-08T15:08:03.000Z</time>
      </trkpt>
      <trkpt lat="42.69749" lon="0.66828">
        <ele>2078</ele>
        <time>2018-08-08T15:08:04.000Z</time>
      </trkpt>
      <trkpt lat="42.69749" lon="0.66828">
        <ele>2078</ele>
        <time>2018-08-08T15:08:05.000Z</time>
      </trkpt>
      <trkpt lat="42.69749" lon="0.66828">
        <ele>2078</ele>
        <time>2018-08-08T15:08:06.000Z</time>
      </trkpt>
      <trkpt lat="42.69749" lon="0.66828">
        <ele>2078</ele>
        <time>2018-08-08T15:08:07.000Z</time>
      </trkpt>
      <trkpt lat="42.69749" lon="0.66828">
        <ele>2078</ele>
        <time>2018-08-08T15:08:08.000Z</time>
      </trkpt>
      <trkpt lat="42.69749" lon="0.66828">
        <ele>2078</ele>
        <time>2018-08-08T15:08:09.000Z</time>
      </trkpt>
      <trkpt lat="42.69749" lon="0.66828">
        <ele>2078</ele>
        <time>2018-08-08T15:08:10.000Z</time>
      </trkpt>
      <trkpt lat="42.69749" lon="0.66828">
        <ele>2078</ele>
        <time>2018-08-08T15:08:11.000Z</time>
      </trkpt>
      <trkpt lat="42.69749" lon="0.66828">
        <ele>2078.1</ele>
        <time>2018-08-08T15:08:12.000Z</time>
      </trkpt>
      <trkpt lat="42.69748" lon="0.66828">
        <ele>2078.2</ele>
        <time>2018-08-08T15:08:13.000Z</time>
      </trkpt>
      <trkpt lat="42.69748" lon="0.66828">
        <ele>2078.4</ele>
        <time>2018-08-08T15:08:14.000Z</time>
      </trkpt>
      <trkpt lat="42.69747" lon="0.66828">
        <ele>2078.5</ele>
        <time>2018-08-08T15:08:15.000Z</time>
      </trkpt>
      <trkpt lat="42.69747" lon="0.66828">
        <ele>2078.6</ele>
        <time>2018-08-08T15:08:16.000Z</time>
      </trkpt>
      <trkpt lat="42.69747" lon="0.66828">
        <ele>2078.7</ele>
        <time>2018-08-08T15:08:17.000Z</time>
      </trkpt>
      <trkpt lat="42.69746" lon="0.66828">
        <ele>2078.7</ele>
        <time>2018-08-08T15:08:18.000Z</time>
      </trkpt>
      <trkpt lat="42.69746" lon="0.66828">
        <ele>2078.7</ele>
        <time>2018-08-08T15:08:19.000Z</time>
      </trkpt>
      <trkpt lat="42.69746" lon="0.66828">
        <ele>2078.8</ele>
        <time>2018-08-08T15:08:20.000Z</time>
      </trkpt>
      <trkpt lat="42.69746" lon="0.66828">
        <ele>2078.8</ele>
        <time>2018-08-08T15:08:21.000Z</time>
      </trkpt>
      <trkpt lat="42.69746" lon="0.66828">
        <ele>2078.8</ele>
        <time>2018-08-08T15:08:22.000Z</time>
      </trkpt>
      <trkpt lat="42.69746" lon="0.66828">
        <ele>2078.8</ele>
        <time>2018-08-08T15:08:23.000Z</time>
      </trkpt>
      <trkpt lat="42.69746" lon="0.66828">
        <ele>2078.8</ele>
        <time>2018-08-08T15:08:24.000Z</time>
      </trkpt>
      <trkpt lat="42.69746" lon="0.66828">
        <ele>2078.8</ele>
        <time>2018-08-08T15:08:25.000Z</time>
      </trkpt>
      <trkpt lat="42.69746" lon="0.66828">
        <ele>2078.8</ele>
        <time>2018-08-08T15:08:26.000Z</time>
      </trkpt>
      <trkpt lat="42.69746" lon="0.66828">
        <ele>2078.8</ele>
        <time>2018-08-08T15:08:27.000Z</time>
      </trkpt>
      <trkpt lat="42.69746" lon="0.66828">
        <ele>2078.8</ele>
        <time>2018-08-08T15:08:28.000Z</time>
      </trkpt>
      <trkpt lat="42.69746" lon="0.66828">
        <ele>2078.8</ele>
        <time>2018-08-08T15:08:29.000Z</time>
      </trkpt>
      <trkpt lat="42.69746" lon="0.66828">
        <ele>2078.8</ele>
        <time>2018-08-08T15:08:30.000Z</time>
      </trkpt>
      <trkpt lat="42.69746" lon="0.66828">
        <ele>2078.8</ele>
        <time>2018-08-08T15:08:31.000Z</time>
      </trkpt>
      <trkpt lat="42.69746" lon="0.66828">
        <ele>2078.8</ele>
        <time>2018-08-08T15:08:32.000Z</time>
      </trkpt>
      <trkpt lat="42.69746" lon="0.66828">
        <ele>2078.8</ele>
        <time>2018-08-08T15:08:33.000Z</time>
      </trkpt>
      <trkpt lat="42.69746" lon="0.66828">
        <ele>2078.8</ele>
        <time>2018-08-08T15:08:34.000Z</time>
      </trkpt>
      <trkpt lat="42.69746" lon="0.66828">
        <ele>2078.8</ele>
        <time>2018-08-08T15:08:35.000Z</time>
      </trkpt>
      <trkpt lat="42.69746" lon="0.66828">
        <ele>2078.8</ele>
        <time>2018-08-08T15:08:36.000Z</time>
      </trkpt>
      <trkpt lat="42.69746" lon="0.66828">
        <ele>2078.8</ele>
        <time>2018-08-08T15:08:37.000Z</time>
      </trkpt>
      <trkpt lat="42.69746" lon="0.66828">
        <ele>2078.8</ele>
        <time>2018-08-08T15:08:38.000Z</time>
      </trkpt>
      <trkpt lat="42.69746" lon="0.66828">
        <ele>2078.8</ele>
        <time>2018-08-08T15:08:39.000Z</time>
      </trkpt>
      <trkpt lat="42.69746" lon="0.66828">
        <ele>2078.8</ele>
        <time>2018-08-08T15:08:40.000Z</time>
      </trkpt>
      <trkpt lat="42.69746" lon="0.66828">
        <ele>2078.8</ele>
        <time>2018-08-08T15:08:41.000Z</time>
      </trkpt>
      <trkpt lat="42.69746" lon="0.66828">
        <ele>2078.8</ele>
        <time>2018-08-08T15:08:42.000Z</time>
      </trkpt>
      <trkpt lat="42.69746" lon="0.66828">
        <ele>2078.8</ele>
        <time>2018-08-08T15:08:43.000Z</time>
      </trkpt>
      <trkpt lat="42.69746" lon="0.66828">
        <ele>2078.8</ele>
        <time>2018-08-08T15:08:44.000Z</time>
      </trkpt>
      <trkpt lat="42.69746" lon="0.66828">
        <ele>2078.8</ele>
        <time>2018-08-08T15:08:45.000Z</time>
      </trkpt>
      <trkpt lat="42.69746" lon="0.66828">
        <ele>2078.8</ele>
        <time>2018-08-08T15:08:46.000Z</time>
      </trkpt>
      <trkpt lat="42.69746" lon="0.66828">
        <ele>2078.8</ele>
        <time>2018-08-08T15:08:47.000Z</time>
      </trkpt>
      <trkpt lat="42.69746" lon="0.66828">
        <ele>2078.8</ele>
        <time>2018-08-08T15:08:48.000Z</time>
      </trkpt>
      <trkpt lat="42.69746" lon="0.66828">
        <ele>2078.8</ele>
        <time>2018-08-08T15:08:49.000Z</time>
      </trkpt>
      <trkpt lat="42.69746" lon="0.66828">
        <ele>2078.8</ele>
        <time>2018-08-08T15:08:50.000Z</time>
      </trkpt>
      <trkpt lat="42.69746" lon="0.66828">
        <ele>2078.8</ele>
        <time>2018-08-08T15:08:51.000Z</time>
      </trkpt>
      <trkpt lat="42.69746" lon="0.66828">
        <ele>2078.8</ele>
        <time>2018-08-08T15:08:52.000Z</time>
      </trkpt>
      <trkpt lat="42.69746" lon="0.66828">
        <ele>2078.8</ele>
        <time>2018-08-08T15:08:53.000Z</time>
      </trkpt>
      <trkpt lat="42.69746" lon="0.66828">
        <ele>2078.8</ele>
        <time>2018-08-08T15:08:54.000Z</time>
      </trkpt>
      <trkpt lat="42.69746" lon="0.66828">
        <ele>2078.8</ele>
        <time>2018-08-08T15:08:55.000Z</time>
      </trkpt>
      <trkpt lat="42.69746" lon="0.66828">
        <ele>2078.8</ele>
        <time>2018-08-08T15:08:56.000Z</time>
      </trkpt>
      <trkpt lat="42.69746" lon="0.66828">
        <ele>2078.8</ele>
        <time>2018-08-08T15:08:57.000Z</time>
      </trkpt>
      <trkpt lat="42.69746" lon="0.66828">
        <ele>2078.8</ele>
        <time>2018-08-08T15:08:58.000Z</time>
      </trkpt>
      <trkpt lat="42.69746" lon="0.66828">
        <ele>2078.8</ele>
        <time>2018-08-08T15:08:59.000Z</time>
      </trkpt>
      <trkpt lat="42.69746" lon="0.66828">
        <ele>2078.8</ele>
        <time>2018-08-08T15:09:00.000Z</time>
      </trkpt>
      <trkpt lat="42.69746" lon="0.66828">
        <ele>2078.8</ele>
        <time>2018-08-08T15:09:01.000Z</time>
      </trkpt>
      <trkpt lat="42.69746" lon="0.66828">
        <ele>2078.8</ele>
        <time>2018-08-08T15:09:02.000Z</time>
      </trkpt>
      <trkpt lat="42.69746" lon="0.66828">
        <ele>2078.8</ele>
        <time>2018-08-08T15:09:03.000Z</time>
      </trkpt>
      <trkpt lat="42.69746" lon="0.66828">
        <ele>2078.8</ele>
        <time>2018-08-08T15:09:04.000Z</time>
      </trkpt>
      <trkpt lat="42.69746" lon="0.66828">
        <ele>2078.8</ele>
        <time>2018-08-08T15:09:05.000Z</time>
      </trkpt>
      <trkpt lat="42.69746" lon="0.66828">
        <ele>2078.8</ele>
        <time>2018-08-08T15:09:06.000Z</time>
      </trkpt>
      <trkpt lat="42.69746" lon="0.66828">
        <ele>2078.8</ele>
        <time>2018-08-08T15:09:07.000Z</time>
      </trkpt>
      <trkpt lat="42.69746" lon="0.66828">
        <ele>2078.8</ele>
        <time>2018-08-08T15:09:08.000Z</time>
      </trkpt>
      <trkpt lat="42.69746" lon="0.66828">
        <ele>2078.8</ele>
        <time>2018-08-08T15:09:09.000Z</time>
      </trkpt>
      <trkpt lat="42.69746" lon="0.66828">
        <ele>2078.8</ele>
        <time>2018-08-08T15:09:10.000Z</time>
      </trkpt>
      <trkpt lat="42.69746" lon="0.66828">
        <ele>2078.8</ele>
        <time>2018-08-08T15:09:11.000Z</time>
      </trkpt>
      <trkpt lat="42.69746" lon="0.66828">
        <ele>2078.8</ele>
        <time>2018-08-08T15:09:12.000Z</time>
      </trkpt>
      <trkpt lat="42.69746" lon="0.66828">
        <ele>2078.8</ele>
        <time>2018-08-08T15:09:13.000Z</time>
      </trkpt>
      <trkpt lat="42.69746" lon="0.66828">
        <ele>2078.8</ele>
        <time>2018-08-08T15:09:14.000Z</time>
      </trkpt>
      <trkpt lat="42.69746" lon="0.66828">
        <ele>2078.8</ele>
        <time>2018-08-08T15:09:15.000Z</time>
      </trkpt>
      <trkpt lat="42.69746" lon="0.66828">
        <ele>2078.8</ele>
        <time>2018-08-08T15:09:16.000Z</time>
      </trkpt>
      <trkpt lat="42.69746" lon="0.66828">
        <ele>2078.8</ele>
        <time>2018-08-08T15:09:17.000Z</time>
      </trkpt>
      <trkpt lat="42.69746" lon="0.66828">
        <ele>2078.8</ele>
        <time>2018-08-08T15:09:18.000Z</time>
      </trkpt>
      <trkpt lat="42.69746" lon="0.66828">
        <ele>2078.8</ele>
        <time>2018-08-08T15:09:19.000Z</time>
      </trkpt>
      <trkpt lat="42.69746" lon="0.66828">
        <ele>2078.8</ele>
        <time>2018-08-08T15:09:20.000Z</time>
      </trkpt>
      <trkpt lat="42.69746" lon="0.66828">
        <ele>2078.8</ele>
        <time>2018-08-08T15:09:21.000Z</time>
      </trkpt>
      <trkpt lat="42.69746" lon="0.66828">
        <ele>2078.8</ele>
        <time>2018-08-08T15:09:22.000Z</time>
      </trkpt>
      <trkpt lat="42.69746" lon="0.66828">
        <ele>2078.8</ele>
        <time>2018-08-08T15:09:23.000Z</time>
      </trkpt>
      <trkpt lat="42.69746" lon="0.66828">
        <ele>2078.8</ele>
        <time>2018-08-08T15:09:24.000Z</time>
      </trkpt>
      <trkpt lat="42.69746" lon="0.66828">
        <ele>2078.8</ele>
        <time>2018-08-08T15:09:25.000Z</time>
      </trkpt>
      <trkpt lat="42.69746" lon="0.66828">
        <ele>2078.8</ele>
        <time>2018-08-08T15:09:26.000Z</time>
      </trkpt>
      <trkpt lat="42.69746" lon="0.66828">
        <ele>2078.8</ele>
        <time>2018-08-08T15:09:27.000Z</time>
      </trkpt>
      <trkpt lat="42.69746" lon="0.66828">
        <ele>2078.8</ele>
        <time>2018-08-08T15:09:28.000Z</time>
      </trkpt>
      <trkpt lat="42.69746" lon="0.66828">
        <ele>2078.8</ele>
        <time>2018-08-08T15:09:29.000Z</time>
      </trkpt>
      <trkpt lat="42.69746" lon="0.66828">
        <ele>2078.8</ele>
        <time>2018-08-08T15:09:30.000Z</time>
      </trkpt>
      <trkpt lat="42.69746" lon="0.66828">
        <ele>2078.8</ele>
        <time>2018-08-08T15:09:31.000Z</time>
      </trkpt>
      <trkpt lat="42.69746" lon="0.66828">
        <ele>2078.8</ele>
        <time>2018-08-08T15:09:32.000Z</time>
      </trkpt>
      <trkpt lat="42.69746" lon="0.66828">
        <ele>2078.8</ele>
        <time>2018-08-08T15:09:33.000Z</time>
      </trkpt>
      <trkpt lat="42.69746" lon="0.66828">
        <ele>2078.8</ele>
        <time>2018-08-08T15:09:34.000Z</time>
      </trkpt>
      <trkpt lat="42.69746" lon="0.66828">
        <ele>2078.8</ele>
        <time>2018-08-08T15:09:35.000Z</time>
      </trkpt>
      <trkpt lat="42.69746" lon="0.66828">
        <ele>2078.8</ele>
        <time>2018-08-08T15:09:36.000Z</time>
      </trkpt>
      <trkpt lat="42.69746" lon="0.66828">
        <ele>2078.8</ele>
        <time>2018-08-08T15:09:37.000Z</time>
      </trkpt>
      <trkpt lat="42.69746" lon="0.66828">
        <ele>2078.8</ele>
        <time>2018-08-08T15:09:38.000Z</time>
      </trkpt>
      <trkpt lat="42.69746" lon="0.66828">
        <ele>2078.8</ele>
        <time>2018-08-08T15:09:39.000Z</time>
      </trkpt>
      <trkpt lat="42.69746" lon="0.66828">
        <ele>2078.8</ele>
        <time>2018-08-08T15:09:40.000Z</time>
      </trkpt>
      <trkpt lat="42.69746" lon="0.66828">
        <ele>2078.8</ele>
        <time>2018-08-08T15:09:41.000Z</time>
      </trkpt>
      <trkpt lat="42.69746" lon="0.66828">
        <ele>2078.8</ele>
        <time>2018-08-08T15:09:42.000Z</time>
      </trkpt>
      <trkpt lat="42.69746" lon="0.66828">
        <ele>2078.8</ele>
        <time>2018-08-08T15:09:43.000Z</time>
      </trkpt>
      <trkpt lat="42.69746" lon="0.66828">
        <ele>2078.8</ele>
        <time>2018-08-08T15:09:44.000Z</time>
      </trkpt>
      <trkpt lat="42.69746" lon="0.66828">
        <ele>2078.8</ele>
        <time>2018-08-08T15:09:45.000Z</time>
      </trkpt>
      <trkpt lat="42.69746" lon="0.66828">
        <ele>2078.8</ele>
        <time>2018-08-08T15:09:46.000Z</time>
      </trkpt>
      <trkpt lat="42.69746" lon="0.66828">
        <ele>2078.8</ele>
        <time>2018-08-08T15:09:47.000Z</time>
      </trkpt>
      <trkpt lat="42.69746" lon="0.66828">
        <ele>2078.8</ele>
        <time>2018-08-08T15:09:48.000Z</time>
      </trkpt>
      <trkpt lat="42.69746" lon="0.66828">
        <ele>2078.8</ele>
        <time>2018-08-08T15:09:49.000Z</time>
      </trkpt>
      <trkpt lat="42.69746" lon="0.66828">
        <ele>2078.8</ele>
        <time>2018-08-08T15:09:50.000Z</time>
      </trkpt>
      <trkpt lat="42.69746" lon="0.66828">
        <ele>2078.8</ele>
        <time>2018-08-08T15:09:51.000Z</time>
      </trkpt>
      <trkpt lat="42.69746" lon="0.66828">
        <ele>2078.8</ele>
        <time>2018-08-08T15:09:52.000Z</time>
      </trkpt>
      <trkpt lat="42.69746" lon="0.66828">
        <ele>2078.8</ele>
        <time>2018-08-08T15:09:53.000Z</time>
      </trkpt>
      <trkpt lat="42.69746" lon="0.66828">
        <ele>2078.8</ele>
        <time>2018-08-08T15:09:54.000Z</time>
      </trkpt>
      <trkpt lat="42.69746" lon="0.66828">
        <ele>2078.8</ele>
        <time>2018-08-08T15:09:55.000Z</time>
      </trkpt>
      <trkpt lat="42.69746" lon="0.66828">
        <ele>2078.8</ele>
        <time>2018-08-08T15:09:56.000Z</time>
      </trkpt>
      <trkpt lat="42.69746" lon="0.66828">
        <ele>2078.8</ele>
        <time>2018-08-08T15:09:57.000Z</time>
      </trkpt>
      <trkpt lat="42.69746" lon="0.66828">
        <ele>2078.8</ele>
        <time>2018-08-08T15:09:58.000Z</time>
      </trkpt>
      <trkpt lat="42.69746" lon="0.66828">
        <ele>2078.8</ele>
        <time>2018-08-08T15:09:59.000Z</time>
      </trkpt>
      <trkpt lat="42.69746" lon="0.66828">
        <ele>2078.8</ele>
        <time>2018-08-08T15:10:00.000Z</time>
      </trkpt>
      <trkpt lat="42.69746" lon="0.66828">
        <ele>2078.8</ele>
        <time>2018-08-08T15:10:01.000Z</time>
      </trkpt>
      <trkpt lat="42.69746" lon="0.66828">
        <ele>2078.8</ele>
        <time>2018-08-08T15:10:02.000Z</time>
      </trkpt>
      <trkpt lat="42.69746" lon="0.66828">
        <ele>2078.8</ele>
        <time>2018-08-08T15:10:03.000Z</time>
      </trkpt>
      <trkpt lat="42.69746" lon="0.66828">
        <ele>2078.8</ele>
        <time>2018-08-08T15:10:04.000Z</time>
      </trkpt>
      <trkpt lat="42.69746" lon="0.66828">
        <ele>2078.8</ele>
        <time>2018-08-08T15:10:05.000Z</time>
      </trkpt>
      <trkpt lat="42.69746" lon="0.66828">
        <ele>2078.8</ele>
        <time>2018-08-08T15:10:06.000Z</time>
      </trkpt>
      <trkpt lat="42.69746" lon="0.66828">
        <ele>2078.8</ele>
        <time>2018-08-08T15:10:07.000Z</time>
      </trkpt>
      <trkpt lat="42.69746" lon="0.66828">
        <ele>2078.8</ele>
        <time>2018-08-08T15:10:08.000Z</time>
      </trkpt>
      <trkpt lat="42.69746" lon="0.66828">
        <ele>2078.8</ele>
        <time>2018-08-08T15:10:09.000Z</time>
      </trkpt>
      <trkpt lat="42.69746" lon="0.66828">
        <ele>2078.8</ele>
        <time>2018-08-08T15:10:10.000Z</time>
      </trkpt>
      <trkpt lat="42.69746" lon="0.66828">
        <ele>2078.8</ele>
        <time>2018-08-08T15:10:11.000Z</time>
      </trkpt>
      <trkpt lat="42.69746" lon="0.66828">
        <ele>2078.8</ele>
        <time>2018-08-08T15:10:12.000Z</time>
      </trkpt>
      <trkpt lat="42.69746" lon="0.66828">
        <ele>2078.8</ele>
        <time>2018-08-08T15:10:13.000Z</time>
      </trkpt>
      <trkpt lat="42.69746" lon="0.66828">
        <ele>2078.8</ele>
        <time>2018-08-08T15:10:14.000Z</time>
      </trkpt>
      <trkpt lat="42.69746" lon="0.66828">
        <ele>2078.8</ele>
        <time>2018-08-08T15:10:15.000Z</time>
      </trkpt>
      <trkpt lat="42.69746" lon="0.66828">
        <ele>2078.8</ele>
        <time>2018-08-08T15:10:16.000Z</time>
      </trkpt>
      <trkpt lat="42.69746" lon="0.66828">
        <ele>2078.8</ele>
        <time>2018-08-08T15:10:17.000Z</time>
      </trkpt>
      <trkpt lat="42.69746" lon="0.66828">
        <ele>2078.8</ele>
        <time>2018-08-08T15:10:18.000Z</time>
      </trkpt>
      <trkpt lat="42.69746" lon="0.66828">
        <ele>2078.8</ele>
        <time>2018-08-08T15:10:19.000Z</time>
      </trkpt>
      <trkpt lat="42.69746" lon="0.66828">
        <ele>2078.8</ele>
        <time>2018-08-08T15:10:20.000Z</time>
      </trkpt>
      <trkpt lat="42.69746" lon="0.66828">
        <ele>2078.8</ele>
        <time>2018-08-08T15:10:21.000Z</time>
      </trkpt>
      <trkpt lat="42.69746" lon="0.66828">
        <ele>2078.8</ele>
        <time>2018-08-08T15:10:22.000Z</time>
      </trkpt>
      <trkpt lat="42.69746" lon="0.66828">
        <ele>2078.8</ele>
        <time>2018-08-08T15:10:23.000Z</time>
      </trkpt>
      <trkpt lat="42.69746" lon="0.66828">
        <ele>2078.8</ele>
        <time>2018-08-08T15:10:24.000Z</time>
      </trkpt>
      <trkpt lat="42.69746" lon="0.66828">
        <ele>2078.8</ele>
        <time>2018-08-08T15:10:25.000Z</time>
      </trkpt>
      <trkpt lat="42.69746" lon="0.66828">
        <ele>2078.8</ele>
        <time>2018-08-08T15:10:26.000Z</time>
      </trkpt>
      <trkpt lat="42.69746" lon="0.66828">
        <ele>2078.8</ele>
        <time>2018-08-08T15:10:27.000Z</time>
      </trkpt>
      <trkpt lat="42.69746" lon="0.66828">
        <ele>2078.8</ele>
        <time>2018-08-08T15:10:28.000Z</time>
      </trkpt>
      <trkpt lat="42.69746" lon="0.66828">
        <ele>2078.8</ele>
        <time>2018-08-08T15:10:29.000Z</time>
      </trkpt>
      <trkpt lat="42.69746" lon="0.66828">
        <ele>2078.8</ele>
        <time>2018-08-08T15:10:30.000Z</time>
      </trkpt>
      <trkpt lat="42.69746" lon="0.66828">
        <ele>2078.8</ele>
        <time>2018-08-08T15:10:31.000Z</time>
      </trkpt>
      <trkpt lat="42.69746" lon="0.66828">
        <ele>2078.8</ele>
        <time>2018-08-08T15:10:32.000Z</time>
      </trkpt>
      <trkpt lat="42.69746" lon="0.66828">
        <ele>2078.8</ele>
        <time>2018-08-08T15:10:33.000Z</time>
      </trkpt>
      <trkpt lat="42.69746" lon="0.66828">
        <ele>2078.8</ele>
        <time>2018-08-08T15:10:34.000Z</time>
      </trkpt>
      <trkpt lat="42.69746" lon="0.66828">
        <ele>2078.8</ele>
        <time>2018-08-08T15:10:35.000Z</time>
      </trkpt>
      <trkpt lat="42.69746" lon="0.66828">
        <ele>2078.8</ele>
        <time>2018-08-08T15:10:36.000Z</time>
      </trkpt>
      <trkpt lat="42.69746" lon="0.66828">
        <ele>2078.8</ele>
        <time>2018-08-08T15:10:37.000Z</time>
      </trkpt>
      <trkpt lat="42.69746" lon="0.66828">
        <ele>2078.8</ele>
        <time>2018-08-08T15:10:38.000Z</time>
      </trkpt>
      <trkpt lat="42.69746" lon="0.66828">
        <ele>2078.8</ele>
        <time>2018-08-08T15:10:39.000Z</time>
      </trkpt>
      <trkpt lat="42.69746" lon="0.66828">
        <ele>2078.8</ele>
        <time>2018-08-08T15:10:40.000Z</time>
      </trkpt>
      <trkpt lat="42.69746" lon="0.66828">
        <ele>2078.8</ele>
        <time>2018-08-08T15:10:41.000Z</time>
      </trkpt>
      <trkpt lat="42.69746" lon="0.66828">
        <ele>2078.8</ele>
        <time>2018-08-08T15:10:42.000Z</time>
      </trkpt>
      <trkpt lat="42.69746" lon="0.66828">
        <ele>2078.8</ele>
        <time>2018-08-08T15:10:43.000Z</time>
      </trkpt>
      <trkpt lat="42.69746" lon="0.66828">
        <ele>2078.8</ele>
        <time>2018-08-08T15:10:44.000Z</time>
      </trkpt>
      <trkpt lat="42.69746" lon="0.66828">
        <ele>2078.8</ele>
        <time>2018-08-08T15:10:45.000Z</time>
      </trkpt>
      <trkpt lat="42.69746" lon="0.66828">
        <ele>2078.8</ele>
        <time>2018-08-08T15:10:46.000Z</time>
      </trkpt>
      <trkpt lat="42.69746" lon="0.66828">
        <ele>2078.8</ele>
        <time>2018-08-08T15:10:47.000Z</time>
      </trkpt>
      <trkpt lat="42.69746" lon="0.66828">
        <ele>2078.8</ele>
        <time>2018-08-08T15:10:48.000Z</time>
      </trkpt>
      <trkpt lat="42.69746" lon="0.66828">
        <ele>2078.8</ele>
        <time>2018-08-08T15:10:49.000Z</time>
      </trkpt>
      <trkpt lat="42.69746" lon="0.66828">
        <ele>2078.8</ele>
        <time>2018-08-08T15:10:50.000Z</time>
      </trkpt>
      <trkpt lat="42.69746" lon="0.66828">
        <ele>2078.8</ele>
        <time>2018-08-08T15:10:51.000Z</time>
      </trkpt>
      <trkpt lat="42.69746" lon="0.66828">
        <ele>2078.8</ele>
        <time>2018-08-08T15:10:52.000Z</time>
      </trkpt>
      <trkpt lat="42.69746" lon="0.66828">
        <ele>2078.8</ele>
        <time>2018-08-08T15:10:53.000Z</time>
      </trkpt>
      <trkpt lat="42.69746" lon="0.66828">
        <ele>2078.8</ele>
        <time>2018-08-08T15:10:54.000Z</time>
      </trkpt>
      <trkpt lat="42.69746" lon="0.66828">
        <ele>2078.8</ele>
        <time>2018-08-08T15:10:55.000Z</time>
      </trkpt>
      <trkpt lat="42.69746" lon="0.66828">
        <ele>2078.8</ele>
        <time>2018-08-08T15:10:56.000Z</time>
      </trkpt>
      <trkpt lat="42.69746" lon="0.66828">
        <ele>2078.8</ele>
        <time>2018-08-08T15:10:57.000Z</time>
      </trkpt>
      <trkpt lat="42.69746" lon="0.66828">
        <ele>2078.8</ele>
        <time>2018-08-08T15:10:58.000Z</time>
      </trkpt>
      <trkpt lat="42.69746" lon="0.66828">
        <ele>2078.8</ele>
        <time>2018-08-08T15:10:59.000Z</time>
      </trkpt>
      <trkpt lat="42.69746" lon="0.66828">
        <ele>2078.8</ele>
        <time>2018-08-08T15:11:00.000Z</time>
      </trkpt>
      <trkpt lat="42.69746" lon="0.66828">
        <ele>2078.8</ele>
        <time>2018-08-08T15:11:01.000Z</time>
      </trkpt>
      <trkpt lat="42.69746" lon="0.66828">
        <ele>2078.8</ele>
        <time>2018-08-08T15:11:02.000Z</time>
      </trkpt>
      <trkpt lat="42.69746" lon="0.66828">
        <ele>2078.8</ele>
        <time>2018-08-08T15:11:03.000Z</time>
      </trkpt>
      <trkpt lat="42.69746" lon="0.66828">
        <ele>2078.8</ele>
        <time>2018-08-08T15:11:04.000Z</time>
      </trkpt>
      <trkpt lat="42.69746" lon="0.66828">
        <ele>2078.8</ele>
        <time>2018-08-08T15:11:05.000Z</time>
      </trkpt>
      <trkpt lat="42.69746" lon="0.66828">
        <ele>2078.8</ele>
        <time>2018-08-08T15:11:06.000Z</time>
      </trkpt>
      <trkpt lat="42.69746" lon="0.66828">
        <ele>2078.8</ele>
        <time>2018-08-08T15:11:07.000Z</time>
      </trkpt>
      <trkpt lat="42.69746" lon="0.66828">
        <ele>2078.8</ele>
        <time>2018-08-08T15:11:08.000Z</time>
      </trkpt>
      <trkpt lat="42.69746" lon="0.66828">
        <ele>2078.8</ele>
        <time>2018-08-08T15:11:09.000Z</time>
      </trkpt>
      <trkpt lat="42.69746" lon="0.66828">
        <ele>2078.8</ele>
        <time>2018-08-08T15:11:10.000Z</time>
      </trkpt>
      <trkpt lat="42.69746" lon="0.66828">
        <ele>2078.8</ele>
        <time>2018-08-08T15:11:11.000Z</time>
      </trkpt>
      <trkpt lat="42.69746" lon="0.66828">
        <ele>2078.8</ele>
        <time>2018-08-08T15:11:12.000Z</time>
      </trkpt>
      <trkpt lat="42.69746" lon="0.66828">
        <ele>2078.8</ele>
        <time>2018-08-08T15:11:13.000Z</time>
      </trkpt>
      <trkpt lat="42.69746" lon="0.66828">
        <ele>2078.8</ele>
        <time>2018-08-08T15:11:14.000Z</time>
      </trkpt>
      <trkpt lat="42.69746" lon="0.66828">
        <ele>2078.8</ele>
        <time>2018-08-08T15:11:15.000Z</time>
      </trkpt>
      <trkpt lat="42.69746" lon="0.66828">
        <ele>2078.8</ele>
        <time>2018-08-08T15:11:16.000Z</time>
      </trkpt>
      <trkpt lat="42.69746" lon="0.66828">
        <ele>2078.8</ele>
        <time>2018-08-08T15:11:17.000Z</time>
      </trkpt>
      <trkpt lat="42.69746" lon="0.66828">
        <ele>2078.8</ele>
        <time>2018-08-08T15:11:18.000Z</time>
      </trkpt>
      <trkpt lat="42.69746" lon="0.66828">
        <ele>2078.8</ele>
        <time>2018-08-08T15:11:19.000Z</time>
      </trkpt>
      <trkpt lat="42.69746" lon="0.66828">
        <ele>2078.8</ele>
        <time>2018-08-08T15:11:20.000Z</time>
      </trkpt>
      <trkpt lat="42.69746" lon="0.66828">
        <ele>2078.8</ele>
        <time>2018-08-08T15:11:21.000Z</time>
      </trkpt>
      <trkpt lat="42.69746" lon="0.66828">
        <ele>2078.8</ele>
        <time>2018-08-08T15:11:22.000Z</time>
      </trkpt>
      <trkpt lat="42.69746" lon="0.66828">
        <ele>2078.8</ele>
        <time>2018-08-08T15:11:23.000Z</time>
      </trkpt>
      <trkpt lat="42.69746" lon="0.66828">
        <ele>2078.8</ele>
        <time>2018-08-08T15:11:24.000Z</time>
      </trkpt>
      <trkpt lat="42.69746" lon="0.66828">
        <ele>2078.8</ele>
        <time>2018-08-08T15:11:25.000Z</time>
      </trkpt>
      <trkpt lat="42.69746" lon="0.66828">
        <ele>2078.8</ele>
        <time>2018-08-08T15:11:26.000Z</time>
      </trkpt>
      <trkpt lat="42.69746" lon="0.66828">
        <ele>2078.8</ele>
        <time>2018-08-08T15:11:27.000Z</time>
      </trkpt>
      <trkpt lat="42.69746" lon="0.66828">
        <ele>2078.8</ele>
        <time>2018-08-08T15:11:28.000Z</time>
      </trkpt>
      <trkpt lat="42.69746" lon="0.66828">
        <ele>2078.8</ele>
        <time>2018-08-08T15:11:29.000Z</time>
      </trkpt>
      <trkpt lat="42.69746" lon="0.66828">
        <ele>2078.8</ele>
        <time>2018-08-08T15:11:30.000Z</time>
      </trkpt>
      <trkpt lat="42.69746" lon="0.66828">
        <ele>2078.8</ele>
        <time>2018-08-08T15:11:31.000Z</time>
      </trkpt>
      <trkpt lat="42.69746" lon="0.66828">
        <ele>2078.8</ele>
        <time>2018-08-08T15:11:32.000Z</time>
      </trkpt>
      <trkpt lat="42.69746" lon="0.66828">
        <ele>2078.8</ele>
        <time>2018-08-08T15:11:33.000Z</time>
      </trkpt>
      <trkpt lat="42.69746" lon="0.66828">
        <ele>2078.8</ele>
        <time>2018-08-08T15:11:34.000Z</time>
      </trkpt>
      <trkpt lat="42.69746" lon="0.66828">
        <ele>2078.8</ele>
        <time>2018-08-08T15:11:35.000Z</time>
      </trkpt>
      <trkpt lat="42.69746" lon="0.66828">
        <ele>2078.8</ele>
        <time>2018-08-08T15:11:36.000Z</time>
      </trkpt>
      <trkpt lat="42.69746" lon="0.66828">
        <ele>2078.8</ele>
        <time>2018-08-08T15:11:37.000Z</time>
      </trkpt>
      <trkpt lat="42.69746" lon="0.66828">
        <ele>2078.8</ele>
        <time>2018-08-08T15:11:38.000Z</time>
      </trkpt>
      <trkpt lat="42.69746" lon="0.66828">
        <ele>2078.8</ele>
        <time>2018-08-08T15:11:39.000Z</time>
      </trkpt>
      <trkpt lat="42.69746" lon="0.66828">
        <ele>2078.8</ele>
        <time>2018-08-08T15:11:40.000Z</time>
      </trkpt>
      <trkpt lat="42.69746" lon="0.66828">
        <ele>2078.8</ele>
        <time>2018-08-08T15:11:41.000Z</time>
      </trkpt>
      <trkpt lat="42.69746" lon="0.66828">
        <ele>2078.8</ele>
        <time>2018-08-08T15:11:42.000Z</time>
      </trkpt>
      <trkpt lat="42.69746" lon="0.66828">
        <ele>2078.8</ele>
        <time>2018-08-08T15:11:43.000Z</time>
      </trkpt>
      <trkpt lat="42.69746" lon="0.66828">
        <ele>2078.8</ele>
        <time>2018-08-08T15:11:44.000Z</time>
      </trkpt>
      <trkpt lat="42.69746" lon="0.66828">
        <ele>2078.8</ele>
        <time>2018-08-08T15:11:45.000Z</time>
      </trkpt>
      <trkpt lat="42.69746" lon="0.66828">
        <ele>2078.8</ele>
        <time>2018-08-08T15:11:46.000Z</time>
      </trkpt>
      <trkpt lat="42.69746" lon="0.66828">
        <ele>2078.8</ele>
        <time>2018-08-08T15:11:47.000Z</time>
      </trkpt>
      <trkpt lat="42.69746" lon="0.66828">
        <ele>2078.8</ele>
        <time>2018-08-08T15:11:48.000Z</time>
      </trkpt>
      <trkpt lat="42.69746" lon="0.66828">
        <ele>2078.8</ele>
        <time>2018-08-08T15:11:49.000Z</time>
      </trkpt>
      <trkpt lat="42.69746" lon="0.66828">
        <ele>2078.8</ele>
        <time>2018-08-08T15:11:50.000Z</time>
      </trkpt>
      <trkpt lat="42.69746" lon="0.66828">
        <ele>2078.8</ele>
        <time>2018-08-08T15:11:51.000Z</time>
      </trkpt>
      <trkpt lat="42.69746" lon="0.66828">
        <ele>2078.8</ele>
        <time>2018-08-08T15:11:52.000Z</time>
      </trkpt>
      <trkpt lat="42.69746" lon="0.66828">
        <ele>2078.8</ele>
        <time>2018-08-08T15:11:53.000Z</time>
      </trkpt>
      <trkpt lat="42.69746" lon="0.66828">
        <ele>2078.8</ele>
        <time>2018-08-08T15:11:54.000Z</time>
      </trkpt>
      <trkpt lat="42.69746" lon="0.66828">
        <ele>2078.8</ele>
        <time>2018-08-08T15:11:55.000Z</time>
      </trkpt>
      <trkpt lat="42.69746" lon="0.66828">
        <ele>2078.8</ele>
        <time>2018-08-08T15:11:56.000Z</time>
      </trkpt>
      <trkpt lat="42.69746" lon="0.66828">
        <ele>2078.8</ele>
        <time>2018-08-08T15:11:57.000Z</time>
      </trkpt>
      <trkpt lat="42.69746" lon="0.66828">
        <ele>2078.8</ele>
        <time>2018-08-08T15:11:58.000Z</time>
      </trkpt>
      <trkpt lat="42.69746" lon="0.66828">
        <ele>2078.8</ele>
        <time>2018-08-08T15:11:59.000Z</time>
      </trkpt>
      <trkpt lat="42.69746" lon="0.66828">
        <ele>2078.8</ele>
        <time>2018-08-08T15:12:00.000Z</time>
      </trkpt>
      <trkpt lat="42.69746" lon="0.66828">
        <ele>2078.8</ele>
        <time>2018-08-08T15:12:01.000Z</time>
      </trkpt>
      <trkpt lat="42.69746" lon="0.66828">
        <ele>2078.8</ele>
        <time>2018-08-08T15:12:02.000Z</time>
      </trkpt>
      <trkpt lat="42.69746" lon="0.66828">
        <ele>2078.8</ele>
        <time>2018-08-08T15:12:03.000Z</time>
      </trkpt>
      <trkpt lat="42.69746" lon="0.66828">
        <ele>2078.8</ele>
        <time>2018-08-08T15:12:04.000Z</time>
      </trkpt>
      <trkpt lat="42.69746" lon="0.66828">
        <ele>2078.8</ele>
        <time>2018-08-08T15:12:05.000Z</time>
      </trkpt>
      <trkpt lat="42.69746" lon="0.66828">
        <ele>2078.8</ele>
        <time>2018-08-08T15:12:06.000Z</time>
      </trkpt>
      <trkpt lat="42.69746" lon="0.66828">
        <ele>2078.8</ele>
        <time>2018-08-08T15:12:07.000Z</time>
      </trkpt>
      <trkpt lat="42.69746" lon="0.66828">
        <ele>2078.8</ele>
        <time>2018-08-08T15:12:08.000Z</time>
      </trkpt>
      <trkpt lat="42.69746" lon="0.66828">
        <ele>2078.8</ele>
        <time>2018-08-08T15:12:09.000Z</time>
      </trkpt>
      <trkpt lat="42.69746" lon="0.66828">
        <ele>2078.8</ele>
        <time>2018-08-08T15:12:10.000Z</time>
      </trkpt>
      <trkpt lat="42.69746" lon="0.66828">
        <ele>2078.8</ele>
        <time>2018-08-08T15:12:11.000Z</time>
      </trkpt>
      <trkpt lat="42.69746" lon="0.66828">
        <ele>2078.8</ele>
        <time>2018-08-08T15:12:12.000Z</time>
      </trkpt>
      <trkpt lat="42.69746" lon="0.66828">
        <ele>2078.8</ele>
        <time>2018-08-08T15:12:13.000Z</time>
      </trkpt>
      <trkpt lat="42.69746" lon="0.66828">
        <ele>2078.8</ele>
        <time>2018-08-08T15:12:14.000Z</time>
      </trkpt>
      <trkpt lat="42.69746" lon="0.66828">
        <ele>2078.8</ele>
        <time>2018-08-08T15:12:15.000Z</time>
      </trkpt>
      <trkpt lat="42.69746" lon="0.66828">
        <ele>2078.8</ele>
        <time>2018-08-08T15:12:16.000Z</time>
      </trkpt>
      <trkpt lat="42.69746" lon="0.66828">
        <ele>2078.8</ele>
        <time>2018-08-08T15:12:17.000Z</time>
      </trkpt>
      <trkpt lat="42.69746" lon="0.66828">
        <ele>2078.8</ele>
        <time>2018-08-08T15:12:18.000Z</time>
      </trkpt>
      <trkpt lat="42.69746" lon="0.66828">
        <ele>2078.8</ele>
        <time>2018-08-08T15:12:19.000Z</time>
      </trkpt>
      <trkpt lat="42.69746" lon="0.66828">
        <ele>2078.8</ele>
        <time>2018-08-08T15:12:20.000Z</time>
      </trkpt>
      <trkpt lat="42.69746" lon="0.66828">
        <ele>2078.8</ele>
        <time>2018-08-08T15:12:21.000Z</time>
      </trkpt>
      <trkpt lat="42.69746" lon="0.66828">
        <ele>2078.8</ele>
        <time>2018-08-08T15:12:22.000Z</time>
      </trkpt>
      <trkpt lat="42.69746" lon="0.66828">
        <ele>2078.8</ele>
        <time>2018-08-08T15:12:23.000Z</time>
      </trkpt>
      <trkpt lat="42.69746" lon="0.66828">
        <ele>2078.8</ele>
        <time>2018-08-08T15:12:24.000Z</time>
      </trkpt>
      <trkpt lat="42.69746" lon="0.66828">
        <ele>2078.8</ele>
        <time>2018-08-08T15:12:25.000Z</time>
      </trkpt>
      <trkpt lat="42.69746" lon="0.66828">
        <ele>2078.8</ele>
        <time>2018-08-08T15:12:26.000Z</time>
      </trkpt>
      <trkpt lat="42.69746" lon="0.66828">
        <ele>2078.8</ele>
        <time>2018-08-08T15:12:27.000Z</time>
      </trkpt>
      <trkpt lat="42.69746" lon="0.66828">
        <ele>2078.8</ele>
        <time>2018-08-08T15:12:28.000Z</time>
      </trkpt>
      <trkpt lat="42.69746" lon="0.66828">
        <ele>2078.8</ele>
        <time>2018-08-08T15:12:29.000Z</time>
      </trkpt>
      <trkpt lat="42.69746" lon="0.66828">
        <ele>2078.8</ele>
        <time>2018-08-08T15:12:30.000Z</time>
      </trkpt>
      <trkpt lat="42.69746" lon="0.66828">
        <ele>2078.8</ele>
        <time>2018-08-08T15:12:31.000Z</time>
      </trkpt>
      <trkpt lat="42.69746" lon="0.66828">
        <ele>2078.8</ele>
        <time>2018-08-08T15:12:32.000Z</time>
      </trkpt>
      <trkpt lat="42.69746" lon="0.66828">
        <ele>2078.8</ele>
        <time>2018-08-08T15:12:33.000Z</time>
      </trkpt>
      <trkpt lat="42.69746" lon="0.66828">
        <ele>2078.8</ele>
        <time>2018-08-08T15:12:34.000Z</time>
      </trkpt>
      <trkpt lat="42.69746" lon="0.66828">
        <ele>2078.8</ele>
        <time>2018-08-08T15:12:35.000Z</time>
      </trkpt>
      <trkpt lat="42.69746" lon="0.66828">
        <ele>2078.8</ele>
        <time>2018-08-08T15:12:36.000Z</time>
      </trkpt>
      <trkpt lat="42.69746" lon="0.66828">
        <ele>2078.8</ele>
        <time>2018-08-08T15:12:37.000Z</time>
      </trkpt>
      <trkpt lat="42.69746" lon="0.66828">
        <ele>2078.8</ele>
        <time>2018-08-08T15:12:38.000Z</time>
      </trkpt>
      <trkpt lat="42.69746" lon="0.66828">
        <ele>2078.8</ele>
        <time>2018-08-08T15:12:39.000Z</time>
      </trkpt>
      <trkpt lat="42.69746" lon="0.66828">
        <ele>2078.8</ele>
        <time>2018-08-08T15:12:40.000Z</time>
      </trkpt>
      <trkpt lat="42.69746" lon="0.66828">
        <ele>2078.8</ele>
        <time>2018-08-08T15:12:41.000Z</time>
      </trkpt>
      <trkpt lat="42.69746" lon="0.66828">
        <ele>2078.8</ele>
        <time>2018-08-08T15:12:42.000Z</time>
      </trkpt>
      <trkpt lat="42.69746" lon="0.66828">
        <ele>2078.8</ele>
        <time>2018-08-08T15:12:43.000Z</time>
      </trkpt>
      <trkpt lat="42.69746" lon="0.66828">
        <ele>2078.8</ele>
        <time>2018-08-08T15:12:44.000Z</time>
      </trkpt>
      <trkpt lat="42.69746" lon="0.66828">
        <ele>2078.8</ele>
        <time>2018-08-08T15:12:45.000Z</time>
      </trkpt>
      <trkpt lat="42.69746" lon="0.66828">
        <ele>2078.8</ele>
        <time>2018-08-08T15:12:46.000Z</time>
      </trkpt>
      <trkpt lat="42.69746" lon="0.66828">
        <ele>2078.8</ele>
        <time>2018-08-08T15:12:47.000Z</time>
      </trkpt>
      <trkpt lat="42.69746" lon="0.66828">
        <ele>2078.8</ele>
        <time>2018-08-08T15:12:48.000Z</time>
      </trkpt>
      <trkpt lat="42.69746" lon="0.66828">
        <ele>2078.8</ele>
        <time>2018-08-08T15:12:49.000Z</time>
      </trkpt>
      <trkpt lat="42.69746" lon="0.66828">
        <ele>2078.8</ele>
        <time>2018-08-08T15:12:50.000Z</time>
      </trkpt>
      <trkpt lat="42.69746" lon="0.66828">
        <ele>2078.8</ele>
        <time>2018-08-08T15:12:51.000Z</time>
      </trkpt>
      <trkpt lat="42.69746" lon="0.66828">
        <ele>2078.8</ele>
        <time>2018-08-08T15:12:52.000Z</time>
      </trkpt>
      <trkpt lat="42.69746" lon="0.66828">
        <ele>2078.8</ele>
        <time>2018-08-08T15:12:53.000Z</time>
      </trkpt>
      <trkpt lat="42.69746" lon="0.66828">
        <ele>2078.8</ele>
        <time>2018-08-08T15:12:54.000Z</time>
      </trkpt>
      <trkpt lat="42.69746" lon="0.66828">
        <ele>2078.8</ele>
        <time>2018-08-08T15:12:55.000Z</time>
      </trkpt>
      <trkpt lat="42.69746" lon="0.66828">
        <ele>2078.8</ele>
        <time>2018-08-08T15:12:56.000Z</time>
      </trkpt>
      <trkpt lat="42.69746" lon="0.66828">
        <ele>2078.8</ele>
        <time>2018-08-08T15:12:57.000Z</time>
      </trkpt>
      <trkpt lat="42.69746" lon="0.66828">
        <ele>2078.8</ele>
        <time>2018-08-08T15:12:58.000Z</time>
      </trkpt>
      <trkpt lat="42.69746" lon="0.66828">
        <ele>2078.8</ele>
        <time>2018-08-08T15:12:59.000Z</time>
      </trkpt>
      <trkpt lat="42.69746" lon="0.66828">
        <ele>2078.8</ele>
        <time>2018-08-08T15:13:00.000Z</time>
      </trkpt>
      <trkpt lat="42.69746" lon="0.66828">
        <ele>2078.8</ele>
        <time>2018-08-08T15:13:01.000Z</time>
      </trkpt>
      <trkpt lat="42.69746" lon="0.66828">
        <ele>2078.8</ele>
        <time>2018-08-08T15:13:02.000Z</time>
      </trkpt>
      <trkpt lat="42.69746" lon="0.66828">
        <ele>2078.8</ele>
        <time>2018-08-08T15:13:03.000Z</time>
      </trkpt>
      <trkpt lat="42.69746" lon="0.66828">
        <ele>2078.8</ele>
        <time>2018-08-08T15:13:04.000Z</time>
      </trkpt>
      <trkpt lat="42.69746" lon="0.66828">
        <ele>2078.8</ele>
        <time>2018-08-08T15:13:05.000Z</time>
      </trkpt>
      <trkpt lat="42.69746" lon="0.66828">
        <ele>2078.8</ele>
        <time>2018-08-08T15:13:06.000Z</time>
      </trkpt>
      <trkpt lat="42.69746" lon="0.66828">
        <ele>2078.8</ele>
        <time>2018-08-08T15:13:07.000Z</time>
      </trkpt>
      <trkpt lat="42.69746" lon="0.66828">
        <ele>2078.8</ele>
        <time>2018-08-08T15:13:08.000Z</time>
      </trkpt>
      <trkpt lat="42.69746" lon="0.66828">
        <ele>2078.8</ele>
        <time>2018-08-08T15:13:09.000Z</time>
      </trkpt>
      <trkpt lat="42.69746" lon="0.66828">
        <ele>2078.8</ele>
        <time>2018-08-08T15:13:10.000Z</time>
      </trkpt>
      <trkpt lat="42.69746" lon="0.66828">
        <ele>2078.8</ele>
        <time>2018-08-08T15:13:11.000Z</time>
      </trkpt>
      <trkpt lat="42.69746" lon="0.66828">
        <ele>2078.8</ele>
        <time>2018-08-08T15:13:12.000Z</time>
      </trkpt>
      <trkpt lat="42.69746" lon="0.66828">
        <ele>2078.8</ele>
        <time>2018-08-08T15:13:13.000Z</time>
      </trkpt>
      <trkpt lat="42.69746" lon="0.66828">
        <ele>2078.8</ele>
        <time>2018-08-08T15:13:14.000Z</time>
      </trkpt>
      <trkpt lat="42.69746" lon="0.66828">
        <ele>2078.8</ele>
        <time>2018-08-08T15:13:15.000Z</time>
      </trkpt>
      <trkpt lat="42.69746" lon="0.66828">
        <ele>2078.8</ele>
        <time>2018-08-08T15:13:16.000Z</time>
      </trkpt>
      <trkpt lat="42.69746" lon="0.66828">
        <ele>2078.8</ele>
        <time>2018-08-08T15:13:17.000Z</time>
      </trkpt>
      <trkpt lat="42.69746" lon="0.66828">
        <ele>2078.8</ele>
        <time>2018-08-08T15:13:18.000Z</time>
      </trkpt>
      <trkpt lat="42.69746" lon="0.66828">
        <ele>2078.8</ele>
        <time>2018-08-08T15:13:19.000Z</time>
      </trkpt>
      <trkpt lat="42.69746" lon="0.66828">
        <ele>2078.8</ele>
        <time>2018-08-08T15:13:20.000Z</time>
      </trkpt>
      <trkpt lat="42.69746" lon="0.66828">
        <ele>2078.8</ele>
        <time>2018-08-08T15:13:21.000Z</time>
      </trkpt>
      <trkpt lat="42.69746" lon="0.66828">
        <ele>2078.8</ele>
        <time>2018-08-08T15:13:22.000Z</time>
      </trkpt>
      <trkpt lat="42.69746" lon="0.66828">
        <ele>2078.8</ele>
        <time>2018-08-08T15:13:23.000Z</time>
      </trkpt>
      <trkpt lat="42.69746" lon="0.66828">
        <ele>2078.8</ele>
        <time>2018-08-08T15:13:24.000Z</time>
      </trkpt>
      <trkpt lat="42.69746" lon="0.66828">
        <ele>2078.8</ele>
        <time>2018-08-08T15:13:25.000Z</time>
      </trkpt>
      <trkpt lat="42.69746" lon="0.66828">
        <ele>2078.8</ele>
        <time>2018-08-08T15:13:26.000Z</time>
      </trkpt>
      <trkpt lat="42.69746" lon="0.66828">
        <ele>2078.8</ele>
        <time>2018-08-08T15:13:27.000Z</time>
      </trkpt>
      <trkpt lat="42.69746" lon="0.66828">
        <ele>2078.8</ele>
        <time>2018-08-08T15:13:28.000Z</time>
      </trkpt>
      <trkpt lat="42.69746" lon="0.66828">
        <ele>2078.8</ele>
        <time>2018-08-08T15:13:29.000Z</time>
      </trkpt>
      <trkpt lat="42.69746" lon="0.66828">
        <ele>2078.8</ele>
        <time>2018-08-08T15:13:30.000Z</time>
      </trkpt>
      <trkpt lat="42.69746" lon="0.66828">
        <ele>2078.8</ele>
        <time>2018-08-08T15:13:31.000Z</time>
      </trkpt>
      <trkpt lat="42.69746" lon="0.66828">
        <ele>2078.8</ele>
        <time>2018-08-08T15:13:32.000Z</time>
      </trkpt>
      <trkpt lat="42.69746" lon="0.66828">
        <ele>2078.8</ele>
        <time>2018-08-08T15:13:33.000Z</time>
      </trkpt>
      <trkpt lat="42.69746" lon="0.66828">
        <ele>2078.8</ele>
        <time>2018-08-08T15:13:34.000Z</time>
      </trkpt>
      <trkpt lat="42.69746" lon="0.66828">
        <ele>2078.8</ele>
        <time>2018-08-08T15:13:35.000Z</time>
      </trkpt>
      <trkpt lat="42.69746" lon="0.66828">
        <ele>2078.8</ele>
        <time>2018-08-08T15:13:36.000Z</time>
      </trkpt>
      <trkpt lat="42.69746" lon="0.66828">
        <ele>2078.8</ele>
        <time>2018-08-08T15:13:37.000Z</time>
      </trkpt>
      <trkpt lat="42.69746" lon="0.66828">
        <ele>2078.8</ele>
        <time>2018-08-08T15:13:38.000Z</time>
      </trkpt>
      <trkpt lat="42.69746" lon="0.66828">
        <ele>2078.8</ele>
        <time>2018-08-08T15:13:39.000Z</time>
      </trkpt>
      <trkpt lat="42.69746" lon="0.66828">
        <ele>2078.8</ele>
        <time>2018-08-08T15:13:40.000Z</time>
      </trkpt>
      <trkpt lat="42.69746" lon="0.66828">
        <ele>2078.8</ele>
        <time>2018-08-08T15:13:41.000Z</time>
      </trkpt>
      <trkpt lat="42.69746" lon="0.66828">
        <ele>2078.8</ele>
        <time>2018-08-08T15:13:42.000Z</time>
      </trkpt>
      <trkpt lat="42.69746" lon="0.66828">
        <ele>2078.8</ele>
        <time>2018-08-08T15:13:43.000Z</time>
      </trkpt>
      <trkpt lat="42.69746" lon="0.66828">
        <ele>2078.8</ele>
        <time>2018-08-08T15:13:44.000Z</time>
      </trkpt>
      <trkpt lat="42.69746" lon="0.66828">
        <ele>2078.8</ele>
        <time>2018-08-08T15:13:45.000Z</time>
      </trkpt>
      <trkpt lat="42.69746" lon="0.66828">
        <ele>2078.8</ele>
        <time>2018-08-08T15:13:46.000Z</time>
      </trkpt>
      <trkpt lat="42.69746" lon="0.66828">
        <ele>2078.8</ele>
        <time>2018-08-08T15:13:47.000Z</time>
      </trkpt>
      <trkpt lat="42.69746" lon="0.66828">
        <ele>2078.8</ele>
        <time>2018-08-08T15:13:48.000Z</time>
      </trkpt>
      <trkpt lat="42.69746" lon="0.66828">
        <ele>2078.8</ele>
        <time>2018-08-08T15:13:49.000Z</time>
      </trkpt>
      <trkpt lat="42.69746" lon="0.66828">
        <ele>2078.8</ele>
        <time>2018-08-08T15:13:50.000Z</time>
      </trkpt>
      <trkpt lat="42.69746" lon="0.66828">
        <ele>2078.8</ele>
        <time>2018-08-08T15:13:51.000Z</time>
      </trkpt>
      <trkpt lat="42.69746" lon="0.66828">
        <ele>2078.8</ele>
        <time>2018-08-08T15:13:52.000Z</time>
      </trkpt>
      <trkpt lat="42.69746" lon="0.66828">
        <ele>2078.8</ele>
        <time>2018-08-08T15:13:53.000Z</time>
      </trkpt>
      <trkpt lat="42.69746" lon="0.66828">
        <ele>2078.8</ele>
        <time>2018-08-08T15:13:54.000Z</time>
      </trkpt>
      <trkpt lat="42.69746" lon="0.66828">
        <ele>2078.8</ele>
        <time>2018-08-08T15:13:55.000Z</time>
      </trkpt>
      <trkpt lat="42.69746" lon="0.66828">
        <ele>2078.8</ele>
        <time>2018-08-08T15:13:56.000Z</time>
      </trkpt>
      <trkpt lat="42.69746" lon="0.66828">
        <ele>2078.8</ele>
        <time>2018-08-08T15:13:57.000Z</time>
      </trkpt>
      <trkpt lat="42.69746" lon="0.66828">
        <ele>2078.8</ele>
        <time>2018-08-08T15:13:58.000Z</time>
      </trkpt>
      <trkpt lat="42.69746" lon="0.66828">
        <ele>2078.8</ele>
        <time>2018-08-08T15:13:59.000Z</time>
      </trkpt>
      <trkpt lat="42.69746" lon="0.66828">
        <ele>2078.8</ele>
        <time>2018-08-08T15:14:00.000Z</time>
      </trkpt>
      <trkpt lat="42.69746" lon="0.66828">
        <ele>2078.8</ele>
        <time>2018-08-08T15:14:01.000Z</time>
      </trkpt>
      <trkpt lat="42.69746" lon="0.66828">
        <ele>2078.8</ele>
        <time>2018-08-08T15:14:02.000Z</time>
      </trkpt>
      <trkpt lat="42.69746" lon="0.66828">
        <ele>2078.8</ele>
        <time>2018-08-08T15:14:03.000Z</time>
      </trkpt>
      <trkpt lat="42.69746" lon="0.66828">
        <ele>2078.8</ele>
        <time>2018-08-08T15:14:04.000Z</time>
      </trkpt>
      <trkpt lat="42.69746" lon="0.66828">
        <ele>2078.8</ele>
        <time>2018-08-08T15:14:05.000Z</time>
      </trkpt>
      <trkpt lat="42.69746" lon="0.66828">
        <ele>2078.8</ele>
        <time>2018-08-08T15:14:06.000Z</time>
      </trkpt>
      <trkpt lat="42.69746" lon="0.66828">
        <ele>2078.8</ele>
        <time>2018-08-08T15:14:07.000Z</time>
      </trkpt>
      <trkpt lat="42.69746" lon="0.66828">
        <ele>2078.8</ele>
        <time>2018-08-08T15:14:08.000Z</time>
      </trkpt>
      <trkpt lat="42.69746" lon="0.66828">
        <ele>2078.8</ele>
        <time>2018-08-08T15:14:09.000Z</time>
      </trkpt>
      <trkpt lat="42.69746" lon="0.66828">
        <ele>2078.8</ele>
        <time>2018-08-08T15:14:10.000Z</time>
      </trkpt>
      <trkpt lat="42.69746" lon="0.66828">
        <ele>2078.8</ele>
        <time>2018-08-08T15:14:11.000Z</time>
      </trkpt>
      <trkpt lat="42.69746" lon="0.66828">
        <ele>2078.8</ele>
        <time>2018-08-08T15:14:12.000Z</time>
      </trkpt>
      <trkpt lat="42.69746" lon="0.66828">
        <ele>2078.8</ele>
        <time>2018-08-08T15:14:13.000Z</time>
      </trkpt>
      <trkpt lat="42.69746" lon="0.66828">
        <ele>2078.8</ele>
        <time>2018-08-08T15:14:14.000Z</time>
      </trkpt>
      <trkpt lat="42.69746" lon="0.66828">
        <ele>2078.8</ele>
        <time>2018-08-08T15:14:15.000Z</time>
      </trkpt>
      <trkpt lat="42.69746" lon="0.66828">
        <ele>2078.8</ele>
        <time>2018-08-08T15:14:16.000Z</time>
      </trkpt>
      <trkpt lat="42.69746" lon="0.66828">
        <ele>2078.8</ele>
        <time>2018-08-08T15:14:17.000Z</time>
      </trkpt>
      <trkpt lat="42.69746" lon="0.66828">
        <ele>2078.8</ele>
        <time>2018-08-08T15:14:18.000Z</time>
      </trkpt>
      <trkpt lat="42.69746" lon="0.66828">
        <ele>2078.8</ele>
        <time>2018-08-08T15:14:19.000Z</time>
      </trkpt>
      <trkpt lat="42.69746" lon="0.66828">
        <ele>2078.8</ele>
        <time>2018-08-08T15:14:20.000Z</time>
      </trkpt>
      <trkpt lat="42.69746" lon="0.66828">
        <ele>2078.8</ele>
        <time>2018-08-08T15:14:21.000Z</time>
      </trkpt>
      <trkpt lat="42.69746" lon="0.66828">
        <ele>2078.8</ele>
        <time>2018-08-08T15:14:22.000Z</time>
      </trkpt>
      <trkpt lat="42.69746" lon="0.66828">
        <ele>2078.8</ele>
        <time>2018-08-08T15:14:23.000Z</time>
      </trkpt>
      <trkpt lat="42.69746" lon="0.66828">
        <ele>2078.8</ele>
        <time>2018-08-08T15:14:24.000Z</time>
      </trkpt>
      <trkpt lat="42.69746" lon="0.66828">
        <ele>2078.8</ele>
        <time>2018-08-08T15:14:25.000Z</time>
      </trkpt>
      <trkpt lat="42.69746" lon="0.66828">
        <ele>2078.8</ele>
        <time>2018-08-08T15:14:26.000Z</time>
      </trkpt>
      <trkpt lat="42.69746" lon="0.66828">
        <ele>2078.8</ele>
        <time>2018-08-08T15:14:27.000Z</time>
      </trkpt>
      <trkpt lat="42.69746" lon="0.66828">
        <ele>2078.8</ele>
        <time>2018-08-08T15:14:28.000Z</time>
      </trkpt>
      <trkpt lat="42.69746" lon="0.66828">
        <ele>2078.8</ele>
        <time>2018-08-08T15:14:29.000Z</time>
      </trkpt>
      <trkpt lat="42.69746" lon="0.66828">
        <ele>2078.8</ele>
        <time>2018-08-08T15:14:30.000Z</time>
      </trkpt>
      <trkpt lat="42.69746" lon="0.66828">
        <ele>2078.8</ele>
        <time>2018-08-08T15:14:31.000Z</time>
      </trkpt>
      <trkpt lat="42.69746" lon="0.66828">
        <ele>2078.8</ele>
        <time>2018-08-08T15:14:32.000Z</time>
      </trkpt>
      <trkpt lat="42.69746" lon="0.66828">
        <ele>2078.8</ele>
        <time>2018-08-08T15:14:33.000Z</time>
      </trkpt>
      <trkpt lat="42.69746" lon="0.66828">
        <ele>2078.8</ele>
        <time>2018-08-08T15:14:34.000Z</time>
      </trkpt>
      <trkpt lat="42.69746" lon="0.66828">
        <ele>2078.8</ele>
        <time>2018-08-08T15:14:35.000Z</time>
      </trkpt>
      <trkpt lat="42.69746" lon="0.66828">
        <ele>2078.8</ele>
        <time>2018-08-08T15:14:36.000Z</time>
      </trkpt>
      <trkpt lat="42.69746" lon="0.66828">
        <ele>2078.8</ele>
        <time>2018-08-08T15:14:37.000Z</time>
      </trkpt>
      <trkpt lat="42.69746" lon="0.66828">
        <ele>2078.8</ele>
        <time>2018-08-08T15:14:38.000Z</time>
      </trkpt>
      <trkpt lat="42.69746" lon="0.66828">
        <ele>2078.8</ele>
        <time>2018-08-08T15:14:39.000Z</time>
      </trkpt>
      <trkpt lat="42.69746" lon="0.66828">
        <ele>2078.8</ele>
        <time>2018-08-08T15:14:40.000Z</time>
      </trkpt>
      <trkpt lat="42.69746" lon="0.66828">
        <ele>2078.8</ele>
        <time>2018-08-08T15:14:41.000Z</time>
      </trkpt>
      <trkpt lat="42.69746" lon="0.66828">
        <ele>2078.8</ele>
        <time>2018-08-08T15:14:42.000Z</time>
      </trkpt>
      <trkpt lat="42.69746" lon="0.66828">
        <ele>2078.8</ele>
        <time>2018-08-08T15:14:43.000Z</time>
      </trkpt>
      <trkpt lat="42.69746" lon="0.66828">
        <ele>2078.8</ele>
        <time>2018-08-08T15:14:44.000Z</time>
      </trkpt>
      <trkpt lat="42.69746" lon="0.66828">
        <ele>2078.8</ele>
        <time>2018-08-08T15:14:45.000Z</time>
      </trkpt>
      <trkpt lat="42.69746" lon="0.66828">
        <ele>2078.8</ele>
        <time>2018-08-08T15:14:46.000Z</time>
      </trkpt>
      <trkpt lat="42.69746" lon="0.66828">
        <ele>2078.8</ele>
        <time>2018-08-08T15:14:47.000Z</time>
      </trkpt>
      <trkpt lat="42.69746" lon="0.66828">
        <ele>2078.8</ele>
        <time>2018-08-08T15:14:48.000Z</time>
      </trkpt>
      <trkpt lat="42.69746" lon="0.66828">
        <ele>2078.8</ele>
        <time>2018-08-08T15:14:49.000Z</time>
      </trkpt>
      <trkpt lat="42.69746" lon="0.66828">
        <ele>2078.8</ele>
        <time>2018-08-08T15:14:50.000Z</time>
      </trkpt>
      <trkpt lat="42.69746" lon="0.66828">
        <ele>2078.8</ele>
        <time>2018-08-08T15:14:51.000Z</time>
      </trkpt>
      <trkpt lat="42.69746" lon="0.66828">
        <ele>2078.8</ele>
        <time>2018-08-08T15:14:52.000Z</time>
      </trkpt>
      <trkpt lat="42.69746" lon="0.66828">
        <ele>2078.8</ele>
        <time>2018-08-08T15:14:53.000Z</time>
      </trkpt>
      <trkpt lat="42.69746" lon="0.66828">
        <ele>2078.8</ele>
        <time>2018-08-08T15:14:54.000Z</time>
      </trkpt>
      <trkpt lat="42.69746" lon="0.66828">
        <ele>2078.8</ele>
        <time>2018-08-08T15:14:55.000Z</time>
      </trkpt>
      <trkpt lat="42.69746" lon="0.66828">
        <ele>2078.8</ele>
        <time>2018-08-08T15:14:56.000Z</time>
      </trkpt>
      <trkpt lat="42.69746" lon="0.66828">
        <ele>2078.8</ele>
        <time>2018-08-08T15:14:57.000Z</time>
      </trkpt>
      <trkpt lat="42.69746" lon="0.66828">
        <ele>2078.8</ele>
        <time>2018-08-08T15:14:58.000Z</time>
      </trkpt>
      <trkpt lat="42.69746" lon="0.66828">
        <ele>2078.8</ele>
        <time>2018-08-08T15:14:59.000Z</time>
      </trkpt>
      <trkpt lat="42.69746" lon="0.66828">
        <ele>2078.8</ele>
        <time>2018-08-08T15:15:00.000Z</time>
      </trkpt>
      <trkpt lat="42.69746" lon="0.66828">
        <ele>2078.8</ele>
        <time>2018-08-08T15:15:01.000Z</time>
      </trkpt>
      <trkpt lat="42.69746" lon="0.66828">
        <ele>2078.8</ele>
        <time>2018-08-08T15:15:02.000Z</time>
      </trkpt>
      <trkpt lat="42.69746" lon="0.66828">
        <ele>2078.8</ele>
        <time>2018-08-08T15:15:03.000Z</time>
      </trkpt>
      <trkpt lat="42.69746" lon="0.66828">
        <ele>2078.8</ele>
        <time>2018-08-08T15:15:04.000Z</time>
      </trkpt>
      <trkpt lat="42.69746" lon="0.66828">
        <ele>2078.8</ele>
        <time>2018-08-08T15:15:05.000Z</time>
      </trkpt>
      <trkpt lat="42.69746" lon="0.66828">
        <ele>2078.8</ele>
        <time>2018-08-08T15:15:06.000Z</time>
      </trkpt>
      <trkpt lat="42.69746" lon="0.66828">
        <ele>2078.8</ele>
        <time>2018-08-08T15:15:07.000Z</time>
      </trkpt>
      <trkpt lat="42.69746" lon="0.66828">
        <ele>2078.8</ele>
        <time>2018-08-08T15:15:08.000Z</time>
      </trkpt>
      <trkpt lat="42.69746" lon="0.66828">
        <ele>2078.8</ele>
        <time>2018-08-08T15:15:09.000Z</time>
      </trkpt>
      <trkpt lat="42.69746" lon="0.66828">
        <ele>2078.8</ele>
        <time>2018-08-08T15:15:10.000Z</time>
      </trkpt>
      <trkpt lat="42.69746" lon="0.66828">
        <ele>2078.8</ele>
        <time>2018-08-08T15:15:11.000Z</time>
      </trkpt>
      <trkpt lat="42.69746" lon="0.66828">
        <ele>2078.8</ele>
        <time>2018-08-08T15:15:12.000Z</time>
      </trkpt>
      <trkpt lat="42.69746" lon="0.66828">
        <ele>2078.8</ele>
        <time>2018-08-08T15:15:13.000Z</time>
      </trkpt>
      <trkpt lat="42.69746" lon="0.66828">
        <ele>2078.8</ele>
        <time>2018-08-08T15:15:14.000Z</time>
      </trkpt>
      <trkpt lat="42.69746" lon="0.66828">
        <ele>2078.8</ele>
        <time>2018-08-08T15:15:15.000Z</time>
      </trkpt>
      <trkpt lat="42.69746" lon="0.66828">
        <ele>2078.8</ele>
        <time>2018-08-08T15:15:16.000Z</time>
      </trkpt>
      <trkpt lat="42.69746" lon="0.66828">
        <ele>2078.8</ele>
        <time>2018-08-08T15:15:17.000Z</time>
      </trkpt>
      <trkpt lat="42.69746" lon="0.66828">
        <ele>2078.8</ele>
        <time>2018-08-08T15:15:18.000Z</time>
      </trkpt>
      <trkpt lat="42.69746" lon="0.66828">
        <ele>2078.8</ele>
        <time>2018-08-08T15:15:19.000Z</time>
      </trkpt>
      <trkpt lat="42.69746" lon="0.66828">
        <ele>2078.8</ele>
        <time>2018-08-08T15:15:20.000Z</time>
      </trkpt>
      <trkpt lat="42.69746" lon="0.66828">
        <ele>2078.8</ele>
        <time>2018-08-08T15:15:21.000Z</time>
      </trkpt>
      <trkpt lat="42.69746" lon="0.66828">
        <ele>2078.8</ele>
        <time>2018-08-08T15:15:22.000Z</time>
      </trkpt>
      <trkpt lat="42.69746" lon="0.66828">
        <ele>2078.8</ele>
        <time>2018-08-08T15:15:23.000Z</time>
      </trkpt>
      <trkpt lat="42.69746" lon="0.66828">
        <ele>2078.8</ele>
        <time>2018-08-08T15:15:24.000Z</time>
      </trkpt>
      <trkpt lat="42.69746" lon="0.66828">
        <ele>2078.8</ele>
        <time>2018-08-08T15:15:25.000Z</time>
      </trkpt>
      <trkpt lat="42.69746" lon="0.66828">
        <ele>2078.8</ele>
        <time>2018-08-08T15:15:26.000Z</time>
      </trkpt>
      <trkpt lat="42.69746" lon="0.66828">
        <ele>2078.8</ele>
        <time>2018-08-08T15:15:27.000Z</time>
      </trkpt>
      <trkpt lat="42.69746" lon="0.66828">
        <ele>2078.8</ele>
        <time>2018-08-08T15:15:28.000Z</time>
      </trkpt>
      <trkpt lat="42.69746" lon="0.66828">
        <ele>2078.8</ele>
        <time>2018-08-08T15:15:29.000Z</time>
      </trkpt>
      <trkpt lat="42.69746" lon="0.66828">
        <ele>2078.8</ele>
        <time>2018-08-08T15:15:30.000Z</time>
      </trkpt>
      <trkpt lat="42.69746" lon="0.66828">
        <ele>2078.8</ele>
        <time>2018-08-08T15:15:31.000Z</time>
      </trkpt>
      <trkpt lat="42.69746" lon="0.66828">
        <ele>2078.8</ele>
        <time>2018-08-08T15:15:32.000Z</time>
      </trkpt>
      <trkpt lat="42.69746" lon="0.66828">
        <ele>2078.8</ele>
        <time>2018-08-08T15:15:33.000Z</time>
      </trkpt>
      <trkpt lat="42.69746" lon="0.66828">
        <ele>2078.8</ele>
        <time>2018-08-08T15:15:34.000Z</time>
      </trkpt>
      <trkpt lat="42.69746" lon="0.66828">
        <ele>2078.8</ele>
        <time>2018-08-08T15:15:35.000Z</time>
      </trkpt>
      <trkpt lat="42.69746" lon="0.66828">
        <ele>2078.8</ele>
        <time>2018-08-08T15:15:36.000Z</time>
      </trkpt>
      <trkpt lat="42.69746" lon="0.66828">
        <ele>2078.8</ele>
        <time>2018-08-08T15:15:37.000Z</time>
      </trkpt>
      <trkpt lat="42.69746" lon="0.66828">
        <ele>2078.8</ele>
        <time>2018-08-08T15:15:38.000Z</time>
      </trkpt>
      <trkpt lat="42.69746" lon="0.66828">
        <ele>2078.8</ele>
        <time>2018-08-08T15:15:39.000Z</time>
      </trkpt>
      <trkpt lat="42.69746" lon="0.66828">
        <ele>2078.8</ele>
        <time>2018-08-08T15:15:40.000Z</time>
      </trkpt>
      <trkpt lat="42.69746" lon="0.66828">
        <ele>2078.8</ele>
        <time>2018-08-08T15:15:41.000Z</time>
      </trkpt>
      <trkpt lat="42.69746" lon="0.66828">
        <ele>2078.8</ele>
        <time>2018-08-08T15:15:42.000Z</time>
      </trkpt>
      <trkpt lat="42.69746" lon="0.66828">
        <ele>2078.8</ele>
        <time>2018-08-08T15:15:43.000Z</time>
      </trkpt>
      <trkpt lat="42.69746" lon="0.66828">
        <ele>2078.8</ele>
        <time>2018-08-08T15:15:44.000Z</time>
      </trkpt>
      <trkpt lat="42.69746" lon="0.66828">
        <ele>2078.8</ele>
        <time>2018-08-08T15:15:45.000Z</time>
      </trkpt>
      <trkpt lat="42.69746" lon="0.66828">
        <ele>2078.8</ele>
        <time>2018-08-08T15:15:46.000Z</time>
      </trkpt>
      <trkpt lat="42.69746" lon="0.66828">
        <ele>2078.8</ele>
        <time>2018-08-08T15:15:47.000Z</time>
      </trkpt>
      <trkpt lat="42.69746" lon="0.66828">
        <ele>2078.8</ele>
        <time>2018-08-08T15:15:48.000Z</time>
      </trkpt>
      <trkpt lat="42.69746" lon="0.66828">
        <ele>2078.8</ele>
        <time>2018-08-08T15:15:49.000Z</time>
      </trkpt>
      <trkpt lat="42.69746" lon="0.66828">
        <ele>2078.8</ele>
        <time>2018-08-08T15:15:50.000Z</time>
      </trkpt>
      <trkpt lat="42.69746" lon="0.66828">
        <ele>2078.8</ele>
        <time>2018-08-08T15:15:51.000Z</time>
      </trkpt>
      <trkpt lat="42.69746" lon="0.66828">
        <ele>2078.8</ele>
        <time>2018-08-08T15:15:52.000Z</time>
      </trkpt>
      <trkpt lat="42.69746" lon="0.66828">
        <ele>2078.8</ele>
        <time>2018-08-08T15:15:53.000Z</time>
      </trkpt>
      <trkpt lat="42.69746" lon="0.66828">
        <ele>2078.8</ele>
        <time>2018-08-08T15:15:54.000Z</time>
      </trkpt>
      <trkpt lat="42.69746" lon="0.66828">
        <ele>2078.8</ele>
        <time>2018-08-08T15:15:55.000Z</time>
      </trkpt>
      <trkpt lat="42.69746" lon="0.66828">
        <ele>2078.8</ele>
        <time>2018-08-08T15:15:56.000Z</time>
      </trkpt>
      <trkpt lat="42.69746" lon="0.66828">
        <ele>2078.8</ele>
        <time>2018-08-08T15:15:57.000Z</time>
      </trkpt>
      <trkpt lat="42.69746" lon="0.66828">
        <ele>2078.8</ele>
        <time>2018-08-08T15:15:58.000Z</time>
      </trkpt>
      <trkpt lat="42.69746" lon="0.66828">
        <ele>2078.8</ele>
        <time>2018-08-08T15:15:59.000Z</time>
      </trkpt>
      <trkpt lat="42.69746" lon="0.66828">
        <ele>2078.8</ele>
        <time>2018-08-08T15:16:00.000Z</time>
      </trkpt>
      <trkpt lat="42.69746" lon="0.66828">
        <ele>2078.8</ele>
        <time>2018-08-08T15:16:01.000Z</time>
      </trkpt>
      <trkpt lat="42.69746" lon="0.66828">
        <ele>2078.8</ele>
        <time>2018-08-08T15:16:02.000Z</time>
      </trkpt>
      <trkpt lat="42.69746" lon="0.66828">
        <ele>2078.8</ele>
        <time>2018-08-08T15:16:03.000Z</time>
      </trkpt>
      <trkpt lat="42.69746" lon="0.66828">
        <ele>2078.8</ele>
        <time>2018-08-08T15:16:04.000Z</time>
      </trkpt>
      <trkpt lat="42.69746" lon="0.66828">
        <ele>2078.8</ele>
        <time>2018-08-08T15:16:05.000Z</time>
      </trkpt>
      <trkpt lat="42.69746" lon="0.66828">
        <ele>2078.8</ele>
        <time>2018-08-08T15:16:06.000Z</time>
      </trkpt>
      <trkpt lat="42.69746" lon="0.66828">
        <ele>2078.8</ele>
        <time>2018-08-08T15:16:07.000Z</time>
      </trkpt>
      <trkpt lat="42.69746" lon="0.66828">
        <ele>2078.8</ele>
        <time>2018-08-08T15:16:08.000Z</time>
      </trkpt>
      <trkpt lat="42.69746" lon="0.66828">
        <ele>2078.8</ele>
        <time>2018-08-08T15:16:09.000Z</time>
      </trkpt>
      <trkpt lat="42.69746" lon="0.66828">
        <ele>2078.8</ele>
        <time>2018-08-08T15:16:10.000Z</time>
      </trkpt>
      <trkpt lat="42.69746" lon="0.66828">
        <ele>2078.8</ele>
        <time>2018-08-08T15:16:11.000Z</time>
      </trkpt>
      <trkpt lat="42.69746" lon="0.66828">
        <ele>2078.8</ele>
        <time>2018-08-08T15:16:12.000Z</time>
      </trkpt>
      <trkpt lat="42.69746" lon="0.66828">
        <ele>2078.8</ele>
        <time>2018-08-08T15:16:13.000Z</time>
      </trkpt>
      <trkpt lat="42.69746" lon="0.66828">
        <ele>2078.8</ele>
        <time>2018-08-08T15:16:14.000Z</time>
      </trkpt>
      <trkpt lat="42.69746" lon="0.66828">
        <ele>2078.8</ele>
        <time>2018-08-08T15:16:15.000Z</time>
      </trkpt>
      <trkpt lat="42.69746" lon="0.66828">
        <ele>2078.8</ele>
        <time>2018-08-08T15:16:16.000Z</time>
      </trkpt>
      <trkpt lat="42.69746" lon="0.66828">
        <ele>2078.8</ele>
        <time>2018-08-08T15:16:17.000Z</time>
      </trkpt>
      <trkpt lat="42.69746" lon="0.66828">
        <ele>2078.8</ele>
        <time>2018-08-08T15:16:18.000Z</time>
      </trkpt>
      <trkpt lat="42.69746" lon="0.66828">
        <ele>2078.8</ele>
        <time>2018-08-08T15:16:19.000Z</time>
      </trkpt>
      <trkpt lat="42.69746" lon="0.66828">
        <ele>2078.8</ele>
        <time>2018-08-08T15:16:20.000Z</time>
      </trkpt>
      <trkpt lat="42.69746" lon="0.66828">
        <ele>2078.8</ele>
        <time>2018-08-08T15:16:21.000Z</time>
      </trkpt>
      <trkpt lat="42.69746" lon="0.66828">
        <ele>2078.8</ele>
        <time>2018-08-08T15:16:22.000Z</time>
      </trkpt>
      <trkpt lat="42.69746" lon="0.66828">
        <ele>2078.8</ele>
        <time>2018-08-08T15:16:23.000Z</time>
      </trkpt>
      <trkpt lat="42.69746" lon="0.66828">
        <ele>2078.8</ele>
        <time>2018-08-08T15:16:24.000Z</time>
      </trkpt>
      <trkpt lat="42.69746" lon="0.66828">
        <ele>2078.8</ele>
        <time>2018-08-08T15:16:25.000Z</time>
      </trkpt>
      <trkpt lat="42.69746" lon="0.66828">
        <ele>2078.8</ele>
        <time>2018-08-08T15:16:26.000Z</time>
      </trkpt>
      <trkpt lat="42.69746" lon="0.66828">
        <ele>2078.8</ele>
        <time>2018-08-08T15:16:27.000Z</time>
      </trkpt>
      <trkpt lat="42.69746" lon="0.66828">
        <ele>2078.8</ele>
        <time>2018-08-08T15:16:28.000Z</time>
      </trkpt>
      <trkpt lat="42.69746" lon="0.66828">
        <ele>2078.8</ele>
        <time>2018-08-08T15:16:29.000Z</time>
      </trkpt>
      <trkpt lat="42.69746" lon="0.66828">
        <ele>2078.8</ele>
        <time>2018-08-08T15:16:30.000Z</time>
      </trkpt>
      <trkpt lat="42.69746" lon="0.66828">
        <ele>2078.8</ele>
        <time>2018-08-08T15:16:31.000Z</time>
      </trkpt>
      <trkpt lat="42.69746" lon="0.66828">
        <ele>2078.8</ele>
        <time>2018-08-08T15:16:32.000Z</time>
      </trkpt>
      <trkpt lat="42.69746" lon="0.66828">
        <ele>2078.8</ele>
        <time>2018-08-08T15:16:33.000Z</time>
      </trkpt>
      <trkpt lat="42.69746" lon="0.66828">
        <ele>2078.8</ele>
        <time>2018-08-08T15:16:34.000Z</time>
      </trkpt>
      <trkpt lat="42.69746" lon="0.66828">
        <ele>2078.8</ele>
        <time>2018-08-08T15:16:35.000Z</time>
      </trkpt>
      <trkpt lat="42.69746" lon="0.66828">
        <ele>2078.8</ele>
        <time>2018-08-08T15:16:36.000Z</time>
      </trkpt>
      <trkpt lat="42.69746" lon="0.66828">
        <ele>2078.8</ele>
        <time>2018-08-08T15:16:37.000Z</time>
      </trkpt>
      <trkpt lat="42.69746" lon="0.66828">
        <ele>2078.8</ele>
        <time>2018-08-08T15:16:38.000Z</time>
      </trkpt>
      <trkpt lat="42.69746" lon="0.66828">
        <ele>2078.8</ele>
        <time>2018-08-08T15:16:39.000Z</time>
      </trkpt>
      <trkpt lat="42.69746" lon="0.66828">
        <ele>2078.8</ele>
        <time>2018-08-08T15:16:40.000Z</time>
      </trkpt>
      <trkpt lat="42.69746" lon="0.66828">
        <ele>2078.8</ele>
        <time>2018-08-08T15:16:41.000Z</time>
      </trkpt>
      <trkpt lat="42.69746" lon="0.66828">
        <ele>2078.8</ele>
        <time>2018-08-08T15:16:42.000Z</time>
      </trkpt>
      <trkpt lat="42.69746" lon="0.66828">
        <ele>2078.8</ele>
        <time>2018-08-08T15:16:43.000Z</time>
      </trkpt>
      <trkpt lat="42.69746" lon="0.66828">
        <ele>2078.8</ele>
        <time>2018-08-08T15:16:44.000Z</time>
      </trkpt>
      <trkpt lat="42.69746" lon="0.66828">
        <ele>2078.8</ele>
        <time>2018-08-08T15:16:45.000Z</time>
      </trkpt>
      <trkpt lat="42.69746" lon="0.66828">
        <ele>2078.8</ele>
        <time>2018-08-08T15:16:46.000Z</time>
      </trkpt>
      <trkpt lat="42.69746" lon="0.66828">
        <ele>2078.8</ele>
        <time>2018-08-08T15:16:47.000Z</time>
      </trkpt>
      <trkpt lat="42.69746" lon="0.66828">
        <ele>2078.8</ele>
        <time>2018-08-08T15:16:48.000Z</time>
      </trkpt>
      <trkpt lat="42.69746" lon="0.66828">
        <ele>2078.8</ele>
        <time>2018-08-08T15:16:49.000Z</time>
      </trkpt>
      <trkpt lat="42.69746" lon="0.66828">
        <ele>2078.8</ele>
        <time>2018-08-08T15:16:50.000Z</time>
      </trkpt>
      <trkpt lat="42.69746" lon="0.66828">
        <ele>2078.8</ele>
        <time>2018-08-08T15:16:51.000Z</time>
      </trkpt>
      <trkpt lat="42.69746" lon="0.66828">
        <ele>2078.8</ele>
        <time>2018-08-08T15:16:52.000Z</time>
      </trkpt>
      <trkpt lat="42.69746" lon="0.66828">
        <ele>2078.8</ele>
        <time>2018-08-08T15:16:53.000Z</time>
      </trkpt>
      <trkpt lat="42.69746" lon="0.66828">
        <ele>2078.8</ele>
        <time>2018-08-08T15:16:54.000Z</time>
      </trkpt>
      <trkpt lat="42.69746" lon="0.66828">
        <ele>2078.8</ele>
        <time>2018-08-08T15:16:55.000Z</time>
      </trkpt>
      <trkpt lat="42.69746" lon="0.66828">
        <ele>2078.8</ele>
        <time>2018-08-08T15:16:56.000Z</time>
      </trkpt>
      <trkpt lat="42.69746" lon="0.66828">
        <ele>2078.8</ele>
        <time>2018-08-08T15:16:57.000Z</time>
      </trkpt>
      <trkpt lat="42.69746" lon="0.66828">
        <ele>2078.8</ele>
        <time>2018-08-08T15:16:58.000Z</time>
      </trkpt>
      <trkpt lat="42.69746" lon="0.66828">
        <ele>2078.8</ele>
        <time>2018-08-08T15:16:59.000Z</time>
      </trkpt>
      <trkpt lat="42.69746" lon="0.66828">
        <ele>2078.8</ele>
        <time>2018-08-08T15:17:00.000Z</time>
      </trkpt>
      <trkpt lat="42.69746" lon="0.66828">
        <ele>2078.8</ele>
        <time>2018-08-08T15:17:01.000Z</time>
      </trkpt>
      <trkpt lat="42.69746" lon="0.66828">
        <ele>2078.8</ele>
        <time>2018-08-08T15:17:02.000Z</time>
      </trkpt>
      <trkpt lat="42.69746" lon="0.66828">
        <ele>2078.8</ele>
        <time>2018-08-08T15:17:03.000Z</time>
      </trkpt>
      <trkpt lat="42.69746" lon="0.66828">
        <ele>2078.8</ele>
        <time>2018-08-08T15:17:04.000Z</time>
      </trkpt>
      <trkpt lat="42.69746" lon="0.66828">
        <ele>2078.8</ele>
        <time>2018-08-08T15:17:05.000Z</time>
      </trkpt>
      <trkpt lat="42.69746" lon="0.66828">
        <ele>2078.8</ele>
        <time>2018-08-08T15:17:06.000Z</time>
      </trkpt>
      <trkpt lat="42.69746" lon="0.66828">
        <ele>2078.8</ele>
        <time>2018-08-08T15:17:07.000Z</time>
      </trkpt>
      <trkpt lat="42.69746" lon="0.66828">
        <ele>2078.8</ele>
        <time>2018-08-08T15:17:08.000Z</time>
      </trkpt>
      <trkpt lat="42.69746" lon="0.66828">
        <ele>2078.8</ele>
        <time>2018-08-08T15:17:09.000Z</time>
      </trkpt>
      <trkpt lat="42.69746" lon="0.66828">
        <ele>2078.8</ele>
        <time>2018-08-08T15:17:10.000Z</time>
      </trkpt>
      <trkpt lat="42.69746" lon="0.66828">
        <ele>2078.8</ele>
        <time>2018-08-08T15:17:11.000Z</time>
      </trkpt>
      <trkpt lat="42.69746" lon="0.66828">
        <ele>2078.8</ele>
        <time>2018-08-08T15:17:12.000Z</time>
      </trkpt>
      <trkpt lat="42.69746" lon="0.66828">
        <ele>2078.8</ele>
        <time>2018-08-08T15:17:13.000Z</time>
      </trkpt>
      <trkpt lat="42.69746" lon="0.66828">
        <ele>2078.8</ele>
        <time>2018-08-08T15:17:14.000Z</time>
      </trkpt>
      <trkpt lat="42.69746" lon="0.66828">
        <ele>2078.8</ele>
        <time>2018-08-08T15:17:15.000Z</time>
      </trkpt>
      <trkpt lat="42.69746" lon="0.66828">
        <ele>2078.8</ele>
        <time>2018-08-08T15:17:16.000Z</time>
      </trkpt>
      <trkpt lat="42.69746" lon="0.66828">
        <ele>2078.8</ele>
        <time>2018-08-08T15:17:17.000Z</time>
      </trkpt>
      <trkpt lat="42.69746" lon="0.66828">
        <ele>2078.8</ele>
        <time>2018-08-08T15:17:18.000Z</time>
      </trkpt>
      <trkpt lat="42.69746" lon="0.66828">
        <ele>2078.8</ele>
        <time>2018-08-08T15:17:19.000Z</time>
      </trkpt>
      <trkpt lat="42.69746" lon="0.66828">
        <ele>2078.8</ele>
        <time>2018-08-08T15:17:20.000Z</time>
      </trkpt>
      <trkpt lat="42.69746" lon="0.66828">
        <ele>2078.8</ele>
        <time>2018-08-08T15:17:21.000Z</time>
      </trkpt>
      <trkpt lat="42.69746" lon="0.66828">
        <ele>2078.8</ele>
        <time>2018-08-08T15:17:22.000Z</time>
      </trkpt>
      <trkpt lat="42.69746" lon="0.66828">
        <ele>2078.8</ele>
        <time>2018-08-08T15:17:23.000Z</time>
      </trkpt>
      <trkpt lat="42.69746" lon="0.66828">
        <ele>2078.8</ele>
        <time>2018-08-08T15:17:24.000Z</time>
      </trkpt>
      <trkpt lat="42.69746" lon="0.66828">
        <ele>2078.8</ele>
        <time>2018-08-08T15:17:25.000Z</time>
      </trkpt>
      <trkpt lat="42.69746" lon="0.66828">
        <ele>2078.8</ele>
        <time>2018-08-08T15:17:26.000Z</time>
      </trkpt>
      <trkpt lat="42.69746" lon="0.66828">
        <ele>2078.8</ele>
        <time>2018-08-08T15:17:27.000Z</time>
      </trkpt>
      <trkpt lat="42.69746" lon="0.66828">
        <ele>2078.8</ele>
        <time>2018-08-08T15:17:28.000Z</time>
      </trkpt>
      <trkpt lat="42.69746" lon="0.66828">
        <ele>2078.8</ele>
        <time>2018-08-08T15:17:29.000Z</time>
      </trkpt>
      <trkpt lat="42.69746" lon="0.66828">
        <ele>2078.8</ele>
        <time>2018-08-08T15:17:30.000Z</time>
      </trkpt>
      <trkpt lat="42.69746" lon="0.66828">
        <ele>2078.8</ele>
        <time>2018-08-08T15:17:31.000Z</time>
      </trkpt>
      <trkpt lat="42.69746" lon="0.66828">
        <ele>2078.8</ele>
        <time>2018-08-08T15:17:32.000Z</time>
      </trkpt>
      <trkpt lat="42.69746" lon="0.66828">
        <ele>2078.8</ele>
        <time>2018-08-08T15:17:33.000Z</time>
      </trkpt>
      <trkpt lat="42.69746" lon="0.66828">
        <ele>2078.8</ele>
        <time>2018-08-08T15:17:34.000Z</time>
      </trkpt>
      <trkpt lat="42.69746" lon="0.66828">
        <ele>2078.8</ele>
        <time>2018-08-08T15:17:35.000Z</time>
      </trkpt>
      <trkpt lat="42.69746" lon="0.66828">
        <ele>2078.8</ele>
        <time>2018-08-08T15:17:36.000Z</time>
      </trkpt>
      <trkpt lat="42.69746" lon="0.66828">
        <ele>2078.8</ele>
        <time>2018-08-08T15:17:37.000Z</time>
      </trkpt>
      <trkpt lat="42.69746" lon="0.66828">
        <ele>2078.8</ele>
        <time>2018-08-08T15:17:38.000Z</time>
      </trkpt>
      <trkpt lat="42.69746" lon="0.66828">
        <ele>2078.8</ele>
        <time>2018-08-08T15:17:39.000Z</time>
      </trkpt>
      <trkpt lat="42.69746" lon="0.66828">
        <ele>2078.8</ele>
        <time>2018-08-08T15:17:40.000Z</time>
      </trkpt>
      <trkpt lat="42.69746" lon="0.66828">
        <ele>2078.8</ele>
        <time>2018-08-08T15:17:41.000Z</time>
      </trkpt>
      <trkpt lat="42.69746" lon="0.66828">
        <ele>2078.8</ele>
        <time>2018-08-08T15:17:42.000Z</time>
      </trkpt>
      <trkpt lat="42.69746" lon="0.66828">
        <ele>2078.8</ele>
        <time>2018-08-08T15:17:43.000Z</time>
      </trkpt>
      <trkpt lat="42.69746" lon="0.66828">
        <ele>2078.8</ele>
        <time>2018-08-08T15:17:44.000Z</time>
      </trkpt>
      <trkpt lat="42.69746" lon="0.66828">
        <ele>2078.8</ele>
        <time>2018-08-08T15:17:45.000Z</time>
      </trkpt>
      <trkpt lat="42.69746" lon="0.66828">
        <ele>2078.8</ele>
        <time>2018-08-08T15:17:46.000Z</time>
      </trkpt>
      <trkpt lat="42.69746" lon="0.66828">
        <ele>2078.8</ele>
        <time>2018-08-08T15:17:47.000Z</time>
      </trkpt>
      <trkpt lat="42.69746" lon="0.66828">
        <ele>2078.8</ele>
        <time>2018-08-08T15:17:48.000Z</time>
      </trkpt>
      <trkpt lat="42.69746" lon="0.66828">
        <ele>2078.8</ele>
        <time>2018-08-08T15:17:49.000Z</time>
      </trkpt>
      <trkpt lat="42.69746" lon="0.66828">
        <ele>2078.8</ele>
        <time>2018-08-08T15:17:50.000Z</time>
      </trkpt>
      <trkpt lat="42.69746" lon="0.66828">
        <ele>2078.8</ele>
        <time>2018-08-08T15:17:51.000Z</time>
      </trkpt>
      <trkpt lat="42.69746" lon="0.66828">
        <ele>2078.8</ele>
        <time>2018-08-08T15:17:52.000Z</time>
      </trkpt>
      <trkpt lat="42.69746" lon="0.66828">
        <ele>2078.8</ele>
        <time>2018-08-08T15:17:53.000Z</time>
      </trkpt>
      <trkpt lat="42.69746" lon="0.66828">
        <ele>2078.8</ele>
        <time>2018-08-08T15:17:54.000Z</time>
      </trkpt>
      <trkpt lat="42.69746" lon="0.66828">
        <ele>2078.8</ele>
        <time>2018-08-08T15:17:55.000Z</time>
      </trkpt>
      <trkpt lat="42.69746" lon="0.66828">
        <ele>2078.8</ele>
        <time>2018-08-08T15:17:56.000Z</time>
      </trkpt>
      <trkpt lat="42.69746" lon="0.66828">
        <ele>2078.8</ele>
        <time>2018-08-08T15:17:57.000Z</time>
      </trkpt>
      <trkpt lat="42.69746" lon="0.66828">
        <ele>2078.8</ele>
        <time>2018-08-08T15:17:58.000Z</time>
      </trkpt>
      <trkpt lat="42.69746" lon="0.66828">
        <ele>2078.8</ele>
        <time>2018-08-08T15:17:59.000Z</time>
      </trkpt>
      <trkpt lat="42.69746" lon="0.66828">
        <ele>2078.8</ele>
        <time>2018-08-08T15:18:00.000Z</time>
      </trkpt>
      <trkpt lat="42.69746" lon="0.66828">
        <ele>2078.8</ele>
        <time>2018-08-08T15:18:01.000Z</time>
      </trkpt>
      <trkpt lat="42.69746" lon="0.66828">
        <ele>2078.8</ele>
        <time>2018-08-08T15:18:02.000Z</time>
      </trkpt>
      <trkpt lat="42.69746" lon="0.66828">
        <ele>2078.8</ele>
        <time>2018-08-08T15:18:03.000Z</time>
      </trkpt>
      <trkpt lat="42.69746" lon="0.66828">
        <ele>2078.8</ele>
        <time>2018-08-08T15:18:04.000Z</time>
      </trkpt>
      <trkpt lat="42.69746" lon="0.66828">
        <ele>2078.8</ele>
        <time>2018-08-08T15:18:05.000Z</time>
      </trkpt>
      <trkpt lat="42.69746" lon="0.66828">
        <ele>2078.8</ele>
        <time>2018-08-08T15:18:06.000Z</time>
      </trkpt>
      <trkpt lat="42.69746" lon="0.66828">
        <ele>2078.8</ele>
        <time>2018-08-08T15:18:07.000Z</time>
      </trkpt>
      <trkpt lat="42.69746" lon="0.66828">
        <ele>2078.8</ele>
        <time>2018-08-08T15:18:08.000Z</time>
      </trkpt>
      <trkpt lat="42.69746" lon="0.66828">
        <ele>2078.8</ele>
        <time>2018-08-08T15:18:09.000Z</time>
      </trkpt>
      <trkpt lat="42.69746" lon="0.66828">
        <ele>2078.8</ele>
        <time>2018-08-08T15:18:10.000Z</time>
      </trkpt>
      <trkpt lat="42.69746" lon="0.66828">
        <ele>2078.8</ele>
        <time>2018-08-08T15:18:11.000Z</time>
      </trkpt>
      <trkpt lat="42.69746" lon="0.66828">
        <ele>2078.8</ele>
        <time>2018-08-08T15:18:12.000Z</time>
      </trkpt>
      <trkpt lat="42.69746" lon="0.66828">
        <ele>2078.8</ele>
        <time>2018-08-08T15:18:13.000Z</time>
      </trkpt>
      <trkpt lat="42.69746" lon="0.66828">
        <ele>2078.8</ele>
        <time>2018-08-08T15:18:14.000Z</time>
      </trkpt>
      <trkpt lat="42.69746" lon="0.66828">
        <ele>2078.8</ele>
        <time>2018-08-08T15:18:15.000Z</time>
      </trkpt>
      <trkpt lat="42.69746" lon="0.66828">
        <ele>2078.8</ele>
        <time>2018-08-08T15:18:16.000Z</time>
      </trkpt>
      <trkpt lat="42.69746" lon="0.66828">
        <ele>2078.8</ele>
        <time>2018-08-08T15:18:17.000Z</time>
      </trkpt>
      <trkpt lat="42.69746" lon="0.66828">
        <ele>2078.8</ele>
        <time>2018-08-08T15:18:18.000Z</time>
      </trkpt>
      <trkpt lat="42.69746" lon="0.66828">
        <ele>2078.8</ele>
        <time>2018-08-08T15:18:19.000Z</time>
      </trkpt>
      <trkpt lat="42.69746" lon="0.66828">
        <ele>2078.8</ele>
        <time>2018-08-08T15:18:20.000Z</time>
      </trkpt>
      <trkpt lat="42.69746" lon="0.66828">
        <ele>2078.8</ele>
        <time>2018-08-08T15:18:21.000Z</time>
      </trkpt>
      <trkpt lat="42.69746" lon="0.66828">
        <ele>2078.8</ele>
        <time>2018-08-08T15:18:22.000Z</time>
      </trkpt>
      <trkpt lat="42.69746" lon="0.66828">
        <ele>2078.8</ele>
        <time>2018-08-08T15:18:23.000Z</time>
      </trkpt>
      <trkpt lat="42.69746" lon="0.66828">
        <ele>2078.8</ele>
        <time>2018-08-08T15:18:24.000Z</time>
      </trkpt>
      <trkpt lat="42.69746" lon="0.66828">
        <ele>2078.8</ele>
        <time>2018-08-08T15:18:25.000Z</time>
      </trkpt>
      <trkpt lat="42.69746" lon="0.66828">
        <ele>2078.8</ele>
        <time>2018-08-08T15:18:26.000Z</time>
      </trkpt>
      <trkpt lat="42.69746" lon="0.66828">
        <ele>2078.8</ele>
        <time>2018-08-08T15:18:27.000Z</time>
      </trkpt>
      <trkpt lat="42.69746" lon="0.66828">
        <ele>2078.8</ele>
        <time>2018-08-08T15:18:28.000Z</time>
      </trkpt>
      <trkpt lat="42.69746" lon="0.66828">
        <ele>2078.8</ele>
        <time>2018-08-08T15:18:29.000Z</time>
      </trkpt>
      <trkpt lat="42.69746" lon="0.66828">
        <ele>2078.8</ele>
        <time>2018-08-08T15:18:30.000Z</time>
      </trkpt>
      <trkpt lat="42.69746" lon="0.66828">
        <ele>2078.8</ele>
        <time>2018-08-08T15:18:31.000Z</time>
      </trkpt>
      <trkpt lat="42.69746" lon="0.66828">
        <ele>2078.8</ele>
        <time>2018-08-08T15:18:32.000Z</time>
      </trkpt>
      <trkpt lat="42.69746" lon="0.66828">
        <ele>2078.8</ele>
        <time>2018-08-08T15:18:33.000Z</time>
      </trkpt>
      <trkpt lat="42.69746" lon="0.66828">
        <ele>2078.8</ele>
        <time>2018-08-08T15:18:34.000Z</time>
      </trkpt>
      <trkpt lat="42.69746" lon="0.66828">
        <ele>2078.8</ele>
        <time>2018-08-08T15:18:35.000Z</time>
      </trkpt>
      <trkpt lat="42.69746" lon="0.66828">
        <ele>2078.8</ele>
        <time>2018-08-08T15:18:36.000Z</time>
      </trkpt>
      <trkpt lat="42.69746" lon="0.66828">
        <ele>2078.8</ele>
        <time>2018-08-08T15:18:37.000Z</time>
      </trkpt>
      <trkpt lat="42.69746" lon="0.66828">
        <ele>2078.8</ele>
        <time>2018-08-08T15:18:38.000Z</time>
      </trkpt>
      <trkpt lat="42.69746" lon="0.66828">
        <ele>2078.8</ele>
        <time>2018-08-08T15:18:39.000Z</time>
      </trkpt>
      <trkpt lat="42.69746" lon="0.66828">
        <ele>2078.8</ele>
        <time>2018-08-08T15:18:40.000Z</time>
      </trkpt>
      <trkpt lat="42.69746" lon="0.66828">
        <ele>2078.8</ele>
        <time>2018-08-08T15:18:41.000Z</time>
      </trkpt>
      <trkpt lat="42.69746" lon="0.66828">
        <ele>2078.8</ele>
        <time>2018-08-08T15:18:42.000Z</time>
      </trkpt>
      <trkpt lat="42.69746" lon="0.66828">
        <ele>2078.8</ele>
        <time>2018-08-08T15:18:43.000Z</time>
      </trkpt>
      <trkpt lat="42.69746" lon="0.66828">
        <ele>2078.8</ele>
        <time>2018-08-08T15:18:44.000Z</time>
      </trkpt>
      <trkpt lat="42.69746" lon="0.66828">
        <ele>2078.8</ele>
        <time>2018-08-08T15:18:45.000Z</time>
      </trkpt>
      <trkpt lat="42.69746" lon="0.66828">
        <ele>2078.8</ele>
        <time>2018-08-08T15:18:46.000Z</time>
      </trkpt>
      <trkpt lat="42.69746" lon="0.66828">
        <ele>2078.8</ele>
        <time>2018-08-08T15:18:47.000Z</time>
      </trkpt>
      <trkpt lat="42.69746" lon="0.66828">
        <ele>2078.8</ele>
        <time>2018-08-08T15:18:48.000Z</time>
      </trkpt>
      <trkpt lat="42.69746" lon="0.66828">
        <ele>2078.8</ele>
        <time>2018-08-08T15:18:49.000Z</time>
      </trkpt>
      <trkpt lat="42.69746" lon="0.66828">
        <ele>2078.8</ele>
        <time>2018-08-08T15:18:50.000Z</time>
      </trkpt>
      <trkpt lat="42.69746" lon="0.66828">
        <ele>2078.8</ele>
        <time>2018-08-08T15:18:51.000Z</time>
      </trkpt>
      <trkpt lat="42.69746" lon="0.66828">
        <ele>2078.8</ele>
        <time>2018-08-08T15:18:52.000Z</time>
      </trkpt>
      <trkpt lat="42.69746" lon="0.66828">
        <ele>2078.8</ele>
        <time>2018-08-08T15:18:53.000Z</time>
      </trkpt>
      <trkpt lat="42.69746" lon="0.66828">
        <ele>2078.8</ele>
        <time>2018-08-08T15:18:54.000Z</time>
      </trkpt>
      <trkpt lat="42.69746" lon="0.66828">
        <ele>2078.8</ele>
        <time>2018-08-08T15:18:55.000Z</time>
      </trkpt>
      <trkpt lat="42.69746" lon="0.66828">
        <ele>2078.8</ele>
        <time>2018-08-08T15:18:56.000Z</time>
      </trkpt>
      <trkpt lat="42.69746" lon="0.66828">
        <ele>2078.8</ele>
        <time>2018-08-08T15:18:57.000Z</time>
      </trkpt>
      <trkpt lat="42.69746" lon="0.66828">
        <ele>2078.8</ele>
        <time>2018-08-08T15:18:58.000Z</time>
      </trkpt>
      <trkpt lat="42.69746" lon="0.66828">
        <ele>2078.8</ele>
        <time>2018-08-08T15:18:59.000Z</time>
      </trkpt>
      <trkpt lat="42.69746" lon="0.66828">
        <ele>2078.8</ele>
        <time>2018-08-08T15:19:00.000Z</time>
      </trkpt>
      <trkpt lat="42.69746" lon="0.66828">
        <ele>2078.8</ele>
        <time>2018-08-08T15:19:01.000Z</time>
      </trkpt>
      <trkpt lat="42.69746" lon="0.66828">
        <ele>2078.8</ele>
        <time>2018-08-08T15:19:02.000Z</time>
      </trkpt>
      <trkpt lat="42.69746" lon="0.66828">
        <ele>2078.8</ele>
        <time>2018-08-08T15:19:03.000Z</time>
      </trkpt>
      <trkpt lat="42.69746" lon="0.66828">
        <ele>2078.8</ele>
        <time>2018-08-08T15:19:04.000Z</time>
      </trkpt>
      <trkpt lat="42.69746" lon="0.66828">
        <ele>2078.8</ele>
        <time>2018-08-08T15:19:05.000Z</time>
      </trkpt>
      <trkpt lat="42.69746" lon="0.66828">
        <ele>2078.8</ele>
        <time>2018-08-08T15:19:06.000Z</time>
      </trkpt>
      <trkpt lat="42.69746" lon="0.66828">
        <ele>2078.8</ele>
        <time>2018-08-08T15:19:07.000Z</time>
      </trkpt>
      <trkpt lat="42.69746" lon="0.66828">
        <ele>2078.8</ele>
        <time>2018-08-08T15:19:08.000Z</time>
      </trkpt>
      <trkpt lat="42.69746" lon="0.66828">
        <ele>2078.8</ele>
        <time>2018-08-08T15:19:09.000Z</time>
      </trkpt>
      <trkpt lat="42.69746" lon="0.66828">
        <ele>2078.8</ele>
        <time>2018-08-08T15:19:10.000Z</time>
      </trkpt>
      <trkpt lat="42.69746" lon="0.66828">
        <ele>2078.8</ele>
        <time>2018-08-08T15:19:11.000Z</time>
      </trkpt>
      <trkpt lat="42.69746" lon="0.66828">
        <ele>2078.8</ele>
        <time>2018-08-08T15:19:12.000Z</time>
      </trkpt>
      <trkpt lat="42.69746" lon="0.66828">
        <ele>2078.8</ele>
        <time>2018-08-08T15:19:13.000Z</time>
      </trkpt>
      <trkpt lat="42.69746" lon="0.66828">
        <ele>2078.8</ele>
        <time>2018-08-08T15:19:14.000Z</time>
      </trkpt>
      <trkpt lat="42.69746" lon="0.66828">
        <ele>2078.8</ele>
        <time>2018-08-08T15:19:15.000Z</time>
      </trkpt>
      <trkpt lat="42.69746" lon="0.66828">
        <ele>2078.8</ele>
        <time>2018-08-08T15:19:16.000Z</time>
      </trkpt>
      <trkpt lat="42.69746" lon="0.66828">
        <ele>2078.8</ele>
        <time>2018-08-08T15:19:17.000Z</time>
      </trkpt>
      <trkpt lat="42.69746" lon="0.66828">
        <ele>2078.8</ele>
        <time>2018-08-08T15:19:18.000Z</time>
      </trkpt>
      <trkpt lat="42.69746" lon="0.66828">
        <ele>2078.8</ele>
        <time>2018-08-08T15:19:19.000Z</time>
      </trkpt>
      <trkpt lat="42.69746" lon="0.66828">
        <ele>2078.8</ele>
        <time>2018-08-08T15:19:20.000Z</time>
      </trkpt>
      <trkpt lat="42.69746" lon="0.66828">
        <ele>2078.8</ele>
        <time>2018-08-08T15:19:21.000Z</time>
      </trkpt>
      <trkpt lat="42.69746" lon="0.66828">
        <ele>2078.8</ele>
        <time>2018-08-08T15:19:22.000Z</time>
      </trkpt>
      <trkpt lat="42.69746" lon="0.66828">
        <ele>2078.8</ele>
        <time>2018-08-08T15:19:23.000Z</time>
      </trkpt>
      <trkpt lat="42.69746" lon="0.66828">
        <ele>2078.8</ele>
        <time>2018-08-08T15:19:24.000Z</time>
      </trkpt>
      <trkpt lat="42.69746" lon="0.66828">
        <ele>2078.8</ele>
        <time>2018-08-08T15:19:25.000Z</time>
      </trkpt>
      <trkpt lat="42.69746" lon="0.66828">
        <ele>2078.8</ele>
        <time>2018-08-08T15:19:26.000Z</time>
      </trkpt>
      <trkpt lat="42.69746" lon="0.66828">
        <ele>2078.8</ele>
        <time>2018-08-08T15:19:27.000Z</time>
      </trkpt>
      <trkpt lat="42.69746" lon="0.66828">
        <ele>2078.8</ele>
        <time>2018-08-08T15:19:28.000Z</time>
      </trkpt>
      <trkpt lat="42.69746" lon="0.66828">
        <ele>2078.8</ele>
        <time>2018-08-08T15:19:29.000Z</time>
      </trkpt>
      <trkpt lat="42.69746" lon="0.66828">
        <ele>2078.8</ele>
        <time>2018-08-08T15:19:30.000Z</time>
      </trkpt>
      <trkpt lat="42.69746" lon="0.66828">
        <ele>2078.8</ele>
        <time>2018-08-08T15:19:31.000Z</time>
      </trkpt>
      <trkpt lat="42.69746" lon="0.66828">
        <ele>2078.8</ele>
        <time>2018-08-08T15:19:32.000Z</time>
      </trkpt>
      <trkpt lat="42.69746" lon="0.66828">
        <ele>2078.8</ele>
        <time>2018-08-08T15:19:33.000Z</time>
      </trkpt>
      <trkpt lat="42.69746" lon="0.66828">
        <ele>2078.8</ele>
        <time>2018-08-08T15:19:34.000Z</time>
      </trkpt>
      <trkpt lat="42.69746" lon="0.66828">
        <ele>2078.8</ele>
        <time>2018-08-08T15:19:35.000Z</time>
      </trkpt>
      <trkpt lat="42.69746" lon="0.66828">
        <ele>2078.8</ele>
        <time>2018-08-08T15:19:36.000Z</time>
      </trkpt>
      <trkpt lat="42.69746" lon="0.66828">
        <ele>2078.8</ele>
        <time>2018-08-08T15:19:37.000Z</time>
      </trkpt>
      <trkpt lat="42.69746" lon="0.66828">
        <ele>2078.8</ele>
        <time>2018-08-08T15:19:38.000Z</time>
      </trkpt>
      <trkpt lat="42.69746" lon="0.66828">
        <ele>2078.8</ele>
        <time>2018-08-08T15:19:39.000Z</time>
      </trkpt>
      <trkpt lat="42.69746" lon="0.66828">
        <ele>2078.8</ele>
        <time>2018-08-08T15:19:40.000Z</time>
      </trkpt>
      <trkpt lat="42.69746" lon="0.66828">
        <ele>2078.8</ele>
        <time>2018-08-08T15:19:41.000Z</time>
      </trkpt>
      <trkpt lat="42.69746" lon="0.66828">
        <ele>2078.8</ele>
        <time>2018-08-08T15:19:42.000Z</time>
      </trkpt>
      <trkpt lat="42.69746" lon="0.66828">
        <ele>2078.8</ele>
        <time>2018-08-08T15:19:43.000Z</time>
      </trkpt>
      <trkpt lat="42.69746" lon="0.66828">
        <ele>2078.8</ele>
        <time>2018-08-08T15:19:44.000Z</time>
      </trkpt>
      <trkpt lat="42.69746" lon="0.66828">
        <ele>2078.8</ele>
        <time>2018-08-08T15:19:45.000Z</time>
      </trkpt>
      <trkpt lat="42.69746" lon="0.66828">
        <ele>2078.8</ele>
        <time>2018-08-08T15:19:46.000Z</time>
      </trkpt>
      <trkpt lat="42.69746" lon="0.66828">
        <ele>2078.8</ele>
        <time>2018-08-08T15:19:47.000Z</time>
      </trkpt>
      <trkpt lat="42.69746" lon="0.66828">
        <ele>2078.8</ele>
        <time>2018-08-08T15:19:48.000Z</time>
      </trkpt>
      <trkpt lat="42.69746" lon="0.66828">
        <ele>2078.8</ele>
        <time>2018-08-08T15:19:49.000Z</time>
      </trkpt>
      <trkpt lat="42.69746" lon="0.66828">
        <ele>2078.8</ele>
        <time>2018-08-08T15:19:50.000Z</time>
      </trkpt>
      <trkpt lat="42.69746" lon="0.66828">
        <ele>2078.8</ele>
        <time>2018-08-08T15:19:51.000Z</time>
      </trkpt>
      <trkpt lat="42.69746" lon="0.66828">
        <ele>2078.8</ele>
        <time>2018-08-08T15:19:52.000Z</time>
      </trkpt>
      <trkpt lat="42.69746" lon="0.66828">
        <ele>2078.8</ele>
        <time>2018-08-08T15:19:53.000Z</time>
      </trkpt>
      <trkpt lat="42.69746" lon="0.66828">
        <ele>2078.8</ele>
        <time>2018-08-08T15:19:54.000Z</time>
      </trkpt>
      <trkpt lat="42.69746" lon="0.66828">
        <ele>2078.8</ele>
        <time>2018-08-08T15:19:55.000Z</time>
      </trkpt>
      <trkpt lat="42.69746" lon="0.66828">
        <ele>2078.8</ele>
        <time>2018-08-08T15:19:56.000Z</time>
      </trkpt>
      <trkpt lat="42.69746" lon="0.66828">
        <ele>2078.8</ele>
        <time>2018-08-08T15:19:57.000Z</time>
      </trkpt>
      <trkpt lat="42.69746" lon="0.66828">
        <ele>2078.8</ele>
        <time>2018-08-08T15:19:58.000Z</time>
      </trkpt>
      <trkpt lat="42.69746" lon="0.66828">
        <ele>2078.8</ele>
        <time>2018-08-08T15:19:59.000Z</time>
      </trkpt>
      <trkpt lat="42.69746" lon="0.66828">
        <ele>2078.8</ele>
        <time>2018-08-08T15:20:00.000Z</time>
      </trkpt>
      <trkpt lat="42.69746" lon="0.66828">
        <ele>2078.8</ele>
        <time>2018-08-08T15:20:01.000Z</time>
      </trkpt>
      <trkpt lat="42.69746" lon="0.66828">
        <ele>2078.8</ele>
        <time>2018-08-08T15:20:02.000Z</time>
      </trkpt>
      <trkpt lat="42.69746" lon="0.66828">
        <ele>2078.8</ele>
        <time>2018-08-08T15:20:03.000Z</time>
      </trkpt>
      <trkpt lat="42.69746" lon="0.66828">
        <ele>2078.8</ele>
        <time>2018-08-08T15:20:04.000Z</time>
      </trkpt>
      <trkpt lat="42.69746" lon="0.66828">
        <ele>2078.8</ele>
        <time>2018-08-08T15:20:05.000Z</time>
      </trkpt>
      <trkpt lat="42.69746" lon="0.66828">
        <ele>2078.8</ele>
        <time>2018-08-08T15:20:06.000Z</time>
      </trkpt>
      <trkpt lat="42.69746" lon="0.66828">
        <ele>2078.8</ele>
        <time>2018-08-08T15:20:07.000Z</time>
      </trkpt>
      <trkpt lat="42.69746" lon="0.66828">
        <ele>2078.8</ele>
        <time>2018-08-08T15:20:08.000Z</time>
      </trkpt>
      <trkpt lat="42.69746" lon="0.66828">
        <ele>2078.8</ele>
        <time>2018-08-08T15:20:09.000Z</time>
      </trkpt>
      <trkpt lat="42.69746" lon="0.66828">
        <ele>2078.8</ele>
        <time>2018-08-08T15:20:10.000Z</time>
      </trkpt>
      <trkpt lat="42.69746" lon="0.66828">
        <ele>2078.8</ele>
        <time>2018-08-08T15:20:11.000Z</time>
      </trkpt>
      <trkpt lat="42.69746" lon="0.66828">
        <ele>2078.8</ele>
        <time>2018-08-08T15:20:12.000Z</time>
      </trkpt>
      <trkpt lat="42.69746" lon="0.66828">
        <ele>2078.8</ele>
        <time>2018-08-08T15:20:13.000Z</time>
      </trkpt>
      <trkpt lat="42.69746" lon="0.66828">
        <ele>2078.8</ele>
        <time>2018-08-08T15:20:14.000Z</time>
      </trkpt>
      <trkpt lat="42.69746" lon="0.66828">
        <ele>2078.8</ele>
        <time>2018-08-08T15:20:15.000Z</time>
      </trkpt>
      <trkpt lat="42.69746" lon="0.66828">
        <ele>2078.8</ele>
        <time>2018-08-08T15:20:16.000Z</time>
      </trkpt>
      <trkpt lat="42.69746" lon="0.66828">
        <ele>2078.8</ele>
        <time>2018-08-08T15:20:17.000Z</time>
      </trkpt>
      <trkpt lat="42.69746" lon="0.66828">
        <ele>2078.8</ele>
        <time>2018-08-08T15:20:18.000Z</time>
      </trkpt>
      <trkpt lat="42.69746" lon="0.66828">
        <ele>2078.8</ele>
        <time>2018-08-08T15:20:19.000Z</time>
      </trkpt>
      <trkpt lat="42.69746" lon="0.66828">
        <ele>2078.8</ele>
        <time>2018-08-08T15:20:20.000Z</time>
      </trkpt>
      <trkpt lat="42.69746" lon="0.66828">
        <ele>2078.8</ele>
        <time>2018-08-08T15:20:21.000Z</time>
      </trkpt>
      <trkpt lat="42.69746" lon="0.66828">
        <ele>2078.8</ele>
        <time>2018-08-08T15:20:22.000Z</time>
      </trkpt>
      <trkpt lat="42.69746" lon="0.66828">
        <ele>2078.8</ele>
        <time>2018-08-08T15:20:23.000Z</time>
      </trkpt>
      <trkpt lat="42.69746" lon="0.66828">
        <ele>2078.8</ele>
        <time>2018-08-08T15:20:24.000Z</time>
      </trkpt>
      <trkpt lat="42.69746" lon="0.66828">
        <ele>2078.8</ele>
        <time>2018-08-08T15:20:25.000Z</time>
      </trkpt>
      <trkpt lat="42.69746" lon="0.66828">
        <ele>2078.8</ele>
        <time>2018-08-08T15:20:26.000Z</time>
      </trkpt>
      <trkpt lat="42.69746" lon="0.66828">
        <ele>2078.8</ele>
        <time>2018-08-08T15:20:27.000Z</time>
      </trkpt>
      <trkpt lat="42.69746" lon="0.66828">
        <ele>2078.8</ele>
        <time>2018-08-08T15:20:28.000Z</time>
      </trkpt>
      <trkpt lat="42.69746" lon="0.66828">
        <ele>2078.8</ele>
        <time>2018-08-08T15:20:29.000Z</time>
      </trkpt>
      <trkpt lat="42.69746" lon="0.66828">
        <ele>2078.8</ele>
        <time>2018-08-08T15:20:30.000Z</time>
      </trkpt>
      <trkpt lat="42.69746" lon="0.66828">
        <ele>2078.8</ele>
        <time>2018-08-08T15:20:31.000Z</time>
      </trkpt>
      <trkpt lat="42.69746" lon="0.66828">
        <ele>2078.8</ele>
        <time>2018-08-08T15:20:32.000Z</time>
      </trkpt>
      <trkpt lat="42.69746" lon="0.66828">
        <ele>2078.8</ele>
        <time>2018-08-08T15:20:33.000Z</time>
      </trkpt>
      <trkpt lat="42.69746" lon="0.66828">
        <ele>2078.8</ele>
        <time>2018-08-08T15:20:34.000Z</time>
      </trkpt>
      <trkpt lat="42.69746" lon="0.66828">
        <ele>2078.8</ele>
        <time>2018-08-08T15:20:35.000Z</time>
      </trkpt>
      <trkpt lat="42.69746" lon="0.66828">
        <ele>2078.8</ele>
        <time>2018-08-08T15:20:36.000Z</time>
      </trkpt>
      <trkpt lat="42.69746" lon="0.66828">
        <ele>2078.8</ele>
        <time>2018-08-08T15:20:37.000Z</time>
      </trkpt>
      <trkpt lat="42.69746" lon="0.66828">
        <ele>2078.8</ele>
        <time>2018-08-08T15:20:38.000Z</time>
      </trkpt>
      <trkpt lat="42.69746" lon="0.66828">
        <ele>2078.8</ele>
        <time>2018-08-08T15:20:39.000Z</time>
      </trkpt>
      <trkpt lat="42.69746" lon="0.66828">
        <ele>2078.8</ele>
        <time>2018-08-08T15:20:40.000Z</time>
      </trkpt>
      <trkpt lat="42.69746" lon="0.66828">
        <ele>2078.8</ele>
        <time>2018-08-08T15:20:41.000Z</time>
      </trkpt>
      <trkpt lat="42.69746" lon="0.66828">
        <ele>2078.8</ele>
        <time>2018-08-08T15:20:42.000Z</time>
      </trkpt>
      <trkpt lat="42.69746" lon="0.66828">
        <ele>2078.8</ele>
        <time>2018-08-08T15:20:43.000Z</time>
      </trkpt>
      <trkpt lat="42.69746" lon="0.66828">
        <ele>2078.8</ele>
        <time>2018-08-08T15:20:44.000Z</time>
      </trkpt>
      <trkpt lat="42.69746" lon="0.66828">
        <ele>2078.8</ele>
        <time>2018-08-08T15:20:45.000Z</time>
      </trkpt>
      <trkpt lat="42.69746" lon="0.66828">
        <ele>2078.8</ele>
        <time>2018-08-08T15:20:46.000Z</time>
      </trkpt>
      <trkpt lat="42.69746" lon="0.66828">
        <ele>2078.8</ele>
        <time>2018-08-08T15:20:47.000Z</time>
      </trkpt>
      <trkpt lat="42.69746" lon="0.66828">
        <ele>2078.8</ele>
        <time>2018-08-08T15:20:48.000Z</time>
      </trkpt>
      <trkpt lat="42.69746" lon="0.66828">
        <ele>2078.8</ele>
        <time>2018-08-08T15:20:49.000Z</time>
      </trkpt>
      <trkpt lat="42.69746" lon="0.66828">
        <ele>2078.8</ele>
        <time>2018-08-08T15:20:50.000Z</time>
      </trkpt>
      <trkpt lat="42.69746" lon="0.66828">
        <ele>2078.8</ele>
        <time>2018-08-08T15:20:51.000Z</time>
      </trkpt>
      <trkpt lat="42.69746" lon="0.66828">
        <ele>2078.8</ele>
        <time>2018-08-08T15:20:52.000Z</time>
      </trkpt>
      <trkpt lat="42.69746" lon="0.66828">
        <ele>2078.8</ele>
        <time>2018-08-08T15:20:53.000Z</time>
      </trkpt>
      <trkpt lat="42.69746" lon="0.66828">
        <ele>2078.8</ele>
        <time>2018-08-08T15:20:54.000Z</time>
      </trkpt>
      <trkpt lat="42.69746" lon="0.66828">
        <ele>2078.8</ele>
        <time>2018-08-08T15:20:55.000Z</time>
      </trkpt>
      <trkpt lat="42.69746" lon="0.66828">
        <ele>2078.8</ele>
        <time>2018-08-08T15:20:56.000Z</time>
      </trkpt>
      <trkpt lat="42.69746" lon="0.66828">
        <ele>2078.8</ele>
        <time>2018-08-08T15:20:57.000Z</time>
      </trkpt>
      <trkpt lat="42.69746" lon="0.66828">
        <ele>2078.8</ele>
        <time>2018-08-08T15:20:58.000Z</time>
      </trkpt>
      <trkpt lat="42.69746" lon="0.66828">
        <ele>2078.8</ele>
        <time>2018-08-08T15:20:59.000Z</time>
      </trkpt>
      <trkpt lat="42.69746" lon="0.66828">
        <ele>2078.8</ele>
        <time>2018-08-08T15:21:00.000Z</time>
      </trkpt>
      <trkpt lat="42.69746" lon="0.66828">
        <ele>2078.8</ele>
        <time>2018-08-08T15:21:01.000Z</time>
      </trkpt>
      <trkpt lat="42.69746" lon="0.66828">
        <ele>2078.8</ele>
        <time>2018-08-08T15:21:02.000Z</time>
      </trkpt>
      <trkpt lat="42.69746" lon="0.66828">
        <ele>2078.8</ele>
        <time>2018-08-08T15:21:03.000Z</time>
      </trkpt>
      <trkpt lat="42.69746" lon="0.66828">
        <ele>2078.8</ele>
        <time>2018-08-08T15:21:04.000Z</time>
      </trkpt>
      <trkpt lat="42.69746" lon="0.66828">
        <ele>2078.8</ele>
        <time>2018-08-08T15:21:05.000Z</time>
      </trkpt>
      <trkpt lat="42.69746" lon="0.66828">
        <ele>2078.8</ele>
        <time>2018-08-08T15:21:06.000Z</time>
      </trkpt>
      <trkpt lat="42.69746" lon="0.66828">
        <ele>2078.8</ele>
        <time>2018-08-08T15:21:07.000Z</time>
      </trkpt>
      <trkpt lat="42.69746" lon="0.66828">
        <ele>2078.8</ele>
        <time>2018-08-08T15:21:08.000Z</time>
      </trkpt>
      <trkpt lat="42.69746" lon="0.66828">
        <ele>2078.8</ele>
        <time>2018-08-08T15:21:09.000Z</time>
      </trkpt>
      <trkpt lat="42.69746" lon="0.66828">
        <ele>2078.8</ele>
        <time>2018-08-08T15:21:10.000Z</time>
      </trkpt>
      <trkpt lat="42.69746" lon="0.66828">
        <ele>2078.8</ele>
        <time>2018-08-08T15:21:11.000Z</time>
      </trkpt>
      <trkpt lat="42.69746" lon="0.66828">
        <ele>2078.8</ele>
        <time>2018-08-08T15:21:12.000Z</time>
      </trkpt>
      <trkpt lat="42.69746" lon="0.66828">
        <ele>2078.8</ele>
        <time>2018-08-08T15:21:13.000Z</time>
      </trkpt>
      <trkpt lat="42.69746" lon="0.66828">
        <ele>2078.8</ele>
        <time>2018-08-08T15:21:14.000Z</time>
      </trkpt>
      <trkpt lat="42.69746" lon="0.66828">
        <ele>2078.8</ele>
        <time>2018-08-08T15:21:15.000Z</time>
      </trkpt>
      <trkpt lat="42.69746" lon="0.66828">
        <ele>2078.8</ele>
        <time>2018-08-08T15:21:16.000Z</time>
      </trkpt>
      <trkpt lat="42.69746" lon="0.66828">
        <ele>2078.8</ele>
        <time>2018-08-08T15:21:17.000Z</time>
      </trkpt>
      <trkpt lat="42.69746" lon="0.66828">
        <ele>2078.8</ele>
        <time>2018-08-08T15:21:18.000Z</time>
      </trkpt>
      <trkpt lat="42.69746" lon="0.66828">
        <ele>2078.8</ele>
        <time>2018-08-08T15:21:19.000Z</time>
      </trkpt>
      <trkpt lat="42.69746" lon="0.66828">
        <ele>2078.8</ele>
        <time>2018-08-08T15:21:20.000Z</time>
      </trkpt>
      <trkpt lat="42.69746" lon="0.66828">
        <ele>2078.8</ele>
        <time>2018-08-08T15:21:21.000Z</time>
      </trkpt>
      <trkpt lat="42.69746" lon="0.66828">
        <ele>2078.8</ele>
        <time>2018-08-08T15:21:22.000Z</time>
      </trkpt>
      <trkpt lat="42.69746" lon="0.66828">
        <ele>2078.8</ele>
        <time>2018-08-08T15:21:23.000Z</time>
      </trkpt>
      <trkpt lat="42.69746" lon="0.66828">
        <ele>2078.8</ele>
        <time>2018-08-08T15:21:24.000Z</time>
      </trkpt>
      <trkpt lat="42.69746" lon="0.66828">
        <ele>2078.8</ele>
        <time>2018-08-08T15:21:25.000Z</time>
      </trkpt>
      <trkpt lat="42.69746" lon="0.66828">
        <ele>2078.8</ele>
        <time>2018-08-08T15:21:26.000Z</time>
      </trkpt>
      <trkpt lat="42.69746" lon="0.66828">
        <ele>2078.8</ele>
        <time>2018-08-08T15:21:27.000Z</time>
      </trkpt>
      <trkpt lat="42.69746" lon="0.66828">
        <ele>2078.8</ele>
        <time>2018-08-08T15:21:28.000Z</time>
      </trkpt>
      <trkpt lat="42.69746" lon="0.66828">
        <ele>2078.8</ele>
        <time>2018-08-08T15:21:29.000Z</time>
      </trkpt>
      <trkpt lat="42.69746" lon="0.66828">
        <ele>2078.8</ele>
        <time>2018-08-08T15:21:30.000Z</time>
      </trkpt>
      <trkpt lat="42.69746" lon="0.66828">
        <ele>2078.8</ele>
        <time>2018-08-08T15:21:31.000Z</time>
      </trkpt>
      <trkpt lat="42.69746" lon="0.66828">
        <ele>2078.8</ele>
        <time>2018-08-08T15:21:32.000Z</time>
      </trkpt>
      <trkpt lat="42.69746" lon="0.66828">
        <ele>2078.8</ele>
        <time>2018-08-08T15:21:33.000Z</time>
      </trkpt>
      <trkpt lat="42.69746" lon="0.66828">
        <ele>2078.8</ele>
        <time>2018-08-08T15:21:34.000Z</time>
      </trkpt>
      <trkpt lat="42.69746" lon="0.66828">
        <ele>2078.8</ele>
        <time>2018-08-08T15:21:35.000Z</time>
      </trkpt>
      <trkpt lat="42.69746" lon="0.66828">
        <ele>2078.8</ele>
        <time>2018-08-08T15:21:36.000Z</time>
      </trkpt>
      <trkpt lat="42.69746" lon="0.66828">
        <ele>2078.8</ele>
        <time>2018-08-08T15:21:37.000Z</time>
      </trkpt>
      <trkpt lat="42.69746" lon="0.66828">
        <ele>2078.8</ele>
        <time>2018-08-08T15:21:38.000Z</time>
      </trkpt>
      <trkpt lat="42.69746" lon="0.66828">
        <ele>2078.8</ele>
        <time>2018-08-08T15:21:39.000Z</time>
      </trkpt>
      <trkpt lat="42.69746" lon="0.66828">
        <ele>2078.8</ele>
        <time>2018-08-08T15:21:40.000Z</time>
      </trkpt>
      <trkpt lat="42.69746" lon="0.66828">
        <ele>2078.8</ele>
        <time>2018-08-08T15:21:41.000Z</time>
      </trkpt>
      <trkpt lat="42.69746" lon="0.66828">
        <ele>2078.8</ele>
        <time>2018-08-08T15:21:42.000Z</time>
      </trkpt>
      <trkpt lat="42.69746" lon="0.66828">
        <ele>2078.8</ele>
        <time>2018-08-08T15:21:43.000Z</time>
      </trkpt>
      <trkpt lat="42.69746" lon="0.66828">
        <ele>2078.8</ele>
        <time>2018-08-08T15:21:44.000Z</time>
      </trkpt>
      <trkpt lat="42.69746" lon="0.66828">
        <ele>2078.8</ele>
        <time>2018-08-08T15:21:45.000Z</time>
      </trkpt>
      <trkpt lat="42.69746" lon="0.66828">
        <ele>2078.8</ele>
        <time>2018-08-08T15:21:46.000Z</time>
      </trkpt>
      <trkpt lat="42.69746" lon="0.66828">
        <ele>2078.8</ele>
        <time>2018-08-08T15:21:47.000Z</time>
      </trkpt>
      <trkpt lat="42.69746" lon="0.66828">
        <ele>2078.8</ele>
        <time>2018-08-08T15:21:48.000Z</time>
      </trkpt>
      <trkpt lat="42.69746" lon="0.66828">
        <ele>2078.8</ele>
        <time>2018-08-08T15:21:49.000Z</time>
      </trkpt>
      <trkpt lat="42.69746" lon="0.66828">
        <ele>2078.8</ele>
        <time>2018-08-08T15:21:50.000Z</time>
      </trkpt>
      <trkpt lat="42.69746" lon="0.66828">
        <ele>2078.8</ele>
        <time>2018-08-08T15:21:51.000Z</time>
      </trkpt>
      <trkpt lat="42.69746" lon="0.66828">
        <ele>2078.8</ele>
        <time>2018-08-08T15:21:52.000Z</time>
      </trkpt>
      <trkpt lat="42.69746" lon="0.66828">
        <ele>2078.8</ele>
        <time>2018-08-08T15:21:53.000Z</time>
      </trkpt>
      <trkpt lat="42.69746" lon="0.66828">
        <ele>2078.8</ele>
        <time>2018-08-08T15:21:54.000Z</time>
      </trkpt>
      <trkpt lat="42.69746" lon="0.66828">
        <ele>2078.8</ele>
        <time>2018-08-08T15:21:55.000Z</time>
      </trkpt>
      <trkpt lat="42.69746" lon="0.66828">
        <ele>2078.8</ele>
        <time>2018-08-08T15:21:56.000Z</time>
      </trkpt>
      <trkpt lat="42.69746" lon="0.66828">
        <ele>2078.8</ele>
        <time>2018-08-08T15:21:57.000Z</time>
      </trkpt>
      <trkpt lat="42.69746" lon="0.66828">
        <ele>2078.8</ele>
        <time>2018-08-08T15:21:58.000Z</time>
      </trkpt>
      <trkpt lat="42.69746" lon="0.66828">
        <ele>2078.8</ele>
        <time>2018-08-08T15:21:59.000Z</time>
      </trkpt>
      <trkpt lat="42.69746" lon="0.66828">
        <ele>2078.8</ele>
        <time>2018-08-08T15:22:00.000Z</time>
      </trkpt>
      <trkpt lat="42.69746" lon="0.66828">
        <ele>2078.8</ele>
        <time>2018-08-08T15:22:01.000Z</time>
      </trkpt>
      <trkpt lat="42.69746" lon="0.66828">
        <ele>2078.8</ele>
        <time>2018-08-08T15:22:02.000Z</time>
      </trkpt>
      <trkpt lat="42.69746" lon="0.66828">
        <ele>2078.8</ele>
        <time>2018-08-08T15:22:03.000Z</time>
      </trkpt>
      <trkpt lat="42.69746" lon="0.66828">
        <ele>2078.8</ele>
        <time>2018-08-08T15:22:04.000Z</time>
      </trkpt>
      <trkpt lat="42.69746" lon="0.66828">
        <ele>2078.8</ele>
        <time>2018-08-08T15:22:05.000Z</time>
      </trkpt>
      <trkpt lat="42.69746" lon="0.66828">
        <ele>2078.8</ele>
        <time>2018-08-08T15:22:06.000Z</time>
      </trkpt>
      <trkpt lat="42.69746" lon="0.66828">
        <ele>2078.8</ele>
        <time>2018-08-08T15:22:07.000Z</time>
      </trkpt>
      <trkpt lat="42.69746" lon="0.66828">
        <ele>2078.8</ele>
        <time>2018-08-08T15:22:08.000Z</time>
      </trkpt>
      <trkpt lat="42.69746" lon="0.66828">
        <ele>2078.8</ele>
        <time>2018-08-08T15:22:09.000Z</time>
      </trkpt>
      <trkpt lat="42.69746" lon="0.66828">
        <ele>2078.8</ele>
        <time>2018-08-08T15:22:10.000Z</time>
      </trkpt>
      <trkpt lat="42.69746" lon="0.66828">
        <ele>2078.8</ele>
        <time>2018-08-08T15:22:11.000Z</time>
      </trkpt>
      <trkpt lat="42.69746" lon="0.66828">
        <ele>2078.8</ele>
        <time>2018-08-08T15:22:12.000Z</time>
      </trkpt>
      <trkpt lat="42.69746" lon="0.66828">
        <ele>2078.8</ele>
        <time>2018-08-08T15:22:13.000Z</time>
      </trkpt>
      <trkpt lat="42.69746" lon="0.66828">
        <ele>2078.8</ele>
        <time>2018-08-08T15:22:14.000Z</time>
      </trkpt>
      <trkpt lat="42.69746" lon="0.66828">
        <ele>2078.8</ele>
        <time>2018-08-08T15:22:15.000Z</time>
      </trkpt>
      <trkpt lat="42.69746" lon="0.66828">
        <ele>2078.8</ele>
        <time>2018-08-08T15:22:16.000Z</time>
      </trkpt>
      <trkpt lat="42.69746" lon="0.66828">
        <ele>2078.8</ele>
        <time>2018-08-08T15:22:17.000Z</time>
      </trkpt>
      <trkpt lat="42.69746" lon="0.66828">
        <ele>2078.8</ele>
        <time>2018-08-08T15:22:18.000Z</time>
      </trkpt>
      <trkpt lat="42.69746" lon="0.66828">
        <ele>2078.8</ele>
        <time>2018-08-08T15:22:19.000Z</time>
      </trkpt>
      <trkpt lat="42.69746" lon="0.66828">
        <ele>2078.8</ele>
        <time>2018-08-08T15:22:20.000Z</time>
      </trkpt>
      <trkpt lat="42.69746" lon="0.66828">
        <ele>2078.8</ele>
        <time>2018-08-08T15:22:21.000Z</time>
      </trkpt>
      <trkpt lat="42.69746" lon="0.66828">
        <ele>2078.8</ele>
        <time>2018-08-08T15:22:22.000Z</time>
      </trkpt>
      <trkpt lat="42.69746" lon="0.66828">
        <ele>2078.8</ele>
        <time>2018-08-08T15:22:23.000Z</time>
      </trkpt>
      <trkpt lat="42.69746" lon="0.66828">
        <ele>2078.8</ele>
        <time>2018-08-08T15:22:24.000Z</time>
      </trkpt>
      <trkpt lat="42.69746" lon="0.66828">
        <ele>2078.8</ele>
        <time>2018-08-08T15:22:25.000Z</time>
      </trkpt>
      <trkpt lat="42.69746" lon="0.66828">
        <ele>2078.8</ele>
        <time>2018-08-08T15:22:26.000Z</time>
      </trkpt>
      <trkpt lat="42.69746" lon="0.66828">
        <ele>2078.8</ele>
        <time>2018-08-08T15:22:27.000Z</time>
      </trkpt>
      <trkpt lat="42.69746" lon="0.66828">
        <ele>2078.8</ele>
        <time>2018-08-08T15:22:28.000Z</time>
      </trkpt>
      <trkpt lat="42.69746" lon="0.66828">
        <ele>2078.8</ele>
        <time>2018-08-08T15:22:29.000Z</time>
      </trkpt>
      <trkpt lat="42.69746" lon="0.66828">
        <ele>2078.8</ele>
        <time>2018-08-08T15:22:30.000Z</time>
      </trkpt>
      <trkpt lat="42.69746" lon="0.66828">
        <ele>2078.8</ele>
        <time>2018-08-08T15:22:31.000Z</time>
      </trkpt>
      <trkpt lat="42.69746" lon="0.66828">
        <ele>2078.8</ele>
        <time>2018-08-08T15:22:32.000Z</time>
      </trkpt>
      <trkpt lat="42.69746" lon="0.66828">
        <ele>2078.8</ele>
        <time>2018-08-08T15:22:33.000Z</time>
      </trkpt>
      <trkpt lat="42.69746" lon="0.66828">
        <ele>2078.8</ele>
        <time>2018-08-08T15:22:34.000Z</time>
      </trkpt>
      <trkpt lat="42.69746" lon="0.66828">
        <ele>2078.8</ele>
        <time>2018-08-08T15:22:35.000Z</time>
      </trkpt>
      <trkpt lat="42.69746" lon="0.66828">
        <ele>2078.8</ele>
        <time>2018-08-08T15:22:36.000Z</time>
      </trkpt>
      <trkpt lat="42.69746" lon="0.66828">
        <ele>2078.8</ele>
        <time>2018-08-08T15:22:37.000Z</time>
      </trkpt>
      <trkpt lat="42.69746" lon="0.66828">
        <ele>2078.8</ele>
        <time>2018-08-08T15:22:38.000Z</time>
      </trkpt>
      <trkpt lat="42.69746" lon="0.66828">
        <ele>2078.8</ele>
        <time>2018-08-08T15:22:39.000Z</time>
      </trkpt>
      <trkpt lat="42.69746" lon="0.66828">
        <ele>2078.8</ele>
        <time>2018-08-08T15:22:40.000Z</time>
      </trkpt>
      <trkpt lat="42.69746" lon="0.66828">
        <ele>2078.8</ele>
        <time>2018-08-08T15:22:41.000Z</time>
      </trkpt>
      <trkpt lat="42.69746" lon="0.66828">
        <ele>2078.8</ele>
        <time>2018-08-08T15:22:42.000Z</time>
      </trkpt>
      <trkpt lat="42.69746" lon="0.66828">
        <ele>2078.8</ele>
        <time>2018-08-08T15:22:43.000Z</time>
      </trkpt>
      <trkpt lat="42.69746" lon="0.66828">
        <ele>2078.8</ele>
        <time>2018-08-08T15:22:44.000Z</time>
      </trkpt>
      <trkpt lat="42.69746" lon="0.66828">
        <ele>2078.8</ele>
        <time>2018-08-08T15:22:45.000Z</time>
      </trkpt>
      <trkpt lat="42.69746" lon="0.66828">
        <ele>2078.8</ele>
        <time>2018-08-08T15:22:46.000Z</time>
      </trkpt>
      <trkpt lat="42.69746" lon="0.66828">
        <ele>2078.8</ele>
        <time>2018-08-08T15:22:47.000Z</time>
      </trkpt>
      <trkpt lat="42.69746" lon="0.66828">
        <ele>2078.8</ele>
        <time>2018-08-08T15:22:48.000Z</time>
      </trkpt>
      <trkpt lat="42.69746" lon="0.66828">
        <ele>2078.8</ele>
        <time>2018-08-08T15:22:49.000Z</time>
      </trkpt>
      <trkpt lat="42.69746" lon="0.66828">
        <ele>2078.8</ele>
        <time>2018-08-08T15:22:50.000Z</time>
      </trkpt>
      <trkpt lat="42.69746" lon="0.66828">
        <ele>2078.8</ele>
        <time>2018-08-08T15:22:51.000Z</time>
      </trkpt>
      <trkpt lat="42.69746" lon="0.66828">
        <ele>2078.8</ele>
        <time>2018-08-08T15:22:52.000Z</time>
      </trkpt>
      <trkpt lat="42.69746" lon="0.66828">
        <ele>2078.8</ele>
        <time>2018-08-08T15:22:53.000Z</time>
      </trkpt>
      <trkpt lat="42.69746" lon="0.66828">
        <ele>2078.8</ele>
        <time>2018-08-08T15:22:54.000Z</time>
      </trkpt>
      <trkpt lat="42.69746" lon="0.66828">
        <ele>2078.8</ele>
        <time>2018-08-08T15:22:55.000Z</time>
      </trkpt>
      <trkpt lat="42.69746" lon="0.66828">
        <ele>2078.8</ele>
        <time>2018-08-08T15:22:56.000Z</time>
      </trkpt>
      <trkpt lat="42.69746" lon="0.66828">
        <ele>2078.8</ele>
        <time>2018-08-08T15:22:57.000Z</time>
      </trkpt>
      <trkpt lat="42.69746" lon="0.66828">
        <ele>2078.8</ele>
        <time>2018-08-08T15:22:58.000Z</time>
      </trkpt>
      <trkpt lat="42.69746" lon="0.66828">
        <ele>2078.8</ele>
        <time>2018-08-08T15:22:59.000Z</time>
      </trkpt>
      <trkpt lat="42.69746" lon="0.66828">
        <ele>2078.8</ele>
        <time>2018-08-08T15:23:00.000Z</time>
      </trkpt>
      <trkpt lat="42.69746" lon="0.66828">
        <ele>2078.8</ele>
        <time>2018-08-08T15:23:01.000Z</time>
      </trkpt>
      <trkpt lat="42.69746" lon="0.66828">
        <ele>2078.8</ele>
        <time>2018-08-08T15:23:02.000Z</time>
      </trkpt>
      <trkpt lat="42.69746" lon="0.66828">
        <ele>2078.8</ele>
        <time>2018-08-08T15:23:03.000Z</time>
      </trkpt>
      <trkpt lat="42.69746" lon="0.66828">
        <ele>2078.8</ele>
        <time>2018-08-08T15:23:04.000Z</time>
      </trkpt>
      <trkpt lat="42.69746" lon="0.66828">
        <ele>2078.8</ele>
        <time>2018-08-08T15:23:05.000Z</time>
      </trkpt>
      <trkpt lat="42.69746" lon="0.66828">
        <ele>2078.8</ele>
        <time>2018-08-08T15:23:06.000Z</time>
      </trkpt>
      <trkpt lat="42.69746" lon="0.66828">
        <ele>2078.8</ele>
        <time>2018-08-08T15:23:07.000Z</time>
      </trkpt>
      <trkpt lat="42.69746" lon="0.66828">
        <ele>2078.8</ele>
        <time>2018-08-08T15:23:08.000Z</time>
      </trkpt>
      <trkpt lat="42.69746" lon="0.66828">
        <ele>2078.8</ele>
        <time>2018-08-08T15:23:09.000Z</time>
      </trkpt>
      <trkpt lat="42.69746" lon="0.66828">
        <ele>2078.8</ele>
        <time>2018-08-08T15:23:10.000Z</time>
      </trkpt>
      <trkpt lat="42.69746" lon="0.66828">
        <ele>2078.8</ele>
        <time>2018-08-08T15:23:11.000Z</time>
      </trkpt>
      <trkpt lat="42.69746" lon="0.66828">
        <ele>2078.8</ele>
        <time>2018-08-08T15:23:12.000Z</time>
      </trkpt>
      <trkpt lat="42.69746" lon="0.66828">
        <ele>2078.8</ele>
        <time>2018-08-08T15:23:13.000Z</time>
      </trkpt>
      <trkpt lat="42.69746" lon="0.66828">
        <ele>2078.8</ele>
        <time>2018-08-08T15:23:14.000Z</time>
      </trkpt>
      <trkpt lat="42.69746" lon="0.66828">
        <ele>2078.8</ele>
        <time>2018-08-08T15:23:15.000Z</time>
      </trkpt>
      <trkpt lat="42.69746" lon="0.66828">
        <ele>2078.8</ele>
        <time>2018-08-08T15:23:16.000Z</time>
      </trkpt>
      <trkpt lat="42.69746" lon="0.66828">
        <ele>2078.8</ele>
        <time>2018-08-08T15:23:17.000Z</time>
      </trkpt>
      <trkpt lat="42.69746" lon="0.66828">
        <ele>2078.8</ele>
        <time>2018-08-08T15:23:18.000Z</time>
      </trkpt>
      <trkpt lat="42.69746" lon="0.66828">
        <ele>2078.8</ele>
        <time>2018-08-08T15:23:19.000Z</time>
      </trkpt>
      <trkpt lat="42.69746" lon="0.66828">
        <ele>2078.8</ele>
        <time>2018-08-08T15:23:20.000Z</time>
      </trkpt>
      <trkpt lat="42.69746" lon="0.66828">
        <ele>2078.8</ele>
        <time>2018-08-08T15:23:21.000Z</time>
      </trkpt>
      <trkpt lat="42.69746" lon="0.66828">
        <ele>2078.8</ele>
        <time>2018-08-08T15:23:22.000Z</time>
      </trkpt>
      <trkpt lat="42.69746" lon="0.66828">
        <ele>2078.8</ele>
        <time>2018-08-08T15:23:23.000Z</time>
      </trkpt>
      <trkpt lat="42.69746" lon="0.66828">
        <ele>2078.8</ele>
        <time>2018-08-08T15:23:24.000Z</time>
      </trkpt>
      <trkpt lat="42.69746" lon="0.66828">
        <ele>2078.8</ele>
        <time>2018-08-08T15:23:25.000Z</time>
      </trkpt>
      <trkpt lat="42.69746" lon="0.66828">
        <ele>2078.8</ele>
        <time>2018-08-08T15:23:26.000Z</time>
      </trkpt>
      <trkpt lat="42.69746" lon="0.66828">
        <ele>2078.8</ele>
        <time>2018-08-08T15:23:27.000Z</time>
      </trkpt>
      <trkpt lat="42.69746" lon="0.66828">
        <ele>2078.8</ele>
        <time>2018-08-08T15:23:28.000Z</time>
      </trkpt>
      <trkpt lat="42.69746" lon="0.66828">
        <ele>2078.8</ele>
        <time>2018-08-08T15:23:29.000Z</time>
      </trkpt>
      <trkpt lat="42.69746" lon="0.66828">
        <ele>2078.8</ele>
        <time>2018-08-08T15:23:30.000Z</time>
      </trkpt>
      <trkpt lat="42.69746" lon="0.66828">
        <ele>2078.8</ele>
        <time>2018-08-08T15:23:31.000Z</time>
      </trkpt>
      <trkpt lat="42.69746" lon="0.66828">
        <ele>2078.8</ele>
        <time>2018-08-08T15:23:32.000Z</time>
      </trkpt>
      <trkpt lat="42.69746" lon="0.66828">
        <ele>2078.8</ele>
        <time>2018-08-08T15:23:33.000Z</time>
      </trkpt>
      <trkpt lat="42.69746" lon="0.66828">
        <ele>2078.8</ele>
        <time>2018-08-08T15:23:34.000Z</time>
      </trkpt>
      <trkpt lat="42.69746" lon="0.66828">
        <ele>2078.8</ele>
        <time>2018-08-08T15:23:35.000Z</time>
      </trkpt>
      <trkpt lat="42.69746" lon="0.66828">
        <ele>2078.8</ele>
        <time>2018-08-08T15:23:36.000Z</time>
      </trkpt>
      <trkpt lat="42.69746" lon="0.66828">
        <ele>2078.8</ele>
        <time>2018-08-08T15:23:37.000Z</time>
      </trkpt>
      <trkpt lat="42.69746" lon="0.66828">
        <ele>2078.8</ele>
        <time>2018-08-08T15:23:38.000Z</time>
      </trkpt>
      <trkpt lat="42.69746" lon="0.66828">
        <ele>2078.8</ele>
        <time>2018-08-08T15:23:39.000Z</time>
      </trkpt>
      <trkpt lat="42.69746" lon="0.66828">
        <ele>2078.8</ele>
        <time>2018-08-08T15:23:40.000Z</time>
      </trkpt>
      <trkpt lat="42.69746" lon="0.66828">
        <ele>2078.8</ele>
        <time>2018-08-08T15:23:41.000Z</time>
      </trkpt>
      <trkpt lat="42.69746" lon="0.66828">
        <ele>2078.8</ele>
        <time>2018-08-08T15:23:42.000Z</time>
      </trkpt>
      <trkpt lat="42.69746" lon="0.66828">
        <ele>2078.8</ele>
        <time>2018-08-08T15:23:43.000Z</time>
      </trkpt>
      <trkpt lat="42.69746" lon="0.66828">
        <ele>2078.8</ele>
        <time>2018-08-08T15:23:44.000Z</time>
      </trkpt>
      <trkpt lat="42.69746" lon="0.66828">
        <ele>2078.8</ele>
        <time>2018-08-08T15:23:45.000Z</time>
      </trkpt>
      <trkpt lat="42.69746" lon="0.66828">
        <ele>2078.8</ele>
        <time>2018-08-08T15:23:46.000Z</time>
      </trkpt>
      <trkpt lat="42.69746" lon="0.66828">
        <ele>2078.8</ele>
        <time>2018-08-08T15:23:47.000Z</time>
      </trkpt>
      <trkpt lat="42.69746" lon="0.66828">
        <ele>2078.8</ele>
        <time>2018-08-08T15:23:48.000Z</time>
      </trkpt>
      <trkpt lat="42.69746" lon="0.66828">
        <ele>2078.8</ele>
        <time>2018-08-08T15:23:49.000Z</time>
      </trkpt>
      <trkpt lat="42.69746" lon="0.66828">
        <ele>2078.8</ele>
        <time>2018-08-08T15:23:50.000Z</time>
      </trkpt>
      <trkpt lat="42.69746" lon="0.66828">
        <ele>2078.8</ele>
        <time>2018-08-08T15:23:51.000Z</time>
      </trkpt>
      <trkpt lat="42.69746" lon="0.66828">
        <ele>2078.8</ele>
        <time>2018-08-08T15:23:52.000Z</time>
      </trkpt>
      <trkpt lat="42.69746" lon="0.66828">
        <ele>2078.8</ele>
        <time>2018-08-08T15:23:53.000Z</time>
      </trkpt>
      <trkpt lat="42.69746" lon="0.66828">
        <ele>2078.8</ele>
        <time>2018-08-08T15:23:54.000Z</time>
      </trkpt>
      <trkpt lat="42.69746" lon="0.66828">
        <ele>2078.8</ele>
        <time>2018-08-08T15:23:55.000Z</time>
      </trkpt>
      <trkpt lat="42.69746" lon="0.66828">
        <ele>2078.8</ele>
        <time>2018-08-08T15:23:56.000Z</time>
      </trkpt>
      <trkpt lat="42.69746" lon="0.66828">
        <ele>2078.8</ele>
        <time>2018-08-08T15:23:57.000Z</time>
      </trkpt>
      <trkpt lat="42.69746" lon="0.66828">
        <ele>2078.8</ele>
        <time>2018-08-08T15:23:58.000Z</time>
      </trkpt>
      <trkpt lat="42.69746" lon="0.66828">
        <ele>2078.8</ele>
        <time>2018-08-08T15:23:59.000Z</time>
      </trkpt>
      <trkpt lat="42.69746" lon="0.66828">
        <ele>2078.8</ele>
        <time>2018-08-08T15:24:00.000Z</time>
      </trkpt>
      <trkpt lat="42.69746" lon="0.66828">
        <ele>2078.8</ele>
        <time>2018-08-08T15:24:01.000Z</time>
      </trkpt>
      <trkpt lat="42.69746" lon="0.66828">
        <ele>2078.8</ele>
        <time>2018-08-08T15:24:02.000Z</time>
      </trkpt>
      <trkpt lat="42.69746" lon="0.66828">
        <ele>2078.8</ele>
        <time>2018-08-08T15:24:03.000Z</time>
      </trkpt>
      <trkpt lat="42.69746" lon="0.66828">
        <ele>2078.8</ele>
        <time>2018-08-08T15:24:04.000Z</time>
      </trkpt>
      <trkpt lat="42.69746" lon="0.66828">
        <ele>2078.8</ele>
        <time>2018-08-08T15:24:05.000Z</time>
      </trkpt>
      <trkpt lat="42.69746" lon="0.66828">
        <ele>2078.8</ele>
        <time>2018-08-08T15:24:06.000Z</time>
      </trkpt>
      <trkpt lat="42.69746" lon="0.66828">
        <ele>2078.8</ele>
        <time>2018-08-08T15:24:07.000Z</time>
      </trkpt>
      <trkpt lat="42.69746" lon="0.66828">
        <ele>2078.8</ele>
        <time>2018-08-08T15:24:08.000Z</time>
      </trkpt>
      <trkpt lat="42.69746" lon="0.66828">
        <ele>2078.8</ele>
        <time>2018-08-08T15:24:09.000Z</time>
      </trkpt>
      <trkpt lat="42.69746" lon="0.66828">
        <ele>2078.8</ele>
        <time>2018-08-08T15:24:10.000Z</time>
      </trkpt>
      <trkpt lat="42.69746" lon="0.66828">
        <ele>2078.8</ele>
        <time>2018-08-08T15:24:11.000Z</time>
      </trkpt>
      <trkpt lat="42.69746" lon="0.66828">
        <ele>2078.8</ele>
        <time>2018-08-08T15:24:12.000Z</time>
      </trkpt>
      <trkpt lat="42.69746" lon="0.66828">
        <ele>2078.8</ele>
        <time>2018-08-08T15:24:13.000Z</time>
      </trkpt>
      <trkpt lat="42.69746" lon="0.66828">
        <ele>2078.8</ele>
        <time>2018-08-08T15:24:14.000Z</time>
      </trkpt>
      <trkpt lat="42.69746" lon="0.66828">
        <ele>2078.8</ele>
        <time>2018-08-08T15:24:15.000Z</time>
      </trkpt>
      <trkpt lat="42.69746" lon="0.66828">
        <ele>2078.8</ele>
        <time>2018-08-08T15:24:16.000Z</time>
      </trkpt>
      <trkpt lat="42.69746" lon="0.66828">
        <ele>2078.8</ele>
        <time>2018-08-08T15:24:17.000Z</time>
      </trkpt>
      <trkpt lat="42.69746" lon="0.66828">
        <ele>2078.8</ele>
        <time>2018-08-08T15:24:18.000Z</time>
      </trkpt>
      <trkpt lat="42.69746" lon="0.66828">
        <ele>2078.8</ele>
        <time>2018-08-08T15:24:19.000Z</time>
      </trkpt>
      <trkpt lat="42.69746" lon="0.66828">
        <ele>2078.8</ele>
        <time>2018-08-08T15:24:20.000Z</time>
      </trkpt>
      <trkpt lat="42.69746" lon="0.66828">
        <ele>2078.8</ele>
        <time>2018-08-08T15:24:21.000Z</time>
      </trkpt>
      <trkpt lat="42.69746" lon="0.66828">
        <ele>2078.8</ele>
        <time>2018-08-08T15:24:22.000Z</time>
      </trkpt>
      <trkpt lat="42.69746" lon="0.66828">
        <ele>2078.8</ele>
        <time>2018-08-08T15:24:23.000Z</time>
      </trkpt>
      <trkpt lat="42.69746" lon="0.66828">
        <ele>2078.8</ele>
        <time>2018-08-08T15:24:24.000Z</time>
      </trkpt>
      <trkpt lat="42.69746" lon="0.66828">
        <ele>2078.8</ele>
        <time>2018-08-08T15:24:25.000Z</time>
      </trkpt>
      <trkpt lat="42.69746" lon="0.66828">
        <ele>2078.8</ele>
        <time>2018-08-08T15:24:26.000Z</time>
      </trkpt>
      <trkpt lat="42.69746" lon="0.66828">
        <ele>2078.8</ele>
        <time>2018-08-08T15:24:27.000Z</time>
      </trkpt>
      <trkpt lat="42.69746" lon="0.66828">
        <ele>2078.8</ele>
        <time>2018-08-08T15:24:28.000Z</time>
      </trkpt>
      <trkpt lat="42.69746" lon="0.66828">
        <ele>2078.8</ele>
        <time>2018-08-08T15:24:29.000Z</time>
      </trkpt>
      <trkpt lat="42.69746" lon="0.66828">
        <ele>2078.8</ele>
        <time>2018-08-08T15:24:30.000Z</time>
      </trkpt>
      <trkpt lat="42.69746" lon="0.66828">
        <ele>2078.8</ele>
        <time>2018-08-08T15:24:31.000Z</time>
      </trkpt>
      <trkpt lat="42.69746" lon="0.66828">
        <ele>2078.8</ele>
        <time>2018-08-08T15:24:32.000Z</time>
      </trkpt>
      <trkpt lat="42.69746" lon="0.66828">
        <ele>2078.8</ele>
        <time>2018-08-08T15:24:33.000Z</time>
      </trkpt>
      <trkpt lat="42.69746" lon="0.66828">
        <ele>2078.8</ele>
        <time>2018-08-08T15:24:34.000Z</time>
      </trkpt>
      <trkpt lat="42.69746" lon="0.66828">
        <ele>2078.8</ele>
        <time>2018-08-08T15:24:35.000Z</time>
      </trkpt>
      <trkpt lat="42.69746" lon="0.66828">
        <ele>2078.8</ele>
        <time>2018-08-08T15:24:36.000Z</time>
      </trkpt>
      <trkpt lat="42.69746" lon="0.66828">
        <ele>2078.8</ele>
        <time>2018-08-08T15:24:37.000Z</time>
      </trkpt>
      <trkpt lat="42.69746" lon="0.66828">
        <ele>2078.8</ele>
        <time>2018-08-08T15:24:38.000Z</time>
      </trkpt>
      <trkpt lat="42.69746" lon="0.66828">
        <ele>2078.8</ele>
        <time>2018-08-08T15:24:39.000Z</time>
      </trkpt>
      <trkpt lat="42.69746" lon="0.66828">
        <ele>2078.8</ele>
        <time>2018-08-08T15:24:40.000Z</time>
      </trkpt>
      <trkpt lat="42.69746" lon="0.66828">
        <ele>2078.8</ele>
        <time>2018-08-08T15:24:41.000Z</time>
      </trkpt>
      <trkpt lat="42.69746" lon="0.66828">
        <ele>2078.8</ele>
        <time>2018-08-08T15:24:42.000Z</time>
      </trkpt>
      <trkpt lat="42.69746" lon="0.66828">
        <ele>2078.8</ele>
        <time>2018-08-08T15:24:43.000Z</time>
      </trkpt>
      <trkpt lat="42.69746" lon="0.66828">
        <ele>2078.8</ele>
        <time>2018-08-08T15:24:44.000Z</time>
      </trkpt>
      <trkpt lat="42.69746" lon="0.66828">
        <ele>2078.8</ele>
        <time>2018-08-08T15:24:45.000Z</time>
      </trkpt>
      <trkpt lat="42.69746" lon="0.66828">
        <ele>2078.8</ele>
        <time>2018-08-08T15:24:46.000Z</time>
      </trkpt>
      <trkpt lat="42.69746" lon="0.66828">
        <ele>2078.8</ele>
        <time>2018-08-08T15:24:47.000Z</time>
      </trkpt>
      <trkpt lat="42.69746" lon="0.66828">
        <ele>2078.8</ele>
        <time>2018-08-08T15:24:48.000Z</time>
      </trkpt>
      <trkpt lat="42.69746" lon="0.66828">
        <ele>2078.8</ele>
        <time>2018-08-08T15:24:49.000Z</time>
      </trkpt>
      <trkpt lat="42.69746" lon="0.66828">
        <ele>2078.8</ele>
        <time>2018-08-08T15:24:50.000Z</time>
      </trkpt>
      <trkpt lat="42.69746" lon="0.66828">
        <ele>2078.8</ele>
        <time>2018-08-08T15:24:51.000Z</time>
      </trkpt>
      <trkpt lat="42.69746" lon="0.66828">
        <ele>2078.8</ele>
        <time>2018-08-08T15:24:52.000Z</time>
      </trkpt>
      <trkpt lat="42.69746" lon="0.66828">
        <ele>2078.8</ele>
        <time>2018-08-08T15:24:53.000Z</time>
      </trkpt>
      <trkpt lat="42.69746" lon="0.66828">
        <ele>2078.8</ele>
        <time>2018-08-08T15:24:54.000Z</time>
      </trkpt>
      <trkpt lat="42.69746" lon="0.66828">
        <ele>2078.8</ele>
        <time>2018-08-08T15:24:55.000Z</time>
      </trkpt>
      <trkpt lat="42.69746" lon="0.66828">
        <ele>2078.8</ele>
        <time>2018-08-08T15:24:56.000Z</time>
      </trkpt>
      <trkpt lat="42.69746" lon="0.66828">
        <ele>2078.8</ele>
        <time>2018-08-08T15:24:57.000Z</time>
      </trkpt>
      <trkpt lat="42.69746" lon="0.66828">
        <ele>2078.8</ele>
        <time>2018-08-08T15:24:58.000Z</time>
      </trkpt>
      <trkpt lat="42.69746" lon="0.66828">
        <ele>2078.8</ele>
        <time>2018-08-08T15:24:59.000Z</time>
      </trkpt>
      <trkpt lat="42.69746" lon="0.66828">
        <ele>2078.8</ele>
        <time>2018-08-08T15:25:00.000Z</time>
      </trkpt>
      <trkpt lat="42.69746" lon="0.66828">
        <ele>2078.8</ele>
        <time>2018-08-08T15:25:01.000Z</time>
      </trkpt>
      <trkpt lat="42.69746" lon="0.66828">
        <ele>2078.8</ele>
        <time>2018-08-08T15:25:02.000Z</time>
      </trkpt>
      <trkpt lat="42.69746" lon="0.66828">
        <ele>2078.8</ele>
        <time>2018-08-08T15:25:03.000Z</time>
      </trkpt>
      <trkpt lat="42.69746" lon="0.66828">
        <ele>2078.8</ele>
        <time>2018-08-08T15:25:04.000Z</time>
      </trkpt>
      <trkpt lat="42.69746" lon="0.66828">
        <ele>2078.8</ele>
        <time>2018-08-08T15:25:05.000Z</time>
      </trkpt>
      <trkpt lat="42.69746" lon="0.66828">
        <ele>2078.8</ele>
        <time>2018-08-08T15:25:06.000Z</time>
      </trkpt>
      <trkpt lat="42.69746" lon="0.66828">
        <ele>2078.8</ele>
        <time>2018-08-08T15:25:07.000Z</time>
      </trkpt>
      <trkpt lat="42.69746" lon="0.66828">
        <ele>2078.8</ele>
        <time>2018-08-08T15:25:08.000Z</time>
      </trkpt>
      <trkpt lat="42.69746" lon="0.66828">
        <ele>2078.8</ele>
        <time>2018-08-08T15:25:09.000Z</time>
      </trkpt>
      <trkpt lat="42.69746" lon="0.66828">
        <ele>2078.8</ele>
        <time>2018-08-08T15:25:10.000Z</time>
      </trkpt>
      <trkpt lat="42.69746" lon="0.66828">
        <ele>2078.8</ele>
        <time>2018-08-08T15:25:11.000Z</time>
      </trkpt>
      <trkpt lat="42.69746" lon="0.66828">
        <ele>2078.8</ele>
        <time>2018-08-08T15:25:12.000Z</time>
      </trkpt>
      <trkpt lat="42.69746" lon="0.66828">
        <ele>2078.8</ele>
        <time>2018-08-08T15:25:13.000Z</time>
      </trkpt>
      <trkpt lat="42.69746" lon="0.66828">
        <ele>2078.8</ele>
        <time>2018-08-08T15:25:14.000Z</time>
      </trkpt>
      <trkpt lat="42.69746" lon="0.66828">
        <ele>2078.8</ele>
        <time>2018-08-08T15:25:15.000Z</time>
      </trkpt>
      <trkpt lat="42.69746" lon="0.66828">
        <ele>2078.8</ele>
        <time>2018-08-08T15:25:16.000Z</time>
      </trkpt>
      <trkpt lat="42.69746" lon="0.66828">
        <ele>2078.8</ele>
        <time>2018-08-08T15:25:17.000Z</time>
      </trkpt>
      <trkpt lat="42.69746" lon="0.66828">
        <ele>2078.8</ele>
        <time>2018-08-08T15:25:18.000Z</time>
      </trkpt>
      <trkpt lat="42.69746" lon="0.66828">
        <ele>2078.8</ele>
        <time>2018-08-08T15:25:19.000Z</time>
      </trkpt>
      <trkpt lat="42.69746" lon="0.66828">
        <ele>2078.8</ele>
        <time>2018-08-08T15:25:20.000Z</time>
      </trkpt>
      <trkpt lat="42.69746" lon="0.66828">
        <ele>2078.8</ele>
        <time>2018-08-08T15:25:21.000Z</time>
      </trkpt>
      <trkpt lat="42.69746" lon="0.66828">
        <ele>2078.8</ele>
        <time>2018-08-08T15:25:22.000Z</time>
      </trkpt>
      <trkpt lat="42.69746" lon="0.66828">
        <ele>2078.8</ele>
        <time>2018-08-08T15:25:23.000Z</time>
      </trkpt>
      <trkpt lat="42.69746" lon="0.66828">
        <ele>2078.8</ele>
        <time>2018-08-08T15:25:24.000Z</time>
      </trkpt>
      <trkpt lat="42.69746" lon="0.66828">
        <ele>2078.8</ele>
        <time>2018-08-08T15:25:25.000Z</time>
      </trkpt>
      <trkpt lat="42.69746" lon="0.66828">
        <ele>2078.8</ele>
        <time>2018-08-08T15:25:26.000Z</time>
      </trkpt>
      <trkpt lat="42.69746" lon="0.66828">
        <ele>2078.8</ele>
        <time>2018-08-08T15:25:27.000Z</time>
      </trkpt>
      <trkpt lat="42.69746" lon="0.66828">
        <ele>2078.8</ele>
        <time>2018-08-08T15:25:28.000Z</time>
      </trkpt>
      <trkpt lat="42.69746" lon="0.66828">
        <ele>2078.8</ele>
        <time>2018-08-08T15:25:29.000Z</time>
      </trkpt>
      <trkpt lat="42.69746" lon="0.66828">
        <ele>2078.8</ele>
        <time>2018-08-08T15:25:30.000Z</time>
      </trkpt>
      <trkpt lat="42.69746" lon="0.66828">
        <ele>2078.8</ele>
        <time>2018-08-08T15:25:31.000Z</time>
      </trkpt>
      <trkpt lat="42.69746" lon="0.66828">
        <ele>2078.8</ele>
        <time>2018-08-08T15:25:32.000Z</time>
      </trkpt>
      <trkpt lat="42.69746" lon="0.66828">
        <ele>2078.8</ele>
        <time>2018-08-08T15:25:33.000Z</time>
      </trkpt>
      <trkpt lat="42.69746" lon="0.66828">
        <ele>2078.8</ele>
        <time>2018-08-08T15:25:34.000Z</time>
      </trkpt>
      <trkpt lat="42.69746" lon="0.66828">
        <ele>2078.8</ele>
        <time>2018-08-08T15:25:35.000Z</time>
      </trkpt>
      <trkpt lat="42.69746" lon="0.66828">
        <ele>2078.8</ele>
        <time>2018-08-08T15:25:36.000Z</time>
      </trkpt>
      <trkpt lat="42.69746" lon="0.66828">
        <ele>2078.8</ele>
        <time>2018-08-08T15:25:37.000Z</time>
      </trkpt>
      <trkpt lat="42.69746" lon="0.66828">
        <ele>2078.8</ele>
        <time>2018-08-08T15:25:38.000Z</time>
      </trkpt>
      <trkpt lat="42.69746" lon="0.66828">
        <ele>2078.8</ele>
        <time>2018-08-08T15:25:39.000Z</time>
      </trkpt>
      <trkpt lat="42.69746" lon="0.66828">
        <ele>2078.8</ele>
        <time>2018-08-08T15:25:40.000Z</time>
      </trkpt>
      <trkpt lat="42.69746" lon="0.66828">
        <ele>2078.8</ele>
        <time>2018-08-08T15:25:41.000Z</time>
      </trkpt>
      <trkpt lat="42.69746" lon="0.66828">
        <ele>2078.8</ele>
        <time>2018-08-08T15:25:42.000Z</time>
      </trkpt>
      <trkpt lat="42.69746" lon="0.66828">
        <ele>2078.8</ele>
        <time>2018-08-08T15:25:43.000Z</time>
      </trkpt>
      <trkpt lat="42.69746" lon="0.66828">
        <ele>2078.8</ele>
        <time>2018-08-08T15:25:44.000Z</time>
      </trkpt>
      <trkpt lat="42.69746" lon="0.66828">
        <ele>2078.8</ele>
        <time>2018-08-08T15:25:45.000Z</time>
      </trkpt>
      <trkpt lat="42.69746" lon="0.66828">
        <ele>2078.8</ele>
        <time>2018-08-08T15:25:46.000Z</time>
      </trkpt>
      <trkpt lat="42.69746" lon="0.66828">
        <ele>2078.8</ele>
        <time>2018-08-08T15:25:47.000Z</time>
      </trkpt>
      <trkpt lat="42.69746" lon="0.66828">
        <ele>2078.8</ele>
        <time>2018-08-08T15:25:48.000Z</time>
      </trkpt>
      <trkpt lat="42.69746" lon="0.66828">
        <ele>2078.8</ele>
        <time>2018-08-08T15:25:49.000Z</time>
      </trkpt>
      <trkpt lat="42.69746" lon="0.66828">
        <ele>2078.8</ele>
        <time>2018-08-08T15:25:50.000Z</time>
      </trkpt>
      <trkpt lat="42.69746" lon="0.66828">
        <ele>2078.8</ele>
        <time>2018-08-08T15:25:51.000Z</time>
      </trkpt>
      <trkpt lat="42.69746" lon="0.66828">
        <ele>2078.8</ele>
        <time>2018-08-08T15:25:52.000Z</time>
      </trkpt>
      <trkpt lat="42.69746" lon="0.66828">
        <ele>2078.8</ele>
        <time>2018-08-08T15:25:53.000Z</time>
      </trkpt>
      <trkpt lat="42.69746" lon="0.66828">
        <ele>2078.8</ele>
        <time>2018-08-08T15:25:54.000Z</time>
      </trkpt>
      <trkpt lat="42.69746" lon="0.66828">
        <ele>2078.8</ele>
        <time>2018-08-08T15:25:55.000Z</time>
      </trkpt>
      <trkpt lat="42.69746" lon="0.66828">
        <ele>2078.8</ele>
        <time>2018-08-08T15:25:56.000Z</time>
      </trkpt>
      <trkpt lat="42.69746" lon="0.66828">
        <ele>2078.8</ele>
        <time>2018-08-08T15:25:57.000Z</time>
      </trkpt>
      <trkpt lat="42.69746" lon="0.66828">
        <ele>2078.8</ele>
        <time>2018-08-08T15:25:58.000Z</time>
      </trkpt>
      <trkpt lat="42.69746" lon="0.66828">
        <ele>2078.8</ele>
        <time>2018-08-08T15:25:59.000Z</time>
      </trkpt>
      <trkpt lat="42.69746" lon="0.66828">
        <ele>2078.8</ele>
        <time>2018-08-08T15:26:00.000Z</time>
      </trkpt>
      <trkpt lat="42.69746" lon="0.66828">
        <ele>2078.8</ele>
        <time>2018-08-08T15:26:01.000Z</time>
      </trkpt>
      <trkpt lat="42.69746" lon="0.66828">
        <ele>2078.8</ele>
        <time>2018-08-08T15:26:02.000Z</time>
      </trkpt>
      <trkpt lat="42.69746" lon="0.66828">
        <ele>2078.8</ele>
        <time>2018-08-08T15:26:03.000Z</time>
      </trkpt>
      <trkpt lat="42.69746" lon="0.66828">
        <ele>2078.8</ele>
        <time>2018-08-08T15:26:04.000Z</time>
      </trkpt>
      <trkpt lat="42.69746" lon="0.66828">
        <ele>2078.8</ele>
        <time>2018-08-08T15:26:05.000Z</time>
      </trkpt>
      <trkpt lat="42.69746" lon="0.66828">
        <ele>2078.8</ele>
        <time>2018-08-08T15:26:06.000Z</time>
      </trkpt>
      <trkpt lat="42.69746" lon="0.66828">
        <ele>2078.8</ele>
        <time>2018-08-08T15:26:07.000Z</time>
      </trkpt>
      <trkpt lat="42.69746" lon="0.66828">
        <ele>2078.8</ele>
        <time>2018-08-08T15:26:08.000Z</time>
      </trkpt>
      <trkpt lat="42.69746" lon="0.66828">
        <ele>2078.8</ele>
        <time>2018-08-08T15:26:09.000Z</time>
      </trkpt>
      <trkpt lat="42.69746" lon="0.66828">
        <ele>2078.8</ele>
        <time>2018-08-08T15:26:10.000Z</time>
      </trkpt>
      <trkpt lat="42.69746" lon="0.66828">
        <ele>2078.8</ele>
        <time>2018-08-08T15:26:11.000Z</time>
      </trkpt>
      <trkpt lat="42.69746" lon="0.66828">
        <ele>2078.8</ele>
        <time>2018-08-08T15:26:12.000Z</time>
      </trkpt>
      <trkpt lat="42.69746" lon="0.66828">
        <ele>2078.8</ele>
        <time>2018-08-08T15:26:13.000Z</time>
      </trkpt>
      <trkpt lat="42.69746" lon="0.66828">
        <ele>2078.8</ele>
        <time>2018-08-08T15:26:14.000Z</time>
      </trkpt>
      <trkpt lat="42.69746" lon="0.66828">
        <ele>2078.8</ele>
        <time>2018-08-08T15:26:15.000Z</time>
      </trkpt>
      <trkpt lat="42.69746" lon="0.66828">
        <ele>2078.8</ele>
        <time>2018-08-08T15:26:16.000Z</time>
      </trkpt>
      <trkpt lat="42.69746" lon="0.66828">
        <ele>2078.8</ele>
        <time>2018-08-08T15:26:17.000Z</time>
      </trkpt>
      <trkpt lat="42.69746" lon="0.66828">
        <ele>2078.8</ele>
        <time>2018-08-08T15:26:18.000Z</time>
      </trkpt>
      <trkpt lat="42.69746" lon="0.66828">
        <ele>2078.8</ele>
        <time>2018-08-08T15:26:19.000Z</time>
      </trkpt>
      <trkpt lat="42.69746" lon="0.66828">
        <ele>2078.8</ele>
        <time>2018-08-08T15:26:20.000Z</time>
      </trkpt>
      <trkpt lat="42.69746" lon="0.66828">
        <ele>2078.8</ele>
        <time>2018-08-08T15:26:21.000Z</time>
      </trkpt>
      <trkpt lat="42.69746" lon="0.66828">
        <ele>2078.8</ele>
        <time>2018-08-08T15:26:22.000Z</time>
      </trkpt>
      <trkpt lat="42.69746" lon="0.66828">
        <ele>2078.8</ele>
        <time>2018-08-08T15:26:23.000Z</time>
      </trkpt>
      <trkpt lat="42.69746" lon="0.66828">
        <ele>2078.8</ele>
        <time>2018-08-08T15:26:24.000Z</time>
      </trkpt>
      <trkpt lat="42.69746" lon="0.66828">
        <ele>2078.8</ele>
        <time>2018-08-08T15:26:25.000Z</time>
      </trkpt>
      <trkpt lat="42.69746" lon="0.66828">
        <ele>2078.8</ele>
        <time>2018-08-08T15:26:26.000Z</time>
      </trkpt>
      <trkpt lat="42.69746" lon="0.66828">
        <ele>2078.8</ele>
        <time>2018-08-08T15:26:27.000Z</time>
      </trkpt>
      <trkpt lat="42.69746" lon="0.66828">
        <ele>2078.8</ele>
        <time>2018-08-08T15:26:28.000Z</time>
      </trkpt>
      <trkpt lat="42.69746" lon="0.66828">
        <ele>2078.8</ele>
        <time>2018-08-08T15:26:29.000Z</time>
      </trkpt>
      <trkpt lat="42.69746" lon="0.66828">
        <ele>2078.8</ele>
        <time>2018-08-08T15:26:30.000Z</time>
      </trkpt>
      <trkpt lat="42.69746" lon="0.66828">
        <ele>2078.8</ele>
        <time>2018-08-08T15:26:31.000Z</time>
      </trkpt>
      <trkpt lat="42.69746" lon="0.66828">
        <ele>2078.8</ele>
        <time>2018-08-08T15:26:32.000Z</time>
      </trkpt>
      <trkpt lat="42.69746" lon="0.66828">
        <ele>2078.8</ele>
        <time>2018-08-08T15:26:33.000Z</time>
      </trkpt>
      <trkpt lat="42.69746" lon="0.66828">
        <ele>2078.8</ele>
        <time>2018-08-08T15:26:34.000Z</time>
      </trkpt>
      <trkpt lat="42.69746" lon="0.66828">
        <ele>2078.8</ele>
        <time>2018-08-08T15:26:35.000Z</time>
      </trkpt>
      <trkpt lat="42.69746" lon="0.66828">
        <ele>2078.8</ele>
        <time>2018-08-08T15:26:36.000Z</time>
      </trkpt>
      <trkpt lat="42.69746" lon="0.66828">
        <ele>2078.8</ele>
        <time>2018-08-08T15:26:37.000Z</time>
      </trkpt>
      <trkpt lat="42.69746" lon="0.66828">
        <ele>2078.8</ele>
        <time>2018-08-08T15:26:38.000Z</time>
      </trkpt>
      <trkpt lat="42.69746" lon="0.66828">
        <ele>2078.8</ele>
        <time>2018-08-08T15:26:39.000Z</time>
      </trkpt>
      <trkpt lat="42.69746" lon="0.66828">
        <ele>2078.8</ele>
        <time>2018-08-08T15:26:40.000Z</time>
      </trkpt>
      <trkpt lat="42.69746" lon="0.66828">
        <ele>2078.8</ele>
        <time>2018-08-08T15:26:41.000Z</time>
      </trkpt>
      <trkpt lat="42.69746" lon="0.66828">
        <ele>2078.8</ele>
        <time>2018-08-08T15:26:42.000Z</time>
      </trkpt>
      <trkpt lat="42.69746" lon="0.66828">
        <ele>2078.8</ele>
        <time>2018-08-08T15:26:43.000Z</time>
      </trkpt>
      <trkpt lat="42.69746" lon="0.66828">
        <ele>2078.8</ele>
        <time>2018-08-08T15:26:44.000Z</time>
      </trkpt>
      <trkpt lat="42.69746" lon="0.66828">
        <ele>2078.8</ele>
        <time>2018-08-08T15:26:45.000Z</time>
      </trkpt>
      <trkpt lat="42.69746" lon="0.66828">
        <ele>2078.8</ele>
        <time>2018-08-08T15:26:46.000Z</time>
      </trkpt>
      <trkpt lat="42.69746" lon="0.66828">
        <ele>2078.8</ele>
        <time>2018-08-08T15:26:47.000Z</time>
      </trkpt>
      <trkpt lat="42.69746" lon="0.66828">
        <ele>2078.8</ele>
        <time>2018-08-08T15:26:48.000Z</time>
      </trkpt>
      <trkpt lat="42.69746" lon="0.66828">
        <ele>2078.8</ele>
        <time>2018-08-08T15:26:49.000Z</time>
      </trkpt>
      <trkpt lat="42.69746" lon="0.66828">
        <ele>2078.8</ele>
        <time>2018-08-08T15:26:50.000Z</time>
      </trkpt>
      <trkpt lat="42.69746" lon="0.66828">
        <ele>2078.8</ele>
        <time>2018-08-08T15:26:51.000Z</time>
      </trkpt>
      <trkpt lat="42.69746" lon="0.66828">
        <ele>2078.8</ele>
        <time>2018-08-08T15:26:52.000Z</time>
      </trkpt>
      <trkpt lat="42.69746" lon="0.66828">
        <ele>2078.8</ele>
        <time>2018-08-08T15:26:53.000Z</time>
      </trkpt>
      <trkpt lat="42.69746" lon="0.66828">
        <ele>2078.8</ele>
        <time>2018-08-08T15:26:54.000Z</time>
      </trkpt>
      <trkpt lat="42.69746" lon="0.66828">
        <ele>2078.8</ele>
        <time>2018-08-08T15:26:55.000Z</time>
      </trkpt>
      <trkpt lat="42.69746" lon="0.66828">
        <ele>2078.8</ele>
        <time>2018-08-08T15:26:56.000Z</time>
      </trkpt>
      <trkpt lat="42.69746" lon="0.66828">
        <ele>2078.8</ele>
        <time>2018-08-08T15:26:57.000Z</time>
      </trkpt>
      <trkpt lat="42.69746" lon="0.66828">
        <ele>2078.8</ele>
        <time>2018-08-08T15:26:58.000Z</time>
      </trkpt>
      <trkpt lat="42.69746" lon="0.66828">
        <ele>2078.8</ele>
        <time>2018-08-08T15:26:59.000Z</time>
      </trkpt>
      <trkpt lat="42.69746" lon="0.66828">
        <ele>2078.8</ele>
        <time>2018-08-08T15:27:00.000Z</time>
      </trkpt>
      <trkpt lat="42.69746" lon="0.66828">
        <ele>2078.8</ele>
        <time>2018-08-08T15:27:01.000Z</time>
      </trkpt>
      <trkpt lat="42.69746" lon="0.66828">
        <ele>2078.8</ele>
        <time>2018-08-08T15:27:02.000Z</time>
      </trkpt>
      <trkpt lat="42.69746" lon="0.66828">
        <ele>2078.8</ele>
        <time>2018-08-08T15:27:03.000Z</time>
      </trkpt>
      <trkpt lat="42.69746" lon="0.66828">
        <ele>2078.8</ele>
        <time>2018-08-08T15:27:04.000Z</time>
      </trkpt>
      <trkpt lat="42.69746" lon="0.66828">
        <ele>2078.8</ele>
        <time>2018-08-08T15:27:05.000Z</time>
      </trkpt>
      <trkpt lat="42.69746" lon="0.66828">
        <ele>2078.8</ele>
        <time>2018-08-08T15:27:06.000Z</time>
      </trkpt>
      <trkpt lat="42.69746" lon="0.66828">
        <ele>2078.8</ele>
        <time>2018-08-08T15:27:07.000Z</time>
      </trkpt>
      <trkpt lat="42.69746" lon="0.66828">
        <ele>2078.8</ele>
        <time>2018-08-08T15:27:08.000Z</time>
      </trkpt>
      <trkpt lat="42.69746" lon="0.66828">
        <ele>2078.8</ele>
        <time>2018-08-08T15:27:09.000Z</time>
      </trkpt>
      <trkpt lat="42.69746" lon="0.66828">
        <ele>2078.8</ele>
        <time>2018-08-08T15:27:10.000Z</time>
      </trkpt>
      <trkpt lat="42.69746" lon="0.66828">
        <ele>2078.8</ele>
        <time>2018-08-08T15:27:11.000Z</time>
      </trkpt>
      <trkpt lat="42.69746" lon="0.66828">
        <ele>2078.8</ele>
        <time>2018-08-08T15:27:12.000Z</time>
      </trkpt>
      <trkpt lat="42.69746" lon="0.66828">
        <ele>2078.8</ele>
        <time>2018-08-08T15:27:13.000Z</time>
      </trkpt>
      <trkpt lat="42.69746" lon="0.66828">
        <ele>2078.8</ele>
        <time>2018-08-08T15:27:14.000Z</time>
      </trkpt>
      <trkpt lat="42.69746" lon="0.66828">
        <ele>2078.8</ele>
        <time>2018-08-08T15:27:15.000Z</time>
      </trkpt>
      <trkpt lat="42.69746" lon="0.66828">
        <ele>2078.8</ele>
        <time>2018-08-08T15:27:16.000Z</time>
      </trkpt>
      <trkpt lat="42.69746" lon="0.66828">
        <ele>2078.8</ele>
        <time>2018-08-08T15:27:17.000Z</time>
      </trkpt>
      <trkpt lat="42.69746" lon="0.66828">
        <ele>2078.8</ele>
        <time>2018-08-08T15:27:18.000Z</time>
      </trkpt>
      <trkpt lat="42.69746" lon="0.66828">
        <ele>2078.8</ele>
        <time>2018-08-08T15:27:19.000Z</time>
      </trkpt>
      <trkpt lat="42.69746" lon="0.66828">
        <ele>2078.8</ele>
        <time>2018-08-08T15:27:20.000Z</time>
      </trkpt>
      <trkpt lat="42.69746" lon="0.66828">
        <ele>2078.8</ele>
        <time>2018-08-08T15:27:21.000Z</time>
      </trkpt>
      <trkpt lat="42.69746" lon="0.66828">
        <ele>2078.8</ele>
        <time>2018-08-08T15:27:22.000Z</time>
      </trkpt>
      <trkpt lat="42.69746" lon="0.66828">
        <ele>2078.8</ele>
        <time>2018-08-08T15:27:23.000Z</time>
      </trkpt>
      <trkpt lat="42.69746" lon="0.66828">
        <ele>2078.8</ele>
        <time>2018-08-08T15:27:24.000Z</time>
      </trkpt>
      <trkpt lat="42.69746" lon="0.66828">
        <ele>2078.8</ele>
        <time>2018-08-08T15:27:25.000Z</time>
      </trkpt>
      <trkpt lat="42.69746" lon="0.66828">
        <ele>2078.8</ele>
        <time>2018-08-08T15:27:26.000Z</time>
      </trkpt>
      <trkpt lat="42.69746" lon="0.66828">
        <ele>2078.8</ele>
        <time>2018-08-08T15:27:27.000Z</time>
      </trkpt>
      <trkpt lat="42.69746" lon="0.66828">
        <ele>2078.8</ele>
        <time>2018-08-08T15:27:28.000Z</time>
      </trkpt>
      <trkpt lat="42.69746" lon="0.66828">
        <ele>2078.8</ele>
        <time>2018-08-08T15:27:29.000Z</time>
      </trkpt>
      <trkpt lat="42.69746" lon="0.66828">
        <ele>2078.8</ele>
        <time>2018-08-08T15:27:30.000Z</time>
      </trkpt>
      <trkpt lat="42.69746" lon="0.66828">
        <ele>2078.8</ele>
        <time>2018-08-08T15:27:31.000Z</time>
      </trkpt>
      <trkpt lat="42.69746" lon="0.66828">
        <ele>2078.8</ele>
        <time>2018-08-08T15:27:32.000Z</time>
      </trkpt>
      <trkpt lat="42.69746" lon="0.66828">
        <ele>2078.8</ele>
        <time>2018-08-08T15:27:33.000Z</time>
      </trkpt>
      <trkpt lat="42.69746" lon="0.66828">
        <ele>2078.8</ele>
        <time>2018-08-08T15:27:34.000Z</time>
      </trkpt>
      <trkpt lat="42.69746" lon="0.66828">
        <ele>2078.8</ele>
        <time>2018-08-08T15:27:35.000Z</time>
      </trkpt>
      <trkpt lat="42.69746" lon="0.66828">
        <ele>2078.8</ele>
        <time>2018-08-08T15:27:36.000Z</time>
      </trkpt>
      <trkpt lat="42.69746" lon="0.66828">
        <ele>2078.8</ele>
        <time>2018-08-08T15:27:37.000Z</time>
      </trkpt>
      <trkpt lat="42.69746" lon="0.66828">
        <ele>2078.8</ele>
        <time>2018-08-08T15:27:38.000Z</time>
      </trkpt>
      <trkpt lat="42.69746" lon="0.66828">
        <ele>2078.8</ele>
        <time>2018-08-08T15:27:39.000Z</time>
      </trkpt>
      <trkpt lat="42.69746" lon="0.66828">
        <ele>2078.8</ele>
        <time>2018-08-08T15:27:40.000Z</time>
      </trkpt>
      <trkpt lat="42.69746" lon="0.66828">
        <ele>2078.8</ele>
        <time>2018-08-08T15:27:41.000Z</time>
      </trkpt>
      <trkpt lat="42.69746" lon="0.66828">
        <ele>2078.8</ele>
        <time>2018-08-08T15:27:42.000Z</time>
      </trkpt>
      <trkpt lat="42.69746" lon="0.66828">
        <ele>2078.8</ele>
        <time>2018-08-08T15:27:43.000Z</time>
      </trkpt>
      <trkpt lat="42.69746" lon="0.66828">
        <ele>2078.8</ele>
        <time>2018-08-08T15:27:44.000Z</time>
      </trkpt>
      <trkpt lat="42.69746" lon="0.66828">
        <ele>2078.8</ele>
        <time>2018-08-08T15:27:45.000Z</time>
      </trkpt>
      <trkpt lat="42.69746" lon="0.66828">
        <ele>2078.8</ele>
        <time>2018-08-08T15:27:46.000Z</time>
      </trkpt>
      <trkpt lat="42.69746" lon="0.66828">
        <ele>2078.8</ele>
        <time>2018-08-08T15:27:47.000Z</time>
      </trkpt>
      <trkpt lat="42.69746" lon="0.66828">
        <ele>2078.8</ele>
        <time>2018-08-08T15:27:48.000Z</time>
      </trkpt>
      <trkpt lat="42.69746" lon="0.66828">
        <ele>2078.8</ele>
        <time>2018-08-08T15:27:49.000Z</time>
      </trkpt>
      <trkpt lat="42.69746" lon="0.66828">
        <ele>2078.8</ele>
        <time>2018-08-08T15:27:50.000Z</time>
      </trkpt>
      <trkpt lat="42.69746" lon="0.66828">
        <ele>2078.8</ele>
        <time>2018-08-08T15:27:51.000Z</time>
      </trkpt>
      <trkpt lat="42.69746" lon="0.66828">
        <ele>2078.8</ele>
        <time>2018-08-08T15:27:52.000Z</time>
      </trkpt>
      <trkpt lat="42.69746" lon="0.66828">
        <ele>2078.8</ele>
        <time>2018-08-08T15:27:53.000Z</time>
      </trkpt>
      <trkpt lat="42.69746" lon="0.66828">
        <ele>2078.8</ele>
        <time>2018-08-08T15:27:54.000Z</time>
      </trkpt>
      <trkpt lat="42.69746" lon="0.66828">
        <ele>2078.8</ele>
        <time>2018-08-08T15:27:55.000Z</time>
      </trkpt>
      <trkpt lat="42.69746" lon="0.66828">
        <ele>2078.8</ele>
        <time>2018-08-08T15:27:56.000Z</time>
      </trkpt>
      <trkpt lat="42.69746" lon="0.66828">
        <ele>2078.8</ele>
        <time>2018-08-08T15:27:57.000Z</time>
      </trkpt>
      <trkpt lat="42.69746" lon="0.66828">
        <ele>2078.8</ele>
        <time>2018-08-08T15:27:58.000Z</time>
      </trkpt>
      <trkpt lat="42.69746" lon="0.66828">
        <ele>2078.8</ele>
        <time>2018-08-08T15:27:59.000Z</time>
      </trkpt>
      <trkpt lat="42.69746" lon="0.66828">
        <ele>2078.8</ele>
        <time>2018-08-08T15:28:00.000Z</time>
      </trkpt>
      <trkpt lat="42.69746" lon="0.66828">
        <ele>2078.8</ele>
        <time>2018-08-08T15:28:01.000Z</time>
      </trkpt>
      <trkpt lat="42.69746" lon="0.66828">
        <ele>2078.8</ele>
        <time>2018-08-08T15:28:02.000Z</time>
      </trkpt>
      <trkpt lat="42.69746" lon="0.66828">
        <ele>2078.8</ele>
        <time>2018-08-08T15:28:03.000Z</time>
      </trkpt>
      <trkpt lat="42.69746" lon="0.66828">
        <ele>2078.8</ele>
        <time>2018-08-08T15:28:04.000Z</time>
      </trkpt>
      <trkpt lat="42.69746" lon="0.66828">
        <ele>2078.8</ele>
        <time>2018-08-08T15:28:05.000Z</time>
      </trkpt>
      <trkpt lat="42.69746" lon="0.66828">
        <ele>2078.8</ele>
        <time>2018-08-08T15:28:06.000Z</time>
      </trkpt>
      <trkpt lat="42.69746" lon="0.66828">
        <ele>2078.8</ele>
        <time>2018-08-08T15:28:07.000Z</time>
      </trkpt>
      <trkpt lat="42.69746" lon="0.66828">
        <ele>2078.8</ele>
        <time>2018-08-08T15:28:08.000Z</time>
      </trkpt>
      <trkpt lat="42.69746" lon="0.66828">
        <ele>2078.8</ele>
        <time>2018-08-08T15:28:09.000Z</time>
      </trkpt>
      <trkpt lat="42.69746" lon="0.66828">
        <ele>2078.8</ele>
        <time>2018-08-08T15:28:10.000Z</time>
      </trkpt>
      <trkpt lat="42.69746" lon="0.66828">
        <ele>2078.8</ele>
        <time>2018-08-08T15:28:11.000Z</time>
      </trkpt>
      <trkpt lat="42.69746" lon="0.66828">
        <ele>2078.8</ele>
        <time>2018-08-08T15:28:12.000Z</time>
      </trkpt>
      <trkpt lat="42.69746" lon="0.66828">
        <ele>2078.8</ele>
        <time>2018-08-08T15:28:13.000Z</time>
      </trkpt>
      <trkpt lat="42.69746" lon="0.66828">
        <ele>2078.8</ele>
        <time>2018-08-08T15:28:14.000Z</time>
      </trkpt>
      <trkpt lat="42.69746" lon="0.66828">
        <ele>2078.8</ele>
        <time>2018-08-08T15:28:15.000Z</time>
      </trkpt>
      <trkpt lat="42.69746" lon="0.66828">
        <ele>2078.8</ele>
        <time>2018-08-08T15:28:16.000Z</time>
      </trkpt>
      <trkpt lat="42.69746" lon="0.66828">
        <ele>2078.8</ele>
        <time>2018-08-08T15:28:17.000Z</time>
      </trkpt>
      <trkpt lat="42.69746" lon="0.66828">
        <ele>2078.8</ele>
        <time>2018-08-08T15:28:18.000Z</time>
      </trkpt>
      <trkpt lat="42.69746" lon="0.66828">
        <ele>2078.8</ele>
        <time>2018-08-08T15:28:19.000Z</time>
      </trkpt>
      <trkpt lat="42.69746" lon="0.66828">
        <ele>2078.8</ele>
        <time>2018-08-08T15:28:20.000Z</time>
      </trkpt>
      <trkpt lat="42.69746" lon="0.66828">
        <ele>2078.8</ele>
        <time>2018-08-08T15:28:21.000Z</time>
      </trkpt>
      <trkpt lat="42.69746" lon="0.66828">
        <ele>2078.8</ele>
        <time>2018-08-08T15:28:22.000Z</time>
      </trkpt>
      <trkpt lat="42.69746" lon="0.66828">
        <ele>2078.8</ele>
        <time>2018-08-08T15:28:23.000Z</time>
      </trkpt>
      <trkpt lat="42.69746" lon="0.66828">
        <ele>2078.8</ele>
        <time>2018-08-08T15:28:24.000Z</time>
      </trkpt>
      <trkpt lat="42.69746" lon="0.66828">
        <ele>2078.8</ele>
        <time>2018-08-08T15:28:25.000Z</time>
      </trkpt>
      <trkpt lat="42.69746" lon="0.66828">
        <ele>2078.8</ele>
        <time>2018-08-08T15:28:26.000Z</time>
      </trkpt>
      <trkpt lat="42.69746" lon="0.66828">
        <ele>2078.8</ele>
        <time>2018-08-08T15:28:27.000Z</time>
      </trkpt>
      <trkpt lat="42.69746" lon="0.66828">
        <ele>2078.8</ele>
        <time>2018-08-08T15:28:28.000Z</time>
      </trkpt>
      <trkpt lat="42.69746" lon="0.66828">
        <ele>2078.8</ele>
        <time>2018-08-08T15:28:29.000Z</time>
      </trkpt>
      <trkpt lat="42.69746" lon="0.66828">
        <ele>2078.8</ele>
        <time>2018-08-08T15:28:30.000Z</time>
      </trkpt>
      <trkpt lat="42.69746" lon="0.66828">
        <ele>2078.8</ele>
        <time>2018-08-08T15:28:31.000Z</time>
      </trkpt>
      <trkpt lat="42.69746" lon="0.66828">
        <ele>2078.8</ele>
        <time>2018-08-08T15:28:32.000Z</time>
      </trkpt>
      <trkpt lat="42.69746" lon="0.66828">
        <ele>2078.8</ele>
        <time>2018-08-08T15:28:33.000Z</time>
      </trkpt>
      <trkpt lat="42.69746" lon="0.66828">
        <ele>2078.8</ele>
        <time>2018-08-08T15:28:34.000Z</time>
      </trkpt>
      <trkpt lat="42.69746" lon="0.66828">
        <ele>2078.8</ele>
        <time>2018-08-08T15:28:35.000Z</time>
      </trkpt>
      <trkpt lat="42.69746" lon="0.66828">
        <ele>2078.8</ele>
        <time>2018-08-08T15:28:36.000Z</time>
      </trkpt>
      <trkpt lat="42.69746" lon="0.66828">
        <ele>2078.8</ele>
        <time>2018-08-08T15:28:37.000Z</time>
      </trkpt>
      <trkpt lat="42.69746" lon="0.66828">
        <ele>2078.8</ele>
        <time>2018-08-08T15:28:38.000Z</time>
      </trkpt>
      <trkpt lat="42.69746" lon="0.66828">
        <ele>2078.8</ele>
        <time>2018-08-08T15:28:39.000Z</time>
      </trkpt>
      <trkpt lat="42.69746" lon="0.66828">
        <ele>2078.8</ele>
        <time>2018-08-08T15:28:40.000Z</time>
      </trkpt>
      <trkpt lat="42.69746" lon="0.66828">
        <ele>2078.8</ele>
        <time>2018-08-08T15:28:41.000Z</time>
      </trkpt>
      <trkpt lat="42.69746" lon="0.66828">
        <ele>2078.8</ele>
        <time>2018-08-08T15:28:42.000Z</time>
      </trkpt>
      <trkpt lat="42.69746" lon="0.66828">
        <ele>2078.8</ele>
        <time>2018-08-08T15:28:43.000Z</time>
      </trkpt>
      <trkpt lat="42.69746" lon="0.66828">
        <ele>2078.8</ele>
        <time>2018-08-08T15:28:44.000Z</time>
      </trkpt>
      <trkpt lat="42.69746" lon="0.66828">
        <ele>2078.8</ele>
        <time>2018-08-08T15:28:45.000Z</time>
      </trkpt>
      <trkpt lat="42.69746" lon="0.66828">
        <ele>2078.8</ele>
        <time>2018-08-08T15:28:46.000Z</time>
      </trkpt>
      <trkpt lat="42.69746" lon="0.66828">
        <ele>2078.8</ele>
        <time>2018-08-08T15:28:47.000Z</time>
      </trkpt>
      <trkpt lat="42.69746" lon="0.66828">
        <ele>2078.8</ele>
        <time>2018-08-08T15:28:48.000Z</time>
      </trkpt>
      <trkpt lat="42.69746" lon="0.66828">
        <ele>2078.8</ele>
        <time>2018-08-08T15:28:49.000Z</time>
      </trkpt>
      <trkpt lat="42.69746" lon="0.66828">
        <ele>2078.8</ele>
        <time>2018-08-08T15:28:50.000Z</time>
      </trkpt>
      <trkpt lat="42.69746" lon="0.66828">
        <ele>2078.8</ele>
        <time>2018-08-08T15:28:51.000Z</time>
      </trkpt>
      <trkpt lat="42.69746" lon="0.66828">
        <ele>2078.8</ele>
        <time>2018-08-08T15:28:52.000Z</time>
      </trkpt>
      <trkpt lat="42.69746" lon="0.66828">
        <ele>2078.8</ele>
        <time>2018-08-08T15:28:53.000Z</time>
      </trkpt>
      <trkpt lat="42.69746" lon="0.66828">
        <ele>2078.8</ele>
        <time>2018-08-08T15:28:54.000Z</time>
      </trkpt>
      <trkpt lat="42.69746" lon="0.66828">
        <ele>2078.8</ele>
        <time>2018-08-08T15:28:55.000Z</time>
      </trkpt>
      <trkpt lat="42.69746" lon="0.66828">
        <ele>2078.8</ele>
        <time>2018-08-08T15:28:56.000Z</time>
      </trkpt>
      <trkpt lat="42.69746" lon="0.66828">
        <ele>2078.8</ele>
        <time>2018-08-08T15:28:57.000Z</time>
      </trkpt>
      <trkpt lat="42.69746" lon="0.66828">
        <ele>2078.8</ele>
        <time>2018-08-08T15:28:58.000Z</time>
      </trkpt>
      <trkpt lat="42.69746" lon="0.66828">
        <ele>2078.8</ele>
        <time>2018-08-08T15:28:59.000Z</time>
      </trkpt>
      <trkpt lat="42.69746" lon="0.66828">
        <ele>2078.8</ele>
        <time>2018-08-08T15:29:00.000Z</time>
      </trkpt>
      <trkpt lat="42.69746" lon="0.66828">
        <ele>2078.8</ele>
        <time>2018-08-08T15:29:01.000Z</time>
      </trkpt>
      <trkpt lat="42.69746" lon="0.66828">
        <ele>2078.8</ele>
        <time>2018-08-08T15:29:02.000Z</time>
      </trkpt>
      <trkpt lat="42.69746" lon="0.66828">
        <ele>2078.8</ele>
        <time>2018-08-08T15:29:03.000Z</time>
      </trkpt>
      <trkpt lat="42.69746" lon="0.66828">
        <ele>2078.8</ele>
        <time>2018-08-08T15:29:04.000Z</time>
      </trkpt>
      <trkpt lat="42.69746" lon="0.66828">
        <ele>2078.8</ele>
        <time>2018-08-08T15:29:05.000Z</time>
      </trkpt>
      <trkpt lat="42.69746" lon="0.66828">
        <ele>2078.8</ele>
        <time>2018-08-08T15:29:06.000Z</time>
      </trkpt>
      <trkpt lat="42.69746" lon="0.66828">
        <ele>2078.8</ele>
        <time>2018-08-08T15:29:07.000Z</time>
      </trkpt>
      <trkpt lat="42.69746" lon="0.66828">
        <ele>2078.8</ele>
        <time>2018-08-08T15:29:08.000Z</time>
      </trkpt>
      <trkpt lat="42.69746" lon="0.66828">
        <ele>2078.8</ele>
        <time>2018-08-08T15:29:09.000Z</time>
      </trkpt>
      <trkpt lat="42.69746" lon="0.66828">
        <ele>2078.8</ele>
        <time>2018-08-08T15:29:10.000Z</time>
      </trkpt>
      <trkpt lat="42.69746" lon="0.66828">
        <ele>2078.8</ele>
        <time>2018-08-08T15:29:11.000Z</time>
      </trkpt>
      <trkpt lat="42.69746" lon="0.66828">
        <ele>2078.8</ele>
        <time>2018-08-08T15:29:12.000Z</time>
      </trkpt>
      <trkpt lat="42.69746" lon="0.66828">
        <ele>2078.8</ele>
        <time>2018-08-08T15:29:13.000Z</time>
      </trkpt>
      <trkpt lat="42.69746" lon="0.66828">
        <ele>2078.8</ele>
        <time>2018-08-08T15:29:14.000Z</time>
      </trkpt>
      <trkpt lat="42.69746" lon="0.66828">
        <ele>2078.8</ele>
        <time>2018-08-08T15:29:15.000Z</time>
      </trkpt>
      <trkpt lat="42.69746" lon="0.66828">
        <ele>2078.8</ele>
        <time>2018-08-08T15:29:16.000Z</time>
      </trkpt>
      <trkpt lat="42.69746" lon="0.66828">
        <ele>2078.8</ele>
        <time>2018-08-08T15:29:17.000Z</time>
      </trkpt>
      <trkpt lat="42.69746" lon="0.66828">
        <ele>2078.8</ele>
        <time>2018-08-08T15:29:18.000Z</time>
      </trkpt>
      <trkpt lat="42.69746" lon="0.66828">
        <ele>2078.8</ele>
        <time>2018-08-08T15:29:19.000Z</time>
      </trkpt>
      <trkpt lat="42.69746" lon="0.66828">
        <ele>2078.8</ele>
        <time>2018-08-08T15:29:20.000Z</time>
      </trkpt>
      <trkpt lat="42.69746" lon="0.66828">
        <ele>2078.8</ele>
        <time>2018-08-08T15:29:21.000Z</time>
      </trkpt>
      <trkpt lat="42.69746" lon="0.66828">
        <ele>2078.8</ele>
        <time>2018-08-08T15:29:22.000Z</time>
      </trkpt>
      <trkpt lat="42.69746" lon="0.66828">
        <ele>2078.8</ele>
        <time>2018-08-08T15:29:23.000Z</time>
      </trkpt>
      <trkpt lat="42.69746" lon="0.66828">
        <ele>2078.8</ele>
        <time>2018-08-08T15:29:24.000Z</time>
      </trkpt>
      <trkpt lat="42.69746" lon="0.66828">
        <ele>2078.8</ele>
        <time>2018-08-08T15:29:25.000Z</time>
      </trkpt>
      <trkpt lat="42.69746" lon="0.66828">
        <ele>2078.8</ele>
        <time>2018-08-08T15:29:26.000Z</time>
      </trkpt>
      <trkpt lat="42.69746" lon="0.66828">
        <ele>2078.8</ele>
        <time>2018-08-08T15:29:27.000Z</time>
      </trkpt>
      <trkpt lat="42.69746" lon="0.66828">
        <ele>2078.8</ele>
        <time>2018-08-08T15:29:28.000Z</time>
      </trkpt>
      <trkpt lat="42.69746" lon="0.66828">
        <ele>2078.8</ele>
        <time>2018-08-08T15:29:29.000Z</time>
      </trkpt>
      <trkpt lat="42.69746" lon="0.66828">
        <ele>2078.8</ele>
        <time>2018-08-08T15:29:30.000Z</time>
      </trkpt>
      <trkpt lat="42.69746" lon="0.66828">
        <ele>2078.8</ele>
        <time>2018-08-08T15:29:31.000Z</time>
      </trkpt>
      <trkpt lat="42.69746" lon="0.66828">
        <ele>2078.8</ele>
        <time>2018-08-08T15:29:32.000Z</time>
      </trkpt>
      <trkpt lat="42.69746" lon="0.66828">
        <ele>2078.8</ele>
        <time>2018-08-08T15:29:33.000Z</time>
      </trkpt>
      <trkpt lat="42.69746" lon="0.66828">
        <ele>2078.8</ele>
        <time>2018-08-08T15:29:34.000Z</time>
      </trkpt>
      <trkpt lat="42.69746" lon="0.66828">
        <ele>2078.8</ele>
        <time>2018-08-08T15:29:35.000Z</time>
      </trkpt>
      <trkpt lat="42.69746" lon="0.66828">
        <ele>2078.8</ele>
        <time>2018-08-08T15:29:36.000Z</time>
      </trkpt>
      <trkpt lat="42.69746" lon="0.66828">
        <ele>2078.8</ele>
        <time>2018-08-08T15:29:37.000Z</time>
      </trkpt>
      <trkpt lat="42.69746" lon="0.66828">
        <ele>2078.8</ele>
        <time>2018-08-08T15:29:38.000Z</time>
      </trkpt>
      <trkpt lat="42.69746" lon="0.66828">
        <ele>2078.8</ele>
        <time>2018-08-08T15:29:39.000Z</time>
      </trkpt>
      <trkpt lat="42.69746" lon="0.66828">
        <ele>2078.8</ele>
        <time>2018-08-08T15:29:40.000Z</time>
      </trkpt>
      <trkpt lat="42.69746" lon="0.66828">
        <ele>2078.8</ele>
        <time>2018-08-08T15:29:41.000Z</time>
      </trkpt>
      <trkpt lat="42.69746" lon="0.66828">
        <ele>2078.8</ele>
        <time>2018-08-08T15:29:42.000Z</time>
      </trkpt>
      <trkpt lat="42.69746" lon="0.66828">
        <ele>2078.8</ele>
        <time>2018-08-08T15:29:43.000Z</time>
      </trkpt>
      <trkpt lat="42.69746" lon="0.66828">
        <ele>2078.8</ele>
        <time>2018-08-08T15:29:44.000Z</time>
      </trkpt>
      <trkpt lat="42.69746" lon="0.66828">
        <ele>2078.8</ele>
        <time>2018-08-08T15:29:45.000Z</time>
      </trkpt>
      <trkpt lat="42.69746" lon="0.66828">
        <ele>2078.8</ele>
        <time>2018-08-08T15:29:46.000Z</time>
      </trkpt>
      <trkpt lat="42.69746" lon="0.66828">
        <ele>2078.8</ele>
        <time>2018-08-08T15:29:47.000Z</time>
      </trkpt>
      <trkpt lat="42.69746" lon="0.66828">
        <ele>2078.8</ele>
        <time>2018-08-08T15:29:48.000Z</time>
      </trkpt>
      <trkpt lat="42.69746" lon="0.66828">
        <ele>2078.8</ele>
        <time>2018-08-08T15:29:49.000Z</time>
      </trkpt>
      <trkpt lat="42.69746" lon="0.66828">
        <ele>2078.8</ele>
        <time>2018-08-08T15:29:50.000Z</time>
      </trkpt>
      <trkpt lat="42.69746" lon="0.66828">
        <ele>2078.8</ele>
        <time>2018-08-08T15:29:51.000Z</time>
      </trkpt>
      <trkpt lat="42.69746" lon="0.66828">
        <ele>2078.8</ele>
        <time>2018-08-08T15:29:52.000Z</time>
      </trkpt>
      <trkpt lat="42.69746" lon="0.66828">
        <ele>2078.8</ele>
        <time>2018-08-08T15:29:53.000Z</time>
      </trkpt>
      <trkpt lat="42.69746" lon="0.66828">
        <ele>2078.8</ele>
        <time>2018-08-08T15:29:54.000Z</time>
      </trkpt>
      <trkpt lat="42.69746" lon="0.66828">
        <ele>2078.8</ele>
        <time>2018-08-08T15:29:55.000Z</time>
      </trkpt>
      <trkpt lat="42.69746" lon="0.66828">
        <ele>2078.8</ele>
        <time>2018-08-08T15:29:56.000Z</time>
      </trkpt>
      <trkpt lat="42.69746" lon="0.66828">
        <ele>2078.8</ele>
        <time>2018-08-08T15:29:57.000Z</time>
      </trkpt>
      <trkpt lat="42.69746" lon="0.66828">
        <ele>2078.8</ele>
        <time>2018-08-08T15:29:58.000Z</time>
      </trkpt>
      <trkpt lat="42.69746" lon="0.66828">
        <ele>2078.8</ele>
        <time>2018-08-08T15:29:59.000Z</time>
      </trkpt>
      <trkpt lat="42.69746" lon="0.66828">
        <ele>2078.8</ele>
        <time>2018-08-08T15:30:00.000Z</time>
      </trkpt>
      <trkpt lat="42.69746" lon="0.66828">
        <ele>2078.8</ele>
        <time>2018-08-08T15:30:01.000Z</time>
      </trkpt>
      <trkpt lat="42.69746" lon="0.66828">
        <ele>2078.8</ele>
        <time>2018-08-08T15:30:02.000Z</time>
      </trkpt>
      <trkpt lat="42.69746" lon="0.66828">
        <ele>2078.8</ele>
        <time>2018-08-08T15:30:03.000Z</time>
      </trkpt>
      <trkpt lat="42.69746" lon="0.66828">
        <ele>2078.8</ele>
        <time>2018-08-08T15:30:04.000Z</time>
      </trkpt>
      <trkpt lat="42.69746" lon="0.66828">
        <ele>2078.8</ele>
        <time>2018-08-08T15:30:05.000Z</time>
      </trkpt>
      <trkpt lat="42.69746" lon="0.66828">
        <ele>2078.8</ele>
        <time>2018-08-08T15:30:06.000Z</time>
      </trkpt>
      <trkpt lat="42.69746" lon="0.66828">
        <ele>2078.8</ele>
        <time>2018-08-08T15:30:07.000Z</time>
      </trkpt>
      <trkpt lat="42.69746" lon="0.66828">
        <ele>2078.8</ele>
        <time>2018-08-08T15:30:08.000Z</time>
      </trkpt>
      <trkpt lat="42.69746" lon="0.66828">
        <ele>2078.8</ele>
        <time>2018-08-08T15:30:09.000Z</time>
      </trkpt>
      <trkpt lat="42.69746" lon="0.66828">
        <ele>2078.8</ele>
        <time>2018-08-08T15:30:10.000Z</time>
      </trkpt>
      <trkpt lat="42.69746" lon="0.66828">
        <ele>2078.8</ele>
        <time>2018-08-08T15:30:11.000Z</time>
      </trkpt>
      <trkpt lat="42.69746" lon="0.66828">
        <ele>2078.8</ele>
        <time>2018-08-08T15:30:12.000Z</time>
      </trkpt>
      <trkpt lat="42.69746" lon="0.66828">
        <ele>2078.8</ele>
        <time>2018-08-08T15:30:13.000Z</time>
      </trkpt>
      <trkpt lat="42.69746" lon="0.66828">
        <ele>2078.8</ele>
        <time>2018-08-08T15:30:14.000Z</time>
      </trkpt>
      <trkpt lat="42.69746" lon="0.66828">
        <ele>2078.8</ele>
        <time>2018-08-08T15:30:15.000Z</time>
      </trkpt>
      <trkpt lat="42.69746" lon="0.66828">
        <ele>2078.8</ele>
        <time>2018-08-08T15:30:16.000Z</time>
      </trkpt>
      <trkpt lat="42.69746" lon="0.66828">
        <ele>2078.8</ele>
        <time>2018-08-08T15:30:17.000Z</time>
      </trkpt>
      <trkpt lat="42.69746" lon="0.66828">
        <ele>2078.8</ele>
        <time>2018-08-08T15:30:18.000Z</time>
      </trkpt>
      <trkpt lat="42.69746" lon="0.66828">
        <ele>2078.8</ele>
        <time>2018-08-08T15:30:19.000Z</time>
      </trkpt>
      <trkpt lat="42.69746" lon="0.66828">
        <ele>2078.8</ele>
        <time>2018-08-08T15:30:20.000Z</time>
      </trkpt>
      <trkpt lat="42.69746" lon="0.66828">
        <ele>2078.8</ele>
        <time>2018-08-08T15:30:21.000Z</time>
      </trkpt>
      <trkpt lat="42.69746" lon="0.66828">
        <ele>2078.8</ele>
        <time>2018-08-08T15:30:22.000Z</time>
      </trkpt>
      <trkpt lat="42.69746" lon="0.66828">
        <ele>2078.8</ele>
        <time>2018-08-08T15:30:23.000Z</time>
      </trkpt>
      <trkpt lat="42.69746" lon="0.66828">
        <ele>2078.8</ele>
        <time>2018-08-08T15:30:24.000Z</time>
      </trkpt>
      <trkpt lat="42.69746" lon="0.66828">
        <ele>2078.8</ele>
        <time>2018-08-08T15:30:25.000Z</time>
      </trkpt>
      <trkpt lat="42.69746" lon="0.66828">
        <ele>2078.8</ele>
        <time>2018-08-08T15:30:26.000Z</time>
      </trkpt>
      <trkpt lat="42.69746" lon="0.66828">
        <ele>2078.8</ele>
        <time>2018-08-08T15:30:27.000Z</time>
      </trkpt>
      <trkpt lat="42.69746" lon="0.66828">
        <ele>2078.8</ele>
        <time>2018-08-08T15:30:28.000Z</time>
      </trkpt>
      <trkpt lat="42.69746" lon="0.66828">
        <ele>2078.8</ele>
        <time>2018-08-08T15:30:29.000Z</time>
      </trkpt>
      <trkpt lat="42.69746" lon="0.66828">
        <ele>2078.8</ele>
        <time>2018-08-08T15:30:30.000Z</time>
      </trkpt>
      <trkpt lat="42.69746" lon="0.66828">
        <ele>2078.8</ele>
        <time>2018-08-08T15:30:31.000Z</time>
      </trkpt>
      <trkpt lat="42.69746" lon="0.66828">
        <ele>2078.8</ele>
        <time>2018-08-08T15:30:32.000Z</time>
      </trkpt>
      <trkpt lat="42.69746" lon="0.66828">
        <ele>2078.8</ele>
        <time>2018-08-08T15:30:33.000Z</time>
      </trkpt>
      <trkpt lat="42.69746" lon="0.66828">
        <ele>2078.8</ele>
        <time>2018-08-08T15:30:34.000Z</time>
      </trkpt>
      <trkpt lat="42.69746" lon="0.66828">
        <ele>2078.8</ele>
        <time>2018-08-08T15:30:35.000Z</time>
      </trkpt>
      <trkpt lat="42.69746" lon="0.66828">
        <ele>2078.8</ele>
        <time>2018-08-08T15:30:36.000Z</time>
      </trkpt>
      <trkpt lat="42.69746" lon="0.66828">
        <ele>2078.8</ele>
        <time>2018-08-08T15:30:37.000Z</time>
      </trkpt>
      <trkpt lat="42.69746" lon="0.66828">
        <ele>2078.8</ele>
        <time>2018-08-08T15:30:38.000Z</time>
      </trkpt>
      <trkpt lat="42.69746" lon="0.66828">
        <ele>2078.8</ele>
        <time>2018-08-08T15:30:39.000Z</time>
      </trkpt>
      <trkpt lat="42.69746" lon="0.66828">
        <ele>2078.8</ele>
        <time>2018-08-08T15:30:40.000Z</time>
      </trkpt>
      <trkpt lat="42.69746" lon="0.66828">
        <ele>2078.8</ele>
        <time>2018-08-08T15:30:41.000Z</time>
      </trkpt>
      <trkpt lat="42.69746" lon="0.66828">
        <ele>2078.8</ele>
        <time>2018-08-08T15:30:42.000Z</time>
      </trkpt>
      <trkpt lat="42.69746" lon="0.66828">
        <ele>2078.8</ele>
        <time>2018-08-08T15:30:43.000Z</time>
      </trkpt>
      <trkpt lat="42.69746" lon="0.66828">
        <ele>2078.8</ele>
        <time>2018-08-08T15:30:44.000Z</time>
      </trkpt>
      <trkpt lat="42.69746" lon="0.66828">
        <ele>2078.8</ele>
        <time>2018-08-08T15:30:45.000Z</time>
      </trkpt>
      <trkpt lat="42.69746" lon="0.66828">
        <ele>2078.8</ele>
        <time>2018-08-08T15:30:46.000Z</time>
      </trkpt>
      <trkpt lat="42.69746" lon="0.66828">
        <ele>2078.8</ele>
        <time>2018-08-08T15:30:47.000Z</time>
      </trkpt>
      <trkpt lat="42.69746" lon="0.66828">
        <ele>2078.8</ele>
        <time>2018-08-08T15:30:48.000Z</time>
      </trkpt>
      <trkpt lat="42.69746" lon="0.66828">
        <ele>2078.8</ele>
        <time>2018-08-08T15:30:49.000Z</time>
      </trkpt>
      <trkpt lat="42.69746" lon="0.66828">
        <ele>2078.8</ele>
        <time>2018-08-08T15:30:50.000Z</time>
      </trkpt>
      <trkpt lat="42.69746" lon="0.66828">
        <ele>2078.8</ele>
        <time>2018-08-08T15:30:51.000Z</time>
      </trkpt>
      <trkpt lat="42.69746" lon="0.66828">
        <ele>2078.8</ele>
        <time>2018-08-08T15:30:52.000Z</time>
      </trkpt>
      <trkpt lat="42.69746" lon="0.66828">
        <ele>2078.8</ele>
        <time>2018-08-08T15:30:53.000Z</time>
      </trkpt>
      <trkpt lat="42.69746" lon="0.66828">
        <ele>2078.8</ele>
        <time>2018-08-08T15:30:54.000Z</time>
      </trkpt>
      <trkpt lat="42.69746" lon="0.66828">
        <ele>2078.8</ele>
        <time>2018-08-08T15:30:55.000Z</time>
      </trkpt>
      <trkpt lat="42.69746" lon="0.66828">
        <ele>2078.8</ele>
        <time>2018-08-08T15:30:56.000Z</time>
      </trkpt>
      <trkpt lat="42.69746" lon="0.66828">
        <ele>2078.8</ele>
        <time>2018-08-08T15:30:57.000Z</time>
      </trkpt>
      <trkpt lat="42.69746" lon="0.66828">
        <ele>2078.8</ele>
        <time>2018-08-08T15:30:58.000Z</time>
      </trkpt>
      <trkpt lat="42.69746" lon="0.66828">
        <ele>2078.8</ele>
        <time>2018-08-08T15:30:59.000Z</time>
      </trkpt>
      <trkpt lat="42.69746" lon="0.66828">
        <ele>2078.8</ele>
        <time>2018-08-08T15:31:00.000Z</time>
      </trkpt>
      <trkpt lat="42.69746" lon="0.66828">
        <ele>2078.8</ele>
        <time>2018-08-08T15:31:01.000Z</time>
      </trkpt>
      <trkpt lat="42.69746" lon="0.66828">
        <ele>2078.8</ele>
        <time>2018-08-08T15:31:02.000Z</time>
      </trkpt>
      <trkpt lat="42.69746" lon="0.66828">
        <ele>2078.8</ele>
        <time>2018-08-08T15:31:03.000Z</time>
      </trkpt>
      <trkpt lat="42.69746" lon="0.66828">
        <ele>2078.8</ele>
        <time>2018-08-08T15:31:04.000Z</time>
      </trkpt>
      <trkpt lat="42.69746" lon="0.66828">
        <ele>2078.8</ele>
        <time>2018-08-08T15:31:05.000Z</time>
      </trkpt>
      <trkpt lat="42.69746" lon="0.66828">
        <ele>2078.8</ele>
        <time>2018-08-08T15:31:06.000Z</time>
      </trkpt>
      <trkpt lat="42.69746" lon="0.66828">
        <ele>2078.8</ele>
        <time>2018-08-08T15:31:07.000Z</time>
      </trkpt>
      <trkpt lat="42.69746" lon="0.66828">
        <ele>2078.8</ele>
        <time>2018-08-08T15:31:08.000Z</time>
      </trkpt>
      <trkpt lat="42.69746" lon="0.66828">
        <ele>2078.8</ele>
        <time>2018-08-08T15:31:09.000Z</time>
      </trkpt>
      <trkpt lat="42.69746" lon="0.66828">
        <ele>2078.8</ele>
        <time>2018-08-08T15:31:10.000Z</time>
      </trkpt>
      <trkpt lat="42.69746" lon="0.66828">
        <ele>2078.8</ele>
        <time>2018-08-08T15:31:11.000Z</time>
      </trkpt>
      <trkpt lat="42.69746" lon="0.66828">
        <ele>2078.8</ele>
        <time>2018-08-08T15:31:12.000Z</time>
      </trkpt>
      <trkpt lat="42.69746" lon="0.66828">
        <ele>2078.8</ele>
        <time>2018-08-08T15:31:13.000Z</time>
      </trkpt>
      <trkpt lat="42.69746" lon="0.66828">
        <ele>2078.8</ele>
        <time>2018-08-08T15:31:14.000Z</time>
      </trkpt>
      <trkpt lat="42.69746" lon="0.66828">
        <ele>2078.8</ele>
        <time>2018-08-08T15:31:15.000Z</time>
      </trkpt>
      <trkpt lat="42.69746" lon="0.66828">
        <ele>2078.8</ele>
        <time>2018-08-08T15:31:16.000Z</time>
      </trkpt>
      <trkpt lat="42.69746" lon="0.66828">
        <ele>2078.8</ele>
        <time>2018-08-08T15:31:17.000Z</time>
      </trkpt>
      <trkpt lat="42.69746" lon="0.66828">
        <ele>2078.8</ele>
        <time>2018-08-08T15:31:18.000Z</time>
      </trkpt>
      <trkpt lat="42.69746" lon="0.66828">
        <ele>2078.8</ele>
        <time>2018-08-08T15:31:19.000Z</time>
      </trkpt>
      <trkpt lat="42.69746" lon="0.66828">
        <ele>2078.8</ele>
        <time>2018-08-08T15:31:20.000Z</time>
      </trkpt>
      <trkpt lat="42.69746" lon="0.66828">
        <ele>2078.8</ele>
        <time>2018-08-08T15:31:21.000Z</time>
      </trkpt>
      <trkpt lat="42.69746" lon="0.66828">
        <ele>2078.8</ele>
        <time>2018-08-08T15:31:22.000Z</time>
      </trkpt>
      <trkpt lat="42.69746" lon="0.66828">
        <ele>2078.8</ele>
        <time>2018-08-08T15:31:23.000Z</time>
      </trkpt>
      <trkpt lat="42.69746" lon="0.66828">
        <ele>2078.8</ele>
        <time>2018-08-08T15:31:24.000Z</time>
      </trkpt>
      <trkpt lat="42.69746" lon="0.66828">
        <ele>2078.8</ele>
        <time>2018-08-08T15:31:25.000Z</time>
      </trkpt>
      <trkpt lat="42.69746" lon="0.66828">
        <ele>2078.8</ele>
        <time>2018-08-08T15:31:26.000Z</time>
      </trkpt>
      <trkpt lat="42.69746" lon="0.66828">
        <ele>2078.8</ele>
        <time>2018-08-08T15:31:27.000Z</time>
      </trkpt>
      <trkpt lat="42.69746" lon="0.66828">
        <ele>2078.8</ele>
        <time>2018-08-08T15:31:28.000Z</time>
      </trkpt>
      <trkpt lat="42.69746" lon="0.66828">
        <ele>2078.8</ele>
        <time>2018-08-08T15:31:29.000Z</time>
      </trkpt>
      <trkpt lat="42.69746" lon="0.66828">
        <ele>2078.8</ele>
        <time>2018-08-08T15:31:30.000Z</time>
      </trkpt>
      <trkpt lat="42.69746" lon="0.66828">
        <ele>2078.8</ele>
        <time>2018-08-08T15:31:31.000Z</time>
      </trkpt>
      <trkpt lat="42.69746" lon="0.66828">
        <ele>2078.8</ele>
        <time>2018-08-08T15:31:32.000Z</time>
      </trkpt>
      <trkpt lat="42.69746" lon="0.66828">
        <ele>2078.8</ele>
        <time>2018-08-08T15:31:33.000Z</time>
      </trkpt>
      <trkpt lat="42.69746" lon="0.66828">
        <ele>2078.8</ele>
        <time>2018-08-08T15:31:34.000Z</time>
      </trkpt>
      <trkpt lat="42.69746" lon="0.66828">
        <ele>2078.8</ele>
        <time>2018-08-08T15:31:35.000Z</time>
      </trkpt>
      <trkpt lat="42.69746" lon="0.66828">
        <ele>2078.8</ele>
        <time>2018-08-08T15:31:36.000Z</time>
      </trkpt>
      <trkpt lat="42.69746" lon="0.66828">
        <ele>2078.8</ele>
        <time>2018-08-08T15:31:37.000Z</time>
      </trkpt>
      <trkpt lat="42.69746" lon="0.66828">
        <ele>2078.8</ele>
        <time>2018-08-08T15:31:38.000Z</time>
      </trkpt>
      <trkpt lat="42.69746" lon="0.66828">
        <ele>2078.8</ele>
        <time>2018-08-08T15:31:39.000Z</time>
      </trkpt>
      <trkpt lat="42.69746" lon="0.66828">
        <ele>2078.8</ele>
        <time>2018-08-08T15:31:40.000Z</time>
      </trkpt>
      <trkpt lat="42.69746" lon="0.66828">
        <ele>2078.8</ele>
        <time>2018-08-08T15:31:41.000Z</time>
      </trkpt>
      <trkpt lat="42.69746" lon="0.66828">
        <ele>2078.8</ele>
        <time>2018-08-08T15:31:42.000Z</time>
      </trkpt>
      <trkpt lat="42.69746" lon="0.66828">
        <ele>2078.8</ele>
        <time>2018-08-08T15:31:43.000Z</time>
      </trkpt>
      <trkpt lat="42.69746" lon="0.66828">
        <ele>2078.8</ele>
        <time>2018-08-08T15:31:44.000Z</time>
      </trkpt>
      <trkpt lat="42.69746" lon="0.66828">
        <ele>2078.8</ele>
        <time>2018-08-08T15:31:45.000Z</time>
      </trkpt>
      <trkpt lat="42.69746" lon="0.66828">
        <ele>2078.8</ele>
        <time>2018-08-08T15:31:46.000Z</time>
      </trkpt>
      <trkpt lat="42.69746" lon="0.66828">
        <ele>2078.8</ele>
        <time>2018-08-08T15:31:47.000Z</time>
      </trkpt>
      <trkpt lat="42.69746" lon="0.66828">
        <ele>2078.8</ele>
        <time>2018-08-08T15:31:48.000Z</time>
      </trkpt>
      <trkpt lat="42.69746" lon="0.66828">
        <ele>2078.8</ele>
        <time>2018-08-08T15:31:49.000Z</time>
      </trkpt>
      <trkpt lat="42.69746" lon="0.66828">
        <ele>2078.8</ele>
        <time>2018-08-08T15:31:50.000Z</time>
      </trkpt>
      <trkpt lat="42.69746" lon="0.66828">
        <ele>2078.8</ele>
        <time>2018-08-08T15:31:51.000Z</time>
      </trkpt>
      <trkpt lat="42.69746" lon="0.66828">
        <ele>2078.8</ele>
        <time>2018-08-08T15:31:52.000Z</time>
      </trkpt>
      <trkpt lat="42.69746" lon="0.66828">
        <ele>2078.8</ele>
        <time>2018-08-08T15:31:53.000Z</time>
      </trkpt>
      <trkpt lat="42.69746" lon="0.66828">
        <ele>2078.8</ele>
        <time>2018-08-08T15:31:54.000Z</time>
      </trkpt>
      <trkpt lat="42.69746" lon="0.66828">
        <ele>2078.8</ele>
        <time>2018-08-08T15:31:55.000Z</time>
      </trkpt>
      <trkpt lat="42.69746" lon="0.66828">
        <ele>2078.8</ele>
        <time>2018-08-08T15:31:56.000Z</time>
      </trkpt>
      <trkpt lat="42.69746" lon="0.66828">
        <ele>2078.8</ele>
        <time>2018-08-08T15:31:57.000Z</time>
      </trkpt>
      <trkpt lat="42.69746" lon="0.66828">
        <ele>2078.8</ele>
        <time>2018-08-08T15:31:58.000Z</time>
      </trkpt>
      <trkpt lat="42.69746" lon="0.66828">
        <ele>2078.8</ele>
        <time>2018-08-08T15:31:59.000Z</time>
      </trkpt>
      <trkpt lat="42.69746" lon="0.66828">
        <ele>2078.8</ele>
        <time>2018-08-08T15:32:00.000Z</time>
      </trkpt>
      <trkpt lat="42.69746" lon="0.66828">
        <ele>2078.8</ele>
        <time>2018-08-08T15:32:01.000Z</time>
      </trkpt>
      <trkpt lat="42.69746" lon="0.66828">
        <ele>2078.8</ele>
        <time>2018-08-08T15:32:02.000Z</time>
      </trkpt>
      <trkpt lat="42.69746" lon="0.66828">
        <ele>2078.8</ele>
        <time>2018-08-08T15:32:03.000Z</time>
      </trkpt>
      <trkpt lat="42.69746" lon="0.66828">
        <ele>2078.8</ele>
        <time>2018-08-08T15:32:04.000Z</time>
      </trkpt>
      <trkpt lat="42.69746" lon="0.66828">
        <ele>2078.8</ele>
        <time>2018-08-08T15:32:05.000Z</time>
      </trkpt>
      <trkpt lat="42.69746" lon="0.66828">
        <ele>2078.8</ele>
        <time>2018-08-08T15:32:06.000Z</time>
      </trkpt>
      <trkpt lat="42.69746" lon="0.66828">
        <ele>2078.8</ele>
        <time>2018-08-08T15:32:07.000Z</time>
      </trkpt>
      <trkpt lat="42.69746" lon="0.66828">
        <ele>2078.8</ele>
        <time>2018-08-08T15:32:08.000Z</time>
      </trkpt>
      <trkpt lat="42.69746" lon="0.66828">
        <ele>2078.8</ele>
        <time>2018-08-08T15:32:09.000Z</time>
      </trkpt>
      <trkpt lat="42.69746" lon="0.66828">
        <ele>2078.8</ele>
        <time>2018-08-08T15:32:10.000Z</time>
      </trkpt>
      <trkpt lat="42.69746" lon="0.66828">
        <ele>2078.8</ele>
        <time>2018-08-08T15:32:11.000Z</time>
      </trkpt>
      <trkpt lat="42.69746" lon="0.66828">
        <ele>2078.8</ele>
        <time>2018-08-08T15:32:12.000Z</time>
      </trkpt>
      <trkpt lat="42.69746" lon="0.66828">
        <ele>2078.8</ele>
        <time>2018-08-08T15:32:13.000Z</time>
      </trkpt>
      <trkpt lat="42.69746" lon="0.66828">
        <ele>2078.8</ele>
        <time>2018-08-08T15:32:14.000Z</time>
      </trkpt>
      <trkpt lat="42.69746" lon="0.66828">
        <ele>2078.8</ele>
        <time>2018-08-08T15:32:15.000Z</time>
      </trkpt>
      <trkpt lat="42.69746" lon="0.66828">
        <ele>2078.8</ele>
        <time>2018-08-08T15:32:16.000Z</time>
      </trkpt>
      <trkpt lat="42.69746" lon="0.66828">
        <ele>2078.8</ele>
        <time>2018-08-08T15:32:17.000Z</time>
      </trkpt>
      <trkpt lat="42.69746" lon="0.66828">
        <ele>2078.8</ele>
        <time>2018-08-08T15:32:18.000Z</time>
      </trkpt>
      <trkpt lat="42.69746" lon="0.66828">
        <ele>2078.8</ele>
        <time>2018-08-08T15:32:19.000Z</time>
      </trkpt>
      <trkpt lat="42.69746" lon="0.66828">
        <ele>2078.8</ele>
        <time>2018-08-08T15:32:20.000Z</time>
      </trkpt>
      <trkpt lat="42.69746" lon="0.66828">
        <ele>2078.8</ele>
        <time>2018-08-08T15:32:21.000Z</time>
      </trkpt>
      <trkpt lat="42.69746" lon="0.66828">
        <ele>2078.8</ele>
        <time>2018-08-08T15:32:22.000Z</time>
      </trkpt>
      <trkpt lat="42.69746" lon="0.66828">
        <ele>2078.8</ele>
        <time>2018-08-08T15:32:23.000Z</time>
      </trkpt>
      <trkpt lat="42.69746" lon="0.66828">
        <ele>2078.8</ele>
        <time>2018-08-08T15:32:24.000Z</time>
      </trkpt>
      <trkpt lat="42.69746" lon="0.66828">
        <ele>2078.8</ele>
        <time>2018-08-08T15:32:25.000Z</time>
      </trkpt>
      <trkpt lat="42.69746" lon="0.66828">
        <ele>2078.8</ele>
        <time>2018-08-08T15:32:26.000Z</time>
      </trkpt>
      <trkpt lat="42.69746" lon="0.66828">
        <ele>2078.8</ele>
        <time>2018-08-08T15:32:27.000Z</time>
      </trkpt>
      <trkpt lat="42.69746" lon="0.66828">
        <ele>2078.8</ele>
        <time>2018-08-08T15:32:28.000Z</time>
      </trkpt>
      <trkpt lat="42.69746" lon="0.66828">
        <ele>2078.8</ele>
        <time>2018-08-08T15:32:29.000Z</time>
      </trkpt>
      <trkpt lat="42.69746" lon="0.66828">
        <ele>2078.8</ele>
        <time>2018-08-08T15:32:30.000Z</time>
      </trkpt>
      <trkpt lat="42.69746" lon="0.66828">
        <ele>2078.8</ele>
        <time>2018-08-08T15:32:31.000Z</time>
      </trkpt>
      <trkpt lat="42.69746" lon="0.66828">
        <ele>2078.8</ele>
        <time>2018-08-08T15:32:32.000Z</time>
      </trkpt>
      <trkpt lat="42.69746" lon="0.66828">
        <ele>2078.8</ele>
        <time>2018-08-08T15:32:33.000Z</time>
      </trkpt>
      <trkpt lat="42.69746" lon="0.66828">
        <ele>2078.8</ele>
        <time>2018-08-08T15:32:34.000Z</time>
      </trkpt>
      <trkpt lat="42.69746" lon="0.66828">
        <ele>2078.8</ele>
        <time>2018-08-08T15:32:35.000Z</time>
      </trkpt>
      <trkpt lat="42.69746" lon="0.66828">
        <ele>2078.8</ele>
        <time>2018-08-08T15:32:36.000Z</time>
      </trkpt>
      <trkpt lat="42.69746" lon="0.66828">
        <ele>2078.8</ele>
        <time>2018-08-08T15:32:37.000Z</time>
      </trkpt>
      <trkpt lat="42.69746" lon="0.66828">
        <ele>2078.8</ele>
        <time>2018-08-08T15:32:38.000Z</time>
      </trkpt>
      <trkpt lat="42.69746" lon="0.66828">
        <ele>2078.8</ele>
        <time>2018-08-08T15:32:39.000Z</time>
      </trkpt>
      <trkpt lat="42.69746" lon="0.66828">
        <ele>2078.8</ele>
        <time>2018-08-08T15:32:40.000Z</time>
      </trkpt>
      <trkpt lat="42.69746" lon="0.66828">
        <ele>2078.8</ele>
        <time>2018-08-08T15:32:41.000Z</time>
      </trkpt>
      <trkpt lat="42.69746" lon="0.66828">
        <ele>2078.8</ele>
        <time>2018-08-08T15:32:42.000Z</time>
      </trkpt>
      <trkpt lat="42.69746" lon="0.66828">
        <ele>2078.8</ele>
        <time>2018-08-08T15:32:43.000Z</time>
      </trkpt>
      <trkpt lat="42.69746" lon="0.66828">
        <ele>2078.8</ele>
        <time>2018-08-08T15:32:44.000Z</time>
      </trkpt>
      <trkpt lat="42.69746" lon="0.66828">
        <ele>2078.8</ele>
        <time>2018-08-08T15:32:45.000Z</time>
      </trkpt>
      <trkpt lat="42.69746" lon="0.66828">
        <ele>2078.8</ele>
        <time>2018-08-08T15:32:46.000Z</time>
      </trkpt>
      <trkpt lat="42.69746" lon="0.66828">
        <ele>2078.8</ele>
        <time>2018-08-08T15:32:47.000Z</time>
      </trkpt>
      <trkpt lat="42.69746" lon="0.66828">
        <ele>2078.8</ele>
        <time>2018-08-08T15:32:48.000Z</time>
      </trkpt>
      <trkpt lat="42.69746" lon="0.66828">
        <ele>2078.8</ele>
        <time>2018-08-08T15:32:49.000Z</time>
      </trkpt>
      <trkpt lat="42.69746" lon="0.66828">
        <ele>2078.8</ele>
        <time>2018-08-08T15:32:50.000Z</time>
      </trkpt>
      <trkpt lat="42.69746" lon="0.66828">
        <ele>2078.8</ele>
        <time>2018-08-08T15:32:51.000Z</time>
      </trkpt>
      <trkpt lat="42.69746" lon="0.66828">
        <ele>2078.8</ele>
        <time>2018-08-08T15:32:52.000Z</time>
      </trkpt>
      <trkpt lat="42.69746" lon="0.66828">
        <ele>2078.8</ele>
        <time>2018-08-08T15:32:53.000Z</time>
      </trkpt>
      <trkpt lat="42.69746" lon="0.66828">
        <ele>2078.8</ele>
        <time>2018-08-08T15:32:54.000Z</time>
      </trkpt>
      <trkpt lat="42.69746" lon="0.66828">
        <ele>2078.8</ele>
        <time>2018-08-08T15:32:55.000Z</time>
      </trkpt>
      <trkpt lat="42.69746" lon="0.66828">
        <ele>2078.8</ele>
        <time>2018-08-08T15:32:56.000Z</time>
      </trkpt>
      <trkpt lat="42.69746" lon="0.66828">
        <ele>2078.8</ele>
        <time>2018-08-08T15:32:57.000Z</time>
      </trkpt>
      <trkpt lat="42.69746" lon="0.66828">
        <ele>2078.8</ele>
        <time>2018-08-08T15:32:58.000Z</time>
      </trkpt>
      <trkpt lat="42.69746" lon="0.66828">
        <ele>2078.8</ele>
        <time>2018-08-08T15:32:59.000Z</time>
      </trkpt>
      <trkpt lat="42.69746" lon="0.66828">
        <ele>2078.8</ele>
        <time>2018-08-08T15:33:00.000Z</time>
      </trkpt>
      <trkpt lat="42.69746" lon="0.66828">
        <ele>2078.8</ele>
        <time>2018-08-08T15:33:01.000Z</time>
      </trkpt>
      <trkpt lat="42.69746" lon="0.66828">
        <ele>2078.8</ele>
        <time>2018-08-08T15:33:02.000Z</time>
      </trkpt>
      <trkpt lat="42.69746" lon="0.66828">
        <ele>2078.8</ele>
        <time>2018-08-08T15:33:03.000Z</time>
      </trkpt>
      <trkpt lat="42.69746" lon="0.66828">
        <ele>2078.8</ele>
        <time>2018-08-08T15:33:04.000Z</time>
      </trkpt>
      <trkpt lat="42.69746" lon="0.66828">
        <ele>2078.8</ele>
        <time>2018-08-08T15:33:05.000Z</time>
      </trkpt>
      <trkpt lat="42.69746" lon="0.66828">
        <ele>2078.8</ele>
        <time>2018-08-08T15:33:06.000Z</time>
      </trkpt>
      <trkpt lat="42.69746" lon="0.66828">
        <ele>2078.8</ele>
        <time>2018-08-08T15:33:07.000Z</time>
      </trkpt>
      <trkpt lat="42.69746" lon="0.66828">
        <ele>2078.8</ele>
        <time>2018-08-08T15:33:08.000Z</time>
      </trkpt>
      <trkpt lat="42.69746" lon="0.66828">
        <ele>2078.8</ele>
        <time>2018-08-08T15:33:09.000Z</time>
      </trkpt>
      <trkpt lat="42.69746" lon="0.66828">
        <ele>2078.8</ele>
        <time>2018-08-08T15:33:10.000Z</time>
      </trkpt>
      <trkpt lat="42.69746" lon="0.66828">
        <ele>2078.8</ele>
        <time>2018-08-08T15:33:11.000Z</time>
      </trkpt>
      <trkpt lat="42.69746" lon="0.66828">
        <ele>2078.8</ele>
        <time>2018-08-08T15:33:12.000Z</time>
      </trkpt>
      <trkpt lat="42.69746" lon="0.66828">
        <ele>2078.8</ele>
        <time>2018-08-08T15:33:13.000Z</time>
      </trkpt>
      <trkpt lat="42.69746" lon="0.66828">
        <ele>2078.8</ele>
        <time>2018-08-08T15:33:14.000Z</time>
      </trkpt>
      <trkpt lat="42.69746" lon="0.66828">
        <ele>2078.8</ele>
        <time>2018-08-08T15:33:15.000Z</time>
      </trkpt>
      <trkpt lat="42.69746" lon="0.66828">
        <ele>2078.8</ele>
        <time>2018-08-08T15:33:16.000Z</time>
      </trkpt>
      <trkpt lat="42.69746" lon="0.66828">
        <ele>2078.8</ele>
        <time>2018-08-08T15:33:17.000Z</time>
      </trkpt>
      <trkpt lat="42.69746" lon="0.66828">
        <ele>2078.8</ele>
        <time>2018-08-08T15:33:18.000Z</time>
      </trkpt>
      <trkpt lat="42.69746" lon="0.66828">
        <ele>2078.8</ele>
        <time>2018-08-08T15:33:19.000Z</time>
      </trkpt>
      <trkpt lat="42.69746" lon="0.66828">
        <ele>2078.8</ele>
        <time>2018-08-08T15:33:20.000Z</time>
      </trkpt>
      <trkpt lat="42.69746" lon="0.66828">
        <ele>2078.8</ele>
        <time>2018-08-08T15:33:21.000Z</time>
      </trkpt>
      <trkpt lat="42.69746" lon="0.66828">
        <ele>2078.8</ele>
        <time>2018-08-08T15:33:22.000Z</time>
      </trkpt>
      <trkpt lat="42.69746" lon="0.66828">
        <ele>2078.8</ele>
        <time>2018-08-08T15:33:23.000Z</time>
      </trkpt>
      <trkpt lat="42.69746" lon="0.66828">
        <ele>2078.8</ele>
        <time>2018-08-08T15:33:24.000Z</time>
      </trkpt>
      <trkpt lat="42.69746" lon="0.66828">
        <ele>2078.8</ele>
        <time>2018-08-08T15:33:25.000Z</time>
      </trkpt>
      <trkpt lat="42.69746" lon="0.66828">
        <ele>2078.8</ele>
        <time>2018-08-08T15:33:26.000Z</time>
      </trkpt>
      <trkpt lat="42.69746" lon="0.66828">
        <ele>2078.8</ele>
        <time>2018-08-08T15:33:27.000Z</time>
      </trkpt>
      <trkpt lat="42.69746" lon="0.66828">
        <ele>2078.8</ele>
        <time>2018-08-08T15:33:28.000Z</time>
      </trkpt>
      <trkpt lat="42.69746" lon="0.66828">
        <ele>2078.8</ele>
        <time>2018-08-08T15:33:29.000Z</time>
      </trkpt>
      <trkpt lat="42.69746" lon="0.66828">
        <ele>2078.8</ele>
        <time>2018-08-08T15:33:30.000Z</time>
      </trkpt>
      <trkpt lat="42.69746" lon="0.66828">
        <ele>2078.8</ele>
        <time>2018-08-08T15:33:31.000Z</time>
      </trkpt>
      <trkpt lat="42.69746" lon="0.66828">
        <ele>2078.8</ele>
        <time>2018-08-08T15:33:32.000Z</time>
      </trkpt>
      <trkpt lat="42.69746" lon="0.66828">
        <ele>2078.8</ele>
        <time>2018-08-08T15:33:33.000Z</time>
      </trkpt>
      <trkpt lat="42.69746" lon="0.66828">
        <ele>2078.8</ele>
        <time>2018-08-08T15:33:34.000Z</time>
      </trkpt>
      <trkpt lat="42.69746" lon="0.66828">
        <ele>2078.8</ele>
        <time>2018-08-08T15:33:35.000Z</time>
      </trkpt>
      <trkpt lat="42.69746" lon="0.66828">
        <ele>2078.8</ele>
        <time>2018-08-08T15:33:36.000Z</time>
      </trkpt>
      <trkpt lat="42.69746" lon="0.66828">
        <ele>2078.8</ele>
        <time>2018-08-08T15:33:37.000Z</time>
      </trkpt>
      <trkpt lat="42.69746" lon="0.66828">
        <ele>2078.8</ele>
        <time>2018-08-08T15:33:38.000Z</time>
      </trkpt>
      <trkpt lat="42.69746" lon="0.66828">
        <ele>2078.8</ele>
        <time>2018-08-08T15:33:39.000Z</time>
      </trkpt>
      <trkpt lat="42.69746" lon="0.66828">
        <ele>2078.8</ele>
        <time>2018-08-08T15:33:40.000Z</time>
      </trkpt>
      <trkpt lat="42.69746" lon="0.66828">
        <ele>2078.8</ele>
        <time>2018-08-08T15:33:41.000Z</time>
      </trkpt>
      <trkpt lat="42.69746" lon="0.66828">
        <ele>2078.8</ele>
        <time>2018-08-08T15:33:42.000Z</time>
      </trkpt>
      <trkpt lat="42.69746" lon="0.66828">
        <ele>2078.8</ele>
        <time>2018-08-08T15:33:43.000Z</time>
      </trkpt>
      <trkpt lat="42.69746" lon="0.66828">
        <ele>2078.8</ele>
        <time>2018-08-08T15:33:44.000Z</time>
      </trkpt>
      <trkpt lat="42.69746" lon="0.66828">
        <ele>2078.8</ele>
        <time>2018-08-08T15:33:45.000Z</time>
      </trkpt>
      <trkpt lat="42.69746" lon="0.66828">
        <ele>2078.8</ele>
        <time>2018-08-08T15:33:46.000Z</time>
      </trkpt>
      <trkpt lat="42.69746" lon="0.66828">
        <ele>2078.8</ele>
        <time>2018-08-08T15:33:47.000Z</time>
      </trkpt>
      <trkpt lat="42.69746" lon="0.66828">
        <ele>2078.8</ele>
        <time>2018-08-08T15:33:48.000Z</time>
      </trkpt>
      <trkpt lat="42.69746" lon="0.66828">
        <ele>2078.8</ele>
        <time>2018-08-08T15:33:49.000Z</time>
      </trkpt>
      <trkpt lat="42.69746" lon="0.66828">
        <ele>2078.8</ele>
        <time>2018-08-08T15:33:50.000Z</time>
      </trkpt>
      <trkpt lat="42.69746" lon="0.66828">
        <ele>2078.8</ele>
        <time>2018-08-08T15:33:51.000Z</time>
      </trkpt>
      <trkpt lat="42.69746" lon="0.66828">
        <ele>2078.8</ele>
        <time>2018-08-08T15:33:52.000Z</time>
      </trkpt>
      <trkpt lat="42.69746" lon="0.66828">
        <ele>2078.8</ele>
        <time>2018-08-08T15:33:53.000Z</time>
      </trkpt>
      <trkpt lat="42.69746" lon="0.66828">
        <ele>2078.8</ele>
        <time>2018-08-08T15:33:54.000Z</time>
      </trkpt>
      <trkpt lat="42.69746" lon="0.66828">
        <ele>2078.8</ele>
        <time>2018-08-08T15:33:55.000Z</time>
      </trkpt>
      <trkpt lat="42.69746" lon="0.66828">
        <ele>2078.8</ele>
        <time>2018-08-08T15:33:56.000Z</time>
      </trkpt>
      <trkpt lat="42.69746" lon="0.66828">
        <ele>2078.8</ele>
        <time>2018-08-08T15:33:57.000Z</time>
      </trkpt>
      <trkpt lat="42.69746" lon="0.66828">
        <ele>2078.8</ele>
        <time>2018-08-08T15:33:58.000Z</time>
      </trkpt>
      <trkpt lat="42.69746" lon="0.66828">
        <ele>2078.8</ele>
        <time>2018-08-08T15:33:59.000Z</time>
      </trkpt>
      <trkpt lat="42.69746" lon="0.66828">
        <ele>2078.8</ele>
        <time>2018-08-08T15:34:00.000Z</time>
      </trkpt>
      <trkpt lat="42.69746" lon="0.66828">
        <ele>2078.8</ele>
        <time>2018-08-08T15:34:01.000Z</time>
      </trkpt>
      <trkpt lat="42.69746" lon="0.66828">
        <ele>2078.8</ele>
        <time>2018-08-08T15:34:02.000Z</time>
      </trkpt>
      <trkpt lat="42.69746" lon="0.66828">
        <ele>2078.8</ele>
        <time>2018-08-08T15:34:03.000Z</time>
      </trkpt>
      <trkpt lat="42.69746" lon="0.66828">
        <ele>2078.8</ele>
        <time>2018-08-08T15:34:04.000Z</time>
      </trkpt>
      <trkpt lat="42.69746" lon="0.66828">
        <ele>2078.8</ele>
        <time>2018-08-08T15:34:05.000Z</time>
      </trkpt>
      <trkpt lat="42.69746" lon="0.66828">
        <ele>2078.8</ele>
        <time>2018-08-08T15:34:06.000Z</time>
      </trkpt>
      <trkpt lat="42.69746" lon="0.66828">
        <ele>2078.8</ele>
        <time>2018-08-08T15:34:07.000Z</time>
      </trkpt>
      <trkpt lat="42.69746" lon="0.66828">
        <ele>2078.8</ele>
        <time>2018-08-08T15:34:08.000Z</time>
      </trkpt>
      <trkpt lat="42.69746" lon="0.66828">
        <ele>2078.8</ele>
        <time>2018-08-08T15:34:09.000Z</time>
      </trkpt>
      <trkpt lat="42.69746" lon="0.66828">
        <ele>2078.8</ele>
        <time>2018-08-08T15:34:10.000Z</time>
      </trkpt>
      <trkpt lat="42.69746" lon="0.66828">
        <ele>2078.8</ele>
        <time>2018-08-08T15:34:11.000Z</time>
      </trkpt>
      <trkpt lat="42.69746" lon="0.66828">
        <ele>2078.8</ele>
        <time>2018-08-08T15:34:12.000Z</time>
      </trkpt>
      <trkpt lat="42.69746" lon="0.66828">
        <ele>2078.8</ele>
        <time>2018-08-08T15:34:13.000Z</time>
      </trkpt>
      <trkpt lat="42.69746" lon="0.66828">
        <ele>2078.8</ele>
        <time>2018-08-08T15:34:14.000Z</time>
      </trkpt>
      <trkpt lat="42.69746" lon="0.66828">
        <ele>2078.8</ele>
        <time>2018-08-08T15:34:15.000Z</time>
      </trkpt>
      <trkpt lat="42.69746" lon="0.66828">
        <ele>2078.8</ele>
        <time>2018-08-08T15:34:16.000Z</time>
      </trkpt>
      <trkpt lat="42.69746" lon="0.66828">
        <ele>2078.8</ele>
        <time>2018-08-08T15:34:17.000Z</time>
      </trkpt>
      <trkpt lat="42.69746" lon="0.66828">
        <ele>2078.8</ele>
        <time>2018-08-08T15:34:18.000Z</time>
      </trkpt>
      <trkpt lat="42.69746" lon="0.66828">
        <ele>2078.8</ele>
        <time>2018-08-08T15:34:19.000Z</time>
      </trkpt>
      <trkpt lat="42.69746" lon="0.66828">
        <ele>2078.8</ele>
        <time>2018-08-08T15:34:20.000Z</time>
      </trkpt>
      <trkpt lat="42.69746" lon="0.66828">
        <ele>2078.8</ele>
        <time>2018-08-08T15:34:21.000Z</time>
      </trkpt>
      <trkpt lat="42.69746" lon="0.66828">
        <ele>2078.8</ele>
        <time>2018-08-08T15:34:22.000Z</time>
      </trkpt>
      <trkpt lat="42.69746" lon="0.66828">
        <ele>2078.8</ele>
        <time>2018-08-08T15:34:23.000Z</time>
      </trkpt>
      <trkpt lat="42.69746" lon="0.66828">
        <ele>2078.8</ele>
        <time>2018-08-08T15:34:24.000Z</time>
      </trkpt>
      <trkpt lat="42.69746" lon="0.66828">
        <ele>2078.8</ele>
        <time>2018-08-08T15:34:25.000Z</time>
      </trkpt>
      <trkpt lat="42.69746" lon="0.66828">
        <ele>2078.8</ele>
        <time>2018-08-08T15:34:26.000Z</time>
      </trkpt>
      <trkpt lat="42.69746" lon="0.66828">
        <ele>2078.8</ele>
        <time>2018-08-08T15:34:27.000Z</time>
      </trkpt>
      <trkpt lat="42.69746" lon="0.66828">
        <ele>2078.8</ele>
        <time>2018-08-08T15:34:28.000Z</time>
      </trkpt>
      <trkpt lat="42.69746" lon="0.66828">
        <ele>2078.8</ele>
        <time>2018-08-08T15:34:29.000Z</time>
      </trkpt>
      <trkpt lat="42.69746" lon="0.66828">
        <ele>2078.8</ele>
        <time>2018-08-08T15:34:30.000Z</time>
      </trkpt>
      <trkpt lat="42.69746" lon="0.66828">
        <ele>2078.8</ele>
        <time>2018-08-08T15:34:31.000Z</time>
      </trkpt>
      <trkpt lat="42.69746" lon="0.66828">
        <ele>2078.8</ele>
        <time>2018-08-08T15:34:32.000Z</time>
      </trkpt>
      <trkpt lat="42.69746" lon="0.66828">
        <ele>2078.8</ele>
        <time>2018-08-08T15:34:33.000Z</time>
      </trkpt>
      <trkpt lat="42.69746" lon="0.66828">
        <ele>2078.8</ele>
        <time>2018-08-08T15:34:34.000Z</time>
      </trkpt>
      <trkpt lat="42.69746" lon="0.66828">
        <ele>2078.8</ele>
        <time>2018-08-08T15:34:35.000Z</time>
      </trkpt>
      <trkpt lat="42.69746" lon="0.66828">
        <ele>2078.8</ele>
        <time>2018-08-08T15:34:36.000Z</time>
      </trkpt>
      <trkpt lat="42.69746" lon="0.66828">
        <ele>2078.8</ele>
        <time>2018-08-08T15:34:37.000Z</time>
      </trkpt>
      <trkpt lat="42.69746" lon="0.66828">
        <ele>2078.8</ele>
        <time>2018-08-08T15:34:38.000Z</time>
      </trkpt>
      <trkpt lat="42.69746" lon="0.66828">
        <ele>2078.8</ele>
        <time>2018-08-08T15:34:39.000Z</time>
      </trkpt>
      <trkpt lat="42.69746" lon="0.66828">
        <ele>2078.8</ele>
        <time>2018-08-08T15:34:40.000Z</time>
      </trkpt>
      <trkpt lat="42.69746" lon="0.66828">
        <ele>2078.8</ele>
        <time>2018-08-08T15:34:41.000Z</time>
      </trkpt>
      <trkpt lat="42.69746" lon="0.66828">
        <ele>2078.8</ele>
        <time>2018-08-08T15:34:42.000Z</time>
      </trkpt>
      <trkpt lat="42.69746" lon="0.66828">
        <ele>2078.8</ele>
        <time>2018-08-08T15:34:43.000Z</time>
      </trkpt>
      <trkpt lat="42.69746" lon="0.66828">
        <ele>2078.8</ele>
        <time>2018-08-08T15:34:44.000Z</time>
      </trkpt>
      <trkpt lat="42.69746" lon="0.66828">
        <ele>2078.8</ele>
        <time>2018-08-08T15:34:45.000Z</time>
      </trkpt>
      <trkpt lat="42.69746" lon="0.66828">
        <ele>2078.8</ele>
        <time>2018-08-08T15:34:46.000Z</time>
      </trkpt>
      <trkpt lat="42.69746" lon="0.66828">
        <ele>2078.8</ele>
        <time>2018-08-08T15:34:47.000Z</time>
      </trkpt>
      <trkpt lat="42.69746" lon="0.66828">
        <ele>2078.8</ele>
        <time>2018-08-08T15:34:48.000Z</time>
      </trkpt>
      <trkpt lat="42.69746" lon="0.66828">
        <ele>2078.8</ele>
        <time>2018-08-08T15:34:49.000Z</time>
      </trkpt>
      <trkpt lat="42.69746" lon="0.66828">
        <ele>2078.8</ele>
        <time>2018-08-08T15:34:50.000Z</time>
      </trkpt>
      <trkpt lat="42.69746" lon="0.66828">
        <ele>2078.8</ele>
        <time>2018-08-08T15:34:51.000Z</time>
      </trkpt>
      <trkpt lat="42.69746" lon="0.66828">
        <ele>2078.8</ele>
        <time>2018-08-08T15:34:52.000Z</time>
      </trkpt>
      <trkpt lat="42.69746" lon="0.66828">
        <ele>2078.8</ele>
        <time>2018-08-08T15:34:53.000Z</time>
      </trkpt>
      <trkpt lat="42.69746" lon="0.66828">
        <ele>2078.8</ele>
        <time>2018-08-08T15:34:54.000Z</time>
      </trkpt>
      <trkpt lat="42.69746" lon="0.66828">
        <ele>2078.8</ele>
        <time>2018-08-08T15:34:55.000Z</time>
      </trkpt>
      <trkpt lat="42.69746" lon="0.66828">
        <ele>2078.8</ele>
        <time>2018-08-08T15:34:56.000Z</time>
      </trkpt>
      <trkpt lat="42.69746" lon="0.66828">
        <ele>2078.8</ele>
        <time>2018-08-08T15:34:57.000Z</time>
      </trkpt>
      <trkpt lat="42.69746" lon="0.66828">
        <ele>2078.8</ele>
        <time>2018-08-08T15:34:58.000Z</time>
      </trkpt>
      <trkpt lat="42.69746" lon="0.66828">
        <ele>2078.8</ele>
        <time>2018-08-08T15:34:59.000Z</time>
      </trkpt>
      <trkpt lat="42.69746" lon="0.66828">
        <ele>2078.8</ele>
        <time>2018-08-08T15:35:00.000Z</time>
      </trkpt>
      <trkpt lat="42.69746" lon="0.66828">
        <ele>2078.8</ele>
        <time>2018-08-08T15:35:01.000Z</time>
      </trkpt>
      <trkpt lat="42.69746" lon="0.66828">
        <ele>2078.8</ele>
        <time>2018-08-08T15:35:02.000Z</time>
      </trkpt>
      <trkpt lat="42.69746" lon="0.66828">
        <ele>2078.8</ele>
        <time>2018-08-08T15:35:03.000Z</time>
      </trkpt>
      <trkpt lat="42.69746" lon="0.66828">
        <ele>2078.8</ele>
        <time>2018-08-08T15:35:04.000Z</time>
      </trkpt>
      <trkpt lat="42.69746" lon="0.66828">
        <ele>2078.8</ele>
        <time>2018-08-08T15:35:05.000Z</time>
      </trkpt>
      <trkpt lat="42.69746" lon="0.66828">
        <ele>2078.8</ele>
        <time>2018-08-08T15:35:06.000Z</time>
      </trkpt>
      <trkpt lat="42.69746" lon="0.66828">
        <ele>2078.8</ele>
        <time>2018-08-08T15:35:07.000Z</time>
      </trkpt>
      <trkpt lat="42.69746" lon="0.66828">
        <ele>2078.8</ele>
        <time>2018-08-08T15:35:08.000Z</time>
      </trkpt>
      <trkpt lat="42.69746" lon="0.66828">
        <ele>2078.8</ele>
        <time>2018-08-08T15:35:09.000Z</time>
      </trkpt>
      <trkpt lat="42.69746" lon="0.66828">
        <ele>2078.8</ele>
        <time>2018-08-08T15:35:10.000Z</time>
      </trkpt>
      <trkpt lat="42.69746" lon="0.66828">
        <ele>2078.8</ele>
        <time>2018-08-08T15:35:11.000Z</time>
      </trkpt>
      <trkpt lat="42.69746" lon="0.66828">
        <ele>2078.8</ele>
        <time>2018-08-08T15:35:12.000Z</time>
      </trkpt>
      <trkpt lat="42.69746" lon="0.66828">
        <ele>2078.8</ele>
        <time>2018-08-08T15:35:13.000Z</time>
      </trkpt>
      <trkpt lat="42.69746" lon="0.66828">
        <ele>2078.8</ele>
        <time>2018-08-08T15:35:14.000Z</time>
      </trkpt>
      <trkpt lat="42.69746" lon="0.66828">
        <ele>2078.8</ele>
        <time>2018-08-08T15:35:15.000Z</time>
      </trkpt>
      <trkpt lat="42.69746" lon="0.66828">
        <ele>2078.8</ele>
        <time>2018-08-08T15:35:16.000Z</time>
      </trkpt>
      <trkpt lat="42.69746" lon="0.66828">
        <ele>2078.8</ele>
        <time>2018-08-08T15:35:17.000Z</time>
      </trkpt>
      <trkpt lat="42.69746" lon="0.66828">
        <ele>2078.8</ele>
        <time>2018-08-08T15:35:18.000Z</time>
      </trkpt>
      <trkpt lat="42.69746" lon="0.66828">
        <ele>2078.8</ele>
        <time>2018-08-08T15:35:19.000Z</time>
      </trkpt>
      <trkpt lat="42.69746" lon="0.66828">
        <ele>2078.8</ele>
        <time>2018-08-08T15:35:20.000Z</time>
      </trkpt>
      <trkpt lat="42.69746" lon="0.66828">
        <ele>2078.8</ele>
        <time>2018-08-08T15:35:21.000Z</time>
      </trkpt>
      <trkpt lat="42.69746" lon="0.66828">
        <ele>2078.8</ele>
        <time>2018-08-08T15:35:22.000Z</time>
      </trkpt>
      <trkpt lat="42.69746" lon="0.66828">
        <ele>2078.8</ele>
        <time>2018-08-08T15:35:23.000Z</time>
      </trkpt>
      <trkpt lat="42.69746" lon="0.66828">
        <ele>2078.8</ele>
        <time>2018-08-08T15:35:24.000Z</time>
      </trkpt>
      <trkpt lat="42.69746" lon="0.66828">
        <ele>2078.8</ele>
        <time>2018-08-08T15:35:25.000Z</time>
      </trkpt>
      <trkpt lat="42.69746" lon="0.66828">
        <ele>2078.8</ele>
        <time>2018-08-08T15:35:26.000Z</time>
      </trkpt>
      <trkpt lat="42.69746" lon="0.66828">
        <ele>2078.8</ele>
        <time>2018-08-08T15:35:27.000Z</time>
      </trkpt>
      <trkpt lat="42.69746" lon="0.66828">
        <ele>2078.8</ele>
        <time>2018-08-08T15:35:28.000Z</time>
      </trkpt>
      <trkpt lat="42.69746" lon="0.66828">
        <ele>2078.8</ele>
        <time>2018-08-08T15:35:29.000Z</time>
      </trkpt>
      <trkpt lat="42.69746" lon="0.66828">
        <ele>2078.8</ele>
        <time>2018-08-08T15:35:30.000Z</time>
      </trkpt>
      <trkpt lat="42.69746" lon="0.66828">
        <ele>2078.8</ele>
        <time>2018-08-08T15:35:31.000Z</time>
      </trkpt>
      <trkpt lat="42.69746" lon="0.66828">
        <ele>2078.8</ele>
        <time>2018-08-08T15:35:32.000Z</time>
      </trkpt>
      <trkpt lat="42.69745" lon="0.66827">
        <ele>2079</ele>
        <time>2018-08-08T15:35:33.000Z</time>
      </trkpt>
      <trkpt lat="42.69745" lon="0.66826">
        <ele>2079.1</ele>
        <time>2018-08-08T15:35:34.000Z</time>
      </trkpt>
      <trkpt lat="42.69743" lon="0.66825">
        <ele>2079.4</ele>
        <time>2018-08-08T15:35:35.000Z</time>
      </trkpt>
      <trkpt lat="42.69743" lon="0.66825">
        <ele>2079.4</ele>
        <time>2018-08-08T15:35:36.000Z</time>
      </trkpt>
      <trkpt lat="42.69743" lon="0.66825">
        <ele>2079.5</ele>
        <time>2018-08-08T15:35:37.000Z</time>
      </trkpt>
      <trkpt lat="42.69743" lon="0.66825">
        <ele>2079.5</ele>
        <time>2018-08-08T15:35:38.000Z</time>
      </trkpt>
      <trkpt lat="42.69743" lon="0.66825">
        <ele>2079.5</ele>
        <time>2018-08-08T15:35:39.000Z</time>
      </trkpt>
      <trkpt lat="42.69743" lon="0.66825">
        <ele>2079.5</ele>
        <time>2018-08-08T15:35:40.000Z</time>
      </trkpt>
      <trkpt lat="42.69743" lon="0.66825">
        <ele>2079.5</ele>
        <time>2018-08-08T15:35:41.000Z</time>
      </trkpt>
      <trkpt lat="42.69743" lon="0.66825">
        <ele>2079.5</ele>
        <time>2018-08-08T15:35:42.000Z</time>
      </trkpt>
      <trkpt lat="42.69743" lon="0.66825">
        <ele>2079.5</ele>
        <time>2018-08-08T15:35:43.000Z</time>
      </trkpt>
      <trkpt lat="42.69743" lon="0.66825">
        <ele>2079.5</ele>
        <time>2018-08-08T15:35:44.000Z</time>
      </trkpt>
      <trkpt lat="42.69743" lon="0.66825">
        <ele>2079.5</ele>
        <time>2018-08-08T15:35:45.000Z</time>
      </trkpt>
      <trkpt lat="42.69743" lon="0.66825">
        <ele>2079.5</ele>
        <time>2018-08-08T15:35:46.000Z</time>
      </trkpt>
      <trkpt lat="42.69743" lon="0.66825">
        <ele>2079.5</ele>
        <time>2018-08-08T15:35:47.000Z</time>
      </trkpt>
      <trkpt lat="42.69743" lon="0.66825">
        <ele>2079.5</ele>
        <time>2018-08-08T15:35:48.000Z</time>
      </trkpt>
      <trkpt lat="42.69743" lon="0.66825">
        <ele>2079.5</ele>
        <time>2018-08-08T15:35:49.000Z</time>
      </trkpt>
      <trkpt lat="42.69743" lon="0.66825">
        <ele>2079.5</ele>
        <time>2018-08-08T15:35:50.000Z</time>
      </trkpt>
      <trkpt lat="42.69743" lon="0.66825">
        <ele>2079.5</ele>
        <time>2018-08-08T15:35:51.000Z</time>
      </trkpt>
      <trkpt lat="42.69743" lon="0.66825">
        <ele>2079.5</ele>
        <time>2018-08-08T15:35:52.000Z</time>
      </trkpt>
      <trkpt lat="42.69743" lon="0.66825">
        <ele>2079.5</ele>
        <time>2018-08-08T15:35:53.000Z</time>
      </trkpt>
      <trkpt lat="42.69743" lon="0.66825">
        <ele>2079.5</ele>
        <time>2018-08-08T15:35:54.000Z</time>
      </trkpt>
      <trkpt lat="42.69743" lon="0.66825">
        <ele>2079.5</ele>
        <time>2018-08-08T15:35:55.000Z</time>
      </trkpt>
      <trkpt lat="42.69743" lon="0.66825">
        <ele>2079.5</ele>
        <time>2018-08-08T15:35:56.000Z</time>
      </trkpt>
      <trkpt lat="42.69743" lon="0.66825">
        <ele>2079.5</ele>
        <time>2018-08-08T15:35:57.000Z</time>
      </trkpt>
      <trkpt lat="42.69743" lon="0.66825">
        <ele>2079.5</ele>
        <time>2018-08-08T15:35:58.000Z</time>
      </trkpt>
      <trkpt lat="42.69743" lon="0.66825">
        <ele>2079.5</ele>
        <time>2018-08-08T15:35:59.000Z</time>
      </trkpt>
      <trkpt lat="42.69743" lon="0.66825">
        <ele>2079.5</ele>
        <time>2018-08-08T15:36:00.000Z</time>
      </trkpt>
      <trkpt lat="42.69743" lon="0.66825">
        <ele>2079.5</ele>
        <time>2018-08-08T15:36:01.000Z</time>
      </trkpt>
      <trkpt lat="42.69743" lon="0.66825">
        <ele>2079.5</ele>
        <time>2018-08-08T15:36:02.000Z</time>
      </trkpt>
      <trkpt lat="42.69743" lon="0.66825">
        <ele>2079.5</ele>
        <time>2018-08-08T15:36:03.000Z</time>
      </trkpt>
      <trkpt lat="42.69743" lon="0.66825">
        <ele>2079.5</ele>
        <time>2018-08-08T15:36:04.000Z</time>
      </trkpt>
      <trkpt lat="42.69743" lon="0.66825">
        <ele>2079.5</ele>
        <time>2018-08-08T15:36:05.000Z</time>
      </trkpt>
      <trkpt lat="42.69743" lon="0.66825">
        <ele>2079.5</ele>
        <time>2018-08-08T15:36:06.000Z</time>
      </trkpt>
      <trkpt lat="42.69743" lon="0.66825">
        <ele>2079.5</ele>
        <time>2018-08-08T15:36:07.000Z</time>
      </trkpt>
      <trkpt lat="42.69743" lon="0.66825">
        <ele>2079.5</ele>
        <time>2018-08-08T15:36:08.000Z</time>
      </trkpt>
      <trkpt lat="42.69743" lon="0.66825">
        <ele>2079.5</ele>
        <time>2018-08-08T15:36:09.000Z</time>
      </trkpt>
      <trkpt lat="42.69743" lon="0.66825">
        <ele>2079.5</ele>
        <time>2018-08-08T15:36:10.000Z</time>
      </trkpt>
      <trkpt lat="42.69743" lon="0.66825">
        <ele>2079.5</ele>
        <time>2018-08-08T15:36:11.000Z</time>
      </trkpt>
      <trkpt lat="42.69743" lon="0.66825">
        <ele>2079.5</ele>
        <time>2018-08-08T15:36:12.000Z</time>
      </trkpt>
      <trkpt lat="42.69743" lon="0.66825">
        <ele>2079.5</ele>
        <time>2018-08-08T15:36:13.000Z</time>
      </trkpt>
      <trkpt lat="42.69743" lon="0.66825">
        <ele>2079.5</ele>
        <time>2018-08-08T15:36:14.000Z</time>
      </trkpt>
      <trkpt lat="42.69743" lon="0.66825">
        <ele>2079.5</ele>
        <time>2018-08-08T15:36:15.000Z</time>
      </trkpt>
      <trkpt lat="42.69743" lon="0.66825">
        <ele>2079.5</ele>
        <time>2018-08-08T15:36:16.000Z</time>
      </trkpt>
      <trkpt lat="42.69743" lon="0.66825">
        <ele>2079.5</ele>
        <time>2018-08-08T15:36:17.000Z</time>
      </trkpt>
      <trkpt lat="42.69743" lon="0.66825">
        <ele>2079.5</ele>
        <time>2018-08-08T15:36:18.000Z</time>
      </trkpt>
      <trkpt lat="42.69743" lon="0.66825">
        <ele>2079.5</ele>
        <time>2018-08-08T15:36:19.000Z</time>
      </trkpt>
      <trkpt lat="42.69743" lon="0.66825">
        <ele>2079.5</ele>
        <time>2018-08-08T15:36:20.000Z</time>
      </trkpt>
      <trkpt lat="42.69743" lon="0.66825">
        <ele>2079.5</ele>
        <time>2018-08-08T15:36:21.000Z</time>
      </trkpt>
      <trkpt lat="42.69743" lon="0.66825">
        <ele>2079.5</ele>
        <time>2018-08-08T15:36:22.000Z</time>
      </trkpt>
      <trkpt lat="42.69743" lon="0.66825">
        <ele>2079.5</ele>
        <time>2018-08-08T15:36:23.000Z</time>
      </trkpt>
      <trkpt lat="42.69743" lon="0.66825">
        <ele>2079.5</ele>
        <time>2018-08-08T15:36:24.000Z</time>
      </trkpt>
      <trkpt lat="42.69743" lon="0.66825">
        <ele>2079.5</ele>
        <time>2018-08-08T15:36:25.000Z</time>
      </trkpt>
      <trkpt lat="42.69743" lon="0.66825">
        <ele>2079.5</ele>
        <time>2018-08-08T15:36:26.000Z</time>
      </trkpt>
      <trkpt lat="42.69743" lon="0.66825">
        <ele>2079.5</ele>
        <time>2018-08-08T15:36:27.000Z</time>
      </trkpt>
      <trkpt lat="42.69743" lon="0.66825">
        <ele>2079.5</ele>
        <time>2018-08-08T15:36:28.000Z</time>
      </trkpt>
      <trkpt lat="42.69743" lon="0.66825">
        <ele>2079.5</ele>
        <time>2018-08-08T15:36:29.000Z</time>
      </trkpt>
      <trkpt lat="42.69743" lon="0.66825">
        <ele>2079.5</ele>
        <time>2018-08-08T15:36:30.000Z</time>
      </trkpt>
      <trkpt lat="42.69743" lon="0.66825">
        <ele>2079.5</ele>
        <time>2018-08-08T15:36:31.000Z</time>
      </trkpt>
      <trkpt lat="42.69743" lon="0.66825">
        <ele>2079.5</ele>
        <time>2018-08-08T15:36:32.000Z</time>
      </trkpt>
      <trkpt lat="42.69743" lon="0.66825">
        <ele>2079.5</ele>
        <time>2018-08-08T15:36:33.000Z</time>
      </trkpt>
      <trkpt lat="42.69743" lon="0.66825">
        <ele>2079.5</ele>
        <time>2018-08-08T15:36:34.000Z</time>
      </trkpt>
      <trkpt lat="42.69743" lon="0.66825">
        <ele>2079.5</ele>
        <time>2018-08-08T15:36:35.000Z</time>
      </trkpt>
      <trkpt lat="42.69743" lon="0.66825">
        <ele>2079.5</ele>
        <time>2018-08-08T15:36:36.000Z</time>
      </trkpt>
      <trkpt lat="42.69743" lon="0.66825">
        <ele>2079.5</ele>
        <time>2018-08-08T15:36:37.000Z</time>
      </trkpt>
      <trkpt lat="42.69743" lon="0.66825">
        <ele>2079.5</ele>
        <time>2018-08-08T15:36:38.000Z</time>
      </trkpt>
      <trkpt lat="42.69743" lon="0.66825">
        <ele>2079.5</ele>
        <time>2018-08-08T15:36:39.000Z</time>
      </trkpt>
      <trkpt lat="42.69743" lon="0.66825">
        <ele>2079.5</ele>
        <time>2018-08-08T15:36:40.000Z</time>
      </trkpt>
      <trkpt lat="42.69743" lon="0.66825">
        <ele>2079.5</ele>
        <time>2018-08-08T15:36:41.000Z</time>
      </trkpt>
      <trkpt lat="42.69743" lon="0.66825">
        <ele>2079.5</ele>
        <time>2018-08-08T15:36:42.000Z</time>
      </trkpt>
      <trkpt lat="42.69743" lon="0.66825">
        <ele>2079.5</ele>
        <time>2018-08-08T15:36:43.000Z</time>
      </trkpt>
      <trkpt lat="42.69743" lon="0.66825">
        <ele>2079.5</ele>
        <time>2018-08-08T15:36:44.000Z</time>
      </trkpt>
      <trkpt lat="42.69743" lon="0.66825">
        <ele>2079.5</ele>
        <time>2018-08-08T15:36:45.000Z</time>
      </trkpt>
      <trkpt lat="42.69743" lon="0.66825">
        <ele>2079.5</ele>
        <time>2018-08-08T15:36:46.000Z</time>
      </trkpt>
      <trkpt lat="42.69743" lon="0.66825">
        <ele>2079.5</ele>
        <time>2018-08-08T15:36:47.000Z</time>
      </trkpt>
      <trkpt lat="42.69743" lon="0.66825">
        <ele>2079.5</ele>
        <time>2018-08-08T15:36:48.000Z</time>
      </trkpt>
      <trkpt lat="42.69743" lon="0.66825">
        <ele>2079.5</ele>
        <time>2018-08-08T15:36:49.000Z</time>
      </trkpt>
      <trkpt lat="42.69743" lon="0.66825">
        <ele>2079.5</ele>
        <time>2018-08-08T15:36:50.000Z</time>
      </trkpt>
      <trkpt lat="42.69743" lon="0.66825">
        <ele>2079.5</ele>
        <time>2018-08-08T15:36:51.000Z</time>
      </trkpt>
      <trkpt lat="42.69743" lon="0.66825">
        <ele>2079.5</ele>
        <time>2018-08-08T15:36:52.000Z</time>
      </trkpt>
      <trkpt lat="42.69743" lon="0.66825">
        <ele>2079.5</ele>
        <time>2018-08-08T15:36:53.000Z</time>
      </trkpt>
      <trkpt lat="42.69743" lon="0.66825">
        <ele>2079.5</ele>
        <time>2018-08-08T15:36:54.000Z</time>
      </trkpt>
      <trkpt lat="42.69743" lon="0.66825">
        <ele>2079.5</ele>
        <time>2018-08-08T15:36:55.000Z</time>
      </trkpt>
      <trkpt lat="42.69743" lon="0.66825">
        <ele>2079.5</ele>
        <time>2018-08-08T15:36:56.000Z</time>
      </trkpt>
      <trkpt lat="42.69743" lon="0.66825">
        <ele>2079.5</ele>
        <time>2018-08-08T15:36:57.000Z</time>
      </trkpt>
      <trkpt lat="42.69743" lon="0.66825">
        <ele>2079.5</ele>
        <time>2018-08-08T15:36:58.000Z</time>
      </trkpt>
      <trkpt lat="42.69743" lon="0.66825">
        <ele>2079.5</ele>
        <time>2018-08-08T15:36:59.000Z</time>
      </trkpt>
      <trkpt lat="42.69743" lon="0.66825">
        <ele>2079.5</ele>
        <time>2018-08-08T15:37:00.000Z</time>
      </trkpt>
      <trkpt lat="42.69743" lon="0.66825">
        <ele>2079.5</ele>
        <time>2018-08-08T15:37:01.000Z</time>
      </trkpt>
      <trkpt lat="42.69743" lon="0.66825">
        <ele>2079.5</ele>
        <time>2018-08-08T15:37:02.000Z</time>
      </trkpt>
      <trkpt lat="42.69743" lon="0.66825">
        <ele>2079.5</ele>
        <time>2018-08-08T15:37:03.000Z</time>
      </trkpt>
      <trkpt lat="42.69743" lon="0.66825">
        <ele>2079.5</ele>
        <time>2018-08-08T15:37:04.000Z</time>
      </trkpt>
      <trkpt lat="42.69743" lon="0.66825">
        <ele>2079.5</ele>
        <time>2018-08-08T15:37:05.000Z</time>
      </trkpt>
      <trkpt lat="42.69743" lon="0.66825">
        <ele>2079.5</ele>
        <time>2018-08-08T15:37:06.000Z</time>
      </trkpt>
      <trkpt lat="42.69743" lon="0.66825">
        <ele>2079.5</ele>
        <time>2018-08-08T15:37:07.000Z</time>
      </trkpt>
      <trkpt lat="42.69743" lon="0.66825">
        <ele>2079.5</ele>
        <time>2018-08-08T15:37:08.000Z</time>
      </trkpt>
      <trkpt lat="42.69743" lon="0.66825">
        <ele>2079.5</ele>
        <time>2018-08-08T15:37:09.000Z</time>
      </trkpt>
      <trkpt lat="42.69743" lon="0.66825">
        <ele>2079.5</ele>
        <time>2018-08-08T15:37:10.000Z</time>
      </trkpt>
      <trkpt lat="42.69743" lon="0.66825">
        <ele>2079.5</ele>
        <time>2018-08-08T15:37:11.000Z</time>
      </trkpt>
      <trkpt lat="42.69743" lon="0.66825">
        <ele>2079.5</ele>
        <time>2018-08-08T15:37:12.000Z</time>
      </trkpt>
      <trkpt lat="42.69743" lon="0.66825">
        <ele>2079.5</ele>
        <time>2018-08-08T15:37:13.000Z</time>
      </trkpt>
      <trkpt lat="42.69743" lon="0.66825">
        <ele>2079.5</ele>
        <time>2018-08-08T15:37:14.000Z</time>
      </trkpt>
      <trkpt lat="42.69743" lon="0.66825">
        <ele>2079.5</ele>
        <time>2018-08-08T15:37:15.000Z</time>
      </trkpt>
      <trkpt lat="42.69743" lon="0.66825">
        <ele>2079.5</ele>
        <time>2018-08-08T15:37:16.000Z</time>
      </trkpt>
      <trkpt lat="42.69743" lon="0.66825">
        <ele>2079.5</ele>
        <time>2018-08-08T15:37:17.000Z</time>
      </trkpt>
      <trkpt lat="42.69743" lon="0.66825">
        <ele>2079.5</ele>
        <time>2018-08-08T15:37:18.000Z</time>
      </trkpt>
      <trkpt lat="42.69743" lon="0.66825">
        <ele>2079.5</ele>
        <time>2018-08-08T15:37:19.000Z</time>
      </trkpt>
      <trkpt lat="42.69743" lon="0.66825">
        <ele>2079.5</ele>
        <time>2018-08-08T15:37:20.000Z</time>
      </trkpt>
      <trkpt lat="42.69743" lon="0.66825">
        <ele>2079.5</ele>
        <time>2018-08-08T15:37:21.000Z</time>
      </trkpt>
      <trkpt lat="42.69743" lon="0.66825">
        <ele>2079.5</ele>
        <time>2018-08-08T15:37:22.000Z</time>
      </trkpt>
      <trkpt lat="42.69743" lon="0.66825">
        <ele>2079.5</ele>
        <time>2018-08-08T15:37:23.000Z</time>
      </trkpt>
      <trkpt lat="42.69743" lon="0.66825">
        <ele>2079.5</ele>
        <time>2018-08-08T15:37:24.000Z</time>
      </trkpt>
      <trkpt lat="42.69743" lon="0.66825">
        <ele>2079.5</ele>
        <time>2018-08-08T15:37:25.000Z</time>
      </trkpt>
      <trkpt lat="42.69743" lon="0.66825">
        <ele>2079.5</ele>
        <time>2018-08-08T15:37:26.000Z</time>
      </trkpt>
      <trkpt lat="42.69743" lon="0.66825">
        <ele>2079.5</ele>
        <time>2018-08-08T15:37:27.000Z</time>
      </trkpt>
      <trkpt lat="42.69743" lon="0.66825">
        <ele>2079.5</ele>
        <time>2018-08-08T15:37:28.000Z</time>
      </trkpt>
      <trkpt lat="42.69743" lon="0.66825">
        <ele>2079.5</ele>
        <time>2018-08-08T15:37:29.000Z</time>
      </trkpt>
      <trkpt lat="42.69743" lon="0.66825">
        <ele>2079.5</ele>
        <time>2018-08-08T15:37:30.000Z</time>
      </trkpt>
      <trkpt lat="42.69743" lon="0.66825">
        <ele>2079.5</ele>
        <time>2018-08-08T15:37:31.000Z</time>
      </trkpt>
      <trkpt lat="42.69743" lon="0.66825">
        <ele>2079.5</ele>
        <time>2018-08-08T15:37:32.000Z</time>
      </trkpt>
      <trkpt lat="42.69743" lon="0.66825">
        <ele>2079.5</ele>
        <time>2018-08-08T15:37:33.000Z</time>
      </trkpt>
      <trkpt lat="42.69743" lon="0.66825">
        <ele>2079.5</ele>
        <time>2018-08-08T15:37:34.000Z</time>
      </trkpt>
      <trkpt lat="42.69743" lon="0.66825">
        <ele>2079.5</ele>
        <time>2018-08-08T15:37:35.000Z</time>
      </trkpt>
      <trkpt lat="42.69743" lon="0.66825">
        <ele>2079.5</ele>
        <time>2018-08-08T15:37:36.000Z</time>
      </trkpt>
      <trkpt lat="42.69743" lon="0.66825">
        <ele>2079.5</ele>
        <time>2018-08-08T15:37:37.000Z</time>
      </trkpt>
      <trkpt lat="42.69743" lon="0.66825">
        <ele>2079.5</ele>
        <time>2018-08-08T15:37:38.000Z</time>
      </trkpt>
      <trkpt lat="42.69743" lon="0.66825">
        <ele>2079.5</ele>
        <time>2018-08-08T15:37:39.000Z</time>
      </trkpt>
      <trkpt lat="42.69743" lon="0.66825">
        <ele>2079.5</ele>
        <time>2018-08-08T15:37:40.000Z</time>
      </trkpt>
      <trkpt lat="42.69743" lon="0.66825">
        <ele>2079.5</ele>
        <time>2018-08-08T15:37:41.000Z</time>
      </trkpt>
      <trkpt lat="42.69743" lon="0.66825">
        <ele>2079.5</ele>
        <time>2018-08-08T15:37:42.000Z</time>
      </trkpt>
      <trkpt lat="42.69743" lon="0.66825">
        <ele>2079.5</ele>
        <time>2018-08-08T15:37:43.000Z</time>
      </trkpt>
      <trkpt lat="42.69743" lon="0.66825">
        <ele>2079.5</ele>
        <time>2018-08-08T15:37:44.000Z</time>
      </trkpt>
      <trkpt lat="42.69743" lon="0.66825">
        <ele>2079.5</ele>
        <time>2018-08-08T15:37:45.000Z</time>
      </trkpt>
      <trkpt lat="42.69743" lon="0.66825">
        <ele>2079.5</ele>
        <time>2018-08-08T15:37:46.000Z</time>
      </trkpt>
      <trkpt lat="42.69743" lon="0.66825">
        <ele>2079.5</ele>
        <time>2018-08-08T15:37:47.000Z</time>
      </trkpt>
      <trkpt lat="42.69743" lon="0.66825">
        <ele>2079.5</ele>
        <time>2018-08-08T15:37:48.000Z</time>
      </trkpt>
      <trkpt lat="42.69743" lon="0.66825">
        <ele>2079.5</ele>
        <time>2018-08-08T15:37:49.000Z</time>
      </trkpt>
      <trkpt lat="42.69743" lon="0.66825">
        <ele>2079.5</ele>
        <time>2018-08-08T15:37:50.000Z</time>
      </trkpt>
      <trkpt lat="42.69743" lon="0.66825">
        <ele>2079.5</ele>
        <time>2018-08-08T15:37:51.000Z</time>
      </trkpt>
      <trkpt lat="42.69743" lon="0.66825">
        <ele>2079.5</ele>
        <time>2018-08-08T15:37:52.000Z</time>
      </trkpt>
      <trkpt lat="42.69743" lon="0.66825">
        <ele>2079.5</ele>
        <time>2018-08-08T15:37:53.000Z</time>
      </trkpt>
      <trkpt lat="42.69743" lon="0.66825">
        <ele>2079.5</ele>
        <time>2018-08-08T15:37:54.000Z</time>
      </trkpt>
      <trkpt lat="42.69743" lon="0.66825">
        <ele>2079.5</ele>
        <time>2018-08-08T15:37:55.000Z</time>
      </trkpt>
      <trkpt lat="42.69743" lon="0.66825">
        <ele>2079.5</ele>
        <time>2018-08-08T15:37:56.000Z</time>
      </trkpt>
      <trkpt lat="42.69743" lon="0.66825">
        <ele>2079.5</ele>
        <time>2018-08-08T15:37:57.000Z</time>
      </trkpt>
      <trkpt lat="42.69743" lon="0.66825">
        <ele>2079.5</ele>
        <time>2018-08-08T15:37:58.000Z</time>
      </trkpt>
      <trkpt lat="42.69743" lon="0.66825">
        <ele>2079.5</ele>
        <time>2018-08-08T15:37:59.000Z</time>
      </trkpt>
      <trkpt lat="42.69743" lon="0.66825">
        <ele>2079.5</ele>
        <time>2018-08-08T15:38:00.000Z</time>
      </trkpt>
      <trkpt lat="42.69743" lon="0.66825">
        <ele>2079.5</ele>
        <time>2018-08-08T15:38:01.000Z</time>
      </trkpt>
      <trkpt lat="42.69743" lon="0.66825">
        <ele>2079.5</ele>
        <time>2018-08-08T15:38:02.000Z</time>
      </trkpt>
      <trkpt lat="42.69743" lon="0.66825">
        <ele>2079.5</ele>
        <time>2018-08-08T15:38:03.000Z</time>
      </trkpt>
      <trkpt lat="42.69743" lon="0.66825">
        <ele>2079.5</ele>
        <time>2018-08-08T15:38:04.000Z</time>
      </trkpt>
      <trkpt lat="42.69743" lon="0.66825">
        <ele>2079.5</ele>
        <time>2018-08-08T15:38:05.000Z</time>
      </trkpt>
      <trkpt lat="42.69743" lon="0.66825">
        <ele>2079.5</ele>
        <time>2018-08-08T15:38:06.000Z</time>
      </trkpt>
      <trkpt lat="42.69743" lon="0.66825">
        <ele>2079.5</ele>
        <time>2018-08-08T15:38:07.000Z</time>
      </trkpt>
      <trkpt lat="42.69743" lon="0.66825">
        <ele>2079.5</ele>
        <time>2018-08-08T15:38:08.000Z</time>
      </trkpt>
      <trkpt lat="42.69743" lon="0.66825">
        <ele>2079.5</ele>
        <time>2018-08-08T15:38:09.000Z</time>
      </trkpt>
      <trkpt lat="42.69743" lon="0.66825">
        <ele>2079.5</ele>
        <time>2018-08-08T15:38:10.000Z</time>
      </trkpt>
      <trkpt lat="42.69743" lon="0.66825">
        <ele>2079.5</ele>
        <time>2018-08-08T15:38:11.000Z</time>
      </trkpt>
      <trkpt lat="42.69743" lon="0.66825">
        <ele>2079.5</ele>
        <time>2018-08-08T15:38:12.000Z</time>
      </trkpt>
      <trkpt lat="42.69743" lon="0.66825">
        <ele>2079.5</ele>
        <time>2018-08-08T15:38:13.000Z</time>
      </trkpt>
      <trkpt lat="42.69743" lon="0.66825">
        <ele>2079.5</ele>
        <time>2018-08-08T15:38:14.000Z</time>
      </trkpt>
      <trkpt lat="42.69743" lon="0.66825">
        <ele>2079.5</ele>
        <time>2018-08-08T15:38:15.000Z</time>
      </trkpt>
      <trkpt lat="42.69743" lon="0.66825">
        <ele>2079.5</ele>
        <time>2018-08-08T15:38:16.000Z</time>
      </trkpt>
      <trkpt lat="42.69743" lon="0.66825">
        <ele>2079.5</ele>
        <time>2018-08-08T15:38:17.000Z</time>
      </trkpt>
      <trkpt lat="42.69743" lon="0.66825">
        <ele>2079.5</ele>
        <time>2018-08-08T15:38:18.000Z</time>
      </trkpt>
      <trkpt lat="42.69743" lon="0.66825">
        <ele>2079.5</ele>
        <time>2018-08-08T15:38:19.000Z</time>
      </trkpt>
      <trkpt lat="42.69743" lon="0.66825">
        <ele>2079.5</ele>
        <time>2018-08-08T15:38:20.000Z</time>
      </trkpt>
      <trkpt lat="42.69743" lon="0.66825">
        <ele>2079.5</ele>
        <time>2018-08-08T15:38:21.000Z</time>
      </trkpt>
      <trkpt lat="42.69743" lon="0.66825">
        <ele>2079.5</ele>
        <time>2018-08-08T15:38:22.000Z</time>
      </trkpt>
      <trkpt lat="42.69743" lon="0.66825">
        <ele>2079.5</ele>
        <time>2018-08-08T15:38:23.000Z</time>
      </trkpt>
      <trkpt lat="42.69743" lon="0.66825">
        <ele>2079.5</ele>
        <time>2018-08-08T15:38:24.000Z</time>
      </trkpt>
      <trkpt lat="42.69743" lon="0.66825">
        <ele>2079.5</ele>
        <time>2018-08-08T15:38:25.000Z</time>
      </trkpt>
      <trkpt lat="42.69743" lon="0.66825">
        <ele>2079.5</ele>
        <time>2018-08-08T15:38:26.000Z</time>
      </trkpt>
      <trkpt lat="42.69743" lon="0.66825">
        <ele>2079.5</ele>
        <time>2018-08-08T15:38:27.000Z</time>
      </trkpt>
      <trkpt lat="42.69743" lon="0.66825">
        <ele>2079.5</ele>
        <time>2018-08-08T15:38:28.000Z</time>
      </trkpt>
      <trkpt lat="42.69743" lon="0.66825">
        <ele>2079.5</ele>
        <time>2018-08-08T15:38:29.000Z</time>
      </trkpt>
      <trkpt lat="42.69743" lon="0.66825">
        <ele>2079.5</ele>
        <time>2018-08-08T15:38:30.000Z</time>
      </trkpt>
      <trkpt lat="42.69743" lon="0.66825">
        <ele>2079.5</ele>
        <time>2018-08-08T15:38:31.000Z</time>
      </trkpt>
      <trkpt lat="42.69743" lon="0.66825">
        <ele>2079.5</ele>
        <time>2018-08-08T15:38:32.000Z</time>
      </trkpt>
      <trkpt lat="42.69743" lon="0.66825">
        <ele>2079.5</ele>
        <time>2018-08-08T15:38:33.000Z</time>
      </trkpt>
      <trkpt lat="42.69743" lon="0.66825">
        <ele>2079.5</ele>
        <time>2018-08-08T15:38:34.000Z</time>
      </trkpt>
      <trkpt lat="42.69743" lon="0.66825">
        <ele>2079.5</ele>
        <time>2018-08-08T15:38:35.000Z</time>
      </trkpt>
      <trkpt lat="42.69743" lon="0.66825">
        <ele>2079.5</ele>
        <time>2018-08-08T15:38:36.000Z</time>
      </trkpt>
      <trkpt lat="42.69743" lon="0.66825">
        <ele>2079.5</ele>
        <time>2018-08-08T15:38:37.000Z</time>
      </trkpt>
      <trkpt lat="42.69743" lon="0.66825">
        <ele>2079.5</ele>
        <time>2018-08-08T15:38:38.000Z</time>
      </trkpt>
      <trkpt lat="42.69743" lon="0.66825">
        <ele>2079.5</ele>
        <time>2018-08-08T15:38:39.000Z</time>
      </trkpt>
      <trkpt lat="42.69743" lon="0.66825">
        <ele>2079.5</ele>
        <time>2018-08-08T15:38:40.000Z</time>
      </trkpt>
      <trkpt lat="42.69743" lon="0.66825">
        <ele>2079.5</ele>
        <time>2018-08-08T15:38:41.000Z</time>
      </trkpt>
      <trkpt lat="42.69743" lon="0.66825">
        <ele>2079.5</ele>
        <time>2018-08-08T15:38:42.000Z</time>
      </trkpt>
      <trkpt lat="42.69743" lon="0.66825">
        <ele>2079.5</ele>
        <time>2018-08-08T15:38:43.000Z</time>
      </trkpt>
      <trkpt lat="42.69743" lon="0.66825">
        <ele>2079.5</ele>
        <time>2018-08-08T15:38:44.000Z</time>
      </trkpt>
      <trkpt lat="42.69743" lon="0.66825">
        <ele>2079.5</ele>
        <time>2018-08-08T15:38:45.000Z</time>
      </trkpt>
      <trkpt lat="42.69743" lon="0.66825">
        <ele>2079.5</ele>
        <time>2018-08-08T15:38:46.000Z</time>
      </trkpt>
      <trkpt lat="42.69743" lon="0.66825">
        <ele>2079.5</ele>
        <time>2018-08-08T15:38:47.000Z</time>
      </trkpt>
      <trkpt lat="42.69743" lon="0.66825">
        <ele>2079.5</ele>
        <time>2018-08-08T15:38:48.000Z</time>
      </trkpt>
      <trkpt lat="42.69743" lon="0.66825">
        <ele>2079.5</ele>
        <time>2018-08-08T15:38:49.000Z</time>
      </trkpt>
      <trkpt lat="42.69743" lon="0.66825">
        <ele>2079.5</ele>
        <time>2018-08-08T15:38:50.000Z</time>
      </trkpt>
      <trkpt lat="42.69743" lon="0.66825">
        <ele>2079.5</ele>
        <time>2018-08-08T15:38:51.000Z</time>
      </trkpt>
      <trkpt lat="42.69743" lon="0.66825">
        <ele>2079.5</ele>
        <time>2018-08-08T15:38:52.000Z</time>
      </trkpt>
      <trkpt lat="42.69743" lon="0.66825">
        <ele>2079.5</ele>
        <time>2018-08-08T15:38:53.000Z</time>
      </trkpt>
      <trkpt lat="42.69743" lon="0.66825">
        <ele>2079.5</ele>
        <time>2018-08-08T15:38:54.000Z</time>
      </trkpt>
      <trkpt lat="42.69743" lon="0.66825">
        <ele>2079.5</ele>
        <time>2018-08-08T15:38:55.000Z</time>
      </trkpt>
      <trkpt lat="42.69743" lon="0.66825">
        <ele>2079.5</ele>
        <time>2018-08-08T15:38:56.000Z</time>
      </trkpt>
      <trkpt lat="42.69743" lon="0.66825">
        <ele>2079.5</ele>
        <time>2018-08-08T15:38:57.000Z</time>
      </trkpt>
      <trkpt lat="42.69743" lon="0.66825">
        <ele>2079.5</ele>
        <time>2018-08-08T15:38:58.000Z</time>
      </trkpt>
      <trkpt lat="42.69743" lon="0.66825">
        <ele>2079.5</ele>
        <time>2018-08-08T15:38:59.000Z</time>
      </trkpt>
      <trkpt lat="42.69743" lon="0.66825">
        <ele>2079.5</ele>
        <time>2018-08-08T15:39:00.000Z</time>
      </trkpt>
      <trkpt lat="42.69743" lon="0.66825">
        <ele>2079.5</ele>
        <time>2018-08-08T15:39:01.000Z</time>
      </trkpt>
      <trkpt lat="42.69743" lon="0.66825">
        <ele>2079.5</ele>
        <time>2018-08-08T15:39:02.000Z</time>
      </trkpt>
      <trkpt lat="42.69743" lon="0.66825">
        <ele>2079.5</ele>
        <time>2018-08-08T15:39:03.000Z</time>
      </trkpt>
      <trkpt lat="42.69743" lon="0.66825">
        <ele>2079.5</ele>
        <time>2018-08-08T15:39:04.000Z</time>
      </trkpt>
      <trkpt lat="42.69743" lon="0.66825">
        <ele>2079.5</ele>
        <time>2018-08-08T15:39:05.000Z</time>
      </trkpt>
      <trkpt lat="42.69743" lon="0.66825">
        <ele>2079.5</ele>
        <time>2018-08-08T15:39:06.000Z</time>
      </trkpt>
      <trkpt lat="42.69743" lon="0.66825">
        <ele>2079.5</ele>
        <time>2018-08-08T15:39:07.000Z</time>
      </trkpt>
      <trkpt lat="42.69743" lon="0.66825">
        <ele>2079.5</ele>
        <time>2018-08-08T15:39:08.000Z</time>
      </trkpt>
      <trkpt lat="42.69743" lon="0.66825">
        <ele>2079.5</ele>
        <time>2018-08-08T15:39:09.000Z</time>
      </trkpt>
      <trkpt lat="42.69743" lon="0.66825">
        <ele>2079.5</ele>
        <time>2018-08-08T15:39:10.000Z</time>
      </trkpt>
      <trkpt lat="42.69743" lon="0.66825">
        <ele>2079.5</ele>
        <time>2018-08-08T15:39:11.000Z</time>
      </trkpt>
      <trkpt lat="42.69743" lon="0.66825">
        <ele>2079.5</ele>
        <time>2018-08-08T15:39:12.000Z</time>
      </trkpt>
      <trkpt lat="42.69743" lon="0.66825">
        <ele>2079.5</ele>
        <time>2018-08-08T15:39:13.000Z</time>
      </trkpt>
      <trkpt lat="42.69743" lon="0.66825">
        <ele>2079.5</ele>
        <time>2018-08-08T15:39:14.000Z</time>
      </trkpt>
      <trkpt lat="42.69743" lon="0.66825">
        <ele>2079.5</ele>
        <time>2018-08-08T15:39:15.000Z</time>
      </trkpt>
      <trkpt lat="42.69743" lon="0.66825">
        <ele>2079.5</ele>
        <time>2018-08-08T15:39:16.000Z</time>
      </trkpt>
      <trkpt lat="42.69743" lon="0.66825">
        <ele>2079.5</ele>
        <time>2018-08-08T15:39:17.000Z</time>
      </trkpt>
      <trkpt lat="42.69743" lon="0.66825">
        <ele>2079.5</ele>
        <time>2018-08-08T15:39:18.000Z</time>
      </trkpt>
      <trkpt lat="42.69743" lon="0.66825">
        <ele>2079.5</ele>
        <time>2018-08-08T15:39:19.000Z</time>
      </trkpt>
      <trkpt lat="42.69743" lon="0.66825">
        <ele>2079.5</ele>
        <time>2018-08-08T15:39:20.000Z</time>
      </trkpt>
      <trkpt lat="42.69743" lon="0.66825">
        <ele>2079.5</ele>
        <time>2018-08-08T15:39:21.000Z</time>
      </trkpt>
      <trkpt lat="42.69743" lon="0.66825">
        <ele>2079.5</ele>
        <time>2018-08-08T15:39:22.000Z</time>
      </trkpt>
      <trkpt lat="42.69743" lon="0.66825">
        <ele>2079.5</ele>
        <time>2018-08-08T15:39:23.000Z</time>
      </trkpt>
      <trkpt lat="42.69743" lon="0.66825">
        <ele>2079.5</ele>
        <time>2018-08-08T15:39:24.000Z</time>
      </trkpt>
      <trkpt lat="42.69743" lon="0.66825">
        <ele>2079.5</ele>
        <time>2018-08-08T15:39:25.000Z</time>
      </trkpt>
      <trkpt lat="42.69743" lon="0.66825">
        <ele>2079.5</ele>
        <time>2018-08-08T15:39:26.000Z</time>
      </trkpt>
      <trkpt lat="42.69743" lon="0.66825">
        <ele>2079.5</ele>
        <time>2018-08-08T15:39:27.000Z</time>
      </trkpt>
      <trkpt lat="42.69743" lon="0.66825">
        <ele>2079.5</ele>
        <time>2018-08-08T15:39:28.000Z</time>
      </trkpt>
      <trkpt lat="42.69743" lon="0.66825">
        <ele>2079.5</ele>
        <time>2018-08-08T15:39:29.000Z</time>
      </trkpt>
      <trkpt lat="42.69743" lon="0.66825">
        <ele>2079.5</ele>
        <time>2018-08-08T15:39:30.000Z</time>
      </trkpt>
      <trkpt lat="42.69743" lon="0.66825">
        <ele>2079.5</ele>
        <time>2018-08-08T15:39:31.000Z</time>
      </trkpt>
      <trkpt lat="42.69743" lon="0.66825">
        <ele>2079.5</ele>
        <time>2018-08-08T15:39:32.000Z</time>
      </trkpt>
      <trkpt lat="42.69743" lon="0.66825">
        <ele>2079.5</ele>
        <time>2018-08-08T15:39:33.000Z</time>
      </trkpt>
      <trkpt lat="42.69743" lon="0.66825">
        <ele>2079.5</ele>
        <time>2018-08-08T15:39:34.000Z</time>
      </trkpt>
      <trkpt lat="42.69743" lon="0.66825">
        <ele>2079.5</ele>
        <time>2018-08-08T15:39:35.000Z</time>
      </trkpt>
      <trkpt lat="42.69743" lon="0.66825">
        <ele>2079.5</ele>
        <time>2018-08-08T15:39:36.000Z</time>
      </trkpt>
      <trkpt lat="42.69743" lon="0.66825">
        <ele>2079.5</ele>
        <time>2018-08-08T15:39:37.000Z</time>
      </trkpt>
      <trkpt lat="42.69743" lon="0.66825">
        <ele>2079.5</ele>
        <time>2018-08-08T15:39:38.000Z</time>
      </trkpt>
      <trkpt lat="42.69743" lon="0.66825">
        <ele>2079.5</ele>
        <time>2018-08-08T15:39:39.000Z</time>
      </trkpt>
      <trkpt lat="42.69743" lon="0.66825">
        <ele>2079.5</ele>
        <time>2018-08-08T15:39:40.000Z</time>
      </trkpt>
      <trkpt lat="42.69743" lon="0.66825">
        <ele>2079.5</ele>
        <time>2018-08-08T15:39:41.000Z</time>
      </trkpt>
      <trkpt lat="42.69743" lon="0.66825">
        <ele>2079.5</ele>
        <time>2018-08-08T15:39:42.000Z</time>
      </trkpt>
      <trkpt lat="42.69743" lon="0.66825">
        <ele>2079.5</ele>
        <time>2018-08-08T15:39:43.000Z</time>
      </trkpt>
      <trkpt lat="42.69743" lon="0.66825">
        <ele>2079.5</ele>
        <time>2018-08-08T15:39:44.000Z</time>
      </trkpt>
      <trkpt lat="42.69743" lon="0.66825">
        <ele>2079.5</ele>
        <time>2018-08-08T15:39:45.000Z</time>
      </trkpt>
      <trkpt lat="42.69743" lon="0.66825">
        <ele>2079.5</ele>
        <time>2018-08-08T15:39:46.000Z</time>
      </trkpt>
      <trkpt lat="42.69743" lon="0.66825">
        <ele>2079.5</ele>
        <time>2018-08-08T15:39:47.000Z</time>
      </trkpt>
      <trkpt lat="42.69743" lon="0.66825">
        <ele>2079.5</ele>
        <time>2018-08-08T15:39:48.000Z</time>
      </trkpt>
      <trkpt lat="42.69743" lon="0.66825">
        <ele>2079.5</ele>
        <time>2018-08-08T15:39:49.000Z</time>
      </trkpt>
      <trkpt lat="42.69743" lon="0.66825">
        <ele>2079.5</ele>
        <time>2018-08-08T15:39:50.000Z</time>
      </trkpt>
      <trkpt lat="42.69743" lon="0.66825">
        <ele>2079.5</ele>
        <time>2018-08-08T15:39:51.000Z</time>
      </trkpt>
      <trkpt lat="42.69743" lon="0.66825">
        <ele>2079.5</ele>
        <time>2018-08-08T15:39:52.000Z</time>
      </trkpt>
      <trkpt lat="42.69743" lon="0.66825">
        <ele>2079.5</ele>
        <time>2018-08-08T15:39:53.000Z</time>
      </trkpt>
      <trkpt lat="42.69743" lon="0.66825">
        <ele>2079.5</ele>
        <time>2018-08-08T15:39:54.000Z</time>
      </trkpt>
      <trkpt lat="42.69743" lon="0.66825">
        <ele>2079.5</ele>
        <time>2018-08-08T15:39:55.000Z</time>
      </trkpt>
      <trkpt lat="42.69743" lon="0.66825">
        <ele>2079.5</ele>
        <time>2018-08-08T15:39:56.000Z</time>
      </trkpt>
      <trkpt lat="42.69743" lon="0.66825">
        <ele>2079.5</ele>
        <time>2018-08-08T15:39:57.000Z</time>
      </trkpt>
      <trkpt lat="42.69743" lon="0.66825">
        <ele>2079.5</ele>
        <time>2018-08-08T15:39:58.000Z</time>
      </trkpt>
      <trkpt lat="42.69743" lon="0.66825">
        <ele>2079.5</ele>
        <time>2018-08-08T15:39:59.000Z</time>
      </trkpt>
      <trkpt lat="42.69743" lon="0.66825">
        <ele>2079.5</ele>
        <time>2018-08-08T15:40:00.000Z</time>
      </trkpt>
      <trkpt lat="42.69743" lon="0.66825">
        <ele>2079.5</ele>
        <time>2018-08-08T15:40:01.000Z</time>
      </trkpt>
      <trkpt lat="42.69743" lon="0.66825">
        <ele>2079.5</ele>
        <time>2018-08-08T15:40:02.000Z</time>
      </trkpt>
      <trkpt lat="42.69743" lon="0.66825">
        <ele>2079.5</ele>
        <time>2018-08-08T15:40:03.000Z</time>
      </trkpt>
      <trkpt lat="42.69743" lon="0.66825">
        <ele>2079.5</ele>
        <time>2018-08-08T15:40:04.000Z</time>
      </trkpt>
      <trkpt lat="42.69743" lon="0.66825">
        <ele>2079.5</ele>
        <time>2018-08-08T15:40:05.000Z</time>
      </trkpt>
      <trkpt lat="42.69743" lon="0.66825">
        <ele>2079.5</ele>
        <time>2018-08-08T15:40:06.000Z</time>
      </trkpt>
      <trkpt lat="42.69743" lon="0.66825">
        <ele>2079.5</ele>
        <time>2018-08-08T15:40:07.000Z</time>
      </trkpt>
      <trkpt lat="42.69743" lon="0.66825">
        <ele>2079.5</ele>
        <time>2018-08-08T15:40:08.000Z</time>
      </trkpt>
      <trkpt lat="42.69743" lon="0.66825">
        <ele>2079.5</ele>
        <time>2018-08-08T15:40:09.000Z</time>
      </trkpt>
      <trkpt lat="42.69743" lon="0.66825">
        <ele>2079.5</ele>
        <time>2018-08-08T15:40:10.000Z</time>
      </trkpt>
      <trkpt lat="42.69743" lon="0.66825">
        <ele>2079.5</ele>
        <time>2018-08-08T15:40:11.000Z</time>
      </trkpt>
      <trkpt lat="42.69743" lon="0.66825">
        <ele>2079.5</ele>
        <time>2018-08-08T15:40:12.000Z</time>
      </trkpt>
      <trkpt lat="42.69743" lon="0.66825">
        <ele>2079.5</ele>
        <time>2018-08-08T15:40:13.000Z</time>
      </trkpt>
      <trkpt lat="42.69743" lon="0.66825">
        <ele>2079.5</ele>
        <time>2018-08-08T15:40:14.000Z</time>
      </trkpt>
      <trkpt lat="42.69743" lon="0.66825">
        <ele>2079.5</ele>
        <time>2018-08-08T15:40:15.000Z</time>
      </trkpt>
      <trkpt lat="42.69743" lon="0.66825">
        <ele>2079.5</ele>
        <time>2018-08-08T15:40:16.000Z</time>
      </trkpt>
      <trkpt lat="42.69743" lon="0.66825">
        <ele>2079.5</ele>
        <time>2018-08-08T15:40:17.000Z</time>
      </trkpt>
      <trkpt lat="42.69743" lon="0.66825">
        <ele>2079.5</ele>
        <time>2018-08-08T15:40:18.000Z</time>
      </trkpt>
      <trkpt lat="42.69743" lon="0.66825">
        <ele>2079.5</ele>
        <time>2018-08-08T15:40:19.000Z</time>
      </trkpt>
      <trkpt lat="42.69743" lon="0.66825">
        <ele>2079.5</ele>
        <time>2018-08-08T15:40:20.000Z</time>
      </trkpt>
      <trkpt lat="42.69743" lon="0.66825">
        <ele>2079.5</ele>
        <time>2018-08-08T15:40:21.000Z</time>
      </trkpt>
      <trkpt lat="42.69743" lon="0.66825">
        <ele>2079.5</ele>
        <time>2018-08-08T15:40:22.000Z</time>
      </trkpt>
      <trkpt lat="42.69743" lon="0.66825">
        <ele>2079.5</ele>
        <time>2018-08-08T15:40:23.000Z</time>
      </trkpt>
      <trkpt lat="42.69743" lon="0.66825">
        <ele>2079.5</ele>
        <time>2018-08-08T15:40:24.000Z</time>
      </trkpt>
      <trkpt lat="42.69743" lon="0.66825">
        <ele>2079.5</ele>
        <time>2018-08-08T15:40:25.000Z</time>
      </trkpt>
      <trkpt lat="42.69743" lon="0.66825">
        <ele>2079.5</ele>
        <time>2018-08-08T15:40:26.000Z</time>
      </trkpt>
      <trkpt lat="42.69743" lon="0.66825">
        <ele>2079.5</ele>
        <time>2018-08-08T15:40:27.000Z</time>
      </trkpt>
      <trkpt lat="42.69743" lon="0.66825">
        <ele>2079.5</ele>
        <time>2018-08-08T15:40:28.000Z</time>
      </trkpt>
      <trkpt lat="42.69743" lon="0.66825">
        <ele>2079.5</ele>
        <time>2018-08-08T15:40:29.000Z</time>
      </trkpt>
      <trkpt lat="42.69743" lon="0.66825">
        <ele>2079.5</ele>
        <time>2018-08-08T15:40:30.000Z</time>
      </trkpt>
      <trkpt lat="42.69743" lon="0.66825">
        <ele>2079.5</ele>
        <time>2018-08-08T15:40:31.000Z</time>
      </trkpt>
      <trkpt lat="42.69743" lon="0.66825">
        <ele>2079.5</ele>
        <time>2018-08-08T15:40:32.000Z</time>
      </trkpt>
      <trkpt lat="42.69743" lon="0.66825">
        <ele>2079.5</ele>
        <time>2018-08-08T15:40:33.000Z</time>
      </trkpt>
      <trkpt lat="42.69743" lon="0.66825">
        <ele>2079.5</ele>
        <time>2018-08-08T15:40:34.000Z</time>
      </trkpt>
      <trkpt lat="42.69743" lon="0.66825">
        <ele>2079.5</ele>
        <time>2018-08-08T15:40:35.000Z</time>
      </trkpt>
      <trkpt lat="42.69743" lon="0.66825">
        <ele>2079.5</ele>
        <time>2018-08-08T15:40:36.000Z</time>
      </trkpt>
      <trkpt lat="42.69743" lon="0.66825">
        <ele>2079.5</ele>
        <time>2018-08-08T15:40:37.000Z</time>
      </trkpt>
      <trkpt lat="42.69743" lon="0.66825">
        <ele>2079.5</ele>
        <time>2018-08-08T15:40:38.000Z</time>
      </trkpt>
      <trkpt lat="42.69743" lon="0.66825">
        <ele>2079.5</ele>
        <time>2018-08-08T15:40:39.000Z</time>
      </trkpt>
      <trkpt lat="42.69743" lon="0.66825">
        <ele>2079.5</ele>
        <time>2018-08-08T15:40:40.000Z</time>
      </trkpt>
      <trkpt lat="42.69743" lon="0.66825">
        <ele>2079.5</ele>
        <time>2018-08-08T15:40:41.000Z</time>
      </trkpt>
      <trkpt lat="42.69743" lon="0.66825">
        <ele>2079.5</ele>
        <time>2018-08-08T15:40:42.000Z</time>
      </trkpt>
      <trkpt lat="42.69743" lon="0.66825">
        <ele>2079.5</ele>
        <time>2018-08-08T15:40:43.000Z</time>
      </trkpt>
      <trkpt lat="42.69743" lon="0.66825">
        <ele>2079.5</ele>
        <time>2018-08-08T15:40:44.000Z</time>
      </trkpt>
      <trkpt lat="42.69743" lon="0.66825">
        <ele>2079.5</ele>
        <time>2018-08-08T15:40:45.000Z</time>
      </trkpt>
      <trkpt lat="42.69743" lon="0.66825">
        <ele>2079.5</ele>
        <time>2018-08-08T15:40:46.000Z</time>
      </trkpt>
      <trkpt lat="42.69743" lon="0.66825">
        <ele>2079.5</ele>
        <time>2018-08-08T15:40:47.000Z</time>
      </trkpt>
      <trkpt lat="42.69743" lon="0.66825">
        <ele>2079.5</ele>
        <time>2018-08-08T15:40:48.000Z</time>
      </trkpt>
      <trkpt lat="42.69743" lon="0.66825">
        <ele>2079.5</ele>
        <time>2018-08-08T15:40:49.000Z</time>
      </trkpt>
      <trkpt lat="42.69743" lon="0.66825">
        <ele>2079.5</ele>
        <time>2018-08-08T15:40:50.000Z</time>
      </trkpt>
      <trkpt lat="42.69743" lon="0.66825">
        <ele>2079.5</ele>
        <time>2018-08-08T15:40:51.000Z</time>
      </trkpt>
      <trkpt lat="42.69743" lon="0.66825">
        <ele>2079.5</ele>
        <time>2018-08-08T15:40:52.000Z</time>
      </trkpt>
      <trkpt lat="42.69743" lon="0.66825">
        <ele>2079.5</ele>
        <time>2018-08-08T15:40:53.000Z</time>
      </trkpt>
      <trkpt lat="42.69743" lon="0.66825">
        <ele>2079.5</ele>
        <time>2018-08-08T15:40:54.000Z</time>
      </trkpt>
      <trkpt lat="42.69743" lon="0.66825">
        <ele>2079.5</ele>
        <time>2018-08-08T15:40:55.000Z</time>
      </trkpt>
      <trkpt lat="42.69743" lon="0.66825">
        <ele>2079.5</ele>
        <time>2018-08-08T15:40:56.000Z</time>
      </trkpt>
      <trkpt lat="42.69743" lon="0.66825">
        <ele>2079.5</ele>
        <time>2018-08-08T15:40:57.000Z</time>
      </trkpt>
      <trkpt lat="42.69743" lon="0.66825">
        <ele>2079.5</ele>
        <time>2018-08-08T15:40:58.000Z</time>
      </trkpt>
      <trkpt lat="42.69743" lon="0.66825">
        <ele>2079.5</ele>
        <time>2018-08-08T15:40:59.000Z</time>
      </trkpt>
      <trkpt lat="42.69743" lon="0.66825">
        <ele>2079.5</ele>
        <time>2018-08-08T15:41:00.000Z</time>
      </trkpt>
      <trkpt lat="42.69743" lon="0.66825">
        <ele>2079.5</ele>
        <time>2018-08-08T15:41:01.000Z</time>
      </trkpt>
      <trkpt lat="42.69743" lon="0.66825">
        <ele>2079.5</ele>
        <time>2018-08-08T15:41:02.000Z</time>
      </trkpt>
      <trkpt lat="42.69743" lon="0.66825">
        <ele>2079.5</ele>
        <time>2018-08-08T15:41:03.000Z</time>
      </trkpt>
      <trkpt lat="42.69743" lon="0.66825">
        <ele>2079.5</ele>
        <time>2018-08-08T15:41:04.000Z</time>
      </trkpt>
      <trkpt lat="42.69743" lon="0.66825">
        <ele>2079.5</ele>
        <time>2018-08-08T15:41:05.000Z</time>
      </trkpt>
      <trkpt lat="42.69743" lon="0.66825">
        <ele>2079.5</ele>
        <time>2018-08-08T15:41:06.000Z</time>
      </trkpt>
      <trkpt lat="42.69743" lon="0.66825">
        <ele>2079.5</ele>
        <time>2018-08-08T15:41:07.000Z</time>
      </trkpt>
      <trkpt lat="42.69743" lon="0.66825">
        <ele>2079.5</ele>
        <time>2018-08-08T15:41:08.000Z</time>
      </trkpt>
      <trkpt lat="42.69743" lon="0.66825">
        <ele>2079.5</ele>
        <time>2018-08-08T15:41:09.000Z</time>
      </trkpt>
      <trkpt lat="42.69743" lon="0.66825">
        <ele>2079.5</ele>
        <time>2018-08-08T15:41:10.000Z</time>
      </trkpt>
      <trkpt lat="42.69743" lon="0.66825">
        <ele>2079.5</ele>
        <time>2018-08-08T15:41:11.000Z</time>
      </trkpt>
      <trkpt lat="42.69743" lon="0.66825">
        <ele>2079.5</ele>
        <time>2018-08-08T15:41:12.000Z</time>
      </trkpt>
      <trkpt lat="42.69743" lon="0.66825">
        <ele>2079.5</ele>
        <time>2018-08-08T15:41:13.000Z</time>
      </trkpt>
      <trkpt lat="42.69743" lon="0.66825">
        <ele>2079.5</ele>
        <time>2018-08-08T15:41:14.000Z</time>
      </trkpt>
      <trkpt lat="42.69743" lon="0.66825">
        <ele>2079.5</ele>
        <time>2018-08-08T15:41:15.000Z</time>
      </trkpt>
      <trkpt lat="42.69743" lon="0.66825">
        <ele>2079.5</ele>
        <time>2018-08-08T15:41:16.000Z</time>
      </trkpt>
      <trkpt lat="42.69743" lon="0.66825">
        <ele>2079.5</ele>
        <time>2018-08-08T15:41:17.000Z</time>
      </trkpt>
      <trkpt lat="42.69743" lon="0.66825">
        <ele>2079.5</ele>
        <time>2018-08-08T15:41:18.000Z</time>
      </trkpt>
      <trkpt lat="42.69743" lon="0.66825">
        <ele>2079.5</ele>
        <time>2018-08-08T15:41:19.000Z</time>
      </trkpt>
      <trkpt lat="42.69743" lon="0.66825">
        <ele>2079.5</ele>
        <time>2018-08-08T15:41:20.000Z</time>
      </trkpt>
      <trkpt lat="42.69743" lon="0.66825">
        <ele>2079.5</ele>
        <time>2018-08-08T15:41:21.000Z</time>
      </trkpt>
      <trkpt lat="42.69743" lon="0.66825">
        <ele>2079.5</ele>
        <time>2018-08-08T15:41:22.000Z</time>
      </trkpt>
      <trkpt lat="42.69743" lon="0.66825">
        <ele>2079.5</ele>
        <time>2018-08-08T15:41:23.000Z</time>
      </trkpt>
      <trkpt lat="42.69743" lon="0.66825">
        <ele>2079.5</ele>
        <time>2018-08-08T15:41:24.000Z</time>
      </trkpt>
      <trkpt lat="42.69743" lon="0.66825">
        <ele>2079.5</ele>
        <time>2018-08-08T15:41:25.000Z</time>
      </trkpt>
      <trkpt lat="42.69743" lon="0.66825">
        <ele>2079.5</ele>
        <time>2018-08-08T15:41:26.000Z</time>
      </trkpt>
      <trkpt lat="42.69743" lon="0.66825">
        <ele>2079.5</ele>
        <time>2018-08-08T15:41:27.000Z</time>
      </trkpt>
      <trkpt lat="42.69743" lon="0.66825">
        <ele>2079.5</ele>
        <time>2018-08-08T15:41:28.000Z</time>
      </trkpt>
      <trkpt lat="42.69743" lon="0.66825">
        <ele>2079.5</ele>
        <time>2018-08-08T15:41:29.000Z</time>
      </trkpt>
      <trkpt lat="42.69743" lon="0.66825">
        <ele>2079.5</ele>
        <time>2018-08-08T15:41:30.000Z</time>
      </trkpt>
      <trkpt lat="42.69743" lon="0.66825">
        <ele>2079.5</ele>
        <time>2018-08-08T15:41:31.000Z</time>
      </trkpt>
      <trkpt lat="42.69743" lon="0.66825">
        <ele>2079.5</ele>
        <time>2018-08-08T15:41:32.000Z</time>
      </trkpt>
      <trkpt lat="42.69743" lon="0.66825">
        <ele>2079.5</ele>
        <time>2018-08-08T15:41:33.000Z</time>
      </trkpt>
      <trkpt lat="42.69743" lon="0.66825">
        <ele>2079.5</ele>
        <time>2018-08-08T15:41:34.000Z</time>
      </trkpt>
      <trkpt lat="42.69743" lon="0.66825">
        <ele>2079.5</ele>
        <time>2018-08-08T15:41:35.000Z</time>
      </trkpt>
      <trkpt lat="42.69743" lon="0.66825">
        <ele>2079.5</ele>
        <time>2018-08-08T15:41:36.000Z</time>
      </trkpt>
      <trkpt lat="42.69743" lon="0.66825">
        <ele>2079.5</ele>
        <time>2018-08-08T15:41:37.000Z</time>
      </trkpt>
      <trkpt lat="42.69743" lon="0.66825">
        <ele>2079.5</ele>
        <time>2018-08-08T15:41:38.000Z</time>
      </trkpt>
      <trkpt lat="42.69743" lon="0.66825">
        <ele>2079.5</ele>
        <time>2018-08-08T15:41:39.000Z</time>
      </trkpt>
      <trkpt lat="42.69743" lon="0.66825">
        <ele>2079.5</ele>
        <time>2018-08-08T15:41:40.000Z</time>
      </trkpt>
      <trkpt lat="42.69743" lon="0.66825">
        <ele>2079.5</ele>
        <time>2018-08-08T15:41:41.000Z</time>
      </trkpt>
      <trkpt lat="42.69743" lon="0.66825">
        <ele>2079.5</ele>
        <time>2018-08-08T15:41:42.000Z</time>
      </trkpt>
      <trkpt lat="42.69743" lon="0.66825">
        <ele>2079.5</ele>
        <time>2018-08-08T15:41:43.000Z</time>
      </trkpt>
      <trkpt lat="42.69743" lon="0.66825">
        <ele>2079.5</ele>
        <time>2018-08-08T15:41:44.000Z</time>
      </trkpt>
      <trkpt lat="42.69743" lon="0.66825">
        <ele>2079.5</ele>
        <time>2018-08-08T15:41:45.000Z</time>
      </trkpt>
      <trkpt lat="42.69743" lon="0.66825">
        <ele>2079.5</ele>
        <time>2018-08-08T15:41:46.000Z</time>
      </trkpt>
      <trkpt lat="42.69743" lon="0.66825">
        <ele>2079.5</ele>
        <time>2018-08-08T15:41:47.000Z</time>
      </trkpt>
      <trkpt lat="42.69743" lon="0.66825">
        <ele>2079.5</ele>
        <time>2018-08-08T15:41:48.000Z</time>
      </trkpt>
      <trkpt lat="42.69743" lon="0.66825">
        <ele>2079.5</ele>
        <time>2018-08-08T15:41:49.000Z</time>
      </trkpt>
      <trkpt lat="42.69743" lon="0.66825">
        <ele>2079.5</ele>
        <time>2018-08-08T15:41:50.000Z</time>
      </trkpt>
      <trkpt lat="42.69743" lon="0.66825">
        <ele>2079.5</ele>
        <time>2018-08-08T15:41:51.000Z</time>
      </trkpt>
      <trkpt lat="42.69743" lon="0.66825">
        <ele>2079.5</ele>
        <time>2018-08-08T15:41:52.000Z</time>
      </trkpt>
      <trkpt lat="42.69743" lon="0.66825">
        <ele>2079.5</ele>
        <time>2018-08-08T15:41:53.000Z</time>
      </trkpt>
      <trkpt lat="42.69743" lon="0.66825">
        <ele>2079.5</ele>
        <time>2018-08-08T15:41:54.000Z</time>
      </trkpt>
      <trkpt lat="42.69743" lon="0.66825">
        <ele>2079.5</ele>
        <time>2018-08-08T15:41:55.000Z</time>
      </trkpt>
      <trkpt lat="42.69743" lon="0.66825">
        <ele>2079.5</ele>
        <time>2018-08-08T15:41:56.000Z</time>
      </trkpt>
      <trkpt lat="42.69743" lon="0.66825">
        <ele>2079.5</ele>
        <time>2018-08-08T15:41:57.000Z</time>
      </trkpt>
      <trkpt lat="42.69743" lon="0.66825">
        <ele>2079.5</ele>
        <time>2018-08-08T15:41:58.000Z</time>
      </trkpt>
      <trkpt lat="42.69743" lon="0.66825">
        <ele>2079.5</ele>
        <time>2018-08-08T15:41:59.000Z</time>
      </trkpt>
      <trkpt lat="42.69743" lon="0.66825">
        <ele>2079.5</ele>
        <time>2018-08-08T15:42:00.000Z</time>
      </trkpt>
      <trkpt lat="42.69743" lon="0.66825">
        <ele>2079.5</ele>
        <time>2018-08-08T15:42:01.000Z</time>
      </trkpt>
      <trkpt lat="42.69743" lon="0.66825">
        <ele>2079.5</ele>
        <time>2018-08-08T15:42:02.000Z</time>
      </trkpt>
      <trkpt lat="42.69743" lon="0.66825">
        <ele>2079.5</ele>
        <time>2018-08-08T15:42:03.000Z</time>
      </trkpt>
      <trkpt lat="42.69743" lon="0.66825">
        <ele>2079.5</ele>
        <time>2018-08-08T15:42:04.000Z</time>
      </trkpt>
      <trkpt lat="42.69743" lon="0.66825">
        <ele>2079.5</ele>
        <time>2018-08-08T15:42:05.000Z</time>
      </trkpt>
      <trkpt lat="42.69743" lon="0.66825">
        <ele>2079.5</ele>
        <time>2018-08-08T15:42:06.000Z</time>
      </trkpt>
      <trkpt lat="42.69743" lon="0.66825">
        <ele>2079.5</ele>
        <time>2018-08-08T15:42:07.000Z</time>
      </trkpt>
      <trkpt lat="42.69743" lon="0.66825">
        <ele>2079.5</ele>
        <time>2018-08-08T15:42:08.000Z</time>
      </trkpt>
      <trkpt lat="42.69743" lon="0.66825">
        <ele>2079.5</ele>
        <time>2018-08-08T15:42:09.000Z</time>
      </trkpt>
      <trkpt lat="42.69743" lon="0.66825">
        <ele>2079.5</ele>
        <time>2018-08-08T15:42:10.000Z</time>
      </trkpt>
      <trkpt lat="42.69743" lon="0.66825">
        <ele>2079.5</ele>
        <time>2018-08-08T15:42:11.000Z</time>
      </trkpt>
      <trkpt lat="42.69743" lon="0.66825">
        <ele>2079.5</ele>
        <time>2018-08-08T15:42:12.000Z</time>
      </trkpt>
      <trkpt lat="42.69743" lon="0.66825">
        <ele>2079.5</ele>
        <time>2018-08-08T15:42:13.000Z</time>
      </trkpt>
      <trkpt lat="42.69743" lon="0.66825">
        <ele>2079.5</ele>
        <time>2018-08-08T15:42:14.000Z</time>
      </trkpt>
      <trkpt lat="42.69743" lon="0.66825">
        <ele>2079.5</ele>
        <time>2018-08-08T15:42:15.000Z</time>
      </trkpt>
      <trkpt lat="42.69743" lon="0.66825">
        <ele>2079.5</ele>
        <time>2018-08-08T15:42:16.000Z</time>
      </trkpt>
      <trkpt lat="42.69743" lon="0.66825">
        <ele>2079.5</ele>
        <time>2018-08-08T15:42:17.000Z</time>
      </trkpt>
      <trkpt lat="42.69743" lon="0.66825">
        <ele>2079.5</ele>
        <time>2018-08-08T15:42:18.000Z</time>
      </trkpt>
      <trkpt lat="42.69743" lon="0.66825">
        <ele>2079.5</ele>
        <time>2018-08-08T15:42:19.000Z</time>
      </trkpt>
      <trkpt lat="42.69743" lon="0.66825">
        <ele>2079.5</ele>
        <time>2018-08-08T15:42:20.000Z</time>
      </trkpt>
      <trkpt lat="42.69743" lon="0.66825">
        <ele>2079.5</ele>
        <time>2018-08-08T15:42:21.000Z</time>
      </trkpt>
      <trkpt lat="42.69743" lon="0.66825">
        <ele>2079.5</ele>
        <time>2018-08-08T15:42:22.000Z</time>
      </trkpt>
      <trkpt lat="42.69743" lon="0.66825">
        <ele>2079.5</ele>
        <time>2018-08-08T15:42:23.000Z</time>
      </trkpt>
      <trkpt lat="42.69743" lon="0.66825">
        <ele>2079.5</ele>
        <time>2018-08-08T15:42:24.000Z</time>
      </trkpt>
      <trkpt lat="42.69743" lon="0.66825">
        <ele>2079.5</ele>
        <time>2018-08-08T15:42:25.000Z</time>
      </trkpt>
      <trkpt lat="42.69743" lon="0.66825">
        <ele>2079.5</ele>
        <time>2018-08-08T15:42:26.000Z</time>
      </trkpt>
      <trkpt lat="42.69743" lon="0.66825">
        <ele>2079.5</ele>
        <time>2018-08-08T15:42:27.000Z</time>
      </trkpt>
      <trkpt lat="42.69743" lon="0.66825">
        <ele>2079.5</ele>
        <time>2018-08-08T15:42:28.000Z</time>
      </trkpt>
      <trkpt lat="42.69743" lon="0.66825">
        <ele>2079.5</ele>
        <time>2018-08-08T15:42:29.000Z</time>
      </trkpt>
      <trkpt lat="42.69743" lon="0.66825">
        <ele>2079.5</ele>
        <time>2018-08-08T15:42:30.000Z</time>
      </trkpt>
      <trkpt lat="42.69743" lon="0.66825">
        <ele>2079.5</ele>
        <time>2018-08-08T15:42:31.000Z</time>
      </trkpt>
      <trkpt lat="42.69743" lon="0.66825">
        <ele>2079.5</ele>
        <time>2018-08-08T15:42:32.000Z</time>
      </trkpt>
      <trkpt lat="42.69743" lon="0.66825">
        <ele>2079.5</ele>
        <time>2018-08-08T15:42:33.000Z</time>
      </trkpt>
      <trkpt lat="42.69743" lon="0.66825">
        <ele>2079.5</ele>
        <time>2018-08-08T15:42:34.000Z</time>
      </trkpt>
      <trkpt lat="42.69743" lon="0.66825">
        <ele>2079.5</ele>
        <time>2018-08-08T15:42:35.000Z</time>
      </trkpt>
      <trkpt lat="42.69743" lon="0.66825">
        <ele>2079.5</ele>
        <time>2018-08-08T15:42:36.000Z</time>
      </trkpt>
      <trkpt lat="42.69743" lon="0.66825">
        <ele>2079.5</ele>
        <time>2018-08-08T15:42:37.000Z</time>
      </trkpt>
      <trkpt lat="42.69743" lon="0.66825">
        <ele>2079.5</ele>
        <time>2018-08-08T15:42:38.000Z</time>
      </trkpt>
      <trkpt lat="42.69743" lon="0.66825">
        <ele>2079.5</ele>
        <time>2018-08-08T15:42:39.000Z</time>
      </trkpt>
      <trkpt lat="42.69743" lon="0.66825">
        <ele>2079.5</ele>
        <time>2018-08-08T15:42:40.000Z</time>
      </trkpt>
      <trkpt lat="42.69743" lon="0.66825">
        <ele>2079.5</ele>
        <time>2018-08-08T15:42:41.000Z</time>
      </trkpt>
      <trkpt lat="42.69743" lon="0.66825">
        <ele>2079.5</ele>
        <time>2018-08-08T15:42:42.000Z</time>
      </trkpt>
      <trkpt lat="42.69743" lon="0.66825">
        <ele>2079.5</ele>
        <time>2018-08-08T15:42:43.000Z</time>
      </trkpt>
      <trkpt lat="42.69743" lon="0.66825">
        <ele>2079.5</ele>
        <time>2018-08-08T15:42:44.000Z</time>
      </trkpt>
      <trkpt lat="42.69743" lon="0.66825">
        <ele>2079.5</ele>
        <time>2018-08-08T15:42:45.000Z</time>
      </trkpt>
      <trkpt lat="42.69743" lon="0.66825">
        <ele>2079.5</ele>
        <time>2018-08-08T15:42:46.000Z</time>
      </trkpt>
      <trkpt lat="42.69743" lon="0.66825">
        <ele>2079.5</ele>
        <time>2018-08-08T15:42:47.000Z</time>
      </trkpt>
      <trkpt lat="42.69743" lon="0.66825">
        <ele>2079.5</ele>
        <time>2018-08-08T15:42:48.000Z</time>
      </trkpt>
      <trkpt lat="42.69743" lon="0.66825">
        <ele>2079.5</ele>
        <time>2018-08-08T15:42:49.000Z</time>
      </trkpt>
      <trkpt lat="42.69743" lon="0.66825">
        <ele>2079.5</ele>
        <time>2018-08-08T15:42:50.000Z</time>
      </trkpt>
      <trkpt lat="42.69743" lon="0.66825">
        <ele>2079.5</ele>
        <time>2018-08-08T15:42:51.000Z</time>
      </trkpt>
      <trkpt lat="42.69743" lon="0.66825">
        <ele>2079.5</ele>
        <time>2018-08-08T15:42:52.000Z</time>
      </trkpt>
      <trkpt lat="42.69743" lon="0.66825">
        <ele>2079.5</ele>
        <time>2018-08-08T15:42:53.000Z</time>
      </trkpt>
      <trkpt lat="42.69743" lon="0.66825">
        <ele>2079.5</ele>
        <time>2018-08-08T15:42:54.000Z</time>
      </trkpt>
      <trkpt lat="42.69743" lon="0.66825">
        <ele>2079.5</ele>
        <time>2018-08-08T15:42:55.000Z</time>
      </trkpt>
      <trkpt lat="42.69743" lon="0.66825">
        <ele>2079.5</ele>
        <time>2018-08-08T15:42:56.000Z</time>
      </trkpt>
      <trkpt lat="42.69743" lon="0.66825">
        <ele>2079.5</ele>
        <time>2018-08-08T15:42:57.000Z</time>
      </trkpt>
      <trkpt lat="42.69743" lon="0.66825">
        <ele>2079.5</ele>
        <time>2018-08-08T15:42:58.000Z</time>
      </trkpt>
      <trkpt lat="42.69743" lon="0.66825">
        <ele>2079.5</ele>
        <time>2018-08-08T15:42:59.000Z</time>
      </trkpt>
      <trkpt lat="42.69743" lon="0.66825">
        <ele>2079.5</ele>
        <time>2018-08-08T15:43:00.000Z</time>
      </trkpt>
      <trkpt lat="42.69743" lon="0.66825">
        <ele>2079.5</ele>
        <time>2018-08-08T15:43:01.000Z</time>
      </trkpt>
      <trkpt lat="42.69743" lon="0.66825">
        <ele>2079.5</ele>
        <time>2018-08-08T15:43:02.000Z</time>
      </trkpt>
      <trkpt lat="42.69743" lon="0.66825">
        <ele>2079.5</ele>
        <time>2018-08-08T15:43:03.000Z</time>
      </trkpt>
      <trkpt lat="42.69743" lon="0.66825">
        <ele>2079.5</ele>
        <time>2018-08-08T15:43:04.000Z</time>
      </trkpt>
      <trkpt lat="42.69743" lon="0.66825">
        <ele>2079.5</ele>
        <time>2018-08-08T15:43:05.000Z</time>
      </trkpt>
      <trkpt lat="42.69743" lon="0.66825">
        <ele>2079.5</ele>
        <time>2018-08-08T15:43:06.000Z</time>
      </trkpt>
      <trkpt lat="42.69743" lon="0.66825">
        <ele>2079.5</ele>
        <time>2018-08-08T15:43:07.000Z</time>
      </trkpt>
      <trkpt lat="42.69743" lon="0.66825">
        <ele>2079.5</ele>
        <time>2018-08-08T15:43:08.000Z</time>
      </trkpt>
      <trkpt lat="42.69743" lon="0.66825">
        <ele>2079.5</ele>
        <time>2018-08-08T15:43:09.000Z</time>
      </trkpt>
      <trkpt lat="42.69743" lon="0.66825">
        <ele>2079.5</ele>
        <time>2018-08-08T15:43:10.000Z</time>
      </trkpt>
      <trkpt lat="42.69743" lon="0.66825">
        <ele>2079.5</ele>
        <time>2018-08-08T15:43:11.000Z</time>
      </trkpt>
      <trkpt lat="42.69743" lon="0.66825">
        <ele>2079.5</ele>
        <time>2018-08-08T15:43:12.000Z</time>
      </trkpt>
      <trkpt lat="42.69743" lon="0.66825">
        <ele>2079.5</ele>
        <time>2018-08-08T15:43:13.000Z</time>
      </trkpt>
      <trkpt lat="42.69743" lon="0.66825">
        <ele>2079.5</ele>
        <time>2018-08-08T15:43:14.000Z</time>
      </trkpt>
      <trkpt lat="42.69743" lon="0.66825">
        <ele>2079.5</ele>
        <time>2018-08-08T15:43:15.000Z</time>
      </trkpt>
      <trkpt lat="42.69743" lon="0.66825">
        <ele>2079.5</ele>
        <time>2018-08-08T15:43:16.000Z</time>
      </trkpt>
      <trkpt lat="42.69743" lon="0.66825">
        <ele>2079.5</ele>
        <time>2018-08-08T15:43:17.000Z</time>
      </trkpt>
      <trkpt lat="42.69743" lon="0.66825">
        <ele>2079.5</ele>
        <time>2018-08-08T15:43:18.000Z</time>
      </trkpt>
      <trkpt lat="42.69743" lon="0.66825">
        <ele>2079.5</ele>
        <time>2018-08-08T15:43:19.000Z</time>
      </trkpt>
      <trkpt lat="42.69743" lon="0.66825">
        <ele>2079.5</ele>
        <time>2018-08-08T15:43:20.000Z</time>
      </trkpt>
      <trkpt lat="42.69743" lon="0.66825">
        <ele>2079.5</ele>
        <time>2018-08-08T15:43:21.000Z</time>
      </trkpt>
      <trkpt lat="42.69743" lon="0.66825">
        <ele>2079.5</ele>
        <time>2018-08-08T15:43:22.000Z</time>
      </trkpt>
      <trkpt lat="42.69743" lon="0.66825">
        <ele>2079.5</ele>
        <time>2018-08-08T15:43:23.000Z</time>
      </trkpt>
      <trkpt lat="42.69743" lon="0.66825">
        <ele>2079.5</ele>
        <time>2018-08-08T15:43:24.000Z</time>
      </trkpt>
      <trkpt lat="42.69743" lon="0.66825">
        <ele>2079.5</ele>
        <time>2018-08-08T15:43:25.000Z</time>
      </trkpt>
      <trkpt lat="42.69743" lon="0.66825">
        <ele>2079.5</ele>
        <time>2018-08-08T15:43:26.000Z</time>
      </trkpt>
      <trkpt lat="42.69743" lon="0.66825">
        <ele>2079.5</ele>
        <time>2018-08-08T15:43:27.000Z</time>
      </trkpt>
      <trkpt lat="42.69743" lon="0.66825">
        <ele>2079.5</ele>
        <time>2018-08-08T15:43:28.000Z</time>
      </trkpt>
      <trkpt lat="42.69743" lon="0.66825">
        <ele>2079.5</ele>
        <time>2018-08-08T15:43:29.000Z</time>
      </trkpt>
      <trkpt lat="42.69743" lon="0.66825">
        <ele>2079.5</ele>
        <time>2018-08-08T15:43:30.000Z</time>
      </trkpt>
      <trkpt lat="42.69743" lon="0.66825">
        <ele>2079.5</ele>
        <time>2018-08-08T15:43:31.000Z</time>
      </trkpt>
      <trkpt lat="42.69743" lon="0.66825">
        <ele>2079.5</ele>
        <time>2018-08-08T15:43:32.000Z</time>
      </trkpt>
      <trkpt lat="42.69743" lon="0.66825">
        <ele>2079.5</ele>
        <time>2018-08-08T15:43:33.000Z</time>
      </trkpt>
      <trkpt lat="42.69743" lon="0.66825">
        <ele>2079.5</ele>
        <time>2018-08-08T15:43:34.000Z</time>
      </trkpt>
      <trkpt lat="42.69743" lon="0.66825">
        <ele>2079.5</ele>
        <time>2018-08-08T15:43:35.000Z</time>
      </trkpt>
      <trkpt lat="42.69743" lon="0.66825">
        <ele>2079.5</ele>
        <time>2018-08-08T15:43:36.000Z</time>
      </trkpt>
      <trkpt lat="42.69743" lon="0.66825">
        <ele>2079.5</ele>
        <time>2018-08-08T15:43:37.000Z</time>
      </trkpt>
      <trkpt lat="42.69743" lon="0.66825">
        <ele>2079.5</ele>
        <time>2018-08-08T15:43:38.000Z</time>
      </trkpt>
      <trkpt lat="42.69743" lon="0.66825">
        <ele>2079.5</ele>
        <time>2018-08-08T15:43:39.000Z</time>
      </trkpt>
      <trkpt lat="42.69743" lon="0.66825">
        <ele>2079.5</ele>
        <time>2018-08-08T15:43:40.000Z</time>
      </trkpt>
      <trkpt lat="42.69743" lon="0.66825">
        <ele>2079.5</ele>
        <time>2018-08-08T15:43:41.000Z</time>
      </trkpt>
      <trkpt lat="42.69743" lon="0.66825">
        <ele>2079.5</ele>
        <time>2018-08-08T15:43:42.000Z</time>
      </trkpt>
      <trkpt lat="42.69743" lon="0.66825">
        <ele>2079.5</ele>
        <time>2018-08-08T15:43:43.000Z</time>
      </trkpt>
      <trkpt lat="42.69743" lon="0.66825">
        <ele>2079.5</ele>
        <time>2018-08-08T15:43:44.000Z</time>
      </trkpt>
      <trkpt lat="42.69743" lon="0.66825">
        <ele>2079.5</ele>
        <time>2018-08-08T15:43:45.000Z</time>
      </trkpt>
      <trkpt lat="42.69743" lon="0.66825">
        <ele>2079.5</ele>
        <time>2018-08-08T15:43:46.000Z</time>
      </trkpt>
      <trkpt lat="42.69743" lon="0.66825">
        <ele>2079.5</ele>
        <time>2018-08-08T15:43:47.000Z</time>
      </trkpt>
      <trkpt lat="42.69743" lon="0.66825">
        <ele>2079.5</ele>
        <time>2018-08-08T15:43:48.000Z</time>
      </trkpt>
      <trkpt lat="42.69743" lon="0.66825">
        <ele>2079.5</ele>
        <time>2018-08-08T15:43:49.000Z</time>
      </trkpt>
      <trkpt lat="42.69743" lon="0.66825">
        <ele>2079.5</ele>
        <time>2018-08-08T15:43:50.000Z</time>
      </trkpt>
      <trkpt lat="42.69743" lon="0.66825">
        <ele>2079.5</ele>
        <time>2018-08-08T15:43:51.000Z</time>
      </trkpt>
      <trkpt lat="42.69743" lon="0.66825">
        <ele>2079.5</ele>
        <time>2018-08-08T15:43:52.000Z</time>
      </trkpt>
      <trkpt lat="42.69743" lon="0.66825">
        <ele>2079.5</ele>
        <time>2018-08-08T15:43:53.000Z</time>
      </trkpt>
      <trkpt lat="42.69743" lon="0.66825">
        <ele>2079.5</ele>
        <time>2018-08-08T15:43:54.000Z</time>
      </trkpt>
      <trkpt lat="42.69743" lon="0.66825">
        <ele>2079.5</ele>
        <time>2018-08-08T15:43:55.000Z</time>
      </trkpt>
      <trkpt lat="42.69743" lon="0.66825">
        <ele>2079.5</ele>
        <time>2018-08-08T15:43:56.000Z</time>
      </trkpt>
      <trkpt lat="42.69743" lon="0.66825">
        <ele>2079.5</ele>
        <time>2018-08-08T15:43:57.000Z</time>
      </trkpt>
      <trkpt lat="42.69743" lon="0.66825">
        <ele>2079.5</ele>
        <time>2018-08-08T15:43:58.000Z</time>
      </trkpt>
      <trkpt lat="42.69743" lon="0.66825">
        <ele>2079.5</ele>
        <time>2018-08-08T15:43:59.000Z</time>
      </trkpt>
      <trkpt lat="42.69743" lon="0.66825">
        <ele>2079.5</ele>
        <time>2018-08-08T15:44:00.000Z</time>
      </trkpt>
      <trkpt lat="42.69743" lon="0.66825">
        <ele>2079.5</ele>
        <time>2018-08-08T15:44:01.000Z</time>
      </trkpt>
      <trkpt lat="42.69743" lon="0.66825">
        <ele>2079.5</ele>
        <time>2018-08-08T15:44:02.000Z</time>
      </trkpt>
      <trkpt lat="42.69743" lon="0.66825">
        <ele>2079.5</ele>
        <time>2018-08-08T15:44:03.000Z</time>
      </trkpt>
      <trkpt lat="42.69743" lon="0.66825">
        <ele>2079.5</ele>
        <time>2018-08-08T15:44:04.000Z</time>
      </trkpt>
      <trkpt lat="42.69743" lon="0.66825">
        <ele>2079.5</ele>
        <time>2018-08-08T15:44:05.000Z</time>
      </trkpt>
      <trkpt lat="42.69743" lon="0.66825">
        <ele>2079.5</ele>
        <time>2018-08-08T15:44:06.000Z</time>
      </trkpt>
      <trkpt lat="42.69743" lon="0.66825">
        <ele>2079.5</ele>
        <time>2018-08-08T15:44:07.000Z</time>
      </trkpt>
      <trkpt lat="42.69743" lon="0.66825">
        <ele>2079.5</ele>
        <time>2018-08-08T15:44:08.000Z</time>
      </trkpt>
      <trkpt lat="42.69743" lon="0.66825">
        <ele>2079.5</ele>
        <time>2018-08-08T15:44:09.000Z</time>
      </trkpt>
      <trkpt lat="42.69743" lon="0.66825">
        <ele>2079.5</ele>
        <time>2018-08-08T15:44:10.000Z</time>
      </trkpt>
      <trkpt lat="42.69743" lon="0.66825">
        <ele>2079.5</ele>
        <time>2018-08-08T15:44:11.000Z</time>
      </trkpt>
      <trkpt lat="42.69743" lon="0.66825">
        <ele>2079.5</ele>
        <time>2018-08-08T15:44:12.000Z</time>
      </trkpt>
      <trkpt lat="42.69743" lon="0.66825">
        <ele>2079.5</ele>
        <time>2018-08-08T15:44:13.000Z</time>
      </trkpt>
      <trkpt lat="42.69743" lon="0.66825">
        <ele>2079.5</ele>
        <time>2018-08-08T15:44:14.000Z</time>
      </trkpt>
      <trkpt lat="42.69743" lon="0.66825">
        <ele>2079.5</ele>
        <time>2018-08-08T15:44:15.000Z</time>
      </trkpt>
      <trkpt lat="42.69743" lon="0.66825">
        <ele>2079.5</ele>
        <time>2018-08-08T15:44:16.000Z</time>
      </trkpt>
      <trkpt lat="42.69743" lon="0.66825">
        <ele>2079.5</ele>
        <time>2018-08-08T15:44:17.000Z</time>
      </trkpt>
      <trkpt lat="42.69743" lon="0.66825">
        <ele>2079.5</ele>
        <time>2018-08-08T15:44:18.000Z</time>
      </trkpt>
      <trkpt lat="42.69743" lon="0.66825">
        <ele>2079.5</ele>
        <time>2018-08-08T15:44:19.000Z</time>
      </trkpt>
      <trkpt lat="42.69743" lon="0.66825">
        <ele>2079.5</ele>
        <time>2018-08-08T15:44:20.000Z</time>
      </trkpt>
      <trkpt lat="42.69743" lon="0.66825">
        <ele>2079.5</ele>
        <time>2018-08-08T15:44:21.000Z</time>
      </trkpt>
      <trkpt lat="42.69743" lon="0.66825">
        <ele>2079.5</ele>
        <time>2018-08-08T15:44:22.000Z</time>
      </trkpt>
      <trkpt lat="42.69743" lon="0.66825">
        <ele>2079.5</ele>
        <time>2018-08-08T15:44:23.000Z</time>
      </trkpt>
      <trkpt lat="42.69743" lon="0.66825">
        <ele>2079.5</ele>
        <time>2018-08-08T15:44:24.000Z</time>
      </trkpt>
      <trkpt lat="42.69743" lon="0.66825">
        <ele>2079.5</ele>
        <time>2018-08-08T15:44:25.000Z</time>
      </trkpt>
      <trkpt lat="42.69743" lon="0.66825">
        <ele>2079.5</ele>
        <time>2018-08-08T15:44:26.000Z</time>
      </trkpt>
      <trkpt lat="42.69743" lon="0.66825">
        <ele>2079.5</ele>
        <time>2018-08-08T15:44:27.000Z</time>
      </trkpt>
      <trkpt lat="42.69743" lon="0.66825">
        <ele>2079.5</ele>
        <time>2018-08-08T15:44:28.000Z</time>
      </trkpt>
      <trkpt lat="42.69743" lon="0.66825">
        <ele>2079.5</ele>
        <time>2018-08-08T15:44:29.000Z</time>
      </trkpt>
      <trkpt lat="42.69743" lon="0.66825">
        <ele>2079.5</ele>
        <time>2018-08-08T15:44:30.000Z</time>
      </trkpt>
      <trkpt lat="42.69743" lon="0.66825">
        <ele>2079.5</ele>
        <time>2018-08-08T15:44:31.000Z</time>
      </trkpt>
      <trkpt lat="42.69743" lon="0.66825">
        <ele>2079.5</ele>
        <time>2018-08-08T15:44:32.000Z</time>
      </trkpt>
      <trkpt lat="42.69743" lon="0.66825">
        <ele>2079.5</ele>
        <time>2018-08-08T15:44:33.000Z</time>
      </trkpt>
      <trkpt lat="42.69743" lon="0.66825">
        <ele>2079.5</ele>
        <time>2018-08-08T15:44:34.000Z</time>
      </trkpt>
      <trkpt lat="42.69743" lon="0.66825">
        <ele>2079.5</ele>
        <time>2018-08-08T15:44:35.000Z</time>
      </trkpt>
      <trkpt lat="42.69743" lon="0.66825">
        <ele>2079.5</ele>
        <time>2018-08-08T15:44:36.000Z</time>
      </trkpt>
      <trkpt lat="42.69743" lon="0.66825">
        <ele>2079.5</ele>
        <time>2018-08-08T15:44:37.000Z</time>
      </trkpt>
      <trkpt lat="42.69743" lon="0.66825">
        <ele>2079.5</ele>
        <time>2018-08-08T15:44:38.000Z</time>
      </trkpt>
      <trkpt lat="42.69743" lon="0.66825">
        <ele>2079.5</ele>
        <time>2018-08-08T15:44:39.000Z</time>
      </trkpt>
      <trkpt lat="42.69743" lon="0.66825">
        <ele>2079.5</ele>
        <time>2018-08-08T15:44:40.000Z</time>
      </trkpt>
      <trkpt lat="42.69743" lon="0.66825">
        <ele>2079.5</ele>
        <time>2018-08-08T15:44:41.000Z</time>
      </trkpt>
      <trkpt lat="42.69743" lon="0.66825">
        <ele>2079.5</ele>
        <time>2018-08-08T15:44:42.000Z</time>
      </trkpt>
      <trkpt lat="42.69743" lon="0.66825">
        <ele>2079.5</ele>
        <time>2018-08-08T15:44:43.000Z</time>
      </trkpt>
      <trkpt lat="42.69743" lon="0.66825">
        <ele>2079.5</ele>
        <time>2018-08-08T15:44:44.000Z</time>
      </trkpt>
      <trkpt lat="42.69743" lon="0.66825">
        <ele>2079.5</ele>
        <time>2018-08-08T15:44:45.000Z</time>
      </trkpt>
      <trkpt lat="42.69743" lon="0.66825">
        <ele>2079.5</ele>
        <time>2018-08-08T15:44:46.000Z</time>
      </trkpt>
      <trkpt lat="42.69743" lon="0.66825">
        <ele>2079.5</ele>
        <time>2018-08-08T15:44:47.000Z</time>
      </trkpt>
      <trkpt lat="42.69743" lon="0.66825">
        <ele>2079.5</ele>
        <time>2018-08-08T15:44:48.000Z</time>
      </trkpt>
      <trkpt lat="42.69743" lon="0.66825">
        <ele>2079.5</ele>
        <time>2018-08-08T15:44:49.000Z</time>
      </trkpt>
      <trkpt lat="42.69743" lon="0.66825">
        <ele>2079.5</ele>
        <time>2018-08-08T15:44:50.000Z</time>
      </trkpt>
      <trkpt lat="42.69743" lon="0.66825">
        <ele>2079.5</ele>
        <time>2018-08-08T15:44:51.000Z</time>
      </trkpt>
      <trkpt lat="42.69743" lon="0.66825">
        <ele>2079.5</ele>
        <time>2018-08-08T15:44:52.000Z</time>
      </trkpt>
      <trkpt lat="42.69743" lon="0.66825">
        <ele>2079.5</ele>
        <time>2018-08-08T15:44:53.000Z</time>
      </trkpt>
      <trkpt lat="42.69743" lon="0.66825">
        <ele>2079.5</ele>
        <time>2018-08-08T15:44:54.000Z</time>
      </trkpt>
      <trkpt lat="42.69743" lon="0.66825">
        <ele>2079.5</ele>
        <time>2018-08-08T15:44:55.000Z</time>
      </trkpt>
      <trkpt lat="42.69743" lon="0.66825">
        <ele>2079.5</ele>
        <time>2018-08-08T15:44:56.000Z</time>
      </trkpt>
      <trkpt lat="42.69743" lon="0.66825">
        <ele>2079.5</ele>
        <time>2018-08-08T15:44:57.000Z</time>
      </trkpt>
      <trkpt lat="42.69743" lon="0.66825">
        <ele>2079.5</ele>
        <time>2018-08-08T15:44:58.000Z</time>
      </trkpt>
      <trkpt lat="42.69743" lon="0.66825">
        <ele>2079.5</ele>
        <time>2018-08-08T15:44:59.000Z</time>
      </trkpt>
      <trkpt lat="42.69743" lon="0.66825">
        <ele>2079.5</ele>
        <time>2018-08-08T15:45:00.000Z</time>
      </trkpt>
      <trkpt lat="42.69743" lon="0.66825">
        <ele>2079.5</ele>
        <time>2018-08-08T15:45:01.000Z</time>
      </trkpt>
      <trkpt lat="42.69743" lon="0.66825">
        <ele>2079.5</ele>
        <time>2018-08-08T15:45:02.000Z</time>
      </trkpt>
      <trkpt lat="42.69743" lon="0.66825">
        <ele>2079.5</ele>
        <time>2018-08-08T15:45:03.000Z</time>
      </trkpt>
      <trkpt lat="42.69743" lon="0.66825">
        <ele>2079.5</ele>
        <time>2018-08-08T15:45:04.000Z</time>
      </trkpt>
      <trkpt lat="42.69743" lon="0.66825">
        <ele>2079.5</ele>
        <time>2018-08-08T15:45:05.000Z</time>
      </trkpt>
      <trkpt lat="42.69743" lon="0.66825">
        <ele>2079.5</ele>
        <time>2018-08-08T15:45:06.000Z</time>
      </trkpt>
      <trkpt lat="42.69743" lon="0.66825">
        <ele>2079.5</ele>
        <time>2018-08-08T15:45:07.000Z</time>
      </trkpt>
      <trkpt lat="42.69743" lon="0.66825">
        <ele>2079.5</ele>
        <time>2018-08-08T15:45:08.000Z</time>
      </trkpt>
      <trkpt lat="42.69743" lon="0.66825">
        <ele>2079.5</ele>
        <time>2018-08-08T15:45:09.000Z</time>
      </trkpt>
      <trkpt lat="42.69743" lon="0.66825">
        <ele>2079.5</ele>
        <time>2018-08-08T15:45:10.000Z</time>
      </trkpt>
      <trkpt lat="42.69743" lon="0.66825">
        <ele>2079.5</ele>
        <time>2018-08-08T15:45:11.000Z</time>
      </trkpt>
      <trkpt lat="42.69743" lon="0.66825">
        <ele>2079.5</ele>
        <time>2018-08-08T15:45:12.000Z</time>
      </trkpt>
      <trkpt lat="42.69743" lon="0.66825">
        <ele>2079.5</ele>
        <time>2018-08-08T15:45:13.000Z</time>
      </trkpt>
      <trkpt lat="42.69743" lon="0.66825">
        <ele>2079.5</ele>
        <time>2018-08-08T15:45:14.000Z</time>
      </trkpt>
      <trkpt lat="42.69743" lon="0.66825">
        <ele>2079.5</ele>
        <time>2018-08-08T15:45:15.000Z</time>
      </trkpt>
      <trkpt lat="42.69743" lon="0.66825">
        <ele>2079.5</ele>
        <time>2018-08-08T15:45:16.000Z</time>
      </trkpt>
      <trkpt lat="42.69743" lon="0.66825">
        <ele>2079.5</ele>
        <time>2018-08-08T15:45:17.000Z</time>
      </trkpt>
      <trkpt lat="42.69743" lon="0.66825">
        <ele>2079.5</ele>
        <time>2018-08-08T15:45:18.000Z</time>
      </trkpt>
      <trkpt lat="42.69743" lon="0.66825">
        <ele>2079.5</ele>
        <time>2018-08-08T15:45:19.000Z</time>
      </trkpt>
      <trkpt lat="42.69743" lon="0.66825">
        <ele>2079.5</ele>
        <time>2018-08-08T15:45:20.000Z</time>
      </trkpt>
      <trkpt lat="42.69743" lon="0.66825">
        <ele>2079.5</ele>
        <time>2018-08-08T15:45:21.000Z</time>
      </trkpt>
      <trkpt lat="42.69743" lon="0.66825">
        <ele>2079.5</ele>
        <time>2018-08-08T15:45:22.000Z</time>
      </trkpt>
      <trkpt lat="42.69743" lon="0.66825">
        <ele>2079.5</ele>
        <time>2018-08-08T15:45:23.000Z</time>
      </trkpt>
      <trkpt lat="42.69743" lon="0.66825">
        <ele>2079.5</ele>
        <time>2018-08-08T15:45:24.000Z</time>
      </trkpt>
      <trkpt lat="42.69743" lon="0.66825">
        <ele>2079.5</ele>
        <time>2018-08-08T15:45:25.000Z</time>
      </trkpt>
      <trkpt lat="42.69743" lon="0.66825">
        <ele>2079.5</ele>
        <time>2018-08-08T15:45:26.000Z</time>
      </trkpt>
      <trkpt lat="42.69743" lon="0.66825">
        <ele>2079.5</ele>
        <time>2018-08-08T15:45:27.000Z</time>
      </trkpt>
      <trkpt lat="42.69743" lon="0.66825">
        <ele>2079.5</ele>
        <time>2018-08-08T15:45:28.000Z</time>
      </trkpt>
      <trkpt lat="42.69743" lon="0.66825">
        <ele>2079.5</ele>
        <time>2018-08-08T15:45:29.000Z</time>
      </trkpt>
      <trkpt lat="42.69743" lon="0.66825">
        <ele>2079.5</ele>
        <time>2018-08-08T15:45:30.000Z</time>
      </trkpt>
      <trkpt lat="42.69743" lon="0.66825">
        <ele>2079.5</ele>
        <time>2018-08-08T15:45:31.000Z</time>
      </trkpt>
      <trkpt lat="42.69743" lon="0.66825">
        <ele>2079.5</ele>
        <time>2018-08-08T15:45:32.000Z</time>
      </trkpt>
      <trkpt lat="42.69743" lon="0.66825">
        <ele>2079.5</ele>
        <time>2018-08-08T15:45:33.000Z</time>
      </trkpt>
      <trkpt lat="42.69743" lon="0.66825">
        <ele>2079.5</ele>
        <time>2018-08-08T15:45:34.000Z</time>
      </trkpt>
      <trkpt lat="42.69743" lon="0.66825">
        <ele>2079.5</ele>
        <time>2018-08-08T15:45:35.000Z</time>
      </trkpt>
      <trkpt lat="42.69743" lon="0.66825">
        <ele>2079.5</ele>
        <time>2018-08-08T15:45:36.000Z</time>
      </trkpt>
      <trkpt lat="42.69743" lon="0.66825">
        <ele>2079.5</ele>
        <time>2018-08-08T15:45:37.000Z</time>
      </trkpt>
      <trkpt lat="42.69743" lon="0.66825">
        <ele>2079.5</ele>
        <time>2018-08-08T15:45:38.000Z</time>
      </trkpt>
      <trkpt lat="42.69743" lon="0.66825">
        <ele>2079.5</ele>
        <time>2018-08-08T15:45:39.000Z</time>
      </trkpt>
      <trkpt lat="42.69743" lon="0.66825">
        <ele>2079.5</ele>
        <time>2018-08-08T15:45:40.000Z</time>
      </trkpt>
      <trkpt lat="42.69743" lon="0.66825">
        <ele>2079.5</ele>
        <time>2018-08-08T15:45:41.000Z</time>
      </trkpt>
      <trkpt lat="42.69743" lon="0.66825">
        <ele>2079.5</ele>
        <time>2018-08-08T15:45:42.000Z</time>
      </trkpt>
      <trkpt lat="42.69743" lon="0.66825">
        <ele>2079.5</ele>
        <time>2018-08-08T15:45:43.000Z</time>
      </trkpt>
      <trkpt lat="42.69743" lon="0.66825">
        <ele>2079.5</ele>
        <time>2018-08-08T15:45:44.000Z</time>
      </trkpt>
      <trkpt lat="42.69743" lon="0.66825">
        <ele>2079.5</ele>
        <time>2018-08-08T15:45:45.000Z</time>
      </trkpt>
      <trkpt lat="42.69743" lon="0.66825">
        <ele>2079.5</ele>
        <time>2018-08-08T15:45:46.000Z</time>
      </trkpt>
      <trkpt lat="42.69743" lon="0.66825">
        <ele>2079.5</ele>
        <time>2018-08-08T15:45:47.000Z</time>
      </trkpt>
      <trkpt lat="42.69743" lon="0.66825">
        <ele>2079.5</ele>
        <time>2018-08-08T15:45:48.000Z</time>
      </trkpt>
      <trkpt lat="42.69743" lon="0.66825">
        <ele>2079.5</ele>
        <time>2018-08-08T15:45:49.000Z</time>
      </trkpt>
      <trkpt lat="42.69743" lon="0.66825">
        <ele>2079.5</ele>
        <time>2018-08-08T15:45:50.000Z</time>
      </trkpt>
      <trkpt lat="42.69743" lon="0.66825">
        <ele>2079.5</ele>
        <time>2018-08-08T15:45:51.000Z</time>
      </trkpt>
      <trkpt lat="42.69743" lon="0.66825">
        <ele>2079.5</ele>
        <time>2018-08-08T15:45:52.000Z</time>
      </trkpt>
      <trkpt lat="42.69743" lon="0.66825">
        <ele>2079.5</ele>
        <time>2018-08-08T15:45:53.000Z</time>
      </trkpt>
      <trkpt lat="42.69743" lon="0.66825">
        <ele>2079.5</ele>
        <time>2018-08-08T15:45:54.000Z</time>
      </trkpt>
      <trkpt lat="42.69743" lon="0.66825">
        <ele>2079.5</ele>
        <time>2018-08-08T15:45:55.000Z</time>
      </trkpt>
      <trkpt lat="42.69743" lon="0.66825">
        <ele>2079.5</ele>
        <time>2018-08-08T15:45:56.000Z</time>
      </trkpt>
      <trkpt lat="42.69743" lon="0.66825">
        <ele>2079.5</ele>
        <time>2018-08-08T15:45:57.000Z</time>
      </trkpt>
      <trkpt lat="42.69743" lon="0.66825">
        <ele>2079.5</ele>
        <time>2018-08-08T15:45:58.000Z</time>
      </trkpt>
      <trkpt lat="42.69743" lon="0.66825">
        <ele>2079.5</ele>
        <time>2018-08-08T15:45:59.000Z</time>
      </trkpt>
      <trkpt lat="42.69743" lon="0.66825">
        <ele>2079.5</ele>
        <time>2018-08-08T15:46:00.000Z</time>
      </trkpt>
      <trkpt lat="42.69743" lon="0.66825">
        <ele>2079.5</ele>
        <time>2018-08-08T15:46:01.000Z</time>
      </trkpt>
      <trkpt lat="42.69743" lon="0.66825">
        <ele>2079.5</ele>
        <time>2018-08-08T15:46:02.000Z</time>
      </trkpt>
      <trkpt lat="42.69743" lon="0.66825">
        <ele>2079.5</ele>
        <time>2018-08-08T15:46:03.000Z</time>
      </trkpt>
      <trkpt lat="42.69743" lon="0.66825">
        <ele>2079.5</ele>
        <time>2018-08-08T15:46:04.000Z</time>
      </trkpt>
      <trkpt lat="42.69743" lon="0.66825">
        <ele>2079.5</ele>
        <time>2018-08-08T15:46:05.000Z</time>
      </trkpt>
      <trkpt lat="42.69743" lon="0.66825">
        <ele>2079.5</ele>
        <time>2018-08-08T15:46:06.000Z</time>
      </trkpt>
      <trkpt lat="42.69743" lon="0.66825">
        <ele>2079.5</ele>
        <time>2018-08-08T15:46:07.000Z</time>
      </trkpt>
      <trkpt lat="42.69743" lon="0.66825">
        <ele>2079.5</ele>
        <time>2018-08-08T15:46:08.000Z</time>
      </trkpt>
      <trkpt lat="42.69743" lon="0.66825">
        <ele>2079.5</ele>
        <time>2018-08-08T15:46:09.000Z</time>
      </trkpt>
      <trkpt lat="42.69743" lon="0.66825">
        <ele>2079.5</ele>
        <time>2018-08-08T15:46:10.000Z</time>
      </trkpt>
      <trkpt lat="42.69743" lon="0.66825">
        <ele>2079.5</ele>
        <time>2018-08-08T15:46:11.000Z</time>
      </trkpt>
      <trkpt lat="42.69743" lon="0.66825">
        <ele>2079.5</ele>
        <time>2018-08-08T15:46:12.000Z</time>
      </trkpt>
      <trkpt lat="42.69743" lon="0.66825">
        <ele>2079.5</ele>
        <time>2018-08-08T15:46:13.000Z</time>
      </trkpt>
      <trkpt lat="42.69743" lon="0.66825">
        <ele>2079.5</ele>
        <time>2018-08-08T15:46:14.000Z</time>
      </trkpt>
      <trkpt lat="42.69743" lon="0.66825">
        <ele>2079.5</ele>
        <time>2018-08-08T15:46:15.000Z</time>
      </trkpt>
      <trkpt lat="42.69743" lon="0.66825">
        <ele>2079.5</ele>
        <time>2018-08-08T15:46:16.000Z</time>
      </trkpt>
      <trkpt lat="42.69743" lon="0.66825">
        <ele>2079.5</ele>
        <time>2018-08-08T15:46:17.000Z</time>
      </trkpt>
      <trkpt lat="42.69743" lon="0.66825">
        <ele>2079.5</ele>
        <time>2018-08-08T15:46:18.000Z</time>
      </trkpt>
      <trkpt lat="42.69743" lon="0.66825">
        <ele>2079.5</ele>
        <time>2018-08-08T15:46:19.000Z</time>
      </trkpt>
      <trkpt lat="42.69743" lon="0.66825">
        <ele>2079.5</ele>
        <time>2018-08-08T15:46:20.000Z</time>
      </trkpt>
      <trkpt lat="42.69743" lon="0.66825">
        <ele>2079.5</ele>
        <time>2018-08-08T15:46:21.000Z</time>
      </trkpt>
      <trkpt lat="42.69743" lon="0.66825">
        <ele>2079.5</ele>
        <time>2018-08-08T15:46:22.000Z</time>
      </trkpt>
      <trkpt lat="42.69743" lon="0.66825">
        <ele>2079.5</ele>
        <time>2018-08-08T15:46:23.000Z</time>
      </trkpt>
      <trkpt lat="42.69743" lon="0.66825">
        <ele>2079.5</ele>
        <time>2018-08-08T15:46:24.000Z</time>
      </trkpt>
      <trkpt lat="42.69743" lon="0.66825">
        <ele>2079.5</ele>
        <time>2018-08-08T15:46:25.000Z</time>
      </trkpt>
      <trkpt lat="42.69743" lon="0.66825">
        <ele>2079.5</ele>
        <time>2018-08-08T15:46:26.000Z</time>
      </trkpt>
      <trkpt lat="42.69743" lon="0.66825">
        <ele>2079.5</ele>
        <time>2018-08-08T15:46:27.000Z</time>
      </trkpt>
      <trkpt lat="42.69743" lon="0.66825">
        <ele>2079.5</ele>
        <time>2018-08-08T15:46:28.000Z</time>
      </trkpt>
      <trkpt lat="42.69743" lon="0.66825">
        <ele>2079.5</ele>
        <time>2018-08-08T15:46:29.000Z</time>
      </trkpt>
      <trkpt lat="42.69743" lon="0.66825">
        <ele>2079.5</ele>
        <time>2018-08-08T15:46:30.000Z</time>
      </trkpt>
      <trkpt lat="42.69743" lon="0.66825">
        <ele>2079.5</ele>
        <time>2018-08-08T15:46:31.000Z</time>
      </trkpt>
      <trkpt lat="42.69743" lon="0.66825">
        <ele>2079.5</ele>
        <time>2018-08-08T15:46:32.000Z</time>
      </trkpt>
      <trkpt lat="42.69743" lon="0.66825">
        <ele>2079.5</ele>
        <time>2018-08-08T15:46:33.000Z</time>
      </trkpt>
      <trkpt lat="42.69743" lon="0.66825">
        <ele>2079.5</ele>
        <time>2018-08-08T15:46:34.000Z</time>
      </trkpt>
      <trkpt lat="42.69743" lon="0.66825">
        <ele>2079.5</ele>
        <time>2018-08-08T15:46:35.000Z</time>
      </trkpt>
      <trkpt lat="42.69743" lon="0.66825">
        <ele>2079.5</ele>
        <time>2018-08-08T15:46:36.000Z</time>
      </trkpt>
      <trkpt lat="42.69743" lon="0.66825">
        <ele>2079.5</ele>
        <time>2018-08-08T15:46:37.000Z</time>
      </trkpt>
      <trkpt lat="42.69743" lon="0.66825">
        <ele>2079.5</ele>
        <time>2018-08-08T15:46:38.000Z</time>
      </trkpt>
      <trkpt lat="42.69743" lon="0.66825">
        <ele>2079.5</ele>
        <time>2018-08-08T15:46:39.000Z</time>
      </trkpt>
      <trkpt lat="42.69743" lon="0.66825">
        <ele>2079.5</ele>
        <time>2018-08-08T15:46:40.000Z</time>
      </trkpt>
      <trkpt lat="42.69743" lon="0.66825">
        <ele>2079.5</ele>
        <time>2018-08-08T15:46:41.000Z</time>
      </trkpt>
      <trkpt lat="42.69743" lon="0.66825">
        <ele>2079.5</ele>
        <time>2018-08-08T15:46:42.000Z</time>
      </trkpt>
      <trkpt lat="42.69743" lon="0.66825">
        <ele>2079.5</ele>
        <time>2018-08-08T15:46:43.000Z</time>
      </trkpt>
      <trkpt lat="42.69743" lon="0.66825">
        <ele>2079.5</ele>
        <time>2018-08-08T15:46:44.000Z</time>
      </trkpt>
      <trkpt lat="42.69743" lon="0.66825">
        <ele>2079.5</ele>
        <time>2018-08-08T15:46:45.000Z</time>
      </trkpt>
      <trkpt lat="42.69743" lon="0.66825">
        <ele>2079.5</ele>
        <time>2018-08-08T15:46:46.000Z</time>
      </trkpt>
      <trkpt lat="42.69743" lon="0.66825">
        <ele>2079.5</ele>
        <time>2018-08-08T15:46:47.000Z</time>
      </trkpt>
      <trkpt lat="42.69743" lon="0.66825">
        <ele>2079.5</ele>
        <time>2018-08-08T15:46:48.000Z</time>
      </trkpt>
      <trkpt lat="42.69743" lon="0.66825">
        <ele>2079.5</ele>
        <time>2018-08-08T15:46:49.000Z</time>
      </trkpt>
      <trkpt lat="42.69743" lon="0.66825">
        <ele>2079.5</ele>
        <time>2018-08-08T15:46:50.000Z</time>
      </trkpt>
      <trkpt lat="42.69743" lon="0.66825">
        <ele>2079.5</ele>
        <time>2018-08-08T15:46:51.000Z</time>
      </trkpt>
      <trkpt lat="42.69743" lon="0.66825">
        <ele>2079.5</ele>
        <time>2018-08-08T15:46:52.000Z</time>
      </trkpt>
      <trkpt lat="42.69743" lon="0.66825">
        <ele>2079.5</ele>
        <time>2018-08-08T15:46:53.000Z</time>
      </trkpt>
      <trkpt lat="42.69743" lon="0.66825">
        <ele>2079.5</ele>
        <time>2018-08-08T15:46:54.000Z</time>
      </trkpt>
      <trkpt lat="42.69743" lon="0.66825">
        <ele>2079.5</ele>
        <time>2018-08-08T15:46:55.000Z</time>
      </trkpt>
      <trkpt lat="42.69743" lon="0.66825">
        <ele>2079.5</ele>
        <time>2018-08-08T15:46:56.000Z</time>
      </trkpt>
      <trkpt lat="42.69743" lon="0.66825">
        <ele>2079.5</ele>
        <time>2018-08-08T15:46:57.000Z</time>
      </trkpt>
      <trkpt lat="42.69743" lon="0.66825">
        <ele>2079.5</ele>
        <time>2018-08-08T15:46:58.000Z</time>
      </trkpt>
      <trkpt lat="42.69743" lon="0.66825">
        <ele>2079.5</ele>
        <time>2018-08-08T15:46:59.000Z</time>
      </trkpt>
      <trkpt lat="42.69743" lon="0.66825">
        <ele>2079.5</ele>
        <time>2018-08-08T15:47:00.000Z</time>
      </trkpt>
      <trkpt lat="42.69743" lon="0.66825">
        <ele>2079.5</ele>
        <time>2018-08-08T15:47:01.000Z</time>
      </trkpt>
      <trkpt lat="42.69743" lon="0.66825">
        <ele>2079.5</ele>
        <time>2018-08-08T15:47:02.000Z</time>
      </trkpt>
      <trkpt lat="42.69743" lon="0.66825">
        <ele>2079.5</ele>
        <time>2018-08-08T15:47:03.000Z</time>
      </trkpt>
      <trkpt lat="42.69743" lon="0.66825">
        <ele>2079.5</ele>
        <time>2018-08-08T15:47:04.000Z</time>
      </trkpt>
      <trkpt lat="42.69743" lon="0.66825">
        <ele>2079.5</ele>
        <time>2018-08-08T15:47:05.000Z</time>
      </trkpt>
      <trkpt lat="42.69743" lon="0.66825">
        <ele>2079.5</ele>
        <time>2018-08-08T15:47:06.000Z</time>
      </trkpt>
      <trkpt lat="42.69743" lon="0.66825">
        <ele>2079.5</ele>
        <time>2018-08-08T15:47:07.000Z</time>
      </trkpt>
      <trkpt lat="42.69743" lon="0.66825">
        <ele>2079.5</ele>
        <time>2018-08-08T15:47:08.000Z</time>
      </trkpt>
      <trkpt lat="42.69743" lon="0.66825">
        <ele>2079.5</ele>
        <time>2018-08-08T15:47:09.000Z</time>
      </trkpt>
      <trkpt lat="42.69743" lon="0.66825">
        <ele>2079.5</ele>
        <time>2018-08-08T15:47:10.000Z</time>
      </trkpt>
      <trkpt lat="42.69743" lon="0.66825">
        <ele>2079.5</ele>
        <time>2018-08-08T15:47:11.000Z</time>
      </trkpt>
      <trkpt lat="42.69743" lon="0.66825">
        <ele>2079.5</ele>
        <time>2018-08-08T15:47:12.000Z</time>
      </trkpt>
      <trkpt lat="42.69743" lon="0.66825">
        <ele>2079.5</ele>
        <time>2018-08-08T15:47:13.000Z</time>
      </trkpt>
      <trkpt lat="42.69743" lon="0.66825">
        <ele>2079.5</ele>
        <time>2018-08-08T15:47:14.000Z</time>
      </trkpt>
      <trkpt lat="42.69743" lon="0.66825">
        <ele>2079.5</ele>
        <time>2018-08-08T15:47:15.000Z</time>
      </trkpt>
      <trkpt lat="42.69743" lon="0.66825">
        <ele>2079.5</ele>
        <time>2018-08-08T15:47:16.000Z</time>
      </trkpt>
      <trkpt lat="42.69743" lon="0.66825">
        <ele>2079.5</ele>
        <time>2018-08-08T15:47:17.000Z</time>
      </trkpt>
      <trkpt lat="42.69743" lon="0.66825">
        <ele>2079.5</ele>
        <time>2018-08-08T15:47:18.000Z</time>
      </trkpt>
      <trkpt lat="42.69743" lon="0.66825">
        <ele>2079.5</ele>
        <time>2018-08-08T15:47:19.000Z</time>
      </trkpt>
      <trkpt lat="42.69743" lon="0.66825">
        <ele>2079.5</ele>
        <time>2018-08-08T15:47:20.000Z</time>
      </trkpt>
      <trkpt lat="42.69743" lon="0.66825">
        <ele>2079.5</ele>
        <time>2018-08-08T15:47:21.000Z</time>
      </trkpt>
      <trkpt lat="42.69743" lon="0.66825">
        <ele>2079.5</ele>
        <time>2018-08-08T15:47:22.000Z</time>
      </trkpt>
      <trkpt lat="42.69743" lon="0.66825">
        <ele>2079.5</ele>
        <time>2018-08-08T15:47:23.000Z</time>
      </trkpt>
      <trkpt lat="42.69743" lon="0.66825">
        <ele>2079.5</ele>
        <time>2018-08-08T15:47:24.000Z</time>
      </trkpt>
      <trkpt lat="42.69743" lon="0.66825">
        <ele>2079.5</ele>
        <time>2018-08-08T15:47:25.000Z</time>
      </trkpt>
      <trkpt lat="42.69743" lon="0.66825">
        <ele>2079.5</ele>
        <time>2018-08-08T15:47:26.000Z</time>
      </trkpt>
      <trkpt lat="42.69743" lon="0.66825">
        <ele>2079.5</ele>
        <time>2018-08-08T15:47:27.000Z</time>
      </trkpt>
      <trkpt lat="42.69743" lon="0.66825">
        <ele>2079.5</ele>
        <time>2018-08-08T15:47:28.000Z</time>
      </trkpt>
      <trkpt lat="42.69743" lon="0.66825">
        <ele>2079.5</ele>
        <time>2018-08-08T15:47:29.000Z</time>
      </trkpt>
      <trkpt lat="42.69743" lon="0.66825">
        <ele>2079.5</ele>
        <time>2018-08-08T15:47:30.000Z</time>
      </trkpt>
      <trkpt lat="42.69743" lon="0.66825">
        <ele>2079.5</ele>
        <time>2018-08-08T15:47:31.000Z</time>
      </trkpt>
      <trkpt lat="42.69743" lon="0.66825">
        <ele>2079.5</ele>
        <time>2018-08-08T15:47:32.000Z</time>
      </trkpt>
      <trkpt lat="42.69743" lon="0.66825">
        <ele>2079.5</ele>
        <time>2018-08-08T15:47:33.000Z</time>
      </trkpt>
      <trkpt lat="42.69743" lon="0.66825">
        <ele>2079.5</ele>
        <time>2018-08-08T15:47:34.000Z</time>
      </trkpt>
      <trkpt lat="42.69743" lon="0.66825">
        <ele>2079.5</ele>
        <time>2018-08-08T15:47:35.000Z</time>
      </trkpt>
      <trkpt lat="42.69743" lon="0.66825">
        <ele>2079.5</ele>
        <time>2018-08-08T15:47:36.000Z</time>
      </trkpt>
      <trkpt lat="42.69743" lon="0.66825">
        <ele>2079.5</ele>
        <time>2018-08-08T15:47:37.000Z</time>
      </trkpt>
      <trkpt lat="42.69743" lon="0.66825">
        <ele>2079.5</ele>
        <time>2018-08-08T15:47:38.000Z</time>
      </trkpt>
      <trkpt lat="42.69743" lon="0.66825">
        <ele>2079.5</ele>
        <time>2018-08-08T15:47:39.000Z</time>
      </trkpt>
      <trkpt lat="42.69743" lon="0.66825">
        <ele>2079.5</ele>
        <time>2018-08-08T15:47:40.000Z</time>
      </trkpt>
      <trkpt lat="42.69743" lon="0.66825">
        <ele>2079.5</ele>
        <time>2018-08-08T15:47:41.000Z</time>
      </trkpt>
      <trkpt lat="42.69743" lon="0.66825">
        <ele>2079.5</ele>
        <time>2018-08-08T15:47:42.000Z</time>
      </trkpt>
      <trkpt lat="42.69743" lon="0.66825">
        <ele>2079.5</ele>
        <time>2018-08-08T15:47:43.000Z</time>
      </trkpt>
      <trkpt lat="42.69743" lon="0.66825">
        <ele>2079.5</ele>
        <time>2018-08-08T15:47:44.000Z</time>
      </trkpt>
      <trkpt lat="42.69743" lon="0.66825">
        <ele>2079.5</ele>
        <time>2018-08-08T15:47:45.000Z</time>
      </trkpt>
      <trkpt lat="42.69743" lon="0.66825">
        <ele>2079.5</ele>
        <time>2018-08-08T15:47:46.000Z</time>
      </trkpt>
      <trkpt lat="42.69743" lon="0.66825">
        <ele>2079.5</ele>
        <time>2018-08-08T15:47:47.000Z</time>
      </trkpt>
      <trkpt lat="42.69743" lon="0.66825">
        <ele>2079.5</ele>
        <time>2018-08-08T15:47:48.000Z</time>
      </trkpt>
      <trkpt lat="42.69743" lon="0.66825">
        <ele>2079.5</ele>
        <time>2018-08-08T15:47:49.000Z</time>
      </trkpt>
      <trkpt lat="42.69743" lon="0.66825">
        <ele>2079.5</ele>
        <time>2018-08-08T15:47:50.000Z</time>
      </trkpt>
      <trkpt lat="42.69743" lon="0.66825">
        <ele>2079.5</ele>
        <time>2018-08-08T15:47:51.000Z</time>
      </trkpt>
      <trkpt lat="42.69743" lon="0.66825">
        <ele>2079.5</ele>
        <time>2018-08-08T15:47:52.000Z</time>
      </trkpt>
      <trkpt lat="42.69743" lon="0.66825">
        <ele>2079.5</ele>
        <time>2018-08-08T15:47:53.000Z</time>
      </trkpt>
      <trkpt lat="42.69743" lon="0.66825">
        <ele>2079.5</ele>
        <time>2018-08-08T15:47:54.000Z</time>
      </trkpt>
      <trkpt lat="42.69743" lon="0.66825">
        <ele>2079.5</ele>
        <time>2018-08-08T15:47:55.000Z</time>
      </trkpt>
      <trkpt lat="42.69743" lon="0.66825">
        <ele>2079.5</ele>
        <time>2018-08-08T15:47:56.000Z</time>
      </trkpt>
      <trkpt lat="42.69743" lon="0.66825">
        <ele>2079.5</ele>
        <time>2018-08-08T15:47:57.000Z</time>
      </trkpt>
      <trkpt lat="42.69743" lon="0.66825">
        <ele>2079.5</ele>
        <time>2018-08-08T15:47:58.000Z</time>
      </trkpt>
      <trkpt lat="42.69743" lon="0.66825">
        <ele>2079.5</ele>
        <time>2018-08-08T15:47:59.000Z</time>
      </trkpt>
      <trkpt lat="42.69743" lon="0.66825">
        <ele>2079.5</ele>
        <time>2018-08-08T15:48:00.000Z</time>
      </trkpt>
      <trkpt lat="42.69743" lon="0.66825">
        <ele>2079.5</ele>
        <time>2018-08-08T15:48:01.000Z</time>
      </trkpt>
      <trkpt lat="42.69743" lon="0.66825">
        <ele>2079.5</ele>
        <time>2018-08-08T15:48:02.000Z</time>
      </trkpt>
      <trkpt lat="42.69743" lon="0.66825">
        <ele>2079.5</ele>
        <time>2018-08-08T15:48:03.000Z</time>
      </trkpt>
      <trkpt lat="42.69743" lon="0.66825">
        <ele>2079.5</ele>
        <time>2018-08-08T15:48:04.000Z</time>
      </trkpt>
      <trkpt lat="42.69743" lon="0.66825">
        <ele>2079.5</ele>
        <time>2018-08-08T15:48:05.000Z</time>
      </trkpt>
      <trkpt lat="42.69743" lon="0.66825">
        <ele>2079.5</ele>
        <time>2018-08-08T15:48:06.000Z</time>
      </trkpt>
      <trkpt lat="42.69743" lon="0.66825">
        <ele>2079.5</ele>
        <time>2018-08-08T15:48:07.000Z</time>
      </trkpt>
      <trkpt lat="42.69743" lon="0.66825">
        <ele>2079.5</ele>
        <time>2018-08-08T15:48:08.000Z</time>
      </trkpt>
      <trkpt lat="42.69743" lon="0.66825">
        <ele>2079.5</ele>
        <time>2018-08-08T15:48:09.000Z</time>
      </trkpt>
      <trkpt lat="42.69743" lon="0.66825">
        <ele>2079.5</ele>
        <time>2018-08-08T15:48:10.000Z</time>
      </trkpt>
      <trkpt lat="42.69743" lon="0.66825">
        <ele>2079.5</ele>
        <time>2018-08-08T15:48:11.000Z</time>
      </trkpt>
      <trkpt lat="42.69743" lon="0.66825">
        <ele>2079.5</ele>
        <time>2018-08-08T15:48:12.000Z</time>
      </trkpt>
      <trkpt lat="42.69743" lon="0.66825">
        <ele>2079.5</ele>
        <time>2018-08-08T15:48:13.000Z</time>
      </trkpt>
      <trkpt lat="42.69743" lon="0.66825">
        <ele>2079.5</ele>
        <time>2018-08-08T15:48:14.000Z</time>
      </trkpt>
      <trkpt lat="42.69743" lon="0.66825">
        <ele>2079.5</ele>
        <time>2018-08-08T15:48:15.000Z</time>
      </trkpt>
      <trkpt lat="42.69743" lon="0.66825">
        <ele>2079.5</ele>
        <time>2018-08-08T15:48:16.000Z</time>
      </trkpt>
      <trkpt lat="42.69743" lon="0.66825">
        <ele>2079.5</ele>
        <time>2018-08-08T15:48:17.000Z</time>
      </trkpt>
      <trkpt lat="42.69743" lon="0.66825">
        <ele>2079.5</ele>
        <time>2018-08-08T15:48:18.000Z</time>
      </trkpt>
      <trkpt lat="42.69743" lon="0.66825">
        <ele>2079.5</ele>
        <time>2018-08-08T15:48:19.000Z</time>
      </trkpt>
      <trkpt lat="42.69743" lon="0.66825">
        <ele>2079.5</ele>
        <time>2018-08-08T15:48:20.000Z</time>
      </trkpt>
      <trkpt lat="42.69743" lon="0.66825">
        <ele>2079.5</ele>
        <time>2018-08-08T15:48:21.000Z</time>
      </trkpt>
      <trkpt lat="42.69743" lon="0.66825">
        <ele>2079.5</ele>
        <time>2018-08-08T15:48:22.000Z</time>
      </trkpt>
      <trkpt lat="42.69743" lon="0.66825">
        <ele>2079.5</ele>
        <time>2018-08-08T15:48:23.000Z</time>
      </trkpt>
      <trkpt lat="42.69743" lon="0.66825">
        <ele>2079.5</ele>
        <time>2018-08-08T15:48:24.000Z</time>
      </trkpt>
      <trkpt lat="42.69743" lon="0.66825">
        <ele>2079.5</ele>
        <time>2018-08-08T15:48:25.000Z</time>
      </trkpt>
      <trkpt lat="42.69743" lon="0.66825">
        <ele>2079.5</ele>
        <time>2018-08-08T15:48:26.000Z</time>
      </trkpt>
      <trkpt lat="42.69743" lon="0.66825">
        <ele>2079.5</ele>
        <time>2018-08-08T15:48:27.000Z</time>
      </trkpt>
      <trkpt lat="42.69743" lon="0.66825">
        <ele>2079.5</ele>
        <time>2018-08-08T15:48:28.000Z</time>
      </trkpt>
      <trkpt lat="42.69743" lon="0.66825">
        <ele>2079.5</ele>
        <time>2018-08-08T15:48:29.000Z</time>
      </trkpt>
      <trkpt lat="42.69743" lon="0.66825">
        <ele>2079.5</ele>
        <time>2018-08-08T15:48:30.000Z</time>
      </trkpt>
      <trkpt lat="42.69743" lon="0.66825">
        <ele>2079.5</ele>
        <time>2018-08-08T15:48:31.000Z</time>
      </trkpt>
      <trkpt lat="42.69743" lon="0.66825">
        <ele>2079.5</ele>
        <time>2018-08-08T15:48:32.000Z</time>
      </trkpt>
      <trkpt lat="42.69743" lon="0.66825">
        <ele>2079.5</ele>
        <time>2018-08-08T15:48:33.000Z</time>
      </trkpt>
      <trkpt lat="42.69743" lon="0.66825">
        <ele>2079.5</ele>
        <time>2018-08-08T15:48:34.000Z</time>
      </trkpt>
      <trkpt lat="42.69743" lon="0.66825">
        <ele>2079.5</ele>
        <time>2018-08-08T15:48:35.000Z</time>
      </trkpt>
      <trkpt lat="42.69743" lon="0.66825">
        <ele>2079.5</ele>
        <time>2018-08-08T15:48:36.000Z</time>
      </trkpt>
      <trkpt lat="42.69743" lon="0.66825">
        <ele>2079.5</ele>
        <time>2018-08-08T15:48:37.000Z</time>
      </trkpt>
      <trkpt lat="42.69743" lon="0.66825">
        <ele>2079.5</ele>
        <time>2018-08-08T15:48:38.000Z</time>
      </trkpt>
      <trkpt lat="42.69743" lon="0.66825">
        <ele>2079.5</ele>
        <time>2018-08-08T15:48:39.000Z</time>
      </trkpt>
      <trkpt lat="42.69743" lon="0.66825">
        <ele>2079.5</ele>
        <time>2018-08-08T15:48:40.000Z</time>
      </trkpt>
      <trkpt lat="42.69743" lon="0.66825">
        <ele>2079.5</ele>
        <time>2018-08-08T15:48:41.000Z</time>
      </trkpt>
      <trkpt lat="42.69743" lon="0.66825">
        <ele>2079.5</ele>
        <time>2018-08-08T15:48:42.000Z</time>
      </trkpt>
      <trkpt lat="42.69743" lon="0.66825">
        <ele>2079.5</ele>
        <time>2018-08-08T15:48:43.000Z</time>
      </trkpt>
      <trkpt lat="42.69743" lon="0.66825">
        <ele>2079.5</ele>
        <time>2018-08-08T15:48:44.000Z</time>
      </trkpt>
      <trkpt lat="42.69743" lon="0.66825">
        <ele>2079.5</ele>
        <time>2018-08-08T15:48:45.000Z</time>
      </trkpt>
      <trkpt lat="42.69743" lon="0.66825">
        <ele>2079.5</ele>
        <time>2018-08-08T15:48:46.000Z</time>
      </trkpt>
      <trkpt lat="42.69743" lon="0.66825">
        <ele>2079.5</ele>
        <time>2018-08-08T15:48:47.000Z</time>
      </trkpt>
      <trkpt lat="42.69743" lon="0.66825">
        <ele>2079.5</ele>
        <time>2018-08-08T15:48:48.000Z</time>
      </trkpt>
      <trkpt lat="42.69743" lon="0.66825">
        <ele>2079.5</ele>
        <time>2018-08-08T15:48:49.000Z</time>
      </trkpt>
      <trkpt lat="42.69743" lon="0.66825">
        <ele>2079.5</ele>
        <time>2018-08-08T15:48:50.000Z</time>
      </trkpt>
      <trkpt lat="42.69743" lon="0.66825">
        <ele>2079.5</ele>
        <time>2018-08-08T15:48:51.000Z</time>
      </trkpt>
      <trkpt lat="42.69743" lon="0.66825">
        <ele>2079.5</ele>
        <time>2018-08-08T15:48:52.000Z</time>
      </trkpt>
      <trkpt lat="42.69743" lon="0.66825">
        <ele>2079.5</ele>
        <time>2018-08-08T15:48:53.000Z</time>
      </trkpt>
      <trkpt lat="42.69743" lon="0.66825">
        <ele>2079.5</ele>
        <time>2018-08-08T15:48:54.000Z</time>
      </trkpt>
      <trkpt lat="42.69743" lon="0.66825">
        <ele>2079.5</ele>
        <time>2018-08-08T15:48:55.000Z</time>
      </trkpt>
      <trkpt lat="42.69743" lon="0.66825">
        <ele>2079.5</ele>
        <time>2018-08-08T15:48:56.000Z</time>
      </trkpt>
      <trkpt lat="42.69743" lon="0.66825">
        <ele>2079.5</ele>
        <time>2018-08-08T15:48:57.000Z</time>
      </trkpt>
      <trkpt lat="42.69743" lon="0.66825">
        <ele>2079.5</ele>
        <time>2018-08-08T15:48:58.000Z</time>
      </trkpt>
      <trkpt lat="42.69743" lon="0.66825">
        <ele>2079.5</ele>
        <time>2018-08-08T15:48:59.000Z</time>
      </trkpt>
      <trkpt lat="42.69743" lon="0.66825">
        <ele>2079.5</ele>
        <time>2018-08-08T15:49:00.000Z</time>
      </trkpt>
      <trkpt lat="42.69743" lon="0.66825">
        <ele>2079.5</ele>
        <time>2018-08-08T15:49:01.000Z</time>
      </trkpt>
      <trkpt lat="42.69743" lon="0.66825">
        <ele>2079.5</ele>
        <time>2018-08-08T15:49:02.000Z</time>
      </trkpt>
      <trkpt lat="42.69743" lon="0.66825">
        <ele>2079.5</ele>
        <time>2018-08-08T15:49:03.000Z</time>
      </trkpt>
      <trkpt lat="42.69743" lon="0.66825">
        <ele>2079.5</ele>
        <time>2018-08-08T15:49:04.000Z</time>
      </trkpt>
      <trkpt lat="42.69743" lon="0.66825">
        <ele>2079.5</ele>
        <time>2018-08-08T15:49:05.000Z</time>
      </trkpt>
      <trkpt lat="42.69743" lon="0.66825">
        <ele>2079.5</ele>
        <time>2018-08-08T15:49:06.000Z</time>
      </trkpt>
      <trkpt lat="42.69743" lon="0.66825">
        <ele>2079.5</ele>
        <time>2018-08-08T15:49:07.000Z</time>
      </trkpt>
      <trkpt lat="42.69743" lon="0.66825">
        <ele>2079.5</ele>
        <time>2018-08-08T15:49:08.000Z</time>
      </trkpt>
      <trkpt lat="42.69743" lon="0.66825">
        <ele>2079.5</ele>
        <time>2018-08-08T15:49:09.000Z</time>
      </trkpt>
      <trkpt lat="42.69743" lon="0.66825">
        <ele>2079.5</ele>
        <time>2018-08-08T15:49:10.000Z</time>
      </trkpt>
      <trkpt lat="42.69743" lon="0.66825">
        <ele>2079.5</ele>
        <time>2018-08-08T15:49:11.000Z</time>
      </trkpt>
      <trkpt lat="42.69743" lon="0.66825">
        <ele>2079.5</ele>
        <time>2018-08-08T15:49:12.000Z</time>
      </trkpt>
      <trkpt lat="42.69743" lon="0.66825">
        <ele>2079.5</ele>
        <time>2018-08-08T15:49:13.000Z</time>
      </trkpt>
      <trkpt lat="42.69743" lon="0.66825">
        <ele>2079.5</ele>
        <time>2018-08-08T15:49:14.000Z</time>
      </trkpt>
      <trkpt lat="42.69743" lon="0.66825">
        <ele>2079.5</ele>
        <time>2018-08-08T15:49:15.000Z</time>
      </trkpt>
      <trkpt lat="42.69743" lon="0.66825">
        <ele>2079.5</ele>
        <time>2018-08-08T15:49:16.000Z</time>
      </trkpt>
      <trkpt lat="42.69743" lon="0.66825">
        <ele>2079.5</ele>
        <time>2018-08-08T15:49:17.000Z</time>
      </trkpt>
      <trkpt lat="42.69743" lon="0.66825">
        <ele>2079.5</ele>
        <time>2018-08-08T15:49:18.000Z</time>
      </trkpt>
      <trkpt lat="42.69743" lon="0.66825">
        <ele>2079.5</ele>
        <time>2018-08-08T15:49:19.000Z</time>
      </trkpt>
      <trkpt lat="42.69743" lon="0.66825">
        <ele>2079.5</ele>
        <time>2018-08-08T15:49:20.000Z</time>
      </trkpt>
      <trkpt lat="42.69743" lon="0.66825">
        <ele>2079.5</ele>
        <time>2018-08-08T15:49:21.000Z</time>
      </trkpt>
      <trkpt lat="42.69743" lon="0.66825">
        <ele>2079.5</ele>
        <time>2018-08-08T15:49:22.000Z</time>
      </trkpt>
      <trkpt lat="42.69743" lon="0.66825">
        <ele>2079.5</ele>
        <time>2018-08-08T15:49:23.000Z</time>
      </trkpt>
      <trkpt lat="42.69743" lon="0.66825">
        <ele>2079.5</ele>
        <time>2018-08-08T15:49:24.000Z</time>
      </trkpt>
      <trkpt lat="42.69743" lon="0.66825">
        <ele>2079.5</ele>
        <time>2018-08-08T15:49:25.000Z</time>
      </trkpt>
      <trkpt lat="42.69743" lon="0.66825">
        <ele>2079.5</ele>
        <time>2018-08-08T15:49:26.000Z</time>
      </trkpt>
      <trkpt lat="42.69743" lon="0.66825">
        <ele>2079.5</ele>
        <time>2018-08-08T15:49:27.000Z</time>
      </trkpt>
      <trkpt lat="42.69743" lon="0.66825">
        <ele>2079.5</ele>
        <time>2018-08-08T15:49:28.000Z</time>
      </trkpt>
      <trkpt lat="42.69743" lon="0.66825">
        <ele>2079.5</ele>
        <time>2018-08-08T15:49:29.000Z</time>
      </trkpt>
      <trkpt lat="42.69743" lon="0.66825">
        <ele>2079.5</ele>
        <time>2018-08-08T15:49:30.000Z</time>
      </trkpt>
      <trkpt lat="42.69743" lon="0.66825">
        <ele>2079.5</ele>
        <time>2018-08-08T15:49:31.000Z</time>
      </trkpt>
      <trkpt lat="42.69743" lon="0.66825">
        <ele>2079.5</ele>
        <time>2018-08-08T15:49:32.000Z</time>
      </trkpt>
      <trkpt lat="42.69743" lon="0.66825">
        <ele>2079.5</ele>
        <time>2018-08-08T15:49:33.000Z</time>
      </trkpt>
      <trkpt lat="42.69743" lon="0.66825">
        <ele>2079.5</ele>
        <time>2018-08-08T15:49:34.000Z</time>
      </trkpt>
      <trkpt lat="42.69743" lon="0.66825">
        <ele>2079.5</ele>
        <time>2018-08-08T15:49:35.000Z</time>
      </trkpt>
      <trkpt lat="42.69743" lon="0.66825">
        <ele>2079.5</ele>
        <time>2018-08-08T15:49:36.000Z</time>
      </trkpt>
      <trkpt lat="42.69743" lon="0.66825">
        <ele>2079.5</ele>
        <time>2018-08-08T15:49:37.000Z</time>
      </trkpt>
      <trkpt lat="42.69743" lon="0.66825">
        <ele>2079.5</ele>
        <time>2018-08-08T15:49:38.000Z</time>
      </trkpt>
      <trkpt lat="42.69743" lon="0.66825">
        <ele>2079.5</ele>
        <time>2018-08-08T15:49:39.000Z</time>
      </trkpt>
      <trkpt lat="42.69743" lon="0.66825">
        <ele>2079.5</ele>
        <time>2018-08-08T15:49:40.000Z</time>
      </trkpt>
      <trkpt lat="42.69743" lon="0.66825">
        <ele>2079.5</ele>
        <time>2018-08-08T15:49:41.000Z</time>
      </trkpt>
      <trkpt lat="42.69743" lon="0.66825">
        <ele>2079.5</ele>
        <time>2018-08-08T15:49:42.000Z</time>
      </trkpt>
      <trkpt lat="42.69743" lon="0.66825">
        <ele>2079.5</ele>
        <time>2018-08-08T15:49:43.000Z</time>
      </trkpt>
      <trkpt lat="42.69743" lon="0.66825">
        <ele>2079.5</ele>
        <time>2018-08-08T15:49:44.000Z</time>
      </trkpt>
      <trkpt lat="42.69743" lon="0.66825">
        <ele>2079.5</ele>
        <time>2018-08-08T15:49:45.000Z</time>
      </trkpt>
      <trkpt lat="42.69743" lon="0.66825">
        <ele>2079.5</ele>
        <time>2018-08-08T15:49:46.000Z</time>
      </trkpt>
      <trkpt lat="42.69743" lon="0.66825">
        <ele>2079.5</ele>
        <time>2018-08-08T15:49:47.000Z</time>
      </trkpt>
      <trkpt lat="42.69743" lon="0.66825">
        <ele>2079.5</ele>
        <time>2018-08-08T15:49:48.000Z</time>
      </trkpt>
      <trkpt lat="42.69743" lon="0.66825">
        <ele>2079.5</ele>
        <time>2018-08-08T15:49:49.000Z</time>
      </trkpt>
      <trkpt lat="42.69743" lon="0.66825">
        <ele>2079.5</ele>
        <time>2018-08-08T15:49:50.000Z</time>
      </trkpt>
      <trkpt lat="42.69743" lon="0.66825">
        <ele>2079.5</ele>
        <time>2018-08-08T15:49:51.000Z</time>
      </trkpt>
      <trkpt lat="42.69743" lon="0.66825">
        <ele>2079.5</ele>
        <time>2018-08-08T15:49:52.000Z</time>
      </trkpt>
      <trkpt lat="42.69743" lon="0.66825">
        <ele>2079.5</ele>
        <time>2018-08-08T15:49:53.000Z</time>
      </trkpt>
      <trkpt lat="42.69743" lon="0.66825">
        <ele>2079.5</ele>
        <time>2018-08-08T15:49:54.000Z</time>
      </trkpt>
      <trkpt lat="42.69743" lon="0.66825">
        <ele>2079.5</ele>
        <time>2018-08-08T15:49:55.000Z</time>
      </trkpt>
      <trkpt lat="42.69743" lon="0.66825">
        <ele>2079.5</ele>
        <time>2018-08-08T15:49:56.000Z</time>
      </trkpt>
      <trkpt lat="42.69743" lon="0.66825">
        <ele>2079.5</ele>
        <time>2018-08-08T15:49:57.000Z</time>
      </trkpt>
      <trkpt lat="42.69743" lon="0.66825">
        <ele>2079.5</ele>
        <time>2018-08-08T15:49:58.000Z</time>
      </trkpt>
      <trkpt lat="42.69743" lon="0.66825">
        <ele>2079.5</ele>
        <time>2018-08-08T15:49:59.000Z</time>
      </trkpt>
      <trkpt lat="42.69743" lon="0.66825">
        <ele>2079.5</ele>
        <time>2018-08-08T15:50:00.000Z</time>
      </trkpt>
      <trkpt lat="42.69743" lon="0.66825">
        <ele>2079.5</ele>
        <time>2018-08-08T15:50:01.000Z</time>
      </trkpt>
      <trkpt lat="42.69743" lon="0.66825">
        <ele>2079.5</ele>
        <time>2018-08-08T15:50:02.000Z</time>
      </trkpt>
      <trkpt lat="42.69743" lon="0.66825">
        <ele>2079.5</ele>
        <time>2018-08-08T15:50:03.000Z</time>
      </trkpt>
      <trkpt lat="42.69743" lon="0.66825">
        <ele>2079.5</ele>
        <time>2018-08-08T15:50:04.000Z</time>
      </trkpt>
      <trkpt lat="42.69743" lon="0.66825">
        <ele>2079.5</ele>
        <time>2018-08-08T15:50:05.000Z</time>
      </trkpt>
      <trkpt lat="42.69743" lon="0.66825">
        <ele>2079.5</ele>
        <time>2018-08-08T15:50:06.000Z</time>
      </trkpt>
      <trkpt lat="42.69743" lon="0.66825">
        <ele>2079.5</ele>
        <time>2018-08-08T15:50:07.000Z</time>
      </trkpt>
      <trkpt lat="42.69743" lon="0.66825">
        <ele>2079.5</ele>
        <time>2018-08-08T15:50:08.000Z</time>
      </trkpt>
      <trkpt lat="42.69743" lon="0.66825">
        <ele>2079.5</ele>
        <time>2018-08-08T15:50:09.000Z</time>
      </trkpt>
      <trkpt lat="42.69743" lon="0.66825">
        <ele>2079.5</ele>
        <time>2018-08-08T15:50:10.000Z</time>
      </trkpt>
      <trkpt lat="42.69743" lon="0.66825">
        <ele>2079.5</ele>
        <time>2018-08-08T15:50:11.000Z</time>
      </trkpt>
      <trkpt lat="42.69743" lon="0.66825">
        <ele>2079.5</ele>
        <time>2018-08-08T15:50:12.000Z</time>
      </trkpt>
      <trkpt lat="42.69743" lon="0.66825">
        <ele>2079.5</ele>
        <time>2018-08-08T15:50:13.000Z</time>
      </trkpt>
      <trkpt lat="42.69743" lon="0.66825">
        <ele>2079.5</ele>
        <time>2018-08-08T15:50:14.000Z</time>
      </trkpt>
      <trkpt lat="42.69743" lon="0.66825">
        <ele>2079.5</ele>
        <time>2018-08-08T15:50:15.000Z</time>
      </trkpt>
      <trkpt lat="42.69743" lon="0.66825">
        <ele>2079.5</ele>
        <time>2018-08-08T15:50:16.000Z</time>
      </trkpt>
      <trkpt lat="42.69743" lon="0.66825">
        <ele>2079.5</ele>
        <time>2018-08-08T15:50:17.000Z</time>
      </trkpt>
      <trkpt lat="42.69743" lon="0.66825">
        <ele>2079.5</ele>
        <time>2018-08-08T15:50:18.000Z</time>
      </trkpt>
      <trkpt lat="42.69743" lon="0.66825">
        <ele>2079.5</ele>
        <time>2018-08-08T15:50:19.000Z</time>
      </trkpt>
      <trkpt lat="42.69743" lon="0.66825">
        <ele>2079.5</ele>
        <time>2018-08-08T15:50:20.000Z</time>
      </trkpt>
      <trkpt lat="42.69743" lon="0.66825">
        <ele>2079.5</ele>
        <time>2018-08-08T15:50:21.000Z</time>
      </trkpt>
      <trkpt lat="42.69743" lon="0.66825">
        <ele>2079.5</ele>
        <time>2018-08-08T15:50:22.000Z</time>
      </trkpt>
      <trkpt lat="42.69743" lon="0.66825">
        <ele>2079.5</ele>
        <time>2018-08-08T15:50:23.000Z</time>
      </trkpt>
      <trkpt lat="42.69743" lon="0.66825">
        <ele>2079.5</ele>
        <time>2018-08-08T15:50:24.000Z</time>
      </trkpt>
      <trkpt lat="42.69743" lon="0.66825">
        <ele>2079.5</ele>
        <time>2018-08-08T15:50:25.000Z</time>
      </trkpt>
      <trkpt lat="42.69743" lon="0.66825">
        <ele>2079.5</ele>
        <time>2018-08-08T15:50:26.000Z</time>
      </trkpt>
      <trkpt lat="42.69743" lon="0.66825">
        <ele>2079.5</ele>
        <time>2018-08-08T15:50:27.000Z</time>
      </trkpt>
      <trkpt lat="42.69743" lon="0.66825">
        <ele>2079.5</ele>
        <time>2018-08-08T15:50:28.000Z</time>
      </trkpt>
      <trkpt lat="42.69743" lon="0.66825">
        <ele>2079.5</ele>
        <time>2018-08-08T15:50:29.000Z</time>
      </trkpt>
      <trkpt lat="42.69743" lon="0.66825">
        <ele>2079.5</ele>
        <time>2018-08-08T15:50:30.000Z</time>
      </trkpt>
      <trkpt lat="42.69743" lon="0.66825">
        <ele>2079.5</ele>
        <time>2018-08-08T15:50:31.000Z</time>
      </trkpt>
      <trkpt lat="42.69743" lon="0.66825">
        <ele>2079.5</ele>
        <time>2018-08-08T15:50:32.000Z</time>
      </trkpt>
      <trkpt lat="42.69743" lon="0.66825">
        <ele>2079.5</ele>
        <time>2018-08-08T15:50:33.000Z</time>
      </trkpt>
      <trkpt lat="42.69743" lon="0.66825">
        <ele>2079.5</ele>
        <time>2018-08-08T15:50:34.000Z</time>
      </trkpt>
      <trkpt lat="42.69743" lon="0.66825">
        <ele>2079.5</ele>
        <time>2018-08-08T15:50:35.000Z</time>
      </trkpt>
      <trkpt lat="42.69743" lon="0.66825">
        <ele>2079.5</ele>
        <time>2018-08-08T15:50:36.000Z</time>
      </trkpt>
      <trkpt lat="42.69743" lon="0.66825">
        <ele>2079.5</ele>
        <time>2018-08-08T15:50:37.000Z</time>
      </trkpt>
      <trkpt lat="42.69743" lon="0.66825">
        <ele>2079.5</ele>
        <time>2018-08-08T15:50:38.000Z</time>
      </trkpt>
      <trkpt lat="42.69743" lon="0.66825">
        <ele>2079.5</ele>
        <time>2018-08-08T15:50:39.000Z</time>
      </trkpt>
      <trkpt lat="42.69743" lon="0.66825">
        <ele>2079.5</ele>
        <time>2018-08-08T15:50:40.000Z</time>
      </trkpt>
      <trkpt lat="42.69743" lon="0.66825">
        <ele>2079.5</ele>
        <time>2018-08-08T15:50:41.000Z</time>
      </trkpt>
      <trkpt lat="42.69743" lon="0.66825">
        <ele>2079.5</ele>
        <time>2018-08-08T15:50:42.000Z</time>
      </trkpt>
      <trkpt lat="42.69743" lon="0.66825">
        <ele>2079.5</ele>
        <time>2018-08-08T15:50:43.000Z</time>
      </trkpt>
      <trkpt lat="42.69743" lon="0.66825">
        <ele>2079.5</ele>
        <time>2018-08-08T15:50:44.000Z</time>
      </trkpt>
      <trkpt lat="42.69743" lon="0.66825">
        <ele>2079.5</ele>
        <time>2018-08-08T15:50:45.000Z</time>
      </trkpt>
      <trkpt lat="42.69743" lon="0.66825">
        <ele>2079.5</ele>
        <time>2018-08-08T15:50:46.000Z</time>
      </trkpt>
      <trkpt lat="42.69743" lon="0.66825">
        <ele>2079.5</ele>
        <time>2018-08-08T15:50:47.000Z</time>
      </trkpt>
      <trkpt lat="42.69743" lon="0.66825">
        <ele>2079.5</ele>
        <time>2018-08-08T15:50:48.000Z</time>
      </trkpt>
      <trkpt lat="42.69743" lon="0.66825">
        <ele>2079.5</ele>
        <time>2018-08-08T15:50:49.000Z</time>
      </trkpt>
      <trkpt lat="42.69743" lon="0.66825">
        <ele>2079.5</ele>
        <time>2018-08-08T15:50:50.000Z</time>
      </trkpt>
      <trkpt lat="42.69743" lon="0.66825">
        <ele>2079.5</ele>
        <time>2018-08-08T15:50:51.000Z</time>
      </trkpt>
      <trkpt lat="42.69743" lon="0.66825">
        <ele>2079.5</ele>
        <time>2018-08-08T15:50:52.000Z</time>
      </trkpt>
      <trkpt lat="42.69743" lon="0.66825">
        <ele>2079.5</ele>
        <time>2018-08-08T15:50:53.000Z</time>
      </trkpt>
      <trkpt lat="42.69743" lon="0.66825">
        <ele>2079.5</ele>
        <time>2018-08-08T15:50:54.000Z</time>
      </trkpt>
      <trkpt lat="42.69743" lon="0.66825">
        <ele>2079.5</ele>
        <time>2018-08-08T15:50:55.000Z</time>
      </trkpt>
      <trkpt lat="42.69743" lon="0.66825">
        <ele>2079.5</ele>
        <time>2018-08-08T15:50:56.000Z</time>
      </trkpt>
      <trkpt lat="42.69743" lon="0.66825">
        <ele>2079.5</ele>
        <time>2018-08-08T15:50:57.000Z</time>
      </trkpt>
      <trkpt lat="42.69743" lon="0.66825">
        <ele>2079.5</ele>
        <time>2018-08-08T15:50:58.000Z</time>
      </trkpt>
      <trkpt lat="42.69743" lon="0.66825">
        <ele>2079.5</ele>
        <time>2018-08-08T15:50:59.000Z</time>
      </trkpt>
      <trkpt lat="42.69743" lon="0.66825">
        <ele>2079.5</ele>
        <time>2018-08-08T15:51:00.000Z</time>
      </trkpt>
      <trkpt lat="42.69743" lon="0.66825">
        <ele>2079.5</ele>
        <time>2018-08-08T15:51:01.000Z</time>
      </trkpt>
      <trkpt lat="42.69743" lon="0.66825">
        <ele>2079.5</ele>
        <time>2018-08-08T15:51:02.000Z</time>
      </trkpt>
      <trkpt lat="42.69743" lon="0.66825">
        <ele>2079.5</ele>
        <time>2018-08-08T15:51:03.000Z</time>
      </trkpt>
      <trkpt lat="42.69743" lon="0.66825">
        <ele>2079.5</ele>
        <time>2018-08-08T15:51:04.000Z</time>
      </trkpt>
      <trkpt lat="42.69743" lon="0.66825">
        <ele>2079.5</ele>
        <time>2018-08-08T15:51:05.000Z</time>
      </trkpt>
      <trkpt lat="42.69743" lon="0.66825">
        <ele>2079.5</ele>
        <time>2018-08-08T15:51:06.000Z</time>
      </trkpt>
      <trkpt lat="42.69743" lon="0.66825">
        <ele>2079.5</ele>
        <time>2018-08-08T15:51:07.000Z</time>
      </trkpt>
      <trkpt lat="42.69743" lon="0.66825">
        <ele>2079.5</ele>
        <time>2018-08-08T15:51:08.000Z</time>
      </trkpt>
      <trkpt lat="42.69743" lon="0.66825">
        <ele>2079.5</ele>
        <time>2018-08-08T15:51:09.000Z</time>
      </trkpt>
      <trkpt lat="42.69743" lon="0.66825">
        <ele>2079.5</ele>
        <time>2018-08-08T15:51:10.000Z</time>
      </trkpt>
      <trkpt lat="42.69743" lon="0.66825">
        <ele>2079.5</ele>
        <time>2018-08-08T15:51:11.000Z</time>
      </trkpt>
      <trkpt lat="42.69743" lon="0.66825">
        <ele>2079.5</ele>
        <time>2018-08-08T15:51:12.000Z</time>
      </trkpt>
      <trkpt lat="42.69743" lon="0.66825">
        <ele>2079.5</ele>
        <time>2018-08-08T15:51:13.000Z</time>
      </trkpt>
      <trkpt lat="42.69743" lon="0.66825">
        <ele>2079.5</ele>
        <time>2018-08-08T15:51:14.000Z</time>
      </trkpt>
      <trkpt lat="42.69743" lon="0.66825">
        <ele>2079.5</ele>
        <time>2018-08-08T15:51:15.000Z</time>
      </trkpt>
      <trkpt lat="42.69743" lon="0.66825">
        <ele>2079.5</ele>
        <time>2018-08-08T15:51:16.000Z</time>
      </trkpt>
      <trkpt lat="42.69743" lon="0.66825">
        <ele>2079.5</ele>
        <time>2018-08-08T15:51:17.000Z</time>
      </trkpt>
      <trkpt lat="42.69743" lon="0.66825">
        <ele>2079.5</ele>
        <time>2018-08-08T15:51:18.000Z</time>
      </trkpt>
      <trkpt lat="42.69743" lon="0.66825">
        <ele>2079.5</ele>
        <time>2018-08-08T15:51:19.000Z</time>
      </trkpt>
      <trkpt lat="42.69743" lon="0.66825">
        <ele>2079.5</ele>
        <time>2018-08-08T15:51:20.000Z</time>
      </trkpt>
      <trkpt lat="42.69743" lon="0.66825">
        <ele>2079.5</ele>
        <time>2018-08-08T15:51:21.000Z</time>
      </trkpt>
      <trkpt lat="42.69743" lon="0.66825">
        <ele>2079.5</ele>
        <time>2018-08-08T15:51:22.000Z</time>
      </trkpt>
      <trkpt lat="42.69743" lon="0.66825">
        <ele>2079.5</ele>
        <time>2018-08-08T15:51:23.000Z</time>
      </trkpt>
      <trkpt lat="42.69743" lon="0.66825">
        <ele>2079.5</ele>
        <time>2018-08-08T15:51:24.000Z</time>
      </trkpt>
      <trkpt lat="42.69743" lon="0.66825">
        <ele>2079.5</ele>
        <time>2018-08-08T15:51:25.000Z</time>
      </trkpt>
      <trkpt lat="42.69743" lon="0.66825">
        <ele>2079.5</ele>
        <time>2018-08-08T15:51:26.000Z</time>
      </trkpt>
      <trkpt lat="42.69743" lon="0.66825">
        <ele>2079.5</ele>
        <time>2018-08-08T15:51:27.000Z</time>
      </trkpt>
      <trkpt lat="42.69743" lon="0.66825">
        <ele>2079.5</ele>
        <time>2018-08-08T15:51:28.000Z</time>
      </trkpt>
      <trkpt lat="42.69743" lon="0.66825">
        <ele>2079.5</ele>
        <time>2018-08-08T15:51:29.000Z</time>
      </trkpt>
      <trkpt lat="42.69743" lon="0.66825">
        <ele>2079.5</ele>
        <time>2018-08-08T15:51:30.000Z</time>
      </trkpt>
      <trkpt lat="42.69743" lon="0.66825">
        <ele>2079.5</ele>
        <time>2018-08-08T15:51:31.000Z</time>
      </trkpt>
      <trkpt lat="42.69743" lon="0.66825">
        <ele>2079.5</ele>
        <time>2018-08-08T15:51:32.000Z</time>
      </trkpt>
      <trkpt lat="42.69743" lon="0.66825">
        <ele>2079.5</ele>
        <time>2018-08-08T15:51:33.000Z</time>
      </trkpt>
      <trkpt lat="42.69743" lon="0.66825">
        <ele>2079.5</ele>
        <time>2018-08-08T15:51:34.000Z</time>
      </trkpt>
      <trkpt lat="42.69743" lon="0.66825">
        <ele>2079.5</ele>
        <time>2018-08-08T15:51:35.000Z</time>
      </trkpt>
      <trkpt lat="42.69743" lon="0.66825">
        <ele>2079.5</ele>
        <time>2018-08-08T15:51:36.000Z</time>
      </trkpt>
      <trkpt lat="42.69743" lon="0.66825">
        <ele>2079.5</ele>
        <time>2018-08-08T15:51:37.000Z</time>
      </trkpt>
      <trkpt lat="42.69743" lon="0.66825">
        <ele>2079.5</ele>
        <time>2018-08-08T15:51:38.000Z</time>
      </trkpt>
      <trkpt lat="42.69743" lon="0.66825">
        <ele>2079.5</ele>
        <time>2018-08-08T15:51:39.000Z</time>
      </trkpt>
      <trkpt lat="42.69743" lon="0.66825">
        <ele>2079.5</ele>
        <time>2018-08-08T15:51:40.000Z</time>
      </trkpt>
      <trkpt lat="42.69743" lon="0.66825">
        <ele>2079.5</ele>
        <time>2018-08-08T15:51:41.000Z</time>
      </trkpt>
      <trkpt lat="42.69743" lon="0.66825">
        <ele>2079.5</ele>
        <time>2018-08-08T15:51:42.000Z</time>
      </trkpt>
      <trkpt lat="42.69743" lon="0.66825">
        <ele>2079.5</ele>
        <time>2018-08-08T15:51:43.000Z</time>
      </trkpt>
      <trkpt lat="42.69743" lon="0.66825">
        <ele>2079.5</ele>
        <time>2018-08-08T15:51:44.000Z</time>
      </trkpt>
      <trkpt lat="42.69743" lon="0.66825">
        <ele>2079.5</ele>
        <time>2018-08-08T15:51:45.000Z</time>
      </trkpt>
      <trkpt lat="42.69743" lon="0.66825">
        <ele>2079.5</ele>
        <time>2018-08-08T15:51:46.000Z</time>
      </trkpt>
      <trkpt lat="42.69743" lon="0.66825">
        <ele>2079.5</ele>
        <time>2018-08-08T15:51:47.000Z</time>
      </trkpt>
      <trkpt lat="42.69743" lon="0.66825">
        <ele>2079.5</ele>
        <time>2018-08-08T15:51:48.000Z</time>
      </trkpt>
      <trkpt lat="42.69743" lon="0.66825">
        <ele>2079.5</ele>
        <time>2018-08-08T15:51:49.000Z</time>
      </trkpt>
      <trkpt lat="42.69743" lon="0.66825">
        <ele>2079.5</ele>
        <time>2018-08-08T15:51:50.000Z</time>
      </trkpt>
      <trkpt lat="42.69743" lon="0.66825">
        <ele>2079.5</ele>
        <time>2018-08-08T15:51:51.000Z</time>
      </trkpt>
      <trkpt lat="42.69743" lon="0.66825">
        <ele>2079.5</ele>
        <time>2018-08-08T15:51:52.000Z</time>
      </trkpt>
      <trkpt lat="42.69743" lon="0.66825">
        <ele>2079.5</ele>
        <time>2018-08-08T15:51:53.000Z</time>
      </trkpt>
      <trkpt lat="42.69743" lon="0.66825">
        <ele>2079.5</ele>
        <time>2018-08-08T15:51:54.000Z</time>
      </trkpt>
      <trkpt lat="42.69743" lon="0.66825">
        <ele>2079.5</ele>
        <time>2018-08-08T15:51:55.000Z</time>
      </trkpt>
      <trkpt lat="42.69743" lon="0.66825">
        <ele>2079.5</ele>
        <time>2018-08-08T15:51:56.000Z</time>
      </trkpt>
      <trkpt lat="42.69743" lon="0.66825">
        <ele>2079.5</ele>
        <time>2018-08-08T15:51:57.000Z</time>
      </trkpt>
      <trkpt lat="42.69743" lon="0.66825">
        <ele>2079.5</ele>
        <time>2018-08-08T15:51:58.000Z</time>
      </trkpt>
      <trkpt lat="42.69743" lon="0.66825">
        <ele>2079.5</ele>
        <time>2018-08-08T15:51:59.000Z</time>
      </trkpt>
      <trkpt lat="42.69743" lon="0.66825">
        <ele>2079.5</ele>
        <time>2018-08-08T15:52:00.000Z</time>
      </trkpt>
      <trkpt lat="42.69743" lon="0.66825">
        <ele>2079.5</ele>
        <time>2018-08-08T15:52:01.000Z</time>
      </trkpt>
      <trkpt lat="42.69743" lon="0.66825">
        <ele>2079.5</ele>
        <time>2018-08-08T15:52:02.000Z</time>
      </trkpt>
      <trkpt lat="42.69743" lon="0.66825">
        <ele>2079.5</ele>
        <time>2018-08-08T15:52:03.000Z</time>
      </trkpt>
      <trkpt lat="42.69743" lon="0.66825">
        <ele>2079.5</ele>
        <time>2018-08-08T15:52:04.000Z</time>
      </trkpt>
      <trkpt lat="42.69743" lon="0.66825">
        <ele>2079.5</ele>
        <time>2018-08-08T15:52:05.000Z</time>
      </trkpt>
      <trkpt lat="42.69743" lon="0.66825">
        <ele>2079.5</ele>
        <time>2018-08-08T15:52:06.000Z</time>
      </trkpt>
      <trkpt lat="42.69743" lon="0.66825">
        <ele>2079.5</ele>
        <time>2018-08-08T15:52:07.000Z</time>
      </trkpt>
      <trkpt lat="42.69743" lon="0.66825">
        <ele>2079.5</ele>
        <time>2018-08-08T15:52:08.000Z</time>
      </trkpt>
      <trkpt lat="42.69743" lon="0.66825">
        <ele>2079.5</ele>
        <time>2018-08-08T15:52:09.000Z</time>
      </trkpt>
      <trkpt lat="42.69743" lon="0.66825">
        <ele>2079.5</ele>
        <time>2018-08-08T15:52:10.000Z</time>
      </trkpt>
      <trkpt lat="42.69743" lon="0.66825">
        <ele>2079.5</ele>
        <time>2018-08-08T15:52:11.000Z</time>
      </trkpt>
      <trkpt lat="42.69743" lon="0.66825">
        <ele>2079.5</ele>
        <time>2018-08-08T15:52:12.000Z</time>
      </trkpt>
      <trkpt lat="42.69743" lon="0.66825">
        <ele>2079.5</ele>
        <time>2018-08-08T15:52:13.000Z</time>
      </trkpt>
      <trkpt lat="42.69743" lon="0.66825">
        <ele>2079.5</ele>
        <time>2018-08-08T15:52:14.000Z</time>
      </trkpt>
      <trkpt lat="42.69743" lon="0.66825">
        <ele>2079.5</ele>
        <time>2018-08-08T15:52:15.000Z</time>
      </trkpt>
      <trkpt lat="42.69743" lon="0.66825">
        <ele>2079.5</ele>
        <time>2018-08-08T15:52:16.000Z</time>
      </trkpt>
      <trkpt lat="42.69743" lon="0.66825">
        <ele>2079.5</ele>
        <time>2018-08-08T15:52:17.000Z</time>
      </trkpt>
      <trkpt lat="42.69743" lon="0.66825">
        <ele>2079.5</ele>
        <time>2018-08-08T15:52:18.000Z</time>
      </trkpt>
      <trkpt lat="42.69743" lon="0.66825">
        <ele>2079.5</ele>
        <time>2018-08-08T15:52:19.000Z</time>
      </trkpt>
      <trkpt lat="42.69743" lon="0.66825">
        <ele>2079.5</ele>
        <time>2018-08-08T15:52:20.000Z</time>
      </trkpt>
      <trkpt lat="42.69743" lon="0.66825">
        <ele>2079.5</ele>
        <time>2018-08-08T15:52:21.000Z</time>
      </trkpt>
      <trkpt lat="42.69743" lon="0.66825">
        <ele>2079.5</ele>
        <time>2018-08-08T15:52:22.000Z</time>
      </trkpt>
      <trkpt lat="42.69743" lon="0.66825">
        <ele>2079.5</ele>
        <time>2018-08-08T15:52:23.000Z</time>
      </trkpt>
      <trkpt lat="42.69743" lon="0.66825">
        <ele>2079.5</ele>
        <time>2018-08-08T15:52:24.000Z</time>
      </trkpt>
      <trkpt lat="42.69743" lon="0.66825">
        <ele>2079.5</ele>
        <time>2018-08-08T15:52:25.000Z</time>
      </trkpt>
      <trkpt lat="42.69743" lon="0.66825">
        <ele>2079.5</ele>
        <time>2018-08-08T15:52:26.000Z</time>
      </trkpt>
      <trkpt lat="42.69743" lon="0.66825">
        <ele>2079.5</ele>
        <time>2018-08-08T15:52:27.000Z</time>
      </trkpt>
      <trkpt lat="42.69743" lon="0.66825">
        <ele>2079.5</ele>
        <time>2018-08-08T15:52:28.000Z</time>
      </trkpt>
      <trkpt lat="42.69743" lon="0.66825">
        <ele>2079.5</ele>
        <time>2018-08-08T15:52:29.000Z</time>
      </trkpt>
      <trkpt lat="42.69743" lon="0.66825">
        <ele>2079.5</ele>
        <time>2018-08-08T15:52:30.000Z</time>
      </trkpt>
      <trkpt lat="42.69743" lon="0.66825">
        <ele>2079.5</ele>
        <time>2018-08-08T15:52:31.000Z</time>
      </trkpt>
      <trkpt lat="42.69743" lon="0.66825">
        <ele>2079.5</ele>
        <time>2018-08-08T15:52:32.000Z</time>
      </trkpt>
      <trkpt lat="42.69743" lon="0.66825">
        <ele>2079.5</ele>
        <time>2018-08-08T15:52:33.000Z</time>
      </trkpt>
      <trkpt lat="42.69743" lon="0.66825">
        <ele>2079.5</ele>
        <time>2018-08-08T15:52:34.000Z</time>
      </trkpt>
      <trkpt lat="42.69743" lon="0.66825">
        <ele>2079.5</ele>
        <time>2018-08-08T15:52:35.000Z</time>
      </trkpt>
      <trkpt lat="42.69743" lon="0.66825">
        <ele>2079.5</ele>
        <time>2018-08-08T15:52:36.000Z</time>
      </trkpt>
      <trkpt lat="42.69743" lon="0.66825">
        <ele>2079.5</ele>
        <time>2018-08-08T15:52:37.000Z</time>
      </trkpt>
      <trkpt lat="42.69743" lon="0.66825">
        <ele>2079.5</ele>
        <time>2018-08-08T15:52:38.000Z</time>
      </trkpt>
      <trkpt lat="42.69743" lon="0.66825">
        <ele>2079.5</ele>
        <time>2018-08-08T15:52:39.000Z</time>
      </trkpt>
      <trkpt lat="42.69743" lon="0.66825">
        <ele>2079.5</ele>
        <time>2018-08-08T15:52:40.000Z</time>
      </trkpt>
      <trkpt lat="42.69743" lon="0.66825">
        <ele>2079.5</ele>
        <time>2018-08-08T15:52:41.000Z</time>
      </trkpt>
      <trkpt lat="42.69743" lon="0.66825">
        <ele>2079.5</ele>
        <time>2018-08-08T15:52:42.000Z</time>
      </trkpt>
      <trkpt lat="42.69743" lon="0.66825">
        <ele>2079.5</ele>
        <time>2018-08-08T15:52:43.000Z</time>
      </trkpt>
      <trkpt lat="42.69743" lon="0.66825">
        <ele>2079.5</ele>
        <time>2018-08-08T15:52:44.000Z</time>
      </trkpt>
      <trkpt lat="42.69743" lon="0.66825">
        <ele>2079.5</ele>
        <time>2018-08-08T15:52:45.000Z</time>
      </trkpt>
      <trkpt lat="42.69743" lon="0.66825">
        <ele>2079.5</ele>
        <time>2018-08-08T15:52:46.000Z</time>
      </trkpt>
      <trkpt lat="42.69743" lon="0.66825">
        <ele>2079.5</ele>
        <time>2018-08-08T15:52:47.000Z</time>
      </trkpt>
      <trkpt lat="42.69743" lon="0.66825">
        <ele>2079.5</ele>
        <time>2018-08-08T15:52:48.000Z</time>
      </trkpt>
      <trkpt lat="42.69743" lon="0.66825">
        <ele>2079.5</ele>
        <time>2018-08-08T15:52:49.000Z</time>
      </trkpt>
      <trkpt lat="42.69743" lon="0.66825">
        <ele>2079.5</ele>
        <time>2018-08-08T15:52:50.000Z</time>
      </trkpt>
      <trkpt lat="42.69743" lon="0.66825">
        <ele>2079.5</ele>
        <time>2018-08-08T15:52:51.000Z</time>
      </trkpt>
      <trkpt lat="42.69743" lon="0.66825">
        <ele>2079.5</ele>
        <time>2018-08-08T15:52:52.000Z</time>
      </trkpt>
      <trkpt lat="42.69743" lon="0.66825">
        <ele>2079.5</ele>
        <time>2018-08-08T15:52:53.000Z</time>
      </trkpt>
      <trkpt lat="42.69743" lon="0.66825">
        <ele>2079.5</ele>
        <time>2018-08-08T15:52:54.000Z</time>
      </trkpt>
      <trkpt lat="42.69743" lon="0.66825">
        <ele>2079.5</ele>
        <time>2018-08-08T15:52:55.000Z</time>
      </trkpt>
      <trkpt lat="42.69743" lon="0.66825">
        <ele>2079.5</ele>
        <time>2018-08-08T15:52:56.000Z</time>
      </trkpt>
      <trkpt lat="42.69743" lon="0.66825">
        <ele>2079.5</ele>
        <time>2018-08-08T15:52:57.000Z</time>
      </trkpt>
      <trkpt lat="42.69743" lon="0.66825">
        <ele>2079.5</ele>
        <time>2018-08-08T15:52:58.000Z</time>
      </trkpt>
      <trkpt lat="42.69743" lon="0.66825">
        <ele>2079.5</ele>
        <time>2018-08-08T15:52:59.000Z</time>
      </trkpt>
      <trkpt lat="42.69743" lon="0.66825">
        <ele>2079.5</ele>
        <time>2018-08-08T15:53:00.000Z</time>
      </trkpt>
      <trkpt lat="42.69743" lon="0.66825">
        <ele>2079.5</ele>
        <time>2018-08-08T15:53:01.000Z</time>
      </trkpt>
      <trkpt lat="42.69743" lon="0.66825">
        <ele>2079.5</ele>
        <time>2018-08-08T15:53:02.000Z</time>
      </trkpt>
      <trkpt lat="42.69743" lon="0.66825">
        <ele>2079.5</ele>
        <time>2018-08-08T15:53:03.000Z</time>
      </trkpt>
      <trkpt lat="42.69743" lon="0.66825">
        <ele>2079.5</ele>
        <time>2018-08-08T15:53:04.000Z</time>
      </trkpt>
      <trkpt lat="42.69743" lon="0.66825">
        <ele>2079.5</ele>
        <time>2018-08-08T15:53:05.000Z</time>
      </trkpt>
      <trkpt lat="42.69743" lon="0.66825">
        <ele>2079.5</ele>
        <time>2018-08-08T15:53:06.000Z</time>
      </trkpt>
      <trkpt lat="42.69743" lon="0.66825">
        <ele>2079.5</ele>
        <time>2018-08-08T15:53:07.000Z</time>
      </trkpt>
      <trkpt lat="42.69743" lon="0.66825">
        <ele>2079.5</ele>
        <time>2018-08-08T15:53:08.000Z</time>
      </trkpt>
      <trkpt lat="42.69743" lon="0.66825">
        <ele>2079.5</ele>
        <time>2018-08-08T15:53:09.000Z</time>
      </trkpt>
      <trkpt lat="42.69743" lon="0.66825">
        <ele>2079.5</ele>
        <time>2018-08-08T15:53:10.000Z</time>
      </trkpt>
      <trkpt lat="42.69743" lon="0.66825">
        <ele>2079.5</ele>
        <time>2018-08-08T15:53:11.000Z</time>
      </trkpt>
      <trkpt lat="42.69743" lon="0.66825">
        <ele>2079.5</ele>
        <time>2018-08-08T15:53:12.000Z</time>
      </trkpt>
      <trkpt lat="42.69743" lon="0.66825">
        <ele>2079.5</ele>
        <time>2018-08-08T15:53:13.000Z</time>
      </trkpt>
      <trkpt lat="42.69743" lon="0.66825">
        <ele>2079.5</ele>
        <time>2018-08-08T15:53:14.000Z</time>
      </trkpt>
      <trkpt lat="42.69743" lon="0.66825">
        <ele>2079.5</ele>
        <time>2018-08-08T15:53:15.000Z</time>
      </trkpt>
      <trkpt lat="42.69743" lon="0.66825">
        <ele>2079.5</ele>
        <time>2018-08-08T15:53:16.000Z</time>
      </trkpt>
      <trkpt lat="42.69743" lon="0.66825">
        <ele>2079.5</ele>
        <time>2018-08-08T15:53:17.000Z</time>
      </trkpt>
      <trkpt lat="42.69743" lon="0.66825">
        <ele>2079.5</ele>
        <time>2018-08-08T15:53:18.000Z</time>
      </trkpt>
      <trkpt lat="42.69743" lon="0.66825">
        <ele>2079.5</ele>
        <time>2018-08-08T15:53:19.000Z</time>
      </trkpt>
      <trkpt lat="42.69743" lon="0.66825">
        <ele>2079.5</ele>
        <time>2018-08-08T15:53:20.000Z</time>
      </trkpt>
      <trkpt lat="42.69743" lon="0.66825">
        <ele>2079.5</ele>
        <time>2018-08-08T15:53:21.000Z</time>
      </trkpt>
      <trkpt lat="42.69743" lon="0.66825">
        <ele>2079.5</ele>
        <time>2018-08-08T15:53:22.000Z</time>
      </trkpt>
      <trkpt lat="42.69743" lon="0.66825">
        <ele>2079.5</ele>
        <time>2018-08-08T15:53:23.000Z</time>
      </trkpt>
      <trkpt lat="42.69743" lon="0.66825">
        <ele>2079.5</ele>
        <time>2018-08-08T15:53:24.000Z</time>
      </trkpt>
      <trkpt lat="42.69743" lon="0.66825">
        <ele>2079.5</ele>
        <time>2018-08-08T15:53:25.000Z</time>
      </trkpt>
      <trkpt lat="42.69743" lon="0.66825">
        <ele>2079.5</ele>
        <time>2018-08-08T15:53:26.000Z</time>
      </trkpt>
      <trkpt lat="42.69743" lon="0.66825">
        <ele>2079.5</ele>
        <time>2018-08-08T15:53:27.000Z</time>
      </trkpt>
      <trkpt lat="42.69743" lon="0.66825">
        <ele>2079.5</ele>
        <time>2018-08-08T15:53:28.000Z</time>
      </trkpt>
      <trkpt lat="42.69743" lon="0.66825">
        <ele>2079.5</ele>
        <time>2018-08-08T15:53:29.000Z</time>
      </trkpt>
      <trkpt lat="42.69743" lon="0.66825">
        <ele>2079.5</ele>
        <time>2018-08-08T15:53:30.000Z</time>
      </trkpt>
      <trkpt lat="42.69743" lon="0.66825">
        <ele>2079.5</ele>
        <time>2018-08-08T15:53:31.000Z</time>
      </trkpt>
      <trkpt lat="42.69743" lon="0.66825">
        <ele>2079.5</ele>
        <time>2018-08-08T15:53:32.000Z</time>
      </trkpt>
      <trkpt lat="42.69743" lon="0.66825">
        <ele>2079.5</ele>
        <time>2018-08-08T15:53:33.000Z</time>
      </trkpt>
      <trkpt lat="42.69743" lon="0.66825">
        <ele>2079.5</ele>
        <time>2018-08-08T15:53:34.000Z</time>
      </trkpt>
      <trkpt lat="42.69743" lon="0.66825">
        <ele>2079.5</ele>
        <time>2018-08-08T15:53:35.000Z</time>
      </trkpt>
      <trkpt lat="42.69743" lon="0.66825">
        <ele>2079.5</ele>
        <time>2018-08-08T15:53:36.000Z</time>
      </trkpt>
      <trkpt lat="42.69743" lon="0.66825">
        <ele>2079.5</ele>
        <time>2018-08-08T15:53:37.000Z</time>
      </trkpt>
      <trkpt lat="42.69743" lon="0.66825">
        <ele>2079.5</ele>
        <time>2018-08-08T15:53:38.000Z</time>
      </trkpt>
      <trkpt lat="42.69743" lon="0.66825">
        <ele>2079.5</ele>
        <time>2018-08-08T15:53:39.000Z</time>
      </trkpt>
      <trkpt lat="42.69743" lon="0.66825">
        <ele>2079.5</ele>
        <time>2018-08-08T15:53:40.000Z</time>
      </trkpt>
      <trkpt lat="42.69743" lon="0.66825">
        <ele>2079.5</ele>
        <time>2018-08-08T15:53:41.000Z</time>
      </trkpt>
      <trkpt lat="42.69743" lon="0.66825">
        <ele>2079.5</ele>
        <time>2018-08-08T15:53:42.000Z</time>
      </trkpt>
      <trkpt lat="42.69743" lon="0.66825">
        <ele>2079.5</ele>
        <time>2018-08-08T15:53:43.000Z</time>
      </trkpt>
      <trkpt lat="42.69743" lon="0.66825">
        <ele>2079.5</ele>
        <time>2018-08-08T15:53:44.000Z</time>
      </trkpt>
      <trkpt lat="42.69743" lon="0.66825">
        <ele>2079.5</ele>
        <time>2018-08-08T15:53:45.000Z</time>
      </trkpt>
      <trkpt lat="42.69743" lon="0.66825">
        <ele>2079.5</ele>
        <time>2018-08-08T15:53:46.000Z</time>
      </trkpt>
      <trkpt lat="42.69743" lon="0.66825">
        <ele>2079.5</ele>
        <time>2018-08-08T15:53:47.000Z</time>
      </trkpt>
      <trkpt lat="42.69743" lon="0.66825">
        <ele>2079.5</ele>
        <time>2018-08-08T15:53:48.000Z</time>
      </trkpt>
      <trkpt lat="42.69743" lon="0.66825">
        <ele>2079.5</ele>
        <time>2018-08-08T15:53:49.000Z</time>
      </trkpt>
      <trkpt lat="42.69743" lon="0.66825">
        <ele>2079.5</ele>
        <time>2018-08-08T15:53:50.000Z</time>
      </trkpt>
      <trkpt lat="42.69743" lon="0.66825">
        <ele>2079.5</ele>
        <time>2018-08-08T15:53:51.000Z</time>
      </trkpt>
      <trkpt lat="42.69743" lon="0.66825">
        <ele>2079.5</ele>
        <time>2018-08-08T15:53:52.000Z</time>
      </trkpt>
      <trkpt lat="42.69743" lon="0.66825">
        <ele>2079.5</ele>
        <time>2018-08-08T15:53:53.000Z</time>
      </trkpt>
      <trkpt lat="42.69743" lon="0.66825">
        <ele>2079.5</ele>
        <time>2018-08-08T15:53:54.000Z</time>
      </trkpt>
      <trkpt lat="42.69743" lon="0.66825">
        <ele>2079.5</ele>
        <time>2018-08-08T15:53:55.000Z</time>
      </trkpt>
      <trkpt lat="42.69743" lon="0.66825">
        <ele>2079.5</ele>
        <time>2018-08-08T15:53:56.000Z</time>
      </trkpt>
      <trkpt lat="42.69743" lon="0.66825">
        <ele>2079.5</ele>
        <time>2018-08-08T15:53:57.000Z</time>
      </trkpt>
      <trkpt lat="42.69743" lon="0.66825">
        <ele>2079.5</ele>
        <time>2018-08-08T15:53:58.000Z</time>
      </trkpt>
      <trkpt lat="42.69743" lon="0.66825">
        <ele>2079.5</ele>
        <time>2018-08-08T15:53:59.000Z</time>
      </trkpt>
      <trkpt lat="42.69743" lon="0.66825">
        <ele>2079.5</ele>
        <time>2018-08-08T15:54:00.000Z</time>
      </trkpt>
      <trkpt lat="42.69743" lon="0.66825">
        <ele>2079.5</ele>
        <time>2018-08-08T15:54:01.000Z</time>
      </trkpt>
      <trkpt lat="42.69743" lon="0.66825">
        <ele>2079.5</ele>
        <time>2018-08-08T15:54:02.000Z</time>
      </trkpt>
      <trkpt lat="42.69743" lon="0.66825">
        <ele>2079.5</ele>
        <time>2018-08-08T15:54:03.000Z</time>
      </trkpt>
      <trkpt lat="42.69743" lon="0.66825">
        <ele>2079.5</ele>
        <time>2018-08-08T15:54:04.000Z</time>
      </trkpt>
      <trkpt lat="42.69743" lon="0.66825">
        <ele>2079.5</ele>
        <time>2018-08-08T15:54:05.000Z</time>
      </trkpt>
      <trkpt lat="42.69743" lon="0.66825">
        <ele>2079.5</ele>
        <time>2018-08-08T15:54:06.000Z</time>
      </trkpt>
      <trkpt lat="42.69743" lon="0.66825">
        <ele>2079.5</ele>
        <time>2018-08-08T15:54:07.000Z</time>
      </trkpt>
      <trkpt lat="42.69743" lon="0.66825">
        <ele>2079.5</ele>
        <time>2018-08-08T15:54:08.000Z</time>
      </trkpt>
      <trkpt lat="42.69743" lon="0.66825">
        <ele>2079.5</ele>
        <time>2018-08-08T15:54:09.000Z</time>
      </trkpt>
      <trkpt lat="42.69743" lon="0.66825">
        <ele>2079.5</ele>
        <time>2018-08-08T15:54:10.000Z</time>
      </trkpt>
      <trkpt lat="42.69743" lon="0.66825">
        <ele>2079.5</ele>
        <time>2018-08-08T15:54:11.000Z</time>
      </trkpt>
      <trkpt lat="42.69743" lon="0.66825">
        <ele>2079.5</ele>
        <time>2018-08-08T15:54:12.000Z</time>
      </trkpt>
      <trkpt lat="42.69743" lon="0.66825">
        <ele>2079.5</ele>
        <time>2018-08-08T15:54:13.000Z</time>
      </trkpt>
      <trkpt lat="42.69743" lon="0.66825">
        <ele>2079.5</ele>
        <time>2018-08-08T15:54:14.000Z</time>
      </trkpt>
      <trkpt lat="42.69743" lon="0.66825">
        <ele>2079.5</ele>
        <time>2018-08-08T15:54:15.000Z</time>
      </trkpt>
      <trkpt lat="42.69743" lon="0.66825">
        <ele>2079.5</ele>
        <time>2018-08-08T15:54:16.000Z</time>
      </trkpt>
      <trkpt lat="42.69743" lon="0.66825">
        <ele>2079.5</ele>
        <time>2018-08-08T15:54:17.000Z</time>
      </trkpt>
      <trkpt lat="42.69743" lon="0.66825">
        <ele>2079.5</ele>
        <time>2018-08-08T15:54:18.000Z</time>
      </trkpt>
      <trkpt lat="42.69743" lon="0.66825">
        <ele>2079.5</ele>
        <time>2018-08-08T15:54:19.000Z</time>
      </trkpt>
      <trkpt lat="42.69743" lon="0.66825">
        <ele>2079.5</ele>
        <time>2018-08-08T15:54:20.000Z</time>
      </trkpt>
      <trkpt lat="42.69743" lon="0.66825">
        <ele>2079.5</ele>
        <time>2018-08-08T15:54:21.000Z</time>
      </trkpt>
      <trkpt lat="42.69743" lon="0.66825">
        <ele>2079.5</ele>
        <time>2018-08-08T15:54:22.000Z</time>
      </trkpt>
      <trkpt lat="42.69743" lon="0.66825">
        <ele>2079.5</ele>
        <time>2018-08-08T15:54:23.000Z</time>
      </trkpt>
      <trkpt lat="42.69743" lon="0.66825">
        <ele>2079.5</ele>
        <time>2018-08-08T15:54:24.000Z</time>
      </trkpt>
      <trkpt lat="42.69743" lon="0.66825">
        <ele>2079.5</ele>
        <time>2018-08-08T15:54:25.000Z</time>
      </trkpt>
      <trkpt lat="42.69743" lon="0.66825">
        <ele>2079.5</ele>
        <time>2018-08-08T15:54:26.000Z</time>
      </trkpt>
      <trkpt lat="42.69743" lon="0.66825">
        <ele>2079.5</ele>
        <time>2018-08-08T15:54:27.000Z</time>
      </trkpt>
      <trkpt lat="42.69743" lon="0.66825">
        <ele>2079.5</ele>
        <time>2018-08-08T15:54:28.000Z</time>
      </trkpt>
      <trkpt lat="42.69743" lon="0.66825">
        <ele>2079.5</ele>
        <time>2018-08-08T15:54:29.000Z</time>
      </trkpt>
      <trkpt lat="42.69743" lon="0.66825">
        <ele>2079.5</ele>
        <time>2018-08-08T15:54:30.000Z</time>
      </trkpt>
      <trkpt lat="42.69743" lon="0.66825">
        <ele>2079.5</ele>
        <time>2018-08-08T15:54:31.000Z</time>
      </trkpt>
      <trkpt lat="42.69743" lon="0.66825">
        <ele>2079.5</ele>
        <time>2018-08-08T15:54:32.000Z</time>
      </trkpt>
      <trkpt lat="42.69743" lon="0.66825">
        <ele>2079.5</ele>
        <time>2018-08-08T15:54:33.000Z</time>
      </trkpt>
      <trkpt lat="42.69743" lon="0.66825">
        <ele>2079.5</ele>
        <time>2018-08-08T15:54:34.000Z</time>
      </trkpt>
      <trkpt lat="42.69743" lon="0.66825">
        <ele>2079.5</ele>
        <time>2018-08-08T15:54:35.000Z</time>
      </trkpt>
      <trkpt lat="42.69743" lon="0.66825">
        <ele>2079.5</ele>
        <time>2018-08-08T15:54:36.000Z</time>
      </trkpt>
      <trkpt lat="42.69743" lon="0.66825">
        <ele>2079.5</ele>
        <time>2018-08-08T15:54:37.000Z</time>
      </trkpt>
      <trkpt lat="42.69743" lon="0.66825">
        <ele>2079.5</ele>
        <time>2018-08-08T15:54:38.000Z</time>
      </trkpt>
      <trkpt lat="42.69743" lon="0.66825">
        <ele>2079.5</ele>
        <time>2018-08-08T15:54:39.000Z</time>
      </trkpt>
      <trkpt lat="42.69743" lon="0.66825">
        <ele>2079.5</ele>
        <time>2018-08-08T15:54:40.000Z</time>
      </trkpt>
      <trkpt lat="42.69743" lon="0.66825">
        <ele>2079.5</ele>
        <time>2018-08-08T15:54:41.000Z</time>
      </trkpt>
      <trkpt lat="42.69743" lon="0.66825">
        <ele>2079.5</ele>
        <time>2018-08-08T15:54:42.000Z</time>
      </trkpt>
      <trkpt lat="42.69743" lon="0.66825">
        <ele>2079.5</ele>
        <time>2018-08-08T15:54:43.000Z</time>
      </trkpt>
      <trkpt lat="42.69743" lon="0.66825">
        <ele>2079.5</ele>
        <time>2018-08-08T15:54:44.000Z</time>
      </trkpt>
      <trkpt lat="42.69743" lon="0.66825">
        <ele>2079.5</ele>
        <time>2018-08-08T15:54:45.000Z</time>
      </trkpt>
      <trkpt lat="42.69743" lon="0.66825">
        <ele>2079.5</ele>
        <time>2018-08-08T15:54:46.000Z</time>
      </trkpt>
      <trkpt lat="42.69743" lon="0.66825">
        <ele>2079.5</ele>
        <time>2018-08-08T15:54:47.000Z</time>
      </trkpt>
      <trkpt lat="42.69743" lon="0.66825">
        <ele>2079.5</ele>
        <time>2018-08-08T15:54:48.000Z</time>
      </trkpt>
      <trkpt lat="42.69743" lon="0.66825">
        <ele>2079.5</ele>
        <time>2018-08-08T15:54:49.000Z</time>
      </trkpt>
      <trkpt lat="42.69743" lon="0.66825">
        <ele>2079.5</ele>
        <time>2018-08-08T15:54:50.000Z</time>
      </trkpt>
      <trkpt lat="42.69743" lon="0.66825">
        <ele>2079.5</ele>
        <time>2018-08-08T15:54:51.000Z</time>
      </trkpt>
      <trkpt lat="42.69743" lon="0.66825">
        <ele>2079.5</ele>
        <time>2018-08-08T15:54:52.000Z</time>
      </trkpt>
      <trkpt lat="42.69743" lon="0.66825">
        <ele>2079.5</ele>
        <time>2018-08-08T15:54:53.000Z</time>
      </trkpt>
      <trkpt lat="42.69743" lon="0.66825">
        <ele>2079.5</ele>
        <time>2018-08-08T15:54:54.000Z</time>
      </trkpt>
      <trkpt lat="42.69743" lon="0.66825">
        <ele>2079.5</ele>
        <time>2018-08-08T15:54:55.000Z</time>
      </trkpt>
      <trkpt lat="42.69743" lon="0.66825">
        <ele>2079.5</ele>
        <time>2018-08-08T15:54:56.000Z</time>
      </trkpt>
      <trkpt lat="42.69743" lon="0.66825">
        <ele>2079.5</ele>
        <time>2018-08-08T15:54:57.000Z</time>
      </trkpt>
      <trkpt lat="42.69743" lon="0.66825">
        <ele>2079.5</ele>
        <time>2018-08-08T15:54:58.000Z</time>
      </trkpt>
      <trkpt lat="42.69743" lon="0.66825">
        <ele>2079.5</ele>
        <time>2018-08-08T15:54:59.000Z</time>
      </trkpt>
      <trkpt lat="42.69743" lon="0.66825">
        <ele>2079.5</ele>
        <time>2018-08-08T15:55:00.000Z</time>
      </trkpt>
      <trkpt lat="42.69743" lon="0.66825">
        <ele>2079.5</ele>
        <time>2018-08-08T15:55:01.000Z</time>
      </trkpt>
      <trkpt lat="42.69743" lon="0.66825">
        <ele>2079.5</ele>
        <time>2018-08-08T15:55:02.000Z</time>
      </trkpt>
      <trkpt lat="42.69743" lon="0.66825">
        <ele>2079.5</ele>
        <time>2018-08-08T15:55:03.000Z</time>
      </trkpt>
      <trkpt lat="42.69743" lon="0.66825">
        <ele>2079.5</ele>
        <time>2018-08-08T15:55:04.000Z</time>
      </trkpt>
      <trkpt lat="42.69743" lon="0.66825">
        <ele>2079.5</ele>
        <time>2018-08-08T15:55:05.000Z</time>
      </trkpt>
      <trkpt lat="42.69743" lon="0.66825">
        <ele>2079.5</ele>
        <time>2018-08-08T15:55:06.000Z</time>
      </trkpt>
      <trkpt lat="42.69743" lon="0.66825">
        <ele>2079.5</ele>
        <time>2018-08-08T15:55:07.000Z</time>
      </trkpt>
      <trkpt lat="42.69743" lon="0.66825">
        <ele>2079.5</ele>
        <time>2018-08-08T15:55:08.000Z</time>
      </trkpt>
      <trkpt lat="42.69743" lon="0.66825">
        <ele>2079.5</ele>
        <time>2018-08-08T15:55:09.000Z</time>
      </trkpt>
      <trkpt lat="42.69743" lon="0.66825">
        <ele>2079.5</ele>
        <time>2018-08-08T15:55:10.000Z</time>
      </trkpt>
      <trkpt lat="42.69743" lon="0.66825">
        <ele>2079.5</ele>
        <time>2018-08-08T15:55:11.000Z</time>
      </trkpt>
      <trkpt lat="42.69743" lon="0.66825">
        <ele>2079.5</ele>
        <time>2018-08-08T15:55:12.000Z</time>
      </trkpt>
      <trkpt lat="42.69743" lon="0.66825">
        <ele>2079.5</ele>
        <time>2018-08-08T15:55:13.000Z</time>
      </trkpt>
      <trkpt lat="42.69743" lon="0.66825">
        <ele>2079.5</ele>
        <time>2018-08-08T15:55:14.000Z</time>
      </trkpt>
      <trkpt lat="42.69743" lon="0.66825">
        <ele>2079.5</ele>
        <time>2018-08-08T15:55:15.000Z</time>
      </trkpt>
      <trkpt lat="42.69743" lon="0.66825">
        <ele>2079.5</ele>
        <time>2018-08-08T15:55:16.000Z</time>
      </trkpt>
      <trkpt lat="42.69743" lon="0.66825">
        <ele>2079.5</ele>
        <time>2018-08-08T15:55:17.000Z</time>
      </trkpt>
      <trkpt lat="42.69743" lon="0.66825">
        <ele>2079.5</ele>
        <time>2018-08-08T15:55:18.000Z</time>
      </trkpt>
      <trkpt lat="42.69743" lon="0.66825">
        <ele>2079.5</ele>
        <time>2018-08-08T15:55:19.000Z</time>
      </trkpt>
      <trkpt lat="42.69743" lon="0.66825">
        <ele>2079.5</ele>
        <time>2018-08-08T15:55:20.000Z</time>
      </trkpt>
      <trkpt lat="42.69743" lon="0.66825">
        <ele>2079.5</ele>
        <time>2018-08-08T15:55:21.000Z</time>
      </trkpt>
      <trkpt lat="42.69743" lon="0.66825">
        <ele>2079.5</ele>
        <time>2018-08-08T15:55:22.000Z</time>
      </trkpt>
      <trkpt lat="42.69743" lon="0.66825">
        <ele>2079.5</ele>
        <time>2018-08-08T15:55:23.000Z</time>
      </trkpt>
      <trkpt lat="42.69743" lon="0.66825">
        <ele>2079.5</ele>
        <time>2018-08-08T15:55:24.000Z</time>
      </trkpt>
      <trkpt lat="42.69743" lon="0.66825">
        <ele>2079.5</ele>
        <time>2018-08-08T15:55:25.000Z</time>
      </trkpt>
      <trkpt lat="42.69743" lon="0.66825">
        <ele>2079.5</ele>
        <time>2018-08-08T15:55:26.000Z</time>
      </trkpt>
      <trkpt lat="42.69743" lon="0.66825">
        <ele>2079.5</ele>
        <time>2018-08-08T15:55:27.000Z</time>
      </trkpt>
      <trkpt lat="42.69743" lon="0.66825">
        <ele>2079.5</ele>
        <time>2018-08-08T15:55:28.000Z</time>
      </trkpt>
      <trkpt lat="42.69743" lon="0.66825">
        <ele>2079.5</ele>
        <time>2018-08-08T15:55:29.000Z</time>
      </trkpt>
      <trkpt lat="42.69743" lon="0.66825">
        <ele>2079.5</ele>
        <time>2018-08-08T15:55:30.000Z</time>
      </trkpt>
      <trkpt lat="42.69743" lon="0.66825">
        <ele>2079.5</ele>
        <time>2018-08-08T15:55:31.000Z</time>
      </trkpt>
      <trkpt lat="42.69743" lon="0.66825">
        <ele>2079.5</ele>
        <time>2018-08-08T15:55:32.000Z</time>
      </trkpt>
      <trkpt lat="42.69743" lon="0.66825">
        <ele>2079.5</ele>
        <time>2018-08-08T15:55:33.000Z</time>
      </trkpt>
      <trkpt lat="42.69743" lon="0.66825">
        <ele>2079.5</ele>
        <time>2018-08-08T15:55:34.000Z</time>
      </trkpt>
      <trkpt lat="42.69743" lon="0.66825">
        <ele>2079.5</ele>
        <time>2018-08-08T15:55:35.000Z</time>
      </trkpt>
      <trkpt lat="42.69743" lon="0.66825">
        <ele>2079.5</ele>
        <time>2018-08-08T15:55:36.000Z</time>
      </trkpt>
      <trkpt lat="42.69743" lon="0.66825">
        <ele>2079.5</ele>
        <time>2018-08-08T15:55:37.000Z</time>
      </trkpt>
      <trkpt lat="42.69743" lon="0.66825">
        <ele>2079.5</ele>
        <time>2018-08-08T15:55:38.000Z</time>
      </trkpt>
      <trkpt lat="42.69743" lon="0.66825">
        <ele>2079.5</ele>
        <time>2018-08-08T15:55:39.000Z</time>
      </trkpt>
      <trkpt lat="42.69743" lon="0.66825">
        <ele>2079.5</ele>
        <time>2018-08-08T15:55:40.000Z</time>
      </trkpt>
      <trkpt lat="42.69743" lon="0.66825">
        <ele>2079.5</ele>
        <time>2018-08-08T15:55:41.000Z</time>
      </trkpt>
      <trkpt lat="42.69743" lon="0.66825">
        <ele>2079.5</ele>
        <time>2018-08-08T15:55:42.000Z</time>
      </trkpt>
      <trkpt lat="42.69743" lon="0.66825">
        <ele>2079.5</ele>
        <time>2018-08-08T15:55:43.000Z</time>
      </trkpt>
      <trkpt lat="42.69743" lon="0.66825">
        <ele>2079.5</ele>
        <time>2018-08-08T15:55:44.000Z</time>
      </trkpt>
      <trkpt lat="42.69743" lon="0.66825">
        <ele>2079.5</ele>
        <time>2018-08-08T15:55:45.000Z</time>
      </trkpt>
      <trkpt lat="42.69743" lon="0.66825">
        <ele>2079.5</ele>
        <time>2018-08-08T15:55:46.000Z</time>
      </trkpt>
      <trkpt lat="42.69743" lon="0.66825">
        <ele>2079.5</ele>
        <time>2018-08-08T15:55:47.000Z</time>
      </trkpt>
      <trkpt lat="42.69743" lon="0.66825">
        <ele>2079.5</ele>
        <time>2018-08-08T15:55:48.000Z</time>
      </trkpt>
      <trkpt lat="42.69743" lon="0.66825">
        <ele>2079.5</ele>
        <time>2018-08-08T15:55:49.000Z</time>
      </trkpt>
      <trkpt lat="42.69743" lon="0.66825">
        <ele>2079.5</ele>
        <time>2018-08-08T15:55:50.000Z</time>
      </trkpt>
      <trkpt lat="42.69743" lon="0.66825">
        <ele>2079.5</ele>
        <time>2018-08-08T15:55:51.000Z</time>
      </trkpt>
      <trkpt lat="42.69743" lon="0.66825">
        <ele>2079.5</ele>
        <time>2018-08-08T15:55:52.000Z</time>
      </trkpt>
      <trkpt lat="42.69743" lon="0.66825">
        <ele>2079.5</ele>
        <time>2018-08-08T15:55:53.000Z</time>
      </trkpt>
      <trkpt lat="42.69743" lon="0.66825">
        <ele>2079.5</ele>
        <time>2018-08-08T15:55:54.000Z</time>
      </trkpt>
      <trkpt lat="42.69743" lon="0.66825">
        <ele>2079.5</ele>
        <time>2018-08-08T15:55:55.000Z</time>
      </trkpt>
      <trkpt lat="42.69743" lon="0.66825">
        <ele>2079.5</ele>
        <time>2018-08-08T15:55:56.000Z</time>
      </trkpt>
      <trkpt lat="42.69743" lon="0.66825">
        <ele>2079.5</ele>
        <time>2018-08-08T15:55:57.000Z</time>
      </trkpt>
      <trkpt lat="42.69743" lon="0.66825">
        <ele>2079.5</ele>
        <time>2018-08-08T15:55:58.000Z</time>
      </trkpt>
      <trkpt lat="42.69743" lon="0.66825">
        <ele>2079.5</ele>
        <time>2018-08-08T15:55:59.000Z</time>
      </trkpt>
      <trkpt lat="42.69743" lon="0.66825">
        <ele>2079.5</ele>
        <time>2018-08-08T15:56:00.000Z</time>
      </trkpt>
      <trkpt lat="42.69743" lon="0.66825">
        <ele>2079.5</ele>
        <time>2018-08-08T15:56:01.000Z</time>
      </trkpt>
      <trkpt lat="42.69743" lon="0.66825">
        <ele>2079.5</ele>
        <time>2018-08-08T15:56:02.000Z</time>
      </trkpt>
      <trkpt lat="42.69743" lon="0.66825">
        <ele>2079.5</ele>
        <time>2018-08-08T15:56:03.000Z</time>
      </trkpt>
      <trkpt lat="42.69743" lon="0.66825">
        <ele>2079.5</ele>
        <time>2018-08-08T15:56:04.000Z</time>
      </trkpt>
      <trkpt lat="42.69743" lon="0.66825">
        <ele>2079.5</ele>
        <time>2018-08-08T15:56:05.000Z</time>
      </trkpt>
      <trkpt lat="42.69743" lon="0.66825">
        <ele>2079.5</ele>
        <time>2018-08-08T15:56:06.000Z</time>
      </trkpt>
      <trkpt lat="42.69743" lon="0.66825">
        <ele>2079.5</ele>
        <time>2018-08-08T15:56:07.000Z</time>
      </trkpt>
      <trkpt lat="42.69743" lon="0.66825">
        <ele>2079.5</ele>
        <time>2018-08-08T15:56:08.000Z</time>
      </trkpt>
      <trkpt lat="42.69743" lon="0.66825">
        <ele>2079.5</ele>
        <time>2018-08-08T15:56:09.000Z</time>
      </trkpt>
      <trkpt lat="42.69743" lon="0.66825">
        <ele>2079.5</ele>
        <time>2018-08-08T15:56:10.000Z</time>
      </trkpt>
      <trkpt lat="42.69743" lon="0.66825">
        <ele>2079.5</ele>
        <time>2018-08-08T15:56:11.000Z</time>
      </trkpt>
      <trkpt lat="42.69743" lon="0.66825">
        <ele>2079.5</ele>
        <time>2018-08-08T15:56:12.000Z</time>
      </trkpt>
      <trkpt lat="42.69743" lon="0.66825">
        <ele>2079.5</ele>
        <time>2018-08-08T15:56:13.000Z</time>
      </trkpt>
      <trkpt lat="42.69743" lon="0.66825">
        <ele>2079.5</ele>
        <time>2018-08-08T15:56:14.000Z</time>
      </trkpt>
      <trkpt lat="42.69743" lon="0.66825">
        <ele>2079.5</ele>
        <time>2018-08-08T15:56:15.000Z</time>
      </trkpt>
      <trkpt lat="42.69743" lon="0.66825">
        <ele>2079.5</ele>
        <time>2018-08-08T15:56:16.000Z</time>
      </trkpt>
      <trkpt lat="42.69743" lon="0.66825">
        <ele>2079.5</ele>
        <time>2018-08-08T15:56:17.000Z</time>
      </trkpt>
      <trkpt lat="42.69743" lon="0.66825">
        <ele>2079.5</ele>
        <time>2018-08-08T15:56:18.000Z</time>
      </trkpt>
      <trkpt lat="42.69743" lon="0.66825">
        <ele>2079.5</ele>
        <time>2018-08-08T15:56:19.000Z</time>
      </trkpt>
      <trkpt lat="42.69743" lon="0.66825">
        <ele>2079.5</ele>
        <time>2018-08-08T15:56:20.000Z</time>
      </trkpt>
      <trkpt lat="42.69743" lon="0.66825">
        <ele>2079.5</ele>
        <time>2018-08-08T15:56:21.000Z</time>
      </trkpt>
      <trkpt lat="42.69743" lon="0.66825">
        <ele>2079.5</ele>
        <time>2018-08-08T15:56:22.000Z</time>
      </trkpt>
      <trkpt lat="42.69743" lon="0.66825">
        <ele>2079.5</ele>
        <time>2018-08-08T15:56:23.000Z</time>
      </trkpt>
      <trkpt lat="42.69743" lon="0.66825">
        <ele>2079.5</ele>
        <time>2018-08-08T15:56:24.000Z</time>
      </trkpt>
      <trkpt lat="42.69743" lon="0.66825">
        <ele>2079.5</ele>
        <time>2018-08-08T15:56:25.000Z</time>
      </trkpt>
      <trkpt lat="42.69743" lon="0.66825">
        <ele>2079.5</ele>
        <time>2018-08-08T15:56:26.000Z</time>
      </trkpt>
      <trkpt lat="42.69743" lon="0.66825">
        <ele>2079.5</ele>
        <time>2018-08-08T15:56:27.000Z</time>
      </trkpt>
      <trkpt lat="42.69743" lon="0.66825">
        <ele>2079.5</ele>
        <time>2018-08-08T15:56:28.000Z</time>
      </trkpt>
      <trkpt lat="42.69743" lon="0.66825">
        <ele>2079.5</ele>
        <time>2018-08-08T15:56:29.000Z</time>
      </trkpt>
      <trkpt lat="42.69743" lon="0.66825">
        <ele>2079.5</ele>
        <time>2018-08-08T15:56:30.000Z</time>
      </trkpt>
      <trkpt lat="42.69743" lon="0.66825">
        <ele>2079.5</ele>
        <time>2018-08-08T15:56:31.000Z</time>
      </trkpt>
      <trkpt lat="42.69743" lon="0.66825">
        <ele>2079.5</ele>
        <time>2018-08-08T15:56:32.000Z</time>
      </trkpt>
      <trkpt lat="42.69743" lon="0.66825">
        <ele>2079.5</ele>
        <time>2018-08-08T15:56:33.000Z</time>
      </trkpt>
      <trkpt lat="42.69743" lon="0.66825">
        <ele>2079.5</ele>
        <time>2018-08-08T15:56:34.000Z</time>
      </trkpt>
      <trkpt lat="42.69743" lon="0.66825">
        <ele>2079.5</ele>
        <time>2018-08-08T15:56:35.000Z</time>
      </trkpt>
      <trkpt lat="42.69743" lon="0.66825">
        <ele>2079.5</ele>
        <time>2018-08-08T15:56:36.000Z</time>
      </trkpt>
      <trkpt lat="42.69743" lon="0.66825">
        <ele>2079.5</ele>
        <time>2018-08-08T15:56:37.000Z</time>
      </trkpt>
      <trkpt lat="42.69743" lon="0.66825">
        <ele>2079.5</ele>
        <time>2018-08-08T15:56:38.000Z</time>
      </trkpt>
      <trkpt lat="42.69743" lon="0.66825">
        <ele>2079.5</ele>
        <time>2018-08-08T15:56:39.000Z</time>
      </trkpt>
      <trkpt lat="42.69743" lon="0.66825">
        <ele>2079.5</ele>
        <time>2018-08-08T15:56:40.000Z</time>
      </trkpt>
      <trkpt lat="42.69743" lon="0.66825">
        <ele>2079.5</ele>
        <time>2018-08-08T15:56:41.000Z</time>
      </trkpt>
      <trkpt lat="42.69743" lon="0.66825">
        <ele>2079.5</ele>
        <time>2018-08-08T15:56:42.000Z</time>
      </trkpt>
      <trkpt lat="42.69743" lon="0.66825">
        <ele>2079.5</ele>
        <time>2018-08-08T15:56:43.000Z</time>
      </trkpt>
      <trkpt lat="42.69743" lon="0.66825">
        <ele>2079.5</ele>
        <time>2018-08-08T15:56:44.000Z</time>
      </trkpt>
      <trkpt lat="42.69743" lon="0.66825">
        <ele>2079.5</ele>
        <time>2018-08-08T15:56:45.000Z</time>
      </trkpt>
      <trkpt lat="42.69743" lon="0.66825">
        <ele>2079.5</ele>
        <time>2018-08-08T15:56:46.000Z</time>
      </trkpt>
      <trkpt lat="42.69743" lon="0.66825">
        <ele>2079.5</ele>
        <time>2018-08-08T15:56:47.000Z</time>
      </trkpt>
      <trkpt lat="42.69743" lon="0.66825">
        <ele>2079.5</ele>
        <time>2018-08-08T15:56:48.000Z</time>
      </trkpt>
      <trkpt lat="42.69743" lon="0.66825">
        <ele>2079.5</ele>
        <time>2018-08-08T15:56:49.000Z</time>
      </trkpt>
      <trkpt lat="42.69743" lon="0.66825">
        <ele>2079.5</ele>
        <time>2018-08-08T15:56:50.000Z</time>
      </trkpt>
      <trkpt lat="42.69743" lon="0.66825">
        <ele>2079.5</ele>
        <time>2018-08-08T15:56:51.000Z</time>
      </trkpt>
      <trkpt lat="42.69743" lon="0.66825">
        <ele>2079.5</ele>
        <time>2018-08-08T15:56:52.000Z</time>
      </trkpt>
      <trkpt lat="42.69743" lon="0.66825">
        <ele>2079.5</ele>
        <time>2018-08-08T15:56:53.000Z</time>
      </trkpt>
      <trkpt lat="42.69743" lon="0.66825">
        <ele>2079.5</ele>
        <time>2018-08-08T15:56:54.000Z</time>
      </trkpt>
      <trkpt lat="42.69743" lon="0.66825">
        <ele>2079.5</ele>
        <time>2018-08-08T15:56:55.000Z</time>
      </trkpt>
      <trkpt lat="42.69743" lon="0.66825">
        <ele>2079.5</ele>
        <time>2018-08-08T15:56:56.000Z</time>
      </trkpt>
      <trkpt lat="42.69743" lon="0.66825">
        <ele>2079.5</ele>
        <time>2018-08-08T15:56:57.000Z</time>
      </trkpt>
      <trkpt lat="42.69743" lon="0.66825">
        <ele>2079.5</ele>
        <time>2018-08-08T15:56:58.000Z</time>
      </trkpt>
      <trkpt lat="42.69743" lon="0.66825">
        <ele>2079.5</ele>
        <time>2018-08-08T15:56:59.000Z</time>
      </trkpt>
      <trkpt lat="42.69743" lon="0.66825">
        <ele>2079.5</ele>
        <time>2018-08-08T15:57:00.000Z</time>
      </trkpt>
      <trkpt lat="42.69743" lon="0.66825">
        <ele>2079.5</ele>
        <time>2018-08-08T15:57:01.000Z</time>
      </trkpt>
      <trkpt lat="42.69743" lon="0.66825">
        <ele>2079.5</ele>
        <time>2018-08-08T15:57:02.000Z</time>
      </trkpt>
      <trkpt lat="42.69743" lon="0.66825">
        <ele>2079.5</ele>
        <time>2018-08-08T15:57:03.000Z</time>
      </trkpt>
      <trkpt lat="42.69743" lon="0.66825">
        <ele>2079.5</ele>
        <time>2018-08-08T15:57:04.000Z</time>
      </trkpt>
      <trkpt lat="42.69743" lon="0.66825">
        <ele>2079.5</ele>
        <time>2018-08-08T15:57:05.000Z</time>
      </trkpt>
      <trkpt lat="42.69743" lon="0.66825">
        <ele>2079.5</ele>
        <time>2018-08-08T15:57:06.000Z</time>
      </trkpt>
      <trkpt lat="42.69743" lon="0.66825">
        <ele>2079.5</ele>
        <time>2018-08-08T15:57:07.000Z</time>
      </trkpt>
      <trkpt lat="42.69743" lon="0.66825">
        <ele>2079.5</ele>
        <time>2018-08-08T15:57:08.000Z</time>
      </trkpt>
      <trkpt lat="42.69743" lon="0.66825">
        <ele>2079.5</ele>
        <time>2018-08-08T15:57:09.000Z</time>
      </trkpt>
      <trkpt lat="42.69743" lon="0.66825">
        <ele>2079.5</ele>
        <time>2018-08-08T15:57:10.000Z</time>
      </trkpt>
      <trkpt lat="42.69743" lon="0.66825">
        <ele>2079.5</ele>
        <time>2018-08-08T15:57:11.000Z</time>
      </trkpt>
      <trkpt lat="42.69743" lon="0.66825">
        <ele>2079.5</ele>
        <time>2018-08-08T15:57:12.000Z</time>
      </trkpt>
      <trkpt lat="42.69743" lon="0.66825">
        <ele>2079.5</ele>
        <time>2018-08-08T15:57:13.000Z</time>
      </trkpt>
      <trkpt lat="42.69743" lon="0.66825">
        <ele>2079.5</ele>
        <time>2018-08-08T15:57:14.000Z</time>
      </trkpt>
      <trkpt lat="42.69743" lon="0.66825">
        <ele>2079.5</ele>
        <time>2018-08-08T15:57:15.000Z</time>
      </trkpt>
      <trkpt lat="42.69743" lon="0.66825">
        <ele>2079.5</ele>
        <time>2018-08-08T15:57:16.000Z</time>
      </trkpt>
      <trkpt lat="42.69743" lon="0.66825">
        <ele>2079.5</ele>
        <time>2018-08-08T15:57:17.000Z</time>
      </trkpt>
      <trkpt lat="42.69743" lon="0.66825">
        <ele>2079.5</ele>
        <time>2018-08-08T15:57:18.000Z</time>
      </trkpt>
      <trkpt lat="42.69743" lon="0.66825">
        <ele>2079.5</ele>
        <time>2018-08-08T15:57:19.000Z</time>
      </trkpt>
      <trkpt lat="42.69743" lon="0.66825">
        <ele>2079.5</ele>
        <time>2018-08-08T15:57:20.000Z</time>
      </trkpt>
      <trkpt lat="42.69743" lon="0.66825">
        <ele>2079.5</ele>
        <time>2018-08-08T15:57:21.000Z</time>
      </trkpt>
      <trkpt lat="42.69743" lon="0.66825">
        <ele>2079.5</ele>
        <time>2018-08-08T15:57:22.000Z</time>
      </trkpt>
      <trkpt lat="42.69743" lon="0.66825">
        <ele>2079.5</ele>
        <time>2018-08-08T15:57:23.000Z</time>
      </trkpt>
      <trkpt lat="42.69743" lon="0.66825">
        <ele>2079.5</ele>
        <time>2018-08-08T15:57:24.000Z</time>
      </trkpt>
      <trkpt lat="42.69743" lon="0.66825">
        <ele>2079.5</ele>
        <time>2018-08-08T15:57:25.000Z</time>
      </trkpt>
      <trkpt lat="42.69743" lon="0.66825">
        <ele>2079.5</ele>
        <time>2018-08-08T15:57:26.000Z</time>
      </trkpt>
      <trkpt lat="42.69743" lon="0.66825">
        <ele>2079.5</ele>
        <time>2018-08-08T15:57:27.000Z</time>
      </trkpt>
      <trkpt lat="42.69743" lon="0.66825">
        <ele>2079.5</ele>
        <time>2018-08-08T15:57:28.000Z</time>
      </trkpt>
      <trkpt lat="42.69743" lon="0.66825">
        <ele>2079.5</ele>
        <time>2018-08-08T15:57:29.000Z</time>
      </trkpt>
      <trkpt lat="42.69743" lon="0.66825">
        <ele>2079.5</ele>
        <time>2018-08-08T15:57:30.000Z</time>
      </trkpt>
      <trkpt lat="42.69743" lon="0.66825">
        <ele>2079.5</ele>
        <time>2018-08-08T15:57:31.000Z</time>
      </trkpt>
      <trkpt lat="42.69743" lon="0.66825">
        <ele>2079.5</ele>
        <time>2018-08-08T15:57:32.000Z</time>
      </trkpt>
      <trkpt lat="42.69743" lon="0.66825">
        <ele>2079.5</ele>
        <time>2018-08-08T15:57:33.000Z</time>
      </trkpt>
      <trkpt lat="42.69743" lon="0.66825">
        <ele>2079.5</ele>
        <time>2018-08-08T15:57:34.000Z</time>
      </trkpt>
      <trkpt lat="42.69743" lon="0.66825">
        <ele>2079.5</ele>
        <time>2018-08-08T15:57:35.000Z</time>
      </trkpt>
      <trkpt lat="42.69743" lon="0.66825">
        <ele>2079.5</ele>
        <time>2018-08-08T15:57:36.000Z</time>
      </trkpt>
      <trkpt lat="42.69743" lon="0.66825">
        <ele>2079.5</ele>
        <time>2018-08-08T15:57:37.000Z</time>
      </trkpt>
      <trkpt lat="42.69743" lon="0.66825">
        <ele>2079.5</ele>
        <time>2018-08-08T15:57:38.000Z</time>
      </trkpt>
      <trkpt lat="42.69743" lon="0.66825">
        <ele>2079.5</ele>
        <time>2018-08-08T15:57:39.000Z</time>
      </trkpt>
      <trkpt lat="42.69743" lon="0.66825">
        <ele>2079.5</ele>
        <time>2018-08-08T15:57:40.000Z</time>
      </trkpt>
      <trkpt lat="42.69743" lon="0.66825">
        <ele>2079.5</ele>
        <time>2018-08-08T15:57:41.000Z</time>
      </trkpt>
      <trkpt lat="42.69743" lon="0.66825">
        <ele>2079.5</ele>
        <time>2018-08-08T15:57:42.000Z</time>
      </trkpt>
      <trkpt lat="42.69743" lon="0.66825">
        <ele>2079.5</ele>
        <time>2018-08-08T15:57:43.000Z</time>
      </trkpt>
      <trkpt lat="42.69743" lon="0.66825">
        <ele>2079.5</ele>
        <time>2018-08-08T15:57:44.000Z</time>
      </trkpt>
      <trkpt lat="42.69743" lon="0.66825">
        <ele>2079.5</ele>
        <time>2018-08-08T15:57:45.000Z</time>
      </trkpt>
      <trkpt lat="42.69743" lon="0.66825">
        <ele>2079.5</ele>
        <time>2018-08-08T15:57:46.000Z</time>
      </trkpt>
      <trkpt lat="42.69743" lon="0.66825">
        <ele>2079.5</ele>
        <time>2018-08-08T15:57:47.000Z</time>
      </trkpt>
      <trkpt lat="42.69743" lon="0.66825">
        <ele>2079.5</ele>
        <time>2018-08-08T15:57:48.000Z</time>
      </trkpt>
      <trkpt lat="42.69743" lon="0.66825">
        <ele>2079.5</ele>
        <time>2018-08-08T15:57:49.000Z</time>
      </trkpt>
      <trkpt lat="42.69743" lon="0.66825">
        <ele>2079.5</ele>
        <time>2018-08-08T15:57:50.000Z</time>
      </trkpt>
      <trkpt lat="42.69743" lon="0.66825">
        <ele>2079.5</ele>
        <time>2018-08-08T15:57:51.000Z</time>
      </trkpt>
      <trkpt lat="42.69743" lon="0.66825">
        <ele>2079.5</ele>
        <time>2018-08-08T15:57:52.000Z</time>
      </trkpt>
      <trkpt lat="42.69743" lon="0.66825">
        <ele>2079.5</ele>
        <time>2018-08-08T15:57:53.000Z</time>
      </trkpt>
      <trkpt lat="42.69743" lon="0.66825">
        <ele>2079.5</ele>
        <time>2018-08-08T15:57:54.000Z</time>
      </trkpt>
      <trkpt lat="42.69743" lon="0.66825">
        <ele>2079.5</ele>
        <time>2018-08-08T15:57:55.000Z</time>
      </trkpt>
      <trkpt lat="42.69743" lon="0.66825">
        <ele>2079.5</ele>
        <time>2018-08-08T15:57:56.000Z</time>
      </trkpt>
      <trkpt lat="42.69743" lon="0.66825">
        <ele>2079.5</ele>
        <time>2018-08-08T15:57:57.000Z</time>
      </trkpt>
      <trkpt lat="42.69743" lon="0.66825">
        <ele>2079.5</ele>
        <time>2018-08-08T15:57:58.000Z</time>
      </trkpt>
      <trkpt lat="42.69743" lon="0.66825">
        <ele>2079.5</ele>
        <time>2018-08-08T15:57:59.000Z</time>
      </trkpt>
      <trkpt lat="42.69743" lon="0.66825">
        <ele>2079.5</ele>
        <time>2018-08-08T15:58:00.000Z</time>
      </trkpt>
      <trkpt lat="42.69743" lon="0.66825">
        <ele>2079.5</ele>
        <time>2018-08-08T15:58:01.000Z</time>
      </trkpt>
      <trkpt lat="42.69743" lon="0.66825">
        <ele>2079.5</ele>
        <time>2018-08-08T15:58:02.000Z</time>
      </trkpt>
      <trkpt lat="42.69743" lon="0.66825">
        <ele>2079.5</ele>
        <time>2018-08-08T15:58:03.000Z</time>
      </trkpt>
      <trkpt lat="42.69743" lon="0.66825">
        <ele>2079.5</ele>
        <time>2018-08-08T15:58:04.000Z</time>
      </trkpt>
      <trkpt lat="42.69743" lon="0.66825">
        <ele>2079.5</ele>
        <time>2018-08-08T15:58:05.000Z</time>
      </trkpt>
      <trkpt lat="42.69743" lon="0.66825">
        <ele>2079.5</ele>
        <time>2018-08-08T15:58:06.000Z</time>
      </trkpt>
      <trkpt lat="42.69743" lon="0.66825">
        <ele>2079.5</ele>
        <time>2018-08-08T15:58:07.000Z</time>
      </trkpt>
      <trkpt lat="42.69743" lon="0.66825">
        <ele>2079.5</ele>
        <time>2018-08-08T15:58:08.000Z</time>
      </trkpt>
      <trkpt lat="42.69743" lon="0.66825">
        <ele>2079.5</ele>
        <time>2018-08-08T15:58:09.000Z</time>
      </trkpt>
      <trkpt lat="42.69743" lon="0.66825">
        <ele>2079.5</ele>
        <time>2018-08-08T15:58:10.000Z</time>
      </trkpt>
      <trkpt lat="42.69743" lon="0.66825">
        <ele>2079.5</ele>
        <time>2018-08-08T15:58:11.000Z</time>
      </trkpt>
      <trkpt lat="42.69743" lon="0.66825">
        <ele>2079.5</ele>
        <time>2018-08-08T15:58:12.000Z</time>
      </trkpt>
      <trkpt lat="42.69743" lon="0.66825">
        <ele>2079.5</ele>
        <time>2018-08-08T15:58:13.000Z</time>
      </trkpt>
      <trkpt lat="42.69743" lon="0.66825">
        <ele>2079.5</ele>
        <time>2018-08-08T15:58:14.000Z</time>
      </trkpt>
      <trkpt lat="42.69743" lon="0.66825">
        <ele>2079.5</ele>
        <time>2018-08-08T15:58:15.000Z</time>
      </trkpt>
      <trkpt lat="42.69743" lon="0.66825">
        <ele>2079.5</ele>
        <time>2018-08-08T15:58:16.000Z</time>
      </trkpt>
      <trkpt lat="42.69743" lon="0.66825">
        <ele>2079.5</ele>
        <time>2018-08-08T15:58:17.000Z</time>
      </trkpt>
      <trkpt lat="42.69743" lon="0.66825">
        <ele>2079.5</ele>
        <time>2018-08-08T15:58:18.000Z</time>
      </trkpt>
      <trkpt lat="42.69743" lon="0.66825">
        <ele>2079.5</ele>
        <time>2018-08-08T15:58:19.000Z</time>
      </trkpt>
      <trkpt lat="42.69743" lon="0.66825">
        <ele>2079.5</ele>
        <time>2018-08-08T15:58:20.000Z</time>
      </trkpt>
      <trkpt lat="42.69743" lon="0.66825">
        <ele>2079.5</ele>
        <time>2018-08-08T15:58:21.000Z</time>
      </trkpt>
      <trkpt lat="42.69743" lon="0.66825">
        <ele>2079.5</ele>
        <time>2018-08-08T15:58:22.000Z</time>
      </trkpt>
      <trkpt lat="42.69743" lon="0.66825">
        <ele>2079.5</ele>
        <time>2018-08-08T15:58:23.000Z</time>
      </trkpt>
      <trkpt lat="42.69743" lon="0.66825">
        <ele>2079.5</ele>
        <time>2018-08-08T15:58:24.000Z</time>
      </trkpt>
      <trkpt lat="42.69743" lon="0.66825">
        <ele>2079.5</ele>
        <time>2018-08-08T15:58:25.000Z</time>
      </trkpt>
      <trkpt lat="42.69743" lon="0.66825">
        <ele>2079.5</ele>
        <time>2018-08-08T15:58:26.000Z</time>
      </trkpt>
      <trkpt lat="42.69743" lon="0.66825">
        <ele>2079.5</ele>
        <time>2018-08-08T15:58:27.000Z</time>
      </trkpt>
      <trkpt lat="42.69743" lon="0.66825">
        <ele>2079.5</ele>
        <time>2018-08-08T15:58:28.000Z</time>
      </trkpt>
      <trkpt lat="42.69743" lon="0.66825">
        <ele>2079.5</ele>
        <time>2018-08-08T15:58:29.000Z</time>
      </trkpt>
      <trkpt lat="42.69743" lon="0.66825">
        <ele>2079.5</ele>
        <time>2018-08-08T15:58:30.000Z</time>
      </trkpt>
      <trkpt lat="42.69743" lon="0.66825">
        <ele>2079.5</ele>
        <time>2018-08-08T15:58:31.000Z</time>
      </trkpt>
      <trkpt lat="42.69743" lon="0.66825">
        <ele>2079.5</ele>
        <time>2018-08-08T15:58:32.000Z</time>
      </trkpt>
      <trkpt lat="42.69743" lon="0.66825">
        <ele>2079.5</ele>
        <time>2018-08-08T15:58:33.000Z</time>
      </trkpt>
      <trkpt lat="42.69743" lon="0.66825">
        <ele>2079.5</ele>
        <time>2018-08-08T15:58:34.000Z</time>
      </trkpt>
      <trkpt lat="42.69743" lon="0.66825">
        <ele>2079.5</ele>
        <time>2018-08-08T15:58:35.000Z</time>
      </trkpt>
      <trkpt lat="42.69743" lon="0.66825">
        <ele>2079.5</ele>
        <time>2018-08-08T15:58:36.000Z</time>
      </trkpt>
      <trkpt lat="42.69743" lon="0.66825">
        <ele>2079.5</ele>
        <time>2018-08-08T15:58:37.000Z</time>
      </trkpt>
      <trkpt lat="42.69743" lon="0.66825">
        <ele>2079.5</ele>
        <time>2018-08-08T15:58:38.000Z</time>
      </trkpt>
      <trkpt lat="42.69743" lon="0.66825">
        <ele>2079.5</ele>
        <time>2018-08-08T15:58:39.000Z</time>
      </trkpt>
      <trkpt lat="42.69743" lon="0.66825">
        <ele>2079.5</ele>
        <time>2018-08-08T15:58:40.000Z</time>
      </trkpt>
      <trkpt lat="42.69743" lon="0.66825">
        <ele>2079.5</ele>
        <time>2018-08-08T15:58:41.000Z</time>
      </trkpt>
      <trkpt lat="42.69743" lon="0.66825">
        <ele>2079.5</ele>
        <time>2018-08-08T15:58:42.000Z</time>
      </trkpt>
      <trkpt lat="42.69743" lon="0.66825">
        <ele>2079.5</ele>
        <time>2018-08-08T15:58:43.000Z</time>
      </trkpt>
      <trkpt lat="42.69743" lon="0.66825">
        <ele>2079.5</ele>
        <time>2018-08-08T15:58:44.000Z</time>
      </trkpt>
      <trkpt lat="42.69743" lon="0.66825">
        <ele>2079.5</ele>
        <time>2018-08-08T15:58:45.000Z</time>
      </trkpt>
      <trkpt lat="42.69743" lon="0.66825">
        <ele>2079.5</ele>
        <time>2018-08-08T15:58:46.000Z</time>
      </trkpt>
      <trkpt lat="42.69743" lon="0.66825">
        <ele>2079.5</ele>
        <time>2018-08-08T15:58:47.000Z</time>
      </trkpt>
      <trkpt lat="42.69743" lon="0.66825">
        <ele>2079.5</ele>
        <time>2018-08-08T15:58:48.000Z</time>
      </trkpt>
      <trkpt lat="42.69743" lon="0.66825">
        <ele>2079.5</ele>
        <time>2018-08-08T15:58:49.000Z</time>
      </trkpt>
      <trkpt lat="42.69743" lon="0.66825">
        <ele>2079.5</ele>
        <time>2018-08-08T15:58:50.000Z</time>
      </trkpt>
      <trkpt lat="42.69743" lon="0.66825">
        <ele>2079.5</ele>
        <time>2018-08-08T15:58:51.000Z</time>
      </trkpt>
      <trkpt lat="42.69743" lon="0.66825">
        <ele>2079.5</ele>
        <time>2018-08-08T15:58:52.000Z</time>
      </trkpt>
      <trkpt lat="42.69743" lon="0.66825">
        <ele>2079.5</ele>
        <time>2018-08-08T15:58:53.000Z</time>
      </trkpt>
      <trkpt lat="42.69743" lon="0.66825">
        <ele>2079.5</ele>
        <time>2018-08-08T15:58:54.000Z</time>
      </trkpt>
      <trkpt lat="42.69743" lon="0.66825">
        <ele>2079.5</ele>
        <time>2018-08-08T15:58:55.000Z</time>
      </trkpt>
      <trkpt lat="42.69743" lon="0.66825">
        <ele>2079.5</ele>
        <time>2018-08-08T15:58:56.000Z</time>
      </trkpt>
      <trkpt lat="42.69743" lon="0.66825">
        <ele>2079.5</ele>
        <time>2018-08-08T15:58:57.000Z</time>
      </trkpt>
      <trkpt lat="42.69743" lon="0.66825">
        <ele>2079.5</ele>
        <time>2018-08-08T15:58:58.000Z</time>
      </trkpt>
      <trkpt lat="42.69743" lon="0.66825">
        <ele>2079.5</ele>
        <time>2018-08-08T15:58:59.000Z</time>
      </trkpt>
      <trkpt lat="42.69743" lon="0.66825">
        <ele>2079.5</ele>
        <time>2018-08-08T15:59:00.000Z</time>
      </trkpt>
      <trkpt lat="42.69743" lon="0.66825">
        <ele>2079.5</ele>
        <time>2018-08-08T15:59:01.000Z</time>
      </trkpt>
      <trkpt lat="42.69743" lon="0.66825">
        <ele>2079.5</ele>
        <time>2018-08-08T15:59:02.000Z</time>
      </trkpt>
      <trkpt lat="42.69743" lon="0.66825">
        <ele>2079.5</ele>
        <time>2018-08-08T15:59:03.000Z</time>
      </trkpt>
      <trkpt lat="42.69743" lon="0.66825">
        <ele>2079.5</ele>
        <time>2018-08-08T15:59:04.000Z</time>
      </trkpt>
      <trkpt lat="42.69743" lon="0.66825">
        <ele>2079.5</ele>
        <time>2018-08-08T15:59:05.000Z</time>
      </trkpt>
      <trkpt lat="42.69743" lon="0.66825">
        <ele>2079.5</ele>
        <time>2018-08-08T15:59:06.000Z</time>
      </trkpt>
      <trkpt lat="42.69743" lon="0.66825">
        <ele>2079.5</ele>
        <time>2018-08-08T15:59:07.000Z</time>
      </trkpt>
      <trkpt lat="42.69743" lon="0.66825">
        <ele>2079.5</ele>
        <time>2018-08-08T15:59:08.000Z</time>
      </trkpt>
      <trkpt lat="42.69743" lon="0.66825">
        <ele>2079.5</ele>
        <time>2018-08-08T15:59:09.000Z</time>
      </trkpt>
      <trkpt lat="42.69743" lon="0.66825">
        <ele>2079.5</ele>
        <time>2018-08-08T15:59:10.000Z</time>
      </trkpt>
      <trkpt lat="42.69743" lon="0.66825">
        <ele>2079.5</ele>
        <time>2018-08-08T15:59:11.000Z</time>
      </trkpt>
      <trkpt lat="42.69743" lon="0.66825">
        <ele>2079.5</ele>
        <time>2018-08-08T15:59:12.000Z</time>
      </trkpt>
      <trkpt lat="42.69743" lon="0.66825">
        <ele>2079.5</ele>
        <time>2018-08-08T15:59:13.000Z</time>
      </trkpt>
      <trkpt lat="42.69743" lon="0.66825">
        <ele>2079.5</ele>
        <time>2018-08-08T15:59:14.000Z</time>
      </trkpt>
      <trkpt lat="42.69743" lon="0.66825">
        <ele>2079.5</ele>
        <time>2018-08-08T15:59:15.000Z</time>
      </trkpt>
      <trkpt lat="42.69743" lon="0.66825">
        <ele>2079.5</ele>
        <time>2018-08-08T15:59:16.000Z</time>
      </trkpt>
      <trkpt lat="42.69743" lon="0.66825">
        <ele>2079.5</ele>
        <time>2018-08-08T15:59:17.000Z</time>
      </trkpt>
      <trkpt lat="42.69743" lon="0.66825">
        <ele>2079.5</ele>
        <time>2018-08-08T15:59:18.000Z</time>
      </trkpt>
      <trkpt lat="42.69743" lon="0.66825">
        <ele>2079.5</ele>
        <time>2018-08-08T15:59:19.000Z</time>
      </trkpt>
      <trkpt lat="42.69743" lon="0.66825">
        <ele>2079.5</ele>
        <time>2018-08-08T15:59:20.000Z</time>
      </trkpt>
      <trkpt lat="42.69743" lon="0.66825">
        <ele>2079.5</ele>
        <time>2018-08-08T15:59:21.000Z</time>
      </trkpt>
      <trkpt lat="42.69743" lon="0.66825">
        <ele>2079.5</ele>
        <time>2018-08-08T15:59:22.000Z</time>
      </trkpt>
      <trkpt lat="42.69743" lon="0.66825">
        <ele>2079.5</ele>
        <time>2018-08-08T15:59:23.000Z</time>
      </trkpt>
      <trkpt lat="42.69743" lon="0.66825">
        <ele>2079.5</ele>
        <time>2018-08-08T15:59:24.000Z</time>
      </trkpt>
      <trkpt lat="42.69743" lon="0.66825">
        <ele>2079.5</ele>
        <time>2018-08-08T15:59:25.000Z</time>
      </trkpt>
      <trkpt lat="42.69743" lon="0.66825">
        <ele>2079.5</ele>
        <time>2018-08-08T15:59:26.000Z</time>
      </trkpt>
      <trkpt lat="42.69743" lon="0.66825">
        <ele>2079.5</ele>
        <time>2018-08-08T15:59:27.000Z</time>
      </trkpt>
      <trkpt lat="42.69743" lon="0.66825">
        <ele>2079.5</ele>
        <time>2018-08-08T15:59:28.000Z</time>
      </trkpt>
      <trkpt lat="42.69743" lon="0.66825">
        <ele>2079.5</ele>
        <time>2018-08-08T15:59:29.000Z</time>
      </trkpt>
      <trkpt lat="42.69743" lon="0.66825">
        <ele>2079.5</ele>
        <time>2018-08-08T15:59:30.000Z</time>
      </trkpt>
      <trkpt lat="42.69743" lon="0.66825">
        <ele>2079.5</ele>
        <time>2018-08-08T15:59:31.000Z</time>
      </trkpt>
      <trkpt lat="42.69743" lon="0.66825">
        <ele>2079.5</ele>
        <time>2018-08-08T15:59:32.000Z</time>
      </trkpt>
      <trkpt lat="42.69743" lon="0.66825">
        <ele>2079.5</ele>
        <time>2018-08-08T15:59:33.000Z</time>
      </trkpt>
      <trkpt lat="42.69743" lon="0.66825">
        <ele>2079.5</ele>
        <time>2018-08-08T15:59:34.000Z</time>
      </trkpt>
      <trkpt lat="42.69743" lon="0.66825">
        <ele>2079.5</ele>
        <time>2018-08-08T15:59:35.000Z</time>
      </trkpt>
      <trkpt lat="42.69743" lon="0.66825">
        <ele>2079.5</ele>
        <time>2018-08-08T15:59:36.000Z</time>
      </trkpt>
      <trkpt lat="42.69743" lon="0.66825">
        <ele>2079.5</ele>
        <time>2018-08-08T15:59:37.000Z</time>
      </trkpt>
      <trkpt lat="42.69743" lon="0.66825">
        <ele>2079.5</ele>
        <time>2018-08-08T15:59:38.000Z</time>
      </trkpt>
      <trkpt lat="42.69743" lon="0.66825">
        <ele>2079.5</ele>
        <time>2018-08-08T15:59:39.000Z</time>
      </trkpt>
      <trkpt lat="42.69743" lon="0.66825">
        <ele>2079.5</ele>
        <time>2018-08-08T15:59:40.000Z</time>
      </trkpt>
      <trkpt lat="42.69743" lon="0.66825">
        <ele>2079.5</ele>
        <time>2018-08-08T15:59:41.000Z</time>
      </trkpt>
      <trkpt lat="42.69743" lon="0.66825">
        <ele>2079.5</ele>
        <time>2018-08-08T15:59:42.000Z</time>
      </trkpt>
      <trkpt lat="42.69743" lon="0.66825">
        <ele>2079.5</ele>
        <time>2018-08-08T15:59:43.000Z</time>
      </trkpt>
      <trkpt lat="42.69743" lon="0.66825">
        <ele>2079.5</ele>
        <time>2018-08-08T15:59:44.000Z</time>
      </trkpt>
      <trkpt lat="42.69743" lon="0.66825">
        <ele>2079.5</ele>
        <time>2018-08-08T15:59:45.000Z</time>
      </trkpt>
      <trkpt lat="42.69743" lon="0.66825">
        <ele>2079.5</ele>
        <time>2018-08-08T15:59:46.000Z</time>
      </trkpt>
      <trkpt lat="42.69743" lon="0.66825">
        <ele>2079.5</ele>
        <time>2018-08-08T15:59:47.000Z</time>
      </trkpt>
      <trkpt lat="42.69743" lon="0.66825">
        <ele>2079.5</ele>
        <time>2018-08-08T15:59:48.000Z</time>
      </trkpt>
      <trkpt lat="42.69743" lon="0.66825">
        <ele>2079.5</ele>
        <time>2018-08-08T15:59:49.000Z</time>
      </trkpt>
      <trkpt lat="42.69743" lon="0.66825">
        <ele>2079.5</ele>
        <time>2018-08-08T15:59:50.000Z</time>
      </trkpt>
      <trkpt lat="42.69743" lon="0.66825">
        <ele>2079.5</ele>
        <time>2018-08-08T15:59:51.000Z</time>
      </trkpt>
      <trkpt lat="42.69743" lon="0.66825">
        <ele>2079.5</ele>
        <time>2018-08-08T15:59:52.000Z</time>
      </trkpt>
      <trkpt lat="42.69743" lon="0.66825">
        <ele>2079.5</ele>
        <time>2018-08-08T15:59:53.000Z</time>
      </trkpt>
      <trkpt lat="42.69743" lon="0.66825">
        <ele>2079.5</ele>
        <time>2018-08-08T15:59:54.000Z</time>
      </trkpt>
      <trkpt lat="42.69743" lon="0.66825">
        <ele>2079.5</ele>
        <time>2018-08-08T15:59:55.000Z</time>
      </trkpt>
      <trkpt lat="42.69743" lon="0.66825">
        <ele>2079.5</ele>
        <time>2018-08-08T15:59:56.000Z</time>
      </trkpt>
      <trkpt lat="42.69743" lon="0.66825">
        <ele>2079.5</ele>
        <time>2018-08-08T15:59:57.000Z</time>
      </trkpt>
      <trkpt lat="42.69743" lon="0.66825">
        <ele>2079.5</ele>
        <time>2018-08-08T15:59:58.000Z</time>
      </trkpt>
      <trkpt lat="42.69743" lon="0.66825">
        <ele>2079.5</ele>
        <time>2018-08-08T15:59:59.000Z</time>
      </trkpt>
      <trkpt lat="42.69743" lon="0.66825">
        <ele>2079.5</ele>
        <time>2018-08-08T16:00:00.000Z</time>
      </trkpt>
      <trkpt lat="42.69743" lon="0.66825">
        <ele>2079.5</ele>
        <time>2018-08-08T16:00:01.000Z</time>
      </trkpt>
      <trkpt lat="42.69743" lon="0.66825">
        <ele>2079.5</ele>
        <time>2018-08-08T16:00:02.000Z</time>
      </trkpt>
      <trkpt lat="42.69743" lon="0.66825">
        <ele>2079.5</ele>
        <time>2018-08-08T16:00:03.000Z</time>
      </trkpt>
      <trkpt lat="42.69743" lon="0.66825">
        <ele>2079.5</ele>
        <time>2018-08-08T16:00:04.000Z</time>
      </trkpt>
      <trkpt lat="42.69743" lon="0.66825">
        <ele>2079.5</ele>
        <time>2018-08-08T16:00:05.000Z</time>
      </trkpt>
      <trkpt lat="42.69743" lon="0.66825">
        <ele>2079.5</ele>
        <time>2018-08-08T16:00:06.000Z</time>
      </trkpt>
      <trkpt lat="42.69743" lon="0.66825">
        <ele>2079.5</ele>
        <time>2018-08-08T16:00:07.000Z</time>
      </trkpt>
      <trkpt lat="42.69743" lon="0.66825">
        <ele>2079.5</ele>
        <time>2018-08-08T16:00:08.000Z</time>
      </trkpt>
      <trkpt lat="42.69743" lon="0.66825">
        <ele>2079.5</ele>
        <time>2018-08-08T16:00:09.000Z</time>
      </trkpt>
      <trkpt lat="42.69743" lon="0.66825">
        <ele>2079.5</ele>
        <time>2018-08-08T16:00:10.000Z</time>
      </trkpt>
      <trkpt lat="42.69743" lon="0.66825">
        <ele>2079.5</ele>
        <time>2018-08-08T16:00:11.000Z</time>
      </trkpt>
      <trkpt lat="42.69743" lon="0.66825">
        <ele>2079.5</ele>
        <time>2018-08-08T16:00:12.000Z</time>
      </trkpt>
      <trkpt lat="42.69743" lon="0.66825">
        <ele>2079.5</ele>
        <time>2018-08-08T16:00:13.000Z</time>
      </trkpt>
      <trkpt lat="42.69743" lon="0.66825">
        <ele>2079.5</ele>
        <time>2018-08-08T16:00:14.000Z</time>
      </trkpt>
      <trkpt lat="42.69743" lon="0.66825">
        <ele>2079.5</ele>
        <time>2018-08-08T16:00:15.000Z</time>
      </trkpt>
      <trkpt lat="42.69743" lon="0.66825">
        <ele>2079.5</ele>
        <time>2018-08-08T16:00:16.000Z</time>
      </trkpt>
      <trkpt lat="42.69743" lon="0.66825">
        <ele>2079.5</ele>
        <time>2018-08-08T16:00:17.000Z</time>
      </trkpt>
      <trkpt lat="42.69743" lon="0.66825">
        <ele>2079.5</ele>
        <time>2018-08-08T16:00:18.000Z</time>
      </trkpt>
      <trkpt lat="42.69743" lon="0.66825">
        <ele>2079.5</ele>
        <time>2018-08-08T16:00:19.000Z</time>
      </trkpt>
      <trkpt lat="42.69743" lon="0.66825">
        <ele>2079.5</ele>
        <time>2018-08-08T16:00:20.000Z</time>
      </trkpt>
      <trkpt lat="42.69743" lon="0.66825">
        <ele>2079.5</ele>
        <time>2018-08-08T16:00:21.000Z</time>
      </trkpt>
      <trkpt lat="42.69743" lon="0.66825">
        <ele>2079.5</ele>
        <time>2018-08-08T16:00:22.000Z</time>
      </trkpt>
      <trkpt lat="42.69743" lon="0.66825">
        <ele>2079.5</ele>
        <time>2018-08-08T16:00:23.000Z</time>
      </trkpt>
      <trkpt lat="42.69743" lon="0.66825">
        <ele>2079.5</ele>
        <time>2018-08-08T16:00:24.000Z</time>
      </trkpt>
      <trkpt lat="42.69743" lon="0.66825">
        <ele>2079.5</ele>
        <time>2018-08-08T16:00:25.000Z</time>
      </trkpt>
      <trkpt lat="42.69743" lon="0.66825">
        <ele>2079.5</ele>
        <time>2018-08-08T16:00:26.000Z</time>
      </trkpt>
      <trkpt lat="42.69743" lon="0.66825">
        <ele>2079.5</ele>
        <time>2018-08-08T16:00:27.000Z</time>
      </trkpt>
      <trkpt lat="42.69743" lon="0.66825">
        <ele>2079.5</ele>
        <time>2018-08-08T16:00:28.000Z</time>
      </trkpt>
      <trkpt lat="42.69743" lon="0.66825">
        <ele>2079.5</ele>
        <time>2018-08-08T16:00:29.000Z</time>
      </trkpt>
      <trkpt lat="42.69743" lon="0.66825">
        <ele>2079.5</ele>
        <time>2018-08-08T16:00:30.000Z</time>
      </trkpt>
      <trkpt lat="42.69743" lon="0.66825">
        <ele>2079.5</ele>
        <time>2018-08-08T16:00:31.000Z</time>
      </trkpt>
      <trkpt lat="42.69743" lon="0.66825">
        <ele>2079.5</ele>
        <time>2018-08-08T16:00:32.000Z</time>
      </trkpt>
      <trkpt lat="42.69743" lon="0.66825">
        <ele>2079.5</ele>
        <time>2018-08-08T16:00:33.000Z</time>
      </trkpt>
      <trkpt lat="42.69743" lon="0.66825">
        <ele>2079.5</ele>
        <time>2018-08-08T16:00:34.000Z</time>
      </trkpt>
      <trkpt lat="42.69743" lon="0.66825">
        <ele>2079.5</ele>
        <time>2018-08-08T16:00:35.000Z</time>
      </trkpt>
      <trkpt lat="42.69743" lon="0.66825">
        <ele>2079.5</ele>
        <time>2018-08-08T16:00:36.000Z</time>
      </trkpt>
      <trkpt lat="42.69743" lon="0.66825">
        <ele>2079.5</ele>
        <time>2018-08-08T16:00:37.000Z</time>
      </trkpt>
      <trkpt lat="42.69743" lon="0.66825">
        <ele>2079.5</ele>
        <time>2018-08-08T16:00:38.000Z</time>
      </trkpt>
      <trkpt lat="42.69743" lon="0.66825">
        <ele>2079.5</ele>
        <time>2018-08-08T16:00:39.000Z</time>
      </trkpt>
      <trkpt lat="42.69743" lon="0.66825">
        <ele>2079.5</ele>
        <time>2018-08-08T16:00:40.000Z</time>
      </trkpt>
      <trkpt lat="42.69743" lon="0.66825">
        <ele>2079.5</ele>
        <time>2018-08-08T16:00:41.000Z</time>
      </trkpt>
      <trkpt lat="42.69743" lon="0.66825">
        <ele>2079.5</ele>
        <time>2018-08-08T16:00:42.000Z</time>
      </trkpt>
      <trkpt lat="42.69743" lon="0.66825">
        <ele>2079.5</ele>
        <time>2018-08-08T16:00:43.000Z</time>
      </trkpt>
      <trkpt lat="42.69743" lon="0.66825">
        <ele>2079.5</ele>
        <time>2018-08-08T16:00:44.000Z</time>
      </trkpt>
      <trkpt lat="42.69743" lon="0.66825">
        <ele>2079.5</ele>
        <time>2018-08-08T16:00:45.000Z</time>
      </trkpt>
      <trkpt lat="42.69743" lon="0.66825">
        <ele>2079.5</ele>
        <time>2018-08-08T16:00:46.000Z</time>
      </trkpt>
      <trkpt lat="42.69743" lon="0.66825">
        <ele>2079.5</ele>
        <time>2018-08-08T16:00:47.000Z</time>
      </trkpt>
      <trkpt lat="42.69743" lon="0.66825">
        <ele>2079.5</ele>
        <time>2018-08-08T16:00:48.000Z</time>
      </trkpt>
      <trkpt lat="42.69743" lon="0.66825">
        <ele>2079.5</ele>
        <time>2018-08-08T16:00:49.000Z</time>
      </trkpt>
      <trkpt lat="42.69743" lon="0.66825">
        <ele>2079.5</ele>
        <time>2018-08-08T16:00:50.000Z</time>
      </trkpt>
      <trkpt lat="42.69743" lon="0.66825">
        <ele>2079.5</ele>
        <time>2018-08-08T16:00:51.000Z</time>
      </trkpt>
      <trkpt lat="42.69743" lon="0.66825">
        <ele>2079.5</ele>
        <time>2018-08-08T16:00:52.000Z</time>
      </trkpt>
      <trkpt lat="42.69743" lon="0.66825">
        <ele>2079.5</ele>
        <time>2018-08-08T16:00:53.000Z</time>
      </trkpt>
      <trkpt lat="42.69743" lon="0.66825">
        <ele>2079.5</ele>
        <time>2018-08-08T16:00:54.000Z</time>
      </trkpt>
      <trkpt lat="42.69743" lon="0.66825">
        <ele>2079.5</ele>
        <time>2018-08-08T16:00:55.000Z</time>
      </trkpt>
      <trkpt lat="42.69743" lon="0.66825">
        <ele>2079.5</ele>
        <time>2018-08-08T16:00:56.000Z</time>
      </trkpt>
      <trkpt lat="42.69743" lon="0.66825">
        <ele>2079.5</ele>
        <time>2018-08-08T16:00:57.000Z</time>
      </trkpt>
      <trkpt lat="42.69743" lon="0.66825">
        <ele>2079.5</ele>
        <time>2018-08-08T16:00:58.000Z</time>
      </trkpt>
      <trkpt lat="42.69743" lon="0.66825">
        <ele>2079.5</ele>
        <time>2018-08-08T16:00:59.000Z</time>
      </trkpt>
      <trkpt lat="42.69743" lon="0.66825">
        <ele>2079.5</ele>
        <time>2018-08-08T16:01:00.000Z</time>
      </trkpt>
      <trkpt lat="42.69743" lon="0.66825">
        <ele>2079.5</ele>
        <time>2018-08-08T16:01:01.000Z</time>
      </trkpt>
      <trkpt lat="42.69743" lon="0.66825">
        <ele>2079.5</ele>
        <time>2018-08-08T16:01:02.000Z</time>
      </trkpt>
      <trkpt lat="42.69743" lon="0.66825">
        <ele>2079.5</ele>
        <time>2018-08-08T16:01:03.000Z</time>
      </trkpt>
      <trkpt lat="42.69743" lon="0.66825">
        <ele>2079.5</ele>
        <time>2018-08-08T16:01:04.000Z</time>
      </trkpt>
      <trkpt lat="42.69743" lon="0.66825">
        <ele>2079.5</ele>
        <time>2018-08-08T16:01:05.000Z</time>
      </trkpt>
      <trkpt lat="42.69743" lon="0.66825">
        <ele>2079.5</ele>
        <time>2018-08-08T16:01:06.000Z</time>
      </trkpt>
      <trkpt lat="42.69743" lon="0.66825">
        <ele>2079.5</ele>
        <time>2018-08-08T16:01:07.000Z</time>
      </trkpt>
      <trkpt lat="42.69743" lon="0.66825">
        <ele>2079.5</ele>
        <time>2018-08-08T16:01:08.000Z</time>
      </trkpt>
      <trkpt lat="42.69743" lon="0.66825">
        <ele>2079.5</ele>
        <time>2018-08-08T16:01:09.000Z</time>
      </trkpt>
      <trkpt lat="42.69743" lon="0.66825">
        <ele>2079.5</ele>
        <time>2018-08-08T16:01:10.000Z</time>
      </trkpt>
      <trkpt lat="42.69743" lon="0.66825">
        <ele>2079.5</ele>
        <time>2018-08-08T16:01:11.000Z</time>
      </trkpt>
      <trkpt lat="42.69743" lon="0.66825">
        <ele>2079.5</ele>
        <time>2018-08-08T16:01:12.000Z</time>
      </trkpt>
      <trkpt lat="42.69743" lon="0.66825">
        <ele>2079.5</ele>
        <time>2018-08-08T16:01:13.000Z</time>
      </trkpt>
      <trkpt lat="42.69743" lon="0.66825">
        <ele>2079.5</ele>
        <time>2018-08-08T16:01:14.000Z</time>
      </trkpt>
      <trkpt lat="42.69743" lon="0.66825">
        <ele>2079.5</ele>
        <time>2018-08-08T16:01:15.000Z</time>
      </trkpt>
      <trkpt lat="42.69743" lon="0.66825">
        <ele>2079.5</ele>
        <time>2018-08-08T16:01:16.000Z</time>
      </trkpt>
      <trkpt lat="42.69743" lon="0.66825">
        <ele>2079.5</ele>
        <time>2018-08-08T16:01:17.000Z</time>
      </trkpt>
      <trkpt lat="42.69743" lon="0.66825">
        <ele>2079.5</ele>
        <time>2018-08-08T16:01:18.000Z</time>
      </trkpt>
      <trkpt lat="42.69743" lon="0.66825">
        <ele>2079.5</ele>
        <time>2018-08-08T16:01:19.000Z</time>
      </trkpt>
      <trkpt lat="42.69743" lon="0.66825">
        <ele>2079.5</ele>
        <time>2018-08-08T16:01:20.000Z</time>
      </trkpt>
      <trkpt lat="42.69743" lon="0.66825">
        <ele>2079.5</ele>
        <time>2018-08-08T16:01:21.000Z</time>
      </trkpt>
      <trkpt lat="42.69743" lon="0.66825">
        <ele>2079.5</ele>
        <time>2018-08-08T16:01:22.000Z</time>
      </trkpt>
      <trkpt lat="42.69743" lon="0.66825">
        <ele>2079.5</ele>
        <time>2018-08-08T16:01:23.000Z</time>
      </trkpt>
      <trkpt lat="42.69743" lon="0.66825">
        <ele>2079.5</ele>
        <time>2018-08-08T16:01:24.000Z</time>
      </trkpt>
      <trkpt lat="42.69743" lon="0.66825">
        <ele>2079.5</ele>
        <time>2018-08-08T16:01:25.000Z</time>
      </trkpt>
      <trkpt lat="42.69743" lon="0.66825">
        <ele>2079.5</ele>
        <time>2018-08-08T16:01:26.000Z</time>
      </trkpt>
      <trkpt lat="42.69743" lon="0.66825">
        <ele>2079.5</ele>
        <time>2018-08-08T16:01:27.000Z</time>
      </trkpt>
      <trkpt lat="42.69743" lon="0.66825">
        <ele>2079.5</ele>
        <time>2018-08-08T16:01:28.000Z</time>
      </trkpt>
      <trkpt lat="42.69743" lon="0.66825">
        <ele>2079.5</ele>
        <time>2018-08-08T16:01:29.000Z</time>
      </trkpt>
      <trkpt lat="42.69743" lon="0.66825">
        <ele>2079.5</ele>
        <time>2018-08-08T16:01:30.000Z</time>
      </trkpt>
      <trkpt lat="42.69743" lon="0.66825">
        <ele>2079.5</ele>
        <time>2018-08-08T16:01:31.000Z</time>
      </trkpt>
      <trkpt lat="42.69743" lon="0.66825">
        <ele>2079.5</ele>
        <time>2018-08-08T16:01:32.000Z</time>
      </trkpt>
      <trkpt lat="42.69743" lon="0.66825">
        <ele>2079.5</ele>
        <time>2018-08-08T16:01:33.000Z</time>
      </trkpt>
      <trkpt lat="42.69743" lon="0.66825">
        <ele>2079.5</ele>
        <time>2018-08-08T16:01:34.000Z</time>
      </trkpt>
      <trkpt lat="42.69743" lon="0.66825">
        <ele>2079.5</ele>
        <time>2018-08-08T16:01:35.000Z</time>
      </trkpt>
      <trkpt lat="42.69743" lon="0.66825">
        <ele>2079.5</ele>
        <time>2018-08-08T16:01:36.000Z</time>
      </trkpt>
      <trkpt lat="42.69743" lon="0.66825">
        <ele>2079.5</ele>
        <time>2018-08-08T16:01:37.000Z</time>
      </trkpt>
      <trkpt lat="42.69743" lon="0.66825">
        <ele>2079.5</ele>
        <time>2018-08-08T16:01:38.000Z</time>
      </trkpt>
      <trkpt lat="42.69743" lon="0.66825">
        <ele>2079.5</ele>
        <time>2018-08-08T16:01:39.000Z</time>
      </trkpt>
      <trkpt lat="42.69743" lon="0.66825">
        <ele>2079.5</ele>
        <time>2018-08-08T16:01:40.000Z</time>
      </trkpt>
      <trkpt lat="42.69743" lon="0.66825">
        <ele>2079.5</ele>
        <time>2018-08-08T16:01:41.000Z</time>
      </trkpt>
      <trkpt lat="42.69743" lon="0.66825">
        <ele>2079.5</ele>
        <time>2018-08-08T16:01:42.000Z</time>
      </trkpt>
      <trkpt lat="42.69743" lon="0.66825">
        <ele>2079.5</ele>
        <time>2018-08-08T16:01:43.000Z</time>
      </trkpt>
      <trkpt lat="42.69743" lon="0.66825">
        <ele>2079.5</ele>
        <time>2018-08-08T16:01:44.000Z</time>
      </trkpt>
      <trkpt lat="42.69743" lon="0.66825">
        <ele>2079.5</ele>
        <time>2018-08-08T16:01:45.000Z</time>
      </trkpt>
      <trkpt lat="42.69743" lon="0.66825">
        <ele>2079.5</ele>
        <time>2018-08-08T16:01:46.000Z</time>
      </trkpt>
      <trkpt lat="42.69743" lon="0.66825">
        <ele>2079.5</ele>
        <time>2018-08-08T16:01:47.000Z</time>
      </trkpt>
      <trkpt lat="42.69743" lon="0.66825">
        <ele>2079.5</ele>
        <time>2018-08-08T16:01:48.000Z</time>
      </trkpt>
      <trkpt lat="42.69743" lon="0.66825">
        <ele>2079.5</ele>
        <time>2018-08-08T16:01:49.000Z</time>
      </trkpt>
      <trkpt lat="42.69743" lon="0.66825">
        <ele>2079.5</ele>
        <time>2018-08-08T16:01:50.000Z</time>
      </trkpt>
      <trkpt lat="42.69743" lon="0.66825">
        <ele>2079.5</ele>
        <time>2018-08-08T16:01:51.000Z</time>
      </trkpt>
      <trkpt lat="42.69743" lon="0.66825">
        <ele>2079.5</ele>
        <time>2018-08-08T16:01:52.000Z</time>
      </trkpt>
      <trkpt lat="42.69743" lon="0.66825">
        <ele>2079.5</ele>
        <time>2018-08-08T16:01:53.000Z</time>
      </trkpt>
      <trkpt lat="42.69743" lon="0.66825">
        <ele>2079.5</ele>
        <time>2018-08-08T16:01:54.000Z</time>
      </trkpt>
      <trkpt lat="42.69743" lon="0.66825">
        <ele>2079.5</ele>
        <time>2018-08-08T16:01:55.000Z</time>
      </trkpt>
      <trkpt lat="42.69743" lon="0.66825">
        <ele>2079.5</ele>
        <time>2018-08-08T16:01:56.000Z</time>
      </trkpt>
      <trkpt lat="42.69743" lon="0.66825">
        <ele>2079.5</ele>
        <time>2018-08-08T16:01:57.000Z</time>
      </trkpt>
      <trkpt lat="42.69743" lon="0.66825">
        <ele>2079.5</ele>
        <time>2018-08-08T16:01:58.000Z</time>
      </trkpt>
      <trkpt lat="42.69743" lon="0.66825">
        <ele>2079.5</ele>
        <time>2018-08-08T16:01:59.000Z</time>
      </trkpt>
      <trkpt lat="42.69743" lon="0.66825">
        <ele>2079.5</ele>
        <time>2018-08-08T16:02:00.000Z</time>
      </trkpt>
      <trkpt lat="42.69743" lon="0.66825">
        <ele>2079.5</ele>
        <time>2018-08-08T16:02:01.000Z</time>
      </trkpt>
      <trkpt lat="42.69743" lon="0.66825">
        <ele>2079.5</ele>
        <time>2018-08-08T16:02:02.000Z</time>
      </trkpt>
      <trkpt lat="42.69743" lon="0.66825">
        <ele>2079.5</ele>
        <time>2018-08-08T16:02:03.000Z</time>
      </trkpt>
      <trkpt lat="42.69743" lon="0.66825">
        <ele>2079.5</ele>
        <time>2018-08-08T16:02:04.000Z</time>
      </trkpt>
      <trkpt lat="42.69743" lon="0.66825">
        <ele>2079.5</ele>
        <time>2018-08-08T16:02:05.000Z</time>
      </trkpt>
      <trkpt lat="42.69743" lon="0.66825">
        <ele>2079.5</ele>
        <time>2018-08-08T16:02:06.000Z</time>
      </trkpt>
      <trkpt lat="42.69743" lon="0.66825">
        <ele>2079.5</ele>
        <time>2018-08-08T16:02:07.000Z</time>
      </trkpt>
      <trkpt lat="42.69743" lon="0.66825">
        <ele>2079.5</ele>
        <time>2018-08-08T16:02:08.000Z</time>
      </trkpt>
      <trkpt lat="42.69743" lon="0.66825">
        <ele>2079.5</ele>
        <time>2018-08-08T16:02:09.000Z</time>
      </trkpt>
      <trkpt lat="42.69743" lon="0.66825">
        <ele>2079.5</ele>
        <time>2018-08-08T16:02:10.000Z</time>
      </trkpt>
      <trkpt lat="42.69743" lon="0.66825">
        <ele>2079.5</ele>
        <time>2018-08-08T16:02:11.000Z</time>
      </trkpt>
      <trkpt lat="42.69743" lon="0.66825">
        <ele>2079.5</ele>
        <time>2018-08-08T16:02:12.000Z</time>
      </trkpt>
      <trkpt lat="42.69743" lon="0.66825">
        <ele>2079.5</ele>
        <time>2018-08-08T16:02:13.000Z</time>
      </trkpt>
      <trkpt lat="42.69743" lon="0.66825">
        <ele>2079.5</ele>
        <time>2018-08-08T16:02:14.000Z</time>
      </trkpt>
      <trkpt lat="42.69743" lon="0.66825">
        <ele>2079.5</ele>
        <time>2018-08-08T16:02:15.000Z</time>
      </trkpt>
      <trkpt lat="42.69743" lon="0.66825">
        <ele>2079.5</ele>
        <time>2018-08-08T16:02:16.000Z</time>
      </trkpt>
      <trkpt lat="42.69743" lon="0.66825">
        <ele>2079.5</ele>
        <time>2018-08-08T16:02:17.000Z</time>
      </trkpt>
      <trkpt lat="42.69743" lon="0.66825">
        <ele>2079.5</ele>
        <time>2018-08-08T16:02:18.000Z</time>
      </trkpt>
      <trkpt lat="42.69743" lon="0.66825">
        <ele>2079.5</ele>
        <time>2018-08-08T16:02:19.000Z</time>
      </trkpt>
      <trkpt lat="42.69743" lon="0.66825">
        <ele>2079.5</ele>
        <time>2018-08-08T16:02:20.000Z</time>
      </trkpt>
      <trkpt lat="42.69743" lon="0.66825">
        <ele>2079.5</ele>
        <time>2018-08-08T16:02:21.000Z</time>
      </trkpt>
      <trkpt lat="42.69743" lon="0.66825">
        <ele>2079.5</ele>
        <time>2018-08-08T16:02:22.000Z</time>
      </trkpt>
      <trkpt lat="42.69743" lon="0.66825">
        <ele>2079.5</ele>
        <time>2018-08-08T16:02:23.000Z</time>
      </trkpt>
      <trkpt lat="42.69743" lon="0.66825">
        <ele>2079.5</ele>
        <time>2018-08-08T16:02:24.000Z</time>
      </trkpt>
      <trkpt lat="42.69743" lon="0.66825">
        <ele>2079.5</ele>
        <time>2018-08-08T16:02:25.000Z</time>
      </trkpt>
      <trkpt lat="42.69743" lon="0.66825">
        <ele>2079.5</ele>
        <time>2018-08-08T16:02:26.000Z</time>
      </trkpt>
      <trkpt lat="42.69743" lon="0.66825">
        <ele>2079.5</ele>
        <time>2018-08-08T16:02:27.000Z</time>
      </trkpt>
      <trkpt lat="42.69743" lon="0.66825">
        <ele>2079.5</ele>
        <time>2018-08-08T16:02:28.000Z</time>
      </trkpt>
      <trkpt lat="42.69743" lon="0.66825">
        <ele>2079.5</ele>
        <time>2018-08-08T16:02:29.000Z</time>
      </trkpt>
      <trkpt lat="42.69743" lon="0.66825">
        <ele>2079.5</ele>
        <time>2018-08-08T16:02:30.000Z</time>
      </trkpt>
      <trkpt lat="42.69743" lon="0.66825">
        <ele>2079.5</ele>
        <time>2018-08-08T16:02:31.000Z</time>
      </trkpt>
      <trkpt lat="42.69743" lon="0.66825">
        <ele>2079.5</ele>
        <time>2018-08-08T16:02:32.000Z</time>
      </trkpt>
      <trkpt lat="42.69743" lon="0.66825">
        <ele>2079.5</ele>
        <time>2018-08-08T16:02:33.000Z</time>
      </trkpt>
      <trkpt lat="42.69743" lon="0.66825">
        <ele>2079.5</ele>
        <time>2018-08-08T16:02:34.000Z</time>
      </trkpt>
      <trkpt lat="42.69743" lon="0.66825">
        <ele>2079.5</ele>
        <time>2018-08-08T16:02:35.000Z</time>
      </trkpt>
      <trkpt lat="42.69743" lon="0.66825">
        <ele>2079.5</ele>
        <time>2018-08-08T16:02:36.000Z</time>
      </trkpt>
      <trkpt lat="42.69743" lon="0.66825">
        <ele>2079.5</ele>
        <time>2018-08-08T16:02:37.000Z</time>
      </trkpt>
      <trkpt lat="42.69743" lon="0.66825">
        <ele>2079.5</ele>
        <time>2018-08-08T16:02:38.000Z</time>
      </trkpt>
      <trkpt lat="42.69743" lon="0.66825">
        <ele>2079.5</ele>
        <time>2018-08-08T16:02:39.000Z</time>
      </trkpt>
      <trkpt lat="42.69743" lon="0.66825">
        <ele>2079.5</ele>
        <time>2018-08-08T16:02:40.000Z</time>
      </trkpt>
      <trkpt lat="42.69743" lon="0.66825">
        <ele>2079.5</ele>
        <time>2018-08-08T16:02:41.000Z</time>
      </trkpt>
      <trkpt lat="42.69743" lon="0.66825">
        <ele>2079.5</ele>
        <time>2018-08-08T16:02:42.000Z</time>
      </trkpt>
      <trkpt lat="42.69743" lon="0.66825">
        <ele>2079.5</ele>
        <time>2018-08-08T16:02:43.000Z</time>
      </trkpt>
      <trkpt lat="42.69743" lon="0.66825">
        <ele>2079.5</ele>
        <time>2018-08-08T16:02:44.000Z</time>
      </trkpt>
      <trkpt lat="42.69743" lon="0.66825">
        <ele>2079.5</ele>
        <time>2018-08-08T16:02:45.000Z</time>
      </trkpt>
      <trkpt lat="42.69743" lon="0.66825">
        <ele>2079.5</ele>
        <time>2018-08-08T16:02:46.000Z</time>
      </trkpt>
      <trkpt lat="42.69743" lon="0.66825">
        <ele>2079.5</ele>
        <time>2018-08-08T16:02:47.000Z</time>
      </trkpt>
      <trkpt lat="42.69743" lon="0.66825">
        <ele>2079.5</ele>
        <time>2018-08-08T16:02:48.000Z</time>
      </trkpt>
      <trkpt lat="42.69743" lon="0.66825">
        <ele>2079.5</ele>
        <time>2018-08-08T16:02:49.000Z</time>
      </trkpt>
      <trkpt lat="42.69743" lon="0.66825">
        <ele>2079.5</ele>
        <time>2018-08-08T16:02:50.000Z</time>
      </trkpt>
      <trkpt lat="42.69743" lon="0.66825">
        <ele>2079.5</ele>
        <time>2018-08-08T16:02:51.000Z</time>
      </trkpt>
      <trkpt lat="42.69743" lon="0.66825">
        <ele>2079.5</ele>
        <time>2018-08-08T16:02:52.000Z</time>
      </trkpt>
      <trkpt lat="42.69743" lon="0.66825">
        <ele>2079.5</ele>
        <time>2018-08-08T16:02:53.000Z</time>
      </trkpt>
      <trkpt lat="42.69743" lon="0.66825">
        <ele>2079.5</ele>
        <time>2018-08-08T16:02:54.000Z</time>
      </trkpt>
      <trkpt lat="42.69743" lon="0.66825">
        <ele>2079.5</ele>
        <time>2018-08-08T16:02:55.000Z</time>
      </trkpt>
      <trkpt lat="42.69743" lon="0.66825">
        <ele>2079.5</ele>
        <time>2018-08-08T16:02:56.000Z</time>
      </trkpt>
      <trkpt lat="42.69743" lon="0.66825">
        <ele>2079.5</ele>
        <time>2018-08-08T16:02:57.000Z</time>
      </trkpt>
      <trkpt lat="42.69743" lon="0.66825">
        <ele>2079.5</ele>
        <time>2018-08-08T16:02:58.000Z</time>
      </trkpt>
      <trkpt lat="42.69743" lon="0.66825">
        <ele>2079.5</ele>
        <time>2018-08-08T16:02:59.000Z</time>
      </trkpt>
      <trkpt lat="42.69743" lon="0.66825">
        <ele>2079.5</ele>
        <time>2018-08-08T16:03:00.000Z</time>
      </trkpt>
      <trkpt lat="42.69743" lon="0.66825">
        <ele>2079.5</ele>
        <time>2018-08-08T16:03:01.000Z</time>
      </trkpt>
      <trkpt lat="42.69743" lon="0.66825">
        <ele>2079.5</ele>
        <time>2018-08-08T16:03:02.000Z</time>
      </trkpt>
      <trkpt lat="42.69743" lon="0.66825">
        <ele>2079.5</ele>
        <time>2018-08-08T16:03:03.000Z</time>
      </trkpt>
      <trkpt lat="42.69743" lon="0.66825">
        <ele>2079.5</ele>
        <time>2018-08-08T16:03:04.000Z</time>
      </trkpt>
      <trkpt lat="42.69743" lon="0.66825">
        <ele>2079.5</ele>
        <time>2018-08-08T16:03:05.000Z</time>
      </trkpt>
      <trkpt lat="42.69743" lon="0.66825">
        <ele>2079.5</ele>
        <time>2018-08-08T16:03:06.000Z</time>
      </trkpt>
      <trkpt lat="42.69743" lon="0.66825">
        <ele>2079.5</ele>
        <time>2018-08-08T16:03:07.000Z</time>
      </trkpt>
      <trkpt lat="42.69743" lon="0.66825">
        <ele>2079.5</ele>
        <time>2018-08-08T16:03:08.000Z</time>
      </trkpt>
      <trkpt lat="42.69743" lon="0.66825">
        <ele>2079.5</ele>
        <time>2018-08-08T16:03:09.000Z</time>
      </trkpt>
      <trkpt lat="42.69743" lon="0.66825">
        <ele>2079.5</ele>
        <time>2018-08-08T16:03:10.000Z</time>
      </trkpt>
      <trkpt lat="42.69743" lon="0.66825">
        <ele>2079.5</ele>
        <time>2018-08-08T16:03:11.000Z</time>
      </trkpt>
      <trkpt lat="42.69743" lon="0.66825">
        <ele>2079.5</ele>
        <time>2018-08-08T16:03:12.000Z</time>
      </trkpt>
      <trkpt lat="42.69743" lon="0.66825">
        <ele>2079.5</ele>
        <time>2018-08-08T16:03:13.000Z</time>
      </trkpt>
      <trkpt lat="42.69743" lon="0.66825">
        <ele>2079.5</ele>
        <time>2018-08-08T16:03:14.000Z</time>
      </trkpt>
      <trkpt lat="42.69743" lon="0.66825">
        <ele>2079.5</ele>
        <time>2018-08-08T16:03:15.000Z</time>
      </trkpt>
      <trkpt lat="42.69743" lon="0.66825">
        <ele>2079.5</ele>
        <time>2018-08-08T16:03:16.000Z</time>
      </trkpt>
      <trkpt lat="42.69743" lon="0.66825">
        <ele>2079.5</ele>
        <time>2018-08-08T16:03:17.000Z</time>
      </trkpt>
      <trkpt lat="42.69743" lon="0.66825">
        <ele>2079.5</ele>
        <time>2018-08-08T16:03:18.000Z</time>
      </trkpt>
      <trkpt lat="42.69743" lon="0.66825">
        <ele>2079.5</ele>
        <time>2018-08-08T16:03:19.000Z</time>
      </trkpt>
      <trkpt lat="42.69743" lon="0.66825">
        <ele>2079.5</ele>
        <time>2018-08-08T16:03:20.000Z</time>
      </trkpt>
      <trkpt lat="42.69743" lon="0.66825">
        <ele>2079.5</ele>
        <time>2018-08-08T16:03:21.000Z</time>
      </trkpt>
      <trkpt lat="42.69743" lon="0.66825">
        <ele>2079.5</ele>
        <time>2018-08-08T16:03:22.000Z</time>
      </trkpt>
      <trkpt lat="42.69743" lon="0.66825">
        <ele>2079.5</ele>
        <time>2018-08-08T16:03:23.000Z</time>
      </trkpt>
      <trkpt lat="42.69743" lon="0.66825">
        <ele>2079.5</ele>
        <time>2018-08-08T16:03:24.000Z</time>
      </trkpt>
      <trkpt lat="42.69743" lon="0.66825">
        <ele>2079.5</ele>
        <time>2018-08-08T16:03:25.000Z</time>
      </trkpt>
      <trkpt lat="42.69743" lon="0.66825">
        <ele>2079.5</ele>
        <time>2018-08-08T16:03:26.000Z</time>
      </trkpt>
      <trkpt lat="42.69743" lon="0.66825">
        <ele>2079.5</ele>
        <time>2018-08-08T16:03:27.000Z</time>
      </trkpt>
      <trkpt lat="42.69743" lon="0.66825">
        <ele>2079.5</ele>
        <time>2018-08-08T16:03:28.000Z</time>
      </trkpt>
      <trkpt lat="42.69743" lon="0.66825">
        <ele>2079.5</ele>
        <time>2018-08-08T16:03:29.000Z</time>
      </trkpt>
      <trkpt lat="42.69743" lon="0.66825">
        <ele>2079.5</ele>
        <time>2018-08-08T16:03:30.000Z</time>
      </trkpt>
      <trkpt lat="42.69743" lon="0.66825">
        <ele>2079.5</ele>
        <time>2018-08-08T16:03:31.000Z</time>
      </trkpt>
      <trkpt lat="42.69743" lon="0.66825">
        <ele>2079.5</ele>
        <time>2018-08-08T16:03:32.000Z</time>
      </trkpt>
      <trkpt lat="42.69743" lon="0.66825">
        <ele>2079.5</ele>
        <time>2018-08-08T16:03:33.000Z</time>
      </trkpt>
      <trkpt lat="42.69743" lon="0.66825">
        <ele>2079.5</ele>
        <time>2018-08-08T16:03:34.000Z</time>
      </trkpt>
      <trkpt lat="42.69743" lon="0.66825">
        <ele>2079.5</ele>
        <time>2018-08-08T16:03:35.000Z</time>
      </trkpt>
      <trkpt lat="42.69743" lon="0.66825">
        <ele>2079.5</ele>
        <time>2018-08-08T16:03:36.000Z</time>
      </trkpt>
      <trkpt lat="42.69743" lon="0.66825">
        <ele>2079.5</ele>
        <time>2018-08-08T16:03:37.000Z</time>
      </trkpt>
      <trkpt lat="42.69743" lon="0.66825">
        <ele>2079.5</ele>
        <time>2018-08-08T16:03:38.000Z</time>
      </trkpt>
      <trkpt lat="42.69743" lon="0.66825">
        <ele>2079.5</ele>
        <time>2018-08-08T16:03:39.000Z</time>
      </trkpt>
      <trkpt lat="42.69743" lon="0.66825">
        <ele>2079.5</ele>
        <time>2018-08-08T16:03:40.000Z</time>
      </trkpt>
      <trkpt lat="42.69743" lon="0.66825">
        <ele>2079.5</ele>
        <time>2018-08-08T16:03:41.000Z</time>
      </trkpt>
      <trkpt lat="42.69743" lon="0.66825">
        <ele>2079.5</ele>
        <time>2018-08-08T16:03:42.000Z</time>
      </trkpt>
      <trkpt lat="42.69743" lon="0.66825">
        <ele>2079.5</ele>
        <time>2018-08-08T16:03:43.000Z</time>
      </trkpt>
      <trkpt lat="42.69743" lon="0.66825">
        <ele>2079.5</ele>
        <time>2018-08-08T16:03:44.000Z</time>
      </trkpt>
      <trkpt lat="42.69743" lon="0.66825">
        <ele>2079.5</ele>
        <time>2018-08-08T16:03:45.000Z</time>
      </trkpt>
      <trkpt lat="42.69743" lon="0.66825">
        <ele>2079.5</ele>
        <time>2018-08-08T16:03:46.000Z</time>
      </trkpt>
      <trkpt lat="42.69743" lon="0.66825">
        <ele>2079.5</ele>
        <time>2018-08-08T16:03:47.000Z</time>
      </trkpt>
      <trkpt lat="42.69743" lon="0.66825">
        <ele>2079.5</ele>
        <time>2018-08-08T16:03:48.000Z</time>
      </trkpt>
      <trkpt lat="42.69743" lon="0.66825">
        <ele>2079.5</ele>
        <time>2018-08-08T16:03:49.000Z</time>
      </trkpt>
      <trkpt lat="42.69743" lon="0.66825">
        <ele>2079.5</ele>
        <time>2018-08-08T16:03:50.000Z</time>
      </trkpt>
      <trkpt lat="42.69743" lon="0.66825">
        <ele>2079.5</ele>
        <time>2018-08-08T16:03:51.000Z</time>
      </trkpt>
      <trkpt lat="42.69743" lon="0.66825">
        <ele>2079.5</ele>
        <time>2018-08-08T16:03:52.000Z</time>
      </trkpt>
      <trkpt lat="42.69743" lon="0.66825">
        <ele>2079.5</ele>
        <time>2018-08-08T16:03:53.000Z</time>
      </trkpt>
      <trkpt lat="42.69743" lon="0.66825">
        <ele>2079.5</ele>
        <time>2018-08-08T16:03:54.000Z</time>
      </trkpt>
      <trkpt lat="42.69743" lon="0.66825">
        <ele>2079.5</ele>
        <time>2018-08-08T16:03:55.000Z</time>
      </trkpt>
      <trkpt lat="42.69743" lon="0.66825">
        <ele>2079.5</ele>
        <time>2018-08-08T16:03:56.000Z</time>
      </trkpt>
      <trkpt lat="42.69743" lon="0.66825">
        <ele>2079.5</ele>
        <time>2018-08-08T16:03:57.000Z</time>
      </trkpt>
      <trkpt lat="42.69743" lon="0.66825">
        <ele>2079.5</ele>
        <time>2018-08-08T16:03:58.000Z</time>
      </trkpt>
      <trkpt lat="42.69743" lon="0.66825">
        <ele>2079.5</ele>
        <time>2018-08-08T16:03:59.000Z</time>
      </trkpt>
      <trkpt lat="42.69743" lon="0.66825">
        <ele>2079.5</ele>
        <time>2018-08-08T16:04:00.000Z</time>
      </trkpt>
      <trkpt lat="42.69743" lon="0.66825">
        <ele>2079.5</ele>
        <time>2018-08-08T16:04:01.000Z</time>
      </trkpt>
      <trkpt lat="42.69743" lon="0.66825">
        <ele>2079.5</ele>
        <time>2018-08-08T16:04:02.000Z</time>
      </trkpt>
      <trkpt lat="42.69743" lon="0.66825">
        <ele>2079.5</ele>
        <time>2018-08-08T16:04:03.000Z</time>
      </trkpt>
      <trkpt lat="42.69743" lon="0.66825">
        <ele>2079.5</ele>
        <time>2018-08-08T16:04:04.000Z</time>
      </trkpt>
      <trkpt lat="42.69743" lon="0.66825">
        <ele>2079.5</ele>
        <time>2018-08-08T16:04:05.000Z</time>
      </trkpt>
      <trkpt lat="42.69743" lon="0.66825">
        <ele>2079.5</ele>
        <time>2018-08-08T16:04:06.000Z</time>
      </trkpt>
      <trkpt lat="42.69743" lon="0.66825">
        <ele>2079.5</ele>
        <time>2018-08-08T16:04:07.000Z</time>
      </trkpt>
      <trkpt lat="42.69743" lon="0.66825">
        <ele>2079.5</ele>
        <time>2018-08-08T16:04:08.000Z</time>
      </trkpt>
      <trkpt lat="42.69743" lon="0.66825">
        <ele>2079.5</ele>
        <time>2018-08-08T16:04:09.000Z</time>
      </trkpt>
      <trkpt lat="42.69743" lon="0.66825">
        <ele>2079.5</ele>
        <time>2018-08-08T16:04:10.000Z</time>
      </trkpt>
      <trkpt lat="42.69743" lon="0.66825">
        <ele>2079.5</ele>
        <time>2018-08-08T16:04:11.000Z</time>
      </trkpt>
      <trkpt lat="42.69743" lon="0.66825">
        <ele>2079.5</ele>
        <time>2018-08-08T16:04:12.000Z</time>
      </trkpt>
      <trkpt lat="42.69743" lon="0.66825">
        <ele>2079.5</ele>
        <time>2018-08-08T16:04:13.000Z</time>
      </trkpt>
      <trkpt lat="42.69743" lon="0.66825">
        <ele>2079.5</ele>
        <time>2018-08-08T16:04:14.000Z</time>
      </trkpt>
      <trkpt lat="42.69743" lon="0.66825">
        <ele>2079.5</ele>
        <time>2018-08-08T16:04:15.000Z</time>
      </trkpt>
      <trkpt lat="42.69743" lon="0.66825">
        <ele>2079.5</ele>
        <time>2018-08-08T16:04:16.000Z</time>
      </trkpt>
      <trkpt lat="42.69743" lon="0.66825">
        <ele>2079.5</ele>
        <time>2018-08-08T16:04:17.000Z</time>
      </trkpt>
      <trkpt lat="42.69743" lon="0.66825">
        <ele>2079.5</ele>
        <time>2018-08-08T16:04:18.000Z</time>
      </trkpt>
      <trkpt lat="42.69743" lon="0.66825">
        <ele>2079.5</ele>
        <time>2018-08-08T16:04:19.000Z</time>
      </trkpt>
      <trkpt lat="42.69743" lon="0.66825">
        <ele>2079.5</ele>
        <time>2018-08-08T16:04:20.000Z</time>
      </trkpt>
      <trkpt lat="42.69743" lon="0.66825">
        <ele>2079.5</ele>
        <time>2018-08-08T16:04:21.000Z</time>
      </trkpt>
      <trkpt lat="42.69743" lon="0.66825">
        <ele>2079.5</ele>
        <time>2018-08-08T16:04:22.000Z</time>
      </trkpt>
      <trkpt lat="42.69743" lon="0.66825">
        <ele>2079.5</ele>
        <time>2018-08-08T16:04:23.000Z</time>
      </trkpt>
      <trkpt lat="42.69743" lon="0.66825">
        <ele>2079.5</ele>
        <time>2018-08-08T16:04:24.000Z</time>
      </trkpt>
      <trkpt lat="42.69743" lon="0.66825">
        <ele>2079.5</ele>
        <time>2018-08-08T16:04:25.000Z</time>
      </trkpt>
      <trkpt lat="42.69743" lon="0.66825">
        <ele>2079.5</ele>
        <time>2018-08-08T16:04:26.000Z</time>
      </trkpt>
      <trkpt lat="42.69743" lon="0.66825">
        <ele>2079.5</ele>
        <time>2018-08-08T16:04:27.000Z</time>
      </trkpt>
      <trkpt lat="42.69743" lon="0.66825">
        <ele>2079.5</ele>
        <time>2018-08-08T16:04:28.000Z</time>
      </trkpt>
      <trkpt lat="42.69743" lon="0.66825">
        <ele>2079.5</ele>
        <time>2018-08-08T16:04:29.000Z</time>
      </trkpt>
      <trkpt lat="42.69743" lon="0.66825">
        <ele>2079.5</ele>
        <time>2018-08-08T16:04:30.000Z</time>
      </trkpt>
      <trkpt lat="42.69743" lon="0.66825">
        <ele>2079.5</ele>
        <time>2018-08-08T16:04:31.000Z</time>
      </trkpt>
      <trkpt lat="42.69743" lon="0.66825">
        <ele>2079.5</ele>
        <time>2018-08-08T16:04:32.000Z</time>
      </trkpt>
      <trkpt lat="42.69743" lon="0.66825">
        <ele>2079.5</ele>
        <time>2018-08-08T16:04:33.000Z</time>
      </trkpt>
      <trkpt lat="42.69743" lon="0.66825">
        <ele>2079.5</ele>
        <time>2018-08-08T16:04:34.000Z</time>
      </trkpt>
      <trkpt lat="42.69743" lon="0.66825">
        <ele>2079.5</ele>
        <time>2018-08-08T16:04:35.000Z</time>
      </trkpt>
      <trkpt lat="42.69743" lon="0.66825">
        <ele>2079.5</ele>
        <time>2018-08-08T16:04:36.000Z</time>
      </trkpt>
      <trkpt lat="42.69743" lon="0.66825">
        <ele>2079.5</ele>
        <time>2018-08-08T16:04:37.000Z</time>
      </trkpt>
      <trkpt lat="42.69743" lon="0.66825">
        <ele>2079.5</ele>
        <time>2018-08-08T16:04:38.000Z</time>
      </trkpt>
      <trkpt lat="42.69743" lon="0.66825">
        <ele>2079.5</ele>
        <time>2018-08-08T16:04:39.000Z</time>
      </trkpt>
      <trkpt lat="42.69743" lon="0.66825">
        <ele>2079.5</ele>
        <time>2018-08-08T16:04:40.000Z</time>
      </trkpt>
      <trkpt lat="42.69743" lon="0.66825">
        <ele>2079.5</ele>
        <time>2018-08-08T16:04:41.000Z</time>
      </trkpt>
      <trkpt lat="42.69743" lon="0.66825">
        <ele>2079.5</ele>
        <time>2018-08-08T16:04:42.000Z</time>
      </trkpt>
      <trkpt lat="42.69743" lon="0.66825">
        <ele>2079.5</ele>
        <time>2018-08-08T16:04:43.000Z</time>
      </trkpt>
      <trkpt lat="42.69743" lon="0.66825">
        <ele>2079.5</ele>
        <time>2018-08-08T16:04:44.000Z</time>
      </trkpt>
      <trkpt lat="42.69743" lon="0.66825">
        <ele>2079.5</ele>
        <time>2018-08-08T16:04:45.000Z</time>
      </trkpt>
      <trkpt lat="42.69743" lon="0.66825">
        <ele>2079.5</ele>
        <time>2018-08-08T16:04:46.000Z</time>
      </trkpt>
      <trkpt lat="42.69743" lon="0.66825">
        <ele>2079.5</ele>
        <time>2018-08-08T16:04:47.000Z</time>
      </trkpt>
      <trkpt lat="42.69743" lon="0.66825">
        <ele>2079.5</ele>
        <time>2018-08-08T16:04:48.000Z</time>
      </trkpt>
      <trkpt lat="42.69743" lon="0.66825">
        <ele>2079.5</ele>
        <time>2018-08-08T16:04:49.000Z</time>
      </trkpt>
      <trkpt lat="42.69743" lon="0.66825">
        <ele>2079.5</ele>
        <time>2018-08-08T16:04:50.000Z</time>
      </trkpt>
      <trkpt lat="42.69743" lon="0.66825">
        <ele>2079.5</ele>
        <time>2018-08-08T16:04:51.000Z</time>
      </trkpt>
      <trkpt lat="42.69743" lon="0.66825">
        <ele>2079.5</ele>
        <time>2018-08-08T16:04:52.000Z</time>
      </trkpt>
      <trkpt lat="42.69743" lon="0.66825">
        <ele>2079.5</ele>
        <time>2018-08-08T16:04:53.000Z</time>
      </trkpt>
      <trkpt lat="42.69743" lon="0.66825">
        <ele>2079.5</ele>
        <time>2018-08-08T16:04:54.000Z</time>
      </trkpt>
      <trkpt lat="42.69743" lon="0.66825">
        <ele>2079.5</ele>
        <time>2018-08-08T16:04:55.000Z</time>
      </trkpt>
      <trkpt lat="42.69743" lon="0.66825">
        <ele>2079.5</ele>
        <time>2018-08-08T16:04:56.000Z</time>
      </trkpt>
      <trkpt lat="42.69743" lon="0.66825">
        <ele>2079.5</ele>
        <time>2018-08-08T16:04:57.000Z</time>
      </trkpt>
      <trkpt lat="42.69743" lon="0.66825">
        <ele>2079.5</ele>
        <time>2018-08-08T16:04:58.000Z</time>
      </trkpt>
      <trkpt lat="42.69743" lon="0.66825">
        <ele>2079.5</ele>
        <time>2018-08-08T16:04:59.000Z</time>
      </trkpt>
      <trkpt lat="42.69743" lon="0.66825">
        <ele>2079.5</ele>
        <time>2018-08-08T16:05:00.000Z</time>
      </trkpt>
      <trkpt lat="42.69743" lon="0.66825">
        <ele>2079.5</ele>
        <time>2018-08-08T16:05:01.000Z</time>
      </trkpt>
      <trkpt lat="42.69743" lon="0.66825">
        <ele>2079.5</ele>
        <time>2018-08-08T16:05:02.000Z</time>
      </trkpt>
      <trkpt lat="42.69743" lon="0.66825">
        <ele>2079.5</ele>
        <time>2018-08-08T16:05:03.000Z</time>
      </trkpt>
      <trkpt lat="42.69743" lon="0.66825">
        <ele>2079.5</ele>
        <time>2018-08-08T16:05:04.000Z</time>
      </trkpt>
      <trkpt lat="42.69743" lon="0.66825">
        <ele>2079.5</ele>
        <time>2018-08-08T16:05:05.000Z</time>
      </trkpt>
      <trkpt lat="42.69743" lon="0.66825">
        <ele>2079.5</ele>
        <time>2018-08-08T16:05:06.000Z</time>
      </trkpt>
      <trkpt lat="42.69743" lon="0.66825">
        <ele>2079.5</ele>
        <time>2018-08-08T16:05:07.000Z</time>
      </trkpt>
      <trkpt lat="42.69743" lon="0.66825">
        <ele>2079.5</ele>
        <time>2018-08-08T16:05:08.000Z</time>
      </trkpt>
      <trkpt lat="42.69743" lon="0.66825">
        <ele>2079.5</ele>
        <time>2018-08-08T16:05:09.000Z</time>
      </trkpt>
      <trkpt lat="42.69743" lon="0.66825">
        <ele>2079.5</ele>
        <time>2018-08-08T16:05:10.000Z</time>
      </trkpt>
      <trkpt lat="42.69743" lon="0.66825">
        <ele>2079.5</ele>
        <time>2018-08-08T16:05:11.000Z</time>
      </trkpt>
      <trkpt lat="42.69743" lon="0.66825">
        <ele>2079.5</ele>
        <time>2018-08-08T16:05:12.000Z</time>
      </trkpt>
      <trkpt lat="42.69743" lon="0.66825">
        <ele>2079.5</ele>
        <time>2018-08-08T16:05:13.000Z</time>
      </trkpt>
      <trkpt lat="42.69743" lon="0.66825">
        <ele>2079.5</ele>
        <time>2018-08-08T16:05:14.000Z</time>
      </trkpt>
      <trkpt lat="42.69743" lon="0.66825">
        <ele>2079.5</ele>
        <time>2018-08-08T16:05:15.000Z</time>
      </trkpt>
      <trkpt lat="42.69743" lon="0.66825">
        <ele>2079.5</ele>
        <time>2018-08-08T16:05:16.000Z</time>
      </trkpt>
      <trkpt lat="42.69743" lon="0.66825">
        <ele>2079.5</ele>
        <time>2018-08-08T16:05:17.000Z</time>
      </trkpt>
      <trkpt lat="42.69743" lon="0.66825">
        <ele>2079.5</ele>
        <time>2018-08-08T16:05:18.000Z</time>
      </trkpt>
      <trkpt lat="42.69743" lon="0.66825">
        <ele>2079.5</ele>
        <time>2018-08-08T16:05:19.000Z</time>
      </trkpt>
      <trkpt lat="42.69743" lon="0.66825">
        <ele>2079.5</ele>
        <time>2018-08-08T16:05:20.000Z</time>
      </trkpt>
      <trkpt lat="42.69743" lon="0.66825">
        <ele>2079.5</ele>
        <time>2018-08-08T16:05:21.000Z</time>
      </trkpt>
      <trkpt lat="42.69743" lon="0.66825">
        <ele>2079.5</ele>
        <time>2018-08-08T16:05:22.000Z</time>
      </trkpt>
      <trkpt lat="42.69743" lon="0.66825">
        <ele>2079.5</ele>
        <time>2018-08-08T16:05:23.000Z</time>
      </trkpt>
      <trkpt lat="42.69743" lon="0.66825">
        <ele>2079.5</ele>
        <time>2018-08-08T16:05:24.000Z</time>
      </trkpt>
      <trkpt lat="42.69743" lon="0.66825">
        <ele>2079.5</ele>
        <time>2018-08-08T16:05:25.000Z</time>
      </trkpt>
      <trkpt lat="42.69743" lon="0.66825">
        <ele>2079.5</ele>
        <time>2018-08-08T16:05:26.000Z</time>
      </trkpt>
      <trkpt lat="42.69743" lon="0.66825">
        <ele>2079.5</ele>
        <time>2018-08-08T16:05:27.000Z</time>
      </trkpt>
      <trkpt lat="42.69743" lon="0.66825">
        <ele>2079.5</ele>
        <time>2018-08-08T16:05:28.000Z</time>
      </trkpt>
      <trkpt lat="42.69743" lon="0.66825">
        <ele>2079.5</ele>
        <time>2018-08-08T16:05:29.000Z</time>
      </trkpt>
      <trkpt lat="42.69743" lon="0.66825">
        <ele>2079.5</ele>
        <time>2018-08-08T16:05:30.000Z</time>
      </trkpt>
      <trkpt lat="42.69743" lon="0.66825">
        <ele>2079.5</ele>
        <time>2018-08-08T16:05:31.000Z</time>
      </trkpt>
      <trkpt lat="42.69743" lon="0.66825">
        <ele>2079.5</ele>
        <time>2018-08-08T16:05:32.000Z</time>
      </trkpt>
      <trkpt lat="42.69743" lon="0.66825">
        <ele>2079.5</ele>
        <time>2018-08-08T16:05:33.000Z</time>
      </trkpt>
      <trkpt lat="42.69743" lon="0.66825">
        <ele>2079.5</ele>
        <time>2018-08-08T16:05:34.000Z</time>
      </trkpt>
      <trkpt lat="42.69743" lon="0.66825">
        <ele>2079.5</ele>
        <time>2018-08-08T16:05:35.000Z</time>
      </trkpt>
      <trkpt lat="42.69743" lon="0.66825">
        <ele>2079.5</ele>
        <time>2018-08-08T16:05:36.000Z</time>
      </trkpt>
      <trkpt lat="42.69743" lon="0.66825">
        <ele>2079.5</ele>
        <time>2018-08-08T16:05:37.000Z</time>
      </trkpt>
      <trkpt lat="42.69743" lon="0.66825">
        <ele>2079.5</ele>
        <time>2018-08-08T16:05:38.000Z</time>
      </trkpt>
      <trkpt lat="42.69743" lon="0.66825">
        <ele>2079.5</ele>
        <time>2018-08-08T16:05:39.000Z</time>
      </trkpt>
      <trkpt lat="42.69743" lon="0.66825">
        <ele>2079.5</ele>
        <time>2018-08-08T16:05:40.000Z</time>
      </trkpt>
      <trkpt lat="42.69743" lon="0.66825">
        <ele>2079.5</ele>
        <time>2018-08-08T16:05:41.000Z</time>
      </trkpt>
      <trkpt lat="42.69743" lon="0.66825">
        <ele>2079.5</ele>
        <time>2018-08-08T16:05:42.000Z</time>
      </trkpt>
      <trkpt lat="42.69743" lon="0.66825">
        <ele>2079.5</ele>
        <time>2018-08-08T16:05:43.000Z</time>
      </trkpt>
      <trkpt lat="42.69743" lon="0.66825">
        <ele>2079.5</ele>
        <time>2018-08-08T16:05:44.000Z</time>
      </trkpt>
      <trkpt lat="42.69743" lon="0.66825">
        <ele>2079.5</ele>
        <time>2018-08-08T16:05:45.000Z</time>
      </trkpt>
      <trkpt lat="42.69743" lon="0.66825">
        <ele>2079.5</ele>
        <time>2018-08-08T16:05:46.000Z</time>
      </trkpt>
      <trkpt lat="42.69743" lon="0.66825">
        <ele>2079.5</ele>
        <time>2018-08-08T16:05:47.000Z</time>
      </trkpt>
      <trkpt lat="42.69743" lon="0.66825">
        <ele>2079.5</ele>
        <time>2018-08-08T16:05:48.000Z</time>
      </trkpt>
      <trkpt lat="42.69743" lon="0.66825">
        <ele>2079.5</ele>
        <time>2018-08-08T16:05:49.000Z</time>
      </trkpt>
      <trkpt lat="42.69743" lon="0.66825">
        <ele>2079.5</ele>
        <time>2018-08-08T16:05:50.000Z</time>
      </trkpt>
      <trkpt lat="42.69743" lon="0.66825">
        <ele>2079.5</ele>
        <time>2018-08-08T16:05:51.000Z</time>
      </trkpt>
      <trkpt lat="42.69743" lon="0.66825">
        <ele>2079.5</ele>
        <time>2018-08-08T16:05:52.000Z</time>
      </trkpt>
      <trkpt lat="42.69743" lon="0.66825">
        <ele>2079.5</ele>
        <time>2018-08-08T16:05:53.000Z</time>
      </trkpt>
      <trkpt lat="42.69743" lon="0.66825">
        <ele>2079.5</ele>
        <time>2018-08-08T16:05:54.000Z</time>
      </trkpt>
      <trkpt lat="42.69743" lon="0.66825">
        <ele>2079.5</ele>
        <time>2018-08-08T16:05:55.000Z</time>
      </trkpt>
      <trkpt lat="42.69743" lon="0.66825">
        <ele>2079.5</ele>
        <time>2018-08-08T16:05:56.000Z</time>
      </trkpt>
      <trkpt lat="42.69743" lon="0.66825">
        <ele>2079.5</ele>
        <time>2018-08-08T16:05:57.000Z</time>
      </trkpt>
      <trkpt lat="42.69743" lon="0.66825">
        <ele>2079.5</ele>
        <time>2018-08-08T16:05:58.000Z</time>
      </trkpt>
      <trkpt lat="42.69743" lon="0.66825">
        <ele>2079.5</ele>
        <time>2018-08-08T16:05:59.000Z</time>
      </trkpt>
      <trkpt lat="42.69743" lon="0.66825">
        <ele>2079.5</ele>
        <time>2018-08-08T16:06:00.000Z</time>
      </trkpt>
      <trkpt lat="42.69743" lon="0.66825">
        <ele>2079.5</ele>
        <time>2018-08-08T16:06:01.000Z</time>
      </trkpt>
      <trkpt lat="42.69743" lon="0.66825">
        <ele>2079.5</ele>
        <time>2018-08-08T16:06:02.000Z</time>
      </trkpt>
      <trkpt lat="42.69743" lon="0.66825">
        <ele>2079.5</ele>
        <time>2018-08-08T16:06:03.000Z</time>
      </trkpt>
      <trkpt lat="42.69743" lon="0.66825">
        <ele>2079.5</ele>
        <time>2018-08-08T16:06:04.000Z</time>
      </trkpt>
      <trkpt lat="42.69743" lon="0.66825">
        <ele>2079.5</ele>
        <time>2018-08-08T16:06:05.000Z</time>
      </trkpt>
      <trkpt lat="42.69743" lon="0.66825">
        <ele>2079.5</ele>
        <time>2018-08-08T16:06:06.000Z</time>
      </trkpt>
      <trkpt lat="42.69743" lon="0.66825">
        <ele>2079.5</ele>
        <time>2018-08-08T16:06:07.000Z</time>
      </trkpt>
      <trkpt lat="42.69743" lon="0.66825">
        <ele>2079.5</ele>
        <time>2018-08-08T16:06:08.000Z</time>
      </trkpt>
      <trkpt lat="42.69743" lon="0.66825">
        <ele>2079.5</ele>
        <time>2018-08-08T16:06:09.000Z</time>
      </trkpt>
      <trkpt lat="42.69743" lon="0.66825">
        <ele>2079.5</ele>
        <time>2018-08-08T16:06:10.000Z</time>
      </trkpt>
      <trkpt lat="42.69743" lon="0.66825">
        <ele>2079.5</ele>
        <time>2018-08-08T16:06:11.000Z</time>
      </trkpt>
      <trkpt lat="42.69743" lon="0.66825">
        <ele>2079.5</ele>
        <time>2018-08-08T16:06:12.000Z</time>
      </trkpt>
      <trkpt lat="42.69743" lon="0.66825">
        <ele>2079.5</ele>
        <time>2018-08-08T16:06:13.000Z</time>
      </trkpt>
      <trkpt lat="42.69743" lon="0.66825">
        <ele>2079.5</ele>
        <time>2018-08-08T16:06:14.000Z</time>
      </trkpt>
      <trkpt lat="42.69743" lon="0.66825">
        <ele>2079.5</ele>
        <time>2018-08-08T16:06:15.000Z</time>
      </trkpt>
      <trkpt lat="42.69743" lon="0.66825">
        <ele>2079.5</ele>
        <time>2018-08-08T16:06:16.000Z</time>
      </trkpt>
      <trkpt lat="42.69743" lon="0.66825">
        <ele>2079.5</ele>
        <time>2018-08-08T16:06:17.000Z</time>
      </trkpt>
      <trkpt lat="42.69743" lon="0.66825">
        <ele>2079.5</ele>
        <time>2018-08-08T16:06:18.000Z</time>
      </trkpt>
      <trkpt lat="42.69743" lon="0.66825">
        <ele>2079.5</ele>
        <time>2018-08-08T16:06:19.000Z</time>
      </trkpt>
      <trkpt lat="42.69743" lon="0.66825">
        <ele>2079.5</ele>
        <time>2018-08-08T16:06:20.000Z</time>
      </trkpt>
      <trkpt lat="42.69743" lon="0.66825">
        <ele>2079.5</ele>
        <time>2018-08-08T16:06:21.000Z</time>
      </trkpt>
      <trkpt lat="42.69743" lon="0.66825">
        <ele>2079.5</ele>
        <time>2018-08-08T16:06:22.000Z</time>
      </trkpt>
      <trkpt lat="42.69743" lon="0.66825">
        <ele>2079.5</ele>
        <time>2018-08-08T16:06:23.000Z</time>
      </trkpt>
      <trkpt lat="42.69743" lon="0.66825">
        <ele>2079.5</ele>
        <time>2018-08-08T16:06:24.000Z</time>
      </trkpt>
      <trkpt lat="42.69743" lon="0.66825">
        <ele>2079.5</ele>
        <time>2018-08-08T16:06:25.000Z</time>
      </trkpt>
      <trkpt lat="42.69743" lon="0.66825">
        <ele>2079.5</ele>
        <time>2018-08-08T16:06:26.000Z</time>
      </trkpt>
      <trkpt lat="42.69743" lon="0.66825">
        <ele>2079.5</ele>
        <time>2018-08-08T16:06:27.000Z</time>
      </trkpt>
      <trkpt lat="42.69743" lon="0.66825">
        <ele>2079.5</ele>
        <time>2018-08-08T16:06:28.000Z</time>
      </trkpt>
      <trkpt lat="42.69743" lon="0.66825">
        <ele>2079.5</ele>
        <time>2018-08-08T16:06:29.000Z</time>
      </trkpt>
      <trkpt lat="42.69743" lon="0.66825">
        <ele>2079.5</ele>
        <time>2018-08-08T16:06:30.000Z</time>
      </trkpt>
      <trkpt lat="42.69743" lon="0.66825">
        <ele>2079.5</ele>
        <time>2018-08-08T16:06:31.000Z</time>
      </trkpt>
      <trkpt lat="42.69743" lon="0.66825">
        <ele>2079.5</ele>
        <time>2018-08-08T16:06:32.000Z</time>
      </trkpt>
      <trkpt lat="42.69743" lon="0.66825">
        <ele>2079.5</ele>
        <time>2018-08-08T16:06:33.000Z</time>
      </trkpt>
      <trkpt lat="42.69743" lon="0.66825">
        <ele>2079.5</ele>
        <time>2018-08-08T16:06:34.000Z</time>
      </trkpt>
      <trkpt lat="42.69743" lon="0.66825">
        <ele>2079.5</ele>
        <time>2018-08-08T16:06:35.000Z</time>
      </trkpt>
      <trkpt lat="42.69743" lon="0.66825">
        <ele>2079.5</ele>
        <time>2018-08-08T16:06:36.000Z</time>
      </trkpt>
      <trkpt lat="42.69743" lon="0.66825">
        <ele>2079.5</ele>
        <time>2018-08-08T16:06:37.000Z</time>
      </trkpt>
      <trkpt lat="42.69743" lon="0.66825">
        <ele>2079.5</ele>
        <time>2018-08-08T16:06:38.000Z</time>
      </trkpt>
      <trkpt lat="42.69743" lon="0.66825">
        <ele>2079.5</ele>
        <time>2018-08-08T16:06:39.000Z</time>
      </trkpt>
      <trkpt lat="42.69743" lon="0.66825">
        <ele>2079.5</ele>
        <time>2018-08-08T16:06:40.000Z</time>
      </trkpt>
      <trkpt lat="42.69743" lon="0.66825">
        <ele>2079.5</ele>
        <time>2018-08-08T16:06:41.000Z</time>
      </trkpt>
      <trkpt lat="42.69743" lon="0.66825">
        <ele>2079.5</ele>
        <time>2018-08-08T16:06:42.000Z</time>
      </trkpt>
      <trkpt lat="42.69743" lon="0.66825">
        <ele>2079.5</ele>
        <time>2018-08-08T16:06:43.000Z</time>
      </trkpt>
      <trkpt lat="42.69743" lon="0.66825">
        <ele>2079.5</ele>
        <time>2018-08-08T16:06:44.000Z</time>
      </trkpt>
      <trkpt lat="42.69743" lon="0.66825">
        <ele>2079.5</ele>
        <time>2018-08-08T16:06:45.000Z</time>
      </trkpt>
      <trkpt lat="42.69743" lon="0.66825">
        <ele>2079.5</ele>
        <time>2018-08-08T16:06:46.000Z</time>
      </trkpt>
      <trkpt lat="42.69743" lon="0.66825">
        <ele>2079.5</ele>
        <time>2018-08-08T16:06:47.000Z</time>
      </trkpt>
      <trkpt lat="42.69743" lon="0.66825">
        <ele>2079.5</ele>
        <time>2018-08-08T16:06:48.000Z</time>
      </trkpt>
      <trkpt lat="42.69743" lon="0.66825">
        <ele>2079.5</ele>
        <time>2018-08-08T16:06:49.000Z</time>
      </trkpt>
      <trkpt lat="42.69743" lon="0.66825">
        <ele>2079.5</ele>
        <time>2018-08-08T16:06:50.000Z</time>
      </trkpt>
      <trkpt lat="42.69743" lon="0.66825">
        <ele>2079.5</ele>
        <time>2018-08-08T16:06:51.000Z</time>
      </trkpt>
      <trkpt lat="42.69743" lon="0.66825">
        <ele>2079.5</ele>
        <time>2018-08-08T16:06:52.000Z</time>
      </trkpt>
      <trkpt lat="42.69743" lon="0.66825">
        <ele>2079.5</ele>
        <time>2018-08-08T16:06:53.000Z</time>
      </trkpt>
      <trkpt lat="42.69743" lon="0.66825">
        <ele>2079.5</ele>
        <time>2018-08-08T16:06:54.000Z</time>
      </trkpt>
      <trkpt lat="42.69743" lon="0.66825">
        <ele>2079.5</ele>
        <time>2018-08-08T16:06:55.000Z</time>
      </trkpt>
      <trkpt lat="42.69743" lon="0.66825">
        <ele>2079.5</ele>
        <time>2018-08-08T16:06:56.000Z</time>
      </trkpt>
      <trkpt lat="42.69743" lon="0.66825">
        <ele>2079.5</ele>
        <time>2018-08-08T16:06:57.000Z</time>
      </trkpt>
      <trkpt lat="42.69743" lon="0.66825">
        <ele>2079.5</ele>
        <time>2018-08-08T16:06:58.000Z</time>
      </trkpt>
      <trkpt lat="42.69743" lon="0.66825">
        <ele>2079.5</ele>
        <time>2018-08-08T16:06:59.000Z</time>
      </trkpt>
      <trkpt lat="42.69743" lon="0.66825">
        <ele>2079.5</ele>
        <time>2018-08-08T16:07:00.000Z</time>
      </trkpt>
      <trkpt lat="42.69743" lon="0.66825">
        <ele>2079.5</ele>
        <time>2018-08-08T16:07:01.000Z</time>
      </trkpt>
      <trkpt lat="42.69743" lon="0.66825">
        <ele>2079.5</ele>
        <time>2018-08-08T16:07:02.000Z</time>
      </trkpt>
      <trkpt lat="42.69743" lon="0.66825">
        <ele>2079.5</ele>
        <time>2018-08-08T16:07:03.000Z</time>
      </trkpt>
      <trkpt lat="42.69743" lon="0.66825">
        <ele>2079.5</ele>
        <time>2018-08-08T16:07:04.000Z</time>
      </trkpt>
      <trkpt lat="42.69743" lon="0.66825">
        <ele>2079.5</ele>
        <time>2018-08-08T16:07:05.000Z</time>
      </trkpt>
      <trkpt lat="42.69743" lon="0.66825">
        <ele>2079.5</ele>
        <time>2018-08-08T16:07:06.000Z</time>
      </trkpt>
      <trkpt lat="42.69743" lon="0.66825">
        <ele>2079.5</ele>
        <time>2018-08-08T16:07:07.000Z</time>
      </trkpt>
      <trkpt lat="42.69743" lon="0.66825">
        <ele>2079.5</ele>
        <time>2018-08-08T16:07:08.000Z</time>
      </trkpt>
      <trkpt lat="42.69743" lon="0.66825">
        <ele>2079.5</ele>
        <time>2018-08-08T16:07:09.000Z</time>
      </trkpt>
      <trkpt lat="42.69743" lon="0.66825">
        <ele>2079.5</ele>
        <time>2018-08-08T16:07:10.000Z</time>
      </trkpt>
      <trkpt lat="42.69743" lon="0.66825">
        <ele>2079.5</ele>
        <time>2018-08-08T16:07:11.000Z</time>
      </trkpt>
      <trkpt lat="42.69743" lon="0.66825">
        <ele>2079.5</ele>
        <time>2018-08-08T16:07:12.000Z</time>
      </trkpt>
      <trkpt lat="42.69743" lon="0.66825">
        <ele>2079.5</ele>
        <time>2018-08-08T16:07:13.000Z</time>
      </trkpt>
      <trkpt lat="42.69743" lon="0.66825">
        <ele>2079.5</ele>
        <time>2018-08-08T16:07:14.000Z</time>
      </trkpt>
      <trkpt lat="42.69743" lon="0.66825">
        <ele>2079.5</ele>
        <time>2018-08-08T16:07:15.000Z</time>
      </trkpt>
      <trkpt lat="42.69743" lon="0.66825">
        <ele>2079.5</ele>
        <time>2018-08-08T16:07:16.000Z</time>
      </trkpt>
      <trkpt lat="42.69743" lon="0.66825">
        <ele>2079.5</ele>
        <time>2018-08-08T16:07:17.000Z</time>
      </trkpt>
      <trkpt lat="42.69743" lon="0.66825">
        <ele>2079.5</ele>
        <time>2018-08-08T16:07:18.000Z</time>
      </trkpt>
      <trkpt lat="42.69743" lon="0.66825">
        <ele>2079.5</ele>
        <time>2018-08-08T16:07:19.000Z</time>
      </trkpt>
      <trkpt lat="42.69743" lon="0.66825">
        <ele>2079.5</ele>
        <time>2018-08-08T16:07:20.000Z</time>
      </trkpt>
      <trkpt lat="42.69743" lon="0.66825">
        <ele>2079.5</ele>
        <time>2018-08-08T16:07:21.000Z</time>
      </trkpt>
      <trkpt lat="42.69743" lon="0.66825">
        <ele>2079.5</ele>
        <time>2018-08-08T16:07:22.000Z</time>
      </trkpt>
      <trkpt lat="42.69743" lon="0.66825">
        <ele>2079.5</ele>
        <time>2018-08-08T16:07:23.000Z</time>
      </trkpt>
      <trkpt lat="42.69743" lon="0.66825">
        <ele>2079.5</ele>
        <time>2018-08-08T16:07:24.000Z</time>
      </trkpt>
      <trkpt lat="42.69743" lon="0.66825">
        <ele>2079.5</ele>
        <time>2018-08-08T16:07:25.000Z</time>
      </trkpt>
      <trkpt lat="42.69743" lon="0.66825">
        <ele>2079.5</ele>
        <time>2018-08-08T16:07:26.000Z</time>
      </trkpt>
      <trkpt lat="42.69743" lon="0.66825">
        <ele>2079.5</ele>
        <time>2018-08-08T16:07:27.000Z</time>
      </trkpt>
      <trkpt lat="42.69743" lon="0.66825">
        <ele>2079.5</ele>
        <time>2018-08-08T16:07:28.000Z</time>
      </trkpt>
      <trkpt lat="42.69743" lon="0.66825">
        <ele>2079.5</ele>
        <time>2018-08-08T16:07:29.000Z</time>
      </trkpt>
      <trkpt lat="42.69743" lon="0.66825">
        <ele>2079.5</ele>
        <time>2018-08-08T16:07:30.000Z</time>
      </trkpt>
      <trkpt lat="42.69743" lon="0.66825">
        <ele>2079.5</ele>
        <time>2018-08-08T16:07:31.000Z</time>
      </trkpt>
      <trkpt lat="42.69743" lon="0.66825">
        <ele>2079.5</ele>
        <time>2018-08-08T16:07:32.000Z</time>
      </trkpt>
      <trkpt lat="42.69743" lon="0.66825">
        <ele>2079.5</ele>
        <time>2018-08-08T16:07:33.000Z</time>
      </trkpt>
      <trkpt lat="42.69743" lon="0.66825">
        <ele>2079.5</ele>
        <time>2018-08-08T16:07:34.000Z</time>
      </trkpt>
      <trkpt lat="42.69743" lon="0.66825">
        <ele>2079.5</ele>
        <time>2018-08-08T16:07:35.000Z</time>
      </trkpt>
      <trkpt lat="42.69743" lon="0.66825">
        <ele>2079.5</ele>
        <time>2018-08-08T16:07:36.000Z</time>
      </trkpt>
      <trkpt lat="42.69743" lon="0.66825">
        <ele>2079.5</ele>
        <time>2018-08-08T16:07:37.000Z</time>
      </trkpt>
      <trkpt lat="42.69743" lon="0.66825">
        <ele>2079.5</ele>
        <time>2018-08-08T16:07:38.000Z</time>
      </trkpt>
      <trkpt lat="42.69743" lon="0.66825">
        <ele>2079.5</ele>
        <time>2018-08-08T16:07:39.000Z</time>
      </trkpt>
      <trkpt lat="42.69743" lon="0.66825">
        <ele>2079.5</ele>
        <time>2018-08-08T16:07:40.000Z</time>
      </trkpt>
      <trkpt lat="42.69743" lon="0.66825">
        <ele>2079.5</ele>
        <time>2018-08-08T16:07:41.000Z</time>
      </trkpt>
      <trkpt lat="42.69743" lon="0.66825">
        <ele>2079.5</ele>
        <time>2018-08-08T16:07:42.000Z</time>
      </trkpt>
      <trkpt lat="42.69743" lon="0.66825">
        <ele>2079.5</ele>
        <time>2018-08-08T16:07:43.000Z</time>
      </trkpt>
      <trkpt lat="42.69743" lon="0.66825">
        <ele>2079.5</ele>
        <time>2018-08-08T16:07:44.000Z</time>
      </trkpt>
      <trkpt lat="42.69743" lon="0.66825">
        <ele>2079.5</ele>
        <time>2018-08-08T16:07:45.000Z</time>
      </trkpt>
      <trkpt lat="42.69743" lon="0.66825">
        <ele>2079.5</ele>
        <time>2018-08-08T16:07:46.000Z</time>
      </trkpt>
      <trkpt lat="42.69743" lon="0.66825">
        <ele>2079.5</ele>
        <time>2018-08-08T16:07:47.000Z</time>
      </trkpt>
      <trkpt lat="42.69743" lon="0.66825">
        <ele>2079.5</ele>
        <time>2018-08-08T16:07:48.000Z</time>
      </trkpt>
      <trkpt lat="42.69743" lon="0.66825">
        <ele>2079.5</ele>
        <time>2018-08-08T16:07:49.000Z</time>
      </trkpt>
      <trkpt lat="42.69743" lon="0.66825">
        <ele>2079.5</ele>
        <time>2018-08-08T16:07:50.000Z</time>
      </trkpt>
      <trkpt lat="42.69743" lon="0.66825">
        <ele>2079.5</ele>
        <time>2018-08-08T16:07:51.000Z</time>
      </trkpt>
      <trkpt lat="42.69743" lon="0.66825">
        <ele>2079.5</ele>
        <time>2018-08-08T16:07:52.000Z</time>
      </trkpt>
      <trkpt lat="42.69743" lon="0.66825">
        <ele>2079.5</ele>
        <time>2018-08-08T16:07:53.000Z</time>
      </trkpt>
      <trkpt lat="42.69743" lon="0.66825">
        <ele>2079.5</ele>
        <time>2018-08-08T16:07:54.000Z</time>
      </trkpt>
      <trkpt lat="42.69743" lon="0.66825">
        <ele>2079.5</ele>
        <time>2018-08-08T16:07:55.000Z</time>
      </trkpt>
      <trkpt lat="42.69743" lon="0.66825">
        <ele>2079.5</ele>
        <time>2018-08-08T16:07:56.000Z</time>
      </trkpt>
      <trkpt lat="42.69743" lon="0.66825">
        <ele>2079.5</ele>
        <time>2018-08-08T16:07:57.000Z</time>
      </trkpt>
      <trkpt lat="42.69743" lon="0.66825">
        <ele>2079.5</ele>
        <time>2018-08-08T16:07:58.000Z</time>
      </trkpt>
      <trkpt lat="42.69743" lon="0.66825">
        <ele>2079.5</ele>
        <time>2018-08-08T16:07:59.000Z</time>
      </trkpt>
      <trkpt lat="42.69743" lon="0.66825">
        <ele>2079.5</ele>
        <time>2018-08-08T16:08:00.000Z</time>
      </trkpt>
      <trkpt lat="42.69743" lon="0.66825">
        <ele>2079.5</ele>
        <time>2018-08-08T16:08:01.000Z</time>
      </trkpt>
      <trkpt lat="42.69743" lon="0.66825">
        <ele>2079.5</ele>
        <time>2018-08-08T16:08:02.000Z</time>
      </trkpt>
      <trkpt lat="42.69743" lon="0.66825">
        <ele>2079.5</ele>
        <time>2018-08-08T16:08:03.000Z</time>
      </trkpt>
      <trkpt lat="42.69743" lon="0.66825">
        <ele>2079.5</ele>
        <time>2018-08-08T16:08:04.000Z</time>
      </trkpt>
      <trkpt lat="42.69743" lon="0.66825">
        <ele>2079.5</ele>
        <time>2018-08-08T16:08:05.000Z</time>
      </trkpt>
      <trkpt lat="42.69743" lon="0.66825">
        <ele>2079.5</ele>
        <time>2018-08-08T16:08:06.000Z</time>
      </trkpt>
      <trkpt lat="42.69743" lon="0.66825">
        <ele>2079.5</ele>
        <time>2018-08-08T16:08:07.000Z</time>
      </trkpt>
      <trkpt lat="42.69743" lon="0.66825">
        <ele>2079.5</ele>
        <time>2018-08-08T16:08:08.000Z</time>
      </trkpt>
      <trkpt lat="42.69743" lon="0.66825">
        <ele>2079.5</ele>
        <time>2018-08-08T16:08:09.000Z</time>
      </trkpt>
      <trkpt lat="42.69743" lon="0.66825">
        <ele>2079.5</ele>
        <time>2018-08-08T16:08:10.000Z</time>
      </trkpt>
      <trkpt lat="42.69743" lon="0.66825">
        <ele>2079.5</ele>
        <time>2018-08-08T16:08:11.000Z</time>
      </trkpt>
      <trkpt lat="42.69743" lon="0.66825">
        <ele>2079.5</ele>
        <time>2018-08-08T16:08:12.000Z</time>
      </trkpt>
      <trkpt lat="42.69743" lon="0.66825">
        <ele>2079.5</ele>
        <time>2018-08-08T16:08:13.000Z</time>
      </trkpt>
      <trkpt lat="42.69743" lon="0.66825">
        <ele>2079.5</ele>
        <time>2018-08-08T16:08:14.000Z</time>
      </trkpt>
      <trkpt lat="42.69743" lon="0.66825">
        <ele>2079.5</ele>
        <time>2018-08-08T16:08:15.000Z</time>
      </trkpt>
      <trkpt lat="42.69743" lon="0.66825">
        <ele>2079.5</ele>
        <time>2018-08-08T16:08:16.000Z</time>
      </trkpt>
      <trkpt lat="42.69743" lon="0.66825">
        <ele>2079.5</ele>
        <time>2018-08-08T16:08:17.000Z</time>
      </trkpt>
      <trkpt lat="42.69743" lon="0.66825">
        <ele>2079.5</ele>
        <time>2018-08-08T16:08:18.000Z</time>
      </trkpt>
      <trkpt lat="42.69743" lon="0.66825">
        <ele>2079.5</ele>
        <time>2018-08-08T16:08:19.000Z</time>
      </trkpt>
      <trkpt lat="42.69743" lon="0.66825">
        <ele>2079.5</ele>
        <time>2018-08-08T16:08:20.000Z</time>
      </trkpt>
      <trkpt lat="42.69743" lon="0.66825">
        <ele>2079.5</ele>
        <time>2018-08-08T16:08:21.000Z</time>
      </trkpt>
      <trkpt lat="42.69743" lon="0.66825">
        <ele>2079.5</ele>
        <time>2018-08-08T16:08:22.000Z</time>
      </trkpt>
      <trkpt lat="42.69743" lon="0.66825">
        <ele>2079.5</ele>
        <time>2018-08-08T16:08:23.000Z</time>
      </trkpt>
      <trkpt lat="42.69743" lon="0.66825">
        <ele>2079.5</ele>
        <time>2018-08-08T16:08:24.000Z</time>
      </trkpt>
      <trkpt lat="42.69743" lon="0.66825">
        <ele>2079.5</ele>
        <time>2018-08-08T16:08:25.000Z</time>
      </trkpt>
      <trkpt lat="42.69743" lon="0.66825">
        <ele>2079.5</ele>
        <time>2018-08-08T16:08:26.000Z</time>
      </trkpt>
      <trkpt lat="42.69743" lon="0.66825">
        <ele>2079.5</ele>
        <time>2018-08-08T16:08:27.000Z</time>
      </trkpt>
      <trkpt lat="42.69743" lon="0.66825">
        <ele>2079.5</ele>
        <time>2018-08-08T16:08:28.000Z</time>
      </trkpt>
      <trkpt lat="42.69743" lon="0.66825">
        <ele>2079.5</ele>
        <time>2018-08-08T16:08:29.000Z</time>
      </trkpt>
      <trkpt lat="42.69743" lon="0.66825">
        <ele>2079.5</ele>
        <time>2018-08-08T16:08:30.000Z</time>
      </trkpt>
      <trkpt lat="42.69743" lon="0.66825">
        <ele>2079.5</ele>
        <time>2018-08-08T16:08:31.000Z</time>
      </trkpt>
      <trkpt lat="42.69743" lon="0.66825">
        <ele>2079.5</ele>
        <time>2018-08-08T16:08:32.000Z</time>
      </trkpt>
      <trkpt lat="42.69743" lon="0.66825">
        <ele>2079.5</ele>
        <time>2018-08-08T16:08:33.000Z</time>
      </trkpt>
      <trkpt lat="42.69743" lon="0.66825">
        <ele>2079.5</ele>
        <time>2018-08-08T16:08:34.000Z</time>
      </trkpt>
      <trkpt lat="42.69743" lon="0.66825">
        <ele>2079.5</ele>
        <time>2018-08-08T16:08:35.000Z</time>
      </trkpt>
      <trkpt lat="42.69743" lon="0.66825">
        <ele>2079.5</ele>
        <time>2018-08-08T16:08:36.000Z</time>
      </trkpt>
      <trkpt lat="42.69743" lon="0.66825">
        <ele>2079.5</ele>
        <time>2018-08-08T16:08:37.000Z</time>
      </trkpt>
      <trkpt lat="42.69743" lon="0.66825">
        <ele>2079.5</ele>
        <time>2018-08-08T16:08:38.000Z</time>
      </trkpt>
      <trkpt lat="42.69743" lon="0.66825">
        <ele>2079.5</ele>
        <time>2018-08-08T16:08:39.000Z</time>
      </trkpt>
      <trkpt lat="42.69743" lon="0.66825">
        <ele>2079.5</ele>
        <time>2018-08-08T16:08:40.000Z</time>
      </trkpt>
      <trkpt lat="42.69743" lon="0.66825">
        <ele>2079.5</ele>
        <time>2018-08-08T16:08:41.000Z</time>
      </trkpt>
      <trkpt lat="42.69743" lon="0.66825">
        <ele>2079.5</ele>
        <time>2018-08-08T16:08:42.000Z</time>
      </trkpt>
      <trkpt lat="42.69743" lon="0.66825">
        <ele>2079.5</ele>
        <time>2018-08-08T16:08:43.000Z</time>
      </trkpt>
      <trkpt lat="42.69743" lon="0.66825">
        <ele>2079.5</ele>
        <time>2018-08-08T16:08:44.000Z</time>
      </trkpt>
      <trkpt lat="42.69743" lon="0.66825">
        <ele>2079.5</ele>
        <time>2018-08-08T16:08:45.000Z</time>
      </trkpt>
      <trkpt lat="42.69743" lon="0.66825">
        <ele>2079.5</ele>
        <time>2018-08-08T16:08:46.000Z</time>
      </trkpt>
      <trkpt lat="42.69743" lon="0.66825">
        <ele>2079.5</ele>
        <time>2018-08-08T16:08:47.000Z</time>
      </trkpt>
      <trkpt lat="42.69743" lon="0.66825">
        <ele>2079.5</ele>
        <time>2018-08-08T16:08:48.000Z</time>
      </trkpt>
      <trkpt lat="42.69743" lon="0.66825">
        <ele>2079.5</ele>
        <time>2018-08-08T16:08:49.000Z</time>
      </trkpt>
      <trkpt lat="42.69743" lon="0.66825">
        <ele>2079.5</ele>
        <time>2018-08-08T16:08:50.000Z</time>
      </trkpt>
      <trkpt lat="42.69743" lon="0.66825">
        <ele>2079.5</ele>
        <time>2018-08-08T16:08:51.000Z</time>
      </trkpt>
      <trkpt lat="42.69743" lon="0.66825">
        <ele>2079.5</ele>
        <time>2018-08-08T16:08:52.000Z</time>
      </trkpt>
      <trkpt lat="42.69743" lon="0.66825">
        <ele>2079.5</ele>
        <time>2018-08-08T16:08:53.000Z</time>
      </trkpt>
      <trkpt lat="42.69743" lon="0.66825">
        <ele>2079.5</ele>
        <time>2018-08-08T16:08:54.000Z</time>
      </trkpt>
      <trkpt lat="42.69743" lon="0.66825">
        <ele>2079.5</ele>
        <time>2018-08-08T16:08:55.000Z</time>
      </trkpt>
      <trkpt lat="42.69743" lon="0.66825">
        <ele>2079.5</ele>
        <time>2018-08-08T16:08:56.000Z</time>
      </trkpt>
      <trkpt lat="42.69743" lon="0.66825">
        <ele>2079.5</ele>
        <time>2018-08-08T16:08:57.000Z</time>
      </trkpt>
      <trkpt lat="42.69743" lon="0.66825">
        <ele>2079.5</ele>
        <time>2018-08-08T16:08:58.000Z</time>
      </trkpt>
      <trkpt lat="42.69743" lon="0.66825">
        <ele>2079.5</ele>
        <time>2018-08-08T16:08:59.000Z</time>
      </trkpt>
      <trkpt lat="42.69743" lon="0.66825">
        <ele>2079.5</ele>
        <time>2018-08-08T16:09:00.000Z</time>
      </trkpt>
      <trkpt lat="42.69743" lon="0.66825">
        <ele>2079.5</ele>
        <time>2018-08-08T16:09:01.000Z</time>
      </trkpt>
      <trkpt lat="42.69743" lon="0.66825">
        <ele>2079.5</ele>
        <time>2018-08-08T16:09:02.000Z</time>
      </trkpt>
      <trkpt lat="42.69743" lon="0.66825">
        <ele>2079.5</ele>
        <time>2018-08-08T16:09:03.000Z</time>
      </trkpt>
      <trkpt lat="42.69743" lon="0.66825">
        <ele>2079.5</ele>
        <time>2018-08-08T16:09:04.000Z</time>
      </trkpt>
      <trkpt lat="42.69743" lon="0.66825">
        <ele>2079.5</ele>
        <time>2018-08-08T16:09:05.000Z</time>
      </trkpt>
      <trkpt lat="42.69743" lon="0.66825">
        <ele>2079.5</ele>
        <time>2018-08-08T16:09:06.000Z</time>
      </trkpt>
      <trkpt lat="42.69743" lon="0.66825">
        <ele>2079.5</ele>
        <time>2018-08-08T16:09:07.000Z</time>
      </trkpt>
      <trkpt lat="42.69743" lon="0.66825">
        <ele>2079.5</ele>
        <time>2018-08-08T16:09:08.000Z</time>
      </trkpt>
      <trkpt lat="42.69743" lon="0.66825">
        <ele>2079.5</ele>
        <time>2018-08-08T16:09:09.000Z</time>
      </trkpt>
      <trkpt lat="42.69743" lon="0.66825">
        <ele>2079.5</ele>
        <time>2018-08-08T16:09:10.000Z</time>
      </trkpt>
      <trkpt lat="42.69743" lon="0.66825">
        <ele>2079.5</ele>
        <time>2018-08-08T16:09:11.000Z</time>
      </trkpt>
      <trkpt lat="42.69743" lon="0.66825">
        <ele>2079.5</ele>
        <time>2018-08-08T16:09:12.000Z</time>
      </trkpt>
      <trkpt lat="42.69743" lon="0.66825">
        <ele>2079.5</ele>
        <time>2018-08-08T16:09:13.000Z</time>
      </trkpt>
      <trkpt lat="42.69743" lon="0.66825">
        <ele>2079.5</ele>
        <time>2018-08-08T16:09:14.000Z</time>
      </trkpt>
      <trkpt lat="42.69743" lon="0.66825">
        <ele>2079.5</ele>
        <time>2018-08-08T16:09:15.000Z</time>
      </trkpt>
      <trkpt lat="42.69743" lon="0.66825">
        <ele>2079.5</ele>
        <time>2018-08-08T16:09:16.000Z</time>
      </trkpt>
      <trkpt lat="42.69743" lon="0.66825">
        <ele>2079.5</ele>
        <time>2018-08-08T16:09:17.000Z</time>
      </trkpt>
      <trkpt lat="42.69743" lon="0.66825">
        <ele>2079.5</ele>
        <time>2018-08-08T16:09:18.000Z</time>
      </trkpt>
      <trkpt lat="42.69743" lon="0.66825">
        <ele>2079.5</ele>
        <time>2018-08-08T16:09:19.000Z</time>
      </trkpt>
      <trkpt lat="42.69743" lon="0.66825">
        <ele>2079.5</ele>
        <time>2018-08-08T16:09:20.000Z</time>
      </trkpt>
      <trkpt lat="42.69743" lon="0.66825">
        <ele>2079.5</ele>
        <time>2018-08-08T16:09:21.000Z</time>
      </trkpt>
      <trkpt lat="42.69743" lon="0.66825">
        <ele>2079.5</ele>
        <time>2018-08-08T16:09:22.000Z</time>
      </trkpt>
      <trkpt lat="42.69743" lon="0.66825">
        <ele>2079.5</ele>
        <time>2018-08-08T16:09:23.000Z</time>
      </trkpt>
      <trkpt lat="42.69743" lon="0.66825">
        <ele>2079.5</ele>
        <time>2018-08-08T16:09:24.000Z</time>
      </trkpt>
      <trkpt lat="42.69743" lon="0.66825">
        <ele>2079.5</ele>
        <time>2018-08-08T16:09:25.000Z</time>
      </trkpt>
      <trkpt lat="42.69743" lon="0.66825">
        <ele>2079.5</ele>
        <time>2018-08-08T16:09:26.000Z</time>
      </trkpt>
      <trkpt lat="42.69743" lon="0.66825">
        <ele>2079.5</ele>
        <time>2018-08-08T16:09:27.000Z</time>
      </trkpt>
      <trkpt lat="42.69743" lon="0.66825">
        <ele>2079.5</ele>
        <time>2018-08-08T16:09:28.000Z</time>
      </trkpt>
      <trkpt lat="42.69743" lon="0.66825">
        <ele>2079.5</ele>
        <time>2018-08-08T16:09:29.000Z</time>
      </trkpt>
      <trkpt lat="42.69743" lon="0.66825">
        <ele>2079.5</ele>
        <time>2018-08-08T16:09:30.000Z</time>
      </trkpt>
      <trkpt lat="42.69743" lon="0.66825">
        <ele>2079.5</ele>
        <time>2018-08-08T16:09:31.000Z</time>
      </trkpt>
      <trkpt lat="42.69743" lon="0.66825">
        <ele>2079.5</ele>
        <time>2018-08-08T16:09:32.000Z</time>
      </trkpt>
      <trkpt lat="42.69743" lon="0.66825">
        <ele>2079.5</ele>
        <time>2018-08-08T16:09:33.000Z</time>
      </trkpt>
      <trkpt lat="42.69743" lon="0.66825">
        <ele>2079.5</ele>
        <time>2018-08-08T16:09:34.000Z</time>
      </trkpt>
      <trkpt lat="42.69743" lon="0.66825">
        <ele>2079.5</ele>
        <time>2018-08-08T16:09:35.000Z</time>
      </trkpt>
      <trkpt lat="42.69743" lon="0.66825">
        <ele>2079.5</ele>
        <time>2018-08-08T16:09:36.000Z</time>
      </trkpt>
      <trkpt lat="42.69743" lon="0.66825">
        <ele>2079.5</ele>
        <time>2018-08-08T16:09:37.000Z</time>
      </trkpt>
      <trkpt lat="42.69743" lon="0.66825">
        <ele>2079.5</ele>
        <time>2018-08-08T16:09:38.000Z</time>
      </trkpt>
      <trkpt lat="42.69743" lon="0.66825">
        <ele>2079.5</ele>
        <time>2018-08-08T16:09:39.000Z</time>
      </trkpt>
      <trkpt lat="42.69743" lon="0.66825">
        <ele>2079.5</ele>
        <time>2018-08-08T16:09:40.000Z</time>
      </trkpt>
      <trkpt lat="42.69743" lon="0.66825">
        <ele>2079.5</ele>
        <time>2018-08-08T16:09:41.000Z</time>
      </trkpt>
      <trkpt lat="42.69743" lon="0.66825">
        <ele>2079.5</ele>
        <time>2018-08-08T16:09:42.000Z</time>
      </trkpt>
      <trkpt lat="42.69743" lon="0.66825">
        <ele>2079.5</ele>
        <time>2018-08-08T16:09:43.000Z</time>
      </trkpt>
      <trkpt lat="42.69743" lon="0.66825">
        <ele>2079.5</ele>
        <time>2018-08-08T16:09:44.000Z</time>
      </trkpt>
      <trkpt lat="42.69743" lon="0.66825">
        <ele>2079.5</ele>
        <time>2018-08-08T16:09:45.000Z</time>
      </trkpt>
      <trkpt lat="42.69743" lon="0.66825">
        <ele>2079.5</ele>
        <time>2018-08-08T16:09:46.000Z</time>
      </trkpt>
      <trkpt lat="42.69743" lon="0.66825">
        <ele>2079.5</ele>
        <time>2018-08-08T16:09:47.000Z</time>
      </trkpt>
      <trkpt lat="42.69743" lon="0.66825">
        <ele>2079.5</ele>
        <time>2018-08-08T16:09:48.000Z</time>
      </trkpt>
      <trkpt lat="42.69743" lon="0.66825">
        <ele>2079.5</ele>
        <time>2018-08-08T16:09:49.000Z</time>
      </trkpt>
      <trkpt lat="42.69743" lon="0.66825">
        <ele>2079.5</ele>
        <time>2018-08-08T16:09:50.000Z</time>
      </trkpt>
      <trkpt lat="42.69743" lon="0.66825">
        <ele>2079.5</ele>
        <time>2018-08-08T16:09:51.000Z</time>
      </trkpt>
      <trkpt lat="42.69743" lon="0.66825">
        <ele>2079.5</ele>
        <time>2018-08-08T16:09:52.000Z</time>
      </trkpt>
      <trkpt lat="42.69743" lon="0.66825">
        <ele>2079.5</ele>
        <time>2018-08-08T16:09:53.000Z</time>
      </trkpt>
      <trkpt lat="42.69743" lon="0.66825">
        <ele>2079.5</ele>
        <time>2018-08-08T16:09:54.000Z</time>
      </trkpt>
      <trkpt lat="42.69743" lon="0.66825">
        <ele>2079.5</ele>
        <time>2018-08-08T16:09:55.000Z</time>
      </trkpt>
      <trkpt lat="42.69743" lon="0.66825">
        <ele>2079.5</ele>
        <time>2018-08-08T16:09:56.000Z</time>
      </trkpt>
      <trkpt lat="42.69743" lon="0.66825">
        <ele>2079.5</ele>
        <time>2018-08-08T16:09:57.000Z</time>
      </trkpt>
      <trkpt lat="42.69743" lon="0.66825">
        <ele>2079.5</ele>
        <time>2018-08-08T16:09:58.000Z</time>
      </trkpt>
      <trkpt lat="42.69743" lon="0.66825">
        <ele>2079.5</ele>
        <time>2018-08-08T16:09:59.000Z</time>
      </trkpt>
      <trkpt lat="42.69743" lon="0.66825">
        <ele>2079.5</ele>
        <time>2018-08-08T16:10:00.000Z</time>
      </trkpt>
      <trkpt lat="42.69743" lon="0.66825">
        <ele>2079.5</ele>
        <time>2018-08-08T16:10:01.000Z</time>
      </trkpt>
      <trkpt lat="42.69743" lon="0.66825">
        <ele>2079.5</ele>
        <time>2018-08-08T16:10:02.000Z</time>
      </trkpt>
      <trkpt lat="42.69743" lon="0.66825">
        <ele>2079.5</ele>
        <time>2018-08-08T16:10:03.000Z</time>
      </trkpt>
      <trkpt lat="42.69743" lon="0.66825">
        <ele>2079.5</ele>
        <time>2018-08-08T16:10:04.000Z</time>
      </trkpt>
      <trkpt lat="42.69743" lon="0.66825">
        <ele>2079.5</ele>
        <time>2018-08-08T16:10:05.000Z</time>
      </trkpt>
      <trkpt lat="42.69743" lon="0.66825">
        <ele>2079.5</ele>
        <time>2018-08-08T16:10:06.000Z</time>
      </trkpt>
      <trkpt lat="42.69743" lon="0.66825">
        <ele>2079.5</ele>
        <time>2018-08-08T16:10:07.000Z</time>
      </trkpt>
      <trkpt lat="42.69743" lon="0.66825">
        <ele>2079.5</ele>
        <time>2018-08-08T16:10:08.000Z</time>
      </trkpt>
      <trkpt lat="42.69743" lon="0.66825">
        <ele>2079.5</ele>
        <time>2018-08-08T16:10:09.000Z</time>
      </trkpt>
      <trkpt lat="42.69743" lon="0.66825">
        <ele>2079.5</ele>
        <time>2018-08-08T16:10:10.000Z</time>
      </trkpt>
      <trkpt lat="42.69743" lon="0.66825">
        <ele>2079.5</ele>
        <time>2018-08-08T16:10:11.000Z</time>
      </trkpt>
      <trkpt lat="42.69743" lon="0.66825">
        <ele>2079.5</ele>
        <time>2018-08-08T16:10:12.000Z</time>
      </trkpt>
      <trkpt lat="42.69743" lon="0.66825">
        <ele>2079.5</ele>
        <time>2018-08-08T16:10:13.000Z</time>
      </trkpt>
      <trkpt lat="42.69743" lon="0.66825">
        <ele>2079.5</ele>
        <time>2018-08-08T16:10:14.000Z</time>
      </trkpt>
      <trkpt lat="42.69743" lon="0.66825">
        <ele>2079.5</ele>
        <time>2018-08-08T16:10:15.000Z</time>
      </trkpt>
      <trkpt lat="42.69743" lon="0.66825">
        <ele>2079.5</ele>
        <time>2018-08-08T16:10:16.000Z</time>
      </trkpt>
      <trkpt lat="42.69743" lon="0.66825">
        <ele>2079.5</ele>
        <time>2018-08-08T16:10:17.000Z</time>
      </trkpt>
      <trkpt lat="42.69743" lon="0.66825">
        <ele>2079.5</ele>
        <time>2018-08-08T16:10:18.000Z</time>
      </trkpt>
      <trkpt lat="42.69743" lon="0.66825">
        <ele>2079.5</ele>
        <time>2018-08-08T16:10:19.000Z</time>
      </trkpt>
      <trkpt lat="42.69743" lon="0.66825">
        <ele>2079.5</ele>
        <time>2018-08-08T16:10:20.000Z</time>
      </trkpt>
      <trkpt lat="42.69743" lon="0.66825">
        <ele>2079.5</ele>
        <time>2018-08-08T16:10:21.000Z</time>
      </trkpt>
      <trkpt lat="42.69743" lon="0.66825">
        <ele>2079.5</ele>
        <time>2018-08-08T16:10:22.000Z</time>
      </trkpt>
      <trkpt lat="42.69743" lon="0.66825">
        <ele>2079.5</ele>
        <time>2018-08-08T16:10:23.000Z</time>
      </trkpt>
      <trkpt lat="42.69743" lon="0.66825">
        <ele>2079.5</ele>
        <time>2018-08-08T16:10:24.000Z</time>
      </trkpt>
      <trkpt lat="42.69743" lon="0.66825">
        <ele>2079.5</ele>
        <time>2018-08-08T16:10:25.000Z</time>
      </trkpt>
      <trkpt lat="42.69743" lon="0.66825">
        <ele>2079.5</ele>
        <time>2018-08-08T16:10:26.000Z</time>
      </trkpt>
      <trkpt lat="42.69743" lon="0.66825">
        <ele>2079.5</ele>
        <time>2018-08-08T16:10:27.000Z</time>
      </trkpt>
      <trkpt lat="42.69743" lon="0.66825">
        <ele>2079.5</ele>
        <time>2018-08-08T16:10:28.000Z</time>
      </trkpt>
      <trkpt lat="42.69743" lon="0.66825">
        <ele>2079.5</ele>
        <time>2018-08-08T16:10:29.000Z</time>
      </trkpt>
      <trkpt lat="42.69743" lon="0.66825">
        <ele>2079.5</ele>
        <time>2018-08-08T16:10:30.000Z</time>
      </trkpt>
      <trkpt lat="42.69743" lon="0.66825">
        <ele>2079.5</ele>
        <time>2018-08-08T16:10:31.000Z</time>
      </trkpt>
      <trkpt lat="42.69743" lon="0.66825">
        <ele>2079.5</ele>
        <time>2018-08-08T16:10:32.000Z</time>
      </trkpt>
      <trkpt lat="42.69743" lon="0.66825">
        <ele>2079.5</ele>
        <time>2018-08-08T16:10:33.000Z</time>
      </trkpt>
      <trkpt lat="42.69743" lon="0.66825">
        <ele>2079.5</ele>
        <time>2018-08-08T16:10:34.000Z</time>
      </trkpt>
      <trkpt lat="42.69743" lon="0.66825">
        <ele>2079.5</ele>
        <time>2018-08-08T16:10:35.000Z</time>
      </trkpt>
      <trkpt lat="42.69743" lon="0.66825">
        <ele>2079.5</ele>
        <time>2018-08-08T16:10:36.000Z</time>
      </trkpt>
      <trkpt lat="42.69743" lon="0.66825">
        <ele>2079.5</ele>
        <time>2018-08-08T16:10:37.000Z</time>
      </trkpt>
      <trkpt lat="42.69743" lon="0.66825">
        <ele>2079.5</ele>
        <time>2018-08-08T16:10:38.000Z</time>
      </trkpt>
      <trkpt lat="42.69743" lon="0.66825">
        <ele>2079.5</ele>
        <time>2018-08-08T16:10:39.000Z</time>
      </trkpt>
      <trkpt lat="42.69743" lon="0.66825">
        <ele>2079.5</ele>
        <time>2018-08-08T16:10:40.000Z</time>
      </trkpt>
      <trkpt lat="42.69743" lon="0.66825">
        <ele>2079.5</ele>
        <time>2018-08-08T16:10:41.000Z</time>
      </trkpt>
      <trkpt lat="42.69743" lon="0.66825">
        <ele>2079.5</ele>
        <time>2018-08-08T16:10:42.000Z</time>
      </trkpt>
      <trkpt lat="42.69743" lon="0.66825">
        <ele>2079.5</ele>
        <time>2018-08-08T16:10:43.000Z</time>
      </trkpt>
      <trkpt lat="42.69743" lon="0.66825">
        <ele>2079.5</ele>
        <time>2018-08-08T16:10:44.000Z</time>
      </trkpt>
      <trkpt lat="42.69743" lon="0.66825">
        <ele>2079.5</ele>
        <time>2018-08-08T16:10:45.000Z</time>
      </trkpt>
      <trkpt lat="42.69743" lon="0.66825">
        <ele>2079.5</ele>
        <time>2018-08-08T16:10:46.000Z</time>
      </trkpt>
      <trkpt lat="42.69743" lon="0.66825">
        <ele>2079.5</ele>
        <time>2018-08-08T16:10:47.000Z</time>
      </trkpt>
      <trkpt lat="42.69743" lon="0.66825">
        <ele>2079.5</ele>
        <time>2018-08-08T16:10:48.000Z</time>
      </trkpt>
      <trkpt lat="42.69743" lon="0.66825">
        <ele>2079.5</ele>
        <time>2018-08-08T16:10:49.000Z</time>
      </trkpt>
      <trkpt lat="42.69743" lon="0.66825">
        <ele>2079.5</ele>
        <time>2018-08-08T16:10:50.000Z</time>
      </trkpt>
      <trkpt lat="42.69743" lon="0.66825">
        <ele>2079.5</ele>
        <time>2018-08-08T16:10:51.000Z</time>
      </trkpt>
      <trkpt lat="42.69743" lon="0.66825">
        <ele>2079.5</ele>
        <time>2018-08-08T16:10:52.000Z</time>
      </trkpt>
      <trkpt lat="42.69743" lon="0.66825">
        <ele>2079.5</ele>
        <time>2018-08-08T16:10:53.000Z</time>
      </trkpt>
      <trkpt lat="42.69743" lon="0.66825">
        <ele>2079.5</ele>
        <time>2018-08-08T16:10:54.000Z</time>
      </trkpt>
      <trkpt lat="42.69743" lon="0.66825">
        <ele>2079.5</ele>
        <time>2018-08-08T16:10:55.000Z</time>
      </trkpt>
      <trkpt lat="42.69743" lon="0.66825">
        <ele>2079.5</ele>
        <time>2018-08-08T16:10:56.000Z</time>
      </trkpt>
      <trkpt lat="42.69743" lon="0.66825">
        <ele>2079.5</ele>
        <time>2018-08-08T16:10:57.000Z</time>
      </trkpt>
      <trkpt lat="42.69743" lon="0.66825">
        <ele>2079.5</ele>
        <time>2018-08-08T16:10:58.000Z</time>
      </trkpt>
      <trkpt lat="42.69743" lon="0.66825">
        <ele>2079.5</ele>
        <time>2018-08-08T16:10:59.000Z</time>
      </trkpt>
      <trkpt lat="42.69743" lon="0.66825">
        <ele>2079.5</ele>
        <time>2018-08-08T16:11:00.000Z</time>
      </trkpt>
      <trkpt lat="42.69743" lon="0.66825">
        <ele>2079.5</ele>
        <time>2018-08-08T16:11:01.000Z</time>
      </trkpt>
      <trkpt lat="42.69743" lon="0.66825">
        <ele>2079.5</ele>
        <time>2018-08-08T16:11:02.000Z</time>
      </trkpt>
      <trkpt lat="42.69743" lon="0.66825">
        <ele>2079.5</ele>
        <time>2018-08-08T16:11:03.000Z</time>
      </trkpt>
      <trkpt lat="42.69743" lon="0.66825">
        <ele>2079.5</ele>
        <time>2018-08-08T16:11:04.000Z</time>
      </trkpt>
      <trkpt lat="42.69743" lon="0.66825">
        <ele>2079.5</ele>
        <time>2018-08-08T16:11:05.000Z</time>
      </trkpt>
      <trkpt lat="42.69743" lon="0.66825">
        <ele>2079.5</ele>
        <time>2018-08-08T16:11:06.000Z</time>
      </trkpt>
      <trkpt lat="42.69743" lon="0.66825">
        <ele>2079.5</ele>
        <time>2018-08-08T16:11:07.000Z</time>
      </trkpt>
      <trkpt lat="42.69743" lon="0.66825">
        <ele>2079.5</ele>
        <time>2018-08-08T16:11:08.000Z</time>
      </trkpt>
      <trkpt lat="42.69743" lon="0.66825">
        <ele>2079.5</ele>
        <time>2018-08-08T16:11:09.000Z</time>
      </trkpt>
      <trkpt lat="42.69743" lon="0.66825">
        <ele>2079.5</ele>
        <time>2018-08-08T16:11:10.000Z</time>
      </trkpt>
      <trkpt lat="42.69743" lon="0.66825">
        <ele>2079.5</ele>
        <time>2018-08-08T16:11:11.000Z</time>
      </trkpt>
      <trkpt lat="42.69743" lon="0.66825">
        <ele>2079.5</ele>
        <time>2018-08-08T16:11:12.000Z</time>
      </trkpt>
      <trkpt lat="42.69743" lon="0.66825">
        <ele>2079.5</ele>
        <time>2018-08-08T16:11:13.000Z</time>
      </trkpt>
      <trkpt lat="42.69743" lon="0.66825">
        <ele>2079.5</ele>
        <time>2018-08-08T16:11:14.000Z</time>
      </trkpt>
      <trkpt lat="42.69743" lon="0.66825">
        <ele>2079.5</ele>
        <time>2018-08-08T16:11:15.000Z</time>
      </trkpt>
      <trkpt lat="42.69743" lon="0.66825">
        <ele>2079.5</ele>
        <time>2018-08-08T16:11:16.000Z</time>
      </trkpt>
      <trkpt lat="42.69743" lon="0.66825">
        <ele>2079.5</ele>
        <time>2018-08-08T16:11:17.000Z</time>
      </trkpt>
      <trkpt lat="42.69743" lon="0.66825">
        <ele>2079.5</ele>
        <time>2018-08-08T16:11:18.000Z</time>
      </trkpt>
      <trkpt lat="42.69743" lon="0.66825">
        <ele>2079.5</ele>
        <time>2018-08-08T16:11:19.000Z</time>
      </trkpt>
      <trkpt lat="42.69743" lon="0.66825">
        <ele>2079.5</ele>
        <time>2018-08-08T16:11:20.000Z</time>
      </trkpt>
      <trkpt lat="42.69743" lon="0.66825">
        <ele>2079.5</ele>
        <time>2018-08-08T16:11:21.000Z</time>
      </trkpt>
      <trkpt lat="42.69743" lon="0.66825">
        <ele>2079.5</ele>
        <time>2018-08-08T16:11:22.000Z</time>
      </trkpt>
      <trkpt lat="42.69743" lon="0.66825">
        <ele>2079.5</ele>
        <time>2018-08-08T16:11:23.000Z</time>
      </trkpt>
      <trkpt lat="42.69743" lon="0.66825">
        <ele>2079.5</ele>
        <time>2018-08-08T16:11:24.000Z</time>
      </trkpt>
      <trkpt lat="42.69743" lon="0.66825">
        <ele>2079.5</ele>
        <time>2018-08-08T16:11:25.000Z</time>
      </trkpt>
      <trkpt lat="42.69743" lon="0.66825">
        <ele>2079.5</ele>
        <time>2018-08-08T16:11:26.000Z</time>
      </trkpt>
      <trkpt lat="42.69743" lon="0.66825">
        <ele>2079.5</ele>
        <time>2018-08-08T16:11:27.000Z</time>
      </trkpt>
      <trkpt lat="42.69743" lon="0.66825">
        <ele>2079.5</ele>
        <time>2018-08-08T16:11:28.000Z</time>
      </trkpt>
      <trkpt lat="42.69743" lon="0.66825">
        <ele>2079.5</ele>
        <time>2018-08-08T16:11:29.000Z</time>
      </trkpt>
      <trkpt lat="42.69743" lon="0.66825">
        <ele>2079.5</ele>
        <time>2018-08-08T16:11:30.000Z</time>
      </trkpt>
      <trkpt lat="42.69743" lon="0.66825">
        <ele>2079.5</ele>
        <time>2018-08-08T16:11:31.000Z</time>
      </trkpt>
      <trkpt lat="42.69743" lon="0.66825">
        <ele>2079.5</ele>
        <time>2018-08-08T16:11:32.000Z</time>
      </trkpt>
      <trkpt lat="42.69743" lon="0.66825">
        <ele>2079.5</ele>
        <time>2018-08-08T16:11:33.000Z</time>
      </trkpt>
      <trkpt lat="42.69743" lon="0.66825">
        <ele>2079.5</ele>
        <time>2018-08-08T16:11:34.000Z</time>
      </trkpt>
      <trkpt lat="42.69743" lon="0.66825">
        <ele>2079.5</ele>
        <time>2018-08-08T16:11:35.000Z</time>
      </trkpt>
      <trkpt lat="42.69743" lon="0.66825">
        <ele>2079.5</ele>
        <time>2018-08-08T16:11:36.000Z</time>
      </trkpt>
      <trkpt lat="42.69743" lon="0.66825">
        <ele>2079.5</ele>
        <time>2018-08-08T16:11:37.000Z</time>
      </trkpt>
      <trkpt lat="42.69743" lon="0.66825">
        <ele>2079.5</ele>
        <time>2018-08-08T16:11:38.000Z</time>
      </trkpt>
      <trkpt lat="42.69743" lon="0.66825">
        <ele>2079.5</ele>
        <time>2018-08-08T16:11:39.000Z</time>
      </trkpt>
      <trkpt lat="42.69743" lon="0.66825">
        <ele>2079.5</ele>
        <time>2018-08-08T16:11:40.000Z</time>
      </trkpt>
      <trkpt lat="42.69743" lon="0.66825">
        <ele>2079.5</ele>
        <time>2018-08-08T16:11:41.000Z</time>
      </trkpt>
      <trkpt lat="42.69743" lon="0.66825">
        <ele>2079.5</ele>
        <time>2018-08-08T16:11:42.000Z</time>
      </trkpt>
      <trkpt lat="42.69743" lon="0.66825">
        <ele>2079.5</ele>
        <time>2018-08-08T16:11:43.000Z</time>
      </trkpt>
      <trkpt lat="42.69743" lon="0.66825">
        <ele>2079.5</ele>
        <time>2018-08-08T16:11:44.000Z</time>
      </trkpt>
      <trkpt lat="42.69743" lon="0.66825">
        <ele>2079.5</ele>
        <time>2018-08-08T16:11:45.000Z</time>
      </trkpt>
      <trkpt lat="42.69743" lon="0.66825">
        <ele>2079.5</ele>
        <time>2018-08-08T16:11:46.000Z</time>
      </trkpt>
      <trkpt lat="42.69743" lon="0.66825">
        <ele>2079.5</ele>
        <time>2018-08-08T16:11:47.000Z</time>
      </trkpt>
      <trkpt lat="42.69743" lon="0.66825">
        <ele>2079.5</ele>
        <time>2018-08-08T16:11:48.000Z</time>
      </trkpt>
      <trkpt lat="42.69743" lon="0.66825">
        <ele>2079.5</ele>
        <time>2018-08-08T16:11:49.000Z</time>
      </trkpt>
      <trkpt lat="42.69743" lon="0.66825">
        <ele>2079.5</ele>
        <time>2018-08-08T16:11:50.000Z</time>
      </trkpt>
      <trkpt lat="42.69743" lon="0.66825">
        <ele>2079.5</ele>
        <time>2018-08-08T16:11:51.000Z</time>
      </trkpt>
      <trkpt lat="42.69743" lon="0.66825">
        <ele>2079.5</ele>
        <time>2018-08-08T16:11:52.000Z</time>
      </trkpt>
      <trkpt lat="42.69743" lon="0.66825">
        <ele>2079.5</ele>
        <time>2018-08-08T16:11:53.000Z</time>
      </trkpt>
      <trkpt lat="42.69743" lon="0.66825">
        <ele>2079.5</ele>
        <time>2018-08-08T16:11:54.000Z</time>
      </trkpt>
      <trkpt lat="42.69743" lon="0.66825">
        <ele>2079.5</ele>
        <time>2018-08-08T16:11:55.000Z</time>
      </trkpt>
      <trkpt lat="42.69743" lon="0.66825">
        <ele>2079.5</ele>
        <time>2018-08-08T16:11:56.000Z</time>
      </trkpt>
      <trkpt lat="42.69743" lon="0.66825">
        <ele>2079.5</ele>
        <time>2018-08-08T16:11:57.000Z</time>
      </trkpt>
      <trkpt lat="42.69743" lon="0.66825">
        <ele>2079.5</ele>
        <time>2018-08-08T16:11:58.000Z</time>
      </trkpt>
      <trkpt lat="42.69743" lon="0.66825">
        <ele>2079.5</ele>
        <time>2018-08-08T16:11:59.000Z</time>
      </trkpt>
      <trkpt lat="42.69743" lon="0.66825">
        <ele>2079.5</ele>
        <time>2018-08-08T16:12:00.000Z</time>
      </trkpt>
      <trkpt lat="42.69743" lon="0.66825">
        <ele>2079.5</ele>
        <time>2018-08-08T16:12:01.000Z</time>
      </trkpt>
      <trkpt lat="42.69743" lon="0.66825">
        <ele>2079.5</ele>
        <time>2018-08-08T16:12:02.000Z</time>
      </trkpt>
      <trkpt lat="42.69743" lon="0.66825">
        <ele>2079.5</ele>
        <time>2018-08-08T16:12:03.000Z</time>
      </trkpt>
      <trkpt lat="42.69743" lon="0.66825">
        <ele>2079.5</ele>
        <time>2018-08-08T16:12:04.000Z</time>
      </trkpt>
      <trkpt lat="42.69743" lon="0.66825">
        <ele>2079.5</ele>
        <time>2018-08-08T16:12:05.000Z</time>
      </trkpt>
      <trkpt lat="42.69743" lon="0.66825">
        <ele>2079.5</ele>
        <time>2018-08-08T16:12:06.000Z</time>
      </trkpt>
      <trkpt lat="42.69743" lon="0.66825">
        <ele>2079.5</ele>
        <time>2018-08-08T16:12:07.000Z</time>
      </trkpt>
      <trkpt lat="42.69743" lon="0.66825">
        <ele>2079.5</ele>
        <time>2018-08-08T16:12:08.000Z</time>
      </trkpt>
      <trkpt lat="42.69743" lon="0.66825">
        <ele>2079.5</ele>
        <time>2018-08-08T16:12:09.000Z</time>
      </trkpt>
      <trkpt lat="42.69743" lon="0.66825">
        <ele>2079.5</ele>
        <time>2018-08-08T16:12:10.000Z</time>
      </trkpt>
      <trkpt lat="42.69743" lon="0.66825">
        <ele>2079.5</ele>
        <time>2018-08-08T16:12:11.000Z</time>
      </trkpt>
      <trkpt lat="42.69743" lon="0.66825">
        <ele>2079.5</ele>
        <time>2018-08-08T16:12:12.000Z</time>
      </trkpt>
      <trkpt lat="42.69743" lon="0.66825">
        <ele>2079.5</ele>
        <time>2018-08-08T16:12:13.000Z</time>
      </trkpt>
      <trkpt lat="42.69743" lon="0.66825">
        <ele>2079.5</ele>
        <time>2018-08-08T16:12:14.000Z</time>
      </trkpt>
      <trkpt lat="42.69743" lon="0.66825">
        <ele>2079.5</ele>
        <time>2018-08-08T16:12:15.000Z</time>
      </trkpt>
      <trkpt lat="42.69743" lon="0.66825">
        <ele>2079.5</ele>
        <time>2018-08-08T16:12:16.000Z</time>
      </trkpt>
      <trkpt lat="42.69743" lon="0.66825">
        <ele>2079.5</ele>
        <time>2018-08-08T16:12:17.000Z</time>
      </trkpt>
      <trkpt lat="42.69743" lon="0.66825">
        <ele>2079.5</ele>
        <time>2018-08-08T16:12:18.000Z</time>
      </trkpt>
      <trkpt lat="42.69743" lon="0.66825">
        <ele>2079.5</ele>
        <time>2018-08-08T16:12:19.000Z</time>
      </trkpt>
      <trkpt lat="42.69743" lon="0.66825">
        <ele>2079.5</ele>
        <time>2018-08-08T16:12:20.000Z</time>
      </trkpt>
      <trkpt lat="42.69743" lon="0.66825">
        <ele>2079.5</ele>
        <time>2018-08-08T16:12:21.000Z</time>
      </trkpt>
      <trkpt lat="42.69743" lon="0.66825">
        <ele>2079.5</ele>
        <time>2018-08-08T16:12:22.000Z</time>
      </trkpt>
      <trkpt lat="42.69743" lon="0.66825">
        <ele>2079.5</ele>
        <time>2018-08-08T16:12:23.000Z</time>
      </trkpt>
      <trkpt lat="42.69743" lon="0.66825">
        <ele>2079.5</ele>
        <time>2018-08-08T16:12:24.000Z</time>
      </trkpt>
      <trkpt lat="42.69743" lon="0.66825">
        <ele>2079.5</ele>
        <time>2018-08-08T16:12:25.000Z</time>
      </trkpt>
      <trkpt lat="42.69743" lon="0.66825">
        <ele>2079.5</ele>
        <time>2018-08-08T16:12:26.000Z</time>
      </trkpt>
      <trkpt lat="42.69743" lon="0.66825">
        <ele>2079.5</ele>
        <time>2018-08-08T16:12:27.000Z</time>
      </trkpt>
      <trkpt lat="42.69743" lon="0.66825">
        <ele>2079.5</ele>
        <time>2018-08-08T16:12:28.000Z</time>
      </trkpt>
      <trkpt lat="42.69743" lon="0.66825">
        <ele>2079.5</ele>
        <time>2018-08-08T16:12:29.000Z</time>
      </trkpt>
      <trkpt lat="42.69743" lon="0.66825">
        <ele>2079.5</ele>
        <time>2018-08-08T16:12:30.000Z</time>
      </trkpt>
      <trkpt lat="42.69743" lon="0.66825">
        <ele>2079.5</ele>
        <time>2018-08-08T16:12:31.000Z</time>
      </trkpt>
      <trkpt lat="42.69743" lon="0.66825">
        <ele>2079.5</ele>
        <time>2018-08-08T16:12:32.000Z</time>
      </trkpt>
      <trkpt lat="42.69743" lon="0.66825">
        <ele>2079.5</ele>
        <time>2018-08-08T16:12:33.000Z</time>
      </trkpt>
      <trkpt lat="42.69743" lon="0.66825">
        <ele>2079.5</ele>
        <time>2018-08-08T16:12:34.000Z</time>
      </trkpt>
      <trkpt lat="42.69743" lon="0.66825">
        <ele>2079.5</ele>
        <time>2018-08-08T16:12:35.000Z</time>
      </trkpt>
      <trkpt lat="42.69743" lon="0.66825">
        <ele>2079.5</ele>
        <time>2018-08-08T16:12:36.000Z</time>
      </trkpt>
      <trkpt lat="42.69743" lon="0.66825">
        <ele>2079.5</ele>
        <time>2018-08-08T16:12:37.000Z</time>
      </trkpt>
      <trkpt lat="42.69743" lon="0.66825">
        <ele>2079.5</ele>
        <time>2018-08-08T16:12:38.000Z</time>
      </trkpt>
      <trkpt lat="42.69743" lon="0.66825">
        <ele>2079.5</ele>
        <time>2018-08-08T16:12:39.000Z</time>
      </trkpt>
      <trkpt lat="42.69743" lon="0.66825">
        <ele>2079.5</ele>
        <time>2018-08-08T16:12:40.000Z</time>
      </trkpt>
      <trkpt lat="42.69743" lon="0.66825">
        <ele>2079.5</ele>
        <time>2018-08-08T16:12:41.000Z</time>
      </trkpt>
      <trkpt lat="42.69743" lon="0.66825">
        <ele>2079.5</ele>
        <time>2018-08-08T16:12:42.000Z</time>
      </trkpt>
      <trkpt lat="42.69743" lon="0.66825">
        <ele>2079.5</ele>
        <time>2018-08-08T16:12:43.000Z</time>
      </trkpt>
      <trkpt lat="42.69743" lon="0.66825">
        <ele>2079.5</ele>
        <time>2018-08-08T16:12:44.000Z</time>
      </trkpt>
      <trkpt lat="42.69743" lon="0.66825">
        <ele>2079.5</ele>
        <time>2018-08-08T16:12:45.000Z</time>
      </trkpt>
      <trkpt lat="42.69743" lon="0.66825">
        <ele>2079.5</ele>
        <time>2018-08-08T16:12:46.000Z</time>
      </trkpt>
      <trkpt lat="42.69743" lon="0.66825">
        <ele>2079.5</ele>
        <time>2018-08-08T16:12:47.000Z</time>
      </trkpt>
      <trkpt lat="42.69743" lon="0.66825">
        <ele>2079.5</ele>
        <time>2018-08-08T16:12:48.000Z</time>
      </trkpt>
      <trkpt lat="42.69743" lon="0.66825">
        <ele>2079.5</ele>
        <time>2018-08-08T16:12:49.000Z</time>
      </trkpt>
      <trkpt lat="42.69743" lon="0.66825">
        <ele>2079.5</ele>
        <time>2018-08-08T16:12:50.000Z</time>
      </trkpt>
      <trkpt lat="42.69743" lon="0.66825">
        <ele>2079.5</ele>
        <time>2018-08-08T16:12:51.000Z</time>
      </trkpt>
      <trkpt lat="42.69743" lon="0.66825">
        <ele>2079.5</ele>
        <time>2018-08-08T16:12:52.000Z</time>
      </trkpt>
      <trkpt lat="42.69743" lon="0.66825">
        <ele>2079.5</ele>
        <time>2018-08-08T16:12:53.000Z</time>
      </trkpt>
      <trkpt lat="42.69743" lon="0.66825">
        <ele>2079.5</ele>
        <time>2018-08-08T16:12:54.000Z</time>
      </trkpt>
      <trkpt lat="42.69743" lon="0.66825">
        <ele>2079.5</ele>
        <time>2018-08-08T16:12:55.000Z</time>
      </trkpt>
      <trkpt lat="42.69743" lon="0.66825">
        <ele>2079.5</ele>
        <time>2018-08-08T16:12:56.000Z</time>
      </trkpt>
      <trkpt lat="42.69743" lon="0.66825">
        <ele>2079.5</ele>
        <time>2018-08-08T16:12:57.000Z</time>
      </trkpt>
      <trkpt lat="42.69743" lon="0.66825">
        <ele>2079.5</ele>
        <time>2018-08-08T16:12:58.000Z</time>
      </trkpt>
      <trkpt lat="42.69743" lon="0.66825">
        <ele>2079.5</ele>
        <time>2018-08-08T16:12:59.000Z</time>
      </trkpt>
      <trkpt lat="42.69743" lon="0.66825">
        <ele>2079.5</ele>
        <time>2018-08-08T16:13:00.000Z</time>
      </trkpt>
      <trkpt lat="42.69743" lon="0.66825">
        <ele>2079.5</ele>
        <time>2018-08-08T16:13:01.000Z</time>
      </trkpt>
      <trkpt lat="42.69743" lon="0.66825">
        <ele>2079.5</ele>
        <time>2018-08-08T16:13:02.000Z</time>
      </trkpt>
      <trkpt lat="42.69743" lon="0.66825">
        <ele>2079.5</ele>
        <time>2018-08-08T16:13:03.000Z</time>
      </trkpt>
      <trkpt lat="42.69743" lon="0.66825">
        <ele>2079.5</ele>
        <time>2018-08-08T16:13:04.000Z</time>
      </trkpt>
      <trkpt lat="42.69743" lon="0.66825">
        <ele>2079.5</ele>
        <time>2018-08-08T16:13:05.000Z</time>
      </trkpt>
      <trkpt lat="42.69743" lon="0.66825">
        <ele>2079.5</ele>
        <time>2018-08-08T16:13:06.000Z</time>
      </trkpt>
      <trkpt lat="42.69743" lon="0.66825">
        <ele>2079.5</ele>
        <time>2018-08-08T16:13:07.000Z</time>
      </trkpt>
      <trkpt lat="42.69743" lon="0.66825">
        <ele>2079.5</ele>
        <time>2018-08-08T16:13:08.000Z</time>
      </trkpt>
      <trkpt lat="42.69743" lon="0.66825">
        <ele>2079.5</ele>
        <time>2018-08-08T16:13:09.000Z</time>
      </trkpt>
      <trkpt lat="42.69743" lon="0.66825">
        <ele>2079.5</ele>
        <time>2018-08-08T16:13:10.000Z</time>
      </trkpt>
      <trkpt lat="42.69743" lon="0.66825">
        <ele>2079.5</ele>
        <time>2018-08-08T16:13:11.000Z</time>
      </trkpt>
      <trkpt lat="42.69743" lon="0.66825">
        <ele>2079.5</ele>
        <time>2018-08-08T16:13:12.000Z</time>
      </trkpt>
      <trkpt lat="42.69743" lon="0.66825">
        <ele>2079.5</ele>
        <time>2018-08-08T16:13:13.000Z</time>
      </trkpt>
      <trkpt lat="42.69743" lon="0.66825">
        <ele>2079.5</ele>
        <time>2018-08-08T16:13:14.000Z</time>
      </trkpt>
      <trkpt lat="42.69743" lon="0.66825">
        <ele>2079.5</ele>
        <time>2018-08-08T16:13:15.000Z</time>
      </trkpt>
      <trkpt lat="42.69743" lon="0.66825">
        <ele>2079.5</ele>
        <time>2018-08-08T16:13:16.000Z</time>
      </trkpt>
      <trkpt lat="42.69743" lon="0.66825">
        <ele>2079.5</ele>
        <time>2018-08-08T16:13:17.000Z</time>
      </trkpt>
      <trkpt lat="42.69743" lon="0.66825">
        <ele>2079.5</ele>
        <time>2018-08-08T16:13:18.000Z</time>
      </trkpt>
      <trkpt lat="42.69743" lon="0.66825">
        <ele>2079.5</ele>
        <time>2018-08-08T16:13:19.000Z</time>
      </trkpt>
      <trkpt lat="42.69743" lon="0.66825">
        <ele>2079.5</ele>
        <time>2018-08-08T16:13:20.000Z</time>
      </trkpt>
      <trkpt lat="42.69743" lon="0.66825">
        <ele>2079.5</ele>
        <time>2018-08-08T16:13:21.000Z</time>
      </trkpt>
      <trkpt lat="42.69743" lon="0.66825">
        <ele>2079.5</ele>
        <time>2018-08-08T16:13:22.000Z</time>
      </trkpt>
      <trkpt lat="42.69743" lon="0.66825">
        <ele>2079.5</ele>
        <time>2018-08-08T16:13:23.000Z</time>
      </trkpt>
      <trkpt lat="42.69743" lon="0.66825">
        <ele>2079.5</ele>
        <time>2018-08-08T16:13:24.000Z</time>
      </trkpt>
      <trkpt lat="42.69743" lon="0.66825">
        <ele>2079.5</ele>
        <time>2018-08-08T16:13:25.000Z</time>
      </trkpt>
      <trkpt lat="42.69743" lon="0.66825">
        <ele>2079.5</ele>
        <time>2018-08-08T16:13:26.000Z</time>
      </trkpt>
      <trkpt lat="42.69743" lon="0.66825">
        <ele>2079.5</ele>
        <time>2018-08-08T16:13:27.000Z</time>
      </trkpt>
      <trkpt lat="42.69743" lon="0.66825">
        <ele>2079.5</ele>
        <time>2018-08-08T16:13:28.000Z</time>
      </trkpt>
      <trkpt lat="42.69743" lon="0.66825">
        <ele>2079.5</ele>
        <time>2018-08-08T16:13:29.000Z</time>
      </trkpt>
      <trkpt lat="42.69743" lon="0.66825">
        <ele>2079.5</ele>
        <time>2018-08-08T16:13:30.000Z</time>
      </trkpt>
      <trkpt lat="42.69743" lon="0.66825">
        <ele>2079.5</ele>
        <time>2018-08-08T16:13:31.000Z</time>
      </trkpt>
      <trkpt lat="42.69743" lon="0.66825">
        <ele>2079.5</ele>
        <time>2018-08-08T16:13:32.000Z</time>
      </trkpt>
      <trkpt lat="42.69743" lon="0.66825">
        <ele>2079.5</ele>
        <time>2018-08-08T16:13:33.000Z</time>
      </trkpt>
      <trkpt lat="42.69743" lon="0.66825">
        <ele>2079.5</ele>
        <time>2018-08-08T16:13:34.000Z</time>
      </trkpt>
      <trkpt lat="42.69743" lon="0.66825">
        <ele>2079.5</ele>
        <time>2018-08-08T16:13:35.000Z</time>
      </trkpt>
      <trkpt lat="42.69743" lon="0.66825">
        <ele>2079.5</ele>
        <time>2018-08-08T16:13:36.000Z</time>
      </trkpt>
      <trkpt lat="42.69743" lon="0.66825">
        <ele>2079.5</ele>
        <time>2018-08-08T16:13:37.000Z</time>
      </trkpt>
      <trkpt lat="42.69743" lon="0.66825">
        <ele>2079.5</ele>
        <time>2018-08-08T16:13:38.000Z</time>
      </trkpt>
      <trkpt lat="42.69743" lon="0.66825">
        <ele>2079.5</ele>
        <time>2018-08-08T16:13:39.000Z</time>
      </trkpt>
      <trkpt lat="42.69743" lon="0.66825">
        <ele>2079.5</ele>
        <time>2018-08-08T16:13:40.000Z</time>
      </trkpt>
      <trkpt lat="42.69743" lon="0.66825">
        <ele>2079.5</ele>
        <time>2018-08-08T16:13:41.000Z</time>
      </trkpt>
      <trkpt lat="42.69743" lon="0.66825">
        <ele>2079.5</ele>
        <time>2018-08-08T16:13:42.000Z</time>
      </trkpt>
      <trkpt lat="42.69743" lon="0.66825">
        <ele>2079.5</ele>
        <time>2018-08-08T16:13:43.000Z</time>
      </trkpt>
      <trkpt lat="42.69743" lon="0.66825">
        <ele>2079.5</ele>
        <time>2018-08-08T16:13:44.000Z</time>
      </trkpt>
      <trkpt lat="42.69743" lon="0.66825">
        <ele>2079.5</ele>
        <time>2018-08-08T16:13:45.000Z</time>
      </trkpt>
      <trkpt lat="42.69743" lon="0.66825">
        <ele>2079.5</ele>
        <time>2018-08-08T16:13:46.000Z</time>
      </trkpt>
      <trkpt lat="42.69743" lon="0.66825">
        <ele>2079.5</ele>
        <time>2018-08-08T16:13:47.000Z</time>
      </trkpt>
      <trkpt lat="42.69743" lon="0.66825">
        <ele>2079.5</ele>
        <time>2018-08-08T16:13:48.000Z</time>
      </trkpt>
      <trkpt lat="42.69743" lon="0.66825">
        <ele>2079.5</ele>
        <time>2018-08-08T16:13:49.000Z</time>
      </trkpt>
      <trkpt lat="42.69743" lon="0.66825">
        <ele>2079.5</ele>
        <time>2018-08-08T16:13:50.000Z</time>
      </trkpt>
      <trkpt lat="42.69743" lon="0.66825">
        <ele>2079.5</ele>
        <time>2018-08-08T16:13:51.000Z</time>
      </trkpt>
      <trkpt lat="42.69743" lon="0.66825">
        <ele>2079.5</ele>
        <time>2018-08-08T16:13:52.000Z</time>
      </trkpt>
      <trkpt lat="42.69743" lon="0.66825">
        <ele>2079.5</ele>
        <time>2018-08-08T16:13:53.000Z</time>
      </trkpt>
      <trkpt lat="42.69743" lon="0.66825">
        <ele>2079.5</ele>
        <time>2018-08-08T16:13:54.000Z</time>
      </trkpt>
      <trkpt lat="42.69743" lon="0.66825">
        <ele>2079.5</ele>
        <time>2018-08-08T16:13:55.000Z</time>
      </trkpt>
      <trkpt lat="42.69743" lon="0.66825">
        <ele>2079.5</ele>
        <time>2018-08-08T16:13:56.000Z</time>
      </trkpt>
      <trkpt lat="42.69743" lon="0.66825">
        <ele>2079.5</ele>
        <time>2018-08-08T16:13:57.000Z</time>
      </trkpt>
      <trkpt lat="42.69743" lon="0.66825">
        <ele>2079.5</ele>
        <time>2018-08-08T16:13:58.000Z</time>
      </trkpt>
      <trkpt lat="42.69743" lon="0.66825">
        <ele>2079.5</ele>
        <time>2018-08-08T16:13:59.000Z</time>
      </trkpt>
      <trkpt lat="42.69743" lon="0.66825">
        <ele>2079.5</ele>
        <time>2018-08-08T16:14:00.000Z</time>
      </trkpt>
      <trkpt lat="42.69743" lon="0.66825">
        <ele>2079.5</ele>
        <time>2018-08-08T16:14:01.000Z</time>
      </trkpt>
      <trkpt lat="42.69743" lon="0.66825">
        <ele>2079.5</ele>
        <time>2018-08-08T16:14:02.000Z</time>
      </trkpt>
      <trkpt lat="42.69743" lon="0.66825">
        <ele>2079.5</ele>
        <time>2018-08-08T16:14:03.000Z</time>
      </trkpt>
      <trkpt lat="42.69743" lon="0.66825">
        <ele>2079.5</ele>
        <time>2018-08-08T16:14:04.000Z</time>
      </trkpt>
      <trkpt lat="42.69743" lon="0.66825">
        <ele>2079.5</ele>
        <time>2018-08-08T16:14:05.000Z</time>
      </trkpt>
      <trkpt lat="42.69743" lon="0.66825">
        <ele>2079.5</ele>
        <time>2018-08-08T16:14:06.000Z</time>
      </trkpt>
      <trkpt lat="42.69743" lon="0.66825">
        <ele>2079.5</ele>
        <time>2018-08-08T16:14:07.000Z</time>
      </trkpt>
      <trkpt lat="42.69743" lon="0.66825">
        <ele>2079.5</ele>
        <time>2018-08-08T16:14:08.000Z</time>
      </trkpt>
      <trkpt lat="42.69743" lon="0.66825">
        <ele>2079.5</ele>
        <time>2018-08-08T16:14:09.000Z</time>
      </trkpt>
      <trkpt lat="42.69743" lon="0.66825">
        <ele>2079.5</ele>
        <time>2018-08-08T16:14:10.000Z</time>
      </trkpt>
      <trkpt lat="42.69743" lon="0.66825">
        <ele>2079.5</ele>
        <time>2018-08-08T16:14:11.000Z</time>
      </trkpt>
      <trkpt lat="42.69743" lon="0.66825">
        <ele>2079.5</ele>
        <time>2018-08-08T16:14:12.000Z</time>
      </trkpt>
      <trkpt lat="42.69743" lon="0.66825">
        <ele>2079.5</ele>
        <time>2018-08-08T16:14:13.000Z</time>
      </trkpt>
      <trkpt lat="42.69743" lon="0.66825">
        <ele>2079.5</ele>
        <time>2018-08-08T16:14:14.000Z</time>
      </trkpt>
      <trkpt lat="42.69743" lon="0.66825">
        <ele>2079.5</ele>
        <time>2018-08-08T16:14:15.000Z</time>
      </trkpt>
      <trkpt lat="42.69743" lon="0.66825">
        <ele>2079.5</ele>
        <time>2018-08-08T16:14:16.000Z</time>
      </trkpt>
      <trkpt lat="42.69743" lon="0.66825">
        <ele>2079.5</ele>
        <time>2018-08-08T16:14:17.000Z</time>
      </trkpt>
      <trkpt lat="42.69743" lon="0.66825">
        <ele>2079.5</ele>
        <time>2018-08-08T16:14:18.000Z</time>
      </trkpt>
      <trkpt lat="42.69743" lon="0.66825">
        <ele>2079.5</ele>
        <time>2018-08-08T16:14:19.000Z</time>
      </trkpt>
      <trkpt lat="42.69743" lon="0.66825">
        <ele>2079.5</ele>
        <time>2018-08-08T16:14:20.000Z</time>
      </trkpt>
      <trkpt lat="42.69743" lon="0.66825">
        <ele>2079.5</ele>
        <time>2018-08-08T16:14:21.000Z</time>
      </trkpt>
      <trkpt lat="42.69743" lon="0.66825">
        <ele>2079.5</ele>
        <time>2018-08-08T16:14:22.000Z</time>
      </trkpt>
      <trkpt lat="42.69743" lon="0.66825">
        <ele>2079.5</ele>
        <time>2018-08-08T16:14:23.000Z</time>
      </trkpt>
      <trkpt lat="42.69743" lon="0.66825">
        <ele>2079.5</ele>
        <time>2018-08-08T16:14:24.000Z</time>
      </trkpt>
      <trkpt lat="42.69743" lon="0.66825">
        <ele>2079.5</ele>
        <time>2018-08-08T16:14:25.000Z</time>
      </trkpt>
      <trkpt lat="42.69743" lon="0.66825">
        <ele>2079.5</ele>
        <time>2018-08-08T16:14:26.000Z</time>
      </trkpt>
      <trkpt lat="42.69743" lon="0.66825">
        <ele>2079.5</ele>
        <time>2018-08-08T16:14:27.000Z</time>
      </trkpt>
      <trkpt lat="42.69743" lon="0.66825">
        <ele>2079.5</ele>
        <time>2018-08-08T16:14:28.000Z</time>
      </trkpt>
      <trkpt lat="42.69743" lon="0.66825">
        <ele>2079.5</ele>
        <time>2018-08-08T16:14:29.000Z</time>
      </trkpt>
      <trkpt lat="42.69743" lon="0.66825">
        <ele>2079.5</ele>
        <time>2018-08-08T16:14:30.000Z</time>
      </trkpt>
      <trkpt lat="42.69743" lon="0.66825">
        <ele>2079.5</ele>
        <time>2018-08-08T16:14:31.000Z</time>
      </trkpt>
      <trkpt lat="42.69743" lon="0.66825">
        <ele>2079.5</ele>
        <time>2018-08-08T16:14:32.000Z</time>
      </trkpt>
      <trkpt lat="42.69743" lon="0.66825">
        <ele>2079.5</ele>
        <time>2018-08-08T16:14:33.000Z</time>
      </trkpt>
      <trkpt lat="42.69743" lon="0.66825">
        <ele>2079.5</ele>
        <time>2018-08-08T16:14:34.000Z</time>
      </trkpt>
      <trkpt lat="42.69743" lon="0.66825">
        <ele>2079.5</ele>
        <time>2018-08-08T16:14:35.000Z</time>
      </trkpt>
      <trkpt lat="42.69743" lon="0.66825">
        <ele>2079.5</ele>
        <time>2018-08-08T16:14:36.000Z</time>
      </trkpt>
      <trkpt lat="42.69743" lon="0.66825">
        <ele>2079.5</ele>
        <time>2018-08-08T16:14:37.000Z</time>
      </trkpt>
      <trkpt lat="42.69743" lon="0.66825">
        <ele>2079.5</ele>
        <time>2018-08-08T16:14:38.000Z</time>
      </trkpt>
      <trkpt lat="42.69743" lon="0.66825">
        <ele>2079.5</ele>
        <time>2018-08-08T16:14:39.000Z</time>
      </trkpt>
      <trkpt lat="42.69743" lon="0.66825">
        <ele>2079.5</ele>
        <time>2018-08-08T16:14:40.000Z</time>
      </trkpt>
      <trkpt lat="42.69743" lon="0.66825">
        <ele>2079.5</ele>
        <time>2018-08-08T16:14:41.000Z</time>
      </trkpt>
      <trkpt lat="42.69743" lon="0.66825">
        <ele>2079.5</ele>
        <time>2018-08-08T16:14:42.000Z</time>
      </trkpt>
      <trkpt lat="42.69743" lon="0.66825">
        <ele>2079.5</ele>
        <time>2018-08-08T16:14:43.000Z</time>
      </trkpt>
      <trkpt lat="42.69743" lon="0.66825">
        <ele>2079.5</ele>
        <time>2018-08-08T16:14:44.000Z</time>
      </trkpt>
      <trkpt lat="42.69743" lon="0.66825">
        <ele>2079.5</ele>
        <time>2018-08-08T16:14:45.000Z</time>
      </trkpt>
      <trkpt lat="42.69743" lon="0.66825">
        <ele>2079.5</ele>
        <time>2018-08-08T16:14:46.000Z</time>
      </trkpt>
      <trkpt lat="42.69743" lon="0.66825">
        <ele>2079.5</ele>
        <time>2018-08-08T16:14:47.000Z</time>
      </trkpt>
      <trkpt lat="42.69743" lon="0.66825">
        <ele>2079.5</ele>
        <time>2018-08-08T16:14:48.000Z</time>
      </trkpt>
      <trkpt lat="42.69743" lon="0.66825">
        <ele>2079.5</ele>
        <time>2018-08-08T16:14:49.000Z</time>
      </trkpt>
      <trkpt lat="42.69743" lon="0.66825">
        <ele>2079.5</ele>
        <time>2018-08-08T16:14:50.000Z</time>
      </trkpt>
      <trkpt lat="42.69743" lon="0.66825">
        <ele>2079.5</ele>
        <time>2018-08-08T16:14:51.000Z</time>
      </trkpt>
      <trkpt lat="42.69743" lon="0.66825">
        <ele>2079.5</ele>
        <time>2018-08-08T16:14:52.000Z</time>
      </trkpt>
      <trkpt lat="42.69743" lon="0.66825">
        <ele>2079.5</ele>
        <time>2018-08-08T16:14:53.000Z</time>
      </trkpt>
      <trkpt lat="42.69743" lon="0.66825">
        <ele>2079.5</ele>
        <time>2018-08-08T16:14:54.000Z</time>
      </trkpt>
      <trkpt lat="42.69743" lon="0.66825">
        <ele>2079.5</ele>
        <time>2018-08-08T16:14:55.000Z</time>
      </trkpt>
      <trkpt lat="42.69743" lon="0.66825">
        <ele>2079.5</ele>
        <time>2018-08-08T16:14:56.000Z</time>
      </trkpt>
      <trkpt lat="42.69743" lon="0.66825">
        <ele>2079.5</ele>
        <time>2018-08-08T16:14:57.000Z</time>
      </trkpt>
      <trkpt lat="42.69743" lon="0.66825">
        <ele>2079.5</ele>
        <time>2018-08-08T16:14:58.000Z</time>
      </trkpt>
      <trkpt lat="42.69743" lon="0.66825">
        <ele>2079.5</ele>
        <time>2018-08-08T16:14:59.000Z</time>
      </trkpt>
      <trkpt lat="42.69743" lon="0.66825">
        <ele>2079.5</ele>
        <time>2018-08-08T16:15:00.000Z</time>
      </trkpt>
      <trkpt lat="42.69743" lon="0.66825">
        <ele>2079.5</ele>
        <time>2018-08-08T16:15:01.000Z</time>
      </trkpt>
      <trkpt lat="42.69743" lon="0.66825">
        <ele>2079.5</ele>
        <time>2018-08-08T16:15:02.000Z</time>
      </trkpt>
      <trkpt lat="42.69743" lon="0.66825">
        <ele>2079.5</ele>
        <time>2018-08-08T16:15:03.000Z</time>
      </trkpt>
      <trkpt lat="42.69743" lon="0.66825">
        <ele>2079.5</ele>
        <time>2018-08-08T16:15:04.000Z</time>
      </trkpt>
      <trkpt lat="42.69743" lon="0.66825">
        <ele>2079.5</ele>
        <time>2018-08-08T16:15:05.000Z</time>
      </trkpt>
      <trkpt lat="42.69743" lon="0.66825">
        <ele>2079.5</ele>
        <time>2018-08-08T16:15:06.000Z</time>
      </trkpt>
      <trkpt lat="42.69743" lon="0.66825">
        <ele>2079.5</ele>
        <time>2018-08-08T16:15:07.000Z</time>
      </trkpt>
      <trkpt lat="42.69743" lon="0.66825">
        <ele>2079.5</ele>
        <time>2018-08-08T16:15:08.000Z</time>
      </trkpt>
      <trkpt lat="42.69743" lon="0.66825">
        <ele>2079.5</ele>
        <time>2018-08-08T16:15:09.000Z</time>
      </trkpt>
      <trkpt lat="42.69743" lon="0.66825">
        <ele>2079.5</ele>
        <time>2018-08-08T16:15:10.000Z</time>
      </trkpt>
      <trkpt lat="42.69743" lon="0.66825">
        <ele>2079.5</ele>
        <time>2018-08-08T16:15:11.000Z</time>
      </trkpt>
      <trkpt lat="42.69743" lon="0.66825">
        <ele>2079.5</ele>
        <time>2018-08-08T16:15:12.000Z</time>
      </trkpt>
      <trkpt lat="42.69743" lon="0.66825">
        <ele>2079.5</ele>
        <time>2018-08-08T16:15:13.000Z</time>
      </trkpt>
      <trkpt lat="42.69743" lon="0.66825">
        <ele>2079.5</ele>
        <time>2018-08-08T16:15:14.000Z</time>
      </trkpt>
      <trkpt lat="42.69743" lon="0.66825">
        <ele>2079.5</ele>
        <time>2018-08-08T16:15:15.000Z</time>
      </trkpt>
      <trkpt lat="42.69743" lon="0.66825">
        <ele>2079.5</ele>
        <time>2018-08-08T16:15:16.000Z</time>
      </trkpt>
      <trkpt lat="42.69743" lon="0.66825">
        <ele>2079.5</ele>
        <time>2018-08-08T16:15:17.000Z</time>
      </trkpt>
      <trkpt lat="42.69743" lon="0.66825">
        <ele>2079.5</ele>
        <time>2018-08-08T16:15:18.000Z</time>
      </trkpt>
      <trkpt lat="42.69743" lon="0.66825">
        <ele>2079.5</ele>
        <time>2018-08-08T16:15:19.000Z</time>
      </trkpt>
      <trkpt lat="42.69743" lon="0.66825">
        <ele>2079.5</ele>
        <time>2018-08-08T16:15:20.000Z</time>
      </trkpt>
      <trkpt lat="42.69743" lon="0.66825">
        <ele>2079.5</ele>
        <time>2018-08-08T16:15:21.000Z</time>
      </trkpt>
      <trkpt lat="42.69743" lon="0.66825">
        <ele>2079.5</ele>
        <time>2018-08-08T16:15:22.000Z</time>
      </trkpt>
      <trkpt lat="42.69743" lon="0.66825">
        <ele>2079.5</ele>
        <time>2018-08-08T16:15:23.000Z</time>
      </trkpt>
      <trkpt lat="42.69743" lon="0.66825">
        <ele>2079.5</ele>
        <time>2018-08-08T16:15:24.000Z</time>
      </trkpt>
      <trkpt lat="42.69743" lon="0.66825">
        <ele>2079.5</ele>
        <time>2018-08-08T16:15:25.000Z</time>
      </trkpt>
      <trkpt lat="42.69743" lon="0.66825">
        <ele>2079.5</ele>
        <time>2018-08-08T16:15:26.000Z</time>
      </trkpt>
      <trkpt lat="42.69743" lon="0.66825">
        <ele>2079.5</ele>
        <time>2018-08-08T16:15:27.000Z</time>
      </trkpt>
      <trkpt lat="42.69743" lon="0.66825">
        <ele>2079.5</ele>
        <time>2018-08-08T16:15:28.000Z</time>
      </trkpt>
      <trkpt lat="42.69743" lon="0.66825">
        <ele>2079.5</ele>
        <time>2018-08-08T16:15:29.000Z</time>
      </trkpt>
      <trkpt lat="42.69743" lon="0.66825">
        <ele>2079.5</ele>
        <time>2018-08-08T16:15:30.000Z</time>
      </trkpt>
      <trkpt lat="42.69743" lon="0.66825">
        <ele>2079.5</ele>
        <time>2018-08-08T16:15:31.000Z</time>
      </trkpt>
      <trkpt lat="42.69743" lon="0.66825">
        <ele>2079.5</ele>
        <time>2018-08-08T16:15:32.000Z</time>
      </trkpt>
      <trkpt lat="42.69743" lon="0.66825">
        <ele>2079.5</ele>
        <time>2018-08-08T16:15:33.000Z</time>
      </trkpt>
      <trkpt lat="42.69743" lon="0.66825">
        <ele>2079.5</ele>
        <time>2018-08-08T16:15:34.000Z</time>
      </trkpt>
      <trkpt lat="42.69743" lon="0.66825">
        <ele>2079.5</ele>
        <time>2018-08-08T16:15:35.000Z</time>
      </trkpt>
      <trkpt lat="42.69743" lon="0.66825">
        <ele>2079.5</ele>
        <time>2018-08-08T16:15:36.000Z</time>
      </trkpt>
      <trkpt lat="42.69743" lon="0.66825">
        <ele>2079.5</ele>
        <time>2018-08-08T16:15:37.000Z</time>
      </trkpt>
      <trkpt lat="42.69743" lon="0.66825">
        <ele>2079.5</ele>
        <time>2018-08-08T16:15:38.000Z</time>
      </trkpt>
      <trkpt lat="42.69743" lon="0.66825">
        <ele>2079.5</ele>
        <time>2018-08-08T16:15:39.000Z</time>
      </trkpt>
      <trkpt lat="42.69743" lon="0.66825">
        <ele>2079.5</ele>
        <time>2018-08-08T16:15:40.000Z</time>
      </trkpt>
      <trkpt lat="42.69743" lon="0.66825">
        <ele>2079.5</ele>
        <time>2018-08-08T16:15:41.000Z</time>
      </trkpt>
      <trkpt lat="42.69743" lon="0.66825">
        <ele>2079.5</ele>
        <time>2018-08-08T16:15:42.000Z</time>
      </trkpt>
      <trkpt lat="42.69743" lon="0.66825">
        <ele>2079.5</ele>
        <time>2018-08-08T16:15:43.000Z</time>
      </trkpt>
      <trkpt lat="42.69743" lon="0.66825">
        <ele>2079.5</ele>
        <time>2018-08-08T16:15:44.000Z</time>
      </trkpt>
      <trkpt lat="42.69743" lon="0.66825">
        <ele>2079.5</ele>
        <time>2018-08-08T16:15:45.000Z</time>
      </trkpt>
      <trkpt lat="42.69743" lon="0.66825">
        <ele>2079.5</ele>
        <time>2018-08-08T16:15:46.000Z</time>
      </trkpt>
      <trkpt lat="42.69743" lon="0.66825">
        <ele>2079.5</ele>
        <time>2018-08-08T16:15:47.000Z</time>
      </trkpt>
      <trkpt lat="42.69743" lon="0.66825">
        <ele>2079.5</ele>
        <time>2018-08-08T16:15:48.000Z</time>
      </trkpt>
      <trkpt lat="42.69743" lon="0.66825">
        <ele>2079.5</ele>
        <time>2018-08-08T16:15:49.000Z</time>
      </trkpt>
      <trkpt lat="42.69743" lon="0.66825">
        <ele>2079.5</ele>
        <time>2018-08-08T16:15:50.000Z</time>
      </trkpt>
      <trkpt lat="42.69743" lon="0.66825">
        <ele>2079.5</ele>
        <time>2018-08-08T16:15:51.000Z</time>
      </trkpt>
      <trkpt lat="42.69743" lon="0.66825">
        <ele>2079.5</ele>
        <time>2018-08-08T16:15:52.000Z</time>
      </trkpt>
      <trkpt lat="42.69743" lon="0.66825">
        <ele>2079.5</ele>
        <time>2018-08-08T16:15:53.000Z</time>
      </trkpt>
      <trkpt lat="42.69743" lon="0.66825">
        <ele>2079.5</ele>
        <time>2018-08-08T16:15:54.000Z</time>
      </trkpt>
      <trkpt lat="42.69743" lon="0.66825">
        <ele>2079.5</ele>
        <time>2018-08-08T16:15:55.000Z</time>
      </trkpt>
      <trkpt lat="42.69743" lon="0.66825">
        <ele>2079.5</ele>
        <time>2018-08-08T16:15:56.000Z</time>
      </trkpt>
      <trkpt lat="42.69743" lon="0.66825">
        <ele>2079.5</ele>
        <time>2018-08-08T16:15:57.000Z</time>
      </trkpt>
      <trkpt lat="42.69743" lon="0.66825">
        <ele>2079.5</ele>
        <time>2018-08-08T16:15:58.000Z</time>
      </trkpt>
      <trkpt lat="42.69743" lon="0.66825">
        <ele>2079.5</ele>
        <time>2018-08-08T16:15:59.000Z</time>
      </trkpt>
      <trkpt lat="42.69743" lon="0.66825">
        <ele>2079.5</ele>
        <time>2018-08-08T16:16:00.000Z</time>
      </trkpt>
      <trkpt lat="42.69743" lon="0.66825">
        <ele>2079.5</ele>
        <time>2018-08-08T16:16:01.000Z</time>
      </trkpt>
      <trkpt lat="42.69743" lon="0.66825">
        <ele>2079.5</ele>
        <time>2018-08-08T16:16:02.000Z</time>
      </trkpt>
      <trkpt lat="42.69743" lon="0.66825">
        <ele>2079.5</ele>
        <time>2018-08-08T16:16:03.000Z</time>
      </trkpt>
      <trkpt lat="42.69743" lon="0.66825">
        <ele>2079.5</ele>
        <time>2018-08-08T16:16:04.000Z</time>
      </trkpt>
      <trkpt lat="42.69743" lon="0.66825">
        <ele>2079.5</ele>
        <time>2018-08-08T16:16:05.000Z</time>
      </trkpt>
      <trkpt lat="42.69743" lon="0.66825">
        <ele>2079.5</ele>
        <time>2018-08-08T16:16:06.000Z</time>
      </trkpt>
      <trkpt lat="42.69743" lon="0.66825">
        <ele>2079.5</ele>
        <time>2018-08-08T16:16:07.000Z</time>
      </trkpt>
      <trkpt lat="42.69743" lon="0.66825">
        <ele>2079.5</ele>
        <time>2018-08-08T16:16:08.000Z</time>
      </trkpt>
      <trkpt lat="42.69743" lon="0.66825">
        <ele>2079.5</ele>
        <time>2018-08-08T16:16:09.000Z</time>
      </trkpt>
      <trkpt lat="42.69743" lon="0.66825">
        <ele>2079.5</ele>
        <time>2018-08-08T16:16:10.000Z</time>
      </trkpt>
      <trkpt lat="42.69743" lon="0.66825">
        <ele>2079.5</ele>
        <time>2018-08-08T16:16:11.000Z</time>
      </trkpt>
      <trkpt lat="42.69743" lon="0.66825">
        <ele>2079.5</ele>
        <time>2018-08-08T16:16:12.000Z</time>
      </trkpt>
      <trkpt lat="42.69743" lon="0.66825">
        <ele>2079.5</ele>
        <time>2018-08-08T16:16:13.000Z</time>
      </trkpt>
      <trkpt lat="42.69743" lon="0.66825">
        <ele>2079.5</ele>
        <time>2018-08-08T16:16:14.000Z</time>
      </trkpt>
      <trkpt lat="42.69743" lon="0.66825">
        <ele>2079.5</ele>
        <time>2018-08-08T16:16:15.000Z</time>
      </trkpt>
      <trkpt lat="42.69743" lon="0.66825">
        <ele>2079.5</ele>
        <time>2018-08-08T16:16:16.000Z</time>
      </trkpt>
      <trkpt lat="42.69743" lon="0.66825">
        <ele>2079.5</ele>
        <time>2018-08-08T16:16:17.000Z</time>
      </trkpt>
      <trkpt lat="42.69743" lon="0.66825">
        <ele>2079.5</ele>
        <time>2018-08-08T16:16:18.000Z</time>
      </trkpt>
      <trkpt lat="42.69743" lon="0.66825">
        <ele>2079.5</ele>
        <time>2018-08-08T16:16:19.000Z</time>
      </trkpt>
      <trkpt lat="42.69743" lon="0.66825">
        <ele>2079.5</ele>
        <time>2018-08-08T16:16:20.000Z</time>
      </trkpt>
      <trkpt lat="42.69743" lon="0.66825">
        <ele>2079.5</ele>
        <time>2018-08-08T16:16:21.000Z</time>
      </trkpt>
      <trkpt lat="42.69743" lon="0.66825">
        <ele>2079.5</ele>
        <time>2018-08-08T16:16:22.000Z</time>
      </trkpt>
      <trkpt lat="42.69743" lon="0.66825">
        <ele>2079.5</ele>
        <time>2018-08-08T16:16:23.000Z</time>
      </trkpt>
      <trkpt lat="42.69743" lon="0.66825">
        <ele>2079.5</ele>
        <time>2018-08-08T16:16:24.000Z</time>
      </trkpt>
      <trkpt lat="42.69743" lon="0.66825">
        <ele>2079.5</ele>
        <time>2018-08-08T16:16:25.000Z</time>
      </trkpt>
      <trkpt lat="42.69743" lon="0.66825">
        <ele>2079.5</ele>
        <time>2018-08-08T16:16:26.000Z</time>
      </trkpt>
      <trkpt lat="42.69743" lon="0.66825">
        <ele>2079.5</ele>
        <time>2018-08-08T16:16:27.000Z</time>
      </trkpt>
      <trkpt lat="42.69743" lon="0.66825">
        <ele>2079.5</ele>
        <time>2018-08-08T16:16:28.000Z</time>
      </trkpt>
      <trkpt lat="42.69743" lon="0.66825">
        <ele>2079.5</ele>
        <time>2018-08-08T16:16:29.000Z</time>
      </trkpt>
      <trkpt lat="42.69743" lon="0.66825">
        <ele>2079.5</ele>
        <time>2018-08-08T16:16:30.000Z</time>
      </trkpt>
      <trkpt lat="42.69743" lon="0.66825">
        <ele>2079.5</ele>
        <time>2018-08-08T16:16:31.000Z</time>
      </trkpt>
      <trkpt lat="42.69743" lon="0.66825">
        <ele>2079.5</ele>
        <time>2018-08-08T16:16:32.000Z</time>
      </trkpt>
      <trkpt lat="42.69743" lon="0.66825">
        <ele>2079.5</ele>
        <time>2018-08-08T16:16:33.000Z</time>
      </trkpt>
      <trkpt lat="42.69743" lon="0.66825">
        <ele>2079.5</ele>
        <time>2018-08-08T16:16:34.000Z</time>
      </trkpt>
      <trkpt lat="42.69743" lon="0.66825">
        <ele>2079.5</ele>
        <time>2018-08-08T16:16:35.000Z</time>
      </trkpt>
      <trkpt lat="42.69743" lon="0.66825">
        <ele>2079.5</ele>
        <time>2018-08-08T16:16:36.000Z</time>
      </trkpt>
      <trkpt lat="42.69743" lon="0.66825">
        <ele>2079.5</ele>
        <time>2018-08-08T16:16:37.000Z</time>
      </trkpt>
      <trkpt lat="42.69743" lon="0.66825">
        <ele>2079.5</ele>
        <time>2018-08-08T16:16:38.000Z</time>
      </trkpt>
      <trkpt lat="42.69743" lon="0.66825">
        <ele>2079.5</ele>
        <time>2018-08-08T16:16:39.000Z</time>
      </trkpt>
      <trkpt lat="42.69743" lon="0.66825">
        <ele>2079.5</ele>
        <time>2018-08-08T16:16:40.000Z</time>
      </trkpt>
      <trkpt lat="42.69743" lon="0.66825">
        <ele>2079.5</ele>
        <time>2018-08-08T16:16:41.000Z</time>
      </trkpt>
      <trkpt lat="42.69743" lon="0.66825">
        <ele>2079.5</ele>
        <time>2018-08-08T16:16:42.000Z</time>
      </trkpt>
      <trkpt lat="42.69743" lon="0.66825">
        <ele>2079.5</ele>
        <time>2018-08-08T16:16:43.000Z</time>
      </trkpt>
      <trkpt lat="42.69743" lon="0.66825">
        <ele>2079.5</ele>
        <time>2018-08-08T16:16:44.000Z</time>
      </trkpt>
      <trkpt lat="42.69743" lon="0.66825">
        <ele>2079.5</ele>
        <time>2018-08-08T16:16:45.000Z</time>
      </trkpt>
      <trkpt lat="42.69743" lon="0.66825">
        <ele>2079.5</ele>
        <time>2018-08-08T16:16:46.000Z</time>
      </trkpt>
      <trkpt lat="42.69743" lon="0.66825">
        <ele>2079.5</ele>
        <time>2018-08-08T16:16:47.000Z</time>
      </trkpt>
      <trkpt lat="42.69743" lon="0.66825">
        <ele>2079.5</ele>
        <time>2018-08-08T16:16:48.000Z</time>
      </trkpt>
      <trkpt lat="42.69743" lon="0.66825">
        <ele>2079.5</ele>
        <time>2018-08-08T16:16:49.000Z</time>
      </trkpt>
      <trkpt lat="42.69743" lon="0.66825">
        <ele>2079.5</ele>
        <time>2018-08-08T16:16:50.000Z</time>
      </trkpt>
      <trkpt lat="42.69743" lon="0.66825">
        <ele>2079.5</ele>
        <time>2018-08-08T16:16:51.000Z</time>
      </trkpt>
      <trkpt lat="42.69743" lon="0.66825">
        <ele>2079.5</ele>
        <time>2018-08-08T16:16:52.000Z</time>
      </trkpt>
      <trkpt lat="42.69743" lon="0.66825">
        <ele>2079.5</ele>
        <time>2018-08-08T16:16:53.000Z</time>
      </trkpt>
      <trkpt lat="42.69743" lon="0.66825">
        <ele>2079.5</ele>
        <time>2018-08-08T16:16:54.000Z</time>
      </trkpt>
      <trkpt lat="42.69743" lon="0.66825">
        <ele>2079.5</ele>
        <time>2018-08-08T16:16:55.000Z</time>
      </trkpt>
      <trkpt lat="42.69743" lon="0.66825">
        <ele>2079.5</ele>
        <time>2018-08-08T16:16:56.000Z</time>
      </trkpt>
      <trkpt lat="42.69743" lon="0.66825">
        <ele>2079.5</ele>
        <time>2018-08-08T16:16:57.000Z</time>
      </trkpt>
      <trkpt lat="42.69743" lon="0.66825">
        <ele>2079.5</ele>
        <time>2018-08-08T16:16:58.000Z</time>
      </trkpt>
      <trkpt lat="42.69743" lon="0.66825">
        <ele>2079.5</ele>
        <time>2018-08-08T16:16:59.000Z</time>
      </trkpt>
      <trkpt lat="42.69743" lon="0.66825">
        <ele>2079.5</ele>
        <time>2018-08-08T16:17:00.000Z</time>
      </trkpt>
      <trkpt lat="42.69743" lon="0.66825">
        <ele>2079.5</ele>
        <time>2018-08-08T16:17:01.000Z</time>
      </trkpt>
      <trkpt lat="42.69743" lon="0.66825">
        <ele>2079.5</ele>
        <time>2018-08-08T16:17:02.000Z</time>
      </trkpt>
      <trkpt lat="42.69743" lon="0.66825">
        <ele>2079.5</ele>
        <time>2018-08-08T16:17:03.000Z</time>
      </trkpt>
      <trkpt lat="42.69743" lon="0.66825">
        <ele>2079.5</ele>
        <time>2018-08-08T16:17:04.000Z</time>
      </trkpt>
      <trkpt lat="42.69743" lon="0.66825">
        <ele>2079.5</ele>
        <time>2018-08-08T16:17:05.000Z</time>
      </trkpt>
      <trkpt lat="42.69743" lon="0.66825">
        <ele>2079.5</ele>
        <time>2018-08-08T16:17:06.000Z</time>
      </trkpt>
      <trkpt lat="42.69743" lon="0.66825">
        <ele>2079.5</ele>
        <time>2018-08-08T16:17:07.000Z</time>
      </trkpt>
      <trkpt lat="42.69743" lon="0.66825">
        <ele>2079.5</ele>
        <time>2018-08-08T16:17:08.000Z</time>
      </trkpt>
      <trkpt lat="42.69743" lon="0.66825">
        <ele>2079.5</ele>
        <time>2018-08-08T16:17:09.000Z</time>
      </trkpt>
      <trkpt lat="42.69743" lon="0.66825">
        <ele>2079.5</ele>
        <time>2018-08-08T16:17:10.000Z</time>
      </trkpt>
      <trkpt lat="42.69743" lon="0.66825">
        <ele>2079.5</ele>
        <time>2018-08-08T16:17:11.000Z</time>
      </trkpt>
      <trkpt lat="42.69743" lon="0.66825">
        <ele>2079.5</ele>
        <time>2018-08-08T16:17:12.000Z</time>
      </trkpt>
      <trkpt lat="42.69743" lon="0.66825">
        <ele>2079.5</ele>
        <time>2018-08-08T16:17:13.000Z</time>
      </trkpt>
      <trkpt lat="42.69743" lon="0.66825">
        <ele>2079.5</ele>
        <time>2018-08-08T16:17:14.000Z</time>
      </trkpt>
      <trkpt lat="42.69743" lon="0.66825">
        <ele>2079.5</ele>
        <time>2018-08-08T16:17:15.000Z</time>
      </trkpt>
      <trkpt lat="42.69743" lon="0.66825">
        <ele>2079.5</ele>
        <time>2018-08-08T16:17:16.000Z</time>
      </trkpt>
      <trkpt lat="42.69743" lon="0.66825">
        <ele>2079.5</ele>
        <time>2018-08-08T16:17:17.000Z</time>
      </trkpt>
      <trkpt lat="42.69743" lon="0.66825">
        <ele>2079.5</ele>
        <time>2018-08-08T16:17:18.000Z</time>
      </trkpt>
      <trkpt lat="42.69743" lon="0.66825">
        <ele>2079.5</ele>
        <time>2018-08-08T16:17:19.000Z</time>
      </trkpt>
      <trkpt lat="42.69743" lon="0.66825">
        <ele>2079.5</ele>
        <time>2018-08-08T16:17:20.000Z</time>
      </trkpt>
      <trkpt lat="42.69743" lon="0.66825">
        <ele>2079.5</ele>
        <time>2018-08-08T16:17:21.000Z</time>
      </trkpt>
      <trkpt lat="42.69743" lon="0.66825">
        <ele>2079.5</ele>
        <time>2018-08-08T16:17:22.000Z</time>
      </trkpt>
      <trkpt lat="42.69743" lon="0.66825">
        <ele>2079.5</ele>
        <time>2018-08-08T16:17:23.000Z</time>
      </trkpt>
      <trkpt lat="42.69743" lon="0.66825">
        <ele>2079.5</ele>
        <time>2018-08-08T16:17:24.000Z</time>
      </trkpt>
      <trkpt lat="42.69743" lon="0.66825">
        <ele>2079.5</ele>
        <time>2018-08-08T16:17:25.000Z</time>
      </trkpt>
      <trkpt lat="42.69743" lon="0.66825">
        <ele>2079.5</ele>
        <time>2018-08-08T16:17:26.000Z</time>
      </trkpt>
      <trkpt lat="42.69743" lon="0.66825">
        <ele>2079.5</ele>
        <time>2018-08-08T16:17:27.000Z</time>
      </trkpt>
      <trkpt lat="42.69743" lon="0.66825">
        <ele>2079.5</ele>
        <time>2018-08-08T16:17:28.000Z</time>
      </trkpt>
      <trkpt lat="42.69743" lon="0.66825">
        <ele>2079.5</ele>
        <time>2018-08-08T16:17:29.000Z</time>
      </trkpt>
      <trkpt lat="42.69743" lon="0.66825">
        <ele>2079.5</ele>
        <time>2018-08-08T16:17:30.000Z</time>
      </trkpt>
      <trkpt lat="42.69743" lon="0.66825">
        <ele>2079.5</ele>
        <time>2018-08-08T16:17:31.000Z</time>
      </trkpt>
      <trkpt lat="42.69743" lon="0.66825">
        <ele>2079.5</ele>
        <time>2018-08-08T16:17:32.000Z</time>
      </trkpt>
      <trkpt lat="42.69743" lon="0.66825">
        <ele>2079.5</ele>
        <time>2018-08-08T16:17:33.000Z</time>
      </trkpt>
      <trkpt lat="42.69743" lon="0.66825">
        <ele>2079.5</ele>
        <time>2018-08-08T16:17:34.000Z</time>
      </trkpt>
      <trkpt lat="42.69743" lon="0.66825">
        <ele>2079.5</ele>
        <time>2018-08-08T16:17:35.000Z</time>
      </trkpt>
      <trkpt lat="42.69743" lon="0.66825">
        <ele>2079.5</ele>
        <time>2018-08-08T16:17:36.000Z</time>
      </trkpt>
      <trkpt lat="42.69743" lon="0.66825">
        <ele>2079.5</ele>
        <time>2018-08-08T16:17:37.000Z</time>
      </trkpt>
      <trkpt lat="42.69743" lon="0.66825">
        <ele>2079.5</ele>
        <time>2018-08-08T16:17:38.000Z</time>
      </trkpt>
      <trkpt lat="42.69743" lon="0.66825">
        <ele>2079.5</ele>
        <time>2018-08-08T16:17:39.000Z</time>
      </trkpt>
      <trkpt lat="42.69743" lon="0.66825">
        <ele>2079.5</ele>
        <time>2018-08-08T16:17:40.000Z</time>
      </trkpt>
      <trkpt lat="42.69743" lon="0.66825">
        <ele>2079.5</ele>
        <time>2018-08-08T16:17:41.000Z</time>
      </trkpt>
      <trkpt lat="42.69743" lon="0.66825">
        <ele>2079.5</ele>
        <time>2018-08-08T16:17:42.000Z</time>
      </trkpt>
      <trkpt lat="42.69743" lon="0.66825">
        <ele>2079.5</ele>
        <time>2018-08-08T16:17:43.000Z</time>
      </trkpt>
      <trkpt lat="42.69743" lon="0.66825">
        <ele>2079.5</ele>
        <time>2018-08-08T16:17:44.000Z</time>
      </trkpt>
      <trkpt lat="42.69743" lon="0.66825">
        <ele>2079.5</ele>
        <time>2018-08-08T16:17:45.000Z</time>
      </trkpt>
      <trkpt lat="42.69743" lon="0.66825">
        <ele>2079.5</ele>
        <time>2018-08-08T16:17:46.000Z</time>
      </trkpt>
      <trkpt lat="42.69743" lon="0.66825">
        <ele>2079.5</ele>
        <time>2018-08-08T16:17:47.000Z</time>
      </trkpt>
      <trkpt lat="42.69743" lon="0.66825">
        <ele>2079.5</ele>
        <time>2018-08-08T16:17:48.000Z</time>
      </trkpt>
      <trkpt lat="42.69743" lon="0.66825">
        <ele>2079.5</ele>
        <time>2018-08-08T16:17:49.000Z</time>
      </trkpt>
      <trkpt lat="42.69743" lon="0.66825">
        <ele>2079.5</ele>
        <time>2018-08-08T16:17:50.000Z</time>
      </trkpt>
      <trkpt lat="42.69743" lon="0.66825">
        <ele>2079.5</ele>
        <time>2018-08-08T16:17:51.000Z</time>
      </trkpt>
      <trkpt lat="42.69743" lon="0.66825">
        <ele>2079.5</ele>
        <time>2018-08-08T16:17:52.000Z</time>
      </trkpt>
      <trkpt lat="42.69743" lon="0.66825">
        <ele>2079.5</ele>
        <time>2018-08-08T16:17:53.000Z</time>
      </trkpt>
      <trkpt lat="42.69743" lon="0.66825">
        <ele>2079.5</ele>
        <time>2018-08-08T16:17:54.000Z</time>
      </trkpt>
      <trkpt lat="42.69743" lon="0.66825">
        <ele>2079.5</ele>
        <time>2018-08-08T16:17:55.000Z</time>
      </trkpt>
      <trkpt lat="42.69743" lon="0.66825">
        <ele>2079.5</ele>
        <time>2018-08-08T16:17:56.000Z</time>
      </trkpt>
      <trkpt lat="42.69743" lon="0.66825">
        <ele>2079.5</ele>
        <time>2018-08-08T16:17:57.000Z</time>
      </trkpt>
      <trkpt lat="42.69743" lon="0.66825">
        <ele>2079.5</ele>
        <time>2018-08-08T16:17:58.000Z</time>
      </trkpt>
      <trkpt lat="42.69743" lon="0.66825">
        <ele>2079.5</ele>
        <time>2018-08-08T16:17:59.000Z</time>
      </trkpt>
      <trkpt lat="42.69743" lon="0.66825">
        <ele>2079.5</ele>
        <time>2018-08-08T16:18:00.000Z</time>
      </trkpt>
      <trkpt lat="42.69743" lon="0.66825">
        <ele>2079.5</ele>
        <time>2018-08-08T16:18:01.000Z</time>
      </trkpt>
      <trkpt lat="42.69743" lon="0.66825">
        <ele>2079.5</ele>
        <time>2018-08-08T16:18:02.000Z</time>
      </trkpt>
      <trkpt lat="42.69743" lon="0.66825">
        <ele>2079.5</ele>
        <time>2018-08-08T16:18:03.000Z</time>
      </trkpt>
      <trkpt lat="42.69743" lon="0.66825">
        <ele>2079.5</ele>
        <time>2018-08-08T16:18:04.000Z</time>
      </trkpt>
      <trkpt lat="42.69743" lon="0.66825">
        <ele>2079.5</ele>
        <time>2018-08-08T16:18:05.000Z</time>
      </trkpt>
      <trkpt lat="42.69743" lon="0.66825">
        <ele>2079.5</ele>
        <time>2018-08-08T16:18:06.000Z</time>
      </trkpt>
      <trkpt lat="42.69743" lon="0.66825">
        <ele>2079.5</ele>
        <time>2018-08-08T16:18:07.000Z</time>
      </trkpt>
      <trkpt lat="42.69743" lon="0.66825">
        <ele>2079.5</ele>
        <time>2018-08-08T16:18:08.000Z</time>
      </trkpt>
      <trkpt lat="42.69743" lon="0.66825">
        <ele>2079.5</ele>
        <time>2018-08-08T16:18:09.000Z</time>
      </trkpt>
      <trkpt lat="42.69743" lon="0.66825">
        <ele>2079.5</ele>
        <time>2018-08-08T16:18:10.000Z</time>
      </trkpt>
      <trkpt lat="42.69743" lon="0.66825">
        <ele>2079.5</ele>
        <time>2018-08-08T16:18:11.000Z</time>
      </trkpt>
      <trkpt lat="42.69743" lon="0.66825">
        <ele>2079.5</ele>
        <time>2018-08-08T16:18:12.000Z</time>
      </trkpt>
      <trkpt lat="42.69743" lon="0.66825">
        <ele>2079.5</ele>
        <time>2018-08-08T16:18:13.000Z</time>
      </trkpt>
      <trkpt lat="42.69743" lon="0.66825">
        <ele>2079.5</ele>
        <time>2018-08-08T16:18:14.000Z</time>
      </trkpt>
      <trkpt lat="42.69743" lon="0.66825">
        <ele>2079.5</ele>
        <time>2018-08-08T16:18:15.000Z</time>
      </trkpt>
      <trkpt lat="42.69743" lon="0.66825">
        <ele>2079.5</ele>
        <time>2018-08-08T16:18:16.000Z</time>
      </trkpt>
      <trkpt lat="42.69743" lon="0.66825">
        <ele>2079.5</ele>
        <time>2018-08-08T16:18:17.000Z</time>
      </trkpt>
      <trkpt lat="42.69743" lon="0.66825">
        <ele>2079.5</ele>
        <time>2018-08-08T16:18:18.000Z</time>
      </trkpt>
      <trkpt lat="42.69743" lon="0.66825">
        <ele>2079.5</ele>
        <time>2018-08-08T16:18:19.000Z</time>
      </trkpt>
      <trkpt lat="42.69743" lon="0.66825">
        <ele>2079.5</ele>
        <time>2018-08-08T16:18:20.000Z</time>
      </trkpt>
      <trkpt lat="42.69743" lon="0.66825">
        <ele>2079.5</ele>
        <time>2018-08-08T16:18:21.000Z</time>
      </trkpt>
      <trkpt lat="42.69743" lon="0.66825">
        <ele>2079.5</ele>
        <time>2018-08-08T16:18:22.000Z</time>
      </trkpt>
      <trkpt lat="42.69743" lon="0.66825">
        <ele>2079.5</ele>
        <time>2018-08-08T16:18:23.000Z</time>
      </trkpt>
      <trkpt lat="42.69743" lon="0.66825">
        <ele>2079.5</ele>
        <time>2018-08-08T16:18:24.000Z</time>
      </trkpt>
      <trkpt lat="42.69743" lon="0.66825">
        <ele>2079.5</ele>
        <time>2018-08-08T16:18:25.000Z</time>
      </trkpt>
      <trkpt lat="42.69743" lon="0.66825">
        <ele>2079.5</ele>
        <time>2018-08-08T16:18:26.000Z</time>
      </trkpt>
      <trkpt lat="42.69743" lon="0.66825">
        <ele>2079.5</ele>
        <time>2018-08-08T16:18:27.000Z</time>
      </trkpt>
      <trkpt lat="42.69743" lon="0.66825">
        <ele>2079.5</ele>
        <time>2018-08-08T16:18:28.000Z</time>
      </trkpt>
      <trkpt lat="42.69743" lon="0.66825">
        <ele>2079.5</ele>
        <time>2018-08-08T16:18:29.000Z</time>
      </trkpt>
      <trkpt lat="42.69743" lon="0.66825">
        <ele>2079.5</ele>
        <time>2018-08-08T16:18:30.000Z</time>
      </trkpt>
      <trkpt lat="42.69743" lon="0.66825">
        <ele>2079.5</ele>
        <time>2018-08-08T16:18:31.000Z</time>
      </trkpt>
      <trkpt lat="42.69743" lon="0.66825">
        <ele>2079.5</ele>
        <time>2018-08-08T16:18:32.000Z</time>
      </trkpt>
      <trkpt lat="42.69743" lon="0.66825">
        <ele>2079.5</ele>
        <time>2018-08-08T16:18:33.000Z</time>
      </trkpt>
      <trkpt lat="42.69743" lon="0.66825">
        <ele>2079.5</ele>
        <time>2018-08-08T16:18:34.000Z</time>
      </trkpt>
      <trkpt lat="42.69743" lon="0.66825">
        <ele>2079.5</ele>
        <time>2018-08-08T16:18:35.000Z</time>
      </trkpt>
      <trkpt lat="42.69743" lon="0.66825">
        <ele>2079.5</ele>
        <time>2018-08-08T16:18:36.000Z</time>
      </trkpt>
      <trkpt lat="42.69743" lon="0.66825">
        <ele>2079.5</ele>
        <time>2018-08-08T16:18:37.000Z</time>
      </trkpt>
      <trkpt lat="42.69743" lon="0.66825">
        <ele>2079.5</ele>
        <time>2018-08-08T16:18:38.000Z</time>
      </trkpt>
      <trkpt lat="42.69743" lon="0.66825">
        <ele>2079.5</ele>
        <time>2018-08-08T16:18:39.000Z</time>
      </trkpt>
      <trkpt lat="42.69743" lon="0.66825">
        <ele>2079.5</ele>
        <time>2018-08-08T16:18:40.000Z</time>
      </trkpt>
      <trkpt lat="42.69743" lon="0.66825">
        <ele>2079.5</ele>
        <time>2018-08-08T16:18:41.000Z</time>
      </trkpt>
      <trkpt lat="42.69743" lon="0.66825">
        <ele>2079.5</ele>
        <time>2018-08-08T16:18:42.000Z</time>
      </trkpt>
      <trkpt lat="42.69743" lon="0.66825">
        <ele>2079.5</ele>
        <time>2018-08-08T16:18:43.000Z</time>
      </trkpt>
      <trkpt lat="42.69743" lon="0.66825">
        <ele>2079.5</ele>
        <time>2018-08-08T16:18:44.000Z</time>
      </trkpt>
      <trkpt lat="42.69743" lon="0.66825">
        <ele>2079.5</ele>
        <time>2018-08-08T16:18:45.000Z</time>
      </trkpt>
      <trkpt lat="42.69743" lon="0.66825">
        <ele>2079.5</ele>
        <time>2018-08-08T16:18:46.000Z</time>
      </trkpt>
      <trkpt lat="42.69743" lon="0.66825">
        <ele>2079.5</ele>
        <time>2018-08-08T16:18:47.000Z</time>
      </trkpt>
      <trkpt lat="42.69743" lon="0.66825">
        <ele>2079.5</ele>
        <time>2018-08-08T16:18:48.000Z</time>
      </trkpt>
      <trkpt lat="42.69743" lon="0.66825">
        <ele>2079.5</ele>
        <time>2018-08-08T16:18:49.000Z</time>
      </trkpt>
      <trkpt lat="42.69743" lon="0.66825">
        <ele>2079.5</ele>
        <time>2018-08-08T16:18:50.000Z</time>
      </trkpt>
      <trkpt lat="42.69743" lon="0.66825">
        <ele>2079.5</ele>
        <time>2018-08-08T16:18:51.000Z</time>
      </trkpt>
      <trkpt lat="42.69743" lon="0.66825">
        <ele>2079.5</ele>
        <time>2018-08-08T16:18:52.000Z</time>
      </trkpt>
      <trkpt lat="42.69743" lon="0.66825">
        <ele>2079.5</ele>
        <time>2018-08-08T16:18:53.000Z</time>
      </trkpt>
      <trkpt lat="42.69743" lon="0.66825">
        <ele>2079.5</ele>
        <time>2018-08-08T16:18:54.000Z</time>
      </trkpt>
      <trkpt lat="42.69743" lon="0.66825">
        <ele>2079.5</ele>
        <time>2018-08-08T16:18:55.000Z</time>
      </trkpt>
      <trkpt lat="42.69743" lon="0.66825">
        <ele>2079.5</ele>
        <time>2018-08-08T16:18:56.000Z</time>
      </trkpt>
      <trkpt lat="42.69743" lon="0.66825">
        <ele>2079.5</ele>
        <time>2018-08-08T16:18:57.000Z</time>
      </trkpt>
      <trkpt lat="42.69743" lon="0.66825">
        <ele>2079.5</ele>
        <time>2018-08-08T16:18:58.000Z</time>
      </trkpt>
      <trkpt lat="42.69743" lon="0.66825">
        <ele>2079.5</ele>
        <time>2018-08-08T16:18:59.000Z</time>
      </trkpt>
      <trkpt lat="42.69743" lon="0.66825">
        <ele>2079.5</ele>
        <time>2018-08-08T16:19:00.000Z</time>
      </trkpt>
      <trkpt lat="42.69743" lon="0.66825">
        <ele>2079.5</ele>
        <time>2018-08-08T16:19:01.000Z</time>
      </trkpt>
      <trkpt lat="42.69743" lon="0.66825">
        <ele>2079.5</ele>
        <time>2018-08-08T16:19:02.000Z</time>
      </trkpt>
      <trkpt lat="42.69743" lon="0.66825">
        <ele>2079.5</ele>
        <time>2018-08-08T16:19:03.000Z</time>
      </trkpt>
      <trkpt lat="42.69743" lon="0.66825">
        <ele>2079.5</ele>
        <time>2018-08-08T16:19:04.000Z</time>
      </trkpt>
      <trkpt lat="42.69743" lon="0.66825">
        <ele>2079.5</ele>
        <time>2018-08-08T16:19:05.000Z</time>
      </trkpt>
      <trkpt lat="42.69743" lon="0.66825">
        <ele>2079.5</ele>
        <time>2018-08-08T16:19:06.000Z</time>
      </trkpt>
      <trkpt lat="42.69743" lon="0.66825">
        <ele>2079.5</ele>
        <time>2018-08-08T16:19:07.000Z</time>
      </trkpt>
      <trkpt lat="42.69743" lon="0.66825">
        <ele>2079.5</ele>
        <time>2018-08-08T16:19:08.000Z</time>
      </trkpt>
      <trkpt lat="42.69743" lon="0.66825">
        <ele>2079.5</ele>
        <time>2018-08-08T16:19:09.000Z</time>
      </trkpt>
      <trkpt lat="42.69743" lon="0.66825">
        <ele>2079.5</ele>
        <time>2018-08-08T16:19:10.000Z</time>
      </trkpt>
      <trkpt lat="42.69743" lon="0.66825">
        <ele>2079.5</ele>
        <time>2018-08-08T16:19:11.000Z</time>
      </trkpt>
      <trkpt lat="42.69743" lon="0.66825">
        <ele>2079.5</ele>
        <time>2018-08-08T16:19:12.000Z</time>
      </trkpt>
      <trkpt lat="42.69743" lon="0.66825">
        <ele>2079.5</ele>
        <time>2018-08-08T16:19:13.000Z</time>
      </trkpt>
      <trkpt lat="42.69743" lon="0.66825">
        <ele>2079.5</ele>
        <time>2018-08-08T16:19:14.000Z</time>
      </trkpt>
      <trkpt lat="42.69743" lon="0.66825">
        <ele>2079.5</ele>
        <time>2018-08-08T16:19:15.000Z</time>
      </trkpt>
      <trkpt lat="42.69743" lon="0.66825">
        <ele>2079.5</ele>
        <time>2018-08-08T16:19:16.000Z</time>
      </trkpt>
      <trkpt lat="42.69743" lon="0.66825">
        <ele>2079.5</ele>
        <time>2018-08-08T16:19:17.000Z</time>
      </trkpt>
      <trkpt lat="42.69743" lon="0.66825">
        <ele>2079.5</ele>
        <time>2018-08-08T16:19:18.000Z</time>
      </trkpt>
      <trkpt lat="42.69743" lon="0.66825">
        <ele>2079.5</ele>
        <time>2018-08-08T16:19:19.000Z</time>
      </trkpt>
      <trkpt lat="42.69743" lon="0.66825">
        <ele>2079.5</ele>
        <time>2018-08-08T16:19:20.000Z</time>
      </trkpt>
      <trkpt lat="42.69743" lon="0.66825">
        <ele>2079.5</ele>
        <time>2018-08-08T16:19:21.000Z</time>
      </trkpt>
      <trkpt lat="42.69743" lon="0.66825">
        <ele>2079.5</ele>
        <time>2018-08-08T16:19:22.000Z</time>
      </trkpt>
      <trkpt lat="42.69743" lon="0.66825">
        <ele>2079.5</ele>
        <time>2018-08-08T16:19:23.000Z</time>
      </trkpt>
      <trkpt lat="42.69743" lon="0.66825">
        <ele>2079.5</ele>
        <time>2018-08-08T16:19:24.000Z</time>
      </trkpt>
      <trkpt lat="42.69743" lon="0.66825">
        <ele>2079.5</ele>
        <time>2018-08-08T16:19:25.000Z</time>
      </trkpt>
      <trkpt lat="42.69743" lon="0.66825">
        <ele>2079.5</ele>
        <time>2018-08-08T16:19:26.000Z</time>
      </trkpt>
      <trkpt lat="42.69743" lon="0.66825">
        <ele>2079.5</ele>
        <time>2018-08-08T16:19:27.000Z</time>
      </trkpt>
      <trkpt lat="42.69743" lon="0.66825">
        <ele>2079.5</ele>
        <time>2018-08-08T16:19:28.000Z</time>
      </trkpt>
      <trkpt lat="42.69743" lon="0.66825">
        <ele>2079.5</ele>
        <time>2018-08-08T16:19:29.000Z</time>
      </trkpt>
      <trkpt lat="42.69743" lon="0.66825">
        <ele>2079.5</ele>
        <time>2018-08-08T16:19:30.000Z</time>
      </trkpt>
      <trkpt lat="42.69743" lon="0.66825">
        <ele>2079.5</ele>
        <time>2018-08-08T16:19:31.000Z</time>
      </trkpt>
      <trkpt lat="42.69743" lon="0.66825">
        <ele>2079.5</ele>
        <time>2018-08-08T16:19:32.000Z</time>
      </trkpt>
      <trkpt lat="42.69743" lon="0.66825">
        <ele>2079.5</ele>
        <time>2018-08-08T16:19:33.000Z</time>
      </trkpt>
      <trkpt lat="42.69743" lon="0.66825">
        <ele>2079.5</ele>
        <time>2018-08-08T16:19:34.000Z</time>
      </trkpt>
      <trkpt lat="42.69743" lon="0.66825">
        <ele>2079.5</ele>
        <time>2018-08-08T16:19:35.000Z</time>
      </trkpt>
      <trkpt lat="42.69743" lon="0.66825">
        <ele>2079.5</ele>
        <time>2018-08-08T16:19:36.000Z</time>
      </trkpt>
      <trkpt lat="42.69743" lon="0.66825">
        <ele>2079.5</ele>
        <time>2018-08-08T16:19:37.000Z</time>
      </trkpt>
      <trkpt lat="42.69743" lon="0.66825">
        <ele>2079.5</ele>
        <time>2018-08-08T16:19:38.000Z</time>
      </trkpt>
      <trkpt lat="42.69743" lon="0.66825">
        <ele>2079.5</ele>
        <time>2018-08-08T16:19:39.000Z</time>
      </trkpt>
      <trkpt lat="42.69743" lon="0.66825">
        <ele>2079.5</ele>
        <time>2018-08-08T16:19:40.000Z</time>
      </trkpt>
      <trkpt lat="42.69743" lon="0.66825">
        <ele>2079.5</ele>
        <time>2018-08-08T16:19:41.000Z</time>
      </trkpt>
      <trkpt lat="42.69743" lon="0.66825">
        <ele>2079.5</ele>
        <time>2018-08-08T16:19:42.000Z</time>
      </trkpt>
      <trkpt lat="42.69743" lon="0.66825">
        <ele>2079.5</ele>
        <time>2018-08-08T16:19:43.000Z</time>
      </trkpt>
      <trkpt lat="42.69743" lon="0.66825">
        <ele>2079.5</ele>
        <time>2018-08-08T16:19:44.000Z</time>
      </trkpt>
      <trkpt lat="42.69743" lon="0.66825">
        <ele>2079.5</ele>
        <time>2018-08-08T16:19:45.000Z</time>
      </trkpt>
      <trkpt lat="42.69743" lon="0.66825">
        <ele>2079.5</ele>
        <time>2018-08-08T16:19:46.000Z</time>
      </trkpt>
      <trkpt lat="42.69743" lon="0.66825">
        <ele>2079.5</ele>
        <time>2018-08-08T16:19:47.000Z</time>
      </trkpt>
      <trkpt lat="42.69743" lon="0.66825">
        <ele>2079.5</ele>
        <time>2018-08-08T16:19:48.000Z</time>
      </trkpt>
      <trkpt lat="42.69743" lon="0.66825">
        <ele>2079.5</ele>
        <time>2018-08-08T16:19:49.000Z</time>
      </trkpt>
      <trkpt lat="42.69743" lon="0.66825">
        <ele>2079.5</ele>
        <time>2018-08-08T16:19:50.000Z</time>
      </trkpt>
      <trkpt lat="42.69743" lon="0.66825">
        <ele>2079.5</ele>
        <time>2018-08-08T16:19:51.000Z</time>
      </trkpt>
      <trkpt lat="42.69743" lon="0.66825">
        <ele>2079.5</ele>
        <time>2018-08-08T16:19:52.000Z</time>
      </trkpt>
      <trkpt lat="42.69743" lon="0.66825">
        <ele>2079.5</ele>
        <time>2018-08-08T16:19:53.000Z</time>
      </trkpt>
      <trkpt lat="42.69743" lon="0.66825">
        <ele>2079.5</ele>
        <time>2018-08-08T16:19:54.000Z</time>
      </trkpt>
      <trkpt lat="42.69743" lon="0.66825">
        <ele>2079.5</ele>
        <time>2018-08-08T16:19:55.000Z</time>
      </trkpt>
      <trkpt lat="42.69743" lon="0.66825">
        <ele>2079.5</ele>
        <time>2018-08-08T16:19:56.000Z</time>
      </trkpt>
      <trkpt lat="42.69743" lon="0.66825">
        <ele>2079.5</ele>
        <time>2018-08-08T16:19:57.000Z</time>
      </trkpt>
      <trkpt lat="42.69743" lon="0.66825">
        <ele>2079.5</ele>
        <time>2018-08-08T16:19:58.000Z</time>
      </trkpt>
      <trkpt lat="42.69743" lon="0.66825">
        <ele>2079.5</ele>
        <time>2018-08-08T16:19:59.000Z</time>
      </trkpt>
      <trkpt lat="42.69743" lon="0.66825">
        <ele>2079.5</ele>
        <time>2018-08-08T16:20:00.000Z</time>
      </trkpt>
      <trkpt lat="42.69743" lon="0.66825">
        <ele>2079.5</ele>
        <time>2018-08-08T16:20:01.000Z</time>
      </trkpt>
      <trkpt lat="42.69743" lon="0.66825">
        <ele>2079.5</ele>
        <time>2018-08-08T16:20:02.000Z</time>
      </trkpt>
      <trkpt lat="42.69743" lon="0.66825">
        <ele>2079.5</ele>
        <time>2018-08-08T16:20:03.000Z</time>
      </trkpt>
      <trkpt lat="42.69743" lon="0.66825">
        <ele>2079.5</ele>
        <time>2018-08-08T16:20:04.000Z</time>
      </trkpt>
      <trkpt lat="42.69743" lon="0.66825">
        <ele>2079.5</ele>
        <time>2018-08-08T16:20:05.000Z</time>
      </trkpt>
      <trkpt lat="42.69743" lon="0.66825">
        <ele>2079.5</ele>
        <time>2018-08-08T16:20:06.000Z</time>
      </trkpt>
      <trkpt lat="42.69743" lon="0.66825">
        <ele>2079.5</ele>
        <time>2018-08-08T16:20:07.000Z</time>
      </trkpt>
      <trkpt lat="42.69743" lon="0.66825">
        <ele>2079.5</ele>
        <time>2018-08-08T16:20:08.000Z</time>
      </trkpt>
      <trkpt lat="42.69743" lon="0.66825">
        <ele>2079.5</ele>
        <time>2018-08-08T16:20:09.000Z</time>
      </trkpt>
      <trkpt lat="42.69743" lon="0.66825">
        <ele>2079.5</ele>
        <time>2018-08-08T16:20:10.000Z</time>
      </trkpt>
      <trkpt lat="42.69743" lon="0.66825">
        <ele>2079.5</ele>
        <time>2018-08-08T16:20:11.000Z</time>
      </trkpt>
      <trkpt lat="42.69743" lon="0.66825">
        <ele>2079.5</ele>
        <time>2018-08-08T16:20:12.000Z</time>
      </trkpt>
      <trkpt lat="42.69743" lon="0.66825">
        <ele>2079.5</ele>
        <time>2018-08-08T16:20:13.000Z</time>
      </trkpt>
      <trkpt lat="42.69743" lon="0.66825">
        <ele>2079.5</ele>
        <time>2018-08-08T16:20:14.000Z</time>
      </trkpt>
      <trkpt lat="42.69743" lon="0.66825">
        <ele>2079.5</ele>
        <time>2018-08-08T16:20:15.000Z</time>
      </trkpt>
      <trkpt lat="42.69743" lon="0.66825">
        <ele>2079.5</ele>
        <time>2018-08-08T16:20:16.000Z</time>
      </trkpt>
      <trkpt lat="42.69743" lon="0.66825">
        <ele>2079.5</ele>
        <time>2018-08-08T16:20:17.000Z</time>
      </trkpt>
      <trkpt lat="42.69743" lon="0.66825">
        <ele>2079.5</ele>
        <time>2018-08-08T16:20:18.000Z</time>
      </trkpt>
      <trkpt lat="42.69743" lon="0.66825">
        <ele>2079.5</ele>
        <time>2018-08-08T16:20:19.000Z</time>
      </trkpt>
      <trkpt lat="42.69743" lon="0.66825">
        <ele>2079.5</ele>
        <time>2018-08-08T16:20:20.000Z</time>
      </trkpt>
      <trkpt lat="42.69743" lon="0.66825">
        <ele>2079.5</ele>
        <time>2018-08-08T16:20:21.000Z</time>
      </trkpt>
      <trkpt lat="42.69743" lon="0.66825">
        <ele>2079.5</ele>
        <time>2018-08-08T16:20:22.000Z</time>
      </trkpt>
      <trkpt lat="42.69743" lon="0.66825">
        <ele>2079.5</ele>
        <time>2018-08-08T16:20:23.000Z</time>
      </trkpt>
      <trkpt lat="42.69743" lon="0.66825">
        <ele>2079.5</ele>
        <time>2018-08-08T16:20:24.000Z</time>
      </trkpt>
      <trkpt lat="42.69743" lon="0.66825">
        <ele>2079.5</ele>
        <time>2018-08-08T16:20:25.000Z</time>
      </trkpt>
      <trkpt lat="42.69743" lon="0.66825">
        <ele>2079.5</ele>
        <time>2018-08-08T16:20:26.000Z</time>
      </trkpt>
      <trkpt lat="42.69743" lon="0.66825">
        <ele>2079.5</ele>
        <time>2018-08-08T16:20:27.000Z</time>
      </trkpt>
      <trkpt lat="42.69743" lon="0.66825">
        <ele>2079.5</ele>
        <time>2018-08-08T16:20:28.000Z</time>
      </trkpt>
      <trkpt lat="42.69743" lon="0.66825">
        <ele>2079.5</ele>
        <time>2018-08-08T16:20:29.000Z</time>
      </trkpt>
      <trkpt lat="42.69743" lon="0.66825">
        <ele>2079.5</ele>
        <time>2018-08-08T16:20:30.000Z</time>
      </trkpt>
      <trkpt lat="42.69743" lon="0.66825">
        <ele>2079.5</ele>
        <time>2018-08-08T16:20:31.000Z</time>
      </trkpt>
      <trkpt lat="42.69743" lon="0.66825">
        <ele>2079.5</ele>
        <time>2018-08-08T16:20:32.000Z</time>
      </trkpt>
      <trkpt lat="42.69743" lon="0.66825">
        <ele>2079.5</ele>
        <time>2018-08-08T16:20:33.000Z</time>
      </trkpt>
      <trkpt lat="42.69743" lon="0.66825">
        <ele>2079.5</ele>
        <time>2018-08-08T16:20:34.000Z</time>
      </trkpt>
      <trkpt lat="42.69743" lon="0.66825">
        <ele>2079.5</ele>
        <time>2018-08-08T16:20:35.000Z</time>
      </trkpt>
      <trkpt lat="42.69743" lon="0.66825">
        <ele>2079.5</ele>
        <time>2018-08-08T16:20:36.000Z</time>
      </trkpt>
      <trkpt lat="42.69743" lon="0.66825">
        <ele>2079.5</ele>
        <time>2018-08-08T16:20:37.000Z</time>
      </trkpt>
      <trkpt lat="42.69743" lon="0.66825">
        <ele>2079.5</ele>
        <time>2018-08-08T16:20:38.000Z</time>
      </trkpt>
      <trkpt lat="42.69743" lon="0.66825">
        <ele>2079.5</ele>
        <time>2018-08-08T16:20:39.000Z</time>
      </trkpt>
      <trkpt lat="42.69743" lon="0.66825">
        <ele>2079.5</ele>
        <time>2018-08-08T16:20:40.000Z</time>
      </trkpt>
      <trkpt lat="42.69743" lon="0.66825">
        <ele>2079.5</ele>
        <time>2018-08-08T16:20:41.000Z</time>
      </trkpt>
      <trkpt lat="42.69743" lon="0.66825">
        <ele>2079.5</ele>
        <time>2018-08-08T16:20:42.000Z</time>
      </trkpt>
      <trkpt lat="42.69743" lon="0.66825">
        <ele>2079.5</ele>
        <time>2018-08-08T16:20:43.000Z</time>
      </trkpt>
      <trkpt lat="42.69743" lon="0.66825">
        <ele>2079.5</ele>
        <time>2018-08-08T16:20:44.000Z</time>
      </trkpt>
      <trkpt lat="42.69743" lon="0.66825">
        <ele>2079.5</ele>
        <time>2018-08-08T16:20:45.000Z</time>
      </trkpt>
      <trkpt lat="42.69743" lon="0.66825">
        <ele>2079.5</ele>
        <time>2018-08-08T16:20:46.000Z</time>
      </trkpt>
      <trkpt lat="42.69743" lon="0.66825">
        <ele>2079.5</ele>
        <time>2018-08-08T16:20:47.000Z</time>
      </trkpt>
      <trkpt lat="42.69743" lon="0.66825">
        <ele>2079.5</ele>
        <time>2018-08-08T16:20:48.000Z</time>
      </trkpt>
      <trkpt lat="42.69743" lon="0.66825">
        <ele>2079.5</ele>
        <time>2018-08-08T16:20:49.000Z</time>
      </trkpt>
      <trkpt lat="42.69743" lon="0.66825">
        <ele>2079.5</ele>
        <time>2018-08-08T16:20:50.000Z</time>
      </trkpt>
      <trkpt lat="42.69743" lon="0.66825">
        <ele>2079.5</ele>
        <time>2018-08-08T16:20:51.000Z</time>
      </trkpt>
      <trkpt lat="42.69743" lon="0.66825">
        <ele>2079.5</ele>
        <time>2018-08-08T16:20:52.000Z</time>
      </trkpt>
      <trkpt lat="42.69743" lon="0.66825">
        <ele>2079.5</ele>
        <time>2018-08-08T16:20:53.000Z</time>
      </trkpt>
      <trkpt lat="42.69743" lon="0.66825">
        <ele>2079.5</ele>
        <time>2018-08-08T16:20:54.000Z</time>
      </trkpt>
      <trkpt lat="42.69743" lon="0.66825">
        <ele>2079.5</ele>
        <time>2018-08-08T16:20:55.000Z</time>
      </trkpt>
      <trkpt lat="42.69743" lon="0.66825">
        <ele>2079.5</ele>
        <time>2018-08-08T16:20:56.000Z</time>
      </trkpt>
      <trkpt lat="42.69743" lon="0.66825">
        <ele>2079.5</ele>
        <time>2018-08-08T16:20:57.000Z</time>
      </trkpt>
      <trkpt lat="42.69743" lon="0.66825">
        <ele>2079.5</ele>
        <time>2018-08-08T16:20:58.000Z</time>
      </trkpt>
      <trkpt lat="42.69743" lon="0.66825">
        <ele>2079.5</ele>
        <time>2018-08-08T16:20:59.000Z</time>
      </trkpt>
      <trkpt lat="42.69743" lon="0.66825">
        <ele>2079.5</ele>
        <time>2018-08-08T16:21:00.000Z</time>
      </trkpt>
      <trkpt lat="42.69743" lon="0.66825">
        <ele>2079.5</ele>
        <time>2018-08-08T16:21:01.000Z</time>
      </trkpt>
      <trkpt lat="42.69743" lon="0.66825">
        <ele>2079.5</ele>
        <time>2018-08-08T16:21:02.000Z</time>
      </trkpt>
      <trkpt lat="42.69743" lon="0.66825">
        <ele>2079.5</ele>
        <time>2018-08-08T16:21:03.000Z</time>
      </trkpt>
      <trkpt lat="42.69743" lon="0.66825">
        <ele>2079.5</ele>
        <time>2018-08-08T16:21:04.000Z</time>
      </trkpt>
      <trkpt lat="42.69743" lon="0.66825">
        <ele>2079.5</ele>
        <time>2018-08-08T16:21:05.000Z</time>
      </trkpt>
      <trkpt lat="42.69743" lon="0.66825">
        <ele>2079.5</ele>
        <time>2018-08-08T16:21:06.000Z</time>
      </trkpt>
      <trkpt lat="42.69743" lon="0.66825">
        <ele>2079.5</ele>
        <time>2018-08-08T16:21:07.000Z</time>
      </trkpt>
      <trkpt lat="42.69743" lon="0.66825">
        <ele>2079.5</ele>
        <time>2018-08-08T16:21:08.000Z</time>
      </trkpt>
      <trkpt lat="42.69743" lon="0.66825">
        <ele>2079.5</ele>
        <time>2018-08-08T16:21:09.000Z</time>
      </trkpt>
      <trkpt lat="42.69743" lon="0.66825">
        <ele>2079.5</ele>
        <time>2018-08-08T16:21:10.000Z</time>
      </trkpt>
      <trkpt lat="42.69743" lon="0.66825">
        <ele>2079.5</ele>
        <time>2018-08-08T16:21:11.000Z</time>
      </trkpt>
      <trkpt lat="42.69743" lon="0.66825">
        <ele>2079.5</ele>
        <time>2018-08-08T16:21:12.000Z</time>
      </trkpt>
      <trkpt lat="42.69743" lon="0.66825">
        <ele>2079.5</ele>
        <time>2018-08-08T16:21:13.000Z</time>
      </trkpt>
      <trkpt lat="42.69743" lon="0.66825">
        <ele>2079.5</ele>
        <time>2018-08-08T16:21:14.000Z</time>
      </trkpt>
      <trkpt lat="42.69743" lon="0.66825">
        <ele>2079.5</ele>
        <time>2018-08-08T16:21:15.000Z</time>
      </trkpt>
      <trkpt lat="42.69743" lon="0.66825">
        <ele>2079.5</ele>
        <time>2018-08-08T16:21:16.000Z</time>
      </trkpt>
      <trkpt lat="42.69743" lon="0.66825">
        <ele>2079.5</ele>
        <time>2018-08-08T16:21:17.000Z</time>
      </trkpt>
      <trkpt lat="42.69743" lon="0.66825">
        <ele>2079.5</ele>
        <time>2018-08-08T16:21:18.000Z</time>
      </trkpt>
      <trkpt lat="42.69743" lon="0.66825">
        <ele>2079.5</ele>
        <time>2018-08-08T16:21:19.000Z</time>
      </trkpt>
      <trkpt lat="42.69743" lon="0.66825">
        <ele>2079.5</ele>
        <time>2018-08-08T16:21:20.000Z</time>
      </trkpt>
      <trkpt lat="42.69743" lon="0.66825">
        <ele>2079.5</ele>
        <time>2018-08-08T16:21:21.000Z</time>
      </trkpt>
      <trkpt lat="42.69743" lon="0.66825">
        <ele>2079.5</ele>
        <time>2018-08-08T16:21:22.000Z</time>
      </trkpt>
      <trkpt lat="42.69743" lon="0.66825">
        <ele>2079.5</ele>
        <time>2018-08-08T16:21:23.000Z</time>
      </trkpt>
      <trkpt lat="42.69743" lon="0.66825">
        <ele>2079.5</ele>
        <time>2018-08-08T16:21:24.000Z</time>
      </trkpt>
      <trkpt lat="42.69743" lon="0.66825">
        <ele>2079.5</ele>
        <time>2018-08-08T16:21:25.000Z</time>
      </trkpt>
      <trkpt lat="42.69743" lon="0.66825">
        <ele>2079.5</ele>
        <time>2018-08-08T16:21:26.000Z</time>
      </trkpt>
      <trkpt lat="42.69743" lon="0.66825">
        <ele>2079.5</ele>
        <time>2018-08-08T16:21:27.000Z</time>
      </trkpt>
      <trkpt lat="42.69743" lon="0.66825">
        <ele>2079.5</ele>
        <time>2018-08-08T16:21:28.000Z</time>
      </trkpt>
      <trkpt lat="42.69743" lon="0.66825">
        <ele>2079.5</ele>
        <time>2018-08-08T16:21:29.000Z</time>
      </trkpt>
      <trkpt lat="42.69743" lon="0.66825">
        <ele>2079.5</ele>
        <time>2018-08-08T16:21:30.000Z</time>
      </trkpt>
      <trkpt lat="42.69743" lon="0.66825">
        <ele>2079.5</ele>
        <time>2018-08-08T16:21:31.000Z</time>
      </trkpt>
      <trkpt lat="42.69743" lon="0.66825">
        <ele>2079.5</ele>
        <time>2018-08-08T16:21:32.000Z</time>
      </trkpt>
      <trkpt lat="42.69743" lon="0.66825">
        <ele>2079.5</ele>
        <time>2018-08-08T16:21:33.000Z</time>
      </trkpt>
      <trkpt lat="42.69743" lon="0.66825">
        <ele>2079.5</ele>
        <time>2018-08-08T16:21:34.000Z</time>
      </trkpt>
      <trkpt lat="42.69743" lon="0.66825">
        <ele>2079.5</ele>
        <time>2018-08-08T16:21:35.000Z</time>
      </trkpt>
      <trkpt lat="42.69743" lon="0.66825">
        <ele>2079.5</ele>
        <time>2018-08-08T16:21:36.000Z</time>
      </trkpt>
      <trkpt lat="42.69743" lon="0.66825">
        <ele>2079.5</ele>
        <time>2018-08-08T16:21:37.000Z</time>
      </trkpt>
      <trkpt lat="42.69743" lon="0.66825">
        <ele>2079.5</ele>
        <time>2018-08-08T16:21:38.000Z</time>
      </trkpt>
      <trkpt lat="42.69743" lon="0.66825">
        <ele>2079.5</ele>
        <time>2018-08-08T16:21:39.000Z</time>
      </trkpt>
      <trkpt lat="42.69743" lon="0.66825">
        <ele>2079.5</ele>
        <time>2018-08-08T16:21:40.000Z</time>
      </trkpt>
      <trkpt lat="42.69743" lon="0.66825">
        <ele>2079.5</ele>
        <time>2018-08-08T16:21:41.000Z</time>
      </trkpt>
      <trkpt lat="42.69743" lon="0.66825">
        <ele>2079.5</ele>
        <time>2018-08-08T16:21:42.000Z</time>
      </trkpt>
      <trkpt lat="42.69743" lon="0.66825">
        <ele>2079.5</ele>
        <time>2018-08-08T16:21:43.000Z</time>
      </trkpt>
      <trkpt lat="42.69743" lon="0.66825">
        <ele>2079.5</ele>
        <time>2018-08-08T16:21:44.000Z</time>
      </trkpt>
      <trkpt lat="42.69743" lon="0.66825">
        <ele>2079.5</ele>
        <time>2018-08-08T16:21:45.000Z</time>
      </trkpt>
      <trkpt lat="42.69743" lon="0.66825">
        <ele>2079.5</ele>
        <time>2018-08-08T16:21:46.000Z</time>
      </trkpt>
      <trkpt lat="42.69743" lon="0.66825">
        <ele>2079.5</ele>
        <time>2018-08-08T16:21:47.000Z</time>
      </trkpt>
      <trkpt lat="42.69743" lon="0.66825">
        <ele>2079.5</ele>
        <time>2018-08-08T16:21:48.000Z</time>
      </trkpt>
      <trkpt lat="42.69743" lon="0.66825">
        <ele>2079.5</ele>
        <time>2018-08-08T16:21:49.000Z</time>
      </trkpt>
      <trkpt lat="42.69743" lon="0.66825">
        <ele>2079.5</ele>
        <time>2018-08-08T16:21:50.000Z</time>
      </trkpt>
      <trkpt lat="42.69743" lon="0.66825">
        <ele>2079.5</ele>
        <time>2018-08-08T16:21:51.000Z</time>
      </trkpt>
      <trkpt lat="42.69743" lon="0.66825">
        <ele>2079.5</ele>
        <time>2018-08-08T16:21:52.000Z</time>
      </trkpt>
      <trkpt lat="42.69743" lon="0.66825">
        <ele>2079.5</ele>
        <time>2018-08-08T16:21:53.000Z</time>
      </trkpt>
      <trkpt lat="42.69743" lon="0.66825">
        <ele>2079.5</ele>
        <time>2018-08-08T16:21:54.000Z</time>
      </trkpt>
      <trkpt lat="42.69743" lon="0.66825">
        <ele>2079.5</ele>
        <time>2018-08-08T16:21:55.000Z</time>
      </trkpt>
      <trkpt lat="42.69743" lon="0.66825">
        <ele>2079.5</ele>
        <time>2018-08-08T16:21:56.000Z</time>
      </trkpt>
      <trkpt lat="42.69743" lon="0.66825">
        <ele>2079.5</ele>
        <time>2018-08-08T16:21:57.000Z</time>
      </trkpt>
      <trkpt lat="42.69743" lon="0.66825">
        <ele>2079.5</ele>
        <time>2018-08-08T16:21:58.000Z</time>
      </trkpt>
      <trkpt lat="42.69743" lon="0.66825">
        <ele>2079.5</ele>
        <time>2018-08-08T16:21:59.000Z</time>
      </trkpt>
      <trkpt lat="42.69743" lon="0.66825">
        <ele>2079.5</ele>
        <time>2018-08-08T16:22:00.000Z</time>
      </trkpt>
      <trkpt lat="42.69743" lon="0.66825">
        <ele>2079.5</ele>
        <time>2018-08-08T16:22:01.000Z</time>
      </trkpt>
      <trkpt lat="42.69743" lon="0.66825">
        <ele>2079.5</ele>
        <time>2018-08-08T16:22:02.000Z</time>
      </trkpt>
      <trkpt lat="42.69743" lon="0.66825">
        <ele>2079.5</ele>
        <time>2018-08-08T16:22:03.000Z</time>
      </trkpt>
      <trkpt lat="42.69743" lon="0.66825">
        <ele>2079.5</ele>
        <time>2018-08-08T16:22:04.000Z</time>
      </trkpt>
      <trkpt lat="42.69743" lon="0.66825">
        <ele>2079.5</ele>
        <time>2018-08-08T16:22:05.000Z</time>
      </trkpt>
      <trkpt lat="42.69743" lon="0.66825">
        <ele>2079.5</ele>
        <time>2018-08-08T16:22:06.000Z</time>
      </trkpt>
      <trkpt lat="42.69743" lon="0.66825">
        <ele>2079.5</ele>
        <time>2018-08-08T16:22:07.000Z</time>
      </trkpt>
      <trkpt lat="42.69743" lon="0.66825">
        <ele>2079.5</ele>
        <time>2018-08-08T16:22:08.000Z</time>
      </trkpt>
      <trkpt lat="42.69743" lon="0.66825">
        <ele>2079.5</ele>
        <time>2018-08-08T16:22:09.000Z</time>
      </trkpt>
      <trkpt lat="42.69743" lon="0.66825">
        <ele>2079.5</ele>
        <time>2018-08-08T16:22:10.000Z</time>
      </trkpt>
      <trkpt lat="42.69743" lon="0.66825">
        <ele>2079.5</ele>
        <time>2018-08-08T16:22:11.000Z</time>
      </trkpt>
      <trkpt lat="42.69743" lon="0.66825">
        <ele>2079.5</ele>
        <time>2018-08-08T16:22:12.000Z</time>
      </trkpt>
      <trkpt lat="42.69743" lon="0.66825">
        <ele>2079.5</ele>
        <time>2018-08-08T16:22:13.000Z</time>
      </trkpt>
      <trkpt lat="42.69743" lon="0.66825">
        <ele>2079.5</ele>
        <time>2018-08-08T16:22:14.000Z</time>
      </trkpt>
      <trkpt lat="42.69743" lon="0.66825">
        <ele>2079.5</ele>
        <time>2018-08-08T16:22:15.000Z</time>
      </trkpt>
      <trkpt lat="42.69743" lon="0.66825">
        <ele>2079.5</ele>
        <time>2018-08-08T16:22:16.000Z</time>
      </trkpt>
      <trkpt lat="42.69743" lon="0.66825">
        <ele>2079.5</ele>
        <time>2018-08-08T16:22:17.000Z</time>
      </trkpt>
      <trkpt lat="42.69743" lon="0.66825">
        <ele>2079.5</ele>
        <time>2018-08-08T16:22:18.000Z</time>
      </trkpt>
      <trkpt lat="42.69743" lon="0.66825">
        <ele>2079.5</ele>
        <time>2018-08-08T16:22:19.000Z</time>
      </trkpt>
      <trkpt lat="42.69743" lon="0.66825">
        <ele>2079.5</ele>
        <time>2018-08-08T16:22:20.000Z</time>
      </trkpt>
      <trkpt lat="42.69743" lon="0.66825">
        <ele>2079.5</ele>
        <time>2018-08-08T16:22:21.000Z</time>
      </trkpt>
      <trkpt lat="42.69743" lon="0.66825">
        <ele>2079.5</ele>
        <time>2018-08-08T16:22:22.000Z</time>
      </trkpt>
      <trkpt lat="42.69743" lon="0.66825">
        <ele>2079.5</ele>
        <time>2018-08-08T16:22:23.000Z</time>
      </trkpt>
      <trkpt lat="42.69743" lon="0.66825">
        <ele>2079.5</ele>
        <time>2018-08-08T16:22:24.000Z</time>
      </trkpt>
      <trkpt lat="42.69743" lon="0.66825">
        <ele>2079.5</ele>
        <time>2018-08-08T16:22:25.000Z</time>
      </trkpt>
      <trkpt lat="42.69743" lon="0.66825">
        <ele>2079.5</ele>
        <time>2018-08-08T16:22:26.000Z</time>
      </trkpt>
      <trkpt lat="42.69743" lon="0.66825">
        <ele>2079.5</ele>
        <time>2018-08-08T16:22:27.000Z</time>
      </trkpt>
      <trkpt lat="42.69743" lon="0.66825">
        <ele>2079.5</ele>
        <time>2018-08-08T16:22:28.000Z</time>
      </trkpt>
      <trkpt lat="42.69743" lon="0.66825">
        <ele>2079.5</ele>
        <time>2018-08-08T16:22:29.000Z</time>
      </trkpt>
      <trkpt lat="42.69743" lon="0.66825">
        <ele>2079.5</ele>
        <time>2018-08-08T16:22:30.000Z</time>
      </trkpt>
      <trkpt lat="42.69743" lon="0.66825">
        <ele>2079.5</ele>
        <time>2018-08-08T16:22:31.000Z</time>
      </trkpt>
      <trkpt lat="42.69743" lon="0.66825">
        <ele>2079.5</ele>
        <time>2018-08-08T16:22:32.000Z</time>
      </trkpt>
      <trkpt lat="42.69743" lon="0.66825">
        <ele>2079.5</ele>
        <time>2018-08-08T16:22:33.000Z</time>
      </trkpt>
      <trkpt lat="42.69743" lon="0.66825">
        <ele>2079.5</ele>
        <time>2018-08-08T16:22:34.000Z</time>
      </trkpt>
      <trkpt lat="42.69743" lon="0.66825">
        <ele>2079.5</ele>
        <time>2018-08-08T16:22:35.000Z</time>
      </trkpt>
      <trkpt lat="42.69743" lon="0.66825">
        <ele>2079.5</ele>
        <time>2018-08-08T16:22:36.000Z</time>
      </trkpt>
      <trkpt lat="42.69743" lon="0.66825">
        <ele>2079.5</ele>
        <time>2018-08-08T16:22:37.000Z</time>
      </trkpt>
      <trkpt lat="42.69743" lon="0.66825">
        <ele>2079.5</ele>
        <time>2018-08-08T16:22:38.000Z</time>
      </trkpt>
      <trkpt lat="42.69743" lon="0.66825">
        <ele>2079.5</ele>
        <time>2018-08-08T16:22:39.000Z</time>
      </trkpt>
      <trkpt lat="42.69743" lon="0.66825">
        <ele>2079.5</ele>
        <time>2018-08-08T16:22:40.000Z</time>
      </trkpt>
      <trkpt lat="42.69743" lon="0.66825">
        <ele>2079.5</ele>
        <time>2018-08-08T16:22:41.000Z</time>
      </trkpt>
      <trkpt lat="42.69743" lon="0.66825">
        <ele>2079.5</ele>
        <time>2018-08-08T16:22:42.000Z</time>
      </trkpt>
      <trkpt lat="42.69743" lon="0.66825">
        <ele>2079.5</ele>
        <time>2018-08-08T16:22:43.000Z</time>
      </trkpt>
      <trkpt lat="42.69743" lon="0.66825">
        <ele>2079.5</ele>
        <time>2018-08-08T16:22:44.000Z</time>
      </trkpt>
      <trkpt lat="42.69743" lon="0.66825">
        <ele>2079.5</ele>
        <time>2018-08-08T16:22:45.000Z</time>
      </trkpt>
      <trkpt lat="42.69743" lon="0.66825">
        <ele>2079.5</ele>
        <time>2018-08-08T16:22:46.000Z</time>
      </trkpt>
      <trkpt lat="42.69743" lon="0.66825">
        <ele>2079.5</ele>
        <time>2018-08-08T16:22:47.000Z</time>
      </trkpt>
      <trkpt lat="42.69743" lon="0.66825">
        <ele>2079.5</ele>
        <time>2018-08-08T16:22:48.000Z</time>
      </trkpt>
      <trkpt lat="42.69743" lon="0.66825">
        <ele>2079.5</ele>
        <time>2018-08-08T16:22:49.000Z</time>
      </trkpt>
      <trkpt lat="42.69743" lon="0.66825">
        <ele>2079.5</ele>
        <time>2018-08-08T16:22:50.000Z</time>
      </trkpt>
      <trkpt lat="42.69743" lon="0.66825">
        <ele>2079.5</ele>
        <time>2018-08-08T16:22:51.000Z</time>
      </trkpt>
      <trkpt lat="42.69743" lon="0.66825">
        <ele>2079.5</ele>
        <time>2018-08-08T16:22:52.000Z</time>
      </trkpt>
      <trkpt lat="42.69743" lon="0.66825">
        <ele>2079.5</ele>
        <time>2018-08-08T16:22:53.000Z</time>
      </trkpt>
      <trkpt lat="42.69743" lon="0.66825">
        <ele>2079.5</ele>
        <time>2018-08-08T16:22:54.000Z</time>
      </trkpt>
      <trkpt lat="42.69743" lon="0.66825">
        <ele>2079.5</ele>
        <time>2018-08-08T16:22:55.000Z</time>
      </trkpt>
      <trkpt lat="42.69743" lon="0.66825">
        <ele>2079.5</ele>
        <time>2018-08-08T16:22:56.000Z</time>
      </trkpt>
      <trkpt lat="42.69743" lon="0.66825">
        <ele>2079.5</ele>
        <time>2018-08-08T16:22:57.000Z</time>
      </trkpt>
      <trkpt lat="42.69743" lon="0.66825">
        <ele>2079.5</ele>
        <time>2018-08-08T16:22:58.000Z</time>
      </trkpt>
      <trkpt lat="42.69743" lon="0.66825">
        <ele>2079.5</ele>
        <time>2018-08-08T16:22:59.000Z</time>
      </trkpt>
      <trkpt lat="42.69743" lon="0.66825">
        <ele>2079.5</ele>
        <time>2018-08-08T16:23:00.000Z</time>
      </trkpt>
      <trkpt lat="42.69743" lon="0.66825">
        <ele>2079.5</ele>
        <time>2018-08-08T16:23:01.000Z</time>
      </trkpt>
      <trkpt lat="42.69743" lon="0.66825">
        <ele>2079.5</ele>
        <time>2018-08-08T16:23:02.000Z</time>
      </trkpt>
      <trkpt lat="42.69743" lon="0.66825">
        <ele>2079.5</ele>
        <time>2018-08-08T16:23:03.000Z</time>
      </trkpt>
      <trkpt lat="42.69743" lon="0.66825">
        <ele>2079.5</ele>
        <time>2018-08-08T16:23:04.000Z</time>
      </trkpt>
      <trkpt lat="42.69743" lon="0.66825">
        <ele>2079.5</ele>
        <time>2018-08-08T16:23:05.000Z</time>
      </trkpt>
      <trkpt lat="42.69743" lon="0.66825">
        <ele>2079.5</ele>
        <time>2018-08-08T16:23:06.000Z</time>
      </trkpt>
      <trkpt lat="42.69743" lon="0.66825">
        <ele>2079.5</ele>
        <time>2018-08-08T16:23:07.000Z</time>
      </trkpt>
      <trkpt lat="42.69743" lon="0.66825">
        <ele>2079.5</ele>
        <time>2018-08-08T16:23:08.000Z</time>
      </trkpt>
      <trkpt lat="42.69743" lon="0.66825">
        <ele>2079.5</ele>
        <time>2018-08-08T16:23:09.000Z</time>
      </trkpt>
      <trkpt lat="42.69743" lon="0.66825">
        <ele>2079.5</ele>
        <time>2018-08-08T16:23:10.000Z</time>
      </trkpt>
      <trkpt lat="42.69743" lon="0.66825">
        <ele>2079.5</ele>
        <time>2018-08-08T16:23:11.000Z</time>
      </trkpt>
      <trkpt lat="42.69743" lon="0.66825">
        <ele>2079.5</ele>
        <time>2018-08-08T16:23:12.000Z</time>
      </trkpt>
      <trkpt lat="42.69743" lon="0.66825">
        <ele>2079.5</ele>
        <time>2018-08-08T16:23:13.000Z</time>
      </trkpt>
      <trkpt lat="42.69743" lon="0.66825">
        <ele>2079.5</ele>
        <time>2018-08-08T16:23:14.000Z</time>
      </trkpt>
      <trkpt lat="42.69743" lon="0.66825">
        <ele>2079.5</ele>
        <time>2018-08-08T16:23:15.000Z</time>
      </trkpt>
      <trkpt lat="42.69743" lon="0.66825">
        <ele>2079.5</ele>
        <time>2018-08-08T16:23:16.000Z</time>
      </trkpt>
      <trkpt lat="42.69743" lon="0.66825">
        <ele>2079.5</ele>
        <time>2018-08-08T16:23:17.000Z</time>
      </trkpt>
      <trkpt lat="42.69743" lon="0.66825">
        <ele>2079.5</ele>
        <time>2018-08-08T16:23:18.000Z</time>
      </trkpt>
      <trkpt lat="42.69743" lon="0.66825">
        <ele>2079.5</ele>
        <time>2018-08-08T16:23:19.000Z</time>
      </trkpt>
      <trkpt lat="42.69743" lon="0.66825">
        <ele>2079.5</ele>
        <time>2018-08-08T16:23:20.000Z</time>
      </trkpt>
      <trkpt lat="42.69743" lon="0.66825">
        <ele>2079.5</ele>
        <time>2018-08-08T16:23:21.000Z</time>
      </trkpt>
      <trkpt lat="42.69743" lon="0.66825">
        <ele>2079.5</ele>
        <time>2018-08-08T16:23:22.000Z</time>
      </trkpt>
      <trkpt lat="42.69743" lon="0.66825">
        <ele>2079.5</ele>
        <time>2018-08-08T16:23:23.000Z</time>
      </trkpt>
      <trkpt lat="42.69743" lon="0.66825">
        <ele>2079.5</ele>
        <time>2018-08-08T16:23:24.000Z</time>
      </trkpt>
      <trkpt lat="42.69743" lon="0.66825">
        <ele>2079.5</ele>
        <time>2018-08-08T16:23:25.000Z</time>
      </trkpt>
      <trkpt lat="42.69743" lon="0.66825">
        <ele>2079.5</ele>
        <time>2018-08-08T16:23:26.000Z</time>
      </trkpt>
      <trkpt lat="42.69743" lon="0.66825">
        <ele>2079.5</ele>
        <time>2018-08-08T16:23:27.000Z</time>
      </trkpt>
      <trkpt lat="42.69743" lon="0.66825">
        <ele>2079.5</ele>
        <time>2018-08-08T16:23:28.000Z</time>
      </trkpt>
      <trkpt lat="42.69743" lon="0.66825">
        <ele>2079.5</ele>
        <time>2018-08-08T16:23:29.000Z</time>
      </trkpt>
      <trkpt lat="42.69743" lon="0.66825">
        <ele>2079.5</ele>
        <time>2018-08-08T16:23:30.000Z</time>
      </trkpt>
      <trkpt lat="42.69743" lon="0.66825">
        <ele>2079.5</ele>
        <time>2018-08-08T16:23:31.000Z</time>
      </trkpt>
      <trkpt lat="42.69743" lon="0.66825">
        <ele>2079.5</ele>
        <time>2018-08-08T16:23:32.000Z</time>
      </trkpt>
      <trkpt lat="42.69743" lon="0.66825">
        <ele>2079.5</ele>
        <time>2018-08-08T16:23:33.000Z</time>
      </trkpt>
      <trkpt lat="42.69743" lon="0.66825">
        <ele>2079.5</ele>
        <time>2018-08-08T16:23:34.000Z</time>
      </trkpt>
      <trkpt lat="42.69743" lon="0.66825">
        <ele>2079.5</ele>
        <time>2018-08-08T16:23:35.000Z</time>
      </trkpt>
      <trkpt lat="42.69743" lon="0.66825">
        <ele>2079.5</ele>
        <time>2018-08-08T16:23:36.000Z</time>
      </trkpt>
      <trkpt lat="42.69743" lon="0.66825">
        <ele>2079.5</ele>
        <time>2018-08-08T16:23:37.000Z</time>
      </trkpt>
      <trkpt lat="42.69743" lon="0.66825">
        <ele>2079.5</ele>
        <time>2018-08-08T16:23:38.000Z</time>
      </trkpt>
      <trkpt lat="42.69743" lon="0.66825">
        <ele>2079.5</ele>
        <time>2018-08-08T16:23:39.000Z</time>
      </trkpt>
      <trkpt lat="42.69743" lon="0.66825">
        <ele>2079.5</ele>
        <time>2018-08-08T16:23:40.000Z</time>
      </trkpt>
      <trkpt lat="42.69743" lon="0.66825">
        <ele>2079.5</ele>
        <time>2018-08-08T16:23:41.000Z</time>
      </trkpt>
      <trkpt lat="42.69743" lon="0.66825">
        <ele>2079.5</ele>
        <time>2018-08-08T16:23:42.000Z</time>
      </trkpt>
      <trkpt lat="42.69743" lon="0.66825">
        <ele>2079.5</ele>
        <time>2018-08-08T16:23:43.000Z</time>
      </trkpt>
      <trkpt lat="42.69743" lon="0.66825">
        <ele>2079.5</ele>
        <time>2018-08-08T16:23:44.000Z</time>
      </trkpt>
      <trkpt lat="42.69743" lon="0.66825">
        <ele>2079.5</ele>
        <time>2018-08-08T16:23:45.000Z</time>
      </trkpt>
      <trkpt lat="42.69743" lon="0.66825">
        <ele>2079.5</ele>
        <time>2018-08-08T16:23:46.000Z</time>
      </trkpt>
      <trkpt lat="42.69743" lon="0.66825">
        <ele>2079.5</ele>
        <time>2018-08-08T16:23:47.000Z</time>
      </trkpt>
      <trkpt lat="42.69743" lon="0.66825">
        <ele>2079.5</ele>
        <time>2018-08-08T16:23:48.000Z</time>
      </trkpt>
      <trkpt lat="42.69743" lon="0.66825">
        <ele>2079.5</ele>
        <time>2018-08-08T16:23:49.000Z</time>
      </trkpt>
      <trkpt lat="42.69743" lon="0.66825">
        <ele>2079.5</ele>
        <time>2018-08-08T16:23:50.000Z</time>
      </trkpt>
      <trkpt lat="42.69743" lon="0.66825">
        <ele>2079.5</ele>
        <time>2018-08-08T16:23:51.000Z</time>
      </trkpt>
      <trkpt lat="42.69743" lon="0.66825">
        <ele>2079.5</ele>
        <time>2018-08-08T16:23:52.000Z</time>
      </trkpt>
      <trkpt lat="42.69743" lon="0.66825">
        <ele>2079.5</ele>
        <time>2018-08-08T16:23:53.000Z</time>
      </trkpt>
      <trkpt lat="42.69743" lon="0.66825">
        <ele>2079.5</ele>
        <time>2018-08-08T16:23:54.000Z</time>
      </trkpt>
      <trkpt lat="42.69743" lon="0.66825">
        <ele>2079.5</ele>
        <time>2018-08-08T16:23:55.000Z</time>
      </trkpt>
      <trkpt lat="42.69743" lon="0.66825">
        <ele>2079.5</ele>
        <time>2018-08-08T16:23:56.000Z</time>
      </trkpt>
      <trkpt lat="42.69743" lon="0.66825">
        <ele>2079.5</ele>
        <time>2018-08-08T16:23:57.000Z</time>
      </trkpt>
      <trkpt lat="42.69743" lon="0.66825">
        <ele>2079.5</ele>
        <time>2018-08-08T16:23:58.000Z</time>
      </trkpt>
      <trkpt lat="42.69743" lon="0.66825">
        <ele>2079.5</ele>
        <time>2018-08-08T16:23:59.000Z</time>
      </trkpt>
      <trkpt lat="42.69743" lon="0.66825">
        <ele>2079.5</ele>
        <time>2018-08-08T16:24:00.000Z</time>
      </trkpt>
      <trkpt lat="42.69743" lon="0.66825">
        <ele>2079.5</ele>
        <time>2018-08-08T16:24:01.000Z</time>
      </trkpt>
      <trkpt lat="42.69743" lon="0.66825">
        <ele>2079.5</ele>
        <time>2018-08-08T16:24:02.000Z</time>
      </trkpt>
      <trkpt lat="42.69743" lon="0.66825">
        <ele>2079.5</ele>
        <time>2018-08-08T16:24:03.000Z</time>
      </trkpt>
      <trkpt lat="42.69743" lon="0.66825">
        <ele>2079.5</ele>
        <time>2018-08-08T16:24:04.000Z</time>
      </trkpt>
      <trkpt lat="42.69743" lon="0.66825">
        <ele>2079.5</ele>
        <time>2018-08-08T16:24:05.000Z</time>
      </trkpt>
      <trkpt lat="42.69743" lon="0.66825">
        <ele>2079.5</ele>
        <time>2018-08-08T16:24:06.000Z</time>
      </trkpt>
      <trkpt lat="42.69743" lon="0.66825">
        <ele>2079.5</ele>
        <time>2018-08-08T16:24:07.000Z</time>
      </trkpt>
      <trkpt lat="42.69743" lon="0.66825">
        <ele>2079.5</ele>
        <time>2018-08-08T16:24:08.000Z</time>
      </trkpt>
      <trkpt lat="42.69743" lon="0.66825">
        <ele>2079.5</ele>
        <time>2018-08-08T16:24:09.000Z</time>
      </trkpt>
      <trkpt lat="42.69743" lon="0.66825">
        <ele>2079.5</ele>
        <time>2018-08-08T16:24:10.000Z</time>
      </trkpt>
      <trkpt lat="42.69743" lon="0.66825">
        <ele>2079.5</ele>
        <time>2018-08-08T16:24:11.000Z</time>
      </trkpt>
      <trkpt lat="42.69743" lon="0.66825">
        <ele>2079.5</ele>
        <time>2018-08-08T16:24:12.000Z</time>
      </trkpt>
      <trkpt lat="42.69743" lon="0.66825">
        <ele>2079.5</ele>
        <time>2018-08-08T16:24:13.000Z</time>
      </trkpt>
      <trkpt lat="42.69743" lon="0.66825">
        <ele>2079.5</ele>
        <time>2018-08-08T16:24:14.000Z</time>
      </trkpt>
      <trkpt lat="42.69743" lon="0.66825">
        <ele>2079.5</ele>
        <time>2018-08-08T16:24:15.000Z</time>
      </trkpt>
      <trkpt lat="42.69743" lon="0.66825">
        <ele>2079.5</ele>
        <time>2018-08-08T16:24:16.000Z</time>
      </trkpt>
      <trkpt lat="42.69743" lon="0.66825">
        <ele>2079.5</ele>
        <time>2018-08-08T16:24:17.000Z</time>
      </trkpt>
      <trkpt lat="42.69743" lon="0.66825">
        <ele>2079.5</ele>
        <time>2018-08-08T16:24:18.000Z</time>
      </trkpt>
      <trkpt lat="42.69743" lon="0.66825">
        <ele>2079.5</ele>
        <time>2018-08-08T16:24:19.000Z</time>
      </trkpt>
      <trkpt lat="42.69743" lon="0.66825">
        <ele>2079.5</ele>
        <time>2018-08-08T16:24:20.000Z</time>
      </trkpt>
      <trkpt lat="42.69743" lon="0.66825">
        <ele>2079.5</ele>
        <time>2018-08-08T16:24:21.000Z</time>
      </trkpt>
      <trkpt lat="42.69743" lon="0.66825">
        <ele>2079.5</ele>
        <time>2018-08-08T16:24:22.000Z</time>
      </trkpt>
      <trkpt lat="42.69743" lon="0.66825">
        <ele>2079.5</ele>
        <time>2018-08-08T16:24:23.000Z</time>
      </trkpt>
      <trkpt lat="42.69743" lon="0.66825">
        <ele>2079.5</ele>
        <time>2018-08-08T16:24:24.000Z</time>
      </trkpt>
      <trkpt lat="42.69743" lon="0.66825">
        <ele>2079.5</ele>
        <time>2018-08-08T16:24:25.000Z</time>
      </trkpt>
      <trkpt lat="42.69743" lon="0.66825">
        <ele>2079.5</ele>
        <time>2018-08-08T16:24:26.000Z</time>
      </trkpt>
      <trkpt lat="42.69743" lon="0.66825">
        <ele>2079.5</ele>
        <time>2018-08-08T16:24:27.000Z</time>
      </trkpt>
      <trkpt lat="42.69743" lon="0.66825">
        <ele>2079.5</ele>
        <time>2018-08-08T16:24:28.000Z</time>
      </trkpt>
      <trkpt lat="42.69743" lon="0.66825">
        <ele>2079.5</ele>
        <time>2018-08-08T16:24:29.000Z</time>
      </trkpt>
      <trkpt lat="42.69743" lon="0.66825">
        <ele>2079.5</ele>
        <time>2018-08-08T16:24:30.000Z</time>
      </trkpt>
      <trkpt lat="42.69743" lon="0.66825">
        <ele>2079.5</ele>
        <time>2018-08-08T16:24:31.000Z</time>
      </trkpt>
      <trkpt lat="42.69743" lon="0.66825">
        <ele>2079.5</ele>
        <time>2018-08-08T16:24:32.000Z</time>
      </trkpt>
      <trkpt lat="42.69743" lon="0.66825">
        <ele>2079.5</ele>
        <time>2018-08-08T16:24:33.000Z</time>
      </trkpt>
      <trkpt lat="42.69743" lon="0.66825">
        <ele>2079.5</ele>
        <time>2018-08-08T16:24:34.000Z</time>
      </trkpt>
      <trkpt lat="42.69743" lon="0.66825">
        <ele>2079.5</ele>
        <time>2018-08-08T16:24:35.000Z</time>
      </trkpt>
      <trkpt lat="42.69743" lon="0.66825">
        <ele>2079.5</ele>
        <time>2018-08-08T16:24:36.000Z</time>
      </trkpt>
      <trkpt lat="42.69743" lon="0.66825">
        <ele>2079.5</ele>
        <time>2018-08-08T16:24:37.000Z</time>
      </trkpt>
      <trkpt lat="42.69743" lon="0.66825">
        <ele>2079.5</ele>
        <time>2018-08-08T16:24:38.000Z</time>
      </trkpt>
      <trkpt lat="42.69743" lon="0.66825">
        <ele>2079.5</ele>
        <time>2018-08-08T16:24:39.000Z</time>
      </trkpt>
      <trkpt lat="42.69743" lon="0.66825">
        <ele>2079.5</ele>
        <time>2018-08-08T16:24:40.000Z</time>
      </trkpt>
      <trkpt lat="42.69743" lon="0.66825">
        <ele>2079.5</ele>
        <time>2018-08-08T16:24:41.000Z</time>
      </trkpt>
      <trkpt lat="42.69743" lon="0.66825">
        <ele>2079.5</ele>
        <time>2018-08-08T16:24:42.000Z</time>
      </trkpt>
      <trkpt lat="42.69743" lon="0.66825">
        <ele>2079.5</ele>
        <time>2018-08-08T16:24:43.000Z</time>
      </trkpt>
      <trkpt lat="42.69743" lon="0.66825">
        <ele>2079.5</ele>
        <time>2018-08-08T16:24:44.000Z</time>
      </trkpt>
      <trkpt lat="42.69743" lon="0.66825">
        <ele>2079.5</ele>
        <time>2018-08-08T16:24:45.000Z</time>
      </trkpt>
      <trkpt lat="42.69743" lon="0.66825">
        <ele>2079.5</ele>
        <time>2018-08-08T16:24:46.000Z</time>
      </trkpt>
      <trkpt lat="42.69743" lon="0.66825">
        <ele>2079.5</ele>
        <time>2018-08-08T16:24:47.000Z</time>
      </trkpt>
      <trkpt lat="42.69743" lon="0.66825">
        <ele>2079.5</ele>
        <time>2018-08-08T16:24:48.000Z</time>
      </trkpt>
      <trkpt lat="42.69743" lon="0.66825">
        <ele>2079.5</ele>
        <time>2018-08-08T16:24:49.000Z</time>
      </trkpt>
      <trkpt lat="42.69743" lon="0.66825">
        <ele>2079.5</ele>
        <time>2018-08-08T16:24:50.000Z</time>
      </trkpt>
      <trkpt lat="42.69743" lon="0.66825">
        <ele>2079.5</ele>
        <time>2018-08-08T16:24:51.000Z</time>
      </trkpt>
      <trkpt lat="42.69743" lon="0.66825">
        <ele>2079.5</ele>
        <time>2018-08-08T16:24:52.000Z</time>
      </trkpt>
      <trkpt lat="42.69743" lon="0.66825">
        <ele>2079.5</ele>
        <time>2018-08-08T16:24:53.000Z</time>
      </trkpt>
      <trkpt lat="42.69743" lon="0.66825">
        <ele>2079.5</ele>
        <time>2018-08-08T16:24:54.000Z</time>
      </trkpt>
      <trkpt lat="42.69743" lon="0.66825">
        <ele>2079.5</ele>
        <time>2018-08-08T16:24:55.000Z</time>
      </trkpt>
      <trkpt lat="42.69743" lon="0.66825">
        <ele>2079.5</ele>
        <time>2018-08-08T16:24:56.000Z</time>
      </trkpt>
      <trkpt lat="42.69743" lon="0.66825">
        <ele>2079.5</ele>
        <time>2018-08-08T16:24:57.000Z</time>
      </trkpt>
      <trkpt lat="42.69743" lon="0.66825">
        <ele>2079.5</ele>
        <time>2018-08-08T16:24:58.000Z</time>
      </trkpt>
      <trkpt lat="42.69743" lon="0.66825">
        <ele>2079.5</ele>
        <time>2018-08-08T16:24:59.000Z</time>
      </trkpt>
      <trkpt lat="42.69743" lon="0.66825">
        <ele>2079.5</ele>
        <time>2018-08-08T16:25:00.000Z</time>
      </trkpt>
      <trkpt lat="42.69743" lon="0.66825">
        <ele>2079.5</ele>
        <time>2018-08-08T16:25:01.000Z</time>
      </trkpt>
      <trkpt lat="42.69743" lon="0.66825">
        <ele>2079.5</ele>
        <time>2018-08-08T16:25:02.000Z</time>
      </trkpt>
      <trkpt lat="42.69743" lon="0.66825">
        <ele>2079.5</ele>
        <time>2018-08-08T16:25:03.000Z</time>
      </trkpt>
      <trkpt lat="42.69743" lon="0.66825">
        <ele>2079.5</ele>
        <time>2018-08-08T16:25:04.000Z</time>
      </trkpt>
      <trkpt lat="42.69743" lon="0.66825">
        <ele>2079.5</ele>
        <time>2018-08-08T16:25:05.000Z</time>
      </trkpt>
      <trkpt lat="42.69743" lon="0.66825">
        <ele>2079.5</ele>
        <time>2018-08-08T16:25:06.000Z</time>
      </trkpt>
      <trkpt lat="42.69743" lon="0.66825">
        <ele>2079.5</ele>
        <time>2018-08-08T16:25:07.000Z</time>
      </trkpt>
      <trkpt lat="42.69743" lon="0.66825">
        <ele>2079.5</ele>
        <time>2018-08-08T16:25:08.000Z</time>
      </trkpt>
      <trkpt lat="42.69743" lon="0.66825">
        <ele>2079.5</ele>
        <time>2018-08-08T16:25:09.000Z</time>
      </trkpt>
      <trkpt lat="42.69743" lon="0.66825">
        <ele>2079.5</ele>
        <time>2018-08-08T16:25:10.000Z</time>
      </trkpt>
      <trkpt lat="42.69743" lon="0.66825">
        <ele>2079.5</ele>
        <time>2018-08-08T16:25:11.000Z</time>
      </trkpt>
      <trkpt lat="42.69743" lon="0.66825">
        <ele>2079.5</ele>
        <time>2018-08-08T16:25:12.000Z</time>
      </trkpt>
      <trkpt lat="42.69743" lon="0.66825">
        <ele>2079.5</ele>
        <time>2018-08-08T16:25:13.000Z</time>
      </trkpt>
      <trkpt lat="42.69743" lon="0.66825">
        <ele>2079.5</ele>
        <time>2018-08-08T16:25:14.000Z</time>
      </trkpt>
      <trkpt lat="42.69743" lon="0.66825">
        <ele>2079.5</ele>
        <time>2018-08-08T16:25:15.000Z</time>
      </trkpt>
      <trkpt lat="42.69743" lon="0.66825">
        <ele>2079.5</ele>
        <time>2018-08-08T16:25:16.000Z</time>
      </trkpt>
      <trkpt lat="42.69743" lon="0.66825">
        <ele>2079.5</ele>
        <time>2018-08-08T16:25:17.000Z</time>
      </trkpt>
      <trkpt lat="42.69743" lon="0.66825">
        <ele>2079.5</ele>
        <time>2018-08-08T16:25:18.000Z</time>
      </trkpt>
      <trkpt lat="42.69743" lon="0.66825">
        <ele>2079.5</ele>
        <time>2018-08-08T16:25:19.000Z</time>
      </trkpt>
      <trkpt lat="42.69743" lon="0.66825">
        <ele>2079.5</ele>
        <time>2018-08-08T16:25:20.000Z</time>
      </trkpt>
      <trkpt lat="42.69743" lon="0.66825">
        <ele>2079.5</ele>
        <time>2018-08-08T16:25:21.000Z</time>
      </trkpt>
      <trkpt lat="42.69743" lon="0.66825">
        <ele>2079.5</ele>
        <time>2018-08-08T16:25:22.000Z</time>
      </trkpt>
      <trkpt lat="42.69743" lon="0.66825">
        <ele>2079.5</ele>
        <time>2018-08-08T16:25:23.000Z</time>
      </trkpt>
      <trkpt lat="42.69743" lon="0.66825">
        <ele>2079.5</ele>
        <time>2018-08-08T16:25:24.000Z</time>
      </trkpt>
      <trkpt lat="42.69743" lon="0.66825">
        <ele>2079.5</ele>
        <time>2018-08-08T16:25:25.000Z</time>
      </trkpt>
      <trkpt lat="42.69743" lon="0.66825">
        <ele>2079.5</ele>
        <time>2018-08-08T16:25:26.000Z</time>
      </trkpt>
      <trkpt lat="42.69743" lon="0.66825">
        <ele>2079.5</ele>
        <time>2018-08-08T16:25:27.000Z</time>
      </trkpt>
      <trkpt lat="42.69743" lon="0.66825">
        <ele>2079.5</ele>
        <time>2018-08-08T16:25:28.000Z</time>
      </trkpt>
      <trkpt lat="42.69743" lon="0.66825">
        <ele>2079.5</ele>
        <time>2018-08-08T16:25:29.000Z</time>
      </trkpt>
      <trkpt lat="42.69743" lon="0.66825">
        <ele>2079.5</ele>
        <time>2018-08-08T16:25:30.000Z</time>
      </trkpt>
      <trkpt lat="42.69743" lon="0.66825">
        <ele>2079.5</ele>
        <time>2018-08-08T16:25:31.000Z</time>
      </trkpt>
      <trkpt lat="42.69743" lon="0.66825">
        <ele>2079.5</ele>
        <time>2018-08-08T16:25:32.000Z</time>
      </trkpt>
      <trkpt lat="42.69743" lon="0.66825">
        <ele>2079.5</ele>
        <time>2018-08-08T16:25:33.000Z</time>
      </trkpt>
      <trkpt lat="42.69743" lon="0.66825">
        <ele>2079.5</ele>
        <time>2018-08-08T16:25:34.000Z</time>
      </trkpt>
      <trkpt lat="42.69743" lon="0.66825">
        <ele>2079.5</ele>
        <time>2018-08-08T16:25:35.000Z</time>
      </trkpt>
      <trkpt lat="42.69743" lon="0.66825">
        <ele>2079.5</ele>
        <time>2018-08-08T16:25:36.000Z</time>
      </trkpt>
      <trkpt lat="42.69743" lon="0.66825">
        <ele>2079.5</ele>
        <time>2018-08-08T16:25:37.000Z</time>
      </trkpt>
      <trkpt lat="42.69743" lon="0.66825">
        <ele>2079.5</ele>
        <time>2018-08-08T16:25:38.000Z</time>
      </trkpt>
      <trkpt lat="42.69743" lon="0.66825">
        <ele>2079.5</ele>
        <time>2018-08-08T16:25:39.000Z</time>
      </trkpt>
      <trkpt lat="42.69743" lon="0.66825">
        <ele>2079.5</ele>
        <time>2018-08-08T16:25:40.000Z</time>
      </trkpt>
      <trkpt lat="42.69743" lon="0.66825">
        <ele>2079.5</ele>
        <time>2018-08-08T16:25:41.000Z</time>
      </trkpt>
      <trkpt lat="42.69743" lon="0.66825">
        <ele>2079.5</ele>
        <time>2018-08-08T16:25:42.000Z</time>
      </trkpt>
      <trkpt lat="42.69743" lon="0.66825">
        <ele>2079.5</ele>
        <time>2018-08-08T16:25:43.000Z</time>
      </trkpt>
      <trkpt lat="42.69743" lon="0.66825">
        <ele>2079.5</ele>
        <time>2018-08-08T16:25:44.000Z</time>
      </trkpt>
      <trkpt lat="42.69743" lon="0.66825">
        <ele>2079.5</ele>
        <time>2018-08-08T16:25:45.000Z</time>
      </trkpt>
      <trkpt lat="42.69743" lon="0.66825">
        <ele>2079.5</ele>
        <time>2018-08-08T16:25:46.000Z</time>
      </trkpt>
      <trkpt lat="42.69743" lon="0.66825">
        <ele>2079.5</ele>
        <time>2018-08-08T16:25:47.000Z</time>
      </trkpt>
      <trkpt lat="42.69743" lon="0.66825">
        <ele>2079.5</ele>
        <time>2018-08-08T16:25:48.000Z</time>
      </trkpt>
      <trkpt lat="42.69743" lon="0.66825">
        <ele>2079.5</ele>
        <time>2018-08-08T16:25:49.000Z</time>
      </trkpt>
      <trkpt lat="42.69743" lon="0.66825">
        <ele>2079.5</ele>
        <time>2018-08-08T16:25:50.000Z</time>
      </trkpt>
      <trkpt lat="42.69743" lon="0.66825">
        <ele>2079.5</ele>
        <time>2018-08-08T16:25:51.000Z</time>
      </trkpt>
      <trkpt lat="42.69743" lon="0.66825">
        <ele>2079.5</ele>
        <time>2018-08-08T16:25:52.000Z</time>
      </trkpt>
      <trkpt lat="42.69743" lon="0.66825">
        <ele>2079.5</ele>
        <time>2018-08-08T16:25:53.000Z</time>
      </trkpt>
      <trkpt lat="42.69743" lon="0.66825">
        <ele>2079.5</ele>
        <time>2018-08-08T16:25:54.000Z</time>
      </trkpt>
      <trkpt lat="42.69743" lon="0.66825">
        <ele>2079.5</ele>
        <time>2018-08-08T16:25:55.000Z</time>
      </trkpt>
      <trkpt lat="42.69743" lon="0.66825">
        <ele>2079.5</ele>
        <time>2018-08-08T16:25:56.000Z</time>
      </trkpt>
      <trkpt lat="42.69743" lon="0.66825">
        <ele>2079.5</ele>
        <time>2018-08-08T16:25:57.000Z</time>
      </trkpt>
      <trkpt lat="42.69743" lon="0.66825">
        <ele>2079.5</ele>
        <time>2018-08-08T16:25:58.000Z</time>
      </trkpt>
      <trkpt lat="42.69743" lon="0.66825">
        <ele>2079.5</ele>
        <time>2018-08-08T16:25:59.000Z</time>
      </trkpt>
      <trkpt lat="42.69743" lon="0.66825">
        <ele>2079.5</ele>
        <time>2018-08-08T16:26:00.000Z</time>
      </trkpt>
      <trkpt lat="42.69743" lon="0.66825">
        <ele>2079.5</ele>
        <time>2018-08-08T16:26:01.000Z</time>
      </trkpt>
      <trkpt lat="42.69743" lon="0.66825">
        <ele>2079.5</ele>
        <time>2018-08-08T16:26:02.000Z</time>
      </trkpt>
      <trkpt lat="42.69743" lon="0.66825">
        <ele>2079.5</ele>
        <time>2018-08-08T16:26:03.000Z</time>
      </trkpt>
      <trkpt lat="42.69743" lon="0.66825">
        <ele>2079.5</ele>
        <time>2018-08-08T16:26:04.000Z</time>
      </trkpt>
      <trkpt lat="42.69743" lon="0.66825">
        <ele>2079.5</ele>
        <time>2018-08-08T16:26:05.000Z</time>
      </trkpt>
      <trkpt lat="42.69743" lon="0.66825">
        <ele>2079.5</ele>
        <time>2018-08-08T16:26:06.000Z</time>
      </trkpt>
      <trkpt lat="42.69743" lon="0.66825">
        <ele>2079.5</ele>
        <time>2018-08-08T16:26:07.000Z</time>
      </trkpt>
      <trkpt lat="42.69743" lon="0.66825">
        <ele>2079.5</ele>
        <time>2018-08-08T16:26:08.000Z</time>
      </trkpt>
      <trkpt lat="42.69743" lon="0.66825">
        <ele>2079.5</ele>
        <time>2018-08-08T16:26:09.000Z</time>
      </trkpt>
      <trkpt lat="42.69743" lon="0.66825">
        <ele>2079.5</ele>
        <time>2018-08-08T16:26:10.000Z</time>
      </trkpt>
      <trkpt lat="42.69743" lon="0.66825">
        <ele>2079.5</ele>
        <time>2018-08-08T16:26:11.000Z</time>
      </trkpt>
      <trkpt lat="42.69743" lon="0.66825">
        <ele>2079.5</ele>
        <time>2018-08-08T16:26:12.000Z</time>
      </trkpt>
      <trkpt lat="42.69743" lon="0.66825">
        <ele>2079.5</ele>
        <time>2018-08-08T16:26:13.000Z</time>
      </trkpt>
      <trkpt lat="42.69743" lon="0.66825">
        <ele>2079.5</ele>
        <time>2018-08-08T16:26:14.000Z</time>
      </trkpt>
      <trkpt lat="42.69743" lon="0.66825">
        <ele>2079.5</ele>
        <time>2018-08-08T16:26:15.000Z</time>
      </trkpt>
      <trkpt lat="42.69743" lon="0.66825">
        <ele>2079.5</ele>
        <time>2018-08-08T16:26:16.000Z</time>
      </trkpt>
      <trkpt lat="42.69743" lon="0.66825">
        <ele>2079.5</ele>
        <time>2018-08-08T16:26:17.000Z</time>
      </trkpt>
      <trkpt lat="42.69743" lon="0.66825">
        <ele>2079.5</ele>
        <time>2018-08-08T16:26:18.000Z</time>
      </trkpt>
      <trkpt lat="42.69743" lon="0.66825">
        <ele>2079.5</ele>
        <time>2018-08-08T16:26:19.000Z</time>
      </trkpt>
      <trkpt lat="42.69743" lon="0.66825">
        <ele>2079.5</ele>
        <time>2018-08-08T16:26:20.000Z</time>
      </trkpt>
      <trkpt lat="42.69743" lon="0.66825">
        <ele>2079.5</ele>
        <time>2018-08-08T16:26:21.000Z</time>
      </trkpt>
      <trkpt lat="42.69743" lon="0.66825">
        <ele>2079.5</ele>
        <time>2018-08-08T16:26:22.000Z</time>
      </trkpt>
      <trkpt lat="42.69743" lon="0.66825">
        <ele>2079.5</ele>
        <time>2018-08-08T16:26:23.000Z</time>
      </trkpt>
      <trkpt lat="42.69743" lon="0.66825">
        <ele>2079.5</ele>
        <time>2018-08-08T16:26:24.000Z</time>
      </trkpt>
      <trkpt lat="42.69743" lon="0.66825">
        <ele>2079.5</ele>
        <time>2018-08-08T16:26:25.000Z</time>
      </trkpt>
      <trkpt lat="42.69743" lon="0.66825">
        <ele>2079.5</ele>
        <time>2018-08-08T16:26:26.000Z</time>
      </trkpt>
      <trkpt lat="42.69743" lon="0.66825">
        <ele>2079.5</ele>
        <time>2018-08-08T16:26:27.000Z</time>
      </trkpt>
      <trkpt lat="42.69743" lon="0.66825">
        <ele>2079.5</ele>
        <time>2018-08-08T16:26:28.000Z</time>
      </trkpt>
      <trkpt lat="42.69743" lon="0.66825">
        <ele>2079.5</ele>
        <time>2018-08-08T16:26:29.000Z</time>
      </trkpt>
      <trkpt lat="42.69743" lon="0.66825">
        <ele>2079.5</ele>
        <time>2018-08-08T16:26:30.000Z</time>
      </trkpt>
      <trkpt lat="42.69743" lon="0.66825">
        <ele>2079.5</ele>
        <time>2018-08-08T16:26:31.000Z</time>
      </trkpt>
      <trkpt lat="42.69743" lon="0.66825">
        <ele>2079.5</ele>
        <time>2018-08-08T16:26:32.000Z</time>
      </trkpt>
      <trkpt lat="42.69743" lon="0.66825">
        <ele>2079.5</ele>
        <time>2018-08-08T16:26:33.000Z</time>
      </trkpt>
      <trkpt lat="42.69743" lon="0.66825">
        <ele>2079.5</ele>
        <time>2018-08-08T16:26:34.000Z</time>
      </trkpt>
      <trkpt lat="42.69743" lon="0.66825">
        <ele>2079.5</ele>
        <time>2018-08-08T16:26:35.000Z</time>
      </trkpt>
      <trkpt lat="42.69743" lon="0.66825">
        <ele>2079.5</ele>
        <time>2018-08-08T16:26:36.000Z</time>
      </trkpt>
      <trkpt lat="42.69743" lon="0.66825">
        <ele>2079.5</ele>
        <time>2018-08-08T16:26:37.000Z</time>
      </trkpt>
      <trkpt lat="42.69743" lon="0.66825">
        <ele>2079.5</ele>
        <time>2018-08-08T16:26:38.000Z</time>
      </trkpt>
      <trkpt lat="42.69743" lon="0.66825">
        <ele>2079.5</ele>
        <time>2018-08-08T16:26:39.000Z</time>
      </trkpt>
      <trkpt lat="42.69743" lon="0.66825">
        <ele>2079.5</ele>
        <time>2018-08-08T16:26:40.000Z</time>
      </trkpt>
      <trkpt lat="42.69743" lon="0.66825">
        <ele>2079.5</ele>
        <time>2018-08-08T16:26:41.000Z</time>
      </trkpt>
      <trkpt lat="42.69743" lon="0.66825">
        <ele>2079.5</ele>
        <time>2018-08-08T16:26:42.000Z</time>
      </trkpt>
      <trkpt lat="42.69743" lon="0.66825">
        <ele>2079.5</ele>
        <time>2018-08-08T16:26:43.000Z</time>
      </trkpt>
      <trkpt lat="42.69743" lon="0.66825">
        <ele>2079.5</ele>
        <time>2018-08-08T16:26:44.000Z</time>
      </trkpt>
      <trkpt lat="42.69743" lon="0.66825">
        <ele>2079.5</ele>
        <time>2018-08-08T16:26:45.000Z</time>
      </trkpt>
      <trkpt lat="42.69743" lon="0.66825">
        <ele>2079.5</ele>
        <time>2018-08-08T16:26:46.000Z</time>
      </trkpt>
      <trkpt lat="42.69743" lon="0.66825">
        <ele>2079.5</ele>
        <time>2018-08-08T16:26:47.000Z</time>
      </trkpt>
      <trkpt lat="42.69743" lon="0.66825">
        <ele>2079.5</ele>
        <time>2018-08-08T16:26:48.000Z</time>
      </trkpt>
      <trkpt lat="42.69743" lon="0.66825">
        <ele>2079.5</ele>
        <time>2018-08-08T16:26:49.000Z</time>
      </trkpt>
      <trkpt lat="42.69743" lon="0.66825">
        <ele>2079.5</ele>
        <time>2018-08-08T16:26:50.000Z</time>
      </trkpt>
      <trkpt lat="42.69743" lon="0.66825">
        <ele>2079.5</ele>
        <time>2018-08-08T16:26:51.000Z</time>
      </trkpt>
      <trkpt lat="42.69743" lon="0.66825">
        <ele>2079.5</ele>
        <time>2018-08-08T16:26:52.000Z</time>
      </trkpt>
      <trkpt lat="42.69743" lon="0.66825">
        <ele>2079.5</ele>
        <time>2018-08-08T16:26:53.000Z</time>
      </trkpt>
      <trkpt lat="42.69743" lon="0.66825">
        <ele>2079.5</ele>
        <time>2018-08-08T16:26:54.000Z</time>
      </trkpt>
      <trkpt lat="42.69743" lon="0.66825">
        <ele>2079.5</ele>
        <time>2018-08-08T16:26:55.000Z</time>
      </trkpt>
      <trkpt lat="42.69743" lon="0.66825">
        <ele>2079.5</ele>
        <time>2018-08-08T16:26:56.000Z</time>
      </trkpt>
      <trkpt lat="42.69743" lon="0.66825">
        <ele>2079.5</ele>
        <time>2018-08-08T16:26:57.000Z</time>
      </trkpt>
      <trkpt lat="42.69743" lon="0.66825">
        <ele>2079.5</ele>
        <time>2018-08-08T16:26:58.000Z</time>
      </trkpt>
      <trkpt lat="42.69743" lon="0.66825">
        <ele>2079.5</ele>
        <time>2018-08-08T16:26:59.000Z</time>
      </trkpt>
      <trkpt lat="42.69743" lon="0.66825">
        <ele>2079.5</ele>
        <time>2018-08-08T16:27:00.000Z</time>
      </trkpt>
      <trkpt lat="42.69743" lon="0.66825">
        <ele>2079.5</ele>
        <time>2018-08-08T16:27:01.000Z</time>
      </trkpt>
      <trkpt lat="42.69743" lon="0.66825">
        <ele>2079.5</ele>
        <time>2018-08-08T16:27:02.000Z</time>
      </trkpt>
      <trkpt lat="42.69743" lon="0.66825">
        <ele>2079.5</ele>
        <time>2018-08-08T16:27:03.000Z</time>
      </trkpt>
      <trkpt lat="42.69743" lon="0.66825">
        <ele>2079.5</ele>
        <time>2018-08-08T16:27:04.000Z</time>
      </trkpt>
      <trkpt lat="42.69743" lon="0.66825">
        <ele>2079.5</ele>
        <time>2018-08-08T16:27:05.000Z</time>
      </trkpt>
      <trkpt lat="42.69743" lon="0.66825">
        <ele>2079.5</ele>
        <time>2018-08-08T16:27:06.000Z</time>
      </trkpt>
      <trkpt lat="42.69743" lon="0.66825">
        <ele>2079.5</ele>
        <time>2018-08-08T16:27:07.000Z</time>
      </trkpt>
      <trkpt lat="42.69743" lon="0.66825">
        <ele>2079.5</ele>
        <time>2018-08-08T16:27:08.000Z</time>
      </trkpt>
      <trkpt lat="42.69743" lon="0.66825">
        <ele>2079.5</ele>
        <time>2018-08-08T16:27:09.000Z</time>
      </trkpt>
      <trkpt lat="42.69743" lon="0.66825">
        <ele>2079.5</ele>
        <time>2018-08-08T16:27:10.000Z</time>
      </trkpt>
      <trkpt lat="42.69743" lon="0.66825">
        <ele>2079.5</ele>
        <time>2018-08-08T16:27:11.000Z</time>
      </trkpt>
      <trkpt lat="42.69743" lon="0.66825">
        <ele>2079.5</ele>
        <time>2018-08-08T16:27:12.000Z</time>
      </trkpt>
      <trkpt lat="42.69743" lon="0.66825">
        <ele>2079.5</ele>
        <time>2018-08-08T16:27:13.000Z</time>
      </trkpt>
      <trkpt lat="42.69743" lon="0.66825">
        <ele>2079.5</ele>
        <time>2018-08-08T16:27:14.000Z</time>
      </trkpt>
      <trkpt lat="42.69743" lon="0.66825">
        <ele>2079.5</ele>
        <time>2018-08-08T16:27:15.000Z</time>
      </trkpt>
      <trkpt lat="42.69743" lon="0.66825">
        <ele>2079.5</ele>
        <time>2018-08-08T16:27:16.000Z</time>
      </trkpt>
      <trkpt lat="42.69743" lon="0.66825">
        <ele>2079.5</ele>
        <time>2018-08-08T16:27:17.000Z</time>
      </trkpt>
      <trkpt lat="42.69743" lon="0.66825">
        <ele>2079.5</ele>
        <time>2018-08-08T16:27:18.000Z</time>
      </trkpt>
      <trkpt lat="42.69743" lon="0.66825">
        <ele>2079.5</ele>
        <time>2018-08-08T16:27:19.000Z</time>
      </trkpt>
      <trkpt lat="42.69743" lon="0.66825">
        <ele>2079.5</ele>
        <time>2018-08-08T16:27:20.000Z</time>
      </trkpt>
      <trkpt lat="42.69743" lon="0.66825">
        <ele>2079.5</ele>
        <time>2018-08-08T16:27:21.000Z</time>
      </trkpt>
      <trkpt lat="42.69743" lon="0.66825">
        <ele>2079.5</ele>
        <time>2018-08-08T16:27:22.000Z</time>
      </trkpt>
      <trkpt lat="42.69743" lon="0.66825">
        <ele>2079.5</ele>
        <time>2018-08-08T16:27:23.000Z</time>
      </trkpt>
      <trkpt lat="42.69743" lon="0.66825">
        <ele>2079.5</ele>
        <time>2018-08-08T16:27:24.000Z</time>
      </trkpt>
      <trkpt lat="42.69743" lon="0.66825">
        <ele>2079.5</ele>
        <time>2018-08-08T16:27:25.000Z</time>
      </trkpt>
      <trkpt lat="42.69743" lon="0.66825">
        <ele>2079.5</ele>
        <time>2018-08-08T16:27:26.000Z</time>
      </trkpt>
      <trkpt lat="42.69743" lon="0.66825">
        <ele>2079.5</ele>
        <time>2018-08-08T16:27:27.000Z</time>
      </trkpt>
      <trkpt lat="42.69743" lon="0.66825">
        <ele>2079.5</ele>
        <time>2018-08-08T16:27:28.000Z</time>
      </trkpt>
      <trkpt lat="42.69743" lon="0.66825">
        <ele>2079.5</ele>
        <time>2018-08-08T16:27:29.000Z</time>
      </trkpt>
      <trkpt lat="42.69743" lon="0.66825">
        <ele>2079.5</ele>
        <time>2018-08-08T16:27:30.000Z</time>
      </trkpt>
      <trkpt lat="42.69743" lon="0.66825">
        <ele>2079.5</ele>
        <time>2018-08-08T16:27:31.000Z</time>
      </trkpt>
      <trkpt lat="42.69743" lon="0.66825">
        <ele>2079.5</ele>
        <time>2018-08-08T16:27:32.000Z</time>
      </trkpt>
      <trkpt lat="42.69743" lon="0.66825">
        <ele>2079.5</ele>
        <time>2018-08-08T16:27:33.000Z</time>
      </trkpt>
      <trkpt lat="42.69743" lon="0.66825">
        <ele>2079.5</ele>
        <time>2018-08-08T16:27:34.000Z</time>
      </trkpt>
      <trkpt lat="42.69743" lon="0.66825">
        <ele>2079.5</ele>
        <time>2018-08-08T16:27:35.000Z</time>
      </trkpt>
      <trkpt lat="42.69743" lon="0.66825">
        <ele>2079.5</ele>
        <time>2018-08-08T16:27:36.000Z</time>
      </trkpt>
      <trkpt lat="42.69743" lon="0.66825">
        <ele>2079.5</ele>
        <time>2018-08-08T16:27:37.000Z</time>
      </trkpt>
      <trkpt lat="42.69743" lon="0.66825">
        <ele>2079.5</ele>
        <time>2018-08-08T16:27:38.000Z</time>
      </trkpt>
      <trkpt lat="42.69743" lon="0.66825">
        <ele>2079.5</ele>
        <time>2018-08-08T16:27:39.000Z</time>
      </trkpt>
      <trkpt lat="42.69743" lon="0.66825">
        <ele>2079.5</ele>
        <time>2018-08-08T16:27:40.000Z</time>
      </trkpt>
      <trkpt lat="42.69743" lon="0.66825">
        <ele>2079.5</ele>
        <time>2018-08-08T16:27:41.000Z</time>
      </trkpt>
      <trkpt lat="42.69743" lon="0.66825">
        <ele>2079.5</ele>
        <time>2018-08-08T16:27:42.000Z</time>
      </trkpt>
      <trkpt lat="42.69743" lon="0.66825">
        <ele>2079.5</ele>
        <time>2018-08-08T16:27:43.000Z</time>
      </trkpt>
      <trkpt lat="42.69743" lon="0.66825">
        <ele>2079.5</ele>
        <time>2018-08-08T16:27:44.000Z</time>
      </trkpt>
      <trkpt lat="42.69743" lon="0.66825">
        <ele>2079.5</ele>
        <time>2018-08-08T16:27:45.000Z</time>
      </trkpt>
      <trkpt lat="42.69743" lon="0.66825">
        <ele>2079.5</ele>
        <time>2018-08-08T16:27:46.000Z</time>
      </trkpt>
      <trkpt lat="42.69743" lon="0.66825">
        <ele>2079.5</ele>
        <time>2018-08-08T16:27:47.000Z</time>
      </trkpt>
      <trkpt lat="42.69743" lon="0.66825">
        <ele>2079.5</ele>
        <time>2018-08-08T16:27:48.000Z</time>
      </trkpt>
      <trkpt lat="42.69743" lon="0.66825">
        <ele>2079.5</ele>
        <time>2018-08-08T16:27:49.000Z</time>
      </trkpt>
      <trkpt lat="42.69743" lon="0.66825">
        <ele>2079.5</ele>
        <time>2018-08-08T16:27:50.000Z</time>
      </trkpt>
      <trkpt lat="42.69743" lon="0.66825">
        <ele>2079.5</ele>
        <time>2018-08-08T16:27:51.000Z</time>
      </trkpt>
      <trkpt lat="42.69743" lon="0.66825">
        <ele>2079.5</ele>
        <time>2018-08-08T16:27:52.000Z</time>
      </trkpt>
      <trkpt lat="42.69743" lon="0.66825">
        <ele>2079.5</ele>
        <time>2018-08-08T16:27:53.000Z</time>
      </trkpt>
      <trkpt lat="42.69743" lon="0.66825">
        <ele>2079.5</ele>
        <time>2018-08-08T16:27:54.000Z</time>
      </trkpt>
      <trkpt lat="42.69743" lon="0.66825">
        <ele>2079.5</ele>
        <time>2018-08-08T16:27:55.000Z</time>
      </trkpt>
      <trkpt lat="42.69743" lon="0.66825">
        <ele>2079.5</ele>
        <time>2018-08-08T16:27:56.000Z</time>
      </trkpt>
      <trkpt lat="42.69743" lon="0.66825">
        <ele>2079.5</ele>
        <time>2018-08-08T16:27:57.000Z</time>
      </trkpt>
      <trkpt lat="42.69743" lon="0.66825">
        <ele>2079.5</ele>
        <time>2018-08-08T16:27:58.000Z</time>
      </trkpt>
      <trkpt lat="42.69743" lon="0.66825">
        <ele>2079.5</ele>
        <time>2018-08-08T16:27:59.000Z</time>
      </trkpt>
      <trkpt lat="42.69743" lon="0.66825">
        <ele>2079.5</ele>
        <time>2018-08-08T16:28:00.000Z</time>
      </trkpt>
      <trkpt lat="42.69743" lon="0.66825">
        <ele>2079.5</ele>
        <time>2018-08-08T16:28:01.000Z</time>
      </trkpt>
      <trkpt lat="42.69743" lon="0.66825">
        <ele>2079.5</ele>
        <time>2018-08-08T16:28:02.000Z</time>
      </trkpt>
      <trkpt lat="42.69743" lon="0.66825">
        <ele>2079.5</ele>
        <time>2018-08-08T16:28:03.000Z</time>
      </trkpt>
      <trkpt lat="42.69743" lon="0.66825">
        <ele>2079.5</ele>
        <time>2018-08-08T16:28:04.000Z</time>
      </trkpt>
      <trkpt lat="42.69743" lon="0.66825">
        <ele>2079.5</ele>
        <time>2018-08-08T16:28:05.000Z</time>
      </trkpt>
      <trkpt lat="42.69743" lon="0.66825">
        <ele>2079.5</ele>
        <time>2018-08-08T16:28:06.000Z</time>
      </trkpt>
      <trkpt lat="42.69743" lon="0.66825">
        <ele>2079.5</ele>
        <time>2018-08-08T16:28:07.000Z</time>
      </trkpt>
      <trkpt lat="42.69743" lon="0.66825">
        <ele>2079.5</ele>
        <time>2018-08-08T16:28:08.000Z</time>
      </trkpt>
      <trkpt lat="42.69743" lon="0.66825">
        <ele>2079.5</ele>
        <time>2018-08-08T16:28:09.000Z</time>
      </trkpt>
      <trkpt lat="42.69743" lon="0.66825">
        <ele>2079.5</ele>
        <time>2018-08-08T16:28:10.000Z</time>
      </trkpt>
      <trkpt lat="42.69743" lon="0.66825">
        <ele>2079.5</ele>
        <time>2018-08-08T16:28:11.000Z</time>
      </trkpt>
      <trkpt lat="42.69743" lon="0.66825">
        <ele>2079.5</ele>
        <time>2018-08-08T16:28:12.000Z</time>
      </trkpt>
      <trkpt lat="42.69743" lon="0.66825">
        <ele>2079.5</ele>
        <time>2018-08-08T16:28:13.000Z</time>
      </trkpt>
      <trkpt lat="42.69743" lon="0.66825">
        <ele>2079.5</ele>
        <time>2018-08-08T16:28:14.000Z</time>
      </trkpt>
      <trkpt lat="42.69743" lon="0.66825">
        <ele>2079.5</ele>
        <time>2018-08-08T16:28:15.000Z</time>
      </trkpt>
      <trkpt lat="42.69743" lon="0.66825">
        <ele>2079.5</ele>
        <time>2018-08-08T16:28:16.000Z</time>
      </trkpt>
      <trkpt lat="42.69743" lon="0.66825">
        <ele>2079.5</ele>
        <time>2018-08-08T16:28:17.000Z</time>
      </trkpt>
      <trkpt lat="42.69743" lon="0.66825">
        <ele>2079.5</ele>
        <time>2018-08-08T16:28:18.000Z</time>
      </trkpt>
      <trkpt lat="42.69743" lon="0.66825">
        <ele>2079.5</ele>
        <time>2018-08-08T16:28:19.000Z</time>
      </trkpt>
      <trkpt lat="42.69743" lon="0.66825">
        <ele>2079.5</ele>
        <time>2018-08-08T16:28:20.000Z</time>
      </trkpt>
      <trkpt lat="42.69743" lon="0.66825">
        <ele>2079.5</ele>
        <time>2018-08-08T16:28:21.000Z</time>
      </trkpt>
      <trkpt lat="42.69743" lon="0.66825">
        <ele>2079.5</ele>
        <time>2018-08-08T16:28:22.000Z</time>
      </trkpt>
      <trkpt lat="42.69743" lon="0.66825">
        <ele>2079.5</ele>
        <time>2018-08-08T16:28:23.000Z</time>
      </trkpt>
      <trkpt lat="42.69743" lon="0.66825">
        <ele>2079.5</ele>
        <time>2018-08-08T16:28:24.000Z</time>
      </trkpt>
      <trkpt lat="42.69743" lon="0.66825">
        <ele>2079.5</ele>
        <time>2018-08-08T16:28:25.000Z</time>
      </trkpt>
      <trkpt lat="42.69743" lon="0.66825">
        <ele>2079.5</ele>
        <time>2018-08-08T16:28:26.000Z</time>
      </trkpt>
      <trkpt lat="42.69743" lon="0.66825">
        <ele>2079.5</ele>
        <time>2018-08-08T16:28:27.000Z</time>
      </trkpt>
      <trkpt lat="42.69743" lon="0.66825">
        <ele>2079.5</ele>
        <time>2018-08-08T16:28:28.000Z</time>
      </trkpt>
      <trkpt lat="42.69743" lon="0.66825">
        <ele>2079.5</ele>
        <time>2018-08-08T16:28:29.000Z</time>
      </trkpt>
      <trkpt lat="42.69743" lon="0.66825">
        <ele>2079.5</ele>
        <time>2018-08-08T16:28:30.000Z</time>
      </trkpt>
      <trkpt lat="42.69743" lon="0.66825">
        <ele>2079.5</ele>
        <time>2018-08-08T16:28:31.000Z</time>
      </trkpt>
      <trkpt lat="42.69743" lon="0.66825">
        <ele>2079.5</ele>
        <time>2018-08-08T16:28:32.000Z</time>
      </trkpt>
      <trkpt lat="42.69743" lon="0.66825">
        <ele>2079.5</ele>
        <time>2018-08-08T16:28:33.000Z</time>
      </trkpt>
      <trkpt lat="42.69743" lon="0.66825">
        <ele>2079.5</ele>
        <time>2018-08-08T16:28:34.000Z</time>
      </trkpt>
      <trkpt lat="42.69743" lon="0.66825">
        <ele>2079.5</ele>
        <time>2018-08-08T16:28:35.000Z</time>
      </trkpt>
      <trkpt lat="42.69743" lon="0.66825">
        <ele>2079.5</ele>
        <time>2018-08-08T16:28:36.000Z</time>
      </trkpt>
      <trkpt lat="42.69743" lon="0.66825">
        <ele>2079.5</ele>
        <time>2018-08-08T16:28:37.000Z</time>
      </trkpt>
      <trkpt lat="42.69743" lon="0.66825">
        <ele>2079.5</ele>
        <time>2018-08-08T16:28:38.000Z</time>
      </trkpt>
      <trkpt lat="42.69743" lon="0.66825">
        <ele>2079.5</ele>
        <time>2018-08-08T16:28:39.000Z</time>
      </trkpt>
      <trkpt lat="42.69743" lon="0.66825">
        <ele>2079.5</ele>
        <time>2018-08-08T16:28:40.000Z</time>
      </trkpt>
      <trkpt lat="42.69743" lon="0.66825">
        <ele>2079.5</ele>
        <time>2018-08-08T16:28:41.000Z</time>
      </trkpt>
      <trkpt lat="42.69743" lon="0.66825">
        <ele>2079.5</ele>
        <time>2018-08-08T16:28:42.000Z</time>
      </trkpt>
      <trkpt lat="42.69743" lon="0.66825">
        <ele>2079.5</ele>
        <time>2018-08-08T16:28:43.000Z</time>
      </trkpt>
      <trkpt lat="42.69743" lon="0.66825">
        <ele>2079.5</ele>
        <time>2018-08-08T16:28:44.000Z</time>
      </trkpt>
      <trkpt lat="42.69743" lon="0.66825">
        <ele>2079.5</ele>
        <time>2018-08-08T16:28:45.000Z</time>
      </trkpt>
      <trkpt lat="42.69743" lon="0.66825">
        <ele>2079.5</ele>
        <time>2018-08-08T16:28:46.000Z</time>
      </trkpt>
      <trkpt lat="42.69743" lon="0.66825">
        <ele>2079.5</ele>
        <time>2018-08-08T16:28:47.000Z</time>
      </trkpt>
      <trkpt lat="42.69743" lon="0.66825">
        <ele>2079.5</ele>
        <time>2018-08-08T16:28:48.000Z</time>
      </trkpt>
      <trkpt lat="42.69743" lon="0.66825">
        <ele>2079.5</ele>
        <time>2018-08-08T16:28:49.000Z</time>
      </trkpt>
      <trkpt lat="42.69743" lon="0.66825">
        <ele>2079.5</ele>
        <time>2018-08-08T16:28:50.000Z</time>
      </trkpt>
      <trkpt lat="42.69743" lon="0.66825">
        <ele>2079.5</ele>
        <time>2018-08-08T16:28:51.000Z</time>
      </trkpt>
      <trkpt lat="42.69743" lon="0.66825">
        <ele>2079.5</ele>
        <time>2018-08-08T16:28:52.000Z</time>
      </trkpt>
      <trkpt lat="42.69743" lon="0.66825">
        <ele>2079.5</ele>
        <time>2018-08-08T16:28:53.000Z</time>
      </trkpt>
      <trkpt lat="42.69743" lon="0.66825">
        <ele>2079.5</ele>
        <time>2018-08-08T16:28:54.000Z</time>
      </trkpt>
      <trkpt lat="42.69743" lon="0.66825">
        <ele>2079.5</ele>
        <time>2018-08-08T16:28:55.000Z</time>
      </trkpt>
      <trkpt lat="42.69743" lon="0.66825">
        <ele>2079.5</ele>
        <time>2018-08-08T16:28:56.000Z</time>
      </trkpt>
      <trkpt lat="42.69743" lon="0.66825">
        <ele>2079.5</ele>
        <time>2018-08-08T16:28:57.000Z</time>
      </trkpt>
      <trkpt lat="42.69743" lon="0.66825">
        <ele>2079.5</ele>
        <time>2018-08-08T16:28:58.000Z</time>
      </trkpt>
      <trkpt lat="42.69743" lon="0.66825">
        <ele>2079.5</ele>
        <time>2018-08-08T16:28:59.000Z</time>
      </trkpt>
      <trkpt lat="42.69743" lon="0.66825">
        <ele>2079.5</ele>
        <time>2018-08-08T16:29:00.000Z</time>
      </trkpt>
      <trkpt lat="42.69743" lon="0.66825">
        <ele>2079.5</ele>
        <time>2018-08-08T16:29:01.000Z</time>
      </trkpt>
      <trkpt lat="42.69743" lon="0.66825">
        <ele>2079.5</ele>
        <time>2018-08-08T16:29:02.000Z</time>
      </trkpt>
      <trkpt lat="42.69743" lon="0.66825">
        <ele>2079.5</ele>
        <time>2018-08-08T16:29:03.000Z</time>
      </trkpt>
      <trkpt lat="42.69743" lon="0.66825">
        <ele>2079.5</ele>
        <time>2018-08-08T16:29:04.000Z</time>
      </trkpt>
      <trkpt lat="42.69743" lon="0.66825">
        <ele>2079.5</ele>
        <time>2018-08-08T16:29:05.000Z</time>
      </trkpt>
      <trkpt lat="42.69743" lon="0.66825">
        <ele>2079.5</ele>
        <time>2018-08-08T16:29:06.000Z</time>
      </trkpt>
      <trkpt lat="42.69743" lon="0.66825">
        <ele>2079.5</ele>
        <time>2018-08-08T16:29:07.000Z</time>
      </trkpt>
      <trkpt lat="42.69743" lon="0.66825">
        <ele>2079.5</ele>
        <time>2018-08-08T16:29:08.000Z</time>
      </trkpt>
      <trkpt lat="42.69743" lon="0.66825">
        <ele>2079.5</ele>
        <time>2018-08-08T16:29:09.000Z</time>
      </trkpt>
      <trkpt lat="42.69743" lon="0.66825">
        <ele>2079.5</ele>
        <time>2018-08-08T16:29:10.000Z</time>
      </trkpt>
      <trkpt lat="42.69743" lon="0.66825">
        <ele>2079.5</ele>
        <time>2018-08-08T16:29:11.000Z</time>
      </trkpt>
      <trkpt lat="42.69743" lon="0.66825">
        <ele>2079.5</ele>
        <time>2018-08-08T16:29:12.000Z</time>
      </trkpt>
      <trkpt lat="42.69743" lon="0.66825">
        <ele>2079.5</ele>
        <time>2018-08-08T16:29:13.000Z</time>
      </trkpt>
      <trkpt lat="42.69743" lon="0.66825">
        <ele>2079.5</ele>
        <time>2018-08-08T16:29:14.000Z</time>
      </trkpt>
      <trkpt lat="42.69743" lon="0.66825">
        <ele>2079.5</ele>
        <time>2018-08-08T16:29:15.000Z</time>
      </trkpt>
      <trkpt lat="42.69743" lon="0.66825">
        <ele>2079.5</ele>
        <time>2018-08-08T16:29:16.000Z</time>
      </trkpt>
      <trkpt lat="42.69743" lon="0.66825">
        <ele>2079.5</ele>
        <time>2018-08-08T16:29:17.000Z</time>
      </trkpt>
      <trkpt lat="42.69743" lon="0.66825">
        <ele>2079.5</ele>
        <time>2018-08-08T16:29:18.000Z</time>
      </trkpt>
      <trkpt lat="42.69743" lon="0.66825">
        <ele>2079.5</ele>
        <time>2018-08-08T16:29:19.000Z</time>
      </trkpt>
      <trkpt lat="42.69743" lon="0.66825">
        <ele>2079.5</ele>
        <time>2018-08-08T16:29:20.000Z</time>
      </trkpt>
      <trkpt lat="42.69743" lon="0.66825">
        <ele>2079.5</ele>
        <time>2018-08-08T16:29:21.000Z</time>
      </trkpt>
      <trkpt lat="42.69743" lon="0.66825">
        <ele>2079.5</ele>
        <time>2018-08-08T16:29:22.000Z</time>
      </trkpt>
      <trkpt lat="42.69743" lon="0.66825">
        <ele>2079.5</ele>
        <time>2018-08-08T16:29:23.000Z</time>
      </trkpt>
      <trkpt lat="42.69743" lon="0.66825">
        <ele>2079.5</ele>
        <time>2018-08-08T16:29:24.000Z</time>
      </trkpt>
      <trkpt lat="42.69743" lon="0.66825">
        <ele>2079.5</ele>
        <time>2018-08-08T16:29:25.000Z</time>
      </trkpt>
      <trkpt lat="42.69743" lon="0.66825">
        <ele>2079.5</ele>
        <time>2018-08-08T16:29:26.000Z</time>
      </trkpt>
      <trkpt lat="42.69743" lon="0.66825">
        <ele>2079.5</ele>
        <time>2018-08-08T16:29:27.000Z</time>
      </trkpt>
      <trkpt lat="42.69743" lon="0.66825">
        <ele>2079.5</ele>
        <time>2018-08-08T16:29:28.000Z</time>
      </trkpt>
      <trkpt lat="42.69743" lon="0.66825">
        <ele>2079.5</ele>
        <time>2018-08-08T16:29:29.000Z</time>
      </trkpt>
      <trkpt lat="42.69743" lon="0.66825">
        <ele>2079.5</ele>
        <time>2018-08-08T16:29:30.000Z</time>
      </trkpt>
      <trkpt lat="42.69743" lon="0.66825">
        <ele>2079.5</ele>
        <time>2018-08-08T16:29:31.000Z</time>
      </trkpt>
      <trkpt lat="42.69743" lon="0.66825">
        <ele>2079.5</ele>
        <time>2018-08-08T16:29:32.000Z</time>
      </trkpt>
      <trkpt lat="42.69743" lon="0.66825">
        <ele>2079.5</ele>
        <time>2018-08-08T16:29:33.000Z</time>
      </trkpt>
      <trkpt lat="42.69743" lon="0.66825">
        <ele>2079.5</ele>
        <time>2018-08-08T16:29:34.000Z</time>
      </trkpt>
      <trkpt lat="42.69743" lon="0.66825">
        <ele>2079.5</ele>
        <time>2018-08-08T16:29:35.000Z</time>
      </trkpt>
      <trkpt lat="42.69743" lon="0.66825">
        <ele>2079.5</ele>
        <time>2018-08-08T16:29:36.000Z</time>
      </trkpt>
      <trkpt lat="42.69743" lon="0.66825">
        <ele>2079.5</ele>
        <time>2018-08-08T16:29:37.000Z</time>
      </trkpt>
      <trkpt lat="42.69743" lon="0.66825">
        <ele>2079.5</ele>
        <time>2018-08-08T16:29:38.000Z</time>
      </trkpt>
      <trkpt lat="42.69743" lon="0.66825">
        <ele>2079.5</ele>
        <time>2018-08-08T16:29:39.000Z</time>
      </trkpt>
      <trkpt lat="42.69743" lon="0.66825">
        <ele>2079.5</ele>
        <time>2018-08-08T16:29:40.000Z</time>
      </trkpt>
      <trkpt lat="42.69743" lon="0.66825">
        <ele>2079.5</ele>
        <time>2018-08-08T16:29:41.000Z</time>
      </trkpt>
      <trkpt lat="42.69743" lon="0.66825">
        <ele>2079.5</ele>
        <time>2018-08-08T16:29:42.000Z</time>
      </trkpt>
      <trkpt lat="42.69743" lon="0.66825">
        <ele>2079.5</ele>
        <time>2018-08-08T16:29:43.000Z</time>
      </trkpt>
      <trkpt lat="42.69743" lon="0.66825">
        <ele>2079.5</ele>
        <time>2018-08-08T16:29:44.000Z</time>
      </trkpt>
      <trkpt lat="42.69743" lon="0.66825">
        <ele>2079.5</ele>
        <time>2018-08-08T16:29:45.000Z</time>
      </trkpt>
      <trkpt lat="42.69743" lon="0.66825">
        <ele>2079.5</ele>
        <time>2018-08-08T16:29:46.000Z</time>
      </trkpt>
      <trkpt lat="42.69743" lon="0.66825">
        <ele>2079.5</ele>
        <time>2018-08-08T16:29:47.000Z</time>
      </trkpt>
      <trkpt lat="42.69743" lon="0.66825">
        <ele>2079.5</ele>
        <time>2018-08-08T16:29:48.000Z</time>
      </trkpt>
      <trkpt lat="42.69743" lon="0.66825">
        <ele>2079.5</ele>
        <time>2018-08-08T16:29:49.000Z</time>
      </trkpt>
      <trkpt lat="42.69743" lon="0.66825">
        <ele>2079.5</ele>
        <time>2018-08-08T16:29:50.000Z</time>
      </trkpt>
      <trkpt lat="42.69743" lon="0.66825">
        <ele>2079.5</ele>
        <time>2018-08-08T16:29:51.000Z</time>
      </trkpt>
      <trkpt lat="42.69743" lon="0.66825">
        <ele>2079.5</ele>
        <time>2018-08-08T16:29:52.000Z</time>
      </trkpt>
      <trkpt lat="42.69743" lon="0.66825">
        <ele>2079.5</ele>
        <time>2018-08-08T16:29:53.000Z</time>
      </trkpt>
      <trkpt lat="42.69743" lon="0.66825">
        <ele>2079.5</ele>
        <time>2018-08-08T16:29:54.000Z</time>
      </trkpt>
      <trkpt lat="42.69743" lon="0.66825">
        <ele>2079.5</ele>
        <time>2018-08-08T16:29:55.000Z</time>
      </trkpt>
      <trkpt lat="42.69743" lon="0.66825">
        <ele>2079.5</ele>
        <time>2018-08-08T16:29:56.000Z</time>
      </trkpt>
      <trkpt lat="42.69743" lon="0.66825">
        <ele>2079.5</ele>
        <time>2018-08-08T16:29:57.000Z</time>
      </trkpt>
      <trkpt lat="42.69743" lon="0.66825">
        <ele>2079.5</ele>
        <time>2018-08-08T16:29:58.000Z</time>
      </trkpt>
      <trkpt lat="42.69743" lon="0.66825">
        <ele>2079.5</ele>
        <time>2018-08-08T16:29:59.000Z</time>
      </trkpt>
      <trkpt lat="42.69743" lon="0.66825">
        <ele>2079.5</ele>
        <time>2018-08-08T16:30:00.000Z</time>
      </trkpt>
      <trkpt lat="42.69743" lon="0.66825">
        <ele>2079.5</ele>
        <time>2018-08-08T16:30:01.000Z</time>
      </trkpt>
      <trkpt lat="42.69743" lon="0.66825">
        <ele>2079.5</ele>
        <time>2018-08-08T16:30:02.000Z</time>
      </trkpt>
      <trkpt lat="42.69743" lon="0.66825">
        <ele>2079.5</ele>
        <time>2018-08-08T16:30:03.000Z</time>
      </trkpt>
      <trkpt lat="42.69743" lon="0.66825">
        <ele>2079.5</ele>
        <time>2018-08-08T16:30:04.000Z</time>
      </trkpt>
      <trkpt lat="42.69743" lon="0.66825">
        <ele>2079.5</ele>
        <time>2018-08-08T16:30:05.000Z</time>
      </trkpt>
      <trkpt lat="42.69743" lon="0.66825">
        <ele>2079.5</ele>
        <time>2018-08-08T16:30:06.000Z</time>
      </trkpt>
      <trkpt lat="42.69743" lon="0.66825">
        <ele>2079.5</ele>
        <time>2018-08-08T16:30:07.000Z</time>
      </trkpt>
      <trkpt lat="42.69743" lon="0.66825">
        <ele>2079.5</ele>
        <time>2018-08-08T16:30:08.000Z</time>
      </trkpt>
      <trkpt lat="42.69743" lon="0.66825">
        <ele>2079.5</ele>
        <time>2018-08-08T16:30:09.000Z</time>
      </trkpt>
      <trkpt lat="42.69743" lon="0.66825">
        <ele>2079.5</ele>
        <time>2018-08-08T16:30:10.000Z</time>
      </trkpt>
      <trkpt lat="42.69743" lon="0.66825">
        <ele>2079.5</ele>
        <time>2018-08-08T16:30:11.000Z</time>
      </trkpt>
      <trkpt lat="42.69743" lon="0.66825">
        <ele>2079.5</ele>
        <time>2018-08-08T16:30:12.000Z</time>
      </trkpt>
      <trkpt lat="42.69743" lon="0.66825">
        <ele>2079.5</ele>
        <time>2018-08-08T16:30:13.000Z</time>
      </trkpt>
      <trkpt lat="42.69743" lon="0.66825">
        <ele>2079.5</ele>
        <time>2018-08-08T16:30:14.000Z</time>
      </trkpt>
      <trkpt lat="42.69743" lon="0.66825">
        <ele>2079.5</ele>
        <time>2018-08-08T16:30:15.000Z</time>
      </trkpt>
      <trkpt lat="42.69743" lon="0.66825">
        <ele>2079.5</ele>
        <time>2018-08-08T16:30:16.000Z</time>
      </trkpt>
      <trkpt lat="42.69743" lon="0.66825">
        <ele>2079.5</ele>
        <time>2018-08-08T16:30:17.000Z</time>
      </trkpt>
      <trkpt lat="42.69743" lon="0.66825">
        <ele>2079.5</ele>
        <time>2018-08-08T16:30:18.000Z</time>
      </trkpt>
      <trkpt lat="42.69743" lon="0.66825">
        <ele>2079.5</ele>
        <time>2018-08-08T16:30:19.000Z</time>
      </trkpt>
      <trkpt lat="42.69743" lon="0.66825">
        <ele>2079.5</ele>
        <time>2018-08-08T16:30:20.000Z</time>
      </trkpt>
      <trkpt lat="42.69743" lon="0.66825">
        <ele>2079.5</ele>
        <time>2018-08-08T16:30:21.000Z</time>
      </trkpt>
      <trkpt lat="42.69743" lon="0.66825">
        <ele>2079.5</ele>
        <time>2018-08-08T16:30:22.000Z</time>
      </trkpt>
      <trkpt lat="42.69743" lon="0.66825">
        <ele>2079.5</ele>
        <time>2018-08-08T16:30:23.000Z</time>
      </trkpt>
      <trkpt lat="42.69743" lon="0.66825">
        <ele>2079.5</ele>
        <time>2018-08-08T16:30:24.000Z</time>
      </trkpt>
      <trkpt lat="42.69743" lon="0.66825">
        <ele>2079.5</ele>
        <time>2018-08-08T16:30:25.000Z</time>
      </trkpt>
      <trkpt lat="42.69743" lon="0.66825">
        <ele>2079.5</ele>
        <time>2018-08-08T16:30:26.000Z</time>
      </trkpt>
      <trkpt lat="42.69743" lon="0.66825">
        <ele>2079.5</ele>
        <time>2018-08-08T16:30:27.000Z</time>
      </trkpt>
      <trkpt lat="42.69743" lon="0.66825">
        <ele>2079.5</ele>
        <time>2018-08-08T16:30:28.000Z</time>
      </trkpt>
      <trkpt lat="42.69743" lon="0.66825">
        <ele>2079.5</ele>
        <time>2018-08-08T16:30:29.000Z</time>
      </trkpt>
      <trkpt lat="42.69743" lon="0.66825">
        <ele>2079.5</ele>
        <time>2018-08-08T16:30:30.000Z</time>
      </trkpt>
      <trkpt lat="42.69743" lon="0.66825">
        <ele>2079.5</ele>
        <time>2018-08-08T16:30:31.000Z</time>
      </trkpt>
      <trkpt lat="42.69743" lon="0.66825">
        <ele>2079.5</ele>
        <time>2018-08-08T16:30:32.000Z</time>
      </trkpt>
      <trkpt lat="42.69743" lon="0.66825">
        <ele>2079.5</ele>
        <time>2018-08-08T16:30:33.000Z</time>
      </trkpt>
      <trkpt lat="42.69743" lon="0.66825">
        <ele>2079.5</ele>
        <time>2018-08-08T16:30:34.000Z</time>
      </trkpt>
      <trkpt lat="42.69743" lon="0.66825">
        <ele>2079.5</ele>
        <time>2018-08-08T16:30:35.000Z</time>
      </trkpt>
      <trkpt lat="42.69743" lon="0.66825">
        <ele>2079.5</ele>
        <time>2018-08-08T16:30:36.000Z</time>
      </trkpt>
      <trkpt lat="42.69743" lon="0.66825">
        <ele>2079.5</ele>
        <time>2018-08-08T16:30:37.000Z</time>
      </trkpt>
      <trkpt lat="42.69743" lon="0.66825">
        <ele>2079.5</ele>
        <time>2018-08-08T16:30:38.000Z</time>
      </trkpt>
      <trkpt lat="42.69743" lon="0.66825">
        <ele>2079.5</ele>
        <time>2018-08-08T16:30:39.000Z</time>
      </trkpt>
      <trkpt lat="42.69743" lon="0.66825">
        <ele>2079.5</ele>
        <time>2018-08-08T16:30:40.000Z</time>
      </trkpt>
      <trkpt lat="42.69743" lon="0.66825">
        <ele>2079.5</ele>
        <time>2018-08-08T16:30:41.000Z</time>
      </trkpt>
      <trkpt lat="42.69743" lon="0.66825">
        <ele>2079.5</ele>
        <time>2018-08-08T16:30:42.000Z</time>
      </trkpt>
      <trkpt lat="42.69743" lon="0.66825">
        <ele>2079.5</ele>
        <time>2018-08-08T16:30:43.000Z</time>
      </trkpt>
      <trkpt lat="42.69743" lon="0.66825">
        <ele>2079.5</ele>
        <time>2018-08-08T16:30:44.000Z</time>
      </trkpt>
      <trkpt lat="42.69743" lon="0.66825">
        <ele>2079.5</ele>
        <time>2018-08-08T16:30:45.000Z</time>
      </trkpt>
      <trkpt lat="42.69743" lon="0.66825">
        <ele>2079.5</ele>
        <time>2018-08-08T16:30:46.000Z</time>
      </trkpt>
      <trkpt lat="42.69743" lon="0.66825">
        <ele>2079.5</ele>
        <time>2018-08-08T16:30:47.000Z</time>
      </trkpt>
      <trkpt lat="42.69743" lon="0.66825">
        <ele>2079.5</ele>
        <time>2018-08-08T16:30:48.000Z</time>
      </trkpt>
      <trkpt lat="42.69743" lon="0.66825">
        <ele>2079.5</ele>
        <time>2018-08-08T16:30:49.000Z</time>
      </trkpt>
      <trkpt lat="42.69743" lon="0.66825">
        <ele>2079.5</ele>
        <time>2018-08-08T16:30:50.000Z</time>
      </trkpt>
      <trkpt lat="42.69743" lon="0.66825">
        <ele>2079.5</ele>
        <time>2018-08-08T16:30:51.000Z</time>
      </trkpt>
      <trkpt lat="42.69743" lon="0.66825">
        <ele>2079.5</ele>
        <time>2018-08-08T16:30:52.000Z</time>
      </trkpt>
      <trkpt lat="42.69743" lon="0.66825">
        <ele>2079.5</ele>
        <time>2018-08-08T16:30:53.000Z</time>
      </trkpt>
      <trkpt lat="42.69743" lon="0.66825">
        <ele>2079.5</ele>
        <time>2018-08-08T16:30:54.000Z</time>
      </trkpt>
      <trkpt lat="42.69743" lon="0.66825">
        <ele>2079.5</ele>
        <time>2018-08-08T16:30:55.000Z</time>
      </trkpt>
      <trkpt lat="42.69743" lon="0.66825">
        <ele>2079.5</ele>
        <time>2018-08-08T16:30:56.000Z</time>
      </trkpt>
      <trkpt lat="42.69743" lon="0.66825">
        <ele>2079.5</ele>
        <time>2018-08-08T16:30:57.000Z</time>
      </trkpt>
      <trkpt lat="42.69743" lon="0.66825">
        <ele>2079.5</ele>
        <time>2018-08-08T16:30:58.000Z</time>
      </trkpt>
      <trkpt lat="42.69743" lon="0.66825">
        <ele>2079.5</ele>
        <time>2018-08-08T16:30:59.000Z</time>
      </trkpt>
      <trkpt lat="42.69743" lon="0.66825">
        <ele>2079.5</ele>
        <time>2018-08-08T16:31:00.000Z</time>
      </trkpt>
      <trkpt lat="42.69743" lon="0.66825">
        <ele>2079.5</ele>
        <time>2018-08-08T16:31:01.000Z</time>
      </trkpt>
      <trkpt lat="42.69743" lon="0.66825">
        <ele>2079.5</ele>
        <time>2018-08-08T16:31:02.000Z</time>
      </trkpt>
      <trkpt lat="42.69743" lon="0.66825">
        <ele>2079.5</ele>
        <time>2018-08-08T16:31:03.000Z</time>
      </trkpt>
      <trkpt lat="42.69743" lon="0.66825">
        <ele>2079.5</ele>
        <time>2018-08-08T16:31:04.000Z</time>
      </trkpt>
      <trkpt lat="42.69743" lon="0.66825">
        <ele>2079.5</ele>
        <time>2018-08-08T16:31:05.000Z</time>
      </trkpt>
      <trkpt lat="42.69743" lon="0.66825">
        <ele>2079.5</ele>
        <time>2018-08-08T16:31:06.000Z</time>
      </trkpt>
      <trkpt lat="42.69743" lon="0.66825">
        <ele>2079.5</ele>
        <time>2018-08-08T16:31:07.000Z</time>
      </trkpt>
      <trkpt lat="42.69743" lon="0.66825">
        <ele>2079.5</ele>
        <time>2018-08-08T16:31:08.000Z</time>
      </trkpt>
      <trkpt lat="42.69743" lon="0.66825">
        <ele>2079.5</ele>
        <time>2018-08-08T16:31:09.000Z</time>
      </trkpt>
      <trkpt lat="42.69743" lon="0.66825">
        <ele>2079.5</ele>
        <time>2018-08-08T16:31:10.000Z</time>
      </trkpt>
      <trkpt lat="42.69743" lon="0.66825">
        <ele>2079.5</ele>
        <time>2018-08-08T16:31:11.000Z</time>
      </trkpt>
      <trkpt lat="42.69743" lon="0.66825">
        <ele>2079.5</ele>
        <time>2018-08-08T16:31:12.000Z</time>
      </trkpt>
      <trkpt lat="42.69743" lon="0.66825">
        <ele>2079.5</ele>
        <time>2018-08-08T16:31:13.000Z</time>
      </trkpt>
      <trkpt lat="42.69743" lon="0.66825">
        <ele>2079.5</ele>
        <time>2018-08-08T16:31:14.000Z</time>
      </trkpt>
      <trkpt lat="42.69743" lon="0.66825">
        <ele>2079.5</ele>
        <time>2018-08-08T16:31:15.000Z</time>
      </trkpt>
      <trkpt lat="42.69743" lon="0.66825">
        <ele>2079.5</ele>
        <time>2018-08-08T16:31:16.000Z</time>
      </trkpt>
      <trkpt lat="42.69743" lon="0.66825">
        <ele>2079.5</ele>
        <time>2018-08-08T16:31:17.000Z</time>
      </trkpt>
      <trkpt lat="42.69743" lon="0.66825">
        <ele>2079.5</ele>
        <time>2018-08-08T16:31:18.000Z</time>
      </trkpt>
      <trkpt lat="42.69743" lon="0.66825">
        <ele>2079.5</ele>
        <time>2018-08-08T16:31:19.000Z</time>
      </trkpt>
      <trkpt lat="42.69743" lon="0.66825">
        <ele>2079.5</ele>
        <time>2018-08-08T16:31:20.000Z</time>
      </trkpt>
      <trkpt lat="42.69743" lon="0.66825">
        <ele>2079.5</ele>
        <time>2018-08-08T16:31:21.000Z</time>
      </trkpt>
      <trkpt lat="42.69743" lon="0.66825">
        <ele>2079.5</ele>
        <time>2018-08-08T16:31:22.000Z</time>
      </trkpt>
      <trkpt lat="42.69743" lon="0.66825">
        <ele>2079.5</ele>
        <time>2018-08-08T16:31:23.000Z</time>
      </trkpt>
      <trkpt lat="42.69743" lon="0.66825">
        <ele>2079.5</ele>
        <time>2018-08-08T16:31:24.000Z</time>
      </trkpt>
      <trkpt lat="42.69743" lon="0.66825">
        <ele>2079.5</ele>
        <time>2018-08-08T16:31:25.000Z</time>
      </trkpt>
      <trkpt lat="42.69743" lon="0.66825">
        <ele>2079.5</ele>
        <time>2018-08-08T16:31:26.000Z</time>
      </trkpt>
      <trkpt lat="42.69743" lon="0.66825">
        <ele>2079.5</ele>
        <time>2018-08-08T16:31:27.000Z</time>
      </trkpt>
      <trkpt lat="42.69743" lon="0.66825">
        <ele>2079.5</ele>
        <time>2018-08-08T16:31:28.000Z</time>
      </trkpt>
      <trkpt lat="42.69743" lon="0.66825">
        <ele>2079.5</ele>
        <time>2018-08-08T16:31:29.000Z</time>
      </trkpt>
      <trkpt lat="42.69743" lon="0.66825">
        <ele>2079.5</ele>
        <time>2018-08-08T16:31:30.000Z</time>
      </trkpt>
      <trkpt lat="42.69743" lon="0.66825">
        <ele>2079.5</ele>
        <time>2018-08-08T16:31:31.000Z</time>
      </trkpt>
      <trkpt lat="42.69743" lon="0.66825">
        <ele>2079.5</ele>
        <time>2018-08-08T16:31:32.000Z</time>
      </trkpt>
      <trkpt lat="42.69743" lon="0.66825">
        <ele>2079.5</ele>
        <time>2018-08-08T16:31:33.000Z</time>
      </trkpt>
      <trkpt lat="42.69743" lon="0.66825">
        <ele>2079.5</ele>
        <time>2018-08-08T16:31:34.000Z</time>
      </trkpt>
      <trkpt lat="42.69743" lon="0.66825">
        <ele>2079.5</ele>
        <time>2018-08-08T16:31:35.000Z</time>
      </trkpt>
      <trkpt lat="42.69743" lon="0.66825">
        <ele>2079.5</ele>
        <time>2018-08-08T16:31:36.000Z</time>
      </trkpt>
      <trkpt lat="42.69743" lon="0.66825">
        <ele>2079.5</ele>
        <time>2018-08-08T16:31:37.000Z</time>
      </trkpt>
      <trkpt lat="42.69743" lon="0.66825">
        <ele>2079.5</ele>
        <time>2018-08-08T16:31:38.000Z</time>
      </trkpt>
      <trkpt lat="42.69743" lon="0.66825">
        <ele>2079.5</ele>
        <time>2018-08-08T16:31:39.000Z</time>
      </trkpt>
      <trkpt lat="42.69743" lon="0.66825">
        <ele>2079.5</ele>
        <time>2018-08-08T16:31:40.000Z</time>
      </trkpt>
      <trkpt lat="42.69743" lon="0.66825">
        <ele>2079.5</ele>
        <time>2018-08-08T16:31:41.000Z</time>
      </trkpt>
      <trkpt lat="42.69743" lon="0.66825">
        <ele>2079.5</ele>
        <time>2018-08-08T16:31:42.000Z</time>
      </trkpt>
      <trkpt lat="42.69743" lon="0.66825">
        <ele>2079.5</ele>
        <time>2018-08-08T16:31:43.000Z</time>
      </trkpt>
      <trkpt lat="42.69743" lon="0.66825">
        <ele>2079.5</ele>
        <time>2018-08-08T16:31:44.000Z</time>
      </trkpt>
      <trkpt lat="42.69743" lon="0.66825">
        <ele>2079.5</ele>
        <time>2018-08-08T16:31:45.000Z</time>
      </trkpt>
      <trkpt lat="42.69743" lon="0.66825">
        <ele>2079.5</ele>
        <time>2018-08-08T16:31:46.000Z</time>
      </trkpt>
      <trkpt lat="42.69743" lon="0.66825">
        <ele>2079.5</ele>
        <time>2018-08-08T16:31:47.000Z</time>
      </trkpt>
      <trkpt lat="42.69743" lon="0.66825">
        <ele>2079.5</ele>
        <time>2018-08-08T16:31:48.000Z</time>
      </trkpt>
      <trkpt lat="42.69743" lon="0.66825">
        <ele>2079.5</ele>
        <time>2018-08-08T16:31:49.000Z</time>
      </trkpt>
      <trkpt lat="42.69743" lon="0.66825">
        <ele>2079.5</ele>
        <time>2018-08-08T16:31:50.000Z</time>
      </trkpt>
      <trkpt lat="42.69743" lon="0.66825">
        <ele>2079.5</ele>
        <time>2018-08-08T16:31:51.000Z</time>
      </trkpt>
      <trkpt lat="42.69743" lon="0.66825">
        <ele>2079.5</ele>
        <time>2018-08-08T16:31:52.000Z</time>
      </trkpt>
      <trkpt lat="42.69743" lon="0.66825">
        <ele>2079.5</ele>
        <time>2018-08-08T16:31:53.000Z</time>
      </trkpt>
      <trkpt lat="42.69743" lon="0.66825">
        <ele>2079.5</ele>
        <time>2018-08-08T16:31:54.000Z</time>
      </trkpt>
      <trkpt lat="42.69743" lon="0.66825">
        <ele>2079.5</ele>
        <time>2018-08-08T16:31:55.000Z</time>
      </trkpt>
      <trkpt lat="42.69743" lon="0.66825">
        <ele>2079.5</ele>
        <time>2018-08-08T16:31:56.000Z</time>
      </trkpt>
      <trkpt lat="42.69743" lon="0.66825">
        <ele>2079.5</ele>
        <time>2018-08-08T16:31:57.000Z</time>
      </trkpt>
      <trkpt lat="42.69743" lon="0.66825">
        <ele>2079.5</ele>
        <time>2018-08-08T16:31:58.000Z</time>
      </trkpt>
      <trkpt lat="42.69743" lon="0.66825">
        <ele>2079.5</ele>
        <time>2018-08-08T16:31:59.000Z</time>
      </trkpt>
      <trkpt lat="42.69743" lon="0.66825">
        <ele>2079.5</ele>
        <time>2018-08-08T16:32:00.000Z</time>
      </trkpt>
      <trkpt lat="42.69743" lon="0.66825">
        <ele>2079.5</ele>
        <time>2018-08-08T16:32:01.000Z</time>
      </trkpt>
      <trkpt lat="42.69743" lon="0.66825">
        <ele>2079.5</ele>
        <time>2018-08-08T16:32:02.000Z</time>
      </trkpt>
      <trkpt lat="42.69743" lon="0.66825">
        <ele>2079.5</ele>
        <time>2018-08-08T16:32:03.000Z</time>
      </trkpt>
      <trkpt lat="42.69743" lon="0.66825">
        <ele>2079.5</ele>
        <time>2018-08-08T16:32:04.000Z</time>
      </trkpt>
      <trkpt lat="42.69743" lon="0.66825">
        <ele>2079.5</ele>
        <time>2018-08-08T16:32:05.000Z</time>
      </trkpt>
      <trkpt lat="42.69743" lon="0.66825">
        <ele>2079.5</ele>
        <time>2018-08-08T16:32:06.000Z</time>
      </trkpt>
      <trkpt lat="42.69743" lon="0.66825">
        <ele>2079.5</ele>
        <time>2018-08-08T16:32:07.000Z</time>
      </trkpt>
      <trkpt lat="42.69743" lon="0.66825">
        <ele>2079.5</ele>
        <time>2018-08-08T16:32:08.000Z</time>
      </trkpt>
      <trkpt lat="42.69743" lon="0.66825">
        <ele>2079.5</ele>
        <time>2018-08-08T16:32:09.000Z</time>
      </trkpt>
      <trkpt lat="42.69743" lon="0.66825">
        <ele>2079.5</ele>
        <time>2018-08-08T16:32:10.000Z</time>
      </trkpt>
      <trkpt lat="42.69743" lon="0.66825">
        <ele>2079.5</ele>
        <time>2018-08-08T16:32:11.000Z</time>
      </trkpt>
      <trkpt lat="42.69743" lon="0.66825">
        <ele>2079.5</ele>
        <time>2018-08-08T16:32:12.000Z</time>
      </trkpt>
      <trkpt lat="42.69743" lon="0.66825">
        <ele>2079.5</ele>
        <time>2018-08-08T16:32:13.000Z</time>
      </trkpt>
      <trkpt lat="42.69743" lon="0.66825">
        <ele>2079.5</ele>
        <time>2018-08-08T16:32:14.000Z</time>
      </trkpt>
      <trkpt lat="42.69743" lon="0.66825">
        <ele>2079.5</ele>
        <time>2018-08-08T16:32:15.000Z</time>
      </trkpt>
      <trkpt lat="42.69743" lon="0.66825">
        <ele>2079.5</ele>
        <time>2018-08-08T16:32:16.000Z</time>
      </trkpt>
      <trkpt lat="42.69743" lon="0.66825">
        <ele>2079.5</ele>
        <time>2018-08-08T16:32:17.000Z</time>
      </trkpt>
      <trkpt lat="42.69743" lon="0.66825">
        <ele>2079.5</ele>
        <time>2018-08-08T16:32:18.000Z</time>
      </trkpt>
      <trkpt lat="42.69743" lon="0.66825">
        <ele>2079.5</ele>
        <time>2018-08-08T16:32:19.000Z</time>
      </trkpt>
      <trkpt lat="42.69743" lon="0.66825">
        <ele>2079.5</ele>
        <time>2018-08-08T16:32:20.000Z</time>
      </trkpt>
      <trkpt lat="42.69743" lon="0.66825">
        <ele>2079.5</ele>
        <time>2018-08-08T16:32:21.000Z</time>
      </trkpt>
      <trkpt lat="42.69743" lon="0.66825">
        <ele>2079.5</ele>
        <time>2018-08-08T16:32:22.000Z</time>
      </trkpt>
      <trkpt lat="42.69743" lon="0.66825">
        <ele>2079.5</ele>
        <time>2018-08-08T16:32:23.000Z</time>
      </trkpt>
      <trkpt lat="42.69743" lon="0.66825">
        <ele>2079.5</ele>
        <time>2018-08-08T16:32:24.000Z</time>
      </trkpt>
      <trkpt lat="42.69743" lon="0.66825">
        <ele>2079.5</ele>
        <time>2018-08-08T16:32:25.000Z</time>
      </trkpt>
      <trkpt lat="42.69743" lon="0.66825">
        <ele>2079.5</ele>
        <time>2018-08-08T16:32:26.000Z</time>
      </trkpt>
      <trkpt lat="42.69743" lon="0.66825">
        <ele>2079.5</ele>
        <time>2018-08-08T16:32:27.000Z</time>
      </trkpt>
      <trkpt lat="42.69743" lon="0.66825">
        <ele>2079.5</ele>
        <time>2018-08-08T16:32:28.000Z</time>
      </trkpt>
      <trkpt lat="42.69743" lon="0.66825">
        <ele>2079.5</ele>
        <time>2018-08-08T16:32:29.000Z</time>
      </trkpt>
      <trkpt lat="42.69743" lon="0.66825">
        <ele>2079.5</ele>
        <time>2018-08-08T16:32:30.000Z</time>
      </trkpt>
      <trkpt lat="42.69743" lon="0.66825">
        <ele>2079.5</ele>
        <time>2018-08-08T16:32:31.000Z</time>
      </trkpt>
      <trkpt lat="42.69743" lon="0.66825">
        <ele>2079.5</ele>
        <time>2018-08-08T16:32:32.000Z</time>
      </trkpt>
      <trkpt lat="42.69743" lon="0.66825">
        <ele>2079.5</ele>
        <time>2018-08-08T16:32:33.000Z</time>
      </trkpt>
      <trkpt lat="42.69743" lon="0.66825">
        <ele>2079.5</ele>
        <time>2018-08-08T16:32:34.000Z</time>
      </trkpt>
      <trkpt lat="42.69743" lon="0.66825">
        <ele>2079.5</ele>
        <time>2018-08-08T16:32:35.000Z</time>
      </trkpt>
      <trkpt lat="42.69743" lon="0.66825">
        <ele>2079.5</ele>
        <time>2018-08-08T16:32:36.000Z</time>
      </trkpt>
      <trkpt lat="42.69743" lon="0.66825">
        <ele>2079.5</ele>
        <time>2018-08-08T16:32:37.000Z</time>
      </trkpt>
      <trkpt lat="42.69743" lon="0.66825">
        <ele>2079.5</ele>
        <time>2018-08-08T16:32:38.000Z</time>
      </trkpt>
      <trkpt lat="42.69743" lon="0.66825">
        <ele>2079.5</ele>
        <time>2018-08-08T16:32:39.000Z</time>
      </trkpt>
      <trkpt lat="42.69743" lon="0.66825">
        <ele>2079.5</ele>
        <time>2018-08-08T16:32:40.000Z</time>
      </trkpt>
      <trkpt lat="42.69743" lon="0.66825">
        <ele>2079.5</ele>
        <time>2018-08-08T16:32:41.000Z</time>
      </trkpt>
      <trkpt lat="42.69743" lon="0.66825">
        <ele>2079.5</ele>
        <time>2018-08-08T16:32:42.000Z</time>
      </trkpt>
      <trkpt lat="42.69743" lon="0.66825">
        <ele>2079.5</ele>
        <time>2018-08-08T16:32:43.000Z</time>
      </trkpt>
      <trkpt lat="42.69743" lon="0.66825">
        <ele>2079.5</ele>
        <time>2018-08-08T16:32:44.000Z</time>
      </trkpt>
      <trkpt lat="42.69743" lon="0.66825">
        <ele>2079.5</ele>
        <time>2018-08-08T16:32:45.000Z</time>
      </trkpt>
      <trkpt lat="42.69743" lon="0.66825">
        <ele>2079.5</ele>
        <time>2018-08-08T16:32:46.000Z</time>
      </trkpt>
      <trkpt lat="42.69743" lon="0.66825">
        <ele>2079.5</ele>
        <time>2018-08-08T16:32:47.000Z</time>
      </trkpt>
      <trkpt lat="42.69743" lon="0.66825">
        <ele>2079.5</ele>
        <time>2018-08-08T16:32:48.000Z</time>
      </trkpt>
      <trkpt lat="42.69743" lon="0.66825">
        <ele>2079.5</ele>
        <time>2018-08-08T16:32:49.000Z</time>
      </trkpt>
      <trkpt lat="42.69743" lon="0.66825">
        <ele>2079.5</ele>
        <time>2018-08-08T16:32:50.000Z</time>
      </trkpt>
      <trkpt lat="42.69743" lon="0.66825">
        <ele>2079.5</ele>
        <time>2018-08-08T16:32:51.000Z</time>
      </trkpt>
      <trkpt lat="42.69743" lon="0.66825">
        <ele>2079.5</ele>
        <time>2018-08-08T16:32:52.000Z</time>
      </trkpt>
      <trkpt lat="42.69743" lon="0.66825">
        <ele>2079.5</ele>
        <time>2018-08-08T16:32:53.000Z</time>
      </trkpt>
      <trkpt lat="42.69743" lon="0.66825">
        <ele>2079.5</ele>
        <time>2018-08-08T16:32:54.000Z</time>
      </trkpt>
      <trkpt lat="42.69743" lon="0.66825">
        <ele>2079.5</ele>
        <time>2018-08-08T16:32:55.000Z</time>
      </trkpt>
      <trkpt lat="42.69743" lon="0.66825">
        <ele>2079.5</ele>
        <time>2018-08-08T16:32:56.000Z</time>
      </trkpt>
      <trkpt lat="42.69743" lon="0.66825">
        <ele>2079.5</ele>
        <time>2018-08-08T16:32:57.000Z</time>
      </trkpt>
      <trkpt lat="42.69743" lon="0.66825">
        <ele>2079.5</ele>
        <time>2018-08-08T16:32:58.000Z</time>
      </trkpt>
      <trkpt lat="42.69743" lon="0.66825">
        <ele>2079.5</ele>
        <time>2018-08-08T16:32:59.000Z</time>
      </trkpt>
      <trkpt lat="42.69743" lon="0.66825">
        <ele>2079.5</ele>
        <time>2018-08-08T16:33:00.000Z</time>
      </trkpt>
      <trkpt lat="42.69743" lon="0.66825">
        <ele>2079.5</ele>
        <time>2018-08-08T16:33:01.000Z</time>
      </trkpt>
      <trkpt lat="42.69743" lon="0.66825">
        <ele>2079.5</ele>
        <time>2018-08-08T16:33:02.000Z</time>
      </trkpt>
      <trkpt lat="42.69743" lon="0.66825">
        <ele>2079.5</ele>
        <time>2018-08-08T16:33:03.000Z</time>
      </trkpt>
      <trkpt lat="42.69743" lon="0.66825">
        <ele>2079.5</ele>
        <time>2018-08-08T16:33:04.000Z</time>
      </trkpt>
      <trkpt lat="42.69743" lon="0.66825">
        <ele>2079.5</ele>
        <time>2018-08-08T16:33:05.000Z</time>
      </trkpt>
      <trkpt lat="42.69743" lon="0.66825">
        <ele>2079.5</ele>
        <time>2018-08-08T16:33:06.000Z</time>
      </trkpt>
      <trkpt lat="42.69743" lon="0.66825">
        <ele>2079.5</ele>
        <time>2018-08-08T16:33:07.000Z</time>
      </trkpt>
      <trkpt lat="42.69743" lon="0.66825">
        <ele>2079.5</ele>
        <time>2018-08-08T16:33:08.000Z</time>
      </trkpt>
      <trkpt lat="42.69743" lon="0.66825">
        <ele>2079.5</ele>
        <time>2018-08-08T16:33:09.000Z</time>
      </trkpt>
      <trkpt lat="42.69743" lon="0.66825">
        <ele>2079.5</ele>
        <time>2018-08-08T16:33:10.000Z</time>
      </trkpt>
      <trkpt lat="42.69743" lon="0.66825">
        <ele>2079.5</ele>
        <time>2018-08-08T16:33:11.000Z</time>
      </trkpt>
      <trkpt lat="42.69743" lon="0.66825">
        <ele>2079.5</ele>
        <time>2018-08-08T16:33:12.000Z</time>
      </trkpt>
      <trkpt lat="42.69743" lon="0.66825">
        <ele>2079.5</ele>
        <time>2018-08-08T16:33:13.000Z</time>
      </trkpt>
      <trkpt lat="42.69743" lon="0.66825">
        <ele>2079.5</ele>
        <time>2018-08-08T16:33:14.000Z</time>
      </trkpt>
      <trkpt lat="42.69743" lon="0.66825">
        <ele>2079.5</ele>
        <time>2018-08-08T16:33:15.000Z</time>
      </trkpt>
      <trkpt lat="42.69743" lon="0.66825">
        <ele>2079.5</ele>
        <time>2018-08-08T16:33:16.000Z</time>
      </trkpt>
      <trkpt lat="42.69743" lon="0.66825">
        <ele>2079.5</ele>
        <time>2018-08-08T16:33:17.000Z</time>
      </trkpt>
      <trkpt lat="42.69743" lon="0.66825">
        <ele>2079.5</ele>
        <time>2018-08-08T16:33:18.000Z</time>
      </trkpt>
      <trkpt lat="42.69743" lon="0.66825">
        <ele>2079.5</ele>
        <time>2018-08-08T16:33:19.000Z</time>
      </trkpt>
      <trkpt lat="42.69743" lon="0.66825">
        <ele>2079.5</ele>
        <time>2018-08-08T16:33:20.000Z</time>
      </trkpt>
      <trkpt lat="42.69743" lon="0.66825">
        <ele>2079.5</ele>
        <time>2018-08-08T16:33:21.000Z</time>
      </trkpt>
      <trkpt lat="42.69743" lon="0.66825">
        <ele>2079.5</ele>
        <time>2018-08-08T16:33:22.000Z</time>
      </trkpt>
      <trkpt lat="42.69743" lon="0.66825">
        <ele>2079.5</ele>
        <time>2018-08-08T16:33:23.000Z</time>
      </trkpt>
      <trkpt lat="42.69743" lon="0.66825">
        <ele>2079.5</ele>
        <time>2018-08-08T16:33:24.000Z</time>
      </trkpt>
      <trkpt lat="42.69743" lon="0.66825">
        <ele>2079.5</ele>
        <time>2018-08-08T16:33:25.000Z</time>
      </trkpt>
      <trkpt lat="42.69743" lon="0.66825">
        <ele>2079.5</ele>
        <time>2018-08-08T16:33:26.000Z</time>
      </trkpt>
      <trkpt lat="42.69743" lon="0.66825">
        <ele>2079.5</ele>
        <time>2018-08-08T16:33:27.000Z</time>
      </trkpt>
      <trkpt lat="42.69743" lon="0.66825">
        <ele>2079.5</ele>
        <time>2018-08-08T16:33:28.000Z</time>
      </trkpt>
      <trkpt lat="42.69743" lon="0.66825">
        <ele>2079.5</ele>
        <time>2018-08-08T16:33:29.000Z</time>
      </trkpt>
      <trkpt lat="42.69743" lon="0.66825">
        <ele>2079.5</ele>
        <time>2018-08-08T16:33:30.000Z</time>
      </trkpt>
      <trkpt lat="42.69743" lon="0.66825">
        <ele>2079.5</ele>
        <time>2018-08-08T16:33:31.000Z</time>
      </trkpt>
      <trkpt lat="42.69743" lon="0.66825">
        <ele>2079.5</ele>
        <time>2018-08-08T16:33:32.000Z</time>
      </trkpt>
      <trkpt lat="42.69743" lon="0.66825">
        <ele>2079.5</ele>
        <time>2018-08-08T16:33:33.000Z</time>
      </trkpt>
      <trkpt lat="42.69743" lon="0.66825">
        <ele>2079.5</ele>
        <time>2018-08-08T16:33:34.000Z</time>
      </trkpt>
      <trkpt lat="42.69743" lon="0.66825">
        <ele>2079.5</ele>
        <time>2018-08-08T16:33:35.000Z</time>
      </trkpt>
      <trkpt lat="42.69743" lon="0.66825">
        <ele>2079.5</ele>
        <time>2018-08-08T16:33:36.000Z</time>
      </trkpt>
      <trkpt lat="42.69743" lon="0.66825">
        <ele>2079.5</ele>
        <time>2018-08-08T16:33:37.000Z</time>
      </trkpt>
      <trkpt lat="42.69743" lon="0.66825">
        <ele>2079.5</ele>
        <time>2018-08-08T16:33:38.000Z</time>
      </trkpt>
      <trkpt lat="42.69743" lon="0.66825">
        <ele>2079.5</ele>
        <time>2018-08-08T16:33:39.000Z</time>
      </trkpt>
      <trkpt lat="42.69743" lon="0.66825">
        <ele>2079.5</ele>
        <time>2018-08-08T16:33:40.000Z</time>
      </trkpt>
      <trkpt lat="42.69743" lon="0.66825">
        <ele>2079.5</ele>
        <time>2018-08-08T16:33:41.000Z</time>
      </trkpt>
      <trkpt lat="42.69743" lon="0.66825">
        <ele>2079.5</ele>
        <time>2018-08-08T16:33:42.000Z</time>
      </trkpt>
      <trkpt lat="42.69743" lon="0.66825">
        <ele>2079.5</ele>
        <time>2018-08-08T16:33:43.000Z</time>
      </trkpt>
      <trkpt lat="42.69743" lon="0.66825">
        <ele>2079.5</ele>
        <time>2018-08-08T16:33:44.000Z</time>
      </trkpt>
      <trkpt lat="42.69743" lon="0.66825">
        <ele>2079.5</ele>
        <time>2018-08-08T16:33:45.000Z</time>
      </trkpt>
      <trkpt lat="42.69743" lon="0.66825">
        <ele>2079.5</ele>
        <time>2018-08-08T16:33:46.000Z</time>
      </trkpt>
      <trkpt lat="42.69743" lon="0.66825">
        <ele>2079.5</ele>
        <time>2018-08-08T16:33:47.000Z</time>
      </trkpt>
      <trkpt lat="42.69743" lon="0.66825">
        <ele>2079.5</ele>
        <time>2018-08-08T16:33:48.000Z</time>
      </trkpt>
      <trkpt lat="42.69743" lon="0.66825">
        <ele>2079.5</ele>
        <time>2018-08-08T16:33:49.000Z</time>
      </trkpt>
      <trkpt lat="42.69743" lon="0.66825">
        <ele>2079.5</ele>
        <time>2018-08-08T16:33:50.000Z</time>
      </trkpt>
      <trkpt lat="42.69743" lon="0.66825">
        <ele>2079.5</ele>
        <time>2018-08-08T16:33:51.000Z</time>
      </trkpt>
      <trkpt lat="42.69743" lon="0.66825">
        <ele>2079.5</ele>
        <time>2018-08-08T16:33:52.000Z</time>
      </trkpt>
      <trkpt lat="42.69743" lon="0.66825">
        <ele>2079.5</ele>
        <time>2018-08-08T16:33:53.000Z</time>
      </trkpt>
      <trkpt lat="42.69743" lon="0.66825">
        <ele>2079.5</ele>
        <time>2018-08-08T16:33:54.000Z</time>
      </trkpt>
      <trkpt lat="42.69743" lon="0.66825">
        <ele>2079.5</ele>
        <time>2018-08-08T16:33:55.000Z</time>
      </trkpt>
      <trkpt lat="42.69743" lon="0.66825">
        <ele>2079.5</ele>
        <time>2018-08-08T16:33:56.000Z</time>
      </trkpt>
      <trkpt lat="42.69743" lon="0.66825">
        <ele>2079.5</ele>
        <time>2018-08-08T16:33:57.000Z</time>
      </trkpt>
      <trkpt lat="42.69743" lon="0.66825">
        <ele>2079.5</ele>
        <time>2018-08-08T16:33:58.000Z</time>
      </trkpt>
      <trkpt lat="42.69743" lon="0.66825">
        <ele>2079.5</ele>
        <time>2018-08-08T16:33:59.000Z</time>
      </trkpt>
      <trkpt lat="42.69743" lon="0.66825">
        <ele>2079.5</ele>
        <time>2018-08-08T16:34:00.000Z</time>
      </trkpt>
      <trkpt lat="42.69743" lon="0.66825">
        <ele>2079.5</ele>
        <time>2018-08-08T16:34:01.000Z</time>
      </trkpt>
      <trkpt lat="42.69743" lon="0.66825">
        <ele>2079.5</ele>
        <time>2018-08-08T16:34:02.000Z</time>
      </trkpt>
      <trkpt lat="42.69743" lon="0.66825">
        <ele>2079.5</ele>
        <time>2018-08-08T16:34:03.000Z</time>
      </trkpt>
      <trkpt lat="42.69743" lon="0.66825">
        <ele>2079.5</ele>
        <time>2018-08-08T16:34:04.000Z</time>
      </trkpt>
      <trkpt lat="42.69743" lon="0.66825">
        <ele>2079.5</ele>
        <time>2018-08-08T16:34:05.000Z</time>
      </trkpt>
      <trkpt lat="42.69743" lon="0.66825">
        <ele>2079.5</ele>
        <time>2018-08-08T16:34:06.000Z</time>
      </trkpt>
      <trkpt lat="42.69743" lon="0.66825">
        <ele>2079.5</ele>
        <time>2018-08-08T16:34:07.000Z</time>
      </trkpt>
      <trkpt lat="42.69743" lon="0.66825">
        <ele>2079.5</ele>
        <time>2018-08-08T16:34:08.000Z</time>
      </trkpt>
      <trkpt lat="42.69743" lon="0.66825">
        <ele>2079.5</ele>
        <time>2018-08-08T16:34:09.000Z</time>
      </trkpt>
      <trkpt lat="42.69743" lon="0.66825">
        <ele>2079.5</ele>
        <time>2018-08-08T16:34:10.000Z</time>
      </trkpt>
      <trkpt lat="42.69743" lon="0.66825">
        <ele>2079.5</ele>
        <time>2018-08-08T16:34:11.000Z</time>
      </trkpt>
      <trkpt lat="42.69743" lon="0.66825">
        <ele>2079.5</ele>
        <time>2018-08-08T16:34:12.000Z</time>
      </trkpt>
      <trkpt lat="42.69743" lon="0.66825">
        <ele>2079.5</ele>
        <time>2018-08-08T16:34:13.000Z</time>
      </trkpt>
      <trkpt lat="42.69743" lon="0.66825">
        <ele>2079.5</ele>
        <time>2018-08-08T16:34:14.000Z</time>
      </trkpt>
      <trkpt lat="42.69743" lon="0.66825">
        <ele>2079.5</ele>
        <time>2018-08-08T16:34:15.000Z</time>
      </trkpt>
      <trkpt lat="42.69743" lon="0.66825">
        <ele>2079.5</ele>
        <time>2018-08-08T16:34:16.000Z</time>
      </trkpt>
      <trkpt lat="42.69743" lon="0.66825">
        <ele>2079.5</ele>
        <time>2018-08-08T16:34:17.000Z</time>
      </trkpt>
      <trkpt lat="42.69743" lon="0.66825">
        <ele>2079.5</ele>
        <time>2018-08-08T16:34:18.000Z</time>
      </trkpt>
      <trkpt lat="42.69743" lon="0.66825">
        <ele>2079.5</ele>
        <time>2018-08-08T16:34:19.000Z</time>
      </trkpt>
      <trkpt lat="42.69743" lon="0.66825">
        <ele>2079.5</ele>
        <time>2018-08-08T16:34:20.000Z</time>
      </trkpt>
      <trkpt lat="42.69743" lon="0.66825">
        <ele>2079.5</ele>
        <time>2018-08-08T16:34:21.000Z</time>
      </trkpt>
      <trkpt lat="42.69743" lon="0.66825">
        <ele>2079.5</ele>
        <time>2018-08-08T16:34:22.000Z</time>
      </trkpt>
      <trkpt lat="42.69743" lon="0.66825">
        <ele>2079.5</ele>
        <time>2018-08-08T16:34:23.000Z</time>
      </trkpt>
      <trkpt lat="42.69743" lon="0.66825">
        <ele>2079.5</ele>
        <time>2018-08-08T16:34:24.000Z</time>
      </trkpt>
      <trkpt lat="42.69743" lon="0.66825">
        <ele>2079.5</ele>
        <time>2018-08-08T16:34:25.000Z</time>
      </trkpt>
      <trkpt lat="42.69743" lon="0.66825">
        <ele>2079.5</ele>
        <time>2018-08-08T16:34:26.000Z</time>
      </trkpt>
      <trkpt lat="42.69743" lon="0.66825">
        <ele>2079.5</ele>
        <time>2018-08-08T16:34:27.000Z</time>
      </trkpt>
      <trkpt lat="42.69743" lon="0.66825">
        <ele>2079.5</ele>
        <time>2018-08-08T16:34:28.000Z</time>
      </trkpt>
      <trkpt lat="42.69743" lon="0.66825">
        <ele>2079.5</ele>
        <time>2018-08-08T16:34:29.000Z</time>
      </trkpt>
      <trkpt lat="42.69743" lon="0.66825">
        <ele>2079.5</ele>
        <time>2018-08-08T16:34:30.000Z</time>
      </trkpt>
      <trkpt lat="42.69743" lon="0.66825">
        <ele>2079.5</ele>
        <time>2018-08-08T16:34:31.000Z</time>
      </trkpt>
      <trkpt lat="42.69743" lon="0.66825">
        <ele>2079.5</ele>
        <time>2018-08-08T16:34:32.000Z</time>
      </trkpt>
      <trkpt lat="42.69743" lon="0.66825">
        <ele>2079.5</ele>
        <time>2018-08-08T16:34:33.000Z</time>
      </trkpt>
      <trkpt lat="42.69743" lon="0.66825">
        <ele>2079.5</ele>
        <time>2018-08-08T16:34:34.000Z</time>
      </trkpt>
      <trkpt lat="42.69743" lon="0.66825">
        <ele>2079.5</ele>
        <time>2018-08-08T16:34:35.000Z</time>
      </trkpt>
      <trkpt lat="42.69743" lon="0.66825">
        <ele>2079.5</ele>
        <time>2018-08-08T16:34:36.000Z</time>
      </trkpt>
      <trkpt lat="42.69743" lon="0.66825">
        <ele>2079.5</ele>
        <time>2018-08-08T16:34:37.000Z</time>
      </trkpt>
      <trkpt lat="42.69743" lon="0.66825">
        <ele>2079.5</ele>
        <time>2018-08-08T16:34:38.000Z</time>
      </trkpt>
      <trkpt lat="42.69743" lon="0.66825">
        <ele>2079.5</ele>
        <time>2018-08-08T16:34:39.000Z</time>
      </trkpt>
      <trkpt lat="42.69743" lon="0.66825">
        <ele>2079.5</ele>
        <time>2018-08-08T16:34:40.000Z</time>
      </trkpt>
      <trkpt lat="42.69743" lon="0.66825">
        <ele>2079.5</ele>
        <time>2018-08-08T16:34:41.000Z</time>
      </trkpt>
      <trkpt lat="42.69743" lon="0.66825">
        <ele>2079.5</ele>
        <time>2018-08-08T16:34:42.000Z</time>
      </trkpt>
      <trkpt lat="42.69743" lon="0.66825">
        <ele>2079.5</ele>
        <time>2018-08-08T16:34:43.000Z</time>
      </trkpt>
      <trkpt lat="42.69743" lon="0.66825">
        <ele>2079.5</ele>
        <time>2018-08-08T16:34:44.000Z</time>
      </trkpt>
      <trkpt lat="42.69743" lon="0.66825">
        <ele>2079.5</ele>
        <time>2018-08-08T16:34:45.000Z</time>
      </trkpt>
      <trkpt lat="42.69743" lon="0.66825">
        <ele>2079.5</ele>
        <time>2018-08-08T16:34:46.000Z</time>
      </trkpt>
      <trkpt lat="42.69743" lon="0.66825">
        <ele>2079.5</ele>
        <time>2018-08-08T16:34:47.000Z</time>
      </trkpt>
      <trkpt lat="42.69743" lon="0.66825">
        <ele>2079.5</ele>
        <time>2018-08-08T16:34:48.000Z</time>
      </trkpt>
      <trkpt lat="42.69743" lon="0.66825">
        <ele>2079.5</ele>
        <time>2018-08-08T16:34:49.000Z</time>
      </trkpt>
      <trkpt lat="42.69743" lon="0.66825">
        <ele>2079.5</ele>
        <time>2018-08-08T16:34:50.000Z</time>
      </trkpt>
      <trkpt lat="42.69743" lon="0.66825">
        <ele>2079.5</ele>
        <time>2018-08-08T16:34:51.000Z</time>
      </trkpt>
      <trkpt lat="42.69743" lon="0.66825">
        <ele>2079.5</ele>
        <time>2018-08-08T16:34:52.000Z</time>
      </trkpt>
      <trkpt lat="42.69743" lon="0.66825">
        <ele>2079.5</ele>
        <time>2018-08-08T16:34:53.000Z</time>
      </trkpt>
      <trkpt lat="42.69743" lon="0.66825">
        <ele>2079.5</ele>
        <time>2018-08-08T16:34:54.000Z</time>
      </trkpt>
      <trkpt lat="42.69743" lon="0.66825">
        <ele>2079.5</ele>
        <time>2018-08-08T16:34:55.000Z</time>
      </trkpt>
      <trkpt lat="42.69743" lon="0.66825">
        <ele>2079.5</ele>
        <time>2018-08-08T16:34:56.000Z</time>
      </trkpt>
      <trkpt lat="42.69743" lon="0.66825">
        <ele>2079.5</ele>
        <time>2018-08-08T16:34:57.000Z</time>
      </trkpt>
      <trkpt lat="42.69743" lon="0.66825">
        <ele>2079.5</ele>
        <time>2018-08-08T16:34:58.000Z</time>
      </trkpt>
      <trkpt lat="42.69743" lon="0.66825">
        <ele>2079.5</ele>
        <time>2018-08-08T16:34:59.000Z</time>
      </trkpt>
      <trkpt lat="42.69743" lon="0.66825">
        <ele>2079.5</ele>
        <time>2018-08-08T16:35:00.000Z</time>
      </trkpt>
      <trkpt lat="42.69743" lon="0.66825">
        <ele>2079.5</ele>
        <time>2018-08-08T16:35:01.000Z</time>
      </trkpt>
      <trkpt lat="42.69743" lon="0.66825">
        <ele>2079.5</ele>
        <time>2018-08-08T16:35:02.000Z</time>
      </trkpt>
      <trkpt lat="42.69743" lon="0.66825">
        <ele>2079.5</ele>
        <time>2018-08-08T16:35:03.000Z</time>
      </trkpt>
      <trkpt lat="42.69743" lon="0.66825">
        <ele>2079.5</ele>
        <time>2018-08-08T16:35:04.000Z</time>
      </trkpt>
      <trkpt lat="42.69743" lon="0.66825">
        <ele>2079.5</ele>
        <time>2018-08-08T16:35:05.000Z</time>
      </trkpt>
      <trkpt lat="42.69743" lon="0.66825">
        <ele>2079.5</ele>
        <time>2018-08-08T16:35:06.000Z</time>
      </trkpt>
      <trkpt lat="42.69743" lon="0.66825">
        <ele>2079.5</ele>
        <time>2018-08-08T16:35:07.000Z</time>
      </trkpt>
      <trkpt lat="42.69743" lon="0.66825">
        <ele>2079.5</ele>
        <time>2018-08-08T16:35:08.000Z</time>
      </trkpt>
      <trkpt lat="42.69743" lon="0.66825">
        <ele>2079.5</ele>
        <time>2018-08-08T16:35:09.000Z</time>
      </trkpt>
      <trkpt lat="42.69743" lon="0.66825">
        <ele>2079.5</ele>
        <time>2018-08-08T16:35:10.000Z</time>
      </trkpt>
      <trkpt lat="42.69743" lon="0.66825">
        <ele>2079.5</ele>
        <time>2018-08-08T16:35:11.000Z</time>
      </trkpt>
      <trkpt lat="42.69743" lon="0.66825">
        <ele>2079.5</ele>
        <time>2018-08-08T16:35:12.000Z</time>
      </trkpt>
      <trkpt lat="42.69743" lon="0.66825">
        <ele>2079.5</ele>
        <time>2018-08-08T16:35:13.000Z</time>
      </trkpt>
      <trkpt lat="42.69743" lon="0.66825">
        <ele>2079.5</ele>
        <time>2018-08-08T16:35:14.000Z</time>
      </trkpt>
      <trkpt lat="42.69743" lon="0.66825">
        <ele>2079.5</ele>
        <time>2018-08-08T16:35:15.000Z</time>
      </trkpt>
      <trkpt lat="42.69743" lon="0.66825">
        <ele>2079.5</ele>
        <time>2018-08-08T16:35:16.000Z</time>
      </trkpt>
      <trkpt lat="42.69743" lon="0.66825">
        <ele>2079.5</ele>
        <time>2018-08-08T16:35:17.000Z</time>
      </trkpt>
      <trkpt lat="42.69743" lon="0.66825">
        <ele>2079.5</ele>
        <time>2018-08-08T16:35:18.000Z</time>
      </trkpt>
      <trkpt lat="42.69743" lon="0.66825">
        <ele>2079.5</ele>
        <time>2018-08-08T16:35:19.000Z</time>
      </trkpt>
      <trkpt lat="42.69743" lon="0.66825">
        <ele>2079.5</ele>
        <time>2018-08-08T16:35:20.000Z</time>
      </trkpt>
      <trkpt lat="42.69743" lon="0.66825">
        <ele>2079.5</ele>
        <time>2018-08-08T16:35:21.000Z</time>
      </trkpt>
      <trkpt lat="42.69743" lon="0.66825">
        <ele>2079.5</ele>
        <time>2018-08-08T16:35:22.000Z</time>
      </trkpt>
      <trkpt lat="42.69743" lon="0.66825">
        <ele>2079.5</ele>
        <time>2018-08-08T16:35:23.000Z</time>
      </trkpt>
      <trkpt lat="42.69743" lon="0.66825">
        <ele>2079.5</ele>
        <time>2018-08-08T16:35:24.000Z</time>
      </trkpt>
      <trkpt lat="42.69743" lon="0.66825">
        <ele>2079.5</ele>
        <time>2018-08-08T16:35:25.000Z</time>
      </trkpt>
      <trkpt lat="42.69743" lon="0.66825">
        <ele>2079.5</ele>
        <time>2018-08-08T16:35:26.000Z</time>
      </trkpt>
      <trkpt lat="42.69743" lon="0.66825">
        <ele>2079.5</ele>
        <time>2018-08-08T16:35:27.000Z</time>
      </trkpt>
      <trkpt lat="42.69743" lon="0.66825">
        <ele>2079.5</ele>
        <time>2018-08-08T16:35:28.000Z</time>
      </trkpt>
      <trkpt lat="42.69743" lon="0.66825">
        <ele>2079.5</ele>
        <time>2018-08-08T16:35:29.000Z</time>
      </trkpt>
      <trkpt lat="42.69743" lon="0.66825">
        <ele>2079.5</ele>
        <time>2018-08-08T16:35:30.000Z</time>
      </trkpt>
      <trkpt lat="42.69743" lon="0.66825">
        <ele>2079.5</ele>
        <time>2018-08-08T16:35:31.000Z</time>
      </trkpt>
      <trkpt lat="42.69743" lon="0.66825">
        <ele>2079.5</ele>
        <time>2018-08-08T16:35:32.000Z</time>
      </trkpt>
      <trkpt lat="42.69743" lon="0.66825">
        <ele>2079.5</ele>
        <time>2018-08-08T16:35:33.000Z</time>
      </trkpt>
      <trkpt lat="42.69743" lon="0.66825">
        <ele>2079.5</ele>
        <time>2018-08-08T16:35:34.000Z</time>
      </trkpt>
      <trkpt lat="42.69743" lon="0.66825">
        <ele>2079.5</ele>
        <time>2018-08-08T16:35:35.000Z</time>
      </trkpt>
      <trkpt lat="42.69743" lon="0.66825">
        <ele>2079.5</ele>
        <time>2018-08-08T16:35:36.000Z</time>
      </trkpt>
      <trkpt lat="42.69743" lon="0.66825">
        <ele>2079.5</ele>
        <time>2018-08-08T16:35:37.000Z</time>
      </trkpt>
      <trkpt lat="42.69743" lon="0.66825">
        <ele>2079.5</ele>
        <time>2018-08-08T16:35:38.000Z</time>
      </trkpt>
      <trkpt lat="42.69743" lon="0.66825">
        <ele>2079.5</ele>
        <time>2018-08-08T16:35:39.000Z</time>
      </trkpt>
      <trkpt lat="42.69743" lon="0.66825">
        <ele>2079.5</ele>
        <time>2018-08-08T16:35:40.000Z</time>
      </trkpt>
      <trkpt lat="42.69743" lon="0.66825">
        <ele>2079.5</ele>
        <time>2018-08-08T16:35:41.000Z</time>
      </trkpt>
      <trkpt lat="42.69743" lon="0.66825">
        <ele>2079.5</ele>
        <time>2018-08-08T16:35:42.000Z</time>
      </trkpt>
      <trkpt lat="42.69743" lon="0.66825">
        <ele>2079.5</ele>
        <time>2018-08-08T16:35:43.000Z</time>
      </trkpt>
      <trkpt lat="42.69743" lon="0.66825">
        <ele>2079.5</ele>
        <time>2018-08-08T16:35:44.000Z</time>
      </trkpt>
      <trkpt lat="42.69743" lon="0.66825">
        <ele>2079.5</ele>
        <time>2018-08-08T16:35:45.000Z</time>
      </trkpt>
      <trkpt lat="42.69743" lon="0.66825">
        <ele>2079.5</ele>
        <time>2018-08-08T16:35:46.000Z</time>
      </trkpt>
      <trkpt lat="42.69743" lon="0.66825">
        <ele>2079.5</ele>
        <time>2018-08-08T16:35:47.000Z</time>
      </trkpt>
      <trkpt lat="42.69743" lon="0.66825">
        <ele>2079.5</ele>
        <time>2018-08-08T16:35:48.000Z</time>
      </trkpt>
      <trkpt lat="42.69743" lon="0.66825">
        <ele>2079.5</ele>
        <time>2018-08-08T16:35:49.000Z</time>
      </trkpt>
      <trkpt lat="42.69743" lon="0.66825">
        <ele>2079.5</ele>
        <time>2018-08-08T16:35:50.000Z</time>
      </trkpt>
      <trkpt lat="42.69743" lon="0.66825">
        <ele>2079.5</ele>
        <time>2018-08-08T16:35:51.000Z</time>
      </trkpt>
      <trkpt lat="42.69743" lon="0.66825">
        <ele>2079.5</ele>
        <time>2018-08-08T16:35:52.000Z</time>
      </trkpt>
      <trkpt lat="42.69743" lon="0.66825">
        <ele>2079.5</ele>
        <time>2018-08-08T16:35:53.000Z</time>
      </trkpt>
      <trkpt lat="42.69743" lon="0.66825">
        <ele>2079.5</ele>
        <time>2018-08-08T16:35:54.000Z</time>
      </trkpt>
      <trkpt lat="42.69743" lon="0.66825">
        <ele>2079.5</ele>
        <time>2018-08-08T16:35:55.000Z</time>
      </trkpt>
      <trkpt lat="42.69743" lon="0.66825">
        <ele>2079.5</ele>
        <time>2018-08-08T16:35:56.000Z</time>
      </trkpt>
      <trkpt lat="42.69743" lon="0.66825">
        <ele>2079.5</ele>
        <time>2018-08-08T16:35:57.000Z</time>
      </trkpt>
      <trkpt lat="42.69743" lon="0.66825">
        <ele>2079.5</ele>
        <time>2018-08-08T16:35:58.000Z</time>
      </trkpt>
      <trkpt lat="42.69743" lon="0.66825">
        <ele>2079.5</ele>
        <time>2018-08-08T16:35:59.000Z</time>
      </trkpt>
      <trkpt lat="42.69743" lon="0.66825">
        <ele>2079.5</ele>
        <time>2018-08-08T16:36:00.000Z</time>
      </trkpt>
      <trkpt lat="42.69743" lon="0.66825">
        <ele>2079.5</ele>
        <time>2018-08-08T16:36:01.000Z</time>
      </trkpt>
      <trkpt lat="42.69743" lon="0.66825">
        <ele>2079.5</ele>
        <time>2018-08-08T16:36:02.000Z</time>
      </trkpt>
      <trkpt lat="42.69743" lon="0.66825">
        <ele>2079.5</ele>
        <time>2018-08-08T16:36:03.000Z</time>
      </trkpt>
      <trkpt lat="42.69743" lon="0.66825">
        <ele>2079.5</ele>
        <time>2018-08-08T16:36:04.000Z</time>
      </trkpt>
      <trkpt lat="42.69743" lon="0.66825">
        <ele>2079.5</ele>
        <time>2018-08-08T16:36:05.000Z</time>
      </trkpt>
      <trkpt lat="42.69743" lon="0.66825">
        <ele>2079.5</ele>
        <time>2018-08-08T16:36:06.000Z</time>
      </trkpt>
      <trkpt lat="42.69743" lon="0.66825">
        <ele>2079.5</ele>
        <time>2018-08-08T16:36:07.000Z</time>
      </trkpt>
      <trkpt lat="42.69743" lon="0.66825">
        <ele>2079.5</ele>
        <time>2018-08-08T16:36:08.000Z</time>
      </trkpt>
      <trkpt lat="42.69743" lon="0.66825">
        <ele>2079.5</ele>
        <time>2018-08-08T16:36:09.000Z</time>
      </trkpt>
      <trkpt lat="42.69743" lon="0.66825">
        <ele>2079.5</ele>
        <time>2018-08-08T16:36:10.000Z</time>
      </trkpt>
      <trkpt lat="42.69743" lon="0.66825">
        <ele>2079.5</ele>
        <time>2018-08-08T16:36:11.000Z</time>
      </trkpt>
      <trkpt lat="42.69743" lon="0.66825">
        <ele>2079.5</ele>
        <time>2018-08-08T16:36:12.000Z</time>
      </trkpt>
      <trkpt lat="42.69743" lon="0.66825">
        <ele>2079.5</ele>
        <time>2018-08-08T16:36:13.000Z</time>
      </trkpt>
      <trkpt lat="42.69743" lon="0.66825">
        <ele>2079.5</ele>
        <time>2018-08-08T16:36:14.000Z</time>
      </trkpt>
      <trkpt lat="42.69743" lon="0.66825">
        <ele>2079.5</ele>
        <time>2018-08-08T16:36:15.000Z</time>
      </trkpt>
      <trkpt lat="42.69743" lon="0.66825">
        <ele>2079.5</ele>
        <time>2018-08-08T16:36:16.000Z</time>
      </trkpt>
      <trkpt lat="42.69743" lon="0.66825">
        <ele>2079.5</ele>
        <time>2018-08-08T16:36:17.000Z</time>
      </trkpt>
      <trkpt lat="42.69743" lon="0.66825">
        <ele>2079.5</ele>
        <time>2018-08-08T16:36:18.000Z</time>
      </trkpt>
      <trkpt lat="42.69743" lon="0.66825">
        <ele>2079.5</ele>
        <time>2018-08-08T16:36:19.000Z</time>
      </trkpt>
      <trkpt lat="42.69743" lon="0.66825">
        <ele>2079.5</ele>
        <time>2018-08-08T16:36:20.000Z</time>
      </trkpt>
      <trkpt lat="42.69743" lon="0.66825">
        <ele>2079.5</ele>
        <time>2018-08-08T16:36:21.000Z</time>
      </trkpt>
      <trkpt lat="42.69743" lon="0.66825">
        <ele>2079.5</ele>
        <time>2018-08-08T16:36:22.000Z</time>
      </trkpt>
      <trkpt lat="42.69743" lon="0.66825">
        <ele>2079.5</ele>
        <time>2018-08-08T16:36:23.000Z</time>
      </trkpt>
      <trkpt lat="42.69743" lon="0.66825">
        <ele>2079.5</ele>
        <time>2018-08-08T16:36:24.000Z</time>
      </trkpt>
      <trkpt lat="42.69743" lon="0.66825">
        <ele>2079.5</ele>
        <time>2018-08-08T16:36:25.000Z</time>
      </trkpt>
      <trkpt lat="42.69743" lon="0.66825">
        <ele>2079.5</ele>
        <time>2018-08-08T16:36:26.000Z</time>
      </trkpt>
      <trkpt lat="42.69743" lon="0.66825">
        <ele>2079.5</ele>
        <time>2018-08-08T16:36:27.000Z</time>
      </trkpt>
      <trkpt lat="42.69743" lon="0.66825">
        <ele>2079.5</ele>
        <time>2018-08-08T16:36:28.000Z</time>
      </trkpt>
      <trkpt lat="42.69743" lon="0.66825">
        <ele>2079.5</ele>
        <time>2018-08-08T16:36:29.000Z</time>
      </trkpt>
      <trkpt lat="42.69743" lon="0.66825">
        <ele>2079.5</ele>
        <time>2018-08-08T16:36:30.000Z</time>
      </trkpt>
      <trkpt lat="42.69743" lon="0.66825">
        <ele>2079.5</ele>
        <time>2018-08-08T16:36:31.000Z</time>
      </trkpt>
      <trkpt lat="42.69743" lon="0.66825">
        <ele>2079.5</ele>
        <time>2018-08-08T16:36:32.000Z</time>
      </trkpt>
      <trkpt lat="42.69743" lon="0.66825">
        <ele>2079.5</ele>
        <time>2018-08-08T16:36:33.000Z</time>
      </trkpt>
      <trkpt lat="42.69743" lon="0.66825">
        <ele>2079.5</ele>
        <time>2018-08-08T16:36:34.000Z</time>
      </trkpt>
      <trkpt lat="42.69743" lon="0.66825">
        <ele>2079.5</ele>
        <time>2018-08-08T16:36:35.000Z</time>
      </trkpt>
      <trkpt lat="42.69743" lon="0.66825">
        <ele>2079.5</ele>
        <time>2018-08-08T16:36:36.000Z</time>
      </trkpt>
      <trkpt lat="42.69743" lon="0.66825">
        <ele>2079.5</ele>
        <time>2018-08-08T16:36:37.000Z</time>
      </trkpt>
      <trkpt lat="42.69743" lon="0.66825">
        <ele>2079.5</ele>
        <time>2018-08-08T16:36:38.000Z</time>
      </trkpt>
      <trkpt lat="42.69743" lon="0.66825">
        <ele>2079.5</ele>
        <time>2018-08-08T16:36:39.000Z</time>
      </trkpt>
      <trkpt lat="42.69743" lon="0.66825">
        <ele>2079.5</ele>
        <time>2018-08-08T16:36:40.000Z</time>
      </trkpt>
      <trkpt lat="42.69743" lon="0.66825">
        <ele>2079.5</ele>
        <time>2018-08-08T16:36:41.000Z</time>
      </trkpt>
      <trkpt lat="42.69743" lon="0.66825">
        <ele>2079.5</ele>
        <time>2018-08-08T16:36:42.000Z</time>
      </trkpt>
      <trkpt lat="42.69743" lon="0.66825">
        <ele>2079.5</ele>
        <time>2018-08-08T16:36:43.000Z</time>
      </trkpt>
      <trkpt lat="42.69743" lon="0.66825">
        <ele>2079.5</ele>
        <time>2018-08-08T16:36:44.000Z</time>
      </trkpt>
      <trkpt lat="42.69743" lon="0.66825">
        <ele>2079.5</ele>
        <time>2018-08-08T16:36:45.000Z</time>
      </trkpt>
      <trkpt lat="42.69743" lon="0.66825">
        <ele>2079.5</ele>
        <time>2018-08-08T16:36:46.000Z</time>
      </trkpt>
      <trkpt lat="42.69743" lon="0.66825">
        <ele>2079.5</ele>
        <time>2018-08-08T16:36:47.000Z</time>
      </trkpt>
      <trkpt lat="42.69743" lon="0.66825">
        <ele>2079.5</ele>
        <time>2018-08-08T16:36:48.000Z</time>
      </trkpt>
      <trkpt lat="42.69743" lon="0.66825">
        <ele>2079.5</ele>
        <time>2018-08-08T16:36:49.000Z</time>
      </trkpt>
      <trkpt lat="42.69743" lon="0.66825">
        <ele>2079.5</ele>
        <time>2018-08-08T16:36:50.000Z</time>
      </trkpt>
      <trkpt lat="42.69743" lon="0.66825">
        <ele>2079.5</ele>
        <time>2018-08-08T16:36:51.000Z</time>
      </trkpt>
      <trkpt lat="42.69743" lon="0.66825">
        <ele>2079.5</ele>
        <time>2018-08-08T16:36:52.000Z</time>
      </trkpt>
      <trkpt lat="42.69743" lon="0.66825">
        <ele>2079.5</ele>
        <time>2018-08-08T16:36:53.000Z</time>
      </trkpt>
      <trkpt lat="42.69743" lon="0.66825">
        <ele>2079.5</ele>
        <time>2018-08-08T16:36:54.000Z</time>
      </trkpt>
      <trkpt lat="42.69743" lon="0.66825">
        <ele>2079.5</ele>
        <time>2018-08-08T16:36:55.000Z</time>
      </trkpt>
      <trkpt lat="42.69743" lon="0.66825">
        <ele>2079.5</ele>
        <time>2018-08-08T16:36:56.000Z</time>
      </trkpt>
      <trkpt lat="42.69743" lon="0.66825">
        <ele>2079.5</ele>
        <time>2018-08-08T16:36:57.000Z</time>
      </trkpt>
      <trkpt lat="42.69743" lon="0.66825">
        <ele>2079.5</ele>
        <time>2018-08-08T16:36:58.000Z</time>
      </trkpt>
      <trkpt lat="42.69743" lon="0.66825">
        <ele>2079.5</ele>
        <time>2018-08-08T16:36:59.000Z</time>
      </trkpt>
      <trkpt lat="42.69743" lon="0.66825">
        <ele>2079.5</ele>
        <time>2018-08-08T16:37:00.000Z</time>
      </trkpt>
      <trkpt lat="42.69743" lon="0.66825">
        <ele>2079.5</ele>
        <time>2018-08-08T16:37:01.000Z</time>
      </trkpt>
      <trkpt lat="42.69743" lon="0.66825">
        <ele>2079.5</ele>
        <time>2018-08-08T16:37:02.000Z</time>
      </trkpt>
      <trkpt lat="42.69743" lon="0.66825">
        <ele>2079.5</ele>
        <time>2018-08-08T16:37:03.000Z</time>
      </trkpt>
      <trkpt lat="42.69743" lon="0.66825">
        <ele>2079.5</ele>
        <time>2018-08-08T16:37:04.000Z</time>
      </trkpt>
      <trkpt lat="42.69743" lon="0.66825">
        <ele>2079.5</ele>
        <time>2018-08-08T16:37:05.000Z</time>
      </trkpt>
      <trkpt lat="42.69743" lon="0.66825">
        <ele>2079.5</ele>
        <time>2018-08-08T16:37:06.000Z</time>
      </trkpt>
      <trkpt lat="42.69743" lon="0.66825">
        <ele>2079.5</ele>
        <time>2018-08-08T16:37:07.000Z</time>
      </trkpt>
      <trkpt lat="42.69743" lon="0.66825">
        <ele>2079.5</ele>
        <time>2018-08-08T16:37:08.000Z</time>
      </trkpt>
      <trkpt lat="42.69743" lon="0.66825">
        <ele>2079.5</ele>
        <time>2018-08-08T16:37:09.000Z</time>
      </trkpt>
      <trkpt lat="42.69743" lon="0.66825">
        <ele>2079.5</ele>
        <time>2018-08-08T16:37:10.000Z</time>
      </trkpt>
      <trkpt lat="42.69743" lon="0.66825">
        <ele>2079.5</ele>
        <time>2018-08-08T16:37:11.000Z</time>
      </trkpt>
      <trkpt lat="42.69743" lon="0.66825">
        <ele>2079.5</ele>
        <time>2018-08-08T16:37:12.000Z</time>
      </trkpt>
      <trkpt lat="42.69743" lon="0.66825">
        <ele>2079.5</ele>
        <time>2018-08-08T16:37:13.000Z</time>
      </trkpt>
      <trkpt lat="42.69743" lon="0.66825">
        <ele>2079.5</ele>
        <time>2018-08-08T16:37:14.000Z</time>
      </trkpt>
      <trkpt lat="42.69743" lon="0.66825">
        <ele>2079.5</ele>
        <time>2018-08-08T16:37:15.000Z</time>
      </trkpt>
      <trkpt lat="42.69743" lon="0.66825">
        <ele>2079.5</ele>
        <time>2018-08-08T16:37:16.000Z</time>
      </trkpt>
      <trkpt lat="42.69743" lon="0.66825">
        <ele>2079.5</ele>
        <time>2018-08-08T16:37:17.000Z</time>
      </trkpt>
      <trkpt lat="42.69743" lon="0.66825">
        <ele>2079.5</ele>
        <time>2018-08-08T16:37:18.000Z</time>
      </trkpt>
      <trkpt lat="42.69743" lon="0.66825">
        <ele>2079.5</ele>
        <time>2018-08-08T16:37:19.000Z</time>
      </trkpt>
      <trkpt lat="42.69743" lon="0.66825">
        <ele>2079.5</ele>
        <time>2018-08-08T16:37:20.000Z</time>
      </trkpt>
      <trkpt lat="42.69743" lon="0.66825">
        <ele>2079.5</ele>
        <time>2018-08-08T16:37:21.000Z</time>
      </trkpt>
      <trkpt lat="42.69743" lon="0.66825">
        <ele>2079.5</ele>
        <time>2018-08-08T16:37:22.000Z</time>
      </trkpt>
      <trkpt lat="42.69743" lon="0.66825">
        <ele>2079.5</ele>
        <time>2018-08-08T16:37:23.000Z</time>
      </trkpt>
      <trkpt lat="42.69743" lon="0.66825">
        <ele>2079.5</ele>
        <time>2018-08-08T16:37:24.000Z</time>
      </trkpt>
      <trkpt lat="42.69743" lon="0.66825">
        <ele>2079.5</ele>
        <time>2018-08-08T16:37:25.000Z</time>
      </trkpt>
      <trkpt lat="42.69743" lon="0.66825">
        <ele>2079.5</ele>
        <time>2018-08-08T16:37:26.000Z</time>
      </trkpt>
      <trkpt lat="42.69743" lon="0.66825">
        <ele>2079.5</ele>
        <time>2018-08-08T16:37:27.000Z</time>
      </trkpt>
      <trkpt lat="42.69743" lon="0.66825">
        <ele>2079.5</ele>
        <time>2018-08-08T16:37:28.000Z</time>
      </trkpt>
      <trkpt lat="42.69743" lon="0.66825">
        <ele>2079.5</ele>
        <time>2018-08-08T16:37:29.000Z</time>
      </trkpt>
      <trkpt lat="42.69743" lon="0.66825">
        <ele>2079.5</ele>
        <time>2018-08-08T16:37:30.000Z</time>
      </trkpt>
      <trkpt lat="42.69743" lon="0.66825">
        <ele>2079.5</ele>
        <time>2018-08-08T16:37:31.000Z</time>
      </trkpt>
      <trkpt lat="42.69743" lon="0.66825">
        <ele>2079.5</ele>
        <time>2018-08-08T16:37:32.000Z</time>
      </trkpt>
      <trkpt lat="42.69743" lon="0.66825">
        <ele>2079.5</ele>
        <time>2018-08-08T16:37:33.000Z</time>
      </trkpt>
      <trkpt lat="42.69743" lon="0.66825">
        <ele>2079.5</ele>
        <time>2018-08-08T16:37:34.000Z</time>
      </trkpt>
      <trkpt lat="42.69743" lon="0.66825">
        <ele>2079.5</ele>
        <time>2018-08-08T16:37:35.000Z</time>
      </trkpt>
      <trkpt lat="42.69743" lon="0.66825">
        <ele>2079.5</ele>
        <time>2018-08-08T16:37:36.000Z</time>
      </trkpt>
      <trkpt lat="42.69743" lon="0.66825">
        <ele>2079.5</ele>
        <time>2018-08-08T16:37:37.000Z</time>
      </trkpt>
      <trkpt lat="42.69743" lon="0.66825">
        <ele>2079.5</ele>
        <time>2018-08-08T16:37:38.000Z</time>
      </trkpt>
      <trkpt lat="42.69743" lon="0.66825">
        <ele>2079.5</ele>
        <time>2018-08-08T16:37:39.000Z</time>
      </trkpt>
      <trkpt lat="42.69743" lon="0.66825">
        <ele>2079.5</ele>
        <time>2018-08-08T16:37:40.000Z</time>
      </trkpt>
      <trkpt lat="42.69743" lon="0.66825">
        <ele>2079.5</ele>
        <time>2018-08-08T16:37:41.000Z</time>
      </trkpt>
      <trkpt lat="42.69743" lon="0.66825">
        <ele>2079.5</ele>
        <time>2018-08-08T16:37:42.000Z</time>
      </trkpt>
      <trkpt lat="42.69743" lon="0.66825">
        <ele>2079.5</ele>
        <time>2018-08-08T16:37:43.000Z</time>
      </trkpt>
      <trkpt lat="42.69743" lon="0.66825">
        <ele>2079.5</ele>
        <time>2018-08-08T16:37:44.000Z</time>
      </trkpt>
      <trkpt lat="42.69743" lon="0.66825">
        <ele>2079.5</ele>
        <time>2018-08-08T16:37:45.000Z</time>
      </trkpt>
      <trkpt lat="42.69743" lon="0.66825">
        <ele>2079.5</ele>
        <time>2018-08-08T16:37:46.000Z</time>
      </trkpt>
      <trkpt lat="42.69743" lon="0.66825">
        <ele>2079.5</ele>
        <time>2018-08-08T16:37:47.000Z</time>
      </trkpt>
      <trkpt lat="42.69743" lon="0.66825">
        <ele>2079.5</ele>
        <time>2018-08-08T16:37:48.000Z</time>
      </trkpt>
      <trkpt lat="42.69743" lon="0.66825">
        <ele>2079.5</ele>
        <time>2018-08-08T16:37:49.000Z</time>
      </trkpt>
      <trkpt lat="42.69743" lon="0.66825">
        <ele>2079.5</ele>
        <time>2018-08-08T16:37:50.000Z</time>
      </trkpt>
      <trkpt lat="42.69743" lon="0.66825">
        <ele>2079.5</ele>
        <time>2018-08-08T16:37:51.000Z</time>
      </trkpt>
      <trkpt lat="42.69743" lon="0.66825">
        <ele>2079.5</ele>
        <time>2018-08-08T16:37:52.000Z</time>
      </trkpt>
      <trkpt lat="42.69743" lon="0.66825">
        <ele>2079.5</ele>
        <time>2018-08-08T16:37:53.000Z</time>
      </trkpt>
      <trkpt lat="42.69743" lon="0.66825">
        <ele>2079.5</ele>
        <time>2018-08-08T16:37:54.000Z</time>
      </trkpt>
      <trkpt lat="42.69743" lon="0.66825">
        <ele>2079.5</ele>
        <time>2018-08-08T16:37:55.000Z</time>
      </trkpt>
      <trkpt lat="42.69743" lon="0.66825">
        <ele>2079.5</ele>
        <time>2018-08-08T16:37:56.000Z</time>
      </trkpt>
      <trkpt lat="42.69743" lon="0.66825">
        <ele>2079.5</ele>
        <time>2018-08-08T16:37:57.000Z</time>
      </trkpt>
      <trkpt lat="42.69743" lon="0.66825">
        <ele>2079.5</ele>
        <time>2018-08-08T16:37:58.000Z</time>
      </trkpt>
      <trkpt lat="42.69743" lon="0.66825">
        <ele>2079.5</ele>
        <time>2018-08-08T16:37:59.000Z</time>
      </trkpt>
      <trkpt lat="42.69743" lon="0.66825">
        <ele>2079.5</ele>
        <time>2018-08-08T16:38:00.000Z</time>
      </trkpt>
      <trkpt lat="42.69743" lon="0.66825">
        <ele>2079.5</ele>
        <time>2018-08-08T16:38:01.000Z</time>
      </trkpt>
      <trkpt lat="42.69743" lon="0.66825">
        <ele>2079.5</ele>
        <time>2018-08-08T16:38:02.000Z</time>
      </trkpt>
      <trkpt lat="42.69743" lon="0.66825">
        <ele>2079.5</ele>
        <time>2018-08-08T16:38:03.000Z</time>
      </trkpt>
      <trkpt lat="42.69743" lon="0.66825">
        <ele>2079.5</ele>
        <time>2018-08-08T16:38:04.000Z</time>
      </trkpt>
      <trkpt lat="42.69743" lon="0.66825">
        <ele>2079.5</ele>
        <time>2018-08-08T16:38:05.000Z</time>
      </trkpt>
      <trkpt lat="42.69743" lon="0.66825">
        <ele>2079.5</ele>
        <time>2018-08-08T16:38:06.000Z</time>
      </trkpt>
      <trkpt lat="42.69743" lon="0.66825">
        <ele>2079.5</ele>
        <time>2018-08-08T16:38:07.000Z</time>
      </trkpt>
      <trkpt lat="42.69743" lon="0.66825">
        <ele>2079.5</ele>
        <time>2018-08-08T16:38:08.000Z</time>
      </trkpt>
      <trkpt lat="42.69743" lon="0.66825">
        <ele>2079.5</ele>
        <time>2018-08-08T16:38:09.000Z</time>
      </trkpt>
      <trkpt lat="42.69743" lon="0.66825">
        <ele>2079.5</ele>
        <time>2018-08-08T16:38:10.000Z</time>
      </trkpt>
      <trkpt lat="42.69743" lon="0.66825">
        <ele>2079.5</ele>
        <time>2018-08-08T16:38:11.000Z</time>
      </trkpt>
      <trkpt lat="42.69743" lon="0.66825">
        <ele>2079.5</ele>
        <time>2018-08-08T16:38:12.000Z</time>
      </trkpt>
      <trkpt lat="42.69743" lon="0.66825">
        <ele>2079.5</ele>
        <time>2018-08-08T16:38:13.000Z</time>
      </trkpt>
      <trkpt lat="42.69743" lon="0.66825">
        <ele>2079.5</ele>
        <time>2018-08-08T16:38:14.000Z</time>
      </trkpt>
      <trkpt lat="42.69743" lon="0.66825">
        <ele>2079.5</ele>
        <time>2018-08-08T16:38:15.000Z</time>
      </trkpt>
      <trkpt lat="42.69743" lon="0.66825">
        <ele>2079.5</ele>
        <time>2018-08-08T16:38:16.000Z</time>
      </trkpt>
      <trkpt lat="42.69743" lon="0.66825">
        <ele>2079.5</ele>
        <time>2018-08-08T16:38:17.000Z</time>
      </trkpt>
      <trkpt lat="42.69743" lon="0.66825">
        <ele>2079.5</ele>
        <time>2018-08-08T16:38:18.000Z</time>
      </trkpt>
      <trkpt lat="42.69743" lon="0.66825">
        <ele>2079.5</ele>
        <time>2018-08-08T16:38:19.000Z</time>
      </trkpt>
      <trkpt lat="42.69743" lon="0.66825">
        <ele>2079.5</ele>
        <time>2018-08-08T16:38:20.000Z</time>
      </trkpt>
      <trkpt lat="42.69743" lon="0.66825">
        <ele>2079.5</ele>
        <time>2018-08-08T16:38:21.000Z</time>
      </trkpt>
      <trkpt lat="42.69743" lon="0.66825">
        <ele>2079.5</ele>
        <time>2018-08-08T16:38:22.000Z</time>
      </trkpt>
      <trkpt lat="42.69743" lon="0.66825">
        <ele>2079.5</ele>
        <time>2018-08-08T16:38:23.000Z</time>
      </trkpt>
      <trkpt lat="42.69743" lon="0.66825">
        <ele>2079.5</ele>
        <time>2018-08-08T16:38:24.000Z</time>
      </trkpt>
      <trkpt lat="42.69743" lon="0.66825">
        <ele>2079.5</ele>
        <time>2018-08-08T16:38:25.000Z</time>
      </trkpt>
      <trkpt lat="42.69743" lon="0.66825">
        <ele>2079.5</ele>
        <time>2018-08-08T16:38:26.000Z</time>
      </trkpt>
      <trkpt lat="42.69743" lon="0.66825">
        <ele>2079.5</ele>
        <time>2018-08-08T16:38:27.000Z</time>
      </trkpt>
      <trkpt lat="42.69743" lon="0.66825">
        <ele>2079.5</ele>
        <time>2018-08-08T16:38:28.000Z</time>
      </trkpt>
      <trkpt lat="42.69743" lon="0.66825">
        <ele>2079.5</ele>
        <time>2018-08-08T16:38:29.000Z</time>
      </trkpt>
      <trkpt lat="42.69743" lon="0.66825">
        <ele>2079.5</ele>
        <time>2018-08-08T16:38:30.000Z</time>
      </trkpt>
      <trkpt lat="42.69743" lon="0.66825">
        <ele>2079.5</ele>
        <time>2018-08-08T16:38:31.000Z</time>
      </trkpt>
      <trkpt lat="42.69743" lon="0.66825">
        <ele>2079.5</ele>
        <time>2018-08-08T16:38:32.000Z</time>
      </trkpt>
      <trkpt lat="42.69743" lon="0.66825">
        <ele>2079.5</ele>
        <time>2018-08-08T16:38:33.000Z</time>
      </trkpt>
      <trkpt lat="42.69743" lon="0.66825">
        <ele>2079.5</ele>
        <time>2018-08-08T16:38:34.000Z</time>
      </trkpt>
      <trkpt lat="42.69743" lon="0.66825">
        <ele>2079.5</ele>
        <time>2018-08-08T16:38:35.000Z</time>
      </trkpt>
      <trkpt lat="42.69743" lon="0.66825">
        <ele>2079.5</ele>
        <time>2018-08-08T16:38:36.000Z</time>
      </trkpt>
      <trkpt lat="42.69743" lon="0.66825">
        <ele>2079.5</ele>
        <time>2018-08-08T16:38:37.000Z</time>
      </trkpt>
      <trkpt lat="42.69743" lon="0.66825">
        <ele>2079.5</ele>
        <time>2018-08-08T16:38:38.000Z</time>
      </trkpt>
      <trkpt lat="42.69743" lon="0.66825">
        <ele>2079.5</ele>
        <time>2018-08-08T16:38:39.000Z</time>
      </trkpt>
      <trkpt lat="42.69743" lon="0.66825">
        <ele>2079.5</ele>
        <time>2018-08-08T16:38:40.000Z</time>
      </trkpt>
      <trkpt lat="42.69743" lon="0.66825">
        <ele>2079.5</ele>
        <time>2018-08-08T16:38:41.000Z</time>
      </trkpt>
      <trkpt lat="42.69743" lon="0.66825">
        <ele>2079.5</ele>
        <time>2018-08-08T16:38:42.000Z</time>
      </trkpt>
      <trkpt lat="42.69743" lon="0.66825">
        <ele>2079.5</ele>
        <time>2018-08-08T16:38:43.000Z</time>
      </trkpt>
      <trkpt lat="42.69743" lon="0.66825">
        <ele>2079.5</ele>
        <time>2018-08-08T16:38:44.000Z</time>
      </trkpt>
      <trkpt lat="42.69743" lon="0.66825">
        <ele>2079.5</ele>
        <time>2018-08-08T16:38:45.000Z</time>
      </trkpt>
      <trkpt lat="42.69743" lon="0.66825">
        <ele>2079.5</ele>
        <time>2018-08-08T16:38:46.000Z</time>
      </trkpt>
      <trkpt lat="42.69743" lon="0.66825">
        <ele>2079.5</ele>
        <time>2018-08-08T16:38:47.000Z</time>
      </trkpt>
      <trkpt lat="42.69743" lon="0.66825">
        <ele>2079.5</ele>
        <time>2018-08-08T16:38:48.000Z</time>
      </trkpt>
      <trkpt lat="42.69743" lon="0.66825">
        <ele>2079.5</ele>
        <time>2018-08-08T16:38:49.000Z</time>
      </trkpt>
      <trkpt lat="42.69743" lon="0.66825">
        <ele>2079.5</ele>
        <time>2018-08-08T16:38:50.000Z</time>
      </trkpt>
      <trkpt lat="42.69743" lon="0.66825">
        <ele>2079.5</ele>
        <time>2018-08-08T16:38:51.000Z</time>
      </trkpt>
      <trkpt lat="42.69743" lon="0.66825">
        <ele>2079.5</ele>
        <time>2018-08-08T16:38:52.000Z</time>
      </trkpt>
      <trkpt lat="42.69743" lon="0.66825">
        <ele>2079.5</ele>
        <time>2018-08-08T16:38:53.000Z</time>
      </trkpt>
      <trkpt lat="42.69743" lon="0.66825">
        <ele>2079.5</ele>
        <time>2018-08-08T16:38:54.000Z</time>
      </trkpt>
      <trkpt lat="42.69743" lon="0.66825">
        <ele>2079.5</ele>
        <time>2018-08-08T16:38:55.000Z</time>
      </trkpt>
      <trkpt lat="42.69743" lon="0.66825">
        <ele>2079.5</ele>
        <time>2018-08-08T16:38:56.000Z</time>
      </trkpt>
      <trkpt lat="42.69743" lon="0.66825">
        <ele>2079.5</ele>
        <time>2018-08-08T16:38:57.000Z</time>
      </trkpt>
      <trkpt lat="42.69743" lon="0.66825">
        <ele>2079.5</ele>
        <time>2018-08-08T16:38:58.000Z</time>
      </trkpt>
      <trkpt lat="42.69743" lon="0.66825">
        <ele>2079.5</ele>
        <time>2018-08-08T16:38:59.000Z</time>
      </trkpt>
      <trkpt lat="42.69743" lon="0.66825">
        <ele>2079.5</ele>
        <time>2018-08-08T16:39:00.000Z</time>
      </trkpt>
      <trkpt lat="42.69743" lon="0.66825">
        <ele>2079.5</ele>
        <time>2018-08-08T16:39:01.000Z</time>
      </trkpt>
      <trkpt lat="42.69743" lon="0.66825">
        <ele>2079.5</ele>
        <time>2018-08-08T16:39:02.000Z</time>
      </trkpt>
      <trkpt lat="42.69743" lon="0.66825">
        <ele>2079.5</ele>
        <time>2018-08-08T16:39:03.000Z</time>
      </trkpt>
      <trkpt lat="42.69743" lon="0.66825">
        <ele>2079.5</ele>
        <time>2018-08-08T16:39:04.000Z</time>
      </trkpt>
      <trkpt lat="42.69743" lon="0.66825">
        <ele>2079.5</ele>
        <time>2018-08-08T16:39:05.000Z</time>
      </trkpt>
      <trkpt lat="42.69743" lon="0.66825">
        <ele>2079.5</ele>
        <time>2018-08-08T16:39:06.000Z</time>
      </trkpt>
      <trkpt lat="42.69743" lon="0.66825">
        <ele>2079.5</ele>
        <time>2018-08-08T16:39:07.000Z</time>
      </trkpt>
      <trkpt lat="42.69743" lon="0.66825">
        <ele>2079.5</ele>
        <time>2018-08-08T16:39:08.000Z</time>
      </trkpt>
      <trkpt lat="42.69743" lon="0.66825">
        <ele>2079.5</ele>
        <time>2018-08-08T16:39:09.000Z</time>
      </trkpt>
      <trkpt lat="42.69743" lon="0.66825">
        <ele>2079.5</ele>
        <time>2018-08-08T16:39:10.000Z</time>
      </trkpt>
      <trkpt lat="42.69743" lon="0.66825">
        <ele>2079.5</ele>
        <time>2018-08-08T16:39:11.000Z</time>
      </trkpt>
      <trkpt lat="42.69743" lon="0.66825">
        <ele>2079.5</ele>
        <time>2018-08-08T16:39:12.000Z</time>
      </trkpt>
      <trkpt lat="42.69743" lon="0.66825">
        <ele>2079.5</ele>
        <time>2018-08-08T16:39:13.000Z</time>
      </trkpt>
      <trkpt lat="42.69743" lon="0.66825">
        <ele>2079.5</ele>
        <time>2018-08-08T16:39:14.000Z</time>
      </trkpt>
      <trkpt lat="42.69743" lon="0.66825">
        <ele>2079.5</ele>
        <time>2018-08-08T16:39:15.000Z</time>
      </trkpt>
      <trkpt lat="42.69743" lon="0.66825">
        <ele>2079.5</ele>
        <time>2018-08-08T16:39:16.000Z</time>
      </trkpt>
      <trkpt lat="42.69743" lon="0.66825">
        <ele>2079.5</ele>
        <time>2018-08-08T16:39:17.000Z</time>
      </trkpt>
      <trkpt lat="42.69743" lon="0.66825">
        <ele>2079.5</ele>
        <time>2018-08-08T16:39:18.000Z</time>
      </trkpt>
      <trkpt lat="42.69743" lon="0.66825">
        <ele>2079.5</ele>
        <time>2018-08-08T16:39:19.000Z</time>
      </trkpt>
      <trkpt lat="42.69743" lon="0.66825">
        <ele>2079.5</ele>
        <time>2018-08-08T16:39:20.000Z</time>
      </trkpt>
      <trkpt lat="42.69743" lon="0.66825">
        <ele>2079.5</ele>
        <time>2018-08-08T16:39:21.000Z</time>
      </trkpt>
      <trkpt lat="42.69743" lon="0.66825">
        <ele>2079.5</ele>
        <time>2018-08-08T16:39:22.000Z</time>
      </trkpt>
      <trkpt lat="42.69743" lon="0.66825">
        <ele>2079.5</ele>
        <time>2018-08-08T16:39:23.000Z</time>
      </trkpt>
      <trkpt lat="42.69743" lon="0.66825">
        <ele>2079.5</ele>
        <time>2018-08-08T16:39:24.000Z</time>
      </trkpt>
      <trkpt lat="42.69743" lon="0.66825">
        <ele>2079.5</ele>
        <time>2018-08-08T16:39:25.000Z</time>
      </trkpt>
      <trkpt lat="42.69743" lon="0.66825">
        <ele>2079.5</ele>
        <time>2018-08-08T16:39:26.000Z</time>
      </trkpt>
      <trkpt lat="42.69743" lon="0.66825">
        <ele>2079.5</ele>
        <time>2018-08-08T16:39:27.000Z</time>
      </trkpt>
      <trkpt lat="42.69743" lon="0.66825">
        <ele>2079.5</ele>
        <time>2018-08-08T16:39:28.000Z</time>
      </trkpt>
      <trkpt lat="42.69743" lon="0.66825">
        <ele>2079.5</ele>
        <time>2018-08-08T16:39:29.000Z</time>
      </trkpt>
      <trkpt lat="42.69743" lon="0.66825">
        <ele>2079.5</ele>
        <time>2018-08-08T16:39:30.000Z</time>
      </trkpt>
      <trkpt lat="42.69743" lon="0.66825">
        <ele>2079.5</ele>
        <time>2018-08-08T16:39:31.000Z</time>
      </trkpt>
      <trkpt lat="42.69743" lon="0.66825">
        <ele>2079.5</ele>
        <time>2018-08-08T16:39:32.000Z</time>
      </trkpt>
      <trkpt lat="42.69743" lon="0.66825">
        <ele>2079.5</ele>
        <time>2018-08-08T16:39:33.000Z</time>
      </trkpt>
      <trkpt lat="42.69743" lon="0.66825">
        <ele>2079.5</ele>
        <time>2018-08-08T16:39:34.000Z</time>
      </trkpt>
      <trkpt lat="42.69743" lon="0.66825">
        <ele>2079.5</ele>
        <time>2018-08-08T16:39:35.000Z</time>
      </trkpt>
      <trkpt lat="42.69743" lon="0.66825">
        <ele>2079.5</ele>
        <time>2018-08-08T16:39:36.000Z</time>
      </trkpt>
      <trkpt lat="42.69743" lon="0.66825">
        <ele>2079.5</ele>
        <time>2018-08-08T16:39:37.000Z</time>
      </trkpt>
      <trkpt lat="42.69743" lon="0.66825">
        <ele>2079.5</ele>
        <time>2018-08-08T16:39:38.000Z</time>
      </trkpt>
      <trkpt lat="42.69743" lon="0.66825">
        <ele>2079.5</ele>
        <time>2018-08-08T16:39:39.000Z</time>
      </trkpt>
      <trkpt lat="42.69743" lon="0.66825">
        <ele>2079.5</ele>
        <time>2018-08-08T16:39:40.000Z</time>
      </trkpt>
      <trkpt lat="42.69743" lon="0.66825">
        <ele>2079.5</ele>
        <time>2018-08-08T16:39:41.000Z</time>
      </trkpt>
      <trkpt lat="42.69743" lon="0.66825">
        <ele>2079.5</ele>
        <time>2018-08-08T16:39:42.000Z</time>
      </trkpt>
      <trkpt lat="42.69743" lon="0.66825">
        <ele>2079.5</ele>
        <time>2018-08-08T16:39:43.000Z</time>
      </trkpt>
      <trkpt lat="42.69743" lon="0.66825">
        <ele>2079.5</ele>
        <time>2018-08-08T16:39:44.000Z</time>
      </trkpt>
      <trkpt lat="42.69743" lon="0.66825">
        <ele>2079.5</ele>
        <time>2018-08-08T16:39:45.000Z</time>
      </trkpt>
      <trkpt lat="42.69743" lon="0.66825">
        <ele>2079.5</ele>
        <time>2018-08-08T16:39:46.000Z</time>
      </trkpt>
      <trkpt lat="42.69743" lon="0.66825">
        <ele>2079.5</ele>
        <time>2018-08-08T16:39:47.000Z</time>
      </trkpt>
      <trkpt lat="42.69743" lon="0.66825">
        <ele>2079.5</ele>
        <time>2018-08-08T16:39:48.000Z</time>
      </trkpt>
      <trkpt lat="42.69743" lon="0.66825">
        <ele>2079.5</ele>
        <time>2018-08-08T16:39:49.000Z</time>
      </trkpt>
      <trkpt lat="42.69743" lon="0.66825">
        <ele>2079.5</ele>
        <time>2018-08-08T16:39:50.000Z</time>
      </trkpt>
      <trkpt lat="42.69743" lon="0.66825">
        <ele>2079.5</ele>
        <time>2018-08-08T16:39:51.000Z</time>
      </trkpt>
      <trkpt lat="42.69743" lon="0.66825">
        <ele>2079.5</ele>
        <time>2018-08-08T16:39:52.000Z</time>
      </trkpt>
      <trkpt lat="42.69743" lon="0.66825">
        <ele>2079.5</ele>
        <time>2018-08-08T16:39:53.000Z</time>
      </trkpt>
      <trkpt lat="42.69743" lon="0.66825">
        <ele>2079.5</ele>
        <time>2018-08-08T16:39:54.000Z</time>
      </trkpt>
      <trkpt lat="42.69743" lon="0.66825">
        <ele>2079.5</ele>
        <time>2018-08-08T16:39:55.000Z</time>
      </trkpt>
      <trkpt lat="42.69743" lon="0.66825">
        <ele>2079.5</ele>
        <time>2018-08-08T16:39:56.000Z</time>
      </trkpt>
      <trkpt lat="42.69743" lon="0.66825">
        <ele>2079.5</ele>
        <time>2018-08-08T16:39:57.000Z</time>
      </trkpt>
      <trkpt lat="42.69743" lon="0.66825">
        <ele>2079.5</ele>
        <time>2018-08-08T16:39:58.000Z</time>
      </trkpt>
      <trkpt lat="42.69743" lon="0.66825">
        <ele>2079.5</ele>
        <time>2018-08-08T16:39:59.000Z</time>
      </trkpt>
      <trkpt lat="42.69743" lon="0.66825">
        <ele>2079.5</ele>
        <time>2018-08-08T16:40:00.000Z</time>
      </trkpt>
      <trkpt lat="42.69743" lon="0.66825">
        <ele>2079.5</ele>
        <time>2018-08-08T16:40:01.000Z</time>
      </trkpt>
      <trkpt lat="42.69743" lon="0.66825">
        <ele>2079.5</ele>
        <time>2018-08-08T16:40:02.000Z</time>
      </trkpt>
      <trkpt lat="42.69743" lon="0.66825">
        <ele>2079.5</ele>
        <time>2018-08-08T16:40:03.000Z</time>
      </trkpt>
      <trkpt lat="42.69743" lon="0.66825">
        <ele>2079.5</ele>
        <time>2018-08-08T16:40:04.000Z</time>
      </trkpt>
      <trkpt lat="42.69743" lon="0.66825">
        <ele>2079.5</ele>
        <time>2018-08-08T16:40:05.000Z</time>
      </trkpt>
      <trkpt lat="42.69743" lon="0.66825">
        <ele>2079.5</ele>
        <time>2018-08-08T16:40:06.000Z</time>
      </trkpt>
      <trkpt lat="42.69743" lon="0.66825">
        <ele>2079.5</ele>
        <time>2018-08-08T16:40:07.000Z</time>
      </trkpt>
      <trkpt lat="42.69743" lon="0.66825">
        <ele>2079.5</ele>
        <time>2018-08-08T16:40:08.000Z</time>
      </trkpt>
      <trkpt lat="42.69743" lon="0.66825">
        <ele>2079.5</ele>
        <time>2018-08-08T16:40:09.000Z</time>
      </trkpt>
      <trkpt lat="42.69743" lon="0.66825">
        <ele>2079.5</ele>
        <time>2018-08-08T16:40:10.000Z</time>
      </trkpt>
      <trkpt lat="42.69743" lon="0.66825">
        <ele>2079.5</ele>
        <time>2018-08-08T16:40:11.000Z</time>
      </trkpt>
      <trkpt lat="42.69743" lon="0.66825">
        <ele>2079.5</ele>
        <time>2018-08-08T16:40:12.000Z</time>
      </trkpt>
      <trkpt lat="42.69743" lon="0.66825">
        <ele>2079.5</ele>
        <time>2018-08-08T16:40:13.000Z</time>
      </trkpt>
      <trkpt lat="42.69743" lon="0.66825">
        <ele>2079.5</ele>
        <time>2018-08-08T16:40:14.000Z</time>
      </trkpt>
      <trkpt lat="42.69743" lon="0.66825">
        <ele>2079.5</ele>
        <time>2018-08-08T16:40:15.000Z</time>
      </trkpt>
      <trkpt lat="42.69743" lon="0.66825">
        <ele>2079.5</ele>
        <time>2018-08-08T16:40:16.000Z</time>
      </trkpt>
      <trkpt lat="42.69743" lon="0.66825">
        <ele>2079.5</ele>
        <time>2018-08-08T16:40:17.000Z</time>
      </trkpt>
      <trkpt lat="42.69743" lon="0.66825">
        <ele>2079.5</ele>
        <time>2018-08-08T16:40:18.000Z</time>
      </trkpt>
      <trkpt lat="42.69743" lon="0.66825">
        <ele>2079.5</ele>
        <time>2018-08-08T16:40:19.000Z</time>
      </trkpt>
      <trkpt lat="42.69743" lon="0.66825">
        <ele>2079.5</ele>
        <time>2018-08-08T16:40:20.000Z</time>
      </trkpt>
      <trkpt lat="42.69743" lon="0.66825">
        <ele>2079.5</ele>
        <time>2018-08-08T16:40:21.000Z</time>
      </trkpt>
      <trkpt lat="42.69743" lon="0.66825">
        <ele>2079.5</ele>
        <time>2018-08-08T16:40:22.000Z</time>
      </trkpt>
      <trkpt lat="42.69743" lon="0.66825">
        <ele>2079.5</ele>
        <time>2018-08-08T16:40:23.000Z</time>
      </trkpt>
      <trkpt lat="42.69743" lon="0.66825">
        <ele>2079.5</ele>
        <time>2018-08-08T16:40:24.000Z</time>
      </trkpt>
      <trkpt lat="42.69743" lon="0.66825">
        <ele>2079.5</ele>
        <time>2018-08-08T16:40:25.000Z</time>
      </trkpt>
      <trkpt lat="42.69743" lon="0.66825">
        <ele>2079.5</ele>
        <time>2018-08-08T16:40:26.000Z</time>
      </trkpt>
      <trkpt lat="42.69743" lon="0.66825">
        <ele>2079.5</ele>
        <time>2018-08-08T16:40:27.000Z</time>
      </trkpt>
      <trkpt lat="42.69743" lon="0.66825">
        <ele>2079.5</ele>
        <time>2018-08-08T16:40:28.000Z</time>
      </trkpt>
      <trkpt lat="42.69743" lon="0.66825">
        <ele>2079.5</ele>
        <time>2018-08-08T16:40:29.000Z</time>
      </trkpt>
      <trkpt lat="42.69743" lon="0.66825">
        <ele>2079.5</ele>
        <time>2018-08-08T16:40:30.000Z</time>
      </trkpt>
      <trkpt lat="42.69743" lon="0.66825">
        <ele>2079.5</ele>
        <time>2018-08-08T16:40:31.000Z</time>
      </trkpt>
      <trkpt lat="42.69743" lon="0.66825">
        <ele>2079.5</ele>
        <time>2018-08-08T16:40:32.000Z</time>
      </trkpt>
      <trkpt lat="42.69743" lon="0.66825">
        <ele>2079.5</ele>
        <time>2018-08-08T16:40:33.000Z</time>
      </trkpt>
      <trkpt lat="42.69743" lon="0.66825">
        <ele>2079.5</ele>
        <time>2018-08-08T16:40:34.000Z</time>
      </trkpt>
      <trkpt lat="42.69743" lon="0.66825">
        <ele>2079.5</ele>
        <time>2018-08-08T16:40:35.000Z</time>
      </trkpt>
      <trkpt lat="42.69743" lon="0.66825">
        <ele>2079.5</ele>
        <time>2018-08-08T16:40:36.000Z</time>
      </trkpt>
      <trkpt lat="42.69743" lon="0.66825">
        <ele>2079.5</ele>
        <time>2018-08-08T16:40:37.000Z</time>
      </trkpt>
      <trkpt lat="42.69743" lon="0.66825">
        <ele>2079.5</ele>
        <time>2018-08-08T16:40:38.000Z</time>
      </trkpt>
      <trkpt lat="42.69743" lon="0.66825">
        <ele>2079.5</ele>
        <time>2018-08-08T16:40:39.000Z</time>
      </trkpt>
      <trkpt lat="42.69743" lon="0.66825">
        <ele>2079.5</ele>
        <time>2018-08-08T16:40:40.000Z</time>
      </trkpt>
      <trkpt lat="42.69743" lon="0.66825">
        <ele>2079.5</ele>
        <time>2018-08-08T16:40:41.000Z</time>
      </trkpt>
      <trkpt lat="42.69743" lon="0.66825">
        <ele>2079.5</ele>
        <time>2018-08-08T16:40:42.000Z</time>
      </trkpt>
      <trkpt lat="42.69743" lon="0.66825">
        <ele>2079.5</ele>
        <time>2018-08-08T16:40:43.000Z</time>
      </trkpt>
      <trkpt lat="42.69743" lon="0.66825">
        <ele>2079.5</ele>
        <time>2018-08-08T16:40:44.000Z</time>
      </trkpt>
      <trkpt lat="42.69743" lon="0.66825">
        <ele>2079.5</ele>
        <time>2018-08-08T16:40:45.000Z</time>
      </trkpt>
      <trkpt lat="42.69743" lon="0.66825">
        <ele>2079.5</ele>
        <time>2018-08-08T16:40:46.000Z</time>
      </trkpt>
      <trkpt lat="42.69743" lon="0.66825">
        <ele>2079.5</ele>
        <time>2018-08-08T16:40:47.000Z</time>
      </trkpt>
      <trkpt lat="42.69743" lon="0.66825">
        <ele>2079.5</ele>
        <time>2018-08-08T16:40:48.000Z</time>
      </trkpt>
      <trkpt lat="42.69743" lon="0.66825">
        <ele>2079.5</ele>
        <time>2018-08-08T16:40:49.000Z</time>
      </trkpt>
      <trkpt lat="42.69743" lon="0.66825">
        <ele>2079.5</ele>
        <time>2018-08-08T16:40:50.000Z</time>
      </trkpt>
      <trkpt lat="42.69743" lon="0.66825">
        <ele>2079.5</ele>
        <time>2018-08-08T16:40:51.000Z</time>
      </trkpt>
      <trkpt lat="42.69743" lon="0.66825">
        <ele>2079.5</ele>
        <time>2018-08-08T16:40:52.000Z</time>
      </trkpt>
      <trkpt lat="42.69743" lon="0.66825">
        <ele>2079.5</ele>
        <time>2018-08-08T16:40:53.000Z</time>
      </trkpt>
      <trkpt lat="42.69743" lon="0.66825">
        <ele>2079.5</ele>
        <time>2018-08-08T16:40:54.000Z</time>
      </trkpt>
      <trkpt lat="42.69743" lon="0.66825">
        <ele>2079.5</ele>
        <time>2018-08-08T16:40:55.000Z</time>
      </trkpt>
      <trkpt lat="42.69743" lon="0.66825">
        <ele>2079.5</ele>
        <time>2018-08-08T16:40:56.000Z</time>
      </trkpt>
      <trkpt lat="42.69743" lon="0.66825">
        <ele>2079.5</ele>
        <time>2018-08-08T16:40:57.000Z</time>
      </trkpt>
      <trkpt lat="42.69743" lon="0.66825">
        <ele>2079.5</ele>
        <time>2018-08-08T16:40:58.000Z</time>
      </trkpt>
      <trkpt lat="42.69743" lon="0.66825">
        <ele>2079.5</ele>
        <time>2018-08-08T16:40:59.000Z</time>
      </trkpt>
      <trkpt lat="42.69743" lon="0.66825">
        <ele>2079.5</ele>
        <time>2018-08-08T16:41:00.000Z</time>
      </trkpt>
      <trkpt lat="42.69743" lon="0.66825">
        <ele>2079.5</ele>
        <time>2018-08-08T16:41:01.000Z</time>
      </trkpt>
      <trkpt lat="42.69743" lon="0.66825">
        <ele>2079.5</ele>
        <time>2018-08-08T16:41:02.000Z</time>
      </trkpt>
      <trkpt lat="42.69743" lon="0.66825">
        <ele>2079.5</ele>
        <time>2018-08-08T16:41:03.000Z</time>
      </trkpt>
      <trkpt lat="42.69743" lon="0.66825">
        <ele>2079.5</ele>
        <time>2018-08-08T16:41:04.000Z</time>
      </trkpt>
      <trkpt lat="42.69743" lon="0.66825">
        <ele>2079.5</ele>
        <time>2018-08-08T16:41:05.000Z</time>
      </trkpt>
      <trkpt lat="42.69743" lon="0.66825">
        <ele>2079.5</ele>
        <time>2018-08-08T16:41:06.000Z</time>
      </trkpt>
      <trkpt lat="42.69743" lon="0.66825">
        <ele>2079.5</ele>
        <time>2018-08-08T16:41:07.000Z</time>
      </trkpt>
      <trkpt lat="42.69743" lon="0.66825">
        <ele>2079.5</ele>
        <time>2018-08-08T16:41:08.000Z</time>
      </trkpt>
      <trkpt lat="42.69743" lon="0.66825">
        <ele>2079.5</ele>
        <time>2018-08-08T16:41:09.000Z</time>
      </trkpt>
      <trkpt lat="42.69743" lon="0.66825">
        <ele>2079.5</ele>
        <time>2018-08-08T16:41:10.000Z</time>
      </trkpt>
      <trkpt lat="42.69743" lon="0.66825">
        <ele>2079.5</ele>
        <time>2018-08-08T16:41:11.000Z</time>
      </trkpt>
      <trkpt lat="42.69743" lon="0.66825">
        <ele>2079.5</ele>
        <time>2018-08-08T16:41:12.000Z</time>
      </trkpt>
      <trkpt lat="42.69743" lon="0.66825">
        <ele>2079.5</ele>
        <time>2018-08-08T16:41:13.000Z</time>
      </trkpt>
      <trkpt lat="42.69743" lon="0.66825">
        <ele>2079.5</ele>
        <time>2018-08-08T16:41:14.000Z</time>
      </trkpt>
      <trkpt lat="42.69743" lon="0.66825">
        <ele>2079.5</ele>
        <time>2018-08-08T16:41:15.000Z</time>
      </trkpt>
      <trkpt lat="42.69743" lon="0.66825">
        <ele>2079.5</ele>
        <time>2018-08-08T16:41:16.000Z</time>
      </trkpt>
      <trkpt lat="42.69743" lon="0.66825">
        <ele>2079.5</ele>
        <time>2018-08-08T16:41:17.000Z</time>
      </trkpt>
      <trkpt lat="42.69743" lon="0.66825">
        <ele>2079.5</ele>
        <time>2018-08-08T16:41:18.000Z</time>
      </trkpt>
      <trkpt lat="42.69743" lon="0.66825">
        <ele>2079.5</ele>
        <time>2018-08-08T16:41:19.000Z</time>
      </trkpt>
      <trkpt lat="42.69743" lon="0.66825">
        <ele>2079.5</ele>
        <time>2018-08-08T16:41:20.000Z</time>
      </trkpt>
      <trkpt lat="42.69743" lon="0.66825">
        <ele>2079.5</ele>
        <time>2018-08-08T16:41:21.000Z</time>
      </trkpt>
      <trkpt lat="42.69743" lon="0.66825">
        <ele>2079.5</ele>
        <time>2018-08-08T16:41:22.000Z</time>
      </trkpt>
      <trkpt lat="42.69743" lon="0.66825">
        <ele>2079.5</ele>
        <time>2018-08-08T16:41:23.000Z</time>
      </trkpt>
      <trkpt lat="42.69743" lon="0.66825">
        <ele>2079.5</ele>
        <time>2018-08-08T16:41:24.000Z</time>
      </trkpt>
      <trkpt lat="42.69743" lon="0.66825">
        <ele>2079.5</ele>
        <time>2018-08-08T16:41:25.000Z</time>
      </trkpt>
      <trkpt lat="42.69743" lon="0.66825">
        <ele>2079.5</ele>
        <time>2018-08-08T16:41:26.000Z</time>
      </trkpt>
      <trkpt lat="42.69743" lon="0.66825">
        <ele>2079.5</ele>
        <time>2018-08-08T16:41:27.000Z</time>
      </trkpt>
      <trkpt lat="42.69743" lon="0.66825">
        <ele>2079.5</ele>
        <time>2018-08-08T16:41:28.000Z</time>
      </trkpt>
      <trkpt lat="42.69743" lon="0.66825">
        <ele>2079.5</ele>
        <time>2018-08-08T16:41:29.000Z</time>
      </trkpt>
      <trkpt lat="42.69743" lon="0.66825">
        <ele>2079.5</ele>
        <time>2018-08-08T16:41:30.000Z</time>
      </trkpt>
      <trkpt lat="42.69743" lon="0.66825">
        <ele>2079.5</ele>
        <time>2018-08-08T16:41:31.000Z</time>
      </trkpt>
      <trkpt lat="42.69743" lon="0.66825">
        <ele>2079.5</ele>
        <time>2018-08-08T16:41:32.000Z</time>
      </trkpt>
      <trkpt lat="42.69743" lon="0.66825">
        <ele>2079.5</ele>
        <time>2018-08-08T16:41:33.000Z</time>
      </trkpt>
      <trkpt lat="42.69743" lon="0.66825">
        <ele>2079.5</ele>
        <time>2018-08-08T16:41:34.000Z</time>
      </trkpt>
      <trkpt lat="42.69743" lon="0.66825">
        <ele>2079.5</ele>
        <time>2018-08-08T16:41:35.000Z</time>
      </trkpt>
      <trkpt lat="42.69743" lon="0.66825">
        <ele>2079.5</ele>
        <time>2018-08-08T16:41:36.000Z</time>
      </trkpt>
      <trkpt lat="42.69743" lon="0.66825">
        <ele>2079.5</ele>
        <time>2018-08-08T16:41:37.000Z</time>
      </trkpt>
      <trkpt lat="42.69743" lon="0.66825">
        <ele>2079.5</ele>
        <time>2018-08-08T16:41:38.000Z</time>
      </trkpt>
      <trkpt lat="42.69743" lon="0.66825">
        <ele>2079.5</ele>
        <time>2018-08-08T16:41:39.000Z</time>
      </trkpt>
      <trkpt lat="42.69743" lon="0.66825">
        <ele>2079.5</ele>
        <time>2018-08-08T16:41:40.000Z</time>
      </trkpt>
      <trkpt lat="42.69743" lon="0.66825">
        <ele>2079.5</ele>
        <time>2018-08-08T16:41:41.000Z</time>
      </trkpt>
      <trkpt lat="42.69743" lon="0.66825">
        <ele>2079.5</ele>
        <time>2018-08-08T16:41:42.000Z</time>
      </trkpt>
      <trkpt lat="42.69743" lon="0.66825">
        <ele>2079.5</ele>
        <time>2018-08-08T16:41:43.000Z</time>
      </trkpt>
      <trkpt lat="42.69743" lon="0.66825">
        <ele>2079.5</ele>
        <time>2018-08-08T16:41:44.000Z</time>
      </trkpt>
      <trkpt lat="42.69743" lon="0.66825">
        <ele>2079.5</ele>
        <time>2018-08-08T16:41:45.000Z</time>
      </trkpt>
      <trkpt lat="42.69743" lon="0.66825">
        <ele>2079.5</ele>
        <time>2018-08-08T16:41:46.000Z</time>
      </trkpt>
      <trkpt lat="42.69743" lon="0.66825">
        <ele>2079.5</ele>
        <time>2018-08-08T16:41:47.000Z</time>
      </trkpt>
      <trkpt lat="42.69743" lon="0.66825">
        <ele>2079.5</ele>
        <time>2018-08-08T16:41:48.000Z</time>
      </trkpt>
      <trkpt lat="42.69743" lon="0.66825">
        <ele>2079.5</ele>
        <time>2018-08-08T16:41:49.000Z</time>
      </trkpt>
      <trkpt lat="42.69743" lon="0.66825">
        <ele>2079.5</ele>
        <time>2018-08-08T16:41:50.000Z</time>
      </trkpt>
      <trkpt lat="42.69743" lon="0.66825">
        <ele>2079.5</ele>
        <time>2018-08-08T16:41:51.000Z</time>
      </trkpt>
      <trkpt lat="42.69743" lon="0.66825">
        <ele>2079.5</ele>
        <time>2018-08-08T16:41:52.000Z</time>
      </trkpt>
      <trkpt lat="42.69743" lon="0.66825">
        <ele>2079.5</ele>
        <time>2018-08-08T16:41:53.000Z</time>
      </trkpt>
      <trkpt lat="42.69743" lon="0.66825">
        <ele>2079.5</ele>
        <time>2018-08-08T16:41:54.000Z</time>
      </trkpt>
      <trkpt lat="42.69743" lon="0.66825">
        <ele>2079.5</ele>
        <time>2018-08-08T16:41:55.000Z</time>
      </trkpt>
      <trkpt lat="42.69743" lon="0.66825">
        <ele>2079.5</ele>
        <time>2018-08-08T16:41:56.000Z</time>
      </trkpt>
      <trkpt lat="42.69743" lon="0.66825">
        <ele>2079.5</ele>
        <time>2018-08-08T16:41:57.000Z</time>
      </trkpt>
      <trkpt lat="42.69743" lon="0.66825">
        <ele>2079.5</ele>
        <time>2018-08-08T16:41:58.000Z</time>
      </trkpt>
      <trkpt lat="42.69743" lon="0.66825">
        <ele>2079.5</ele>
        <time>2018-08-08T16:41:59.000Z</time>
      </trkpt>
      <trkpt lat="42.69743" lon="0.66825">
        <ele>2079.5</ele>
        <time>2018-08-08T16:42:00.000Z</time>
      </trkpt>
      <trkpt lat="42.69743" lon="0.66825">
        <ele>2079.5</ele>
        <time>2018-08-08T16:42:01.000Z</time>
      </trkpt>
      <trkpt lat="42.69743" lon="0.66825">
        <ele>2079.5</ele>
        <time>2018-08-08T16:42:02.000Z</time>
      </trkpt>
      <trkpt lat="42.69743" lon="0.66825">
        <ele>2079.5</ele>
        <time>2018-08-08T16:42:03.000Z</time>
      </trkpt>
      <trkpt lat="42.69743" lon="0.66825">
        <ele>2079.5</ele>
        <time>2018-08-08T16:42:04.000Z</time>
      </trkpt>
      <trkpt lat="42.69743" lon="0.66825">
        <ele>2079.5</ele>
        <time>2018-08-08T16:42:05.000Z</time>
      </trkpt>
      <trkpt lat="42.69743" lon="0.66825">
        <ele>2079.5</ele>
        <time>2018-08-08T16:42:06.000Z</time>
      </trkpt>
      <trkpt lat="42.69743" lon="0.66825">
        <ele>2079.5</ele>
        <time>2018-08-08T16:42:07.000Z</time>
      </trkpt>
      <trkpt lat="42.69743" lon="0.66825">
        <ele>2079.5</ele>
        <time>2018-08-08T16:42:08.000Z</time>
      </trkpt>
      <trkpt lat="42.69743" lon="0.66825">
        <ele>2079.5</ele>
        <time>2018-08-08T16:42:09.000Z</time>
      </trkpt>
      <trkpt lat="42.69743" lon="0.66825">
        <ele>2079.5</ele>
        <time>2018-08-08T16:42:10.000Z</time>
      </trkpt>
      <trkpt lat="42.69743" lon="0.66825">
        <ele>2079.5</ele>
        <time>2018-08-08T16:42:11.000Z</time>
      </trkpt>
      <trkpt lat="42.69743" lon="0.66825">
        <ele>2079.5</ele>
        <time>2018-08-08T16:42:12.000Z</time>
      </trkpt>
      <trkpt lat="42.69743" lon="0.66825">
        <ele>2079.5</ele>
        <time>2018-08-08T16:42:13.000Z</time>
      </trkpt>
      <trkpt lat="42.69743" lon="0.66825">
        <ele>2079.5</ele>
        <time>2018-08-08T16:42:14.000Z</time>
      </trkpt>
      <trkpt lat="42.69743" lon="0.66825">
        <ele>2079.5</ele>
        <time>2018-08-08T16:42:15.000Z</time>
      </trkpt>
      <trkpt lat="42.69743" lon="0.66825">
        <ele>2079.5</ele>
        <time>2018-08-08T16:42:16.000Z</time>
      </trkpt>
      <trkpt lat="42.69743" lon="0.66825">
        <ele>2079.5</ele>
        <time>2018-08-08T16:42:17.000Z</time>
      </trkpt>
      <trkpt lat="42.69743" lon="0.66825">
        <ele>2079.5</ele>
        <time>2018-08-08T16:42:18.000Z</time>
      </trkpt>
      <trkpt lat="42.69743" lon="0.66825">
        <ele>2079.5</ele>
        <time>2018-08-08T16:42:19.000Z</time>
      </trkpt>
      <trkpt lat="42.69743" lon="0.66825">
        <ele>2079.5</ele>
        <time>2018-08-08T16:42:20.000Z</time>
      </trkpt>
      <trkpt lat="42.69743" lon="0.66825">
        <ele>2079.5</ele>
        <time>2018-08-08T16:42:21.000Z</time>
      </trkpt>
      <trkpt lat="42.69743" lon="0.66825">
        <ele>2079.5</ele>
        <time>2018-08-08T16:42:22.000Z</time>
      </trkpt>
      <trkpt lat="42.69743" lon="0.66825">
        <ele>2079.5</ele>
        <time>2018-08-08T16:42:23.000Z</time>
      </trkpt>
      <trkpt lat="42.69743" lon="0.66825">
        <ele>2079.5</ele>
        <time>2018-08-08T16:42:24.000Z</time>
      </trkpt>
      <trkpt lat="42.69743" lon="0.66825">
        <ele>2079.5</ele>
        <time>2018-08-08T16:42:25.000Z</time>
      </trkpt>
      <trkpt lat="42.69743" lon="0.66825">
        <ele>2079.5</ele>
        <time>2018-08-08T16:42:26.000Z</time>
      </trkpt>
      <trkpt lat="42.69743" lon="0.66825">
        <ele>2079.5</ele>
        <time>2018-08-08T16:42:27.000Z</time>
      </trkpt>
      <trkpt lat="42.69743" lon="0.66825">
        <ele>2079.5</ele>
        <time>2018-08-08T16:42:28.000Z</time>
      </trkpt>
      <trkpt lat="42.69743" lon="0.66825">
        <ele>2079.5</ele>
        <time>2018-08-08T16:42:29.000Z</time>
      </trkpt>
      <trkpt lat="42.69743" lon="0.66825">
        <ele>2079.5</ele>
        <time>2018-08-08T16:42:30.000Z</time>
      </trkpt>
      <trkpt lat="42.69743" lon="0.66825">
        <ele>2079.5</ele>
        <time>2018-08-08T16:42:31.000Z</time>
      </trkpt>
      <trkpt lat="42.69743" lon="0.66825">
        <ele>2079.5</ele>
        <time>2018-08-08T16:42:32.000Z</time>
      </trkpt>
      <trkpt lat="42.69743" lon="0.66825">
        <ele>2079.5</ele>
        <time>2018-08-08T16:42:33.000Z</time>
      </trkpt>
      <trkpt lat="42.69743" lon="0.66825">
        <ele>2079.5</ele>
        <time>2018-08-08T16:42:34.000Z</time>
      </trkpt>
      <trkpt lat="42.69743" lon="0.66825">
        <ele>2079.5</ele>
        <time>2018-08-08T16:42:35.000Z</time>
      </trkpt>
      <trkpt lat="42.69743" lon="0.66825">
        <ele>2079.5</ele>
        <time>2018-08-08T16:42:36.000Z</time>
      </trkpt>
      <trkpt lat="42.69743" lon="0.66825">
        <ele>2079.5</ele>
        <time>2018-08-08T16:42:37.000Z</time>
      </trkpt>
      <trkpt lat="42.69743" lon="0.66825">
        <ele>2079.5</ele>
        <time>2018-08-08T16:42:38.000Z</time>
      </trkpt>
      <trkpt lat="42.69743" lon="0.66825">
        <ele>2079.5</ele>
        <time>2018-08-08T16:42:39.000Z</time>
      </trkpt>
      <trkpt lat="42.69743" lon="0.66825">
        <ele>2079.5</ele>
        <time>2018-08-08T16:42:40.000Z</time>
      </trkpt>
      <trkpt lat="42.69743" lon="0.66825">
        <ele>2079.5</ele>
        <time>2018-08-08T16:42:41.000Z</time>
      </trkpt>
      <trkpt lat="42.69743" lon="0.66825">
        <ele>2079.5</ele>
        <time>2018-08-08T16:42:42.000Z</time>
      </trkpt>
      <trkpt lat="42.69743" lon="0.66825">
        <ele>2079.5</ele>
        <time>2018-08-08T16:42:43.000Z</time>
      </trkpt>
      <trkpt lat="42.69743" lon="0.66825">
        <ele>2079.5</ele>
        <time>2018-08-08T16:42:44.000Z</time>
      </trkpt>
      <trkpt lat="42.69743" lon="0.66825">
        <ele>2079.5</ele>
        <time>2018-08-08T16:42:45.000Z</time>
      </trkpt>
      <trkpt lat="42.69743" lon="0.66825">
        <ele>2079.5</ele>
        <time>2018-08-08T16:42:46.000Z</time>
      </trkpt>
      <trkpt lat="42.69743" lon="0.66825">
        <ele>2079.5</ele>
        <time>2018-08-08T16:42:47.000Z</time>
      </trkpt>
      <trkpt lat="42.69743" lon="0.66825">
        <ele>2079.5</ele>
        <time>2018-08-08T16:42:48.000Z</time>
      </trkpt>
      <trkpt lat="42.69743" lon="0.66825">
        <ele>2079.5</ele>
        <time>2018-08-08T16:42:49.000Z</time>
      </trkpt>
      <trkpt lat="42.69743" lon="0.66825">
        <ele>2079.5</ele>
        <time>2018-08-08T16:42:50.000Z</time>
      </trkpt>
      <trkpt lat="42.69743" lon="0.66825">
        <ele>2079.5</ele>
        <time>2018-08-08T16:42:51.000Z</time>
      </trkpt>
      <trkpt lat="42.69743" lon="0.66825">
        <ele>2079.5</ele>
        <time>2018-08-08T16:42:52.000Z</time>
      </trkpt>
      <trkpt lat="42.69743" lon="0.66825">
        <ele>2079.5</ele>
        <time>2018-08-08T16:42:53.000Z</time>
      </trkpt>
      <trkpt lat="42.69743" lon="0.66825">
        <ele>2079.5</ele>
        <time>2018-08-08T16:42:54.000Z</time>
      </trkpt>
      <trkpt lat="42.69743" lon="0.66825">
        <ele>2079.5</ele>
        <time>2018-08-08T16:42:55.000Z</time>
      </trkpt>
      <trkpt lat="42.69743" lon="0.66825">
        <ele>2079.5</ele>
        <time>2018-08-08T16:42:56.000Z</time>
      </trkpt>
      <trkpt lat="42.69743" lon="0.66825">
        <ele>2079.5</ele>
        <time>2018-08-08T16:42:57.000Z</time>
      </trkpt>
      <trkpt lat="42.69743" lon="0.66825">
        <ele>2079.5</ele>
        <time>2018-08-08T16:42:58.000Z</time>
      </trkpt>
      <trkpt lat="42.69743" lon="0.66825">
        <ele>2079.5</ele>
        <time>2018-08-08T16:42:59.000Z</time>
      </trkpt>
      <trkpt lat="42.69743" lon="0.66825">
        <ele>2079.5</ele>
        <time>2018-08-08T16:43:00.000Z</time>
      </trkpt>
      <trkpt lat="42.69743" lon="0.66825">
        <ele>2079.5</ele>
        <time>2018-08-08T16:43:01.000Z</time>
      </trkpt>
      <trkpt lat="42.69743" lon="0.66825">
        <ele>2079.5</ele>
        <time>2018-08-08T16:43:02.000Z</time>
      </trkpt>
      <trkpt lat="42.69743" lon="0.66825">
        <ele>2079.5</ele>
        <time>2018-08-08T16:43:03.000Z</time>
      </trkpt>
      <trkpt lat="42.69743" lon="0.66825">
        <ele>2079.5</ele>
        <time>2018-08-08T16:43:04.000Z</time>
      </trkpt>
      <trkpt lat="42.69743" lon="0.66825">
        <ele>2079.5</ele>
        <time>2018-08-08T16:43:05.000Z</time>
      </trkpt>
      <trkpt lat="42.69743" lon="0.66825">
        <ele>2079.5</ele>
        <time>2018-08-08T16:43:06.000Z</time>
      </trkpt>
      <trkpt lat="42.69743" lon="0.66825">
        <ele>2079.5</ele>
        <time>2018-08-08T16:43:07.000Z</time>
      </trkpt>
      <trkpt lat="42.69743" lon="0.66825">
        <ele>2079.5</ele>
        <time>2018-08-08T16:43:08.000Z</time>
      </trkpt>
      <trkpt lat="42.69743" lon="0.66825">
        <ele>2079.5</ele>
        <time>2018-08-08T16:43:09.000Z</time>
      </trkpt>
      <trkpt lat="42.69743" lon="0.66825">
        <ele>2079.5</ele>
        <time>2018-08-08T16:43:10.000Z</time>
      </trkpt>
      <trkpt lat="42.69743" lon="0.66825">
        <ele>2079.5</ele>
        <time>2018-08-08T16:43:11.000Z</time>
      </trkpt>
      <trkpt lat="42.69743" lon="0.66825">
        <ele>2079.5</ele>
        <time>2018-08-08T16:43:12.000Z</time>
      </trkpt>
      <trkpt lat="42.69743" lon="0.66825">
        <ele>2079.5</ele>
        <time>2018-08-08T16:43:13.000Z</time>
      </trkpt>
      <trkpt lat="42.69743" lon="0.66825">
        <ele>2079.5</ele>
        <time>2018-08-08T16:43:14.000Z</time>
      </trkpt>
      <trkpt lat="42.69743" lon="0.66825">
        <ele>2079.5</ele>
        <time>2018-08-08T16:43:15.000Z</time>
      </trkpt>
      <trkpt lat="42.69743" lon="0.66825">
        <ele>2079.5</ele>
        <time>2018-08-08T16:43:16.000Z</time>
      </trkpt>
      <trkpt lat="42.69743" lon="0.66825">
        <ele>2079.5</ele>
        <time>2018-08-08T16:43:17.000Z</time>
      </trkpt>
      <trkpt lat="42.69743" lon="0.66825">
        <ele>2079.5</ele>
        <time>2018-08-08T16:43:18.000Z</time>
      </trkpt>
      <trkpt lat="42.69743" lon="0.66825">
        <ele>2079.5</ele>
        <time>2018-08-08T16:43:19.000Z</time>
      </trkpt>
      <trkpt lat="42.69743" lon="0.66825">
        <ele>2079.5</ele>
        <time>2018-08-08T16:43:20.000Z</time>
      </trkpt>
      <trkpt lat="42.69743" lon="0.66825">
        <ele>2079.5</ele>
        <time>2018-08-08T16:43:21.000Z</time>
      </trkpt>
      <trkpt lat="42.69743" lon="0.66825">
        <ele>2079.5</ele>
        <time>2018-08-08T16:43:22.000Z</time>
      </trkpt>
      <trkpt lat="42.69743" lon="0.66825">
        <ele>2079.5</ele>
        <time>2018-08-08T16:43:23.000Z</time>
      </trkpt>
      <trkpt lat="42.69743" lon="0.66825">
        <ele>2079.5</ele>
        <time>2018-08-08T16:43:24.000Z</time>
      </trkpt>
      <trkpt lat="42.69743" lon="0.66825">
        <ele>2079.5</ele>
        <time>2018-08-08T16:43:25.000Z</time>
      </trkpt>
      <trkpt lat="42.69743" lon="0.66825">
        <ele>2079.5</ele>
        <time>2018-08-08T16:43:26.000Z</time>
      </trkpt>
      <trkpt lat="42.69743" lon="0.66825">
        <ele>2079.5</ele>
        <time>2018-08-08T16:43:27.000Z</time>
      </trkpt>
      <trkpt lat="42.69743" lon="0.66825">
        <ele>2079.5</ele>
        <time>2018-08-08T16:43:28.000Z</time>
      </trkpt>
      <trkpt lat="42.69743" lon="0.66825">
        <ele>2079.5</ele>
        <time>2018-08-08T16:43:29.000Z</time>
      </trkpt>
      <trkpt lat="42.69743" lon="0.66825">
        <ele>2079.5</ele>
        <time>2018-08-08T16:43:30.000Z</time>
      </trkpt>
      <trkpt lat="42.69743" lon="0.66825">
        <ele>2079.5</ele>
        <time>2018-08-08T16:43:31.000Z</time>
      </trkpt>
      <trkpt lat="42.69743" lon="0.66825">
        <ele>2079.5</ele>
        <time>2018-08-08T16:43:32.000Z</time>
      </trkpt>
      <trkpt lat="42.69743" lon="0.66825">
        <ele>2079.5</ele>
        <time>2018-08-08T16:43:33.000Z</time>
      </trkpt>
      <trkpt lat="42.69743" lon="0.66825">
        <ele>2079.5</ele>
        <time>2018-08-08T16:43:34.000Z</time>
      </trkpt>
      <trkpt lat="42.69743" lon="0.66825">
        <ele>2079.5</ele>
        <time>2018-08-08T16:43:35.000Z</time>
      </trkpt>
      <trkpt lat="42.69743" lon="0.66825">
        <ele>2079.5</ele>
        <time>2018-08-08T16:43:36.000Z</time>
      </trkpt>
      <trkpt lat="42.69743" lon="0.66825">
        <ele>2079.5</ele>
        <time>2018-08-08T16:43:37.000Z</time>
      </trkpt>
      <trkpt lat="42.69743" lon="0.66825">
        <ele>2079.5</ele>
        <time>2018-08-08T16:43:38.000Z</time>
      </trkpt>
      <trkpt lat="42.69743" lon="0.66825">
        <ele>2079.5</ele>
        <time>2018-08-08T16:43:39.000Z</time>
      </trkpt>
      <trkpt lat="42.69743" lon="0.66825">
        <ele>2079.5</ele>
        <time>2018-08-08T16:43:40.000Z</time>
      </trkpt>
      <trkpt lat="42.69743" lon="0.66825">
        <ele>2079.5</ele>
        <time>2018-08-08T16:43:41.000Z</time>
      </trkpt>
      <trkpt lat="42.69743" lon="0.66825">
        <ele>2079.5</ele>
        <time>2018-08-08T16:43:42.000Z</time>
      </trkpt>
      <trkpt lat="42.69743" lon="0.66825">
        <ele>2079.5</ele>
        <time>2018-08-08T16:43:43.000Z</time>
      </trkpt>
      <trkpt lat="42.69743" lon="0.66825">
        <ele>2079.5</ele>
        <time>2018-08-08T16:43:44.000Z</time>
      </trkpt>
      <trkpt lat="42.69743" lon="0.66825">
        <ele>2079.5</ele>
        <time>2018-08-08T16:43:45.000Z</time>
      </trkpt>
      <trkpt lat="42.69743" lon="0.66825">
        <ele>2079.5</ele>
        <time>2018-08-08T16:43:46.000Z</time>
      </trkpt>
      <trkpt lat="42.69743" lon="0.66825">
        <ele>2079.5</ele>
        <time>2018-08-08T16:43:47.000Z</time>
      </trkpt>
      <trkpt lat="42.69743" lon="0.66825">
        <ele>2079.5</ele>
        <time>2018-08-08T16:43:48.000Z</time>
      </trkpt>
      <trkpt lat="42.69743" lon="0.66825">
        <ele>2079.5</ele>
        <time>2018-08-08T16:43:49.000Z</time>
      </trkpt>
      <trkpt lat="42.69743" lon="0.66825">
        <ele>2079.5</ele>
        <time>2018-08-08T16:43:50.000Z</time>
      </trkpt>
      <trkpt lat="42.69743" lon="0.66825">
        <ele>2079.5</ele>
        <time>2018-08-08T16:43:51.000Z</time>
      </trkpt>
      <trkpt lat="42.69743" lon="0.66825">
        <ele>2079.5</ele>
        <time>2018-08-08T16:43:52.000Z</time>
      </trkpt>
      <trkpt lat="42.69743" lon="0.66825">
        <ele>2079.5</ele>
        <time>2018-08-08T16:43:53.000Z</time>
      </trkpt>
      <trkpt lat="42.69743" lon="0.66825">
        <ele>2079.5</ele>
        <time>2018-08-08T16:43:54.000Z</time>
      </trkpt>
      <trkpt lat="42.69743" lon="0.66825">
        <ele>2079.5</ele>
        <time>2018-08-08T16:43:55.000Z</time>
      </trkpt>
      <trkpt lat="42.69743" lon="0.66825">
        <ele>2079.5</ele>
        <time>2018-08-08T16:43:56.000Z</time>
      </trkpt>
      <trkpt lat="42.69743" lon="0.66825">
        <ele>2079.5</ele>
        <time>2018-08-08T16:43:57.000Z</time>
      </trkpt>
      <trkpt lat="42.69743" lon="0.66825">
        <ele>2079.5</ele>
        <time>2018-08-08T16:43:58.000Z</time>
      </trkpt>
      <trkpt lat="42.69743" lon="0.66825">
        <ele>2079.5</ele>
        <time>2018-08-08T16:43:59.000Z</time>
      </trkpt>
      <trkpt lat="42.69743" lon="0.66825">
        <ele>2079.5</ele>
        <time>2018-08-08T16:44:00.000Z</time>
      </trkpt>
      <trkpt lat="42.69743" lon="0.66825">
        <ele>2079.5</ele>
        <time>2018-08-08T16:44:01.000Z</time>
      </trkpt>
      <trkpt lat="42.69743" lon="0.66825">
        <ele>2079.5</ele>
        <time>2018-08-08T16:44:02.000Z</time>
      </trkpt>
      <trkpt lat="42.69743" lon="0.66825">
        <ele>2079.5</ele>
        <time>2018-08-08T16:44:03.000Z</time>
      </trkpt>
      <trkpt lat="42.69743" lon="0.66825">
        <ele>2079.5</ele>
        <time>2018-08-08T16:44:04.000Z</time>
      </trkpt>
      <trkpt lat="42.69743" lon="0.66825">
        <ele>2079.5</ele>
        <time>2018-08-08T16:44:05.000Z</time>
      </trkpt>
      <trkpt lat="42.69743" lon="0.66825">
        <ele>2079.5</ele>
        <time>2018-08-08T16:44:06.000Z</time>
      </trkpt>
      <trkpt lat="42.69743" lon="0.66825">
        <ele>2079.5</ele>
        <time>2018-08-08T16:44:07.000Z</time>
      </trkpt>
      <trkpt lat="42.69743" lon="0.66825">
        <ele>2079.5</ele>
        <time>2018-08-08T16:44:08.000Z</time>
      </trkpt>
      <trkpt lat="42.69743" lon="0.66825">
        <ele>2079.5</ele>
        <time>2018-08-08T16:44:09.000Z</time>
      </trkpt>
      <trkpt lat="42.69743" lon="0.66825">
        <ele>2079.5</ele>
        <time>2018-08-08T16:44:10.000Z</time>
      </trkpt>
      <trkpt lat="42.69743" lon="0.66825">
        <ele>2079.5</ele>
        <time>2018-08-08T16:44:11.000Z</time>
      </trkpt>
      <trkpt lat="42.69743" lon="0.66825">
        <ele>2079.5</ele>
        <time>2018-08-08T16:44:12.000Z</time>
      </trkpt>
      <trkpt lat="42.69743" lon="0.66825">
        <ele>2079.5</ele>
        <time>2018-08-08T16:44:13.000Z</time>
      </trkpt>
      <trkpt lat="42.69743" lon="0.66825">
        <ele>2079.5</ele>
        <time>2018-08-08T16:44:14.000Z</time>
      </trkpt>
      <trkpt lat="42.69743" lon="0.66825">
        <ele>2079.5</ele>
        <time>2018-08-08T16:44:15.000Z</time>
      </trkpt>
      <trkpt lat="42.69743" lon="0.66825">
        <ele>2079.5</ele>
        <time>2018-08-08T16:44:16.000Z</time>
      </trkpt>
      <trkpt lat="42.69743" lon="0.66825">
        <ele>2079.5</ele>
        <time>2018-08-08T16:44:17.000Z</time>
      </trkpt>
      <trkpt lat="42.69743" lon="0.66825">
        <ele>2079.5</ele>
        <time>2018-08-08T16:44:18.000Z</time>
      </trkpt>
      <trkpt lat="42.69743" lon="0.66825">
        <ele>2079.5</ele>
        <time>2018-08-08T16:44:19.000Z</time>
      </trkpt>
      <trkpt lat="42.69743" lon="0.66825">
        <ele>2079.5</ele>
        <time>2018-08-08T16:44:20.000Z</time>
      </trkpt>
      <trkpt lat="42.69743" lon="0.66825">
        <ele>2079.5</ele>
        <time>2018-08-08T16:44:21.000Z</time>
      </trkpt>
      <trkpt lat="42.69743" lon="0.66825">
        <ele>2079.5</ele>
        <time>2018-08-08T16:44:22.000Z</time>
      </trkpt>
      <trkpt lat="42.69743" lon="0.66825">
        <ele>2079.5</ele>
        <time>2018-08-08T16:44:23.000Z</time>
      </trkpt>
      <trkpt lat="42.69743" lon="0.66825">
        <ele>2079.5</ele>
        <time>2018-08-08T16:44:24.000Z</time>
      </trkpt>
      <trkpt lat="42.69743" lon="0.66825">
        <ele>2079.5</ele>
        <time>2018-08-08T16:44:25.000Z</time>
      </trkpt>
      <trkpt lat="42.69743" lon="0.66825">
        <ele>2079.5</ele>
        <time>2018-08-08T16:44:26.000Z</time>
      </trkpt>
      <trkpt lat="42.69743" lon="0.66825">
        <ele>2079.5</ele>
        <time>2018-08-08T16:44:27.000Z</time>
      </trkpt>
      <trkpt lat="42.69743" lon="0.66825">
        <ele>2079.5</ele>
        <time>2018-08-08T16:44:28.000Z</time>
      </trkpt>
      <trkpt lat="42.69743" lon="0.66825">
        <ele>2079.5</ele>
        <time>2018-08-08T16:44:29.000Z</time>
      </trkpt>
      <trkpt lat="42.69743" lon="0.66825">
        <ele>2079.5</ele>
        <time>2018-08-08T16:44:30.000Z</time>
      </trkpt>
      <trkpt lat="42.69743" lon="0.66825">
        <ele>2079.5</ele>
        <time>2018-08-08T16:44:31.000Z</time>
      </trkpt>
      <trkpt lat="42.69743" lon="0.66825">
        <ele>2079.5</ele>
        <time>2018-08-08T16:44:32.000Z</time>
      </trkpt>
      <trkpt lat="42.69743" lon="0.66825">
        <ele>2079.5</ele>
        <time>2018-08-08T16:44:33.000Z</time>
      </trkpt>
      <trkpt lat="42.69743" lon="0.66825">
        <ele>2079.5</ele>
        <time>2018-08-08T16:44:34.000Z</time>
      </trkpt>
      <trkpt lat="42.69743" lon="0.66825">
        <ele>2079.5</ele>
        <time>2018-08-08T16:44:35.000Z</time>
      </trkpt>
      <trkpt lat="42.69743" lon="0.66825">
        <ele>2079.5</ele>
        <time>2018-08-08T16:44:36.000Z</time>
      </trkpt>
      <trkpt lat="42.69743" lon="0.66825">
        <ele>2079.5</ele>
        <time>2018-08-08T16:44:37.000Z</time>
      </trkpt>
      <trkpt lat="42.69743" lon="0.66825">
        <ele>2079.5</ele>
        <time>2018-08-08T16:44:38.000Z</time>
      </trkpt>
      <trkpt lat="42.69743" lon="0.66825">
        <ele>2079.5</ele>
        <time>2018-08-08T16:44:39.000Z</time>
      </trkpt>
      <trkpt lat="42.69743" lon="0.66825">
        <ele>2079.5</ele>
        <time>2018-08-08T16:44:40.000Z</time>
      </trkpt>
      <trkpt lat="42.69743" lon="0.66825">
        <ele>2079.5</ele>
        <time>2018-08-08T16:44:41.000Z</time>
      </trkpt>
      <trkpt lat="42.69743" lon="0.66825">
        <ele>2079.5</ele>
        <time>2018-08-08T16:44:42.000Z</time>
      </trkpt>
      <trkpt lat="42.69743" lon="0.66825">
        <ele>2079.5</ele>
        <time>2018-08-08T16:44:43.000Z</time>
      </trkpt>
      <trkpt lat="42.69743" lon="0.66825">
        <ele>2079.5</ele>
        <time>2018-08-08T16:44:44.000Z</time>
      </trkpt>
      <trkpt lat="42.69743" lon="0.66825">
        <ele>2079.5</ele>
        <time>2018-08-08T16:44:45.000Z</time>
      </trkpt>
      <trkpt lat="42.69743" lon="0.66825">
        <ele>2079.5</ele>
        <time>2018-08-08T16:44:46.000Z</time>
      </trkpt>
      <trkpt lat="42.69743" lon="0.66825">
        <ele>2079.5</ele>
        <time>2018-08-08T16:44:47.000Z</time>
      </trkpt>
      <trkpt lat="42.69743" lon="0.66825">
        <ele>2079.5</ele>
        <time>2018-08-08T16:44:48.000Z</time>
      </trkpt>
      <trkpt lat="42.69743" lon="0.66825">
        <ele>2079.5</ele>
        <time>2018-08-08T16:44:49.000Z</time>
      </trkpt>
      <trkpt lat="42.69743" lon="0.66825">
        <ele>2079.5</ele>
        <time>2018-08-08T16:44:50.000Z</time>
      </trkpt>
      <trkpt lat="42.69743" lon="0.66825">
        <ele>2079.5</ele>
        <time>2018-08-08T16:44:51.000Z</time>
      </trkpt>
      <trkpt lat="42.69743" lon="0.66825">
        <ele>2079.5</ele>
        <time>2018-08-08T16:44:52.000Z</time>
      </trkpt>
      <trkpt lat="42.69743" lon="0.66825">
        <ele>2079.5</ele>
        <time>2018-08-08T16:44:53.000Z</time>
      </trkpt>
      <trkpt lat="42.69743" lon="0.66825">
        <ele>2079.5</ele>
        <time>2018-08-08T16:44:54.000Z</time>
      </trkpt>
      <trkpt lat="42.69743" lon="0.66825">
        <ele>2079.5</ele>
        <time>2018-08-08T16:44:55.000Z</time>
      </trkpt>
      <trkpt lat="42.69743" lon="0.66825">
        <ele>2079.5</ele>
        <time>2018-08-08T16:44:56.000Z</time>
      </trkpt>
      <trkpt lat="42.69743" lon="0.66825">
        <ele>2079.5</ele>
        <time>2018-08-08T16:44:57.000Z</time>
      </trkpt>
      <trkpt lat="42.69743" lon="0.66825">
        <ele>2079.5</ele>
        <time>2018-08-08T16:44:58.000Z</time>
      </trkpt>
      <trkpt lat="42.69743" lon="0.66825">
        <ele>2079.5</ele>
        <time>2018-08-08T16:44:59.000Z</time>
      </trkpt>
      <trkpt lat="42.69743" lon="0.66825">
        <ele>2079.5</ele>
        <time>2018-08-08T16:45:00.000Z</time>
      </trkpt>
      <trkpt lat="42.69743" lon="0.66825">
        <ele>2079.5</ele>
        <time>2018-08-08T16:45:01.000Z</time>
      </trkpt>
      <trkpt lat="42.69743" lon="0.66825">
        <ele>2079.5</ele>
        <time>2018-08-08T16:45:02.000Z</time>
      </trkpt>
      <trkpt lat="42.69743" lon="0.66825">
        <ele>2079.5</ele>
        <time>2018-08-08T16:45:03.000Z</time>
      </trkpt>
      <trkpt lat="42.69743" lon="0.66825">
        <ele>2079.5</ele>
        <time>2018-08-08T16:45:04.000Z</time>
      </trkpt>
      <trkpt lat="42.69743" lon="0.66825">
        <ele>2079.5</ele>
        <time>2018-08-08T16:45:05.000Z</time>
      </trkpt>
      <trkpt lat="42.69743" lon="0.66825">
        <ele>2079.5</ele>
        <time>2018-08-08T16:45:06.000Z</time>
      </trkpt>
      <trkpt lat="42.69743" lon="0.66825">
        <ele>2079.5</ele>
        <time>2018-08-08T16:45:07.000Z</time>
      </trkpt>
      <trkpt lat="42.69743" lon="0.66825">
        <ele>2079.5</ele>
        <time>2018-08-08T16:45:08.000Z</time>
      </trkpt>
      <trkpt lat="42.69743" lon="0.66825">
        <ele>2079.5</ele>
        <time>2018-08-08T16:45:09.000Z</time>
      </trkpt>
      <trkpt lat="42.69743" lon="0.66825">
        <ele>2079.5</ele>
        <time>2018-08-08T16:45:10.000Z</time>
      </trkpt>
      <trkpt lat="42.69743" lon="0.66825">
        <ele>2079.5</ele>
        <time>2018-08-08T16:45:11.000Z</time>
      </trkpt>
      <trkpt lat="42.69743" lon="0.66825">
        <ele>2079.5</ele>
        <time>2018-08-08T16:45:12.000Z</time>
      </trkpt>
      <trkpt lat="42.69743" lon="0.66825">
        <ele>2079.5</ele>
        <time>2018-08-08T16:45:13.000Z</time>
      </trkpt>
      <trkpt lat="42.69743" lon="0.66825">
        <ele>2079.5</ele>
        <time>2018-08-08T16:45:14.000Z</time>
      </trkpt>
      <trkpt lat="42.69743" lon="0.66825">
        <ele>2079.5</ele>
        <time>2018-08-08T16:45:15.000Z</time>
      </trkpt>
      <trkpt lat="42.69743" lon="0.66825">
        <ele>2079.5</ele>
        <time>2018-08-08T16:45:16.000Z</time>
      </trkpt>
      <trkpt lat="42.69743" lon="0.66825">
        <ele>2079.5</ele>
        <time>2018-08-08T16:45:17.000Z</time>
      </trkpt>
      <trkpt lat="42.69743" lon="0.66825">
        <ele>2079.5</ele>
        <time>2018-08-08T16:45:18.000Z</time>
      </trkpt>
      <trkpt lat="42.69743" lon="0.66825">
        <ele>2079.5</ele>
        <time>2018-08-08T16:45:19.000Z</time>
      </trkpt>
      <trkpt lat="42.69743" lon="0.66825">
        <ele>2079.5</ele>
        <time>2018-08-08T16:45:20.000Z</time>
      </trkpt>
      <trkpt lat="42.69743" lon="0.66825">
        <ele>2079.5</ele>
        <time>2018-08-08T16:45:21.000Z</time>
      </trkpt>
      <trkpt lat="42.69743" lon="0.66825">
        <ele>2079.5</ele>
        <time>2018-08-08T16:45:22.000Z</time>
      </trkpt>
      <trkpt lat="42.69743" lon="0.66825">
        <ele>2079.5</ele>
        <time>2018-08-08T16:45:23.000Z</time>
      </trkpt>
      <trkpt lat="42.69743" lon="0.66825">
        <ele>2079.5</ele>
        <time>2018-08-08T16:45:24.000Z</time>
      </trkpt>
      <trkpt lat="42.69743" lon="0.66825">
        <ele>2079.5</ele>
        <time>2018-08-08T16:45:25.000Z</time>
      </trkpt>
      <trkpt lat="42.69743" lon="0.66825">
        <ele>2079.5</ele>
        <time>2018-08-08T16:45:26.000Z</time>
      </trkpt>
      <trkpt lat="42.69743" lon="0.66825">
        <ele>2079.5</ele>
        <time>2018-08-08T16:45:27.000Z</time>
      </trkpt>
      <trkpt lat="42.69743" lon="0.66825">
        <ele>2079.5</ele>
        <time>2018-08-08T16:45:28.000Z</time>
      </trkpt>
      <trkpt lat="42.69743" lon="0.66825">
        <ele>2079.5</ele>
        <time>2018-08-08T16:45:29.000Z</time>
      </trkpt>
      <trkpt lat="42.69743" lon="0.66825">
        <ele>2079.5</ele>
        <time>2018-08-08T16:45:30.000Z</time>
      </trkpt>
      <trkpt lat="42.69743" lon="0.66825">
        <ele>2079.5</ele>
        <time>2018-08-08T16:45:31.000Z</time>
      </trkpt>
      <trkpt lat="42.69743" lon="0.66825">
        <ele>2079.5</ele>
        <time>2018-08-08T16:45:32.000Z</time>
      </trkpt>
      <trkpt lat="42.69743" lon="0.66825">
        <ele>2079.5</ele>
        <time>2018-08-08T16:45:33.000Z</time>
      </trkpt>
      <trkpt lat="42.69743" lon="0.66825">
        <ele>2079.5</ele>
        <time>2018-08-08T16:45:34.000Z</time>
      </trkpt>
      <trkpt lat="42.69743" lon="0.66825">
        <ele>2079.5</ele>
        <time>2018-08-08T16:45:35.000Z</time>
      </trkpt>
      <trkpt lat="42.69743" lon="0.66825">
        <ele>2079.5</ele>
        <time>2018-08-08T16:45:36.000Z</time>
      </trkpt>
      <trkpt lat="42.69743" lon="0.66825">
        <ele>2079.5</ele>
        <time>2018-08-08T16:45:37.000Z</time>
      </trkpt>
      <trkpt lat="42.69743" lon="0.66825">
        <ele>2079.5</ele>
        <time>2018-08-08T16:45:38.000Z</time>
      </trkpt>
      <trkpt lat="42.69743" lon="0.66825">
        <ele>2079.5</ele>
        <time>2018-08-08T16:45:39.000Z</time>
      </trkpt>
      <trkpt lat="42.69743" lon="0.66825">
        <ele>2079.5</ele>
        <time>2018-08-08T16:45:40.000Z</time>
      </trkpt>
      <trkpt lat="42.69743" lon="0.66825">
        <ele>2079.5</ele>
        <time>2018-08-08T16:45:41.000Z</time>
      </trkpt>
      <trkpt lat="42.69743" lon="0.66825">
        <ele>2079.5</ele>
        <time>2018-08-08T16:45:42.000Z</time>
      </trkpt>
      <trkpt lat="42.69743" lon="0.66825">
        <ele>2079.5</ele>
        <time>2018-08-08T16:45:43.000Z</time>
      </trkpt>
      <trkpt lat="42.69743" lon="0.66825">
        <ele>2079.5</ele>
        <time>2018-08-08T16:45:44.000Z</time>
      </trkpt>
      <trkpt lat="42.69743" lon="0.66825">
        <ele>2079.5</ele>
        <time>2018-08-08T16:45:45.000Z</time>
      </trkpt>
      <trkpt lat="42.69743" lon="0.66825">
        <ele>2079.5</ele>
        <time>2018-08-08T16:45:46.000Z</time>
      </trkpt>
      <trkpt lat="42.69743" lon="0.66825">
        <ele>2079.5</ele>
        <time>2018-08-08T16:45:47.000Z</time>
      </trkpt>
      <trkpt lat="42.69743" lon="0.66825">
        <ele>2079.5</ele>
        <time>2018-08-08T16:45:48.000Z</time>
      </trkpt>
      <trkpt lat="42.69743" lon="0.66825">
        <ele>2079.5</ele>
        <time>2018-08-08T16:45:49.000Z</time>
      </trkpt>
      <trkpt lat="42.69743" lon="0.66825">
        <ele>2079.5</ele>
        <time>2018-08-08T16:45:50.000Z</time>
      </trkpt>
      <trkpt lat="42.69743" lon="0.66825">
        <ele>2079.5</ele>
        <time>2018-08-08T16:45:51.000Z</time>
      </trkpt>
      <trkpt lat="42.69743" lon="0.66825">
        <ele>2079.5</ele>
        <time>2018-08-08T16:45:52.000Z</time>
      </trkpt>
      <trkpt lat="42.69743" lon="0.66825">
        <ele>2079.5</ele>
        <time>2018-08-08T16:45:53.000Z</time>
      </trkpt>
      <trkpt lat="42.69743" lon="0.66825">
        <ele>2079.5</ele>
        <time>2018-08-08T16:45:54.000Z</time>
      </trkpt>
      <trkpt lat="42.69743" lon="0.66825">
        <ele>2079.5</ele>
        <time>2018-08-08T16:45:55.000Z</time>
      </trkpt>
      <trkpt lat="42.69743" lon="0.66825">
        <ele>2079.5</ele>
        <time>2018-08-08T16:45:56.000Z</time>
      </trkpt>
      <trkpt lat="42.69743" lon="0.66825">
        <ele>2079.5</ele>
        <time>2018-08-08T16:45:57.000Z</time>
      </trkpt>
      <trkpt lat="42.69743" lon="0.66825">
        <ele>2079.5</ele>
        <time>2018-08-08T16:45:58.000Z</time>
      </trkpt>
      <trkpt lat="42.69743" lon="0.66825">
        <ele>2079.5</ele>
        <time>2018-08-08T16:45:59.000Z</time>
      </trkpt>
      <trkpt lat="42.69743" lon="0.66825">
        <ele>2079.5</ele>
        <time>2018-08-08T16:46:00.000Z</time>
      </trkpt>
      <trkpt lat="42.69743" lon="0.66825">
        <ele>2079.5</ele>
        <time>2018-08-08T16:46:01.000Z</time>
      </trkpt>
      <trkpt lat="42.69743" lon="0.66825">
        <ele>2079.5</ele>
        <time>2018-08-08T16:46:02.000Z</time>
      </trkpt>
      <trkpt lat="42.69743" lon="0.66825">
        <ele>2079.5</ele>
        <time>2018-08-08T16:46:03.000Z</time>
      </trkpt>
      <trkpt lat="42.69743" lon="0.66825">
        <ele>2079.5</ele>
        <time>2018-08-08T16:46:04.000Z</time>
      </trkpt>
      <trkpt lat="42.69743" lon="0.66825">
        <ele>2079.5</ele>
        <time>2018-08-08T16:46:05.000Z</time>
      </trkpt>
      <trkpt lat="42.69743" lon="0.66825">
        <ele>2079.5</ele>
        <time>2018-08-08T16:46:06.000Z</time>
      </trkpt>
      <trkpt lat="42.69743" lon="0.66825">
        <ele>2079.5</ele>
        <time>2018-08-08T16:46:07.000Z</time>
      </trkpt>
      <trkpt lat="42.69743" lon="0.66825">
        <ele>2079.5</ele>
        <time>2018-08-08T16:46:08.000Z</time>
      </trkpt>
      <trkpt lat="42.69743" lon="0.66825">
        <ele>2079.5</ele>
        <time>2018-08-08T16:46:09.000Z</time>
      </trkpt>
      <trkpt lat="42.69743" lon="0.66825">
        <ele>2079.5</ele>
        <time>2018-08-08T16:46:10.000Z</time>
      </trkpt>
      <trkpt lat="42.69743" lon="0.66825">
        <ele>2079.5</ele>
        <time>2018-08-08T16:46:11.000Z</time>
      </trkpt>
      <trkpt lat="42.69743" lon="0.66825">
        <ele>2079.5</ele>
        <time>2018-08-08T16:46:12.000Z</time>
      </trkpt>
      <trkpt lat="42.69743" lon="0.66825">
        <ele>2079.5</ele>
        <time>2018-08-08T16:46:13.000Z</time>
      </trkpt>
      <trkpt lat="42.69743" lon="0.66825">
        <ele>2079.5</ele>
        <time>2018-08-08T16:46:14.000Z</time>
      </trkpt>
      <trkpt lat="42.69743" lon="0.66825">
        <ele>2079.5</ele>
        <time>2018-08-08T16:46:15.000Z</time>
      </trkpt>
      <trkpt lat="42.69743" lon="0.66825">
        <ele>2079.5</ele>
        <time>2018-08-08T16:46:16.000Z</time>
      </trkpt>
      <trkpt lat="42.69743" lon="0.66825">
        <ele>2079.5</ele>
        <time>2018-08-08T16:46:17.000Z</time>
      </trkpt>
      <trkpt lat="42.69743" lon="0.66825">
        <ele>2079.5</ele>
        <time>2018-08-08T16:46:18.000Z</time>
      </trkpt>
      <trkpt lat="42.69743" lon="0.66825">
        <ele>2079.5</ele>
        <time>2018-08-08T16:46:19.000Z</time>
      </trkpt>
      <trkpt lat="42.69743" lon="0.66825">
        <ele>2079.5</ele>
        <time>2018-08-08T16:46:20.000Z</time>
      </trkpt>
      <trkpt lat="42.69743" lon="0.66825">
        <ele>2079.5</ele>
        <time>2018-08-08T16:46:21.000Z</time>
      </trkpt>
      <trkpt lat="42.69743" lon="0.66825">
        <ele>2079.5</ele>
        <time>2018-08-08T16:46:22.000Z</time>
      </trkpt>
      <trkpt lat="42.69743" lon="0.66825">
        <ele>2079.5</ele>
        <time>2018-08-08T16:46:23.000Z</time>
      </trkpt>
      <trkpt lat="42.69743" lon="0.66825">
        <ele>2079.5</ele>
        <time>2018-08-08T16:46:24.000Z</time>
      </trkpt>
      <trkpt lat="42.69743" lon="0.66825">
        <ele>2079.5</ele>
        <time>2018-08-08T16:46:25.000Z</time>
      </trkpt>
      <trkpt lat="42.69743" lon="0.66825">
        <ele>2079.5</ele>
        <time>2018-08-08T16:46:26.000Z</time>
      </trkpt>
      <trkpt lat="42.69743" lon="0.66825">
        <ele>2079.5</ele>
        <time>2018-08-08T16:46:27.000Z</time>
      </trkpt>
      <trkpt lat="42.69743" lon="0.66825">
        <ele>2079.5</ele>
        <time>2018-08-08T16:46:28.000Z</time>
      </trkpt>
      <trkpt lat="42.69743" lon="0.66825">
        <ele>2079.5</ele>
        <time>2018-08-08T16:46:29.000Z</time>
      </trkpt>
      <trkpt lat="42.69743" lon="0.66825">
        <ele>2079.5</ele>
        <time>2018-08-08T16:46:30.000Z</time>
      </trkpt>
      <trkpt lat="42.69743" lon="0.66825">
        <ele>2079.5</ele>
        <time>2018-08-08T16:46:31.000Z</time>
      </trkpt>
      <trkpt lat="42.69743" lon="0.66825">
        <ele>2079.5</ele>
        <time>2018-08-08T16:46:32.000Z</time>
      </trkpt>
      <trkpt lat="42.69743" lon="0.66825">
        <ele>2079.5</ele>
        <time>2018-08-08T16:46:33.000Z</time>
      </trkpt>
      <trkpt lat="42.69743" lon="0.66825">
        <ele>2079.5</ele>
        <time>2018-08-08T16:46:34.000Z</time>
      </trkpt>
      <trkpt lat="42.69743" lon="0.66825">
        <ele>2079.5</ele>
        <time>2018-08-08T16:46:35.000Z</time>
      </trkpt>
      <trkpt lat="42.69743" lon="0.66825">
        <ele>2079.5</ele>
        <time>2018-08-08T16:46:36.000Z</time>
      </trkpt>
      <trkpt lat="42.69743" lon="0.66825">
        <ele>2079.5</ele>
        <time>2018-08-08T16:46:37.000Z</time>
      </trkpt>
      <trkpt lat="42.69743" lon="0.66825">
        <ele>2079.5</ele>
        <time>2018-08-08T16:46:38.000Z</time>
      </trkpt>
      <trkpt lat="42.69743" lon="0.66825">
        <ele>2079.5</ele>
        <time>2018-08-08T16:46:39.000Z</time>
      </trkpt>
      <trkpt lat="42.69743" lon="0.66825">
        <ele>2079.5</ele>
        <time>2018-08-08T16:46:40.000Z</time>
      </trkpt>
      <trkpt lat="42.69743" lon="0.66825">
        <ele>2079.5</ele>
        <time>2018-08-08T16:46:41.000Z</time>
      </trkpt>
      <trkpt lat="42.69743" lon="0.66825">
        <ele>2079.5</ele>
        <time>2018-08-08T16:46:42.000Z</time>
      </trkpt>
      <trkpt lat="42.69743" lon="0.66825">
        <ele>2079.5</ele>
        <time>2018-08-08T16:46:43.000Z</time>
      </trkpt>
      <trkpt lat="42.69743" lon="0.66825">
        <ele>2079.5</ele>
        <time>2018-08-08T16:46:44.000Z</time>
      </trkpt>
      <trkpt lat="42.69743" lon="0.66825">
        <ele>2079.5</ele>
        <time>2018-08-08T16:46:45.000Z</time>
      </trkpt>
      <trkpt lat="42.69743" lon="0.66825">
        <ele>2079.5</ele>
        <time>2018-08-08T16:46:46.000Z</time>
      </trkpt>
      <trkpt lat="42.69743" lon="0.66825">
        <ele>2079.5</ele>
        <time>2018-08-08T16:46:47.000Z</time>
      </trkpt>
      <trkpt lat="42.69743" lon="0.66825">
        <ele>2079.5</ele>
        <time>2018-08-08T16:46:48.000Z</time>
      </trkpt>
      <trkpt lat="42.69743" lon="0.66825">
        <ele>2079.5</ele>
        <time>2018-08-08T16:46:49.000Z</time>
      </trkpt>
      <trkpt lat="42.69743" lon="0.66825">
        <ele>2079.5</ele>
        <time>2018-08-08T16:46:50.000Z</time>
      </trkpt>
      <trkpt lat="42.69743" lon="0.66825">
        <ele>2079.5</ele>
        <time>2018-08-08T16:46:51.000Z</time>
      </trkpt>
      <trkpt lat="42.69743" lon="0.66825">
        <ele>2079.5</ele>
        <time>2018-08-08T16:46:52.000Z</time>
      </trkpt>
      <trkpt lat="42.69743" lon="0.66825">
        <ele>2079.5</ele>
        <time>2018-08-08T16:46:53.000Z</time>
      </trkpt>
      <trkpt lat="42.69743" lon="0.66825">
        <ele>2079.5</ele>
        <time>2018-08-08T16:46:54.000Z</time>
      </trkpt>
      <trkpt lat="42.69743" lon="0.66825">
        <ele>2079.5</ele>
        <time>2018-08-08T16:46:55.000Z</time>
      </trkpt>
      <trkpt lat="42.69743" lon="0.66825">
        <ele>2079.5</ele>
        <time>2018-08-08T16:46:56.000Z</time>
      </trkpt>
      <trkpt lat="42.69743" lon="0.66825">
        <ele>2079.5</ele>
        <time>2018-08-08T16:46:57.000Z</time>
      </trkpt>
      <trkpt lat="42.69743" lon="0.66825">
        <ele>2079.5</ele>
        <time>2018-08-08T16:46:58.000Z</time>
      </trkpt>
      <trkpt lat="42.69743" lon="0.66825">
        <ele>2079.5</ele>
        <time>2018-08-08T16:46:59.000Z</time>
      </trkpt>
      <trkpt lat="42.69743" lon="0.66825">
        <ele>2079.5</ele>
        <time>2018-08-08T16:47:00.000Z</time>
      </trkpt>
      <trkpt lat="42.69743" lon="0.66825">
        <ele>2079.5</ele>
        <time>2018-08-08T16:47:01.000Z</time>
      </trkpt>
      <trkpt lat="42.69743" lon="0.66825">
        <ele>2079.5</ele>
        <time>2018-08-08T16:47:02.000Z</time>
      </trkpt>
      <trkpt lat="42.69743" lon="0.66825">
        <ele>2079.5</ele>
        <time>2018-08-08T16:47:03.000Z</time>
      </trkpt>
      <trkpt lat="42.69743" lon="0.66825">
        <ele>2079.5</ele>
        <time>2018-08-08T16:47:04.000Z</time>
      </trkpt>
      <trkpt lat="42.69743" lon="0.66825">
        <ele>2079.5</ele>
        <time>2018-08-08T16:47:05.000Z</time>
      </trkpt>
      <trkpt lat="42.69743" lon="0.66825">
        <ele>2079.5</ele>
        <time>2018-08-08T16:47:06.000Z</time>
      </trkpt>
      <trkpt lat="42.69743" lon="0.66825">
        <ele>2079.5</ele>
        <time>2018-08-08T16:47:07.000Z</time>
      </trkpt>
      <trkpt lat="42.69743" lon="0.66825">
        <ele>2079.5</ele>
        <time>2018-08-08T16:47:08.000Z</time>
      </trkpt>
      <trkpt lat="42.69743" lon="0.66825">
        <ele>2079.5</ele>
        <time>2018-08-08T16:47:09.000Z</time>
      </trkpt>
      <trkpt lat="42.69743" lon="0.66825">
        <ele>2079.5</ele>
        <time>2018-08-08T16:47:10.000Z</time>
      </trkpt>
      <trkpt lat="42.69743" lon="0.66825">
        <ele>2079.5</ele>
        <time>2018-08-08T16:47:11.000Z</time>
      </trkpt>
      <trkpt lat="42.69743" lon="0.66825">
        <ele>2079.5</ele>
        <time>2018-08-08T16:47:12.000Z</time>
      </trkpt>
      <trkpt lat="42.69743" lon="0.66825">
        <ele>2079.5</ele>
        <time>2018-08-08T16:47:13.000Z</time>
      </trkpt>
      <trkpt lat="42.69743" lon="0.66825">
        <ele>2079.5</ele>
        <time>2018-08-08T16:47:14.000Z</time>
      </trkpt>
      <trkpt lat="42.69743" lon="0.66825">
        <ele>2079.5</ele>
        <time>2018-08-08T16:47:15.000Z</time>
      </trkpt>
      <trkpt lat="42.69743" lon="0.66825">
        <ele>2079.5</ele>
        <time>2018-08-08T16:47:16.000Z</time>
      </trkpt>
      <trkpt lat="42.69743" lon="0.66825">
        <ele>2079.5</ele>
        <time>2018-08-08T16:47:17.000Z</time>
      </trkpt>
      <trkpt lat="42.69743" lon="0.66825">
        <ele>2079.5</ele>
        <time>2018-08-08T16:47:18.000Z</time>
      </trkpt>
      <trkpt lat="42.69743" lon="0.66825">
        <ele>2079.5</ele>
        <time>2018-08-08T16:47:19.000Z</time>
      </trkpt>
      <trkpt lat="42.69743" lon="0.66825">
        <ele>2079.5</ele>
        <time>2018-08-08T16:47:20.000Z</time>
      </trkpt>
      <trkpt lat="42.69743" lon="0.66825">
        <ele>2079.5</ele>
        <time>2018-08-08T16:47:21.000Z</time>
      </trkpt>
      <trkpt lat="42.69743" lon="0.66825">
        <ele>2079.5</ele>
        <time>2018-08-08T16:47:22.000Z</time>
      </trkpt>
      <trkpt lat="42.69743" lon="0.66825">
        <ele>2079.5</ele>
        <time>2018-08-08T16:47:23.000Z</time>
      </trkpt>
      <trkpt lat="42.69743" lon="0.66825">
        <ele>2079.5</ele>
        <time>2018-08-08T16:47:24.000Z</time>
      </trkpt>
      <trkpt lat="42.69743" lon="0.66825">
        <ele>2079.5</ele>
        <time>2018-08-08T16:47:25.000Z</time>
      </trkpt>
      <trkpt lat="42.69743" lon="0.66825">
        <ele>2079.5</ele>
        <time>2018-08-08T16:47:26.000Z</time>
      </trkpt>
      <trkpt lat="42.69743" lon="0.66825">
        <ele>2079.5</ele>
        <time>2018-08-08T16:47:27.000Z</time>
      </trkpt>
      <trkpt lat="42.69743" lon="0.66825">
        <ele>2079.5</ele>
        <time>2018-08-08T16:47:28.000Z</time>
      </trkpt>
      <trkpt lat="42.69743" lon="0.66825">
        <ele>2079.5</ele>
        <time>2018-08-08T16:47:29.000Z</time>
      </trkpt>
      <trkpt lat="42.69743" lon="0.66825">
        <ele>2079.5</ele>
        <time>2018-08-08T16:47:30.000Z</time>
      </trkpt>
      <trkpt lat="42.69743" lon="0.66825">
        <ele>2079.5</ele>
        <time>2018-08-08T16:47:31.000Z</time>
      </trkpt>
      <trkpt lat="42.69743" lon="0.66825">
        <ele>2079.5</ele>
        <time>2018-08-08T16:47:32.000Z</time>
      </trkpt>
      <trkpt lat="42.69743" lon="0.66825">
        <ele>2079.5</ele>
        <time>2018-08-08T16:47:33.000Z</time>
      </trkpt>
      <trkpt lat="42.69743" lon="0.66825">
        <ele>2079.5</ele>
        <time>2018-08-08T16:47:34.000Z</time>
      </trkpt>
      <trkpt lat="42.69743" lon="0.66825">
        <ele>2079.5</ele>
        <time>2018-08-08T16:47:35.000Z</time>
      </trkpt>
      <trkpt lat="42.69743" lon="0.66825">
        <ele>2079.5</ele>
        <time>2018-08-08T16:47:36.000Z</time>
      </trkpt>
      <trkpt lat="42.69743" lon="0.66825">
        <ele>2079.5</ele>
        <time>2018-08-08T16:47:37.000Z</time>
      </trkpt>
      <trkpt lat="42.69743" lon="0.66825">
        <ele>2079.5</ele>
        <time>2018-08-08T16:47:38.000Z</time>
      </trkpt>
      <trkpt lat="42.69743" lon="0.66825">
        <ele>2079.5</ele>
        <time>2018-08-08T16:47:39.000Z</time>
      </trkpt>
      <trkpt lat="42.69743" lon="0.66825">
        <ele>2079.5</ele>
        <time>2018-08-08T16:47:40.000Z</time>
      </trkpt>
      <trkpt lat="42.69743" lon="0.66825">
        <ele>2079.5</ele>
        <time>2018-08-08T16:47:41.000Z</time>
      </trkpt>
      <trkpt lat="42.69743" lon="0.66825">
        <ele>2079.5</ele>
        <time>2018-08-08T16:47:42.000Z</time>
      </trkpt>
      <trkpt lat="42.69743" lon="0.66825">
        <ele>2079.5</ele>
        <time>2018-08-08T16:47:43.000Z</time>
      </trkpt>
      <trkpt lat="42.69743" lon="0.66825">
        <ele>2079.5</ele>
        <time>2018-08-08T16:47:44.000Z</time>
      </trkpt>
      <trkpt lat="42.69743" lon="0.66825">
        <ele>2079.5</ele>
        <time>2018-08-08T16:47:45.000Z</time>
      </trkpt>
      <trkpt lat="42.69743" lon="0.66825">
        <ele>2079.5</ele>
        <time>2018-08-08T16:47:46.000Z</time>
      </trkpt>
      <trkpt lat="42.69743" lon="0.66825">
        <ele>2079.5</ele>
        <time>2018-08-08T16:47:47.000Z</time>
      </trkpt>
      <trkpt lat="42.69743" lon="0.66825">
        <ele>2079.5</ele>
        <time>2018-08-08T16:47:48.000Z</time>
      </trkpt>
      <trkpt lat="42.69743" lon="0.66825">
        <ele>2079.5</ele>
        <time>2018-08-08T16:47:49.000Z</time>
      </trkpt>
      <trkpt lat="42.69743" lon="0.66825">
        <ele>2079.5</ele>
        <time>2018-08-08T16:47:50.000Z</time>
      </trkpt>
      <trkpt lat="42.69743" lon="0.66825">
        <ele>2079.5</ele>
        <time>2018-08-08T16:47:51.000Z</time>
      </trkpt>
      <trkpt lat="42.69743" lon="0.66825">
        <ele>2079.5</ele>
        <time>2018-08-08T16:47:52.000Z</time>
      </trkpt>
      <trkpt lat="42.69743" lon="0.66825">
        <ele>2079.5</ele>
        <time>2018-08-08T16:47:53.000Z</time>
      </trkpt>
      <trkpt lat="42.69743" lon="0.66825">
        <ele>2079.5</ele>
        <time>2018-08-08T16:47:54.000Z</time>
      </trkpt>
      <trkpt lat="42.69743" lon="0.66825">
        <ele>2079.5</ele>
        <time>2018-08-08T16:47:55.000Z</time>
      </trkpt>
      <trkpt lat="42.69743" lon="0.66825">
        <ele>2079.5</ele>
        <time>2018-08-08T16:47:56.000Z</time>
      </trkpt>
      <trkpt lat="42.69743" lon="0.66825">
        <ele>2079.5</ele>
        <time>2018-08-08T16:47:57.000Z</time>
      </trkpt>
      <trkpt lat="42.69743" lon="0.66825">
        <ele>2079.5</ele>
        <time>2018-08-08T16:47:58.000Z</time>
      </trkpt>
      <trkpt lat="42.69743" lon="0.66825">
        <ele>2079.5</ele>
        <time>2018-08-08T16:47:59.000Z</time>
      </trkpt>
      <trkpt lat="42.69743" lon="0.66825">
        <ele>2079.5</ele>
        <time>2018-08-08T16:48:00.000Z</time>
      </trkpt>
      <trkpt lat="42.69743" lon="0.66825">
        <ele>2079.5</ele>
        <time>2018-08-08T16:48:01.000Z</time>
      </trkpt>
      <trkpt lat="42.69743" lon="0.66825">
        <ele>2079.5</ele>
        <time>2018-08-08T16:48:02.000Z</time>
      </trkpt>
      <trkpt lat="42.69743" lon="0.66825">
        <ele>2079.5</ele>
        <time>2018-08-08T16:48:03.000Z</time>
      </trkpt>
      <trkpt lat="42.69743" lon="0.66825">
        <ele>2079.5</ele>
        <time>2018-08-08T16:48:04.000Z</time>
      </trkpt>
      <trkpt lat="42.69743" lon="0.66825">
        <ele>2079.5</ele>
        <time>2018-08-08T16:48:05.000Z</time>
      </trkpt>
      <trkpt lat="42.69743" lon="0.66825">
        <ele>2079.5</ele>
        <time>2018-08-08T16:48:06.000Z</time>
      </trkpt>
      <trkpt lat="42.69743" lon="0.66825">
        <ele>2079.5</ele>
        <time>2018-08-08T16:48:07.000Z</time>
      </trkpt>
      <trkpt lat="42.69743" lon="0.66825">
        <ele>2079.5</ele>
        <time>2018-08-08T16:48:08.000Z</time>
      </trkpt>
      <trkpt lat="42.69743" lon="0.66825">
        <ele>2079.5</ele>
        <time>2018-08-08T16:48:09.000Z</time>
      </trkpt>
      <trkpt lat="42.69743" lon="0.66825">
        <ele>2079.5</ele>
        <time>2018-08-08T16:48:10.000Z</time>
      </trkpt>
      <trkpt lat="42.69743" lon="0.66825">
        <ele>2079.5</ele>
        <time>2018-08-08T16:48:11.000Z</time>
      </trkpt>
      <trkpt lat="42.69743" lon="0.66825">
        <ele>2079.5</ele>
        <time>2018-08-08T16:48:12.000Z</time>
      </trkpt>
      <trkpt lat="42.69743" lon="0.66825">
        <ele>2079.5</ele>
        <time>2018-08-08T16:48:13.000Z</time>
      </trkpt>
      <trkpt lat="42.69743" lon="0.66825">
        <ele>2079.5</ele>
        <time>2018-08-08T16:48:14.000Z</time>
      </trkpt>
      <trkpt lat="42.69743" lon="0.66825">
        <ele>2079.5</ele>
        <time>2018-08-08T16:48:15.000Z</time>
      </trkpt>
      <trkpt lat="42.69743" lon="0.66825">
        <ele>2079.5</ele>
        <time>2018-08-08T16:48:16.000Z</time>
      </trkpt>
      <trkpt lat="42.69743" lon="0.66825">
        <ele>2079.5</ele>
        <time>2018-08-08T16:48:17.000Z</time>
      </trkpt>
      <trkpt lat="42.69743" lon="0.66825">
        <ele>2079.5</ele>
        <time>2018-08-08T16:48:18.000Z</time>
      </trkpt>
      <trkpt lat="42.69743" lon="0.66825">
        <ele>2079.5</ele>
        <time>2018-08-08T16:48:19.000Z</time>
      </trkpt>
      <trkpt lat="42.69743" lon="0.66825">
        <ele>2079.5</ele>
        <time>2018-08-08T16:48:20.000Z</time>
      </trkpt>
      <trkpt lat="42.69743" lon="0.66825">
        <ele>2079.5</ele>
        <time>2018-08-08T16:48:21.000Z</time>
      </trkpt>
      <trkpt lat="42.69743" lon="0.66825">
        <ele>2079.5</ele>
        <time>2018-08-08T16:48:22.000Z</time>
      </trkpt>
      <trkpt lat="42.69743" lon="0.66825">
        <ele>2079.5</ele>
        <time>2018-08-08T16:48:23.000Z</time>
      </trkpt>
      <trkpt lat="42.69743" lon="0.66825">
        <ele>2079.5</ele>
        <time>2018-08-08T16:48:24.000Z</time>
      </trkpt>
      <trkpt lat="42.69743" lon="0.66825">
        <ele>2079.5</ele>
        <time>2018-08-08T16:48:25.000Z</time>
      </trkpt>
      <trkpt lat="42.69743" lon="0.66825">
        <ele>2079.5</ele>
        <time>2018-08-08T16:48:26.000Z</time>
      </trkpt>
      <trkpt lat="42.69743" lon="0.66825">
        <ele>2079.5</ele>
        <time>2018-08-08T16:48:27.000Z</time>
      </trkpt>
      <trkpt lat="42.69743" lon="0.66825">
        <ele>2079.5</ele>
        <time>2018-08-08T16:48:28.000Z</time>
      </trkpt>
      <trkpt lat="42.69743" lon="0.66825">
        <ele>2079.5</ele>
        <time>2018-08-08T16:48:29.000Z</time>
      </trkpt>
      <trkpt lat="42.69743" lon="0.66825">
        <ele>2079.5</ele>
        <time>2018-08-08T16:48:30.000Z</time>
      </trkpt>
      <trkpt lat="42.69743" lon="0.66825">
        <ele>2079.5</ele>
        <time>2018-08-08T16:48:31.000Z</time>
      </trkpt>
      <trkpt lat="42.69743" lon="0.66825">
        <ele>2079.5</ele>
        <time>2018-08-08T16:48:32.000Z</time>
      </trkpt>
      <trkpt lat="42.69743" lon="0.66825">
        <ele>2079.5</ele>
        <time>2018-08-08T16:48:33.000Z</time>
      </trkpt>
      <trkpt lat="42.69743" lon="0.66825">
        <ele>2079.5</ele>
        <time>2018-08-08T16:48:34.000Z</time>
      </trkpt>
      <trkpt lat="42.69743" lon="0.66825">
        <ele>2079.5</ele>
        <time>2018-08-08T16:48:35.000Z</time>
      </trkpt>
      <trkpt lat="42.69743" lon="0.66825">
        <ele>2079.5</ele>
        <time>2018-08-08T16:48:36.000Z</time>
      </trkpt>
      <trkpt lat="42.69743" lon="0.66825">
        <ele>2079.5</ele>
        <time>2018-08-08T16:48:37.000Z</time>
      </trkpt>
      <trkpt lat="42.69743" lon="0.66825">
        <ele>2079.5</ele>
        <time>2018-08-08T16:48:38.000Z</time>
      </trkpt>
      <trkpt lat="42.69743" lon="0.66825">
        <ele>2079.5</ele>
        <time>2018-08-08T16:48:39.000Z</time>
      </trkpt>
      <trkpt lat="42.69743" lon="0.66825">
        <ele>2079.5</ele>
        <time>2018-08-08T16:48:40.000Z</time>
      </trkpt>
      <trkpt lat="42.69743" lon="0.66825">
        <ele>2079.5</ele>
        <time>2018-08-08T16:48:41.000Z</time>
      </trkpt>
      <trkpt lat="42.69743" lon="0.66825">
        <ele>2079.5</ele>
        <time>2018-08-08T16:48:42.000Z</time>
      </trkpt>
      <trkpt lat="42.69743" lon="0.66825">
        <ele>2079.5</ele>
        <time>2018-08-08T16:48:43.000Z</time>
      </trkpt>
      <trkpt lat="42.69743" lon="0.66825">
        <ele>2079.5</ele>
        <time>2018-08-08T16:48:44.000Z</time>
      </trkpt>
      <trkpt lat="42.69743" lon="0.66825">
        <ele>2079.5</ele>
        <time>2018-08-08T16:48:45.000Z</time>
      </trkpt>
      <trkpt lat="42.69743" lon="0.66825">
        <ele>2079.5</ele>
        <time>2018-08-08T16:48:46.000Z</time>
      </trkpt>
      <trkpt lat="42.69743" lon="0.66825">
        <ele>2079.5</ele>
        <time>2018-08-08T16:48:47.000Z</time>
      </trkpt>
      <trkpt lat="42.69743" lon="0.66825">
        <ele>2079.5</ele>
        <time>2018-08-08T16:48:48.000Z</time>
      </trkpt>
      <trkpt lat="42.69743" lon="0.66825">
        <ele>2079.5</ele>
        <time>2018-08-08T16:48:49.000Z</time>
      </trkpt>
      <trkpt lat="42.69743" lon="0.66825">
        <ele>2079.5</ele>
        <time>2018-08-08T16:48:50.000Z</time>
      </trkpt>
      <trkpt lat="42.69743" lon="0.66825">
        <ele>2079.5</ele>
        <time>2018-08-08T16:48:51.000Z</time>
      </trkpt>
      <trkpt lat="42.69743" lon="0.66825">
        <ele>2079.5</ele>
        <time>2018-08-08T16:48:52.000Z</time>
      </trkpt>
      <trkpt lat="42.69743" lon="0.66825">
        <ele>2079.5</ele>
        <time>2018-08-08T16:48:53.000Z</time>
      </trkpt>
      <trkpt lat="42.69743" lon="0.66825">
        <ele>2079.5</ele>
        <time>2018-08-08T16:48:54.000Z</time>
      </trkpt>
      <trkpt lat="42.69743" lon="0.66825">
        <ele>2079.5</ele>
        <time>2018-08-08T16:48:55.000Z</time>
      </trkpt>
      <trkpt lat="42.69743" lon="0.66825">
        <ele>2079.5</ele>
        <time>2018-08-08T16:48:56.000Z</time>
      </trkpt>
      <trkpt lat="42.69743" lon="0.66825">
        <ele>2079.5</ele>
        <time>2018-08-08T16:48:57.000Z</time>
      </trkpt>
      <trkpt lat="42.69743" lon="0.66825">
        <ele>2079.5</ele>
        <time>2018-08-08T16:48:58.000Z</time>
      </trkpt>
      <trkpt lat="42.69743" lon="0.66825">
        <ele>2079.5</ele>
        <time>2018-08-08T16:48:59.000Z</time>
      </trkpt>
      <trkpt lat="42.69743" lon="0.66825">
        <ele>2079.5</ele>
        <time>2018-08-08T16:49:00.000Z</time>
      </trkpt>
      <trkpt lat="42.69743" lon="0.66825">
        <ele>2079.5</ele>
        <time>2018-08-08T16:49:01.000Z</time>
      </trkpt>
      <trkpt lat="42.69743" lon="0.66825">
        <ele>2079.5</ele>
        <time>2018-08-08T16:49:02.000Z</time>
      </trkpt>
      <trkpt lat="42.69743" lon="0.66825">
        <ele>2079.5</ele>
        <time>2018-08-08T16:49:03.000Z</time>
      </trkpt>
      <trkpt lat="42.69743" lon="0.66825">
        <ele>2079.5</ele>
        <time>2018-08-08T16:49:04.000Z</time>
      </trkpt>
      <trkpt lat="42.69743" lon="0.66825">
        <ele>2079.5</ele>
        <time>2018-08-08T16:49:05.000Z</time>
      </trkpt>
      <trkpt lat="42.69743" lon="0.66825">
        <ele>2079.5</ele>
        <time>2018-08-08T16:49:06.000Z</time>
      </trkpt>
      <trkpt lat="42.69743" lon="0.66825">
        <ele>2079.5</ele>
        <time>2018-08-08T16:49:07.000Z</time>
      </trkpt>
      <trkpt lat="42.69743" lon="0.66825">
        <ele>2079.5</ele>
        <time>2018-08-08T16:49:08.000Z</time>
      </trkpt>
      <trkpt lat="42.69743" lon="0.66825">
        <ele>2079.5</ele>
        <time>2018-08-08T16:49:09.000Z</time>
      </trkpt>
      <trkpt lat="42.69743" lon="0.66825">
        <ele>2079.5</ele>
        <time>2018-08-08T16:49:10.000Z</time>
      </trkpt>
      <trkpt lat="42.69743" lon="0.66825">
        <ele>2079.5</ele>
        <time>2018-08-08T16:49:11.000Z</time>
      </trkpt>
      <trkpt lat="42.69743" lon="0.66825">
        <ele>2079.5</ele>
        <time>2018-08-08T16:49:12.000Z</time>
      </trkpt>
      <trkpt lat="42.69743" lon="0.66825">
        <ele>2079.5</ele>
        <time>2018-08-08T16:49:13.000Z</time>
      </trkpt>
      <trkpt lat="42.69743" lon="0.66825">
        <ele>2079.5</ele>
        <time>2018-08-08T16:49:14.000Z</time>
      </trkpt>
      <trkpt lat="42.69743" lon="0.66825">
        <ele>2079.5</ele>
        <time>2018-08-08T16:49:15.000Z</time>
      </trkpt>
      <trkpt lat="42.69743" lon="0.66825">
        <ele>2079.5</ele>
        <time>2018-08-08T16:49:16.000Z</time>
      </trkpt>
      <trkpt lat="42.69743" lon="0.66825">
        <ele>2079.5</ele>
        <time>2018-08-08T16:49:17.000Z</time>
      </trkpt>
      <trkpt lat="42.69743" lon="0.66825">
        <ele>2079.5</ele>
        <time>2018-08-08T16:49:18.000Z</time>
      </trkpt>
      <trkpt lat="42.69743" lon="0.66825">
        <ele>2079.5</ele>
        <time>2018-08-08T16:49:19.000Z</time>
      </trkpt>
      <trkpt lat="42.69743" lon="0.66825">
        <ele>2079.5</ele>
        <time>2018-08-08T16:49:20.000Z</time>
      </trkpt>
      <trkpt lat="42.69743" lon="0.66825">
        <ele>2079.5</ele>
        <time>2018-08-08T16:49:21.000Z</time>
      </trkpt>
      <trkpt lat="42.69743" lon="0.66825">
        <ele>2079.5</ele>
        <time>2018-08-08T16:49:22.000Z</time>
      </trkpt>
      <trkpt lat="42.69743" lon="0.66825">
        <ele>2079.5</ele>
        <time>2018-08-08T16:49:23.000Z</time>
      </trkpt>
      <trkpt lat="42.69743" lon="0.66825">
        <ele>2079.5</ele>
        <time>2018-08-08T16:49:24.000Z</time>
      </trkpt>
      <trkpt lat="42.69743" lon="0.66825">
        <ele>2079.5</ele>
        <time>2018-08-08T16:49:25.000Z</time>
      </trkpt>
      <trkpt lat="42.69743" lon="0.66825">
        <ele>2079.5</ele>
        <time>2018-08-08T16:49:26.000Z</time>
      </trkpt>
      <trkpt lat="42.69743" lon="0.66825">
        <ele>2079.5</ele>
        <time>2018-08-08T16:49:27.000Z</time>
      </trkpt>
      <trkpt lat="42.69743" lon="0.66825">
        <ele>2079.5</ele>
        <time>2018-08-08T16:49:28.000Z</time>
      </trkpt>
      <trkpt lat="42.69743" lon="0.66825">
        <ele>2079.5</ele>
        <time>2018-08-08T16:49:29.000Z</time>
      </trkpt>
      <trkpt lat="42.69743" lon="0.66825">
        <ele>2079.5</ele>
        <time>2018-08-08T16:49:30.000Z</time>
      </trkpt>
      <trkpt lat="42.69743" lon="0.66825">
        <ele>2079.5</ele>
        <time>2018-08-08T16:49:31.000Z</time>
      </trkpt>
      <trkpt lat="42.69743" lon="0.66825">
        <ele>2079.5</ele>
        <time>2018-08-08T16:49:32.000Z</time>
      </trkpt>
      <trkpt lat="42.69743" lon="0.66825">
        <ele>2079.5</ele>
        <time>2018-08-08T16:49:33.000Z</time>
      </trkpt>
      <trkpt lat="42.69743" lon="0.66825">
        <ele>2079.5</ele>
        <time>2018-08-08T16:49:34.000Z</time>
      </trkpt>
      <trkpt lat="42.69743" lon="0.66825">
        <ele>2079.5</ele>
        <time>2018-08-08T16:49:35.000Z</time>
      </trkpt>
      <trkpt lat="42.69743" lon="0.66825">
        <ele>2079.5</ele>
        <time>2018-08-08T16:49:36.000Z</time>
      </trkpt>
      <trkpt lat="42.69743" lon="0.66825">
        <ele>2079.5</ele>
        <time>2018-08-08T16:49:37.000Z</time>
      </trkpt>
      <trkpt lat="42.69743" lon="0.66825">
        <ele>2079.5</ele>
        <time>2018-08-08T16:49:38.000Z</time>
      </trkpt>
      <trkpt lat="42.69743" lon="0.66825">
        <ele>2079.5</ele>
        <time>2018-08-08T16:49:39.000Z</time>
      </trkpt>
      <trkpt lat="42.69743" lon="0.66825">
        <ele>2079.5</ele>
        <time>2018-08-08T16:49:40.000Z</time>
      </trkpt>
      <trkpt lat="42.69743" lon="0.66825">
        <ele>2079.5</ele>
        <time>2018-08-08T16:49:41.000Z</time>
      </trkpt>
      <trkpt lat="42.69743" lon="0.66825">
        <ele>2079.5</ele>
        <time>2018-08-08T16:49:42.000Z</time>
      </trkpt>
      <trkpt lat="42.69743" lon="0.66825">
        <ele>2079.5</ele>
        <time>2018-08-08T16:49:43.000Z</time>
      </trkpt>
      <trkpt lat="42.69743" lon="0.66825">
        <ele>2079.5</ele>
        <time>2018-08-08T16:49:44.000Z</time>
      </trkpt>
      <trkpt lat="42.69743" lon="0.66825">
        <ele>2079.5</ele>
        <time>2018-08-08T16:49:45.000Z</time>
      </trkpt>
      <trkpt lat="42.69743" lon="0.66825">
        <ele>2079.5</ele>
        <time>2018-08-08T16:49:46.000Z</time>
      </trkpt>
      <trkpt lat="42.69743" lon="0.66825">
        <ele>2079.5</ele>
        <time>2018-08-08T16:49:47.000Z</time>
      </trkpt>
      <trkpt lat="42.69743" lon="0.66825">
        <ele>2079.5</ele>
        <time>2018-08-08T16:49:48.000Z</time>
      </trkpt>
      <trkpt lat="42.69743" lon="0.66825">
        <ele>2079.5</ele>
        <time>2018-08-08T16:49:49.000Z</time>
      </trkpt>
      <trkpt lat="42.69743" lon="0.66825">
        <ele>2079.5</ele>
        <time>2018-08-08T16:49:50.000Z</time>
      </trkpt>
      <trkpt lat="42.69743" lon="0.66825">
        <ele>2079.5</ele>
        <time>2018-08-08T16:49:51.000Z</time>
      </trkpt>
      <trkpt lat="42.69743" lon="0.66825">
        <ele>2079.5</ele>
        <time>2018-08-08T16:49:52.000Z</time>
      </trkpt>
      <trkpt lat="42.69743" lon="0.66825">
        <ele>2079.5</ele>
        <time>2018-08-08T16:49:53.000Z</time>
      </trkpt>
      <trkpt lat="42.69743" lon="0.66825">
        <ele>2079.5</ele>
        <time>2018-08-08T16:49:54.000Z</time>
      </trkpt>
      <trkpt lat="42.69743" lon="0.66825">
        <ele>2079.5</ele>
        <time>2018-08-08T16:49:55.000Z</time>
      </trkpt>
      <trkpt lat="42.69743" lon="0.66825">
        <ele>2079.5</ele>
        <time>2018-08-08T16:49:56.000Z</time>
      </trkpt>
      <trkpt lat="42.69743" lon="0.66825">
        <ele>2079.5</ele>
        <time>2018-08-08T16:49:57.000Z</time>
      </trkpt>
      <trkpt lat="42.69743" lon="0.66825">
        <ele>2079.5</ele>
        <time>2018-08-08T16:49:58.000Z</time>
      </trkpt>
      <trkpt lat="42.69743" lon="0.66825">
        <ele>2079.5</ele>
        <time>2018-08-08T16:49:59.000Z</time>
      </trkpt>
      <trkpt lat="42.69743" lon="0.66825">
        <ele>2079.5</ele>
        <time>2018-08-08T16:50:00.000Z</time>
      </trkpt>
      <trkpt lat="42.69743" lon="0.66825">
        <ele>2079.5</ele>
        <time>2018-08-08T16:50:01.000Z</time>
      </trkpt>
      <trkpt lat="42.69743" lon="0.66825">
        <ele>2079.5</ele>
        <time>2018-08-08T16:50:02.000Z</time>
      </trkpt>
      <trkpt lat="42.69743" lon="0.66825">
        <ele>2079.5</ele>
        <time>2018-08-08T16:50:03.000Z</time>
      </trkpt>
      <trkpt lat="42.69743" lon="0.66825">
        <ele>2079.5</ele>
        <time>2018-08-08T16:50:04.000Z</time>
      </trkpt>
      <trkpt lat="42.69743" lon="0.66825">
        <ele>2079.5</ele>
        <time>2018-08-08T16:50:05.000Z</time>
      </trkpt>
      <trkpt lat="42.69743" lon="0.66825">
        <ele>2079.5</ele>
        <time>2018-08-08T16:50:06.000Z</time>
      </trkpt>
      <trkpt lat="42.69743" lon="0.66825">
        <ele>2079.5</ele>
        <time>2018-08-08T16:50:07.000Z</time>
      </trkpt>
      <trkpt lat="42.69743" lon="0.66825">
        <ele>2079.5</ele>
        <time>2018-08-08T16:50:08.000Z</time>
      </trkpt>
      <trkpt lat="42.69743" lon="0.66825">
        <ele>2079.5</ele>
        <time>2018-08-08T16:50:09.000Z</time>
      </trkpt>
      <trkpt lat="42.69743" lon="0.66825">
        <ele>2079.5</ele>
        <time>2018-08-08T16:50:10.000Z</time>
      </trkpt>
      <trkpt lat="42.69743" lon="0.66825">
        <ele>2079.5</ele>
        <time>2018-08-08T16:50:11.000Z</time>
      </trkpt>
      <trkpt lat="42.69743" lon="0.66825">
        <ele>2079.5</ele>
        <time>2018-08-08T16:50:12.000Z</time>
      </trkpt>
      <trkpt lat="42.69743" lon="0.66825">
        <ele>2079.5</ele>
        <time>2018-08-08T16:50:13.000Z</time>
      </trkpt>
      <trkpt lat="42.69743" lon="0.66825">
        <ele>2079.5</ele>
        <time>2018-08-08T16:50:14.000Z</time>
      </trkpt>
      <trkpt lat="42.69743" lon="0.66825">
        <ele>2079.5</ele>
        <time>2018-08-08T16:50:15.000Z</time>
      </trkpt>
      <trkpt lat="42.69743" lon="0.66825">
        <ele>2079.5</ele>
        <time>2018-08-08T16:50:16.000Z</time>
      </trkpt>
      <trkpt lat="42.69743" lon="0.66825">
        <ele>2079.5</ele>
        <time>2018-08-08T16:50:17.000Z</time>
      </trkpt>
      <trkpt lat="42.69743" lon="0.66825">
        <ele>2079.5</ele>
        <time>2018-08-08T16:50:18.000Z</time>
      </trkpt>
      <trkpt lat="42.69743" lon="0.66825">
        <ele>2079.5</ele>
        <time>2018-08-08T16:50:19.000Z</time>
      </trkpt>
      <trkpt lat="42.69743" lon="0.66825">
        <ele>2079.5</ele>
        <time>2018-08-08T16:50:20.000Z</time>
      </trkpt>
      <trkpt lat="42.69743" lon="0.66825">
        <ele>2079.5</ele>
        <time>2018-08-08T16:50:21.000Z</time>
      </trkpt>
      <trkpt lat="42.69743" lon="0.66825">
        <ele>2079.5</ele>
        <time>2018-08-08T16:50:22.000Z</time>
      </trkpt>
      <trkpt lat="42.69743" lon="0.66825">
        <ele>2079.5</ele>
        <time>2018-08-08T16:50:23.000Z</time>
      </trkpt>
      <trkpt lat="42.69743" lon="0.66825">
        <ele>2079.5</ele>
        <time>2018-08-08T16:50:24.000Z</time>
      </trkpt>
      <trkpt lat="42.69743" lon="0.66825">
        <ele>2079.5</ele>
        <time>2018-08-08T16:50:25.000Z</time>
      </trkpt>
      <trkpt lat="42.69743" lon="0.66825">
        <ele>2079.5</ele>
        <time>2018-08-08T16:50:26.000Z</time>
      </trkpt>
      <trkpt lat="42.69743" lon="0.66825">
        <ele>2079.5</ele>
        <time>2018-08-08T16:50:27.000Z</time>
      </trkpt>
      <trkpt lat="42.69743" lon="0.66825">
        <ele>2079.5</ele>
        <time>2018-08-08T16:50:28.000Z</time>
      </trkpt>
      <trkpt lat="42.69743" lon="0.66825">
        <ele>2079.5</ele>
        <time>2018-08-08T16:50:29.000Z</time>
      </trkpt>
      <trkpt lat="42.69743" lon="0.66825">
        <ele>2079.5</ele>
        <time>2018-08-08T16:50:30.000Z</time>
      </trkpt>
      <trkpt lat="42.69743" lon="0.66825">
        <ele>2079.5</ele>
        <time>2018-08-08T16:50:31.000Z</time>
      </trkpt>
      <trkpt lat="42.69743" lon="0.66825">
        <ele>2079.5</ele>
        <time>2018-08-08T16:50:32.000Z</time>
      </trkpt>
      <trkpt lat="42.69743" lon="0.66825">
        <ele>2079.5</ele>
        <time>2018-08-08T16:50:33.000Z</time>
      </trkpt>
      <trkpt lat="42.69743" lon="0.66825">
        <ele>2079.5</ele>
        <time>2018-08-08T16:50:34.000Z</time>
      </trkpt>
      <trkpt lat="42.69743" lon="0.66825">
        <ele>2079.5</ele>
        <time>2018-08-08T16:50:35.000Z</time>
      </trkpt>
      <trkpt lat="42.69743" lon="0.66825">
        <ele>2079.5</ele>
        <time>2018-08-08T16:50:36.000Z</time>
      </trkpt>
      <trkpt lat="42.69743" lon="0.66825">
        <ele>2079.5</ele>
        <time>2018-08-08T16:50:37.000Z</time>
      </trkpt>
      <trkpt lat="42.69743" lon="0.66825">
        <ele>2079.5</ele>
        <time>2018-08-08T16:50:38.000Z</time>
      </trkpt>
      <trkpt lat="42.69743" lon="0.66825">
        <ele>2079.5</ele>
        <time>2018-08-08T16:50:39.000Z</time>
      </trkpt>
      <trkpt lat="42.69743" lon="0.66825">
        <ele>2079.5</ele>
        <time>2018-08-08T16:50:40.000Z</time>
      </trkpt>
      <trkpt lat="42.69743" lon="0.66825">
        <ele>2079.5</ele>
        <time>2018-08-08T16:50:41.000Z</time>
      </trkpt>
      <trkpt lat="42.69743" lon="0.66825">
        <ele>2079.5</ele>
        <time>2018-08-08T16:50:42.000Z</time>
      </trkpt>
      <trkpt lat="42.69743" lon="0.66825">
        <ele>2079.5</ele>
        <time>2018-08-08T16:50:43.000Z</time>
      </trkpt>
      <trkpt lat="42.69743" lon="0.66825">
        <ele>2079.5</ele>
        <time>2018-08-08T16:50:44.000Z</time>
      </trkpt>
      <trkpt lat="42.69743" lon="0.66825">
        <ele>2079.5</ele>
        <time>2018-08-08T16:50:45.000Z</time>
      </trkpt>
      <trkpt lat="42.69743" lon="0.66825">
        <ele>2079.5</ele>
        <time>2018-08-08T16:50:46.000Z</time>
      </trkpt>
      <trkpt lat="42.69743" lon="0.66825">
        <ele>2079.5</ele>
        <time>2018-08-08T16:50:47.000Z</time>
      </trkpt>
      <trkpt lat="42.69743" lon="0.66825">
        <ele>2079.5</ele>
        <time>2018-08-08T16:50:48.000Z</time>
      </trkpt>
      <trkpt lat="42.69743" lon="0.66825">
        <ele>2079.5</ele>
        <time>2018-08-08T16:50:49.000Z</time>
      </trkpt>
      <trkpt lat="42.69743" lon="0.66825">
        <ele>2079.5</ele>
        <time>2018-08-08T16:50:50.000Z</time>
      </trkpt>
      <trkpt lat="42.69743" lon="0.66825">
        <ele>2079.5</ele>
        <time>2018-08-08T16:50:51.000Z</time>
      </trkpt>
      <trkpt lat="42.69743" lon="0.66825">
        <ele>2079.5</ele>
        <time>2018-08-08T16:50:52.000Z</time>
      </trkpt>
      <trkpt lat="42.69743" lon="0.66825">
        <ele>2079.5</ele>
        <time>2018-08-08T16:50:53.000Z</time>
      </trkpt>
      <trkpt lat="42.69743" lon="0.66825">
        <ele>2079.5</ele>
        <time>2018-08-08T16:50:54.000Z</time>
      </trkpt>
      <trkpt lat="42.69743" lon="0.66825">
        <ele>2079.5</ele>
        <time>2018-08-08T16:50:55.000Z</time>
      </trkpt>
      <trkpt lat="42.69743" lon="0.66825">
        <ele>2079.5</ele>
        <time>2018-08-08T16:50:56.000Z</time>
      </trkpt>
      <trkpt lat="42.69743" lon="0.66825">
        <ele>2079.5</ele>
        <time>2018-08-08T16:50:57.000Z</time>
      </trkpt>
      <trkpt lat="42.69743" lon="0.66825">
        <ele>2079.5</ele>
        <time>2018-08-08T16:50:58.000Z</time>
      </trkpt>
      <trkpt lat="42.69743" lon="0.66825">
        <ele>2079.5</ele>
        <time>2018-08-08T16:50:59.000Z</time>
      </trkpt>
      <trkpt lat="42.69743" lon="0.66825">
        <ele>2079.5</ele>
        <time>2018-08-08T16:51:00.000Z</time>
      </trkpt>
      <trkpt lat="42.69743" lon="0.66825">
        <ele>2079.5</ele>
        <time>2018-08-08T16:51:01.000Z</time>
      </trkpt>
      <trkpt lat="42.69743" lon="0.66825">
        <ele>2079.5</ele>
        <time>2018-08-08T16:51:02.000Z</time>
      </trkpt>
      <trkpt lat="42.69743" lon="0.66825">
        <ele>2079.5</ele>
        <time>2018-08-08T16:51:03.000Z</time>
      </trkpt>
      <trkpt lat="42.69743" lon="0.66825">
        <ele>2079.5</ele>
        <time>2018-08-08T16:51:04.000Z</time>
      </trkpt>
      <trkpt lat="42.69743" lon="0.66825">
        <ele>2079.5</ele>
        <time>2018-08-08T16:51:05.000Z</time>
      </trkpt>
      <trkpt lat="42.69743" lon="0.66825">
        <ele>2079.5</ele>
        <time>2018-08-08T16:51:06.000Z</time>
      </trkpt>
      <trkpt lat="42.69743" lon="0.66825">
        <ele>2079.5</ele>
        <time>2018-08-08T16:51:07.000Z</time>
      </trkpt>
      <trkpt lat="42.69743" lon="0.66825">
        <ele>2079.5</ele>
        <time>2018-08-08T16:51:08.000Z</time>
      </trkpt>
      <trkpt lat="42.69743" lon="0.66825">
        <ele>2079.5</ele>
        <time>2018-08-08T16:51:09.000Z</time>
      </trkpt>
      <trkpt lat="42.69743" lon="0.66825">
        <ele>2079.5</ele>
        <time>2018-08-08T16:51:10.000Z</time>
      </trkpt>
      <trkpt lat="42.69743" lon="0.66825">
        <ele>2079.5</ele>
        <time>2018-08-08T16:51:11.000Z</time>
      </trkpt>
      <trkpt lat="42.69743" lon="0.66825">
        <ele>2079.5</ele>
        <time>2018-08-08T16:51:12.000Z</time>
      </trkpt>
      <trkpt lat="42.69743" lon="0.66825">
        <ele>2079.5</ele>
        <time>2018-08-08T16:51:13.000Z</time>
      </trkpt>
      <trkpt lat="42.69743" lon="0.66825">
        <ele>2079.5</ele>
        <time>2018-08-08T16:51:14.000Z</time>
      </trkpt>
      <trkpt lat="42.69743" lon="0.66825">
        <ele>2079.5</ele>
        <time>2018-08-08T16:51:15.000Z</time>
      </trkpt>
      <trkpt lat="42.69743" lon="0.66825">
        <ele>2079.5</ele>
        <time>2018-08-08T16:51:16.000Z</time>
      </trkpt>
      <trkpt lat="42.69743" lon="0.66825">
        <ele>2079.5</ele>
        <time>2018-08-08T16:51:17.000Z</time>
      </trkpt>
      <trkpt lat="42.69743" lon="0.66825">
        <ele>2079.5</ele>
        <time>2018-08-08T16:51:18.000Z</time>
      </trkpt>
      <trkpt lat="42.69743" lon="0.66825">
        <ele>2079.5</ele>
        <time>2018-08-08T16:51:19.000Z</time>
      </trkpt>
      <trkpt lat="42.69743" lon="0.66825">
        <ele>2079.5</ele>
        <time>2018-08-08T16:51:20.000Z</time>
      </trkpt>
      <trkpt lat="42.69743" lon="0.66825">
        <ele>2079.5</ele>
        <time>2018-08-08T16:51:21.000Z</time>
      </trkpt>
      <trkpt lat="42.69743" lon="0.66825">
        <ele>2079.5</ele>
        <time>2018-08-08T16:51:22.000Z</time>
      </trkpt>
      <trkpt lat="42.69743" lon="0.66825">
        <ele>2079.5</ele>
        <time>2018-08-08T16:51:23.000Z</time>
      </trkpt>
      <trkpt lat="42.69743" lon="0.66825">
        <ele>2079.5</ele>
        <time>2018-08-08T16:51:24.000Z</time>
      </trkpt>
      <trkpt lat="42.69743" lon="0.66825">
        <ele>2079.5</ele>
        <time>2018-08-08T16:51:25.000Z</time>
      </trkpt>
      <trkpt lat="42.69743" lon="0.66825">
        <ele>2079.5</ele>
        <time>2018-08-08T16:51:26.000Z</time>
      </trkpt>
      <trkpt lat="42.69743" lon="0.66825">
        <ele>2079.5</ele>
        <time>2018-08-08T16:51:27.000Z</time>
      </trkpt>
      <trkpt lat="42.69743" lon="0.66825">
        <ele>2079.5</ele>
        <time>2018-08-08T16:51:28.000Z</time>
      </trkpt>
      <trkpt lat="42.69743" lon="0.66825">
        <ele>2079.5</ele>
        <time>2018-08-08T16:51:29.000Z</time>
      </trkpt>
      <trkpt lat="42.69743" lon="0.66825">
        <ele>2079.5</ele>
        <time>2018-08-08T16:51:30.000Z</time>
      </trkpt>
      <trkpt lat="42.69743" lon="0.66825">
        <ele>2079.5</ele>
        <time>2018-08-08T16:51:31.000Z</time>
      </trkpt>
      <trkpt lat="42.69743" lon="0.66825">
        <ele>2079.5</ele>
        <time>2018-08-08T16:51:32.000Z</time>
      </trkpt>
      <trkpt lat="42.69743" lon="0.66825">
        <ele>2079.5</ele>
        <time>2018-08-08T16:51:33.000Z</time>
      </trkpt>
      <trkpt lat="42.69743" lon="0.66825">
        <ele>2079.5</ele>
        <time>2018-08-08T16:51:34.000Z</time>
      </trkpt>
      <trkpt lat="42.69743" lon="0.66825">
        <ele>2079.5</ele>
        <time>2018-08-08T16:51:35.000Z</time>
      </trkpt>
      <trkpt lat="42.69743" lon="0.66825">
        <ele>2079.5</ele>
        <time>2018-08-08T16:51:36.000Z</time>
      </trkpt>
      <trkpt lat="42.69743" lon="0.66825">
        <ele>2079.5</ele>
        <time>2018-08-08T16:51:37.000Z</time>
      </trkpt>
      <trkpt lat="42.69743" lon="0.66825">
        <ele>2079.5</ele>
        <time>2018-08-08T16:51:38.000Z</time>
      </trkpt>
      <trkpt lat="42.69743" lon="0.66825">
        <ele>2079.5</ele>
        <time>2018-08-08T16:51:39.000Z</time>
      </trkpt>
      <trkpt lat="42.69743" lon="0.66825">
        <ele>2079.5</ele>
        <time>2018-08-08T16:51:40.000Z</time>
      </trkpt>
      <trkpt lat="42.69743" lon="0.66825">
        <ele>2079.5</ele>
        <time>2018-08-08T16:51:41.000Z</time>
      </trkpt>
      <trkpt lat="42.69743" lon="0.66825">
        <ele>2079.5</ele>
        <time>2018-08-08T16:51:42.000Z</time>
      </trkpt>
      <trkpt lat="42.69743" lon="0.66825">
        <ele>2079.5</ele>
        <time>2018-08-08T16:51:43.000Z</time>
      </trkpt>
      <trkpt lat="42.69743" lon="0.66825">
        <ele>2079.5</ele>
        <time>2018-08-08T16:51:44.000Z</time>
      </trkpt>
      <trkpt lat="42.69743" lon="0.66825">
        <ele>2079.5</ele>
        <time>2018-08-08T16:51:45.000Z</time>
      </trkpt>
      <trkpt lat="42.69743" lon="0.66825">
        <ele>2079.5</ele>
        <time>2018-08-08T16:51:46.000Z</time>
      </trkpt>
      <trkpt lat="42.69743" lon="0.66825">
        <ele>2079.5</ele>
        <time>2018-08-08T16:51:47.000Z</time>
      </trkpt>
      <trkpt lat="42.69743" lon="0.66825">
        <ele>2079.5</ele>
        <time>2018-08-08T16:51:48.000Z</time>
      </trkpt>
      <trkpt lat="42.69743" lon="0.66825">
        <ele>2079.5</ele>
        <time>2018-08-08T16:51:49.000Z</time>
      </trkpt>
      <trkpt lat="42.69743" lon="0.66825">
        <ele>2079.5</ele>
        <time>2018-08-08T16:51:50.000Z</time>
      </trkpt>
      <trkpt lat="42.69743" lon="0.66825">
        <ele>2079.5</ele>
        <time>2018-08-08T16:51:51.000Z</time>
      </trkpt>
      <trkpt lat="42.69743" lon="0.66825">
        <ele>2079.5</ele>
        <time>2018-08-08T16:51:52.000Z</time>
      </trkpt>
      <trkpt lat="42.69743" lon="0.66825">
        <ele>2079.5</ele>
        <time>2018-08-08T16:51:53.000Z</time>
      </trkpt>
      <trkpt lat="42.69743" lon="0.66825">
        <ele>2079.5</ele>
        <time>2018-08-08T16:51:54.000Z</time>
      </trkpt>
      <trkpt lat="42.69743" lon="0.66825">
        <ele>2079.5</ele>
        <time>2018-08-08T16:51:55.000Z</time>
      </trkpt>
      <trkpt lat="42.69743" lon="0.66825">
        <ele>2079.5</ele>
        <time>2018-08-08T16:51:56.000Z</time>
      </trkpt>
      <trkpt lat="42.69743" lon="0.66825">
        <ele>2079.5</ele>
        <time>2018-08-08T16:51:57.000Z</time>
      </trkpt>
      <trkpt lat="42.69743" lon="0.66825">
        <ele>2079.5</ele>
        <time>2018-08-08T16:51:58.000Z</time>
      </trkpt>
      <trkpt lat="42.69743" lon="0.66825">
        <ele>2079.5</ele>
        <time>2018-08-08T16:51:59.000Z</time>
      </trkpt>
      <trkpt lat="42.69743" lon="0.66825">
        <ele>2079.5</ele>
        <time>2018-08-08T16:52:00.000Z</time>
      </trkpt>
      <trkpt lat="42.69743" lon="0.66825">
        <ele>2079.5</ele>
        <time>2018-08-08T16:52:01.000Z</time>
      </trkpt>
      <trkpt lat="42.69743" lon="0.66825">
        <ele>2079.5</ele>
        <time>2018-08-08T16:52:02.000Z</time>
      </trkpt>
      <trkpt lat="42.69743" lon="0.66825">
        <ele>2079.5</ele>
        <time>2018-08-08T16:52:03.000Z</time>
      </trkpt>
      <trkpt lat="42.69743" lon="0.66825">
        <ele>2079.5</ele>
        <time>2018-08-08T16:52:04.000Z</time>
      </trkpt>
      <trkpt lat="42.69743" lon="0.66825">
        <ele>2079.5</ele>
        <time>2018-08-08T16:52:05.000Z</time>
      </trkpt>
      <trkpt lat="42.69743" lon="0.66825">
        <ele>2079.5</ele>
        <time>2018-08-08T16:52:06.000Z</time>
      </trkpt>
      <trkpt lat="42.69743" lon="0.66825">
        <ele>2079.5</ele>
        <time>2018-08-08T16:52:07.000Z</time>
      </trkpt>
      <trkpt lat="42.69743" lon="0.66825">
        <ele>2079.5</ele>
        <time>2018-08-08T16:52:08.000Z</time>
      </trkpt>
      <trkpt lat="42.69743" lon="0.66825">
        <ele>2079.5</ele>
        <time>2018-08-08T16:52:09.000Z</time>
      </trkpt>
      <trkpt lat="42.69743" lon="0.66825">
        <ele>2079.5</ele>
        <time>2018-08-08T16:52:10.000Z</time>
      </trkpt>
      <trkpt lat="42.69743" lon="0.66825">
        <ele>2079.5</ele>
        <time>2018-08-08T16:52:11.000Z</time>
      </trkpt>
      <trkpt lat="42.69743" lon="0.66825">
        <ele>2079.5</ele>
        <time>2018-08-08T16:52:12.000Z</time>
      </trkpt>
      <trkpt lat="42.69743" lon="0.66825">
        <ele>2079.5</ele>
        <time>2018-08-08T16:52:13.000Z</time>
      </trkpt>
      <trkpt lat="42.69743" lon="0.66825">
        <ele>2079.5</ele>
        <time>2018-08-08T16:52:14.000Z</time>
      </trkpt>
      <trkpt lat="42.69743" lon="0.66825">
        <ele>2079.5</ele>
        <time>2018-08-08T16:52:15.000Z</time>
      </trkpt>
      <trkpt lat="42.69743" lon="0.66825">
        <ele>2079.5</ele>
        <time>2018-08-08T16:52:16.000Z</time>
      </trkpt>
      <trkpt lat="42.69743" lon="0.66825">
        <ele>2079.5</ele>
        <time>2018-08-08T16:52:17.000Z</time>
      </trkpt>
      <trkpt lat="42.69743" lon="0.66825">
        <ele>2079.5</ele>
        <time>2018-08-08T16:52:18.000Z</time>
      </trkpt>
      <trkpt lat="42.69743" lon="0.66825">
        <ele>2079.5</ele>
        <time>2018-08-08T16:52:19.000Z</time>
      </trkpt>
      <trkpt lat="42.69743" lon="0.66825">
        <ele>2079.5</ele>
        <time>2018-08-08T16:52:20.000Z</time>
      </trkpt>
      <trkpt lat="42.69743" lon="0.66825">
        <ele>2079.5</ele>
        <time>2018-08-08T16:52:21.000Z</time>
      </trkpt>
      <trkpt lat="42.69743" lon="0.66825">
        <ele>2079.5</ele>
        <time>2018-08-08T16:52:22.000Z</time>
      </trkpt>
      <trkpt lat="42.69743" lon="0.66825">
        <ele>2079.5</ele>
        <time>2018-08-08T16:52:23.000Z</time>
      </trkpt>
      <trkpt lat="42.69743" lon="0.66825">
        <ele>2079.5</ele>
        <time>2018-08-08T16:52:24.000Z</time>
      </trkpt>
      <trkpt lat="42.69743" lon="0.66825">
        <ele>2079.5</ele>
        <time>2018-08-08T16:52:25.000Z</time>
      </trkpt>
      <trkpt lat="42.69743" lon="0.66825">
        <ele>2079.5</ele>
        <time>2018-08-08T16:52:26.000Z</time>
      </trkpt>
      <trkpt lat="42.69743" lon="0.66825">
        <ele>2079.5</ele>
        <time>2018-08-08T16:52:27.000Z</time>
      </trkpt>
      <trkpt lat="42.69743" lon="0.66825">
        <ele>2079.5</ele>
        <time>2018-08-08T16:52:28.000Z</time>
      </trkpt>
      <trkpt lat="42.69743" lon="0.66825">
        <ele>2079.5</ele>
        <time>2018-08-08T16:52:29.000Z</time>
      </trkpt>
      <trkpt lat="42.69743" lon="0.66825">
        <ele>2079.5</ele>
        <time>2018-08-08T16:52:30.000Z</time>
      </trkpt>
      <trkpt lat="42.69743" lon="0.66825">
        <ele>2079.5</ele>
        <time>2018-08-08T16:52:31.000Z</time>
      </trkpt>
      <trkpt lat="42.69743" lon="0.66825">
        <ele>2079.5</ele>
        <time>2018-08-08T16:52:32.000Z</time>
      </trkpt>
      <trkpt lat="42.69743" lon="0.66825">
        <ele>2079.5</ele>
        <time>2018-08-08T16:52:33.000Z</time>
      </trkpt>
      <trkpt lat="42.69743" lon="0.66825">
        <ele>2079.5</ele>
        <time>2018-08-08T16:52:34.000Z</time>
      </trkpt>
      <trkpt lat="42.69743" lon="0.66825">
        <ele>2079.5</ele>
        <time>2018-08-08T16:52:35.000Z</time>
      </trkpt>
      <trkpt lat="42.69743" lon="0.66825">
        <ele>2079.5</ele>
        <time>2018-08-08T16:52:36.000Z</time>
      </trkpt>
      <trkpt lat="42.69743" lon="0.66825">
        <ele>2079.5</ele>
        <time>2018-08-08T16:52:37.000Z</time>
      </trkpt>
      <trkpt lat="42.69743" lon="0.66825">
        <ele>2079.5</ele>
        <time>2018-08-08T16:52:38.000Z</time>
      </trkpt>
      <trkpt lat="42.69743" lon="0.66825">
        <ele>2079.5</ele>
        <time>2018-08-08T16:52:39.000Z</time>
      </trkpt>
      <trkpt lat="42.69743" lon="0.66825">
        <ele>2079.5</ele>
        <time>2018-08-08T16:52:40.000Z</time>
      </trkpt>
      <trkpt lat="42.69743" lon="0.66825">
        <ele>2079.5</ele>
        <time>2018-08-08T16:52:41.000Z</time>
      </trkpt>
      <trkpt lat="42.69743" lon="0.66825">
        <ele>2079.5</ele>
        <time>2018-08-08T16:52:42.000Z</time>
      </trkpt>
      <trkpt lat="42.69743" lon="0.66825">
        <ele>2079.5</ele>
        <time>2018-08-08T16:52:43.000Z</time>
      </trkpt>
      <trkpt lat="42.69743" lon="0.66825">
        <ele>2079.5</ele>
        <time>2018-08-08T16:52:44.000Z</time>
      </trkpt>
      <trkpt lat="42.69743" lon="0.66825">
        <ele>2079.5</ele>
        <time>2018-08-08T16:52:45.000Z</time>
      </trkpt>
      <trkpt lat="42.69743" lon="0.66825">
        <ele>2079.5</ele>
        <time>2018-08-08T16:52:46.000Z</time>
      </trkpt>
      <trkpt lat="42.69743" lon="0.66825">
        <ele>2079.5</ele>
        <time>2018-08-08T16:52:47.000Z</time>
      </trkpt>
      <trkpt lat="42.69743" lon="0.66825">
        <ele>2079.5</ele>
        <time>2018-08-08T16:52:48.000Z</time>
      </trkpt>
      <trkpt lat="42.69743" lon="0.66825">
        <ele>2079.5</ele>
        <time>2018-08-08T16:52:49.000Z</time>
      </trkpt>
      <trkpt lat="42.69743" lon="0.66825">
        <ele>2079.5</ele>
        <time>2018-08-08T16:52:50.000Z</time>
      </trkpt>
      <trkpt lat="42.69743" lon="0.66825">
        <ele>2079.5</ele>
        <time>2018-08-08T16:52:51.000Z</time>
      </trkpt>
      <trkpt lat="42.69743" lon="0.66825">
        <ele>2079.5</ele>
        <time>2018-08-08T16:52:52.000Z</time>
      </trkpt>
      <trkpt lat="42.69743" lon="0.66825">
        <ele>2079.5</ele>
        <time>2018-08-08T16:52:53.000Z</time>
      </trkpt>
      <trkpt lat="42.69743" lon="0.66825">
        <ele>2079.5</ele>
        <time>2018-08-08T16:52:54.000Z</time>
      </trkpt>
      <trkpt lat="42.69743" lon="0.66825">
        <ele>2079.5</ele>
        <time>2018-08-08T16:52:55.000Z</time>
      </trkpt>
      <trkpt lat="42.69743" lon="0.66825">
        <ele>2079.5</ele>
        <time>2018-08-08T16:52:56.000Z</time>
      </trkpt>
      <trkpt lat="42.69743" lon="0.66825">
        <ele>2079.5</ele>
        <time>2018-08-08T16:52:57.000Z</time>
      </trkpt>
      <trkpt lat="42.69743" lon="0.66825">
        <ele>2079.5</ele>
        <time>2018-08-08T16:52:58.000Z</time>
      </trkpt>
      <trkpt lat="42.69743" lon="0.66825">
        <ele>2079.5</ele>
        <time>2018-08-08T16:52:59.000Z</time>
      </trkpt>
      <trkpt lat="42.69743" lon="0.66825">
        <ele>2079.5</ele>
        <time>2018-08-08T16:53:00.000Z</time>
      </trkpt>
      <trkpt lat="42.69743" lon="0.66825">
        <ele>2079.5</ele>
        <time>2018-08-08T16:53:01.000Z</time>
      </trkpt>
      <trkpt lat="42.69743" lon="0.66825">
        <ele>2079.5</ele>
        <time>2018-08-08T16:53:02.000Z</time>
      </trkpt>
      <trkpt lat="42.69743" lon="0.66825">
        <ele>2079.5</ele>
        <time>2018-08-08T16:53:03.000Z</time>
      </trkpt>
      <trkpt lat="42.69743" lon="0.66825">
        <ele>2079.5</ele>
        <time>2018-08-08T16:53:04.000Z</time>
      </trkpt>
      <trkpt lat="42.69743" lon="0.66825">
        <ele>2079.5</ele>
        <time>2018-08-08T16:53:05.000Z</time>
      </trkpt>
      <trkpt lat="42.69743" lon="0.66825">
        <ele>2079.5</ele>
        <time>2018-08-08T16:53:06.000Z</time>
      </trkpt>
      <trkpt lat="42.69743" lon="0.66825">
        <ele>2079.5</ele>
        <time>2018-08-08T16:53:07.000Z</time>
      </trkpt>
      <trkpt lat="42.69743" lon="0.66825">
        <ele>2079.5</ele>
        <time>2018-08-08T16:53:08.000Z</time>
      </trkpt>
      <trkpt lat="42.69743" lon="0.66825">
        <ele>2079.5</ele>
        <time>2018-08-08T16:53:09.000Z</time>
      </trkpt>
      <trkpt lat="42.69743" lon="0.66825">
        <ele>2079.5</ele>
        <time>2018-08-08T16:53:10.000Z</time>
      </trkpt>
      <trkpt lat="42.69743" lon="0.66825">
        <ele>2079.5</ele>
        <time>2018-08-08T16:53:11.000Z</time>
      </trkpt>
      <trkpt lat="42.69743" lon="0.66825">
        <ele>2079.5</ele>
        <time>2018-08-08T16:53:12.000Z</time>
      </trkpt>
      <trkpt lat="42.69743" lon="0.66825">
        <ele>2079.5</ele>
        <time>2018-08-08T16:53:13.000Z</time>
      </trkpt>
      <trkpt lat="42.69743" lon="0.66825">
        <ele>2079.5</ele>
        <time>2018-08-08T16:53:14.000Z</time>
      </trkpt>
      <trkpt lat="42.69743" lon="0.66825">
        <ele>2079.5</ele>
        <time>2018-08-08T16:53:15.000Z</time>
      </trkpt>
      <trkpt lat="42.69743" lon="0.66825">
        <ele>2079.5</ele>
        <time>2018-08-08T16:53:16.000Z</time>
      </trkpt>
      <trkpt lat="42.69743" lon="0.66825">
        <ele>2079.5</ele>
        <time>2018-08-08T16:53:17.000Z</time>
      </trkpt>
      <trkpt lat="42.69743" lon="0.66825">
        <ele>2079.5</ele>
        <time>2018-08-08T16:53:18.000Z</time>
      </trkpt>
      <trkpt lat="42.69743" lon="0.66825">
        <ele>2079.5</ele>
        <time>2018-08-08T16:53:19.000Z</time>
      </trkpt>
      <trkpt lat="42.69743" lon="0.66825">
        <ele>2079.5</ele>
        <time>2018-08-08T16:53:20.000Z</time>
      </trkpt>
      <trkpt lat="42.69743" lon="0.66825">
        <ele>2079.5</ele>
        <time>2018-08-08T16:53:21.000Z</time>
      </trkpt>
      <trkpt lat="42.69743" lon="0.66825">
        <ele>2079.5</ele>
        <time>2018-08-08T16:53:22.000Z</time>
      </trkpt>
      <trkpt lat="42.69743" lon="0.66825">
        <ele>2079.5</ele>
        <time>2018-08-08T16:53:23.000Z</time>
      </trkpt>
      <trkpt lat="42.69743" lon="0.66825">
        <ele>2079.5</ele>
        <time>2018-08-08T16:53:24.000Z</time>
      </trkpt>
      <trkpt lat="42.69743" lon="0.66825">
        <ele>2079.5</ele>
        <time>2018-08-08T16:53:25.000Z</time>
      </trkpt>
      <trkpt lat="42.69743" lon="0.66825">
        <ele>2079.5</ele>
        <time>2018-08-08T16:53:26.000Z</time>
      </trkpt>
      <trkpt lat="42.69743" lon="0.66825">
        <ele>2079.5</ele>
        <time>2018-08-08T16:53:27.000Z</time>
      </trkpt>
      <trkpt lat="42.69743" lon="0.66825">
        <ele>2079.5</ele>
        <time>2018-08-08T16:53:28.000Z</time>
      </trkpt>
      <trkpt lat="42.69743" lon="0.66825">
        <ele>2079.5</ele>
        <time>2018-08-08T16:53:29.000Z</time>
      </trkpt>
      <trkpt lat="42.69743" lon="0.66825">
        <ele>2079.5</ele>
        <time>2018-08-08T16:53:30.000Z</time>
      </trkpt>
      <trkpt lat="42.69743" lon="0.66825">
        <ele>2079.5</ele>
        <time>2018-08-08T16:53:31.000Z</time>
      </trkpt>
      <trkpt lat="42.69743" lon="0.66825">
        <ele>2079.5</ele>
        <time>2018-08-08T16:53:32.000Z</time>
      </trkpt>
      <trkpt lat="42.69743" lon="0.66825">
        <ele>2079.5</ele>
        <time>2018-08-08T16:53:33.000Z</time>
      </trkpt>
      <trkpt lat="42.69743" lon="0.66825">
        <ele>2079.5</ele>
        <time>2018-08-08T16:53:34.000Z</time>
      </trkpt>
      <trkpt lat="42.69743" lon="0.66825">
        <ele>2079.5</ele>
        <time>2018-08-08T16:53:35.000Z</time>
      </trkpt>
      <trkpt lat="42.69743" lon="0.66825">
        <ele>2079.5</ele>
        <time>2018-08-08T16:53:36.000Z</time>
      </trkpt>
      <trkpt lat="42.69743" lon="0.66825">
        <ele>2079.5</ele>
        <time>2018-08-08T16:53:37.000Z</time>
      </trkpt>
      <trkpt lat="42.69743" lon="0.66825">
        <ele>2079.5</ele>
        <time>2018-08-08T16:53:38.000Z</time>
      </trkpt>
      <trkpt lat="42.69743" lon="0.66825">
        <ele>2079.5</ele>
        <time>2018-08-08T16:53:39.000Z</time>
      </trkpt>
      <trkpt lat="42.69743" lon="0.66825">
        <ele>2079.5</ele>
        <time>2018-08-08T16:53:40.000Z</time>
      </trkpt>
      <trkpt lat="42.69743" lon="0.66825">
        <ele>2079.5</ele>
        <time>2018-08-08T16:53:41.000Z</time>
      </trkpt>
      <trkpt lat="42.69743" lon="0.66825">
        <ele>2079.5</ele>
        <time>2018-08-08T16:53:42.000Z</time>
      </trkpt>
      <trkpt lat="42.69743" lon="0.66825">
        <ele>2079.5</ele>
        <time>2018-08-08T16:53:43.000Z</time>
      </trkpt>
      <trkpt lat="42.69743" lon="0.66825">
        <ele>2079.5</ele>
        <time>2018-08-08T16:53:44.000Z</time>
      </trkpt>
      <trkpt lat="42.69743" lon="0.66825">
        <ele>2079.5</ele>
        <time>2018-08-08T16:53:45.000Z</time>
      </trkpt>
      <trkpt lat="42.69743" lon="0.66825">
        <ele>2079.5</ele>
        <time>2018-08-08T16:53:46.000Z</time>
      </trkpt>
      <trkpt lat="42.69743" lon="0.66825">
        <ele>2079.5</ele>
        <time>2018-08-08T16:53:47.000Z</time>
      </trkpt>
      <trkpt lat="42.69743" lon="0.66825">
        <ele>2079.5</ele>
        <time>2018-08-08T16:53:48.000Z</time>
      </trkpt>
      <trkpt lat="42.69743" lon="0.66825">
        <ele>2079.5</ele>
        <time>2018-08-08T16:53:49.000Z</time>
      </trkpt>
      <trkpt lat="42.69743" lon="0.66825">
        <ele>2079.5</ele>
        <time>2018-08-08T16:53:50.000Z</time>
      </trkpt>
      <trkpt lat="42.69743" lon="0.66825">
        <ele>2079.5</ele>
        <time>2018-08-08T16:53:51.000Z</time>
      </trkpt>
      <trkpt lat="42.69743" lon="0.66825">
        <ele>2079.5</ele>
        <time>2018-08-08T16:53:52.000Z</time>
      </trkpt>
      <trkpt lat="42.69743" lon="0.66825">
        <ele>2079.5</ele>
        <time>2018-08-08T16:53:53.000Z</time>
      </trkpt>
      <trkpt lat="42.69743" lon="0.66825">
        <ele>2079.5</ele>
        <time>2018-08-08T16:53:54.000Z</time>
      </trkpt>
      <trkpt lat="42.69743" lon="0.66825">
        <ele>2079.5</ele>
        <time>2018-08-08T16:53:55.000Z</time>
      </trkpt>
      <trkpt lat="42.69743" lon="0.66825">
        <ele>2079.5</ele>
        <time>2018-08-08T16:53:56.000Z</time>
      </trkpt>
      <trkpt lat="42.69743" lon="0.66825">
        <ele>2079.5</ele>
        <time>2018-08-08T16:53:57.000Z</time>
      </trkpt>
      <trkpt lat="42.69743" lon="0.66825">
        <ele>2079.5</ele>
        <time>2018-08-08T16:53:58.000Z</time>
      </trkpt>
      <trkpt lat="42.69743" lon="0.66825">
        <ele>2079.5</ele>
        <time>2018-08-08T16:53:59.000Z</time>
      </trkpt>
      <trkpt lat="42.69743" lon="0.66825">
        <ele>2079.5</ele>
        <time>2018-08-08T16:54:00.000Z</time>
      </trkpt>
      <trkpt lat="42.69743" lon="0.66825">
        <ele>2079.5</ele>
        <time>2018-08-08T16:54:01.000Z</time>
      </trkpt>
      <trkpt lat="42.69743" lon="0.66825">
        <ele>2079.5</ele>
        <time>2018-08-08T16:54:02.000Z</time>
      </trkpt>
      <trkpt lat="42.69743" lon="0.66825">
        <ele>2079.5</ele>
        <time>2018-08-08T16:54:03.000Z</time>
      </trkpt>
      <trkpt lat="42.69743" lon="0.66825">
        <ele>2079.5</ele>
        <time>2018-08-08T16:54:04.000Z</time>
      </trkpt>
      <trkpt lat="42.69743" lon="0.66825">
        <ele>2079.5</ele>
        <time>2018-08-08T16:54:05.000Z</time>
      </trkpt>
      <trkpt lat="42.69743" lon="0.66825">
        <ele>2079.5</ele>
        <time>2018-08-08T16:54:06.000Z</time>
      </trkpt>
      <trkpt lat="42.69743" lon="0.66825">
        <ele>2079.5</ele>
        <time>2018-08-08T16:54:07.000Z</time>
      </trkpt>
      <trkpt lat="42.69743" lon="0.66825">
        <ele>2079.5</ele>
        <time>2018-08-08T16:54:08.000Z</time>
      </trkpt>
      <trkpt lat="42.69743" lon="0.66825">
        <ele>2079.5</ele>
        <time>2018-08-08T16:54:09.000Z</time>
      </trkpt>
      <trkpt lat="42.69743" lon="0.66825">
        <ele>2079.5</ele>
        <time>2018-08-08T16:54:10.000Z</time>
      </trkpt>
      <trkpt lat="42.69743" lon="0.66825">
        <ele>2079.5</ele>
        <time>2018-08-08T16:54:11.000Z</time>
      </trkpt>
      <trkpt lat="42.69743" lon="0.66825">
        <ele>2079.5</ele>
        <time>2018-08-08T16:54:12.000Z</time>
      </trkpt>
      <trkpt lat="42.69743" lon="0.66825">
        <ele>2079.5</ele>
        <time>2018-08-08T16:54:13.000Z</time>
      </trkpt>
      <trkpt lat="42.69743" lon="0.66825">
        <ele>2079.5</ele>
        <time>2018-08-08T16:54:14.000Z</time>
      </trkpt>
      <trkpt lat="42.69743" lon="0.66825">
        <ele>2079.5</ele>
        <time>2018-08-08T16:54:15.000Z</time>
      </trkpt>
      <trkpt lat="42.69743" lon="0.66825">
        <ele>2079.5</ele>
        <time>2018-08-08T16:54:16.000Z</time>
      </trkpt>
      <trkpt lat="42.69743" lon="0.66825">
        <ele>2079.5</ele>
        <time>2018-08-08T16:54:17.000Z</time>
      </trkpt>
      <trkpt lat="42.69743" lon="0.66825">
        <ele>2079.5</ele>
        <time>2018-08-08T16:54:18.000Z</time>
      </trkpt>
      <trkpt lat="42.69743" lon="0.66825">
        <ele>2079.5</ele>
        <time>2018-08-08T16:54:19.000Z</time>
      </trkpt>
      <trkpt lat="42.69743" lon="0.66825">
        <ele>2079.5</ele>
        <time>2018-08-08T16:54:20.000Z</time>
      </trkpt>
      <trkpt lat="42.69743" lon="0.66825">
        <ele>2079.5</ele>
        <time>2018-08-08T16:54:21.000Z</time>
      </trkpt>
      <trkpt lat="42.69743" lon="0.66825">
        <ele>2079.5</ele>
        <time>2018-08-08T16:54:22.000Z</time>
      </trkpt>
      <trkpt lat="42.69743" lon="0.66825">
        <ele>2079.5</ele>
        <time>2018-08-08T16:54:23.000Z</time>
      </trkpt>
      <trkpt lat="42.69743" lon="0.66825">
        <ele>2079.5</ele>
        <time>2018-08-08T16:54:24.000Z</time>
      </trkpt>
      <trkpt lat="42.69743" lon="0.66825">
        <ele>2079.5</ele>
        <time>2018-08-08T16:54:25.000Z</time>
      </trkpt>
      <trkpt lat="42.69743" lon="0.66825">
        <ele>2079.5</ele>
        <time>2018-08-08T16:54:26.000Z</time>
      </trkpt>
      <trkpt lat="42.69743" lon="0.66825">
        <ele>2079.5</ele>
        <time>2018-08-08T16:54:27.000Z</time>
      </trkpt>
      <trkpt lat="42.69743" lon="0.66825">
        <ele>2079.5</ele>
        <time>2018-08-08T16:54:28.000Z</time>
      </trkpt>
      <trkpt lat="42.69743" lon="0.66825">
        <ele>2079.5</ele>
        <time>2018-08-08T16:54:29.000Z</time>
      </trkpt>
      <trkpt lat="42.69743" lon="0.66825">
        <ele>2079.5</ele>
        <time>2018-08-08T16:54:30.000Z</time>
      </trkpt>
      <trkpt lat="42.69743" lon="0.66825">
        <ele>2079.5</ele>
        <time>2018-08-08T16:54:31.000Z</time>
      </trkpt>
      <trkpt lat="42.69743" lon="0.66825">
        <ele>2079.5</ele>
        <time>2018-08-08T16:54:32.000Z</time>
      </trkpt>
      <trkpt lat="42.69743" lon="0.66825">
        <ele>2079.5</ele>
        <time>2018-08-08T16:54:33.000Z</time>
      </trkpt>
      <trkpt lat="42.69743" lon="0.66825">
        <ele>2079.5</ele>
        <time>2018-08-08T16:54:34.000Z</time>
      </trkpt>
      <trkpt lat="42.69743" lon="0.66825">
        <ele>2079.5</ele>
        <time>2018-08-08T16:54:35.000Z</time>
      </trkpt>
      <trkpt lat="42.69743" lon="0.66825">
        <ele>2079.5</ele>
        <time>2018-08-08T16:54:36.000Z</time>
      </trkpt>
      <trkpt lat="42.69743" lon="0.66825">
        <ele>2079.5</ele>
        <time>2018-08-08T16:54:37.000Z</time>
      </trkpt>
      <trkpt lat="42.69743" lon="0.66825">
        <ele>2079.5</ele>
        <time>2018-08-08T16:54:38.000Z</time>
      </trkpt>
      <trkpt lat="42.69743" lon="0.66825">
        <ele>2079.5</ele>
        <time>2018-08-08T16:54:39.000Z</time>
      </trkpt>
      <trkpt lat="42.69743" lon="0.66825">
        <ele>2079.5</ele>
        <time>2018-08-08T16:54:40.000Z</time>
      </trkpt>
      <trkpt lat="42.69743" lon="0.66825">
        <ele>2079.5</ele>
        <time>2018-08-08T16:54:41.000Z</time>
      </trkpt>
      <trkpt lat="42.69743" lon="0.66825">
        <ele>2079.5</ele>
        <time>2018-08-08T16:54:42.000Z</time>
      </trkpt>
      <trkpt lat="42.69743" lon="0.66825">
        <ele>2079.5</ele>
        <time>2018-08-08T16:54:43.000Z</time>
      </trkpt>
      <trkpt lat="42.69743" lon="0.66825">
        <ele>2079.5</ele>
        <time>2018-08-08T16:54:44.000Z</time>
      </trkpt>
      <trkpt lat="42.69743" lon="0.66825">
        <ele>2079.5</ele>
        <time>2018-08-08T16:54:45.000Z</time>
      </trkpt>
      <trkpt lat="42.69743" lon="0.66825">
        <ele>2079.5</ele>
        <time>2018-08-08T16:54:46.000Z</time>
      </trkpt>
      <trkpt lat="42.69743" lon="0.66825">
        <ele>2079.5</ele>
        <time>2018-08-08T16:54:47.000Z</time>
      </trkpt>
      <trkpt lat="42.69743" lon="0.66825">
        <ele>2079.5</ele>
        <time>2018-08-08T16:54:48.000Z</time>
      </trkpt>
      <trkpt lat="42.69743" lon="0.66825">
        <ele>2079.5</ele>
        <time>2018-08-08T16:54:49.000Z</time>
      </trkpt>
      <trkpt lat="42.69743" lon="0.66825">
        <ele>2079.5</ele>
        <time>2018-08-08T16:54:50.000Z</time>
      </trkpt>
      <trkpt lat="42.69743" lon="0.66825">
        <ele>2079.5</ele>
        <time>2018-08-08T16:54:51.000Z</time>
      </trkpt>
      <trkpt lat="42.69743" lon="0.66825">
        <ele>2079.5</ele>
        <time>2018-08-08T16:54:52.000Z</time>
      </trkpt>
      <trkpt lat="42.69743" lon="0.66825">
        <ele>2079.5</ele>
        <time>2018-08-08T16:54:53.000Z</time>
      </trkpt>
      <trkpt lat="42.69743" lon="0.66825">
        <ele>2079.5</ele>
        <time>2018-08-08T16:54:54.000Z</time>
      </trkpt>
      <trkpt lat="42.69743" lon="0.66825">
        <ele>2079.5</ele>
        <time>2018-08-08T16:54:55.000Z</time>
      </trkpt>
      <trkpt lat="42.69743" lon="0.66825">
        <ele>2079.5</ele>
        <time>2018-08-08T16:54:56.000Z</time>
      </trkpt>
      <trkpt lat="42.69743" lon="0.66825">
        <ele>2079.5</ele>
        <time>2018-08-08T16:54:57.000Z</time>
      </trkpt>
      <trkpt lat="42.69743" lon="0.66825">
        <ele>2079.5</ele>
        <time>2018-08-08T16:54:58.000Z</time>
      </trkpt>
      <trkpt lat="42.69743" lon="0.66825">
        <ele>2079.5</ele>
        <time>2018-08-08T16:54:59.000Z</time>
      </trkpt>
      <trkpt lat="42.69743" lon="0.66825">
        <ele>2079.5</ele>
        <time>2018-08-08T16:55:00.000Z</time>
      </trkpt>
      <trkpt lat="42.69743" lon="0.66825">
        <ele>2079.5</ele>
        <time>2018-08-08T16:55:01.000Z</time>
      </trkpt>
      <trkpt lat="42.69743" lon="0.66825">
        <ele>2079.5</ele>
        <time>2018-08-08T16:55:02.000Z</time>
      </trkpt>
      <trkpt lat="42.69743" lon="0.66825">
        <ele>2079.5</ele>
        <time>2018-08-08T16:55:03.000Z</time>
      </trkpt>
      <trkpt lat="42.69743" lon="0.66825">
        <ele>2079.5</ele>
        <time>2018-08-08T16:55:04.000Z</time>
      </trkpt>
      <trkpt lat="42.69743" lon="0.66825">
        <ele>2079.5</ele>
        <time>2018-08-08T16:55:05.000Z</time>
      </trkpt>
      <trkpt lat="42.69743" lon="0.66825">
        <ele>2079.5</ele>
        <time>2018-08-08T16:55:06.000Z</time>
      </trkpt>
      <trkpt lat="42.69743" lon="0.66825">
        <ele>2079.5</ele>
        <time>2018-08-08T16:55:07.000Z</time>
      </trkpt>
      <trkpt lat="42.69743" lon="0.66825">
        <ele>2079.5</ele>
        <time>2018-08-08T16:55:08.000Z</time>
      </trkpt>
      <trkpt lat="42.69743" lon="0.66825">
        <ele>2079.5</ele>
        <time>2018-08-08T16:55:09.000Z</time>
      </trkpt>
      <trkpt lat="42.69743" lon="0.66825">
        <ele>2079.5</ele>
        <time>2018-08-08T16:55:10.000Z</time>
      </trkpt>
      <trkpt lat="42.69743" lon="0.66825">
        <ele>2079.5</ele>
        <time>2018-08-08T16:55:11.000Z</time>
      </trkpt>
      <trkpt lat="42.69743" lon="0.66825">
        <ele>2079.5</ele>
        <time>2018-08-08T16:55:12.000Z</time>
      </trkpt>
      <trkpt lat="42.69743" lon="0.66825">
        <ele>2079.5</ele>
        <time>2018-08-08T16:55:13.000Z</time>
      </trkpt>
      <trkpt lat="42.69743" lon="0.66825">
        <ele>2079.5</ele>
        <time>2018-08-08T16:55:14.000Z</time>
      </trkpt>
      <trkpt lat="42.69743" lon="0.66825">
        <ele>2079.5</ele>
        <time>2018-08-08T16:55:15.000Z</time>
      </trkpt>
      <trkpt lat="42.69743" lon="0.66825">
        <ele>2079.5</ele>
        <time>2018-08-08T16:55:16.000Z</time>
      </trkpt>
      <trkpt lat="42.69743" lon="0.66825">
        <ele>2079.5</ele>
        <time>2018-08-08T16:55:17.000Z</time>
      </trkpt>
      <trkpt lat="42.69743" lon="0.66825">
        <ele>2079.5</ele>
        <time>2018-08-08T16:55:18.000Z</time>
      </trkpt>
      <trkpt lat="42.69743" lon="0.66825">
        <ele>2079.5</ele>
        <time>2018-08-08T16:55:19.000Z</time>
      </trkpt>
      <trkpt lat="42.69743" lon="0.66825">
        <ele>2079.5</ele>
        <time>2018-08-08T16:55:20.000Z</time>
      </trkpt>
      <trkpt lat="42.69743" lon="0.66825">
        <ele>2079.5</ele>
        <time>2018-08-08T16:55:21.000Z</time>
      </trkpt>
      <trkpt lat="42.69743" lon="0.66825">
        <ele>2079.5</ele>
        <time>2018-08-08T16:55:22.000Z</time>
      </trkpt>
      <trkpt lat="42.69743" lon="0.66825">
        <ele>2079.5</ele>
        <time>2018-08-08T16:55:23.000Z</time>
      </trkpt>
      <trkpt lat="42.69743" lon="0.66825">
        <ele>2079.5</ele>
        <time>2018-08-08T16:55:24.000Z</time>
      </trkpt>
      <trkpt lat="42.69743" lon="0.66825">
        <ele>2079.5</ele>
        <time>2018-08-08T16:55:25.000Z</time>
      </trkpt>
      <trkpt lat="42.69743" lon="0.66825">
        <ele>2079.5</ele>
        <time>2018-08-08T16:55:26.000Z</time>
      </trkpt>
      <trkpt lat="42.69743" lon="0.66825">
        <ele>2079.5</ele>
        <time>2018-08-08T16:55:27.000Z</time>
      </trkpt>
      <trkpt lat="42.69743" lon="0.66825">
        <ele>2079.5</ele>
        <time>2018-08-08T16:55:28.000Z</time>
      </trkpt>
      <trkpt lat="42.69743" lon="0.66825">
        <ele>2079.5</ele>
        <time>2018-08-08T16:55:29.000Z</time>
      </trkpt>
      <trkpt lat="42.69743" lon="0.66825">
        <ele>2079.5</ele>
        <time>2018-08-08T16:55:30.000Z</time>
      </trkpt>
      <trkpt lat="42.69743" lon="0.66825">
        <ele>2079.5</ele>
        <time>2018-08-08T16:55:31.000Z</time>
      </trkpt>
      <trkpt lat="42.69743" lon="0.66825">
        <ele>2079.5</ele>
        <time>2018-08-08T16:55:32.000Z</time>
      </trkpt>
      <trkpt lat="42.69743" lon="0.66825">
        <ele>2079.5</ele>
        <time>2018-08-08T16:55:33.000Z</time>
      </trkpt>
      <trkpt lat="42.69743" lon="0.66825">
        <ele>2079.5</ele>
        <time>2018-08-08T16:55:34.000Z</time>
      </trkpt>
      <trkpt lat="42.69743" lon="0.66825">
        <ele>2079.5</ele>
        <time>2018-08-08T16:55:35.000Z</time>
      </trkpt>
      <trkpt lat="42.69743" lon="0.66825">
        <ele>2079.5</ele>
        <time>2018-08-08T16:55:36.000Z</time>
      </trkpt>
      <trkpt lat="42.69743" lon="0.66825">
        <ele>2079.5</ele>
        <time>2018-08-08T16:55:37.000Z</time>
      </trkpt>
      <trkpt lat="42.69743" lon="0.66825">
        <ele>2079.5</ele>
        <time>2018-08-08T16:55:38.000Z</time>
      </trkpt>
      <trkpt lat="42.69743" lon="0.66825">
        <ele>2079.5</ele>
        <time>2018-08-08T16:55:39.000Z</time>
      </trkpt>
      <trkpt lat="42.69743" lon="0.66825">
        <ele>2079.5</ele>
        <time>2018-08-08T16:55:40.000Z</time>
      </trkpt>
      <trkpt lat="42.69743" lon="0.66825">
        <ele>2079.5</ele>
        <time>2018-08-08T16:55:41.000Z</time>
      </trkpt>
      <trkpt lat="42.69743" lon="0.66825">
        <ele>2079.5</ele>
        <time>2018-08-08T16:55:42.000Z</time>
      </trkpt>
      <trkpt lat="42.69743" lon="0.66825">
        <ele>2079.5</ele>
        <time>2018-08-08T16:55:43.000Z</time>
      </trkpt>
      <trkpt lat="42.69743" lon="0.66825">
        <ele>2079.5</ele>
        <time>2018-08-08T16:55:44.000Z</time>
      </trkpt>
      <trkpt lat="42.69743" lon="0.66825">
        <ele>2079.5</ele>
        <time>2018-08-08T16:55:45.000Z</time>
      </trkpt>
      <trkpt lat="42.69743" lon="0.66825">
        <ele>2079.5</ele>
        <time>2018-08-08T16:55:46.000Z</time>
      </trkpt>
      <trkpt lat="42.69743" lon="0.66825">
        <ele>2079.5</ele>
        <time>2018-08-08T16:55:47.000Z</time>
      </trkpt>
      <trkpt lat="42.69743" lon="0.66825">
        <ele>2079.5</ele>
        <time>2018-08-08T16:55:48.000Z</time>
      </trkpt>
      <trkpt lat="42.69743" lon="0.66825">
        <ele>2079.5</ele>
        <time>2018-08-08T16:55:49.000Z</time>
      </trkpt>
      <trkpt lat="42.69743" lon="0.66825">
        <ele>2079.5</ele>
        <time>2018-08-08T16:55:50.000Z</time>
      </trkpt>
      <trkpt lat="42.69743" lon="0.66825">
        <ele>2079.5</ele>
        <time>2018-08-08T16:55:51.000Z</time>
      </trkpt>
      <trkpt lat="42.69743" lon="0.66825">
        <ele>2079.5</ele>
        <time>2018-08-08T16:55:52.000Z</time>
      </trkpt>
      <trkpt lat="42.69743" lon="0.66825">
        <ele>2079.5</ele>
        <time>2018-08-08T16:55:53.000Z</time>
      </trkpt>
      <trkpt lat="42.69743" lon="0.66825">
        <ele>2079.5</ele>
        <time>2018-08-08T16:55:54.000Z</time>
      </trkpt>
      <trkpt lat="42.69743" lon="0.66825">
        <ele>2079.5</ele>
        <time>2018-08-08T16:55:55.000Z</time>
      </trkpt>
      <trkpt lat="42.69743" lon="0.66825">
        <ele>2079.5</ele>
        <time>2018-08-08T16:55:56.000Z</time>
      </trkpt>
      <trkpt lat="42.69743" lon="0.66825">
        <ele>2079.5</ele>
        <time>2018-08-08T16:55:57.000Z</time>
      </trkpt>
      <trkpt lat="42.69743" lon="0.66825">
        <ele>2079.5</ele>
        <time>2018-08-08T16:55:58.000Z</time>
      </trkpt>
      <trkpt lat="42.69743" lon="0.66825">
        <ele>2079.5</ele>
        <time>2018-08-08T16:55:59.000Z</time>
      </trkpt>
      <trkpt lat="42.69743" lon="0.66825">
        <ele>2079.5</ele>
        <time>2018-08-08T16:56:00.000Z</time>
      </trkpt>
      <trkpt lat="42.69743" lon="0.66825">
        <ele>2079.5</ele>
        <time>2018-08-08T16:56:01.000Z</time>
      </trkpt>
      <trkpt lat="42.69743" lon="0.66825">
        <ele>2079.5</ele>
        <time>2018-08-08T16:56:02.000Z</time>
      </trkpt>
      <trkpt lat="42.69743" lon="0.66825">
        <ele>2079.5</ele>
        <time>2018-08-08T16:56:03.000Z</time>
      </trkpt>
      <trkpt lat="42.69743" lon="0.66825">
        <ele>2079.5</ele>
        <time>2018-08-08T16:56:04.000Z</time>
      </trkpt>
      <trkpt lat="42.69743" lon="0.66825">
        <ele>2079.5</ele>
        <time>2018-08-08T16:56:05.000Z</time>
      </trkpt>
      <trkpt lat="42.69743" lon="0.66825">
        <ele>2079.5</ele>
        <time>2018-08-08T16:56:06.000Z</time>
      </trkpt>
      <trkpt lat="42.69743" lon="0.66825">
        <ele>2079.5</ele>
        <time>2018-08-08T16:56:07.000Z</time>
      </trkpt>
      <trkpt lat="42.69743" lon="0.66825">
        <ele>2079.5</ele>
        <time>2018-08-08T16:56:08.000Z</time>
      </trkpt>
      <trkpt lat="42.69743" lon="0.66825">
        <ele>2079.5</ele>
        <time>2018-08-08T16:56:09.000Z</time>
      </trkpt>
      <trkpt lat="42.69743" lon="0.66825">
        <ele>2079.5</ele>
        <time>2018-08-08T16:56:10.000Z</time>
      </trkpt>
      <trkpt lat="42.69743" lon="0.66825">
        <ele>2079.5</ele>
        <time>2018-08-08T16:56:11.000Z</time>
      </trkpt>
      <trkpt lat="42.69743" lon="0.66825">
        <ele>2079.5</ele>
        <time>2018-08-08T16:56:12.000Z</time>
      </trkpt>
      <trkpt lat="42.69743" lon="0.66825">
        <ele>2079.5</ele>
        <time>2018-08-08T16:56:13.000Z</time>
      </trkpt>
      <trkpt lat="42.69743" lon="0.66825">
        <ele>2079.5</ele>
        <time>2018-08-08T16:56:14.000Z</time>
      </trkpt>
      <trkpt lat="42.69743" lon="0.66825">
        <ele>2079.5</ele>
        <time>2018-08-08T16:56:15.000Z</time>
      </trkpt>
      <trkpt lat="42.69743" lon="0.66825">
        <ele>2079.5</ele>
        <time>2018-08-08T16:56:16.000Z</time>
      </trkpt>
      <trkpt lat="42.69743" lon="0.66825">
        <ele>2079.5</ele>
        <time>2018-08-08T16:56:17.000Z</time>
      </trkpt>
      <trkpt lat="42.69743" lon="0.66825">
        <ele>2079.5</ele>
        <time>2018-08-08T16:56:18.000Z</time>
      </trkpt>
      <trkpt lat="42.69743" lon="0.66825">
        <ele>2079.5</ele>
        <time>2018-08-08T16:56:19.000Z</time>
      </trkpt>
      <trkpt lat="42.69743" lon="0.66825">
        <ele>2079.5</ele>
        <time>2018-08-08T16:56:20.000Z</time>
      </trkpt>
      <trkpt lat="42.69743" lon="0.66825">
        <ele>2079.5</ele>
        <time>2018-08-08T16:56:21.000Z</time>
      </trkpt>
      <trkpt lat="42.69743" lon="0.66825">
        <ele>2079.5</ele>
        <time>2018-08-08T16:56:22.000Z</time>
      </trkpt>
      <trkpt lat="42.69743" lon="0.66825">
        <ele>2079.5</ele>
        <time>2018-08-08T16:56:23.000Z</time>
      </trkpt>
      <trkpt lat="42.69743" lon="0.66825">
        <ele>2079.5</ele>
        <time>2018-08-08T16:56:24.000Z</time>
      </trkpt>
      <trkpt lat="42.69743" lon="0.66825">
        <ele>2079.5</ele>
        <time>2018-08-08T16:56:25.000Z</time>
      </trkpt>
      <trkpt lat="42.69743" lon="0.66825">
        <ele>2079.5</ele>
        <time>2018-08-08T16:56:26.000Z</time>
      </trkpt>
      <trkpt lat="42.69743" lon="0.66825">
        <ele>2079.5</ele>
        <time>2018-08-08T16:56:27.000Z</time>
      </trkpt>
      <trkpt lat="42.69743" lon="0.66825">
        <ele>2079.5</ele>
        <time>2018-08-08T16:56:28.000Z</time>
      </trkpt>
      <trkpt lat="42.69743" lon="0.66825">
        <ele>2079.5</ele>
        <time>2018-08-08T16:56:29.000Z</time>
      </trkpt>
      <trkpt lat="42.69743" lon="0.66825">
        <ele>2079.5</ele>
        <time>2018-08-08T16:56:30.000Z</time>
      </trkpt>
      <trkpt lat="42.69743" lon="0.66825">
        <ele>2079.5</ele>
        <time>2018-08-08T16:56:31.000Z</time>
      </trkpt>
      <trkpt lat="42.69743" lon="0.66825">
        <ele>2079.5</ele>
        <time>2018-08-08T16:56:32.000Z</time>
      </trkpt>
      <trkpt lat="42.69743" lon="0.66825">
        <ele>2079.5</ele>
        <time>2018-08-08T16:56:33.000Z</time>
      </trkpt>
      <trkpt lat="42.69743" lon="0.66825">
        <ele>2079.5</ele>
        <time>2018-08-08T16:56:34.000Z</time>
      </trkpt>
      <trkpt lat="42.69743" lon="0.66825">
        <ele>2079.5</ele>
        <time>2018-08-08T16:56:35.000Z</time>
      </trkpt>
      <trkpt lat="42.69743" lon="0.66825">
        <ele>2079.5</ele>
        <time>2018-08-08T16:56:36.000Z</time>
      </trkpt>
      <trkpt lat="42.69743" lon="0.66825">
        <ele>2079.5</ele>
        <time>2018-08-08T16:56:37.000Z</time>
      </trkpt>
      <trkpt lat="42.69743" lon="0.66825">
        <ele>2079.5</ele>
        <time>2018-08-08T16:56:38.000Z</time>
      </trkpt>
      <trkpt lat="42.69743" lon="0.66825">
        <ele>2079.5</ele>
        <time>2018-08-08T16:56:39.000Z</time>
      </trkpt>
      <trkpt lat="42.69743" lon="0.66825">
        <ele>2079.5</ele>
        <time>2018-08-08T16:56:40.000Z</time>
      </trkpt>
      <trkpt lat="42.69743" lon="0.66825">
        <ele>2079.5</ele>
        <time>2018-08-08T16:56:41.000Z</time>
      </trkpt>
      <trkpt lat="42.69743" lon="0.66825">
        <ele>2079.5</ele>
        <time>2018-08-08T16:56:42.000Z</time>
      </trkpt>
      <trkpt lat="42.69743" lon="0.66825">
        <ele>2079.5</ele>
        <time>2018-08-08T16:56:43.000Z</time>
      </trkpt>
      <trkpt lat="42.69743" lon="0.66825">
        <ele>2079.5</ele>
        <time>2018-08-08T16:56:44.000Z</time>
      </trkpt>
      <trkpt lat="42.69743" lon="0.66825">
        <ele>2079.5</ele>
        <time>2018-08-08T16:56:45.000Z</time>
      </trkpt>
      <trkpt lat="42.69743" lon="0.66825">
        <ele>2079.5</ele>
        <time>2018-08-08T16:56:46.000Z</time>
      </trkpt>
      <trkpt lat="42.69743" lon="0.66825">
        <ele>2079.5</ele>
        <time>2018-08-08T16:56:47.000Z</time>
      </trkpt>
      <trkpt lat="42.69743" lon="0.66825">
        <ele>2079.5</ele>
        <time>2018-08-08T16:56:48.000Z</time>
      </trkpt>
      <trkpt lat="42.69743" lon="0.66825">
        <ele>2079.5</ele>
        <time>2018-08-08T16:56:49.000Z</time>
      </trkpt>
      <trkpt lat="42.69743" lon="0.66825">
        <ele>2079.5</ele>
        <time>2018-08-08T16:56:50.000Z</time>
      </trkpt>
      <trkpt lat="42.69743" lon="0.66825">
        <ele>2079.5</ele>
        <time>2018-08-08T16:56:51.000Z</time>
      </trkpt>
      <trkpt lat="42.69743" lon="0.66825">
        <ele>2079.5</ele>
        <time>2018-08-08T16:56:52.000Z</time>
      </trkpt>
      <trkpt lat="42.69743" lon="0.66825">
        <ele>2079.5</ele>
        <time>2018-08-08T16:56:53.000Z</time>
      </trkpt>
      <trkpt lat="42.69743" lon="0.66825">
        <ele>2079.5</ele>
        <time>2018-08-08T16:56:54.000Z</time>
      </trkpt>
      <trkpt lat="42.69743" lon="0.66825">
        <ele>2079.5</ele>
        <time>2018-08-08T16:56:55.000Z</time>
      </trkpt>
      <trkpt lat="42.69743" lon="0.66825">
        <ele>2079.5</ele>
        <time>2018-08-08T16:56:56.000Z</time>
      </trkpt>
      <trkpt lat="42.69743" lon="0.66825">
        <ele>2079.5</ele>
        <time>2018-08-08T16:56:57.000Z</time>
      </trkpt>
      <trkpt lat="42.69743" lon="0.66825">
        <ele>2079.5</ele>
        <time>2018-08-08T16:56:58.000Z</time>
      </trkpt>
      <trkpt lat="42.69743" lon="0.66825">
        <ele>2079.5</ele>
        <time>2018-08-08T16:56:59.000Z</time>
      </trkpt>
      <trkpt lat="42.69743" lon="0.66825">
        <ele>2079.5</ele>
        <time>2018-08-08T16:57:00.000Z</time>
      </trkpt>
      <trkpt lat="42.69743" lon="0.66825">
        <ele>2079.5</ele>
        <time>2018-08-08T16:57:01.000Z</time>
      </trkpt>
      <trkpt lat="42.69743" lon="0.66825">
        <ele>2079.5</ele>
        <time>2018-08-08T16:57:02.000Z</time>
      </trkpt>
      <trkpt lat="42.69743" lon="0.66825">
        <ele>2079.5</ele>
        <time>2018-08-08T16:57:03.000Z</time>
      </trkpt>
      <trkpt lat="42.69743" lon="0.66825">
        <ele>2079.5</ele>
        <time>2018-08-08T16:57:04.000Z</time>
      </trkpt>
      <trkpt lat="42.69743" lon="0.66825">
        <ele>2079.5</ele>
        <time>2018-08-08T16:57:05.000Z</time>
      </trkpt>
      <trkpt lat="42.69743" lon="0.66825">
        <ele>2079.5</ele>
        <time>2018-08-08T16:57:06.000Z</time>
      </trkpt>
      <trkpt lat="42.69743" lon="0.66825">
        <ele>2079.5</ele>
        <time>2018-08-08T16:57:07.000Z</time>
      </trkpt>
      <trkpt lat="42.69743" lon="0.66825">
        <ele>2079.5</ele>
        <time>2018-08-08T16:57:08.000Z</time>
      </trkpt>
      <trkpt lat="42.69743" lon="0.66825">
        <ele>2079.5</ele>
        <time>2018-08-08T16:57:09.000Z</time>
      </trkpt>
      <trkpt lat="42.69743" lon="0.66825">
        <ele>2079.5</ele>
        <time>2018-08-08T16:57:10.000Z</time>
      </trkpt>
      <trkpt lat="42.69743" lon="0.66825">
        <ele>2079.5</ele>
        <time>2018-08-08T16:57:11.000Z</time>
      </trkpt>
      <trkpt lat="42.69743" lon="0.66825">
        <ele>2079.5</ele>
        <time>2018-08-08T16:57:12.000Z</time>
      </trkpt>
      <trkpt lat="42.69743" lon="0.66825">
        <ele>2079.5</ele>
        <time>2018-08-08T16:57:13.000Z</time>
      </trkpt>
      <trkpt lat="42.69743" lon="0.66825">
        <ele>2079.5</ele>
        <time>2018-08-08T16:57:14.000Z</time>
      </trkpt>
      <trkpt lat="42.69743" lon="0.66825">
        <ele>2079.5</ele>
        <time>2018-08-08T16:57:15.000Z</time>
      </trkpt>
      <trkpt lat="42.69743" lon="0.66825">
        <ele>2079.5</ele>
        <time>2018-08-08T16:57:16.000Z</time>
      </trkpt>
      <trkpt lat="42.69743" lon="0.66825">
        <ele>2079.5</ele>
        <time>2018-08-08T16:57:17.000Z</time>
      </trkpt>
      <trkpt lat="42.69743" lon="0.66825">
        <ele>2079.5</ele>
        <time>2018-08-08T16:57:18.000Z</time>
      </trkpt>
      <trkpt lat="42.69743" lon="0.66825">
        <ele>2079.5</ele>
        <time>2018-08-08T16:57:19.000Z</time>
      </trkpt>
      <trkpt lat="42.69743" lon="0.66825">
        <ele>2079.5</ele>
        <time>2018-08-08T16:57:20.000Z</time>
      </trkpt>
      <trkpt lat="42.69743" lon="0.66825">
        <ele>2079.5</ele>
        <time>2018-08-08T16:57:21.000Z</time>
      </trkpt>
      <trkpt lat="42.69743" lon="0.66825">
        <ele>2079.5</ele>
        <time>2018-08-08T16:57:22.000Z</time>
      </trkpt>
      <trkpt lat="42.69743" lon="0.66825">
        <ele>2079.5</ele>
        <time>2018-08-08T16:57:23.000Z</time>
      </trkpt>
      <trkpt lat="42.69743" lon="0.66825">
        <ele>2079.5</ele>
        <time>2018-08-08T16:57:24.000Z</time>
      </trkpt>
      <trkpt lat="42.69743" lon="0.66825">
        <ele>2079.5</ele>
        <time>2018-08-08T16:57:25.000Z</time>
      </trkpt>
      <trkpt lat="42.69743" lon="0.66825">
        <ele>2079.5</ele>
        <time>2018-08-08T16:57:26.000Z</time>
      </trkpt>
      <trkpt lat="42.69743" lon="0.66825">
        <ele>2079.5</ele>
        <time>2018-08-08T16:57:27.000Z</time>
      </trkpt>
      <trkpt lat="42.69743" lon="0.66825">
        <ele>2079.5</ele>
        <time>2018-08-08T16:57:28.000Z</time>
      </trkpt>
      <trkpt lat="42.69743" lon="0.66825">
        <ele>2079.5</ele>
        <time>2018-08-08T16:57:29.000Z</time>
      </trkpt>
      <trkpt lat="42.69743" lon="0.66825">
        <ele>2079.5</ele>
        <time>2018-08-08T16:57:30.000Z</time>
      </trkpt>
      <trkpt lat="42.69743" lon="0.66825">
        <ele>2079.5</ele>
        <time>2018-08-08T16:57:31.000Z</time>
      </trkpt>
      <trkpt lat="42.69743" lon="0.66825">
        <ele>2079.5</ele>
        <time>2018-08-08T16:57:32.000Z</time>
      </trkpt>
      <trkpt lat="42.69743" lon="0.66825">
        <ele>2079.5</ele>
        <time>2018-08-08T16:57:33.000Z</time>
      </trkpt>
      <trkpt lat="42.69743" lon="0.66825">
        <ele>2079.5</ele>
        <time>2018-08-08T16:57:34.000Z</time>
      </trkpt>
      <trkpt lat="42.69743" lon="0.66825">
        <ele>2079.5</ele>
        <time>2018-08-08T16:57:35.000Z</time>
      </trkpt>
      <trkpt lat="42.69743" lon="0.66825">
        <ele>2079.5</ele>
        <time>2018-08-08T16:57:36.000Z</time>
      </trkpt>
      <trkpt lat="42.69743" lon="0.66825">
        <ele>2079.5</ele>
        <time>2018-08-08T16:57:37.000Z</time>
      </trkpt>
      <trkpt lat="42.69743" lon="0.66825">
        <ele>2079.5</ele>
        <time>2018-08-08T16:57:38.000Z</time>
      </trkpt>
      <trkpt lat="42.69743" lon="0.66825">
        <ele>2079.5</ele>
        <time>2018-08-08T16:57:39.000Z</time>
      </trkpt>
      <trkpt lat="42.69743" lon="0.66825">
        <ele>2079.5</ele>
        <time>2018-08-08T16:57:40.000Z</time>
      </trkpt>
      <trkpt lat="42.69743" lon="0.66825">
        <ele>2079.5</ele>
        <time>2018-08-08T16:57:41.000Z</time>
      </trkpt>
      <trkpt lat="42.69743" lon="0.66825">
        <ele>2079.5</ele>
        <time>2018-08-08T16:57:42.000Z</time>
      </trkpt>
      <trkpt lat="42.69743" lon="0.66825">
        <ele>2079.5</ele>
        <time>2018-08-08T16:57:43.000Z</time>
      </trkpt>
      <trkpt lat="42.69743" lon="0.66825">
        <ele>2079.5</ele>
        <time>2018-08-08T16:57:44.000Z</time>
      </trkpt>
      <trkpt lat="42.69743" lon="0.66825">
        <ele>2079.5</ele>
        <time>2018-08-08T16:57:45.000Z</time>
      </trkpt>
      <trkpt lat="42.69743" lon="0.66825">
        <ele>2079.5</ele>
        <time>2018-08-08T16:57:46.000Z</time>
      </trkpt>
      <trkpt lat="42.69743" lon="0.66825">
        <ele>2079.5</ele>
        <time>2018-08-08T16:57:47.000Z</time>
      </trkpt>
      <trkpt lat="42.69743" lon="0.66825">
        <ele>2079.5</ele>
        <time>2018-08-08T16:57:48.000Z</time>
      </trkpt>
      <trkpt lat="42.69743" lon="0.66825">
        <ele>2079.5</ele>
        <time>2018-08-08T16:57:49.000Z</time>
      </trkpt>
      <trkpt lat="42.69743" lon="0.66825">
        <ele>2079.5</ele>
        <time>2018-08-08T16:57:50.000Z</time>
      </trkpt>
      <trkpt lat="42.69743" lon="0.66825">
        <ele>2079.5</ele>
        <time>2018-08-08T16:57:51.000Z</time>
      </trkpt>
      <trkpt lat="42.69743" lon="0.66825">
        <ele>2079.5</ele>
        <time>2018-08-08T16:57:52.000Z</time>
      </trkpt>
      <trkpt lat="42.69743" lon="0.66825">
        <ele>2079.5</ele>
        <time>2018-08-08T16:57:53.000Z</time>
      </trkpt>
      <trkpt lat="42.69743" lon="0.66825">
        <ele>2079.5</ele>
        <time>2018-08-08T16:57:54.000Z</time>
      </trkpt>
      <trkpt lat="42.69743" lon="0.66825">
        <ele>2079.5</ele>
        <time>2018-08-08T16:57:55.000Z</time>
      </trkpt>
      <trkpt lat="42.69743" lon="0.66825">
        <ele>2079.5</ele>
        <time>2018-08-08T16:57:56.000Z</time>
      </trkpt>
      <trkpt lat="42.69743" lon="0.66825">
        <ele>2079.5</ele>
        <time>2018-08-08T16:57:57.000Z</time>
      </trkpt>
      <trkpt lat="42.69743" lon="0.66825">
        <ele>2079.5</ele>
        <time>2018-08-08T16:57:58.000Z</time>
      </trkpt>
      <trkpt lat="42.69743" lon="0.66825">
        <ele>2079.5</ele>
        <time>2018-08-08T16:57:59.000Z</time>
      </trkpt>
      <trkpt lat="42.69743" lon="0.66825">
        <ele>2079.5</ele>
        <time>2018-08-08T16:58:00.000Z</time>
      </trkpt>
      <trkpt lat="42.69743" lon="0.66825">
        <ele>2079.5</ele>
        <time>2018-08-08T16:58:01.000Z</time>
      </trkpt>
      <trkpt lat="42.69743" lon="0.66825">
        <ele>2079.5</ele>
        <time>2018-08-08T16:58:02.000Z</time>
      </trkpt>
      <trkpt lat="42.69743" lon="0.66825">
        <ele>2079.5</ele>
        <time>2018-08-08T16:58:03.000Z</time>
      </trkpt>
      <trkpt lat="42.69743" lon="0.66825">
        <ele>2079.5</ele>
        <time>2018-08-08T16:58:04.000Z</time>
      </trkpt>
      <trkpt lat="42.69743" lon="0.66825">
        <ele>2079.5</ele>
        <time>2018-08-08T16:58:05.000Z</time>
      </trkpt>
      <trkpt lat="42.69743" lon="0.66825">
        <ele>2079.5</ele>
        <time>2018-08-08T16:58:06.000Z</time>
      </trkpt>
      <trkpt lat="42.69743" lon="0.66825">
        <ele>2079.5</ele>
        <time>2018-08-08T16:58:07.000Z</time>
      </trkpt>
      <trkpt lat="42.69743" lon="0.66825">
        <ele>2079.5</ele>
        <time>2018-08-08T16:58:08.000Z</time>
      </trkpt>
      <trkpt lat="42.69743" lon="0.66825">
        <ele>2079.5</ele>
        <time>2018-08-08T16:58:09.000Z</time>
      </trkpt>
      <trkpt lat="42.69743" lon="0.66825">
        <ele>2079.5</ele>
        <time>2018-08-08T16:58:10.000Z</time>
      </trkpt>
      <trkpt lat="42.69743" lon="0.66825">
        <ele>2079.5</ele>
        <time>2018-08-08T16:58:11.000Z</time>
      </trkpt>
      <trkpt lat="42.69743" lon="0.66825">
        <ele>2079.5</ele>
        <time>2018-08-08T16:58:12.000Z</time>
      </trkpt>
      <trkpt lat="42.69743" lon="0.66825">
        <ele>2079.5</ele>
        <time>2018-08-08T16:58:13.000Z</time>
      </trkpt>
      <trkpt lat="42.69743" lon="0.66825">
        <ele>2079.5</ele>
        <time>2018-08-08T16:58:14.000Z</time>
      </trkpt>
      <trkpt lat="42.69743" lon="0.66825">
        <ele>2079.5</ele>
        <time>2018-08-08T16:58:15.000Z</time>
      </trkpt>
      <trkpt lat="42.69743" lon="0.66825">
        <ele>2079.5</ele>
        <time>2018-08-08T16:58:16.000Z</time>
      </trkpt>
      <trkpt lat="42.69743" lon="0.66825">
        <ele>2079.5</ele>
        <time>2018-08-08T16:58:17.000Z</time>
      </trkpt>
      <trkpt lat="42.69743" lon="0.66825">
        <ele>2079.5</ele>
        <time>2018-08-08T16:58:18.000Z</time>
      </trkpt>
      <trkpt lat="42.69743" lon="0.66825">
        <ele>2079.5</ele>
        <time>2018-08-08T16:58:19.000Z</time>
      </trkpt>
      <trkpt lat="42.69743" lon="0.66825">
        <ele>2079.5</ele>
        <time>2018-08-08T16:58:20.000Z</time>
      </trkpt>
      <trkpt lat="42.69743" lon="0.66825">
        <ele>2079.5</ele>
        <time>2018-08-08T16:58:21.000Z</time>
      </trkpt>
      <trkpt lat="42.69743" lon="0.66825">
        <ele>2079.5</ele>
        <time>2018-08-08T16:58:22.000Z</time>
      </trkpt>
      <trkpt lat="42.69743" lon="0.66825">
        <ele>2079.5</ele>
        <time>2018-08-08T16:58:23.000Z</time>
      </trkpt>
      <trkpt lat="42.69743" lon="0.66825">
        <ele>2079.5</ele>
        <time>2018-08-08T16:58:24.000Z</time>
      </trkpt>
      <trkpt lat="42.69743" lon="0.66825">
        <ele>2079.5</ele>
        <time>2018-08-08T16:58:25.000Z</time>
      </trkpt>
      <trkpt lat="42.69743" lon="0.66825">
        <ele>2079.5</ele>
        <time>2018-08-08T16:58:26.000Z</time>
      </trkpt>
      <trkpt lat="42.69743" lon="0.66825">
        <ele>2079.5</ele>
        <time>2018-08-08T16:58:27.000Z</time>
      </trkpt>
      <trkpt lat="42.69743" lon="0.66825">
        <ele>2079.5</ele>
        <time>2018-08-08T16:58:28.000Z</time>
      </trkpt>
      <trkpt lat="42.69743" lon="0.66825">
        <ele>2079.5</ele>
        <time>2018-08-08T16:58:29.000Z</time>
      </trkpt>
      <trkpt lat="42.69743" lon="0.66825">
        <ele>2079.5</ele>
        <time>2018-08-08T16:58:30.000Z</time>
      </trkpt>
      <trkpt lat="42.69743" lon="0.66825">
        <ele>2079.5</ele>
        <time>2018-08-08T16:58:31.000Z</time>
      </trkpt>
      <trkpt lat="42.69743" lon="0.66825">
        <ele>2079.5</ele>
        <time>2018-08-08T16:58:32.000Z</time>
      </trkpt>
      <trkpt lat="42.69743" lon="0.66825">
        <ele>2079.5</ele>
        <time>2018-08-08T16:58:33.000Z</time>
      </trkpt>
      <trkpt lat="42.69743" lon="0.66825">
        <ele>2079.5</ele>
        <time>2018-08-08T16:58:34.000Z</time>
      </trkpt>
      <trkpt lat="42.69743" lon="0.66825">
        <ele>2079.5</ele>
        <time>2018-08-08T16:58:35.000Z</time>
      </trkpt>
      <trkpt lat="42.69743" lon="0.66825">
        <ele>2079.5</ele>
        <time>2018-08-08T16:58:36.000Z</time>
      </trkpt>
      <trkpt lat="42.69743" lon="0.66825">
        <ele>2079.5</ele>
        <time>2018-08-08T16:58:37.000Z</time>
      </trkpt>
      <trkpt lat="42.69743" lon="0.66825">
        <ele>2079.5</ele>
        <time>2018-08-08T16:58:38.000Z</time>
      </trkpt>
      <trkpt lat="42.69743" lon="0.66825">
        <ele>2079.5</ele>
        <time>2018-08-08T16:58:39.000Z</time>
      </trkpt>
      <trkpt lat="42.69743" lon="0.66825">
        <ele>2079.5</ele>
        <time>2018-08-08T16:58:40.000Z</time>
      </trkpt>
      <trkpt lat="42.69743" lon="0.66825">
        <ele>2079.5</ele>
        <time>2018-08-08T16:58:41.000Z</time>
      </trkpt>
      <trkpt lat="42.69743" lon="0.66825">
        <ele>2079.5</ele>
        <time>2018-08-08T16:58:42.000Z</time>
      </trkpt>
      <trkpt lat="42.69743" lon="0.66825">
        <ele>2079.5</ele>
        <time>2018-08-08T16:58:43.000Z</time>
      </trkpt>
      <trkpt lat="42.69743" lon="0.66825">
        <ele>2079.5</ele>
        <time>2018-08-08T16:58:44.000Z</time>
      </trkpt>
      <trkpt lat="42.69743" lon="0.66825">
        <ele>2079.5</ele>
        <time>2018-08-08T16:58:45.000Z</time>
      </trkpt>
      <trkpt lat="42.69743" lon="0.66825">
        <ele>2079.5</ele>
        <time>2018-08-08T16:58:46.000Z</time>
      </trkpt>
      <trkpt lat="42.69743" lon="0.66825">
        <ele>2079.5</ele>
        <time>2018-08-08T16:58:47.000Z</time>
      </trkpt>
      <trkpt lat="42.69743" lon="0.66825">
        <ele>2079.5</ele>
        <time>2018-08-08T16:58:48.000Z</time>
      </trkpt>
      <trkpt lat="42.69743" lon="0.66825">
        <ele>2079.5</ele>
        <time>2018-08-08T16:58:49.000Z</time>
      </trkpt>
      <trkpt lat="42.69743" lon="0.66825">
        <ele>2079.5</ele>
        <time>2018-08-08T16:58:50.000Z</time>
      </trkpt>
      <trkpt lat="42.69743" lon="0.66825">
        <ele>2079.5</ele>
        <time>2018-08-08T16:58:51.000Z</time>
      </trkpt>
      <trkpt lat="42.69743" lon="0.66825">
        <ele>2079.5</ele>
        <time>2018-08-08T16:58:52.000Z</time>
      </trkpt>
      <trkpt lat="42.69743" lon="0.66825">
        <ele>2079.5</ele>
        <time>2018-08-08T16:58:53.000Z</time>
      </trkpt>
      <trkpt lat="42.69743" lon="0.66825">
        <ele>2079.5</ele>
        <time>2018-08-08T16:58:54.000Z</time>
      </trkpt>
      <trkpt lat="42.69743" lon="0.66825">
        <ele>2079.5</ele>
        <time>2018-08-08T16:58:55.000Z</time>
      </trkpt>
      <trkpt lat="42.69743" lon="0.66825">
        <ele>2079.5</ele>
        <time>2018-08-08T16:58:56.000Z</time>
      </trkpt>
      <trkpt lat="42.69743" lon="0.66825">
        <ele>2079.5</ele>
        <time>2018-08-08T16:58:57.000Z</time>
      </trkpt>
      <trkpt lat="42.69743" lon="0.66825">
        <ele>2079.5</ele>
        <time>2018-08-08T16:58:58.000Z</time>
      </trkpt>
      <trkpt lat="42.69743" lon="0.66825">
        <ele>2079.5</ele>
        <time>2018-08-08T16:58:59.000Z</time>
      </trkpt>
      <trkpt lat="42.69743" lon="0.66825">
        <ele>2079.5</ele>
        <time>2018-08-08T16:59:00.000Z</time>
      </trkpt>
      <trkpt lat="42.69743" lon="0.66825">
        <ele>2079.5</ele>
        <time>2018-08-08T16:59:01.000Z</time>
      </trkpt>
      <trkpt lat="42.69743" lon="0.66825">
        <ele>2079.5</ele>
        <time>2018-08-08T16:59:02.000Z</time>
      </trkpt>
      <trkpt lat="42.69743" lon="0.66825">
        <ele>2079.5</ele>
        <time>2018-08-08T16:59:03.000Z</time>
      </trkpt>
      <trkpt lat="42.69743" lon="0.66825">
        <ele>2079.5</ele>
        <time>2018-08-08T16:59:04.000Z</time>
      </trkpt>
      <trkpt lat="42.69743" lon="0.66825">
        <ele>2079.5</ele>
        <time>2018-08-08T16:59:05.000Z</time>
      </trkpt>
      <trkpt lat="42.69743" lon="0.66825">
        <ele>2079.5</ele>
        <time>2018-08-08T16:59:06.000Z</time>
      </trkpt>
      <trkpt lat="42.69743" lon="0.66825">
        <ele>2079.5</ele>
        <time>2018-08-08T16:59:07.000Z</time>
      </trkpt>
      <trkpt lat="42.69743" lon="0.66825">
        <ele>2079.5</ele>
        <time>2018-08-08T16:59:08.000Z</time>
      </trkpt>
      <trkpt lat="42.69743" lon="0.66825">
        <ele>2079.5</ele>
        <time>2018-08-08T16:59:09.000Z</time>
      </trkpt>
      <trkpt lat="42.69743" lon="0.66825">
        <ele>2079.5</ele>
        <time>2018-08-08T16:59:10.000Z</time>
      </trkpt>
      <trkpt lat="42.69743" lon="0.66825">
        <ele>2079.5</ele>
        <time>2018-08-08T16:59:11.000Z</time>
      </trkpt>
      <trkpt lat="42.69743" lon="0.66825">
        <ele>2079.5</ele>
        <time>2018-08-08T16:59:12.000Z</time>
      </trkpt>
      <trkpt lat="42.69743" lon="0.66825">
        <ele>2079.5</ele>
        <time>2018-08-08T16:59:13.000Z</time>
      </trkpt>
      <trkpt lat="42.69743" lon="0.66825">
        <ele>2079.5</ele>
        <time>2018-08-08T16:59:14.000Z</time>
      </trkpt>
      <trkpt lat="42.69743" lon="0.66825">
        <ele>2079.5</ele>
        <time>2018-08-08T16:59:15.000Z</time>
      </trkpt>
      <trkpt lat="42.69743" lon="0.66825">
        <ele>2079.5</ele>
        <time>2018-08-08T16:59:16.000Z</time>
      </trkpt>
      <trkpt lat="42.69743" lon="0.66825">
        <ele>2079.5</ele>
        <time>2018-08-08T16:59:17.000Z</time>
      </trkpt>
      <trkpt lat="42.69743" lon="0.66825">
        <ele>2079.5</ele>
        <time>2018-08-08T16:59:18.000Z</time>
      </trkpt>
      <trkpt lat="42.69743" lon="0.66825">
        <ele>2079.5</ele>
        <time>2018-08-08T16:59:19.000Z</time>
      </trkpt>
      <trkpt lat="42.69743" lon="0.66825">
        <ele>2079.5</ele>
        <time>2018-08-08T16:59:20.000Z</time>
      </trkpt>
      <trkpt lat="42.69743" lon="0.66825">
        <ele>2079.5</ele>
        <time>2018-08-08T16:59:21.000Z</time>
      </trkpt>
      <trkpt lat="42.69743" lon="0.66825">
        <ele>2079.5</ele>
        <time>2018-08-08T16:59:22.000Z</time>
      </trkpt>
      <trkpt lat="42.69743" lon="0.66825">
        <ele>2079.5</ele>
        <time>2018-08-08T16:59:23.000Z</time>
      </trkpt>
      <trkpt lat="42.69743" lon="0.66825">
        <ele>2079.5</ele>
        <time>2018-08-08T16:59:24.000Z</time>
      </trkpt>
      <trkpt lat="42.69743" lon="0.66825">
        <ele>2079.5</ele>
        <time>2018-08-08T16:59:25.000Z</time>
      </trkpt>
      <trkpt lat="42.69743" lon="0.66825">
        <ele>2079.5</ele>
        <time>2018-08-08T16:59:26.000Z</time>
      </trkpt>
      <trkpt lat="42.69743" lon="0.66825">
        <ele>2079.5</ele>
        <time>2018-08-08T16:59:27.000Z</time>
      </trkpt>
      <trkpt lat="42.69743" lon="0.66825">
        <ele>2079.5</ele>
        <time>2018-08-08T16:59:28.000Z</time>
      </trkpt>
      <trkpt lat="42.69743" lon="0.66825">
        <ele>2079.5</ele>
        <time>2018-08-08T16:59:29.000Z</time>
      </trkpt>
      <trkpt lat="42.69743" lon="0.66825">
        <ele>2079.5</ele>
        <time>2018-08-08T16:59:30.000Z</time>
      </trkpt>
      <trkpt lat="42.69743" lon="0.66825">
        <ele>2079.5</ele>
        <time>2018-08-08T16:59:31.000Z</time>
      </trkpt>
      <trkpt lat="42.69743" lon="0.66825">
        <ele>2079.5</ele>
        <time>2018-08-08T16:59:32.000Z</time>
      </trkpt>
      <trkpt lat="42.69743" lon="0.66825">
        <ele>2079.5</ele>
        <time>2018-08-08T16:59:33.000Z</time>
      </trkpt>
      <trkpt lat="42.69743" lon="0.66825">
        <ele>2079.5</ele>
        <time>2018-08-08T16:59:34.000Z</time>
      </trkpt>
      <trkpt lat="42.69743" lon="0.66825">
        <ele>2079.5</ele>
        <time>2018-08-08T16:59:35.000Z</time>
      </trkpt>
      <trkpt lat="42.69743" lon="0.66825">
        <ele>2079.5</ele>
        <time>2018-08-08T16:59:36.000Z</time>
      </trkpt>
      <trkpt lat="42.69743" lon="0.66825">
        <ele>2079.5</ele>
        <time>2018-08-08T16:59:37.000Z</time>
      </trkpt>
      <trkpt lat="42.69743" lon="0.66825">
        <ele>2079.5</ele>
        <time>2018-08-08T16:59:38.000Z</time>
      </trkpt>
      <trkpt lat="42.69743" lon="0.66825">
        <ele>2079.5</ele>
        <time>2018-08-08T16:59:39.000Z</time>
      </trkpt>
      <trkpt lat="42.69743" lon="0.66825">
        <ele>2079.5</ele>
        <time>2018-08-08T16:59:40.000Z</time>
      </trkpt>
      <trkpt lat="42.69743" lon="0.66825">
        <ele>2079.5</ele>
        <time>2018-08-08T16:59:41.000Z</time>
      </trkpt>
      <trkpt lat="42.69743" lon="0.66825">
        <ele>2079.5</ele>
        <time>2018-08-08T16:59:42.000Z</time>
      </trkpt>
      <trkpt lat="42.69743" lon="0.66825">
        <ele>2079.5</ele>
        <time>2018-08-08T16:59:43.000Z</time>
      </trkpt>
      <trkpt lat="42.69743" lon="0.66825">
        <ele>2079.5</ele>
        <time>2018-08-08T16:59:44.000Z</time>
      </trkpt>
      <trkpt lat="42.69743" lon="0.66825">
        <ele>2079.5</ele>
        <time>2018-08-08T16:59:45.000Z</time>
      </trkpt>
      <trkpt lat="42.69743" lon="0.66825">
        <ele>2079.5</ele>
        <time>2018-08-08T16:59:46.000Z</time>
      </trkpt>
      <trkpt lat="42.69743" lon="0.66825">
        <ele>2079.5</ele>
        <time>2018-08-08T16:59:47.000Z</time>
      </trkpt>
      <trkpt lat="42.69743" lon="0.66825">
        <ele>2079.5</ele>
        <time>2018-08-08T16:59:48.000Z</time>
      </trkpt>
      <trkpt lat="42.69743" lon="0.66825">
        <ele>2079.5</ele>
        <time>2018-08-08T16:59:49.000Z</time>
      </trkpt>
      <trkpt lat="42.69743" lon="0.66825">
        <ele>2079.5</ele>
        <time>2018-08-08T16:59:50.000Z</time>
      </trkpt>
      <trkpt lat="42.69743" lon="0.66825">
        <ele>2079.5</ele>
        <time>2018-08-08T16:59:51.000Z</time>
      </trkpt>
      <trkpt lat="42.69743" lon="0.66825">
        <ele>2079.5</ele>
        <time>2018-08-08T16:59:52.000Z</time>
      </trkpt>
      <trkpt lat="42.69743" lon="0.66825">
        <ele>2079.5</ele>
        <time>2018-08-08T16:59:53.000Z</time>
      </trkpt>
      <trkpt lat="42.69743" lon="0.66825">
        <ele>2079.5</ele>
        <time>2018-08-08T16:59:54.000Z</time>
      </trkpt>
      <trkpt lat="42.69743" lon="0.66825">
        <ele>2079.5</ele>
        <time>2018-08-08T16:59:55.000Z</time>
      </trkpt>
      <trkpt lat="42.69743" lon="0.66825">
        <ele>2079.5</ele>
        <time>2018-08-08T16:59:56.000Z</time>
      </trkpt>
      <trkpt lat="42.69743" lon="0.66825">
        <ele>2079.5</ele>
        <time>2018-08-08T16:59:57.000Z</time>
      </trkpt>
      <trkpt lat="42.69743" lon="0.66825">
        <ele>2079.5</ele>
        <time>2018-08-08T16:59:58.000Z</time>
      </trkpt>
      <trkpt lat="42.69743" lon="0.66825">
        <ele>2079.5</ele>
        <time>2018-08-08T16:59:59.000Z</time>
      </trkpt>
      <trkpt lat="42.69743" lon="0.66825">
        <ele>2079.5</ele>
        <time>2018-08-08T17:00:00.000Z</time>
      </trkpt>
      <trkpt lat="42.69743" lon="0.66825">
        <ele>2079.5</ele>
        <time>2018-08-08T17:00:01.000Z</time>
      </trkpt>
      <trkpt lat="42.69743" lon="0.66825">
        <ele>2079.5</ele>
        <time>2018-08-08T17:00:02.000Z</time>
      </trkpt>
      <trkpt lat="42.69743" lon="0.66825">
        <ele>2079.5</ele>
        <time>2018-08-08T17:00:03.000Z</time>
      </trkpt>
      <trkpt lat="42.69743" lon="0.66825">
        <ele>2079.5</ele>
        <time>2018-08-08T17:00:04.000Z</time>
      </trkpt>
      <trkpt lat="42.69743" lon="0.66825">
        <ele>2079.5</ele>
        <time>2018-08-08T17:00:05.000Z</time>
      </trkpt>
      <trkpt lat="42.69743" lon="0.66825">
        <ele>2079.5</ele>
        <time>2018-08-08T17:00:06.000Z</time>
      </trkpt>
      <trkpt lat="42.69743" lon="0.66825">
        <ele>2079.5</ele>
        <time>2018-08-08T17:00:07.000Z</time>
      </trkpt>
      <trkpt lat="42.69743" lon="0.66825">
        <ele>2079.5</ele>
        <time>2018-08-08T17:00:08.000Z</time>
      </trkpt>
      <trkpt lat="42.69743" lon="0.66825">
        <ele>2079.5</ele>
        <time>2018-08-08T17:00:09.000Z</time>
      </trkpt>
      <trkpt lat="42.69743" lon="0.66825">
        <ele>2079.5</ele>
        <time>2018-08-08T17:00:10.000Z</time>
      </trkpt>
      <trkpt lat="42.69743" lon="0.66825">
        <ele>2079.5</ele>
        <time>2018-08-08T17:00:11.000Z</time>
      </trkpt>
      <trkpt lat="42.69743" lon="0.66825">
        <ele>2079.5</ele>
        <time>2018-08-08T17:00:12.000Z</time>
      </trkpt>
      <trkpt lat="42.69743" lon="0.66825">
        <ele>2079.5</ele>
        <time>2018-08-08T17:00:13.000Z</time>
      </trkpt>
      <trkpt lat="42.69743" lon="0.66825">
        <ele>2079.5</ele>
        <time>2018-08-08T17:00:14.000Z</time>
      </trkpt>
      <trkpt lat="42.69743" lon="0.66825">
        <ele>2079.5</ele>
        <time>2018-08-08T17:00:15.000Z</time>
      </trkpt>
      <trkpt lat="42.69743" lon="0.66825">
        <ele>2079.5</ele>
        <time>2018-08-08T17:00:16.000Z</time>
      </trkpt>
      <trkpt lat="42.69743" lon="0.66825">
        <ele>2079.5</ele>
        <time>2018-08-08T17:00:17.000Z</time>
      </trkpt>
      <trkpt lat="42.69743" lon="0.66825">
        <ele>2079.5</ele>
        <time>2018-08-08T17:00:18.000Z</time>
      </trkpt>
      <trkpt lat="42.69743" lon="0.66825">
        <ele>2079.5</ele>
        <time>2018-08-08T17:00:19.000Z</time>
      </trkpt>
      <trkpt lat="42.69743" lon="0.66825">
        <ele>2079.5</ele>
        <time>2018-08-08T17:00:20.000Z</time>
      </trkpt>
      <trkpt lat="42.69743" lon="0.66825">
        <ele>2079.5</ele>
        <time>2018-08-08T17:00:21.000Z</time>
      </trkpt>
      <trkpt lat="42.69743" lon="0.66825">
        <ele>2079.5</ele>
        <time>2018-08-08T17:00:22.000Z</time>
      </trkpt>
      <trkpt lat="42.69743" lon="0.66825">
        <ele>2079.5</ele>
        <time>2018-08-08T17:00:23.000Z</time>
      </trkpt>
      <trkpt lat="42.69743" lon="0.66825">
        <ele>2079.5</ele>
        <time>2018-08-08T17:00:24.000Z</time>
      </trkpt>
      <trkpt lat="42.69743" lon="0.66825">
        <ele>2079.5</ele>
        <time>2018-08-08T17:00:25.000Z</time>
      </trkpt>
      <trkpt lat="42.69743" lon="0.66825">
        <ele>2079.5</ele>
        <time>2018-08-08T17:00:26.000Z</time>
      </trkpt>
      <trkpt lat="42.69743" lon="0.66825">
        <ele>2079.5</ele>
        <time>2018-08-08T17:00:27.000Z</time>
      </trkpt>
      <trkpt lat="42.69743" lon="0.66825">
        <ele>2079.5</ele>
        <time>2018-08-08T17:00:28.000Z</time>
      </trkpt>
      <trkpt lat="42.69743" lon="0.66825">
        <ele>2079.5</ele>
        <time>2018-08-08T17:00:29.000Z</time>
      </trkpt>
      <trkpt lat="42.69743" lon="0.66825">
        <ele>2079.5</ele>
        <time>2018-08-08T17:00:30.000Z</time>
      </trkpt>
      <trkpt lat="42.69743" lon="0.66825">
        <ele>2079.5</ele>
        <time>2018-08-08T17:00:31.000Z</time>
      </trkpt>
      <trkpt lat="42.69743" lon="0.66825">
        <ele>2079.5</ele>
        <time>2018-08-08T17:00:32.000Z</time>
      </trkpt>
      <trkpt lat="42.69743" lon="0.66825">
        <ele>2079.5</ele>
        <time>2018-08-08T17:00:33.000Z</time>
      </trkpt>
      <trkpt lat="42.69743" lon="0.66825">
        <ele>2079.5</ele>
        <time>2018-08-08T17:00:34.000Z</time>
      </trkpt>
      <trkpt lat="42.69743" lon="0.66825">
        <ele>2079.5</ele>
        <time>2018-08-08T17:00:35.000Z</time>
      </trkpt>
      <trkpt lat="42.69743" lon="0.66825">
        <ele>2079.5</ele>
        <time>2018-08-08T17:00:36.000Z</time>
      </trkpt>
      <trkpt lat="42.69743" lon="0.66825">
        <ele>2079.5</ele>
        <time>2018-08-08T17:00:37.000Z</time>
      </trkpt>
      <trkpt lat="42.69743" lon="0.66825">
        <ele>2079.5</ele>
        <time>2018-08-08T17:00:38.000Z</time>
      </trkpt>
      <trkpt lat="42.69743" lon="0.66825">
        <ele>2079.5</ele>
        <time>2018-08-08T17:00:39.000Z</time>
      </trkpt>
      <trkpt lat="42.69743" lon="0.66825">
        <ele>2079.5</ele>
        <time>2018-08-08T17:00:40.000Z</time>
      </trkpt>
      <trkpt lat="42.69743" lon="0.66825">
        <ele>2079.5</ele>
        <time>2018-08-08T17:00:41.000Z</time>
      </trkpt>
      <trkpt lat="42.69743" lon="0.66825">
        <ele>2079.5</ele>
        <time>2018-08-08T17:00:42.000Z</time>
      </trkpt>
      <trkpt lat="42.69743" lon="0.66825">
        <ele>2079.5</ele>
        <time>2018-08-08T17:00:43.000Z</time>
      </trkpt>
      <trkpt lat="42.69743" lon="0.66825">
        <ele>2079.5</ele>
        <time>2018-08-08T17:00:44.000Z</time>
      </trkpt>
      <trkpt lat="42.69743" lon="0.66825">
        <ele>2079.5</ele>
        <time>2018-08-08T17:00:45.000Z</time>
      </trkpt>
      <trkpt lat="42.69743" lon="0.66825">
        <ele>2079.5</ele>
        <time>2018-08-08T17:00:46.000Z</time>
      </trkpt>
      <trkpt lat="42.69743" lon="0.66825">
        <ele>2079.5</ele>
        <time>2018-08-08T17:00:47.000Z</time>
      </trkpt>
      <trkpt lat="42.69743" lon="0.66825">
        <ele>2079.5</ele>
        <time>2018-08-08T17:00:48.000Z</time>
      </trkpt>
      <trkpt lat="42.69743" lon="0.66825">
        <ele>2079.5</ele>
        <time>2018-08-08T17:00:49.000Z</time>
      </trkpt>
      <trkpt lat="42.69743" lon="0.66825">
        <ele>2079.5</ele>
        <time>2018-08-08T17:00:50.000Z</time>
      </trkpt>
      <trkpt lat="42.69743" lon="0.66825">
        <ele>2079.5</ele>
        <time>2018-08-08T17:00:51.000Z</time>
      </trkpt>
      <trkpt lat="42.69743" lon="0.66825">
        <ele>2079.5</ele>
        <time>2018-08-08T17:00:52.000Z</time>
      </trkpt>
      <trkpt lat="42.69743" lon="0.66825">
        <ele>2079.5</ele>
        <time>2018-08-08T17:00:53.000Z</time>
      </trkpt>
      <trkpt lat="42.69743" lon="0.66825">
        <ele>2079.5</ele>
        <time>2018-08-08T17:00:54.000Z</time>
      </trkpt>
      <trkpt lat="42.69743" lon="0.66825">
        <ele>2079.5</ele>
        <time>2018-08-08T17:00:55.000Z</time>
      </trkpt>
      <trkpt lat="42.69743" lon="0.66825">
        <ele>2079.5</ele>
        <time>2018-08-08T17:00:56.000Z</time>
      </trkpt>
      <trkpt lat="42.69743" lon="0.66825">
        <ele>2079.5</ele>
        <time>2018-08-08T17:00:57.000Z</time>
      </trkpt>
      <trkpt lat="42.69743" lon="0.66825">
        <ele>2079.5</ele>
        <time>2018-08-08T17:00:58.000Z</time>
      </trkpt>
      <trkpt lat="42.69743" lon="0.66825">
        <ele>2079.5</ele>
        <time>2018-08-08T17:00:59.000Z</time>
      </trkpt>
      <trkpt lat="42.69743" lon="0.66825">
        <ele>2079.5</ele>
        <time>2018-08-08T17:01:00.000Z</time>
      </trkpt>
      <trkpt lat="42.69743" lon="0.66825">
        <ele>2079.5</ele>
        <time>2018-08-08T17:01:01.000Z</time>
      </trkpt>
      <trkpt lat="42.69743" lon="0.66825">
        <ele>2079.5</ele>
        <time>2018-08-08T17:01:02.000Z</time>
      </trkpt>
      <trkpt lat="42.69743" lon="0.66825">
        <ele>2079.5</ele>
        <time>2018-08-08T17:01:03.000Z</time>
      </trkpt>
      <trkpt lat="42.69743" lon="0.66825">
        <ele>2079.5</ele>
        <time>2018-08-08T17:01:04.000Z</time>
      </trkpt>
      <trkpt lat="42.69743" lon="0.66825">
        <ele>2079.5</ele>
        <time>2018-08-08T17:01:05.000Z</time>
      </trkpt>
      <trkpt lat="42.69743" lon="0.66825">
        <ele>2079.5</ele>
        <time>2018-08-08T17:01:06.000Z</time>
      </trkpt>
      <trkpt lat="42.69743" lon="0.66825">
        <ele>2079.5</ele>
        <time>2018-08-08T17:01:07.000Z</time>
      </trkpt>
      <trkpt lat="42.69743" lon="0.66825">
        <ele>2079.5</ele>
        <time>2018-08-08T17:01:08.000Z</time>
      </trkpt>
      <trkpt lat="42.69743" lon="0.66825">
        <ele>2079.5</ele>
        <time>2018-08-08T17:01:09.000Z</time>
      </trkpt>
      <trkpt lat="42.69743" lon="0.66825">
        <ele>2079.5</ele>
        <time>2018-08-08T17:01:10.000Z</time>
      </trkpt>
      <trkpt lat="42.69743" lon="0.66825">
        <ele>2079.5</ele>
        <time>2018-08-08T17:01:11.000Z</time>
      </trkpt>
      <trkpt lat="42.69743" lon="0.66825">
        <ele>2079.5</ele>
        <time>2018-08-08T17:01:12.000Z</time>
      </trkpt>
      <trkpt lat="42.69743" lon="0.66825">
        <ele>2079.5</ele>
        <time>2018-08-08T17:01:13.000Z</time>
      </trkpt>
      <trkpt lat="42.69743" lon="0.66825">
        <ele>2079.5</ele>
        <time>2018-08-08T17:01:14.000Z</time>
      </trkpt>
      <trkpt lat="42.69743" lon="0.66825">
        <ele>2079.5</ele>
        <time>2018-08-08T17:01:15.000Z</time>
      </trkpt>
      <trkpt lat="42.69743" lon="0.66825">
        <ele>2079.5</ele>
        <time>2018-08-08T17:01:16.000Z</time>
      </trkpt>
      <trkpt lat="42.69743" lon="0.66825">
        <ele>2079.5</ele>
        <time>2018-08-08T17:01:17.000Z</time>
      </trkpt>
      <trkpt lat="42.69743" lon="0.66825">
        <ele>2079.5</ele>
        <time>2018-08-08T17:01:18.000Z</time>
      </trkpt>
      <trkpt lat="42.69743" lon="0.66825">
        <ele>2079.5</ele>
        <time>2018-08-08T17:01:19.000Z</time>
      </trkpt>
      <trkpt lat="42.69743" lon="0.66825">
        <ele>2079.5</ele>
        <time>2018-08-08T17:01:20.000Z</time>
      </trkpt>
      <trkpt lat="42.69743" lon="0.66825">
        <ele>2079.5</ele>
        <time>2018-08-08T17:01:21.000Z</time>
      </trkpt>
      <trkpt lat="42.69743" lon="0.66825">
        <ele>2079.5</ele>
        <time>2018-08-08T17:01:22.000Z</time>
      </trkpt>
      <trkpt lat="42.69743" lon="0.66825">
        <ele>2079.5</ele>
        <time>2018-08-08T17:01:23.000Z</time>
      </trkpt>
      <trkpt lat="42.69743" lon="0.66825">
        <ele>2079.5</ele>
        <time>2018-08-08T17:01:24.000Z</time>
      </trkpt>
      <trkpt lat="42.69743" lon="0.66825">
        <ele>2079.5</ele>
        <time>2018-08-08T17:01:25.000Z</time>
      </trkpt>
      <trkpt lat="42.69743" lon="0.66825">
        <ele>2079.5</ele>
        <time>2018-08-08T17:01:26.000Z</time>
      </trkpt>
      <trkpt lat="42.69743" lon="0.66825">
        <ele>2079.5</ele>
        <time>2018-08-08T17:01:27.000Z</time>
      </trkpt>
      <trkpt lat="42.69743" lon="0.66825">
        <ele>2079.5</ele>
        <time>2018-08-08T17:01:28.000Z</time>
      </trkpt>
      <trkpt lat="42.69743" lon="0.66825">
        <ele>2079.5</ele>
        <time>2018-08-08T17:01:29.000Z</time>
      </trkpt>
      <trkpt lat="42.69743" lon="0.66825">
        <ele>2079.5</ele>
        <time>2018-08-08T17:01:30.000Z</time>
      </trkpt>
      <trkpt lat="42.69743" lon="0.66825">
        <ele>2079.5</ele>
        <time>2018-08-08T17:01:31.000Z</time>
      </trkpt>
      <trkpt lat="42.69743" lon="0.66825">
        <ele>2079.5</ele>
        <time>2018-08-08T17:01:32.000Z</time>
      </trkpt>
      <trkpt lat="42.69743" lon="0.66825">
        <ele>2079.5</ele>
        <time>2018-08-08T17:01:33.000Z</time>
      </trkpt>
      <trkpt lat="42.69743" lon="0.66825">
        <ele>2079.5</ele>
        <time>2018-08-08T17:01:34.000Z</time>
      </trkpt>
      <trkpt lat="42.69743" lon="0.66825">
        <ele>2079.5</ele>
        <time>2018-08-08T17:01:35.000Z</time>
      </trkpt>
      <trkpt lat="42.69743" lon="0.66825">
        <ele>2079.5</ele>
        <time>2018-08-08T17:01:36.000Z</time>
      </trkpt>
      <trkpt lat="42.69743" lon="0.66825">
        <ele>2079.5</ele>
        <time>2018-08-08T17:01:37.000Z</time>
      </trkpt>
      <trkpt lat="42.69743" lon="0.66825">
        <ele>2079.5</ele>
        <time>2018-08-08T17:01:38.000Z</time>
      </trkpt>
      <trkpt lat="42.69743" lon="0.66825">
        <ele>2079.5</ele>
        <time>2018-08-08T17:01:39.000Z</time>
      </trkpt>
      <trkpt lat="42.69743" lon="0.66825">
        <ele>2079.5</ele>
        <time>2018-08-08T17:01:40.000Z</time>
      </trkpt>
      <trkpt lat="42.69743" lon="0.66825">
        <ele>2079.5</ele>
        <time>2018-08-08T17:01:41.000Z</time>
      </trkpt>
      <trkpt lat="42.69743" lon="0.66825">
        <ele>2079.5</ele>
        <time>2018-08-08T17:01:42.000Z</time>
      </trkpt>
      <trkpt lat="42.69743" lon="0.66825">
        <ele>2079.5</ele>
        <time>2018-08-08T17:01:43.000Z</time>
      </trkpt>
      <trkpt lat="42.69743" lon="0.66825">
        <ele>2079.5</ele>
        <time>2018-08-08T17:01:44.000Z</time>
      </trkpt>
      <trkpt lat="42.69743" lon="0.66825">
        <ele>2079.5</ele>
        <time>2018-08-08T17:01:45.000Z</time>
      </trkpt>
      <trkpt lat="42.69743" lon="0.66825">
        <ele>2079.5</ele>
        <time>2018-08-08T17:01:46.000Z</time>
      </trkpt>
      <trkpt lat="42.69743" lon="0.66825">
        <ele>2079.5</ele>
        <time>2018-08-08T17:01:47.000Z</time>
      </trkpt>
      <trkpt lat="42.69743" lon="0.66825">
        <ele>2079.5</ele>
        <time>2018-08-08T17:01:48.000Z</time>
      </trkpt>
      <trkpt lat="42.69743" lon="0.66825">
        <ele>2079.5</ele>
        <time>2018-08-08T17:01:49.000Z</time>
      </trkpt>
      <trkpt lat="42.69743" lon="0.66825">
        <ele>2079.5</ele>
        <time>2018-08-08T17:01:50.000Z</time>
      </trkpt>
      <trkpt lat="42.69743" lon="0.66825">
        <ele>2079.5</ele>
        <time>2018-08-08T17:01:51.000Z</time>
      </trkpt>
      <trkpt lat="42.69743" lon="0.66825">
        <ele>2079.5</ele>
        <time>2018-08-08T17:01:52.000Z</time>
      </trkpt>
      <trkpt lat="42.69743" lon="0.66825">
        <ele>2079.5</ele>
        <time>2018-08-08T17:01:53.000Z</time>
      </trkpt>
      <trkpt lat="42.69743" lon="0.66825">
        <ele>2079.5</ele>
        <time>2018-08-08T17:01:54.000Z</time>
      </trkpt>
      <trkpt lat="42.69743" lon="0.66825">
        <ele>2079.5</ele>
        <time>2018-08-08T17:01:55.000Z</time>
      </trkpt>
      <trkpt lat="42.69743" lon="0.66825">
        <ele>2079.5</ele>
        <time>2018-08-08T17:01:56.000Z</time>
      </trkpt>
      <trkpt lat="42.69743" lon="0.66825">
        <ele>2079.5</ele>
        <time>2018-08-08T17:01:57.000Z</time>
      </trkpt>
      <trkpt lat="42.69743" lon="0.66825">
        <ele>2079.5</ele>
        <time>2018-08-08T17:01:58.000Z</time>
      </trkpt>
      <trkpt lat="42.69743" lon="0.66825">
        <ele>2079.5</ele>
        <time>2018-08-08T17:01:59.000Z</time>
      </trkpt>
      <trkpt lat="42.69743" lon="0.66825">
        <ele>2079.5</ele>
        <time>2018-08-08T17:02:00.000Z</time>
      </trkpt>
      <trkpt lat="42.69743" lon="0.66825">
        <ele>2079.5</ele>
        <time>2018-08-08T17:02:01.000Z</time>
      </trkpt>
      <trkpt lat="42.69743" lon="0.66825">
        <ele>2079.5</ele>
        <time>2018-08-08T17:02:02.000Z</time>
      </trkpt>
      <trkpt lat="42.69743" lon="0.66825">
        <ele>2079.5</ele>
        <time>2018-08-08T17:02:03.000Z</time>
      </trkpt>
      <trkpt lat="42.69743" lon="0.66825">
        <ele>2079.5</ele>
        <time>2018-08-08T17:02:04.000Z</time>
      </trkpt>
      <trkpt lat="42.69743" lon="0.66825">
        <ele>2079.5</ele>
        <time>2018-08-08T17:02:05.000Z</time>
      </trkpt>
      <trkpt lat="42.69743" lon="0.66825">
        <ele>2079.5</ele>
        <time>2018-08-08T17:02:06.000Z</time>
      </trkpt>
      <trkpt lat="42.69743" lon="0.66825">
        <ele>2079.5</ele>
        <time>2018-08-08T17:02:07.000Z</time>
      </trkpt>
      <trkpt lat="42.69743" lon="0.66825">
        <ele>2079.5</ele>
        <time>2018-08-08T17:02:08.000Z</time>
      </trkpt>
      <trkpt lat="42.69743" lon="0.66825">
        <ele>2079.5</ele>
        <time>2018-08-08T17:02:09.000Z</time>
      </trkpt>
      <trkpt lat="42.69743" lon="0.66825">
        <ele>2079.5</ele>
        <time>2018-08-08T17:02:10.000Z</time>
      </trkpt>
      <trkpt lat="42.69743" lon="0.66825">
        <ele>2079.5</ele>
        <time>2018-08-08T17:02:11.000Z</time>
      </trkpt>
      <trkpt lat="42.69743" lon="0.66825">
        <ele>2079.5</ele>
        <time>2018-08-08T17:02:12.000Z</time>
      </trkpt>
      <trkpt lat="42.69743" lon="0.66825">
        <ele>2079.5</ele>
        <time>2018-08-08T17:02:13.000Z</time>
      </trkpt>
      <trkpt lat="42.69743" lon="0.66825">
        <ele>2079.5</ele>
        <time>2018-08-08T17:02:14.000Z</time>
      </trkpt>
      <trkpt lat="42.69743" lon="0.66825">
        <ele>2079.5</ele>
        <time>2018-08-08T17:02:15.000Z</time>
      </trkpt>
      <trkpt lat="42.69743" lon="0.66825">
        <ele>2079.5</ele>
        <time>2018-08-08T17:02:16.000Z</time>
      </trkpt>
      <trkpt lat="42.69743" lon="0.66825">
        <ele>2079.5</ele>
        <time>2018-08-08T17:02:17.000Z</time>
      </trkpt>
      <trkpt lat="42.69743" lon="0.66825">
        <ele>2079.5</ele>
        <time>2018-08-08T17:02:18.000Z</time>
      </trkpt>
      <trkpt lat="42.69743" lon="0.66825">
        <ele>2079.5</ele>
        <time>2018-08-08T17:02:19.000Z</time>
      </trkpt>
      <trkpt lat="42.69743" lon="0.66825">
        <ele>2079.5</ele>
        <time>2018-08-08T17:02:20.000Z</time>
      </trkpt>
      <trkpt lat="42.69743" lon="0.66825">
        <ele>2079.5</ele>
        <time>2018-08-08T17:02:21.000Z</time>
      </trkpt>
      <trkpt lat="42.69743" lon="0.66825">
        <ele>2079.5</ele>
        <time>2018-08-08T17:02:22.000Z</time>
      </trkpt>
      <trkpt lat="42.69743" lon="0.66825">
        <ele>2079.5</ele>
        <time>2018-08-08T17:02:23.000Z</time>
      </trkpt>
      <trkpt lat="42.69743" lon="0.66825">
        <ele>2079.5</ele>
        <time>2018-08-08T17:02:24.000Z</time>
      </trkpt>
      <trkpt lat="42.69743" lon="0.66825">
        <ele>2079.5</ele>
        <time>2018-08-08T17:02:25.000Z</time>
      </trkpt>
      <trkpt lat="42.69743" lon="0.66825">
        <ele>2079.5</ele>
        <time>2018-08-08T17:02:26.000Z</time>
      </trkpt>
      <trkpt lat="42.69743" lon="0.66825">
        <ele>2079.5</ele>
        <time>2018-08-08T17:02:27.000Z</time>
      </trkpt>
      <trkpt lat="42.69743" lon="0.66825">
        <ele>2079.5</ele>
        <time>2018-08-08T17:02:28.000Z</time>
      </trkpt>
      <trkpt lat="42.69743" lon="0.66825">
        <ele>2079.5</ele>
        <time>2018-08-08T17:02:29.000Z</time>
      </trkpt>
      <trkpt lat="42.69743" lon="0.66825">
        <ele>2079.5</ele>
        <time>2018-08-08T17:02:30.000Z</time>
      </trkpt>
      <trkpt lat="42.69743" lon="0.66825">
        <ele>2079.5</ele>
        <time>2018-08-08T17:02:31.000Z</time>
      </trkpt>
      <trkpt lat="42.69743" lon="0.66825">
        <ele>2079.5</ele>
        <time>2018-08-08T17:02:32.000Z</time>
      </trkpt>
      <trkpt lat="42.69743" lon="0.66825">
        <ele>2079.5</ele>
        <time>2018-08-08T17:02:33.000Z</time>
      </trkpt>
      <trkpt lat="42.69743" lon="0.66825">
        <ele>2079.5</ele>
        <time>2018-08-08T17:02:34.000Z</time>
      </trkpt>
      <trkpt lat="42.69743" lon="0.66825">
        <ele>2079.5</ele>
        <time>2018-08-08T17:02:35.000Z</time>
      </trkpt>
      <trkpt lat="42.69743" lon="0.66825">
        <ele>2079.5</ele>
        <time>2018-08-08T17:02:36.000Z</time>
      </trkpt>
      <trkpt lat="42.69743" lon="0.66825">
        <ele>2079.5</ele>
        <time>2018-08-08T17:02:37.000Z</time>
      </trkpt>
      <trkpt lat="42.69743" lon="0.66825">
        <ele>2079.5</ele>
        <time>2018-08-08T17:02:38.000Z</time>
      </trkpt>
      <trkpt lat="42.69743" lon="0.66825">
        <ele>2079.5</ele>
        <time>2018-08-08T17:02:39.000Z</time>
      </trkpt>
      <trkpt lat="42.69743" lon="0.66825">
        <ele>2079.5</ele>
        <time>2018-08-08T17:02:40.000Z</time>
      </trkpt>
      <trkpt lat="42.69743" lon="0.66825">
        <ele>2079.5</ele>
        <time>2018-08-08T17:02:41.000Z</time>
      </trkpt>
      <trkpt lat="42.69743" lon="0.66825">
        <ele>2079.5</ele>
        <time>2018-08-08T17:02:42.000Z</time>
      </trkpt>
      <trkpt lat="42.69743" lon="0.66825">
        <ele>2079.5</ele>
        <time>2018-08-08T17:02:43.000Z</time>
      </trkpt>
      <trkpt lat="42.69743" lon="0.66825">
        <ele>2079.5</ele>
        <time>2018-08-08T17:02:44.000Z</time>
      </trkpt>
      <trkpt lat="42.69743" lon="0.66825">
        <ele>2079.5</ele>
        <time>2018-08-08T17:02:45.000Z</time>
      </trkpt>
      <trkpt lat="42.69743" lon="0.66825">
        <ele>2079.5</ele>
        <time>2018-08-08T17:02:46.000Z</time>
      </trkpt>
      <trkpt lat="42.69743" lon="0.66825">
        <ele>2079.5</ele>
        <time>2018-08-08T17:02:47.000Z</time>
      </trkpt>
      <trkpt lat="42.69743" lon="0.66825">
        <ele>2079.5</ele>
        <time>2018-08-08T17:02:48.000Z</time>
      </trkpt>
      <trkpt lat="42.69743" lon="0.66825">
        <ele>2079.5</ele>
        <time>2018-08-08T17:02:49.000Z</time>
      </trkpt>
      <trkpt lat="42.69743" lon="0.66825">
        <ele>2079.5</ele>
        <time>2018-08-08T17:02:50.000Z</time>
      </trkpt>
      <trkpt lat="42.69743" lon="0.66825">
        <ele>2079.5</ele>
        <time>2018-08-08T17:02:51.000Z</time>
      </trkpt>
      <trkpt lat="42.69743" lon="0.66825">
        <ele>2079.5</ele>
        <time>2018-08-08T17:02:52.000Z</time>
      </trkpt>
      <trkpt lat="42.69743" lon="0.66825">
        <ele>2079.5</ele>
        <time>2018-08-08T17:02:53.000Z</time>
      </trkpt>
      <trkpt lat="42.69743" lon="0.66825">
        <ele>2079.5</ele>
        <time>2018-08-08T17:02:54.000Z</time>
      </trkpt>
      <trkpt lat="42.69743" lon="0.66825">
        <ele>2079.5</ele>
        <time>2018-08-08T17:02:55.000Z</time>
      </trkpt>
      <trkpt lat="42.69743" lon="0.66825">
        <ele>2079.5</ele>
        <time>2018-08-08T17:02:56.000Z</time>
      </trkpt>
      <trkpt lat="42.69743" lon="0.66825">
        <ele>2079.5</ele>
        <time>2018-08-08T17:02:57.000Z</time>
      </trkpt>
      <trkpt lat="42.69743" lon="0.66825">
        <ele>2079.5</ele>
        <time>2018-08-08T17:02:58.000Z</time>
      </trkpt>
      <trkpt lat="42.69743" lon="0.66825">
        <ele>2079.5</ele>
        <time>2018-08-08T17:02:59.000Z</time>
      </trkpt>
      <trkpt lat="42.69743" lon="0.66825">
        <ele>2079.5</ele>
        <time>2018-08-08T17:03:00.000Z</time>
      </trkpt>
      <trkpt lat="42.69743" lon="0.66825">
        <ele>2079.5</ele>
        <time>2018-08-08T17:03:01.000Z</time>
      </trkpt>
      <trkpt lat="42.69743" lon="0.66825">
        <ele>2079.5</ele>
        <time>2018-08-08T17:03:02.000Z</time>
      </trkpt>
      <trkpt lat="42.69743" lon="0.66825">
        <ele>2079.5</ele>
        <time>2018-08-08T17:03:03.000Z</time>
      </trkpt>
      <trkpt lat="42.69743" lon="0.66825">
        <ele>2079.5</ele>
        <time>2018-08-08T17:03:04.000Z</time>
      </trkpt>
      <trkpt lat="42.69743" lon="0.66825">
        <ele>2079.5</ele>
        <time>2018-08-08T17:03:05.000Z</time>
      </trkpt>
      <trkpt lat="42.69743" lon="0.66825">
        <ele>2079.5</ele>
        <time>2018-08-08T17:03:06.000Z</time>
      </trkpt>
      <trkpt lat="42.69743" lon="0.66825">
        <ele>2079.5</ele>
        <time>2018-08-08T17:03:07.000Z</time>
      </trkpt>
      <trkpt lat="42.69743" lon="0.66825">
        <ele>2079.5</ele>
        <time>2018-08-08T17:03:08.000Z</time>
      </trkpt>
      <trkpt lat="42.69743" lon="0.66825">
        <ele>2079.5</ele>
        <time>2018-08-08T17:03:09.000Z</time>
      </trkpt>
      <trkpt lat="42.69743" lon="0.66825">
        <ele>2079.5</ele>
        <time>2018-08-08T17:03:10.000Z</time>
      </trkpt>
      <trkpt lat="42.69743" lon="0.66825">
        <ele>2079.5</ele>
        <time>2018-08-08T17:03:11.000Z</time>
      </trkpt>
      <trkpt lat="42.69743" lon="0.66825">
        <ele>2079.5</ele>
        <time>2018-08-08T17:03:12.000Z</time>
      </trkpt>
      <trkpt lat="42.69743" lon="0.66825">
        <ele>2079.5</ele>
        <time>2018-08-08T17:03:13.000Z</time>
      </trkpt>
      <trkpt lat="42.69743" lon="0.66825">
        <ele>2079.5</ele>
        <time>2018-08-08T17:03:14.000Z</time>
      </trkpt>
      <trkpt lat="42.69743" lon="0.66825">
        <ele>2079.5</ele>
        <time>2018-08-08T17:03:15.000Z</time>
      </trkpt>
      <trkpt lat="42.69743" lon="0.66825">
        <ele>2079.5</ele>
        <time>2018-08-08T17:03:16.000Z</time>
      </trkpt>
      <trkpt lat="42.69743" lon="0.66825">
        <ele>2079.5</ele>
        <time>2018-08-08T17:03:17.000Z</time>
      </trkpt>
      <trkpt lat="42.69743" lon="0.66825">
        <ele>2079.5</ele>
        <time>2018-08-08T17:03:18.000Z</time>
      </trkpt>
      <trkpt lat="42.69743" lon="0.66825">
        <ele>2079.5</ele>
        <time>2018-08-08T17:03:19.000Z</time>
      </trkpt>
      <trkpt lat="42.69743" lon="0.66825">
        <ele>2079.5</ele>
        <time>2018-08-08T17:03:20.000Z</time>
      </trkpt>
      <trkpt lat="42.69743" lon="0.66825">
        <ele>2079.5</ele>
        <time>2018-08-08T17:03:21.000Z</time>
      </trkpt>
      <trkpt lat="42.69743" lon="0.66825">
        <ele>2079.5</ele>
        <time>2018-08-08T17:03:22.000Z</time>
      </trkpt>
      <trkpt lat="42.69743" lon="0.66825">
        <ele>2079.5</ele>
        <time>2018-08-08T17:03:23.000Z</time>
      </trkpt>
      <trkpt lat="42.69743" lon="0.66825">
        <ele>2079.5</ele>
        <time>2018-08-08T17:03:24.000Z</time>
      </trkpt>
      <trkpt lat="42.69743" lon="0.66825">
        <ele>2079.5</ele>
        <time>2018-08-08T17:03:25.000Z</time>
      </trkpt>
      <trkpt lat="42.69743" lon="0.66825">
        <ele>2079.5</ele>
        <time>2018-08-08T17:03:26.000Z</time>
      </trkpt>
      <trkpt lat="42.69743" lon="0.66825">
        <ele>2079.5</ele>
        <time>2018-08-08T17:03:27.000Z</time>
      </trkpt>
      <trkpt lat="42.69743" lon="0.66825">
        <ele>2079.5</ele>
        <time>2018-08-08T17:03:28.000Z</time>
      </trkpt>
      <trkpt lat="42.69743" lon="0.66825">
        <ele>2079.5</ele>
        <time>2018-08-08T17:03:29.000Z</time>
      </trkpt>
      <trkpt lat="42.69743" lon="0.66825">
        <ele>2079.5</ele>
        <time>2018-08-08T17:03:30.000Z</time>
      </trkpt>
      <trkpt lat="42.69743" lon="0.66825">
        <ele>2079.5</ele>
        <time>2018-08-08T17:03:31.000Z</time>
      </trkpt>
      <trkpt lat="42.69743" lon="0.66825">
        <ele>2079.5</ele>
        <time>2018-08-08T17:03:32.000Z</time>
      </trkpt>
      <trkpt lat="42.69743" lon="0.66825">
        <ele>2079.5</ele>
        <time>2018-08-08T17:03:33.000Z</time>
      </trkpt>
      <trkpt lat="42.69743" lon="0.66825">
        <ele>2079.5</ele>
        <time>2018-08-08T17:03:34.000Z</time>
      </trkpt>
      <trkpt lat="42.69743" lon="0.66825">
        <ele>2079.5</ele>
        <time>2018-08-08T17:03:35.000Z</time>
      </trkpt>
      <trkpt lat="42.69743" lon="0.66825">
        <ele>2079.5</ele>
        <time>2018-08-08T17:03:36.000Z</time>
      </trkpt>
      <trkpt lat="42.69743" lon="0.66825">
        <ele>2079.5</ele>
        <time>2018-08-08T17:03:37.000Z</time>
      </trkpt>
      <trkpt lat="42.69743" lon="0.66825">
        <ele>2079.5</ele>
        <time>2018-08-08T17:03:38.000Z</time>
      </trkpt>
      <trkpt lat="42.69743" lon="0.66825">
        <ele>2079.5</ele>
        <time>2018-08-08T17:03:39.000Z</time>
      </trkpt>
      <trkpt lat="42.69743" lon="0.66825">
        <ele>2079.5</ele>
        <time>2018-08-08T17:03:40.000Z</time>
      </trkpt>
      <trkpt lat="42.69743" lon="0.66825">
        <ele>2079.5</ele>
        <time>2018-08-08T17:03:41.000Z</time>
      </trkpt>
      <trkpt lat="42.69743" lon="0.66825">
        <ele>2079.5</ele>
        <time>2018-08-08T17:03:42.000Z</time>
      </trkpt>
      <trkpt lat="42.69743" lon="0.66825">
        <ele>2079.5</ele>
        <time>2018-08-08T17:03:43.000Z</time>
      </trkpt>
      <trkpt lat="42.69743" lon="0.66825">
        <ele>2079.5</ele>
        <time>2018-08-08T17:03:44.000Z</time>
      </trkpt>
      <trkpt lat="42.69743" lon="0.66825">
        <ele>2079.5</ele>
        <time>2018-08-08T17:03:45.000Z</time>
      </trkpt>
      <trkpt lat="42.69743" lon="0.66825">
        <ele>2079.5</ele>
        <time>2018-08-08T17:03:46.000Z</time>
      </trkpt>
      <trkpt lat="42.69743" lon="0.66825">
        <ele>2079.5</ele>
        <time>2018-08-08T17:03:47.000Z</time>
      </trkpt>
      <trkpt lat="42.69743" lon="0.66825">
        <ele>2079.5</ele>
        <time>2018-08-08T17:03:48.000Z</time>
      </trkpt>
      <trkpt lat="42.69743" lon="0.66825">
        <ele>2079.5</ele>
        <time>2018-08-08T17:03:49.000Z</time>
      </trkpt>
      <trkpt lat="42.69743" lon="0.66825">
        <ele>2079.5</ele>
        <time>2018-08-08T17:03:50.000Z</time>
      </trkpt>
      <trkpt lat="42.69743" lon="0.66825">
        <ele>2079.5</ele>
        <time>2018-08-08T17:03:51.000Z</time>
      </trkpt>
      <trkpt lat="42.69743" lon="0.66825">
        <ele>2079.5</ele>
        <time>2018-08-08T17:03:52.000Z</time>
      </trkpt>
      <trkpt lat="42.69743" lon="0.66825">
        <ele>2079.5</ele>
        <time>2018-08-08T17:03:53.000Z</time>
      </trkpt>
      <trkpt lat="42.69743" lon="0.66825">
        <ele>2079.5</ele>
        <time>2018-08-08T17:03:54.000Z</time>
      </trkpt>
      <trkpt lat="42.69743" lon="0.66825">
        <ele>2079.5</ele>
        <time>2018-08-08T17:03:55.000Z</time>
      </trkpt>
      <trkpt lat="42.69743" lon="0.66825">
        <ele>2079.5</ele>
        <time>2018-08-08T17:03:56.000Z</time>
      </trkpt>
      <trkpt lat="42.69743" lon="0.66825">
        <ele>2079.5</ele>
        <time>2018-08-08T17:03:57.000Z</time>
      </trkpt>
      <trkpt lat="42.69743" lon="0.66825">
        <ele>2079.5</ele>
        <time>2018-08-08T17:03:58.000Z</time>
      </trkpt>
      <trkpt lat="42.69743" lon="0.66825">
        <ele>2079.5</ele>
        <time>2018-08-08T17:03:59.000Z</time>
      </trkpt>
      <trkpt lat="42.69743" lon="0.66825">
        <ele>2079.5</ele>
        <time>2018-08-08T17:04:00.000Z</time>
      </trkpt>
      <trkpt lat="42.69743" lon="0.66825">
        <ele>2079.5</ele>
        <time>2018-08-08T17:04:01.000Z</time>
      </trkpt>
      <trkpt lat="42.69743" lon="0.66825">
        <ele>2079.5</ele>
        <time>2018-08-08T17:04:02.000Z</time>
      </trkpt>
      <trkpt lat="42.69743" lon="0.66825">
        <ele>2079.5</ele>
        <time>2018-08-08T17:04:03.000Z</time>
      </trkpt>
      <trkpt lat="42.69743" lon="0.66825">
        <ele>2079.5</ele>
        <time>2018-08-08T17:04:04.000Z</time>
      </trkpt>
      <trkpt lat="42.69743" lon="0.66825">
        <ele>2079.5</ele>
        <time>2018-08-08T17:04:05.000Z</time>
      </trkpt>
      <trkpt lat="42.69743" lon="0.66825">
        <ele>2079.5</ele>
        <time>2018-08-08T17:04:06.000Z</time>
      </trkpt>
      <trkpt lat="42.69743" lon="0.66825">
        <ele>2079.5</ele>
        <time>2018-08-08T17:04:07.000Z</time>
      </trkpt>
      <trkpt lat="42.69743" lon="0.66825">
        <ele>2079.5</ele>
        <time>2018-08-08T17:04:08.000Z</time>
      </trkpt>
      <trkpt lat="42.69743" lon="0.66825">
        <ele>2079.5</ele>
        <time>2018-08-08T17:04:09.000Z</time>
      </trkpt>
      <trkpt lat="42.69743" lon="0.66825">
        <ele>2079.5</ele>
        <time>2018-08-08T17:04:10.000Z</time>
      </trkpt>
      <trkpt lat="42.69743" lon="0.66825">
        <ele>2079.5</ele>
        <time>2018-08-08T17:04:11.000Z</time>
      </trkpt>
      <trkpt lat="42.69743" lon="0.66825">
        <ele>2079.5</ele>
        <time>2018-08-08T17:04:12.000Z</time>
      </trkpt>
      <trkpt lat="42.69743" lon="0.66825">
        <ele>2079.5</ele>
        <time>2018-08-08T17:04:13.000Z</time>
      </trkpt>
      <trkpt lat="42.69743" lon="0.66825">
        <ele>2079.5</ele>
        <time>2018-08-08T17:04:14.000Z</time>
      </trkpt>
      <trkpt lat="42.69743" lon="0.66825">
        <ele>2079.5</ele>
        <time>2018-08-08T17:04:15.000Z</time>
      </trkpt>
      <trkpt lat="42.69743" lon="0.66825">
        <ele>2079.5</ele>
        <time>2018-08-08T17:04:16.000Z</time>
      </trkpt>
      <trkpt lat="42.69743" lon="0.66825">
        <ele>2079.5</ele>
        <time>2018-08-08T17:04:17.000Z</time>
      </trkpt>
      <trkpt lat="42.69743" lon="0.66825">
        <ele>2079.5</ele>
        <time>2018-08-08T17:04:18.000Z</time>
      </trkpt>
      <trkpt lat="42.69743" lon="0.66825">
        <ele>2079.5</ele>
        <time>2018-08-08T17:04:19.000Z</time>
      </trkpt>
      <trkpt lat="42.69743" lon="0.66825">
        <ele>2079.5</ele>
        <time>2018-08-08T17:04:20.000Z</time>
      </trkpt>
      <trkpt lat="42.69743" lon="0.66825">
        <ele>2079.5</ele>
        <time>2018-08-08T17:04:21.000Z</time>
      </trkpt>
      <trkpt lat="42.69743" lon="0.66825">
        <ele>2079.5</ele>
        <time>2018-08-08T17:04:22.000Z</time>
      </trkpt>
      <trkpt lat="42.69743" lon="0.66825">
        <ele>2079.5</ele>
        <time>2018-08-08T17:04:23.000Z</time>
      </trkpt>
      <trkpt lat="42.69743" lon="0.66825">
        <ele>2079.5</ele>
        <time>2018-08-08T17:04:24.000Z</time>
      </trkpt>
      <trkpt lat="42.69743" lon="0.66825">
        <ele>2079.5</ele>
        <time>2018-08-08T17:04:25.000Z</time>
      </trkpt>
      <trkpt lat="42.69743" lon="0.66825">
        <ele>2079.5</ele>
        <time>2018-08-08T17:04:26.000Z</time>
      </trkpt>
      <trkpt lat="42.69743" lon="0.66825">
        <ele>2079.5</ele>
        <time>2018-08-08T17:04:27.000Z</time>
      </trkpt>
      <trkpt lat="42.69743" lon="0.66825">
        <ele>2079.5</ele>
        <time>2018-08-08T17:04:28.000Z</time>
      </trkpt>
      <trkpt lat="42.69743" lon="0.66825">
        <ele>2079.5</ele>
        <time>2018-08-08T17:04:29.000Z</time>
      </trkpt>
      <trkpt lat="42.69743" lon="0.66825">
        <ele>2079.5</ele>
        <time>2018-08-08T17:04:30.000Z</time>
      </trkpt>
      <trkpt lat="42.69743" lon="0.66825">
        <ele>2079.5</ele>
        <time>2018-08-08T17:04:31.000Z</time>
      </trkpt>
      <trkpt lat="42.69743" lon="0.66825">
        <ele>2079.5</ele>
        <time>2018-08-08T17:04:32.000Z</time>
      </trkpt>
      <trkpt lat="42.69743" lon="0.66825">
        <ele>2079.5</ele>
        <time>2018-08-08T17:04:33.000Z</time>
      </trkpt>
      <trkpt lat="42.69743" lon="0.66825">
        <ele>2079.5</ele>
        <time>2018-08-08T17:04:34.000Z</time>
      </trkpt>
      <trkpt lat="42.69743" lon="0.66825">
        <ele>2079.5</ele>
        <time>2018-08-08T17:04:35.000Z</time>
      </trkpt>
      <trkpt lat="42.69743" lon="0.66825">
        <ele>2079.5</ele>
        <time>2018-08-08T17:04:36.000Z</time>
      </trkpt>
      <trkpt lat="42.69743" lon="0.66825">
        <ele>2079.5</ele>
        <time>2018-08-08T17:04:37.000Z</time>
      </trkpt>
      <trkpt lat="42.69743" lon="0.66825">
        <ele>2079.5</ele>
        <time>2018-08-08T17:04:38.000Z</time>
      </trkpt>
      <trkpt lat="42.69743" lon="0.66825">
        <ele>2079.5</ele>
        <time>2018-08-08T17:04:39.000Z</time>
      </trkpt>
      <trkpt lat="42.69743" lon="0.66825">
        <ele>2079.5</ele>
        <time>2018-08-08T17:04:40.000Z</time>
      </trkpt>
      <trkpt lat="42.69743" lon="0.66825">
        <ele>2079.5</ele>
        <time>2018-08-08T17:04:41.000Z</time>
      </trkpt>
      <trkpt lat="42.69743" lon="0.66825">
        <ele>2079.5</ele>
        <time>2018-08-08T17:04:42.000Z</time>
      </trkpt>
      <trkpt lat="42.69743" lon="0.66825">
        <ele>2079.5</ele>
        <time>2018-08-08T17:04:43.000Z</time>
      </trkpt>
      <trkpt lat="42.69743" lon="0.66825">
        <ele>2079.5</ele>
        <time>2018-08-08T17:04:44.000Z</time>
      </trkpt>
      <trkpt lat="42.69743" lon="0.66825">
        <ele>2079.5</ele>
        <time>2018-08-08T17:04:45.000Z</time>
      </trkpt>
      <trkpt lat="42.69743" lon="0.66825">
        <ele>2079.5</ele>
        <time>2018-08-08T17:04:46.000Z</time>
      </trkpt>
      <trkpt lat="42.69743" lon="0.66825">
        <ele>2079.5</ele>
        <time>2018-08-08T17:04:47.000Z</time>
      </trkpt>
      <trkpt lat="42.69743" lon="0.66825">
        <ele>2079.5</ele>
        <time>2018-08-08T17:04:48.000Z</time>
      </trkpt>
      <trkpt lat="42.69743" lon="0.66825">
        <ele>2079.5</ele>
        <time>2018-08-08T17:04:49.000Z</time>
      </trkpt>
      <trkpt lat="42.69743" lon="0.66825">
        <ele>2079.5</ele>
        <time>2018-08-08T17:04:50.000Z</time>
      </trkpt>
      <trkpt lat="42.69743" lon="0.66825">
        <ele>2079.5</ele>
        <time>2018-08-08T17:04:51.000Z</time>
      </trkpt>
      <trkpt lat="42.69743" lon="0.66825">
        <ele>2079.5</ele>
        <time>2018-08-08T17:04:52.000Z</time>
      </trkpt>
      <trkpt lat="42.69743" lon="0.66825">
        <ele>2079.5</ele>
        <time>2018-08-08T17:04:53.000Z</time>
      </trkpt>
      <trkpt lat="42.69743" lon="0.66825">
        <ele>2079.5</ele>
        <time>2018-08-08T17:04:54.000Z</time>
      </trkpt>
      <trkpt lat="42.69743" lon="0.66825">
        <ele>2079.5</ele>
        <time>2018-08-08T17:04:55.000Z</time>
      </trkpt>
      <trkpt lat="42.69743" lon="0.66825">
        <ele>2079.5</ele>
        <time>2018-08-08T17:04:56.000Z</time>
      </trkpt>
      <trkpt lat="42.69743" lon="0.66825">
        <ele>2079.5</ele>
        <time>2018-08-08T17:04:57.000Z</time>
      </trkpt>
      <trkpt lat="42.69743" lon="0.66825">
        <ele>2079.5</ele>
        <time>2018-08-08T17:04:58.000Z</time>
      </trkpt>
      <trkpt lat="42.69743" lon="0.66825">
        <ele>2079.5</ele>
        <time>2018-08-08T17:04:59.000Z</time>
      </trkpt>
      <trkpt lat="42.69743" lon="0.66825">
        <ele>2079.5</ele>
        <time>2018-08-08T17:05:00.000Z</time>
      </trkpt>
      <trkpt lat="42.69743" lon="0.66825">
        <ele>2079.5</ele>
        <time>2018-08-08T17:05:01.000Z</time>
      </trkpt>
      <trkpt lat="42.69743" lon="0.66825">
        <ele>2079.5</ele>
        <time>2018-08-08T17:05:02.000Z</time>
      </trkpt>
      <trkpt lat="42.69743" lon="0.66825">
        <ele>2079.5</ele>
        <time>2018-08-08T17:05:03.000Z</time>
      </trkpt>
      <trkpt lat="42.69743" lon="0.66825">
        <ele>2079.5</ele>
        <time>2018-08-08T17:05:04.000Z</time>
      </trkpt>
      <trkpt lat="42.69743" lon="0.66825">
        <ele>2079.5</ele>
        <time>2018-08-08T17:05:05.000Z</time>
      </trkpt>
      <trkpt lat="42.69743" lon="0.66825">
        <ele>2079.5</ele>
        <time>2018-08-08T17:05:06.000Z</time>
      </trkpt>
      <trkpt lat="42.69743" lon="0.66825">
        <ele>2079.5</ele>
        <time>2018-08-08T17:05:07.000Z</time>
      </trkpt>
      <trkpt lat="42.69743" lon="0.66825">
        <ele>2079.5</ele>
        <time>2018-08-08T17:05:08.000Z</time>
      </trkpt>
      <trkpt lat="42.69743" lon="0.66825">
        <ele>2079.5</ele>
        <time>2018-08-08T17:05:09.000Z</time>
      </trkpt>
      <trkpt lat="42.69743" lon="0.66825">
        <ele>2079.5</ele>
        <time>2018-08-08T17:05:10.000Z</time>
      </trkpt>
      <trkpt lat="42.69743" lon="0.66825">
        <ele>2079.5</ele>
        <time>2018-08-08T17:05:11.000Z</time>
      </trkpt>
      <trkpt lat="42.69743" lon="0.66825">
        <ele>2079.5</ele>
        <time>2018-08-08T17:05:12.000Z</time>
      </trkpt>
      <trkpt lat="42.69743" lon="0.66825">
        <ele>2079.5</ele>
        <time>2018-08-08T17:05:13.000Z</time>
      </trkpt>
      <trkpt lat="42.69743" lon="0.66825">
        <ele>2079.5</ele>
        <time>2018-08-08T17:05:14.000Z</time>
      </trkpt>
      <trkpt lat="42.69743" lon="0.66825">
        <ele>2079.5</ele>
        <time>2018-08-08T17:05:15.000Z</time>
      </trkpt>
      <trkpt lat="42.69743" lon="0.66825">
        <ele>2079.5</ele>
        <time>2018-08-08T17:05:16.000Z</time>
      </trkpt>
      <trkpt lat="42.69743" lon="0.66825">
        <ele>2079.5</ele>
        <time>2018-08-08T17:05:17.000Z</time>
      </trkpt>
      <trkpt lat="42.69743" lon="0.66825">
        <ele>2079.5</ele>
        <time>2018-08-08T17:05:18.000Z</time>
      </trkpt>
      <trkpt lat="42.69743" lon="0.66825">
        <ele>2079.5</ele>
        <time>2018-08-08T17:05:19.000Z</time>
      </trkpt>
      <trkpt lat="42.69743" lon="0.66825">
        <ele>2079.5</ele>
        <time>2018-08-08T17:05:20.000Z</time>
      </trkpt>
      <trkpt lat="42.69743" lon="0.66825">
        <ele>2079.5</ele>
        <time>2018-08-08T17:05:21.000Z</time>
      </trkpt>
      <trkpt lat="42.69743" lon="0.66825">
        <ele>2079.5</ele>
        <time>2018-08-08T17:05:22.000Z</time>
      </trkpt>
      <trkpt lat="42.69743" lon="0.66825">
        <ele>2079.5</ele>
        <time>2018-08-08T17:05:23.000Z</time>
      </trkpt>
      <trkpt lat="42.69743" lon="0.66825">
        <ele>2079.5</ele>
        <time>2018-08-08T17:05:24.000Z</time>
      </trkpt>
      <trkpt lat="42.69743" lon="0.66825">
        <ele>2079.5</ele>
        <time>2018-08-08T17:05:25.000Z</time>
      </trkpt>
      <trkpt lat="42.69743" lon="0.66825">
        <ele>2079.5</ele>
        <time>2018-08-08T17:05:26.000Z</time>
      </trkpt>
      <trkpt lat="42.69743" lon="0.66825">
        <ele>2079.5</ele>
        <time>2018-08-08T17:05:27.000Z</time>
      </trkpt>
      <trkpt lat="42.69743" lon="0.66825">
        <ele>2079.5</ele>
        <time>2018-08-08T17:05:28.000Z</time>
      </trkpt>
      <trkpt lat="42.69743" lon="0.66825">
        <ele>2079.5</ele>
        <time>2018-08-08T17:05:29.000Z</time>
      </trkpt>
      <trkpt lat="42.69743" lon="0.66825">
        <ele>2079.5</ele>
        <time>2018-08-08T17:05:30.000Z</time>
      </trkpt>
      <trkpt lat="42.69743" lon="0.66825">
        <ele>2079.5</ele>
        <time>2018-08-08T17:05:31.000Z</time>
      </trkpt>
      <trkpt lat="42.69743" lon="0.66825">
        <ele>2079.5</ele>
        <time>2018-08-08T17:05:32.000Z</time>
      </trkpt>
      <trkpt lat="42.69743" lon="0.66825">
        <ele>2079.5</ele>
        <time>2018-08-08T17:05:33.000Z</time>
      </trkpt>
      <trkpt lat="42.69743" lon="0.66825">
        <ele>2079.5</ele>
        <time>2018-08-08T17:05:34.000Z</time>
      </trkpt>
      <trkpt lat="42.69743" lon="0.66825">
        <ele>2079.5</ele>
        <time>2018-08-08T17:05:35.000Z</time>
      </trkpt>
      <trkpt lat="42.69743" lon="0.66825">
        <ele>2079.5</ele>
        <time>2018-08-08T17:05:36.000Z</time>
      </trkpt>
      <trkpt lat="42.69743" lon="0.66825">
        <ele>2079.5</ele>
        <time>2018-08-08T17:05:37.000Z</time>
      </trkpt>
      <trkpt lat="42.69743" lon="0.66825">
        <ele>2079.5</ele>
        <time>2018-08-08T17:05:38.000Z</time>
      </trkpt>
      <trkpt lat="42.69743" lon="0.66825">
        <ele>2079.5</ele>
        <time>2018-08-08T17:05:39.000Z</time>
      </trkpt>
      <trkpt lat="42.69743" lon="0.66825">
        <ele>2079.5</ele>
        <time>2018-08-08T17:05:40.000Z</time>
      </trkpt>
      <trkpt lat="42.69743" lon="0.66825">
        <ele>2079.5</ele>
        <time>2018-08-08T17:05:41.000Z</time>
      </trkpt>
      <trkpt lat="42.69743" lon="0.66825">
        <ele>2079.5</ele>
        <time>2018-08-08T17:05:42.000Z</time>
      </trkpt>
      <trkpt lat="42.69743" lon="0.66825">
        <ele>2079.5</ele>
        <time>2018-08-08T17:05:43.000Z</time>
      </trkpt>
      <trkpt lat="42.69743" lon="0.66825">
        <ele>2079.5</ele>
        <time>2018-08-08T17:05:44.000Z</time>
      </trkpt>
      <trkpt lat="42.69743" lon="0.66825">
        <ele>2079.5</ele>
        <time>2018-08-08T17:05:45.000Z</time>
      </trkpt>
      <trkpt lat="42.69743" lon="0.66825">
        <ele>2079.5</ele>
        <time>2018-08-08T17:05:46.000Z</time>
      </trkpt>
      <trkpt lat="42.69743" lon="0.66825">
        <ele>2079.5</ele>
        <time>2018-08-08T17:05:47.000Z</time>
      </trkpt>
      <trkpt lat="42.69743" lon="0.66825">
        <ele>2079.5</ele>
        <time>2018-08-08T17:05:48.000Z</time>
      </trkpt>
      <trkpt lat="42.69743" lon="0.66825">
        <ele>2079.5</ele>
        <time>2018-08-08T17:05:49.000Z</time>
      </trkpt>
      <trkpt lat="42.69743" lon="0.66825">
        <ele>2079.5</ele>
        <time>2018-08-08T17:05:50.000Z</time>
      </trkpt>
      <trkpt lat="42.69743" lon="0.66825">
        <ele>2079.5</ele>
        <time>2018-08-08T17:05:51.000Z</time>
      </trkpt>
      <trkpt lat="42.69743" lon="0.66825">
        <ele>2079.5</ele>
        <time>2018-08-08T17:05:52.000Z</time>
      </trkpt>
      <trkpt lat="42.69743" lon="0.66825">
        <ele>2079.5</ele>
        <time>2018-08-08T17:05:53.000Z</time>
      </trkpt>
      <trkpt lat="42.69743" lon="0.66825">
        <ele>2079.5</ele>
        <time>2018-08-08T17:05:54.000Z</time>
      </trkpt>
      <trkpt lat="42.69743" lon="0.66825">
        <ele>2079.5</ele>
        <time>2018-08-08T17:05:55.000Z</time>
      </trkpt>
      <trkpt lat="42.69743" lon="0.66825">
        <ele>2079.5</ele>
        <time>2018-08-08T17:05:56.000Z</time>
      </trkpt>
      <trkpt lat="42.69743" lon="0.66825">
        <ele>2079.5</ele>
        <time>2018-08-08T17:05:57.000Z</time>
      </trkpt>
      <trkpt lat="42.69743" lon="0.66825">
        <ele>2079.5</ele>
        <time>2018-08-08T17:05:58.000Z</time>
      </trkpt>
      <trkpt lat="42.69743" lon="0.66825">
        <ele>2079.5</ele>
        <time>2018-08-08T17:05:59.000Z</time>
      </trkpt>
      <trkpt lat="42.69743" lon="0.66825">
        <ele>2079.5</ele>
        <time>2018-08-08T17:06:00.000Z</time>
      </trkpt>
      <trkpt lat="42.69743" lon="0.66825">
        <ele>2079.5</ele>
        <time>2018-08-08T17:06:01.000Z</time>
      </trkpt>
      <trkpt lat="42.69743" lon="0.66825">
        <ele>2079.5</ele>
        <time>2018-08-08T17:06:02.000Z</time>
      </trkpt>
      <trkpt lat="42.69743" lon="0.66825">
        <ele>2079.5</ele>
        <time>2018-08-08T17:06:03.000Z</time>
      </trkpt>
      <trkpt lat="42.69743" lon="0.66825">
        <ele>2079.5</ele>
        <time>2018-08-08T17:06:04.000Z</time>
      </trkpt>
      <trkpt lat="42.69743" lon="0.66825">
        <ele>2079.5</ele>
        <time>2018-08-08T17:06:05.000Z</time>
      </trkpt>
      <trkpt lat="42.69743" lon="0.66825">
        <ele>2079.5</ele>
        <time>2018-08-08T17:06:06.000Z</time>
      </trkpt>
      <trkpt lat="42.69743" lon="0.66825">
        <ele>2079.5</ele>
        <time>2018-08-08T17:06:07.000Z</time>
      </trkpt>
      <trkpt lat="42.69743" lon="0.66825">
        <ele>2079.5</ele>
        <time>2018-08-08T17:06:08.000Z</time>
      </trkpt>
      <trkpt lat="42.69743" lon="0.66825">
        <ele>2079.5</ele>
        <time>2018-08-08T17:06:09.000Z</time>
      </trkpt>
      <trkpt lat="42.69743" lon="0.66825">
        <ele>2079.5</ele>
        <time>2018-08-08T17:06:10.000Z</time>
      </trkpt>
      <trkpt lat="42.69743" lon="0.66825">
        <ele>2079.5</ele>
        <time>2018-08-08T17:06:11.000Z</time>
      </trkpt>
      <trkpt lat="42.69743" lon="0.66825">
        <ele>2079.5</ele>
        <time>2018-08-08T17:06:12.000Z</time>
      </trkpt>
      <trkpt lat="42.69743" lon="0.66825">
        <ele>2079.5</ele>
        <time>2018-08-08T17:06:13.000Z</time>
      </trkpt>
      <trkpt lat="42.69743" lon="0.66825">
        <ele>2079.5</ele>
        <time>2018-08-08T17:06:14.000Z</time>
      </trkpt>
      <trkpt lat="42.69743" lon="0.66825">
        <ele>2079.5</ele>
        <time>2018-08-08T17:06:15.000Z</time>
      </trkpt>
      <trkpt lat="42.69743" lon="0.66825">
        <ele>2079.5</ele>
        <time>2018-08-08T17:06:16.000Z</time>
      </trkpt>
      <trkpt lat="42.69743" lon="0.66825">
        <ele>2079.5</ele>
        <time>2018-08-08T17:06:17.000Z</time>
      </trkpt>
      <trkpt lat="42.69743" lon="0.66825">
        <ele>2079.5</ele>
        <time>2018-08-08T17:06:18.000Z</time>
      </trkpt>
      <trkpt lat="42.69743" lon="0.66825">
        <ele>2079.5</ele>
        <time>2018-08-08T17:06:19.000Z</time>
      </trkpt>
      <trkpt lat="42.69743" lon="0.66825">
        <ele>2079.5</ele>
        <time>2018-08-08T17:06:20.000Z</time>
      </trkpt>
      <trkpt lat="42.69743" lon="0.66825">
        <ele>2079.5</ele>
        <time>2018-08-08T17:06:21.000Z</time>
      </trkpt>
      <trkpt lat="42.69743" lon="0.66825">
        <ele>2079.5</ele>
        <time>2018-08-08T17:06:22.000Z</time>
      </trkpt>
      <trkpt lat="42.69743" lon="0.66825">
        <ele>2079.5</ele>
        <time>2018-08-08T17:06:23.000Z</time>
      </trkpt>
      <trkpt lat="42.69743" lon="0.66825">
        <ele>2079.5</ele>
        <time>2018-08-08T17:06:24.000Z</time>
      </trkpt>
      <trkpt lat="42.69743" lon="0.66825">
        <ele>2079.5</ele>
        <time>2018-08-08T17:06:25.000Z</time>
      </trkpt>
      <trkpt lat="42.69743" lon="0.66825">
        <ele>2079.5</ele>
        <time>2018-08-08T17:06:26.000Z</time>
      </trkpt>
      <trkpt lat="42.69743" lon="0.66825">
        <ele>2079.5</ele>
        <time>2018-08-08T17:06:27.000Z</time>
      </trkpt>
      <trkpt lat="42.69743" lon="0.66825">
        <ele>2079.5</ele>
        <time>2018-08-08T17:06:28.000Z</time>
      </trkpt>
      <trkpt lat="42.69743" lon="0.66825">
        <ele>2079.5</ele>
        <time>2018-08-08T17:06:29.000Z</time>
      </trkpt>
      <trkpt lat="42.69743" lon="0.66825">
        <ele>2079.5</ele>
        <time>2018-08-08T17:06:30.000Z</time>
      </trkpt>
      <trkpt lat="42.69743" lon="0.66825">
        <ele>2079.5</ele>
        <time>2018-08-08T17:06:31.000Z</time>
      </trkpt>
      <trkpt lat="42.69743" lon="0.66825">
        <ele>2079.5</ele>
        <time>2018-08-08T17:06:32.000Z</time>
      </trkpt>
      <trkpt lat="42.69743" lon="0.66825">
        <ele>2079.5</ele>
        <time>2018-08-08T17:06:33.000Z</time>
      </trkpt>
      <trkpt lat="42.69743" lon="0.66825">
        <ele>2079.5</ele>
        <time>2018-08-08T17:06:34.000Z</time>
      </trkpt>
      <trkpt lat="42.69743" lon="0.66825">
        <ele>2079.5</ele>
        <time>2018-08-08T17:06:35.000Z</time>
      </trkpt>
      <trkpt lat="42.69743" lon="0.66825">
        <ele>2079.5</ele>
        <time>2018-08-08T17:06:36.000Z</time>
      </trkpt>
      <trkpt lat="42.69743" lon="0.66825">
        <ele>2079.5</ele>
        <time>2018-08-08T17:06:37.000Z</time>
      </trkpt>
      <trkpt lat="42.69743" lon="0.66825">
        <ele>2079.5</ele>
        <time>2018-08-08T17:06:38.000Z</time>
      </trkpt>
      <trkpt lat="42.69743" lon="0.66825">
        <ele>2079.5</ele>
        <time>2018-08-08T17:06:39.000Z</time>
      </trkpt>
      <trkpt lat="42.69743" lon="0.66825">
        <ele>2079.5</ele>
        <time>2018-08-08T17:06:40.000Z</time>
      </trkpt>
      <trkpt lat="42.69743" lon="0.66825">
        <ele>2079.5</ele>
        <time>2018-08-08T17:06:41.000Z</time>
      </trkpt>
      <trkpt lat="42.69743" lon="0.66825">
        <ele>2079.5</ele>
        <time>2018-08-08T17:06:42.000Z</time>
      </trkpt>
      <trkpt lat="42.69743" lon="0.66825">
        <ele>2079.5</ele>
        <time>2018-08-08T17:06:43.000Z</time>
      </trkpt>
      <trkpt lat="42.69743" lon="0.66825">
        <ele>2079.5</ele>
        <time>2018-08-08T17:06:44.000Z</time>
      </trkpt>
      <trkpt lat="42.69743" lon="0.66825">
        <ele>2079.5</ele>
        <time>2018-08-08T17:06:45.000Z</time>
      </trkpt>
      <trkpt lat="42.69743" lon="0.66825">
        <ele>2079.5</ele>
        <time>2018-08-08T17:06:46.000Z</time>
      </trkpt>
      <trkpt lat="42.69743" lon="0.66825">
        <ele>2079.5</ele>
        <time>2018-08-08T17:06:47.000Z</time>
      </trkpt>
      <trkpt lat="42.69743" lon="0.66825">
        <ele>2079.5</ele>
        <time>2018-08-08T17:06:48.000Z</time>
      </trkpt>
      <trkpt lat="42.69743" lon="0.66825">
        <ele>2079.5</ele>
        <time>2018-08-08T17:06:49.000Z</time>
      </trkpt>
      <trkpt lat="42.69743" lon="0.66825">
        <ele>2079.5</ele>
        <time>2018-08-08T17:06:50.000Z</time>
      </trkpt>
      <trkpt lat="42.69743" lon="0.66825">
        <ele>2079.5</ele>
        <time>2018-08-08T17:06:51.000Z</time>
      </trkpt>
      <trkpt lat="42.69743" lon="0.66825">
        <ele>2079.5</ele>
        <time>2018-08-08T17:06:52.000Z</time>
      </trkpt>
      <trkpt lat="42.69743" lon="0.66825">
        <ele>2079.5</ele>
        <time>2018-08-08T17:06:53.000Z</time>
      </trkpt>
      <trkpt lat="42.69743" lon="0.66825">
        <ele>2079.5</ele>
        <time>2018-08-08T17:06:54.000Z</time>
      </trkpt>
      <trkpt lat="42.69743" lon="0.66825">
        <ele>2079.5</ele>
        <time>2018-08-08T17:06:55.000Z</time>
      </trkpt>
      <trkpt lat="42.69743" lon="0.66825">
        <ele>2079.5</ele>
        <time>2018-08-08T17:06:56.000Z</time>
      </trkpt>
      <trkpt lat="42.69743" lon="0.66825">
        <ele>2079.5</ele>
        <time>2018-08-08T17:06:57.000Z</time>
      </trkpt>
      <trkpt lat="42.69743" lon="0.66825">
        <ele>2079.5</ele>
        <time>2018-08-08T17:06:58.000Z</time>
      </trkpt>
      <trkpt lat="42.69743" lon="0.66825">
        <ele>2079.5</ele>
        <time>2018-08-08T17:06:59.000Z</time>
      </trkpt>
      <trkpt lat="42.69743" lon="0.66825">
        <ele>2079.5</ele>
        <time>2018-08-08T17:07:00.000Z</time>
      </trkpt>
      <trkpt lat="42.69743" lon="0.66825">
        <ele>2079.5</ele>
        <time>2018-08-08T17:07:01.000Z</time>
      </trkpt>
      <trkpt lat="42.69743" lon="0.66825">
        <ele>2079.5</ele>
        <time>2018-08-08T17:07:02.000Z</time>
      </trkpt>
      <trkpt lat="42.69743" lon="0.66825">
        <ele>2079.5</ele>
        <time>2018-08-08T17:07:03.000Z</time>
      </trkpt>
      <trkpt lat="42.69743" lon="0.66825">
        <ele>2079.5</ele>
        <time>2018-08-08T17:07:04.000Z</time>
      </trkpt>
      <trkpt lat="42.69743" lon="0.66825">
        <ele>2079.5</ele>
        <time>2018-08-08T17:07:05.000Z</time>
      </trkpt>
      <trkpt lat="42.69743" lon="0.66825">
        <ele>2079.5</ele>
        <time>2018-08-08T17:07:06.000Z</time>
      </trkpt>
      <trkpt lat="42.69743" lon="0.66825">
        <ele>2079.5</ele>
        <time>2018-08-08T17:07:07.000Z</time>
      </trkpt>
      <trkpt lat="42.69743" lon="0.66825">
        <ele>2079.5</ele>
        <time>2018-08-08T17:07:08.000Z</time>
      </trkpt>
      <trkpt lat="42.69743" lon="0.66825">
        <ele>2079.5</ele>
        <time>2018-08-08T17:07:09.000Z</time>
      </trkpt>
      <trkpt lat="42.69743" lon="0.66825">
        <ele>2079.5</ele>
        <time>2018-08-08T17:07:10.000Z</time>
      </trkpt>
      <trkpt lat="42.69743" lon="0.66825">
        <ele>2079.5</ele>
        <time>2018-08-08T17:07:11.000Z</time>
      </trkpt>
      <trkpt lat="42.69743" lon="0.66825">
        <ele>2079.5</ele>
        <time>2018-08-08T17:07:12.000Z</time>
      </trkpt>
      <trkpt lat="42.69743" lon="0.66825">
        <ele>2079.5</ele>
        <time>2018-08-08T17:07:13.000Z</time>
      </trkpt>
      <trkpt lat="42.69743" lon="0.66825">
        <ele>2079.5</ele>
        <time>2018-08-08T17:07:14.000Z</time>
      </trkpt>
      <trkpt lat="42.69743" lon="0.66825">
        <ele>2079.5</ele>
        <time>2018-08-08T17:07:15.000Z</time>
      </trkpt>
      <trkpt lat="42.69743" lon="0.66825">
        <ele>2079.5</ele>
        <time>2018-08-08T17:07:16.000Z</time>
      </trkpt>
      <trkpt lat="42.69743" lon="0.66825">
        <ele>2079.5</ele>
        <time>2018-08-08T17:07:17.000Z</time>
      </trkpt>
      <trkpt lat="42.69743" lon="0.66825">
        <ele>2079.5</ele>
        <time>2018-08-08T17:07:18.000Z</time>
      </trkpt>
      <trkpt lat="42.69743" lon="0.66825">
        <ele>2079.5</ele>
        <time>2018-08-08T17:07:19.000Z</time>
      </trkpt>
      <trkpt lat="42.69743" lon="0.66825">
        <ele>2079.5</ele>
        <time>2018-08-08T17:07:20.000Z</time>
      </trkpt>
      <trkpt lat="42.69743" lon="0.66825">
        <ele>2079.5</ele>
        <time>2018-08-08T17:07:21.000Z</time>
      </trkpt>
      <trkpt lat="42.69743" lon="0.66825">
        <ele>2079.5</ele>
        <time>2018-08-08T17:07:22.000Z</time>
      </trkpt>
      <trkpt lat="42.69743" lon="0.66825">
        <ele>2079.5</ele>
        <time>2018-08-08T17:07:23.000Z</time>
      </trkpt>
      <trkpt lat="42.69743" lon="0.66825">
        <ele>2079.5</ele>
        <time>2018-08-08T17:07:24.000Z</time>
      </trkpt>
      <trkpt lat="42.69743" lon="0.66825">
        <ele>2079.5</ele>
        <time>2018-08-08T17:07:25.000Z</time>
      </trkpt>
      <trkpt lat="42.69743" lon="0.66825">
        <ele>2079.5</ele>
        <time>2018-08-08T17:07:26.000Z</time>
      </trkpt>
      <trkpt lat="42.69743" lon="0.66825">
        <ele>2079.5</ele>
        <time>2018-08-08T17:07:27.000Z</time>
      </trkpt>
      <trkpt lat="42.69743" lon="0.66825">
        <ele>2079.5</ele>
        <time>2018-08-08T17:07:28.000Z</time>
      </trkpt>
      <trkpt lat="42.69743" lon="0.66825">
        <ele>2079.5</ele>
        <time>2018-08-08T17:07:29.000Z</time>
      </trkpt>
      <trkpt lat="42.69743" lon="0.66825">
        <ele>2079.5</ele>
        <time>2018-08-08T17:07:30.000Z</time>
      </trkpt>
      <trkpt lat="42.69743" lon="0.66825">
        <ele>2079.5</ele>
        <time>2018-08-08T17:07:31.000Z</time>
      </trkpt>
      <trkpt lat="42.69743" lon="0.66825">
        <ele>2079.5</ele>
        <time>2018-08-08T17:07:32.000Z</time>
      </trkpt>
      <trkpt lat="42.69743" lon="0.66825">
        <ele>2079.5</ele>
        <time>2018-08-08T17:07:33.000Z</time>
      </trkpt>
      <trkpt lat="42.69743" lon="0.66825">
        <ele>2079.5</ele>
        <time>2018-08-08T17:07:34.000Z</time>
      </trkpt>
      <trkpt lat="42.69743" lon="0.66825">
        <ele>2079.5</ele>
        <time>2018-08-08T17:07:35.000Z</time>
      </trkpt>
      <trkpt lat="42.69743" lon="0.66825">
        <ele>2079.5</ele>
        <time>2018-08-08T17:07:36.000Z</time>
      </trkpt>
      <trkpt lat="42.69743" lon="0.66825">
        <ele>2079.5</ele>
        <time>2018-08-08T17:07:37.000Z</time>
      </trkpt>
      <trkpt lat="42.69743" lon="0.66825">
        <ele>2079.5</ele>
        <time>2018-08-08T17:07:38.000Z</time>
      </trkpt>
      <trkpt lat="42.69743" lon="0.66825">
        <ele>2079.5</ele>
        <time>2018-08-08T17:07:39.000Z</time>
      </trkpt>
      <trkpt lat="42.69743" lon="0.66825">
        <ele>2079.5</ele>
        <time>2018-08-08T17:07:40.000Z</time>
      </trkpt>
      <trkpt lat="42.69743" lon="0.66825">
        <ele>2079.5</ele>
        <time>2018-08-08T17:07:41.000Z</time>
      </trkpt>
      <trkpt lat="42.69743" lon="0.66825">
        <ele>2079.5</ele>
        <time>2018-08-08T17:07:42.000Z</time>
      </trkpt>
      <trkpt lat="42.69743" lon="0.66825">
        <ele>2079.5</ele>
        <time>2018-08-08T17:07:43.000Z</time>
      </trkpt>
      <trkpt lat="42.69743" lon="0.66825">
        <ele>2079.5</ele>
        <time>2018-08-08T17:07:44.000Z</time>
      </trkpt>
      <trkpt lat="42.69743" lon="0.66825">
        <ele>2079.5</ele>
        <time>2018-08-08T17:07:45.000Z</time>
      </trkpt>
      <trkpt lat="42.69743" lon="0.66825">
        <ele>2079.5</ele>
        <time>2018-08-08T17:07:46.000Z</time>
      </trkpt>
      <trkpt lat="42.69743" lon="0.66825">
        <ele>2079.5</ele>
        <time>2018-08-08T17:07:47.000Z</time>
      </trkpt>
      <trkpt lat="42.69743" lon="0.66825">
        <ele>2079.5</ele>
        <time>2018-08-08T17:07:48.000Z</time>
      </trkpt>
      <trkpt lat="42.69743" lon="0.66825">
        <ele>2079.5</ele>
        <time>2018-08-08T17:07:49.000Z</time>
      </trkpt>
      <trkpt lat="42.69743" lon="0.66825">
        <ele>2079.5</ele>
        <time>2018-08-08T17:07:50.000Z</time>
      </trkpt>
      <trkpt lat="42.69743" lon="0.66825">
        <ele>2079.5</ele>
        <time>2018-08-08T17:07:51.000Z</time>
      </trkpt>
      <trkpt lat="42.69743" lon="0.66825">
        <ele>2079.5</ele>
        <time>2018-08-08T17:07:52.000Z</time>
      </trkpt>
      <trkpt lat="42.69743" lon="0.66825">
        <ele>2079.5</ele>
        <time>2018-08-08T17:07:53.000Z</time>
      </trkpt>
      <trkpt lat="42.69743" lon="0.66825">
        <ele>2079.5</ele>
        <time>2018-08-08T17:07:54.000Z</time>
      </trkpt>
      <trkpt lat="42.69743" lon="0.66825">
        <ele>2079.5</ele>
        <time>2018-08-08T17:07:55.000Z</time>
      </trkpt>
      <trkpt lat="42.69743" lon="0.66825">
        <ele>2079.5</ele>
        <time>2018-08-08T17:07:56.000Z</time>
      </trkpt>
      <trkpt lat="42.69743" lon="0.66825">
        <ele>2079.5</ele>
        <time>2018-08-08T17:07:57.000Z</time>
      </trkpt>
      <trkpt lat="42.69743" lon="0.66825">
        <ele>2079.5</ele>
        <time>2018-08-08T17:07:58.000Z</time>
      </trkpt>
      <trkpt lat="42.69743" lon="0.66825">
        <ele>2079.5</ele>
        <time>2018-08-08T17:07:59.000Z</time>
      </trkpt>
      <trkpt lat="42.69743" lon="0.66825">
        <ele>2079.5</ele>
        <time>2018-08-08T17:08:00.000Z</time>
      </trkpt>
      <trkpt lat="42.69743" lon="0.66825">
        <ele>2079.5</ele>
        <time>2018-08-08T17:08:01.000Z</time>
      </trkpt>
      <trkpt lat="42.69743" lon="0.66825">
        <ele>2079.5</ele>
        <time>2018-08-08T17:08:02.000Z</time>
      </trkpt>
      <trkpt lat="42.69743" lon="0.66825">
        <ele>2079.5</ele>
        <time>2018-08-08T17:08:03.000Z</time>
      </trkpt>
      <trkpt lat="42.69743" lon="0.66825">
        <ele>2079.5</ele>
        <time>2018-08-08T17:08:04.000Z</time>
      </trkpt>
      <trkpt lat="42.69743" lon="0.66825">
        <ele>2079.5</ele>
        <time>2018-08-08T17:08:05.000Z</time>
      </trkpt>
      <trkpt lat="42.69743" lon="0.66825">
        <ele>2079.5</ele>
        <time>2018-08-08T17:08:06.000Z</time>
      </trkpt>
      <trkpt lat="42.69743" lon="0.66825">
        <ele>2079.5</ele>
        <time>2018-08-08T17:08:07.000Z</time>
      </trkpt>
      <trkpt lat="42.69743" lon="0.66825">
        <ele>2079.5</ele>
        <time>2018-08-08T17:08:08.000Z</time>
      </trkpt>
      <trkpt lat="42.69743" lon="0.66825">
        <ele>2079.5</ele>
        <time>2018-08-08T17:08:09.000Z</time>
      </trkpt>
      <trkpt lat="42.69743" lon="0.66825">
        <ele>2079.5</ele>
        <time>2018-08-08T17:08:10.000Z</time>
      </trkpt>
      <trkpt lat="42.69743" lon="0.66825">
        <ele>2079.5</ele>
        <time>2018-08-08T17:08:11.000Z</time>
      </trkpt>
      <trkpt lat="42.69743" lon="0.66825">
        <ele>2079.5</ele>
        <time>2018-08-08T17:08:12.000Z</time>
      </trkpt>
      <trkpt lat="42.69743" lon="0.66825">
        <ele>2079.5</ele>
        <time>2018-08-08T17:08:13.000Z</time>
      </trkpt>
      <trkpt lat="42.69743" lon="0.66825">
        <ele>2079.5</ele>
        <time>2018-08-08T17:08:14.000Z</time>
      </trkpt>
      <trkpt lat="42.69743" lon="0.66825">
        <ele>2079.5</ele>
        <time>2018-08-08T17:08:15.000Z</time>
      </trkpt>
      <trkpt lat="42.69743" lon="0.66825">
        <ele>2079.5</ele>
        <time>2018-08-08T17:08:16.000Z</time>
      </trkpt>
      <trkpt lat="42.69743" lon="0.66825">
        <ele>2079.5</ele>
        <time>2018-08-08T17:08:17.000Z</time>
      </trkpt>
      <trkpt lat="42.69743" lon="0.66825">
        <ele>2079.5</ele>
        <time>2018-08-08T17:08:18.000Z</time>
      </trkpt>
      <trkpt lat="42.69743" lon="0.66825">
        <ele>2079.5</ele>
        <time>2018-08-08T17:08:19.000Z</time>
      </trkpt>
      <trkpt lat="42.69743" lon="0.66825">
        <ele>2079.5</ele>
        <time>2018-08-08T17:08:20.000Z</time>
      </trkpt>
      <trkpt lat="42.69743" lon="0.66825">
        <ele>2079.5</ele>
        <time>2018-08-08T17:08:21.000Z</time>
      </trkpt>
      <trkpt lat="42.69743" lon="0.66825">
        <ele>2079.5</ele>
        <time>2018-08-08T17:08:22.000Z</time>
      </trkpt>
      <trkpt lat="42.69743" lon="0.66825">
        <ele>2079.5</ele>
        <time>2018-08-08T17:08:23.000Z</time>
      </trkpt>
      <trkpt lat="42.69743" lon="0.66825">
        <ele>2079.5</ele>
        <time>2018-08-08T17:08:24.000Z</time>
      </trkpt>
      <trkpt lat="42.69743" lon="0.66825">
        <ele>2079.5</ele>
        <time>2018-08-08T17:08:25.000Z</time>
      </trkpt>
      <trkpt lat="42.69743" lon="0.66825">
        <ele>2079.5</ele>
        <time>2018-08-08T17:08:26.000Z</time>
      </trkpt>
      <trkpt lat="42.69743" lon="0.66825">
        <ele>2079.5</ele>
        <time>2018-08-08T17:08:27.000Z</time>
      </trkpt>
      <trkpt lat="42.69743" lon="0.66825">
        <ele>2079.5</ele>
        <time>2018-08-08T17:08:28.000Z</time>
      </trkpt>
      <trkpt lat="42.69743" lon="0.66825">
        <ele>2079.5</ele>
        <time>2018-08-08T17:08:29.000Z</time>
      </trkpt>
      <trkpt lat="42.69743" lon="0.66825">
        <ele>2079.5</ele>
        <time>2018-08-08T17:08:30.000Z</time>
      </trkpt>
      <trkpt lat="42.69743" lon="0.66825">
        <ele>2079.5</ele>
        <time>2018-08-08T17:08:31.000Z</time>
      </trkpt>
      <trkpt lat="42.69743" lon="0.66825">
        <ele>2079.5</ele>
        <time>2018-08-08T17:08:32.000Z</time>
      </trkpt>
      <trkpt lat="42.69743" lon="0.66825">
        <ele>2079.5</ele>
        <time>2018-08-08T17:08:33.000Z</time>
      </trkpt>
      <trkpt lat="42.69743" lon="0.66825">
        <ele>2079.5</ele>
        <time>2018-08-08T17:08:34.000Z</time>
      </trkpt>
      <trkpt lat="42.69743" lon="0.66825">
        <ele>2079.5</ele>
        <time>2018-08-08T17:08:35.000Z</time>
      </trkpt>
      <trkpt lat="42.69743" lon="0.66825">
        <ele>2079.5</ele>
        <time>2018-08-08T17:08:36.000Z</time>
      </trkpt>
      <trkpt lat="42.69743" lon="0.66825">
        <ele>2079.5</ele>
        <time>2018-08-08T17:08:37.000Z</time>
      </trkpt>
      <trkpt lat="42.69743" lon="0.66825">
        <ele>2079.5</ele>
        <time>2018-08-08T17:08:38.000Z</time>
      </trkpt>
      <trkpt lat="42.69743" lon="0.66825">
        <ele>2079.5</ele>
        <time>2018-08-08T17:08:39.000Z</time>
      </trkpt>
      <trkpt lat="42.69743" lon="0.66825">
        <ele>2079.5</ele>
        <time>2018-08-08T17:08:40.000Z</time>
      </trkpt>
      <trkpt lat="42.69743" lon="0.66825">
        <ele>2079.5</ele>
        <time>2018-08-08T17:08:41.000Z</time>
      </trkpt>
      <trkpt lat="42.69743" lon="0.66825">
        <ele>2079.5</ele>
        <time>2018-08-08T17:08:42.000Z</time>
      </trkpt>
      <trkpt lat="42.69743" lon="0.66825">
        <ele>2079.5</ele>
        <time>2018-08-08T17:08:43.000Z</time>
      </trkpt>
      <trkpt lat="42.69743" lon="0.66825">
        <ele>2079.5</ele>
        <time>2018-08-08T17:08:44.000Z</time>
      </trkpt>
      <trkpt lat="42.69743" lon="0.66825">
        <ele>2079.5</ele>
        <time>2018-08-08T17:08:45.000Z</time>
      </trkpt>
      <trkpt lat="42.69743" lon="0.66825">
        <ele>2079.5</ele>
        <time>2018-08-08T17:08:46.000Z</time>
      </trkpt>
      <trkpt lat="42.69743" lon="0.66825">
        <ele>2079.5</ele>
        <time>2018-08-08T17:08:47.000Z</time>
      </trkpt>
      <trkpt lat="42.69743" lon="0.66825">
        <ele>2079.5</ele>
        <time>2018-08-08T17:08:48.000Z</time>
      </trkpt>
      <trkpt lat="42.69743" lon="0.66825">
        <ele>2079.5</ele>
        <time>2018-08-08T17:08:49.000Z</time>
      </trkpt>
      <trkpt lat="42.69743" lon="0.66825">
        <ele>2079.5</ele>
        <time>2018-08-08T17:08:50.000Z</time>
      </trkpt>
      <trkpt lat="42.69743" lon="0.66825">
        <ele>2079.5</ele>
        <time>2018-08-08T17:08:51.000Z</time>
      </trkpt>
      <trkpt lat="42.69743" lon="0.66825">
        <ele>2079.5</ele>
        <time>2018-08-08T17:08:52.000Z</time>
      </trkpt>
      <trkpt lat="42.69743" lon="0.66825">
        <ele>2079.5</ele>
        <time>2018-08-08T17:08:53.000Z</time>
      </trkpt>
      <trkpt lat="42.69743" lon="0.66825">
        <ele>2079.5</ele>
        <time>2018-08-08T17:08:54.000Z</time>
      </trkpt>
      <trkpt lat="42.69743" lon="0.66825">
        <ele>2079.5</ele>
        <time>2018-08-08T17:08:55.000Z</time>
      </trkpt>
      <trkpt lat="42.69743" lon="0.66825">
        <ele>2079.5</ele>
        <time>2018-08-08T17:08:56.000Z</time>
      </trkpt>
      <trkpt lat="42.69743" lon="0.66825">
        <ele>2079.5</ele>
        <time>2018-08-08T17:08:57.000Z</time>
      </trkpt>
      <trkpt lat="42.69743" lon="0.66825">
        <ele>2079.5</ele>
        <time>2018-08-08T17:08:58.000Z</time>
      </trkpt>
      <trkpt lat="42.69743" lon="0.66825">
        <ele>2079.5</ele>
        <time>2018-08-08T17:08:59.000Z</time>
      </trkpt>
      <trkpt lat="42.69743" lon="0.66825">
        <ele>2079.5</ele>
        <time>2018-08-08T17:09:00.000Z</time>
      </trkpt>
      <trkpt lat="42.69743" lon="0.66825">
        <ele>2079.5</ele>
        <time>2018-08-08T17:09:01.000Z</time>
      </trkpt>
      <trkpt lat="42.69743" lon="0.66825">
        <ele>2079.5</ele>
        <time>2018-08-08T17:09:02.000Z</time>
      </trkpt>
      <trkpt lat="42.69743" lon="0.66825">
        <ele>2079.5</ele>
        <time>2018-08-08T17:09:03.000Z</time>
      </trkpt>
      <trkpt lat="42.69743" lon="0.66825">
        <ele>2079.5</ele>
        <time>2018-08-08T17:09:04.000Z</time>
      </trkpt>
      <trkpt lat="42.69743" lon="0.66825">
        <ele>2079.5</ele>
        <time>2018-08-08T17:09:05.000Z</time>
      </trkpt>
      <trkpt lat="42.69743" lon="0.66825">
        <ele>2079.5</ele>
        <time>2018-08-08T17:09:06.000Z</time>
      </trkpt>
      <trkpt lat="42.69743" lon="0.66825">
        <ele>2079.5</ele>
        <time>2018-08-08T17:09:07.000Z</time>
      </trkpt>
      <trkpt lat="42.69743" lon="0.66825">
        <ele>2079.5</ele>
        <time>2018-08-08T17:09:08.000Z</time>
      </trkpt>
      <trkpt lat="42.69743" lon="0.66825">
        <ele>2079.5</ele>
        <time>2018-08-08T17:09:09.000Z</time>
      </trkpt>
      <trkpt lat="42.69743" lon="0.66825">
        <ele>2079.5</ele>
        <time>2018-08-08T17:09:10.000Z</time>
      </trkpt>
      <trkpt lat="42.69743" lon="0.66825">
        <ele>2079.5</ele>
        <time>2018-08-08T17:09:11.000Z</time>
      </trkpt>
      <trkpt lat="42.69743" lon="0.66825">
        <ele>2079.5</ele>
        <time>2018-08-08T17:09:12.000Z</time>
      </trkpt>
      <trkpt lat="42.69743" lon="0.66825">
        <ele>2079.5</ele>
        <time>2018-08-08T17:09:13.000Z</time>
      </trkpt>
      <trkpt lat="42.69743" lon="0.66825">
        <ele>2079.5</ele>
        <time>2018-08-08T17:09:14.000Z</time>
      </trkpt>
      <trkpt lat="42.69743" lon="0.66825">
        <ele>2079.5</ele>
        <time>2018-08-08T17:09:15.000Z</time>
      </trkpt>
      <trkpt lat="42.69743" lon="0.66825">
        <ele>2079.5</ele>
        <time>2018-08-08T17:09:16.000Z</time>
      </trkpt>
      <trkpt lat="42.69743" lon="0.66825">
        <ele>2079.5</ele>
        <time>2018-08-08T17:09:17.000Z</time>
      </trkpt>
      <trkpt lat="42.69743" lon="0.66825">
        <ele>2079.5</ele>
        <time>2018-08-08T17:09:18.000Z</time>
      </trkpt>
      <trkpt lat="42.69743" lon="0.66825">
        <ele>2079.5</ele>
        <time>2018-08-08T17:09:19.000Z</time>
      </trkpt>
      <trkpt lat="42.69743" lon="0.66825">
        <ele>2079.5</ele>
        <time>2018-08-08T17:09:20.000Z</time>
      </trkpt>
      <trkpt lat="42.69743" lon="0.66825">
        <ele>2079.5</ele>
        <time>2018-08-08T17:09:21.000Z</time>
      </trkpt>
      <trkpt lat="42.69743" lon="0.66825">
        <ele>2079.5</ele>
        <time>2018-08-08T17:09:22.000Z</time>
      </trkpt>
      <trkpt lat="42.69743" lon="0.66825">
        <ele>2079.5</ele>
        <time>2018-08-08T17:09:23.000Z</time>
      </trkpt>
      <trkpt lat="42.69743" lon="0.66825">
        <ele>2079.5</ele>
        <time>2018-08-08T17:09:24.000Z</time>
      </trkpt>
      <trkpt lat="42.69743" lon="0.66825">
        <ele>2079.5</ele>
        <time>2018-08-08T17:09:25.000Z</time>
      </trkpt>
      <trkpt lat="42.69743" lon="0.66825">
        <ele>2079.5</ele>
        <time>2018-08-08T17:09:26.000Z</time>
      </trkpt>
      <trkpt lat="42.69743" lon="0.66825">
        <ele>2079.5</ele>
        <time>2018-08-08T17:09:27.000Z</time>
      </trkpt>
      <trkpt lat="42.69743" lon="0.66825">
        <ele>2079.5</ele>
        <time>2018-08-08T17:09:28.000Z</time>
      </trkpt>
      <trkpt lat="42.69743" lon="0.66825">
        <ele>2079.5</ele>
        <time>2018-08-08T17:09:29.000Z</time>
      </trkpt>
      <trkpt lat="42.69743" lon="0.66825">
        <ele>2079.5</ele>
        <time>2018-08-08T17:09:30.000Z</time>
      </trkpt>
      <trkpt lat="42.69743" lon="0.66825">
        <ele>2079.5</ele>
        <time>2018-08-08T17:09:31.000Z</time>
      </trkpt>
      <trkpt lat="42.69743" lon="0.66825">
        <ele>2079.5</ele>
        <time>2018-08-08T17:09:32.000Z</time>
      </trkpt>
      <trkpt lat="42.69743" lon="0.66825">
        <ele>2079.5</ele>
        <time>2018-08-08T17:09:33.000Z</time>
      </trkpt>
      <trkpt lat="42.69743" lon="0.66825">
        <ele>2079.5</ele>
        <time>2018-08-08T17:09:34.000Z</time>
      </trkpt>
      <trkpt lat="42.69743" lon="0.66825">
        <ele>2079.5</ele>
        <time>2018-08-08T17:09:35.000Z</time>
      </trkpt>
      <trkpt lat="42.69743" lon="0.66825">
        <ele>2079.5</ele>
        <time>2018-08-08T17:09:36.000Z</time>
      </trkpt>
      <trkpt lat="42.69743" lon="0.66825">
        <ele>2079.5</ele>
        <time>2018-08-08T17:09:37.000Z</time>
      </trkpt>
      <trkpt lat="42.69743" lon="0.66825">
        <ele>2079.5</ele>
        <time>2018-08-08T17:09:38.000Z</time>
      </trkpt>
      <trkpt lat="42.69743" lon="0.66825">
        <ele>2079.5</ele>
        <time>2018-08-08T17:09:39.000Z</time>
      </trkpt>
      <trkpt lat="42.69743" lon="0.66825">
        <ele>2079.5</ele>
        <time>2018-08-08T17:09:40.000Z</time>
      </trkpt>
      <trkpt lat="42.69743" lon="0.66825">
        <ele>2079.5</ele>
        <time>2018-08-08T17:09:41.000Z</time>
      </trkpt>
      <trkpt lat="42.69743" lon="0.66825">
        <ele>2079.5</ele>
        <time>2018-08-08T17:09:42.000Z</time>
      </trkpt>
      <trkpt lat="42.69743" lon="0.66825">
        <ele>2079.5</ele>
        <time>2018-08-08T17:09:43.000Z</time>
      </trkpt>
      <trkpt lat="42.69743" lon="0.66825">
        <ele>2079.5</ele>
        <time>2018-08-08T17:09:44.000Z</time>
      </trkpt>
      <trkpt lat="42.69743" lon="0.66825">
        <ele>2079.5</ele>
        <time>2018-08-08T17:09:45.000Z</time>
      </trkpt>
      <trkpt lat="42.69743" lon="0.66825">
        <ele>2079.5</ele>
        <time>2018-08-08T17:09:46.000Z</time>
      </trkpt>
      <trkpt lat="42.69743" lon="0.66825">
        <ele>2079.5</ele>
        <time>2018-08-08T17:09:47.000Z</time>
      </trkpt>
      <trkpt lat="42.69743" lon="0.66825">
        <ele>2079.5</ele>
        <time>2018-08-08T17:09:48.000Z</time>
      </trkpt>
      <trkpt lat="42.69743" lon="0.66825">
        <ele>2079.5</ele>
        <time>2018-08-08T17:09:49.000Z</time>
      </trkpt>
      <trkpt lat="42.69743" lon="0.66825">
        <ele>2079.5</ele>
        <time>2018-08-08T17:09:50.000Z</time>
      </trkpt>
      <trkpt lat="42.69743" lon="0.66825">
        <ele>2079.5</ele>
        <time>2018-08-08T17:09:51.000Z</time>
      </trkpt>
      <trkpt lat="42.69743" lon="0.66825">
        <ele>2079.5</ele>
        <time>2018-08-08T17:09:52.000Z</time>
      </trkpt>
      <trkpt lat="42.69743" lon="0.66825">
        <ele>2079.5</ele>
        <time>2018-08-08T17:09:53.000Z</time>
      </trkpt>
      <trkpt lat="42.69743" lon="0.66825">
        <ele>2079.5</ele>
        <time>2018-08-08T17:09:54.000Z</time>
      </trkpt>
      <trkpt lat="42.69743" lon="0.66825">
        <ele>2079.5</ele>
        <time>2018-08-08T17:09:55.000Z</time>
      </trkpt>
      <trkpt lat="42.69743" lon="0.66825">
        <ele>2079.5</ele>
        <time>2018-08-08T17:09:56.000Z</time>
      </trkpt>
      <trkpt lat="42.69743" lon="0.66825">
        <ele>2079.5</ele>
        <time>2018-08-08T17:09:57.000Z</time>
      </trkpt>
      <trkpt lat="42.69743" lon="0.66825">
        <ele>2079.5</ele>
        <time>2018-08-08T17:09:58.000Z</time>
      </trkpt>
      <trkpt lat="42.69743" lon="0.66825">
        <ele>2079.5</ele>
        <time>2018-08-08T17:09:59.000Z</time>
      </trkpt>
      <trkpt lat="42.69743" lon="0.66825">
        <ele>2079.5</ele>
        <time>2018-08-08T17:10:00.000Z</time>
      </trkpt>
      <trkpt lat="42.69743" lon="0.66825">
        <ele>2079.5</ele>
        <time>2018-08-08T17:10:01.000Z</time>
      </trkpt>
      <trkpt lat="42.69743" lon="0.66825">
        <ele>2079.5</ele>
        <time>2018-08-08T17:10:02.000Z</time>
      </trkpt>
      <trkpt lat="42.69743" lon="0.66825">
        <ele>2079.5</ele>
        <time>2018-08-08T17:10:03.000Z</time>
      </trkpt>
      <trkpt lat="42.69743" lon="0.66825">
        <ele>2079.5</ele>
        <time>2018-08-08T17:10:04.000Z</time>
      </trkpt>
      <trkpt lat="42.69743" lon="0.66825">
        <ele>2079.5</ele>
        <time>2018-08-08T17:10:05.000Z</time>
      </trkpt>
      <trkpt lat="42.69743" lon="0.66825">
        <ele>2079.5</ele>
        <time>2018-08-08T17:10:06.000Z</time>
      </trkpt>
      <trkpt lat="42.69743" lon="0.66825">
        <ele>2079.5</ele>
        <time>2018-08-08T17:10:07.000Z</time>
      </trkpt>
      <trkpt lat="42.69743" lon="0.66825">
        <ele>2079.5</ele>
        <time>2018-08-08T17:10:08.000Z</time>
      </trkpt>
      <trkpt lat="42.69743" lon="0.66825">
        <ele>2079.5</ele>
        <time>2018-08-08T17:10:09.000Z</time>
      </trkpt>
      <trkpt lat="42.69743" lon="0.66825">
        <ele>2079.5</ele>
        <time>2018-08-08T17:10:10.000Z</time>
      </trkpt>
      <trkpt lat="42.69743" lon="0.66825">
        <ele>2079.5</ele>
        <time>2018-08-08T17:10:11.000Z</time>
      </trkpt>
      <trkpt lat="42.69743" lon="0.66825">
        <ele>2079.5</ele>
        <time>2018-08-08T17:10:12.000Z</time>
      </trkpt>
      <trkpt lat="42.69743" lon="0.66825">
        <ele>2079.5</ele>
        <time>2018-08-08T17:10:13.000Z</time>
      </trkpt>
      <trkpt lat="42.69743" lon="0.66825">
        <ele>2079.5</ele>
        <time>2018-08-08T17:10:14.000Z</time>
      </trkpt>
      <trkpt lat="42.69743" lon="0.66825">
        <ele>2079.5</ele>
        <time>2018-08-08T17:10:15.000Z</time>
      </trkpt>
      <trkpt lat="42.69743" lon="0.66825">
        <ele>2079.5</ele>
        <time>2018-08-08T17:10:16.000Z</time>
      </trkpt>
      <trkpt lat="42.69743" lon="0.66825">
        <ele>2079.5</ele>
        <time>2018-08-08T17:10:17.000Z</time>
      </trkpt>
      <trkpt lat="42.69743" lon="0.66825">
        <ele>2079.5</ele>
        <time>2018-08-08T17:10:18.000Z</time>
      </trkpt>
      <trkpt lat="42.69743" lon="0.66825">
        <ele>2079.5</ele>
        <time>2018-08-08T17:10:19.000Z</time>
      </trkpt>
      <trkpt lat="42.69743" lon="0.66825">
        <ele>2079.5</ele>
        <time>2018-08-08T17:10:20.000Z</time>
      </trkpt>
      <trkpt lat="42.69743" lon="0.66825">
        <ele>2079.5</ele>
        <time>2018-08-08T17:10:21.000Z</time>
      </trkpt>
      <trkpt lat="42.69743" lon="0.66825">
        <ele>2079.5</ele>
        <time>2018-08-08T17:10:22.000Z</time>
      </trkpt>
      <trkpt lat="42.69743" lon="0.66825">
        <ele>2079.5</ele>
        <time>2018-08-08T17:10:23.000Z</time>
      </trkpt>
      <trkpt lat="42.69743" lon="0.66825">
        <ele>2079.5</ele>
        <time>2018-08-08T17:10:24.000Z</time>
      </trkpt>
      <trkpt lat="42.69743" lon="0.66825">
        <ele>2079.5</ele>
        <time>2018-08-08T17:10:25.000Z</time>
      </trkpt>
      <trkpt lat="42.69743" lon="0.66825">
        <ele>2079.5</ele>
        <time>2018-08-08T17:10:26.000Z</time>
      </trkpt>
      <trkpt lat="42.69743" lon="0.66825">
        <ele>2079.5</ele>
        <time>2018-08-08T17:10:27.000Z</time>
      </trkpt>
      <trkpt lat="42.69743" lon="0.66825">
        <ele>2079.5</ele>
        <time>2018-08-08T17:10:28.000Z</time>
      </trkpt>
      <trkpt lat="42.69743" lon="0.66825">
        <ele>2079.5</ele>
        <time>2018-08-08T17:10:29.000Z</time>
      </trkpt>
      <trkpt lat="42.69743" lon="0.66825">
        <ele>2079.5</ele>
        <time>2018-08-08T17:10:30.000Z</time>
      </trkpt>
      <trkpt lat="42.69743" lon="0.66825">
        <ele>2079.5</ele>
        <time>2018-08-08T17:10:31.000Z</time>
      </trkpt>
      <trkpt lat="42.69743" lon="0.66825">
        <ele>2079.5</ele>
        <time>2018-08-08T17:10:32.000Z</time>
      </trkpt>
      <trkpt lat="42.69743" lon="0.66825">
        <ele>2079.5</ele>
        <time>2018-08-08T17:10:33.000Z</time>
      </trkpt>
      <trkpt lat="42.69743" lon="0.66825">
        <ele>2079.5</ele>
        <time>2018-08-08T17:10:34.000Z</time>
      </trkpt>
      <trkpt lat="42.69743" lon="0.66825">
        <ele>2079.5</ele>
        <time>2018-08-08T17:10:35.000Z</time>
      </trkpt>
      <trkpt lat="42.69743" lon="0.66825">
        <ele>2079.5</ele>
        <time>2018-08-08T17:10:36.000Z</time>
      </trkpt>
      <trkpt lat="42.69743" lon="0.66825">
        <ele>2079.5</ele>
        <time>2018-08-08T17:10:37.000Z</time>
      </trkpt>
      <trkpt lat="42.69743" lon="0.66825">
        <ele>2079.5</ele>
        <time>2018-08-08T17:10:38.000Z</time>
      </trkpt>
      <trkpt lat="42.69743" lon="0.66825">
        <ele>2079.5</ele>
        <time>2018-08-08T17:10:39.000Z</time>
      </trkpt>
      <trkpt lat="42.69743" lon="0.66825">
        <ele>2079.5</ele>
        <time>2018-08-08T17:10:40.000Z</time>
      </trkpt>
      <trkpt lat="42.69743" lon="0.66825">
        <ele>2079.5</ele>
        <time>2018-08-08T17:10:41.000Z</time>
      </trkpt>
      <trkpt lat="42.69743" lon="0.66825">
        <ele>2079.5</ele>
        <time>2018-08-08T17:10:42.000Z</time>
      </trkpt>
      <trkpt lat="42.69743" lon="0.66825">
        <ele>2079.5</ele>
        <time>2018-08-08T17:10:43.000Z</time>
      </trkpt>
      <trkpt lat="42.69743" lon="0.66825">
        <ele>2079.5</ele>
        <time>2018-08-08T17:10:44.000Z</time>
      </trkpt>
      <trkpt lat="42.69743" lon="0.66825">
        <ele>2079.5</ele>
        <time>2018-08-08T17:10:45.000Z</time>
      </trkpt>
      <trkpt lat="42.69743" lon="0.66825">
        <ele>2079.5</ele>
        <time>2018-08-08T17:10:46.000Z</time>
      </trkpt>
      <trkpt lat="42.69743" lon="0.66825">
        <ele>2079.5</ele>
        <time>2018-08-08T17:10:47.000Z</time>
      </trkpt>
      <trkpt lat="42.69743" lon="0.66825">
        <ele>2079.5</ele>
        <time>2018-08-08T17:10:48.000Z</time>
      </trkpt>
      <trkpt lat="42.69743" lon="0.66825">
        <ele>2079.5</ele>
        <time>2018-08-08T17:10:49.000Z</time>
      </trkpt>
      <trkpt lat="42.69743" lon="0.66825">
        <ele>2079.5</ele>
        <time>2018-08-08T17:10:50.000Z</time>
      </trkpt>
      <trkpt lat="42.69743" lon="0.66825">
        <ele>2079.5</ele>
        <time>2018-08-08T17:10:51.000Z</time>
      </trkpt>
      <trkpt lat="42.69743" lon="0.66825">
        <ele>2079.5</ele>
        <time>2018-08-08T17:10:52.000Z</time>
      </trkpt>
      <trkpt lat="42.69743" lon="0.66825">
        <ele>2079.5</ele>
        <time>2018-08-08T17:10:53.000Z</time>
      </trkpt>
      <trkpt lat="42.69743" lon="0.66825">
        <ele>2079.5</ele>
        <time>2018-08-08T17:10:54.000Z</time>
      </trkpt>
      <trkpt lat="42.69743" lon="0.66825">
        <ele>2079.5</ele>
        <time>2018-08-08T17:10:55.000Z</time>
      </trkpt>
      <trkpt lat="42.69743" lon="0.66825">
        <ele>2079.5</ele>
        <time>2018-08-08T17:10:56.000Z</time>
      </trkpt>
      <trkpt lat="42.69743" lon="0.66825">
        <ele>2079.5</ele>
        <time>2018-08-08T17:10:57.000Z</time>
      </trkpt>
      <trkpt lat="42.69743" lon="0.66825">
        <ele>2079.5</ele>
        <time>2018-08-08T17:10:58.000Z</time>
      </trkpt>
      <trkpt lat="42.69743" lon="0.66825">
        <ele>2079.5</ele>
        <time>2018-08-08T17:10:59.000Z</time>
      </trkpt>
      <trkpt lat="42.69743" lon="0.66825">
        <ele>2079.5</ele>
        <time>2018-08-08T17:11:00.000Z</time>
      </trkpt>
      <trkpt lat="42.69743" lon="0.66825">
        <ele>2079.5</ele>
        <time>2018-08-08T17:11:01.000Z</time>
      </trkpt>
      <trkpt lat="42.69743" lon="0.66825">
        <ele>2079.5</ele>
        <time>2018-08-08T17:11:02.000Z</time>
      </trkpt>
      <trkpt lat="42.69743" lon="0.66825">
        <ele>2079.5</ele>
        <time>2018-08-08T17:11:03.000Z</time>
      </trkpt>
      <trkpt lat="42.69743" lon="0.66825">
        <ele>2079.5</ele>
        <time>2018-08-08T17:11:04.000Z</time>
      </trkpt>
      <trkpt lat="42.69743" lon="0.66825">
        <ele>2079.5</ele>
        <time>2018-08-08T17:11:05.000Z</time>
      </trkpt>
      <trkpt lat="42.69743" lon="0.66825">
        <ele>2079.5</ele>
        <time>2018-08-08T17:11:06.000Z</time>
      </trkpt>
      <trkpt lat="42.69743" lon="0.66825">
        <ele>2079.5</ele>
        <time>2018-08-08T17:11:07.000Z</time>
      </trkpt>
      <trkpt lat="42.69743" lon="0.66825">
        <ele>2079.5</ele>
        <time>2018-08-08T17:11:08.000Z</time>
      </trkpt>
      <trkpt lat="42.69743" lon="0.66825">
        <ele>2079.5</ele>
        <time>2018-08-08T17:11:09.000Z</time>
      </trkpt>
      <trkpt lat="42.69743" lon="0.66825">
        <ele>2079.5</ele>
        <time>2018-08-08T17:11:10.000Z</time>
      </trkpt>
      <trkpt lat="42.69743" lon="0.66825">
        <ele>2079.5</ele>
        <time>2018-08-08T17:11:11.000Z</time>
      </trkpt>
      <trkpt lat="42.69743" lon="0.66825">
        <ele>2079.5</ele>
        <time>2018-08-08T17:11:12.000Z</time>
      </trkpt>
      <trkpt lat="42.69743" lon="0.66825">
        <ele>2079.5</ele>
        <time>2018-08-08T17:11:13.000Z</time>
      </trkpt>
      <trkpt lat="42.69743" lon="0.66825">
        <ele>2079.5</ele>
        <time>2018-08-08T17:11:14.000Z</time>
      </trkpt>
      <trkpt lat="42.69743" lon="0.66825">
        <ele>2079.5</ele>
        <time>2018-08-08T17:11:15.000Z</time>
      </trkpt>
      <trkpt lat="42.69743" lon="0.66825">
        <ele>2079.5</ele>
        <time>2018-08-08T17:11:16.000Z</time>
      </trkpt>
      <trkpt lat="42.69743" lon="0.66825">
        <ele>2079.5</ele>
        <time>2018-08-08T17:11:17.000Z</time>
      </trkpt>
      <trkpt lat="42.69743" lon="0.66825">
        <ele>2079.5</ele>
        <time>2018-08-08T17:11:18.000Z</time>
      </trkpt>
      <trkpt lat="42.69743" lon="0.66825">
        <ele>2079.5</ele>
        <time>2018-08-08T17:11:19.000Z</time>
      </trkpt>
      <trkpt lat="42.69743" lon="0.66825">
        <ele>2079.5</ele>
        <time>2018-08-08T17:11:20.000Z</time>
      </trkpt>
      <trkpt lat="42.69743" lon="0.66825">
        <ele>2079.5</ele>
        <time>2018-08-08T17:11:21.000Z</time>
      </trkpt>
      <trkpt lat="42.69743" lon="0.66825">
        <ele>2079.5</ele>
        <time>2018-08-08T17:11:22.000Z</time>
      </trkpt>
      <trkpt lat="42.69743" lon="0.66825">
        <ele>2079.5</ele>
        <time>2018-08-08T17:11:23.000Z</time>
      </trkpt>
      <trkpt lat="42.69743" lon="0.66825">
        <ele>2079.5</ele>
        <time>2018-08-08T17:11:24.000Z</time>
      </trkpt>
      <trkpt lat="42.69743" lon="0.66825">
        <ele>2079.5</ele>
        <time>2018-08-08T17:11:25.000Z</time>
      </trkpt>
      <trkpt lat="42.69743" lon="0.66825">
        <ele>2079.5</ele>
        <time>2018-08-08T17:11:26.000Z</time>
      </trkpt>
      <trkpt lat="42.69743" lon="0.66825">
        <ele>2079.5</ele>
        <time>2018-08-08T17:11:27.000Z</time>
      </trkpt>
      <trkpt lat="42.69743" lon="0.66825">
        <ele>2079.5</ele>
        <time>2018-08-08T17:11:28.000Z</time>
      </trkpt>
      <trkpt lat="42.69743" lon="0.66825">
        <ele>2079.5</ele>
        <time>2018-08-08T17:11:29.000Z</time>
      </trkpt>
      <trkpt lat="42.69743" lon="0.66825">
        <ele>2079.5</ele>
        <time>2018-08-08T17:11:30.000Z</time>
      </trkpt>
      <trkpt lat="42.69743" lon="0.66825">
        <ele>2079.5</ele>
        <time>2018-08-08T17:11:31.000Z</time>
      </trkpt>
      <trkpt lat="42.69743" lon="0.66825">
        <ele>2079.5</ele>
        <time>2018-08-08T17:11:32.000Z</time>
      </trkpt>
      <trkpt lat="42.69743" lon="0.66825">
        <ele>2079.5</ele>
        <time>2018-08-08T17:11:33.000Z</time>
      </trkpt>
      <trkpt lat="42.69743" lon="0.66825">
        <ele>2079.5</ele>
        <time>2018-08-08T17:11:34.000Z</time>
      </trkpt>
      <trkpt lat="42.69743" lon="0.66825">
        <ele>2079.5</ele>
        <time>2018-08-08T17:11:35.000Z</time>
      </trkpt>
      <trkpt lat="42.69743" lon="0.66825">
        <ele>2079.5</ele>
        <time>2018-08-08T17:11:36.000Z</time>
      </trkpt>
      <trkpt lat="42.69743" lon="0.66825">
        <ele>2079.5</ele>
        <time>2018-08-08T17:11:37.000Z</time>
      </trkpt>
      <trkpt lat="42.69743" lon="0.66825">
        <ele>2079.5</ele>
        <time>2018-08-08T17:11:38.000Z</time>
      </trkpt>
      <trkpt lat="42.69743" lon="0.66825">
        <ele>2079.5</ele>
        <time>2018-08-08T17:11:39.000Z</time>
      </trkpt>
      <trkpt lat="42.69743" lon="0.66825">
        <ele>2079.5</ele>
        <time>2018-08-08T17:11:40.000Z</time>
      </trkpt>
      <trkpt lat="42.69743" lon="0.66825">
        <ele>2079.5</ele>
        <time>2018-08-08T17:11:41.000Z</time>
      </trkpt>
      <trkpt lat="42.69743" lon="0.66825">
        <ele>2079.5</ele>
        <time>2018-08-08T17:11:42.000Z</time>
      </trkpt>
      <trkpt lat="42.69743" lon="0.66825">
        <ele>2079.5</ele>
        <time>2018-08-08T17:11:43.000Z</time>
      </trkpt>
      <trkpt lat="42.69743" lon="0.66825">
        <ele>2079.5</ele>
        <time>2018-08-08T17:11:44.000Z</time>
      </trkpt>
      <trkpt lat="42.69743" lon="0.66825">
        <ele>2079.5</ele>
        <time>2018-08-08T17:11:45.000Z</time>
      </trkpt>
      <trkpt lat="42.69743" lon="0.66825">
        <ele>2079.5</ele>
        <time>2018-08-08T17:11:46.000Z</time>
      </trkpt>
      <trkpt lat="42.69743" lon="0.66825">
        <ele>2079.5</ele>
        <time>2018-08-08T17:11:47.000Z</time>
      </trkpt>
      <trkpt lat="42.69743" lon="0.66825">
        <ele>2079.5</ele>
        <time>2018-08-08T17:11:48.000Z</time>
      </trkpt>
      <trkpt lat="42.69743" lon="0.66825">
        <ele>2079.5</ele>
        <time>2018-08-08T17:11:49.000Z</time>
      </trkpt>
      <trkpt lat="42.69743" lon="0.66825">
        <ele>2079.5</ele>
        <time>2018-08-08T17:11:50.000Z</time>
      </trkpt>
      <trkpt lat="42.69743" lon="0.66825">
        <ele>2079.5</ele>
        <time>2018-08-08T17:11:51.000Z</time>
      </trkpt>
      <trkpt lat="42.69743" lon="0.66825">
        <ele>2079.5</ele>
        <time>2018-08-08T17:11:52.000Z</time>
      </trkpt>
      <trkpt lat="42.69743" lon="0.66825">
        <ele>2079.5</ele>
        <time>2018-08-08T17:11:53.000Z</time>
      </trkpt>
      <trkpt lat="42.69743" lon="0.66825">
        <ele>2079.5</ele>
        <time>2018-08-08T17:11:54.000Z</time>
      </trkpt>
      <trkpt lat="42.69743" lon="0.66825">
        <ele>2079.5</ele>
        <time>2018-08-08T17:11:55.000Z</time>
      </trkpt>
      <trkpt lat="42.69743" lon="0.66825">
        <ele>2079.5</ele>
        <time>2018-08-08T17:11:56.000Z</time>
      </trkpt>
      <trkpt lat="42.69743" lon="0.66825">
        <ele>2079.5</ele>
        <time>2018-08-08T17:11:57.000Z</time>
      </trkpt>
      <trkpt lat="42.69743" lon="0.66825">
        <ele>2079.5</ele>
        <time>2018-08-08T17:11:58.000Z</time>
      </trkpt>
      <trkpt lat="42.69743" lon="0.66825">
        <ele>2079.5</ele>
        <time>2018-08-08T17:11:59.000Z</time>
      </trkpt>
      <trkpt lat="42.69743" lon="0.66825">
        <ele>2079.5</ele>
        <time>2018-08-08T17:12:00.000Z</time>
      </trkpt>
      <trkpt lat="42.69743" lon="0.66825">
        <ele>2079.5</ele>
        <time>2018-08-08T17:12:01.000Z</time>
      </trkpt>
      <trkpt lat="42.69743" lon="0.66825">
        <ele>2079.5</ele>
        <time>2018-08-08T17:12:02.000Z</time>
      </trkpt>
      <trkpt lat="42.69743" lon="0.66825">
        <ele>2079.5</ele>
        <time>2018-08-08T17:12:03.000Z</time>
      </trkpt>
      <trkpt lat="42.69743" lon="0.66825">
        <ele>2079.5</ele>
        <time>2018-08-08T17:12:04.000Z</time>
      </trkpt>
      <trkpt lat="42.69743" lon="0.66825">
        <ele>2079.5</ele>
        <time>2018-08-08T17:12:05.000Z</time>
      </trkpt>
      <trkpt lat="42.69743" lon="0.66825">
        <ele>2079.5</ele>
        <time>2018-08-08T17:12:06.000Z</time>
      </trkpt>
      <trkpt lat="42.69743" lon="0.66825">
        <ele>2079.5</ele>
        <time>2018-08-08T17:12:07.000Z</time>
      </trkpt>
      <trkpt lat="42.69743" lon="0.66825">
        <ele>2079.5</ele>
        <time>2018-08-08T17:12:08.000Z</time>
      </trkpt>
      <trkpt lat="42.69743" lon="0.66825">
        <ele>2079.5</ele>
        <time>2018-08-08T17:12:09.000Z</time>
      </trkpt>
      <trkpt lat="42.69743" lon="0.66825">
        <ele>2079.5</ele>
        <time>2018-08-08T17:12:10.000Z</time>
      </trkpt>
      <trkpt lat="42.69743" lon="0.66825">
        <ele>2079.5</ele>
        <time>2018-08-08T17:12:11.000Z</time>
      </trkpt>
      <trkpt lat="42.69743" lon="0.66825">
        <ele>2079.5</ele>
        <time>2018-08-08T17:12:12.000Z</time>
      </trkpt>
      <trkpt lat="42.69743" lon="0.66825">
        <ele>2079.5</ele>
        <time>2018-08-08T17:12:13.000Z</time>
      </trkpt>
      <trkpt lat="42.69743" lon="0.66825">
        <ele>2079.5</ele>
        <time>2018-08-08T17:12:14.000Z</time>
      </trkpt>
      <trkpt lat="42.69743" lon="0.66825">
        <ele>2079.5</ele>
        <time>2018-08-08T17:12:15.000Z</time>
      </trkpt>
      <trkpt lat="42.69743" lon="0.66825">
        <ele>2079.5</ele>
        <time>2018-08-08T17:12:16.000Z</time>
      </trkpt>
      <trkpt lat="42.69743" lon="0.66825">
        <ele>2079.5</ele>
        <time>2018-08-08T17:12:17.000Z</time>
      </trkpt>
      <trkpt lat="42.69743" lon="0.66825">
        <ele>2079.5</ele>
        <time>2018-08-08T17:12:18.000Z</time>
      </trkpt>
      <trkpt lat="42.69743" lon="0.66825">
        <ele>2079.5</ele>
        <time>2018-08-08T17:12:19.000Z</time>
      </trkpt>
      <trkpt lat="42.69743" lon="0.66825">
        <ele>2079.5</ele>
        <time>2018-08-08T17:12:20.000Z</time>
      </trkpt>
      <trkpt lat="42.69743" lon="0.66825">
        <ele>2079.5</ele>
        <time>2018-08-08T17:12:21.000Z</time>
      </trkpt>
      <trkpt lat="42.69743" lon="0.66825">
        <ele>2079.5</ele>
        <time>2018-08-08T17:12:22.000Z</time>
      </trkpt>
      <trkpt lat="42.69743" lon="0.66825">
        <ele>2079.5</ele>
        <time>2018-08-08T17:12:23.000Z</time>
      </trkpt>
      <trkpt lat="42.69743" lon="0.66825">
        <ele>2079.5</ele>
        <time>2018-08-08T17:12:24.000Z</time>
      </trkpt>
      <trkpt lat="42.69743" lon="0.66825">
        <ele>2079.5</ele>
        <time>2018-08-08T17:12:25.000Z</time>
      </trkpt>
      <trkpt lat="42.69743" lon="0.66825">
        <ele>2079.5</ele>
        <time>2018-08-08T17:12:26.000Z</time>
      </trkpt>
      <trkpt lat="42.69743" lon="0.66825">
        <ele>2079.5</ele>
        <time>2018-08-08T17:12:27.000Z</time>
      </trkpt>
      <trkpt lat="42.69743" lon="0.66825">
        <ele>2079.5</ele>
        <time>2018-08-08T17:12:28.000Z</time>
      </trkpt>
      <trkpt lat="42.69743" lon="0.66825">
        <ele>2079.5</ele>
        <time>2018-08-08T17:12:29.000Z</time>
      </trkpt>
      <trkpt lat="42.69743" lon="0.66825">
        <ele>2079.5</ele>
        <time>2018-08-08T17:12:30.000Z</time>
      </trkpt>
      <trkpt lat="42.69743" lon="0.66825">
        <ele>2079.5</ele>
        <time>2018-08-08T17:12:31.000Z</time>
      </trkpt>
      <trkpt lat="42.69743" lon="0.66825">
        <ele>2079.5</ele>
        <time>2018-08-08T17:12:32.000Z</time>
      </trkpt>
      <trkpt lat="42.69743" lon="0.66825">
        <ele>2079.5</ele>
        <time>2018-08-08T17:12:33.000Z</time>
      </trkpt>
      <trkpt lat="42.69743" lon="0.66825">
        <ele>2079.5</ele>
        <time>2018-08-08T17:12:34.000Z</time>
      </trkpt>
      <trkpt lat="42.69743" lon="0.66825">
        <ele>2079.5</ele>
        <time>2018-08-08T17:12:35.000Z</time>
      </trkpt>
      <trkpt lat="42.69743" lon="0.66825">
        <ele>2079.5</ele>
        <time>2018-08-08T17:12:36.000Z</time>
      </trkpt>
      <trkpt lat="42.69743" lon="0.66825">
        <ele>2079.5</ele>
        <time>2018-08-08T17:12:37.000Z</time>
      </trkpt>
      <trkpt lat="42.69743" lon="0.66825">
        <ele>2079.5</ele>
        <time>2018-08-08T17:12:38.000Z</time>
      </trkpt>
      <trkpt lat="42.69743" lon="0.66825">
        <ele>2079.5</ele>
        <time>2018-08-08T17:12:39.000Z</time>
      </trkpt>
      <trkpt lat="42.69743" lon="0.66825">
        <ele>2079.5</ele>
        <time>2018-08-08T17:12:40.000Z</time>
      </trkpt>
      <trkpt lat="42.69743" lon="0.66825">
        <ele>2079.5</ele>
        <time>2018-08-08T17:12:41.000Z</time>
      </trkpt>
      <trkpt lat="42.69743" lon="0.66825">
        <ele>2079.5</ele>
        <time>2018-08-08T17:12:42.000Z</time>
      </trkpt>
      <trkpt lat="42.69743" lon="0.66825">
        <ele>2079.5</ele>
        <time>2018-08-08T17:12:43.000Z</time>
      </trkpt>
      <trkpt lat="42.69743" lon="0.66825">
        <ele>2079.5</ele>
        <time>2018-08-08T17:12:44.000Z</time>
      </trkpt>
      <trkpt lat="42.69743" lon="0.66825">
        <ele>2079.5</ele>
        <time>2018-08-08T17:12:45.000Z</time>
      </trkpt>
      <trkpt lat="42.69743" lon="0.66825">
        <ele>2079.5</ele>
        <time>2018-08-08T17:12:46.000Z</time>
      </trkpt>
      <trkpt lat="42.69743" lon="0.66825">
        <ele>2079.5</ele>
        <time>2018-08-08T17:12:47.000Z</time>
      </trkpt>
      <trkpt lat="42.69743" lon="0.66825">
        <ele>2079.5</ele>
        <time>2018-08-08T17:12:48.000Z</time>
      </trkpt>
      <trkpt lat="42.69743" lon="0.66825">
        <ele>2079.5</ele>
        <time>2018-08-08T17:12:49.000Z</time>
      </trkpt>
      <trkpt lat="42.69743" lon="0.66825">
        <ele>2079.5</ele>
        <time>2018-08-08T17:12:50.000Z</time>
      </trkpt>
      <trkpt lat="42.69743" lon="0.66825">
        <ele>2079.5</ele>
        <time>2018-08-08T17:12:51.000Z</time>
      </trkpt>
      <trkpt lat="42.69743" lon="0.66825">
        <ele>2079.5</ele>
        <time>2018-08-08T17:12:52.000Z</time>
      </trkpt>
      <trkpt lat="42.69743" lon="0.66825">
        <ele>2079.5</ele>
        <time>2018-08-08T17:12:53.000Z</time>
      </trkpt>
      <trkpt lat="42.69743" lon="0.66825">
        <ele>2079.5</ele>
        <time>2018-08-08T17:12:54.000Z</time>
      </trkpt>
      <trkpt lat="42.69743" lon="0.66825">
        <ele>2079.5</ele>
        <time>2018-08-08T17:12:55.000Z</time>
      </trkpt>
      <trkpt lat="42.69743" lon="0.66825">
        <ele>2079.5</ele>
        <time>2018-08-08T17:12:56.000Z</time>
      </trkpt>
      <trkpt lat="42.69743" lon="0.66825">
        <ele>2079.5</ele>
        <time>2018-08-08T17:12:57.000Z</time>
      </trkpt>
      <trkpt lat="42.69743" lon="0.66825">
        <ele>2079.5</ele>
        <time>2018-08-08T17:12:58.000Z</time>
      </trkpt>
      <trkpt lat="42.69743" lon="0.66825">
        <ele>2079.5</ele>
        <time>2018-08-08T17:12:59.000Z</time>
      </trkpt>
      <trkpt lat="42.69743" lon="0.66825">
        <ele>2079.5</ele>
        <time>2018-08-08T17:13:00.000Z</time>
      </trkpt>
      <trkpt lat="42.69743" lon="0.66825">
        <ele>2079.5</ele>
        <time>2018-08-08T17:13:01.000Z</time>
      </trkpt>
      <trkpt lat="42.69743" lon="0.66825">
        <ele>2079.5</ele>
        <time>2018-08-08T17:13:02.000Z</time>
      </trkpt>
      <trkpt lat="42.69743" lon="0.66825">
        <ele>2079.5</ele>
        <time>2018-08-08T17:13:03.000Z</time>
      </trkpt>
      <trkpt lat="42.69743" lon="0.66825">
        <ele>2079.5</ele>
        <time>2018-08-08T17:13:04.000Z</time>
      </trkpt>
      <trkpt lat="42.69743" lon="0.66825">
        <ele>2079.5</ele>
        <time>2018-08-08T17:13:05.000Z</time>
      </trkpt>
      <trkpt lat="42.69743" lon="0.66825">
        <ele>2079.5</ele>
        <time>2018-08-08T17:13:06.000Z</time>
      </trkpt>
      <trkpt lat="42.69743" lon="0.66825">
        <ele>2079.5</ele>
        <time>2018-08-08T17:13:07.000Z</time>
      </trkpt>
      <trkpt lat="42.69743" lon="0.66825">
        <ele>2079.5</ele>
        <time>2018-08-08T17:13:08.000Z</time>
      </trkpt>
      <trkpt lat="42.69743" lon="0.66825">
        <ele>2079.5</ele>
        <time>2018-08-08T17:13:09.000Z</time>
      </trkpt>
      <trkpt lat="42.69743" lon="0.66825">
        <ele>2079.5</ele>
        <time>2018-08-08T17:13:10.000Z</time>
      </trkpt>
      <trkpt lat="42.69743" lon="0.66825">
        <ele>2079.5</ele>
        <time>2018-08-08T17:13:11.000Z</time>
      </trkpt>
      <trkpt lat="42.69743" lon="0.66825">
        <ele>2079.5</ele>
        <time>2018-08-08T17:13:12.000Z</time>
      </trkpt>
      <trkpt lat="42.69743" lon="0.66825">
        <ele>2079.5</ele>
        <time>2018-08-08T17:13:13.000Z</time>
      </trkpt>
      <trkpt lat="42.69743" lon="0.66825">
        <ele>2079.5</ele>
        <time>2018-08-08T17:13:14.000Z</time>
      </trkpt>
      <trkpt lat="42.69743" lon="0.66825">
        <ele>2079.5</ele>
        <time>2018-08-08T17:13:15.000Z</time>
      </trkpt>
      <trkpt lat="42.69743" lon="0.66825">
        <ele>2079.5</ele>
        <time>2018-08-08T17:13:16.000Z</time>
      </trkpt>
      <trkpt lat="42.69743" lon="0.66825">
        <ele>2079.5</ele>
        <time>2018-08-08T17:13:17.000Z</time>
      </trkpt>
      <trkpt lat="42.69743" lon="0.66825">
        <ele>2079.5</ele>
        <time>2018-08-08T17:13:18.000Z</time>
      </trkpt>
      <trkpt lat="42.69743" lon="0.66825">
        <ele>2079.5</ele>
        <time>2018-08-08T17:13:19.000Z</time>
      </trkpt>
      <trkpt lat="42.69743" lon="0.66825">
        <ele>2079.5</ele>
        <time>2018-08-08T17:13:20.000Z</time>
      </trkpt>
      <trkpt lat="42.69743" lon="0.66825">
        <ele>2079.5</ele>
        <time>2018-08-08T17:13:21.000Z</time>
      </trkpt>
      <trkpt lat="42.69743" lon="0.66825">
        <ele>2079.5</ele>
        <time>2018-08-08T17:13:22.000Z</time>
      </trkpt>
      <trkpt lat="42.69743" lon="0.66825">
        <ele>2079.5</ele>
        <time>2018-08-08T17:13:23.000Z</time>
      </trkpt>
      <trkpt lat="42.69743" lon="0.66825">
        <ele>2079.5</ele>
        <time>2018-08-08T17:13:24.000Z</time>
      </trkpt>
      <trkpt lat="42.69743" lon="0.66825">
        <ele>2079.5</ele>
        <time>2018-08-08T17:13:25.000Z</time>
      </trkpt>
      <trkpt lat="42.69743" lon="0.66825">
        <ele>2079.5</ele>
        <time>2018-08-08T17:13:26.000Z</time>
      </trkpt>
      <trkpt lat="42.69743" lon="0.66825">
        <ele>2079.5</ele>
        <time>2018-08-08T17:13:27.000Z</time>
      </trkpt>
      <trkpt lat="42.69743" lon="0.66825">
        <ele>2079.5</ele>
        <time>2018-08-08T17:13:28.000Z</time>
      </trkpt>
      <trkpt lat="42.69743" lon="0.66825">
        <ele>2079.5</ele>
        <time>2018-08-08T17:13:29.000Z</time>
      </trkpt>
      <trkpt lat="42.69743" lon="0.66825">
        <ele>2079.5</ele>
        <time>2018-08-08T17:13:30.000Z</time>
      </trkpt>
      <trkpt lat="42.69743" lon="0.66825">
        <ele>2079.5</ele>
        <time>2018-08-08T17:13:31.000Z</time>
      </trkpt>
      <trkpt lat="42.69743" lon="0.66825">
        <ele>2079.5</ele>
        <time>2018-08-08T17:13:32.000Z</time>
      </trkpt>
      <trkpt lat="42.69743" lon="0.66825">
        <ele>2079.5</ele>
        <time>2018-08-08T17:13:33.000Z</time>
      </trkpt>
      <trkpt lat="42.69743" lon="0.66825">
        <ele>2079.5</ele>
        <time>2018-08-08T17:13:34.000Z</time>
      </trkpt>
      <trkpt lat="42.69743" lon="0.66825">
        <ele>2079.5</ele>
        <time>2018-08-08T17:13:35.000Z</time>
      </trkpt>
      <trkpt lat="42.69743" lon="0.66825">
        <ele>2079.5</ele>
        <time>2018-08-08T17:13:36.000Z</time>
      </trkpt>
      <trkpt lat="42.69743" lon="0.66825">
        <ele>2079.5</ele>
        <time>2018-08-08T17:13:37.000Z</time>
      </trkpt>
      <trkpt lat="42.69743" lon="0.66825">
        <ele>2079.5</ele>
        <time>2018-08-08T17:13:38.000Z</time>
      </trkpt>
      <trkpt lat="42.69743" lon="0.66825">
        <ele>2079.5</ele>
        <time>2018-08-08T17:13:39.000Z</time>
      </trkpt>
      <trkpt lat="42.69743" lon="0.66825">
        <ele>2079.5</ele>
        <time>2018-08-08T17:13:40.000Z</time>
      </trkpt>
      <trkpt lat="42.69743" lon="0.66825">
        <ele>2079.5</ele>
        <time>2018-08-08T17:13:41.000Z</time>
      </trkpt>
      <trkpt lat="42.69743" lon="0.66825">
        <ele>2079.5</ele>
        <time>2018-08-08T17:13:42.000Z</time>
      </trkpt>
      <trkpt lat="42.69743" lon="0.66825">
        <ele>2079.5</ele>
        <time>2018-08-08T17:13:43.000Z</time>
      </trkpt>
      <trkpt lat="42.69743" lon="0.66825">
        <ele>2079.5</ele>
        <time>2018-08-08T17:13:44.000Z</time>
      </trkpt>
      <trkpt lat="42.69743" lon="0.66825">
        <ele>2079.5</ele>
        <time>2018-08-08T17:13:45.000Z</time>
      </trkpt>
      <trkpt lat="42.69743" lon="0.66825">
        <ele>2079.5</ele>
        <time>2018-08-08T17:13:46.000Z</time>
      </trkpt>
      <trkpt lat="42.69743" lon="0.66825">
        <ele>2079.5</ele>
        <time>2018-08-08T17:13:47.000Z</time>
      </trkpt>
      <trkpt lat="42.69743" lon="0.66825">
        <ele>2079.5</ele>
        <time>2018-08-08T17:13:48.000Z</time>
      </trkpt>
      <trkpt lat="42.69743" lon="0.66825">
        <ele>2079.5</ele>
        <time>2018-08-08T17:13:49.000Z</time>
      </trkpt>
      <trkpt lat="42.69743" lon="0.66825">
        <ele>2079.5</ele>
        <time>2018-08-08T17:13:50.000Z</time>
      </trkpt>
      <trkpt lat="42.69743" lon="0.66825">
        <ele>2079.5</ele>
        <time>2018-08-08T17:13:51.000Z</time>
      </trkpt>
      <trkpt lat="42.69743" lon="0.66825">
        <ele>2079.5</ele>
        <time>2018-08-08T17:13:52.000Z</time>
      </trkpt>
      <trkpt lat="42.69743" lon="0.66825">
        <ele>2079.5</ele>
        <time>2018-08-08T17:13:53.000Z</time>
      </trkpt>
      <trkpt lat="42.69743" lon="0.66825">
        <ele>2079.3</ele>
        <time>2018-08-08T17:13:54.000Z</time>
      </trkpt>
      <trkpt lat="42.69744" lon="0.66825">
        <ele>2079.2</ele>
        <time>2018-08-08T17:13:55.000Z</time>
      </trkpt>
      <trkpt lat="42.69744" lon="0.66825">
        <ele>2079.1</ele>
        <time>2018-08-08T17:13:56.000Z</time>
      </trkpt>
      <trkpt lat="42.69744" lon="0.66825">
        <ele>2079.1</ele>
        <time>2018-08-08T17:13:57.000Z</time>
      </trkpt>
      <trkpt lat="42.69745" lon="0.66825">
        <ele>2079</ele>
        <time>2018-08-08T17:13:58.000Z</time>
      </trkpt>
      <trkpt lat="42.69745" lon="0.66825">
        <ele>2078.9</ele>
        <time>2018-08-08T17:13:59.000Z</time>
      </trkpt>
      <trkpt lat="42.69745" lon="0.66825">
        <ele>2078.9</ele>
        <time>2018-08-08T17:14:00.000Z</time>
      </trkpt>
      <trkpt lat="42.69745" lon="0.66825">
        <ele>2078.9</ele>
        <time>2018-08-08T17:14:01.000Z</time>
      </trkpt>
      <trkpt lat="42.69745" lon="0.66825">
        <ele>2078.9</ele>
        <time>2018-08-08T17:14:02.000Z</time>
      </trkpt>
      <trkpt lat="42.69745" lon="0.66825">
        <ele>2078.8</ele>
        <time>2018-08-08T17:14:03.000Z</time>
      </trkpt>
      <trkpt lat="42.69745" lon="0.66825">
        <ele>2078.8</ele>
        <time>2018-08-08T17:14:04.000Z</time>
      </trkpt>
      <trkpt lat="42.69745" lon="0.66825">
        <ele>2078.8</ele>
        <time>2018-08-08T17:14:05.000Z</time>
      </trkpt>
      <trkpt lat="42.69745" lon="0.66825">
        <ele>2078.9</ele>
        <time>2018-08-08T17:14:06.000Z</time>
      </trkpt>
      <trkpt lat="42.69745" lon="0.66825">
        <ele>2078.9</ele>
        <time>2018-08-08T17:14:07.000Z</time>
      </trkpt>
      <trkpt lat="42.69745" lon="0.66825">
        <ele>2078.9</ele>
        <time>2018-08-08T17:14:08.000Z</time>
      </trkpt>
      <trkpt lat="42.69745" lon="0.66825">
        <ele>2078.9</ele>
        <time>2018-08-08T17:14:09.000Z</time>
      </trkpt>
      <trkpt lat="42.69745" lon="0.66825">
        <ele>2078.9</ele>
        <time>2018-08-08T17:14:10.000Z</time>
      </trkpt>
      <trkpt lat="42.69745" lon="0.66825">
        <ele>2078.9</ele>
        <time>2018-08-08T17:14:11.000Z</time>
      </trkpt>
      <trkpt lat="42.69745" lon="0.66825">
        <ele>2078.9</ele>
        <time>2018-08-08T17:14:12.000Z</time>
      </trkpt>
      <trkpt lat="42.69745" lon="0.66825">
        <ele>2078.9</ele>
        <time>2018-08-08T17:14:13.000Z</time>
      </trkpt>
      <trkpt lat="42.69745" lon="0.66825">
        <ele>2078.9</ele>
        <time>2018-08-08T17:14:14.000Z</time>
      </trkpt>
      <trkpt lat="42.69745" lon="0.66825">
        <ele>2078.9</ele>
        <time>2018-08-08T17:14:15.000Z</time>
      </trkpt>
      <trkpt lat="42.69745" lon="0.66825">
        <ele>2078.9</ele>
        <time>2018-08-08T17:14:16.000Z</time>
      </trkpt>
      <trkpt lat="42.69745" lon="0.66825">
        <ele>2078.9</ele>
        <time>2018-08-08T17:14:17.000Z</time>
      </trkpt>
      <trkpt lat="42.69745" lon="0.66825">
        <ele>2078.9</ele>
        <time>2018-08-08T17:14:18.000Z</time>
      </trkpt>
      <trkpt lat="42.69745" lon="0.66825">
        <ele>2078.9</ele>
        <time>2018-08-08T17:14:19.000Z</time>
      </trkpt>
      <trkpt lat="42.69745" lon="0.66825">
        <ele>2078.9</ele>
        <time>2018-08-08T17:14:20.000Z</time>
      </trkpt>
      <trkpt lat="42.69745" lon="0.66825">
        <ele>2078.9</ele>
        <time>2018-08-08T17:14:21.000Z</time>
      </trkpt>
      <trkpt lat="42.69745" lon="0.66825">
        <ele>2078.9</ele>
        <time>2018-08-08T17:14:22.000Z</time>
      </trkpt>
      <trkpt lat="42.69745" lon="0.66825">
        <ele>2078.8</ele>
        <time>2018-08-08T17:14:23.000Z</time>
      </trkpt>
      <trkpt lat="42.69745" lon="0.66825">
        <ele>2078.8</ele>
        <time>2018-08-08T17:14:24.000Z</time>
      </trkpt>
      <trkpt lat="42.69745" lon="0.66825">
        <ele>2078.8</ele>
        <time>2018-08-08T17:14:25.000Z</time>
      </trkpt>
      <trkpt lat="42.69745" lon="0.66825">
        <ele>2078.8</ele>
        <time>2018-08-08T17:14:26.000Z</time>
      </trkpt>
      <trkpt lat="42.69745" lon="0.66825">
        <ele>2078.8</ele>
        <time>2018-08-08T17:14:27.000Z</time>
      </trkpt>
      <trkpt lat="42.69745" lon="0.66825">
        <ele>2078.8</ele>
        <time>2018-08-08T17:14:28.000Z</time>
      </trkpt>
      <trkpt lat="42.69745" lon="0.66825">
        <ele>2078.8</ele>
        <time>2018-08-08T17:14:29.000Z</time>
      </trkpt>
      <trkpt lat="42.69745" lon="0.66825">
        <ele>2078.8</ele>
        <time>2018-08-08T17:14:30.000Z</time>
      </trkpt>
      <trkpt lat="42.69745" lon="0.66825">
        <ele>2078.8</ele>
        <time>2018-08-08T17:14:31.000Z</time>
      </trkpt>
      <trkpt lat="42.69745" lon="0.66825">
        <ele>2078.9</ele>
        <time>2018-08-08T17:14:32.000Z</time>
      </trkpt>
      <trkpt lat="42.69745" lon="0.66825">
        <ele>2078.9</ele>
        <time>2018-08-08T17:14:33.000Z</time>
      </trkpt>
      <trkpt lat="42.69745" lon="0.66825">
        <ele>2078.9</ele>
        <time>2018-08-08T17:14:34.000Z</time>
      </trkpt>
      <trkpt lat="42.69745" lon="0.66825">
        <ele>2078.9</ele>
        <time>2018-08-08T17:14:35.000Z</time>
      </trkpt>
      <trkpt lat="42.69745" lon="0.66825">
        <ele>2078.9</ele>
        <time>2018-08-08T17:14:36.000Z</time>
      </trkpt>
      <trkpt lat="42.69745" lon="0.66825">
        <ele>2078.9</ele>
        <time>2018-08-08T17:14:37.000Z</time>
      </trkpt>
      <trkpt lat="42.69745" lon="0.66825">
        <ele>2078.9</ele>
        <time>2018-08-08T17:14:38.000Z</time>
      </trkpt>
      <trkpt lat="42.69745" lon="0.66825">
        <ele>2079</ele>
        <time>2018-08-08T17:14:39.000Z</time>
      </trkpt>
      <trkpt lat="42.69745" lon="0.66825">
        <ele>2079</ele>
        <time>2018-08-08T17:14:40.000Z</time>
      </trkpt>
      <trkpt lat="42.69745" lon="0.66825">
        <ele>2079</ele>
        <time>2018-08-08T17:14:41.000Z</time>
      </trkpt>
      <trkpt lat="42.69745" lon="0.66825">
        <ele>2079</ele>
        <time>2018-08-08T17:14:42.000Z</time>
      </trkpt>
      <trkpt lat="42.69745" lon="0.66825">
        <ele>2079</ele>
        <time>2018-08-08T17:14:43.000Z</time>
      </trkpt>
      <trkpt lat="42.69744" lon="0.66825">
        <ele>2079.1</ele>
        <time>2018-08-08T17:14:44.000Z</time>
      </trkpt>
      <trkpt lat="42.69744" lon="0.66825">
        <ele>2079.1</ele>
        <time>2018-08-08T17:14:45.000Z</time>
      </trkpt>
      <trkpt lat="42.69744" lon="0.66825">
        <ele>2079.1</ele>
        <time>2018-08-08T17:14:46.000Z</time>
      </trkpt>
      <trkpt lat="42.69744" lon="0.66825">
        <ele>2079.1</ele>
        <time>2018-08-08T17:14:47.000Z</time>
      </trkpt>
      <trkpt lat="42.69744" lon="0.66825">
        <ele>2079.1</ele>
        <time>2018-08-08T17:14:48.000Z</time>
      </trkpt>
      <trkpt lat="42.69744" lon="0.66825">
        <ele>2079.1</ele>
        <time>2018-08-08T17:14:49.000Z</time>
      </trkpt>
      <trkpt lat="42.69744" lon="0.66825">
        <ele>2079.2</ele>
        <time>2018-08-08T17:14:50.000Z</time>
      </trkpt>
      <trkpt lat="42.69744" lon="0.66825">
        <ele>2079.2</ele>
        <time>2018-08-08T17:14:51.000Z</time>
      </trkpt>
      <trkpt lat="42.69744" lon="0.66825">
        <ele>2079.2</ele>
        <time>2018-08-08T17:14:52.000Z</time>
      </trkpt>
      <trkpt lat="42.69744" lon="0.66825">
        <ele>2079.2</ele>
        <time>2018-08-08T17:14:53.000Z</time>
      </trkpt>
      <trkpt lat="42.69744" lon="0.66825">
        <ele>2079.2</ele>
        <time>2018-08-08T17:14:54.000Z</time>
      </trkpt>
      <trkpt lat="42.69744" lon="0.66825">
        <ele>2079.2</ele>
        <time>2018-08-08T17:14:55.000Z</time>
      </trkpt>
      <trkpt lat="42.69744" lon="0.66825">
        <ele>2079.2</ele>
        <time>2018-08-08T17:14:56.000Z</time>
      </trkpt>
      <trkpt lat="42.69744" lon="0.66825">
        <ele>2079.2</ele>
        <time>2018-08-08T17:14:57.000Z</time>
      </trkpt>
      <trkpt lat="42.69744" lon="0.66825">
        <ele>2079.2</ele>
        <time>2018-08-08T17:14:58.000Z</time>
      </trkpt>
      <trkpt lat="42.69744" lon="0.66825">
        <ele>2079.2</ele>
        <time>2018-08-08T17:14:59.000Z</time>
      </trkpt>
      <trkpt lat="42.69744" lon="0.66825">
        <ele>2079.2</ele>
        <time>2018-08-08T17:15:00.000Z</time>
      </trkpt>
      <trkpt lat="42.69744" lon="0.66825">
        <ele>2079.2</ele>
        <time>2018-08-08T17:15:01.000Z</time>
      </trkpt>
      <trkpt lat="42.69744" lon="0.66825">
        <ele>2079.2</ele>
        <time>2018-08-08T17:15:02.000Z</time>
      </trkpt>
      <trkpt lat="42.69744" lon="0.66825">
        <ele>2079.2</ele>
        <time>2018-08-08T17:15:03.000Z</time>
      </trkpt>
      <trkpt lat="42.69744" lon="0.66825">
        <ele>2079.2</ele>
        <time>2018-08-08T17:15:04.000Z</time>
      </trkpt>
      <trkpt lat="42.69744" lon="0.66826">
        <ele>2079.2</ele>
        <time>2018-08-08T17:15:05.000Z</time>
      </trkpt>
      <trkpt lat="42.69744" lon="0.66826">
        <ele>2079.1</ele>
        <time>2018-08-08T17:15:06.000Z</time>
      </trkpt>
      <trkpt lat="42.69744" lon="0.66826">
        <ele>2079.2</ele>
        <time>2018-08-08T17:15:07.000Z</time>
      </trkpt>
      <trkpt lat="42.69744" lon="0.66826">
        <ele>2079.1</ele>
        <time>2018-08-08T17:15:08.000Z</time>
      </trkpt>
      <trkpt lat="42.69744" lon="0.66826">
        <ele>2079.1</ele>
        <time>2018-08-08T17:15:09.000Z</time>
      </trkpt>
      <trkpt lat="42.69745" lon="0.66826">
        <ele>2079.1</ele>
        <time>2018-08-08T17:15:10.000Z</time>
      </trkpt>
      <trkpt lat="42.69745" lon="0.66826">
        <ele>2079.1</ele>
        <time>2018-08-08T17:15:11.000Z</time>
      </trkpt>
      <trkpt lat="42.69745" lon="0.66826">
        <ele>2079.1</ele>
        <time>2018-08-08T17:15:12.000Z</time>
      </trkpt>
      <trkpt lat="42.69745" lon="0.66826">
        <ele>2079.1</ele>
        <time>2018-08-08T17:15:13.000Z</time>
      </trkpt>
      <trkpt lat="42.69745" lon="0.66826">
        <ele>2079.1</ele>
        <time>2018-08-08T17:15:14.000Z</time>
      </trkpt>
      <trkpt lat="42.69745" lon="0.66826">
        <ele>2079.1</ele>
        <time>2018-08-08T17:15:15.000Z</time>
      </trkpt>
      <trkpt lat="42.69745" lon="0.66826">
        <ele>2079.1</ele>
        <time>2018-08-08T17:15:16.000Z</time>
      </trkpt>
      <trkpt lat="42.69745" lon="0.66826">
        <ele>2079.1</ele>
        <time>2018-08-08T17:15:17.000Z</time>
      </trkpt>
      <trkpt lat="42.69745" lon="0.66826">
        <ele>2079.1</ele>
        <time>2018-08-08T17:15:18.000Z</time>
      </trkpt>
      <trkpt lat="42.69745" lon="0.66826">
        <ele>2079.1</ele>
        <time>2018-08-08T17:15:19.000Z</time>
      </trkpt>
      <trkpt lat="42.69745" lon="0.66826">
        <ele>2079.1</ele>
        <time>2018-08-08T17:15:20.000Z</time>
      </trkpt>
      <trkpt lat="42.69744" lon="0.66825">
        <ele>2079.1</ele>
        <time>2018-08-08T17:15:21.000Z</time>
      </trkpt>
      <trkpt lat="42.69744" lon="0.66825">
        <ele>2079.1</ele>
        <time>2018-08-08T17:15:22.000Z</time>
      </trkpt>
      <trkpt lat="42.69744" lon="0.66825">
        <ele>2079.1</ele>
        <time>2018-08-08T17:15:23.000Z</time>
      </trkpt>
      <trkpt lat="42.69744" lon="0.66825">
        <ele>2079.1</ele>
        <time>2018-08-08T17:15:24.000Z</time>
      </trkpt>
      <trkpt lat="42.69744" lon="0.66825">
        <ele>2079.1</ele>
        <time>2018-08-08T17:15:25.000Z</time>
      </trkpt>
      <trkpt lat="42.69744" lon="0.66824">
        <ele>2079.1</ele>
        <time>2018-08-08T17:15:26.000Z</time>
      </trkpt>
      <trkpt lat="42.69744" lon="0.66824">
        <ele>2079.1</ele>
        <time>2018-08-08T17:15:27.000Z</time>
      </trkpt>
      <trkpt lat="42.69744" lon="0.66824">
        <ele>2079.1</ele>
        <time>2018-08-08T17:15:28.000Z</time>
      </trkpt>
      <trkpt lat="42.69744" lon="0.66824">
        <ele>2079.1</ele>
        <time>2018-08-08T17:15:29.000Z</time>
      </trkpt>
      <trkpt lat="42.69744" lon="0.66824">
        <ele>2079.1</ele>
        <time>2018-08-08T17:15:30.000Z</time>
      </trkpt>
      <trkpt lat="42.69744" lon="0.66824">
        <ele>2079.1</ele>
        <time>2018-08-08T17:15:31.000Z</time>
      </trkpt>
      <trkpt lat="42.69744" lon="0.66823">
        <ele>2079.1</ele>
        <time>2018-08-08T17:15:32.000Z</time>
      </trkpt>
      <trkpt lat="42.69744" lon="0.66823">
        <ele>2079.1</ele>
        <time>2018-08-08T17:15:33.000Z</time>
      </trkpt>
      <trkpt lat="42.69744" lon="0.66823">
        <ele>2079.1</ele>
        <time>2018-08-08T17:15:34.000Z</time>
      </trkpt>
      <trkpt lat="42.69744" lon="0.66823">
        <ele>2079.1</ele>
        <time>2018-08-08T17:15:35.000Z</time>
      </trkpt>
      <trkpt lat="42.69744" lon="0.66823">
        <ele>2079.1</ele>
        <time>2018-08-08T17:15:36.000Z</time>
      </trkpt>
      <trkpt lat="42.69744" lon="0.66823">
        <ele>2079.1</ele>
        <time>2018-08-08T17:15:37.000Z</time>
      </trkpt>
      <trkpt lat="42.69744" lon="0.66823">
        <ele>2079.1</ele>
        <time>2018-08-08T17:15:38.000Z</time>
      </trkpt>
      <trkpt lat="42.69744" lon="0.66823">
        <ele>2079.1</ele>
        <time>2018-08-08T17:15:39.000Z</time>
      </trkpt>
      <trkpt lat="42.69744" lon="0.66823">
        <ele>2079.1</ele>
        <time>2018-08-08T17:15:40.000Z</time>
      </trkpt>
      <trkpt lat="42.69744" lon="0.66823">
        <ele>2079.1</ele>
        <time>2018-08-08T17:15:41.000Z</time>
      </trkpt>
      <trkpt lat="42.69744" lon="0.66823">
        <ele>2079.1</ele>
        <time>2018-08-08T17:15:42.000Z</time>
      </trkpt>
      <trkpt lat="42.69744" lon="0.66823">
        <ele>2079.1</ele>
        <time>2018-08-08T17:15:43.000Z</time>
      </trkpt>
      <trkpt lat="42.69744" lon="0.66823">
        <ele>2079.1</ele>
        <time>2018-08-08T17:15:44.000Z</time>
      </trkpt>
      <trkpt lat="42.69744" lon="0.66823">
        <ele>2079.1</ele>
        <time>2018-08-08T17:15:45.000Z</time>
      </trkpt>
      <trkpt lat="42.69744" lon="0.66823">
        <ele>2079.1</ele>
        <time>2018-08-08T17:15:46.000Z</time>
      </trkpt>
      <trkpt lat="42.69744" lon="0.66823">
        <ele>2079.1</ele>
        <time>2018-08-08T17:15:47.000Z</time>
      </trkpt>
      <trkpt lat="42.69744" lon="0.66823">
        <ele>2079.1</ele>
        <time>2018-08-08T17:15:48.000Z</time>
      </trkpt>
      <trkpt lat="42.69744" lon="0.66823">
        <ele>2079.1</ele>
        <time>2018-08-08T17:15:49.000Z</time>
      </trkpt>
      <trkpt lat="42.69744" lon="0.66823">
        <ele>2079.1</ele>
        <time>2018-08-08T17:15:50.000Z</time>
      </trkpt>
      <trkpt lat="42.69744" lon="0.66823">
        <ele>2079.1</ele>
        <time>2018-08-08T17:15:51.000Z</time>
      </trkpt>
      <trkpt lat="42.69744" lon="0.66823">
        <ele>2079.1</ele>
        <time>2018-08-08T17:15:52.000Z</time>
      </trkpt>
      <trkpt lat="42.69744" lon="0.66823">
        <ele>2079.1</ele>
        <time>2018-08-08T17:15:53.000Z</time>
      </trkpt>
      <trkpt lat="42.69744" lon="0.66823">
        <ele>2079.1</ele>
        <time>2018-08-08T17:15:54.000Z</time>
      </trkpt>
      <trkpt lat="42.69744" lon="0.66823">
        <ele>2079.1</ele>
        <time>2018-08-08T17:15:55.000Z</time>
      </trkpt>
      <trkpt lat="42.69744" lon="0.66823">
        <ele>2079.1</ele>
        <time>2018-08-08T17:15:56.000Z</time>
      </trkpt>
      <trkpt lat="42.69744" lon="0.66823">
        <ele>2079.1</ele>
        <time>2018-08-08T17:15:57.000Z</time>
      </trkpt>
      <trkpt lat="42.69744" lon="0.66823">
        <ele>2079.1</ele>
        <time>2018-08-08T17:15:58.000Z</time>
      </trkpt>
      <trkpt lat="42.69744" lon="0.66822">
        <ele>2079.1</ele>
        <time>2018-08-08T17:15:59.000Z</time>
      </trkpt>
      <trkpt lat="42.69744" lon="0.66822">
        <ele>2079.1</ele>
        <time>2018-08-08T17:16:00.000Z</time>
      </trkpt>
      <trkpt lat="42.69744" lon="0.66822">
        <ele>2079.1</ele>
        <time>2018-08-08T17:16:01.000Z</time>
      </trkpt>
      <trkpt lat="42.69744" lon="0.66822">
        <ele>2079.1</ele>
        <time>2018-08-08T17:16:02.000Z</time>
      </trkpt>
      <trkpt lat="42.69744" lon="0.66822">
        <ele>2079.1</ele>
        <time>2018-08-08T17:16:03.000Z</time>
      </trkpt>
      <trkpt lat="42.69744" lon="0.66822">
        <ele>2079.1</ele>
        <time>2018-08-08T17:16:04.000Z</time>
      </trkpt>
      <trkpt lat="42.69744" lon="0.66822">
        <ele>2079.1</ele>
        <time>2018-08-08T17:16:05.000Z</time>
      </trkpt>
      <trkpt lat="42.69744" lon="0.66822">
        <ele>2079.1</ele>
        <time>2018-08-08T17:16:06.000Z</time>
      </trkpt>
      <trkpt lat="42.69744" lon="0.66822">
        <ele>2079.1</ele>
        <time>2018-08-08T17:16:07.000Z</time>
      </trkpt>
      <trkpt lat="42.69744" lon="0.66822">
        <ele>2079.2</ele>
        <time>2018-08-08T17:16:08.000Z</time>
      </trkpt>
      <trkpt lat="42.69744" lon="0.66822">
        <ele>2079.1</ele>
        <time>2018-08-08T17:16:09.000Z</time>
      </trkpt>
      <trkpt lat="42.69744" lon="0.66822">
        <ele>2079.1</ele>
        <time>2018-08-08T17:16:10.000Z</time>
      </trkpt>
      <trkpt lat="42.69744" lon="0.66822">
        <ele>2079.1</ele>
        <time>2018-08-08T17:16:11.000Z</time>
      </trkpt>
      <trkpt lat="42.69743" lon="0.66822">
        <ele>2079.2</ele>
        <time>2018-08-08T17:16:12.000Z</time>
      </trkpt>
      <trkpt lat="42.69743" lon="0.66822">
        <ele>2079.2</ele>
        <time>2018-08-08T17:16:13.000Z</time>
      </trkpt>
      <trkpt lat="42.69743" lon="0.66822">
        <ele>2079.2</ele>
        <time>2018-08-08T17:16:14.000Z</time>
      </trkpt>
      <trkpt lat="42.69743" lon="0.66822">
        <ele>2079.2</ele>
        <time>2018-08-08T17:16:15.000Z</time>
      </trkpt>
      <trkpt lat="42.69743" lon="0.66822">
        <ele>2079.2</ele>
        <time>2018-08-08T17:16:16.000Z</time>
      </trkpt>
      <trkpt lat="42.69743" lon="0.66822">
        <ele>2079.2</ele>
        <time>2018-08-08T17:16:17.000Z</time>
      </trkpt>
      <trkpt lat="42.69743" lon="0.66822">
        <ele>2079.2</ele>
        <time>2018-08-08T17:16:18.000Z</time>
      </trkpt>
      <trkpt lat="42.69743" lon="0.66822">
        <ele>2079.2</ele>
        <time>2018-08-08T17:16:19.000Z</time>
      </trkpt>
      <trkpt lat="42.69743" lon="0.66822">
        <ele>2079.2</ele>
        <time>2018-08-08T17:16:20.000Z</time>
      </trkpt>
      <trkpt lat="42.69743" lon="0.66822">
        <ele>2079.2</ele>
        <time>2018-08-08T17:16:21.000Z</time>
      </trkpt>
      <trkpt lat="42.69743" lon="0.66822">
        <ele>2079.2</ele>
        <time>2018-08-08T17:16:22.000Z</time>
      </trkpt>
      <trkpt lat="42.69743" lon="0.66822">
        <ele>2079.2</ele>
        <time>2018-08-08T17:16:23.000Z</time>
      </trkpt>
      <trkpt lat="42.69743" lon="0.66822">
        <ele>2079.2</ele>
        <time>2018-08-08T17:16:24.000Z</time>
      </trkpt>
      <trkpt lat="42.69743" lon="0.66821">
        <ele>2079.2</ele>
        <time>2018-08-08T17:16:25.000Z</time>
      </trkpt>
      <trkpt lat="42.69743" lon="0.66821">
        <ele>2079.2</ele>
        <time>2018-08-08T17:16:26.000Z</time>
      </trkpt>
      <trkpt lat="42.69743" lon="0.66819">
        <ele>2079.2</ele>
        <time>2018-08-08T17:16:27.000Z</time>
      </trkpt>
      <trkpt lat="42.69742" lon="0.66818">
        <ele>2079.2</ele>
        <time>2018-08-08T17:16:28.000Z</time>
      </trkpt>
      <trkpt lat="42.69742" lon="0.66817">
        <ele>2079.2</ele>
        <time>2018-08-08T17:16:29.000Z</time>
      </trkpt>
      <trkpt lat="42.69742" lon="0.66816">
        <ele>2079.2</ele>
        <time>2018-08-08T17:16:30.000Z</time>
      </trkpt>
      <trkpt lat="42.69742" lon="0.66816">
        <ele>2079.2</ele>
        <time>2018-08-08T17:16:31.000Z</time>
      </trkpt>
      <trkpt lat="42.69742" lon="0.66816">
        <ele>2079.2</ele>
        <time>2018-08-08T17:16:32.000Z</time>
      </trkpt>
      <trkpt lat="42.69742" lon="0.66816">
        <ele>2079.2</ele>
        <time>2018-08-08T17:16:33.000Z</time>
      </trkpt>
      <trkpt lat="42.69742" lon="0.66816">
        <ele>2079.2</ele>
        <time>2018-08-08T17:16:34.000Z</time>
      </trkpt>
      <trkpt lat="42.69742" lon="0.66816">
        <ele>2079.3</ele>
        <time>2018-08-08T17:16:35.000Z</time>
      </trkpt>
      <trkpt lat="42.69742" lon="0.66816">
        <ele>2079.3</ele>
        <time>2018-08-08T17:16:36.000Z</time>
      </trkpt>
      <trkpt lat="42.69742" lon="0.66816">
        <ele>2079.3</ele>
        <time>2018-08-08T17:16:37.000Z</time>
      </trkpt>
      <trkpt lat="42.69742" lon="0.66816">
        <ele>2079.3</ele>
        <time>2018-08-08T17:16:38.000Z</time>
      </trkpt>
      <trkpt lat="42.69742" lon="0.66816">
        <ele>2079.3</ele>
        <time>2018-08-08T17:16:39.000Z</time>
      </trkpt>
      <trkpt lat="42.69742" lon="0.66816">
        <ele>2079.3</ele>
        <time>2018-08-08T17:16:40.000Z</time>
      </trkpt>
      <trkpt lat="42.69742" lon="0.66816">
        <ele>2079.3</ele>
        <time>2018-08-08T17:16:41.000Z</time>
      </trkpt>
      <trkpt lat="42.69742" lon="0.66816">
        <ele>2079.3</ele>
        <time>2018-08-08T17:16:42.000Z</time>
      </trkpt>
      <trkpt lat="42.69742" lon="0.66816">
        <ele>2079.3</ele>
        <time>2018-08-08T17:16:43.000Z</time>
      </trkpt>
      <trkpt lat="42.69742" lon="0.66816">
        <ele>2079.3</ele>
        <time>2018-08-08T17:16:44.000Z</time>
      </trkpt>
      <trkpt lat="42.69742" lon="0.66816">
        <ele>2079.3</ele>
        <time>2018-08-08T17:16:45.000Z</time>
      </trkpt>
      <trkpt lat="42.69742" lon="0.66816">
        <ele>2079.3</ele>
        <time>2018-08-08T17:16:46.000Z</time>
      </trkpt>
      <trkpt lat="42.69742" lon="0.66816">
        <ele>2079.3</ele>
        <time>2018-08-08T17:16:47.000Z</time>
      </trkpt>
      <trkpt lat="42.69742" lon="0.66816">
        <ele>2079.3</ele>
        <time>2018-08-08T17:16:48.000Z</time>
      </trkpt>
      <trkpt lat="42.69742" lon="0.66816">
        <ele>2079.3</ele>
        <time>2018-08-08T17:16:49.000Z</time>
      </trkpt>
      <trkpt lat="42.69742" lon="0.66816">
        <ele>2079.3</ele>
        <time>2018-08-08T17:16:50.000Z</time>
      </trkpt>
      <trkpt lat="42.69742" lon="0.66816">
        <ele>2079.3</ele>
        <time>2018-08-08T17:16:51.000Z</time>
      </trkpt>
      <trkpt lat="42.69742" lon="0.66816">
        <ele>2079.3</ele>
        <time>2018-08-08T17:16:52.000Z</time>
      </trkpt>
      <trkpt lat="42.69742" lon="0.66816">
        <ele>2079.3</ele>
        <time>2018-08-08T17:16:53.000Z</time>
      </trkpt>
      <trkpt lat="42.69742" lon="0.66816">
        <ele>2079.3</ele>
        <time>2018-08-08T17:16:54.000Z</time>
      </trkpt>
      <trkpt lat="42.69742" lon="0.66816">
        <ele>2079.3</ele>
        <time>2018-08-08T17:16:55.000Z</time>
      </trkpt>
      <trkpt lat="42.69742" lon="0.66816">
        <ele>2079.3</ele>
        <time>2018-08-08T17:16:56.000Z</time>
      </trkpt>
      <trkpt lat="42.69742" lon="0.66816">
        <ele>2079.3</ele>
        <time>2018-08-08T17:16:57.000Z</time>
      </trkpt>
      <trkpt lat="42.69742" lon="0.66816">
        <ele>2079.3</ele>
        <time>2018-08-08T17:16:58.000Z</time>
      </trkpt>
      <trkpt lat="42.69742" lon="0.66816">
        <ele>2079.3</ele>
        <time>2018-08-08T17:16:59.000Z</time>
      </trkpt>
      <trkpt lat="42.69742" lon="0.66816">
        <ele>2079.3</ele>
        <time>2018-08-08T17:17:00.000Z</time>
      </trkpt>
      <trkpt lat="42.69742" lon="0.66816">
        <ele>2079.3</ele>
        <time>2018-08-08T17:17:01.000Z</time>
      </trkpt>
      <trkpt lat="42.69742" lon="0.66816">
        <ele>2079.3</ele>
        <time>2018-08-08T17:17:02.000Z</time>
      </trkpt>
      <trkpt lat="42.69742" lon="0.66816">
        <ele>2079.3</ele>
        <time>2018-08-08T17:17:03.000Z</time>
      </trkpt>
      <trkpt lat="42.69742" lon="0.66816">
        <ele>2079.3</ele>
        <time>2018-08-08T17:17:04.000Z</time>
      </trkpt>
      <trkpt lat="42.69742" lon="0.66816">
        <ele>2079.3</ele>
        <time>2018-08-08T17:17:05.000Z</time>
      </trkpt>
      <trkpt lat="42.69742" lon="0.66816">
        <ele>2079.3</ele>
        <time>2018-08-08T17:17:06.000Z</time>
      </trkpt>
      <trkpt lat="42.69742" lon="0.66816">
        <ele>2079.3</ele>
        <time>2018-08-08T17:17:07.000Z</time>
      </trkpt>
      <trkpt lat="42.69742" lon="0.66816">
        <ele>2079.3</ele>
        <time>2018-08-08T17:17:08.000Z</time>
      </trkpt>
      <trkpt lat="42.69742" lon="0.66816">
        <ele>2079.3</ele>
        <time>2018-08-08T17:17:09.000Z</time>
      </trkpt>
      <trkpt lat="42.69742" lon="0.66816">
        <ele>2079.3</ele>
        <time>2018-08-08T17:17:10.000Z</time>
      </trkpt>
      <trkpt lat="42.69742" lon="0.66816">
        <ele>2079.3</ele>
        <time>2018-08-08T17:17:11.000Z</time>
      </trkpt>
      <trkpt lat="42.69742" lon="0.66816">
        <ele>2079.3</ele>
        <time>2018-08-08T17:17:12.000Z</time>
      </trkpt>
      <trkpt lat="42.69742" lon="0.66816">
        <ele>2079.3</ele>
        <time>2018-08-08T17:17:13.000Z</time>
      </trkpt>
      <trkpt lat="42.69742" lon="0.66816">
        <ele>2079.3</ele>
        <time>2018-08-08T17:17:14.000Z</time>
      </trkpt>
      <trkpt lat="42.69742" lon="0.66816">
        <ele>2079.3</ele>
        <time>2018-08-08T17:17:15.000Z</time>
      </trkpt>
      <trkpt lat="42.69742" lon="0.66816">
        <ele>2079.3</ele>
        <time>2018-08-08T17:17:16.000Z</time>
      </trkpt>
      <trkpt lat="42.69742" lon="0.66816">
        <ele>2079.3</ele>
        <time>2018-08-08T17:17:17.000Z</time>
      </trkpt>
      <trkpt lat="42.69742" lon="0.66816">
        <ele>2079.3</ele>
        <time>2018-08-08T17:17:18.000Z</time>
      </trkpt>
      <trkpt lat="42.69742" lon="0.66816">
        <ele>2079.3</ele>
        <time>2018-08-08T17:17:19.000Z</time>
      </trkpt>
      <trkpt lat="42.69742" lon="0.66816">
        <ele>2079.3</ele>
        <time>2018-08-08T17:17:20.000Z</time>
      </trkpt>
      <trkpt lat="42.69742" lon="0.66816">
        <ele>2079.3</ele>
        <time>2018-08-08T17:17:21.000Z</time>
      </trkpt>
      <trkpt lat="42.69742" lon="0.66816">
        <ele>2079.3</ele>
        <time>2018-08-08T17:17:22.000Z</time>
      </trkpt>
      <trkpt lat="42.69742" lon="0.66816">
        <ele>2079.3</ele>
        <time>2018-08-08T17:17:23.000Z</time>
      </trkpt>
      <trkpt lat="42.69742" lon="0.66816">
        <ele>2079.3</ele>
        <time>2018-08-08T17:17:24.000Z</time>
      </trkpt>
      <trkpt lat="42.69742" lon="0.66816">
        <ele>2079.3</ele>
        <time>2018-08-08T17:17:25.000Z</time>
      </trkpt>
      <trkpt lat="42.69742" lon="0.66816">
        <ele>2079.3</ele>
        <time>2018-08-08T17:17:26.000Z</time>
      </trkpt>
      <trkpt lat="42.69742" lon="0.66816">
        <ele>2079.3</ele>
        <time>2018-08-08T17:17:27.000Z</time>
      </trkpt>
      <trkpt lat="42.69742" lon="0.66816">
        <ele>2079.3</ele>
        <time>2018-08-08T17:17:28.000Z</time>
      </trkpt>
      <trkpt lat="42.69742" lon="0.66816">
        <ele>2079.3</ele>
        <time>2018-08-08T17:17:29.000Z</time>
      </trkpt>
      <trkpt lat="42.69742" lon="0.66816">
        <ele>2079.3</ele>
        <time>2018-08-08T17:17:30.000Z</time>
      </trkpt>
      <trkpt lat="42.69742" lon="0.66816">
        <ele>2079.3</ele>
        <time>2018-08-08T17:17:31.000Z</time>
      </trkpt>
      <trkpt lat="42.69742" lon="0.66816">
        <ele>2079.3</ele>
        <time>2018-08-08T17:17:32.000Z</time>
      </trkpt>
      <trkpt lat="42.69742" lon="0.66816">
        <ele>2079.3</ele>
        <time>2018-08-08T17:17:33.000Z</time>
      </trkpt>
      <trkpt lat="42.69742" lon="0.66816">
        <ele>2079.3</ele>
        <time>2018-08-08T17:17:34.000Z</time>
      </trkpt>
      <trkpt lat="42.69742" lon="0.66816">
        <ele>2079.3</ele>
        <time>2018-08-08T17:17:35.000Z</time>
      </trkpt>
      <trkpt lat="42.69742" lon="0.66816">
        <ele>2079.3</ele>
        <time>2018-08-08T17:17:36.000Z</time>
      </trkpt>
      <trkpt lat="42.69742" lon="0.66816">
        <ele>2079.3</ele>
        <time>2018-08-08T17:17:37.000Z</time>
      </trkpt>
      <trkpt lat="42.69742" lon="0.66816">
        <ele>2079.3</ele>
        <time>2018-08-08T17:17:38.000Z</time>
      </trkpt>
      <trkpt lat="42.69742" lon="0.66816">
        <ele>2079.3</ele>
        <time>2018-08-08T17:17:39.000Z</time>
      </trkpt>
      <trkpt lat="42.69742" lon="0.66816">
        <ele>2079.3</ele>
        <time>2018-08-08T17:17:40.000Z</time>
      </trkpt>
      <trkpt lat="42.69742" lon="0.66816">
        <ele>2079.3</ele>
        <time>2018-08-08T17:17:41.000Z</time>
      </trkpt>
      <trkpt lat="42.69742" lon="0.66816">
        <ele>2079.3</ele>
        <time>2018-08-08T17:17:42.000Z</time>
      </trkpt>
      <trkpt lat="42.69742" lon="0.66816">
        <ele>2079.3</ele>
        <time>2018-08-08T17:17:43.000Z</time>
      </trkpt>
      <trkpt lat="42.69742" lon="0.66816">
        <ele>2079.3</ele>
        <time>2018-08-08T17:17:44.000Z</time>
      </trkpt>
      <trkpt lat="42.69742" lon="0.66816">
        <ele>2079.3</ele>
        <time>2018-08-08T17:17:45.000Z</time>
      </trkpt>
      <trkpt lat="42.69742" lon="0.66816">
        <ele>2079.3</ele>
        <time>2018-08-08T17:17:46.000Z</time>
      </trkpt>
      <trkpt lat="42.69742" lon="0.66816">
        <ele>2079.3</ele>
        <time>2018-08-08T17:17:47.000Z</time>
      </trkpt>
      <trkpt lat="42.69742" lon="0.66816">
        <ele>2079.3</ele>
        <time>2018-08-08T17:17:48.000Z</time>
      </trkpt>
      <trkpt lat="42.69742" lon="0.66816">
        <ele>2079.3</ele>
        <time>2018-08-08T17:17:49.000Z</time>
      </trkpt>
      <trkpt lat="42.69742" lon="0.66816">
        <ele>2079.3</ele>
        <time>2018-08-08T17:17:50.000Z</time>
      </trkpt>
      <trkpt lat="42.69742" lon="0.66816">
        <ele>2079.3</ele>
        <time>2018-08-08T17:17:51.000Z</time>
      </trkpt>
      <trkpt lat="42.69742" lon="0.66816">
        <ele>2079.3</ele>
        <time>2018-08-08T17:17:52.000Z</time>
      </trkpt>
      <trkpt lat="42.69742" lon="0.66816">
        <ele>2079.3</ele>
        <time>2018-08-08T17:17:53.000Z</time>
      </trkpt>
      <trkpt lat="42.69742" lon="0.66816">
        <ele>2079.3</ele>
        <time>2018-08-08T17:17:54.000Z</time>
      </trkpt>
      <trkpt lat="42.69742" lon="0.66816">
        <ele>2079.3</ele>
        <time>2018-08-08T17:17:55.000Z</time>
      </trkpt>
      <trkpt lat="42.69742" lon="0.66816">
        <ele>2079.3</ele>
        <time>2018-08-08T17:17:56.000Z</time>
      </trkpt>
      <trkpt lat="42.69742" lon="0.66816">
        <ele>2079.3</ele>
        <time>2018-08-08T17:17:57.000Z</time>
      </trkpt>
      <trkpt lat="42.69742" lon="0.66816">
        <ele>2079.3</ele>
        <time>2018-08-08T17:17:58.000Z</time>
      </trkpt>
      <trkpt lat="42.69742" lon="0.66816">
        <ele>2079.3</ele>
        <time>2018-08-08T17:17:59.000Z</time>
      </trkpt>
      <trkpt lat="42.69742" lon="0.66816">
        <ele>2079.3</ele>
        <time>2018-08-08T17:18:00.000Z</time>
      </trkpt>
      <trkpt lat="42.69742" lon="0.66816">
        <ele>2079.3</ele>
        <time>2018-08-08T17:18:01.000Z</time>
      </trkpt>
      <trkpt lat="42.69742" lon="0.66816">
        <ele>2079.3</ele>
        <time>2018-08-08T17:18:02.000Z</time>
      </trkpt>
      <trkpt lat="42.69742" lon="0.66816">
        <ele>2079.3</ele>
        <time>2018-08-08T17:18:03.000Z</time>
      </trkpt>
      <trkpt lat="42.69742" lon="0.66816">
        <ele>2079.3</ele>
        <time>2018-08-08T17:18:04.000Z</time>
      </trkpt>
      <trkpt lat="42.69742" lon="0.66816">
        <ele>2079.3</ele>
        <time>2018-08-08T17:18:05.000Z</time>
      </trkpt>
      <trkpt lat="42.69742" lon="0.66816">
        <ele>2079.3</ele>
        <time>2018-08-08T17:18:06.000Z</time>
      </trkpt>
      <trkpt lat="42.69742" lon="0.66816">
        <ele>2079.3</ele>
        <time>2018-08-08T17:18:07.000Z</time>
      </trkpt>
      <trkpt lat="42.69742" lon="0.66816">
        <ele>2079.3</ele>
        <time>2018-08-08T17:18:08.000Z</time>
      </trkpt>
      <trkpt lat="42.69742" lon="0.66816">
        <ele>2079.3</ele>
        <time>2018-08-08T17:18:09.000Z</time>
      </trkpt>
      <trkpt lat="42.69742" lon="0.66816">
        <ele>2079.3</ele>
        <time>2018-08-08T17:18:10.000Z</time>
      </trkpt>
      <trkpt lat="42.69742" lon="0.66816">
        <ele>2079.3</ele>
        <time>2018-08-08T17:18:11.000Z</time>
      </trkpt>
      <trkpt lat="42.69742" lon="0.66816">
        <ele>2079.3</ele>
        <time>2018-08-08T17:18:12.000Z</time>
      </trkpt>
      <trkpt lat="42.69742" lon="0.66816">
        <ele>2079.3</ele>
        <time>2018-08-08T17:18:13.000Z</time>
      </trkpt>
      <trkpt lat="42.69742" lon="0.66816">
        <ele>2079.3</ele>
        <time>2018-08-08T17:18:14.000Z</time>
      </trkpt>
      <trkpt lat="42.69742" lon="0.66816">
        <ele>2079.3</ele>
        <time>2018-08-08T17:18:15.000Z</time>
      </trkpt>
      <trkpt lat="42.69742" lon="0.66816">
        <ele>2079.3</ele>
        <time>2018-08-08T17:18:16.000Z</time>
      </trkpt>
      <trkpt lat="42.69742" lon="0.66816">
        <ele>2079.3</ele>
        <time>2018-08-08T17:18:17.000Z</time>
      </trkpt>
      <trkpt lat="42.69742" lon="0.66816">
        <ele>2079.3</ele>
        <time>2018-08-08T17:18:18.000Z</time>
      </trkpt>
      <trkpt lat="42.69742" lon="0.66816">
        <ele>2079.3</ele>
        <time>2018-08-08T17:18:19.000Z</time>
      </trkpt>
      <trkpt lat="42.69742" lon="0.66816">
        <ele>2079.3</ele>
        <time>2018-08-08T17:18:20.000Z</time>
      </trkpt>
      <trkpt lat="42.69742" lon="0.66816">
        <ele>2079.3</ele>
        <time>2018-08-08T17:18:21.000Z</time>
      </trkpt>
      <trkpt lat="42.69742" lon="0.66816">
        <ele>2079.3</ele>
        <time>2018-08-08T17:18:22.000Z</time>
      </trkpt>
      <trkpt lat="42.69742" lon="0.66816">
        <ele>2079.3</ele>
        <time>2018-08-08T17:18:23.000Z</time>
      </trkpt>
      <trkpt lat="42.69742" lon="0.66816">
        <ele>2079.3</ele>
        <time>2018-08-08T17:18:24.000Z</time>
      </trkpt>
      <trkpt lat="42.69742" lon="0.66816">
        <ele>2079.3</ele>
        <time>2018-08-08T17:18:25.000Z</time>
      </trkpt>
      <trkpt lat="42.69742" lon="0.66816">
        <ele>2079.3</ele>
        <time>2018-08-08T17:18:26.000Z</time>
      </trkpt>
      <trkpt lat="42.69742" lon="0.66816">
        <ele>2079.3</ele>
        <time>2018-08-08T17:18:27.000Z</time>
      </trkpt>
      <trkpt lat="42.69742" lon="0.66816">
        <ele>2079.3</ele>
        <time>2018-08-08T17:18:28.000Z</time>
      </trkpt>
      <trkpt lat="42.69742" lon="0.66816">
        <ele>2079.3</ele>
        <time>2018-08-08T17:18:29.000Z</time>
      </trkpt>
      <trkpt lat="42.69742" lon="0.66816">
        <ele>2079.3</ele>
        <time>2018-08-08T17:18:30.000Z</time>
      </trkpt>
      <trkpt lat="42.69742" lon="0.66816">
        <ele>2079.3</ele>
        <time>2018-08-08T17:18:31.000Z</time>
      </trkpt>
      <trkpt lat="42.69742" lon="0.66816">
        <ele>2079.3</ele>
        <time>2018-08-08T17:18:32.000Z</time>
      </trkpt>
      <trkpt lat="42.69742" lon="0.66816">
        <ele>2079.3</ele>
        <time>2018-08-08T17:18:33.000Z</time>
      </trkpt>
      <trkpt lat="42.69742" lon="0.66816">
        <ele>2079.3</ele>
        <time>2018-08-08T17:18:34.000Z</time>
      </trkpt>
      <trkpt lat="42.69742" lon="0.66816">
        <ele>2079.3</ele>
        <time>2018-08-08T17:18:35.000Z</time>
      </trkpt>
      <trkpt lat="42.69742" lon="0.66816">
        <ele>2079.3</ele>
        <time>2018-08-08T17:18:36.000Z</time>
      </trkpt>
      <trkpt lat="42.69742" lon="0.66816">
        <ele>2079.3</ele>
        <time>2018-08-08T17:18:37.000Z</time>
      </trkpt>
      <trkpt lat="42.69742" lon="0.66816">
        <ele>2079.3</ele>
        <time>2018-08-08T17:18:38.000Z</time>
      </trkpt>
      <trkpt lat="42.69742" lon="0.66816">
        <ele>2079.3</ele>
        <time>2018-08-08T17:18:39.000Z</time>
      </trkpt>
      <trkpt lat="42.69742" lon="0.66816">
        <ele>2079.3</ele>
        <time>2018-08-08T17:18:40.000Z</time>
      </trkpt>
      <trkpt lat="42.69742" lon="0.66816">
        <ele>2079.3</ele>
        <time>2018-08-08T17:18:41.000Z</time>
      </trkpt>
      <trkpt lat="42.69742" lon="0.66816">
        <ele>2079.3</ele>
        <time>2018-08-08T17:18:42.000Z</time>
      </trkpt>
      <trkpt lat="42.69742" lon="0.66816">
        <ele>2079.3</ele>
        <time>2018-08-08T17:18:43.000Z</time>
      </trkpt>
      <trkpt lat="42.69742" lon="0.66816">
        <ele>2079.3</ele>
        <time>2018-08-08T17:18:44.000Z</time>
      </trkpt>
      <trkpt lat="42.69742" lon="0.66816">
        <ele>2079.3</ele>
        <time>2018-08-08T17:18:45.000Z</time>
      </trkpt>
      <trkpt lat="42.69742" lon="0.66816">
        <ele>2079.3</ele>
        <time>2018-08-08T17:18:46.000Z</time>
      </trkpt>
      <trkpt lat="42.69742" lon="0.66816">
        <ele>2079.3</ele>
        <time>2018-08-08T17:18:47.000Z</time>
      </trkpt>
      <trkpt lat="42.69742" lon="0.66816">
        <ele>2079.3</ele>
        <time>2018-08-08T17:18:48.000Z</time>
      </trkpt>
      <trkpt lat="42.69742" lon="0.66816">
        <ele>2079.3</ele>
        <time>2018-08-08T17:18:49.000Z</time>
      </trkpt>
      <trkpt lat="42.69742" lon="0.66816">
        <ele>2079.3</ele>
        <time>2018-08-08T17:18:50.000Z</time>
      </trkpt>
      <trkpt lat="42.69742" lon="0.66816">
        <ele>2079.3</ele>
        <time>2018-08-08T17:18:51.000Z</time>
      </trkpt>
      <trkpt lat="42.69742" lon="0.66816">
        <ele>2079.3</ele>
        <time>2018-08-08T17:18:52.000Z</time>
      </trkpt>
      <trkpt lat="42.69742" lon="0.66816">
        <ele>2079.3</ele>
        <time>2018-08-08T17:18:53.000Z</time>
      </trkpt>
      <trkpt lat="42.69742" lon="0.66816">
        <ele>2079.3</ele>
        <time>2018-08-08T17:18:54.000Z</time>
      </trkpt>
      <trkpt lat="42.69742" lon="0.66816">
        <ele>2079.3</ele>
        <time>2018-08-08T17:18:55.000Z</time>
      </trkpt>
      <trkpt lat="42.69742" lon="0.66816">
        <ele>2079.3</ele>
        <time>2018-08-08T17:18:56.000Z</time>
      </trkpt>
      <trkpt lat="42.69742" lon="0.66816">
        <ele>2079.3</ele>
        <time>2018-08-08T17:18:57.000Z</time>
      </trkpt>
      <trkpt lat="42.69742" lon="0.66816">
        <ele>2079.3</ele>
        <time>2018-08-08T17:18:58.000Z</time>
      </trkpt>
      <trkpt lat="42.69742" lon="0.66816">
        <ele>2079.3</ele>
        <time>2018-08-08T17:18:59.000Z</time>
      </trkpt>
      <trkpt lat="42.69742" lon="0.66816">
        <ele>2079.3</ele>
        <time>2018-08-08T17:19:00.000Z</time>
      </trkpt>
      <trkpt lat="42.69742" lon="0.66816">
        <ele>2079.3</ele>
        <time>2018-08-08T17:19:01.000Z</time>
      </trkpt>
      <trkpt lat="42.69742" lon="0.66816">
        <ele>2079.3</ele>
        <time>2018-08-08T17:19:02.000Z</time>
      </trkpt>
      <trkpt lat="42.69742" lon="0.66816">
        <ele>2079.3</ele>
        <time>2018-08-08T17:19:03.000Z</time>
      </trkpt>
      <trkpt lat="42.69742" lon="0.66816">
        <ele>2079.3</ele>
        <time>2018-08-08T17:19:04.000Z</time>
      </trkpt>
      <trkpt lat="42.69742" lon="0.66816">
        <ele>2079.3</ele>
        <time>2018-08-08T17:19:05.000Z</time>
      </trkpt>
      <trkpt lat="42.69742" lon="0.66816">
        <ele>2079.3</ele>
        <time>2018-08-08T17:19:06.000Z</time>
      </trkpt>
      <trkpt lat="42.69742" lon="0.66816">
        <ele>2079.3</ele>
        <time>2018-08-08T17:19:07.000Z</time>
      </trkpt>
      <trkpt lat="42.69742" lon="0.66816">
        <ele>2079.3</ele>
        <time>2018-08-08T17:19:08.000Z</time>
      </trkpt>
      <trkpt lat="42.69742" lon="0.66816">
        <ele>2079.3</ele>
        <time>2018-08-08T17:19:09.000Z</time>
      </trkpt>
      <trkpt lat="42.69742" lon="0.66816">
        <ele>2079.3</ele>
        <time>2018-08-08T17:19:10.000Z</time>
      </trkpt>
      <trkpt lat="42.69742" lon="0.66816">
        <ele>2079.3</ele>
        <time>2018-08-08T17:19:11.000Z</time>
      </trkpt>
      <trkpt lat="42.69742" lon="0.66816">
        <ele>2079.3</ele>
        <time>2018-08-08T17:19:12.000Z</time>
      </trkpt>
      <trkpt lat="42.69742" lon="0.66816">
        <ele>2079.3</ele>
        <time>2018-08-08T17:19:13.000Z</time>
      </trkpt>
      <trkpt lat="42.69742" lon="0.66816">
        <ele>2079.3</ele>
        <time>2018-08-08T17:19:14.000Z</time>
      </trkpt>
      <trkpt lat="42.69742" lon="0.66816">
        <ele>2079.3</ele>
        <time>2018-08-08T17:19:15.000Z</time>
      </trkpt>
      <trkpt lat="42.69742" lon="0.66816">
        <ele>2079.3</ele>
        <time>2018-08-08T17:19:16.000Z</time>
      </trkpt>
      <trkpt lat="42.69742" lon="0.66816">
        <ele>2079.3</ele>
        <time>2018-08-08T17:19:17.000Z</time>
      </trkpt>
      <trkpt lat="42.69742" lon="0.66816">
        <ele>2079.3</ele>
        <time>2018-08-08T17:19:18.000Z</time>
      </trkpt>
      <trkpt lat="42.69742" lon="0.66816">
        <ele>2079.3</ele>
        <time>2018-08-08T17:19:19.000Z</time>
      </trkpt>
      <trkpt lat="42.69742" lon="0.66816">
        <ele>2079.3</ele>
        <time>2018-08-08T17:19:20.000Z</time>
      </trkpt>
      <trkpt lat="42.69742" lon="0.66816">
        <ele>2079.3</ele>
        <time>2018-08-08T17:19:21.000Z</time>
      </trkpt>
      <trkpt lat="42.69742" lon="0.66816">
        <ele>2079.3</ele>
        <time>2018-08-08T17:19:22.000Z</time>
      </trkpt>
      <trkpt lat="42.69742" lon="0.66816">
        <ele>2079.3</ele>
        <time>2018-08-08T17:19:23.000Z</time>
      </trkpt>
      <trkpt lat="42.69742" lon="0.66816">
        <ele>2079.3</ele>
        <time>2018-08-08T17:19:24.000Z</time>
      </trkpt>
      <trkpt lat="42.69742" lon="0.66816">
        <ele>2079.3</ele>
        <time>2018-08-08T17:19:25.000Z</time>
      </trkpt>
      <trkpt lat="42.69742" lon="0.66816">
        <ele>2079.3</ele>
        <time>2018-08-08T17:19:26.000Z</time>
      </trkpt>
      <trkpt lat="42.69742" lon="0.66816">
        <ele>2079.3</ele>
        <time>2018-08-08T17:19:27.000Z</time>
      </trkpt>
      <trkpt lat="42.69742" lon="0.66816">
        <ele>2079.3</ele>
        <time>2018-08-08T17:19:28.000Z</time>
      </trkpt>
      <trkpt lat="42.69742" lon="0.66816">
        <ele>2079.3</ele>
        <time>2018-08-08T17:19:29.000Z</time>
      </trkpt>
      <trkpt lat="42.69742" lon="0.66816">
        <ele>2079.3</ele>
        <time>2018-08-08T17:19:30.000Z</time>
      </trkpt>
      <trkpt lat="42.69742" lon="0.66816">
        <ele>2079.3</ele>
        <time>2018-08-08T17:19:31.000Z</time>
      </trkpt>
      <trkpt lat="42.69742" lon="0.66816">
        <ele>2079.3</ele>
        <time>2018-08-08T17:19:32.000Z</time>
      </trkpt>
      <trkpt lat="42.69742" lon="0.66816">
        <ele>2079.3</ele>
        <time>2018-08-08T17:19:33.000Z</time>
      </trkpt>
      <trkpt lat="42.69742" lon="0.66816">
        <ele>2079.3</ele>
        <time>2018-08-08T17:19:34.000Z</time>
      </trkpt>
      <trkpt lat="42.69742" lon="0.66816">
        <ele>2079.3</ele>
        <time>2018-08-08T17:19:35.000Z</time>
      </trkpt>
      <trkpt lat="42.69742" lon="0.66816">
        <ele>2079.3</ele>
        <time>2018-08-08T17:19:36.000Z</time>
      </trkpt>
      <trkpt lat="42.69742" lon="0.66816">
        <ele>2079.3</ele>
        <time>2018-08-08T17:19:37.000Z</time>
      </trkpt>
      <trkpt lat="42.69742" lon="0.66816">
        <ele>2079.3</ele>
        <time>2018-08-08T17:19:38.000Z</time>
      </trkpt>
      <trkpt lat="42.69742" lon="0.66816">
        <ele>2079.3</ele>
        <time>2018-08-08T17:19:39.000Z</time>
      </trkpt>
      <trkpt lat="42.69742" lon="0.66816">
        <ele>2079.3</ele>
        <time>2018-08-08T17:19:40.000Z</time>
      </trkpt>
      <trkpt lat="42.69742" lon="0.66816">
        <ele>2079.3</ele>
        <time>2018-08-08T17:19:41.000Z</time>
      </trkpt>
      <trkpt lat="42.69742" lon="0.66816">
        <ele>2079.3</ele>
        <time>2018-08-08T17:19:42.000Z</time>
      </trkpt>
      <trkpt lat="42.69742" lon="0.66816">
        <ele>2079.3</ele>
        <time>2018-08-08T17:19:43.000Z</time>
      </trkpt>
      <trkpt lat="42.69742" lon="0.66816">
        <ele>2079.3</ele>
        <time>2018-08-08T17:19:44.000Z</time>
      </trkpt>
      <trkpt lat="42.69742" lon="0.66816">
        <ele>2079.3</ele>
        <time>2018-08-08T17:19:45.000Z</time>
      </trkpt>
      <trkpt lat="42.69742" lon="0.66816">
        <ele>2079.3</ele>
        <time>2018-08-08T17:19:46.000Z</time>
      </trkpt>
      <trkpt lat="42.69742" lon="0.66816">
        <ele>2079.3</ele>
        <time>2018-08-08T17:19:47.000Z</time>
      </trkpt>
      <trkpt lat="42.69742" lon="0.66816">
        <ele>2079.3</ele>
        <time>2018-08-08T17:19:48.000Z</time>
      </trkpt>
      <trkpt lat="42.69742" lon="0.66816">
        <ele>2079.3</ele>
        <time>2018-08-08T17:19:49.000Z</time>
      </trkpt>
      <trkpt lat="42.69742" lon="0.66816">
        <ele>2079.3</ele>
        <time>2018-08-08T17:19:50.000Z</time>
      </trkpt>
      <trkpt lat="42.69742" lon="0.66816">
        <ele>2079.3</ele>
        <time>2018-08-08T17:19:51.000Z</time>
      </trkpt>
      <trkpt lat="42.69742" lon="0.66816">
        <ele>2079.3</ele>
        <time>2018-08-08T17:19:52.000Z</time>
      </trkpt>
      <trkpt lat="42.69742" lon="0.66816">
        <ele>2079.3</ele>
        <time>2018-08-08T17:19:53.000Z</time>
      </trkpt>
      <trkpt lat="42.69742" lon="0.66816">
        <ele>2079.3</ele>
        <time>2018-08-08T17:19:54.000Z</time>
      </trkpt>
      <trkpt lat="42.69742" lon="0.66816">
        <ele>2079.3</ele>
        <time>2018-08-08T17:19:55.000Z</time>
      </trkpt>
      <trkpt lat="42.69742" lon="0.66816">
        <ele>2079.3</ele>
        <time>2018-08-08T17:19:56.000Z</time>
      </trkpt>
      <trkpt lat="42.69742" lon="0.66816">
        <ele>2079.3</ele>
        <time>2018-08-08T17:19:57.000Z</time>
      </trkpt>
      <trkpt lat="42.69742" lon="0.66816">
        <ele>2079.3</ele>
        <time>2018-08-08T17:19:58.000Z</time>
      </trkpt>
      <trkpt lat="42.69742" lon="0.66816">
        <ele>2079.3</ele>
        <time>2018-08-08T17:19:59.000Z</time>
      </trkpt>
      <trkpt lat="42.69742" lon="0.66816">
        <ele>2079.3</ele>
        <time>2018-08-08T17:20:00.000Z</time>
      </trkpt>
      <trkpt lat="42.69742" lon="0.66816">
        <ele>2079.3</ele>
        <time>2018-08-08T17:20:01.000Z</time>
      </trkpt>
      <trkpt lat="42.69742" lon="0.66816">
        <ele>2079.3</ele>
        <time>2018-08-08T17:20:02.000Z</time>
      </trkpt>
      <trkpt lat="42.69742" lon="0.66816">
        <ele>2079.3</ele>
        <time>2018-08-08T17:20:03.000Z</time>
      </trkpt>
      <trkpt lat="42.69742" lon="0.66816">
        <ele>2079.3</ele>
        <time>2018-08-08T17:20:04.000Z</time>
      </trkpt>
      <trkpt lat="42.69742" lon="0.66816">
        <ele>2079.3</ele>
        <time>2018-08-08T17:20:05.000Z</time>
      </trkpt>
      <trkpt lat="42.69742" lon="0.66816">
        <ele>2079.3</ele>
        <time>2018-08-08T17:20:06.000Z</time>
      </trkpt>
      <trkpt lat="42.69742" lon="0.66816">
        <ele>2079.3</ele>
        <time>2018-08-08T17:20:07.000Z</time>
      </trkpt>
      <trkpt lat="42.69742" lon="0.66816">
        <ele>2079.3</ele>
        <time>2018-08-08T17:20:08.000Z</time>
      </trkpt>
      <trkpt lat="42.69742" lon="0.66816">
        <ele>2079.3</ele>
        <time>2018-08-08T17:20:09.000Z</time>
      </trkpt>
      <trkpt lat="42.69742" lon="0.66816">
        <ele>2079.3</ele>
        <time>2018-08-08T17:20:10.000Z</time>
      </trkpt>
      <trkpt lat="42.69742" lon="0.66816">
        <ele>2079.3</ele>
        <time>2018-08-08T17:20:11.000Z</time>
      </trkpt>
      <trkpt lat="42.69742" lon="0.66816">
        <ele>2079.3</ele>
        <time>2018-08-08T17:20:12.000Z</time>
      </trkpt>
      <trkpt lat="42.69742" lon="0.66816">
        <ele>2079.3</ele>
        <time>2018-08-08T17:20:13.000Z</time>
      </trkpt>
      <trkpt lat="42.69742" lon="0.66816">
        <ele>2079.3</ele>
        <time>2018-08-08T17:20:14.000Z</time>
      </trkpt>
      <trkpt lat="42.69742" lon="0.66816">
        <ele>2079.3</ele>
        <time>2018-08-08T17:20:15.000Z</time>
      </trkpt>
      <trkpt lat="42.69742" lon="0.66816">
        <ele>2079.3</ele>
        <time>2018-08-08T17:20:16.000Z</time>
      </trkpt>
      <trkpt lat="42.69742" lon="0.66816">
        <ele>2079.3</ele>
        <time>2018-08-08T17:20:17.000Z</time>
      </trkpt>
      <trkpt lat="42.69742" lon="0.66816">
        <ele>2079.3</ele>
        <time>2018-08-08T17:20:18.000Z</time>
      </trkpt>
      <trkpt lat="42.69742" lon="0.66816">
        <ele>2079.3</ele>
        <time>2018-08-08T17:20:19.000Z</time>
      </trkpt>
      <trkpt lat="42.69742" lon="0.66816">
        <ele>2079.3</ele>
        <time>2018-08-08T17:20:20.000Z</time>
      </trkpt>
      <trkpt lat="42.69742" lon="0.66816">
        <ele>2079.3</ele>
        <time>2018-08-08T17:20:21.000Z</time>
      </trkpt>
      <trkpt lat="42.69742" lon="0.66816">
        <ele>2079.3</ele>
        <time>2018-08-08T17:20:22.000Z</time>
      </trkpt>
      <trkpt lat="42.69742" lon="0.66816">
        <ele>2079.3</ele>
        <time>2018-08-08T17:20:23.000Z</time>
      </trkpt>
      <trkpt lat="42.69742" lon="0.66816">
        <ele>2079.3</ele>
        <time>2018-08-08T17:20:24.000Z</time>
      </trkpt>
      <trkpt lat="42.69742" lon="0.66816">
        <ele>2079.3</ele>
        <time>2018-08-08T17:20:25.000Z</time>
      </trkpt>
      <trkpt lat="42.69742" lon="0.66816">
        <ele>2079.3</ele>
        <time>2018-08-08T17:20:26.000Z</time>
      </trkpt>
      <trkpt lat="42.69742" lon="0.66816">
        <ele>2079.3</ele>
        <time>2018-08-08T17:20:27.000Z</time>
      </trkpt>
      <trkpt lat="42.69742" lon="0.66816">
        <ele>2079.3</ele>
        <time>2018-08-08T17:20:28.000Z</time>
      </trkpt>
      <trkpt lat="42.69742" lon="0.66816">
        <ele>2079.3</ele>
        <time>2018-08-08T17:20:29.000Z</time>
      </trkpt>
      <trkpt lat="42.69742" lon="0.66816">
        <ele>2079.3</ele>
        <time>2018-08-08T17:20:30.000Z</time>
      </trkpt>
      <trkpt lat="42.69742" lon="0.66816">
        <ele>2079.3</ele>
        <time>2018-08-08T17:20:31.000Z</time>
      </trkpt>
      <trkpt lat="42.69742" lon="0.66816">
        <ele>2079.3</ele>
        <time>2018-08-08T17:20:32.000Z</time>
      </trkpt>
      <trkpt lat="42.69742" lon="0.66816">
        <ele>2079.3</ele>
        <time>2018-08-08T17:20:33.000Z</time>
      </trkpt>
      <trkpt lat="42.69742" lon="0.66816">
        <ele>2079.3</ele>
        <time>2018-08-08T17:20:34.000Z</time>
      </trkpt>
      <trkpt lat="42.69742" lon="0.66816">
        <ele>2079.3</ele>
        <time>2018-08-08T17:20:35.000Z</time>
      </trkpt>
      <trkpt lat="42.69742" lon="0.66816">
        <ele>2079.3</ele>
        <time>2018-08-08T17:20:36.000Z</time>
      </trkpt>
      <trkpt lat="42.69742" lon="0.66816">
        <ele>2079.3</ele>
        <time>2018-08-08T17:20:37.000Z</time>
      </trkpt>
      <trkpt lat="42.69742" lon="0.66816">
        <ele>2079.3</ele>
        <time>2018-08-08T17:20:38.000Z</time>
      </trkpt>
      <trkpt lat="42.69742" lon="0.66816">
        <ele>2079.3</ele>
        <time>2018-08-08T17:20:39.000Z</time>
      </trkpt>
      <trkpt lat="42.69742" lon="0.66816">
        <ele>2079.3</ele>
        <time>2018-08-08T17:20:40.000Z</time>
      </trkpt>
      <trkpt lat="42.69742" lon="0.66816">
        <ele>2079.3</ele>
        <time>2018-08-08T17:20:41.000Z</time>
      </trkpt>
      <trkpt lat="42.69742" lon="0.66816">
        <ele>2079.3</ele>
        <time>2018-08-08T17:20:42.000Z</time>
      </trkpt>
      <trkpt lat="42.69742" lon="0.66816">
        <ele>2079.3</ele>
        <time>2018-08-08T17:20:43.000Z</time>
      </trkpt>
      <trkpt lat="42.69742" lon="0.66816">
        <ele>2079.3</ele>
        <time>2018-08-08T17:20:44.000Z</time>
      </trkpt>
      <trkpt lat="42.69742" lon="0.66816">
        <ele>2079.3</ele>
        <time>2018-08-08T17:20:45.000Z</time>
      </trkpt>
      <trkpt lat="42.69742" lon="0.66816">
        <ele>2079.3</ele>
        <time>2018-08-08T17:20:46.000Z</time>
      </trkpt>
      <trkpt lat="42.69742" lon="0.66816">
        <ele>2079.3</ele>
        <time>2018-08-08T17:20:47.000Z</time>
      </trkpt>
      <trkpt lat="42.69742" lon="0.66816">
        <ele>2079.3</ele>
        <time>2018-08-08T17:20:48.000Z</time>
      </trkpt>
      <trkpt lat="42.69742" lon="0.66816">
        <ele>2079.3</ele>
        <time>2018-08-08T17:20:49.000Z</time>
      </trkpt>
      <trkpt lat="42.69742" lon="0.66816">
        <ele>2079.3</ele>
        <time>2018-08-08T17:20:50.000Z</time>
      </trkpt>
      <trkpt lat="42.69742" lon="0.66816">
        <ele>2079.3</ele>
        <time>2018-08-08T17:20:51.000Z</time>
      </trkpt>
      <trkpt lat="42.69742" lon="0.66816">
        <ele>2079.3</ele>
        <time>2018-08-08T17:20:52.000Z</time>
      </trkpt>
      <trkpt lat="42.69742" lon="0.66816">
        <ele>2079.3</ele>
        <time>2018-08-08T17:20:53.000Z</time>
      </trkpt>
      <trkpt lat="42.69742" lon="0.66816">
        <ele>2079.3</ele>
        <time>2018-08-08T17:20:54.000Z</time>
      </trkpt>
      <trkpt lat="42.69742" lon="0.66816">
        <ele>2079.3</ele>
        <time>2018-08-08T17:20:55.000Z</time>
      </trkpt>
      <trkpt lat="42.69742" lon="0.66816">
        <ele>2079.3</ele>
        <time>2018-08-08T17:20:56.000Z</time>
      </trkpt>
      <trkpt lat="42.69742" lon="0.66816">
        <ele>2079.3</ele>
        <time>2018-08-08T17:20:57.000Z</time>
      </trkpt>
      <trkpt lat="42.69742" lon="0.66816">
        <ele>2079.3</ele>
        <time>2018-08-08T17:20:58.000Z</time>
      </trkpt>
      <trkpt lat="42.69742" lon="0.66816">
        <ele>2079.3</ele>
        <time>2018-08-08T17:20:59.000Z</time>
      </trkpt>
      <trkpt lat="42.69742" lon="0.66816">
        <ele>2079.3</ele>
        <time>2018-08-08T17:21:00.000Z</time>
      </trkpt>
      <trkpt lat="42.69742" lon="0.66816">
        <ele>2079.3</ele>
        <time>2018-08-08T17:21:01.000Z</time>
      </trkpt>
      <trkpt lat="42.69742" lon="0.66816">
        <ele>2079.3</ele>
        <time>2018-08-08T17:21:02.000Z</time>
      </trkpt>
      <trkpt lat="42.69742" lon="0.66816">
        <ele>2079.3</ele>
        <time>2018-08-08T17:21:03.000Z</time>
      </trkpt>
      <trkpt lat="42.69742" lon="0.66816">
        <ele>2079.3</ele>
        <time>2018-08-08T17:21:04.000Z</time>
      </trkpt>
      <trkpt lat="42.69742" lon="0.66816">
        <ele>2079.3</ele>
        <time>2018-08-08T17:21:05.000Z</time>
      </trkpt>
      <trkpt lat="42.69742" lon="0.66816">
        <ele>2079.3</ele>
        <time>2018-08-08T17:21:06.000Z</time>
      </trkpt>
      <trkpt lat="42.69742" lon="0.66816">
        <ele>2079.3</ele>
        <time>2018-08-08T17:21:07.000Z</time>
      </trkpt>
      <trkpt lat="42.69742" lon="0.66816">
        <ele>2079.3</ele>
        <time>2018-08-08T17:21:08.000Z</time>
      </trkpt>
      <trkpt lat="42.69742" lon="0.66816">
        <ele>2079.3</ele>
        <time>2018-08-08T17:21:09.000Z</time>
      </trkpt>
      <trkpt lat="42.69742" lon="0.66816">
        <ele>2079.3</ele>
        <time>2018-08-08T17:21:10.000Z</time>
      </trkpt>
      <trkpt lat="42.69742" lon="0.66816">
        <ele>2079.3</ele>
        <time>2018-08-08T17:21:11.000Z</time>
      </trkpt>
      <trkpt lat="42.69742" lon="0.66816">
        <ele>2079.3</ele>
        <time>2018-08-08T17:21:12.000Z</time>
      </trkpt>
      <trkpt lat="42.69742" lon="0.66816">
        <ele>2079.3</ele>
        <time>2018-08-08T17:21:13.000Z</time>
      </trkpt>
      <trkpt lat="42.69742" lon="0.66816">
        <ele>2079.3</ele>
        <time>2018-08-08T17:21:14.000Z</time>
      </trkpt>
      <trkpt lat="42.69742" lon="0.66816">
        <ele>2079.3</ele>
        <time>2018-08-08T17:21:15.000Z</time>
      </trkpt>
      <trkpt lat="42.69742" lon="0.66816">
        <ele>2079.3</ele>
        <time>2018-08-08T17:21:16.000Z</time>
      </trkpt>
      <trkpt lat="42.69742" lon="0.66816">
        <ele>2079.3</ele>
        <time>2018-08-08T17:21:17.000Z</time>
      </trkpt>
      <trkpt lat="42.69742" lon="0.66816">
        <ele>2079.3</ele>
        <time>2018-08-08T17:21:18.000Z</time>
      </trkpt>
      <trkpt lat="42.69742" lon="0.66816">
        <ele>2079.3</ele>
        <time>2018-08-08T17:21:19.000Z</time>
      </trkpt>
      <trkpt lat="42.69742" lon="0.66816">
        <ele>2079.3</ele>
        <time>2018-08-08T17:21:20.000Z</time>
      </trkpt>
      <trkpt lat="42.69742" lon="0.66816">
        <ele>2079.3</ele>
        <time>2018-08-08T17:21:21.000Z</time>
      </trkpt>
      <trkpt lat="42.69742" lon="0.66816">
        <ele>2079.3</ele>
        <time>2018-08-08T17:21:22.000Z</time>
      </trkpt>
      <trkpt lat="42.69742" lon="0.66816">
        <ele>2079.3</ele>
        <time>2018-08-08T17:21:23.000Z</time>
      </trkpt>
      <trkpt lat="42.69742" lon="0.66816">
        <ele>2079.3</ele>
        <time>2018-08-08T17:21:24.000Z</time>
      </trkpt>
      <trkpt lat="42.69742" lon="0.66816">
        <ele>2079.3</ele>
        <time>2018-08-08T17:21:25.000Z</time>
      </trkpt>
      <trkpt lat="42.69742" lon="0.66816">
        <ele>2079.3</ele>
        <time>2018-08-08T17:21:26.000Z</time>
      </trkpt>
      <trkpt lat="42.69742" lon="0.66816">
        <ele>2079.3</ele>
        <time>2018-08-08T17:21:27.000Z</time>
      </trkpt>
      <trkpt lat="42.69742" lon="0.66816">
        <ele>2079.3</ele>
        <time>2018-08-08T17:21:28.000Z</time>
      </trkpt>
      <trkpt lat="42.69742" lon="0.66816">
        <ele>2079.3</ele>
        <time>2018-08-08T17:21:29.000Z</time>
      </trkpt>
      <trkpt lat="42.69742" lon="0.66816">
        <ele>2079.3</ele>
        <time>2018-08-08T17:21:30.000Z</time>
      </trkpt>
      <trkpt lat="42.69742" lon="0.66816">
        <ele>2079.3</ele>
        <time>2018-08-08T17:21:31.000Z</time>
      </trkpt>
      <trkpt lat="42.69742" lon="0.66816">
        <ele>2079.3</ele>
        <time>2018-08-08T17:21:32.000Z</time>
      </trkpt>
      <trkpt lat="42.69742" lon="0.66816">
        <ele>2079.3</ele>
        <time>2018-08-08T17:21:33.000Z</time>
      </trkpt>
      <trkpt lat="42.69742" lon="0.66816">
        <ele>2079.3</ele>
        <time>2018-08-08T17:21:34.000Z</time>
      </trkpt>
      <trkpt lat="42.69742" lon="0.66816">
        <ele>2079.3</ele>
        <time>2018-08-08T17:21:35.000Z</time>
      </trkpt>
      <trkpt lat="42.69742" lon="0.66816">
        <ele>2079.3</ele>
        <time>2018-08-08T17:21:36.000Z</time>
      </trkpt>
      <trkpt lat="42.69742" lon="0.66816">
        <ele>2079.3</ele>
        <time>2018-08-08T17:21:37.000Z</time>
      </trkpt>
      <trkpt lat="42.69742" lon="0.66816">
        <ele>2079.3</ele>
        <time>2018-08-08T17:21:38.000Z</time>
      </trkpt>
      <trkpt lat="42.69742" lon="0.66816">
        <ele>2079.3</ele>
        <time>2018-08-08T17:21:39.000Z</time>
      </trkpt>
      <trkpt lat="42.69742" lon="0.66816">
        <ele>2079.3</ele>
        <time>2018-08-08T17:21:40.000Z</time>
      </trkpt>
      <trkpt lat="42.69742" lon="0.66816">
        <ele>2079.3</ele>
        <time>2018-08-08T17:21:41.000Z</time>
      </trkpt>
      <trkpt lat="42.69742" lon="0.66816">
        <ele>2079.3</ele>
        <time>2018-08-08T17:21:42.000Z</time>
      </trkpt>
      <trkpt lat="42.69742" lon="0.66816">
        <ele>2079.3</ele>
        <time>2018-08-08T17:21:43.000Z</time>
      </trkpt>
      <trkpt lat="42.69742" lon="0.66816">
        <ele>2079.3</ele>
        <time>2018-08-08T17:21:44.000Z</time>
      </trkpt>
      <trkpt lat="42.69742" lon="0.66816">
        <ele>2079.3</ele>
        <time>2018-08-08T17:21:45.000Z</time>
      </trkpt>
      <trkpt lat="42.69742" lon="0.66816">
        <ele>2079.3</ele>
        <time>2018-08-08T17:21:46.000Z</time>
      </trkpt>
      <trkpt lat="42.69742" lon="0.66816">
        <ele>2079.3</ele>
        <time>2018-08-08T17:21:47.000Z</time>
      </trkpt>
      <trkpt lat="42.69742" lon="0.66816">
        <ele>2079.3</ele>
        <time>2018-08-08T17:21:48.000Z</time>
      </trkpt>
      <trkpt lat="42.69742" lon="0.66816">
        <ele>2079.3</ele>
        <time>2018-08-08T17:21:49.000Z</time>
      </trkpt>
      <trkpt lat="42.69742" lon="0.66816">
        <ele>2079.3</ele>
        <time>2018-08-08T17:21:50.000Z</time>
      </trkpt>
      <trkpt lat="42.69742" lon="0.66816">
        <ele>2079.3</ele>
        <time>2018-08-08T17:21:51.000Z</time>
      </trkpt>
      <trkpt lat="42.69742" lon="0.66816">
        <ele>2079.3</ele>
        <time>2018-08-08T17:21:52.000Z</time>
      </trkpt>
      <trkpt lat="42.69742" lon="0.66816">
        <ele>2079.3</ele>
        <time>2018-08-08T17:21:53.000Z</time>
      </trkpt>
      <trkpt lat="42.69742" lon="0.66816">
        <ele>2079.3</ele>
        <time>2018-08-08T17:21:54.000Z</time>
      </trkpt>
      <trkpt lat="42.69742" lon="0.66816">
        <ele>2079.3</ele>
        <time>2018-08-08T17:21:55.000Z</time>
      </trkpt>
      <trkpt lat="42.69742" lon="0.66816">
        <ele>2079.3</ele>
        <time>2018-08-08T17:21:56.000Z</time>
      </trkpt>
      <trkpt lat="42.69742" lon="0.66816">
        <ele>2079.3</ele>
        <time>2018-08-08T17:21:57.000Z</time>
      </trkpt>
      <trkpt lat="42.69742" lon="0.66816">
        <ele>2079.3</ele>
        <time>2018-08-08T17:21:58.000Z</time>
      </trkpt>
      <trkpt lat="42.69742" lon="0.66816">
        <ele>2079.3</ele>
        <time>2018-08-08T17:21:59.000Z</time>
      </trkpt>
      <trkpt lat="42.69742" lon="0.66816">
        <ele>2079.3</ele>
        <time>2018-08-08T17:22:00.000Z</time>
      </trkpt>
      <trkpt lat="42.69742" lon="0.66816">
        <ele>2079.3</ele>
        <time>2018-08-08T17:22:01.000Z</time>
      </trkpt>
      <trkpt lat="42.69742" lon="0.66816">
        <ele>2079.3</ele>
        <time>2018-08-08T17:22:02.000Z</time>
      </trkpt>
      <trkpt lat="42.69742" lon="0.66816">
        <ele>2079.3</ele>
        <time>2018-08-08T17:22:03.000Z</time>
      </trkpt>
      <trkpt lat="42.69742" lon="0.66816">
        <ele>2079.3</ele>
        <time>2018-08-08T17:22:04.000Z</time>
      </trkpt>
      <trkpt lat="42.69742" lon="0.66816">
        <ele>2079.3</ele>
        <time>2018-08-08T17:22:05.000Z</time>
      </trkpt>
      <trkpt lat="42.69742" lon="0.66816">
        <ele>2079.3</ele>
        <time>2018-08-08T17:22:06.000Z</time>
      </trkpt>
      <trkpt lat="42.69742" lon="0.66816">
        <ele>2079.3</ele>
        <time>2018-08-08T17:22:07.000Z</time>
      </trkpt>
      <trkpt lat="42.69742" lon="0.66816">
        <ele>2079.3</ele>
        <time>2018-08-08T17:22:08.000Z</time>
      </trkpt>
      <trkpt lat="42.69742" lon="0.66816">
        <ele>2079.3</ele>
        <time>2018-08-08T17:22:09.000Z</time>
      </trkpt>
      <trkpt lat="42.69742" lon="0.66816">
        <ele>2079.3</ele>
        <time>2018-08-08T17:22:10.000Z</time>
      </trkpt>
      <trkpt lat="42.69742" lon="0.66816">
        <ele>2079.3</ele>
        <time>2018-08-08T17:22:11.000Z</time>
      </trkpt>
      <trkpt lat="42.69742" lon="0.66816">
        <ele>2079.3</ele>
        <time>2018-08-08T17:22:12.000Z</time>
      </trkpt>
      <trkpt lat="42.69742" lon="0.66816">
        <ele>2079.3</ele>
        <time>2018-08-08T17:22:13.000Z</time>
      </trkpt>
      <trkpt lat="42.69742" lon="0.66816">
        <ele>2079.3</ele>
        <time>2018-08-08T17:22:14.000Z</time>
      </trkpt>
      <trkpt lat="42.69742" lon="0.66816">
        <ele>2079.3</ele>
        <time>2018-08-08T17:22:15.000Z</time>
      </trkpt>
      <trkpt lat="42.69742" lon="0.66816">
        <ele>2079.3</ele>
        <time>2018-08-08T17:22:16.000Z</time>
      </trkpt>
      <trkpt lat="42.69742" lon="0.66816">
        <ele>2079.3</ele>
        <time>2018-08-08T17:22:17.000Z</time>
      </trkpt>
      <trkpt lat="42.69742" lon="0.66816">
        <ele>2079.3</ele>
        <time>2018-08-08T17:22:18.000Z</time>
      </trkpt>
      <trkpt lat="42.69742" lon="0.66816">
        <ele>2079.3</ele>
        <time>2018-08-08T17:22:19.000Z</time>
      </trkpt>
      <trkpt lat="42.69742" lon="0.66816">
        <ele>2079.3</ele>
        <time>2018-08-08T17:22:20.000Z</time>
      </trkpt>
      <trkpt lat="42.69742" lon="0.66816">
        <ele>2079.3</ele>
        <time>2018-08-08T17:22:21.000Z</time>
      </trkpt>
      <trkpt lat="42.69742" lon="0.66816">
        <ele>2079.3</ele>
        <time>2018-08-08T17:22:22.000Z</time>
      </trkpt>
      <trkpt lat="42.69742" lon="0.66816">
        <ele>2079.3</ele>
        <time>2018-08-08T17:22:23.000Z</time>
      </trkpt>
      <trkpt lat="42.69742" lon="0.66816">
        <ele>2079.3</ele>
        <time>2018-08-08T17:22:24.000Z</time>
      </trkpt>
      <trkpt lat="42.69742" lon="0.66816">
        <ele>2079.3</ele>
        <time>2018-08-08T17:22:25.000Z</time>
      </trkpt>
      <trkpt lat="42.69742" lon="0.66816">
        <ele>2079.3</ele>
        <time>2018-08-08T17:22:26.000Z</time>
      </trkpt>
      <trkpt lat="42.69742" lon="0.66816">
        <ele>2079.3</ele>
        <time>2018-08-08T17:22:27.000Z</time>
      </trkpt>
      <trkpt lat="42.69742" lon="0.66816">
        <ele>2079.3</ele>
        <time>2018-08-08T17:22:28.000Z</time>
      </trkpt>
      <trkpt lat="42.69742" lon="0.66816">
        <ele>2079.3</ele>
        <time>2018-08-08T17:22:29.000Z</time>
      </trkpt>
      <trkpt lat="42.69742" lon="0.66816">
        <ele>2079.3</ele>
        <time>2018-08-08T17:22:30.000Z</time>
      </trkpt>
      <trkpt lat="42.69742" lon="0.66816">
        <ele>2079.3</ele>
        <time>2018-08-08T17:22:31.000Z</time>
      </trkpt>
      <trkpt lat="42.69742" lon="0.66816">
        <ele>2079.3</ele>
        <time>2018-08-08T17:22:32.000Z</time>
      </trkpt>
      <trkpt lat="42.69742" lon="0.66816">
        <ele>2079.3</ele>
        <time>2018-08-08T17:22:33.000Z</time>
      </trkpt>
      <trkpt lat="42.69742" lon="0.66816">
        <ele>2079.3</ele>
        <time>2018-08-08T17:22:34.000Z</time>
      </trkpt>
      <trkpt lat="42.69742" lon="0.66816">
        <ele>2079.3</ele>
        <time>2018-08-08T17:22:35.000Z</time>
      </trkpt>
      <trkpt lat="42.69742" lon="0.66816">
        <ele>2079.3</ele>
        <time>2018-08-08T17:22:36.000Z</time>
      </trkpt>
      <trkpt lat="42.69742" lon="0.66816">
        <ele>2079.3</ele>
        <time>2018-08-08T17:22:37.000Z</time>
      </trkpt>
      <trkpt lat="42.69742" lon="0.66816">
        <ele>2079.3</ele>
        <time>2018-08-08T17:22:38.000Z</time>
      </trkpt>
      <trkpt lat="42.69742" lon="0.66816">
        <ele>2079.3</ele>
        <time>2018-08-08T17:22:39.000Z</time>
      </trkpt>
      <trkpt lat="42.69742" lon="0.66816">
        <ele>2079.3</ele>
        <time>2018-08-08T17:22:40.000Z</time>
      </trkpt>
      <trkpt lat="42.69742" lon="0.66816">
        <ele>2079.3</ele>
        <time>2018-08-08T17:22:41.000Z</time>
      </trkpt>
      <trkpt lat="42.69742" lon="0.66816">
        <ele>2079.3</ele>
        <time>2018-08-08T17:22:42.000Z</time>
      </trkpt>
      <trkpt lat="42.69742" lon="0.66816">
        <ele>2079.3</ele>
        <time>2018-08-08T17:22:43.000Z</time>
      </trkpt>
      <trkpt lat="42.69742" lon="0.66816">
        <ele>2079.3</ele>
        <time>2018-08-08T17:22:44.000Z</time>
      </trkpt>
      <trkpt lat="42.69742" lon="0.66816">
        <ele>2079.3</ele>
        <time>2018-08-08T17:22:45.000Z</time>
      </trkpt>
      <trkpt lat="42.69742" lon="0.66816">
        <ele>2079.3</ele>
        <time>2018-08-08T17:22:46.000Z</time>
      </trkpt>
      <trkpt lat="42.69742" lon="0.66816">
        <ele>2079.3</ele>
        <time>2018-08-08T17:22:47.000Z</time>
      </trkpt>
      <trkpt lat="42.69742" lon="0.66816">
        <ele>2079.3</ele>
        <time>2018-08-08T17:22:48.000Z</time>
      </trkpt>
      <trkpt lat="42.69742" lon="0.66816">
        <ele>2079.3</ele>
        <time>2018-08-08T17:22:49.000Z</time>
      </trkpt>
      <trkpt lat="42.69742" lon="0.66816">
        <ele>2079.3</ele>
        <time>2018-08-08T17:22:50.000Z</time>
      </trkpt>
      <trkpt lat="42.69742" lon="0.66816">
        <ele>2079.3</ele>
        <time>2018-08-08T17:22:51.000Z</time>
      </trkpt>
      <trkpt lat="42.69742" lon="0.66816">
        <ele>2079.3</ele>
        <time>2018-08-08T17:22:52.000Z</time>
      </trkpt>
      <trkpt lat="42.69742" lon="0.66816">
        <ele>2079.3</ele>
        <time>2018-08-08T17:22:53.000Z</time>
      </trkpt>
      <trkpt lat="42.69742" lon="0.66816">
        <ele>2079.3</ele>
        <time>2018-08-08T17:22:54.000Z</time>
      </trkpt>
      <trkpt lat="42.69742" lon="0.66816">
        <ele>2079.3</ele>
        <time>2018-08-08T17:22:55.000Z</time>
      </trkpt>
      <trkpt lat="42.69742" lon="0.66816">
        <ele>2079.3</ele>
        <time>2018-08-08T17:22:56.000Z</time>
      </trkpt>
      <trkpt lat="42.69742" lon="0.66816">
        <ele>2079.3</ele>
        <time>2018-08-08T17:22:57.000Z</time>
      </trkpt>
      <trkpt lat="42.69742" lon="0.66816">
        <ele>2079.3</ele>
        <time>2018-08-08T17:22:58.000Z</time>
      </trkpt>
      <trkpt lat="42.69742" lon="0.66816">
        <ele>2079.3</ele>
        <time>2018-08-08T17:22:59.000Z</time>
      </trkpt>
      <trkpt lat="42.69742" lon="0.66816">
        <ele>2079.3</ele>
        <time>2018-08-08T17:23:00.000Z</time>
      </trkpt>
      <trkpt lat="42.69742" lon="0.66816">
        <ele>2079.3</ele>
        <time>2018-08-08T17:23:01.000Z</time>
      </trkpt>
      <trkpt lat="42.69742" lon="0.66816">
        <ele>2079.3</ele>
        <time>2018-08-08T17:23:02.000Z</time>
      </trkpt>
      <trkpt lat="42.69742" lon="0.66816">
        <ele>2079.3</ele>
        <time>2018-08-08T17:23:03.000Z</time>
      </trkpt>
      <trkpt lat="42.69742" lon="0.66816">
        <ele>2079.3</ele>
        <time>2018-08-08T17:23:04.000Z</time>
      </trkpt>
      <trkpt lat="42.69742" lon="0.66816">
        <ele>2079.3</ele>
        <time>2018-08-08T17:23:05.000Z</time>
      </trkpt>
      <trkpt lat="42.69742" lon="0.66816">
        <ele>2079.3</ele>
        <time>2018-08-08T17:23:06.000Z</time>
      </trkpt>
      <trkpt lat="42.69742" lon="0.66816">
        <ele>2079.3</ele>
        <time>2018-08-08T17:23:07.000Z</time>
      </trkpt>
      <trkpt lat="42.69742" lon="0.66816">
        <ele>2079.3</ele>
        <time>2018-08-08T17:23:08.000Z</time>
      </trkpt>
      <trkpt lat="42.69742" lon="0.66816">
        <ele>2079.3</ele>
        <time>2018-08-08T17:23:09.000Z</time>
      </trkpt>
      <trkpt lat="42.69742" lon="0.66816">
        <ele>2079.3</ele>
        <time>2018-08-08T17:23:10.000Z</time>
      </trkpt>
      <trkpt lat="42.69742" lon="0.66816">
        <ele>2079.3</ele>
        <time>2018-08-08T17:23:11.000Z</time>
      </trkpt>
      <trkpt lat="42.69742" lon="0.66816">
        <ele>2079.3</ele>
        <time>2018-08-08T17:23:12.000Z</time>
      </trkpt>
      <trkpt lat="42.69742" lon="0.66816">
        <ele>2079.3</ele>
        <time>2018-08-08T17:23:13.000Z</time>
      </trkpt>
      <trkpt lat="42.69742" lon="0.66816">
        <ele>2079.3</ele>
        <time>2018-08-08T17:23:14.000Z</time>
      </trkpt>
      <trkpt lat="42.69742" lon="0.66816">
        <ele>2079.3</ele>
        <time>2018-08-08T17:23:15.000Z</time>
      </trkpt>
      <trkpt lat="42.69742" lon="0.66816">
        <ele>2079.3</ele>
        <time>2018-08-08T17:23:16.000Z</time>
      </trkpt>
      <trkpt lat="42.69742" lon="0.66816">
        <ele>2079.3</ele>
        <time>2018-08-08T17:23:17.000Z</time>
      </trkpt>
      <trkpt lat="42.69742" lon="0.66816">
        <ele>2079.3</ele>
        <time>2018-08-08T17:23:18.000Z</time>
      </trkpt>
      <trkpt lat="42.69742" lon="0.66816">
        <ele>2079.3</ele>
        <time>2018-08-08T17:23:19.000Z</time>
      </trkpt>
      <trkpt lat="42.69742" lon="0.66816">
        <ele>2079.3</ele>
        <time>2018-08-08T17:23:20.000Z</time>
      </trkpt>
      <trkpt lat="42.69742" lon="0.66816">
        <ele>2079.3</ele>
        <time>2018-08-08T17:23:21.000Z</time>
      </trkpt>
      <trkpt lat="42.69742" lon="0.66816">
        <ele>2079.3</ele>
        <time>2018-08-08T17:23:22.000Z</time>
      </trkpt>
      <trkpt lat="42.69742" lon="0.66816">
        <ele>2079.3</ele>
        <time>2018-08-08T17:23:23.000Z</time>
      </trkpt>
      <trkpt lat="42.69742" lon="0.66816">
        <ele>2079.3</ele>
        <time>2018-08-08T17:23:24.000Z</time>
      </trkpt>
      <trkpt lat="42.69742" lon="0.66816">
        <ele>2079.3</ele>
        <time>2018-08-08T17:23:25.000Z</time>
      </trkpt>
      <trkpt lat="42.69742" lon="0.66816">
        <ele>2079.3</ele>
        <time>2018-08-08T17:23:26.000Z</time>
      </trkpt>
      <trkpt lat="42.69742" lon="0.66816">
        <ele>2079.3</ele>
        <time>2018-08-08T17:23:27.000Z</time>
      </trkpt>
      <trkpt lat="42.69742" lon="0.66816">
        <ele>2079.3</ele>
        <time>2018-08-08T17:23:28.000Z</time>
      </trkpt>
      <trkpt lat="42.69742" lon="0.66816">
        <ele>2079.3</ele>
        <time>2018-08-08T17:23:29.000Z</time>
      </trkpt>
      <trkpt lat="42.69742" lon="0.66816">
        <ele>2079.3</ele>
        <time>2018-08-08T17:23:30.000Z</time>
      </trkpt>
      <trkpt lat="42.69742" lon="0.66816">
        <ele>2079.3</ele>
        <time>2018-08-08T17:23:31.000Z</time>
      </trkpt>
      <trkpt lat="42.69742" lon="0.66816">
        <ele>2079.3</ele>
        <time>2018-08-08T17:23:32.000Z</time>
      </trkpt>
      <trkpt lat="42.69742" lon="0.66816">
        <ele>2079.3</ele>
        <time>2018-08-08T17:23:33.000Z</time>
      </trkpt>
      <trkpt lat="42.69742" lon="0.66816">
        <ele>2079.3</ele>
        <time>2018-08-08T17:23:34.000Z</time>
      </trkpt>
      <trkpt lat="42.69742" lon="0.66816">
        <ele>2079.3</ele>
        <time>2018-08-08T17:23:35.000Z</time>
      </trkpt>
      <trkpt lat="42.69742" lon="0.66816">
        <ele>2079.3</ele>
        <time>2018-08-08T17:23:36.000Z</time>
      </trkpt>
      <trkpt lat="42.69742" lon="0.66816">
        <ele>2079.3</ele>
        <time>2018-08-08T17:23:37.000Z</time>
      </trkpt>
      <trkpt lat="42.69742" lon="0.66816">
        <ele>2079.3</ele>
        <time>2018-08-08T17:23:38.000Z</time>
      </trkpt>
      <trkpt lat="42.69742" lon="0.66816">
        <ele>2079.3</ele>
        <time>2018-08-08T17:23:39.000Z</time>
      </trkpt>
      <trkpt lat="42.69742" lon="0.66816">
        <ele>2079.3</ele>
        <time>2018-08-08T17:23:40.000Z</time>
      </trkpt>
      <trkpt lat="42.69742" lon="0.66816">
        <ele>2079.3</ele>
        <time>2018-08-08T17:23:41.000Z</time>
      </trkpt>
      <trkpt lat="42.69742" lon="0.66816">
        <ele>2079.3</ele>
        <time>2018-08-08T17:23:42.000Z</time>
      </trkpt>
      <trkpt lat="42.69742" lon="0.66816">
        <ele>2079.3</ele>
        <time>2018-08-08T17:23:43.000Z</time>
      </trkpt>
      <trkpt lat="42.69742" lon="0.66816">
        <ele>2079.3</ele>
        <time>2018-08-08T17:23:44.000Z</time>
      </trkpt>
      <trkpt lat="42.69742" lon="0.66816">
        <ele>2079.3</ele>
        <time>2018-08-08T17:23:45.000Z</time>
      </trkpt>
      <trkpt lat="42.69742" lon="0.66816">
        <ele>2079.3</ele>
        <time>2018-08-08T17:23:46.000Z</time>
      </trkpt>
      <trkpt lat="42.69742" lon="0.66816">
        <ele>2079.3</ele>
        <time>2018-08-08T17:23:47.000Z</time>
      </trkpt>
      <trkpt lat="42.69742" lon="0.66816">
        <ele>2079.3</ele>
        <time>2018-08-08T17:23:48.000Z</time>
      </trkpt>
      <trkpt lat="42.69742" lon="0.66816">
        <ele>2079.3</ele>
        <time>2018-08-08T17:23:49.000Z</time>
      </trkpt>
      <trkpt lat="42.69742" lon="0.66816">
        <ele>2079.3</ele>
        <time>2018-08-08T17:23:50.000Z</time>
      </trkpt>
      <trkpt lat="42.69742" lon="0.66816">
        <ele>2079.3</ele>
        <time>2018-08-08T17:23:51.000Z</time>
      </trkpt>
      <trkpt lat="42.69742" lon="0.66816">
        <ele>2079.3</ele>
        <time>2018-08-08T17:23:52.000Z</time>
      </trkpt>
      <trkpt lat="42.69742" lon="0.66816">
        <ele>2079.3</ele>
        <time>2018-08-08T17:23:53.000Z</time>
      </trkpt>
      <trkpt lat="42.69742" lon="0.66816">
        <ele>2079.3</ele>
        <time>2018-08-08T17:23:54.000Z</time>
      </trkpt>
      <trkpt lat="42.69742" lon="0.66816">
        <ele>2079.3</ele>
        <time>2018-08-08T17:23:55.000Z</time>
      </trkpt>
      <trkpt lat="42.69742" lon="0.66816">
        <ele>2079.3</ele>
        <time>2018-08-08T17:23:56.000Z</time>
      </trkpt>
      <trkpt lat="42.69742" lon="0.66816">
        <ele>2079.3</ele>
        <time>2018-08-08T17:23:57.000Z</time>
      </trkpt>
      <trkpt lat="42.69742" lon="0.66816">
        <ele>2079.3</ele>
        <time>2018-08-08T17:23:58.000Z</time>
      </trkpt>
      <trkpt lat="42.69742" lon="0.66816">
        <ele>2079.3</ele>
        <time>2018-08-08T17:23:59.000Z</time>
      </trkpt>
      <trkpt lat="42.69742" lon="0.66816">
        <ele>2079.3</ele>
        <time>2018-08-08T17:24:00.000Z</time>
      </trkpt>
      <trkpt lat="42.69742" lon="0.66816">
        <ele>2079.3</ele>
        <time>2018-08-08T17:24:01.000Z</time>
      </trkpt>
      <trkpt lat="42.69742" lon="0.66816">
        <ele>2079.3</ele>
        <time>2018-08-08T17:24:02.000Z</time>
      </trkpt>
      <trkpt lat="42.69742" lon="0.66816">
        <ele>2079.3</ele>
        <time>2018-08-08T17:24:03.000Z</time>
      </trkpt>
      <trkpt lat="42.69742" lon="0.66816">
        <ele>2079.3</ele>
        <time>2018-08-08T17:24:04.000Z</time>
      </trkpt>
      <trkpt lat="42.69742" lon="0.66816">
        <ele>2079.3</ele>
        <time>2018-08-08T17:24:05.000Z</time>
      </trkpt>
      <trkpt lat="42.69742" lon="0.66816">
        <ele>2079.3</ele>
        <time>2018-08-08T17:24:06.000Z</time>
      </trkpt>
      <trkpt lat="42.69742" lon="0.66816">
        <ele>2079.3</ele>
        <time>2018-08-08T17:24:07.000Z</time>
      </trkpt>
      <trkpt lat="42.69742" lon="0.66816">
        <ele>2079.3</ele>
        <time>2018-08-08T17:24:08.000Z</time>
      </trkpt>
      <trkpt lat="42.69742" lon="0.66816">
        <ele>2079.3</ele>
        <time>2018-08-08T17:24:09.000Z</time>
      </trkpt>
      <trkpt lat="42.69742" lon="0.66816">
        <ele>2079.3</ele>
        <time>2018-08-08T17:24:10.000Z</time>
      </trkpt>
      <trkpt lat="42.69742" lon="0.66816">
        <ele>2079.3</ele>
        <time>2018-08-08T17:24:11.000Z</time>
      </trkpt>
      <trkpt lat="42.69742" lon="0.66816">
        <ele>2079.3</ele>
        <time>2018-08-08T17:24:12.000Z</time>
      </trkpt>
      <trkpt lat="42.69742" lon="0.66816">
        <ele>2079.3</ele>
        <time>2018-08-08T17:24:13.000Z</time>
      </trkpt>
      <trkpt lat="42.69742" lon="0.66816">
        <ele>2079.3</ele>
        <time>2018-08-08T17:24:14.000Z</time>
      </trkpt>
      <trkpt lat="42.69742" lon="0.66816">
        <ele>2079.3</ele>
        <time>2018-08-08T17:24:15.000Z</time>
      </trkpt>
      <trkpt lat="42.69742" lon="0.66816">
        <ele>2079.3</ele>
        <time>2018-08-08T17:24:16.000Z</time>
      </trkpt>
      <trkpt lat="42.69742" lon="0.66816">
        <ele>2079.3</ele>
        <time>2018-08-08T17:24:17.000Z</time>
      </trkpt>
      <trkpt lat="42.69742" lon="0.66816">
        <ele>2079.3</ele>
        <time>2018-08-08T17:24:18.000Z</time>
      </trkpt>
      <trkpt lat="42.69742" lon="0.66816">
        <ele>2079.3</ele>
        <time>2018-08-08T17:24:19.000Z</time>
      </trkpt>
      <trkpt lat="42.69742" lon="0.66816">
        <ele>2079.3</ele>
        <time>2018-08-08T17:24:20.000Z</time>
      </trkpt>
      <trkpt lat="42.69742" lon="0.66816">
        <ele>2079.3</ele>
        <time>2018-08-08T17:24:21.000Z</time>
      </trkpt>
      <trkpt lat="42.69742" lon="0.66816">
        <ele>2079.3</ele>
        <time>2018-08-08T17:24:22.000Z</time>
      </trkpt>
      <trkpt lat="42.69742" lon="0.66816">
        <ele>2079.3</ele>
        <time>2018-08-08T17:24:23.000Z</time>
      </trkpt>
      <trkpt lat="42.69742" lon="0.66816">
        <ele>2079.3</ele>
        <time>2018-08-08T17:24:24.000Z</time>
      </trkpt>
      <trkpt lat="42.69742" lon="0.66816">
        <ele>2079.3</ele>
        <time>2018-08-08T17:24:25.000Z</time>
      </trkpt>
      <trkpt lat="42.69742" lon="0.66816">
        <ele>2079.3</ele>
        <time>2018-08-08T17:24:26.000Z</time>
      </trkpt>
      <trkpt lat="42.69742" lon="0.66816">
        <ele>2079.3</ele>
        <time>2018-08-08T17:24:27.000Z</time>
      </trkpt>
      <trkpt lat="42.69742" lon="0.66816">
        <ele>2079.3</ele>
        <time>2018-08-08T17:24:28.000Z</time>
      </trkpt>
      <trkpt lat="42.69742" lon="0.66816">
        <ele>2079.3</ele>
        <time>2018-08-08T17:24:29.000Z</time>
      </trkpt>
      <trkpt lat="42.69742" lon="0.66816">
        <ele>2079.3</ele>
        <time>2018-08-08T17:24:30.000Z</time>
      </trkpt>
      <trkpt lat="42.69742" lon="0.66816">
        <ele>2079.3</ele>
        <time>2018-08-08T17:24:31.000Z</time>
      </trkpt>
      <trkpt lat="42.69742" lon="0.66816">
        <ele>2079.3</ele>
        <time>2018-08-08T17:24:32.000Z</time>
      </trkpt>
      <trkpt lat="42.69742" lon="0.66816">
        <ele>2079.3</ele>
        <time>2018-08-08T17:24:33.000Z</time>
      </trkpt>
      <trkpt lat="42.69742" lon="0.66816">
        <ele>2079.3</ele>
        <time>2018-08-08T17:24:34.000Z</time>
      </trkpt>
      <trkpt lat="42.69742" lon="0.66816">
        <ele>2079.3</ele>
        <time>2018-08-08T17:24:35.000Z</time>
      </trkpt>
      <trkpt lat="42.69742" lon="0.66816">
        <ele>2079.3</ele>
        <time>2018-08-08T17:24:36.000Z</time>
      </trkpt>
      <trkpt lat="42.69742" lon="0.66816">
        <ele>2079.3</ele>
        <time>2018-08-08T17:24:37.000Z</time>
      </trkpt>
      <trkpt lat="42.69742" lon="0.66816">
        <ele>2079.3</ele>
        <time>2018-08-08T17:24:38.000Z</time>
      </trkpt>
      <trkpt lat="42.69742" lon="0.66816">
        <ele>2079.3</ele>
        <time>2018-08-08T17:24:39.000Z</time>
      </trkpt>
      <trkpt lat="42.69742" lon="0.66816">
        <ele>2079.3</ele>
        <time>2018-08-08T17:24:40.000Z</time>
      </trkpt>
      <trkpt lat="42.69742" lon="0.66816">
        <ele>2079.3</ele>
        <time>2018-08-08T17:24:41.000Z</time>
      </trkpt>
      <trkpt lat="42.69742" lon="0.66816">
        <ele>2079.3</ele>
        <time>2018-08-08T17:24:42.000Z</time>
      </trkpt>
      <trkpt lat="42.69742" lon="0.66816">
        <ele>2079.3</ele>
        <time>2018-08-08T17:24:43.000Z</time>
      </trkpt>
      <trkpt lat="42.69742" lon="0.66816">
        <ele>2079.3</ele>
        <time>2018-08-08T17:24:44.000Z</time>
      </trkpt>
      <trkpt lat="42.69742" lon="0.66816">
        <ele>2079.3</ele>
        <time>2018-08-08T17:24:45.000Z</time>
      </trkpt>
      <trkpt lat="42.69742" lon="0.66816">
        <ele>2079.3</ele>
        <time>2018-08-08T17:24:46.000Z</time>
      </trkpt>
      <trkpt lat="42.69742" lon="0.66816">
        <ele>2079.3</ele>
        <time>2018-08-08T17:24:47.000Z</time>
      </trkpt>
      <trkpt lat="42.69742" lon="0.66816">
        <ele>2079.3</ele>
        <time>2018-08-08T17:24:48.000Z</time>
      </trkpt>
      <trkpt lat="42.69742" lon="0.66816">
        <ele>2079.3</ele>
        <time>2018-08-08T17:24:49.000Z</time>
      </trkpt>
      <trkpt lat="42.69742" lon="0.66816">
        <ele>2079.3</ele>
        <time>2018-08-08T17:24:50.000Z</time>
      </trkpt>
      <trkpt lat="42.69742" lon="0.66816">
        <ele>2079.3</ele>
        <time>2018-08-08T17:24:51.000Z</time>
      </trkpt>
      <trkpt lat="42.69742" lon="0.66816">
        <ele>2079.3</ele>
        <time>2018-08-08T17:24:52.000Z</time>
      </trkpt>
      <trkpt lat="42.69742" lon="0.66816">
        <ele>2079.3</ele>
        <time>2018-08-08T17:24:53.000Z</time>
      </trkpt>
      <trkpt lat="42.69742" lon="0.66816">
        <ele>2079.3</ele>
        <time>2018-08-08T17:24:54.000Z</time>
      </trkpt>
      <trkpt lat="42.69742" lon="0.66816">
        <ele>2079.3</ele>
        <time>2018-08-08T17:24:55.000Z</time>
      </trkpt>
      <trkpt lat="42.69742" lon="0.66816">
        <ele>2079.3</ele>
        <time>2018-08-08T17:24:56.000Z</time>
      </trkpt>
      <trkpt lat="42.69742" lon="0.66816">
        <ele>2079.3</ele>
        <time>2018-08-08T17:24:57.000Z</time>
      </trkpt>
      <trkpt lat="42.69742" lon="0.66816">
        <ele>2079.3</ele>
        <time>2018-08-08T17:24:58.000Z</time>
      </trkpt>
      <trkpt lat="42.69742" lon="0.66816">
        <ele>2079.3</ele>
        <time>2018-08-08T17:24:59.000Z</time>
      </trkpt>
      <trkpt lat="42.69742" lon="0.66816">
        <ele>2079.3</ele>
        <time>2018-08-08T17:25:00.000Z</time>
      </trkpt>
      <trkpt lat="42.69742" lon="0.66816">
        <ele>2079.3</ele>
        <time>2018-08-08T17:25:01.000Z</time>
      </trkpt>
      <trkpt lat="42.69742" lon="0.66816">
        <ele>2079.3</ele>
        <time>2018-08-08T17:25:02.000Z</time>
      </trkpt>
      <trkpt lat="42.69742" lon="0.66816">
        <ele>2079.3</ele>
        <time>2018-08-08T17:25:03.000Z</time>
      </trkpt>
      <trkpt lat="42.69742" lon="0.66816">
        <ele>2079.3</ele>
        <time>2018-08-08T17:25:04.000Z</time>
      </trkpt>
      <trkpt lat="42.69742" lon="0.66816">
        <ele>2079.3</ele>
        <time>2018-08-08T17:25:05.000Z</time>
      </trkpt>
      <trkpt lat="42.69742" lon="0.66816">
        <ele>2079.3</ele>
        <time>2018-08-08T17:25:06.000Z</time>
      </trkpt>
      <trkpt lat="42.69742" lon="0.66816">
        <ele>2079.3</ele>
        <time>2018-08-08T17:25:07.000Z</time>
      </trkpt>
      <trkpt lat="42.69742" lon="0.66816">
        <ele>2079.3</ele>
        <time>2018-08-08T17:25:08.000Z</time>
      </trkpt>
      <trkpt lat="42.69742" lon="0.66816">
        <ele>2079.3</ele>
        <time>2018-08-08T17:25:09.000Z</time>
      </trkpt>
      <trkpt lat="42.69742" lon="0.66816">
        <ele>2079.3</ele>
        <time>2018-08-08T17:25:10.000Z</time>
      </trkpt>
      <trkpt lat="42.69742" lon="0.66816">
        <ele>2079.3</ele>
        <time>2018-08-08T17:25:11.000Z</time>
      </trkpt>
      <trkpt lat="42.69742" lon="0.66816">
        <ele>2079.3</ele>
        <time>2018-08-08T17:25:12.000Z</time>
      </trkpt>
      <trkpt lat="42.69742" lon="0.66816">
        <ele>2079.3</ele>
        <time>2018-08-08T17:25:13.000Z</time>
      </trkpt>
      <trkpt lat="42.69742" lon="0.66816">
        <ele>2079.3</ele>
        <time>2018-08-08T17:25:14.000Z</time>
      </trkpt>
      <trkpt lat="42.69742" lon="0.66816">
        <ele>2079.3</ele>
        <time>2018-08-08T17:25:15.000Z</time>
      </trkpt>
      <trkpt lat="42.69742" lon="0.66816">
        <ele>2079.3</ele>
        <time>2018-08-08T17:25:16.000Z</time>
      </trkpt>
      <trkpt lat="42.69742" lon="0.66816">
        <ele>2079.3</ele>
        <time>2018-08-08T17:25:17.000Z</time>
      </trkpt>
      <trkpt lat="42.69742" lon="0.66816">
        <ele>2079.3</ele>
        <time>2018-08-08T17:25:18.000Z</time>
      </trkpt>
      <trkpt lat="42.69742" lon="0.66816">
        <ele>2079.3</ele>
        <time>2018-08-08T17:25:19.000Z</time>
      </trkpt>
      <trkpt lat="42.69742" lon="0.66816">
        <ele>2079.3</ele>
        <time>2018-08-08T17:25:20.000Z</time>
      </trkpt>
      <trkpt lat="42.69742" lon="0.66816">
        <ele>2079.3</ele>
        <time>2018-08-08T17:25:21.000Z</time>
      </trkpt>
      <trkpt lat="42.69742" lon="0.66816">
        <ele>2079.3</ele>
        <time>2018-08-08T17:25:22.000Z</time>
      </trkpt>
      <trkpt lat="42.69742" lon="0.66816">
        <ele>2079.3</ele>
        <time>2018-08-08T17:25:23.000Z</time>
      </trkpt>
      <trkpt lat="42.69742" lon="0.66816">
        <ele>2079.3</ele>
        <time>2018-08-08T17:25:24.000Z</time>
      </trkpt>
      <trkpt lat="42.69742" lon="0.66816">
        <ele>2079.3</ele>
        <time>2018-08-08T17:25:25.000Z</time>
      </trkpt>
      <trkpt lat="42.69742" lon="0.66816">
        <ele>2079.3</ele>
        <time>2018-08-08T17:25:26.000Z</time>
      </trkpt>
      <trkpt lat="42.69742" lon="0.66816">
        <ele>2079.3</ele>
        <time>2018-08-08T17:25:27.000Z</time>
      </trkpt>
      <trkpt lat="42.69742" lon="0.66816">
        <ele>2079.3</ele>
        <time>2018-08-08T17:25:28.000Z</time>
      </trkpt>
      <trkpt lat="42.69742" lon="0.66816">
        <ele>2079.3</ele>
        <time>2018-08-08T17:25:29.000Z</time>
      </trkpt>
      <trkpt lat="42.69742" lon="0.66816">
        <ele>2079.3</ele>
        <time>2018-08-08T17:25:30.000Z</time>
      </trkpt>
      <trkpt lat="42.69742" lon="0.66816">
        <ele>2079.3</ele>
        <time>2018-08-08T17:25:31.000Z</time>
      </trkpt>
      <trkpt lat="42.69742" lon="0.66816">
        <ele>2079.3</ele>
        <time>2018-08-08T17:25:32.000Z</time>
      </trkpt>
      <trkpt lat="42.69742" lon="0.66816">
        <ele>2079.3</ele>
        <time>2018-08-08T17:25:33.000Z</time>
      </trkpt>
      <trkpt lat="42.69742" lon="0.66816">
        <ele>2079.3</ele>
        <time>2018-08-08T17:25:34.000Z</time>
      </trkpt>
      <trkpt lat="42.69742" lon="0.66816">
        <ele>2079.3</ele>
        <time>2018-08-08T17:25:35.000Z</time>
      </trkpt>
      <trkpt lat="42.69742" lon="0.66816">
        <ele>2079.3</ele>
        <time>2018-08-08T17:25:36.000Z</time>
      </trkpt>
      <trkpt lat="42.69742" lon="0.66816">
        <ele>2079.3</ele>
        <time>2018-08-08T17:25:37.000Z</time>
      </trkpt>
      <trkpt lat="42.69742" lon="0.66816">
        <ele>2079.3</ele>
        <time>2018-08-08T17:25:38.000Z</time>
      </trkpt>
      <trkpt lat="42.69742" lon="0.66816">
        <ele>2079.3</ele>
        <time>2018-08-08T17:25:39.000Z</time>
      </trkpt>
      <trkpt lat="42.69742" lon="0.66816">
        <ele>2079.3</ele>
        <time>2018-08-08T17:25:40.000Z</time>
      </trkpt>
      <trkpt lat="42.69742" lon="0.66816">
        <ele>2079.3</ele>
        <time>2018-08-08T17:25:41.000Z</time>
      </trkpt>
      <trkpt lat="42.69742" lon="0.66816">
        <ele>2079.3</ele>
        <time>2018-08-08T17:25:42.000Z</time>
      </trkpt>
      <trkpt lat="42.69742" lon="0.66816">
        <ele>2079.3</ele>
        <time>2018-08-08T17:25:43.000Z</time>
      </trkpt>
      <trkpt lat="42.69742" lon="0.66816">
        <ele>2079.3</ele>
        <time>2018-08-08T17:25:44.000Z</time>
      </trkpt>
      <trkpt lat="42.69742" lon="0.66816">
        <ele>2079.3</ele>
        <time>2018-08-08T17:25:45.000Z</time>
      </trkpt>
      <trkpt lat="42.69742" lon="0.66816">
        <ele>2079.3</ele>
        <time>2018-08-08T17:25:46.000Z</time>
      </trkpt>
      <trkpt lat="42.69742" lon="0.66816">
        <ele>2079.3</ele>
        <time>2018-08-08T17:25:47.000Z</time>
      </trkpt>
      <trkpt lat="42.69742" lon="0.66816">
        <ele>2079.3</ele>
        <time>2018-08-08T17:25:48.000Z</time>
      </trkpt>
      <trkpt lat="42.69742" lon="0.66816">
        <ele>2079.3</ele>
        <time>2018-08-08T17:25:49.000Z</time>
      </trkpt>
      <trkpt lat="42.69742" lon="0.66816">
        <ele>2079.3</ele>
        <time>2018-08-08T17:25:50.000Z</time>
      </trkpt>
      <trkpt lat="42.69742" lon="0.66816">
        <ele>2079.3</ele>
        <time>2018-08-08T17:25:51.000Z</time>
      </trkpt>
      <trkpt lat="42.69742" lon="0.66816">
        <ele>2079.3</ele>
        <time>2018-08-08T17:25:52.000Z</time>
      </trkpt>
      <trkpt lat="42.69742" lon="0.66816">
        <ele>2079.3</ele>
        <time>2018-08-08T17:25:53.000Z</time>
      </trkpt>
      <trkpt lat="42.69742" lon="0.66816">
        <ele>2079.3</ele>
        <time>2018-08-08T17:25:54.000Z</time>
      </trkpt>
      <trkpt lat="42.69742" lon="0.66816">
        <ele>2079.3</ele>
        <time>2018-08-08T17:25:55.000Z</time>
      </trkpt>
      <trkpt lat="42.69742" lon="0.66816">
        <ele>2079.3</ele>
        <time>2018-08-08T17:25:56.000Z</time>
      </trkpt>
      <trkpt lat="42.69742" lon="0.66816">
        <ele>2079.3</ele>
        <time>2018-08-08T17:25:57.000Z</time>
      </trkpt>
      <trkpt lat="42.69742" lon="0.66816">
        <ele>2079.3</ele>
        <time>2018-08-08T17:25:58.000Z</time>
      </trkpt>
      <trkpt lat="42.69742" lon="0.66816">
        <ele>2079.3</ele>
        <time>2018-08-08T17:25:59.000Z</time>
      </trkpt>
      <trkpt lat="42.69742" lon="0.66816">
        <ele>2079.3</ele>
        <time>2018-08-08T17:26:00.000Z</time>
      </trkpt>
      <trkpt lat="42.69742" lon="0.66816">
        <ele>2079.3</ele>
        <time>2018-08-08T17:26:01.000Z</time>
      </trkpt>
      <trkpt lat="42.69742" lon="0.66816">
        <ele>2079.3</ele>
        <time>2018-08-08T17:26:02.000Z</time>
      </trkpt>
      <trkpt lat="42.69742" lon="0.66816">
        <ele>2079.3</ele>
        <time>2018-08-08T17:26:03.000Z</time>
      </trkpt>
      <trkpt lat="42.69742" lon="0.66816">
        <ele>2079.3</ele>
        <time>2018-08-08T17:26:04.000Z</time>
      </trkpt>
      <trkpt lat="42.69742" lon="0.66816">
        <ele>2079.3</ele>
        <time>2018-08-08T17:26:05.000Z</time>
      </trkpt>
      <trkpt lat="42.69742" lon="0.66816">
        <ele>2079.3</ele>
        <time>2018-08-08T17:26:06.000Z</time>
      </trkpt>
      <trkpt lat="42.69742" lon="0.66816">
        <ele>2079.3</ele>
        <time>2018-08-08T17:26:07.000Z</time>
      </trkpt>
      <trkpt lat="42.69742" lon="0.66816">
        <ele>2079.3</ele>
        <time>2018-08-08T17:26:08.000Z</time>
      </trkpt>
      <trkpt lat="42.69742" lon="0.66816">
        <ele>2079.3</ele>
        <time>2018-08-08T17:26:09.000Z</time>
      </trkpt>
      <trkpt lat="42.69742" lon="0.66816">
        <ele>2079.3</ele>
        <time>2018-08-08T17:26:10.000Z</time>
      </trkpt>
      <trkpt lat="42.69742" lon="0.66816">
        <ele>2079.3</ele>
        <time>2018-08-08T17:26:11.000Z</time>
      </trkpt>
      <trkpt lat="42.69742" lon="0.66816">
        <ele>2079.3</ele>
        <time>2018-08-08T17:26:12.000Z</time>
      </trkpt>
      <trkpt lat="42.69742" lon="0.66816">
        <ele>2079.3</ele>
        <time>2018-08-08T17:26:13.000Z</time>
      </trkpt>
      <trkpt lat="42.69742" lon="0.66816">
        <ele>2079.3</ele>
        <time>2018-08-08T17:26:14.000Z</time>
      </trkpt>
      <trkpt lat="42.69742" lon="0.66816">
        <ele>2079.3</ele>
        <time>2018-08-08T17:26:15.000Z</time>
      </trkpt>
      <trkpt lat="42.69742" lon="0.66816">
        <ele>2079.3</ele>
        <time>2018-08-08T17:26:16.000Z</time>
      </trkpt>
      <trkpt lat="42.69742" lon="0.66817">
        <ele>2079.3</ele>
        <time>2018-08-08T17:26:17.000Z</time>
      </trkpt>
      <trkpt lat="42.69742" lon="0.66818">
        <ele>2079.3</ele>
        <time>2018-08-08T17:26:18.000Z</time>
      </trkpt>
      <trkpt lat="42.69742" lon="0.6682">
        <ele>2079.4</ele>
        <time>2018-08-08T17:26:19.000Z</time>
      </trkpt>
      <trkpt lat="42.69742" lon="0.6682">
        <ele>2079.5</ele>
        <time>2018-08-08T17:26:20.000Z</time>
      </trkpt>
      <trkpt lat="42.69742" lon="0.66821">
        <ele>2079.5</ele>
        <time>2018-08-08T17:26:21.000Z</time>
      </trkpt>
      <trkpt lat="42.69742" lon="0.66821">
        <ele>2079.5</ele>
        <time>2018-08-08T17:26:22.000Z</time>
      </trkpt>
      <trkpt lat="42.69742" lon="0.66821">
        <ele>2079.5</ele>
        <time>2018-08-08T17:26:23.000Z</time>
      </trkpt>
      <trkpt lat="42.69742" lon="0.66821">
        <ele>2079.5</ele>
        <time>2018-08-08T17:26:24.000Z</time>
      </trkpt>
      <trkpt lat="42.69742" lon="0.66822">
        <ele>2079.6</ele>
        <time>2018-08-08T17:26:25.000Z</time>
      </trkpt>
      <trkpt lat="42.69742" lon="0.66822">
        <ele>2079.6</ele>
        <time>2018-08-08T17:26:26.000Z</time>
      </trkpt>
      <trkpt lat="42.69742" lon="0.66822">
        <ele>2079.6</ele>
        <time>2018-08-08T17:26:27.000Z</time>
      </trkpt>
      <trkpt lat="42.69742" lon="0.66822">
        <ele>2079.6</ele>
        <time>2018-08-08T17:26:28.000Z</time>
      </trkpt>
      <trkpt lat="42.69742" lon="0.66822">
        <ele>2079.6</ele>
        <time>2018-08-08T17:26:29.000Z</time>
      </trkpt>
      <trkpt lat="42.69742" lon="0.66822">
        <ele>2079.6</ele>
        <time>2018-08-08T17:26:30.000Z</time>
      </trkpt>
      <trkpt lat="42.69742" lon="0.66822">
        <ele>2079.6</ele>
        <time>2018-08-08T17:26:31.000Z</time>
      </trkpt>
      <trkpt lat="42.69742" lon="0.66822">
        <ele>2079.6</ele>
        <time>2018-08-08T17:26:32.000Z</time>
      </trkpt>
      <trkpt lat="42.69742" lon="0.66822">
        <ele>2079.6</ele>
        <time>2018-08-08T17:26:33.000Z</time>
      </trkpt>
      <trkpt lat="42.69742" lon="0.66822">
        <ele>2079.6</ele>
        <time>2018-08-08T17:26:34.000Z</time>
      </trkpt>
      <trkpt lat="42.69742" lon="0.66822">
        <ele>2079.6</ele>
        <time>2018-08-08T17:26:35.000Z</time>
      </trkpt>
      <trkpt lat="42.69742" lon="0.66822">
        <ele>2079.6</ele>
        <time>2018-08-08T17:26:36.000Z</time>
      </trkpt>
      <trkpt lat="42.69742" lon="0.66822">
        <ele>2079.6</ele>
        <time>2018-08-08T17:26:37.000Z</time>
      </trkpt>
      <trkpt lat="42.69742" lon="0.66822">
        <ele>2079.6</ele>
        <time>2018-08-08T17:26:38.000Z</time>
      </trkpt>
      <trkpt lat="42.69742" lon="0.66822">
        <ele>2079.6</ele>
        <time>2018-08-08T17:26:39.000Z</time>
      </trkpt>
      <trkpt lat="42.69742" lon="0.66822">
        <ele>2079.6</ele>
        <time>2018-08-08T17:26:40.000Z</time>
      </trkpt>
      <trkpt lat="42.69742" lon="0.66822">
        <ele>2079.6</ele>
        <time>2018-08-08T17:26:41.000Z</time>
      </trkpt>
      <trkpt lat="42.69742" lon="0.66822">
        <ele>2079.6</ele>
        <time>2018-08-08T17:26:42.000Z</time>
      </trkpt>
      <trkpt lat="42.69742" lon="0.66822">
        <ele>2079.6</ele>
        <time>2018-08-08T17:26:43.000Z</time>
      </trkpt>
      <trkpt lat="42.69742" lon="0.66822">
        <ele>2079.6</ele>
        <time>2018-08-08T17:26:44.000Z</time>
      </trkpt>
      <trkpt lat="42.69742" lon="0.66822">
        <ele>2079.6</ele>
        <time>2018-08-08T17:26:45.000Z</time>
      </trkpt>
      <trkpt lat="42.69742" lon="0.66822">
        <ele>2079.6</ele>
        <time>2018-08-08T17:26:46.000Z</time>
      </trkpt>
      <trkpt lat="42.69742" lon="0.66822">
        <ele>2079.6</ele>
        <time>2018-08-08T17:26:47.000Z</time>
      </trkpt>
      <trkpt lat="42.69742" lon="0.66822">
        <ele>2079.6</ele>
        <time>2018-08-08T17:26:48.000Z</time>
      </trkpt>
      <trkpt lat="42.69742" lon="0.66822">
        <ele>2079.6</ele>
        <time>2018-08-08T17:26:49.000Z</time>
      </trkpt>
      <trkpt lat="42.69742" lon="0.66822">
        <ele>2079.6</ele>
        <time>2018-08-08T17:26:50.000Z</time>
      </trkpt>
      <trkpt lat="42.69742" lon="0.66822">
        <ele>2079.6</ele>
        <time>2018-08-08T17:26:51.000Z</time>
      </trkpt>
      <trkpt lat="42.69742" lon="0.66822">
        <ele>2079.6</ele>
        <time>2018-08-08T17:26:52.000Z</time>
      </trkpt>
      <trkpt lat="42.69742" lon="0.66822">
        <ele>2079.6</ele>
        <time>2018-08-08T17:26:53.000Z</time>
      </trkpt>
      <trkpt lat="42.69742" lon="0.66822">
        <ele>2079.6</ele>
        <time>2018-08-08T17:26:54.000Z</time>
      </trkpt>
      <trkpt lat="42.69742" lon="0.66822">
        <ele>2079.6</ele>
        <time>2018-08-08T17:26:55.000Z</time>
      </trkpt>
      <trkpt lat="42.69742" lon="0.66822">
        <ele>2079.6</ele>
        <time>2018-08-08T17:26:56.000Z</time>
      </trkpt>
      <trkpt lat="42.69742" lon="0.66822">
        <ele>2079.6</ele>
        <time>2018-08-08T17:26:57.000Z</time>
      </trkpt>
      <trkpt lat="42.69742" lon="0.66822">
        <ele>2079.6</ele>
        <time>2018-08-08T17:26:58.000Z</time>
      </trkpt>
      <trkpt lat="42.69742" lon="0.66822">
        <ele>2079.6</ele>
        <time>2018-08-08T17:26:59.000Z</time>
      </trkpt>
      <trkpt lat="42.69742" lon="0.66822">
        <ele>2079.6</ele>
        <time>2018-08-08T17:27:00.000Z</time>
      </trkpt>
      <trkpt lat="42.69742" lon="0.66822">
        <ele>2079.6</ele>
        <time>2018-08-08T17:27:01.000Z</time>
      </trkpt>
      <trkpt lat="42.69742" lon="0.66822">
        <ele>2079.6</ele>
        <time>2018-08-08T17:27:02.000Z</time>
      </trkpt>
      <trkpt lat="42.69742" lon="0.66822">
        <ele>2079.6</ele>
        <time>2018-08-08T17:27:03.000Z</time>
      </trkpt>
      <trkpt lat="42.69742" lon="0.66822">
        <ele>2079.6</ele>
        <time>2018-08-08T17:27:04.000Z</time>
      </trkpt>
      <trkpt lat="42.69742" lon="0.66822">
        <ele>2079.6</ele>
        <time>2018-08-08T17:27:05.000Z</time>
      </trkpt>
      <trkpt lat="42.69742" lon="0.66822">
        <ele>2079.6</ele>
        <time>2018-08-08T17:27:06.000Z</time>
      </trkpt>
      <trkpt lat="42.69742" lon="0.66822">
        <ele>2079.6</ele>
        <time>2018-08-08T17:27:07.000Z</time>
      </trkpt>
      <trkpt lat="42.69742" lon="0.66822">
        <ele>2079.5</ele>
        <time>2018-08-08T17:27:08.000Z</time>
      </trkpt>
      <trkpt lat="42.69742" lon="0.66822">
        <ele>2079.5</ele>
        <time>2018-08-08T17:27:09.000Z</time>
      </trkpt>
      <trkpt lat="42.69742" lon="0.66822">
        <ele>2079.5</ele>
        <time>2018-08-08T17:27:10.000Z</time>
      </trkpt>
      <trkpt lat="42.69742" lon="0.66822">
        <ele>2079.5</ele>
        <time>2018-08-08T17:27:11.000Z</time>
      </trkpt>
      <trkpt lat="42.69742" lon="0.66822">
        <ele>2079.5</ele>
        <time>2018-08-08T17:27:12.000Z</time>
      </trkpt>
      <trkpt lat="42.69742" lon="0.66822">
        <ele>2079.5</ele>
        <time>2018-08-08T17:27:13.000Z</time>
      </trkpt>
      <trkpt lat="42.69742" lon="0.66822">
        <ele>2079.5</ele>
        <time>2018-08-08T17:27:14.000Z</time>
      </trkpt>
      <trkpt lat="42.69742" lon="0.66822">
        <ele>2079.5</ele>
        <time>2018-08-08T17:27:15.000Z</time>
      </trkpt>
      <trkpt lat="42.69742" lon="0.66822">
        <ele>2079.5</ele>
        <time>2018-08-08T17:27:16.000Z</time>
      </trkpt>
      <trkpt lat="42.69742" lon="0.66822">
        <ele>2079.5</ele>
        <time>2018-08-08T17:27:17.000Z</time>
      </trkpt>
      <trkpt lat="42.69742" lon="0.66822">
        <ele>2079.5</ele>
        <time>2018-08-08T17:27:18.000Z</time>
      </trkpt>
      <trkpt lat="42.69742" lon="0.66822">
        <ele>2079.5</ele>
        <time>2018-08-08T17:27:19.000Z</time>
      </trkpt>
      <trkpt lat="42.69742" lon="0.66822">
        <ele>2079.5</ele>
        <time>2018-08-08T17:27:20.000Z</time>
      </trkpt>
      <trkpt lat="42.69742" lon="0.66822">
        <ele>2079.5</ele>
        <time>2018-08-08T17:27:21.000Z</time>
      </trkpt>
      <trkpt lat="42.69742" lon="0.66822">
        <ele>2079.5</ele>
        <time>2018-08-08T17:27:22.000Z</time>
      </trkpt>
      <trkpt lat="42.69742" lon="0.66822">
        <ele>2079.5</ele>
        <time>2018-08-08T17:27:23.000Z</time>
      </trkpt>
      <trkpt lat="42.69742" lon="0.66822">
        <ele>2079.5</ele>
        <time>2018-08-08T17:27:24.000Z</time>
      </trkpt>
      <trkpt lat="42.69742" lon="0.66822">
        <ele>2079.5</ele>
        <time>2018-08-08T17:27:25.000Z</time>
      </trkpt>
      <trkpt lat="42.69742" lon="0.66822">
        <ele>2079.5</ele>
        <time>2018-08-08T17:27:26.000Z</time>
      </trkpt>
      <trkpt lat="42.69742" lon="0.66822">
        <ele>2079.5</ele>
        <time>2018-08-08T17:27:27.000Z</time>
      </trkpt>
      <trkpt lat="42.69742" lon="0.66822">
        <ele>2079.5</ele>
        <time>2018-08-08T17:27:28.000Z</time>
      </trkpt>
      <trkpt lat="42.69742" lon="0.66822">
        <ele>2079.5</ele>
        <time>2018-08-08T17:27:29.000Z</time>
      </trkpt>
      <trkpt lat="42.69742" lon="0.66822">
        <ele>2079.5</ele>
        <time>2018-08-08T17:27:30.000Z</time>
      </trkpt>
      <trkpt lat="42.69742" lon="0.66822">
        <ele>2079.5</ele>
        <time>2018-08-08T17:27:31.000Z</time>
      </trkpt>
      <trkpt lat="42.69742" lon="0.66822">
        <ele>2079.5</ele>
        <time>2018-08-08T17:27:32.000Z</time>
      </trkpt>
      <trkpt lat="42.69742" lon="0.66822">
        <ele>2079.5</ele>
        <time>2018-08-08T17:27:33.000Z</time>
      </trkpt>
      <trkpt lat="42.69742" lon="0.66822">
        <ele>2079.5</ele>
        <time>2018-08-08T17:27:34.000Z</time>
      </trkpt>
      <trkpt lat="42.69742" lon="0.66822">
        <ele>2079.5</ele>
        <time>2018-08-08T17:27:35.000Z</time>
      </trkpt>
      <trkpt lat="42.69742" lon="0.66822">
        <ele>2079.5</ele>
        <time>2018-08-08T17:27:36.000Z</time>
      </trkpt>
      <trkpt lat="42.69742" lon="0.66822">
        <ele>2079.5</ele>
        <time>2018-08-08T17:27:37.000Z</time>
      </trkpt>
      <trkpt lat="42.69742" lon="0.66822">
        <ele>2079.5</ele>
        <time>2018-08-08T17:27:38.000Z</time>
      </trkpt>
      <trkpt lat="42.69742" lon="0.66822">
        <ele>2079.5</ele>
        <time>2018-08-08T17:27:39.000Z</time>
      </trkpt>
      <trkpt lat="42.69742" lon="0.66822">
        <ele>2079.5</ele>
        <time>2018-08-08T17:27:40.000Z</time>
      </trkpt>
      <trkpt lat="42.69742" lon="0.66822">
        <ele>2079.5</ele>
        <time>2018-08-08T17:27:41.000Z</time>
      </trkpt>
      <trkpt lat="42.69742" lon="0.66822">
        <ele>2079.5</ele>
        <time>2018-08-08T17:27:42.000Z</time>
      </trkpt>
      <trkpt lat="42.69742" lon="0.66822">
        <ele>2079.5</ele>
        <time>2018-08-08T17:27:43.000Z</time>
      </trkpt>
      <trkpt lat="42.69742" lon="0.66822">
        <ele>2079.5</ele>
        <time>2018-08-08T17:27:44.000Z</time>
      </trkpt>
      <trkpt lat="42.69742" lon="0.66822">
        <ele>2079.5</ele>
        <time>2018-08-08T17:27:45.000Z</time>
      </trkpt>
      <trkpt lat="42.69742" lon="0.66822">
        <ele>2079.5</ele>
        <time>2018-08-08T17:27:46.000Z</time>
      </trkpt>
      <trkpt lat="42.69742" lon="0.66822">
        <ele>2079.5</ele>
        <time>2018-08-08T17:27:47.000Z</time>
      </trkpt>
      <trkpt lat="42.69742" lon="0.66822">
        <ele>2079.5</ele>
        <time>2018-08-08T17:27:48.000Z</time>
      </trkpt>
      <trkpt lat="42.69742" lon="0.66822">
        <ele>2079.5</ele>
        <time>2018-08-08T17:27:49.000Z</time>
      </trkpt>
      <trkpt lat="42.69742" lon="0.66822">
        <ele>2079.5</ele>
        <time>2018-08-08T17:27:50.000Z</time>
      </trkpt>
      <trkpt lat="42.69742" lon="0.66822">
        <ele>2079.5</ele>
        <time>2018-08-08T17:27:51.000Z</time>
      </trkpt>
      <trkpt lat="42.69742" lon="0.66822">
        <ele>2079.5</ele>
        <time>2018-08-08T17:27:52.000Z</time>
      </trkpt>
      <trkpt lat="42.69742" lon="0.66822">
        <ele>2079.5</ele>
        <time>2018-08-08T17:27:53.000Z</time>
      </trkpt>
      <trkpt lat="42.69742" lon="0.66822">
        <ele>2079.5</ele>
        <time>2018-08-08T17:27:54.000Z</time>
      </trkpt>
      <trkpt lat="42.69742" lon="0.66822">
        <ele>2079.5</ele>
        <time>2018-08-08T17:27:55.000Z</time>
      </trkpt>
      <trkpt lat="42.69742" lon="0.66822">
        <ele>2079.5</ele>
        <time>2018-08-08T17:27:56.000Z</time>
      </trkpt>
      <trkpt lat="42.69742" lon="0.66822">
        <ele>2079.5</ele>
        <time>2018-08-08T17:27:57.000Z</time>
      </trkpt>
      <trkpt lat="42.69742" lon="0.66822">
        <ele>2079.5</ele>
        <time>2018-08-08T17:27:58.000Z</time>
      </trkpt>
      <trkpt lat="42.69742" lon="0.66822">
        <ele>2079.6</ele>
        <time>2018-08-08T17:27:59.000Z</time>
      </trkpt>
      <trkpt lat="42.69742" lon="0.66822">
        <ele>2079.6</ele>
        <time>2018-08-08T17:28:00.000Z</time>
      </trkpt>
      <trkpt lat="42.69742" lon="0.66822">
        <ele>2079.6</ele>
        <time>2018-08-08T17:28:01.000Z</time>
      </trkpt>
      <trkpt lat="42.69742" lon="0.66822">
        <ele>2079.6</ele>
        <time>2018-08-08T17:28:02.000Z</time>
      </trkpt>
      <trkpt lat="42.69742" lon="0.66822">
        <ele>2079.6</ele>
        <time>2018-08-08T17:28:03.000Z</time>
      </trkpt>
      <trkpt lat="42.69742" lon="0.66822">
        <ele>2079.6</ele>
        <time>2018-08-08T17:28:04.000Z</time>
      </trkpt>
      <trkpt lat="42.69742" lon="0.66822">
        <ele>2079.6</ele>
        <time>2018-08-08T17:28:05.000Z</time>
      </trkpt>
      <trkpt lat="42.69742" lon="0.66822">
        <ele>2079.6</ele>
        <time>2018-08-08T17:28:06.000Z</time>
      </trkpt>
      <trkpt lat="42.69742" lon="0.66822">
        <ele>2079.6</ele>
        <time>2018-08-08T17:28:07.000Z</time>
      </trkpt>
      <trkpt lat="42.69742" lon="0.66822">
        <ele>2079.6</ele>
        <time>2018-08-08T17:28:08.000Z</time>
      </trkpt>
      <trkpt lat="42.69742" lon="0.66822">
        <ele>2079.6</ele>
        <time>2018-08-08T17:28:09.000Z</time>
      </trkpt>
      <trkpt lat="42.69742" lon="0.66822">
        <ele>2079.6</ele>
        <time>2018-08-08T17:28:10.000Z</time>
      </trkpt>
      <trkpt lat="42.69742" lon="0.66822">
        <ele>2079.6</ele>
        <time>2018-08-08T17:28:11.000Z</time>
      </trkpt>
      <trkpt lat="42.69742" lon="0.66822">
        <ele>2079.6</ele>
        <time>2018-08-08T17:28:12.000Z</time>
      </trkpt>
      <trkpt lat="42.69742" lon="0.66822">
        <ele>2079.6</ele>
        <time>2018-08-08T17:28:13.000Z</time>
      </trkpt>
      <trkpt lat="42.69742" lon="0.66822">
        <ele>2079.6</ele>
        <time>2018-08-08T17:28:14.000Z</time>
      </trkpt>
      <trkpt lat="42.69742" lon="0.66822">
        <ele>2079.6</ele>
        <time>2018-08-08T17:28:15.000Z</time>
      </trkpt>
      <trkpt lat="42.69742" lon="0.66822">
        <ele>2079.6</ele>
        <time>2018-08-08T17:28:16.000Z</time>
      </trkpt>
      <trkpt lat="42.69742" lon="0.66822">
        <ele>2079.6</ele>
        <time>2018-08-08T17:28:17.000Z</time>
      </trkpt>
      <trkpt lat="42.69742" lon="0.66822">
        <ele>2079.6</ele>
        <time>2018-08-08T17:28:18.000Z</time>
      </trkpt>
      <trkpt lat="42.69742" lon="0.66822">
        <ele>2079.6</ele>
        <time>2018-08-08T17:28:19.000Z</time>
      </trkpt>
      <trkpt lat="42.69742" lon="0.66822">
        <ele>2079.6</ele>
        <time>2018-08-08T17:28:20.000Z</time>
      </trkpt>
      <trkpt lat="42.69742" lon="0.66822">
        <ele>2079.6</ele>
        <time>2018-08-08T17:28:21.000Z</time>
      </trkpt>
      <trkpt lat="42.69742" lon="0.66822">
        <ele>2079.6</ele>
        <time>2018-08-08T17:28:22.000Z</time>
      </trkpt>
      <trkpt lat="42.69742" lon="0.66822">
        <ele>2079.6</ele>
        <time>2018-08-08T17:28:23.000Z</time>
      </trkpt>
      <trkpt lat="42.69742" lon="0.66822">
        <ele>2079.6</ele>
        <time>2018-08-08T17:28:24.000Z</time>
      </trkpt>
      <trkpt lat="42.69742" lon="0.66822">
        <ele>2079.6</ele>
        <time>2018-08-08T17:28:25.000Z</time>
      </trkpt>
      <trkpt lat="42.69742" lon="0.66822">
        <ele>2079.6</ele>
        <time>2018-08-08T17:28:26.000Z</time>
      </trkpt>
      <trkpt lat="42.69742" lon="0.66822">
        <ele>2079.6</ele>
        <time>2018-08-08T17:28:27.000Z</time>
      </trkpt>
      <trkpt lat="42.69742" lon="0.66822">
        <ele>2079.6</ele>
        <time>2018-08-08T17:28:28.000Z</time>
      </trkpt>
      <trkpt lat="42.69742" lon="0.66822">
        <ele>2079.6</ele>
        <time>2018-08-08T17:28:29.000Z</time>
      </trkpt>
      <trkpt lat="42.69742" lon="0.66822">
        <ele>2079.6</ele>
        <time>2018-08-08T17:28:30.000Z</time>
      </trkpt>
      <trkpt lat="42.69742" lon="0.66822">
        <ele>2079.6</ele>
        <time>2018-08-08T17:28:31.000Z</time>
      </trkpt>
      <trkpt lat="42.69742" lon="0.66822">
        <ele>2079.6</ele>
        <time>2018-08-08T17:28:32.000Z</time>
      </trkpt>
      <trkpt lat="42.69742" lon="0.66822">
        <ele>2079.6</ele>
        <time>2018-08-08T17:28:33.000Z</time>
      </trkpt>
      <trkpt lat="42.69742" lon="0.66822">
        <ele>2079.6</ele>
        <time>2018-08-08T17:28:34.000Z</time>
      </trkpt>
      <trkpt lat="42.69742" lon="0.66822">
        <ele>2079.6</ele>
        <time>2018-08-08T17:28:35.000Z</time>
      </trkpt>
      <trkpt lat="42.69742" lon="0.66822">
        <ele>2079.6</ele>
        <time>2018-08-08T17:28:36.000Z</time>
      </trkpt>
      <trkpt lat="42.69742" lon="0.66822">
        <ele>2079.6</ele>
        <time>2018-08-08T17:28:37.000Z</time>
      </trkpt>
      <trkpt lat="42.69742" lon="0.66822">
        <ele>2079.6</ele>
        <time>2018-08-08T17:28:38.000Z</time>
      </trkpt>
      <trkpt lat="42.69742" lon="0.66822">
        <ele>2079.6</ele>
        <time>2018-08-08T17:28:39.000Z</time>
      </trkpt>
      <trkpt lat="42.69742" lon="0.66822">
        <ele>2079.6</ele>
        <time>2018-08-08T17:28:40.000Z</time>
      </trkpt>
      <trkpt lat="42.69742" lon="0.66822">
        <ele>2079.6</ele>
        <time>2018-08-08T17:28:41.000Z</time>
      </trkpt>
      <trkpt lat="42.69742" lon="0.66822">
        <ele>2079.6</ele>
        <time>2018-08-08T17:28:42.000Z</time>
      </trkpt>
      <trkpt lat="42.69742" lon="0.66822">
        <ele>2079.6</ele>
        <time>2018-08-08T17:28:43.000Z</time>
      </trkpt>
      <trkpt lat="42.69742" lon="0.66822">
        <ele>2079.6</ele>
        <time>2018-08-08T17:28:44.000Z</time>
      </trkpt>
      <trkpt lat="42.69742" lon="0.66822">
        <ele>2079.6</ele>
        <time>2018-08-08T17:28:45.000Z</time>
      </trkpt>
      <trkpt lat="42.69742" lon="0.66822">
        <ele>2079.6</ele>
        <time>2018-08-08T17:28:46.000Z</time>
      </trkpt>
      <trkpt lat="42.69742" lon="0.66822">
        <ele>2079.6</ele>
        <time>2018-08-08T17:28:47.000Z</time>
      </trkpt>
      <trkpt lat="42.69742" lon="0.66822">
        <ele>2079.6</ele>
        <time>2018-08-08T17:28:48.000Z</time>
      </trkpt>
      <trkpt lat="42.69742" lon="0.66822">
        <ele>2079.6</ele>
        <time>2018-08-08T17:28:49.000Z</time>
      </trkpt>
      <trkpt lat="42.69742" lon="0.66822">
        <ele>2079.6</ele>
        <time>2018-08-08T17:28:50.000Z</time>
      </trkpt>
      <trkpt lat="42.69742" lon="0.66822">
        <ele>2079.6</ele>
        <time>2018-08-08T17:28:51.000Z</time>
      </trkpt>
      <trkpt lat="42.69742" lon="0.66822">
        <ele>2079.6</ele>
        <time>2018-08-08T17:28:52.000Z</time>
      </trkpt>
      <trkpt lat="42.69742" lon="0.66822">
        <ele>2079.6</ele>
        <time>2018-08-08T17:28:53.000Z</time>
      </trkpt>
      <trkpt lat="42.69742" lon="0.66822">
        <ele>2079.6</ele>
        <time>2018-08-08T17:28:54.000Z</time>
      </trkpt>
      <trkpt lat="42.69742" lon="0.66822">
        <ele>2079.6</ele>
        <time>2018-08-08T17:28:55.000Z</time>
      </trkpt>
      <trkpt lat="42.69742" lon="0.66822">
        <ele>2079.6</ele>
        <time>2018-08-08T17:28:56.000Z</time>
      </trkpt>
      <trkpt lat="42.69742" lon="0.66822">
        <ele>2079.6</ele>
        <time>2018-08-08T17:28:57.000Z</time>
      </trkpt>
      <trkpt lat="42.69742" lon="0.66822">
        <ele>2079.6</ele>
        <time>2018-08-08T17:28:58.000Z</time>
      </trkpt>
      <trkpt lat="42.69742" lon="0.66822">
        <ele>2079.6</ele>
        <time>2018-08-08T17:28:59.000Z</time>
      </trkpt>
      <trkpt lat="42.69742" lon="0.66822">
        <ele>2079.6</ele>
        <time>2018-08-08T17:29:00.000Z</time>
      </trkpt>
      <trkpt lat="42.69742" lon="0.66822">
        <ele>2079.6</ele>
        <time>2018-08-08T17:29:01.000Z</time>
      </trkpt>
      <trkpt lat="42.69742" lon="0.66822">
        <ele>2079.6</ele>
        <time>2018-08-08T17:29:02.000Z</time>
      </trkpt>
      <trkpt lat="42.69742" lon="0.66822">
        <ele>2079.6</ele>
        <time>2018-08-08T17:29:03.000Z</time>
      </trkpt>
      <trkpt lat="42.69742" lon="0.66822">
        <ele>2079.6</ele>
        <time>2018-08-08T17:29:04.000Z</time>
      </trkpt>
      <trkpt lat="42.69742" lon="0.66822">
        <ele>2079.6</ele>
        <time>2018-08-08T17:29:05.000Z</time>
      </trkpt>
      <trkpt lat="42.69742" lon="0.66822">
        <ele>2079.6</ele>
        <time>2018-08-08T17:29:06.000Z</time>
      </trkpt>
      <trkpt lat="42.69742" lon="0.66822">
        <ele>2079.6</ele>
        <time>2018-08-08T17:29:07.000Z</time>
      </trkpt>
      <trkpt lat="42.69742" lon="0.66822">
        <ele>2079.6</ele>
        <time>2018-08-08T17:29:08.000Z</time>
      </trkpt>
      <trkpt lat="42.69742" lon="0.66822">
        <ele>2079.6</ele>
        <time>2018-08-08T17:29:09.000Z</time>
      </trkpt>
      <trkpt lat="42.69742" lon="0.66822">
        <ele>2079.6</ele>
        <time>2018-08-08T17:29:10.000Z</time>
      </trkpt>
      <trkpt lat="42.69742" lon="0.66822">
        <ele>2079.6</ele>
        <time>2018-08-08T17:29:11.000Z</time>
      </trkpt>
      <trkpt lat="42.69742" lon="0.66822">
        <ele>2079.6</ele>
        <time>2018-08-08T17:29:12.000Z</time>
      </trkpt>
      <trkpt lat="42.69742" lon="0.66822">
        <ele>2079.6</ele>
        <time>2018-08-08T17:29:13.000Z</time>
      </trkpt>
      <trkpt lat="42.69742" lon="0.66822">
        <ele>2079.6</ele>
        <time>2018-08-08T17:29:14.000Z</time>
      </trkpt>
      <trkpt lat="42.69742" lon="0.66822">
        <ele>2079.6</ele>
        <time>2018-08-08T17:29:15.000Z</time>
      </trkpt>
      <trkpt lat="42.69742" lon="0.66822">
        <ele>2079.6</ele>
        <time>2018-08-08T17:29:16.000Z</time>
      </trkpt>
      <trkpt lat="42.69742" lon="0.66822">
        <ele>2079.6</ele>
        <time>2018-08-08T17:29:17.000Z</time>
      </trkpt>
      <trkpt lat="42.69742" lon="0.66822">
        <ele>2079.6</ele>
        <time>2018-08-08T17:29:18.000Z</time>
      </trkpt>
      <trkpt lat="42.69742" lon="0.66822">
        <ele>2079.6</ele>
        <time>2018-08-08T17:29:19.000Z</time>
      </trkpt>
      <trkpt lat="42.69742" lon="0.66822">
        <ele>2079.6</ele>
        <time>2018-08-08T17:29:20.000Z</time>
      </trkpt>
      <trkpt lat="42.69742" lon="0.66822">
        <ele>2079.6</ele>
        <time>2018-08-08T17:29:21.000Z</time>
      </trkpt>
      <trkpt lat="42.69742" lon="0.66822">
        <ele>2079.6</ele>
        <time>2018-08-08T17:29:22.000Z</time>
      </trkpt>
      <trkpt lat="42.69742" lon="0.66822">
        <ele>2079.6</ele>
        <time>2018-08-08T17:29:23.000Z</time>
      </trkpt>
      <trkpt lat="42.69742" lon="0.66822">
        <ele>2079.6</ele>
        <time>2018-08-08T17:29:24.000Z</time>
      </trkpt>
      <trkpt lat="42.69742" lon="0.66822">
        <ele>2079.6</ele>
        <time>2018-08-08T17:29:25.000Z</time>
      </trkpt>
      <trkpt lat="42.69742" lon="0.66822">
        <ele>2079.6</ele>
        <time>2018-08-08T17:29:26.000Z</time>
      </trkpt>
      <trkpt lat="42.69742" lon="0.66822">
        <ele>2079.6</ele>
        <time>2018-08-08T17:29:27.000Z</time>
      </trkpt>
      <trkpt lat="42.69742" lon="0.66822">
        <ele>2079.6</ele>
        <time>2018-08-08T17:29:28.000Z</time>
      </trkpt>
      <trkpt lat="42.69742" lon="0.66822">
        <ele>2079.6</ele>
        <time>2018-08-08T17:29:29.000Z</time>
      </trkpt>
      <trkpt lat="42.69742" lon="0.66822">
        <ele>2079.6</ele>
        <time>2018-08-08T17:29:30.000Z</time>
      </trkpt>
      <trkpt lat="42.69742" lon="0.66822">
        <ele>2079.6</ele>
        <time>2018-08-08T17:29:31.000Z</time>
      </trkpt>
      <trkpt lat="42.69742" lon="0.66822">
        <ele>2079.6</ele>
        <time>2018-08-08T17:29:32.000Z</time>
      </trkpt>
      <trkpt lat="42.69742" lon="0.66822">
        <ele>2079.6</ele>
        <time>2018-08-08T17:29:33.000Z</time>
      </trkpt>
      <trkpt lat="42.69742" lon="0.66822">
        <ele>2079.6</ele>
        <time>2018-08-08T17:29:34.000Z</time>
      </trkpt>
      <trkpt lat="42.69742" lon="0.66822">
        <ele>2079.6</ele>
        <time>2018-08-08T17:29:35.000Z</time>
      </trkpt>
      <trkpt lat="42.69742" lon="0.66822">
        <ele>2079.6</ele>
        <time>2018-08-08T17:29:36.000Z</time>
      </trkpt>
      <trkpt lat="42.69742" lon="0.66822">
        <ele>2079.6</ele>
        <time>2018-08-08T17:29:37.000Z</time>
      </trkpt>
      <trkpt lat="42.69742" lon="0.66822">
        <ele>2079.6</ele>
        <time>2018-08-08T17:29:38.000Z</time>
      </trkpt>
      <trkpt lat="42.69742" lon="0.66822">
        <ele>2079.6</ele>
        <time>2018-08-08T17:29:39.000Z</time>
      </trkpt>
      <trkpt lat="42.69742" lon="0.66822">
        <ele>2079.6</ele>
        <time>2018-08-08T17:29:40.000Z</time>
      </trkpt>
      <trkpt lat="42.69742" lon="0.66822">
        <ele>2079.6</ele>
        <time>2018-08-08T17:29:41.000Z</time>
      </trkpt>
      <trkpt lat="42.69742" lon="0.66822">
        <ele>2079.6</ele>
        <time>2018-08-08T17:29:42.000Z</time>
      </trkpt>
      <trkpt lat="42.69742" lon="0.66822">
        <ele>2079.6</ele>
        <time>2018-08-08T17:29:43.000Z</time>
      </trkpt>
      <trkpt lat="42.69742" lon="0.66822">
        <ele>2079.6</ele>
        <time>2018-08-08T17:29:44.000Z</time>
      </trkpt>
      <trkpt lat="42.69742" lon="0.66822">
        <ele>2079.6</ele>
        <time>2018-08-08T17:29:45.000Z</time>
      </trkpt>
      <trkpt lat="42.69742" lon="0.66822">
        <ele>2079.6</ele>
        <time>2018-08-08T17:29:46.000Z</time>
      </trkpt>
      <trkpt lat="42.69742" lon="0.66822">
        <ele>2079.6</ele>
        <time>2018-08-08T17:29:47.000Z</time>
      </trkpt>
      <trkpt lat="42.69742" lon="0.66822">
        <ele>2079.6</ele>
        <time>2018-08-08T17:29:48.000Z</time>
      </trkpt>
      <trkpt lat="42.69742" lon="0.66822">
        <ele>2079.6</ele>
        <time>2018-08-08T17:29:49.000Z</time>
      </trkpt>
      <trkpt lat="42.69742" lon="0.66822">
        <ele>2079.6</ele>
        <time>2018-08-08T17:29:50.000Z</time>
      </trkpt>
      <trkpt lat="42.69742" lon="0.66822">
        <ele>2079.6</ele>
        <time>2018-08-08T17:29:51.000Z</time>
      </trkpt>
      <trkpt lat="42.69742" lon="0.66822">
        <ele>2079.6</ele>
        <time>2018-08-08T17:29:52.000Z</time>
      </trkpt>
      <trkpt lat="42.69742" lon="0.66822">
        <ele>2079.6</ele>
        <time>2018-08-08T17:29:53.000Z</time>
      </trkpt>
      <trkpt lat="42.69742" lon="0.66822">
        <ele>2079.6</ele>
        <time>2018-08-08T17:29:54.000Z</time>
      </trkpt>
      <trkpt lat="42.69742" lon="0.66822">
        <ele>2079.6</ele>
        <time>2018-08-08T17:29:55.000Z</time>
      </trkpt>
      <trkpt lat="42.69742" lon="0.66822">
        <ele>2079.6</ele>
        <time>2018-08-08T17:29:56.000Z</time>
      </trkpt>
      <trkpt lat="42.69742" lon="0.66822">
        <ele>2079.6</ele>
        <time>2018-08-08T17:29:57.000Z</time>
      </trkpt>
      <trkpt lat="42.69742" lon="0.66822">
        <ele>2079.6</ele>
        <time>2018-08-08T17:29:58.000Z</time>
      </trkpt>
      <trkpt lat="42.69742" lon="0.66822">
        <ele>2079.6</ele>
        <time>2018-08-08T17:29:59.000Z</time>
      </trkpt>
      <trkpt lat="42.69742" lon="0.66822">
        <ele>2079.6</ele>
        <time>2018-08-08T17:30:00.000Z</time>
      </trkpt>
      <trkpt lat="42.69742" lon="0.66822">
        <ele>2079.6</ele>
        <time>2018-08-08T17:30:01.000Z</time>
      </trkpt>
      <trkpt lat="42.69742" lon="0.66822">
        <ele>2079.6</ele>
        <time>2018-08-08T17:30:02.000Z</time>
      </trkpt>
      <trkpt lat="42.69742" lon="0.66822">
        <ele>2079.6</ele>
        <time>2018-08-08T17:30:03.000Z</time>
      </trkpt>
      <trkpt lat="42.69742" lon="0.66822">
        <ele>2079.6</ele>
        <time>2018-08-08T17:30:04.000Z</time>
      </trkpt>
      <trkpt lat="42.69742" lon="0.66822">
        <ele>2079.6</ele>
        <time>2018-08-08T17:30:05.000Z</time>
      </trkpt>
      <trkpt lat="42.69742" lon="0.66822">
        <ele>2079.6</ele>
        <time>2018-08-08T17:30:06.000Z</time>
      </trkpt>
      <trkpt lat="42.69742" lon="0.66822">
        <ele>2079.6</ele>
        <time>2018-08-08T17:30:07.000Z</time>
      </trkpt>
      <trkpt lat="42.69742" lon="0.66822">
        <ele>2079.6</ele>
        <time>2018-08-08T17:30:08.000Z</time>
      </trkpt>
      <trkpt lat="42.69742" lon="0.66822">
        <ele>2079.6</ele>
        <time>2018-08-08T17:30:09.000Z</time>
      </trkpt>
      <trkpt lat="42.69742" lon="0.66822">
        <ele>2079.6</ele>
        <time>2018-08-08T17:30:10.000Z</time>
      </trkpt>
      <trkpt lat="42.69742" lon="0.66822">
        <ele>2079.6</ele>
        <time>2018-08-08T17:30:11.000Z</time>
      </trkpt>
      <trkpt lat="42.69742" lon="0.66822">
        <ele>2079.6</ele>
        <time>2018-08-08T17:30:12.000Z</time>
      </trkpt>
      <trkpt lat="42.69742" lon="0.66822">
        <ele>2079.6</ele>
        <time>2018-08-08T17:30:13.000Z</time>
      </trkpt>
      <trkpt lat="42.69742" lon="0.66822">
        <ele>2079.6</ele>
        <time>2018-08-08T17:30:14.000Z</time>
      </trkpt>
      <trkpt lat="42.69742" lon="0.66822">
        <ele>2079.6</ele>
        <time>2018-08-08T17:30:15.000Z</time>
      </trkpt>
      <trkpt lat="42.69742" lon="0.66822">
        <ele>2079.6</ele>
        <time>2018-08-08T17:30:16.000Z</time>
      </trkpt>
      <trkpt lat="42.69742" lon="0.66822">
        <ele>2079.6</ele>
        <time>2018-08-08T17:30:17.000Z</time>
      </trkpt>
      <trkpt lat="42.69742" lon="0.66822">
        <ele>2079.6</ele>
        <time>2018-08-08T17:30:18.000Z</time>
      </trkpt>
      <trkpt lat="42.69742" lon="0.66822">
        <ele>2079.6</ele>
        <time>2018-08-08T17:30:19.000Z</time>
      </trkpt>
      <trkpt lat="42.69742" lon="0.66822">
        <ele>2079.6</ele>
        <time>2018-08-08T17:30:20.000Z</time>
      </trkpt>
      <trkpt lat="42.69742" lon="0.66822">
        <ele>2079.6</ele>
        <time>2018-08-08T17:30:21.000Z</time>
      </trkpt>
      <trkpt lat="42.69742" lon="0.66822">
        <ele>2079.6</ele>
        <time>2018-08-08T17:30:22.000Z</time>
      </trkpt>
      <trkpt lat="42.69742" lon="0.66822">
        <ele>2079.6</ele>
        <time>2018-08-08T17:30:23.000Z</time>
      </trkpt>
      <trkpt lat="42.69742" lon="0.66822">
        <ele>2079.6</ele>
        <time>2018-08-08T17:30:24.000Z</time>
      </trkpt>
      <trkpt lat="42.69742" lon="0.66822">
        <ele>2079.6</ele>
        <time>2018-08-08T17:30:25.000Z</time>
      </trkpt>
      <trkpt lat="42.69742" lon="0.66822">
        <ele>2079.6</ele>
        <time>2018-08-08T17:30:26.000Z</time>
      </trkpt>
      <trkpt lat="42.69742" lon="0.66822">
        <ele>2079.6</ele>
        <time>2018-08-08T17:30:27.000Z</time>
      </trkpt>
      <trkpt lat="42.69742" lon="0.66822">
        <ele>2079.6</ele>
        <time>2018-08-08T17:30:28.000Z</time>
      </trkpt>
      <trkpt lat="42.69742" lon="0.66822">
        <ele>2079.6</ele>
        <time>2018-08-08T17:30:29.000Z</time>
      </trkpt>
      <trkpt lat="42.69742" lon="0.66822">
        <ele>2079.6</ele>
        <time>2018-08-08T17:30:30.000Z</time>
      </trkpt>
      <trkpt lat="42.69742" lon="0.66822">
        <ele>2079.6</ele>
        <time>2018-08-08T17:30:31.000Z</time>
      </trkpt>
      <trkpt lat="42.69742" lon="0.66822">
        <ele>2079.6</ele>
        <time>2018-08-08T17:30:32.000Z</time>
      </trkpt>
      <trkpt lat="42.69742" lon="0.66822">
        <ele>2079.6</ele>
        <time>2018-08-08T17:30:33.000Z</time>
      </trkpt>
      <trkpt lat="42.69742" lon="0.66822">
        <ele>2079.6</ele>
        <time>2018-08-08T17:30:34.000Z</time>
      </trkpt>
      <trkpt lat="42.69742" lon="0.66822">
        <ele>2079.6</ele>
        <time>2018-08-08T17:30:35.000Z</time>
      </trkpt>
      <trkpt lat="42.69742" lon="0.66822">
        <ele>2079.6</ele>
        <time>2018-08-08T17:30:36.000Z</time>
      </trkpt>
      <trkpt lat="42.69742" lon="0.66822">
        <ele>2079.6</ele>
        <time>2018-08-08T17:30:37.000Z</time>
      </trkpt>
      <trkpt lat="42.69742" lon="0.66822">
        <ele>2079.6</ele>
        <time>2018-08-08T17:30:38.000Z</time>
      </trkpt>
      <trkpt lat="42.69742" lon="0.66822">
        <ele>2079.6</ele>
        <time>2018-08-08T17:30:39.000Z</time>
      </trkpt>
      <trkpt lat="42.69742" lon="0.66822">
        <ele>2079.6</ele>
        <time>2018-08-08T17:30:40.000Z</time>
      </trkpt>
      <trkpt lat="42.69742" lon="0.66822">
        <ele>2079.6</ele>
        <time>2018-08-08T17:30:41.000Z</time>
      </trkpt>
      <trkpt lat="42.69742" lon="0.66822">
        <ele>2079.6</ele>
        <time>2018-08-08T17:30:42.000Z</time>
      </trkpt>
      <trkpt lat="42.69742" lon="0.66822">
        <ele>2079.6</ele>
        <time>2018-08-08T17:30:43.000Z</time>
      </trkpt>
      <trkpt lat="42.69742" lon="0.66822">
        <ele>2079.6</ele>
        <time>2018-08-08T17:30:44.000Z</time>
      </trkpt>
      <trkpt lat="42.69742" lon="0.66822">
        <ele>2079.6</ele>
        <time>2018-08-08T17:30:45.000Z</time>
      </trkpt>
      <trkpt lat="42.69742" lon="0.66822">
        <ele>2079.6</ele>
        <time>2018-08-08T17:30:46.000Z</time>
      </trkpt>
      <trkpt lat="42.69742" lon="0.66822">
        <ele>2079.6</ele>
        <time>2018-08-08T17:30:47.000Z</time>
      </trkpt>
      <trkpt lat="42.69742" lon="0.66822">
        <ele>2079.6</ele>
        <time>2018-08-08T17:30:48.000Z</time>
      </trkpt>
      <trkpt lat="42.69742" lon="0.66822">
        <ele>2079.6</ele>
        <time>2018-08-08T17:30:49.000Z</time>
      </trkpt>
      <trkpt lat="42.69742" lon="0.66822">
        <ele>2079.6</ele>
        <time>2018-08-08T17:30:50.000Z</time>
      </trkpt>
      <trkpt lat="42.69742" lon="0.66822">
        <ele>2079.6</ele>
        <time>2018-08-08T17:30:51.000Z</time>
      </trkpt>
      <trkpt lat="42.69742" lon="0.66822">
        <ele>2079.6</ele>
        <time>2018-08-08T17:30:52.000Z</time>
      </trkpt>
      <trkpt lat="42.69742" lon="0.66822">
        <ele>2079.6</ele>
        <time>2018-08-08T17:30:53.000Z</time>
      </trkpt>
      <trkpt lat="42.69742" lon="0.66822">
        <ele>2079.6</ele>
        <time>2018-08-08T17:30:54.000Z</time>
      </trkpt>
      <trkpt lat="42.69742" lon="0.66822">
        <ele>2079.6</ele>
        <time>2018-08-08T17:30:55.000Z</time>
      </trkpt>
      <trkpt lat="42.69742" lon="0.66822">
        <ele>2079.6</ele>
        <time>2018-08-08T17:30:56.000Z</time>
      </trkpt>
      <trkpt lat="42.69742" lon="0.66822">
        <ele>2079.6</ele>
        <time>2018-08-08T17:30:57.000Z</time>
      </trkpt>
      <trkpt lat="42.69742" lon="0.66822">
        <ele>2079.6</ele>
        <time>2018-08-08T17:30:58.000Z</time>
      </trkpt>
      <trkpt lat="42.69742" lon="0.66822">
        <ele>2079.6</ele>
        <time>2018-08-08T17:30:59.000Z</time>
      </trkpt>
      <trkpt lat="42.69742" lon="0.66822">
        <ele>2079.6</ele>
        <time>2018-08-08T17:31:00.000Z</time>
      </trkpt>
      <trkpt lat="42.69742" lon="0.66822">
        <ele>2079.6</ele>
        <time>2018-08-08T17:31:01.000Z</time>
      </trkpt>
      <trkpt lat="42.69742" lon="0.66822">
        <ele>2079.6</ele>
        <time>2018-08-08T17:31:02.000Z</time>
      </trkpt>
      <trkpt lat="42.69742" lon="0.66822">
        <ele>2079.6</ele>
        <time>2018-08-08T17:31:03.000Z</time>
      </trkpt>
      <trkpt lat="42.69742" lon="0.66822">
        <ele>2079.6</ele>
        <time>2018-08-08T17:31:04.000Z</time>
      </trkpt>
      <trkpt lat="42.69742" lon="0.66822">
        <ele>2079.6</ele>
        <time>2018-08-08T17:31:05.000Z</time>
      </trkpt>
      <trkpt lat="42.69742" lon="0.66822">
        <ele>2079.6</ele>
        <time>2018-08-08T17:31:06.000Z</time>
      </trkpt>
      <trkpt lat="42.69742" lon="0.66822">
        <ele>2079.6</ele>
        <time>2018-08-08T17:31:07.000Z</time>
      </trkpt>
      <trkpt lat="42.69742" lon="0.66822">
        <ele>2079.6</ele>
        <time>2018-08-08T17:31:08.000Z</time>
      </trkpt>
      <trkpt lat="42.69742" lon="0.66822">
        <ele>2079.6</ele>
        <time>2018-08-08T17:31:09.000Z</time>
      </trkpt>
      <trkpt lat="42.69742" lon="0.66822">
        <ele>2079.6</ele>
        <time>2018-08-08T17:31:10.000Z</time>
      </trkpt>
      <trkpt lat="42.69742" lon="0.66822">
        <ele>2079.6</ele>
        <time>2018-08-08T17:31:11.000Z</time>
      </trkpt>
      <trkpt lat="42.69742" lon="0.66822">
        <ele>2079.6</ele>
        <time>2018-08-08T17:31:12.000Z</time>
      </trkpt>
      <trkpt lat="42.69742" lon="0.66822">
        <ele>2079.6</ele>
        <time>2018-08-08T17:31:13.000Z</time>
      </trkpt>
      <trkpt lat="42.69742" lon="0.66822">
        <ele>2079.6</ele>
        <time>2018-08-08T17:31:14.000Z</time>
      </trkpt>
      <trkpt lat="42.69742" lon="0.66822">
        <ele>2079.6</ele>
        <time>2018-08-08T17:31:15.000Z</time>
      </trkpt>
      <trkpt lat="42.69742" lon="0.66822">
        <ele>2079.6</ele>
        <time>2018-08-08T17:31:16.000Z</time>
      </trkpt>
      <trkpt lat="42.69742" lon="0.66822">
        <ele>2079.6</ele>
        <time>2018-08-08T17:31:17.000Z</time>
      </trkpt>
      <trkpt lat="42.69742" lon="0.66822">
        <ele>2079.6</ele>
        <time>2018-08-08T17:31:18.000Z</time>
      </trkpt>
      <trkpt lat="42.69742" lon="0.66822">
        <ele>2079.6</ele>
        <time>2018-08-08T17:31:19.000Z</time>
      </trkpt>
      <trkpt lat="42.69742" lon="0.66822">
        <ele>2079.6</ele>
        <time>2018-08-08T17:31:20.000Z</time>
      </trkpt>
      <trkpt lat="42.69742" lon="0.66822">
        <ele>2079.6</ele>
        <time>2018-08-08T17:31:21.000Z</time>
      </trkpt>
      <trkpt lat="42.69742" lon="0.66822">
        <ele>2079.6</ele>
        <time>2018-08-08T17:31:22.000Z</time>
      </trkpt>
      <trkpt lat="42.69742" lon="0.66822">
        <ele>2079.6</ele>
        <time>2018-08-08T17:31:23.000Z</time>
      </trkpt>
      <trkpt lat="42.69742" lon="0.66822">
        <ele>2079.6</ele>
        <time>2018-08-08T17:31:24.000Z</time>
      </trkpt>
      <trkpt lat="42.69742" lon="0.66822">
        <ele>2079.6</ele>
        <time>2018-08-08T17:31:25.000Z</time>
      </trkpt>
      <trkpt lat="42.69742" lon="0.66822">
        <ele>2079.6</ele>
        <time>2018-08-08T17:31:26.000Z</time>
      </trkpt>
      <trkpt lat="42.69742" lon="0.66822">
        <ele>2079.6</ele>
        <time>2018-08-08T17:31:27.000Z</time>
      </trkpt>
      <trkpt lat="42.69742" lon="0.66822">
        <ele>2079.6</ele>
        <time>2018-08-08T17:31:28.000Z</time>
      </trkpt>
      <trkpt lat="42.69742" lon="0.66822">
        <ele>2079.6</ele>
        <time>2018-08-08T17:31:29.000Z</time>
      </trkpt>
      <trkpt lat="42.69742" lon="0.66822">
        <ele>2079.6</ele>
        <time>2018-08-08T17:31:30.000Z</time>
      </trkpt>
      <trkpt lat="42.69742" lon="0.66822">
        <ele>2079.6</ele>
        <time>2018-08-08T17:31:31.000Z</time>
      </trkpt>
      <trkpt lat="42.69742" lon="0.66822">
        <ele>2079.6</ele>
        <time>2018-08-08T17:31:32.000Z</time>
      </trkpt>
      <trkpt lat="42.69742" lon="0.66822">
        <ele>2079.6</ele>
        <time>2018-08-08T17:31:33.000Z</time>
      </trkpt>
      <trkpt lat="42.69742" lon="0.66822">
        <ele>2079.6</ele>
        <time>2018-08-08T17:31:34.000Z</time>
      </trkpt>
      <trkpt lat="42.69742" lon="0.66822">
        <ele>2079.6</ele>
        <time>2018-08-08T17:31:35.000Z</time>
      </trkpt>
      <trkpt lat="42.69742" lon="0.66822">
        <ele>2079.6</ele>
        <time>2018-08-08T17:31:36.000Z</time>
      </trkpt>
      <trkpt lat="42.69742" lon="0.66822">
        <ele>2079.6</ele>
        <time>2018-08-08T17:31:37.000Z</time>
      </trkpt>
      <trkpt lat="42.69742" lon="0.66822">
        <ele>2079.6</ele>
        <time>2018-08-08T17:31:38.000Z</time>
      </trkpt>
      <trkpt lat="42.69742" lon="0.66822">
        <ele>2079.6</ele>
        <time>2018-08-08T17:31:39.000Z</time>
      </trkpt>
      <trkpt lat="42.69742" lon="0.66822">
        <ele>2079.6</ele>
        <time>2018-08-08T17:31:40.000Z</time>
      </trkpt>
      <trkpt lat="42.69742" lon="0.66822">
        <ele>2079.6</ele>
        <time>2018-08-08T17:31:41.000Z</time>
      </trkpt>
      <trkpt lat="42.69742" lon="0.66822">
        <ele>2079.6</ele>
        <time>2018-08-08T17:31:42.000Z</time>
      </trkpt>
      <trkpt lat="42.69742" lon="0.66822">
        <ele>2079.6</ele>
        <time>2018-08-08T17:31:43.000Z</time>
      </trkpt>
      <trkpt lat="42.69742" lon="0.66822">
        <ele>2079.6</ele>
        <time>2018-08-08T17:31:44.000Z</time>
      </trkpt>
      <trkpt lat="42.69742" lon="0.66822">
        <ele>2079.6</ele>
        <time>2018-08-08T17:31:45.000Z</time>
      </trkpt>
      <trkpt lat="42.69742" lon="0.66822">
        <ele>2079.6</ele>
        <time>2018-08-08T17:31:46.000Z</time>
      </trkpt>
      <trkpt lat="42.69742" lon="0.66822">
        <ele>2079.6</ele>
        <time>2018-08-08T17:31:47.000Z</time>
      </trkpt>
      <trkpt lat="42.69742" lon="0.66822">
        <ele>2079.6</ele>
        <time>2018-08-08T17:31:48.000Z</time>
      </trkpt>
      <trkpt lat="42.69742" lon="0.66822">
        <ele>2079.6</ele>
        <time>2018-08-08T17:31:49.000Z</time>
      </trkpt>
      <trkpt lat="42.69742" lon="0.66822">
        <ele>2079.6</ele>
        <time>2018-08-08T17:31:50.000Z</time>
      </trkpt>
      <trkpt lat="42.69742" lon="0.66822">
        <ele>2079.6</ele>
        <time>2018-08-08T17:31:51.000Z</time>
      </trkpt>
      <trkpt lat="42.69742" lon="0.66822">
        <ele>2079.6</ele>
        <time>2018-08-08T17:31:52.000Z</time>
      </trkpt>
      <trkpt lat="42.69742" lon="0.66822">
        <ele>2079.6</ele>
        <time>2018-08-08T17:31:53.000Z</time>
      </trkpt>
      <trkpt lat="42.69742" lon="0.66822">
        <ele>2079.6</ele>
        <time>2018-08-08T17:31:54.000Z</time>
      </trkpt>
      <trkpt lat="42.69742" lon="0.66822">
        <ele>2079.6</ele>
        <time>2018-08-08T17:31:55.000Z</time>
      </trkpt>
      <trkpt lat="42.69742" lon="0.66822">
        <ele>2079.6</ele>
        <time>2018-08-08T17:31:56.000Z</time>
      </trkpt>
      <trkpt lat="42.69742" lon="0.66822">
        <ele>2079.6</ele>
        <time>2018-08-08T17:31:57.000Z</time>
      </trkpt>
      <trkpt lat="42.69742" lon="0.66822">
        <ele>2079.6</ele>
        <time>2018-08-08T17:31:58.000Z</time>
      </trkpt>
      <trkpt lat="42.69742" lon="0.66822">
        <ele>2079.6</ele>
        <time>2018-08-08T17:31:59.000Z</time>
      </trkpt>
      <trkpt lat="42.69742" lon="0.66822">
        <ele>2079.6</ele>
        <time>2018-08-08T17:32:00.000Z</time>
      </trkpt>
      <trkpt lat="42.69742" lon="0.66822">
        <ele>2079.6</ele>
        <time>2018-08-08T17:32:01.000Z</time>
      </trkpt>
      <trkpt lat="42.69742" lon="0.66822">
        <ele>2079.6</ele>
        <time>2018-08-08T17:32:02.000Z</time>
      </trkpt>
      <trkpt lat="42.69742" lon="0.66822">
        <ele>2079.6</ele>
        <time>2018-08-08T17:32:03.000Z</time>
      </trkpt>
      <trkpt lat="42.69742" lon="0.66822">
        <ele>2079.6</ele>
        <time>2018-08-08T17:32:04.000Z</time>
      </trkpt>
      <trkpt lat="42.69742" lon="0.66822">
        <ele>2079.6</ele>
        <time>2018-08-08T17:32:05.000Z</time>
      </trkpt>
      <trkpt lat="42.69742" lon="0.66822">
        <ele>2079.6</ele>
        <time>2018-08-08T17:32:06.000Z</time>
      </trkpt>
      <trkpt lat="42.69742" lon="0.66822">
        <ele>2079.6</ele>
        <time>2018-08-08T17:32:07.000Z</time>
      </trkpt>
      <trkpt lat="42.69742" lon="0.66822">
        <ele>2079.6</ele>
        <time>2018-08-08T17:32:08.000Z</time>
      </trkpt>
      <trkpt lat="42.69742" lon="0.66822">
        <ele>2079.6</ele>
        <time>2018-08-08T17:32:09.000Z</time>
      </trkpt>
      <trkpt lat="42.69742" lon="0.66822">
        <ele>2079.6</ele>
        <time>2018-08-08T17:32:10.000Z</time>
      </trkpt>
      <trkpt lat="42.69742" lon="0.66822">
        <ele>2079.6</ele>
        <time>2018-08-08T17:32:11.000Z</time>
      </trkpt>
      <trkpt lat="42.69742" lon="0.66822">
        <ele>2079.6</ele>
        <time>2018-08-08T17:32:12.000Z</time>
      </trkpt>
      <trkpt lat="42.69742" lon="0.66822">
        <ele>2079.6</ele>
        <time>2018-08-08T17:32:13.000Z</time>
      </trkpt>
      <trkpt lat="42.69742" lon="0.66822">
        <ele>2079.6</ele>
        <time>2018-08-08T17:32:14.000Z</time>
      </trkpt>
      <trkpt lat="42.69742" lon="0.66822">
        <ele>2079.6</ele>
        <time>2018-08-08T17:32:15.000Z</time>
      </trkpt>
      <trkpt lat="42.69742" lon="0.66822">
        <ele>2079.6</ele>
        <time>2018-08-08T17:32:16.000Z</time>
      </trkpt>
      <trkpt lat="42.69742" lon="0.66822">
        <ele>2079.6</ele>
        <time>2018-08-08T17:32:17.000Z</time>
      </trkpt>
      <trkpt lat="42.69742" lon="0.66822">
        <ele>2079.6</ele>
        <time>2018-08-08T17:32:18.000Z</time>
      </trkpt>
      <trkpt lat="42.69742" lon="0.66822">
        <ele>2079.6</ele>
        <time>2018-08-08T17:32:19.000Z</time>
      </trkpt>
      <trkpt lat="42.69742" lon="0.66822">
        <ele>2079.6</ele>
        <time>2018-08-08T17:32:20.000Z</time>
      </trkpt>
      <trkpt lat="42.69742" lon="0.66822">
        <ele>2079.6</ele>
        <time>2018-08-08T17:32:21.000Z</time>
      </trkpt>
      <trkpt lat="42.69742" lon="0.66822">
        <ele>2079.6</ele>
        <time>2018-08-08T17:32:22.000Z</time>
      </trkpt>
      <trkpt lat="42.69742" lon="0.66822">
        <ele>2079.6</ele>
        <time>2018-08-08T17:32:23.000Z</time>
      </trkpt>
      <trkpt lat="42.69742" lon="0.66822">
        <ele>2079.6</ele>
        <time>2018-08-08T17:32:24.000Z</time>
      </trkpt>
      <trkpt lat="42.69742" lon="0.66822">
        <ele>2079.6</ele>
        <time>2018-08-08T17:32:25.000Z</time>
      </trkpt>
      <trkpt lat="42.69742" lon="0.66822">
        <ele>2079.6</ele>
        <time>2018-08-08T17:32:26.000Z</time>
      </trkpt>
      <trkpt lat="42.69742" lon="0.66822">
        <ele>2079.6</ele>
        <time>2018-08-08T17:32:27.000Z</time>
      </trkpt>
      <trkpt lat="42.69742" lon="0.66822">
        <ele>2079.6</ele>
        <time>2018-08-08T17:32:28.000Z</time>
      </trkpt>
      <trkpt lat="42.69742" lon="0.66822">
        <ele>2079.6</ele>
        <time>2018-08-08T17:32:29.000Z</time>
      </trkpt>
      <trkpt lat="42.69742" lon="0.66822">
        <ele>2079.6</ele>
        <time>2018-08-08T17:32:30.000Z</time>
      </trkpt>
      <trkpt lat="42.69742" lon="0.66822">
        <ele>2079.6</ele>
        <time>2018-08-08T17:32:31.000Z</time>
      </trkpt>
      <trkpt lat="42.69742" lon="0.66822">
        <ele>2079.6</ele>
        <time>2018-08-08T17:32:32.000Z</time>
      </trkpt>
      <trkpt lat="42.69742" lon="0.66822">
        <ele>2079.6</ele>
        <time>2018-08-08T17:32:33.000Z</time>
      </trkpt>
      <trkpt lat="42.69742" lon="0.66822">
        <ele>2079.6</ele>
        <time>2018-08-08T17:32:34.000Z</time>
      </trkpt>
      <trkpt lat="42.69742" lon="0.66822">
        <ele>2079.6</ele>
        <time>2018-08-08T17:32:35.000Z</time>
      </trkpt>
      <trkpt lat="42.69742" lon="0.66822">
        <ele>2079.6</ele>
        <time>2018-08-08T17:32:36.000Z</time>
      </trkpt>
      <trkpt lat="42.69742" lon="0.66822">
        <ele>2079.6</ele>
        <time>2018-08-08T17:32:37.000Z</time>
      </trkpt>
      <trkpt lat="42.69742" lon="0.66822">
        <ele>2079.6</ele>
        <time>2018-08-08T17:32:38.000Z</time>
      </trkpt>
      <trkpt lat="42.69742" lon="0.66822">
        <ele>2079.6</ele>
        <time>2018-08-08T17:32:39.000Z</time>
      </trkpt>
      <trkpt lat="42.69742" lon="0.66822">
        <ele>2079.6</ele>
        <time>2018-08-08T17:32:40.000Z</time>
      </trkpt>
      <trkpt lat="42.69742" lon="0.66822">
        <ele>2079.6</ele>
        <time>2018-08-08T17:32:41.000Z</time>
      </trkpt>
      <trkpt lat="42.69742" lon="0.66822">
        <ele>2079.6</ele>
        <time>2018-08-08T17:32:42.000Z</time>
      </trkpt>
      <trkpt lat="42.69742" lon="0.66822">
        <ele>2079.6</ele>
        <time>2018-08-08T17:32:43.000Z</time>
      </trkpt>
      <trkpt lat="42.69742" lon="0.66822">
        <ele>2079.6</ele>
        <time>2018-08-08T17:32:44.000Z</time>
      </trkpt>
      <trkpt lat="42.69742" lon="0.66822">
        <ele>2079.6</ele>
        <time>2018-08-08T17:32:45.000Z</time>
      </trkpt>
      <trkpt lat="42.69742" lon="0.66822">
        <ele>2079.6</ele>
        <time>2018-08-08T17:32:46.000Z</time>
      </trkpt>
      <trkpt lat="42.69742" lon="0.66822">
        <ele>2079.6</ele>
        <time>2018-08-08T17:32:47.000Z</time>
      </trkpt>
      <trkpt lat="42.69742" lon="0.66822">
        <ele>2079.6</ele>
        <time>2018-08-08T17:32:48.000Z</time>
      </trkpt>
      <trkpt lat="42.69742" lon="0.66822">
        <ele>2079.6</ele>
        <time>2018-08-08T17:32:49.000Z</time>
      </trkpt>
      <trkpt lat="42.69742" lon="0.66822">
        <ele>2079.6</ele>
        <time>2018-08-08T17:32:50.000Z</time>
      </trkpt>
      <trkpt lat="42.69742" lon="0.66822">
        <ele>2079.6</ele>
        <time>2018-08-08T17:32:51.000Z</time>
      </trkpt>
      <trkpt lat="42.69742" lon="0.66822">
        <ele>2079.6</ele>
        <time>2018-08-08T17:32:52.000Z</time>
      </trkpt>
      <trkpt lat="42.69742" lon="0.66822">
        <ele>2079.6</ele>
        <time>2018-08-08T17:32:53.000Z</time>
      </trkpt>
      <trkpt lat="42.69742" lon="0.66822">
        <ele>2079.6</ele>
        <time>2018-08-08T17:32:54.000Z</time>
      </trkpt>
      <trkpt lat="42.69742" lon="0.66822">
        <ele>2079.6</ele>
        <time>2018-08-08T17:32:55.000Z</time>
      </trkpt>
      <trkpt lat="42.69742" lon="0.66822">
        <ele>2079.6</ele>
        <time>2018-08-08T17:32:56.000Z</time>
      </trkpt>
      <trkpt lat="42.69742" lon="0.66822">
        <ele>2079.6</ele>
        <time>2018-08-08T17:32:57.000Z</time>
      </trkpt>
      <trkpt lat="42.69742" lon="0.66822">
        <ele>2079.6</ele>
        <time>2018-08-08T17:32:58.000Z</time>
      </trkpt>
      <trkpt lat="42.69742" lon="0.66822">
        <ele>2079.6</ele>
        <time>2018-08-08T17:32:59.000Z</time>
      </trkpt>
      <trkpt lat="42.69742" lon="0.66822">
        <ele>2079.6</ele>
        <time>2018-08-08T17:33:00.000Z</time>
      </trkpt>
      <trkpt lat="42.69742" lon="0.66822">
        <ele>2079.6</ele>
        <time>2018-08-08T17:33:01.000Z</time>
      </trkpt>
      <trkpt lat="42.69742" lon="0.66822">
        <ele>2079.6</ele>
        <time>2018-08-08T17:33:02.000Z</time>
      </trkpt>
      <trkpt lat="42.69742" lon="0.66822">
        <ele>2079.6</ele>
        <time>2018-08-08T17:33:03.000Z</time>
      </trkpt>
      <trkpt lat="42.69742" lon="0.66822">
        <ele>2079.6</ele>
        <time>2018-08-08T17:33:04.000Z</time>
      </trkpt>
      <trkpt lat="42.69742" lon="0.66822">
        <ele>2079.6</ele>
        <time>2018-08-08T17:33:05.000Z</time>
      </trkpt>
      <trkpt lat="42.69742" lon="0.66822">
        <ele>2079.6</ele>
        <time>2018-08-08T17:33:06.000Z</time>
      </trkpt>
      <trkpt lat="42.69742" lon="0.66822">
        <ele>2079.6</ele>
        <time>2018-08-08T17:33:07.000Z</time>
      </trkpt>
      <trkpt lat="42.69742" lon="0.66822">
        <ele>2079.6</ele>
        <time>2018-08-08T17:33:08.000Z</time>
      </trkpt>
      <trkpt lat="42.69742" lon="0.66822">
        <ele>2079.6</ele>
        <time>2018-08-08T17:33:09.000Z</time>
      </trkpt>
      <trkpt lat="42.69742" lon="0.66822">
        <ele>2079.6</ele>
        <time>2018-08-08T17:33:10.000Z</time>
      </trkpt>
      <trkpt lat="42.69742" lon="0.66822">
        <ele>2079.6</ele>
        <time>2018-08-08T17:33:11.000Z</time>
      </trkpt>
      <trkpt lat="42.69742" lon="0.66822">
        <ele>2079.6</ele>
        <time>2018-08-08T17:33:12.000Z</time>
      </trkpt>
      <trkpt lat="42.69742" lon="0.66822">
        <ele>2079.6</ele>
        <time>2018-08-08T17:33:13.000Z</time>
      </trkpt>
      <trkpt lat="42.69742" lon="0.66822">
        <ele>2079.6</ele>
        <time>2018-08-08T17:33:14.000Z</time>
      </trkpt>
      <trkpt lat="42.69742" lon="0.66822">
        <ele>2079.6</ele>
        <time>2018-08-08T17:33:15.000Z</time>
      </trkpt>
      <trkpt lat="42.69742" lon="0.66822">
        <ele>2079.6</ele>
        <time>2018-08-08T17:33:16.000Z</time>
      </trkpt>
      <trkpt lat="42.69742" lon="0.66822">
        <ele>2079.6</ele>
        <time>2018-08-08T17:33:17.000Z</time>
      </trkpt>
      <trkpt lat="42.69742" lon="0.66822">
        <ele>2079.6</ele>
        <time>2018-08-08T17:33:18.000Z</time>
      </trkpt>
      <trkpt lat="42.69742" lon="0.66822">
        <ele>2079.6</ele>
        <time>2018-08-08T17:33:19.000Z</time>
      </trkpt>
      <trkpt lat="42.69742" lon="0.66822">
        <ele>2079.6</ele>
        <time>2018-08-08T17:33:20.000Z</time>
      </trkpt>
      <trkpt lat="42.69742" lon="0.66822">
        <ele>2079.6</ele>
        <time>2018-08-08T17:33:21.000Z</time>
      </trkpt>
      <trkpt lat="42.69742" lon="0.66822">
        <ele>2079.6</ele>
        <time>2018-08-08T17:33:22.000Z</time>
      </trkpt>
      <trkpt lat="42.69742" lon="0.66822">
        <ele>2079.6</ele>
        <time>2018-08-08T17:33:23.000Z</time>
      </trkpt>
      <trkpt lat="42.69742" lon="0.66822">
        <ele>2079.6</ele>
        <time>2018-08-08T17:33:24.000Z</time>
      </trkpt>
      <trkpt lat="42.69742" lon="0.66822">
        <ele>2079.6</ele>
        <time>2018-08-08T17:33:25.000Z</time>
      </trkpt>
      <trkpt lat="42.69742" lon="0.66822">
        <ele>2079.6</ele>
        <time>2018-08-08T17:33:26.000Z</time>
      </trkpt>
      <trkpt lat="42.69742" lon="0.66822">
        <ele>2079.6</ele>
        <time>2018-08-08T17:33:27.000Z</time>
      </trkpt>
      <trkpt lat="42.69742" lon="0.66822">
        <ele>2079.6</ele>
        <time>2018-08-08T17:33:28.000Z</time>
      </trkpt>
      <trkpt lat="42.69742" lon="0.66822">
        <ele>2079.6</ele>
        <time>2018-08-08T17:33:29.000Z</time>
      </trkpt>
      <trkpt lat="42.69742" lon="0.66822">
        <ele>2079.6</ele>
        <time>2018-08-08T17:33:30.000Z</time>
      </trkpt>
      <trkpt lat="42.69742" lon="0.66822">
        <ele>2079.6</ele>
        <time>2018-08-08T17:33:31.000Z</time>
      </trkpt>
      <trkpt lat="42.69742" lon="0.66822">
        <ele>2079.6</ele>
        <time>2018-08-08T17:33:32.000Z</time>
      </trkpt>
      <trkpt lat="42.69742" lon="0.66822">
        <ele>2079.6</ele>
        <time>2018-08-08T17:33:33.000Z</time>
      </trkpt>
      <trkpt lat="42.69742" lon="0.66822">
        <ele>2079.5</ele>
        <time>2018-08-08T17:33:34.000Z</time>
      </trkpt>
      <trkpt lat="42.69742" lon="0.66822">
        <ele>2079.5</ele>
        <time>2018-08-08T17:33:35.000Z</time>
      </trkpt>
      <trkpt lat="42.69742" lon="0.66822">
        <ele>2079.5</ele>
        <time>2018-08-08T17:33:36.000Z</time>
      </trkpt>
      <trkpt lat="42.69742" lon="0.66822">
        <ele>2079.5</ele>
        <time>2018-08-08T17:33:37.000Z</time>
      </trkpt>
      <trkpt lat="42.69742" lon="0.66822">
        <ele>2079.5</ele>
        <time>2018-08-08T17:33:38.000Z</time>
      </trkpt>
      <trkpt lat="42.69742" lon="0.66822">
        <ele>2079.5</ele>
        <time>2018-08-08T17:33:39.000Z</time>
      </trkpt>
      <trkpt lat="42.69742" lon="0.66822">
        <ele>2079.5</ele>
        <time>2018-08-08T17:33:40.000Z</time>
      </trkpt>
      <trkpt lat="42.69742" lon="0.66822">
        <ele>2079.5</ele>
        <time>2018-08-08T17:33:41.000Z</time>
      </trkpt>
      <trkpt lat="42.69742" lon="0.66822">
        <ele>2079.5</ele>
        <time>2018-08-08T17:33:42.000Z</time>
      </trkpt>
      <trkpt lat="42.69742" lon="0.66822">
        <ele>2079.5</ele>
        <time>2018-08-08T17:33:43.000Z</time>
      </trkpt>
      <trkpt lat="42.69742" lon="0.66822">
        <ele>2079.5</ele>
        <time>2018-08-08T17:33:44.000Z</time>
      </trkpt>
      <trkpt lat="42.69742" lon="0.66822">
        <ele>2079.5</ele>
        <time>2018-08-08T17:33:45.000Z</time>
      </trkpt>
      <trkpt lat="42.69742" lon="0.66822">
        <ele>2079.5</ele>
        <time>2018-08-08T17:33:46.000Z</time>
      </trkpt>
      <trkpt lat="42.69742" lon="0.66822">
        <ele>2079.5</ele>
        <time>2018-08-08T17:33:47.000Z</time>
      </trkpt>
      <trkpt lat="42.69742" lon="0.66822">
        <ele>2079.5</ele>
        <time>2018-08-08T17:33:48.000Z</time>
      </trkpt>
      <trkpt lat="42.69742" lon="0.66822">
        <ele>2079.5</ele>
        <time>2018-08-08T17:33:49.000Z</time>
      </trkpt>
      <trkpt lat="42.69742" lon="0.66822">
        <ele>2079.5</ele>
        <time>2018-08-08T17:33:50.000Z</time>
      </trkpt>
      <trkpt lat="42.69742" lon="0.66822">
        <ele>2079.5</ele>
        <time>2018-08-08T17:33:51.000Z</time>
      </trkpt>
      <trkpt lat="42.69742" lon="0.66822">
        <ele>2079.5</ele>
        <time>2018-08-08T17:33:52.000Z</time>
      </trkpt>
      <trkpt lat="42.69742" lon="0.66822">
        <ele>2079.5</ele>
        <time>2018-08-08T17:33:53.000Z</time>
      </trkpt>
      <trkpt lat="42.69742" lon="0.66822">
        <ele>2079.5</ele>
        <time>2018-08-08T17:33:54.000Z</time>
      </trkpt>
      <trkpt lat="42.69742" lon="0.66822">
        <ele>2079.5</ele>
        <time>2018-08-08T17:33:55.000Z</time>
      </trkpt>
      <trkpt lat="42.69742" lon="0.66822">
        <ele>2079.5</ele>
        <time>2018-08-08T17:33:56.000Z</time>
      </trkpt>
      <trkpt lat="42.69742" lon="0.66822">
        <ele>2079.5</ele>
        <time>2018-08-08T17:33:57.000Z</time>
      </trkpt>
      <trkpt lat="42.69742" lon="0.66822">
        <ele>2079.5</ele>
        <time>2018-08-08T17:33:58.000Z</time>
      </trkpt>
      <trkpt lat="42.69742" lon="0.66822">
        <ele>2079.5</ele>
        <time>2018-08-08T17:33:59.000Z</time>
      </trkpt>
      <trkpt lat="42.69742" lon="0.66822">
        <ele>2079.5</ele>
        <time>2018-08-08T17:34:00.000Z</time>
      </trkpt>
      <trkpt lat="42.69742" lon="0.66822">
        <ele>2079.5</ele>
        <time>2018-08-08T17:34:01.000Z</time>
      </trkpt>
      <trkpt lat="42.69742" lon="0.66822">
        <ele>2079.5</ele>
        <time>2018-08-08T17:34:02.000Z</time>
      </trkpt>
      <trkpt lat="42.69742" lon="0.66822">
        <ele>2079.5</ele>
        <time>2018-08-08T17:34:03.000Z</time>
      </trkpt>
      <trkpt lat="42.69742" lon="0.66822">
        <ele>2079.5</ele>
        <time>2018-08-08T17:34:04.000Z</time>
      </trkpt>
      <trkpt lat="42.69742" lon="0.66822">
        <ele>2079.5</ele>
        <time>2018-08-08T17:34:05.000Z</time>
      </trkpt>
      <trkpt lat="42.69742" lon="0.66822">
        <ele>2079.5</ele>
        <time>2018-08-08T17:34:06.000Z</time>
      </trkpt>
      <trkpt lat="42.69742" lon="0.66822">
        <ele>2079.5</ele>
        <time>2018-08-08T17:34:07.000Z</time>
      </trkpt>
      <trkpt lat="42.69742" lon="0.66822">
        <ele>2079.5</ele>
        <time>2018-08-08T17:34:08.000Z</time>
      </trkpt>
      <trkpt lat="42.69742" lon="0.66822">
        <ele>2079.5</ele>
        <time>2018-08-08T17:34:09.000Z</time>
      </trkpt>
      <trkpt lat="42.69742" lon="0.66822">
        <ele>2079.5</ele>
        <time>2018-08-08T17:34:10.000Z</time>
      </trkpt>
      <trkpt lat="42.69742" lon="0.66822">
        <ele>2079.5</ele>
        <time>2018-08-08T17:34:11.000Z</time>
      </trkpt>
      <trkpt lat="42.69742" lon="0.66822">
        <ele>2079.5</ele>
        <time>2018-08-08T17:34:12.000Z</time>
      </trkpt>
      <trkpt lat="42.69742" lon="0.66822">
        <ele>2079.5</ele>
        <time>2018-08-08T17:34:13.000Z</time>
      </trkpt>
      <trkpt lat="42.69742" lon="0.66822">
        <ele>2079.5</ele>
        <time>2018-08-08T17:34:14.000Z</time>
      </trkpt>
      <trkpt lat="42.69742" lon="0.66822">
        <ele>2079.5</ele>
        <time>2018-08-08T17:34:15.000Z</time>
      </trkpt>
      <trkpt lat="42.69742" lon="0.66822">
        <ele>2079.5</ele>
        <time>2018-08-08T17:34:16.000Z</time>
      </trkpt>
      <trkpt lat="42.69742" lon="0.66822">
        <ele>2079.5</ele>
        <time>2018-08-08T17:34:17.000Z</time>
      </trkpt>
      <trkpt lat="42.69742" lon="0.66822">
        <ele>2079.5</ele>
        <time>2018-08-08T17:34:18.000Z</time>
      </trkpt>
      <trkpt lat="42.69742" lon="0.66822">
        <ele>2079.5</ele>
        <time>2018-08-08T17:34:19.000Z</time>
      </trkpt>
      <trkpt lat="42.69742" lon="0.66822">
        <ele>2079.5</ele>
        <time>2018-08-08T17:34:20.000Z</time>
      </trkpt>
      <trkpt lat="42.69742" lon="0.66822">
        <ele>2079.5</ele>
        <time>2018-08-08T17:34:21.000Z</time>
      </trkpt>
      <trkpt lat="42.69742" lon="0.66822">
        <ele>2079.5</ele>
        <time>2018-08-08T17:34:22.000Z</time>
      </trkpt>
      <trkpt lat="42.69742" lon="0.66822">
        <ele>2079.5</ele>
        <time>2018-08-08T17:34:23.000Z</time>
      </trkpt>
      <trkpt lat="42.69742" lon="0.66822">
        <ele>2079.5</ele>
        <time>2018-08-08T17:34:24.000Z</time>
      </trkpt>
      <trkpt lat="42.69742" lon="0.66822">
        <ele>2079.5</ele>
        <time>2018-08-08T17:34:25.000Z</time>
      </trkpt>
      <trkpt lat="42.69742" lon="0.66822">
        <ele>2079.5</ele>
        <time>2018-08-08T17:34:26.000Z</time>
      </trkpt>
      <trkpt lat="42.69742" lon="0.66822">
        <ele>2079.5</ele>
        <time>2018-08-08T17:34:27.000Z</time>
      </trkpt>
      <trkpt lat="42.69742" lon="0.66822">
        <ele>2079.5</ele>
        <time>2018-08-08T17:34:28.000Z</time>
      </trkpt>
      <trkpt lat="42.69742" lon="0.66822">
        <ele>2079.5</ele>
        <time>2018-08-08T17:34:29.000Z</time>
      </trkpt>
      <trkpt lat="42.69742" lon="0.66822">
        <ele>2079.5</ele>
        <time>2018-08-08T17:34:30.000Z</time>
      </trkpt>
      <trkpt lat="42.69742" lon="0.66822">
        <ele>2079.5</ele>
        <time>2018-08-08T17:34:31.000Z</time>
      </trkpt>
      <trkpt lat="42.69742" lon="0.66822">
        <ele>2079.5</ele>
        <time>2018-08-08T17:34:32.000Z</time>
      </trkpt>
      <trkpt lat="42.69742" lon="0.66822">
        <ele>2079.5</ele>
        <time>2018-08-08T17:34:33.000Z</time>
      </trkpt>
      <trkpt lat="42.69742" lon="0.66822">
        <ele>2079.5</ele>
        <time>2018-08-08T17:34:34.000Z</time>
      </trkpt>
      <trkpt lat="42.69742" lon="0.66822">
        <ele>2079.5</ele>
        <time>2018-08-08T17:34:35.000Z</time>
      </trkpt>
      <trkpt lat="42.69742" lon="0.66822">
        <ele>2079.5</ele>
        <time>2018-08-08T17:34:36.000Z</time>
      </trkpt>
      <trkpt lat="42.69742" lon="0.66822">
        <ele>2079.5</ele>
        <time>2018-08-08T17:34:37.000Z</time>
      </trkpt>
      <trkpt lat="42.69742" lon="0.66822">
        <ele>2079.5</ele>
        <time>2018-08-08T17:34:38.000Z</time>
      </trkpt>
      <trkpt lat="42.69742" lon="0.66822">
        <ele>2079.5</ele>
        <time>2018-08-08T17:34:39.000Z</time>
      </trkpt>
      <trkpt lat="42.69742" lon="0.66822">
        <ele>2079.5</ele>
        <time>2018-08-08T17:34:40.000Z</time>
      </trkpt>
      <trkpt lat="42.69742" lon="0.66822">
        <ele>2079.5</ele>
        <time>2018-08-08T17:34:41.000Z</time>
      </trkpt>
      <trkpt lat="42.69742" lon="0.66822">
        <ele>2079.5</ele>
        <time>2018-08-08T17:34:42.000Z</time>
      </trkpt>
      <trkpt lat="42.69742" lon="0.66822">
        <ele>2079.5</ele>
        <time>2018-08-08T17:34:43.000Z</time>
      </trkpt>
      <trkpt lat="42.69742" lon="0.66822">
        <ele>2079.5</ele>
        <time>2018-08-08T17:34:44.000Z</time>
      </trkpt>
      <trkpt lat="42.69742" lon="0.66822">
        <ele>2079.5</ele>
        <time>2018-08-08T17:34:45.000Z</time>
      </trkpt>
      <trkpt lat="42.69742" lon="0.66822">
        <ele>2079.5</ele>
        <time>2018-08-08T17:34:46.000Z</time>
      </trkpt>
      <trkpt lat="42.69742" lon="0.66822">
        <ele>2079.5</ele>
        <time>2018-08-08T17:34:47.000Z</time>
      </trkpt>
      <trkpt lat="42.69742" lon="0.66822">
        <ele>2079.5</ele>
        <time>2018-08-08T17:34:48.000Z</time>
      </trkpt>
      <trkpt lat="42.69742" lon="0.66822">
        <ele>2079.5</ele>
        <time>2018-08-08T17:34:49.000Z</time>
      </trkpt>
      <trkpt lat="42.69742" lon="0.66822">
        <ele>2079.5</ele>
        <time>2018-08-08T17:34:50.000Z</time>
      </trkpt>
      <trkpt lat="42.69742" lon="0.66822">
        <ele>2079.5</ele>
        <time>2018-08-08T17:34:51.000Z</time>
      </trkpt>
      <trkpt lat="42.69742" lon="0.66822">
        <ele>2079.5</ele>
        <time>2018-08-08T17:34:52.000Z</time>
      </trkpt>
      <trkpt lat="42.69742" lon="0.66822">
        <ele>2079.5</ele>
        <time>2018-08-08T17:34:53.000Z</time>
      </trkpt>
      <trkpt lat="42.69742" lon="0.66822">
        <ele>2079.5</ele>
        <time>2018-08-08T17:34:54.000Z</time>
      </trkpt>
      <trkpt lat="42.69742" lon="0.66822">
        <ele>2079.5</ele>
        <time>2018-08-08T17:34:55.000Z</time>
      </trkpt>
      <trkpt lat="42.69742" lon="0.66822">
        <ele>2079.5</ele>
        <time>2018-08-08T17:34:56.000Z</time>
      </trkpt>
      <trkpt lat="42.69742" lon="0.66822">
        <ele>2079.5</ele>
        <time>2018-08-08T17:34:57.000Z</time>
      </trkpt>
      <trkpt lat="42.69742" lon="0.66822">
        <ele>2079.5</ele>
        <time>2018-08-08T17:34:58.000Z</time>
      </trkpt>
      <trkpt lat="42.69742" lon="0.66822">
        <ele>2079.5</ele>
        <time>2018-08-08T17:34:59.000Z</time>
      </trkpt>
      <trkpt lat="42.69742" lon="0.66822">
        <ele>2079.5</ele>
        <time>2018-08-08T17:35:00.000Z</time>
      </trkpt>
      <trkpt lat="42.69742" lon="0.66822">
        <ele>2079.5</ele>
        <time>2018-08-08T17:35:01.000Z</time>
      </trkpt>
      <trkpt lat="42.69742" lon="0.66822">
        <ele>2079.5</ele>
        <time>2018-08-08T17:35:02.000Z</time>
      </trkpt>
      <trkpt lat="42.69742" lon="0.66822">
        <ele>2079.5</ele>
        <time>2018-08-08T17:35:03.000Z</time>
      </trkpt>
      <trkpt lat="42.69742" lon="0.66822">
        <ele>2079.5</ele>
        <time>2018-08-08T17:35:04.000Z</time>
      </trkpt>
      <trkpt lat="42.69742" lon="0.66822">
        <ele>2079.5</ele>
        <time>2018-08-08T17:35:05.000Z</time>
      </trkpt>
      <trkpt lat="42.69742" lon="0.66822">
        <ele>2079.5</ele>
        <time>2018-08-08T17:35:06.000Z</time>
      </trkpt>
      <trkpt lat="42.69742" lon="0.66822">
        <ele>2079.5</ele>
        <time>2018-08-08T17:35:07.000Z</time>
      </trkpt>
      <trkpt lat="42.69742" lon="0.66822">
        <ele>2079.5</ele>
        <time>2018-08-08T17:35:08.000Z</time>
      </trkpt>
      <trkpt lat="42.69742" lon="0.66822">
        <ele>2079.5</ele>
        <time>2018-08-08T17:35:09.000Z</time>
      </trkpt>
      <trkpt lat="42.69742" lon="0.66822">
        <ele>2079.5</ele>
        <time>2018-08-08T17:35:10.000Z</time>
      </trkpt>
      <trkpt lat="42.69742" lon="0.66822">
        <ele>2079.5</ele>
        <time>2018-08-08T17:35:11.000Z</time>
      </trkpt>
      <trkpt lat="42.69742" lon="0.66822">
        <ele>2079.5</ele>
        <time>2018-08-08T17:35:12.000Z</time>
      </trkpt>
      <trkpt lat="42.69742" lon="0.66822">
        <ele>2079.5</ele>
        <time>2018-08-08T17:35:13.000Z</time>
      </trkpt>
      <trkpt lat="42.69742" lon="0.66822">
        <ele>2079.5</ele>
        <time>2018-08-08T17:35:14.000Z</time>
      </trkpt>
      <trkpt lat="42.69742" lon="0.66822">
        <ele>2079.5</ele>
        <time>2018-08-08T17:35:15.000Z</time>
      </trkpt>
      <trkpt lat="42.69742" lon="0.66822">
        <ele>2079.5</ele>
        <time>2018-08-08T17:35:16.000Z</time>
      </trkpt>
      <trkpt lat="42.69742" lon="0.66822">
        <ele>2079.5</ele>
        <time>2018-08-08T17:35:17.000Z</time>
      </trkpt>
      <trkpt lat="42.69742" lon="0.66822">
        <ele>2079.5</ele>
        <time>2018-08-08T17:35:18.000Z</time>
      </trkpt>
      <trkpt lat="42.69742" lon="0.66822">
        <ele>2079.5</ele>
        <time>2018-08-08T17:35:19.000Z</time>
      </trkpt>
      <trkpt lat="42.69742" lon="0.66822">
        <ele>2079.5</ele>
        <time>2018-08-08T17:35:20.000Z</time>
      </trkpt>
      <trkpt lat="42.69742" lon="0.66822">
        <ele>2079.5</ele>
        <time>2018-08-08T17:35:21.000Z</time>
      </trkpt>
      <trkpt lat="42.69742" lon="0.66822">
        <ele>2079.5</ele>
        <time>2018-08-08T17:35:22.000Z</time>
      </trkpt>
      <trkpt lat="42.69742" lon="0.66822">
        <ele>2079.5</ele>
        <time>2018-08-08T17:35:23.000Z</time>
      </trkpt>
      <trkpt lat="42.69742" lon="0.66822">
        <ele>2079.5</ele>
        <time>2018-08-08T17:35:24.000Z</time>
      </trkpt>
      <trkpt lat="42.69742" lon="0.66822">
        <ele>2079.5</ele>
        <time>2018-08-08T17:35:25.000Z</time>
      </trkpt>
      <trkpt lat="42.69742" lon="0.66822">
        <ele>2079.5</ele>
        <time>2018-08-08T17:35:26.000Z</time>
      </trkpt>
      <trkpt lat="42.69742" lon="0.66822">
        <ele>2079.5</ele>
        <time>2018-08-08T17:35:27.000Z</time>
      </trkpt>
      <trkpt lat="42.69742" lon="0.66822">
        <ele>2079.5</ele>
        <time>2018-08-08T17:35:28.000Z</time>
      </trkpt>
      <trkpt lat="42.69742" lon="0.66822">
        <ele>2079.5</ele>
        <time>2018-08-08T17:35:29.000Z</time>
      </trkpt>
      <trkpt lat="42.69742" lon="0.66822">
        <ele>2079.5</ele>
        <time>2018-08-08T17:35:30.000Z</time>
      </trkpt>
      <trkpt lat="42.69742" lon="0.66822">
        <ele>2079.5</ele>
        <time>2018-08-08T17:35:31.000Z</time>
      </trkpt>
      <trkpt lat="42.69742" lon="0.66822">
        <ele>2079.5</ele>
        <time>2018-08-08T17:35:32.000Z</time>
      </trkpt>
      <trkpt lat="42.69742" lon="0.66822">
        <ele>2079.5</ele>
        <time>2018-08-08T17:35:33.000Z</time>
      </trkpt>
      <trkpt lat="42.69742" lon="0.66822">
        <ele>2079.5</ele>
        <time>2018-08-08T17:35:34.000Z</time>
      </trkpt>
      <trkpt lat="42.69742" lon="0.66822">
        <ele>2079.5</ele>
        <time>2018-08-08T17:35:35.000Z</time>
      </trkpt>
      <trkpt lat="42.69742" lon="0.66822">
        <ele>2079.5</ele>
        <time>2018-08-08T17:35:36.000Z</time>
      </trkpt>
      <trkpt lat="42.69742" lon="0.66822">
        <ele>2079.5</ele>
        <time>2018-08-08T17:35:37.000Z</time>
      </trkpt>
      <trkpt lat="42.69742" lon="0.66822">
        <ele>2079.5</ele>
        <time>2018-08-08T17:35:38.000Z</time>
      </trkpt>
      <trkpt lat="42.69742" lon="0.66822">
        <ele>2079.5</ele>
        <time>2018-08-08T17:35:39.000Z</time>
      </trkpt>
      <trkpt lat="42.69742" lon="0.66822">
        <ele>2079.5</ele>
        <time>2018-08-08T17:35:40.000Z</time>
      </trkpt>
      <trkpt lat="42.69742" lon="0.66822">
        <ele>2079.5</ele>
        <time>2018-08-08T17:35:41.000Z</time>
      </trkpt>
      <trkpt lat="42.69742" lon="0.66822">
        <ele>2079.5</ele>
        <time>2018-08-08T17:35:42.000Z</time>
      </trkpt>
      <trkpt lat="42.69742" lon="0.66822">
        <ele>2079.5</ele>
        <time>2018-08-08T17:35:43.000Z</time>
      </trkpt>
      <trkpt lat="42.69742" lon="0.66822">
        <ele>2079.5</ele>
        <time>2018-08-08T17:35:44.000Z</time>
      </trkpt>
      <trkpt lat="42.69742" lon="0.66822">
        <ele>2079.5</ele>
        <time>2018-08-08T17:35:45.000Z</time>
      </trkpt>
      <trkpt lat="42.69742" lon="0.66822">
        <ele>2079.5</ele>
        <time>2018-08-08T17:35:46.000Z</time>
      </trkpt>
      <trkpt lat="42.69742" lon="0.66822">
        <ele>2079.5</ele>
        <time>2018-08-08T17:35:47.000Z</time>
      </trkpt>
      <trkpt lat="42.69742" lon="0.66822">
        <ele>2079.5</ele>
        <time>2018-08-08T17:35:48.000Z</time>
      </trkpt>
      <trkpt lat="42.69742" lon="0.66822">
        <ele>2079.5</ele>
        <time>2018-08-08T17:35:49.000Z</time>
      </trkpt>
      <trkpt lat="42.69742" lon="0.66822">
        <ele>2079.5</ele>
        <time>2018-08-08T17:35:50.000Z</time>
      </trkpt>
      <trkpt lat="42.69742" lon="0.66822">
        <ele>2079.5</ele>
        <time>2018-08-08T17:35:51.000Z</time>
      </trkpt>
      <trkpt lat="42.69742" lon="0.66822">
        <ele>2079.5</ele>
        <time>2018-08-08T17:35:52.000Z</time>
      </trkpt>
      <trkpt lat="42.69742" lon="0.66822">
        <ele>2079.5</ele>
        <time>2018-08-08T17:35:53.000Z</time>
      </trkpt>
      <trkpt lat="42.69742" lon="0.66822">
        <ele>2079.5</ele>
        <time>2018-08-08T17:35:54.000Z</time>
      </trkpt>
      <trkpt lat="42.69742" lon="0.66822">
        <ele>2079.5</ele>
        <time>2018-08-08T17:35:55.000Z</time>
      </trkpt>
      <trkpt lat="42.69742" lon="0.66822">
        <ele>2079.5</ele>
        <time>2018-08-08T17:35:56.000Z</time>
      </trkpt>
      <trkpt lat="42.69742" lon="0.66822">
        <ele>2079.5</ele>
        <time>2018-08-08T17:35:57.000Z</time>
      </trkpt>
      <trkpt lat="42.69742" lon="0.66822">
        <ele>2079.5</ele>
        <time>2018-08-08T17:35:58.000Z</time>
      </trkpt>
      <trkpt lat="42.69742" lon="0.66822">
        <ele>2079.5</ele>
        <time>2018-08-08T17:35:59.000Z</time>
      </trkpt>
      <trkpt lat="42.69742" lon="0.66822">
        <ele>2079.5</ele>
        <time>2018-08-08T17:36:00.000Z</time>
      </trkpt>
      <trkpt lat="42.69742" lon="0.66822">
        <ele>2079.5</ele>
        <time>2018-08-08T17:36:01.000Z</time>
      </trkpt>
      <trkpt lat="42.69742" lon="0.66822">
        <ele>2079.5</ele>
        <time>2018-08-08T17:36:02.000Z</time>
      </trkpt>
      <trkpt lat="42.69742" lon="0.66822">
        <ele>2079.5</ele>
        <time>2018-08-08T17:36:03.000Z</time>
      </trkpt>
      <trkpt lat="42.69742" lon="0.66822">
        <ele>2079.5</ele>
        <time>2018-08-08T17:36:04.000Z</time>
      </trkpt>
      <trkpt lat="42.69742" lon="0.66822">
        <ele>2079.5</ele>
        <time>2018-08-08T17:36:05.000Z</time>
      </trkpt>
      <trkpt lat="42.69742" lon="0.66822">
        <ele>2079.5</ele>
        <time>2018-08-08T17:36:06.000Z</time>
      </trkpt>
      <trkpt lat="42.69742" lon="0.66822">
        <ele>2079.5</ele>
        <time>2018-08-08T17:36:07.000Z</time>
      </trkpt>
      <trkpt lat="42.69742" lon="0.66822">
        <ele>2079.5</ele>
        <time>2018-08-08T17:36:08.000Z</time>
      </trkpt>
      <trkpt lat="42.69742" lon="0.66822">
        <ele>2079.5</ele>
        <time>2018-08-08T17:36:09.000Z</time>
      </trkpt>
      <trkpt lat="42.69742" lon="0.66822">
        <ele>2079.5</ele>
        <time>2018-08-08T17:36:10.000Z</time>
      </trkpt>
      <trkpt lat="42.69742" lon="0.66822">
        <ele>2079.5</ele>
        <time>2018-08-08T17:36:11.000Z</time>
      </trkpt>
      <trkpt lat="42.69742" lon="0.66822">
        <ele>2079.5</ele>
        <time>2018-08-08T17:36:12.000Z</time>
      </trkpt>
      <trkpt lat="42.69742" lon="0.66822">
        <ele>2079.5</ele>
        <time>2018-08-08T17:36:13.000Z</time>
      </trkpt>
      <trkpt lat="42.69742" lon="0.66822">
        <ele>2079.5</ele>
        <time>2018-08-08T17:36:14.000Z</time>
      </trkpt>
      <trkpt lat="42.69742" lon="0.66822">
        <ele>2079.5</ele>
        <time>2018-08-08T17:36:15.000Z</time>
      </trkpt>
      <trkpt lat="42.69742" lon="0.66822">
        <ele>2079.5</ele>
        <time>2018-08-08T17:36:16.000Z</time>
      </trkpt>
      <trkpt lat="42.69742" lon="0.66822">
        <ele>2079.5</ele>
        <time>2018-08-08T17:36:17.000Z</time>
      </trkpt>
      <trkpt lat="42.69742" lon="0.66822">
        <ele>2079.5</ele>
        <time>2018-08-08T17:36:18.000Z</time>
      </trkpt>
      <trkpt lat="42.69742" lon="0.66822">
        <ele>2079.5</ele>
        <time>2018-08-08T17:36:19.000Z</time>
      </trkpt>
      <trkpt lat="42.69742" lon="0.66822">
        <ele>2079.5</ele>
        <time>2018-08-08T17:36:20.000Z</time>
      </trkpt>
      <trkpt lat="42.69742" lon="0.66822">
        <ele>2079.5</ele>
        <time>2018-08-08T17:36:21.000Z</time>
      </trkpt>
      <trkpt lat="42.69742" lon="0.66822">
        <ele>2079.5</ele>
        <time>2018-08-08T17:36:22.000Z</time>
      </trkpt>
      <trkpt lat="42.69742" lon="0.66822">
        <ele>2079.5</ele>
        <time>2018-08-08T17:36:23.000Z</time>
      </trkpt>
      <trkpt lat="42.69742" lon="0.66822">
        <ele>2079.5</ele>
        <time>2018-08-08T17:36:24.000Z</time>
      </trkpt>
      <trkpt lat="42.69742" lon="0.66822">
        <ele>2079.5</ele>
        <time>2018-08-08T17:36:25.000Z</time>
      </trkpt>
      <trkpt lat="42.69742" lon="0.66822">
        <ele>2079.5</ele>
        <time>2018-08-08T17:36:26.000Z</time>
      </trkpt>
      <trkpt lat="42.69742" lon="0.66822">
        <ele>2079.5</ele>
        <time>2018-08-08T17:36:27.000Z</time>
      </trkpt>
      <trkpt lat="42.69742" lon="0.66822">
        <ele>2079.5</ele>
        <time>2018-08-08T17:36:28.000Z</time>
      </trkpt>
      <trkpt lat="42.69742" lon="0.66822">
        <ele>2079.5</ele>
        <time>2018-08-08T17:36:29.000Z</time>
      </trkpt>
      <trkpt lat="42.69742" lon="0.66822">
        <ele>2079.5</ele>
        <time>2018-08-08T17:36:30.000Z</time>
      </trkpt>
      <trkpt lat="42.69742" lon="0.66822">
        <ele>2079.5</ele>
        <time>2018-08-08T17:36:31.000Z</time>
      </trkpt>
      <trkpt lat="42.69742" lon="0.66822">
        <ele>2079.5</ele>
        <time>2018-08-08T17:36:32.000Z</time>
      </trkpt>
      <trkpt lat="42.69742" lon="0.66822">
        <ele>2079.5</ele>
        <time>2018-08-08T17:36:33.000Z</time>
      </trkpt>
      <trkpt lat="42.69742" lon="0.66822">
        <ele>2079.5</ele>
        <time>2018-08-08T17:36:34.000Z</time>
      </trkpt>
      <trkpt lat="42.69742" lon="0.66822">
        <ele>2079.5</ele>
        <time>2018-08-08T17:36:35.000Z</time>
      </trkpt>
      <trkpt lat="42.69742" lon="0.66822">
        <ele>2079.5</ele>
        <time>2018-08-08T17:36:36.000Z</time>
      </trkpt>
      <trkpt lat="42.69742" lon="0.66822">
        <ele>2079.5</ele>
        <time>2018-08-08T17:36:37.000Z</time>
      </trkpt>
      <trkpt lat="42.69742" lon="0.66822">
        <ele>2079.5</ele>
        <time>2018-08-08T17:36:38.000Z</time>
      </trkpt>
      <trkpt lat="42.69742" lon="0.66822">
        <ele>2079.5</ele>
        <time>2018-08-08T17:36:39.000Z</time>
      </trkpt>
      <trkpt lat="42.69742" lon="0.66822">
        <ele>2079.5</ele>
        <time>2018-08-08T17:36:40.000Z</time>
      </trkpt>
      <trkpt lat="42.69742" lon="0.66822">
        <ele>2079.5</ele>
        <time>2018-08-08T17:36:41.000Z</time>
      </trkpt>
      <trkpt lat="42.69742" lon="0.66822">
        <ele>2079.5</ele>
        <time>2018-08-08T17:36:42.000Z</time>
      </trkpt>
      <trkpt lat="42.69742" lon="0.66822">
        <ele>2079.5</ele>
        <time>2018-08-08T17:36:43.000Z</time>
      </trkpt>
      <trkpt lat="42.69742" lon="0.66822">
        <ele>2079.5</ele>
        <time>2018-08-08T17:36:44.000Z</time>
      </trkpt>
      <trkpt lat="42.69742" lon="0.66822">
        <ele>2079.6</ele>
        <time>2018-08-08T17:36:45.000Z</time>
      </trkpt>
      <trkpt lat="42.69742" lon="0.66822">
        <ele>2079.6</ele>
        <time>2018-08-08T17:36:46.000Z</time>
      </trkpt>
      <trkpt lat="42.69742" lon="0.66822">
        <ele>2079.6</ele>
        <time>2018-08-08T17:36:47.000Z</time>
      </trkpt>
      <trkpt lat="42.69742" lon="0.66822">
        <ele>2079.6</ele>
        <time>2018-08-08T17:36:48.000Z</time>
      </trkpt>
      <trkpt lat="42.69742" lon="0.66822">
        <ele>2079.6</ele>
        <time>2018-08-08T17:36:49.000Z</time>
      </trkpt>
      <trkpt lat="42.69742" lon="0.66822">
        <ele>2079.6</ele>
        <time>2018-08-08T17:36:50.000Z</time>
      </trkpt>
      <trkpt lat="42.69742" lon="0.66822">
        <ele>2079.6</ele>
        <time>2018-08-08T17:36:51.000Z</time>
      </trkpt>
      <trkpt lat="42.69742" lon="0.66822">
        <ele>2079.6</ele>
        <time>2018-08-08T17:36:52.000Z</time>
      </trkpt>
      <trkpt lat="42.69742" lon="0.66822">
        <ele>2079.6</ele>
        <time>2018-08-08T17:36:53.000Z</time>
      </trkpt>
      <trkpt lat="42.69742" lon="0.66822">
        <ele>2079.6</ele>
        <time>2018-08-08T17:36:54.000Z</time>
      </trkpt>
      <trkpt lat="42.69742" lon="0.66822">
        <ele>2079.6</ele>
        <time>2018-08-08T17:36:55.000Z</time>
      </trkpt>
      <trkpt lat="42.69742" lon="0.66822">
        <ele>2079.6</ele>
        <time>2018-08-08T17:36:56.000Z</time>
      </trkpt>
      <trkpt lat="42.69742" lon="0.66822">
        <ele>2079.6</ele>
        <time>2018-08-08T17:36:57.000Z</time>
      </trkpt>
      <trkpt lat="42.69742" lon="0.66822">
        <ele>2079.6</ele>
        <time>2018-08-08T17:36:58.000Z</time>
      </trkpt>
      <trkpt lat="42.69742" lon="0.66822">
        <ele>2079.6</ele>
        <time>2018-08-08T17:36:59.000Z</time>
      </trkpt>
      <trkpt lat="42.69742" lon="0.66822">
        <ele>2079.6</ele>
        <time>2018-08-08T17:37:00.000Z</time>
      </trkpt>
      <trkpt lat="42.69742" lon="0.66822">
        <ele>2079.6</ele>
        <time>2018-08-08T17:37:01.000Z</time>
      </trkpt>
      <trkpt lat="42.69742" lon="0.66822">
        <ele>2079.6</ele>
        <time>2018-08-08T17:37:02.000Z</time>
      </trkpt>
      <trkpt lat="42.69742" lon="0.66822">
        <ele>2079.6</ele>
        <time>2018-08-08T17:37:03.000Z</time>
      </trkpt>
      <trkpt lat="42.69742" lon="0.66822">
        <ele>2079.6</ele>
        <time>2018-08-08T17:37:04.000Z</time>
      </trkpt>
      <trkpt lat="42.69742" lon="0.66822">
        <ele>2079.6</ele>
        <time>2018-08-08T17:37:05.000Z</time>
      </trkpt>
      <trkpt lat="42.69742" lon="0.66822">
        <ele>2079.6</ele>
        <time>2018-08-08T17:37:06.000Z</time>
      </trkpt>
      <trkpt lat="42.69742" lon="0.66822">
        <ele>2079.6</ele>
        <time>2018-08-08T17:37:07.000Z</time>
      </trkpt>
      <trkpt lat="42.69742" lon="0.66822">
        <ele>2079.6</ele>
        <time>2018-08-08T17:37:08.000Z</time>
      </trkpt>
      <trkpt lat="42.69742" lon="0.66822">
        <ele>2079.6</ele>
        <time>2018-08-08T17:37:09.000Z</time>
      </trkpt>
      <trkpt lat="42.69742" lon="0.66822">
        <ele>2079.6</ele>
        <time>2018-08-08T17:37:10.000Z</time>
      </trkpt>
      <trkpt lat="42.69742" lon="0.66822">
        <ele>2079.6</ele>
        <time>2018-08-08T17:37:11.000Z</time>
      </trkpt>
      <trkpt lat="42.69742" lon="0.66822">
        <ele>2079.6</ele>
        <time>2018-08-08T17:37:12.000Z</time>
      </trkpt>
      <trkpt lat="42.69742" lon="0.66822">
        <ele>2079.6</ele>
        <time>2018-08-08T17:37:13.000Z</time>
      </trkpt>
      <trkpt lat="42.69742" lon="0.66822">
        <ele>2079.6</ele>
        <time>2018-08-08T17:37:14.000Z</time>
      </trkpt>
      <trkpt lat="42.69742" lon="0.66822">
        <ele>2079.6</ele>
        <time>2018-08-08T17:37:15.000Z</time>
      </trkpt>
      <trkpt lat="42.69742" lon="0.66822">
        <ele>2079.6</ele>
        <time>2018-08-08T17:37:16.000Z</time>
      </trkpt>
      <trkpt lat="42.69742" lon="0.66822">
        <ele>2079.6</ele>
        <time>2018-08-08T17:37:17.000Z</time>
      </trkpt>
      <trkpt lat="42.69742" lon="0.66822">
        <ele>2079.6</ele>
        <time>2018-08-08T17:37:18.000Z</time>
      </trkpt>
      <trkpt lat="42.69742" lon="0.66822">
        <ele>2079.6</ele>
        <time>2018-08-08T17:37:19.000Z</time>
      </trkpt>
      <trkpt lat="42.69742" lon="0.66822">
        <ele>2079.6</ele>
        <time>2018-08-08T17:37:20.000Z</time>
      </trkpt>
      <trkpt lat="42.69742" lon="0.66822">
        <ele>2079.6</ele>
        <time>2018-08-08T17:37:21.000Z</time>
      </trkpt>
      <trkpt lat="42.69742" lon="0.66822">
        <ele>2079.6</ele>
        <time>2018-08-08T17:37:22.000Z</time>
      </trkpt>
      <trkpt lat="42.69742" lon="0.66822">
        <ele>2079.6</ele>
        <time>2018-08-08T17:37:23.000Z</time>
      </trkpt>
      <trkpt lat="42.69742" lon="0.66822">
        <ele>2079.6</ele>
        <time>2018-08-08T17:37:24.000Z</time>
      </trkpt>
      <trkpt lat="42.69742" lon="0.66822">
        <ele>2079.6</ele>
        <time>2018-08-08T17:37:25.000Z</time>
      </trkpt>
      <trkpt lat="42.69742" lon="0.66822">
        <ele>2079.6</ele>
        <time>2018-08-08T17:37:26.000Z</time>
      </trkpt>
      <trkpt lat="42.69742" lon="0.66822">
        <ele>2079.6</ele>
        <time>2018-08-08T17:37:27.000Z</time>
      </trkpt>
      <trkpt lat="42.69742" lon="0.66822">
        <ele>2079.6</ele>
        <time>2018-08-08T17:37:28.000Z</time>
      </trkpt>
      <trkpt lat="42.69742" lon="0.66822">
        <ele>2079.6</ele>
        <time>2018-08-08T17:37:29.000Z</time>
      </trkpt>
      <trkpt lat="42.69742" lon="0.66822">
        <ele>2079.6</ele>
        <time>2018-08-08T17:37:30.000Z</time>
      </trkpt>
      <trkpt lat="42.69742" lon="0.66822">
        <ele>2079.6</ele>
        <time>2018-08-08T17:37:31.000Z</time>
      </trkpt>
      <trkpt lat="42.69742" lon="0.66822">
        <ele>2079.6</ele>
        <time>2018-08-08T17:37:32.000Z</time>
      </trkpt>
      <trkpt lat="42.69742" lon="0.66822">
        <ele>2079.6</ele>
        <time>2018-08-08T17:37:33.000Z</time>
      </trkpt>
      <trkpt lat="42.69742" lon="0.66822">
        <ele>2079.6</ele>
        <time>2018-08-08T17:37:34.000Z</time>
      </trkpt>
      <trkpt lat="42.69742" lon="0.66822">
        <ele>2079.6</ele>
        <time>2018-08-08T17:37:35.000Z</time>
      </trkpt>
      <trkpt lat="42.69742" lon="0.66822">
        <ele>2079.6</ele>
        <time>2018-08-08T17:37:36.000Z</time>
      </trkpt>
      <trkpt lat="42.69742" lon="0.66822">
        <ele>2079.6</ele>
        <time>2018-08-08T17:37:37.000Z</time>
      </trkpt>
      <trkpt lat="42.69742" lon="0.66822">
        <ele>2079.6</ele>
        <time>2018-08-08T17:37:38.000Z</time>
      </trkpt>
      <trkpt lat="42.69742" lon="0.66822">
        <ele>2079.6</ele>
        <time>2018-08-08T17:37:39.000Z</time>
      </trkpt>
      <trkpt lat="42.69742" lon="0.66822">
        <ele>2079.6</ele>
        <time>2018-08-08T17:37:40.000Z</time>
      </trkpt>
      <trkpt lat="42.69742" lon="0.66822">
        <ele>2079.6</ele>
        <time>2018-08-08T17:37:41.000Z</time>
      </trkpt>
      <trkpt lat="42.69742" lon="0.66822">
        <ele>2079.6</ele>
        <time>2018-08-08T17:37:42.000Z</time>
      </trkpt>
      <trkpt lat="42.69742" lon="0.66822">
        <ele>2079.6</ele>
        <time>2018-08-08T17:37:43.000Z</time>
      </trkpt>
      <trkpt lat="42.69742" lon="0.66822">
        <ele>2079.6</ele>
        <time>2018-08-08T17:37:44.000Z</time>
      </trkpt>
      <trkpt lat="42.69742" lon="0.66822">
        <ele>2079.6</ele>
        <time>2018-08-08T17:37:45.000Z</time>
      </trkpt>
      <trkpt lat="42.69742" lon="0.66822">
        <ele>2079.6</ele>
        <time>2018-08-08T17:37:46.000Z</time>
      </trkpt>
      <trkpt lat="42.69742" lon="0.66822">
        <ele>2079.6</ele>
        <time>2018-08-08T17:37:47.000Z</time>
      </trkpt>
      <trkpt lat="42.69742" lon="0.66822">
        <ele>2079.6</ele>
        <time>2018-08-08T17:37:48.000Z</time>
      </trkpt>
      <trkpt lat="42.69742" lon="0.66822">
        <ele>2079.6</ele>
        <time>2018-08-08T17:37:49.000Z</time>
      </trkpt>
      <trkpt lat="42.69742" lon="0.66822">
        <ele>2079.6</ele>
        <time>2018-08-08T17:37:50.000Z</time>
      </trkpt>
      <trkpt lat="42.69742" lon="0.66822">
        <ele>2079.6</ele>
        <time>2018-08-08T17:37:51.000Z</time>
      </trkpt>
      <trkpt lat="42.69742" lon="0.66822">
        <ele>2079.6</ele>
        <time>2018-08-08T17:37:52.000Z</time>
      </trkpt>
      <trkpt lat="42.69742" lon="0.66822">
        <ele>2079.6</ele>
        <time>2018-08-08T17:37:53.000Z</time>
      </trkpt>
      <trkpt lat="42.69742" lon="0.66822">
        <ele>2079.6</ele>
        <time>2018-08-08T17:37:54.000Z</time>
      </trkpt>
      <trkpt lat="42.69742" lon="0.66822">
        <ele>2079.6</ele>
        <time>2018-08-08T17:37:55.000Z</time>
      </trkpt>
      <trkpt lat="42.69742" lon="0.66822">
        <ele>2079.6</ele>
        <time>2018-08-08T17:37:56.000Z</time>
      </trkpt>
      <trkpt lat="42.69742" lon="0.66822">
        <ele>2079.6</ele>
        <time>2018-08-08T17:37:57.000Z</time>
      </trkpt>
      <trkpt lat="42.69742" lon="0.66822">
        <ele>2079.6</ele>
        <time>2018-08-08T17:37:58.000Z</time>
      </trkpt>
      <trkpt lat="42.69742" lon="0.66822">
        <ele>2079.6</ele>
        <time>2018-08-08T17:37:59.000Z</time>
      </trkpt>
      <trkpt lat="42.69742" lon="0.66822">
        <ele>2079.6</ele>
        <time>2018-08-08T17:38:00.000Z</time>
      </trkpt>
      <trkpt lat="42.69742" lon="0.66822">
        <ele>2079.6</ele>
        <time>2018-08-08T17:38:01.000Z</time>
      </trkpt>
      <trkpt lat="42.69742" lon="0.66822">
        <ele>2079.6</ele>
        <time>2018-08-08T17:38:02.000Z</time>
      </trkpt>
      <trkpt lat="42.69742" lon="0.66822">
        <ele>2079.6</ele>
        <time>2018-08-08T17:38:03.000Z</time>
      </trkpt>
      <trkpt lat="42.69742" lon="0.66822">
        <ele>2079.6</ele>
        <time>2018-08-08T17:38:04.000Z</time>
      </trkpt>
      <trkpt lat="42.69742" lon="0.66822">
        <ele>2079.6</ele>
        <time>2018-08-08T17:38:05.000Z</time>
      </trkpt>
      <trkpt lat="42.69742" lon="0.66822">
        <ele>2079.6</ele>
        <time>2018-08-08T17:38:06.000Z</time>
      </trkpt>
      <trkpt lat="42.69742" lon="0.66822">
        <ele>2079.6</ele>
        <time>2018-08-08T17:38:07.000Z</time>
      </trkpt>
      <trkpt lat="42.69742" lon="0.66822">
        <ele>2079.6</ele>
        <time>2018-08-08T17:38:08.000Z</time>
      </trkpt>
      <trkpt lat="42.69742" lon="0.66822">
        <ele>2079.6</ele>
        <time>2018-08-08T17:38:09.000Z</time>
      </trkpt>
      <trkpt lat="42.69742" lon="0.66822">
        <ele>2079.6</ele>
        <time>2018-08-08T17:38:10.000Z</time>
      </trkpt>
      <trkpt lat="42.69742" lon="0.66822">
        <ele>2079.6</ele>
        <time>2018-08-08T17:38:11.000Z</time>
      </trkpt>
      <trkpt lat="42.69742" lon="0.66822">
        <ele>2079.6</ele>
        <time>2018-08-08T17:38:12.000Z</time>
      </trkpt>
      <trkpt lat="42.69742" lon="0.66822">
        <ele>2079.6</ele>
        <time>2018-08-08T17:38:13.000Z</time>
      </trkpt>
      <trkpt lat="42.69742" lon="0.66822">
        <ele>2079.6</ele>
        <time>2018-08-08T17:38:14.000Z</time>
      </trkpt>
      <trkpt lat="42.69742" lon="0.66822">
        <ele>2079.6</ele>
        <time>2018-08-08T17:38:15.000Z</time>
      </trkpt>
      <trkpt lat="42.69742" lon="0.66822">
        <ele>2079.6</ele>
        <time>2018-08-08T17:38:16.000Z</time>
      </trkpt>
      <trkpt lat="42.69742" lon="0.66822">
        <ele>2079.6</ele>
        <time>2018-08-08T17:38:17.000Z</time>
      </trkpt>
      <trkpt lat="42.69742" lon="0.66822">
        <ele>2079.6</ele>
        <time>2018-08-08T17:38:18.000Z</time>
      </trkpt>
      <trkpt lat="42.69742" lon="0.66822">
        <ele>2079.6</ele>
        <time>2018-08-08T17:38:19.000Z</time>
      </trkpt>
      <trkpt lat="42.69742" lon="0.66822">
        <ele>2079.6</ele>
        <time>2018-08-08T17:38:20.000Z</time>
      </trkpt>
      <trkpt lat="42.69742" lon="0.66822">
        <ele>2079.6</ele>
        <time>2018-08-08T17:38:21.000Z</time>
      </trkpt>
      <trkpt lat="42.69742" lon="0.66822">
        <ele>2079.6</ele>
        <time>2018-08-08T17:38:22.000Z</time>
      </trkpt>
      <trkpt lat="42.69742" lon="0.66822">
        <ele>2079.6</ele>
        <time>2018-08-08T17:38:23.000Z</time>
      </trkpt>
      <trkpt lat="42.69742" lon="0.66822">
        <ele>2079.6</ele>
        <time>2018-08-08T17:38:24.000Z</time>
      </trkpt>
      <trkpt lat="42.69742" lon="0.66822">
        <ele>2079.6</ele>
        <time>2018-08-08T17:38:25.000Z</time>
      </trkpt>
      <trkpt lat="42.69742" lon="0.66822">
        <ele>2079.6</ele>
        <time>2018-08-08T17:38:26.000Z</time>
      </trkpt>
      <trkpt lat="42.69742" lon="0.66822">
        <ele>2079.6</ele>
        <time>2018-08-08T17:38:27.000Z</time>
      </trkpt>
      <trkpt lat="42.69742" lon="0.66822">
        <ele>2079.6</ele>
        <time>2018-08-08T17:38:28.000Z</time>
      </trkpt>
      <trkpt lat="42.69742" lon="0.66822">
        <ele>2079.6</ele>
        <time>2018-08-08T17:38:29.000Z</time>
      </trkpt>
      <trkpt lat="42.69742" lon="0.66822">
        <ele>2079.6</ele>
        <time>2018-08-08T17:38:30.000Z</time>
      </trkpt>
      <trkpt lat="42.69742" lon="0.66822">
        <ele>2079.6</ele>
        <time>2018-08-08T17:38:31.000Z</time>
      </trkpt>
      <trkpt lat="42.69742" lon="0.66822">
        <ele>2079.6</ele>
        <time>2018-08-08T17:38:32.000Z</time>
      </trkpt>
      <trkpt lat="42.69742" lon="0.66822">
        <ele>2079.6</ele>
        <time>2018-08-08T17:38:33.000Z</time>
      </trkpt>
      <trkpt lat="42.69742" lon="0.66822">
        <ele>2079.6</ele>
        <time>2018-08-08T17:38:34.000Z</time>
      </trkpt>
      <trkpt lat="42.69742" lon="0.66822">
        <ele>2079.6</ele>
        <time>2018-08-08T17:38:35.000Z</time>
      </trkpt>
      <trkpt lat="42.69742" lon="0.66822">
        <ele>2079.6</ele>
        <time>2018-08-08T17:38:36.000Z</time>
      </trkpt>
      <trkpt lat="42.69742" lon="0.66822">
        <ele>2079.6</ele>
        <time>2018-08-08T17:38:37.000Z</time>
      </trkpt>
      <trkpt lat="42.69742" lon="0.66822">
        <ele>2079.6</ele>
        <time>2018-08-08T17:38:38.000Z</time>
      </trkpt>
      <trkpt lat="42.69742" lon="0.66822">
        <ele>2079.6</ele>
        <time>2018-08-08T17:38:39.000Z</time>
      </trkpt>
      <trkpt lat="42.69742" lon="0.66822">
        <ele>2079.6</ele>
        <time>2018-08-08T17:38:40.000Z</time>
      </trkpt>
      <trkpt lat="42.69742" lon="0.66822">
        <ele>2079.6</ele>
        <time>2018-08-08T17:38:41.000Z</time>
      </trkpt>
      <trkpt lat="42.69742" lon="0.66822">
        <ele>2079.6</ele>
        <time>2018-08-08T17:38:42.000Z</time>
      </trkpt>
      <trkpt lat="42.69742" lon="0.66822">
        <ele>2079.6</ele>
        <time>2018-08-08T17:38:43.000Z</time>
      </trkpt>
      <trkpt lat="42.69742" lon="0.66822">
        <ele>2079.6</ele>
        <time>2018-08-08T17:38:44.000Z</time>
      </trkpt>
      <trkpt lat="42.69742" lon="0.66822">
        <ele>2079.6</ele>
        <time>2018-08-08T17:38:45.000Z</time>
      </trkpt>
      <trkpt lat="42.69742" lon="0.66822">
        <ele>2079.6</ele>
        <time>2018-08-08T17:38:46.000Z</time>
      </trkpt>
      <trkpt lat="42.69742" lon="0.66822">
        <ele>2079.6</ele>
        <time>2018-08-08T17:38:47.000Z</time>
      </trkpt>
      <trkpt lat="42.69742" lon="0.66822">
        <ele>2079.6</ele>
        <time>2018-08-08T17:38:48.000Z</time>
      </trkpt>
      <trkpt lat="42.69742" lon="0.66822">
        <ele>2079.6</ele>
        <time>2018-08-08T17:38:49.000Z</time>
      </trkpt>
      <trkpt lat="42.69742" lon="0.66822">
        <ele>2079.6</ele>
        <time>2018-08-08T17:38:50.000Z</time>
      </trkpt>
      <trkpt lat="42.69742" lon="0.66822">
        <ele>2079.6</ele>
        <time>2018-08-08T17:38:51.000Z</time>
      </trkpt>
      <trkpt lat="42.69742" lon="0.66822">
        <ele>2079.6</ele>
        <time>2018-08-08T17:38:52.000Z</time>
      </trkpt>
      <trkpt lat="42.69742" lon="0.66822">
        <ele>2079.6</ele>
        <time>2018-08-08T17:38:53.000Z</time>
      </trkpt>
      <trkpt lat="42.69742" lon="0.66822">
        <ele>2079.6</ele>
        <time>2018-08-08T17:38:54.000Z</time>
      </trkpt>
      <trkpt lat="42.69742" lon="0.66822">
        <ele>2079.6</ele>
        <time>2018-08-08T17:38:55.000Z</time>
      </trkpt>
      <trkpt lat="42.69742" lon="0.66822">
        <ele>2079.6</ele>
        <time>2018-08-08T17:38:56.000Z</time>
      </trkpt>
      <trkpt lat="42.69742" lon="0.66822">
        <ele>2079.6</ele>
        <time>2018-08-08T17:38:57.000Z</time>
      </trkpt>
      <trkpt lat="42.69742" lon="0.66822">
        <ele>2079.6</ele>
        <time>2018-08-08T17:38:58.000Z</time>
      </trkpt>
      <trkpt lat="42.69742" lon="0.66822">
        <ele>2079.6</ele>
        <time>2018-08-08T17:38:59.000Z</time>
      </trkpt>
      <trkpt lat="42.69742" lon="0.66822">
        <ele>2079.6</ele>
        <time>2018-08-08T17:39:00.000Z</time>
      </trkpt>
      <trkpt lat="42.69742" lon="0.66822">
        <ele>2079.6</ele>
        <time>2018-08-08T17:39:01.000Z</time>
      </trkpt>
      <trkpt lat="42.69742" lon="0.66822">
        <ele>2079.6</ele>
        <time>2018-08-08T17:39:02.000Z</time>
      </trkpt>
      <trkpt lat="42.69742" lon="0.66822">
        <ele>2079.6</ele>
        <time>2018-08-08T17:39:03.000Z</time>
      </trkpt>
      <trkpt lat="42.69742" lon="0.66822">
        <ele>2079.6</ele>
        <time>2018-08-08T17:39:04.000Z</time>
      </trkpt>
      <trkpt lat="42.69742" lon="0.66822">
        <ele>2079.6</ele>
        <time>2018-08-08T17:39:05.000Z</time>
      </trkpt>
      <trkpt lat="42.69742" lon="0.66822">
        <ele>2079.6</ele>
        <time>2018-08-08T17:39:06.000Z</time>
      </trkpt>
      <trkpt lat="42.69742" lon="0.66822">
        <ele>2079.6</ele>
        <time>2018-08-08T17:39:07.000Z</time>
      </trkpt>
      <trkpt lat="42.69742" lon="0.66822">
        <ele>2079.6</ele>
        <time>2018-08-08T17:39:08.000Z</time>
      </trkpt>
      <trkpt lat="42.69742" lon="0.66822">
        <ele>2079.6</ele>
        <time>2018-08-08T17:39:09.000Z</time>
      </trkpt>
      <trkpt lat="42.69742" lon="0.66822">
        <ele>2079.6</ele>
        <time>2018-08-08T17:39:10.000Z</time>
      </trkpt>
      <trkpt lat="42.69742" lon="0.66822">
        <ele>2079.6</ele>
        <time>2018-08-08T17:39:11.000Z</time>
      </trkpt>
      <trkpt lat="42.69742" lon="0.66822">
        <ele>2079.6</ele>
        <time>2018-08-08T17:39:12.000Z</time>
      </trkpt>
      <trkpt lat="42.69742" lon="0.66822">
        <ele>2079.6</ele>
        <time>2018-08-08T17:39:13.000Z</time>
      </trkpt>
      <trkpt lat="42.69742" lon="0.66822">
        <ele>2079.6</ele>
        <time>2018-08-08T17:39:14.000Z</time>
      </trkpt>
      <trkpt lat="42.69742" lon="0.66822">
        <ele>2079.6</ele>
        <time>2018-08-08T17:39:15.000Z</time>
      </trkpt>
      <trkpt lat="42.69742" lon="0.66822">
        <ele>2079.6</ele>
        <time>2018-08-08T17:39:16.000Z</time>
      </trkpt>
      <trkpt lat="42.69742" lon="0.66822">
        <ele>2079.6</ele>
        <time>2018-08-08T17:39:17.000Z</time>
      </trkpt>
      <trkpt lat="42.69742" lon="0.66822">
        <ele>2079.6</ele>
        <time>2018-08-08T17:39:18.000Z</time>
      </trkpt>
      <trkpt lat="42.69742" lon="0.66822">
        <ele>2079.6</ele>
        <time>2018-08-08T17:39:19.000Z</time>
      </trkpt>
      <trkpt lat="42.69742" lon="0.66822">
        <ele>2079.6</ele>
        <time>2018-08-08T17:39:20.000Z</time>
      </trkpt>
      <trkpt lat="42.69742" lon="0.66822">
        <ele>2079.6</ele>
        <time>2018-08-08T17:39:21.000Z</time>
      </trkpt>
      <trkpt lat="42.69742" lon="0.66822">
        <ele>2079.6</ele>
        <time>2018-08-08T17:39:22.000Z</time>
      </trkpt>
      <trkpt lat="42.69742" lon="0.66822">
        <ele>2079.6</ele>
        <time>2018-08-08T17:39:23.000Z</time>
      </trkpt>
      <trkpt lat="42.69742" lon="0.66822">
        <ele>2079.6</ele>
        <time>2018-08-08T17:39:24.000Z</time>
      </trkpt>
      <trkpt lat="42.69742" lon="0.66822">
        <ele>2079.6</ele>
        <time>2018-08-08T17:39:25.000Z</time>
      </trkpt>
      <trkpt lat="42.69742" lon="0.66822">
        <ele>2079.6</ele>
        <time>2018-08-08T17:39:26.000Z</time>
      </trkpt>
      <trkpt lat="42.69742" lon="0.66822">
        <ele>2079.6</ele>
        <time>2018-08-08T17:39:27.000Z</time>
      </trkpt>
      <trkpt lat="42.69742" lon="0.66822">
        <ele>2079.6</ele>
        <time>2018-08-08T17:39:28.000Z</time>
      </trkpt>
      <trkpt lat="42.69742" lon="0.66822">
        <ele>2079.6</ele>
        <time>2018-08-08T17:39:29.000Z</time>
      </trkpt>
      <trkpt lat="42.69742" lon="0.66822">
        <ele>2079.6</ele>
        <time>2018-08-08T17:39:30.000Z</time>
      </trkpt>
      <trkpt lat="42.69742" lon="0.66822">
        <ele>2079.6</ele>
        <time>2018-08-08T17:39:31.000Z</time>
      </trkpt>
      <trkpt lat="42.69742" lon="0.66822">
        <ele>2079.6</ele>
        <time>2018-08-08T17:39:32.000Z</time>
      </trkpt>
      <trkpt lat="42.69742" lon="0.66822">
        <ele>2079.6</ele>
        <time>2018-08-08T17:39:33.000Z</time>
      </trkpt>
      <trkpt lat="42.69742" lon="0.66822">
        <ele>2079.6</ele>
        <time>2018-08-08T17:39:34.000Z</time>
      </trkpt>
      <trkpt lat="42.69742" lon="0.66822">
        <ele>2079.6</ele>
        <time>2018-08-08T17:39:35.000Z</time>
      </trkpt>
      <trkpt lat="42.69742" lon="0.66822">
        <ele>2079.6</ele>
        <time>2018-08-08T17:39:36.000Z</time>
      </trkpt>
      <trkpt lat="42.69742" lon="0.66822">
        <ele>2079.6</ele>
        <time>2018-08-08T17:39:37.000Z</time>
      </trkpt>
      <trkpt lat="42.69742" lon="0.66822">
        <ele>2079.6</ele>
        <time>2018-08-08T17:39:38.000Z</time>
      </trkpt>
      <trkpt lat="42.69742" lon="0.66822">
        <ele>2079.6</ele>
        <time>2018-08-08T17:39:39.000Z</time>
      </trkpt>
      <trkpt lat="42.69742" lon="0.66822">
        <ele>2079.6</ele>
        <time>2018-08-08T17:39:40.000Z</time>
      </trkpt>
      <trkpt lat="42.69742" lon="0.66822">
        <ele>2079.6</ele>
        <time>2018-08-08T17:39:41.000Z</time>
      </trkpt>
      <trkpt lat="42.69742" lon="0.66822">
        <ele>2079.6</ele>
        <time>2018-08-08T17:39:42.000Z</time>
      </trkpt>
      <trkpt lat="42.69742" lon="0.66822">
        <ele>2079.6</ele>
        <time>2018-08-08T17:39:43.000Z</time>
      </trkpt>
      <trkpt lat="42.69742" lon="0.66822">
        <ele>2079.6</ele>
        <time>2018-08-08T17:39:44.000Z</time>
      </trkpt>
      <trkpt lat="42.69742" lon="0.66822">
        <ele>2079.6</ele>
        <time>2018-08-08T17:39:45.000Z</time>
      </trkpt>
      <trkpt lat="42.69742" lon="0.66822">
        <ele>2079.6</ele>
        <time>2018-08-08T17:39:46.000Z</time>
      </trkpt>
      <trkpt lat="42.69742" lon="0.66822">
        <ele>2079.6</ele>
        <time>2018-08-08T17:39:47.000Z</time>
      </trkpt>
      <trkpt lat="42.69742" lon="0.66822">
        <ele>2079.6</ele>
        <time>2018-08-08T17:39:48.000Z</time>
      </trkpt>
      <trkpt lat="42.69742" lon="0.66822">
        <ele>2079.6</ele>
        <time>2018-08-08T17:39:49.000Z</time>
      </trkpt>
      <trkpt lat="42.69742" lon="0.66822">
        <ele>2079.6</ele>
        <time>2018-08-08T17:39:50.000Z</time>
      </trkpt>
      <trkpt lat="42.69742" lon="0.66822">
        <ele>2079.6</ele>
        <time>2018-08-08T17:39:51.000Z</time>
      </trkpt>
      <trkpt lat="42.69742" lon="0.66822">
        <ele>2079.6</ele>
        <time>2018-08-08T17:39:52.000Z</time>
      </trkpt>
      <trkpt lat="42.69742" lon="0.66822">
        <ele>2079.6</ele>
        <time>2018-08-08T17:39:53.000Z</time>
      </trkpt>
      <trkpt lat="42.69742" lon="0.66822">
        <ele>2079.6</ele>
        <time>2018-08-08T17:39:54.000Z</time>
      </trkpt>
      <trkpt lat="42.69742" lon="0.66822">
        <ele>2079.6</ele>
        <time>2018-08-08T17:39:55.000Z</time>
      </trkpt>
      <trkpt lat="42.69742" lon="0.66822">
        <ele>2079.6</ele>
        <time>2018-08-08T17:39:56.000Z</time>
      </trkpt>
      <trkpt lat="42.69742" lon="0.66822">
        <ele>2079.6</ele>
        <time>2018-08-08T17:39:57.000Z</time>
      </trkpt>
      <trkpt lat="42.69742" lon="0.66822">
        <ele>2079.6</ele>
        <time>2018-08-08T17:39:58.000Z</time>
      </trkpt>
      <trkpt lat="42.69742" lon="0.66822">
        <ele>2079.6</ele>
        <time>2018-08-08T17:39:59.000Z</time>
      </trkpt>
      <trkpt lat="42.69742" lon="0.66822">
        <ele>2079.6</ele>
        <time>2018-08-08T17:40:00.000Z</time>
      </trkpt>
      <trkpt lat="42.69742" lon="0.66822">
        <ele>2079.6</ele>
        <time>2018-08-08T17:40:01.000Z</time>
      </trkpt>
      <trkpt lat="42.69742" lon="0.66822">
        <ele>2079.6</ele>
        <time>2018-08-08T17:40:02.000Z</time>
      </trkpt>
      <trkpt lat="42.69742" lon="0.66822">
        <ele>2079.6</ele>
        <time>2018-08-08T17:40:03.000Z</time>
      </trkpt>
      <trkpt lat="42.69742" lon="0.66822">
        <ele>2079.6</ele>
        <time>2018-08-08T17:40:04.000Z</time>
      </trkpt>
      <trkpt lat="42.69742" lon="0.66822">
        <ele>2079.6</ele>
        <time>2018-08-08T17:40:05.000Z</time>
      </trkpt>
      <trkpt lat="42.69742" lon="0.66822">
        <ele>2079.6</ele>
        <time>2018-08-08T17:40:06.000Z</time>
      </trkpt>
      <trkpt lat="42.69742" lon="0.66822">
        <ele>2079.6</ele>
        <time>2018-08-08T17:40:07.000Z</time>
      </trkpt>
      <trkpt lat="42.69742" lon="0.66822">
        <ele>2079.6</ele>
        <time>2018-08-08T17:40:08.000Z</time>
      </trkpt>
      <trkpt lat="42.69742" lon="0.66822">
        <ele>2079.6</ele>
        <time>2018-08-08T17:40:09.000Z</time>
      </trkpt>
      <trkpt lat="42.69742" lon="0.66822">
        <ele>2079.6</ele>
        <time>2018-08-08T17:40:10.000Z</time>
      </trkpt>
      <trkpt lat="42.69742" lon="0.66822">
        <ele>2079.6</ele>
        <time>2018-08-08T17:40:11.000Z</time>
      </trkpt>
      <trkpt lat="42.69742" lon="0.66822">
        <ele>2079.6</ele>
        <time>2018-08-08T17:40:12.000Z</time>
      </trkpt>
      <trkpt lat="42.69742" lon="0.66822">
        <ele>2079.6</ele>
        <time>2018-08-08T17:40:13.000Z</time>
      </trkpt>
      <trkpt lat="42.69742" lon="0.66822">
        <ele>2079.6</ele>
        <time>2018-08-08T17:40:14.000Z</time>
      </trkpt>
      <trkpt lat="42.69742" lon="0.66822">
        <ele>2079.6</ele>
        <time>2018-08-08T17:40:15.000Z</time>
      </trkpt>
      <trkpt lat="42.69742" lon="0.66822">
        <ele>2079.6</ele>
        <time>2018-08-08T17:40:16.000Z</time>
      </trkpt>
      <trkpt lat="42.69742" lon="0.66822">
        <ele>2079.6</ele>
        <time>2018-08-08T17:40:17.000Z</time>
      </trkpt>
      <trkpt lat="42.69742" lon="0.66822">
        <ele>2079.6</ele>
        <time>2018-08-08T17:40:18.000Z</time>
      </trkpt>
      <trkpt lat="42.69742" lon="0.66822">
        <ele>2079.6</ele>
        <time>2018-08-08T17:40:19.000Z</time>
      </trkpt>
      <trkpt lat="42.69742" lon="0.66822">
        <ele>2079.6</ele>
        <time>2018-08-08T17:40:20.000Z</time>
      </trkpt>
      <trkpt lat="42.69742" lon="0.66822">
        <ele>2079.6</ele>
        <time>2018-08-08T17:40:21.000Z</time>
      </trkpt>
      <trkpt lat="42.69742" lon="0.66822">
        <ele>2079.6</ele>
        <time>2018-08-08T17:40:22.000Z</time>
      </trkpt>
      <trkpt lat="42.69742" lon="0.66822">
        <ele>2079.6</ele>
        <time>2018-08-08T17:40:23.000Z</time>
      </trkpt>
      <trkpt lat="42.69742" lon="0.66822">
        <ele>2079.6</ele>
        <time>2018-08-08T17:40:24.000Z</time>
      </trkpt>
      <trkpt lat="42.69742" lon="0.66822">
        <ele>2079.6</ele>
        <time>2018-08-08T17:40:25.000Z</time>
      </trkpt>
      <trkpt lat="42.69742" lon="0.66822">
        <ele>2079.6</ele>
        <time>2018-08-08T17:40:26.000Z</time>
      </trkpt>
      <trkpt lat="42.69742" lon="0.66822">
        <ele>2079.6</ele>
        <time>2018-08-08T17:40:27.000Z</time>
      </trkpt>
      <trkpt lat="42.69742" lon="0.66822">
        <ele>2079.6</ele>
        <time>2018-08-08T17:40:28.000Z</time>
      </trkpt>
      <trkpt lat="42.69742" lon="0.66822">
        <ele>2079.6</ele>
        <time>2018-08-08T17:40:29.000Z</time>
      </trkpt>
      <trkpt lat="42.69742" lon="0.66822">
        <ele>2079.6</ele>
        <time>2018-08-08T17:40:30.000Z</time>
      </trkpt>
      <trkpt lat="42.69742" lon="0.66822">
        <ele>2079.6</ele>
        <time>2018-08-08T17:40:31.000Z</time>
      </trkpt>
      <trkpt lat="42.69742" lon="0.66822">
        <ele>2079.6</ele>
        <time>2018-08-08T17:40:32.000Z</time>
      </trkpt>
      <trkpt lat="42.69742" lon="0.66822">
        <ele>2079.6</ele>
        <time>2018-08-08T17:40:33.000Z</time>
      </trkpt>
      <trkpt lat="42.69742" lon="0.66822">
        <ele>2079.6</ele>
        <time>2018-08-08T17:40:34.000Z</time>
      </trkpt>
      <trkpt lat="42.69742" lon="0.66822">
        <ele>2079.6</ele>
        <time>2018-08-08T17:40:35.000Z</time>
      </trkpt>
      <trkpt lat="42.69742" lon="0.66822">
        <ele>2079.6</ele>
        <time>2018-08-08T17:40:36.000Z</time>
      </trkpt>
      <trkpt lat="42.69742" lon="0.66822">
        <ele>2079.6</ele>
        <time>2018-08-08T17:40:37.000Z</time>
      </trkpt>
      <trkpt lat="42.69742" lon="0.66822">
        <ele>2079.6</ele>
        <time>2018-08-08T17:40:38.000Z</time>
      </trkpt>
      <trkpt lat="42.69742" lon="0.66822">
        <ele>2079.6</ele>
        <time>2018-08-08T17:40:39.000Z</time>
      </trkpt>
      <trkpt lat="42.69742" lon="0.66822">
        <ele>2079.6</ele>
        <time>2018-08-08T17:40:40.000Z</time>
      </trkpt>
      <trkpt lat="42.69742" lon="0.66822">
        <ele>2079.6</ele>
        <time>2018-08-08T17:40:41.000Z</time>
      </trkpt>
      <trkpt lat="42.69742" lon="0.66822">
        <ele>2079.6</ele>
        <time>2018-08-08T17:40:42.000Z</time>
      </trkpt>
      <trkpt lat="42.69742" lon="0.66822">
        <ele>2079.6</ele>
        <time>2018-08-08T17:40:43.000Z</time>
      </trkpt>
      <trkpt lat="42.69742" lon="0.66822">
        <ele>2079.6</ele>
        <time>2018-08-08T17:40:44.000Z</time>
      </trkpt>
      <trkpt lat="42.69742" lon="0.66822">
        <ele>2079.6</ele>
        <time>2018-08-08T17:40:45.000Z</time>
      </trkpt>
      <trkpt lat="42.69742" lon="0.66822">
        <ele>2079.6</ele>
        <time>2018-08-08T17:40:46.000Z</time>
      </trkpt>
      <trkpt lat="42.69742" lon="0.66822">
        <ele>2079.6</ele>
        <time>2018-08-08T17:40:47.000Z</time>
      </trkpt>
      <trkpt lat="42.69742" lon="0.66822">
        <ele>2079.6</ele>
        <time>2018-08-08T17:40:48.000Z</time>
      </trkpt>
      <trkpt lat="42.69742" lon="0.66822">
        <ele>2079.6</ele>
        <time>2018-08-08T17:40:49.000Z</time>
      </trkpt>
      <trkpt lat="42.69742" lon="0.66822">
        <ele>2079.6</ele>
        <time>2018-08-08T17:40:50.000Z</time>
      </trkpt>
      <trkpt lat="42.69742" lon="0.66822">
        <ele>2079.6</ele>
        <time>2018-08-08T17:40:51.000Z</time>
      </trkpt>
      <trkpt lat="42.69742" lon="0.66822">
        <ele>2079.6</ele>
        <time>2018-08-08T17:40:52.000Z</time>
      </trkpt>
      <trkpt lat="42.69742" lon="0.66822">
        <ele>2079.6</ele>
        <time>2018-08-08T17:40:53.000Z</time>
      </trkpt>
      <trkpt lat="42.69742" lon="0.66822">
        <ele>2079.6</ele>
        <time>2018-08-08T17:40:54.000Z</time>
      </trkpt>
      <trkpt lat="42.69742" lon="0.66822">
        <ele>2079.6</ele>
        <time>2018-08-08T17:40:55.000Z</time>
      </trkpt>
      <trkpt lat="42.69742" lon="0.66822">
        <ele>2079.6</ele>
        <time>2018-08-08T17:40:56.000Z</time>
      </trkpt>
      <trkpt lat="42.69742" lon="0.66822">
        <ele>2079.6</ele>
        <time>2018-08-08T17:40:57.000Z</time>
      </trkpt>
      <trkpt lat="42.69742" lon="0.66822">
        <ele>2079.5</ele>
        <time>2018-08-08T17:40:58.000Z</time>
      </trkpt>
      <trkpt lat="42.69742" lon="0.66822">
        <ele>2079.5</ele>
        <time>2018-08-08T17:40:59.000Z</time>
      </trkpt>
      <trkpt lat="42.69742" lon="0.66822">
        <ele>2079.5</ele>
        <time>2018-08-08T17:41:00.000Z</time>
      </trkpt>
      <trkpt lat="42.69742" lon="0.66822">
        <ele>2079.5</ele>
        <time>2018-08-08T17:41:01.000Z</time>
      </trkpt>
      <trkpt lat="42.69742" lon="0.66822">
        <ele>2079.5</ele>
        <time>2018-08-08T17:41:02.000Z</time>
      </trkpt>
      <trkpt lat="42.69742" lon="0.66822">
        <ele>2079.5</ele>
        <time>2018-08-08T17:41:03.000Z</time>
      </trkpt>
      <trkpt lat="42.69742" lon="0.66822">
        <ele>2079.5</ele>
        <time>2018-08-08T17:41:04.000Z</time>
      </trkpt>
      <trkpt lat="42.69742" lon="0.66822">
        <ele>2079.5</ele>
        <time>2018-08-08T17:41:05.000Z</time>
      </trkpt>
      <trkpt lat="42.69742" lon="0.66822">
        <ele>2079.5</ele>
        <time>2018-08-08T17:41:06.000Z</time>
      </trkpt>
      <trkpt lat="42.69742" lon="0.66822">
        <ele>2079.5</ele>
        <time>2018-08-08T17:41:07.000Z</time>
      </trkpt>
      <trkpt lat="42.69742" lon="0.66822">
        <ele>2079.5</ele>
        <time>2018-08-08T17:41:08.000Z</time>
      </trkpt>
      <trkpt lat="42.69742" lon="0.66822">
        <ele>2079.5</ele>
        <time>2018-08-08T17:41:09.000Z</time>
      </trkpt>
      <trkpt lat="42.69742" lon="0.66822">
        <ele>2079.5</ele>
        <time>2018-08-08T17:41:10.000Z</time>
      </trkpt>
      <trkpt lat="42.69742" lon="0.66822">
        <ele>2079.5</ele>
        <time>2018-08-08T17:41:11.000Z</time>
      </trkpt>
      <trkpt lat="42.69742" lon="0.66822">
        <ele>2079.5</ele>
        <time>2018-08-08T17:41:12.000Z</time>
      </trkpt>
      <trkpt lat="42.69742" lon="0.66822">
        <ele>2079.5</ele>
        <time>2018-08-08T17:41:13.000Z</time>
      </trkpt>
      <trkpt lat="42.69742" lon="0.66822">
        <ele>2079.5</ele>
        <time>2018-08-08T17:41:14.000Z</time>
      </trkpt>
      <trkpt lat="42.69742" lon="0.66822">
        <ele>2079.5</ele>
        <time>2018-08-08T17:41:15.000Z</time>
      </trkpt>
      <trkpt lat="42.69742" lon="0.66822">
        <ele>2079.5</ele>
        <time>2018-08-08T17:41:16.000Z</time>
      </trkpt>
      <trkpt lat="42.69742" lon="0.66822">
        <ele>2079.5</ele>
        <time>2018-08-08T17:41:17.000Z</time>
      </trkpt>
      <trkpt lat="42.69742" lon="0.66822">
        <ele>2079.5</ele>
        <time>2018-08-08T17:41:18.000Z</time>
      </trkpt>
      <trkpt lat="42.69742" lon="0.66822">
        <ele>2079.5</ele>
        <time>2018-08-08T17:41:19.000Z</time>
      </trkpt>
      <trkpt lat="42.69742" lon="0.66822">
        <ele>2079.5</ele>
        <time>2018-08-08T17:41:20.000Z</time>
      </trkpt>
      <trkpt lat="42.69742" lon="0.66822">
        <ele>2079.5</ele>
        <time>2018-08-08T17:41:21.000Z</time>
      </trkpt>
      <trkpt lat="42.69742" lon="0.66822">
        <ele>2079.5</ele>
        <time>2018-08-08T17:41:22.000Z</time>
      </trkpt>
      <trkpt lat="42.69742" lon="0.66822">
        <ele>2079.5</ele>
        <time>2018-08-08T17:41:23.000Z</time>
      </trkpt>
      <trkpt lat="42.69742" lon="0.66822">
        <ele>2079.5</ele>
        <time>2018-08-08T17:41:24.000Z</time>
      </trkpt>
      <trkpt lat="42.69742" lon="0.66822">
        <ele>2079.5</ele>
        <time>2018-08-08T17:41:25.000Z</time>
      </trkpt>
      <trkpt lat="42.69742" lon="0.66822">
        <ele>2079.5</ele>
        <time>2018-08-08T17:41:26.000Z</time>
      </trkpt>
      <trkpt lat="42.69742" lon="0.66822">
        <ele>2079.5</ele>
        <time>2018-08-08T17:41:27.000Z</time>
      </trkpt>
      <trkpt lat="42.69742" lon="0.66822">
        <ele>2079.5</ele>
        <time>2018-08-08T17:41:28.000Z</time>
      </trkpt>
      <trkpt lat="42.69742" lon="0.66822">
        <ele>2079.5</ele>
        <time>2018-08-08T17:41:29.000Z</time>
      </trkpt>
      <trkpt lat="42.69742" lon="0.66822">
        <ele>2079.5</ele>
        <time>2018-08-08T17:41:30.000Z</time>
      </trkpt>
      <trkpt lat="42.69742" lon="0.66822">
        <ele>2079.5</ele>
        <time>2018-08-08T17:41:31.000Z</time>
      </trkpt>
      <trkpt lat="42.69742" lon="0.66822">
        <ele>2079.5</ele>
        <time>2018-08-08T17:41:32.000Z</time>
      </trkpt>
      <trkpt lat="42.69742" lon="0.66822">
        <ele>2079.5</ele>
        <time>2018-08-08T17:41:33.000Z</time>
      </trkpt>
      <trkpt lat="42.69742" lon="0.66822">
        <ele>2079.5</ele>
        <time>2018-08-08T17:41:34.000Z</time>
      </trkpt>
      <trkpt lat="42.69742" lon="0.66822">
        <ele>2079.5</ele>
        <time>2018-08-08T17:41:35.000Z</time>
      </trkpt>
      <trkpt lat="42.69742" lon="0.66822">
        <ele>2079.5</ele>
        <time>2018-08-08T17:41:36.000Z</time>
      </trkpt>
      <trkpt lat="42.69742" lon="0.66822">
        <ele>2079.5</ele>
        <time>2018-08-08T17:41:37.000Z</time>
      </trkpt>
      <trkpt lat="42.69742" lon="0.66822">
        <ele>2079.5</ele>
        <time>2018-08-08T17:41:38.000Z</time>
      </trkpt>
      <trkpt lat="42.69742" lon="0.66822">
        <ele>2079.5</ele>
        <time>2018-08-08T17:41:39.000Z</time>
      </trkpt>
      <trkpt lat="42.69742" lon="0.66822">
        <ele>2079.5</ele>
        <time>2018-08-08T17:41:40.000Z</time>
      </trkpt>
      <trkpt lat="42.69742" lon="0.66822">
        <ele>2079.5</ele>
        <time>2018-08-08T17:41:41.000Z</time>
      </trkpt>
      <trkpt lat="42.69742" lon="0.66822">
        <ele>2079.5</ele>
        <time>2018-08-08T17:41:42.000Z</time>
      </trkpt>
      <trkpt lat="42.69742" lon="0.66822">
        <ele>2079.5</ele>
        <time>2018-08-08T17:41:43.000Z</time>
      </trkpt>
      <trkpt lat="42.69742" lon="0.66822">
        <ele>2079.5</ele>
        <time>2018-08-08T17:41:44.000Z</time>
      </trkpt>
      <trkpt lat="42.69742" lon="0.66822">
        <ele>2079.5</ele>
        <time>2018-08-08T17:41:45.000Z</time>
      </trkpt>
      <trkpt lat="42.69742" lon="0.66822">
        <ele>2079.5</ele>
        <time>2018-08-08T17:41:46.000Z</time>
      </trkpt>
      <trkpt lat="42.69742" lon="0.66822">
        <ele>2079.5</ele>
        <time>2018-08-08T17:41:47.000Z</time>
      </trkpt>
      <trkpt lat="42.69742" lon="0.66822">
        <ele>2079.5</ele>
        <time>2018-08-08T17:41:48.000Z</time>
      </trkpt>
      <trkpt lat="42.69742" lon="0.66822">
        <ele>2079.5</ele>
        <time>2018-08-08T17:41:49.000Z</time>
      </trkpt>
      <trkpt lat="42.69742" lon="0.66822">
        <ele>2079.5</ele>
        <time>2018-08-08T17:41:50.000Z</time>
      </trkpt>
      <trkpt lat="42.69742" lon="0.66822">
        <ele>2079.5</ele>
        <time>2018-08-08T17:41:51.000Z</time>
      </trkpt>
      <trkpt lat="42.69742" lon="0.66822">
        <ele>2079.5</ele>
        <time>2018-08-08T17:41:52.000Z</time>
      </trkpt>
      <trkpt lat="42.69742" lon="0.66822">
        <ele>2079.5</ele>
        <time>2018-08-08T17:41:53.000Z</time>
      </trkpt>
      <trkpt lat="42.69742" lon="0.66822">
        <ele>2079.5</ele>
        <time>2018-08-08T17:41:54.000Z</time>
      </trkpt>
      <trkpt lat="42.69742" lon="0.66822">
        <ele>2079.5</ele>
        <time>2018-08-08T17:41:55.000Z</time>
      </trkpt>
      <trkpt lat="42.69742" lon="0.66822">
        <ele>2079.5</ele>
        <time>2018-08-08T17:41:56.000Z</time>
      </trkpt>
      <trkpt lat="42.69742" lon="0.66822">
        <ele>2079.5</ele>
        <time>2018-08-08T17:41:57.000Z</time>
      </trkpt>
      <trkpt lat="42.69742" lon="0.66822">
        <ele>2079.5</ele>
        <time>2018-08-08T17:41:58.000Z</time>
      </trkpt>
      <trkpt lat="42.69742" lon="0.66822">
        <ele>2079.5</ele>
        <time>2018-08-08T17:41:59.000Z</time>
      </trkpt>
      <trkpt lat="42.69742" lon="0.66822">
        <ele>2079.5</ele>
        <time>2018-08-08T17:42:00.000Z</time>
      </trkpt>
      <trkpt lat="42.69742" lon="0.66822">
        <ele>2079.5</ele>
        <time>2018-08-08T17:42:01.000Z</time>
      </trkpt>
      <trkpt lat="42.69742" lon="0.66822">
        <ele>2079.5</ele>
        <time>2018-08-08T17:42:02.000Z</time>
      </trkpt>
      <trkpt lat="42.69742" lon="0.66822">
        <ele>2079.5</ele>
        <time>2018-08-08T17:42:03.000Z</time>
      </trkpt>
      <trkpt lat="42.69742" lon="0.66822">
        <ele>2079.6</ele>
        <time>2018-08-08T17:42:04.000Z</time>
      </trkpt>
      <trkpt lat="42.69742" lon="0.66822">
        <ele>2079.6</ele>
        <time>2018-08-08T17:42:05.000Z</time>
      </trkpt>
      <trkpt lat="42.69742" lon="0.66822">
        <ele>2079.6</ele>
        <time>2018-08-08T17:42:06.000Z</time>
      </trkpt>
      <trkpt lat="42.69742" lon="0.66822">
        <ele>2079.6</ele>
        <time>2018-08-08T17:42:07.000Z</time>
      </trkpt>
      <trkpt lat="42.69742" lon="0.66822">
        <ele>2079.6</ele>
        <time>2018-08-08T17:42:08.000Z</time>
      </trkpt>
      <trkpt lat="42.69742" lon="0.66822">
        <ele>2079.6</ele>
        <time>2018-08-08T17:42:09.000Z</time>
      </trkpt>
      <trkpt lat="42.69742" lon="0.66822">
        <ele>2079.6</ele>
        <time>2018-08-08T17:42:10.000Z</time>
      </trkpt>
      <trkpt lat="42.69742" lon="0.66822">
        <ele>2079.6</ele>
        <time>2018-08-08T17:42:11.000Z</time>
      </trkpt>
      <trkpt lat="42.69742" lon="0.66822">
        <ele>2079.6</ele>
        <time>2018-08-08T17:42:12.000Z</time>
      </trkpt>
      <trkpt lat="42.69742" lon="0.66822">
        <ele>2079.6</ele>
        <time>2018-08-08T17:42:13.000Z</time>
      </trkpt>
      <trkpt lat="42.69742" lon="0.66822">
        <ele>2079.6</ele>
        <time>2018-08-08T17:42:14.000Z</time>
      </trkpt>
      <trkpt lat="42.69742" lon="0.66822">
        <ele>2079.6</ele>
        <time>2018-08-08T17:42:15.000Z</time>
      </trkpt>
      <trkpt lat="42.69742" lon="0.66822">
        <ele>2079.6</ele>
        <time>2018-08-08T17:42:16.000Z</time>
      </trkpt>
      <trkpt lat="42.69742" lon="0.66822">
        <ele>2079.6</ele>
        <time>2018-08-08T17:42:17.000Z</time>
      </trkpt>
      <trkpt lat="42.69742" lon="0.66822">
        <ele>2079.6</ele>
        <time>2018-08-08T17:42:18.000Z</time>
      </trkpt>
      <trkpt lat="42.69742" lon="0.66822">
        <ele>2079.6</ele>
        <time>2018-08-08T17:42:19.000Z</time>
      </trkpt>
      <trkpt lat="42.69742" lon="0.66822">
        <ele>2079.6</ele>
        <time>2018-08-08T17:42:20.000Z</time>
      </trkpt>
      <trkpt lat="42.69742" lon="0.66822">
        <ele>2079.6</ele>
        <time>2018-08-08T17:42:21.000Z</time>
      </trkpt>
      <trkpt lat="42.69742" lon="0.66822">
        <ele>2079.6</ele>
        <time>2018-08-08T17:42:22.000Z</time>
      </trkpt>
      <trkpt lat="42.69742" lon="0.66822">
        <ele>2079.6</ele>
        <time>2018-08-08T17:42:23.000Z</time>
      </trkpt>
      <trkpt lat="42.69742" lon="0.66822">
        <ele>2079.6</ele>
        <time>2018-08-08T17:42:24.000Z</time>
      </trkpt>
      <trkpt lat="42.69742" lon="0.66822">
        <ele>2079.6</ele>
        <time>2018-08-08T17:42:25.000Z</time>
      </trkpt>
      <trkpt lat="42.69742" lon="0.66822">
        <ele>2079.6</ele>
        <time>2018-08-08T17:42:26.000Z</time>
      </trkpt>
      <trkpt lat="42.69742" lon="0.66822">
        <ele>2079.6</ele>
        <time>2018-08-08T17:42:27.000Z</time>
      </trkpt>
      <trkpt lat="42.69742" lon="0.66822">
        <ele>2079.6</ele>
        <time>2018-08-08T17:42:28.000Z</time>
      </trkpt>
      <trkpt lat="42.69742" lon="0.66822">
        <ele>2079.6</ele>
        <time>2018-08-08T17:42:29.000Z</time>
      </trkpt>
      <trkpt lat="42.69742" lon="0.66822">
        <ele>2079.6</ele>
        <time>2018-08-08T17:42:30.000Z</time>
      </trkpt>
      <trkpt lat="42.69742" lon="0.66822">
        <ele>2079.6</ele>
        <time>2018-08-08T17:42:31.000Z</time>
      </trkpt>
      <trkpt lat="42.69742" lon="0.66822">
        <ele>2079.6</ele>
        <time>2018-08-08T17:42:32.000Z</time>
      </trkpt>
      <trkpt lat="42.69742" lon="0.66822">
        <ele>2079.6</ele>
        <time>2018-08-08T17:42:33.000Z</time>
      </trkpt>
      <trkpt lat="42.69742" lon="0.66822">
        <ele>2079.6</ele>
        <time>2018-08-08T17:42:34.000Z</time>
      </trkpt>
      <trkpt lat="42.69742" lon="0.66822">
        <ele>2079.6</ele>
        <time>2018-08-08T17:42:35.000Z</time>
      </trkpt>
      <trkpt lat="42.69742" lon="0.66822">
        <ele>2079.6</ele>
        <time>2018-08-08T17:42:36.000Z</time>
      </trkpt>
      <trkpt lat="42.69742" lon="0.66822">
        <ele>2079.6</ele>
        <time>2018-08-08T17:42:37.000Z</time>
      </trkpt>
      <trkpt lat="42.69742" lon="0.66822">
        <ele>2079.6</ele>
        <time>2018-08-08T17:42:38.000Z</time>
      </trkpt>
      <trkpt lat="42.69742" lon="0.66822">
        <ele>2079.6</ele>
        <time>2018-08-08T17:42:39.000Z</time>
      </trkpt>
      <trkpt lat="42.69742" lon="0.66822">
        <ele>2079.6</ele>
        <time>2018-08-08T17:42:40.000Z</time>
      </trkpt>
      <trkpt lat="42.69742" lon="0.66822">
        <ele>2079.6</ele>
        <time>2018-08-08T17:42:41.000Z</time>
      </trkpt>
      <trkpt lat="42.69742" lon="0.66822">
        <ele>2079.6</ele>
        <time>2018-08-08T17:42:42.000Z</time>
      </trkpt>
      <trkpt lat="42.69742" lon="0.66822">
        <ele>2079.6</ele>
        <time>2018-08-08T17:42:43.000Z</time>
      </trkpt>
      <trkpt lat="42.69742" lon="0.66822">
        <ele>2079.6</ele>
        <time>2018-08-08T17:42:44.000Z</time>
      </trkpt>
      <trkpt lat="42.69742" lon="0.66822">
        <ele>2079.6</ele>
        <time>2018-08-08T17:42:45.000Z</time>
      </trkpt>
      <trkpt lat="42.69742" lon="0.66822">
        <ele>2079.6</ele>
        <time>2018-08-08T17:42:46.000Z</time>
      </trkpt>
      <trkpt lat="42.69742" lon="0.66822">
        <ele>2079.6</ele>
        <time>2018-08-08T17:42:47.000Z</time>
      </trkpt>
      <trkpt lat="42.69742" lon="0.66822">
        <ele>2079.6</ele>
        <time>2018-08-08T17:42:48.000Z</time>
      </trkpt>
      <trkpt lat="42.69742" lon="0.66822">
        <ele>2079.6</ele>
        <time>2018-08-08T17:42:49.000Z</time>
      </trkpt>
      <trkpt lat="42.69742" lon="0.66822">
        <ele>2079.6</ele>
        <time>2018-08-08T17:42:50.000Z</time>
      </trkpt>
      <trkpt lat="42.69742" lon="0.66822">
        <ele>2079.6</ele>
        <time>2018-08-08T17:42:51.000Z</time>
      </trkpt>
      <trkpt lat="42.69742" lon="0.66822">
        <ele>2079.6</ele>
        <time>2018-08-08T17:42:52.000Z</time>
      </trkpt>
      <trkpt lat="42.69742" lon="0.66822">
        <ele>2079.6</ele>
        <time>2018-08-08T17:42:53.000Z</time>
      </trkpt>
      <trkpt lat="42.69742" lon="0.66822">
        <ele>2079.6</ele>
        <time>2018-08-08T17:42:54.000Z</time>
      </trkpt>
      <trkpt lat="42.69742" lon="0.66822">
        <ele>2079.6</ele>
        <time>2018-08-08T17:42:55.000Z</time>
      </trkpt>
      <trkpt lat="42.69742" lon="0.66822">
        <ele>2079.6</ele>
        <time>2018-08-08T17:42:56.000Z</time>
      </trkpt>
      <trkpt lat="42.69742" lon="0.66822">
        <ele>2079.6</ele>
        <time>2018-08-08T17:42:57.000Z</time>
      </trkpt>
      <trkpt lat="42.69742" lon="0.66822">
        <ele>2079.6</ele>
        <time>2018-08-08T17:42:58.000Z</time>
      </trkpt>
      <trkpt lat="42.69742" lon="0.66822">
        <ele>2079.6</ele>
        <time>2018-08-08T17:42:59.000Z</time>
      </trkpt>
      <trkpt lat="42.69742" lon="0.66822">
        <ele>2079.6</ele>
        <time>2018-08-08T17:43:00.000Z</time>
      </trkpt>
      <trkpt lat="42.69742" lon="0.66822">
        <ele>2079.6</ele>
        <time>2018-08-08T17:43:01.000Z</time>
      </trkpt>
      <trkpt lat="42.69742" lon="0.66822">
        <ele>2079.6</ele>
        <time>2018-08-08T17:43:02.000Z</time>
      </trkpt>
      <trkpt lat="42.69742" lon="0.66822">
        <ele>2079.6</ele>
        <time>2018-08-08T17:43:03.000Z</time>
      </trkpt>
      <trkpt lat="42.69742" lon="0.66822">
        <ele>2079.6</ele>
        <time>2018-08-08T17:43:04.000Z</time>
      </trkpt>
      <trkpt lat="42.69742" lon="0.66822">
        <ele>2079.6</ele>
        <time>2018-08-08T17:43:05.000Z</time>
      </trkpt>
      <trkpt lat="42.69742" lon="0.66822">
        <ele>2079.6</ele>
        <time>2018-08-08T17:43:06.000Z</time>
      </trkpt>
      <trkpt lat="42.69742" lon="0.66822">
        <ele>2079.6</ele>
        <time>2018-08-08T17:43:07.000Z</time>
      </trkpt>
      <trkpt lat="42.69742" lon="0.66822">
        <ele>2079.6</ele>
        <time>2018-08-08T17:43:08.000Z</time>
      </trkpt>
      <trkpt lat="42.69742" lon="0.66822">
        <ele>2079.6</ele>
        <time>2018-08-08T17:43:09.000Z</time>
      </trkpt>
      <trkpt lat="42.69742" lon="0.66822">
        <ele>2079.6</ele>
        <time>2018-08-08T17:43:10.000Z</time>
      </trkpt>
      <trkpt lat="42.69742" lon="0.66822">
        <ele>2079.6</ele>
        <time>2018-08-08T17:43:11.000Z</time>
      </trkpt>
      <trkpt lat="42.69742" lon="0.66822">
        <ele>2079.6</ele>
        <time>2018-08-08T17:43:12.000Z</time>
      </trkpt>
      <trkpt lat="42.69742" lon="0.66822">
        <ele>2079.6</ele>
        <time>2018-08-08T17:43:13.000Z</time>
      </trkpt>
      <trkpt lat="42.69742" lon="0.66822">
        <ele>2079.6</ele>
        <time>2018-08-08T17:43:14.000Z</time>
      </trkpt>
      <trkpt lat="42.69742" lon="0.66822">
        <ele>2079.6</ele>
        <time>2018-08-08T17:43:15.000Z</time>
      </trkpt>
      <trkpt lat="42.69742" lon="0.66822">
        <ele>2079.6</ele>
        <time>2018-08-08T17:43:16.000Z</time>
      </trkpt>
      <trkpt lat="42.69742" lon="0.66822">
        <ele>2079.6</ele>
        <time>2018-08-08T17:43:17.000Z</time>
      </trkpt>
      <trkpt lat="42.69742" lon="0.66822">
        <ele>2079.6</ele>
        <time>2018-08-08T17:43:18.000Z</time>
      </trkpt>
      <trkpt lat="42.69742" lon="0.66822">
        <ele>2079.6</ele>
        <time>2018-08-08T17:43:19.000Z</time>
      </trkpt>
      <trkpt lat="42.69742" lon="0.66822">
        <ele>2079.6</ele>
        <time>2018-08-08T17:43:20.000Z</time>
      </trkpt>
      <trkpt lat="42.69742" lon="0.66822">
        <ele>2079.6</ele>
        <time>2018-08-08T17:43:21.000Z</time>
      </trkpt>
      <trkpt lat="42.69742" lon="0.66822">
        <ele>2079.6</ele>
        <time>2018-08-08T17:43:22.000Z</time>
      </trkpt>
      <trkpt lat="42.69742" lon="0.66822">
        <ele>2079.6</ele>
        <time>2018-08-08T17:43:23.000Z</time>
      </trkpt>
      <trkpt lat="42.69742" lon="0.66822">
        <ele>2079.6</ele>
        <time>2018-08-08T17:43:24.000Z</time>
      </trkpt>
      <trkpt lat="42.69742" lon="0.66822">
        <ele>2079.6</ele>
        <time>2018-08-08T17:43:25.000Z</time>
      </trkpt>
      <trkpt lat="42.69742" lon="0.66822">
        <ele>2079.6</ele>
        <time>2018-08-08T17:43:26.000Z</time>
      </trkpt>
      <trkpt lat="42.69742" lon="0.66822">
        <ele>2079.6</ele>
        <time>2018-08-08T17:43:27.000Z</time>
      </trkpt>
      <trkpt lat="42.69742" lon="0.66822">
        <ele>2079.6</ele>
        <time>2018-08-08T17:43:28.000Z</time>
      </trkpt>
      <trkpt lat="42.69742" lon="0.66822">
        <ele>2079.6</ele>
        <time>2018-08-08T17:43:29.000Z</time>
      </trkpt>
      <trkpt lat="42.69742" lon="0.66822">
        <ele>2079.6</ele>
        <time>2018-08-08T17:43:30.000Z</time>
      </trkpt>
      <trkpt lat="42.69742" lon="0.66822">
        <ele>2079.6</ele>
        <time>2018-08-08T17:43:31.000Z</time>
      </trkpt>
      <trkpt lat="42.69742" lon="0.66822">
        <ele>2079.6</ele>
        <time>2018-08-08T17:43:32.000Z</time>
      </trkpt>
      <trkpt lat="42.69742" lon="0.66822">
        <ele>2079.6</ele>
        <time>2018-08-08T17:43:33.000Z</time>
      </trkpt>
      <trkpt lat="42.69742" lon="0.66822">
        <ele>2079.6</ele>
        <time>2018-08-08T17:43:34.000Z</time>
      </trkpt>
      <trkpt lat="42.69742" lon="0.66822">
        <ele>2079.6</ele>
        <time>2018-08-08T17:43:35.000Z</time>
      </trkpt>
      <trkpt lat="42.69742" lon="0.66822">
        <ele>2079.6</ele>
        <time>2018-08-08T17:43:36.000Z</time>
      </trkpt>
      <trkpt lat="42.69742" lon="0.66822">
        <ele>2079.6</ele>
        <time>2018-08-08T17:43:37.000Z</time>
      </trkpt>
      <trkpt lat="42.69742" lon="0.66822">
        <ele>2079.6</ele>
        <time>2018-08-08T17:43:38.000Z</time>
      </trkpt>
      <trkpt lat="42.69742" lon="0.66822">
        <ele>2079.6</ele>
        <time>2018-08-08T17:43:39.000Z</time>
      </trkpt>
      <trkpt lat="42.69742" lon="0.66822">
        <ele>2079.6</ele>
        <time>2018-08-08T17:43:40.000Z</time>
      </trkpt>
      <trkpt lat="42.69742" lon="0.66822">
        <ele>2079.6</ele>
        <time>2018-08-08T17:43:41.000Z</time>
      </trkpt>
      <trkpt lat="42.69742" lon="0.66822">
        <ele>2079.5</ele>
        <time>2018-08-08T17:43:42.000Z</time>
      </trkpt>
      <trkpt lat="42.69742" lon="0.66822">
        <ele>2079.5</ele>
        <time>2018-08-08T17:43:43.000Z</time>
      </trkpt>
      <trkpt lat="42.69742" lon="0.66822">
        <ele>2079.5</ele>
        <time>2018-08-08T17:43:44.000Z</time>
      </trkpt>
      <trkpt lat="42.69742" lon="0.66822">
        <ele>2079.5</ele>
        <time>2018-08-08T17:43:45.000Z</time>
      </trkpt>
      <trkpt lat="42.69742" lon="0.66822">
        <ele>2079.5</ele>
        <time>2018-08-08T17:43:46.000Z</time>
      </trkpt>
      <trkpt lat="42.69742" lon="0.66822">
        <ele>2079.5</ele>
        <time>2018-08-08T17:43:47.000Z</time>
      </trkpt>
      <trkpt lat="42.69742" lon="0.66822">
        <ele>2079.5</ele>
        <time>2018-08-08T17:43:48.000Z</time>
      </trkpt>
      <trkpt lat="42.69742" lon="0.66822">
        <ele>2079.5</ele>
        <time>2018-08-08T17:43:49.000Z</time>
      </trkpt>
      <trkpt lat="42.69742" lon="0.66822">
        <ele>2079.5</ele>
        <time>2018-08-08T17:43:50.000Z</time>
      </trkpt>
      <trkpt lat="42.69742" lon="0.66822">
        <ele>2079.5</ele>
        <time>2018-08-08T17:43:51.000Z</time>
      </trkpt>
      <trkpt lat="42.69742" lon="0.66822">
        <ele>2079.5</ele>
        <time>2018-08-08T17:43:52.000Z</time>
      </trkpt>
      <trkpt lat="42.69742" lon="0.66822">
        <ele>2079.5</ele>
        <time>2018-08-08T17:43:53.000Z</time>
      </trkpt>
      <trkpt lat="42.69742" lon="0.66822">
        <ele>2079.5</ele>
        <time>2018-08-08T17:43:54.000Z</time>
      </trkpt>
      <trkpt lat="42.69742" lon="0.66822">
        <ele>2079.5</ele>
        <time>2018-08-08T17:43:55.000Z</time>
      </trkpt>
      <trkpt lat="42.69742" lon="0.66822">
        <ele>2079.5</ele>
        <time>2018-08-08T17:43:56.000Z</time>
      </trkpt>
      <trkpt lat="42.69742" lon="0.66822">
        <ele>2079.5</ele>
        <time>2018-08-08T17:43:57.000Z</time>
      </trkpt>
      <trkpt lat="42.69742" lon="0.66822">
        <ele>2079.5</ele>
        <time>2018-08-08T17:43:58.000Z</time>
      </trkpt>
      <trkpt lat="42.69742" lon="0.66822">
        <ele>2079.5</ele>
        <time>2018-08-08T17:43:59.000Z</time>
      </trkpt>
      <trkpt lat="42.69742" lon="0.66822">
        <ele>2079.5</ele>
        <time>2018-08-08T17:44:00.000Z</time>
      </trkpt>
      <trkpt lat="42.69742" lon="0.66822">
        <ele>2079.5</ele>
        <time>2018-08-08T17:44:01.000Z</time>
      </trkpt>
      <trkpt lat="42.69742" lon="0.66822">
        <ele>2079.5</ele>
        <time>2018-08-08T17:44:02.000Z</time>
      </trkpt>
      <trkpt lat="42.69742" lon="0.66822">
        <ele>2079.5</ele>
        <time>2018-08-08T17:44:03.000Z</time>
      </trkpt>
      <trkpt lat="42.69743" lon="0.66823">
        <ele>2079.4</ele>
        <time>2018-08-08T17:44:04.000Z</time>
      </trkpt>
      <trkpt lat="42.69743" lon="0.66824">
        <ele>2079.3</ele>
        <time>2018-08-08T17:44:05.000Z</time>
      </trkpt>
      <trkpt lat="42.69744" lon="0.66825">
        <ele>2079.2</ele>
        <time>2018-08-08T17:44:06.000Z</time>
      </trkpt>
      <trkpt lat="42.69744" lon="0.66826">
        <ele>2079.2</ele>
        <time>2018-08-08T17:44:07.000Z</time>
      </trkpt>
      <trkpt lat="42.69744" lon="0.66826">
        <ele>2079.1</ele>
        <time>2018-08-08T17:44:08.000Z</time>
      </trkpt>
      <trkpt lat="42.69745" lon="0.66826">
        <ele>2079.1</ele>
        <time>2018-08-08T17:44:09.000Z</time>
      </trkpt>
      <trkpt lat="42.69745" lon="0.66826">
        <ele>2079.1</ele>
        <time>2018-08-08T17:44:10.000Z</time>
      </trkpt>
      <trkpt lat="42.69745" lon="0.66826">
        <ele>2079.1</ele>
        <time>2018-08-08T17:44:11.000Z</time>
      </trkpt>
      <trkpt lat="42.69745" lon="0.66826">
        <ele>2079.1</ele>
        <time>2018-08-08T17:44:12.000Z</time>
      </trkpt>
      <trkpt lat="42.69745" lon="0.66826">
        <ele>2079.1</ele>
        <time>2018-08-08T17:44:13.000Z</time>
      </trkpt>
      <trkpt lat="42.69745" lon="0.66826">
        <ele>2079.1</ele>
        <time>2018-08-08T17:44:14.000Z</time>
      </trkpt>
      <trkpt lat="42.69745" lon="0.66826">
        <ele>2079.1</ele>
        <time>2018-08-08T17:44:15.000Z</time>
      </trkpt>
      <trkpt lat="42.69745" lon="0.66826">
        <ele>2079.1</ele>
        <time>2018-08-08T17:44:16.000Z</time>
      </trkpt>
      <trkpt lat="42.69745" lon="0.66826">
        <ele>2079.1</ele>
        <time>2018-08-08T17:44:17.000Z</time>
      </trkpt>
      <trkpt lat="42.69745" lon="0.66826">
        <ele>2079.1</ele>
        <time>2018-08-08T17:44:18.000Z</time>
      </trkpt>
      <trkpt lat="42.69745" lon="0.66826">
        <ele>2079.1</ele>
        <time>2018-08-08T17:44:19.000Z</time>
      </trkpt>
      <trkpt lat="42.69745" lon="0.66826">
        <ele>2079.1</ele>
        <time>2018-08-08T17:44:20.000Z</time>
      </trkpt>
      <trkpt lat="42.69745" lon="0.66826">
        <ele>2079.1</ele>
        <time>2018-08-08T17:44:21.000Z</time>
      </trkpt>
      <trkpt lat="42.69745" lon="0.66826">
        <ele>2079.1</ele>
        <time>2018-08-08T17:44:22.000Z</time>
      </trkpt>
      <trkpt lat="42.69745" lon="0.66826">
        <ele>2079.1</ele>
        <time>2018-08-08T17:44:23.000Z</time>
      </trkpt>
      <trkpt lat="42.69745" lon="0.66826">
        <ele>2079.1</ele>
        <time>2018-08-08T17:44:24.000Z</time>
      </trkpt>
      <trkpt lat="42.69745" lon="0.66826">
        <ele>2079.1</ele>
        <time>2018-08-08T17:44:25.000Z</time>
      </trkpt>
      <trkpt lat="42.69745" lon="0.66826">
        <ele>2079.1</ele>
        <time>2018-08-08T17:44:26.000Z</time>
      </trkpt>
      <trkpt lat="42.69745" lon="0.66826">
        <ele>2079.1</ele>
        <time>2018-08-08T17:44:27.000Z</time>
      </trkpt>
      <trkpt lat="42.69745" lon="0.66826">
        <ele>2079.1</ele>
        <time>2018-08-08T17:44:28.000Z</time>
      </trkpt>
      <trkpt lat="42.69745" lon="0.66826">
        <ele>2079.1</ele>
        <time>2018-08-08T17:44:29.000Z</time>
      </trkpt>
      <trkpt lat="42.69745" lon="0.66826">
        <ele>2079.1</ele>
        <time>2018-08-08T17:44:30.000Z</time>
      </trkpt>
      <trkpt lat="42.69745" lon="0.66826">
        <ele>2079.1</ele>
        <time>2018-08-08T17:44:31.000Z</time>
      </trkpt>
      <trkpt lat="42.69745" lon="0.66826">
        <ele>2079.1</ele>
        <time>2018-08-08T17:44:32.000Z</time>
      </trkpt>
      <trkpt lat="42.69745" lon="0.66826">
        <ele>2079.1</ele>
        <time>2018-08-08T17:44:33.000Z</time>
      </trkpt>
      <trkpt lat="42.69745" lon="0.66826">
        <ele>2079.1</ele>
        <time>2018-08-08T17:44:34.000Z</time>
      </trkpt>
      <trkpt lat="42.69745" lon="0.66826">
        <ele>2079.1</ele>
        <time>2018-08-08T17:44:35.000Z</time>
      </trkpt>
      <trkpt lat="42.69745" lon="0.66826">
        <ele>2079.1</ele>
        <time>2018-08-08T17:44:36.000Z</time>
      </trkpt>
      <trkpt lat="42.69745" lon="0.66826">
        <ele>2079.1</ele>
        <time>2018-08-08T17:44:37.000Z</time>
      </trkpt>
      <trkpt lat="42.69745" lon="0.66826">
        <ele>2079.1</ele>
        <time>2018-08-08T17:44:38.000Z</time>
      </trkpt>
      <trkpt lat="42.69745" lon="0.66826">
        <ele>2079.1</ele>
        <time>2018-08-08T17:44:39.000Z</time>
      </trkpt>
      <trkpt lat="42.69745" lon="0.66826">
        <ele>2079.1</ele>
        <time>2018-08-08T17:44:40.000Z</time>
      </trkpt>
      <trkpt lat="42.69745" lon="0.66826">
        <ele>2079.1</ele>
        <time>2018-08-08T17:44:41.000Z</time>
      </trkpt>
      <trkpt lat="42.69745" lon="0.66826">
        <ele>2079.1</ele>
        <time>2018-08-08T17:44:42.000Z</time>
      </trkpt>
      <trkpt lat="42.69745" lon="0.66826">
        <ele>2079.1</ele>
        <time>2018-08-08T17:44:43.000Z</time>
      </trkpt>
      <trkpt lat="42.69745" lon="0.66826">
        <ele>2079.1</ele>
        <time>2018-08-08T17:44:44.000Z</time>
      </trkpt>
      <trkpt lat="42.69745" lon="0.66826">
        <ele>2079.1</ele>
        <time>2018-08-08T17:44:45.000Z</time>
      </trkpt>
      <trkpt lat="42.69745" lon="0.66826">
        <ele>2079.1</ele>
        <time>2018-08-08T17:44:46.000Z</time>
      </trkpt>
      <trkpt lat="42.69745" lon="0.66826">
        <ele>2079.1</ele>
        <time>2018-08-08T17:44:47.000Z</time>
      </trkpt>
      <trkpt lat="42.69745" lon="0.66826">
        <ele>2079.1</ele>
        <time>2018-08-08T17:44:48.000Z</time>
      </trkpt>
      <trkpt lat="42.69745" lon="0.66826">
        <ele>2079.1</ele>
        <time>2018-08-08T17:44:49.000Z</time>
      </trkpt>
      <trkpt lat="42.69745" lon="0.66826">
        <ele>2079.1</ele>
        <time>2018-08-08T17:44:50.000Z</time>
      </trkpt>
      <trkpt lat="42.69745" lon="0.66826">
        <ele>2079.1</ele>
        <time>2018-08-08T17:44:51.000Z</time>
      </trkpt>
      <trkpt lat="42.69745" lon="0.66826">
        <ele>2079.1</ele>
        <time>2018-08-08T17:44:52.000Z</time>
      </trkpt>
      <trkpt lat="42.69745" lon="0.66826">
        <ele>2079.1</ele>
        <time>2018-08-08T17:44:53.000Z</time>
      </trkpt>
      <trkpt lat="42.69745" lon="0.66826">
        <ele>2079.1</ele>
        <time>2018-08-08T17:44:54.000Z</time>
      </trkpt>
      <trkpt lat="42.69745" lon="0.66826">
        <ele>2079.1</ele>
        <time>2018-08-08T17:44:55.000Z</time>
      </trkpt>
      <trkpt lat="42.69745" lon="0.66826">
        <ele>2079.1</ele>
        <time>2018-08-08T17:44:56.000Z</time>
      </trkpt>
      <trkpt lat="42.69745" lon="0.66826">
        <ele>2079.1</ele>
        <time>2018-08-08T17:44:57.000Z</time>
      </trkpt>
      <trkpt lat="42.69745" lon="0.66826">
        <ele>2079.1</ele>
        <time>2018-08-08T17:44:58.000Z</time>
      </trkpt>
      <trkpt lat="42.69745" lon="0.66826">
        <ele>2079.1</ele>
        <time>2018-08-08T17:44:59.000Z</time>
      </trkpt>
      <trkpt lat="42.69745" lon="0.66826">
        <ele>2079.1</ele>
        <time>2018-08-08T17:45:00.000Z</time>
      </trkpt>
      <trkpt lat="42.69745" lon="0.66826">
        <ele>2079.1</ele>
        <time>2018-08-08T17:45:01.000Z</time>
      </trkpt>
      <trkpt lat="42.69745" lon="0.66826">
        <ele>2079.1</ele>
        <time>2018-08-08T17:45:02.000Z</time>
      </trkpt>
      <trkpt lat="42.69745" lon="0.66826">
        <ele>2079.1</ele>
        <time>2018-08-08T17:45:03.000Z</time>
      </trkpt>
      <trkpt lat="42.69745" lon="0.66826">
        <ele>2079.1</ele>
        <time>2018-08-08T17:45:04.000Z</time>
      </trkpt>
      <trkpt lat="42.69745" lon="0.66826">
        <ele>2079.1</ele>
        <time>2018-08-08T17:45:05.000Z</time>
      </trkpt>
      <trkpt lat="42.69745" lon="0.66826">
        <ele>2079.1</ele>
        <time>2018-08-08T17:45:06.000Z</time>
      </trkpt>
      <trkpt lat="42.69745" lon="0.66826">
        <ele>2079.1</ele>
        <time>2018-08-08T17:45:07.000Z</time>
      </trkpt>
      <trkpt lat="42.69745" lon="0.66826">
        <ele>2079.1</ele>
        <time>2018-08-08T17:45:08.000Z</time>
      </trkpt>
      <trkpt lat="42.69745" lon="0.66826">
        <ele>2079.1</ele>
        <time>2018-08-08T17:45:09.000Z</time>
      </trkpt>
      <trkpt lat="42.69745" lon="0.66826">
        <ele>2079.1</ele>
        <time>2018-08-08T17:45:10.000Z</time>
      </trkpt>
      <trkpt lat="42.69745" lon="0.66826">
        <ele>2079.1</ele>
        <time>2018-08-08T17:45:11.000Z</time>
      </trkpt>
      <trkpt lat="42.69745" lon="0.66826">
        <ele>2079.1</ele>
        <time>2018-08-08T17:45:12.000Z</time>
      </trkpt>
      <trkpt lat="42.69745" lon="0.66826">
        <ele>2079.1</ele>
        <time>2018-08-08T17:45:13.000Z</time>
      </trkpt>
      <trkpt lat="42.69745" lon="0.66826">
        <ele>2079.1</ele>
        <time>2018-08-08T17:45:14.000Z</time>
      </trkpt>
      <trkpt lat="42.69745" lon="0.66826">
        <ele>2079.1</ele>
        <time>2018-08-08T17:45:15.000Z</time>
      </trkpt>
      <trkpt lat="42.69745" lon="0.66826">
        <ele>2079.1</ele>
        <time>2018-08-08T17:45:16.000Z</time>
      </trkpt>
      <trkpt lat="42.69745" lon="0.66826">
        <ele>2079.1</ele>
        <time>2018-08-08T17:45:17.000Z</time>
      </trkpt>
      <trkpt lat="42.69745" lon="0.66826">
        <ele>2079.1</ele>
        <time>2018-08-08T17:45:18.000Z</time>
      </trkpt>
      <trkpt lat="42.69745" lon="0.66826">
        <ele>2079.1</ele>
        <time>2018-08-08T17:45:19.000Z</time>
      </trkpt>
      <trkpt lat="42.69745" lon="0.66826">
        <ele>2079.1</ele>
        <time>2018-08-08T17:45:20.000Z</time>
      </trkpt>
      <trkpt lat="42.69745" lon="0.66826">
        <ele>2079.1</ele>
        <time>2018-08-08T17:45:21.000Z</time>
      </trkpt>
      <trkpt lat="42.69745" lon="0.66826">
        <ele>2079.1</ele>
        <time>2018-08-08T17:45:22.000Z</time>
      </trkpt>
      <trkpt lat="42.69745" lon="0.66826">
        <ele>2079.1</ele>
        <time>2018-08-08T17:45:23.000Z</time>
      </trkpt>
      <trkpt lat="42.69745" lon="0.66826">
        <ele>2079.1</ele>
        <time>2018-08-08T17:45:24.000Z</time>
      </trkpt>
      <trkpt lat="42.69745" lon="0.66826">
        <ele>2079.1</ele>
        <time>2018-08-08T17:45:25.000Z</time>
      </trkpt>
      <trkpt lat="42.69745" lon="0.66826">
        <ele>2079.1</ele>
        <time>2018-08-08T17:45:26.000Z</time>
      </trkpt>
      <trkpt lat="42.69745" lon="0.66826">
        <ele>2079.1</ele>
        <time>2018-08-08T17:45:27.000Z</time>
      </trkpt>
      <trkpt lat="42.69745" lon="0.66826">
        <ele>2079.1</ele>
        <time>2018-08-08T17:45:28.000Z</time>
      </trkpt>
      <trkpt lat="42.69745" lon="0.66826">
        <ele>2079.1</ele>
        <time>2018-08-08T17:45:29.000Z</time>
      </trkpt>
      <trkpt lat="42.69745" lon="0.66826">
        <ele>2079.1</ele>
        <time>2018-08-08T17:45:30.000Z</time>
      </trkpt>
      <trkpt lat="42.69745" lon="0.66826">
        <ele>2079.1</ele>
        <time>2018-08-08T17:45:31.000Z</time>
      </trkpt>
      <trkpt lat="42.69745" lon="0.66826">
        <ele>2079.1</ele>
        <time>2018-08-08T17:45:32.000Z</time>
      </trkpt>
      <trkpt lat="42.69745" lon="0.66826">
        <ele>2079.1</ele>
        <time>2018-08-08T17:45:33.000Z</time>
      </trkpt>
      <trkpt lat="42.69745" lon="0.66826">
        <ele>2079.1</ele>
        <time>2018-08-08T17:45:34.000Z</time>
      </trkpt>
      <trkpt lat="42.69745" lon="0.66826">
        <ele>2079.1</ele>
        <time>2018-08-08T17:45:35.000Z</time>
      </trkpt>
      <trkpt lat="42.69745" lon="0.66826">
        <ele>2079.1</ele>
        <time>2018-08-08T17:45:36.000Z</time>
      </trkpt>
      <trkpt lat="42.69745" lon="0.66826">
        <ele>2079.1</ele>
        <time>2018-08-08T17:45:37.000Z</time>
      </trkpt>
      <trkpt lat="42.69745" lon="0.66826">
        <ele>2079.1</ele>
        <time>2018-08-08T17:45:38.000Z</time>
      </trkpt>
      <trkpt lat="42.69745" lon="0.66826">
        <ele>2079.1</ele>
        <time>2018-08-08T17:45:39.000Z</time>
      </trkpt>
      <trkpt lat="42.69745" lon="0.66826">
        <ele>2079.1</ele>
        <time>2018-08-08T17:45:40.000Z</time>
      </trkpt>
      <trkpt lat="42.69745" lon="0.66826">
        <ele>2079.1</ele>
        <time>2018-08-08T17:45:41.000Z</time>
      </trkpt>
      <trkpt lat="42.69745" lon="0.66826">
        <ele>2079.1</ele>
        <time>2018-08-08T17:45:42.000Z</time>
      </trkpt>
      <trkpt lat="42.69745" lon="0.66826">
        <ele>2079.1</ele>
        <time>2018-08-08T17:45:43.000Z</time>
      </trkpt>
      <trkpt lat="42.69745" lon="0.66826">
        <ele>2079.1</ele>
        <time>2018-08-08T17:45:44.000Z</time>
      </trkpt>
      <trkpt lat="42.69745" lon="0.66826">
        <ele>2079.1</ele>
        <time>2018-08-08T17:45:45.000Z</time>
      </trkpt>
      <trkpt lat="42.69745" lon="0.66826">
        <ele>2079.1</ele>
        <time>2018-08-08T17:45:46.000Z</time>
      </trkpt>
      <trkpt lat="42.69745" lon="0.66826">
        <ele>2079.1</ele>
        <time>2018-08-08T17:45:47.000Z</time>
      </trkpt>
      <trkpt lat="42.69745" lon="0.66826">
        <ele>2079.1</ele>
        <time>2018-08-08T17:45:48.000Z</time>
      </trkpt>
      <trkpt lat="42.69745" lon="0.66826">
        <ele>2079.1</ele>
        <time>2018-08-08T17:45:49.000Z</time>
      </trkpt>
      <trkpt lat="42.69745" lon="0.66826">
        <ele>2079.1</ele>
        <time>2018-08-08T17:45:50.000Z</time>
      </trkpt>
      <trkpt lat="42.69745" lon="0.66826">
        <ele>2079.1</ele>
        <time>2018-08-08T17:45:51.000Z</time>
      </trkpt>
      <trkpt lat="42.69745" lon="0.66826">
        <ele>2079.1</ele>
        <time>2018-08-08T17:45:52.000Z</time>
      </trkpt>
      <trkpt lat="42.69745" lon="0.66826">
        <ele>2079.1</ele>
        <time>2018-08-08T17:45:53.000Z</time>
      </trkpt>
      <trkpt lat="42.69745" lon="0.66826">
        <ele>2079.1</ele>
        <time>2018-08-08T17:45:54.000Z</time>
      </trkpt>
      <trkpt lat="42.69745" lon="0.66826">
        <ele>2079.1</ele>
        <time>2018-08-08T17:45:55.000Z</time>
      </trkpt>
      <trkpt lat="42.69745" lon="0.66826">
        <ele>2079.1</ele>
        <time>2018-08-08T17:45:56.000Z</time>
      </trkpt>
      <trkpt lat="42.69745" lon="0.66826">
        <ele>2079.1</ele>
        <time>2018-08-08T17:45:57.000Z</time>
      </trkpt>
      <trkpt lat="42.69745" lon="0.66826">
        <ele>2079.1</ele>
        <time>2018-08-08T17:45:58.000Z</time>
      </trkpt>
      <trkpt lat="42.69745" lon="0.66826">
        <ele>2079.1</ele>
        <time>2018-08-08T17:45:59.000Z</time>
      </trkpt>
      <trkpt lat="42.69745" lon="0.66826">
        <ele>2079.1</ele>
        <time>2018-08-08T17:46:00.000Z</time>
      </trkpt>
      <trkpt lat="42.69745" lon="0.66826">
        <ele>2079.1</ele>
        <time>2018-08-08T17:46:01.000Z</time>
      </trkpt>
      <trkpt lat="42.69745" lon="0.66826">
        <ele>2079.1</ele>
        <time>2018-08-08T17:46:02.000Z</time>
      </trkpt>
      <trkpt lat="42.69745" lon="0.66826">
        <ele>2079.1</ele>
        <time>2018-08-08T17:46:03.000Z</time>
      </trkpt>
      <trkpt lat="42.69745" lon="0.66826">
        <ele>2079.1</ele>
        <time>2018-08-08T17:46:04.000Z</time>
      </trkpt>
      <trkpt lat="42.69745" lon="0.66826">
        <ele>2079.1</ele>
        <time>2018-08-08T17:46:05.000Z</time>
      </trkpt>
      <trkpt lat="42.69745" lon="0.66826">
        <ele>2079.1</ele>
        <time>2018-08-08T17:46:06.000Z</time>
      </trkpt>
      <trkpt lat="42.69745" lon="0.66826">
        <ele>2079.1</ele>
        <time>2018-08-08T17:46:07.000Z</time>
      </trkpt>
      <trkpt lat="42.69745" lon="0.66826">
        <ele>2079.1</ele>
        <time>2018-08-08T17:46:08.000Z</time>
      </trkpt>
      <trkpt lat="42.69745" lon="0.66826">
        <ele>2079.1</ele>
        <time>2018-08-08T17:46:09.000Z</time>
      </trkpt>
      <trkpt lat="42.69745" lon="0.66826">
        <ele>2079.1</ele>
        <time>2018-08-08T17:46:10.000Z</time>
      </trkpt>
      <trkpt lat="42.69745" lon="0.66826">
        <ele>2079.1</ele>
        <time>2018-08-08T17:46:11.000Z</time>
      </trkpt>
      <trkpt lat="42.69745" lon="0.66826">
        <ele>2079.1</ele>
        <time>2018-08-08T17:46:12.000Z</time>
      </trkpt>
      <trkpt lat="42.69745" lon="0.66826">
        <ele>2079.1</ele>
        <time>2018-08-08T17:46:13.000Z</time>
      </trkpt>
      <trkpt lat="42.69745" lon="0.66826">
        <ele>2079.1</ele>
        <time>2018-08-08T17:46:14.000Z</time>
      </trkpt>
      <trkpt lat="42.69745" lon="0.66826">
        <ele>2079.1</ele>
        <time>2018-08-08T17:46:15.000Z</time>
      </trkpt>
      <trkpt lat="42.69745" lon="0.66826">
        <ele>2079.1</ele>
        <time>2018-08-08T17:46:16.000Z</time>
      </trkpt>
      <trkpt lat="42.69745" lon="0.66826">
        <ele>2079.1</ele>
        <time>2018-08-08T17:46:17.000Z</time>
      </trkpt>
      <trkpt lat="42.69745" lon="0.66826">
        <ele>2079.1</ele>
        <time>2018-08-08T17:46:18.000Z</time>
      </trkpt>
      <trkpt lat="42.69745" lon="0.66826">
        <ele>2079.1</ele>
        <time>2018-08-08T17:46:19.000Z</time>
      </trkpt>
      <trkpt lat="42.69745" lon="0.66826">
        <ele>2079.1</ele>
        <time>2018-08-08T17:46:20.000Z</time>
      </trkpt>
      <trkpt lat="42.69745" lon="0.66826">
        <ele>2079.1</ele>
        <time>2018-08-08T17:46:21.000Z</time>
      </trkpt>
      <trkpt lat="42.69745" lon="0.66826">
        <ele>2079.1</ele>
        <time>2018-08-08T17:46:22.000Z</time>
      </trkpt>
      <trkpt lat="42.69745" lon="0.66826">
        <ele>2079.1</ele>
        <time>2018-08-08T17:46:23.000Z</time>
      </trkpt>
      <trkpt lat="42.69745" lon="0.66826">
        <ele>2079.1</ele>
        <time>2018-08-08T17:46:24.000Z</time>
      </trkpt>
      <trkpt lat="42.69745" lon="0.66826">
        <ele>2079.1</ele>
        <time>2018-08-08T17:46:25.000Z</time>
      </trkpt>
      <trkpt lat="42.69745" lon="0.66826">
        <ele>2079.1</ele>
        <time>2018-08-08T17:46:26.000Z</time>
      </trkpt>
      <trkpt lat="42.69745" lon="0.66826">
        <ele>2079.1</ele>
        <time>2018-08-08T17:46:27.000Z</time>
      </trkpt>
      <trkpt lat="42.69745" lon="0.66826">
        <ele>2079.1</ele>
        <time>2018-08-08T17:46:28.000Z</time>
      </trkpt>
      <trkpt lat="42.69745" lon="0.66826">
        <ele>2079.1</ele>
        <time>2018-08-08T17:46:29.000Z</time>
      </trkpt>
      <trkpt lat="42.69745" lon="0.66826">
        <ele>2079.1</ele>
        <time>2018-08-08T17:46:30.000Z</time>
      </trkpt>
      <trkpt lat="42.69745" lon="0.66826">
        <ele>2079.1</ele>
        <time>2018-08-08T17:46:31.000Z</time>
      </trkpt>
      <trkpt lat="42.69745" lon="0.66826">
        <ele>2079.1</ele>
        <time>2018-08-08T17:46:32.000Z</time>
      </trkpt>
      <trkpt lat="42.69745" lon="0.66826">
        <ele>2079.1</ele>
        <time>2018-08-08T17:46:33.000Z</time>
      </trkpt>
      <trkpt lat="42.69745" lon="0.66826">
        <ele>2079.1</ele>
        <time>2018-08-08T17:46:34.000Z</time>
      </trkpt>
      <trkpt lat="42.69745" lon="0.66826">
        <ele>2079.1</ele>
        <time>2018-08-08T17:46:35.000Z</time>
      </trkpt>
      <trkpt lat="42.69745" lon="0.66826">
        <ele>2079.1</ele>
        <time>2018-08-08T17:46:36.000Z</time>
      </trkpt>
      <trkpt lat="42.69745" lon="0.66826">
        <ele>2079.1</ele>
        <time>2018-08-08T17:46:37.000Z</time>
      </trkpt>
      <trkpt lat="42.69745" lon="0.66826">
        <ele>2079.1</ele>
        <time>2018-08-08T17:46:38.000Z</time>
      </trkpt>
      <trkpt lat="42.69745" lon="0.66826">
        <ele>2079.1</ele>
        <time>2018-08-08T17:46:39.000Z</time>
      </trkpt>
      <trkpt lat="42.69745" lon="0.66826">
        <ele>2079.1</ele>
        <time>2018-08-08T17:46:40.000Z</time>
      </trkpt>
      <trkpt lat="42.69745" lon="0.66826">
        <ele>2079.1</ele>
        <time>2018-08-08T17:46:41.000Z</time>
      </trkpt>
      <trkpt lat="42.69745" lon="0.66826">
        <ele>2079.1</ele>
        <time>2018-08-08T17:46:42.000Z</time>
      </trkpt>
      <trkpt lat="42.69745" lon="0.66826">
        <ele>2079.1</ele>
        <time>2018-08-08T17:46:43.000Z</time>
      </trkpt>
      <trkpt lat="42.69745" lon="0.66826">
        <ele>2079.1</ele>
        <time>2018-08-08T17:46:44.000Z</time>
      </trkpt>
      <trkpt lat="42.69745" lon="0.66826">
        <ele>2079.1</ele>
        <time>2018-08-08T17:46:45.000Z</time>
      </trkpt>
      <trkpt lat="42.69745" lon="0.66826">
        <ele>2079.1</ele>
        <time>2018-08-08T17:46:46.000Z</time>
      </trkpt>
      <trkpt lat="42.69745" lon="0.66826">
        <ele>2079.1</ele>
        <time>2018-08-08T17:46:47.000Z</time>
      </trkpt>
      <trkpt lat="42.69745" lon="0.66826">
        <ele>2079.1</ele>
        <time>2018-08-08T17:46:48.000Z</time>
      </trkpt>
      <trkpt lat="42.69745" lon="0.66826">
        <ele>2079.1</ele>
        <time>2018-08-08T17:46:49.000Z</time>
      </trkpt>
      <trkpt lat="42.69745" lon="0.66826">
        <ele>2079.1</ele>
        <time>2018-08-08T17:46:50.000Z</time>
      </trkpt>
      <trkpt lat="42.69745" lon="0.66826">
        <ele>2079.1</ele>
        <time>2018-08-08T17:46:51.000Z</time>
      </trkpt>
      <trkpt lat="42.69745" lon="0.66826">
        <ele>2079.1</ele>
        <time>2018-08-08T17:46:52.000Z</time>
      </trkpt>
      <trkpt lat="42.69745" lon="0.66826">
        <ele>2079.1</ele>
        <time>2018-08-08T17:46:53.000Z</time>
      </trkpt>
      <trkpt lat="42.69745" lon="0.66826">
        <ele>2079.1</ele>
        <time>2018-08-08T17:46:54.000Z</time>
      </trkpt>
      <trkpt lat="42.69745" lon="0.66826">
        <ele>2079.1</ele>
        <time>2018-08-08T17:46:55.000Z</time>
      </trkpt>
      <trkpt lat="42.69745" lon="0.66826">
        <ele>2079.1</ele>
        <time>2018-08-08T17:46:56.000Z</time>
      </trkpt>
      <trkpt lat="42.69745" lon="0.66826">
        <ele>2079.1</ele>
        <time>2018-08-08T17:46:57.000Z</time>
      </trkpt>
      <trkpt lat="42.69745" lon="0.66826">
        <ele>2079.1</ele>
        <time>2018-08-08T17:46:58.000Z</time>
      </trkpt>
      <trkpt lat="42.69745" lon="0.66826">
        <ele>2079.1</ele>
        <time>2018-08-08T17:46:59.000Z</time>
      </trkpt>
      <trkpt lat="42.69745" lon="0.66826">
        <ele>2079.1</ele>
        <time>2018-08-08T17:47:00.000Z</time>
      </trkpt>
      <trkpt lat="42.69745" lon="0.66826">
        <ele>2079.1</ele>
        <time>2018-08-08T17:47:01.000Z</time>
      </trkpt>
      <trkpt lat="42.69745" lon="0.66826">
        <ele>2079.1</ele>
        <time>2018-08-08T17:47:02.000Z</time>
      </trkpt>
      <trkpt lat="42.69745" lon="0.66826">
        <ele>2079.1</ele>
        <time>2018-08-08T17:47:03.000Z</time>
      </trkpt>
      <trkpt lat="42.69745" lon="0.66826">
        <ele>2079.1</ele>
        <time>2018-08-08T17:47:04.000Z</time>
      </trkpt>
      <trkpt lat="42.69745" lon="0.66826">
        <ele>2079.1</ele>
        <time>2018-08-08T17:47:05.000Z</time>
      </trkpt>
      <trkpt lat="42.69745" lon="0.66826">
        <ele>2079.1</ele>
        <time>2018-08-08T17:47:06.000Z</time>
      </trkpt>
      <trkpt lat="42.69745" lon="0.66826">
        <ele>2079.1</ele>
        <time>2018-08-08T17:47:07.000Z</time>
      </trkpt>
      <trkpt lat="42.69745" lon="0.66826">
        <ele>2079.1</ele>
        <time>2018-08-08T17:47:08.000Z</time>
      </trkpt>
      <trkpt lat="42.69745" lon="0.66826">
        <ele>2079.1</ele>
        <time>2018-08-08T17:47:09.000Z</time>
      </trkpt>
      <trkpt lat="42.69745" lon="0.66826">
        <ele>2079.1</ele>
        <time>2018-08-08T17:47:10.000Z</time>
      </trkpt>
      <trkpt lat="42.69745" lon="0.66826">
        <ele>2079.1</ele>
        <time>2018-08-08T17:47:11.000Z</time>
      </trkpt>
      <trkpt lat="42.69745" lon="0.66826">
        <ele>2079.1</ele>
        <time>2018-08-08T17:47:12.000Z</time>
      </trkpt>
      <trkpt lat="42.69745" lon="0.66826">
        <ele>2079.1</ele>
        <time>2018-08-08T17:47:13.000Z</time>
      </trkpt>
      <trkpt lat="42.69745" lon="0.66826">
        <ele>2079.1</ele>
        <time>2018-08-08T17:47:14.000Z</time>
      </trkpt>
      <trkpt lat="42.69745" lon="0.66826">
        <ele>2079.1</ele>
        <time>2018-08-08T17:47:15.000Z</time>
      </trkpt>
      <trkpt lat="42.69745" lon="0.66826">
        <ele>2079.1</ele>
        <time>2018-08-08T17:47:16.000Z</time>
      </trkpt>
      <trkpt lat="42.69745" lon="0.66826">
        <ele>2079.1</ele>
        <time>2018-08-08T17:47:17.000Z</time>
      </trkpt>
      <trkpt lat="42.69745" lon="0.66826">
        <ele>2079.1</ele>
        <time>2018-08-08T17:47:18.000Z</time>
      </trkpt>
      <trkpt lat="42.69745" lon="0.66826">
        <ele>2079.1</ele>
        <time>2018-08-08T17:47:19.000Z</time>
      </trkpt>
      <trkpt lat="42.69745" lon="0.66826">
        <ele>2079.1</ele>
        <time>2018-08-08T17:47:20.000Z</time>
      </trkpt>
      <trkpt lat="42.69745" lon="0.66826">
        <ele>2079.1</ele>
        <time>2018-08-08T17:47:21.000Z</time>
      </trkpt>
      <trkpt lat="42.69745" lon="0.66826">
        <ele>2079.1</ele>
        <time>2018-08-08T17:47:22.000Z</time>
      </trkpt>
      <trkpt lat="42.69745" lon="0.66826">
        <ele>2079.1</ele>
        <time>2018-08-08T17:47:23.000Z</time>
      </trkpt>
      <trkpt lat="42.69745" lon="0.66826">
        <ele>2079.1</ele>
        <time>2018-08-08T17:47:24.000Z</time>
      </trkpt>
      <trkpt lat="42.69745" lon="0.66826">
        <ele>2079.1</ele>
        <time>2018-08-08T17:47:25.000Z</time>
      </trkpt>
      <trkpt lat="42.69745" lon="0.66826">
        <ele>2079.1</ele>
        <time>2018-08-08T17:47:26.000Z</time>
      </trkpt>
      <trkpt lat="42.69745" lon="0.66826">
        <ele>2079.1</ele>
        <time>2018-08-08T17:47:27.000Z</time>
      </trkpt>
      <trkpt lat="42.69745" lon="0.66826">
        <ele>2079.1</ele>
        <time>2018-08-08T17:47:28.000Z</time>
      </trkpt>
      <trkpt lat="42.69745" lon="0.66826">
        <ele>2079.1</ele>
        <time>2018-08-08T17:47:29.000Z</time>
      </trkpt>
      <trkpt lat="42.69745" lon="0.66826">
        <ele>2079.1</ele>
        <time>2018-08-08T17:47:30.000Z</time>
      </trkpt>
      <trkpt lat="42.69745" lon="0.66826">
        <ele>2079.1</ele>
        <time>2018-08-08T17:47:31.000Z</time>
      </trkpt>
      <trkpt lat="42.69745" lon="0.66826">
        <ele>2079.1</ele>
        <time>2018-08-08T17:47:32.000Z</time>
      </trkpt>
      <trkpt lat="42.69745" lon="0.66826">
        <ele>2079.1</ele>
        <time>2018-08-08T17:47:33.000Z</time>
      </trkpt>
      <trkpt lat="42.69745" lon="0.66826">
        <ele>2079.1</ele>
        <time>2018-08-08T17:47:34.000Z</time>
      </trkpt>
      <trkpt lat="42.69745" lon="0.66826">
        <ele>2079.1</ele>
        <time>2018-08-08T17:47:35.000Z</time>
      </trkpt>
      <trkpt lat="42.69745" lon="0.66826">
        <ele>2079.1</ele>
        <time>2018-08-08T17:47:36.000Z</time>
      </trkpt>
      <trkpt lat="42.69745" lon="0.66826">
        <ele>2079.1</ele>
        <time>2018-08-08T17:47:37.000Z</time>
      </trkpt>
      <trkpt lat="42.69745" lon="0.66826">
        <ele>2079.1</ele>
        <time>2018-08-08T17:47:38.000Z</time>
      </trkpt>
      <trkpt lat="42.69745" lon="0.66826">
        <ele>2079.1</ele>
        <time>2018-08-08T17:47:39.000Z</time>
      </trkpt>
      <trkpt lat="42.69745" lon="0.66826">
        <ele>2079.1</ele>
        <time>2018-08-08T17:47:40.000Z</time>
      </trkpt>
      <trkpt lat="42.69745" lon="0.66826">
        <ele>2079.1</ele>
        <time>2018-08-08T17:47:41.000Z</time>
      </trkpt>
      <trkpt lat="42.69745" lon="0.66826">
        <ele>2079.1</ele>
        <time>2018-08-08T17:47:42.000Z</time>
      </trkpt>
      <trkpt lat="42.69745" lon="0.66826">
        <ele>2079.1</ele>
        <time>2018-08-08T17:47:43.000Z</time>
      </trkpt>
      <trkpt lat="42.69745" lon="0.66826">
        <ele>2079.1</ele>
        <time>2018-08-08T17:47:44.000Z</time>
      </trkpt>
      <trkpt lat="42.69745" lon="0.66826">
        <ele>2079.1</ele>
        <time>2018-08-08T17:47:45.000Z</time>
      </trkpt>
      <trkpt lat="42.69745" lon="0.66826">
        <ele>2079.1</ele>
        <time>2018-08-08T17:47:46.000Z</time>
      </trkpt>
      <trkpt lat="42.69745" lon="0.66826">
        <ele>2079.1</ele>
        <time>2018-08-08T17:47:47.000Z</time>
      </trkpt>
      <trkpt lat="42.69745" lon="0.66826">
        <ele>2079.1</ele>
        <time>2018-08-08T17:47:48.000Z</time>
      </trkpt>
      <trkpt lat="42.69745" lon="0.66826">
        <ele>2079.1</ele>
        <time>2018-08-08T17:47:49.000Z</time>
      </trkpt>
      <trkpt lat="42.69745" lon="0.66826">
        <ele>2079.1</ele>
        <time>2018-08-08T17:47:50.000Z</time>
      </trkpt>
      <trkpt lat="42.69745" lon="0.66826">
        <ele>2079.1</ele>
        <time>2018-08-08T17:47:51.000Z</time>
      </trkpt>
      <trkpt lat="42.69745" lon="0.66826">
        <ele>2079.1</ele>
        <time>2018-08-08T17:47:52.000Z</time>
      </trkpt>
      <trkpt lat="42.69745" lon="0.66826">
        <ele>2079.1</ele>
        <time>2018-08-08T17:47:53.000Z</time>
      </trkpt>
      <trkpt lat="42.69745" lon="0.66826">
        <ele>2079.1</ele>
        <time>2018-08-08T17:47:54.000Z</time>
      </trkpt>
      <trkpt lat="42.69745" lon="0.66826">
        <ele>2079.1</ele>
        <time>2018-08-08T17:47:55.000Z</time>
      </trkpt>
      <trkpt lat="42.69745" lon="0.66826">
        <ele>2079.1</ele>
        <time>2018-08-08T17:47:56.000Z</time>
      </trkpt>
      <trkpt lat="42.69745" lon="0.66826">
        <ele>2079.1</ele>
        <time>2018-08-08T17:47:57.000Z</time>
      </trkpt>
      <trkpt lat="42.69745" lon="0.66826">
        <ele>2079.1</ele>
        <time>2018-08-08T17:47:58.000Z</time>
      </trkpt>
      <trkpt lat="42.69745" lon="0.66826">
        <ele>2079.1</ele>
        <time>2018-08-08T17:47:59.000Z</time>
      </trkpt>
      <trkpt lat="42.69745" lon="0.66826">
        <ele>2079.1</ele>
        <time>2018-08-08T17:48:00.000Z</time>
      </trkpt>
      <trkpt lat="42.69745" lon="0.66826">
        <ele>2079.1</ele>
        <time>2018-08-08T17:48:01.000Z</time>
      </trkpt>
      <trkpt lat="42.69745" lon="0.66826">
        <ele>2079.1</ele>
        <time>2018-08-08T17:48:02.000Z</time>
      </trkpt>
      <trkpt lat="42.69745" lon="0.66826">
        <ele>2079.1</ele>
        <time>2018-08-08T17:48:03.000Z</time>
      </trkpt>
      <trkpt lat="42.69745" lon="0.66826">
        <ele>2079.1</ele>
        <time>2018-08-08T17:48:04.000Z</time>
      </trkpt>
      <trkpt lat="42.69745" lon="0.66826">
        <ele>2079.1</ele>
        <time>2018-08-08T17:48:05.000Z</time>
      </trkpt>
      <trkpt lat="42.69745" lon="0.66826">
        <ele>2079.1</ele>
        <time>2018-08-08T17:48:06.000Z</time>
      </trkpt>
      <trkpt lat="42.69745" lon="0.66826">
        <ele>2079.1</ele>
        <time>2018-08-08T17:48:07.000Z</time>
      </trkpt>
      <trkpt lat="42.69745" lon="0.66826">
        <ele>2079.1</ele>
        <time>2018-08-08T17:48:08.000Z</time>
      </trkpt>
      <trkpt lat="42.69745" lon="0.66826">
        <ele>2079.1</ele>
        <time>2018-08-08T17:48:09.000Z</time>
      </trkpt>
      <trkpt lat="42.69745" lon="0.66826">
        <ele>2079.1</ele>
        <time>2018-08-08T17:48:10.000Z</time>
      </trkpt>
      <trkpt lat="42.69745" lon="0.66826">
        <ele>2079.1</ele>
        <time>2018-08-08T17:48:11.000Z</time>
      </trkpt>
      <trkpt lat="42.69745" lon="0.66826">
        <ele>2079.1</ele>
        <time>2018-08-08T17:48:12.000Z</time>
      </trkpt>
      <trkpt lat="42.69745" lon="0.66826">
        <ele>2079.1</ele>
        <time>2018-08-08T17:48:13.000Z</time>
      </trkpt>
      <trkpt lat="42.69745" lon="0.66826">
        <ele>2079.1</ele>
        <time>2018-08-08T17:48:14.000Z</time>
      </trkpt>
      <trkpt lat="42.69745" lon="0.66826">
        <ele>2079.1</ele>
        <time>2018-08-08T17:48:15.000Z</time>
      </trkpt>
      <trkpt lat="42.69745" lon="0.66826">
        <ele>2079.1</ele>
        <time>2018-08-08T17:48:16.000Z</time>
      </trkpt>
      <trkpt lat="42.69745" lon="0.66826">
        <ele>2079.1</ele>
        <time>2018-08-08T17:48:17.000Z</time>
      </trkpt>
      <trkpt lat="42.69745" lon="0.66826">
        <ele>2079.1</ele>
        <time>2018-08-08T17:48:18.000Z</time>
      </trkpt>
      <trkpt lat="42.69745" lon="0.66826">
        <ele>2079.1</ele>
        <time>2018-08-08T17:48:19.000Z</time>
      </trkpt>
      <trkpt lat="42.69745" lon="0.66826">
        <ele>2079.1</ele>
        <time>2018-08-08T17:48:20.000Z</time>
      </trkpt>
      <trkpt lat="42.69745" lon="0.66826">
        <ele>2079.1</ele>
        <time>2018-08-08T17:48:21.000Z</time>
      </trkpt>
      <trkpt lat="42.69745" lon="0.66826">
        <ele>2079.1</ele>
        <time>2018-08-08T17:48:22.000Z</time>
      </trkpt>
      <trkpt lat="42.69745" lon="0.66826">
        <ele>2079.1</ele>
        <time>2018-08-08T17:48:23.000Z</time>
      </trkpt>
      <trkpt lat="42.69745" lon="0.66826">
        <ele>2079.1</ele>
        <time>2018-08-08T17:48:24.000Z</time>
      </trkpt>
      <trkpt lat="42.69745" lon="0.66826">
        <ele>2079.1</ele>
        <time>2018-08-08T17:48:25.000Z</time>
      </trkpt>
      <trkpt lat="42.69745" lon="0.66826">
        <ele>2079.1</ele>
        <time>2018-08-08T17:48:26.000Z</time>
      </trkpt>
      <trkpt lat="42.69745" lon="0.66826">
        <ele>2079.1</ele>
        <time>2018-08-08T17:48:27.000Z</time>
      </trkpt>
      <trkpt lat="42.69745" lon="0.66826">
        <ele>2079.1</ele>
        <time>2018-08-08T17:48:28.000Z</time>
      </trkpt>
      <trkpt lat="42.69745" lon="0.66826">
        <ele>2079.1</ele>
        <time>2018-08-08T17:48:29.000Z</time>
      </trkpt>
      <trkpt lat="42.69745" lon="0.66826">
        <ele>2079.1</ele>
        <time>2018-08-08T17:48:30.000Z</time>
      </trkpt>
      <trkpt lat="42.69745" lon="0.66826">
        <ele>2079.1</ele>
        <time>2018-08-08T17:48:31.000Z</time>
      </trkpt>
      <trkpt lat="42.69745" lon="0.66826">
        <ele>2079.1</ele>
        <time>2018-08-08T17:48:32.000Z</time>
      </trkpt>
      <trkpt lat="42.69745" lon="0.66826">
        <ele>2079.1</ele>
        <time>2018-08-08T17:48:33.000Z</time>
      </trkpt>
      <trkpt lat="42.69745" lon="0.66826">
        <ele>2079.1</ele>
        <time>2018-08-08T17:48:34.000Z</time>
      </trkpt>
      <trkpt lat="42.69745" lon="0.66826">
        <ele>2079.1</ele>
        <time>2018-08-08T17:48:35.000Z</time>
      </trkpt>
      <trkpt lat="42.69745" lon="0.66826">
        <ele>2079.1</ele>
        <time>2018-08-08T17:48:36.000Z</time>
      </trkpt>
      <trkpt lat="42.69745" lon="0.66826">
        <ele>2079.1</ele>
        <time>2018-08-08T17:48:37.000Z</time>
      </trkpt>
      <trkpt lat="42.69745" lon="0.66826">
        <ele>2079.1</ele>
        <time>2018-08-08T17:48:38.000Z</time>
      </trkpt>
      <trkpt lat="42.69745" lon="0.66826">
        <ele>2079.1</ele>
        <time>2018-08-08T17:48:39.000Z</time>
      </trkpt>
      <trkpt lat="42.69745" lon="0.66826">
        <ele>2079.1</ele>
        <time>2018-08-08T17:48:40.000Z</time>
      </trkpt>
      <trkpt lat="42.69745" lon="0.66826">
        <ele>2079.1</ele>
        <time>2018-08-08T17:48:41.000Z</time>
      </trkpt>
      <trkpt lat="42.69745" lon="0.66826">
        <ele>2079.1</ele>
        <time>2018-08-08T17:48:42.000Z</time>
      </trkpt>
      <trkpt lat="42.69745" lon="0.66826">
        <ele>2079.1</ele>
        <time>2018-08-08T17:48:43.000Z</time>
      </trkpt>
      <trkpt lat="42.69745" lon="0.66826">
        <ele>2079.1</ele>
        <time>2018-08-08T17:48:44.000Z</time>
      </trkpt>
      <trkpt lat="42.69745" lon="0.66826">
        <ele>2079.1</ele>
        <time>2018-08-08T17:48:45.000Z</time>
      </trkpt>
      <trkpt lat="42.69745" lon="0.66826">
        <ele>2079.1</ele>
        <time>2018-08-08T17:48:46.000Z</time>
      </trkpt>
      <trkpt lat="42.69745" lon="0.66826">
        <ele>2079.1</ele>
        <time>2018-08-08T17:48:47.000Z</time>
      </trkpt>
      <trkpt lat="42.69745" lon="0.66826">
        <ele>2079.1</ele>
        <time>2018-08-08T17:48:48.000Z</time>
      </trkpt>
      <trkpt lat="42.69745" lon="0.66826">
        <ele>2079.1</ele>
        <time>2018-08-08T17:48:49.000Z</time>
      </trkpt>
      <trkpt lat="42.69745" lon="0.66826">
        <ele>2079.1</ele>
        <time>2018-08-08T17:48:50.000Z</time>
      </trkpt>
      <trkpt lat="42.69745" lon="0.66826">
        <ele>2079.1</ele>
        <time>2018-08-08T17:48:51.000Z</time>
      </trkpt>
      <trkpt lat="42.69745" lon="0.66826">
        <ele>2079.1</ele>
        <time>2018-08-08T17:48:52.000Z</time>
      </trkpt>
      <trkpt lat="42.69745" lon="0.66826">
        <ele>2079.1</ele>
        <time>2018-08-08T17:48:53.000Z</time>
      </trkpt>
      <trkpt lat="42.69745" lon="0.66826">
        <ele>2079.1</ele>
        <time>2018-08-08T17:48:54.000Z</time>
      </trkpt>
      <trkpt lat="42.69745" lon="0.66826">
        <ele>2079.1</ele>
        <time>2018-08-08T17:48:55.000Z</time>
      </trkpt>
      <trkpt lat="42.69745" lon="0.66826">
        <ele>2079.1</ele>
        <time>2018-08-08T17:48:56.000Z</time>
      </trkpt>
      <trkpt lat="42.69745" lon="0.66826">
        <ele>2079.1</ele>
        <time>2018-08-08T17:48:57.000Z</time>
      </trkpt>
      <trkpt lat="42.69745" lon="0.66826">
        <ele>2079.1</ele>
        <time>2018-08-08T17:48:58.000Z</time>
      </trkpt>
      <trkpt lat="42.69745" lon="0.66826">
        <ele>2079.1</ele>
        <time>2018-08-08T17:48:59.000Z</time>
      </trkpt>
      <trkpt lat="42.69745" lon="0.66826">
        <ele>2079.1</ele>
        <time>2018-08-08T17:49:00.000Z</time>
      </trkpt>
      <trkpt lat="42.69745" lon="0.66826">
        <ele>2079.1</ele>
        <time>2018-08-08T17:49:01.000Z</time>
      </trkpt>
      <trkpt lat="42.69745" lon="0.66826">
        <ele>2079.1</ele>
        <time>2018-08-08T17:49:02.000Z</time>
      </trkpt>
      <trkpt lat="42.69745" lon="0.66826">
        <ele>2079.1</ele>
        <time>2018-08-08T17:49:03.000Z</time>
      </trkpt>
      <trkpt lat="42.69745" lon="0.66826">
        <ele>2079.1</ele>
        <time>2018-08-08T17:49:04.000Z</time>
      </trkpt>
      <trkpt lat="42.69745" lon="0.66826">
        <ele>2079.1</ele>
        <time>2018-08-08T17:49:05.000Z</time>
      </trkpt>
      <trkpt lat="42.69745" lon="0.66826">
        <ele>2079.1</ele>
        <time>2018-08-08T17:49:06.000Z</time>
      </trkpt>
      <trkpt lat="42.69745" lon="0.66826">
        <ele>2079.1</ele>
        <time>2018-08-08T17:49:07.000Z</time>
      </trkpt>
      <trkpt lat="42.69745" lon="0.66826">
        <ele>2079.1</ele>
        <time>2018-08-08T17:49:08.000Z</time>
      </trkpt>
      <trkpt lat="42.69745" lon="0.66826">
        <ele>2079.1</ele>
        <time>2018-08-08T17:49:09.000Z</time>
      </trkpt>
      <trkpt lat="42.69745" lon="0.66826">
        <ele>2079.1</ele>
        <time>2018-08-08T17:49:10.000Z</time>
      </trkpt>
      <trkpt lat="42.69745" lon="0.66826">
        <ele>2079.1</ele>
        <time>2018-08-08T17:49:11.000Z</time>
      </trkpt>
      <trkpt lat="42.69745" lon="0.66826">
        <ele>2079.1</ele>
        <time>2018-08-08T17:49:12.000Z</time>
      </trkpt>
      <trkpt lat="42.69745" lon="0.66826">
        <ele>2079.1</ele>
        <time>2018-08-08T17:49:13.000Z</time>
      </trkpt>
      <trkpt lat="42.69745" lon="0.66826">
        <ele>2079.1</ele>
        <time>2018-08-08T17:49:14.000Z</time>
      </trkpt>
      <trkpt lat="42.69745" lon="0.66826">
        <ele>2079.1</ele>
        <time>2018-08-08T17:49:15.000Z</time>
      </trkpt>
      <trkpt lat="42.69745" lon="0.66826">
        <ele>2079.1</ele>
        <time>2018-08-08T17:49:16.000Z</time>
      </trkpt>
      <trkpt lat="42.69745" lon="0.66826">
        <ele>2079.1</ele>
        <time>2018-08-08T17:49:17.000Z</time>
      </trkpt>
      <trkpt lat="42.69745" lon="0.66826">
        <ele>2079.1</ele>
        <time>2018-08-08T17:49:18.000Z</time>
      </trkpt>
      <trkpt lat="42.69745" lon="0.66826">
        <ele>2079.1</ele>
        <time>2018-08-08T17:49:19.000Z</time>
      </trkpt>
      <trkpt lat="42.69745" lon="0.66826">
        <ele>2079.1</ele>
        <time>2018-08-08T17:49:20.000Z</time>
      </trkpt>
      <trkpt lat="42.69745" lon="0.66826">
        <ele>2079.1</ele>
        <time>2018-08-08T17:49:21.000Z</time>
      </trkpt>
      <trkpt lat="42.69745" lon="0.66826">
        <ele>2079.1</ele>
        <time>2018-08-08T17:49:22.000Z</time>
      </trkpt>
      <trkpt lat="42.69745" lon="0.66826">
        <ele>2079.1</ele>
        <time>2018-08-08T17:49:23.000Z</time>
      </trkpt>
      <trkpt lat="42.69745" lon="0.66826">
        <ele>2079.1</ele>
        <time>2018-08-08T17:49:24.000Z</time>
      </trkpt>
      <trkpt lat="42.69745" lon="0.66826">
        <ele>2079.1</ele>
        <time>2018-08-08T17:49:25.000Z</time>
      </trkpt>
      <trkpt lat="42.69745" lon="0.66826">
        <ele>2079.1</ele>
        <time>2018-08-08T17:49:26.000Z</time>
      </trkpt>
      <trkpt lat="42.69745" lon="0.66826">
        <ele>2079.1</ele>
        <time>2018-08-08T17:49:27.000Z</time>
      </trkpt>
      <trkpt lat="42.69745" lon="0.66826">
        <ele>2079.1</ele>
        <time>2018-08-08T17:49:28.000Z</time>
      </trkpt>
      <trkpt lat="42.69745" lon="0.66826">
        <ele>2079.1</ele>
        <time>2018-08-08T17:49:29.000Z</time>
      </trkpt>
      <trkpt lat="42.69745" lon="0.66826">
        <ele>2079.1</ele>
        <time>2018-08-08T17:49:30.000Z</time>
      </trkpt>
      <trkpt lat="42.69745" lon="0.66826">
        <ele>2079.1</ele>
        <time>2018-08-08T17:49:31.000Z</time>
      </trkpt>
      <trkpt lat="42.69745" lon="0.66826">
        <ele>2079.1</ele>
        <time>2018-08-08T17:49:32.000Z</time>
      </trkpt>
      <trkpt lat="42.69745" lon="0.66826">
        <ele>2079.1</ele>
        <time>2018-08-08T17:49:33.000Z</time>
      </trkpt>
      <trkpt lat="42.69745" lon="0.66826">
        <ele>2079.1</ele>
        <time>2018-08-08T17:49:34.000Z</time>
      </trkpt>
      <trkpt lat="42.69745" lon="0.66826">
        <ele>2079.1</ele>
        <time>2018-08-08T17:49:35.000Z</time>
      </trkpt>
      <trkpt lat="42.69745" lon="0.66826">
        <ele>2079.1</ele>
        <time>2018-08-08T17:49:36.000Z</time>
      </trkpt>
      <trkpt lat="42.69745" lon="0.66826">
        <ele>2079.1</ele>
        <time>2018-08-08T17:49:37.000Z</time>
      </trkpt>
      <trkpt lat="42.69745" lon="0.66826">
        <ele>2079.1</ele>
        <time>2018-08-08T17:49:38.000Z</time>
      </trkpt>
      <trkpt lat="42.69745" lon="0.66826">
        <ele>2079.1</ele>
        <time>2018-08-08T17:49:39.000Z</time>
      </trkpt>
      <trkpt lat="42.69745" lon="0.66826">
        <ele>2079.1</ele>
        <time>2018-08-08T17:49:40.000Z</time>
      </trkpt>
      <trkpt lat="42.69745" lon="0.66826">
        <ele>2079.1</ele>
        <time>2018-08-08T17:49:41.000Z</time>
      </trkpt>
      <trkpt lat="42.69745" lon="0.66826">
        <ele>2079.1</ele>
        <time>2018-08-08T17:49:42.000Z</time>
      </trkpt>
      <trkpt lat="42.69745" lon="0.66826">
        <ele>2079.1</ele>
        <time>2018-08-08T17:49:43.000Z</time>
      </trkpt>
      <trkpt lat="42.69745" lon="0.66826">
        <ele>2079.1</ele>
        <time>2018-08-08T17:49:44.000Z</time>
      </trkpt>
      <trkpt lat="42.69745" lon="0.66826">
        <ele>2079.1</ele>
        <time>2018-08-08T17:49:45.000Z</time>
      </trkpt>
      <trkpt lat="42.69745" lon="0.66826">
        <ele>2079.1</ele>
        <time>2018-08-08T17:49:46.000Z</time>
      </trkpt>
      <trkpt lat="42.69745" lon="0.66826">
        <ele>2079.1</ele>
        <time>2018-08-08T17:49:47.000Z</time>
      </trkpt>
      <trkpt lat="42.69745" lon="0.66826">
        <ele>2079.1</ele>
        <time>2018-08-08T17:49:48.000Z</time>
      </trkpt>
      <trkpt lat="42.69745" lon="0.66826">
        <ele>2079.1</ele>
        <time>2018-08-08T17:49:49.000Z</time>
      </trkpt>
      <trkpt lat="42.69745" lon="0.66826">
        <ele>2079.1</ele>
        <time>2018-08-08T17:49:50.000Z</time>
      </trkpt>
      <trkpt lat="42.69745" lon="0.66826">
        <ele>2079.1</ele>
        <time>2018-08-08T17:49:51.000Z</time>
      </trkpt>
      <trkpt lat="42.69745" lon="0.66826">
        <ele>2079.1</ele>
        <time>2018-08-08T17:49:52.000Z</time>
      </trkpt>
      <trkpt lat="42.69745" lon="0.66826">
        <ele>2079.1</ele>
        <time>2018-08-08T17:49:53.000Z</time>
      </trkpt>
      <trkpt lat="42.69745" lon="0.66826">
        <ele>2079.1</ele>
        <time>2018-08-08T17:49:54.000Z</time>
      </trkpt>
      <trkpt lat="42.69745" lon="0.66826">
        <ele>2079.1</ele>
        <time>2018-08-08T17:49:55.000Z</time>
      </trkpt>
      <trkpt lat="42.69745" lon="0.66826">
        <ele>2079.1</ele>
        <time>2018-08-08T17:49:56.000Z</time>
      </trkpt>
      <trkpt lat="42.69745" lon="0.66826">
        <ele>2079.1</ele>
        <time>2018-08-08T17:49:57.000Z</time>
      </trkpt>
      <trkpt lat="42.69745" lon="0.66826">
        <ele>2079.1</ele>
        <time>2018-08-08T17:49:58.000Z</time>
      </trkpt>
      <trkpt lat="42.69745" lon="0.66826">
        <ele>2079.1</ele>
        <time>2018-08-08T17:49:59.000Z</time>
      </trkpt>
      <trkpt lat="42.69745" lon="0.66826">
        <ele>2079.1</ele>
        <time>2018-08-08T17:50:00.000Z</time>
      </trkpt>
      <trkpt lat="42.69745" lon="0.66826">
        <ele>2079.1</ele>
        <time>2018-08-08T17:50:01.000Z</time>
      </trkpt>
      <trkpt lat="42.69745" lon="0.66826">
        <ele>2079.1</ele>
        <time>2018-08-08T17:50:02.000Z</time>
      </trkpt>
      <trkpt lat="42.69745" lon="0.66826">
        <ele>2079.1</ele>
        <time>2018-08-08T17:50:03.000Z</time>
      </trkpt>
      <trkpt lat="42.69745" lon="0.66826">
        <ele>2079.1</ele>
        <time>2018-08-08T17:50:04.000Z</time>
      </trkpt>
      <trkpt lat="42.69745" lon="0.66826">
        <ele>2079.1</ele>
        <time>2018-08-08T17:50:05.000Z</time>
      </trkpt>
      <trkpt lat="42.69745" lon="0.66826">
        <ele>2079.1</ele>
        <time>2018-08-08T17:50:06.000Z</time>
      </trkpt>
      <trkpt lat="42.69745" lon="0.66826">
        <ele>2079.1</ele>
        <time>2018-08-08T17:50:07.000Z</time>
      </trkpt>
      <trkpt lat="42.69745" lon="0.66826">
        <ele>2079.1</ele>
        <time>2018-08-08T17:50:08.000Z</time>
      </trkpt>
      <trkpt lat="42.69745" lon="0.66826">
        <ele>2079.1</ele>
        <time>2018-08-08T17:50:09.000Z</time>
      </trkpt>
      <trkpt lat="42.69745" lon="0.66826">
        <ele>2079.1</ele>
        <time>2018-08-08T17:50:10.000Z</time>
      </trkpt>
      <trkpt lat="42.69745" lon="0.66826">
        <ele>2079.1</ele>
        <time>2018-08-08T17:50:11.000Z</time>
      </trkpt>
      <trkpt lat="42.69745" lon="0.66826">
        <ele>2079.1</ele>
        <time>2018-08-08T17:50:12.000Z</time>
      </trkpt>
      <trkpt lat="42.69745" lon="0.66826">
        <ele>2079.1</ele>
        <time>2018-08-08T17:50:13.000Z</time>
      </trkpt>
      <trkpt lat="42.69745" lon="0.66826">
        <ele>2079.1</ele>
        <time>2018-08-08T17:50:14.000Z</time>
      </trkpt>
      <trkpt lat="42.69745" lon="0.66826">
        <ele>2079.1</ele>
        <time>2018-08-08T17:50:15.000Z</time>
      </trkpt>
      <trkpt lat="42.69745" lon="0.66826">
        <ele>2079.1</ele>
        <time>2018-08-08T17:50:16.000Z</time>
      </trkpt>
      <trkpt lat="42.69745" lon="0.66826">
        <ele>2079.1</ele>
        <time>2018-08-08T17:50:17.000Z</time>
      </trkpt>
      <trkpt lat="42.69745" lon="0.66826">
        <ele>2079.1</ele>
        <time>2018-08-08T17:50:18.000Z</time>
      </trkpt>
      <trkpt lat="42.69745" lon="0.66826">
        <ele>2079.1</ele>
        <time>2018-08-08T17:50:19.000Z</time>
      </trkpt>
      <trkpt lat="42.69745" lon="0.66826">
        <ele>2079.1</ele>
        <time>2018-08-08T17:50:20.000Z</time>
      </trkpt>
      <trkpt lat="42.69745" lon="0.66826">
        <ele>2079.1</ele>
        <time>2018-08-08T17:50:21.000Z</time>
      </trkpt>
      <trkpt lat="42.69745" lon="0.66826">
        <ele>2079.1</ele>
        <time>2018-08-08T17:50:22.000Z</time>
      </trkpt>
      <trkpt lat="42.69745" lon="0.66826">
        <ele>2079.1</ele>
        <time>2018-08-08T17:50:23.000Z</time>
      </trkpt>
      <trkpt lat="42.69745" lon="0.66826">
        <ele>2079.1</ele>
        <time>2018-08-08T17:50:24.000Z</time>
      </trkpt>
      <trkpt lat="42.69745" lon="0.66826">
        <ele>2079.1</ele>
        <time>2018-08-08T17:50:25.000Z</time>
      </trkpt>
      <trkpt lat="42.69745" lon="0.66826">
        <ele>2079.1</ele>
        <time>2018-08-08T17:50:26.000Z</time>
      </trkpt>
      <trkpt lat="42.69745" lon="0.66826">
        <ele>2079.1</ele>
        <time>2018-08-08T17:50:27.000Z</time>
      </trkpt>
      <trkpt lat="42.69745" lon="0.66826">
        <ele>2079.1</ele>
        <time>2018-08-08T17:50:28.000Z</time>
      </trkpt>
      <trkpt lat="42.69745" lon="0.66826">
        <ele>2079.1</ele>
        <time>2018-08-08T17:50:29.000Z</time>
      </trkpt>
      <trkpt lat="42.69745" lon="0.66826">
        <ele>2079.1</ele>
        <time>2018-08-08T17:50:30.000Z</time>
      </trkpt>
      <trkpt lat="42.69745" lon="0.66826">
        <ele>2079.1</ele>
        <time>2018-08-08T17:50:31.000Z</time>
      </trkpt>
      <trkpt lat="42.69745" lon="0.66826">
        <ele>2079.1</ele>
        <time>2018-08-08T17:50:32.000Z</time>
      </trkpt>
      <trkpt lat="42.69745" lon="0.66826">
        <ele>2079.1</ele>
        <time>2018-08-08T17:50:33.000Z</time>
      </trkpt>
      <trkpt lat="42.69745" lon="0.66826">
        <ele>2079.1</ele>
        <time>2018-08-08T17:50:34.000Z</time>
      </trkpt>
      <trkpt lat="42.69745" lon="0.66826">
        <ele>2079.1</ele>
        <time>2018-08-08T17:50:35.000Z</time>
      </trkpt>
      <trkpt lat="42.69745" lon="0.66826">
        <ele>2079.1</ele>
        <time>2018-08-08T17:50:36.000Z</time>
      </trkpt>
      <trkpt lat="42.69745" lon="0.66826">
        <ele>2079.1</ele>
        <time>2018-08-08T17:50:37.000Z</time>
      </trkpt>
      <trkpt lat="42.69745" lon="0.66826">
        <ele>2079.1</ele>
        <time>2018-08-08T17:50:38.000Z</time>
      </trkpt>
      <trkpt lat="42.69745" lon="0.66826">
        <ele>2079.1</ele>
        <time>2018-08-08T17:50:39.000Z</time>
      </trkpt>
      <trkpt lat="42.69745" lon="0.66826">
        <ele>2079.1</ele>
        <time>2018-08-08T17:50:40.000Z</time>
      </trkpt>
      <trkpt lat="42.69745" lon="0.66826">
        <ele>2079.1</ele>
        <time>2018-08-08T17:50:41.000Z</time>
      </trkpt>
      <trkpt lat="42.69745" lon="0.66826">
        <ele>2079.1</ele>
        <time>2018-08-08T17:50:42.000Z</time>
      </trkpt>
      <trkpt lat="42.69745" lon="0.66826">
        <ele>2079.1</ele>
        <time>2018-08-08T17:50:43.000Z</time>
      </trkpt>
      <trkpt lat="42.69745" lon="0.66826">
        <ele>2079.1</ele>
        <time>2018-08-08T17:50:44.000Z</time>
      </trkpt>
      <trkpt lat="42.69745" lon="0.66826">
        <ele>2079.1</ele>
        <time>2018-08-08T17:50:45.000Z</time>
      </trkpt>
      <trkpt lat="42.69745" lon="0.66826">
        <ele>2079.1</ele>
        <time>2018-08-08T17:50:46.000Z</time>
      </trkpt>
      <trkpt lat="42.69745" lon="0.66826">
        <ele>2079.1</ele>
        <time>2018-08-08T17:50:47.000Z</time>
      </trkpt>
      <trkpt lat="42.69745" lon="0.66826">
        <ele>2079.1</ele>
        <time>2018-08-08T17:50:48.000Z</time>
      </trkpt>
      <trkpt lat="42.69745" lon="0.66826">
        <ele>2079.1</ele>
        <time>2018-08-08T17:50:49.000Z</time>
      </trkpt>
      <trkpt lat="42.69745" lon="0.66826">
        <ele>2079.1</ele>
        <time>2018-08-08T17:50:50.000Z</time>
      </trkpt>
      <trkpt lat="42.69745" lon="0.66826">
        <ele>2079.1</ele>
        <time>2018-08-08T17:50:51.000Z</time>
      </trkpt>
      <trkpt lat="42.69745" lon="0.66826">
        <ele>2079.1</ele>
        <time>2018-08-08T17:50:52.000Z</time>
      </trkpt>
      <trkpt lat="42.69745" lon="0.66826">
        <ele>2079.1</ele>
        <time>2018-08-08T17:50:53.000Z</time>
      </trkpt>
      <trkpt lat="42.69745" lon="0.66826">
        <ele>2079.1</ele>
        <time>2018-08-08T17:50:54.000Z</time>
      </trkpt>
      <trkpt lat="42.69745" lon="0.66826">
        <ele>2079.1</ele>
        <time>2018-08-08T17:50:55.000Z</time>
      </trkpt>
      <trkpt lat="42.69745" lon="0.66826">
        <ele>2079.1</ele>
        <time>2018-08-08T17:50:56.000Z</time>
      </trkpt>
      <trkpt lat="42.69745" lon="0.66826">
        <ele>2079.1</ele>
        <time>2018-08-08T17:50:57.000Z</time>
      </trkpt>
      <trkpt lat="42.69745" lon="0.66826">
        <ele>2079.1</ele>
        <time>2018-08-08T17:50:58.000Z</time>
      </trkpt>
      <trkpt lat="42.69745" lon="0.66826">
        <ele>2079.1</ele>
        <time>2018-08-08T17:50:59.000Z</time>
      </trkpt>
      <trkpt lat="42.69745" lon="0.66826">
        <ele>2079.1</ele>
        <time>2018-08-08T17:51:00.000Z</time>
      </trkpt>
      <trkpt lat="42.69745" lon="0.66826">
        <ele>2079.1</ele>
        <time>2018-08-08T17:51:01.000Z</time>
      </trkpt>
      <trkpt lat="42.69745" lon="0.66826">
        <ele>2079.1</ele>
        <time>2018-08-08T17:51:02.000Z</time>
      </trkpt>
      <trkpt lat="42.69745" lon="0.66826">
        <ele>2079.1</ele>
        <time>2018-08-08T17:51:03.000Z</time>
      </trkpt>
      <trkpt lat="42.69745" lon="0.66826">
        <ele>2079.1</ele>
        <time>2018-08-08T17:51:04.000Z</time>
      </trkpt>
      <trkpt lat="42.69745" lon="0.66826">
        <ele>2079.1</ele>
        <time>2018-08-08T17:51:05.000Z</time>
      </trkpt>
      <trkpt lat="42.69745" lon="0.66826">
        <ele>2079.1</ele>
        <time>2018-08-08T17:51:06.000Z</time>
      </trkpt>
      <trkpt lat="42.69745" lon="0.66826">
        <ele>2079.1</ele>
        <time>2018-08-08T17:51:07.000Z</time>
      </trkpt>
      <trkpt lat="42.69745" lon="0.66826">
        <ele>2079.1</ele>
        <time>2018-08-08T17:51:08.000Z</time>
      </trkpt>
      <trkpt lat="42.69745" lon="0.66826">
        <ele>2079.1</ele>
        <time>2018-08-08T17:51:09.000Z</time>
      </trkpt>
      <trkpt lat="42.69745" lon="0.66826">
        <ele>2079.1</ele>
        <time>2018-08-08T17:51:10.000Z</time>
      </trkpt>
      <trkpt lat="42.69745" lon="0.66826">
        <ele>2079.1</ele>
        <time>2018-08-08T17:51:11.000Z</time>
      </trkpt>
      <trkpt lat="42.69745" lon="0.66826">
        <ele>2079.1</ele>
        <time>2018-08-08T17:51:12.000Z</time>
      </trkpt>
      <trkpt lat="42.69745" lon="0.66826">
        <ele>2079.1</ele>
        <time>2018-08-08T17:51:13.000Z</time>
      </trkpt>
      <trkpt lat="42.69745" lon="0.66826">
        <ele>2079.1</ele>
        <time>2018-08-08T17:51:14.000Z</time>
      </trkpt>
      <trkpt lat="42.69745" lon="0.66826">
        <ele>2079.1</ele>
        <time>2018-08-08T17:51:15.000Z</time>
      </trkpt>
      <trkpt lat="42.69745" lon="0.66826">
        <ele>2079.1</ele>
        <time>2018-08-08T17:51:16.000Z</time>
      </trkpt>
      <trkpt lat="42.69745" lon="0.66826">
        <ele>2079.1</ele>
        <time>2018-08-08T17:51:17.000Z</time>
      </trkpt>
      <trkpt lat="42.69745" lon="0.66826">
        <ele>2079.1</ele>
        <time>2018-08-08T17:51:18.000Z</time>
      </trkpt>
      <trkpt lat="42.69745" lon="0.66826">
        <ele>2079.1</ele>
        <time>2018-08-08T17:51:19.000Z</time>
      </trkpt>
      <trkpt lat="42.69745" lon="0.66826">
        <ele>2079.1</ele>
        <time>2018-08-08T17:51:20.000Z</time>
      </trkpt>
      <trkpt lat="42.69745" lon="0.66826">
        <ele>2079.1</ele>
        <time>2018-08-08T17:51:21.000Z</time>
      </trkpt>
      <trkpt lat="42.69745" lon="0.66826">
        <ele>2079.1</ele>
        <time>2018-08-08T17:51:22.000Z</time>
      </trkpt>
      <trkpt lat="42.69745" lon="0.66826">
        <ele>2079.1</ele>
        <time>2018-08-08T17:51:23.000Z</time>
      </trkpt>
      <trkpt lat="42.69745" lon="0.66826">
        <ele>2079.1</ele>
        <time>2018-08-08T17:51:24.000Z</time>
      </trkpt>
      <trkpt lat="42.69745" lon="0.66826">
        <ele>2079.1</ele>
        <time>2018-08-08T17:51:25.000Z</time>
      </trkpt>
      <trkpt lat="42.69745" lon="0.66826">
        <ele>2079.1</ele>
        <time>2018-08-08T17:51:26.000Z</time>
      </trkpt>
      <trkpt lat="42.69745" lon="0.66826">
        <ele>2079.1</ele>
        <time>2018-08-08T17:51:27.000Z</time>
      </trkpt>
      <trkpt lat="42.69745" lon="0.66826">
        <ele>2079.1</ele>
        <time>2018-08-08T17:51:28.000Z</time>
      </trkpt>
      <trkpt lat="42.69745" lon="0.66826">
        <ele>2079.1</ele>
        <time>2018-08-08T17:51:29.000Z</time>
      </trkpt>
      <trkpt lat="42.69745" lon="0.66826">
        <ele>2079.1</ele>
        <time>2018-08-08T17:51:30.000Z</time>
      </trkpt>
      <trkpt lat="42.69745" lon="0.66826">
        <ele>2079.1</ele>
        <time>2018-08-08T17:51:31.000Z</time>
      </trkpt>
      <trkpt lat="42.69745" lon="0.66826">
        <ele>2079.1</ele>
        <time>2018-08-08T17:51:32.000Z</time>
      </trkpt>
      <trkpt lat="42.69745" lon="0.66826">
        <ele>2079.1</ele>
        <time>2018-08-08T17:51:33.000Z</time>
      </trkpt>
      <trkpt lat="42.69745" lon="0.66826">
        <ele>2079.1</ele>
        <time>2018-08-08T17:51:34.000Z</time>
      </trkpt>
      <trkpt lat="42.69745" lon="0.66826">
        <ele>2079.1</ele>
        <time>2018-08-08T17:51:35.000Z</time>
      </trkpt>
      <trkpt lat="42.69745" lon="0.66826">
        <ele>2079.1</ele>
        <time>2018-08-08T17:51:36.000Z</time>
      </trkpt>
      <trkpt lat="42.69745" lon="0.66826">
        <ele>2079.1</ele>
        <time>2018-08-08T17:51:37.000Z</time>
      </trkpt>
      <trkpt lat="42.69745" lon="0.66826">
        <ele>2079.1</ele>
        <time>2018-08-08T17:51:38.000Z</time>
      </trkpt>
      <trkpt lat="42.69745" lon="0.66826">
        <ele>2079.1</ele>
        <time>2018-08-08T17:51:39.000Z</time>
      </trkpt>
      <trkpt lat="42.69745" lon="0.66826">
        <ele>2079.1</ele>
        <time>2018-08-08T17:51:40.000Z</time>
      </trkpt>
      <trkpt lat="42.69745" lon="0.66826">
        <ele>2079.1</ele>
        <time>2018-08-08T17:51:41.000Z</time>
      </trkpt>
      <trkpt lat="42.69745" lon="0.66826">
        <ele>2079.1</ele>
        <time>2018-08-08T17:51:42.000Z</time>
      </trkpt>
      <trkpt lat="42.69745" lon="0.66826">
        <ele>2079.1</ele>
        <time>2018-08-08T17:51:43.000Z</time>
      </trkpt>
      <trkpt lat="42.69745" lon="0.66826">
        <ele>2079.1</ele>
        <time>2018-08-08T17:51:44.000Z</time>
      </trkpt>
      <trkpt lat="42.69745" lon="0.66826">
        <ele>2079.1</ele>
        <time>2018-08-08T17:51:45.000Z</time>
      </trkpt>
      <trkpt lat="42.69745" lon="0.66826">
        <ele>2079.1</ele>
        <time>2018-08-08T17:51:46.000Z</time>
      </trkpt>
      <trkpt lat="42.69745" lon="0.66826">
        <ele>2079.1</ele>
        <time>2018-08-08T17:51:47.000Z</time>
      </trkpt>
      <trkpt lat="42.69745" lon="0.66826">
        <ele>2079.1</ele>
        <time>2018-08-08T17:51:48.000Z</time>
      </trkpt>
      <trkpt lat="42.69745" lon="0.66826">
        <ele>2079.1</ele>
        <time>2018-08-08T17:51:49.000Z</time>
      </trkpt>
      <trkpt lat="42.69745" lon="0.66826">
        <ele>2079.1</ele>
        <time>2018-08-08T17:51:50.000Z</time>
      </trkpt>
      <trkpt lat="42.69745" lon="0.66826">
        <ele>2079.1</ele>
        <time>2018-08-08T17:51:51.000Z</time>
      </trkpt>
      <trkpt lat="42.69745" lon="0.66826">
        <ele>2079.1</ele>
        <time>2018-08-08T17:51:52.000Z</time>
      </trkpt>
      <trkpt lat="42.69745" lon="0.66826">
        <ele>2079.1</ele>
        <time>2018-08-08T17:51:53.000Z</time>
      </trkpt>
      <trkpt lat="42.69745" lon="0.66826">
        <ele>2079.1</ele>
        <time>2018-08-08T17:51:54.000Z</time>
      </trkpt>
      <trkpt lat="42.69745" lon="0.66826">
        <ele>2079.1</ele>
        <time>2018-08-08T17:51:55.000Z</time>
      </trkpt>
      <trkpt lat="42.69745" lon="0.66826">
        <ele>2079.1</ele>
        <time>2018-08-08T17:51:56.000Z</time>
      </trkpt>
      <trkpt lat="42.69745" lon="0.66826">
        <ele>2079.1</ele>
        <time>2018-08-08T17:51:57.000Z</time>
      </trkpt>
      <trkpt lat="42.69745" lon="0.66826">
        <ele>2079.1</ele>
        <time>2018-08-08T17:51:58.000Z</time>
      </trkpt>
      <trkpt lat="42.69745" lon="0.66826">
        <ele>2079.1</ele>
        <time>2018-08-08T17:51:59.000Z</time>
      </trkpt>
      <trkpt lat="42.69745" lon="0.66826">
        <ele>2079.1</ele>
        <time>2018-08-08T17:52:00.000Z</time>
      </trkpt>
      <trkpt lat="42.69745" lon="0.66826">
        <ele>2079.1</ele>
        <time>2018-08-08T17:52:01.000Z</time>
      </trkpt>
      <trkpt lat="42.69745" lon="0.66826">
        <ele>2079.1</ele>
        <time>2018-08-08T17:52:02.000Z</time>
      </trkpt>
      <trkpt lat="42.69745" lon="0.66826">
        <ele>2079.1</ele>
        <time>2018-08-08T17:52:03.000Z</time>
      </trkpt>
      <trkpt lat="42.69745" lon="0.66826">
        <ele>2079.1</ele>
        <time>2018-08-08T17:52:04.000Z</time>
      </trkpt>
      <trkpt lat="42.69745" lon="0.66826">
        <ele>2079.1</ele>
        <time>2018-08-08T17:52:05.000Z</time>
      </trkpt>
      <trkpt lat="42.69745" lon="0.66826">
        <ele>2079.1</ele>
        <time>2018-08-08T17:52:06.000Z</time>
      </trkpt>
      <trkpt lat="42.69745" lon="0.66826">
        <ele>2079.1</ele>
        <time>2018-08-08T17:52:07.000Z</time>
      </trkpt>
      <trkpt lat="42.69745" lon="0.66826">
        <ele>2079.1</ele>
        <time>2018-08-08T17:52:08.000Z</time>
      </trkpt>
      <trkpt lat="42.69745" lon="0.66826">
        <ele>2079.1</ele>
        <time>2018-08-08T17:52:09.000Z</time>
      </trkpt>
      <trkpt lat="42.69745" lon="0.66826">
        <ele>2079.1</ele>
        <time>2018-08-08T17:52:10.000Z</time>
      </trkpt>
      <trkpt lat="42.69745" lon="0.66826">
        <ele>2079.1</ele>
        <time>2018-08-08T17:52:11.000Z</time>
      </trkpt>
      <trkpt lat="42.69745" lon="0.66826">
        <ele>2079.1</ele>
        <time>2018-08-08T17:52:12.000Z</time>
      </trkpt>
      <trkpt lat="42.69745" lon="0.66826">
        <ele>2079.1</ele>
        <time>2018-08-08T17:52:13.000Z</time>
      </trkpt>
      <trkpt lat="42.69745" lon="0.66826">
        <ele>2079.1</ele>
        <time>2018-08-08T17:52:14.000Z</time>
      </trkpt>
      <trkpt lat="42.69745" lon="0.66826">
        <ele>2079.1</ele>
        <time>2018-08-08T17:52:15.000Z</time>
      </trkpt>
      <trkpt lat="42.69745" lon="0.66826">
        <ele>2079.1</ele>
        <time>2018-08-08T17:52:16.000Z</time>
      </trkpt>
      <trkpt lat="42.69745" lon="0.66826">
        <ele>2079.1</ele>
        <time>2018-08-08T17:52:17.000Z</time>
      </trkpt>
      <trkpt lat="42.69745" lon="0.66826">
        <ele>2079.1</ele>
        <time>2018-08-08T17:52:18.000Z</time>
      </trkpt>
      <trkpt lat="42.69745" lon="0.66826">
        <ele>2079.1</ele>
        <time>2018-08-08T17:52:19.000Z</time>
      </trkpt>
      <trkpt lat="42.69745" lon="0.66826">
        <ele>2079.1</ele>
        <time>2018-08-08T17:52:20.000Z</time>
      </trkpt>
      <trkpt lat="42.69745" lon="0.66826">
        <ele>2079.1</ele>
        <time>2018-08-08T17:52:21.000Z</time>
      </trkpt>
      <trkpt lat="42.69745" lon="0.66826">
        <ele>2079.1</ele>
        <time>2018-08-08T17:52:22.000Z</time>
      </trkpt>
      <trkpt lat="42.69745" lon="0.66826">
        <ele>2079.1</ele>
        <time>2018-08-08T17:52:23.000Z</time>
      </trkpt>
      <trkpt lat="42.69745" lon="0.66826">
        <ele>2079.1</ele>
        <time>2018-08-08T17:52:24.000Z</time>
      </trkpt>
      <trkpt lat="42.69745" lon="0.66826">
        <ele>2079.1</ele>
        <time>2018-08-08T17:52:25.000Z</time>
      </trkpt>
      <trkpt lat="42.69745" lon="0.66826">
        <ele>2079.1</ele>
        <time>2018-08-08T17:52:26.000Z</time>
      </trkpt>
      <trkpt lat="42.69745" lon="0.66826">
        <ele>2079.1</ele>
        <time>2018-08-08T17:52:27.000Z</time>
      </trkpt>
      <trkpt lat="42.69745" lon="0.66826">
        <ele>2079.1</ele>
        <time>2018-08-08T17:52:28.000Z</time>
      </trkpt>
      <trkpt lat="42.69745" lon="0.66826">
        <ele>2079.1</ele>
        <time>2018-08-08T17:52:29.000Z</time>
      </trkpt>
      <trkpt lat="42.69745" lon="0.66826">
        <ele>2079.1</ele>
        <time>2018-08-08T17:52:30.000Z</time>
      </trkpt>
      <trkpt lat="42.69745" lon="0.66826">
        <ele>2079.1</ele>
        <time>2018-08-08T17:52:31.000Z</time>
      </trkpt>
      <trkpt lat="42.69745" lon="0.66826">
        <ele>2079.1</ele>
        <time>2018-08-08T17:52:32.000Z</time>
      </trkpt>
      <trkpt lat="42.69745" lon="0.66826">
        <ele>2079.1</ele>
        <time>2018-08-08T17:52:33.000Z</time>
      </trkpt>
      <trkpt lat="42.69745" lon="0.66826">
        <ele>2079.1</ele>
        <time>2018-08-08T17:52:34.000Z</time>
      </trkpt>
      <trkpt lat="42.69745" lon="0.66826">
        <ele>2079.1</ele>
        <time>2018-08-08T17:52:35.000Z</time>
      </trkpt>
      <trkpt lat="42.69745" lon="0.66826">
        <ele>2079.1</ele>
        <time>2018-08-08T17:52:36.000Z</time>
      </trkpt>
      <trkpt lat="42.69745" lon="0.66826">
        <ele>2079.1</ele>
        <time>2018-08-08T17:52:37.000Z</time>
      </trkpt>
      <trkpt lat="42.69745" lon="0.66826">
        <ele>2079.1</ele>
        <time>2018-08-08T17:52:38.000Z</time>
      </trkpt>
      <trkpt lat="42.69745" lon="0.66826">
        <ele>2079.1</ele>
        <time>2018-08-08T17:52:39.000Z</time>
      </trkpt>
      <trkpt lat="42.69745" lon="0.66826">
        <ele>2079.1</ele>
        <time>2018-08-08T17:52:40.000Z</time>
      </trkpt>
      <trkpt lat="42.69745" lon="0.66826">
        <ele>2079.1</ele>
        <time>2018-08-08T17:52:41.000Z</time>
      </trkpt>
      <trkpt lat="42.69745" lon="0.66826">
        <ele>2079.1</ele>
        <time>2018-08-08T17:52:42.000Z</time>
      </trkpt>
      <trkpt lat="42.69745" lon="0.66826">
        <ele>2079.1</ele>
        <time>2018-08-08T17:52:43.000Z</time>
      </trkpt>
      <trkpt lat="42.69745" lon="0.66826">
        <ele>2079.1</ele>
        <time>2018-08-08T17:52:44.000Z</time>
      </trkpt>
      <trkpt lat="42.69745" lon="0.66826">
        <ele>2079.1</ele>
        <time>2018-08-08T17:52:45.000Z</time>
      </trkpt>
      <trkpt lat="42.69745" lon="0.66826">
        <ele>2079.1</ele>
        <time>2018-08-08T17:52:46.000Z</time>
      </trkpt>
      <trkpt lat="42.69745" lon="0.66826">
        <ele>2079.1</ele>
        <time>2018-08-08T17:52:47.000Z</time>
      </trkpt>
      <trkpt lat="42.69745" lon="0.66826">
        <ele>2079.1</ele>
        <time>2018-08-08T17:52:48.000Z</time>
      </trkpt>
      <trkpt lat="42.69745" lon="0.66826">
        <ele>2079.1</ele>
        <time>2018-08-08T17:52:49.000Z</time>
      </trkpt>
      <trkpt lat="42.69745" lon="0.66826">
        <ele>2079.1</ele>
        <time>2018-08-08T17:52:50.000Z</time>
      </trkpt>
      <trkpt lat="42.69745" lon="0.66826">
        <ele>2079.1</ele>
        <time>2018-08-08T17:52:51.000Z</time>
      </trkpt>
      <trkpt lat="42.69745" lon="0.66826">
        <ele>2079.1</ele>
        <time>2018-08-08T17:52:52.000Z</time>
      </trkpt>
      <trkpt lat="42.69745" lon="0.66826">
        <ele>2079.1</ele>
        <time>2018-08-08T17:52:53.000Z</time>
      </trkpt>
      <trkpt lat="42.69745" lon="0.66826">
        <ele>2079.1</ele>
        <time>2018-08-08T17:52:54.000Z</time>
      </trkpt>
      <trkpt lat="42.69745" lon="0.66826">
        <ele>2079.1</ele>
        <time>2018-08-08T17:52:55.000Z</time>
      </trkpt>
      <trkpt lat="42.69745" lon="0.66826">
        <ele>2079.1</ele>
        <time>2018-08-08T17:52:56.000Z</time>
      </trkpt>
      <trkpt lat="42.69745" lon="0.66826">
        <ele>2079.1</ele>
        <time>2018-08-08T17:52:57.000Z</time>
      </trkpt>
      <trkpt lat="42.69745" lon="0.66826">
        <ele>2079.1</ele>
        <time>2018-08-08T17:52:58.000Z</time>
      </trkpt>
      <trkpt lat="42.69745" lon="0.66826">
        <ele>2079.1</ele>
        <time>2018-08-08T17:52:59.000Z</time>
      </trkpt>
      <trkpt lat="42.69745" lon="0.66826">
        <ele>2079.1</ele>
        <time>2018-08-08T17:53:00.000Z</time>
      </trkpt>
      <trkpt lat="42.69745" lon="0.66826">
        <ele>2079.1</ele>
        <time>2018-08-08T17:53:01.000Z</time>
      </trkpt>
      <trkpt lat="42.69745" lon="0.66826">
        <ele>2079.1</ele>
        <time>2018-08-08T17:53:02.000Z</time>
      </trkpt>
      <trkpt lat="42.69745" lon="0.66826">
        <ele>2079.1</ele>
        <time>2018-08-08T17:53:03.000Z</time>
      </trkpt>
      <trkpt lat="42.69745" lon="0.66826">
        <ele>2079.1</ele>
        <time>2018-08-08T17:53:04.000Z</time>
      </trkpt>
      <trkpt lat="42.69745" lon="0.66826">
        <ele>2079.1</ele>
        <time>2018-08-08T17:53:05.000Z</time>
      </trkpt>
      <trkpt lat="42.69745" lon="0.66826">
        <ele>2079.1</ele>
        <time>2018-08-08T17:53:06.000Z</time>
      </trkpt>
      <trkpt lat="42.69745" lon="0.66826">
        <ele>2079.1</ele>
        <time>2018-08-08T17:53:07.000Z</time>
      </trkpt>
      <trkpt lat="42.69745" lon="0.66826">
        <ele>2079.1</ele>
        <time>2018-08-08T17:53:08.000Z</time>
      </trkpt>
      <trkpt lat="42.69745" lon="0.66826">
        <ele>2079.1</ele>
        <time>2018-08-08T17:53:09.000Z</time>
      </trkpt>
      <trkpt lat="42.69745" lon="0.66826">
        <ele>2079.1</ele>
        <time>2018-08-08T17:53:10.000Z</time>
      </trkpt>
      <trkpt lat="42.69745" lon="0.66826">
        <ele>2079.1</ele>
        <time>2018-08-08T17:53:11.000Z</time>
      </trkpt>
      <trkpt lat="42.69745" lon="0.66826">
        <ele>2079.1</ele>
        <time>2018-08-08T17:53:12.000Z</time>
      </trkpt>
      <trkpt lat="42.69745" lon="0.66826">
        <ele>2079.1</ele>
        <time>2018-08-08T17:53:13.000Z</time>
      </trkpt>
      <trkpt lat="42.69745" lon="0.66826">
        <ele>2079.1</ele>
        <time>2018-08-08T17:53:14.000Z</time>
      </trkpt>
      <trkpt lat="42.69745" lon="0.66826">
        <ele>2079.1</ele>
        <time>2018-08-08T17:53:15.000Z</time>
      </trkpt>
      <trkpt lat="42.69745" lon="0.66826">
        <ele>2079.1</ele>
        <time>2018-08-08T17:53:16.000Z</time>
      </trkpt>
      <trkpt lat="42.69745" lon="0.66826">
        <ele>2079.1</ele>
        <time>2018-08-08T17:53:17.000Z</time>
      </trkpt>
      <trkpt lat="42.69745" lon="0.66826">
        <ele>2079.1</ele>
        <time>2018-08-08T17:53:18.000Z</time>
      </trkpt>
      <trkpt lat="42.69745" lon="0.66826">
        <ele>2079.1</ele>
        <time>2018-08-08T17:53:19.000Z</time>
      </trkpt>
      <trkpt lat="42.69745" lon="0.66826">
        <ele>2079.1</ele>
        <time>2018-08-08T17:53:20.000Z</time>
      </trkpt>
      <trkpt lat="42.69745" lon="0.66826">
        <ele>2079.1</ele>
        <time>2018-08-08T17:53:21.000Z</time>
      </trkpt>
      <trkpt lat="42.69745" lon="0.66826">
        <ele>2079.1</ele>
        <time>2018-08-08T17:53:22.000Z</time>
      </trkpt>
      <trkpt lat="42.69745" lon="0.66826">
        <ele>2079.1</ele>
        <time>2018-08-08T17:53:23.000Z</time>
      </trkpt>
      <trkpt lat="42.69745" lon="0.66826">
        <ele>2079.1</ele>
        <time>2018-08-08T17:53:24.000Z</time>
      </trkpt>
      <trkpt lat="42.69745" lon="0.66826">
        <ele>2079.1</ele>
        <time>2018-08-08T17:53:25.000Z</time>
      </trkpt>
      <trkpt lat="42.69745" lon="0.66826">
        <ele>2079.1</ele>
        <time>2018-08-08T17:53:26.000Z</time>
      </trkpt>
      <trkpt lat="42.69745" lon="0.66826">
        <ele>2079.1</ele>
        <time>2018-08-08T17:53:27.000Z</time>
      </trkpt>
      <trkpt lat="42.69745" lon="0.66826">
        <ele>2079.1</ele>
        <time>2018-08-08T17:53:28.000Z</time>
      </trkpt>
      <trkpt lat="42.69745" lon="0.66826">
        <ele>2079.1</ele>
        <time>2018-08-08T17:53:29.000Z</time>
      </trkpt>
      <trkpt lat="42.69745" lon="0.66826">
        <ele>2079.1</ele>
        <time>2018-08-08T17:53:30.000Z</time>
      </trkpt>
      <trkpt lat="42.69745" lon="0.66826">
        <ele>2079.1</ele>
        <time>2018-08-08T17:53:31.000Z</time>
      </trkpt>
      <trkpt lat="42.69745" lon="0.66826">
        <ele>2079.1</ele>
        <time>2018-08-08T17:53:32.000Z</time>
      </trkpt>
      <trkpt lat="42.69745" lon="0.66826">
        <ele>2079.1</ele>
        <time>2018-08-08T17:53:33.000Z</time>
      </trkpt>
      <trkpt lat="42.69745" lon="0.66826">
        <ele>2079.1</ele>
        <time>2018-08-08T17:53:34.000Z</time>
      </trkpt>
      <trkpt lat="42.69745" lon="0.66826">
        <ele>2079.1</ele>
        <time>2018-08-08T17:53:35.000Z</time>
      </trkpt>
      <trkpt lat="42.69745" lon="0.66826">
        <ele>2079.1</ele>
        <time>2018-08-08T17:53:36.000Z</time>
      </trkpt>
      <trkpt lat="42.69745" lon="0.66826">
        <ele>2079.1</ele>
        <time>2018-08-08T17:53:37.000Z</time>
      </trkpt>
      <trkpt lat="42.69745" lon="0.66826">
        <ele>2079.1</ele>
        <time>2018-08-08T17:53:38.000Z</time>
      </trkpt>
      <trkpt lat="42.69745" lon="0.66826">
        <ele>2079.1</ele>
        <time>2018-08-08T17:53:39.000Z</time>
      </trkpt>
      <trkpt lat="42.69745" lon="0.66826">
        <ele>2079.1</ele>
        <time>2018-08-08T17:53:40.000Z</time>
      </trkpt>
      <trkpt lat="42.69745" lon="0.66826">
        <ele>2079.1</ele>
        <time>2018-08-08T17:53:41.000Z</time>
      </trkpt>
      <trkpt lat="42.69745" lon="0.66826">
        <ele>2079.1</ele>
        <time>2018-08-08T17:53:42.000Z</time>
      </trkpt>
      <trkpt lat="42.69745" lon="0.66826">
        <ele>2079.1</ele>
        <time>2018-08-08T17:53:43.000Z</time>
      </trkpt>
      <trkpt lat="42.69745" lon="0.66826">
        <ele>2079.1</ele>
        <time>2018-08-08T17:53:44.000Z</time>
      </trkpt>
      <trkpt lat="42.69745" lon="0.66826">
        <ele>2079.1</ele>
        <time>2018-08-08T17:53:45.000Z</time>
      </trkpt>
      <trkpt lat="42.69745" lon="0.66826">
        <ele>2079.1</ele>
        <time>2018-08-08T17:53:46.000Z</time>
      </trkpt>
      <trkpt lat="42.69745" lon="0.66826">
        <ele>2079.1</ele>
        <time>2018-08-08T17:53:47.000Z</time>
      </trkpt>
      <trkpt lat="42.69745" lon="0.66826">
        <ele>2079.1</ele>
        <time>2018-08-08T17:53:48.000Z</time>
      </trkpt>
      <trkpt lat="42.69745" lon="0.66826">
        <ele>2079.1</ele>
        <time>2018-08-08T17:53:49.000Z</time>
      </trkpt>
      <trkpt lat="42.69745" lon="0.66826">
        <ele>2079.1</ele>
        <time>2018-08-08T17:53:50.000Z</time>
      </trkpt>
      <trkpt lat="42.69745" lon="0.66826">
        <ele>2079.1</ele>
        <time>2018-08-08T17:53:51.000Z</time>
      </trkpt>
      <trkpt lat="42.69745" lon="0.66826">
        <ele>2079.1</ele>
        <time>2018-08-08T17:53:52.000Z</time>
      </trkpt>
      <trkpt lat="42.69745" lon="0.66826">
        <ele>2079.1</ele>
        <time>2018-08-08T17:53:53.000Z</time>
      </trkpt>
      <trkpt lat="42.69745" lon="0.66826">
        <ele>2079.1</ele>
        <time>2018-08-08T17:53:54.000Z</time>
      </trkpt>
      <trkpt lat="42.69745" lon="0.66826">
        <ele>2079.1</ele>
        <time>2018-08-08T17:53:55.000Z</time>
      </trkpt>
      <trkpt lat="42.69745" lon="0.66826">
        <ele>2079.1</ele>
        <time>2018-08-08T17:53:56.000Z</time>
      </trkpt>
      <trkpt lat="42.69745" lon="0.66826">
        <ele>2079.1</ele>
        <time>2018-08-08T17:53:57.000Z</time>
      </trkpt>
      <trkpt lat="42.69745" lon="0.66826">
        <ele>2079.1</ele>
        <time>2018-08-08T17:53:58.000Z</time>
      </trkpt>
      <trkpt lat="42.69745" lon="0.66826">
        <ele>2079.1</ele>
        <time>2018-08-08T17:53:59.000Z</time>
      </trkpt>
      <trkpt lat="42.69745" lon="0.66826">
        <ele>2079.1</ele>
        <time>2018-08-08T17:54:00.000Z</time>
      </trkpt>
      <trkpt lat="42.69745" lon="0.66826">
        <ele>2079.1</ele>
        <time>2018-08-08T17:54:01.000Z</time>
      </trkpt>
      <trkpt lat="42.69745" lon="0.66826">
        <ele>2079.1</ele>
        <time>2018-08-08T17:54:02.000Z</time>
      </trkpt>
      <trkpt lat="42.69745" lon="0.66826">
        <ele>2079.1</ele>
        <time>2018-08-08T17:54:03.000Z</time>
      </trkpt>
      <trkpt lat="42.69745" lon="0.66826">
        <ele>2079.1</ele>
        <time>2018-08-08T17:54:04.000Z</time>
      </trkpt>
      <trkpt lat="42.69745" lon="0.66826">
        <ele>2079.1</ele>
        <time>2018-08-08T17:54:05.000Z</time>
      </trkpt>
      <trkpt lat="42.69745" lon="0.66826">
        <ele>2079.1</ele>
        <time>2018-08-08T17:54:06.000Z</time>
      </trkpt>
      <trkpt lat="42.69745" lon="0.66826">
        <ele>2079.1</ele>
        <time>2018-08-08T17:54:07.000Z</time>
      </trkpt>
      <trkpt lat="42.69745" lon="0.66826">
        <ele>2079.1</ele>
        <time>2018-08-08T17:54:08.000Z</time>
      </trkpt>
      <trkpt lat="42.69745" lon="0.66826">
        <ele>2079.1</ele>
        <time>2018-08-08T17:54:09.000Z</time>
      </trkpt>
      <trkpt lat="42.69745" lon="0.66826">
        <ele>2079.1</ele>
        <time>2018-08-08T17:54:10.000Z</time>
      </trkpt>
      <trkpt lat="42.69745" lon="0.66826">
        <ele>2079.1</ele>
        <time>2018-08-08T17:54:11.000Z</time>
      </trkpt>
      <trkpt lat="42.69745" lon="0.66826">
        <ele>2079.1</ele>
        <time>2018-08-08T17:54:12.000Z</time>
      </trkpt>
      <trkpt lat="42.69745" lon="0.66826">
        <ele>2079.1</ele>
        <time>2018-08-08T17:54:13.000Z</time>
      </trkpt>
      <trkpt lat="42.69745" lon="0.66826">
        <ele>2079.1</ele>
        <time>2018-08-08T17:54:14.000Z</time>
      </trkpt>
      <trkpt lat="42.69745" lon="0.66826">
        <ele>2079.1</ele>
        <time>2018-08-08T17:54:15.000Z</time>
      </trkpt>
      <trkpt lat="42.69745" lon="0.66826">
        <ele>2079.1</ele>
        <time>2018-08-08T17:54:16.000Z</time>
      </trkpt>
      <trkpt lat="42.69745" lon="0.66826">
        <ele>2079.1</ele>
        <time>2018-08-08T17:54:17.000Z</time>
      </trkpt>
      <trkpt lat="42.69745" lon="0.66826">
        <ele>2079.1</ele>
        <time>2018-08-08T17:54:18.000Z</time>
      </trkpt>
      <trkpt lat="42.69745" lon="0.66826">
        <ele>2079.1</ele>
        <time>2018-08-08T17:54:19.000Z</time>
      </trkpt>
      <trkpt lat="42.69745" lon="0.66826">
        <ele>2079.1</ele>
        <time>2018-08-08T17:54:20.000Z</time>
      </trkpt>
      <trkpt lat="42.69745" lon="0.66826">
        <ele>2079.1</ele>
        <time>2018-08-08T17:54:21.000Z</time>
      </trkpt>
      <trkpt lat="42.69745" lon="0.66826">
        <ele>2079.1</ele>
        <time>2018-08-08T17:54:22.000Z</time>
      </trkpt>
      <trkpt lat="42.69745" lon="0.66826">
        <ele>2079.1</ele>
        <time>2018-08-08T17:54:23.000Z</time>
      </trkpt>
      <trkpt lat="42.69745" lon="0.66826">
        <ele>2079.1</ele>
        <time>2018-08-08T17:54:24.000Z</time>
      </trkpt>
      <trkpt lat="42.69745" lon="0.66826">
        <ele>2079.1</ele>
        <time>2018-08-08T17:54:25.000Z</time>
      </trkpt>
      <trkpt lat="42.69745" lon="0.66826">
        <ele>2079.1</ele>
        <time>2018-08-08T17:54:26.000Z</time>
      </trkpt>
      <trkpt lat="42.69745" lon="0.66826">
        <ele>2079.1</ele>
        <time>2018-08-08T17:54:27.000Z</time>
      </trkpt>
      <trkpt lat="42.69745" lon="0.66826">
        <ele>2079.1</ele>
        <time>2018-08-08T17:54:28.000Z</time>
      </trkpt>
      <trkpt lat="42.69745" lon="0.66826">
        <ele>2079.1</ele>
        <time>2018-08-08T17:54:29.000Z</time>
      </trkpt>
      <trkpt lat="42.69745" lon="0.66826">
        <ele>2079.1</ele>
        <time>2018-08-08T17:54:30.000Z</time>
      </trkpt>
      <trkpt lat="42.69745" lon="0.66826">
        <ele>2079.1</ele>
        <time>2018-08-08T17:54:31.000Z</time>
      </trkpt>
      <trkpt lat="42.69745" lon="0.66826">
        <ele>2079.1</ele>
        <time>2018-08-08T17:54:32.000Z</time>
      </trkpt>
      <trkpt lat="42.69745" lon="0.66826">
        <ele>2079.1</ele>
        <time>2018-08-08T17:54:33.000Z</time>
      </trkpt>
      <trkpt lat="42.69745" lon="0.66826">
        <ele>2079.1</ele>
        <time>2018-08-08T17:54:34.000Z</time>
      </trkpt>
      <trkpt lat="42.69745" lon="0.66826">
        <ele>2079.1</ele>
        <time>2018-08-08T17:54:35.000Z</time>
      </trkpt>
      <trkpt lat="42.69745" lon="0.66826">
        <ele>2079.1</ele>
        <time>2018-08-08T17:54:36.000Z</time>
      </trkpt>
      <trkpt lat="42.69745" lon="0.66826">
        <ele>2079.1</ele>
        <time>2018-08-08T17:54:37.000Z</time>
      </trkpt>
      <trkpt lat="42.69745" lon="0.66826">
        <ele>2079.1</ele>
        <time>2018-08-08T17:54:38.000Z</time>
      </trkpt>
      <trkpt lat="42.69745" lon="0.66826">
        <ele>2079.1</ele>
        <time>2018-08-08T17:54:39.000Z</time>
      </trkpt>
      <trkpt lat="42.69745" lon="0.66826">
        <ele>2079.1</ele>
        <time>2018-08-08T17:54:40.000Z</time>
      </trkpt>
      <trkpt lat="42.69745" lon="0.66826">
        <ele>2079.1</ele>
        <time>2018-08-08T17:54:41.000Z</time>
      </trkpt>
      <trkpt lat="42.69745" lon="0.66826">
        <ele>2079.1</ele>
        <time>2018-08-08T17:54:42.000Z</time>
      </trkpt>
      <trkpt lat="42.69745" lon="0.66826">
        <ele>2079.1</ele>
        <time>2018-08-08T17:54:43.000Z</time>
      </trkpt>
      <trkpt lat="42.69745" lon="0.66826">
        <ele>2079.1</ele>
        <time>2018-08-08T17:54:44.000Z</time>
      </trkpt>
      <trkpt lat="42.69745" lon="0.66826">
        <ele>2079.1</ele>
        <time>2018-08-08T17:54:45.000Z</time>
      </trkpt>
      <trkpt lat="42.69745" lon="0.66826">
        <ele>2079.1</ele>
        <time>2018-08-08T17:54:46.000Z</time>
      </trkpt>
      <trkpt lat="42.69745" lon="0.66826">
        <ele>2079.1</ele>
        <time>2018-08-08T17:54:47.000Z</time>
      </trkpt>
      <trkpt lat="42.69745" lon="0.66826">
        <ele>2079.1</ele>
        <time>2018-08-08T17:54:48.000Z</time>
      </trkpt>
      <trkpt lat="42.69745" lon="0.66826">
        <ele>2079.1</ele>
        <time>2018-08-08T17:54:49.000Z</time>
      </trkpt>
      <trkpt lat="42.69745" lon="0.66826">
        <ele>2079.1</ele>
        <time>2018-08-08T17:54:50.000Z</time>
      </trkpt>
      <trkpt lat="42.69745" lon="0.66826">
        <ele>2079.1</ele>
        <time>2018-08-08T17:54:51.000Z</time>
      </trkpt>
      <trkpt lat="42.69745" lon="0.66826">
        <ele>2079.1</ele>
        <time>2018-08-08T17:54:52.000Z</time>
      </trkpt>
      <trkpt lat="42.69745" lon="0.66826">
        <ele>2079.1</ele>
        <time>2018-08-08T17:54:53.000Z</time>
      </trkpt>
      <trkpt lat="42.69745" lon="0.66826">
        <ele>2079.1</ele>
        <time>2018-08-08T17:54:54.000Z</time>
      </trkpt>
      <trkpt lat="42.69745" lon="0.66826">
        <ele>2079.1</ele>
        <time>2018-08-08T17:54:55.000Z</time>
      </trkpt>
      <trkpt lat="42.69745" lon="0.66826">
        <ele>2079.1</ele>
        <time>2018-08-08T17:54:56.000Z</time>
      </trkpt>
      <trkpt lat="42.69745" lon="0.66826">
        <ele>2079.1</ele>
        <time>2018-08-08T17:54:57.000Z</time>
      </trkpt>
      <trkpt lat="42.69745" lon="0.66826">
        <ele>2079.1</ele>
        <time>2018-08-08T17:54:58.000Z</time>
      </trkpt>
      <trkpt lat="42.69745" lon="0.66826">
        <ele>2079.1</ele>
        <time>2018-08-08T17:54:59.000Z</time>
      </trkpt>
      <trkpt lat="42.69745" lon="0.66826">
        <ele>2079.1</ele>
        <time>2018-08-08T17:55:00.000Z</time>
      </trkpt>
      <trkpt lat="42.69745" lon="0.66826">
        <ele>2079.1</ele>
        <time>2018-08-08T17:55:01.000Z</time>
      </trkpt>
      <trkpt lat="42.69745" lon="0.66826">
        <ele>2079.1</ele>
        <time>2018-08-08T17:55:02.000Z</time>
      </trkpt>
      <trkpt lat="42.69745" lon="0.66826">
        <ele>2079.1</ele>
        <time>2018-08-08T17:55:03.000Z</time>
      </trkpt>
      <trkpt lat="42.69745" lon="0.66826">
        <ele>2079.1</ele>
        <time>2018-08-08T17:55:04.000Z</time>
      </trkpt>
      <trkpt lat="42.69745" lon="0.66826">
        <ele>2079.1</ele>
        <time>2018-08-08T17:55:05.000Z</time>
      </trkpt>
      <trkpt lat="42.69745" lon="0.66826">
        <ele>2079.1</ele>
        <time>2018-08-08T17:55:06.000Z</time>
      </trkpt>
      <trkpt lat="42.69745" lon="0.66826">
        <ele>2079.1</ele>
        <time>2018-08-08T17:55:07.000Z</time>
      </trkpt>
      <trkpt lat="42.69745" lon="0.66826">
        <ele>2079.1</ele>
        <time>2018-08-08T17:55:08.000Z</time>
      </trkpt>
      <trkpt lat="42.69745" lon="0.66826">
        <ele>2079.1</ele>
        <time>2018-08-08T17:55:09.000Z</time>
      </trkpt>
      <trkpt lat="42.69745" lon="0.66826">
        <ele>2079.1</ele>
        <time>2018-08-08T17:55:10.000Z</time>
      </trkpt>
      <trkpt lat="42.69745" lon="0.66826">
        <ele>2079.1</ele>
        <time>2018-08-08T17:55:11.000Z</time>
      </trkpt>
      <trkpt lat="42.69745" lon="0.66826">
        <ele>2079.1</ele>
        <time>2018-08-08T17:55:12.000Z</time>
      </trkpt>
      <trkpt lat="42.69745" lon="0.66826">
        <ele>2079.1</ele>
        <time>2018-08-08T17:55:13.000Z</time>
      </trkpt>
      <trkpt lat="42.69745" lon="0.66826">
        <ele>2079.1</ele>
        <time>2018-08-08T17:55:14.000Z</time>
      </trkpt>
      <trkpt lat="42.69745" lon="0.66826">
        <ele>2079.1</ele>
        <time>2018-08-08T17:55:15.000Z</time>
      </trkpt>
      <trkpt lat="42.69745" lon="0.66826">
        <ele>2079.1</ele>
        <time>2018-08-08T17:55:16.000Z</time>
      </trkpt>
      <trkpt lat="42.69745" lon="0.66826">
        <ele>2079.1</ele>
        <time>2018-08-08T17:55:17.000Z</time>
      </trkpt>
      <trkpt lat="42.69745" lon="0.66826">
        <ele>2079.1</ele>
        <time>2018-08-08T17:55:18.000Z</time>
      </trkpt>
      <trkpt lat="42.69745" lon="0.66826">
        <ele>2079.1</ele>
        <time>2018-08-08T17:55:19.000Z</time>
      </trkpt>
      <trkpt lat="42.69745" lon="0.66826">
        <ele>2079.1</ele>
        <time>2018-08-08T17:55:20.000Z</time>
      </trkpt>
      <trkpt lat="42.69745" lon="0.66826">
        <ele>2079.1</ele>
        <time>2018-08-08T17:55:21.000Z</time>
      </trkpt>
      <trkpt lat="42.69745" lon="0.66826">
        <ele>2079.1</ele>
        <time>2018-08-08T17:55:22.000Z</time>
      </trkpt>
      <trkpt lat="42.69745" lon="0.66826">
        <ele>2079.1</ele>
        <time>2018-08-08T17:55:23.000Z</time>
      </trkpt>
      <trkpt lat="42.69745" lon="0.66826">
        <ele>2079.1</ele>
        <time>2018-08-08T17:55:24.000Z</time>
      </trkpt>
      <trkpt lat="42.69745" lon="0.66826">
        <ele>2079.1</ele>
        <time>2018-08-08T17:55:25.000Z</time>
      </trkpt>
      <trkpt lat="42.69745" lon="0.66826">
        <ele>2079.1</ele>
        <time>2018-08-08T17:55:26.000Z</time>
      </trkpt>
      <trkpt lat="42.69745" lon="0.66826">
        <ele>2079.1</ele>
        <time>2018-08-08T17:55:27.000Z</time>
      </trkpt>
      <trkpt lat="42.69745" lon="0.66826">
        <ele>2079.1</ele>
        <time>2018-08-08T17:55:28.000Z</time>
      </trkpt>
      <trkpt lat="42.69745" lon="0.66826">
        <ele>2079.1</ele>
        <time>2018-08-08T17:55:29.000Z</time>
      </trkpt>
      <trkpt lat="42.69745" lon="0.66826">
        <ele>2079.1</ele>
        <time>2018-08-08T17:55:30.000Z</time>
      </trkpt>
      <trkpt lat="42.69745" lon="0.66826">
        <ele>2079.1</ele>
        <time>2018-08-08T17:55:31.000Z</time>
      </trkpt>
      <trkpt lat="42.69745" lon="0.66826">
        <ele>2079.1</ele>
        <time>2018-08-08T17:55:32.000Z</time>
      </trkpt>
      <trkpt lat="42.69745" lon="0.66826">
        <ele>2079.1</ele>
        <time>2018-08-08T17:55:33.000Z</time>
      </trkpt>
      <trkpt lat="42.69745" lon="0.66826">
        <ele>2079.1</ele>
        <time>2018-08-08T17:55:34.000Z</time>
      </trkpt>
      <trkpt lat="42.69745" lon="0.66826">
        <ele>2079.1</ele>
        <time>2018-08-08T17:55:35.000Z</time>
      </trkpt>
      <trkpt lat="42.69745" lon="0.66826">
        <ele>2079.1</ele>
        <time>2018-08-08T17:55:36.000Z</time>
      </trkpt>
      <trkpt lat="42.69745" lon="0.66826">
        <ele>2079.1</ele>
        <time>2018-08-08T17:55:37.000Z</time>
      </trkpt>
      <trkpt lat="42.69745" lon="0.66826">
        <ele>2079.1</ele>
        <time>2018-08-08T17:55:38.000Z</time>
      </trkpt>
      <trkpt lat="42.69745" lon="0.66826">
        <ele>2079.1</ele>
        <time>2018-08-08T17:55:39.000Z</time>
      </trkpt>
      <trkpt lat="42.69745" lon="0.66826">
        <ele>2079.1</ele>
        <time>2018-08-08T17:55:40.000Z</time>
      </trkpt>
      <trkpt lat="42.69745" lon="0.66826">
        <ele>2079.1</ele>
        <time>2018-08-08T17:55:41.000Z</time>
      </trkpt>
      <trkpt lat="42.69745" lon="0.66826">
        <ele>2079.1</ele>
        <time>2018-08-08T17:55:42.000Z</time>
      </trkpt>
      <trkpt lat="42.69745" lon="0.66826">
        <ele>2079.1</ele>
        <time>2018-08-08T17:55:43.000Z</time>
      </trkpt>
      <trkpt lat="42.69745" lon="0.66826">
        <ele>2079.1</ele>
        <time>2018-08-08T17:55:44.000Z</time>
      </trkpt>
      <trkpt lat="42.69745" lon="0.66826">
        <ele>2079.1</ele>
        <time>2018-08-08T17:55:45.000Z</time>
      </trkpt>
      <trkpt lat="42.69745" lon="0.66826">
        <ele>2079.1</ele>
        <time>2018-08-08T17:55:46.000Z</time>
      </trkpt>
      <trkpt lat="42.69745" lon="0.66826">
        <ele>2079.1</ele>
        <time>2018-08-08T17:55:47.000Z</time>
      </trkpt>
      <trkpt lat="42.69745" lon="0.66826">
        <ele>2079.1</ele>
        <time>2018-08-08T17:55:48.000Z</time>
      </trkpt>
      <trkpt lat="42.69745" lon="0.66826">
        <ele>2079.1</ele>
        <time>2018-08-08T17:55:49.000Z</time>
      </trkpt>
      <trkpt lat="42.69745" lon="0.66826">
        <ele>2079.1</ele>
        <time>2018-08-08T17:55:50.000Z</time>
      </trkpt>
      <trkpt lat="42.69745" lon="0.66826">
        <ele>2079.1</ele>
        <time>2018-08-08T17:55:51.000Z</time>
      </trkpt>
      <trkpt lat="42.69745" lon="0.66826">
        <ele>2079.1</ele>
        <time>2018-08-08T17:55:52.000Z</time>
      </trkpt>
      <trkpt lat="42.69745" lon="0.66826">
        <ele>2079.1</ele>
        <time>2018-08-08T17:55:53.000Z</time>
      </trkpt>
      <trkpt lat="42.69745" lon="0.66826">
        <ele>2079.1</ele>
        <time>2018-08-08T17:55:54.000Z</time>
      </trkpt>
      <trkpt lat="42.69745" lon="0.66826">
        <ele>2079.1</ele>
        <time>2018-08-08T17:55:55.000Z</time>
      </trkpt>
      <trkpt lat="42.69745" lon="0.66826">
        <ele>2079.1</ele>
        <time>2018-08-08T17:55:56.000Z</time>
      </trkpt>
      <trkpt lat="42.69745" lon="0.66826">
        <ele>2079.1</ele>
        <time>2018-08-08T17:55:57.000Z</time>
      </trkpt>
      <trkpt lat="42.69745" lon="0.66826">
        <ele>2079.1</ele>
        <time>2018-08-08T17:55:58.000Z</time>
      </trkpt>
      <trkpt lat="42.69745" lon="0.66826">
        <ele>2079.1</ele>
        <time>2018-08-08T17:55:59.000Z</time>
      </trkpt>
      <trkpt lat="42.69745" lon="0.66826">
        <ele>2079.1</ele>
        <time>2018-08-08T17:56:00.000Z</time>
      </trkpt>
      <trkpt lat="42.69745" lon="0.66826">
        <ele>2079.1</ele>
        <time>2018-08-08T17:56:01.000Z</time>
      </trkpt>
      <trkpt lat="42.69745" lon="0.66826">
        <ele>2079.1</ele>
        <time>2018-08-08T17:56:02.000Z</time>
      </trkpt>
      <trkpt lat="42.69745" lon="0.66826">
        <ele>2079.1</ele>
        <time>2018-08-08T17:56:03.000Z</time>
      </trkpt>
      <trkpt lat="42.69745" lon="0.66826">
        <ele>2079.1</ele>
        <time>2018-08-08T17:56:04.000Z</time>
      </trkpt>
      <trkpt lat="42.69745" lon="0.66826">
        <ele>2079.1</ele>
        <time>2018-08-08T17:56:05.000Z</time>
      </trkpt>
      <trkpt lat="42.69745" lon="0.66826">
        <ele>2079.1</ele>
        <time>2018-08-08T17:56:06.000Z</time>
      </trkpt>
      <trkpt lat="42.69745" lon="0.66826">
        <ele>2079.1</ele>
        <time>2018-08-08T17:56:07.000Z</time>
      </trkpt>
      <trkpt lat="42.69745" lon="0.66826">
        <ele>2079.1</ele>
        <time>2018-08-08T17:56:08.000Z</time>
      </trkpt>
      <trkpt lat="42.69745" lon="0.66826">
        <ele>2079.1</ele>
        <time>2018-08-08T17:56:09.000Z</time>
      </trkpt>
      <trkpt lat="42.69745" lon="0.66826">
        <ele>2079.1</ele>
        <time>2018-08-08T17:56:10.000Z</time>
      </trkpt>
      <trkpt lat="42.69745" lon="0.66826">
        <ele>2079.1</ele>
        <time>2018-08-08T17:56:11.000Z</time>
      </trkpt>
      <trkpt lat="42.69745" lon="0.66826">
        <ele>2079.1</ele>
        <time>2018-08-08T17:56:12.000Z</time>
      </trkpt>
      <trkpt lat="42.69745" lon="0.66826">
        <ele>2079.1</ele>
        <time>2018-08-08T17:56:13.000Z</time>
      </trkpt>
      <trkpt lat="42.69745" lon="0.66826">
        <ele>2079.1</ele>
        <time>2018-08-08T17:56:14.000Z</time>
      </trkpt>
      <trkpt lat="42.69745" lon="0.66826">
        <ele>2079.1</ele>
        <time>2018-08-08T17:56:15.000Z</time>
      </trkpt>
      <trkpt lat="42.69745" lon="0.66826">
        <ele>2079.1</ele>
        <time>2018-08-08T17:56:16.000Z</time>
      </trkpt>
      <trkpt lat="42.69745" lon="0.66826">
        <ele>2079.1</ele>
        <time>2018-08-08T17:56:17.000Z</time>
      </trkpt>
      <trkpt lat="42.69745" lon="0.66826">
        <ele>2079.1</ele>
        <time>2018-08-08T17:56:18.000Z</time>
      </trkpt>
      <trkpt lat="42.69745" lon="0.66826">
        <ele>2079.1</ele>
        <time>2018-08-08T17:56:19.000Z</time>
      </trkpt>
      <trkpt lat="42.69745" lon="0.66826">
        <ele>2079.1</ele>
        <time>2018-08-08T17:56:20.000Z</time>
      </trkpt>
      <trkpt lat="42.69745" lon="0.66826">
        <ele>2079.1</ele>
        <time>2018-08-08T17:56:21.000Z</time>
      </trkpt>
      <trkpt lat="42.69745" lon="0.66826">
        <ele>2079.1</ele>
        <time>2018-08-08T17:56:22.000Z</time>
      </trkpt>
      <trkpt lat="42.69745" lon="0.66826">
        <ele>2079.1</ele>
        <time>2018-08-08T17:56:23.000Z</time>
      </trkpt>
      <trkpt lat="42.69745" lon="0.66826">
        <ele>2079.1</ele>
        <time>2018-08-08T17:56:24.000Z</time>
      </trkpt>
      <trkpt lat="42.69745" lon="0.66826">
        <ele>2079.1</ele>
        <time>2018-08-08T17:56:25.000Z</time>
      </trkpt>
      <trkpt lat="42.69745" lon="0.66826">
        <ele>2079.1</ele>
        <time>2018-08-08T17:56:26.000Z</time>
      </trkpt>
      <trkpt lat="42.69745" lon="0.66826">
        <ele>2079.1</ele>
        <time>2018-08-08T17:56:27.000Z</time>
      </trkpt>
      <trkpt lat="42.69745" lon="0.66826">
        <ele>2079.1</ele>
        <time>2018-08-08T17:56:28.000Z</time>
      </trkpt>
      <trkpt lat="42.69745" lon="0.66826">
        <ele>2079.1</ele>
        <time>2018-08-08T17:56:29.000Z</time>
      </trkpt>
      <trkpt lat="42.69745" lon="0.66826">
        <ele>2079.1</ele>
        <time>2018-08-08T17:56:30.000Z</time>
      </trkpt>
      <trkpt lat="42.69745" lon="0.66826">
        <ele>2079.1</ele>
        <time>2018-08-08T17:56:31.000Z</time>
      </trkpt>
      <trkpt lat="42.69745" lon="0.66826">
        <ele>2079.1</ele>
        <time>2018-08-08T17:56:32.000Z</time>
      </trkpt>
      <trkpt lat="42.69745" lon="0.66826">
        <ele>2079.1</ele>
        <time>2018-08-08T17:56:33.000Z</time>
      </trkpt>
      <trkpt lat="42.69745" lon="0.66826">
        <ele>2079.1</ele>
        <time>2018-08-08T17:56:34.000Z</time>
      </trkpt>
      <trkpt lat="42.69745" lon="0.66826">
        <ele>2079.1</ele>
        <time>2018-08-08T17:56:35.000Z</time>
      </trkpt>
      <trkpt lat="42.69745" lon="0.66826">
        <ele>2079.1</ele>
        <time>2018-08-08T17:56:36.000Z</time>
      </trkpt>
      <trkpt lat="42.69745" lon="0.66826">
        <ele>2079.1</ele>
        <time>2018-08-08T17:56:37.000Z</time>
      </trkpt>
      <trkpt lat="42.69745" lon="0.66826">
        <ele>2079.1</ele>
        <time>2018-08-08T17:56:38.000Z</time>
      </trkpt>
      <trkpt lat="42.69745" lon="0.66826">
        <ele>2079.1</ele>
        <time>2018-08-08T17:56:39.000Z</time>
      </trkpt>
      <trkpt lat="42.69745" lon="0.66826">
        <ele>2079.1</ele>
        <time>2018-08-08T17:56:40.000Z</time>
      </trkpt>
      <trkpt lat="42.69745" lon="0.66826">
        <ele>2079.1</ele>
        <time>2018-08-08T17:56:41.000Z</time>
      </trkpt>
      <trkpt lat="42.69745" lon="0.66826">
        <ele>2079.1</ele>
        <time>2018-08-08T17:56:42.000Z</time>
      </trkpt>
      <trkpt lat="42.69745" lon="0.66826">
        <ele>2079.1</ele>
        <time>2018-08-08T17:56:43.000Z</time>
      </trkpt>
      <trkpt lat="42.69745" lon="0.66826">
        <ele>2079.1</ele>
        <time>2018-08-08T17:56:44.000Z</time>
      </trkpt>
      <trkpt lat="42.69745" lon="0.66826">
        <ele>2079.1</ele>
        <time>2018-08-08T17:56:45.000Z</time>
      </trkpt>
      <trkpt lat="42.69745" lon="0.66826">
        <ele>2079.1</ele>
        <time>2018-08-08T17:56:46.000Z</time>
      </trkpt>
      <trkpt lat="42.69745" lon="0.66826">
        <ele>2079.1</ele>
        <time>2018-08-08T17:56:47.000Z</time>
      </trkpt>
      <trkpt lat="42.69745" lon="0.66826">
        <ele>2079.1</ele>
        <time>2018-08-08T17:56:48.000Z</time>
      </trkpt>
      <trkpt lat="42.69745" lon="0.66826">
        <ele>2079.1</ele>
        <time>2018-08-08T17:56:49.000Z</time>
      </trkpt>
      <trkpt lat="42.69745" lon="0.66826">
        <ele>2079.1</ele>
        <time>2018-08-08T17:56:50.000Z</time>
      </trkpt>
      <trkpt lat="42.69745" lon="0.66826">
        <ele>2079.1</ele>
        <time>2018-08-08T17:56:51.000Z</time>
      </trkpt>
      <trkpt lat="42.69745" lon="0.66826">
        <ele>2079.1</ele>
        <time>2018-08-08T17:56:52.000Z</time>
      </trkpt>
      <trkpt lat="42.69745" lon="0.66826">
        <ele>2079.1</ele>
        <time>2018-08-08T17:56:53.000Z</time>
      </trkpt>
      <trkpt lat="42.69745" lon="0.66826">
        <ele>2079.1</ele>
        <time>2018-08-08T17:56:54.000Z</time>
      </trkpt>
      <trkpt lat="42.69745" lon="0.66826">
        <ele>2079.1</ele>
        <time>2018-08-08T17:56:55.000Z</time>
      </trkpt>
      <trkpt lat="42.69745" lon="0.66826">
        <ele>2079.1</ele>
        <time>2018-08-08T17:56:56.000Z</time>
      </trkpt>
      <trkpt lat="42.69745" lon="0.66826">
        <ele>2079.1</ele>
        <time>2018-08-08T17:56:57.000Z</time>
      </trkpt>
      <trkpt lat="42.69745" lon="0.66826">
        <ele>2079.1</ele>
        <time>2018-08-08T17:56:58.000Z</time>
      </trkpt>
      <trkpt lat="42.69745" lon="0.66826">
        <ele>2079.1</ele>
        <time>2018-08-08T17:56:59.000Z</time>
      </trkpt>
      <trkpt lat="42.69745" lon="0.66826">
        <ele>2079.1</ele>
        <time>2018-08-08T17:57:00.000Z</time>
      </trkpt>
      <trkpt lat="42.69745" lon="0.66826">
        <ele>2079.1</ele>
        <time>2018-08-08T17:57:01.000Z</time>
      </trkpt>
      <trkpt lat="42.69745" lon="0.66826">
        <ele>2079.1</ele>
        <time>2018-08-08T17:57:02.000Z</time>
      </trkpt>
      <trkpt lat="42.69745" lon="0.66826">
        <ele>2079.1</ele>
        <time>2018-08-08T17:57:03.000Z</time>
      </trkpt>
      <trkpt lat="42.69745" lon="0.66826">
        <ele>2079.1</ele>
        <time>2018-08-08T17:57:04.000Z</time>
      </trkpt>
      <trkpt lat="42.69745" lon="0.66826">
        <ele>2079.1</ele>
        <time>2018-08-08T17:57:05.000Z</time>
      </trkpt>
      <trkpt lat="42.69745" lon="0.66826">
        <ele>2079.1</ele>
        <time>2018-08-08T17:57:06.000Z</time>
      </trkpt>
      <trkpt lat="42.69745" lon="0.66826">
        <ele>2079.1</ele>
        <time>2018-08-08T17:57:07.000Z</time>
      </trkpt>
      <trkpt lat="42.69745" lon="0.66826">
        <ele>2079.1</ele>
        <time>2018-08-08T17:57:08.000Z</time>
      </trkpt>
      <trkpt lat="42.69745" lon="0.66826">
        <ele>2079.1</ele>
        <time>2018-08-08T17:57:09.000Z</time>
      </trkpt>
      <trkpt lat="42.69745" lon="0.66826">
        <ele>2079.1</ele>
        <time>2018-08-08T17:57:10.000Z</time>
      </trkpt>
      <trkpt lat="42.69745" lon="0.66826">
        <ele>2079.1</ele>
        <time>2018-08-08T17:57:11.000Z</time>
      </trkpt>
      <trkpt lat="42.69745" lon="0.66826">
        <ele>2079.1</ele>
        <time>2018-08-08T17:57:12.000Z</time>
      </trkpt>
      <trkpt lat="42.69745" lon="0.66826">
        <ele>2079.1</ele>
        <time>2018-08-08T17:57:13.000Z</time>
      </trkpt>
      <trkpt lat="42.69745" lon="0.66826">
        <ele>2079.1</ele>
        <time>2018-08-08T17:57:14.000Z</time>
      </trkpt>
      <trkpt lat="42.69745" lon="0.66826">
        <ele>2079.1</ele>
        <time>2018-08-08T17:57:15.000Z</time>
      </trkpt>
      <trkpt lat="42.69745" lon="0.66826">
        <ele>2079.1</ele>
        <time>2018-08-08T17:57:16.000Z</time>
      </trkpt>
      <trkpt lat="42.69745" lon="0.66826">
        <ele>2079.1</ele>
        <time>2018-08-08T17:57:17.000Z</time>
      </trkpt>
      <trkpt lat="42.69745" lon="0.66826">
        <ele>2079.1</ele>
        <time>2018-08-08T17:57:18.000Z</time>
      </trkpt>
      <trkpt lat="42.69745" lon="0.66826">
        <ele>2079.1</ele>
        <time>2018-08-08T17:57:19.000Z</time>
      </trkpt>
      <trkpt lat="42.69745" lon="0.66826">
        <ele>2079.1</ele>
        <time>2018-08-08T17:57:20.000Z</time>
      </trkpt>
      <trkpt lat="42.69745" lon="0.66826">
        <ele>2079.1</ele>
        <time>2018-08-08T17:57:21.000Z</time>
      </trkpt>
      <trkpt lat="42.69745" lon="0.66826">
        <ele>2079.1</ele>
        <time>2018-08-08T17:57:22.000Z</time>
      </trkpt>
      <trkpt lat="42.69745" lon="0.66826">
        <ele>2079.1</ele>
        <time>2018-08-08T17:57:23.000Z</time>
      </trkpt>
      <trkpt lat="42.69745" lon="0.66826">
        <ele>2079.1</ele>
        <time>2018-08-08T17:57:24.000Z</time>
      </trkpt>
      <trkpt lat="42.69745" lon="0.66826">
        <ele>2079.1</ele>
        <time>2018-08-08T17:57:25.000Z</time>
      </trkpt>
      <trkpt lat="42.69745" lon="0.66826">
        <ele>2079.1</ele>
        <time>2018-08-08T17:57:26.000Z</time>
      </trkpt>
      <trkpt lat="42.69745" lon="0.66826">
        <ele>2079.1</ele>
        <time>2018-08-08T17:57:27.000Z</time>
      </trkpt>
      <trkpt lat="42.69745" lon="0.66826">
        <ele>2079.1</ele>
        <time>2018-08-08T17:57:28.000Z</time>
      </trkpt>
      <trkpt lat="42.69745" lon="0.66826">
        <ele>2079.1</ele>
        <time>2018-08-08T17:57:29.000Z</time>
      </trkpt>
      <trkpt lat="42.69745" lon="0.66826">
        <ele>2079.1</ele>
        <time>2018-08-08T17:57:30.000Z</time>
      </trkpt>
      <trkpt lat="42.69745" lon="0.66826">
        <ele>2079.1</ele>
        <time>2018-08-08T17:57:31.000Z</time>
      </trkpt>
      <trkpt lat="42.69745" lon="0.66826">
        <ele>2079.1</ele>
        <time>2018-08-08T17:57:32.000Z</time>
      </trkpt>
      <trkpt lat="42.69745" lon="0.66826">
        <ele>2079.1</ele>
        <time>2018-08-08T17:57:33.000Z</time>
      </trkpt>
      <trkpt lat="42.69745" lon="0.66826">
        <ele>2079.1</ele>
        <time>2018-08-08T17:57:34.000Z</time>
      </trkpt>
      <trkpt lat="42.69745" lon="0.66826">
        <ele>2079.1</ele>
        <time>2018-08-08T17:57:35.000Z</time>
      </trkpt>
      <trkpt lat="42.69745" lon="0.66826">
        <ele>2079.1</ele>
        <time>2018-08-08T17:57:36.000Z</time>
      </trkpt>
      <trkpt lat="42.69745" lon="0.66826">
        <ele>2079.1</ele>
        <time>2018-08-08T17:57:37.000Z</time>
      </trkpt>
      <trkpt lat="42.69745" lon="0.66826">
        <ele>2079.1</ele>
        <time>2018-08-08T17:57:38.000Z</time>
      </trkpt>
      <trkpt lat="42.69745" lon="0.66826">
        <ele>2079.1</ele>
        <time>2018-08-08T17:57:39.000Z</time>
      </trkpt>
      <trkpt lat="42.69745" lon="0.66826">
        <ele>2079.1</ele>
        <time>2018-08-08T17:57:40.000Z</time>
      </trkpt>
      <trkpt lat="42.69745" lon="0.66826">
        <ele>2079.1</ele>
        <time>2018-08-08T17:57:41.000Z</time>
      </trkpt>
      <trkpt lat="42.69745" lon="0.66826">
        <ele>2079.1</ele>
        <time>2018-08-08T17:57:42.000Z</time>
      </trkpt>
      <trkpt lat="42.69745" lon="0.66826">
        <ele>2079.1</ele>
        <time>2018-08-08T17:57:43.000Z</time>
      </trkpt>
      <trkpt lat="42.69745" lon="0.66826">
        <ele>2079.1</ele>
        <time>2018-08-08T17:57:44.000Z</time>
      </trkpt>
      <trkpt lat="42.69745" lon="0.66826">
        <ele>2079.1</ele>
        <time>2018-08-08T17:57:45.000Z</time>
      </trkpt>
      <trkpt lat="42.69745" lon="0.66826">
        <ele>2079.1</ele>
        <time>2018-08-08T17:57:46.000Z</time>
      </trkpt>
      <trkpt lat="42.69745" lon="0.66826">
        <ele>2079.1</ele>
        <time>2018-08-08T17:57:47.000Z</time>
      </trkpt>
      <trkpt lat="42.69745" lon="0.66826">
        <ele>2079.1</ele>
        <time>2018-08-08T17:57:48.000Z</time>
      </trkpt>
      <trkpt lat="42.69745" lon="0.66826">
        <ele>2079.1</ele>
        <time>2018-08-08T17:57:49.000Z</time>
      </trkpt>
      <trkpt lat="42.69745" lon="0.66826">
        <ele>2079.1</ele>
        <time>2018-08-08T17:57:50.000Z</time>
      </trkpt>
      <trkpt lat="42.69745" lon="0.66826">
        <ele>2079.1</ele>
        <time>2018-08-08T17:57:51.000Z</time>
      </trkpt>
      <trkpt lat="42.69745" lon="0.66826">
        <ele>2079.1</ele>
        <time>2018-08-08T17:57:52.000Z</time>
      </trkpt>
      <trkpt lat="42.69745" lon="0.66826">
        <ele>2079.1</ele>
        <time>2018-08-08T17:57:53.000Z</time>
      </trkpt>
      <trkpt lat="42.69745" lon="0.66826">
        <ele>2079.1</ele>
        <time>2018-08-08T17:57:54.000Z</time>
      </trkpt>
      <trkpt lat="42.69745" lon="0.66826">
        <ele>2079.1</ele>
        <time>2018-08-08T17:57:55.000Z</time>
      </trkpt>
      <trkpt lat="42.69745" lon="0.66826">
        <ele>2079.1</ele>
        <time>2018-08-08T17:57:56.000Z</time>
      </trkpt>
      <trkpt lat="42.69745" lon="0.66826">
        <ele>2079.1</ele>
        <time>2018-08-08T17:57:57.000Z</time>
      </trkpt>
      <trkpt lat="42.69745" lon="0.66826">
        <ele>2079.1</ele>
        <time>2018-08-08T17:57:58.000Z</time>
      </trkpt>
      <trkpt lat="42.69745" lon="0.66826">
        <ele>2079.1</ele>
        <time>2018-08-08T17:57:59.000Z</time>
      </trkpt>
      <trkpt lat="42.69745" lon="0.66826">
        <ele>2079.1</ele>
        <time>2018-08-08T17:58:00.000Z</time>
      </trkpt>
      <trkpt lat="42.69745" lon="0.66826">
        <ele>2079.1</ele>
        <time>2018-08-08T17:58:01.000Z</time>
      </trkpt>
      <trkpt lat="42.69745" lon="0.66826">
        <ele>2079.1</ele>
        <time>2018-08-08T17:58:02.000Z</time>
      </trkpt>
      <trkpt lat="42.69745" lon="0.66826">
        <ele>2079.1</ele>
        <time>2018-08-08T17:58:03.000Z</time>
      </trkpt>
      <trkpt lat="42.69745" lon="0.66826">
        <ele>2079.1</ele>
        <time>2018-08-08T17:58:04.000Z</time>
      </trkpt>
      <trkpt lat="42.69745" lon="0.66826">
        <ele>2079.1</ele>
        <time>2018-08-08T17:58:05.000Z</time>
      </trkpt>
      <trkpt lat="42.69745" lon="0.66826">
        <ele>2079.1</ele>
        <time>2018-08-08T17:58:06.000Z</time>
      </trkpt>
      <trkpt lat="42.69745" lon="0.66826">
        <ele>2079.1</ele>
        <time>2018-08-08T17:58:07.000Z</time>
      </trkpt>
      <trkpt lat="42.69745" lon="0.66826">
        <ele>2079.1</ele>
        <time>2018-08-08T17:58:08.000Z</time>
      </trkpt>
      <trkpt lat="42.69745" lon="0.66826">
        <ele>2079.1</ele>
        <time>2018-08-08T17:58:09.000Z</time>
      </trkpt>
      <trkpt lat="42.69745" lon="0.66826">
        <ele>2079.1</ele>
        <time>2018-08-08T17:58:10.000Z</time>
      </trkpt>
      <trkpt lat="42.69745" lon="0.66826">
        <ele>2079.1</ele>
        <time>2018-08-08T17:58:11.000Z</time>
      </trkpt>
      <trkpt lat="42.69745" lon="0.66826">
        <ele>2079.1</ele>
        <time>2018-08-08T17:58:12.000Z</time>
      </trkpt>
      <trkpt lat="42.69745" lon="0.66826">
        <ele>2079.1</ele>
        <time>2018-08-08T17:58:13.000Z</time>
      </trkpt>
      <trkpt lat="42.69745" lon="0.66826">
        <ele>2079.1</ele>
        <time>2018-08-08T17:58:14.000Z</time>
      </trkpt>
      <trkpt lat="42.69745" lon="0.66826">
        <ele>2079.1</ele>
        <time>2018-08-08T17:58:15.000Z</time>
      </trkpt>
      <trkpt lat="42.69745" lon="0.66826">
        <ele>2079.1</ele>
        <time>2018-08-08T17:58:16.000Z</time>
      </trkpt>
      <trkpt lat="42.69745" lon="0.66826">
        <ele>2079.1</ele>
        <time>2018-08-08T17:58:17.000Z</time>
      </trkpt>
      <trkpt lat="42.69745" lon="0.66826">
        <ele>2079.1</ele>
        <time>2018-08-08T17:58:18.000Z</time>
      </trkpt>
      <trkpt lat="42.69745" lon="0.66826">
        <ele>2079.1</ele>
        <time>2018-08-08T17:58:19.000Z</time>
      </trkpt>
      <trkpt lat="42.69745" lon="0.66826">
        <ele>2079.1</ele>
        <time>2018-08-08T17:58:20.000Z</time>
      </trkpt>
      <trkpt lat="42.69745" lon="0.66826">
        <ele>2079.1</ele>
        <time>2018-08-08T17:58:21.000Z</time>
      </trkpt>
      <trkpt lat="42.69745" lon="0.66826">
        <ele>2079.1</ele>
        <time>2018-08-08T17:58:22.000Z</time>
      </trkpt>
      <trkpt lat="42.69745" lon="0.66826">
        <ele>2079.1</ele>
        <time>2018-08-08T17:58:23.000Z</time>
      </trkpt>
      <trkpt lat="42.69745" lon="0.66826">
        <ele>2079.1</ele>
        <time>2018-08-08T17:58:24.000Z</time>
      </trkpt>
      <trkpt lat="42.69745" lon="0.66826">
        <ele>2079.1</ele>
        <time>2018-08-08T17:58:25.000Z</time>
      </trkpt>
      <trkpt lat="42.69745" lon="0.66826">
        <ele>2079.1</ele>
        <time>2018-08-08T17:58:26.000Z</time>
      </trkpt>
      <trkpt lat="42.69745" lon="0.66826">
        <ele>2079.1</ele>
        <time>2018-08-08T17:58:27.000Z</time>
      </trkpt>
      <trkpt lat="42.69745" lon="0.66826">
        <ele>2079.1</ele>
        <time>2018-08-08T17:58:28.000Z</time>
      </trkpt>
      <trkpt lat="42.69745" lon="0.66826">
        <ele>2079.1</ele>
        <time>2018-08-08T17:58:29.000Z</time>
      </trkpt>
      <trkpt lat="42.69745" lon="0.66826">
        <ele>2079.1</ele>
        <time>2018-08-08T17:58:30.000Z</time>
      </trkpt>
      <trkpt lat="42.69745" lon="0.66826">
        <ele>2079.1</ele>
        <time>2018-08-08T17:58:31.000Z</time>
      </trkpt>
      <trkpt lat="42.69745" lon="0.66826">
        <ele>2079.1</ele>
        <time>2018-08-08T17:58:32.000Z</time>
      </trkpt>
      <trkpt lat="42.69745" lon="0.66826">
        <ele>2079.1</ele>
        <time>2018-08-08T17:58:33.000Z</time>
      </trkpt>
      <trkpt lat="42.69745" lon="0.66826">
        <ele>2079.1</ele>
        <time>2018-08-08T17:58:34.000Z</time>
      </trkpt>
      <trkpt lat="42.69745" lon="0.66826">
        <ele>2079.1</ele>
        <time>2018-08-08T17:58:35.000Z</time>
      </trkpt>
      <trkpt lat="42.69745" lon="0.66826">
        <ele>2079.1</ele>
        <time>2018-08-08T17:58:36.000Z</time>
      </trkpt>
      <trkpt lat="42.69745" lon="0.66826">
        <ele>2079.1</ele>
        <time>2018-08-08T17:58:37.000Z</time>
      </trkpt>
      <trkpt lat="42.69745" lon="0.66826">
        <ele>2079.1</ele>
        <time>2018-08-08T17:58:38.000Z</time>
      </trkpt>
      <trkpt lat="42.69745" lon="0.66826">
        <ele>2079.1</ele>
        <time>2018-08-08T17:58:39.000Z</time>
      </trkpt>
      <trkpt lat="42.69745" lon="0.66826">
        <ele>2079.1</ele>
        <time>2018-08-08T17:58:40.000Z</time>
      </trkpt>
      <trkpt lat="42.69745" lon="0.66826">
        <ele>2079.1</ele>
        <time>2018-08-08T17:58:41.000Z</time>
      </trkpt>
      <trkpt lat="42.69745" lon="0.66826">
        <ele>2079.1</ele>
        <time>2018-08-08T17:58:42.000Z</time>
      </trkpt>
      <trkpt lat="42.69745" lon="0.66826">
        <ele>2079.1</ele>
        <time>2018-08-08T17:58:43.000Z</time>
      </trkpt>
      <trkpt lat="42.69745" lon="0.66826">
        <ele>2079.1</ele>
        <time>2018-08-08T17:58:44.000Z</time>
      </trkpt>
      <trkpt lat="42.69745" lon="0.66826">
        <ele>2079.1</ele>
        <time>2018-08-08T17:58:45.000Z</time>
      </trkpt>
      <trkpt lat="42.69745" lon="0.66826">
        <ele>2079.1</ele>
        <time>2018-08-08T17:58:46.000Z</time>
      </trkpt>
      <trkpt lat="42.69745" lon="0.66826">
        <ele>2079.1</ele>
        <time>2018-08-08T17:58:47.000Z</time>
      </trkpt>
      <trkpt lat="42.69745" lon="0.66826">
        <ele>2079.1</ele>
        <time>2018-08-08T17:58:48.000Z</time>
      </trkpt>
      <trkpt lat="42.69745" lon="0.66826">
        <ele>2079.1</ele>
        <time>2018-08-08T17:58:49.000Z</time>
      </trkpt>
      <trkpt lat="42.69745" lon="0.66826">
        <ele>2079.1</ele>
        <time>2018-08-08T17:58:50.000Z</time>
      </trkpt>
      <trkpt lat="42.69745" lon="0.66826">
        <ele>2079.1</ele>
        <time>2018-08-08T17:58:51.000Z</time>
      </trkpt>
      <trkpt lat="42.69745" lon="0.66826">
        <ele>2079.1</ele>
        <time>2018-08-08T17:58:52.000Z</time>
      </trkpt>
      <trkpt lat="42.69745" lon="0.66826">
        <ele>2079.1</ele>
        <time>2018-08-08T17:58:53.000Z</time>
      </trkpt>
      <trkpt lat="42.69745" lon="0.66826">
        <ele>2079.1</ele>
        <time>2018-08-08T17:58:54.000Z</time>
      </trkpt>
      <trkpt lat="42.69745" lon="0.66826">
        <ele>2079.1</ele>
        <time>2018-08-08T17:58:55.000Z</time>
      </trkpt>
      <trkpt lat="42.69745" lon="0.66826">
        <ele>2079.1</ele>
        <time>2018-08-08T17:58:56.000Z</time>
      </trkpt>
      <trkpt lat="42.69745" lon="0.66826">
        <ele>2079.1</ele>
        <time>2018-08-08T17:58:57.000Z</time>
      </trkpt>
      <trkpt lat="42.69745" lon="0.66826">
        <ele>2079.1</ele>
        <time>2018-08-08T17:58:58.000Z</time>
      </trkpt>
      <trkpt lat="42.69745" lon="0.66826">
        <ele>2079.1</ele>
        <time>2018-08-08T17:58:59.000Z</time>
      </trkpt>
      <trkpt lat="42.69745" lon="0.66826">
        <ele>2079.1</ele>
        <time>2018-08-08T17:59:00.000Z</time>
      </trkpt>
      <trkpt lat="42.69745" lon="0.66826">
        <ele>2079.1</ele>
        <time>2018-08-08T17:59:01.000Z</time>
      </trkpt>
      <trkpt lat="42.69745" lon="0.66826">
        <ele>2079.1</ele>
        <time>2018-08-08T17:59:02.000Z</time>
      </trkpt>
      <trkpt lat="42.69745" lon="0.66826">
        <ele>2079.1</ele>
        <time>2018-08-08T17:59:03.000Z</time>
      </trkpt>
      <trkpt lat="42.69745" lon="0.66826">
        <ele>2079.1</ele>
        <time>2018-08-08T17:59:04.000Z</time>
      </trkpt>
      <trkpt lat="42.69745" lon="0.66826">
        <ele>2079.1</ele>
        <time>2018-08-08T17:59:05.000Z</time>
      </trkpt>
      <trkpt lat="42.69745" lon="0.66826">
        <ele>2079.1</ele>
        <time>2018-08-08T17:59:06.000Z</time>
      </trkpt>
      <trkpt lat="42.69745" lon="0.66826">
        <ele>2079.1</ele>
        <time>2018-08-08T17:59:07.000Z</time>
      </trkpt>
      <trkpt lat="42.69745" lon="0.66826">
        <ele>2079.1</ele>
        <time>2018-08-08T17:59:08.000Z</time>
      </trkpt>
      <trkpt lat="42.69745" lon="0.66826">
        <ele>2079.1</ele>
        <time>2018-08-08T17:59:09.000Z</time>
      </trkpt>
      <trkpt lat="42.69745" lon="0.66826">
        <ele>2079.1</ele>
        <time>2018-08-08T17:59:10.000Z</time>
      </trkpt>
      <trkpt lat="42.69745" lon="0.66826">
        <ele>2079.1</ele>
        <time>2018-08-08T17:59:11.000Z</time>
      </trkpt>
      <trkpt lat="42.69745" lon="0.66826">
        <ele>2079.1</ele>
        <time>2018-08-08T17:59:12.000Z</time>
      </trkpt>
      <trkpt lat="42.69745" lon="0.66826">
        <ele>2079.1</ele>
        <time>2018-08-08T17:59:13.000Z</time>
      </trkpt>
      <trkpt lat="42.69745" lon="0.66826">
        <ele>2079.1</ele>
        <time>2018-08-08T17:59:14.000Z</time>
      </trkpt>
      <trkpt lat="42.69745" lon="0.66826">
        <ele>2079.1</ele>
        <time>2018-08-08T17:59:15.000Z</time>
      </trkpt>
      <trkpt lat="42.69745" lon="0.66826">
        <ele>2079.1</ele>
        <time>2018-08-08T17:59:16.000Z</time>
      </trkpt>
      <trkpt lat="42.69745" lon="0.66826">
        <ele>2079.1</ele>
        <time>2018-08-08T17:59:17.000Z</time>
      </trkpt>
      <trkpt lat="42.69745" lon="0.66826">
        <ele>2079.1</ele>
        <time>2018-08-08T17:59:18.000Z</time>
      </trkpt>
      <trkpt lat="42.69745" lon="0.66826">
        <ele>2079.1</ele>
        <time>2018-08-08T17:59:19.000Z</time>
      </trkpt>
      <trkpt lat="42.69745" lon="0.66826">
        <ele>2079.1</ele>
        <time>2018-08-08T17:59:20.000Z</time>
      </trkpt>
      <trkpt lat="42.69745" lon="0.66826">
        <ele>2079.1</ele>
        <time>2018-08-08T17:59:21.000Z</time>
      </trkpt>
      <trkpt lat="42.69745" lon="0.66826">
        <ele>2079.1</ele>
        <time>2018-08-08T17:59:22.000Z</time>
      </trkpt>
      <trkpt lat="42.69745" lon="0.66826">
        <ele>2079.1</ele>
        <time>2018-08-08T17:59:23.000Z</time>
      </trkpt>
      <trkpt lat="42.69745" lon="0.66826">
        <ele>2079.1</ele>
        <time>2018-08-08T17:59:24.000Z</time>
      </trkpt>
      <trkpt lat="42.69745" lon="0.66826">
        <ele>2079.1</ele>
        <time>2018-08-08T17:59:25.000Z</time>
      </trkpt>
      <trkpt lat="42.69745" lon="0.66826">
        <ele>2079.1</ele>
        <time>2018-08-08T17:59:26.000Z</time>
      </trkpt>
      <trkpt lat="42.69745" lon="0.66826">
        <ele>2079.1</ele>
        <time>2018-08-08T17:59:27.000Z</time>
      </trkpt>
      <trkpt lat="42.69745" lon="0.66826">
        <ele>2079.1</ele>
        <time>2018-08-08T17:59:28.000Z</time>
      </trkpt>
      <trkpt lat="42.69745" lon="0.66826">
        <ele>2079.1</ele>
        <time>2018-08-08T17:59:29.000Z</time>
      </trkpt>
      <trkpt lat="42.69745" lon="0.66826">
        <ele>2079.1</ele>
        <time>2018-08-08T17:59:30.000Z</time>
      </trkpt>
      <trkpt lat="42.69745" lon="0.66826">
        <ele>2079.1</ele>
        <time>2018-08-08T17:59:31.000Z</time>
      </trkpt>
      <trkpt lat="42.69745" lon="0.66826">
        <ele>2079.1</ele>
        <time>2018-08-08T17:59:32.000Z</time>
      </trkpt>
      <trkpt lat="42.69745" lon="0.66826">
        <ele>2079.1</ele>
        <time>2018-08-08T17:59:33.000Z</time>
      </trkpt>
      <trkpt lat="42.69745" lon="0.66826">
        <ele>2079.1</ele>
        <time>2018-08-08T17:59:34.000Z</time>
      </trkpt>
      <trkpt lat="42.69745" lon="0.66826">
        <ele>2079.1</ele>
        <time>2018-08-08T17:59:35.000Z</time>
      </trkpt>
      <trkpt lat="42.69745" lon="0.66826">
        <ele>2079.1</ele>
        <time>2018-08-08T17:59:36.000Z</time>
      </trkpt>
      <trkpt lat="42.69745" lon="0.66826">
        <ele>2079.1</ele>
        <time>2018-08-08T17:59:37.000Z</time>
      </trkpt>
      <trkpt lat="42.69745" lon="0.66826">
        <ele>2079.1</ele>
        <time>2018-08-08T17:59:38.000Z</time>
      </trkpt>
      <trkpt lat="42.69745" lon="0.66826">
        <ele>2079.1</ele>
        <time>2018-08-08T17:59:39.000Z</time>
      </trkpt>
      <trkpt lat="42.69745" lon="0.66826">
        <ele>2079.1</ele>
        <time>2018-08-08T17:59:40.000Z</time>
      </trkpt>
      <trkpt lat="42.69745" lon="0.66826">
        <ele>2079.1</ele>
        <time>2018-08-08T17:59:41.000Z</time>
      </trkpt>
      <trkpt lat="42.69745" lon="0.66826">
        <ele>2079.1</ele>
        <time>2018-08-08T17:59:42.000Z</time>
      </trkpt>
      <trkpt lat="42.69745" lon="0.66826">
        <ele>2079.1</ele>
        <time>2018-08-08T17:59:43.000Z</time>
      </trkpt>
      <trkpt lat="42.69745" lon="0.66826">
        <ele>2079.1</ele>
        <time>2018-08-08T17:59:44.000Z</time>
      </trkpt>
      <trkpt lat="42.69745" lon="0.66826">
        <ele>2079.1</ele>
        <time>2018-08-08T17:59:45.000Z</time>
      </trkpt>
      <trkpt lat="42.69745" lon="0.66826">
        <ele>2079.1</ele>
        <time>2018-08-08T17:59:46.000Z</time>
      </trkpt>
      <trkpt lat="42.69745" lon="0.66826">
        <ele>2079.1</ele>
        <time>2018-08-08T17:59:47.000Z</time>
      </trkpt>
      <trkpt lat="42.69745" lon="0.66826">
        <ele>2079.1</ele>
        <time>2018-08-08T17:59:48.000Z</time>
      </trkpt>
      <trkpt lat="42.69745" lon="0.66826">
        <ele>2079.1</ele>
        <time>2018-08-08T17:59:49.000Z</time>
      </trkpt>
      <trkpt lat="42.69745" lon="0.66826">
        <ele>2079.1</ele>
        <time>2018-08-08T17:59:50.000Z</time>
      </trkpt>
      <trkpt lat="42.69745" lon="0.66826">
        <ele>2079.1</ele>
        <time>2018-08-08T17:59:51.000Z</time>
      </trkpt>
      <trkpt lat="42.69745" lon="0.66826">
        <ele>2079.1</ele>
        <time>2018-08-08T17:59:52.000Z</time>
      </trkpt>
      <trkpt lat="42.69745" lon="0.66826">
        <ele>2079.1</ele>
        <time>2018-08-08T17:59:53.000Z</time>
      </trkpt>
      <trkpt lat="42.69745" lon="0.66826">
        <ele>2079.1</ele>
        <time>2018-08-08T17:59:54.000Z</time>
      </trkpt>
      <trkpt lat="42.69745" lon="0.66826">
        <ele>2079.1</ele>
        <time>2018-08-08T17:59:55.000Z</time>
      </trkpt>
      <trkpt lat="42.69745" lon="0.66826">
        <ele>2079.1</ele>
        <time>2018-08-08T17:59:56.000Z</time>
      </trkpt>
      <trkpt lat="42.69745" lon="0.66826">
        <ele>2079.1</ele>
        <time>2018-08-08T17:59:57.000Z</time>
      </trkpt>
      <trkpt lat="42.69745" lon="0.66826">
        <ele>2079.1</ele>
        <time>2018-08-08T17:59:58.000Z</time>
      </trkpt>
      <trkpt lat="42.69745" lon="0.66826">
        <ele>2079.1</ele>
        <time>2018-08-08T17:59:59.000Z</time>
      </trkpt>
      <trkpt lat="42.69745" lon="0.66826">
        <ele>2079.1</ele>
        <time>2018-08-08T18:00:00.000Z</time>
      </trkpt>
      <trkpt lat="42.69745" lon="0.66826">
        <ele>2079.1</ele>
        <time>2018-08-08T18:00:01.000Z</time>
      </trkpt>
      <trkpt lat="42.69745" lon="0.66826">
        <ele>2079.1</ele>
        <time>2018-08-08T18:00:02.000Z</time>
      </trkpt>
      <trkpt lat="42.69745" lon="0.66826">
        <ele>2079.1</ele>
        <time>2018-08-08T18:00:03.000Z</time>
      </trkpt>
      <trkpt lat="42.69745" lon="0.66826">
        <ele>2079.1</ele>
        <time>2018-08-08T18:00:04.000Z</time>
      </trkpt>
      <trkpt lat="42.69745" lon="0.66826">
        <ele>2079.1</ele>
        <time>2018-08-08T18:00:05.000Z</time>
      </trkpt>
      <trkpt lat="42.69745" lon="0.66826">
        <ele>2079.1</ele>
        <time>2018-08-08T18:00:06.000Z</time>
      </trkpt>
      <trkpt lat="42.69745" lon="0.66826">
        <ele>2079.1</ele>
        <time>2018-08-08T18:00:07.000Z</time>
      </trkpt>
      <trkpt lat="42.69745" lon="0.66826">
        <ele>2079.1</ele>
        <time>2018-08-08T18:00:08.000Z</time>
      </trkpt>
      <trkpt lat="42.69745" lon="0.66826">
        <ele>2079.1</ele>
        <time>2018-08-08T18:00:09.000Z</time>
      </trkpt>
      <trkpt lat="42.69745" lon="0.66826">
        <ele>2079.1</ele>
        <time>2018-08-08T18:00:10.000Z</time>
      </trkpt>
      <trkpt lat="42.69745" lon="0.66826">
        <ele>2079.1</ele>
        <time>2018-08-08T18:00:11.000Z</time>
      </trkpt>
      <trkpt lat="42.69745" lon="0.66826">
        <ele>2079.1</ele>
        <time>2018-08-08T18:00:12.000Z</time>
      </trkpt>
      <trkpt lat="42.69745" lon="0.66826">
        <ele>2079.1</ele>
        <time>2018-08-08T18:00:13.000Z</time>
      </trkpt>
      <trkpt lat="42.69745" lon="0.66826">
        <ele>2079.1</ele>
        <time>2018-08-08T18:00:14.000Z</time>
      </trkpt>
      <trkpt lat="42.69745" lon="0.66826">
        <ele>2079.1</ele>
        <time>2018-08-08T18:00:15.000Z</time>
      </trkpt>
      <trkpt lat="42.69745" lon="0.66826">
        <ele>2079.1</ele>
        <time>2018-08-08T18:00:16.000Z</time>
      </trkpt>
      <trkpt lat="42.69745" lon="0.66826">
        <ele>2079.1</ele>
        <time>2018-08-08T18:00:17.000Z</time>
      </trkpt>
      <trkpt lat="42.69745" lon="0.66826">
        <ele>2079.1</ele>
        <time>2018-08-08T18:00:18.000Z</time>
      </trkpt>
      <trkpt lat="42.69745" lon="0.66826">
        <ele>2079.1</ele>
        <time>2018-08-08T18:00:19.000Z</time>
      </trkpt>
      <trkpt lat="42.69745" lon="0.66826">
        <ele>2079.1</ele>
        <time>2018-08-08T18:00:20.000Z</time>
      </trkpt>
      <trkpt lat="42.69745" lon="0.66826">
        <ele>2079.1</ele>
        <time>2018-08-08T18:00:21.000Z</time>
      </trkpt>
      <trkpt lat="42.69745" lon="0.66826">
        <ele>2079.1</ele>
        <time>2018-08-08T18:00:22.000Z</time>
      </trkpt>
      <trkpt lat="42.69745" lon="0.66826">
        <ele>2079.1</ele>
        <time>2018-08-08T18:00:23.000Z</time>
      </trkpt>
      <trkpt lat="42.69745" lon="0.66826">
        <ele>2079.1</ele>
        <time>2018-08-08T18:00:24.000Z</time>
      </trkpt>
      <trkpt lat="42.69745" lon="0.66826">
        <ele>2079.1</ele>
        <time>2018-08-08T18:00:25.000Z</time>
      </trkpt>
      <trkpt lat="42.69745" lon="0.66826">
        <ele>2079.1</ele>
        <time>2018-08-08T18:00:26.000Z</time>
      </trkpt>
      <trkpt lat="42.69745" lon="0.66826">
        <ele>2079.1</ele>
        <time>2018-08-08T18:00:27.000Z</time>
      </trkpt>
      <trkpt lat="42.69745" lon="0.66826">
        <ele>2079.1</ele>
        <time>2018-08-08T18:00:28.000Z</time>
      </trkpt>
      <trkpt lat="42.69745" lon="0.66826">
        <ele>2079.1</ele>
        <time>2018-08-08T18:00:29.000Z</time>
      </trkpt>
      <trkpt lat="42.69745" lon="0.66826">
        <ele>2079.1</ele>
        <time>2018-08-08T18:00:30.000Z</time>
      </trkpt>
      <trkpt lat="42.69745" lon="0.66826">
        <ele>2079.1</ele>
        <time>2018-08-08T18:00:31.000Z</time>
      </trkpt>
      <trkpt lat="42.69745" lon="0.66826">
        <ele>2079.1</ele>
        <time>2018-08-08T18:00:32.000Z</time>
      </trkpt>
      <trkpt lat="42.69745" lon="0.66826">
        <ele>2079.1</ele>
        <time>2018-08-08T18:00:33.000Z</time>
      </trkpt>
      <trkpt lat="42.69745" lon="0.66826">
        <ele>2079.1</ele>
        <time>2018-08-08T18:00:34.000Z</time>
      </trkpt>
      <trkpt lat="42.69745" lon="0.66826">
        <ele>2079.1</ele>
        <time>2018-08-08T18:00:35.000Z</time>
      </trkpt>
      <trkpt lat="42.69745" lon="0.66826">
        <ele>2079.1</ele>
        <time>2018-08-08T18:00:36.000Z</time>
      </trkpt>
      <trkpt lat="42.69745" lon="0.66826">
        <ele>2079.1</ele>
        <time>2018-08-08T18:00:37.000Z</time>
      </trkpt>
      <trkpt lat="42.69745" lon="0.66826">
        <ele>2079.1</ele>
        <time>2018-08-08T18:00:38.000Z</time>
      </trkpt>
      <trkpt lat="42.69745" lon="0.66826">
        <ele>2079.1</ele>
        <time>2018-08-08T18:00:39.000Z</time>
      </trkpt>
      <trkpt lat="42.69745" lon="0.66826">
        <ele>2079.1</ele>
        <time>2018-08-08T18:00:40.000Z</time>
      </trkpt>
      <trkpt lat="42.69745" lon="0.66826">
        <ele>2079.1</ele>
        <time>2018-08-08T18:00:41.000Z</time>
      </trkpt>
      <trkpt lat="42.69745" lon="0.66826">
        <ele>2079.1</ele>
        <time>2018-08-08T18:00:42.000Z</time>
      </trkpt>
      <trkpt lat="42.69745" lon="0.66826">
        <ele>2079.1</ele>
        <time>2018-08-08T18:00:43.000Z</time>
      </trkpt>
      <trkpt lat="42.69745" lon="0.66826">
        <ele>2079.1</ele>
        <time>2018-08-08T18:00:44.000Z</time>
      </trkpt>
      <trkpt lat="42.69745" lon="0.66826">
        <ele>2079.1</ele>
        <time>2018-08-08T18:00:45.000Z</time>
      </trkpt>
      <trkpt lat="42.69745" lon="0.66826">
        <ele>2079.1</ele>
        <time>2018-08-08T18:00:46.000Z</time>
      </trkpt>
      <trkpt lat="42.69745" lon="0.66826">
        <ele>2079.1</ele>
        <time>2018-08-08T18:00:47.000Z</time>
      </trkpt>
      <trkpt lat="42.69745" lon="0.66826">
        <ele>2079.1</ele>
        <time>2018-08-08T18:00:48.000Z</time>
      </trkpt>
      <trkpt lat="42.69745" lon="0.66826">
        <ele>2079.1</ele>
        <time>2018-08-08T18:00:49.000Z</time>
      </trkpt>
      <trkpt lat="42.69745" lon="0.66826">
        <ele>2079.1</ele>
        <time>2018-08-08T18:00:50.000Z</time>
      </trkpt>
      <trkpt lat="42.69745" lon="0.66826">
        <ele>2079.1</ele>
        <time>2018-08-08T18:00:51.000Z</time>
      </trkpt>
      <trkpt lat="42.69745" lon="0.66826">
        <ele>2079.1</ele>
        <time>2018-08-08T18:00:52.000Z</time>
      </trkpt>
      <trkpt lat="42.69745" lon="0.66826">
        <ele>2079.1</ele>
        <time>2018-08-08T18:00:53.000Z</time>
      </trkpt>
      <trkpt lat="42.69745" lon="0.66826">
        <ele>2079.1</ele>
        <time>2018-08-08T18:00:54.000Z</time>
      </trkpt>
      <trkpt lat="42.69745" lon="0.66826">
        <ele>2079.1</ele>
        <time>2018-08-08T18:00:55.000Z</time>
      </trkpt>
      <trkpt lat="42.69745" lon="0.66826">
        <ele>2079.1</ele>
        <time>2018-08-08T18:00:56.000Z</time>
      </trkpt>
      <trkpt lat="42.69745" lon="0.66826">
        <ele>2079.1</ele>
        <time>2018-08-08T18:00:57.000Z</time>
      </trkpt>
      <trkpt lat="42.69745" lon="0.66826">
        <ele>2079.1</ele>
        <time>2018-08-08T18:00:58.000Z</time>
      </trkpt>
      <trkpt lat="42.69745" lon="0.66826">
        <ele>2079.1</ele>
        <time>2018-08-08T18:00:59.000Z</time>
      </trkpt>
      <trkpt lat="42.69745" lon="0.66826">
        <ele>2079.1</ele>
        <time>2018-08-08T18:01:00.000Z</time>
      </trkpt>
      <trkpt lat="42.69745" lon="0.66826">
        <ele>2079.1</ele>
        <time>2018-08-08T18:01:01.000Z</time>
      </trkpt>
      <trkpt lat="42.69745" lon="0.66826">
        <ele>2079.1</ele>
        <time>2018-08-08T18:01:02.000Z</time>
      </trkpt>
      <trkpt lat="42.69745" lon="0.66826">
        <ele>2079.1</ele>
        <time>2018-08-08T18:01:03.000Z</time>
      </trkpt>
      <trkpt lat="42.69745" lon="0.66826">
        <ele>2079.1</ele>
        <time>2018-08-08T18:01:04.000Z</time>
      </trkpt>
      <trkpt lat="42.69745" lon="0.66826">
        <ele>2079.1</ele>
        <time>2018-08-08T18:01:05.000Z</time>
      </trkpt>
      <trkpt lat="42.69745" lon="0.66826">
        <ele>2079.1</ele>
        <time>2018-08-08T18:01:06.000Z</time>
      </trkpt>
      <trkpt lat="42.69745" lon="0.66826">
        <ele>2079.1</ele>
        <time>2018-08-08T18:01:07.000Z</time>
      </trkpt>
      <trkpt lat="42.69745" lon="0.66826">
        <ele>2079.1</ele>
        <time>2018-08-08T18:01:08.000Z</time>
      </trkpt>
      <trkpt lat="42.69745" lon="0.66826">
        <ele>2079.1</ele>
        <time>2018-08-08T18:01:09.000Z</time>
      </trkpt>
      <trkpt lat="42.69745" lon="0.66826">
        <ele>2079.1</ele>
        <time>2018-08-08T18:01:10.000Z</time>
      </trkpt>
      <trkpt lat="42.69745" lon="0.66826">
        <ele>2079.1</ele>
        <time>2018-08-08T18:01:11.000Z</time>
      </trkpt>
      <trkpt lat="42.69745" lon="0.66826">
        <ele>2079.1</ele>
        <time>2018-08-08T18:01:12.000Z</time>
      </trkpt>
      <trkpt lat="42.69745" lon="0.66826">
        <ele>2079.1</ele>
        <time>2018-08-08T18:01:13.000Z</time>
      </trkpt>
      <trkpt lat="42.69745" lon="0.66826">
        <ele>2079.1</ele>
        <time>2018-08-08T18:01:14.000Z</time>
      </trkpt>
      <trkpt lat="42.69745" lon="0.66826">
        <ele>2079.1</ele>
        <time>2018-08-08T18:01:15.000Z</time>
      </trkpt>
      <trkpt lat="42.69745" lon="0.66826">
        <ele>2079.1</ele>
        <time>2018-08-08T18:01:16.000Z</time>
      </trkpt>
      <trkpt lat="42.69745" lon="0.66826">
        <ele>2079.1</ele>
        <time>2018-08-08T18:01:17.000Z</time>
      </trkpt>
      <trkpt lat="42.69745" lon="0.66826">
        <ele>2079.1</ele>
        <time>2018-08-08T18:01:18.000Z</time>
      </trkpt>
      <trkpt lat="42.69745" lon="0.66826">
        <ele>2079.1</ele>
        <time>2018-08-08T18:01:19.000Z</time>
      </trkpt>
      <trkpt lat="42.69745" lon="0.66826">
        <ele>2079.1</ele>
        <time>2018-08-08T18:01:20.000Z</time>
      </trkpt>
      <trkpt lat="42.69745" lon="0.66826">
        <ele>2079.1</ele>
        <time>2018-08-08T18:01:21.000Z</time>
      </trkpt>
      <trkpt lat="42.69745" lon="0.66826">
        <ele>2079.1</ele>
        <time>2018-08-08T18:01:22.000Z</time>
      </trkpt>
      <trkpt lat="42.69745" lon="0.66826">
        <ele>2079.1</ele>
        <time>2018-08-08T18:01:23.000Z</time>
      </trkpt>
      <trkpt lat="42.69745" lon="0.66826">
        <ele>2079.1</ele>
        <time>2018-08-08T18:01:24.000Z</time>
      </trkpt>
      <trkpt lat="42.69745" lon="0.66826">
        <ele>2079.1</ele>
        <time>2018-08-08T18:01:25.000Z</time>
      </trkpt>
      <trkpt lat="42.69745" lon="0.66826">
        <ele>2079.1</ele>
        <time>2018-08-08T18:01:26.000Z</time>
      </trkpt>
      <trkpt lat="42.69745" lon="0.66826">
        <ele>2079.1</ele>
        <time>2018-08-08T18:01:27.000Z</time>
      </trkpt>
      <trkpt lat="42.69745" lon="0.66826">
        <ele>2079.1</ele>
        <time>2018-08-08T18:01:28.000Z</time>
      </trkpt>
      <trkpt lat="42.69745" lon="0.66826">
        <ele>2079.1</ele>
        <time>2018-08-08T18:01:29.000Z</time>
      </trkpt>
      <trkpt lat="42.69745" lon="0.66826">
        <ele>2079.1</ele>
        <time>2018-08-08T18:01:30.000Z</time>
      </trkpt>
      <trkpt lat="42.69745" lon="0.66826">
        <ele>2079.1</ele>
        <time>2018-08-08T18:01:31.000Z</time>
      </trkpt>
      <trkpt lat="42.69745" lon="0.66826">
        <ele>2079.1</ele>
        <time>2018-08-08T18:01:32.000Z</time>
      </trkpt>
      <trkpt lat="42.69745" lon="0.66826">
        <ele>2079.1</ele>
        <time>2018-08-08T18:01:33.000Z</time>
      </trkpt>
      <trkpt lat="42.69745" lon="0.66826">
        <ele>2079.1</ele>
        <time>2018-08-08T18:01:34.000Z</time>
      </trkpt>
      <trkpt lat="42.69745" lon="0.66826">
        <ele>2079.1</ele>
        <time>2018-08-08T18:01:35.000Z</time>
      </trkpt>
      <trkpt lat="42.69745" lon="0.66826">
        <ele>2079.1</ele>
        <time>2018-08-08T18:01:36.000Z</time>
      </trkpt>
      <trkpt lat="42.69745" lon="0.66826">
        <ele>2079.1</ele>
        <time>2018-08-08T18:01:37.000Z</time>
      </trkpt>
      <trkpt lat="42.69745" lon="0.66826">
        <ele>2079.1</ele>
        <time>2018-08-08T18:01:38.000Z</time>
      </trkpt>
      <trkpt lat="42.69745" lon="0.66826">
        <ele>2079.1</ele>
        <time>2018-08-08T18:01:39.000Z</time>
      </trkpt>
      <trkpt lat="42.69745" lon="0.66826">
        <ele>2079.1</ele>
        <time>2018-08-08T18:01:40.000Z</time>
      </trkpt>
      <trkpt lat="42.69745" lon="0.66826">
        <ele>2079.1</ele>
        <time>2018-08-08T18:01:41.000Z</time>
      </trkpt>
      <trkpt lat="42.69745" lon="0.66826">
        <ele>2079.1</ele>
        <time>2018-08-08T18:01:42.000Z</time>
      </trkpt>
      <trkpt lat="42.69745" lon="0.66826">
        <ele>2079.1</ele>
        <time>2018-08-08T18:01:43.000Z</time>
      </trkpt>
      <trkpt lat="42.69745" lon="0.66826">
        <ele>2079.1</ele>
        <time>2018-08-08T18:01:44.000Z</time>
      </trkpt>
      <trkpt lat="42.69745" lon="0.66826">
        <ele>2079.1</ele>
        <time>2018-08-08T18:01:45.000Z</time>
      </trkpt>
      <trkpt lat="42.69745" lon="0.66826">
        <ele>2079.1</ele>
        <time>2018-08-08T18:01:46.000Z</time>
      </trkpt>
      <trkpt lat="42.69745" lon="0.66826">
        <ele>2079.1</ele>
        <time>2018-08-08T18:01:47.000Z</time>
      </trkpt>
      <trkpt lat="42.69745" lon="0.66826">
        <ele>2079.1</ele>
        <time>2018-08-08T18:01:48.000Z</time>
      </trkpt>
      <trkpt lat="42.69745" lon="0.66826">
        <ele>2079.1</ele>
        <time>2018-08-08T18:01:49.000Z</time>
      </trkpt>
      <trkpt lat="42.69745" lon="0.66826">
        <ele>2079.1</ele>
        <time>2018-08-08T18:01:50.000Z</time>
      </trkpt>
      <trkpt lat="42.69745" lon="0.66826">
        <ele>2079.1</ele>
        <time>2018-08-08T18:01:51.000Z</time>
      </trkpt>
      <trkpt lat="42.69745" lon="0.66826">
        <ele>2079.1</ele>
        <time>2018-08-08T18:01:52.000Z</time>
      </trkpt>
      <trkpt lat="42.69745" lon="0.66826">
        <ele>2079.1</ele>
        <time>2018-08-08T18:01:53.000Z</time>
      </trkpt>
      <trkpt lat="42.69745" lon="0.66826">
        <ele>2079.1</ele>
        <time>2018-08-08T18:01:54.000Z</time>
      </trkpt>
      <trkpt lat="42.69745" lon="0.66826">
        <ele>2079.1</ele>
        <time>2018-08-08T18:01:55.000Z</time>
      </trkpt>
      <trkpt lat="42.69745" lon="0.66826">
        <ele>2079.1</ele>
        <time>2018-08-08T18:01:56.000Z</time>
      </trkpt>
      <trkpt lat="42.69745" lon="0.66826">
        <ele>2079.1</ele>
        <time>2018-08-08T18:01:57.000Z</time>
      </trkpt>
      <trkpt lat="42.69745" lon="0.66826">
        <ele>2079.1</ele>
        <time>2018-08-08T18:01:58.000Z</time>
      </trkpt>
      <trkpt lat="42.69745" lon="0.66826">
        <ele>2079.1</ele>
        <time>2018-08-08T18:01:59.000Z</time>
      </trkpt>
      <trkpt lat="42.69745" lon="0.66826">
        <ele>2079.1</ele>
        <time>2018-08-08T18:02:00.000Z</time>
      </trkpt>
      <trkpt lat="42.69745" lon="0.66826">
        <ele>2079.1</ele>
        <time>2018-08-08T18:02:01.000Z</time>
      </trkpt>
      <trkpt lat="42.69745" lon="0.66826">
        <ele>2079.1</ele>
        <time>2018-08-08T18:02:02.000Z</time>
      </trkpt>
      <trkpt lat="42.69745" lon="0.66826">
        <ele>2079.1</ele>
        <time>2018-08-08T18:02:03.000Z</time>
      </trkpt>
      <trkpt lat="42.69745" lon="0.66826">
        <ele>2079.1</ele>
        <time>2018-08-08T18:02:04.000Z</time>
      </trkpt>
      <trkpt lat="42.69745" lon="0.66826">
        <ele>2079.1</ele>
        <time>2018-08-08T18:02:05.000Z</time>
      </trkpt>
      <trkpt lat="42.69745" lon="0.66826">
        <ele>2079.1</ele>
        <time>2018-08-08T18:02:06.000Z</time>
      </trkpt>
      <trkpt lat="42.69745" lon="0.66826">
        <ele>2079.1</ele>
        <time>2018-08-08T18:02:07.000Z</time>
      </trkpt>
      <trkpt lat="42.69745" lon="0.66826">
        <ele>2079.1</ele>
        <time>2018-08-08T18:02:08.000Z</time>
      </trkpt>
      <trkpt lat="42.69745" lon="0.66826">
        <ele>2079.1</ele>
        <time>2018-08-08T18:02:09.000Z</time>
      </trkpt>
      <trkpt lat="42.69745" lon="0.66826">
        <ele>2079.1</ele>
        <time>2018-08-08T18:02:10.000Z</time>
      </trkpt>
      <trkpt lat="42.69745" lon="0.66826">
        <ele>2079.1</ele>
        <time>2018-08-08T18:02:11.000Z</time>
      </trkpt>
      <trkpt lat="42.69745" lon="0.66826">
        <ele>2079.1</ele>
        <time>2018-08-08T18:02:12.000Z</time>
      </trkpt>
      <trkpt lat="42.69745" lon="0.66826">
        <ele>2079.1</ele>
        <time>2018-08-08T18:02:13.000Z</time>
      </trkpt>
      <trkpt lat="42.69745" lon="0.66826">
        <ele>2079.1</ele>
        <time>2018-08-08T18:02:14.000Z</time>
      </trkpt>
      <trkpt lat="42.69745" lon="0.66826">
        <ele>2079.1</ele>
        <time>2018-08-08T18:02:15.000Z</time>
      </trkpt>
      <trkpt lat="42.69745" lon="0.66826">
        <ele>2079.1</ele>
        <time>2018-08-08T18:02:16.000Z</time>
      </trkpt>
      <trkpt lat="42.69745" lon="0.66826">
        <ele>2079.1</ele>
        <time>2018-08-08T18:02:17.000Z</time>
      </trkpt>
      <trkpt lat="42.69745" lon="0.66826">
        <ele>2079.1</ele>
        <time>2018-08-08T18:02:18.000Z</time>
      </trkpt>
      <trkpt lat="42.69745" lon="0.66826">
        <ele>2079.1</ele>
        <time>2018-08-08T18:02:19.000Z</time>
      </trkpt>
      <trkpt lat="42.69745" lon="0.66826">
        <ele>2079.1</ele>
        <time>2018-08-08T18:02:20.000Z</time>
      </trkpt>
      <trkpt lat="42.69745" lon="0.66826">
        <ele>2079.1</ele>
        <time>2018-08-08T18:02:21.000Z</time>
      </trkpt>
      <trkpt lat="42.69745" lon="0.66826">
        <ele>2079.1</ele>
        <time>2018-08-08T18:02:22.000Z</time>
      </trkpt>
      <trkpt lat="42.69745" lon="0.66826">
        <ele>2079.1</ele>
        <time>2018-08-08T18:02:23.000Z</time>
      </trkpt>
      <trkpt lat="42.69745" lon="0.66826">
        <ele>2079.1</ele>
        <time>2018-08-08T18:02:24.000Z</time>
      </trkpt>
      <trkpt lat="42.69745" lon="0.66826">
        <ele>2079.1</ele>
        <time>2018-08-08T18:02:25.000Z</time>
      </trkpt>
      <trkpt lat="42.69745" lon="0.66826">
        <ele>2079.1</ele>
        <time>2018-08-08T18:02:26.000Z</time>
      </trkpt>
      <trkpt lat="42.69745" lon="0.66826">
        <ele>2079.1</ele>
        <time>2018-08-08T18:02:27.000Z</time>
      </trkpt>
      <trkpt lat="42.69745" lon="0.66826">
        <ele>2079.1</ele>
        <time>2018-08-08T18:02:28.000Z</time>
      </trkpt>
      <trkpt lat="42.69745" lon="0.66826">
        <ele>2079.1</ele>
        <time>2018-08-08T18:02:29.000Z</time>
      </trkpt>
      <trkpt lat="42.69745" lon="0.66826">
        <ele>2079.1</ele>
        <time>2018-08-08T18:02:30.000Z</time>
      </trkpt>
      <trkpt lat="42.69745" lon="0.66826">
        <ele>2079.1</ele>
        <time>2018-08-08T18:02:31.000Z</time>
      </trkpt>
      <trkpt lat="42.69745" lon="0.66826">
        <ele>2079.1</ele>
        <time>2018-08-08T18:02:32.000Z</time>
      </trkpt>
      <trkpt lat="42.69745" lon="0.66826">
        <ele>2079.1</ele>
        <time>2018-08-08T18:02:33.000Z</time>
      </trkpt>
      <trkpt lat="42.69745" lon="0.66826">
        <ele>2079.1</ele>
        <time>2018-08-08T18:02:34.000Z</time>
      </trkpt>
      <trkpt lat="42.69745" lon="0.66826">
        <ele>2079.1</ele>
        <time>2018-08-08T18:02:35.000Z</time>
      </trkpt>
      <trkpt lat="42.69745" lon="0.66826">
        <ele>2079.1</ele>
        <time>2018-08-08T18:02:36.000Z</time>
      </trkpt>
      <trkpt lat="42.69745" lon="0.66826">
        <ele>2079.1</ele>
        <time>2018-08-08T18:02:37.000Z</time>
      </trkpt>
      <trkpt lat="42.69745" lon="0.66826">
        <ele>2079.1</ele>
        <time>2018-08-08T18:02:38.000Z</time>
      </trkpt>
      <trkpt lat="42.69745" lon="0.66826">
        <ele>2079.1</ele>
        <time>2018-08-08T18:02:39.000Z</time>
      </trkpt>
      <trkpt lat="42.69745" lon="0.66826">
        <ele>2079.1</ele>
        <time>2018-08-08T18:02:40.000Z</time>
      </trkpt>
      <trkpt lat="42.69745" lon="0.66826">
        <ele>2079.1</ele>
        <time>2018-08-08T18:02:41.000Z</time>
      </trkpt>
      <trkpt lat="42.69745" lon="0.66826">
        <ele>2079.1</ele>
        <time>2018-08-08T18:02:42.000Z</time>
      </trkpt>
      <trkpt lat="42.69745" lon="0.66826">
        <ele>2079.1</ele>
        <time>2018-08-08T18:02:43.000Z</time>
      </trkpt>
      <trkpt lat="42.69745" lon="0.66826">
        <ele>2079.1</ele>
        <time>2018-08-08T18:02:44.000Z</time>
      </trkpt>
      <trkpt lat="42.69745" lon="0.66826">
        <ele>2079.1</ele>
        <time>2018-08-08T18:02:45.000Z</time>
      </trkpt>
      <trkpt lat="42.69745" lon="0.66826">
        <ele>2079.1</ele>
        <time>2018-08-08T18:02:46.000Z</time>
      </trkpt>
      <trkpt lat="42.69745" lon="0.66826">
        <ele>2079.1</ele>
        <time>2018-08-08T18:02:47.000Z</time>
      </trkpt>
      <trkpt lat="42.69745" lon="0.66826">
        <ele>2079.1</ele>
        <time>2018-08-08T18:02:48.000Z</time>
      </trkpt>
      <trkpt lat="42.69745" lon="0.66826">
        <ele>2079.1</ele>
        <time>2018-08-08T18:02:49.000Z</time>
      </trkpt>
      <trkpt lat="42.69745" lon="0.66826">
        <ele>2079.1</ele>
        <time>2018-08-08T18:02:50.000Z</time>
      </trkpt>
      <trkpt lat="42.69745" lon="0.66826">
        <ele>2079.1</ele>
        <time>2018-08-08T18:02:51.000Z</time>
      </trkpt>
      <trkpt lat="42.69745" lon="0.66826">
        <ele>2079.1</ele>
        <time>2018-08-08T18:02:52.000Z</time>
      </trkpt>
      <trkpt lat="42.69745" lon="0.66826">
        <ele>2079.1</ele>
        <time>2018-08-08T18:02:53.000Z</time>
      </trkpt>
      <trkpt lat="42.69745" lon="0.66826">
        <ele>2079.1</ele>
        <time>2018-08-08T18:02:54.000Z</time>
      </trkpt>
      <trkpt lat="42.69745" lon="0.66826">
        <ele>2079.1</ele>
        <time>2018-08-08T18:02:55.000Z</time>
      </trkpt>
      <trkpt lat="42.69745" lon="0.66826">
        <ele>2079.1</ele>
        <time>2018-08-08T18:02:56.000Z</time>
      </trkpt>
      <trkpt lat="42.69745" lon="0.66826">
        <ele>2079.1</ele>
        <time>2018-08-08T18:02:57.000Z</time>
      </trkpt>
      <trkpt lat="42.69745" lon="0.66826">
        <ele>2079.1</ele>
        <time>2018-08-08T18:02:58.000Z</time>
      </trkpt>
      <trkpt lat="42.69745" lon="0.66826">
        <ele>2079.1</ele>
        <time>2018-08-08T18:02:59.000Z</time>
      </trkpt>
      <trkpt lat="42.69745" lon="0.66826">
        <ele>2079.1</ele>
        <time>2018-08-08T18:03:00.000Z</time>
      </trkpt>
      <trkpt lat="42.69745" lon="0.66826">
        <ele>2079.1</ele>
        <time>2018-08-08T18:03:01.000Z</time>
      </trkpt>
      <trkpt lat="42.69745" lon="0.66826">
        <ele>2079.1</ele>
        <time>2018-08-08T18:03:02.000Z</time>
      </trkpt>
      <trkpt lat="42.69745" lon="0.66826">
        <ele>2079.1</ele>
        <time>2018-08-08T18:03:03.000Z</time>
      </trkpt>
      <trkpt lat="42.69745" lon="0.66826">
        <ele>2079.1</ele>
        <time>2018-08-08T18:03:04.000Z</time>
      </trkpt>
      <trkpt lat="42.69745" lon="0.66826">
        <ele>2079.1</ele>
        <time>2018-08-08T18:03:05.000Z</time>
      </trkpt>
      <trkpt lat="42.69745" lon="0.66826">
        <ele>2079.1</ele>
        <time>2018-08-08T18:03:06.000Z</time>
      </trkpt>
      <trkpt lat="42.69745" lon="0.66826">
        <ele>2079.1</ele>
        <time>2018-08-08T18:03:07.000Z</time>
      </trkpt>
      <trkpt lat="42.69745" lon="0.66826">
        <ele>2079.1</ele>
        <time>2018-08-08T18:03:08.000Z</time>
      </trkpt>
      <trkpt lat="42.69745" lon="0.66826">
        <ele>2079.1</ele>
        <time>2018-08-08T18:03:09.000Z</time>
      </trkpt>
      <trkpt lat="42.69745" lon="0.66826">
        <ele>2079.1</ele>
        <time>2018-08-08T18:03:10.000Z</time>
      </trkpt>
      <trkpt lat="42.69745" lon="0.66826">
        <ele>2079.1</ele>
        <time>2018-08-08T18:03:11.000Z</time>
      </trkpt>
      <trkpt lat="42.69745" lon="0.66826">
        <ele>2079.1</ele>
        <time>2018-08-08T18:03:12.000Z</time>
      </trkpt>
      <trkpt lat="42.69745" lon="0.66826">
        <ele>2079.1</ele>
        <time>2018-08-08T18:03:13.000Z</time>
      </trkpt>
      <trkpt lat="42.69745" lon="0.66826">
        <ele>2079.1</ele>
        <time>2018-08-08T18:03:14.000Z</time>
      </trkpt>
      <trkpt lat="42.69745" lon="0.66826">
        <ele>2079.1</ele>
        <time>2018-08-08T18:03:15.000Z</time>
      </trkpt>
      <trkpt lat="42.69745" lon="0.66826">
        <ele>2079.1</ele>
        <time>2018-08-08T18:03:16.000Z</time>
      </trkpt>
      <trkpt lat="42.69745" lon="0.66826">
        <ele>2079.1</ele>
        <time>2018-08-08T18:03:17.000Z</time>
      </trkpt>
      <trkpt lat="42.69745" lon="0.66826">
        <ele>2079.1</ele>
        <time>2018-08-08T18:03:18.000Z</time>
      </trkpt>
      <trkpt lat="42.69745" lon="0.66826">
        <ele>2079.1</ele>
        <time>2018-08-08T18:03:19.000Z</time>
      </trkpt>
      <trkpt lat="42.69745" lon="0.66826">
        <ele>2079.1</ele>
        <time>2018-08-08T18:03:20.000Z</time>
      </trkpt>
      <trkpt lat="42.69745" lon="0.66826">
        <ele>2079.1</ele>
        <time>2018-08-08T18:03:21.000Z</time>
      </trkpt>
      <trkpt lat="42.69745" lon="0.66826">
        <ele>2079.1</ele>
        <time>2018-08-08T18:03:22.000Z</time>
      </trkpt>
      <trkpt lat="42.69745" lon="0.66826">
        <ele>2079.1</ele>
        <time>2018-08-08T18:03:23.000Z</time>
      </trkpt>
      <trkpt lat="42.69745" lon="0.66826">
        <ele>2079.1</ele>
        <time>2018-08-08T18:03:24.000Z</time>
      </trkpt>
      <trkpt lat="42.69745" lon="0.66826">
        <ele>2079.1</ele>
        <time>2018-08-08T18:03:25.000Z</time>
      </trkpt>
      <trkpt lat="42.69745" lon="0.66826">
        <ele>2079.1</ele>
        <time>2018-08-08T18:03:26.000Z</time>
      </trkpt>
      <trkpt lat="42.69745" lon="0.66826">
        <ele>2079.1</ele>
        <time>2018-08-08T18:03:27.000Z</time>
      </trkpt>
      <trkpt lat="42.69745" lon="0.66826">
        <ele>2079.1</ele>
        <time>2018-08-08T18:03:28.000Z</time>
      </trkpt>
      <trkpt lat="42.69745" lon="0.66826">
        <ele>2079.1</ele>
        <time>2018-08-08T18:03:29.000Z</time>
      </trkpt>
      <trkpt lat="42.69745" lon="0.66826">
        <ele>2079.1</ele>
        <time>2018-08-08T18:03:30.000Z</time>
      </trkpt>
      <trkpt lat="42.69745" lon="0.66826">
        <ele>2079.1</ele>
        <time>2018-08-08T18:03:31.000Z</time>
      </trkpt>
      <trkpt lat="42.69745" lon="0.66826">
        <ele>2079.1</ele>
        <time>2018-08-08T18:03:32.000Z</time>
      </trkpt>
      <trkpt lat="42.69745" lon="0.66826">
        <ele>2079.1</ele>
        <time>2018-08-08T18:03:33.000Z</time>
      </trkpt>
      <trkpt lat="42.69745" lon="0.66826">
        <ele>2079.1</ele>
        <time>2018-08-08T18:03:34.000Z</time>
      </trkpt>
      <trkpt lat="42.69745" lon="0.66826">
        <ele>2079.1</ele>
        <time>2018-08-08T18:03:35.000Z</time>
      </trkpt>
      <trkpt lat="42.69745" lon="0.66826">
        <ele>2079.1</ele>
        <time>2018-08-08T18:03:36.000Z</time>
      </trkpt>
      <trkpt lat="42.69745" lon="0.66826">
        <ele>2079.1</ele>
        <time>2018-08-08T18:03:37.000Z</time>
      </trkpt>
      <trkpt lat="42.69745" lon="0.66826">
        <ele>2079.1</ele>
        <time>2018-08-08T18:03:38.000Z</time>
      </trkpt>
      <trkpt lat="42.69745" lon="0.66826">
        <ele>2079.1</ele>
        <time>2018-08-08T18:03:39.000Z</time>
      </trkpt>
      <trkpt lat="42.69745" lon="0.66826">
        <ele>2079.1</ele>
        <time>2018-08-08T18:03:40.000Z</time>
      </trkpt>
      <trkpt lat="42.69745" lon="0.66826">
        <ele>2079.1</ele>
        <time>2018-08-08T18:03:41.000Z</time>
      </trkpt>
      <trkpt lat="42.69745" lon="0.66826">
        <ele>2079.1</ele>
        <time>2018-08-08T18:03:42.000Z</time>
      </trkpt>
      <trkpt lat="42.69745" lon="0.66826">
        <ele>2079.1</ele>
        <time>2018-08-08T18:03:43.000Z</time>
      </trkpt>
      <trkpt lat="42.69745" lon="0.66826">
        <ele>2079.1</ele>
        <time>2018-08-08T18:03:44.000Z</time>
      </trkpt>
      <trkpt lat="42.69745" lon="0.66826">
        <ele>2079.1</ele>
        <time>2018-08-08T18:03:45.000Z</time>
      </trkpt>
      <trkpt lat="42.69745" lon="0.66826">
        <ele>2079.1</ele>
        <time>2018-08-08T18:03:46.000Z</time>
      </trkpt>
      <trkpt lat="42.69745" lon="0.66826">
        <ele>2079.1</ele>
        <time>2018-08-08T18:03:47.000Z</time>
      </trkpt>
      <trkpt lat="42.69745" lon="0.66826">
        <ele>2079.1</ele>
        <time>2018-08-08T18:03:48.000Z</time>
      </trkpt>
      <trkpt lat="42.69745" lon="0.66826">
        <ele>2079.1</ele>
        <time>2018-08-08T18:03:49.000Z</time>
      </trkpt>
      <trkpt lat="42.69745" lon="0.66826">
        <ele>2079.1</ele>
        <time>2018-08-08T18:03:50.000Z</time>
      </trkpt>
      <trkpt lat="42.69745" lon="0.66826">
        <ele>2079.1</ele>
        <time>2018-08-08T18:03:51.000Z</time>
      </trkpt>
      <trkpt lat="42.69745" lon="0.66826">
        <ele>2079.1</ele>
        <time>2018-08-08T18:03:52.000Z</time>
      </trkpt>
      <trkpt lat="42.69745" lon="0.66826">
        <ele>2079.1</ele>
        <time>2018-08-08T18:03:53.000Z</time>
      </trkpt>
      <trkpt lat="42.69745" lon="0.66826">
        <ele>2079.1</ele>
        <time>2018-08-08T18:03:54.000Z</time>
      </trkpt>
      <trkpt lat="42.69745" lon="0.66826">
        <ele>2079.1</ele>
        <time>2018-08-08T18:03:55.000Z</time>
      </trkpt>
      <trkpt lat="42.69745" lon="0.66826">
        <ele>2079.1</ele>
        <time>2018-08-08T18:03:56.000Z</time>
      </trkpt>
      <trkpt lat="42.69745" lon="0.66826">
        <ele>2079.1</ele>
        <time>2018-08-08T18:03:57.000Z</time>
      </trkpt>
      <trkpt lat="42.69745" lon="0.66826">
        <ele>2079.1</ele>
        <time>2018-08-08T18:03:58.000Z</time>
      </trkpt>
      <trkpt lat="42.69745" lon="0.66826">
        <ele>2079.1</ele>
        <time>2018-08-08T18:03:59.000Z</time>
      </trkpt>
      <trkpt lat="42.69745" lon="0.66826">
        <ele>2079.1</ele>
        <time>2018-08-08T18:04:00.000Z</time>
      </trkpt>
      <trkpt lat="42.69745" lon="0.66826">
        <ele>2079.1</ele>
        <time>2018-08-08T18:04:01.000Z</time>
      </trkpt>
      <trkpt lat="42.69745" lon="0.66826">
        <ele>2079.1</ele>
        <time>2018-08-08T18:04:02.000Z</time>
      </trkpt>
      <trkpt lat="42.69745" lon="0.66826">
        <ele>2079.1</ele>
        <time>2018-08-08T18:04:03.000Z</time>
      </trkpt>
      <trkpt lat="42.69745" lon="0.66826">
        <ele>2079.1</ele>
        <time>2018-08-08T18:04:04.000Z</time>
      </trkpt>
      <trkpt lat="42.69745" lon="0.66826">
        <ele>2079.1</ele>
        <time>2018-08-08T18:04:05.000Z</time>
      </trkpt>
      <trkpt lat="42.69745" lon="0.66826">
        <ele>2079.1</ele>
        <time>2018-08-08T18:04:06.000Z</time>
      </trkpt>
      <trkpt lat="42.69745" lon="0.66826">
        <ele>2079.1</ele>
        <time>2018-08-08T18:04:07.000Z</time>
      </trkpt>
      <trkpt lat="42.69745" lon="0.66826">
        <ele>2079.1</ele>
        <time>2018-08-08T18:04:08.000Z</time>
      </trkpt>
      <trkpt lat="42.69745" lon="0.66826">
        <ele>2079.1</ele>
        <time>2018-08-08T18:04:09.000Z</time>
      </trkpt>
      <trkpt lat="42.69745" lon="0.66826">
        <ele>2079.1</ele>
        <time>2018-08-08T18:04:10.000Z</time>
      </trkpt>
      <trkpt lat="42.69745" lon="0.66826">
        <ele>2079.1</ele>
        <time>2018-08-08T18:04:11.000Z</time>
      </trkpt>
      <trkpt lat="42.69745" lon="0.66826">
        <ele>2079.1</ele>
        <time>2018-08-08T18:04:12.000Z</time>
      </trkpt>
      <trkpt lat="42.69745" lon="0.66826">
        <ele>2079.1</ele>
        <time>2018-08-08T18:04:13.000Z</time>
      </trkpt>
      <trkpt lat="42.69745" lon="0.66826">
        <ele>2079.1</ele>
        <time>2018-08-08T18:04:14.000Z</time>
      </trkpt>
      <trkpt lat="42.69745" lon="0.66826">
        <ele>2079.1</ele>
        <time>2018-08-08T18:04:15.000Z</time>
      </trkpt>
      <trkpt lat="42.69745" lon="0.66826">
        <ele>2079.1</ele>
        <time>2018-08-08T18:04:16.000Z</time>
      </trkpt>
      <trkpt lat="42.69745" lon="0.66826">
        <ele>2079.1</ele>
        <time>2018-08-08T18:04:17.000Z</time>
      </trkpt>
      <trkpt lat="42.69745" lon="0.66826">
        <ele>2079.1</ele>
        <time>2018-08-08T18:04:18.000Z</time>
      </trkpt>
      <trkpt lat="42.69745" lon="0.66826">
        <ele>2079.1</ele>
        <time>2018-08-08T18:04:19.000Z</time>
      </trkpt>
      <trkpt lat="42.69745" lon="0.66826">
        <ele>2079.1</ele>
        <time>2018-08-08T18:04:20.000Z</time>
      </trkpt>
      <trkpt lat="42.69745" lon="0.66826">
        <ele>2079.1</ele>
        <time>2018-08-08T18:04:21.000Z</time>
      </trkpt>
      <trkpt lat="42.69745" lon="0.66826">
        <ele>2079.1</ele>
        <time>2018-08-08T18:04:22.000Z</time>
      </trkpt>
      <trkpt lat="42.69745" lon="0.66826">
        <ele>2079.1</ele>
        <time>2018-08-08T18:04:23.000Z</time>
      </trkpt>
      <trkpt lat="42.69745" lon="0.66826">
        <ele>2079.1</ele>
        <time>2018-08-08T18:04:24.000Z</time>
      </trkpt>
      <trkpt lat="42.69745" lon="0.66826">
        <ele>2079.1</ele>
        <time>2018-08-08T18:04:25.000Z</time>
      </trkpt>
      <trkpt lat="42.69745" lon="0.66826">
        <ele>2079.1</ele>
        <time>2018-08-08T18:04:26.000Z</time>
      </trkpt>
      <trkpt lat="42.69745" lon="0.66826">
        <ele>2079.1</ele>
        <time>2018-08-08T18:04:27.000Z</time>
      </trkpt>
      <trkpt lat="42.69745" lon="0.66826">
        <ele>2079.1</ele>
        <time>2018-08-08T18:04:28.000Z</time>
      </trkpt>
      <trkpt lat="42.69745" lon="0.66826">
        <ele>2079.1</ele>
        <time>2018-08-08T18:04:29.000Z</time>
      </trkpt>
      <trkpt lat="42.69745" lon="0.66826">
        <ele>2079.1</ele>
        <time>2018-08-08T18:04:30.000Z</time>
      </trkpt>
      <trkpt lat="42.69745" lon="0.66826">
        <ele>2079.1</ele>
        <time>2018-08-08T18:04:31.000Z</time>
      </trkpt>
      <trkpt lat="42.69745" lon="0.66826">
        <ele>2079.1</ele>
        <time>2018-08-08T18:04:32.000Z</time>
      </trkpt>
      <trkpt lat="42.69745" lon="0.66826">
        <ele>2079.1</ele>
        <time>2018-08-08T18:04:33.000Z</time>
      </trkpt>
      <trkpt lat="42.69745" lon="0.66826">
        <ele>2079.1</ele>
        <time>2018-08-08T18:04:34.000Z</time>
      </trkpt>
      <trkpt lat="42.69745" lon="0.66826">
        <ele>2079.1</ele>
        <time>2018-08-08T18:04:35.000Z</time>
      </trkpt>
      <trkpt lat="42.69745" lon="0.66826">
        <ele>2079.1</ele>
        <time>2018-08-08T18:04:36.000Z</time>
      </trkpt>
      <trkpt lat="42.69745" lon="0.66826">
        <ele>2079.1</ele>
        <time>2018-08-08T18:04:37.000Z</time>
      </trkpt>
      <trkpt lat="42.69745" lon="0.66826">
        <ele>2079.1</ele>
        <time>2018-08-08T18:04:38.000Z</time>
      </trkpt>
      <trkpt lat="42.69745" lon="0.66826">
        <ele>2079.1</ele>
        <time>2018-08-08T18:04:39.000Z</time>
      </trkpt>
      <trkpt lat="42.69745" lon="0.66826">
        <ele>2079.1</ele>
        <time>2018-08-08T18:04:40.000Z</time>
      </trkpt>
      <trkpt lat="42.69745" lon="0.66826">
        <ele>2079.1</ele>
        <time>2018-08-08T18:04:41.000Z</time>
      </trkpt>
      <trkpt lat="42.69745" lon="0.66826">
        <ele>2079.1</ele>
        <time>2018-08-08T18:04:42.000Z</time>
      </trkpt>
      <trkpt lat="42.69745" lon="0.66826">
        <ele>2079.1</ele>
        <time>2018-08-08T18:04:43.000Z</time>
      </trkpt>
      <trkpt lat="42.69745" lon="0.66826">
        <ele>2079.1</ele>
        <time>2018-08-08T18:04:44.000Z</time>
      </trkpt>
      <trkpt lat="42.69745" lon="0.66826">
        <ele>2079.1</ele>
        <time>2018-08-08T18:04:45.000Z</time>
      </trkpt>
      <trkpt lat="42.69745" lon="0.66826">
        <ele>2079.1</ele>
        <time>2018-08-08T18:04:46.000Z</time>
      </trkpt>
      <trkpt lat="42.69745" lon="0.66826">
        <ele>2079.1</ele>
        <time>2018-08-08T18:04:47.000Z</time>
      </trkpt>
      <trkpt lat="42.69745" lon="0.66826">
        <ele>2079.1</ele>
        <time>2018-08-08T18:04:48.000Z</time>
      </trkpt>
      <trkpt lat="42.69745" lon="0.66826">
        <ele>2079.1</ele>
        <time>2018-08-08T18:04:49.000Z</time>
      </trkpt>
      <trkpt lat="42.69745" lon="0.66826">
        <ele>2079.1</ele>
        <time>2018-08-08T18:04:50.000Z</time>
      </trkpt>
      <trkpt lat="42.69745" lon="0.66826">
        <ele>2079.1</ele>
        <time>2018-08-08T18:04:51.000Z</time>
      </trkpt>
      <trkpt lat="42.69745" lon="0.66826">
        <ele>2079.1</ele>
        <time>2018-08-08T18:04:52.000Z</time>
      </trkpt>
      <trkpt lat="42.69745" lon="0.66826">
        <ele>2079.1</ele>
        <time>2018-08-08T18:04:53.000Z</time>
      </trkpt>
      <trkpt lat="42.69745" lon="0.66826">
        <ele>2079.1</ele>
        <time>2018-08-08T18:04:54.000Z</time>
      </trkpt>
      <trkpt lat="42.69745" lon="0.66826">
        <ele>2079.1</ele>
        <time>2018-08-08T18:04:55.000Z</time>
      </trkpt>
      <trkpt lat="42.69745" lon="0.66826">
        <ele>2079.1</ele>
        <time>2018-08-08T18:04:56.000Z</time>
      </trkpt>
      <trkpt lat="42.69745" lon="0.66826">
        <ele>2079.1</ele>
        <time>2018-08-08T18:04:57.000Z</time>
      </trkpt>
      <trkpt lat="42.69745" lon="0.66826">
        <ele>2079.1</ele>
        <time>2018-08-08T18:04:58.000Z</time>
      </trkpt>
      <trkpt lat="42.69745" lon="0.66826">
        <ele>2079.1</ele>
        <time>2018-08-08T18:04:59.000Z</time>
      </trkpt>
      <trkpt lat="42.69745" lon="0.66826">
        <ele>2079.1</ele>
        <time>2018-08-08T18:05:00.000Z</time>
      </trkpt>
      <trkpt lat="42.69745" lon="0.66826">
        <ele>2079.1</ele>
        <time>2018-08-08T18:05:01.000Z</time>
      </trkpt>
      <trkpt lat="42.69745" lon="0.66826">
        <ele>2079.1</ele>
        <time>2018-08-08T18:05:02.000Z</time>
      </trkpt>
      <trkpt lat="42.69745" lon="0.66826">
        <ele>2079.1</ele>
        <time>2018-08-08T18:05:03.000Z</time>
      </trkpt>
      <trkpt lat="42.69745" lon="0.66826">
        <ele>2079.1</ele>
        <time>2018-08-08T18:05:04.000Z</time>
      </trkpt>
      <trkpt lat="42.69745" lon="0.66826">
        <ele>2079.1</ele>
        <time>2018-08-08T18:05:05.000Z</time>
      </trkpt>
      <trkpt lat="42.69745" lon="0.66826">
        <ele>2079.1</ele>
        <time>2018-08-08T18:05:06.000Z</time>
      </trkpt>
      <trkpt lat="42.69745" lon="0.66826">
        <ele>2079.1</ele>
        <time>2018-08-08T18:05:07.000Z</time>
      </trkpt>
      <trkpt lat="42.69745" lon="0.66826">
        <ele>2079.1</ele>
        <time>2018-08-08T18:05:08.000Z</time>
      </trkpt>
      <trkpt lat="42.69745" lon="0.66826">
        <ele>2079.1</ele>
        <time>2018-08-08T18:05:09.000Z</time>
      </trkpt>
      <trkpt lat="42.69745" lon="0.66826">
        <ele>2079.1</ele>
        <time>2018-08-08T18:05:10.000Z</time>
      </trkpt>
      <trkpt lat="42.69745" lon="0.66826">
        <ele>2079.1</ele>
        <time>2018-08-08T18:05:11.000Z</time>
      </trkpt>
      <trkpt lat="42.69745" lon="0.66826">
        <ele>2079.1</ele>
        <time>2018-08-08T18:05:12.000Z</time>
      </trkpt>
      <trkpt lat="42.69745" lon="0.66826">
        <ele>2079.1</ele>
        <time>2018-08-08T18:05:13.000Z</time>
      </trkpt>
      <trkpt lat="42.69745" lon="0.66826">
        <ele>2079.1</ele>
        <time>2018-08-08T18:05:14.000Z</time>
      </trkpt>
      <trkpt lat="42.69745" lon="0.66826">
        <ele>2079.1</ele>
        <time>2018-08-08T18:05:15.000Z</time>
      </trkpt>
      <trkpt lat="42.69745" lon="0.66826">
        <ele>2079.1</ele>
        <time>2018-08-08T18:05:16.000Z</time>
      </trkpt>
      <trkpt lat="42.69745" lon="0.66826">
        <ele>2079.1</ele>
        <time>2018-08-08T18:05:17.000Z</time>
      </trkpt>
      <trkpt lat="42.69745" lon="0.66826">
        <ele>2079.1</ele>
        <time>2018-08-08T18:05:18.000Z</time>
      </trkpt>
      <trkpt lat="42.69745" lon="0.66826">
        <ele>2079.1</ele>
        <time>2018-08-08T18:05:19.000Z</time>
      </trkpt>
      <trkpt lat="42.69745" lon="0.66826">
        <ele>2079.1</ele>
        <time>2018-08-08T18:05:20.000Z</time>
      </trkpt>
      <trkpt lat="42.69745" lon="0.66826">
        <ele>2079.1</ele>
        <time>2018-08-08T18:05:21.000Z</time>
      </trkpt>
      <trkpt lat="42.69745" lon="0.66826">
        <ele>2079.1</ele>
        <time>2018-08-08T18:05:22.000Z</time>
      </trkpt>
      <trkpt lat="42.69745" lon="0.66826">
        <ele>2079.1</ele>
        <time>2018-08-08T18:05:23.000Z</time>
      </trkpt>
      <trkpt lat="42.69745" lon="0.66826">
        <ele>2079.1</ele>
        <time>2018-08-08T18:05:24.000Z</time>
      </trkpt>
      <trkpt lat="42.69745" lon="0.66826">
        <ele>2079.1</ele>
        <time>2018-08-08T18:05:25.000Z</time>
      </trkpt>
      <trkpt lat="42.69745" lon="0.66826">
        <ele>2079.1</ele>
        <time>2018-08-08T18:05:26.000Z</time>
      </trkpt>
      <trkpt lat="42.69745" lon="0.66826">
        <ele>2079.1</ele>
        <time>2018-08-08T18:05:27.000Z</time>
      </trkpt>
      <trkpt lat="42.69745" lon="0.66826">
        <ele>2079.1</ele>
        <time>2018-08-08T18:05:28.000Z</time>
      </trkpt>
      <trkpt lat="42.69745" lon="0.66826">
        <ele>2079.1</ele>
        <time>2018-08-08T18:05:29.000Z</time>
      </trkpt>
      <trkpt lat="42.69745" lon="0.66826">
        <ele>2079.1</ele>
        <time>2018-08-08T18:05:30.000Z</time>
      </trkpt>
      <trkpt lat="42.69745" lon="0.66826">
        <ele>2079.1</ele>
        <time>2018-08-08T18:05:31.000Z</time>
      </trkpt>
      <trkpt lat="42.69745" lon="0.66826">
        <ele>2079.1</ele>
        <time>2018-08-08T18:05:32.000Z</time>
      </trkpt>
      <trkpt lat="42.69745" lon="0.66826">
        <ele>2079.1</ele>
        <time>2018-08-08T18:05:33.000Z</time>
      </trkpt>
      <trkpt lat="42.69745" lon="0.66826">
        <ele>2079.1</ele>
        <time>2018-08-08T18:05:34.000Z</time>
      </trkpt>
      <trkpt lat="42.69745" lon="0.66826">
        <ele>2079.1</ele>
        <time>2018-08-08T18:05:35.000Z</time>
      </trkpt>
      <trkpt lat="42.69745" lon="0.66826">
        <ele>2079.1</ele>
        <time>2018-08-08T18:05:36.000Z</time>
      </trkpt>
      <trkpt lat="42.69745" lon="0.66826">
        <ele>2079.1</ele>
        <time>2018-08-08T18:05:37.000Z</time>
      </trkpt>
      <trkpt lat="42.69745" lon="0.66826">
        <ele>2079.1</ele>
        <time>2018-08-08T18:05:38.000Z</time>
      </trkpt>
      <trkpt lat="42.69745" lon="0.66826">
        <ele>2079.1</ele>
        <time>2018-08-08T18:05:39.000Z</time>
      </trkpt>
      <trkpt lat="42.69745" lon="0.66826">
        <ele>2079.1</ele>
        <time>2018-08-08T18:05:40.000Z</time>
      </trkpt>
      <trkpt lat="42.69745" lon="0.66826">
        <ele>2079.1</ele>
        <time>2018-08-08T18:05:41.000Z</time>
      </trkpt>
      <trkpt lat="42.69745" lon="0.66826">
        <ele>2079.1</ele>
        <time>2018-08-08T18:05:42.000Z</time>
      </trkpt>
      <trkpt lat="42.69745" lon="0.66826">
        <ele>2079.1</ele>
        <time>2018-08-08T18:05:43.000Z</time>
      </trkpt>
      <trkpt lat="42.69745" lon="0.66826">
        <ele>2079.1</ele>
        <time>2018-08-08T18:05:44.000Z</time>
      </trkpt>
      <trkpt lat="42.69745" lon="0.66826">
        <ele>2079.1</ele>
        <time>2018-08-08T18:05:45.000Z</time>
      </trkpt>
      <trkpt lat="42.69745" lon="0.66826">
        <ele>2079.1</ele>
        <time>2018-08-08T18:05:46.000Z</time>
      </trkpt>
      <trkpt lat="42.69745" lon="0.66826">
        <ele>2079.1</ele>
        <time>2018-08-08T18:05:47.000Z</time>
      </trkpt>
      <trkpt lat="42.69745" lon="0.66826">
        <ele>2079.1</ele>
        <time>2018-08-08T18:05:48.000Z</time>
      </trkpt>
      <trkpt lat="42.69745" lon="0.66826">
        <ele>2079.1</ele>
        <time>2018-08-08T18:05:49.000Z</time>
      </trkpt>
      <trkpt lat="42.69745" lon="0.66826">
        <ele>2079.1</ele>
        <time>2018-08-08T18:05:50.000Z</time>
      </trkpt>
      <trkpt lat="42.69745" lon="0.66826">
        <ele>2079.1</ele>
        <time>2018-08-08T18:05:51.000Z</time>
      </trkpt>
      <trkpt lat="42.69745" lon="0.66826">
        <ele>2079.1</ele>
        <time>2018-08-08T18:05:52.000Z</time>
      </trkpt>
      <trkpt lat="42.69745" lon="0.66826">
        <ele>2079.1</ele>
        <time>2018-08-08T18:05:53.000Z</time>
      </trkpt>
      <trkpt lat="42.69745" lon="0.66826">
        <ele>2079.1</ele>
        <time>2018-08-08T18:05:54.000Z</time>
      </trkpt>
      <trkpt lat="42.69745" lon="0.66826">
        <ele>2079.1</ele>
        <time>2018-08-08T18:05:55.000Z</time>
      </trkpt>
      <trkpt lat="42.69745" lon="0.66826">
        <ele>2079.1</ele>
        <time>2018-08-08T18:05:56.000Z</time>
      </trkpt>
      <trkpt lat="42.69745" lon="0.66826">
        <ele>2079.1</ele>
        <time>2018-08-08T18:05:57.000Z</time>
      </trkpt>
      <trkpt lat="42.69745" lon="0.66826">
        <ele>2079.1</ele>
        <time>2018-08-08T18:05:58.000Z</time>
      </trkpt>
      <trkpt lat="42.69745" lon="0.66826">
        <ele>2079.1</ele>
        <time>2018-08-08T18:05:59.000Z</time>
      </trkpt>
      <trkpt lat="42.69745" lon="0.66826">
        <ele>2079.1</ele>
        <time>2018-08-08T18:06:00.000Z</time>
      </trkpt>
      <trkpt lat="42.69745" lon="0.66826">
        <ele>2079.1</ele>
        <time>2018-08-08T18:06:01.000Z</time>
      </trkpt>
      <trkpt lat="42.69745" lon="0.66826">
        <ele>2079.1</ele>
        <time>2018-08-08T18:06:02.000Z</time>
      </trkpt>
      <trkpt lat="42.69745" lon="0.66826">
        <ele>2079.1</ele>
        <time>2018-08-08T18:06:03.000Z</time>
      </trkpt>
      <trkpt lat="42.69745" lon="0.66826">
        <ele>2079.1</ele>
        <time>2018-08-08T18:06:04.000Z</time>
      </trkpt>
      <trkpt lat="42.69745" lon="0.66826">
        <ele>2079.1</ele>
        <time>2018-08-08T18:06:05.000Z</time>
      </trkpt>
      <trkpt lat="42.69745" lon="0.66826">
        <ele>2079.1</ele>
        <time>2018-08-08T18:06:06.000Z</time>
      </trkpt>
      <trkpt lat="42.69745" lon="0.66826">
        <ele>2079.1</ele>
        <time>2018-08-08T18:06:07.000Z</time>
      </trkpt>
      <trkpt lat="42.69745" lon="0.66826">
        <ele>2079.1</ele>
        <time>2018-08-08T18:06:08.000Z</time>
      </trkpt>
      <trkpt lat="42.69745" lon="0.66826">
        <ele>2079.1</ele>
        <time>2018-08-08T18:06:09.000Z</time>
      </trkpt>
      <trkpt lat="42.69745" lon="0.66826">
        <ele>2079.1</ele>
        <time>2018-08-08T18:06:10.000Z</time>
      </trkpt>
      <trkpt lat="42.69745" lon="0.66826">
        <ele>2079.1</ele>
        <time>2018-08-08T18:06:11.000Z</time>
      </trkpt>
      <trkpt lat="42.69745" lon="0.66826">
        <ele>2079.1</ele>
        <time>2018-08-08T18:06:12.000Z</time>
      </trkpt>
      <trkpt lat="42.69745" lon="0.66826">
        <ele>2079.1</ele>
        <time>2018-08-08T18:06:13.000Z</time>
      </trkpt>
      <trkpt lat="42.69745" lon="0.66826">
        <ele>2079.1</ele>
        <time>2018-08-08T18:06:14.000Z</time>
      </trkpt>
      <trkpt lat="42.69745" lon="0.66826">
        <ele>2079.1</ele>
        <time>2018-08-08T18:06:15.000Z</time>
      </trkpt>
      <trkpt lat="42.69745" lon="0.66826">
        <ele>2079.1</ele>
        <time>2018-08-08T18:06:16.000Z</time>
      </trkpt>
      <trkpt lat="42.69745" lon="0.66826">
        <ele>2079.1</ele>
        <time>2018-08-08T18:06:17.000Z</time>
      </trkpt>
      <trkpt lat="42.69745" lon="0.66826">
        <ele>2079.1</ele>
        <time>2018-08-08T18:06:18.000Z</time>
      </trkpt>
      <trkpt lat="42.69745" lon="0.66826">
        <ele>2079.1</ele>
        <time>2018-08-08T18:06:19.000Z</time>
      </trkpt>
      <trkpt lat="42.69745" lon="0.66826">
        <ele>2079.1</ele>
        <time>2018-08-08T18:06:20.000Z</time>
      </trkpt>
      <trkpt lat="42.69745" lon="0.66826">
        <ele>2079.1</ele>
        <time>2018-08-08T18:06:21.000Z</time>
      </trkpt>
      <trkpt lat="42.69745" lon="0.66826">
        <ele>2079.1</ele>
        <time>2018-08-08T18:06:22.000Z</time>
      </trkpt>
      <trkpt lat="42.69745" lon="0.66826">
        <ele>2079.1</ele>
        <time>2018-08-08T18:06:23.000Z</time>
      </trkpt>
      <trkpt lat="42.69745" lon="0.66826">
        <ele>2079.1</ele>
        <time>2018-08-08T18:06:24.000Z</time>
      </trkpt>
      <trkpt lat="42.69745" lon="0.66826">
        <ele>2079.1</ele>
        <time>2018-08-08T18:06:25.000Z</time>
      </trkpt>
      <trkpt lat="42.69745" lon="0.66826">
        <ele>2079.1</ele>
        <time>2018-08-08T18:06:26.000Z</time>
      </trkpt>
      <trkpt lat="42.69745" lon="0.66826">
        <ele>2079.1</ele>
        <time>2018-08-08T18:06:27.000Z</time>
      </trkpt>
      <trkpt lat="42.69745" lon="0.66826">
        <ele>2079.1</ele>
        <time>2018-08-08T18:06:28.000Z</time>
      </trkpt>
      <trkpt lat="42.69745" lon="0.66826">
        <ele>2079.1</ele>
        <time>2018-08-08T18:06:29.000Z</time>
      </trkpt>
      <trkpt lat="42.69745" lon="0.66826">
        <ele>2079.1</ele>
        <time>2018-08-08T18:06:30.000Z</time>
      </trkpt>
      <trkpt lat="42.69745" lon="0.66826">
        <ele>2079.1</ele>
        <time>2018-08-08T18:06:31.000Z</time>
      </trkpt>
      <trkpt lat="42.69745" lon="0.66826">
        <ele>2079.1</ele>
        <time>2018-08-08T18:06:32.000Z</time>
      </trkpt>
      <trkpt lat="42.69745" lon="0.66826">
        <ele>2079.1</ele>
        <time>2018-08-08T18:06:33.000Z</time>
      </trkpt>
      <trkpt lat="42.69745" lon="0.66826">
        <ele>2079.1</ele>
        <time>2018-08-08T18:06:34.000Z</time>
      </trkpt>
      <trkpt lat="42.69745" lon="0.66826">
        <ele>2079.1</ele>
        <time>2018-08-08T18:06:35.000Z</time>
      </trkpt>
      <trkpt lat="42.69745" lon="0.66826">
        <ele>2079.1</ele>
        <time>2018-08-08T18:06:36.000Z</time>
      </trkpt>
      <trkpt lat="42.69745" lon="0.66826">
        <ele>2079.1</ele>
        <time>2018-08-08T18:06:37.000Z</time>
      </trkpt>
      <trkpt lat="42.69745" lon="0.66826">
        <ele>2079.1</ele>
        <time>2018-08-08T18:06:38.000Z</time>
      </trkpt>
      <trkpt lat="42.69745" lon="0.66826">
        <ele>2079.1</ele>
        <time>2018-08-08T18:06:39.000Z</time>
      </trkpt>
      <trkpt lat="42.69745" lon="0.66826">
        <ele>2079.1</ele>
        <time>2018-08-08T18:06:40.000Z</time>
      </trkpt>
      <trkpt lat="42.69745" lon="0.66826">
        <ele>2079.1</ele>
        <time>2018-08-08T18:06:41.000Z</time>
      </trkpt>
      <trkpt lat="42.69745" lon="0.66826">
        <ele>2079.1</ele>
        <time>2018-08-08T18:06:42.000Z</time>
      </trkpt>
      <trkpt lat="42.69745" lon="0.66826">
        <ele>2079.1</ele>
        <time>2018-08-08T18:06:43.000Z</time>
      </trkpt>
      <trkpt lat="42.69745" lon="0.66826">
        <ele>2079.1</ele>
        <time>2018-08-08T18:06:44.000Z</time>
      </trkpt>
      <trkpt lat="42.69745" lon="0.66826">
        <ele>2079.1</ele>
        <time>2018-08-08T18:06:45.000Z</time>
      </trkpt>
      <trkpt lat="42.69745" lon="0.66826">
        <ele>2079.1</ele>
        <time>2018-08-08T18:06:46.000Z</time>
      </trkpt>
      <trkpt lat="42.69745" lon="0.66826">
        <ele>2079.1</ele>
        <time>2018-08-08T18:06:47.000Z</time>
      </trkpt>
      <trkpt lat="42.69745" lon="0.66826">
        <ele>2079.1</ele>
        <time>2018-08-08T18:06:48.000Z</time>
      </trkpt>
      <trkpt lat="42.69745" lon="0.66826">
        <ele>2079.1</ele>
        <time>2018-08-08T18:06:49.000Z</time>
      </trkpt>
      <trkpt lat="42.69745" lon="0.66826">
        <ele>2079.1</ele>
        <time>2018-08-08T18:06:50.000Z</time>
      </trkpt>
      <trkpt lat="42.69745" lon="0.66826">
        <ele>2079.1</ele>
        <time>2018-08-08T18:06:51.000Z</time>
      </trkpt>
      <trkpt lat="42.69745" lon="0.66826">
        <ele>2079.1</ele>
        <time>2018-08-08T18:06:52.000Z</time>
      </trkpt>
      <trkpt lat="42.69745" lon="0.66826">
        <ele>2079.1</ele>
        <time>2018-08-08T18:06:53.000Z</time>
      </trkpt>
      <trkpt lat="42.69745" lon="0.66826">
        <ele>2079.1</ele>
        <time>2018-08-08T18:06:54.000Z</time>
      </trkpt>
      <trkpt lat="42.69745" lon="0.66826">
        <ele>2079.1</ele>
        <time>2018-08-08T18:06:55.000Z</time>
      </trkpt>
      <trkpt lat="42.69745" lon="0.66826">
        <ele>2079.1</ele>
        <time>2018-08-08T18:06:56.000Z</time>
      </trkpt>
      <trkpt lat="42.69745" lon="0.66826">
        <ele>2079.1</ele>
        <time>2018-08-08T18:06:57.000Z</time>
      </trkpt>
      <trkpt lat="42.69745" lon="0.66826">
        <ele>2079.1</ele>
        <time>2018-08-08T18:06:58.000Z</time>
      </trkpt>
      <trkpt lat="42.69745" lon="0.66826">
        <ele>2079.1</ele>
        <time>2018-08-08T18:06:59.000Z</time>
      </trkpt>
      <trkpt lat="42.69745" lon="0.66826">
        <ele>2079.1</ele>
        <time>2018-08-08T18:07:00.000Z</time>
      </trkpt>
      <trkpt lat="42.69745" lon="0.66826">
        <ele>2079.1</ele>
        <time>2018-08-08T18:07:01.000Z</time>
      </trkpt>
      <trkpt lat="42.69745" lon="0.66826">
        <ele>2079.1</ele>
        <time>2018-08-08T18:07:02.000Z</time>
      </trkpt>
      <trkpt lat="42.69745" lon="0.66826">
        <ele>2079.1</ele>
        <time>2018-08-08T18:07:03.000Z</time>
      </trkpt>
      <trkpt lat="42.69745" lon="0.66826">
        <ele>2079.1</ele>
        <time>2018-08-08T18:07:04.000Z</time>
      </trkpt>
      <trkpt lat="42.69745" lon="0.66826">
        <ele>2079.1</ele>
        <time>2018-08-08T18:07:05.000Z</time>
      </trkpt>
      <trkpt lat="42.69745" lon="0.66826">
        <ele>2079.1</ele>
        <time>2018-08-08T18:07:06.000Z</time>
      </trkpt>
      <trkpt lat="42.69745" lon="0.66826">
        <ele>2079.1</ele>
        <time>2018-08-08T18:07:07.000Z</time>
      </trkpt>
      <trkpt lat="42.69745" lon="0.66826">
        <ele>2079.1</ele>
        <time>2018-08-08T18:07:08.000Z</time>
      </trkpt>
      <trkpt lat="42.69745" lon="0.66826">
        <ele>2079.1</ele>
        <time>2018-08-08T18:07:09.000Z</time>
      </trkpt>
      <trkpt lat="42.69745" lon="0.66826">
        <ele>2079.1</ele>
        <time>2018-08-08T18:07:10.000Z</time>
      </trkpt>
      <trkpt lat="42.69745" lon="0.66826">
        <ele>2079.1</ele>
        <time>2018-08-08T18:07:11.000Z</time>
      </trkpt>
      <trkpt lat="42.69745" lon="0.66826">
        <ele>2079.1</ele>
        <time>2018-08-08T18:07:12.000Z</time>
      </trkpt>
      <trkpt lat="42.69745" lon="0.66826">
        <ele>2079.1</ele>
        <time>2018-08-08T18:07:13.000Z</time>
      </trkpt>
      <trkpt lat="42.69745" lon="0.66826">
        <ele>2079.1</ele>
        <time>2018-08-08T18:07:14.000Z</time>
      </trkpt>
      <trkpt lat="42.69745" lon="0.66826">
        <ele>2079.1</ele>
        <time>2018-08-08T18:07:15.000Z</time>
      </trkpt>
      <trkpt lat="42.69745" lon="0.66826">
        <ele>2079.1</ele>
        <time>2018-08-08T18:07:16.000Z</time>
      </trkpt>
      <trkpt lat="42.69745" lon="0.66826">
        <ele>2079.1</ele>
        <time>2018-08-08T18:07:17.000Z</time>
      </trkpt>
      <trkpt lat="42.69745" lon="0.66826">
        <ele>2079.1</ele>
        <time>2018-08-08T18:07:18.000Z</time>
      </trkpt>
      <trkpt lat="42.69745" lon="0.66826">
        <ele>2079.1</ele>
        <time>2018-08-08T18:07:19.000Z</time>
      </trkpt>
      <trkpt lat="42.69745" lon="0.66826">
        <ele>2079.1</ele>
        <time>2018-08-08T18:07:20.000Z</time>
      </trkpt>
      <trkpt lat="42.69745" lon="0.66826">
        <ele>2079.1</ele>
        <time>2018-08-08T18:07:21.000Z</time>
      </trkpt>
      <trkpt lat="42.69745" lon="0.66826">
        <ele>2079.1</ele>
        <time>2018-08-08T18:07:22.000Z</time>
      </trkpt>
      <trkpt lat="42.69745" lon="0.66826">
        <ele>2079.1</ele>
        <time>2018-08-08T18:07:23.000Z</time>
      </trkpt>
      <trkpt lat="42.69745" lon="0.66826">
        <ele>2079.1</ele>
        <time>2018-08-08T18:07:24.000Z</time>
      </trkpt>
      <trkpt lat="42.69745" lon="0.66826">
        <ele>2079.1</ele>
        <time>2018-08-08T18:07:25.000Z</time>
      </trkpt>
      <trkpt lat="42.69745" lon="0.66826">
        <ele>2079.1</ele>
        <time>2018-08-08T18:07:26.000Z</time>
      </trkpt>
      <trkpt lat="42.69745" lon="0.66826">
        <ele>2079.1</ele>
        <time>2018-08-08T18:07:27.000Z</time>
      </trkpt>
      <trkpt lat="42.69745" lon="0.66826">
        <ele>2079.1</ele>
        <time>2018-08-08T18:07:28.000Z</time>
      </trkpt>
      <trkpt lat="42.69745" lon="0.66826">
        <ele>2079.1</ele>
        <time>2018-08-08T18:07:29.000Z</time>
      </trkpt>
      <trkpt lat="42.69745" lon="0.66826">
        <ele>2079.1</ele>
        <time>2018-08-08T18:07:30.000Z</time>
      </trkpt>
      <trkpt lat="42.69745" lon="0.66826">
        <ele>2079.1</ele>
        <time>2018-08-08T18:07:31.000Z</time>
      </trkpt>
      <trkpt lat="42.69745" lon="0.66826">
        <ele>2079.1</ele>
        <time>2018-08-08T18:07:32.000Z</time>
      </trkpt>
      <trkpt lat="42.69745" lon="0.66826">
        <ele>2079.1</ele>
        <time>2018-08-08T18:07:33.000Z</time>
      </trkpt>
      <trkpt lat="42.69745" lon="0.66826">
        <ele>2079.1</ele>
        <time>2018-08-08T18:07:34.000Z</time>
      </trkpt>
      <trkpt lat="42.69745" lon="0.66826">
        <ele>2079.1</ele>
        <time>2018-08-08T18:07:35.000Z</time>
      </trkpt>
      <trkpt lat="42.69745" lon="0.66826">
        <ele>2079.1</ele>
        <time>2018-08-08T18:07:36.000Z</time>
      </trkpt>
      <trkpt lat="42.69745" lon="0.66826">
        <ele>2079.1</ele>
        <time>2018-08-08T18:07:37.000Z</time>
      </trkpt>
      <trkpt lat="42.69745" lon="0.66826">
        <ele>2079.1</ele>
        <time>2018-08-08T18:07:38.000Z</time>
      </trkpt>
      <trkpt lat="42.69745" lon="0.66826">
        <ele>2079.1</ele>
        <time>2018-08-08T18:07:39.000Z</time>
      </trkpt>
      <trkpt lat="42.69745" lon="0.66826">
        <ele>2079.1</ele>
        <time>2018-08-08T18:07:40.000Z</time>
      </trkpt>
      <trkpt lat="42.69745" lon="0.66826">
        <ele>2079.1</ele>
        <time>2018-08-08T18:07:41.000Z</time>
      </trkpt>
      <trkpt lat="42.69745" lon="0.66826">
        <ele>2079.1</ele>
        <time>2018-08-08T18:07:42.000Z</time>
      </trkpt>
      <trkpt lat="42.69745" lon="0.66826">
        <ele>2079.1</ele>
        <time>2018-08-08T18:07:43.000Z</time>
      </trkpt>
      <trkpt lat="42.69745" lon="0.66826">
        <ele>2079.1</ele>
        <time>2018-08-08T18:07:44.000Z</time>
      </trkpt>
      <trkpt lat="42.69745" lon="0.66826">
        <ele>2079.1</ele>
        <time>2018-08-08T18:07:45.000Z</time>
      </trkpt>
      <trkpt lat="42.69745" lon="0.66826">
        <ele>2079.1</ele>
        <time>2018-08-08T18:07:46.000Z</time>
      </trkpt>
      <trkpt lat="42.69745" lon="0.66826">
        <ele>2079.1</ele>
        <time>2018-08-08T18:07:47.000Z</time>
      </trkpt>
      <trkpt lat="42.69745" lon="0.66826">
        <ele>2079.1</ele>
        <time>2018-08-08T18:07:48.000Z</time>
      </trkpt>
      <trkpt lat="42.69745" lon="0.66826">
        <ele>2079.1</ele>
        <time>2018-08-08T18:07:49.000Z</time>
      </trkpt>
      <trkpt lat="42.69745" lon="0.66826">
        <ele>2079.1</ele>
        <time>2018-08-08T18:07:50.000Z</time>
      </trkpt>
      <trkpt lat="42.69745" lon="0.66826">
        <ele>2079.1</ele>
        <time>2018-08-08T18:07:51.000Z</time>
      </trkpt>
      <trkpt lat="42.69745" lon="0.66826">
        <ele>2079.1</ele>
        <time>2018-08-08T18:07:52.000Z</time>
      </trkpt>
      <trkpt lat="42.69745" lon="0.66826">
        <ele>2079.1</ele>
        <time>2018-08-08T18:07:53.000Z</time>
      </trkpt>
      <trkpt lat="42.69745" lon="0.66826">
        <ele>2079.1</ele>
        <time>2018-08-08T18:07:54.000Z</time>
      </trkpt>
      <trkpt lat="42.69745" lon="0.66826">
        <ele>2079.1</ele>
        <time>2018-08-08T18:07:55.000Z</time>
      </trkpt>
      <trkpt lat="42.69745" lon="0.66826">
        <ele>2079.1</ele>
        <time>2018-08-08T18:07:56.000Z</time>
      </trkpt>
      <trkpt lat="42.69745" lon="0.66826">
        <ele>2079.1</ele>
        <time>2018-08-08T18:07:57.000Z</time>
      </trkpt>
      <trkpt lat="42.69745" lon="0.66826">
        <ele>2079.1</ele>
        <time>2018-08-08T18:07:58.000Z</time>
      </trkpt>
      <trkpt lat="42.69745" lon="0.66826">
        <ele>2079.1</ele>
        <time>2018-08-08T18:07:59.000Z</time>
      </trkpt>
      <trkpt lat="42.69745" lon="0.66826">
        <ele>2079.1</ele>
        <time>2018-08-08T18:08:00.000Z</time>
      </trkpt>
      <trkpt lat="42.69745" lon="0.66826">
        <ele>2079.1</ele>
        <time>2018-08-08T18:08:01.000Z</time>
      </trkpt>
      <trkpt lat="42.69745" lon="0.66826">
        <ele>2079.1</ele>
        <time>2018-08-08T18:08:02.000Z</time>
      </trkpt>
      <trkpt lat="42.69745" lon="0.66826">
        <ele>2079.1</ele>
        <time>2018-08-08T18:08:03.000Z</time>
      </trkpt>
      <trkpt lat="42.69745" lon="0.66826">
        <ele>2079.1</ele>
        <time>2018-08-08T18:08:04.000Z</time>
      </trkpt>
      <trkpt lat="42.69745" lon="0.66826">
        <ele>2079.1</ele>
        <time>2018-08-08T18:08:05.000Z</time>
      </trkpt>
      <trkpt lat="42.69745" lon="0.66826">
        <ele>2079.1</ele>
        <time>2018-08-08T18:08:06.000Z</time>
      </trkpt>
      <trkpt lat="42.69745" lon="0.66826">
        <ele>2079.1</ele>
        <time>2018-08-08T18:08:07.000Z</time>
      </trkpt>
      <trkpt lat="42.69745" lon="0.66826">
        <ele>2079.1</ele>
        <time>2018-08-08T18:08:08.000Z</time>
      </trkpt>
      <trkpt lat="42.69745" lon="0.66826">
        <ele>2079.1</ele>
        <time>2018-08-08T18:08:09.000Z</time>
      </trkpt>
      <trkpt lat="42.69745" lon="0.66826">
        <ele>2079.1</ele>
        <time>2018-08-08T18:08:10.000Z</time>
      </trkpt>
      <trkpt lat="42.69745" lon="0.66826">
        <ele>2079.1</ele>
        <time>2018-08-08T18:08:11.000Z</time>
      </trkpt>
      <trkpt lat="42.69745" lon="0.66826">
        <ele>2079.1</ele>
        <time>2018-08-08T18:08:12.000Z</time>
      </trkpt>
      <trkpt lat="42.69745" lon="0.66826">
        <ele>2079.1</ele>
        <time>2018-08-08T18:08:13.000Z</time>
      </trkpt>
      <trkpt lat="42.69745" lon="0.66826">
        <ele>2079.1</ele>
        <time>2018-08-08T18:08:14.000Z</time>
      </trkpt>
      <trkpt lat="42.69745" lon="0.66826">
        <ele>2079.1</ele>
        <time>2018-08-08T18:08:15.000Z</time>
      </trkpt>
      <trkpt lat="42.69745" lon="0.66826">
        <ele>2079.1</ele>
        <time>2018-08-08T18:08:16.000Z</time>
      </trkpt>
      <trkpt lat="42.69745" lon="0.66826">
        <ele>2079.1</ele>
        <time>2018-08-08T18:08:17.000Z</time>
      </trkpt>
      <trkpt lat="42.69745" lon="0.66826">
        <ele>2079.1</ele>
        <time>2018-08-08T18:08:18.000Z</time>
      </trkpt>
      <trkpt lat="42.69745" lon="0.66826">
        <ele>2079.1</ele>
        <time>2018-08-08T18:08:19.000Z</time>
      </trkpt>
      <trkpt lat="42.69745" lon="0.66826">
        <ele>2079.1</ele>
        <time>2018-08-08T18:08:20.000Z</time>
      </trkpt>
      <trkpt lat="42.69745" lon="0.66826">
        <ele>2079.1</ele>
        <time>2018-08-08T18:08:21.000Z</time>
      </trkpt>
      <trkpt lat="42.69745" lon="0.66826">
        <ele>2079.1</ele>
        <time>2018-08-08T18:08:22.000Z</time>
      </trkpt>
      <trkpt lat="42.69745" lon="0.66826">
        <ele>2079.1</ele>
        <time>2018-08-08T18:08:23.000Z</time>
      </trkpt>
      <trkpt lat="42.69745" lon="0.66826">
        <ele>2079.1</ele>
        <time>2018-08-08T18:08:24.000Z</time>
      </trkpt>
      <trkpt lat="42.69745" lon="0.66826">
        <ele>2079.1</ele>
        <time>2018-08-08T18:08:25.000Z</time>
      </trkpt>
      <trkpt lat="42.69745" lon="0.66826">
        <ele>2079.1</ele>
        <time>2018-08-08T18:08:26.000Z</time>
      </trkpt>
      <trkpt lat="42.69745" lon="0.66826">
        <ele>2079.1</ele>
        <time>2018-08-08T18:08:27.000Z</time>
      </trkpt>
      <trkpt lat="42.69745" lon="0.66826">
        <ele>2079.1</ele>
        <time>2018-08-08T18:08:28.000Z</time>
      </trkpt>
      <trkpt lat="42.69745" lon="0.66826">
        <ele>2079.1</ele>
        <time>2018-08-08T18:08:29.000Z</time>
      </trkpt>
      <trkpt lat="42.69745" lon="0.66826">
        <ele>2079.1</ele>
        <time>2018-08-08T18:08:30.000Z</time>
      </trkpt>
      <trkpt lat="42.69745" lon="0.66826">
        <ele>2079.1</ele>
        <time>2018-08-08T18:08:31.000Z</time>
      </trkpt>
      <trkpt lat="42.69745" lon="0.66826">
        <ele>2079.1</ele>
        <time>2018-08-08T18:08:32.000Z</time>
      </trkpt>
      <trkpt lat="42.69745" lon="0.66826">
        <ele>2079.1</ele>
        <time>2018-08-08T18:08:33.000Z</time>
      </trkpt>
      <trkpt lat="42.69745" lon="0.66826">
        <ele>2079.1</ele>
        <time>2018-08-08T18:08:34.000Z</time>
      </trkpt>
      <trkpt lat="42.69745" lon="0.66826">
        <ele>2079.1</ele>
        <time>2018-08-08T18:08:35.000Z</time>
      </trkpt>
      <trkpt lat="42.69745" lon="0.66826">
        <ele>2079.1</ele>
        <time>2018-08-08T18:08:36.000Z</time>
      </trkpt>
      <trkpt lat="42.69745" lon="0.66826">
        <ele>2079.1</ele>
        <time>2018-08-08T18:08:37.000Z</time>
      </trkpt>
      <trkpt lat="42.69745" lon="0.66826">
        <ele>2079.1</ele>
        <time>2018-08-08T18:08:38.000Z</time>
      </trkpt>
      <trkpt lat="42.69745" lon="0.66826">
        <ele>2079.1</ele>
        <time>2018-08-08T18:08:39.000Z</time>
      </trkpt>
      <trkpt lat="42.69745" lon="0.66826">
        <ele>2079.1</ele>
        <time>2018-08-08T18:08:40.000Z</time>
      </trkpt>
      <trkpt lat="42.69745" lon="0.66826">
        <ele>2079.1</ele>
        <time>2018-08-08T18:08:41.000Z</time>
      </trkpt>
      <trkpt lat="42.69745" lon="0.66826">
        <ele>2079.1</ele>
        <time>2018-08-08T18:08:42.000Z</time>
      </trkpt>
      <trkpt lat="42.69745" lon="0.66826">
        <ele>2079.1</ele>
        <time>2018-08-08T18:08:43.000Z</time>
      </trkpt>
      <trkpt lat="42.69745" lon="0.66826">
        <ele>2079.1</ele>
        <time>2018-08-08T18:08:44.000Z</time>
      </trkpt>
      <trkpt lat="42.69745" lon="0.66826">
        <ele>2079.1</ele>
        <time>2018-08-08T18:08:45.000Z</time>
      </trkpt>
      <trkpt lat="42.69745" lon="0.66826">
        <ele>2079.1</ele>
        <time>2018-08-08T18:08:46.000Z</time>
      </trkpt>
      <trkpt lat="42.69745" lon="0.66826">
        <ele>2079.1</ele>
        <time>2018-08-08T18:08:47.000Z</time>
      </trkpt>
      <trkpt lat="42.69745" lon="0.66826">
        <ele>2079.1</ele>
        <time>2018-08-08T18:08:48.000Z</time>
      </trkpt>
      <trkpt lat="42.69745" lon="0.66826">
        <ele>2079.1</ele>
        <time>2018-08-08T18:08:49.000Z</time>
      </trkpt>
      <trkpt lat="42.69745" lon="0.66826">
        <ele>2079.1</ele>
        <time>2018-08-08T18:08:50.000Z</time>
      </trkpt>
      <trkpt lat="42.69745" lon="0.66826">
        <ele>2079.1</ele>
        <time>2018-08-08T18:08:51.000Z</time>
      </trkpt>
      <trkpt lat="42.69745" lon="0.66826">
        <ele>2079.1</ele>
        <time>2018-08-08T18:08:52.000Z</time>
      </trkpt>
      <trkpt lat="42.69745" lon="0.66826">
        <ele>2079.1</ele>
        <time>2018-08-08T18:08:53.000Z</time>
      </trkpt>
      <trkpt lat="42.69745" lon="0.66826">
        <ele>2079.1</ele>
        <time>2018-08-08T18:08:54.000Z</time>
      </trkpt>
      <trkpt lat="42.69745" lon="0.66826">
        <ele>2079.1</ele>
        <time>2018-08-08T18:08:55.000Z</time>
      </trkpt>
      <trkpt lat="42.69745" lon="0.66826">
        <ele>2079.1</ele>
        <time>2018-08-08T18:08:56.000Z</time>
      </trkpt>
      <trkpt lat="42.69745" lon="0.66826">
        <ele>2079.1</ele>
        <time>2018-08-08T18:08:57.000Z</time>
      </trkpt>
      <trkpt lat="42.69745" lon="0.66826">
        <ele>2079.1</ele>
        <time>2018-08-08T18:08:58.000Z</time>
      </trkpt>
      <trkpt lat="42.69745" lon="0.66826">
        <ele>2079.1</ele>
        <time>2018-08-08T18:08:59.000Z</time>
      </trkpt>
      <trkpt lat="42.69745" lon="0.66826">
        <ele>2079.1</ele>
        <time>2018-08-08T18:09:00.000Z</time>
      </trkpt>
      <trkpt lat="42.69745" lon="0.66826">
        <ele>2079.1</ele>
        <time>2018-08-08T18:09:01.000Z</time>
      </trkpt>
      <trkpt lat="42.69745" lon="0.66826">
        <ele>2079.1</ele>
        <time>2018-08-08T18:09:02.000Z</time>
      </trkpt>
      <trkpt lat="42.69745" lon="0.66826">
        <ele>2079.1</ele>
        <time>2018-08-08T18:09:03.000Z</time>
      </trkpt>
      <trkpt lat="42.69745" lon="0.66826">
        <ele>2079.1</ele>
        <time>2018-08-08T18:09:04.000Z</time>
      </trkpt>
      <trkpt lat="42.69745" lon="0.66826">
        <ele>2079.1</ele>
        <time>2018-08-08T18:09:05.000Z</time>
      </trkpt>
      <trkpt lat="42.69745" lon="0.66826">
        <ele>2079.1</ele>
        <time>2018-08-08T18:09:06.000Z</time>
      </trkpt>
      <trkpt lat="42.69745" lon="0.66826">
        <ele>2079.1</ele>
        <time>2018-08-08T18:09:07.000Z</time>
      </trkpt>
      <trkpt lat="42.69745" lon="0.66826">
        <ele>2079.1</ele>
        <time>2018-08-08T18:09:08.000Z</time>
      </trkpt>
      <trkpt lat="42.69745" lon="0.66826">
        <ele>2079.1</ele>
        <time>2018-08-08T18:09:09.000Z</time>
      </trkpt>
      <trkpt lat="42.69745" lon="0.66826">
        <ele>2079.1</ele>
        <time>2018-08-08T18:09:10.000Z</time>
      </trkpt>
      <trkpt lat="42.69745" lon="0.66826">
        <ele>2079.1</ele>
        <time>2018-08-08T18:09:11.000Z</time>
      </trkpt>
      <trkpt lat="42.69745" lon="0.66826">
        <ele>2079.1</ele>
        <time>2018-08-08T18:09:12.000Z</time>
      </trkpt>
      <trkpt lat="42.69745" lon="0.66826">
        <ele>2079.1</ele>
        <time>2018-08-08T18:09:13.000Z</time>
      </trkpt>
      <trkpt lat="42.69745" lon="0.66826">
        <ele>2079.1</ele>
        <time>2018-08-08T18:09:14.000Z</time>
      </trkpt>
      <trkpt lat="42.69745" lon="0.66826">
        <ele>2079.1</ele>
        <time>2018-08-08T18:09:15.000Z</time>
      </trkpt>
      <trkpt lat="42.69745" lon="0.66826">
        <ele>2079.1</ele>
        <time>2018-08-08T18:09:16.000Z</time>
      </trkpt>
      <trkpt lat="42.69745" lon="0.66826">
        <ele>2079.1</ele>
        <time>2018-08-08T18:09:17.000Z</time>
      </trkpt>
      <trkpt lat="42.69745" lon="0.66826">
        <ele>2079.1</ele>
        <time>2018-08-08T18:09:18.000Z</time>
      </trkpt>
      <trkpt lat="42.69745" lon="0.66826">
        <ele>2079.1</ele>
        <time>2018-08-08T18:09:19.000Z</time>
      </trkpt>
      <trkpt lat="42.69745" lon="0.66826">
        <ele>2079.1</ele>
        <time>2018-08-08T18:09:20.000Z</time>
      </trkpt>
      <trkpt lat="42.69745" lon="0.66826">
        <ele>2079.1</ele>
        <time>2018-08-08T18:09:21.000Z</time>
      </trkpt>
      <trkpt lat="42.69745" lon="0.66826">
        <ele>2079.1</ele>
        <time>2018-08-08T18:09:22.000Z</time>
      </trkpt>
      <trkpt lat="42.69745" lon="0.66826">
        <ele>2079.1</ele>
        <time>2018-08-08T18:09:23.000Z</time>
      </trkpt>
      <trkpt lat="42.69745" lon="0.66826">
        <ele>2079.1</ele>
        <time>2018-08-08T18:09:24.000Z</time>
      </trkpt>
      <trkpt lat="42.69745" lon="0.66826">
        <ele>2079.1</ele>
        <time>2018-08-08T18:09:25.000Z</time>
      </trkpt>
      <trkpt lat="42.69745" lon="0.66826">
        <ele>2079.1</ele>
        <time>2018-08-08T18:09:26.000Z</time>
      </trkpt>
      <trkpt lat="42.69745" lon="0.66826">
        <ele>2079.1</ele>
        <time>2018-08-08T18:09:27.000Z</time>
      </trkpt>
      <trkpt lat="42.69745" lon="0.66826">
        <ele>2079.1</ele>
        <time>2018-08-08T18:09:28.000Z</time>
      </trkpt>
      <trkpt lat="42.69745" lon="0.66826">
        <ele>2079.1</ele>
        <time>2018-08-08T18:09:29.000Z</time>
      </trkpt>
      <trkpt lat="42.69745" lon="0.66826">
        <ele>2079.1</ele>
        <time>2018-08-08T18:09:30.000Z</time>
      </trkpt>
      <trkpt lat="42.69745" lon="0.66826">
        <ele>2079.1</ele>
        <time>2018-08-08T18:09:31.000Z</time>
      </trkpt>
      <trkpt lat="42.69745" lon="0.66826">
        <ele>2079.1</ele>
        <time>2018-08-08T18:09:32.000Z</time>
      </trkpt>
      <trkpt lat="42.69745" lon="0.66826">
        <ele>2079.1</ele>
        <time>2018-08-08T18:09:33.000Z</time>
      </trkpt>
      <trkpt lat="42.69745" lon="0.66826">
        <ele>2079.1</ele>
        <time>2018-08-08T18:09:34.000Z</time>
      </trkpt>
      <trkpt lat="42.69745" lon="0.66826">
        <ele>2079.1</ele>
        <time>2018-08-08T18:09:35.000Z</time>
      </trkpt>
      <trkpt lat="42.69745" lon="0.66826">
        <ele>2079.1</ele>
        <time>2018-08-08T18:09:36.000Z</time>
      </trkpt>
      <trkpt lat="42.69745" lon="0.66826">
        <ele>2079.1</ele>
        <time>2018-08-08T18:09:37.000Z</time>
      </trkpt>
      <trkpt lat="42.69745" lon="0.66826">
        <ele>2079.1</ele>
        <time>2018-08-08T18:09:38.000Z</time>
      </trkpt>
      <trkpt lat="42.69745" lon="0.66826">
        <ele>2079.1</ele>
        <time>2018-08-08T18:09:39.000Z</time>
      </trkpt>
      <trkpt lat="42.69745" lon="0.66826">
        <ele>2079.1</ele>
        <time>2018-08-08T18:09:40.000Z</time>
      </trkpt>
      <trkpt lat="42.69745" lon="0.66826">
        <ele>2079.1</ele>
        <time>2018-08-08T18:09:41.000Z</time>
      </trkpt>
      <trkpt lat="42.69745" lon="0.66826">
        <ele>2079.1</ele>
        <time>2018-08-08T18:09:42.000Z</time>
      </trkpt>
      <trkpt lat="42.69745" lon="0.66826">
        <ele>2079.1</ele>
        <time>2018-08-08T18:09:43.000Z</time>
      </trkpt>
      <trkpt lat="42.69745" lon="0.66826">
        <ele>2079.1</ele>
        <time>2018-08-08T18:09:44.000Z</time>
      </trkpt>
      <trkpt lat="42.69745" lon="0.66826">
        <ele>2079.1</ele>
        <time>2018-08-08T18:09:45.000Z</time>
      </trkpt>
      <trkpt lat="42.69745" lon="0.66826">
        <ele>2079.1</ele>
        <time>2018-08-08T18:09:46.000Z</time>
      </trkpt>
      <trkpt lat="42.69745" lon="0.66826">
        <ele>2079.1</ele>
        <time>2018-08-08T18:09:47.000Z</time>
      </trkpt>
      <trkpt lat="42.69745" lon="0.66826">
        <ele>2079.1</ele>
        <time>2018-08-08T18:09:48.000Z</time>
      </trkpt>
      <trkpt lat="42.69745" lon="0.66826">
        <ele>2079.1</ele>
        <time>2018-08-08T18:09:49.000Z</time>
      </trkpt>
      <trkpt lat="42.69745" lon="0.66826">
        <ele>2079.1</ele>
        <time>2018-08-08T18:09:50.000Z</time>
      </trkpt>
      <trkpt lat="42.69745" lon="0.66826">
        <ele>2079.1</ele>
        <time>2018-08-08T18:09:51.000Z</time>
      </trkpt>
      <trkpt lat="42.69745" lon="0.66826">
        <ele>2079.1</ele>
        <time>2018-08-08T18:09:52.000Z</time>
      </trkpt>
      <trkpt lat="42.69745" lon="0.66826">
        <ele>2079.1</ele>
        <time>2018-08-08T18:09:53.000Z</time>
      </trkpt>
      <trkpt lat="42.69745" lon="0.66826">
        <ele>2079.1</ele>
        <time>2018-08-08T18:09:54.000Z</time>
      </trkpt>
      <trkpt lat="42.69745" lon="0.66826">
        <ele>2079.1</ele>
        <time>2018-08-08T18:09:55.000Z</time>
      </trkpt>
      <trkpt lat="42.69745" lon="0.66826">
        <ele>2079.1</ele>
        <time>2018-08-08T18:09:56.000Z</time>
      </trkpt>
      <trkpt lat="42.69745" lon="0.66826">
        <ele>2079.1</ele>
        <time>2018-08-08T18:09:57.000Z</time>
      </trkpt>
      <trkpt lat="42.69745" lon="0.66826">
        <ele>2079.1</ele>
        <time>2018-08-08T18:09:58.000Z</time>
      </trkpt>
      <trkpt lat="42.69745" lon="0.66826">
        <ele>2079.1</ele>
        <time>2018-08-08T18:09:59.000Z</time>
      </trkpt>
      <trkpt lat="42.69745" lon="0.66826">
        <ele>2079.1</ele>
        <time>2018-08-08T18:10:00.000Z</time>
      </trkpt>
      <trkpt lat="42.69745" lon="0.66826">
        <ele>2079.1</ele>
        <time>2018-08-08T18:10:01.000Z</time>
      </trkpt>
      <trkpt lat="42.69745" lon="0.66826">
        <ele>2079.1</ele>
        <time>2018-08-08T18:10:02.000Z</time>
      </trkpt>
      <trkpt lat="42.69745" lon="0.66826">
        <ele>2079.1</ele>
        <time>2018-08-08T18:10:03.000Z</time>
      </trkpt>
      <trkpt lat="42.69745" lon="0.66826">
        <ele>2079.1</ele>
        <time>2018-08-08T18:10:04.000Z</time>
      </trkpt>
      <trkpt lat="42.69745" lon="0.66826">
        <ele>2079.1</ele>
        <time>2018-08-08T18:10:05.000Z</time>
      </trkpt>
      <trkpt lat="42.69745" lon="0.66826">
        <ele>2079.1</ele>
        <time>2018-08-08T18:10:06.000Z</time>
      </trkpt>
      <trkpt lat="42.69745" lon="0.66826">
        <ele>2079.1</ele>
        <time>2018-08-08T18:10:07.000Z</time>
      </trkpt>
      <trkpt lat="42.69745" lon="0.66826">
        <ele>2079.1</ele>
        <time>2018-08-08T18:10:08.000Z</time>
      </trkpt>
      <trkpt lat="42.69745" lon="0.66826">
        <ele>2079.1</ele>
        <time>2018-08-08T18:10:09.000Z</time>
      </trkpt>
      <trkpt lat="42.69745" lon="0.66826">
        <ele>2079.1</ele>
        <time>2018-08-08T18:10:10.000Z</time>
      </trkpt>
      <trkpt lat="42.69745" lon="0.66826">
        <ele>2079.1</ele>
        <time>2018-08-08T18:10:11.000Z</time>
      </trkpt>
      <trkpt lat="42.69745" lon="0.66826">
        <ele>2079.1</ele>
        <time>2018-08-08T18:10:12.000Z</time>
      </trkpt>
      <trkpt lat="42.69745" lon="0.66826">
        <ele>2079.1</ele>
        <time>2018-08-08T18:10:13.000Z</time>
      </trkpt>
      <trkpt lat="42.69745" lon="0.66826">
        <ele>2079.1</ele>
        <time>2018-08-08T18:10:14.000Z</time>
      </trkpt>
      <trkpt lat="42.69745" lon="0.66826">
        <ele>2079.1</ele>
        <time>2018-08-08T18:10:15.000Z</time>
      </trkpt>
      <trkpt lat="42.69745" lon="0.66826">
        <ele>2079.1</ele>
        <time>2018-08-08T18:10:16.000Z</time>
      </trkpt>
      <trkpt lat="42.69745" lon="0.66826">
        <ele>2079.1</ele>
        <time>2018-08-08T18:10:17.000Z</time>
      </trkpt>
      <trkpt lat="42.69745" lon="0.66826">
        <ele>2079.1</ele>
        <time>2018-08-08T18:10:18.000Z</time>
      </trkpt>
      <trkpt lat="42.69745" lon="0.66826">
        <ele>2079.1</ele>
        <time>2018-08-08T18:10:19.000Z</time>
      </trkpt>
      <trkpt lat="42.69745" lon="0.66826">
        <ele>2079.1</ele>
        <time>2018-08-08T18:10:20.000Z</time>
      </trkpt>
      <trkpt lat="42.69745" lon="0.66826">
        <ele>2079.1</ele>
        <time>2018-08-08T18:10:21.000Z</time>
      </trkpt>
      <trkpt lat="42.69745" lon="0.66826">
        <ele>2079.1</ele>
        <time>2018-08-08T18:10:22.000Z</time>
      </trkpt>
      <trkpt lat="42.69745" lon="0.66826">
        <ele>2079.1</ele>
        <time>2018-08-08T18:10:23.000Z</time>
      </trkpt>
      <trkpt lat="42.69745" lon="0.66826">
        <ele>2079.1</ele>
        <time>2018-08-08T18:10:24.000Z</time>
      </trkpt>
      <trkpt lat="42.69745" lon="0.66826">
        <ele>2079.1</ele>
        <time>2018-08-08T18:10:25.000Z</time>
      </trkpt>
      <trkpt lat="42.69745" lon="0.66826">
        <ele>2079.1</ele>
        <time>2018-08-08T18:10:26.000Z</time>
      </trkpt>
      <trkpt lat="42.69745" lon="0.66826">
        <ele>2079.1</ele>
        <time>2018-08-08T18:10:27.000Z</time>
      </trkpt>
      <trkpt lat="42.69745" lon="0.66826">
        <ele>2079.1</ele>
        <time>2018-08-08T18:10:28.000Z</time>
      </trkpt>
      <trkpt lat="42.69745" lon="0.66826">
        <ele>2079.1</ele>
        <time>2018-08-08T18:10:29.000Z</time>
      </trkpt>
      <trkpt lat="42.69745" lon="0.66826">
        <ele>2079.1</ele>
        <time>2018-08-08T18:10:30.000Z</time>
      </trkpt>
      <trkpt lat="42.69745" lon="0.66826">
        <ele>2079.1</ele>
        <time>2018-08-08T18:10:31.000Z</time>
      </trkpt>
      <trkpt lat="42.69745" lon="0.66826">
        <ele>2079.1</ele>
        <time>2018-08-08T18:10:32.000Z</time>
      </trkpt>
      <trkpt lat="42.69745" lon="0.66826">
        <ele>2079.1</ele>
        <time>2018-08-08T18:10:33.000Z</time>
      </trkpt>
      <trkpt lat="42.69745" lon="0.66826">
        <ele>2079.1</ele>
        <time>2018-08-08T18:10:34.000Z</time>
      </trkpt>
      <trkpt lat="42.69745" lon="0.66826">
        <ele>2079.1</ele>
        <time>2018-08-08T18:10:35.000Z</time>
      </trkpt>
      <trkpt lat="42.69745" lon="0.66826">
        <ele>2079.1</ele>
        <time>2018-08-08T18:10:36.000Z</time>
      </trkpt>
      <trkpt lat="42.69745" lon="0.66826">
        <ele>2079.1</ele>
        <time>2018-08-08T18:10:37.000Z</time>
      </trkpt>
      <trkpt lat="42.69745" lon="0.66826">
        <ele>2079.1</ele>
        <time>2018-08-08T18:10:38.000Z</time>
      </trkpt>
      <trkpt lat="42.69745" lon="0.66826">
        <ele>2079.1</ele>
        <time>2018-08-08T18:10:39.000Z</time>
      </trkpt>
      <trkpt lat="42.69745" lon="0.66826">
        <ele>2079.1</ele>
        <time>2018-08-08T18:10:40.000Z</time>
      </trkpt>
      <trkpt lat="42.69745" lon="0.66826">
        <ele>2079.1</ele>
        <time>2018-08-08T18:10:41.000Z</time>
      </trkpt>
      <trkpt lat="42.69745" lon="0.66826">
        <ele>2079.1</ele>
        <time>2018-08-08T18:10:42.000Z</time>
      </trkpt>
      <trkpt lat="42.69745" lon="0.66826">
        <ele>2079.1</ele>
        <time>2018-08-08T18:10:43.000Z</time>
      </trkpt>
      <trkpt lat="42.69745" lon="0.66826">
        <ele>2079.1</ele>
        <time>2018-08-08T18:10:44.000Z</time>
      </trkpt>
      <trkpt lat="42.69745" lon="0.66826">
        <ele>2079.1</ele>
        <time>2018-08-08T18:10:45.000Z</time>
      </trkpt>
      <trkpt lat="42.69745" lon="0.66826">
        <ele>2079.1</ele>
        <time>2018-08-08T18:10:46.000Z</time>
      </trkpt>
      <trkpt lat="42.69745" lon="0.66826">
        <ele>2079.1</ele>
        <time>2018-08-08T18:10:47.000Z</time>
      </trkpt>
      <trkpt lat="42.69745" lon="0.66826">
        <ele>2079.1</ele>
        <time>2018-08-08T18:10:48.000Z</time>
      </trkpt>
      <trkpt lat="42.69745" lon="0.66826">
        <ele>2079.1</ele>
        <time>2018-08-08T18:10:49.000Z</time>
      </trkpt>
      <trkpt lat="42.69745" lon="0.66826">
        <ele>2079.1</ele>
        <time>2018-08-08T18:10:50.000Z</time>
      </trkpt>
      <trkpt lat="42.69745" lon="0.66826">
        <ele>2079.1</ele>
        <time>2018-08-08T18:10:51.000Z</time>
      </trkpt>
      <trkpt lat="42.69745" lon="0.66826">
        <ele>2079.1</ele>
        <time>2018-08-08T18:10:52.000Z</time>
      </trkpt>
      <trkpt lat="42.69745" lon="0.66826">
        <ele>2079.1</ele>
        <time>2018-08-08T18:10:53.000Z</time>
      </trkpt>
      <trkpt lat="42.69745" lon="0.66826">
        <ele>2079.1</ele>
        <time>2018-08-08T18:10:54.000Z</time>
      </trkpt>
      <trkpt lat="42.69745" lon="0.66826">
        <ele>2079.1</ele>
        <time>2018-08-08T18:10:55.000Z</time>
      </trkpt>
      <trkpt lat="42.69745" lon="0.66826">
        <ele>2079.1</ele>
        <time>2018-08-08T18:10:56.000Z</time>
      </trkpt>
      <trkpt lat="42.69745" lon="0.66826">
        <ele>2079.1</ele>
        <time>2018-08-08T18:10:57.000Z</time>
      </trkpt>
      <trkpt lat="42.69745" lon="0.66826">
        <ele>2079.1</ele>
        <time>2018-08-08T18:10:58.000Z</time>
      </trkpt>
      <trkpt lat="42.69745" lon="0.66826">
        <ele>2079.1</ele>
        <time>2018-08-08T18:10:59.000Z</time>
      </trkpt>
      <trkpt lat="42.69745" lon="0.66826">
        <ele>2079.1</ele>
        <time>2018-08-08T18:11:00.000Z</time>
      </trkpt>
      <trkpt lat="42.69745" lon="0.66826">
        <ele>2079.1</ele>
        <time>2018-08-08T18:11:01.000Z</time>
      </trkpt>
      <trkpt lat="42.69745" lon="0.66826">
        <ele>2079.1</ele>
        <time>2018-08-08T18:11:02.000Z</time>
      </trkpt>
      <trkpt lat="42.69745" lon="0.66826">
        <ele>2079.1</ele>
        <time>2018-08-08T18:11:03.000Z</time>
      </trkpt>
      <trkpt lat="42.69745" lon="0.66826">
        <ele>2079.1</ele>
        <time>2018-08-08T18:11:04.000Z</time>
      </trkpt>
      <trkpt lat="42.69745" lon="0.66826">
        <ele>2079.1</ele>
        <time>2018-08-08T18:11:05.000Z</time>
      </trkpt>
      <trkpt lat="42.69745" lon="0.66826">
        <ele>2079.1</ele>
        <time>2018-08-08T18:11:06.000Z</time>
      </trkpt>
      <trkpt lat="42.69745" lon="0.66826">
        <ele>2079.1</ele>
        <time>2018-08-08T18:11:07.000Z</time>
      </trkpt>
      <trkpt lat="42.69745" lon="0.66826">
        <ele>2079.1</ele>
        <time>2018-08-08T18:11:08.000Z</time>
      </trkpt>
      <trkpt lat="42.69745" lon="0.66826">
        <ele>2079.1</ele>
        <time>2018-08-08T18:11:09.000Z</time>
      </trkpt>
      <trkpt lat="42.69745" lon="0.66826">
        <ele>2079.1</ele>
        <time>2018-08-08T18:11:10.000Z</time>
      </trkpt>
      <trkpt lat="42.69745" lon="0.66826">
        <ele>2079.1</ele>
        <time>2018-08-08T18:11:11.000Z</time>
      </trkpt>
      <trkpt lat="42.69745" lon="0.66826">
        <ele>2079.1</ele>
        <time>2018-08-08T18:11:12.000Z</time>
      </trkpt>
      <trkpt lat="42.69745" lon="0.66826">
        <ele>2079.1</ele>
        <time>2018-08-08T18:11:13.000Z</time>
      </trkpt>
      <trkpt lat="42.69745" lon="0.66826">
        <ele>2079.1</ele>
        <time>2018-08-08T18:11:14.000Z</time>
      </trkpt>
      <trkpt lat="42.69745" lon="0.66826">
        <ele>2079.1</ele>
        <time>2018-08-08T18:11:15.000Z</time>
      </trkpt>
      <trkpt lat="42.69745" lon="0.66826">
        <ele>2079.1</ele>
        <time>2018-08-08T18:11:16.000Z</time>
      </trkpt>
      <trkpt lat="42.69745" lon="0.66826">
        <ele>2079.1</ele>
        <time>2018-08-08T18:11:17.000Z</time>
      </trkpt>
      <trkpt lat="42.69745" lon="0.66826">
        <ele>2079.1</ele>
        <time>2018-08-08T18:11:18.000Z</time>
      </trkpt>
      <trkpt lat="42.69745" lon="0.66826">
        <ele>2079.1</ele>
        <time>2018-08-08T18:11:19.000Z</time>
      </trkpt>
      <trkpt lat="42.69745" lon="0.66826">
        <ele>2079.1</ele>
        <time>2018-08-08T18:11:20.000Z</time>
      </trkpt>
      <trkpt lat="42.69745" lon="0.66826">
        <ele>2079.1</ele>
        <time>2018-08-08T18:11:21.000Z</time>
      </trkpt>
      <trkpt lat="42.69745" lon="0.66826">
        <ele>2079.1</ele>
        <time>2018-08-08T18:11:22.000Z</time>
      </trkpt>
      <trkpt lat="42.69745" lon="0.66826">
        <ele>2079.1</ele>
        <time>2018-08-08T18:11:23.000Z</time>
      </trkpt>
      <trkpt lat="42.69745" lon="0.66826">
        <ele>2079.1</ele>
        <time>2018-08-08T18:11:24.000Z</time>
      </trkpt>
      <trkpt lat="42.69745" lon="0.66826">
        <ele>2079.1</ele>
        <time>2018-08-08T18:11:25.000Z</time>
      </trkpt>
      <trkpt lat="42.69745" lon="0.66826">
        <ele>2079.1</ele>
        <time>2018-08-08T18:11:26.000Z</time>
      </trkpt>
      <trkpt lat="42.69745" lon="0.66826">
        <ele>2079.1</ele>
        <time>2018-08-08T18:11:27.000Z</time>
      </trkpt>
      <trkpt lat="42.69745" lon="0.66826">
        <ele>2079.1</ele>
        <time>2018-08-08T18:11:28.000Z</time>
      </trkpt>
      <trkpt lat="42.69745" lon="0.66826">
        <ele>2079.1</ele>
        <time>2018-08-08T18:11:29.000Z</time>
      </trkpt>
      <trkpt lat="42.69745" lon="0.66826">
        <ele>2079.1</ele>
        <time>2018-08-08T18:11:30.000Z</time>
      </trkpt>
      <trkpt lat="42.69745" lon="0.66826">
        <ele>2079.1</ele>
        <time>2018-08-08T18:11:31.000Z</time>
      </trkpt>
      <trkpt lat="42.69745" lon="0.66826">
        <ele>2079.1</ele>
        <time>2018-08-08T18:11:32.000Z</time>
      </trkpt>
      <trkpt lat="42.69745" lon="0.66826">
        <ele>2079.1</ele>
        <time>2018-08-08T18:11:33.000Z</time>
      </trkpt>
      <trkpt lat="42.69745" lon="0.66826">
        <ele>2079.1</ele>
        <time>2018-08-08T18:11:34.000Z</time>
      </trkpt>
      <trkpt lat="42.69745" lon="0.66826">
        <ele>2079.1</ele>
        <time>2018-08-08T18:11:35.000Z</time>
      </trkpt>
      <trkpt lat="42.69745" lon="0.66826">
        <ele>2079.1</ele>
        <time>2018-08-08T18:11:36.000Z</time>
      </trkpt>
      <trkpt lat="42.69745" lon="0.66826">
        <ele>2079.1</ele>
        <time>2018-08-08T18:11:37.000Z</time>
      </trkpt>
      <trkpt lat="42.69745" lon="0.66826">
        <ele>2079.1</ele>
        <time>2018-08-08T18:11:38.000Z</time>
      </trkpt>
      <trkpt lat="42.69745" lon="0.66826">
        <ele>2079.1</ele>
        <time>2018-08-08T18:11:39.000Z</time>
      </trkpt>
      <trkpt lat="42.69745" lon="0.66826">
        <ele>2079.1</ele>
        <time>2018-08-08T18:11:40.000Z</time>
      </trkpt>
      <trkpt lat="42.69745" lon="0.66826">
        <ele>2079.1</ele>
        <time>2018-08-08T18:11:41.000Z</time>
      </trkpt>
      <trkpt lat="42.69745" lon="0.66826">
        <ele>2079.1</ele>
        <time>2018-08-08T18:11:42.000Z</time>
      </trkpt>
      <trkpt lat="42.69745" lon="0.66826">
        <ele>2079.1</ele>
        <time>2018-08-08T18:11:43.000Z</time>
      </trkpt>
      <trkpt lat="42.69745" lon="0.66826">
        <ele>2079.1</ele>
        <time>2018-08-08T18:11:44.000Z</time>
      </trkpt>
      <trkpt lat="42.69745" lon="0.66826">
        <ele>2079.1</ele>
        <time>2018-08-08T18:11:45.000Z</time>
      </trkpt>
      <trkpt lat="42.69745" lon="0.66826">
        <ele>2079.1</ele>
        <time>2018-08-08T18:11:46.000Z</time>
      </trkpt>
      <trkpt lat="42.69745" lon="0.66826">
        <ele>2079.1</ele>
        <time>2018-08-08T18:11:47.000Z</time>
      </trkpt>
      <trkpt lat="42.69745" lon="0.66826">
        <ele>2079.1</ele>
        <time>2018-08-08T18:11:48.000Z</time>
      </trkpt>
      <trkpt lat="42.69745" lon="0.66826">
        <ele>2079.1</ele>
        <time>2018-08-08T18:11:49.000Z</time>
      </trkpt>
      <trkpt lat="42.69745" lon="0.66826">
        <ele>2079.1</ele>
        <time>2018-08-08T18:11:50.000Z</time>
      </trkpt>
      <trkpt lat="42.69745" lon="0.66826">
        <ele>2079.1</ele>
        <time>2018-08-08T18:11:51.000Z</time>
      </trkpt>
      <trkpt lat="42.69745" lon="0.66826">
        <ele>2079.1</ele>
        <time>2018-08-08T18:11:52.000Z</time>
      </trkpt>
      <trkpt lat="42.69745" lon="0.66826">
        <ele>2079.1</ele>
        <time>2018-08-08T18:11:53.000Z</time>
      </trkpt>
      <trkpt lat="42.69745" lon="0.66826">
        <ele>2079.1</ele>
        <time>2018-08-08T18:11:54.000Z</time>
      </trkpt>
      <trkpt lat="42.69745" lon="0.66826">
        <ele>2079.1</ele>
        <time>2018-08-08T18:11:55.000Z</time>
      </trkpt>
      <trkpt lat="42.69745" lon="0.66826">
        <ele>2079.1</ele>
        <time>2018-08-08T18:11:56.000Z</time>
      </trkpt>
      <trkpt lat="42.69745" lon="0.66826">
        <ele>2079.1</ele>
        <time>2018-08-08T18:11:57.000Z</time>
      </trkpt>
      <trkpt lat="42.69745" lon="0.66826">
        <ele>2079.1</ele>
        <time>2018-08-08T18:11:58.000Z</time>
      </trkpt>
      <trkpt lat="42.69745" lon="0.66826">
        <ele>2079.1</ele>
        <time>2018-08-08T18:11:59.000Z</time>
      </trkpt>
      <trkpt lat="42.69745" lon="0.66826">
        <ele>2079.1</ele>
        <time>2018-08-08T18:12:00.000Z</time>
      </trkpt>
      <trkpt lat="42.69745" lon="0.66826">
        <ele>2079.1</ele>
        <time>2018-08-08T18:12:01.000Z</time>
      </trkpt>
      <trkpt lat="42.69745" lon="0.66826">
        <ele>2079.1</ele>
        <time>2018-08-08T18:12:02.000Z</time>
      </trkpt>
      <trkpt lat="42.69745" lon="0.66826">
        <ele>2079.1</ele>
        <time>2018-08-08T18:12:03.000Z</time>
      </trkpt>
      <trkpt lat="42.69745" lon="0.66826">
        <ele>2079.1</ele>
        <time>2018-08-08T18:12:04.000Z</time>
      </trkpt>
      <trkpt lat="42.69745" lon="0.66826">
        <ele>2079.1</ele>
        <time>2018-08-08T18:12:05.000Z</time>
      </trkpt>
      <trkpt lat="42.69745" lon="0.66826">
        <ele>2079.1</ele>
        <time>2018-08-08T18:12:06.000Z</time>
      </trkpt>
      <trkpt lat="42.69745" lon="0.66826">
        <ele>2079.1</ele>
        <time>2018-08-08T18:12:07.000Z</time>
      </trkpt>
      <trkpt lat="42.69745" lon="0.66826">
        <ele>2079.1</ele>
        <time>2018-08-08T18:12:08.000Z</time>
      </trkpt>
      <trkpt lat="42.69745" lon="0.66826">
        <ele>2079.1</ele>
        <time>2018-08-08T18:12:09.000Z</time>
      </trkpt>
      <trkpt lat="42.69745" lon="0.66826">
        <ele>2079.1</ele>
        <time>2018-08-08T18:12:10.000Z</time>
      </trkpt>
      <trkpt lat="42.69745" lon="0.66826">
        <ele>2079.1</ele>
        <time>2018-08-08T18:12:11.000Z</time>
      </trkpt>
      <trkpt lat="42.69745" lon="0.66826">
        <ele>2079.1</ele>
        <time>2018-08-08T18:12:12.000Z</time>
      </trkpt>
      <trkpt lat="42.69745" lon="0.66826">
        <ele>2079.1</ele>
        <time>2018-08-08T18:12:13.000Z</time>
      </trkpt>
      <trkpt lat="42.69745" lon="0.66826">
        <ele>2079.1</ele>
        <time>2018-08-08T18:12:14.000Z</time>
      </trkpt>
      <trkpt lat="42.69745" lon="0.66826">
        <ele>2079.1</ele>
        <time>2018-08-08T18:12:15.000Z</time>
      </trkpt>
      <trkpt lat="42.69745" lon="0.66826">
        <ele>2079.1</ele>
        <time>2018-08-08T18:12:16.000Z</time>
      </trkpt>
      <trkpt lat="42.69745" lon="0.66826">
        <ele>2079.1</ele>
        <time>2018-08-08T18:12:17.000Z</time>
      </trkpt>
      <trkpt lat="42.69745" lon="0.66826">
        <ele>2079.1</ele>
        <time>2018-08-08T18:12:18.000Z</time>
      </trkpt>
      <trkpt lat="42.69745" lon="0.66826">
        <ele>2079.1</ele>
        <time>2018-08-08T18:12:19.000Z</time>
      </trkpt>
      <trkpt lat="42.69745" lon="0.66826">
        <ele>2079.1</ele>
        <time>2018-08-08T18:12:20.000Z</time>
      </trkpt>
      <trkpt lat="42.69745" lon="0.66826">
        <ele>2079.1</ele>
        <time>2018-08-08T18:12:21.000Z</time>
      </trkpt>
      <trkpt lat="42.69745" lon="0.66826">
        <ele>2079.1</ele>
        <time>2018-08-08T18:12:22.000Z</time>
      </trkpt>
      <trkpt lat="42.69745" lon="0.66826">
        <ele>2079.1</ele>
        <time>2018-08-08T18:12:23.000Z</time>
      </trkpt>
      <trkpt lat="42.69745" lon="0.66826">
        <ele>2079.1</ele>
        <time>2018-08-08T18:12:24.000Z</time>
      </trkpt>
      <trkpt lat="42.69745" lon="0.66826">
        <ele>2079.1</ele>
        <time>2018-08-08T18:12:25.000Z</time>
      </trkpt>
      <trkpt lat="42.69745" lon="0.66826">
        <ele>2079.1</ele>
        <time>2018-08-08T18:12:26.000Z</time>
      </trkpt>
      <trkpt lat="42.69745" lon="0.66826">
        <ele>2079.1</ele>
        <time>2018-08-08T18:12:27.000Z</time>
      </trkpt>
      <trkpt lat="42.69745" lon="0.66826">
        <ele>2079.1</ele>
        <time>2018-08-08T18:12:28.000Z</time>
      </trkpt>
      <trkpt lat="42.69745" lon="0.66826">
        <ele>2079.1</ele>
        <time>2018-08-08T18:12:29.000Z</time>
      </trkpt>
      <trkpt lat="42.69745" lon="0.66826">
        <ele>2079.1</ele>
        <time>2018-08-08T18:12:30.000Z</time>
      </trkpt>
      <trkpt lat="42.69745" lon="0.66826">
        <ele>2079.1</ele>
        <time>2018-08-08T18:12:31.000Z</time>
      </trkpt>
      <trkpt lat="42.69745" lon="0.66826">
        <ele>2079.1</ele>
        <time>2018-08-08T18:12:32.000Z</time>
      </trkpt>
      <trkpt lat="42.69745" lon="0.66826">
        <ele>2079.1</ele>
        <time>2018-08-08T18:12:33.000Z</time>
      </trkpt>
      <trkpt lat="42.69745" lon="0.66826">
        <ele>2079.1</ele>
        <time>2018-08-08T18:12:34.000Z</time>
      </trkpt>
      <trkpt lat="42.69745" lon="0.66826">
        <ele>2079.1</ele>
        <time>2018-08-08T18:12:35.000Z</time>
      </trkpt>
      <trkpt lat="42.69745" lon="0.66826">
        <ele>2079.1</ele>
        <time>2018-08-08T18:12:36.000Z</time>
      </trkpt>
      <trkpt lat="42.69745" lon="0.66826">
        <ele>2079.1</ele>
        <time>2018-08-08T18:12:37.000Z</time>
      </trkpt>
      <trkpt lat="42.69745" lon="0.66826">
        <ele>2079.1</ele>
        <time>2018-08-08T18:12:38.000Z</time>
      </trkpt>
      <trkpt lat="42.69745" lon="0.66826">
        <ele>2079.1</ele>
        <time>2018-08-08T18:12:39.000Z</time>
      </trkpt>
      <trkpt lat="42.69745" lon="0.66826">
        <ele>2079.1</ele>
        <time>2018-08-08T18:12:40.000Z</time>
      </trkpt>
      <trkpt lat="42.69745" lon="0.66826">
        <ele>2079.1</ele>
        <time>2018-08-08T18:12:41.000Z</time>
      </trkpt>
      <trkpt lat="42.69745" lon="0.66826">
        <ele>2079.1</ele>
        <time>2018-08-08T18:12:42.000Z</time>
      </trkpt>
      <trkpt lat="42.69745" lon="0.66826">
        <ele>2079.1</ele>
        <time>2018-08-08T18:12:43.000Z</time>
      </trkpt>
      <trkpt lat="42.69745" lon="0.66826">
        <ele>2079.1</ele>
        <time>2018-08-08T18:12:44.000Z</time>
      </trkpt>
      <trkpt lat="42.69745" lon="0.66826">
        <ele>2079.1</ele>
        <time>2018-08-08T18:12:45.000Z</time>
      </trkpt>
      <trkpt lat="42.69745" lon="0.66826">
        <ele>2079.1</ele>
        <time>2018-08-08T18:12:46.000Z</time>
      </trkpt>
      <trkpt lat="42.69745" lon="0.66826">
        <ele>2079.1</ele>
        <time>2018-08-08T18:12:47.000Z</time>
      </trkpt>
      <trkpt lat="42.69745" lon="0.66826">
        <ele>2079.1</ele>
        <time>2018-08-08T18:12:48.000Z</time>
      </trkpt>
      <trkpt lat="42.69745" lon="0.66826">
        <ele>2079.1</ele>
        <time>2018-08-08T18:12:49.000Z</time>
      </trkpt>
      <trkpt lat="42.69745" lon="0.66826">
        <ele>2079.1</ele>
        <time>2018-08-08T18:12:50.000Z</time>
      </trkpt>
      <trkpt lat="42.69745" lon="0.66826">
        <ele>2079.1</ele>
        <time>2018-08-08T18:12:51.000Z</time>
      </trkpt>
      <trkpt lat="42.69745" lon="0.66826">
        <ele>2079.1</ele>
        <time>2018-08-08T18:12:52.000Z</time>
      </trkpt>
      <trkpt lat="42.69745" lon="0.66826">
        <ele>2079.1</ele>
        <time>2018-08-08T18:12:53.000Z</time>
      </trkpt>
      <trkpt lat="42.69745" lon="0.66826">
        <ele>2079.1</ele>
        <time>2018-08-08T18:12:54.000Z</time>
      </trkpt>
      <trkpt lat="42.69745" lon="0.66826">
        <ele>2079.1</ele>
        <time>2018-08-08T18:12:55.000Z</time>
      </trkpt>
      <trkpt lat="42.69745" lon="0.66826">
        <ele>2079.1</ele>
        <time>2018-08-08T18:12:56.000Z</time>
      </trkpt>
      <trkpt lat="42.69745" lon="0.66826">
        <ele>2079.1</ele>
        <time>2018-08-08T18:12:57.000Z</time>
      </trkpt>
      <trkpt lat="42.69745" lon="0.66826">
        <ele>2079.1</ele>
        <time>2018-08-08T18:12:58.000Z</time>
      </trkpt>
      <trkpt lat="42.69745" lon="0.66826">
        <ele>2079.1</ele>
        <time>2018-08-08T18:12:59.000Z</time>
      </trkpt>
      <trkpt lat="42.69745" lon="0.66826">
        <ele>2079.1</ele>
        <time>2018-08-08T18:13:00.000Z</time>
      </trkpt>
      <trkpt lat="42.69745" lon="0.66826">
        <ele>2079.1</ele>
        <time>2018-08-08T18:13:01.000Z</time>
      </trkpt>
      <trkpt lat="42.69745" lon="0.66826">
        <ele>2079.1</ele>
        <time>2018-08-08T18:13:02.000Z</time>
      </trkpt>
      <trkpt lat="42.69745" lon="0.66826">
        <ele>2079.1</ele>
        <time>2018-08-08T18:13:03.000Z</time>
      </trkpt>
      <trkpt lat="42.69745" lon="0.66826">
        <ele>2079.1</ele>
        <time>2018-08-08T18:13:04.000Z</time>
      </trkpt>
      <trkpt lat="42.69745" lon="0.66826">
        <ele>2079.1</ele>
        <time>2018-08-08T18:13:05.000Z</time>
      </trkpt>
      <trkpt lat="42.69745" lon="0.66826">
        <ele>2079.1</ele>
        <time>2018-08-08T18:13:06.000Z</time>
      </trkpt>
      <trkpt lat="42.69745" lon="0.66826">
        <ele>2079.1</ele>
        <time>2018-08-08T18:13:07.000Z</time>
      </trkpt>
      <trkpt lat="42.69745" lon="0.66826">
        <ele>2079.1</ele>
        <time>2018-08-08T18:13:08.000Z</time>
      </trkpt>
      <trkpt lat="42.69745" lon="0.66826">
        <ele>2079.1</ele>
        <time>2018-08-08T18:13:09.000Z</time>
      </trkpt>
      <trkpt lat="42.69745" lon="0.66826">
        <ele>2079.1</ele>
        <time>2018-08-08T18:13:10.000Z</time>
      </trkpt>
      <trkpt lat="42.69745" lon="0.66826">
        <ele>2079.1</ele>
        <time>2018-08-08T18:13:11.000Z</time>
      </trkpt>
      <trkpt lat="42.69745" lon="0.66826">
        <ele>2079.1</ele>
        <time>2018-08-08T18:13:12.000Z</time>
      </trkpt>
      <trkpt lat="42.69745" lon="0.66826">
        <ele>2079.1</ele>
        <time>2018-08-08T18:13:13.000Z</time>
      </trkpt>
      <trkpt lat="42.69745" lon="0.66826">
        <ele>2079.1</ele>
        <time>2018-08-08T18:13:14.000Z</time>
      </trkpt>
      <trkpt lat="42.69745" lon="0.66826">
        <ele>2079.1</ele>
        <time>2018-08-08T18:13:15.000Z</time>
      </trkpt>
      <trkpt lat="42.69745" lon="0.66826">
        <ele>2079.1</ele>
        <time>2018-08-08T18:13:16.000Z</time>
      </trkpt>
      <trkpt lat="42.69745" lon="0.66826">
        <ele>2079.1</ele>
        <time>2018-08-08T18:13:17.000Z</time>
      </trkpt>
      <trkpt lat="42.69745" lon="0.66826">
        <ele>2079.1</ele>
        <time>2018-08-08T18:13:18.000Z</time>
      </trkpt>
      <trkpt lat="42.69745" lon="0.66826">
        <ele>2079.1</ele>
        <time>2018-08-08T18:13:19.000Z</time>
      </trkpt>
      <trkpt lat="42.69745" lon="0.66826">
        <ele>2079.1</ele>
        <time>2018-08-08T18:13:20.000Z</time>
      </trkpt>
      <trkpt lat="42.69745" lon="0.66826">
        <ele>2079.1</ele>
        <time>2018-08-08T18:13:21.000Z</time>
      </trkpt>
      <trkpt lat="42.69745" lon="0.66826">
        <ele>2079.1</ele>
        <time>2018-08-08T18:13:22.000Z</time>
      </trkpt>
      <trkpt lat="42.69745" lon="0.66826">
        <ele>2079.1</ele>
        <time>2018-08-08T18:13:23.000Z</time>
      </trkpt>
      <trkpt lat="42.69745" lon="0.66826">
        <ele>2079.1</ele>
        <time>2018-08-08T18:13:24.000Z</time>
      </trkpt>
      <trkpt lat="42.69745" lon="0.66826">
        <ele>2079.1</ele>
        <time>2018-08-08T18:13:25.000Z</time>
      </trkpt>
      <trkpt lat="42.69745" lon="0.66826">
        <ele>2079.1</ele>
        <time>2018-08-08T18:13:26.000Z</time>
      </trkpt>
      <trkpt lat="42.69745" lon="0.66826">
        <ele>2079.1</ele>
        <time>2018-08-08T18:13:27.000Z</time>
      </trkpt>
      <trkpt lat="42.69745" lon="0.66826">
        <ele>2079.1</ele>
        <time>2018-08-08T18:13:28.000Z</time>
      </trkpt>
      <trkpt lat="42.69745" lon="0.66826">
        <ele>2079.1</ele>
        <time>2018-08-08T18:13:29.000Z</time>
      </trkpt>
      <trkpt lat="42.69745" lon="0.66826">
        <ele>2079.1</ele>
        <time>2018-08-08T18:13:30.000Z</time>
      </trkpt>
      <trkpt lat="42.69745" lon="0.66826">
        <ele>2079.1</ele>
        <time>2018-08-08T18:13:31.000Z</time>
      </trkpt>
      <trkpt lat="42.69745" lon="0.66826">
        <ele>2079.1</ele>
        <time>2018-08-08T18:13:32.000Z</time>
      </trkpt>
      <trkpt lat="42.69745" lon="0.66826">
        <ele>2079.1</ele>
        <time>2018-08-08T18:13:33.000Z</time>
      </trkpt>
      <trkpt lat="42.69745" lon="0.66826">
        <ele>2079.1</ele>
        <time>2018-08-08T18:13:34.000Z</time>
      </trkpt>
      <trkpt lat="42.69745" lon="0.66826">
        <ele>2079.1</ele>
        <time>2018-08-08T18:13:35.000Z</time>
      </trkpt>
      <trkpt lat="42.69745" lon="0.66826">
        <ele>2079.1</ele>
        <time>2018-08-08T18:13:36.000Z</time>
      </trkpt>
      <trkpt lat="42.69745" lon="0.66826">
        <ele>2079.1</ele>
        <time>2018-08-08T18:13:37.000Z</time>
      </trkpt>
      <trkpt lat="42.69745" lon="0.66826">
        <ele>2079.1</ele>
        <time>2018-08-08T18:13:38.000Z</time>
      </trkpt>
      <trkpt lat="42.69745" lon="0.66826">
        <ele>2079.1</ele>
        <time>2018-08-08T18:13:39.000Z</time>
      </trkpt>
      <trkpt lat="42.69745" lon="0.66826">
        <ele>2079.1</ele>
        <time>2018-08-08T18:13:40.000Z</time>
      </trkpt>
      <trkpt lat="42.69745" lon="0.66826">
        <ele>2079.1</ele>
        <time>2018-08-08T18:13:41.000Z</time>
      </trkpt>
      <trkpt lat="42.69745" lon="0.66826">
        <ele>2079.1</ele>
        <time>2018-08-08T18:13:42.000Z</time>
      </trkpt>
      <trkpt lat="42.69745" lon="0.66826">
        <ele>2079.1</ele>
        <time>2018-08-08T18:13:43.000Z</time>
      </trkpt>
      <trkpt lat="42.69745" lon="0.66826">
        <ele>2079.1</ele>
        <time>2018-08-08T18:13:44.000Z</time>
      </trkpt>
      <trkpt lat="42.69745" lon="0.66826">
        <ele>2079.1</ele>
        <time>2018-08-08T18:13:45.000Z</time>
      </trkpt>
      <trkpt lat="42.69745" lon="0.66826">
        <ele>2079.1</ele>
        <time>2018-08-08T18:13:46.000Z</time>
      </trkpt>
      <trkpt lat="42.69745" lon="0.66826">
        <ele>2079.1</ele>
        <time>2018-08-08T18:13:47.000Z</time>
      </trkpt>
      <trkpt lat="42.69745" lon="0.66826">
        <ele>2079.1</ele>
        <time>2018-08-08T18:13:48.000Z</time>
      </trkpt>
      <trkpt lat="42.69745" lon="0.66826">
        <ele>2079.1</ele>
        <time>2018-08-08T18:13:49.000Z</time>
      </trkpt>
      <trkpt lat="42.69745" lon="0.66826">
        <ele>2079.1</ele>
        <time>2018-08-08T18:13:50.000Z</time>
      </trkpt>
      <trkpt lat="42.69745" lon="0.66826">
        <ele>2079.1</ele>
        <time>2018-08-08T18:13:51.000Z</time>
      </trkpt>
      <trkpt lat="42.69745" lon="0.66826">
        <ele>2079.1</ele>
        <time>2018-08-08T18:13:52.000Z</time>
      </trkpt>
      <trkpt lat="42.69745" lon="0.66826">
        <ele>2079.1</ele>
        <time>2018-08-08T18:13:53.000Z</time>
      </trkpt>
      <trkpt lat="42.69745" lon="0.66826">
        <ele>2079.1</ele>
        <time>2018-08-08T18:13:54.000Z</time>
      </trkpt>
      <trkpt lat="42.69745" lon="0.66826">
        <ele>2079.1</ele>
        <time>2018-08-08T18:13:55.000Z</time>
      </trkpt>
      <trkpt lat="42.69745" lon="0.66826">
        <ele>2079.1</ele>
        <time>2018-08-08T18:13:56.000Z</time>
      </trkpt>
      <trkpt lat="42.69745" lon="0.66826">
        <ele>2079.1</ele>
        <time>2018-08-08T18:13:57.000Z</time>
      </trkpt>
      <trkpt lat="42.69745" lon="0.66826">
        <ele>2079.1</ele>
        <time>2018-08-08T18:13:58.000Z</time>
      </trkpt>
      <trkpt lat="42.69745" lon="0.66826">
        <ele>2079.1</ele>
        <time>2018-08-08T18:13:59.000Z</time>
      </trkpt>
      <trkpt lat="42.69745" lon="0.66826">
        <ele>2079.1</ele>
        <time>2018-08-08T18:14:00.000Z</time>
      </trkpt>
      <trkpt lat="42.69745" lon="0.66826">
        <ele>2079.1</ele>
        <time>2018-08-08T18:14:01.000Z</time>
      </trkpt>
      <trkpt lat="42.69745" lon="0.66826">
        <ele>2079.1</ele>
        <time>2018-08-08T18:14:02.000Z</time>
      </trkpt>
      <trkpt lat="42.69745" lon="0.66826">
        <ele>2079.1</ele>
        <time>2018-08-08T18:14:03.000Z</time>
      </trkpt>
      <trkpt lat="42.69745" lon="0.66826">
        <ele>2079.1</ele>
        <time>2018-08-08T18:14:04.000Z</time>
      </trkpt>
      <trkpt lat="42.69745" lon="0.66826">
        <ele>2079.1</ele>
        <time>2018-08-08T18:14:05.000Z</time>
      </trkpt>
      <trkpt lat="42.69745" lon="0.66826">
        <ele>2079.1</ele>
        <time>2018-08-08T18:14:06.000Z</time>
      </trkpt>
      <trkpt lat="42.69745" lon="0.66826">
        <ele>2079.1</ele>
        <time>2018-08-08T18:14:07.000Z</time>
      </trkpt>
      <trkpt lat="42.69745" lon="0.66826">
        <ele>2079.1</ele>
        <time>2018-08-08T18:14:08.000Z</time>
      </trkpt>
      <trkpt lat="42.69745" lon="0.66826">
        <ele>2079.1</ele>
        <time>2018-08-08T18:14:09.000Z</time>
      </trkpt>
      <trkpt lat="42.69745" lon="0.66826">
        <ele>2079.1</ele>
        <time>2018-08-08T18:14:10.000Z</time>
      </trkpt>
      <trkpt lat="42.69745" lon="0.66826">
        <ele>2079.1</ele>
        <time>2018-08-08T18:14:11.000Z</time>
      </trkpt>
      <trkpt lat="42.69745" lon="0.66826">
        <ele>2079.1</ele>
        <time>2018-08-08T18:14:12.000Z</time>
      </trkpt>
      <trkpt lat="42.69745" lon="0.66826">
        <ele>2079.1</ele>
        <time>2018-08-08T18:14:13.000Z</time>
      </trkpt>
      <trkpt lat="42.69745" lon="0.66826">
        <ele>2079.1</ele>
        <time>2018-08-08T18:14:14.000Z</time>
      </trkpt>
      <trkpt lat="42.69745" lon="0.66826">
        <ele>2079.1</ele>
        <time>2018-08-08T18:14:15.000Z</time>
      </trkpt>
      <trkpt lat="42.69745" lon="0.66826">
        <ele>2079.1</ele>
        <time>2018-08-08T18:14:16.000Z</time>
      </trkpt>
      <trkpt lat="42.69745" lon="0.66826">
        <ele>2079.1</ele>
        <time>2018-08-08T18:14:17.000Z</time>
      </trkpt>
      <trkpt lat="42.69745" lon="0.66826">
        <ele>2079.1</ele>
        <time>2018-08-08T18:14:18.000Z</time>
      </trkpt>
      <trkpt lat="42.69745" lon="0.66826">
        <ele>2079.1</ele>
        <time>2018-08-08T18:14:19.000Z</time>
      </trkpt>
      <trkpt lat="42.69745" lon="0.66826">
        <ele>2079.1</ele>
        <time>2018-08-08T18:14:20.000Z</time>
      </trkpt>
      <trkpt lat="42.69745" lon="0.66826">
        <ele>2079.1</ele>
        <time>2018-08-08T18:14:21.000Z</time>
      </trkpt>
      <trkpt lat="42.69745" lon="0.66826">
        <ele>2079.1</ele>
        <time>2018-08-08T18:14:22.000Z</time>
      </trkpt>
      <trkpt lat="42.69745" lon="0.66826">
        <ele>2079.1</ele>
        <time>2018-08-08T18:14:23.000Z</time>
      </trkpt>
      <trkpt lat="42.69745" lon="0.66826">
        <ele>2079.1</ele>
        <time>2018-08-08T18:14:24.000Z</time>
      </trkpt>
      <trkpt lat="42.69745" lon="0.66826">
        <ele>2079.1</ele>
        <time>2018-08-08T18:14:25.000Z</time>
      </trkpt>
      <trkpt lat="42.69745" lon="0.66826">
        <ele>2079.1</ele>
        <time>2018-08-08T18:14:26.000Z</time>
      </trkpt>
      <trkpt lat="42.69745" lon="0.66826">
        <ele>2079.1</ele>
        <time>2018-08-08T18:14:27.000Z</time>
      </trkpt>
      <trkpt lat="42.69745" lon="0.66826">
        <ele>2079.1</ele>
        <time>2018-08-08T18:14:28.000Z</time>
      </trkpt>
      <trkpt lat="42.69745" lon="0.66826">
        <ele>2079.1</ele>
        <time>2018-08-08T18:14:29.000Z</time>
      </trkpt>
      <trkpt lat="42.69745" lon="0.66826">
        <ele>2079.1</ele>
        <time>2018-08-08T18:14:30.000Z</time>
      </trkpt>
      <trkpt lat="42.69745" lon="0.66826">
        <ele>2079.1</ele>
        <time>2018-08-08T18:14:31.000Z</time>
      </trkpt>
      <trkpt lat="42.69745" lon="0.66826">
        <ele>2079.1</ele>
        <time>2018-08-08T18:14:32.000Z</time>
      </trkpt>
      <trkpt lat="42.69745" lon="0.66826">
        <ele>2079.1</ele>
        <time>2018-08-08T18:14:33.000Z</time>
      </trkpt>
      <trkpt lat="42.69745" lon="0.66826">
        <ele>2079.1</ele>
        <time>2018-08-08T18:14:34.000Z</time>
      </trkpt>
      <trkpt lat="42.69745" lon="0.66826">
        <ele>2079.1</ele>
        <time>2018-08-08T18:14:35.000Z</time>
      </trkpt>
      <trkpt lat="42.69745" lon="0.66826">
        <ele>2079.1</ele>
        <time>2018-08-08T18:14:36.000Z</time>
      </trkpt>
      <trkpt lat="42.69745" lon="0.66826">
        <ele>2079.1</ele>
        <time>2018-08-08T18:14:37.000Z</time>
      </trkpt>
      <trkpt lat="42.69745" lon="0.66826">
        <ele>2079.1</ele>
        <time>2018-08-08T18:14:38.000Z</time>
      </trkpt>
      <trkpt lat="42.69745" lon="0.66826">
        <ele>2079.1</ele>
        <time>2018-08-08T18:14:39.000Z</time>
      </trkpt>
      <trkpt lat="42.69745" lon="0.66826">
        <ele>2079.1</ele>
        <time>2018-08-08T18:14:40.000Z</time>
      </trkpt>
      <trkpt lat="42.69745" lon="0.66826">
        <ele>2079.1</ele>
        <time>2018-08-08T18:14:41.000Z</time>
      </trkpt>
      <trkpt lat="42.69745" lon="0.66826">
        <ele>2079.1</ele>
        <time>2018-08-08T18:14:42.000Z</time>
      </trkpt>
      <trkpt lat="42.69745" lon="0.66826">
        <ele>2079.1</ele>
        <time>2018-08-08T18:14:43.000Z</time>
      </trkpt>
      <trkpt lat="42.69745" lon="0.66826">
        <ele>2079.1</ele>
        <time>2018-08-08T18:14:44.000Z</time>
      </trkpt>
      <trkpt lat="42.69745" lon="0.66826">
        <ele>2079.1</ele>
        <time>2018-08-08T18:14:45.000Z</time>
      </trkpt>
      <trkpt lat="42.69745" lon="0.66826">
        <ele>2079.1</ele>
        <time>2018-08-08T18:14:46.000Z</time>
      </trkpt>
      <trkpt lat="42.69745" lon="0.66826">
        <ele>2079.1</ele>
        <time>2018-08-08T18:14:47.000Z</time>
      </trkpt>
      <trkpt lat="42.69745" lon="0.66826">
        <ele>2079.1</ele>
        <time>2018-08-08T18:14:48.000Z</time>
      </trkpt>
      <trkpt lat="42.69745" lon="0.66826">
        <ele>2079.1</ele>
        <time>2018-08-08T18:14:49.000Z</time>
      </trkpt>
      <trkpt lat="42.69745" lon="0.66826">
        <ele>2079.1</ele>
        <time>2018-08-08T18:14:50.000Z</time>
      </trkpt>
      <trkpt lat="42.69745" lon="0.66826">
        <ele>2079.1</ele>
        <time>2018-08-08T18:14:51.000Z</time>
      </trkpt>
      <trkpt lat="42.69745" lon="0.66826">
        <ele>2079.1</ele>
        <time>2018-08-08T18:14:52.000Z</time>
      </trkpt>
      <trkpt lat="42.69745" lon="0.66826">
        <ele>2079.1</ele>
        <time>2018-08-08T18:14:53.000Z</time>
      </trkpt>
      <trkpt lat="42.69745" lon="0.66826">
        <ele>2079.1</ele>
        <time>2018-08-08T18:14:54.000Z</time>
      </trkpt>
      <trkpt lat="42.69745" lon="0.66826">
        <ele>2079.1</ele>
        <time>2018-08-08T18:14:55.000Z</time>
      </trkpt>
      <trkpt lat="42.69745" lon="0.66826">
        <ele>2079.1</ele>
        <time>2018-08-08T18:14:56.000Z</time>
      </trkpt>
      <trkpt lat="42.69745" lon="0.66826">
        <ele>2079.1</ele>
        <time>2018-08-08T18:14:57.000Z</time>
      </trkpt>
      <trkpt lat="42.69745" lon="0.66826">
        <ele>2079.1</ele>
        <time>2018-08-08T18:14:58.000Z</time>
      </trkpt>
      <trkpt lat="42.69745" lon="0.66826">
        <ele>2079.1</ele>
        <time>2018-08-08T18:14:59.000Z</time>
      </trkpt>
      <trkpt lat="42.69745" lon="0.66826">
        <ele>2079.1</ele>
        <time>2018-08-08T18:15:00.000Z</time>
      </trkpt>
      <trkpt lat="42.69745" lon="0.66826">
        <ele>2079.1</ele>
        <time>2018-08-08T18:15:01.000Z</time>
      </trkpt>
      <trkpt lat="42.69745" lon="0.66826">
        <ele>2079.1</ele>
        <time>2018-08-08T18:15:02.000Z</time>
      </trkpt>
      <trkpt lat="42.69745" lon="0.66826">
        <ele>2079.1</ele>
        <time>2018-08-08T18:15:03.000Z</time>
      </trkpt>
      <trkpt lat="42.69745" lon="0.66826">
        <ele>2079.1</ele>
        <time>2018-08-08T18:15:04.000Z</time>
      </trkpt>
      <trkpt lat="42.69745" lon="0.66826">
        <ele>2079.1</ele>
        <time>2018-08-08T18:15:05.000Z</time>
      </trkpt>
      <trkpt lat="42.69745" lon="0.66826">
        <ele>2079.1</ele>
        <time>2018-08-08T18:15:06.000Z</time>
      </trkpt>
      <trkpt lat="42.69745" lon="0.66826">
        <ele>2079.1</ele>
        <time>2018-08-08T18:15:07.000Z</time>
      </trkpt>
      <trkpt lat="42.69745" lon="0.66826">
        <ele>2079.1</ele>
        <time>2018-08-08T18:15:08.000Z</time>
      </trkpt>
      <trkpt lat="42.69745" lon="0.66826">
        <ele>2079.1</ele>
        <time>2018-08-08T18:15:09.000Z</time>
      </trkpt>
      <trkpt lat="42.69745" lon="0.66826">
        <ele>2079.1</ele>
        <time>2018-08-08T18:15:10.000Z</time>
      </trkpt>
      <trkpt lat="42.69745" lon="0.66826">
        <ele>2079.1</ele>
        <time>2018-08-08T18:15:11.000Z</time>
      </trkpt>
      <trkpt lat="42.69745" lon="0.66826">
        <ele>2079.1</ele>
        <time>2018-08-08T18:15:12.000Z</time>
      </trkpt>
      <trkpt lat="42.69745" lon="0.66826">
        <ele>2079.1</ele>
        <time>2018-08-08T18:15:13.000Z</time>
      </trkpt>
      <trkpt lat="42.69745" lon="0.66826">
        <ele>2079.1</ele>
        <time>2018-08-08T18:15:14.000Z</time>
      </trkpt>
      <trkpt lat="42.69745" lon="0.66826">
        <ele>2079.1</ele>
        <time>2018-08-08T18:15:15.000Z</time>
      </trkpt>
      <trkpt lat="42.69745" lon="0.66826">
        <ele>2079.1</ele>
        <time>2018-08-08T18:15:16.000Z</time>
      </trkpt>
      <trkpt lat="42.69745" lon="0.66826">
        <ele>2079.1</ele>
        <time>2018-08-08T18:15:17.000Z</time>
      </trkpt>
      <trkpt lat="42.69745" lon="0.66826">
        <ele>2079.1</ele>
        <time>2018-08-08T18:15:18.000Z</time>
      </trkpt>
      <trkpt lat="42.69745" lon="0.66826">
        <ele>2079.1</ele>
        <time>2018-08-08T18:15:19.000Z</time>
      </trkpt>
      <trkpt lat="42.69745" lon="0.66826">
        <ele>2079.1</ele>
        <time>2018-08-08T18:15:20.000Z</time>
      </trkpt>
      <trkpt lat="42.69745" lon="0.66826">
        <ele>2079.1</ele>
        <time>2018-08-08T18:15:21.000Z</time>
      </trkpt>
      <trkpt lat="42.69745" lon="0.66826">
        <ele>2079.1</ele>
        <time>2018-08-08T18:15:22.000Z</time>
      </trkpt>
      <trkpt lat="42.69745" lon="0.66826">
        <ele>2079.1</ele>
        <time>2018-08-08T18:15:23.000Z</time>
      </trkpt>
      <trkpt lat="42.69745" lon="0.66826">
        <ele>2079.1</ele>
        <time>2018-08-08T18:15:24.000Z</time>
      </trkpt>
      <trkpt lat="42.69745" lon="0.66826">
        <ele>2079.1</ele>
        <time>2018-08-08T18:15:25.000Z</time>
      </trkpt>
      <trkpt lat="42.69745" lon="0.66826">
        <ele>2079.1</ele>
        <time>2018-08-08T18:15:26.000Z</time>
      </trkpt>
      <trkpt lat="42.69745" lon="0.66826">
        <ele>2079.1</ele>
        <time>2018-08-08T18:15:27.000Z</time>
      </trkpt>
      <trkpt lat="42.69745" lon="0.66826">
        <ele>2079.1</ele>
        <time>2018-08-08T18:15:28.000Z</time>
      </trkpt>
      <trkpt lat="42.69745" lon="0.66826">
        <ele>2079.1</ele>
        <time>2018-08-08T18:15:29.000Z</time>
      </trkpt>
      <trkpt lat="42.69745" lon="0.66826">
        <ele>2079.1</ele>
        <time>2018-08-08T18:15:30.000Z</time>
      </trkpt>
      <trkpt lat="42.69745" lon="0.66826">
        <ele>2079.1</ele>
        <time>2018-08-08T18:15:31.000Z</time>
      </trkpt>
      <trkpt lat="42.69745" lon="0.66826">
        <ele>2079.1</ele>
        <time>2018-08-08T18:15:32.000Z</time>
      </trkpt>
      <trkpt lat="42.69745" lon="0.66826">
        <ele>2079.1</ele>
        <time>2018-08-08T18:15:33.000Z</time>
      </trkpt>
      <trkpt lat="42.69745" lon="0.66826">
        <ele>2079.1</ele>
        <time>2018-08-08T18:15:34.000Z</time>
      </trkpt>
      <trkpt lat="42.69745" lon="0.66826">
        <ele>2079.1</ele>
        <time>2018-08-08T18:15:35.000Z</time>
      </trkpt>
      <trkpt lat="42.69745" lon="0.66826">
        <ele>2079.1</ele>
        <time>2018-08-08T18:15:36.000Z</time>
      </trkpt>
      <trkpt lat="42.69745" lon="0.66826">
        <ele>2079.1</ele>
        <time>2018-08-08T18:15:37.000Z</time>
      </trkpt>
      <trkpt lat="42.69745" lon="0.66826">
        <ele>2079.1</ele>
        <time>2018-08-08T18:15:38.000Z</time>
      </trkpt>
      <trkpt lat="42.69745" lon="0.66826">
        <ele>2079.1</ele>
        <time>2018-08-08T18:15:39.000Z</time>
      </trkpt>
      <trkpt lat="42.69745" lon="0.66826">
        <ele>2079.1</ele>
        <time>2018-08-08T18:15:40.000Z</time>
      </trkpt>
      <trkpt lat="42.69745" lon="0.66826">
        <ele>2079.1</ele>
        <time>2018-08-08T18:15:41.000Z</time>
      </trkpt>
      <trkpt lat="42.69745" lon="0.66826">
        <ele>2079.1</ele>
        <time>2018-08-08T18:15:42.000Z</time>
      </trkpt>
      <trkpt lat="42.69745" lon="0.66826">
        <ele>2079.1</ele>
        <time>2018-08-08T18:15:43.000Z</time>
      </trkpt>
      <trkpt lat="42.69745" lon="0.66826">
        <ele>2079.1</ele>
        <time>2018-08-08T18:15:44.000Z</time>
      </trkpt>
      <trkpt lat="42.69745" lon="0.66826">
        <ele>2079.1</ele>
        <time>2018-08-08T18:15:45.000Z</time>
      </trkpt>
      <trkpt lat="42.69745" lon="0.66826">
        <ele>2079.1</ele>
        <time>2018-08-08T18:15:46.000Z</time>
      </trkpt>
      <trkpt lat="42.69745" lon="0.66826">
        <ele>2079.1</ele>
        <time>2018-08-08T18:15:47.000Z</time>
      </trkpt>
      <trkpt lat="42.69745" lon="0.66826">
        <ele>2079.1</ele>
        <time>2018-08-08T18:15:48.000Z</time>
      </trkpt>
      <trkpt lat="42.69745" lon="0.66826">
        <ele>2079.1</ele>
        <time>2018-08-08T18:15:49.000Z</time>
      </trkpt>
      <trkpt lat="42.69745" lon="0.66826">
        <ele>2079.1</ele>
        <time>2018-08-08T18:15:50.000Z</time>
      </trkpt>
      <trkpt lat="42.69745" lon="0.66826">
        <ele>2079.1</ele>
        <time>2018-08-08T18:15:51.000Z</time>
      </trkpt>
      <trkpt lat="42.69745" lon="0.66826">
        <ele>2079.1</ele>
        <time>2018-08-08T18:15:52.000Z</time>
      </trkpt>
      <trkpt lat="42.69745" lon="0.66826">
        <ele>2079.1</ele>
        <time>2018-08-08T18:15:53.000Z</time>
      </trkpt>
      <trkpt lat="42.69745" lon="0.66826">
        <ele>2079.1</ele>
        <time>2018-08-08T18:15:54.000Z</time>
      </trkpt>
      <trkpt lat="42.69745" lon="0.66826">
        <ele>2079.1</ele>
        <time>2018-08-08T18:15:55.000Z</time>
      </trkpt>
      <trkpt lat="42.69745" lon="0.66826">
        <ele>2079.1</ele>
        <time>2018-08-08T18:15:56.000Z</time>
      </trkpt>
      <trkpt lat="42.69745" lon="0.66826">
        <ele>2079.1</ele>
        <time>2018-08-08T18:15:57.000Z</time>
      </trkpt>
      <trkpt lat="42.69745" lon="0.66826">
        <ele>2079.1</ele>
        <time>2018-08-08T18:15:58.000Z</time>
      </trkpt>
      <trkpt lat="42.69745" lon="0.66826">
        <ele>2079.1</ele>
        <time>2018-08-08T18:15:59.000Z</time>
      </trkpt>
      <trkpt lat="42.69745" lon="0.66826">
        <ele>2079.1</ele>
        <time>2018-08-08T18:16:00.000Z</time>
      </trkpt>
      <trkpt lat="42.69745" lon="0.66826">
        <ele>2079.1</ele>
        <time>2018-08-08T18:16:01.000Z</time>
      </trkpt>
      <trkpt lat="42.69745" lon="0.66826">
        <ele>2079.1</ele>
        <time>2018-08-08T18:16:02.000Z</time>
      </trkpt>
      <trkpt lat="42.69745" lon="0.66826">
        <ele>2079.1</ele>
        <time>2018-08-08T18:16:03.000Z</time>
      </trkpt>
      <trkpt lat="42.69745" lon="0.66826">
        <ele>2079.1</ele>
        <time>2018-08-08T18:16:04.000Z</time>
      </trkpt>
      <trkpt lat="42.69745" lon="0.66826">
        <ele>2079.1</ele>
        <time>2018-08-08T18:16:05.000Z</time>
      </trkpt>
      <trkpt lat="42.69745" lon="0.66826">
        <ele>2079.1</ele>
        <time>2018-08-08T18:16:06.000Z</time>
      </trkpt>
      <trkpt lat="42.69745" lon="0.66826">
        <ele>2079.1</ele>
        <time>2018-08-08T18:16:07.000Z</time>
      </trkpt>
      <trkpt lat="42.69745" lon="0.66826">
        <ele>2079.1</ele>
        <time>2018-08-08T18:16:08.000Z</time>
      </trkpt>
      <trkpt lat="42.69745" lon="0.66826">
        <ele>2079.1</ele>
        <time>2018-08-08T18:16:09.000Z</time>
      </trkpt>
      <trkpt lat="42.69745" lon="0.66826">
        <ele>2079.1</ele>
        <time>2018-08-08T18:16:10.000Z</time>
      </trkpt>
      <trkpt lat="42.69745" lon="0.66826">
        <ele>2079.1</ele>
        <time>2018-08-08T18:16:11.000Z</time>
      </trkpt>
      <trkpt lat="42.69745" lon="0.66826">
        <ele>2079.1</ele>
        <time>2018-08-08T18:16:12.000Z</time>
      </trkpt>
      <trkpt lat="42.69745" lon="0.66826">
        <ele>2079.1</ele>
        <time>2018-08-08T18:16:13.000Z</time>
      </trkpt>
      <trkpt lat="42.69745" lon="0.66826">
        <ele>2079.1</ele>
        <time>2018-08-08T18:16:14.000Z</time>
      </trkpt>
      <trkpt lat="42.69745" lon="0.66826">
        <ele>2079.1</ele>
        <time>2018-08-08T18:16:15.000Z</time>
      </trkpt>
      <trkpt lat="42.69745" lon="0.66826">
        <ele>2079.1</ele>
        <time>2018-08-08T18:16:16.000Z</time>
      </trkpt>
      <trkpt lat="42.69745" lon="0.66826">
        <ele>2079.1</ele>
        <time>2018-08-08T18:16:17.000Z</time>
      </trkpt>
      <trkpt lat="42.69745" lon="0.66826">
        <ele>2079.1</ele>
        <time>2018-08-08T18:16:18.000Z</time>
      </trkpt>
      <trkpt lat="42.69745" lon="0.66826">
        <ele>2079.1</ele>
        <time>2018-08-08T18:16:19.000Z</time>
      </trkpt>
      <trkpt lat="42.69745" lon="0.66826">
        <ele>2079.1</ele>
        <time>2018-08-08T18:16:20.000Z</time>
      </trkpt>
      <trkpt lat="42.69745" lon="0.66826">
        <ele>2079.1</ele>
        <time>2018-08-08T18:16:21.000Z</time>
      </trkpt>
      <trkpt lat="42.69745" lon="0.66826">
        <ele>2079.1</ele>
        <time>2018-08-08T18:16:22.000Z</time>
      </trkpt>
      <trkpt lat="42.69745" lon="0.66826">
        <ele>2079.1</ele>
        <time>2018-08-08T18:16:23.000Z</time>
      </trkpt>
      <trkpt lat="42.69745" lon="0.66826">
        <ele>2079.1</ele>
        <time>2018-08-08T18:16:24.000Z</time>
      </trkpt>
      <trkpt lat="42.69745" lon="0.66826">
        <ele>2079.1</ele>
        <time>2018-08-08T18:16:25.000Z</time>
      </trkpt>
      <trkpt lat="42.69745" lon="0.66826">
        <ele>2079.1</ele>
        <time>2018-08-08T18:16:26.000Z</time>
      </trkpt>
      <trkpt lat="42.69745" lon="0.66826">
        <ele>2079.1</ele>
        <time>2018-08-08T18:16:27.000Z</time>
      </trkpt>
      <trkpt lat="42.69745" lon="0.66826">
        <ele>2079.1</ele>
        <time>2018-08-08T18:16:28.000Z</time>
      </trkpt>
      <trkpt lat="42.69745" lon="0.66826">
        <ele>2079.1</ele>
        <time>2018-08-08T18:16:29.000Z</time>
      </trkpt>
      <trkpt lat="42.69745" lon="0.66826">
        <ele>2079.1</ele>
        <time>2018-08-08T18:16:30.000Z</time>
      </trkpt>
      <trkpt lat="42.69745" lon="0.66826">
        <ele>2079.1</ele>
        <time>2018-08-08T18:16:31.000Z</time>
      </trkpt>
      <trkpt lat="42.69745" lon="0.66826">
        <ele>2079.1</ele>
        <time>2018-08-08T18:16:32.000Z</time>
      </trkpt>
      <trkpt lat="42.69745" lon="0.66826">
        <ele>2079.1</ele>
        <time>2018-08-08T18:16:33.000Z</time>
      </trkpt>
      <trkpt lat="42.69745" lon="0.66826">
        <ele>2079.1</ele>
        <time>2018-08-08T18:16:34.000Z</time>
      </trkpt>
      <trkpt lat="42.69745" lon="0.66826">
        <ele>2079.1</ele>
        <time>2018-08-08T18:16:35.000Z</time>
      </trkpt>
      <trkpt lat="42.69745" lon="0.66826">
        <ele>2079.1</ele>
        <time>2018-08-08T18:16:36.000Z</time>
      </trkpt>
      <trkpt lat="42.69745" lon="0.66826">
        <ele>2079.1</ele>
        <time>2018-08-08T18:16:37.000Z</time>
      </trkpt>
      <trkpt lat="42.69745" lon="0.66826">
        <ele>2079.1</ele>
        <time>2018-08-08T18:16:38.000Z</time>
      </trkpt>
      <trkpt lat="42.69745" lon="0.66826">
        <ele>2079.1</ele>
        <time>2018-08-08T18:16:39.000Z</time>
      </trkpt>
      <trkpt lat="42.69745" lon="0.66826">
        <ele>2079.1</ele>
        <time>2018-08-08T18:16:40.000Z</time>
      </trkpt>
      <trkpt lat="42.69745" lon="0.66826">
        <ele>2079.1</ele>
        <time>2018-08-08T18:16:41.000Z</time>
      </trkpt>
      <trkpt lat="42.69745" lon="0.66826">
        <ele>2079.1</ele>
        <time>2018-08-08T18:16:42.000Z</time>
      </trkpt>
      <trkpt lat="42.69745" lon="0.66826">
        <ele>2079.1</ele>
        <time>2018-08-08T18:16:43.000Z</time>
      </trkpt>
      <trkpt lat="42.69745" lon="0.66826">
        <ele>2079.1</ele>
        <time>2018-08-08T18:16:44.000Z</time>
      </trkpt>
      <trkpt lat="42.69745" lon="0.66826">
        <ele>2079.1</ele>
        <time>2018-08-08T18:16:45.000Z</time>
      </trkpt>
      <trkpt lat="42.69745" lon="0.66826">
        <ele>2079.1</ele>
        <time>2018-08-08T18:16:46.000Z</time>
      </trkpt>
      <trkpt lat="42.69745" lon="0.66826">
        <ele>2079.1</ele>
        <time>2018-08-08T18:16:47.000Z</time>
      </trkpt>
      <trkpt lat="42.69745" lon="0.66826">
        <ele>2079.1</ele>
        <time>2018-08-08T18:16:48.000Z</time>
      </trkpt>
      <trkpt lat="42.69745" lon="0.66826">
        <ele>2079.1</ele>
        <time>2018-08-08T18:16:49.000Z</time>
      </trkpt>
      <trkpt lat="42.69745" lon="0.66826">
        <ele>2079.1</ele>
        <time>2018-08-08T18:16:50.000Z</time>
      </trkpt>
      <trkpt lat="42.69745" lon="0.66826">
        <ele>2079.1</ele>
        <time>2018-08-08T18:16:51.000Z</time>
      </trkpt>
      <trkpt lat="42.69745" lon="0.66826">
        <ele>2079.1</ele>
        <time>2018-08-08T18:16:52.000Z</time>
      </trkpt>
      <trkpt lat="42.69745" lon="0.66826">
        <ele>2079.1</ele>
        <time>2018-08-08T18:16:53.000Z</time>
      </trkpt>
      <trkpt lat="42.69745" lon="0.66826">
        <ele>2079.1</ele>
        <time>2018-08-08T18:16:54.000Z</time>
      </trkpt>
      <trkpt lat="42.69745" lon="0.66826">
        <ele>2079.1</ele>
        <time>2018-08-08T18:16:55.000Z</time>
      </trkpt>
      <trkpt lat="42.69745" lon="0.66826">
        <ele>2079.1</ele>
        <time>2018-08-08T18:16:56.000Z</time>
      </trkpt>
      <trkpt lat="42.69745" lon="0.66826">
        <ele>2079.1</ele>
        <time>2018-08-08T18:16:57.000Z</time>
      </trkpt>
      <trkpt lat="42.69745" lon="0.66826">
        <ele>2079.1</ele>
        <time>2018-08-08T18:16:58.000Z</time>
      </trkpt>
      <trkpt lat="42.69745" lon="0.66826">
        <ele>2079.1</ele>
        <time>2018-08-08T18:16:59.000Z</time>
      </trkpt>
      <trkpt lat="42.69745" lon="0.66826">
        <ele>2079.1</ele>
        <time>2018-08-08T18:17:00.000Z</time>
      </trkpt>
      <trkpt lat="42.69745" lon="0.66826">
        <ele>2079.1</ele>
        <time>2018-08-08T18:17:01.000Z</time>
      </trkpt>
      <trkpt lat="42.69745" lon="0.66826">
        <ele>2079.1</ele>
        <time>2018-08-08T18:17:02.000Z</time>
      </trkpt>
      <trkpt lat="42.69745" lon="0.66826">
        <ele>2079.1</ele>
        <time>2018-08-08T18:17:03.000Z</time>
      </trkpt>
      <trkpt lat="42.69745" lon="0.66826">
        <ele>2079.1</ele>
        <time>2018-08-08T18:17:04.000Z</time>
      </trkpt>
      <trkpt lat="42.69745" lon="0.66826">
        <ele>2079.1</ele>
        <time>2018-08-08T18:17:05.000Z</time>
      </trkpt>
      <trkpt lat="42.69745" lon="0.66826">
        <ele>2079.1</ele>
        <time>2018-08-08T18:17:06.000Z</time>
      </trkpt>
      <trkpt lat="42.69745" lon="0.66826">
        <ele>2079.1</ele>
        <time>2018-08-08T18:17:07.000Z</time>
      </trkpt>
      <trkpt lat="42.69745" lon="0.66826">
        <ele>2079.1</ele>
        <time>2018-08-08T18:17:08.000Z</time>
      </trkpt>
      <trkpt lat="42.69745" lon="0.66826">
        <ele>2079.1</ele>
        <time>2018-08-08T18:17:09.000Z</time>
      </trkpt>
      <trkpt lat="42.69745" lon="0.66826">
        <ele>2079.1</ele>
        <time>2018-08-08T18:17:10.000Z</time>
      </trkpt>
      <trkpt lat="42.69745" lon="0.66826">
        <ele>2079.1</ele>
        <time>2018-08-08T18:17:11.000Z</time>
      </trkpt>
      <trkpt lat="42.69745" lon="0.66826">
        <ele>2079.1</ele>
        <time>2018-08-08T18:17:12.000Z</time>
      </trkpt>
      <trkpt lat="42.69745" lon="0.66826">
        <ele>2079.1</ele>
        <time>2018-08-08T18:17:13.000Z</time>
      </trkpt>
      <trkpt lat="42.69745" lon="0.66826">
        <ele>2079.1</ele>
        <time>2018-08-08T18:17:14.000Z</time>
      </trkpt>
      <trkpt lat="42.69745" lon="0.66826">
        <ele>2079.1</ele>
        <time>2018-08-08T18:17:15.000Z</time>
      </trkpt>
      <trkpt lat="42.69745" lon="0.66826">
        <ele>2079.1</ele>
        <time>2018-08-08T18:17:16.000Z</time>
      </trkpt>
      <trkpt lat="42.69745" lon="0.66826">
        <ele>2079.1</ele>
        <time>2018-08-08T18:17:17.000Z</time>
      </trkpt>
      <trkpt lat="42.69745" lon="0.66826">
        <ele>2079.1</ele>
        <time>2018-08-08T18:17:18.000Z</time>
      </trkpt>
      <trkpt lat="42.69745" lon="0.66826">
        <ele>2079.1</ele>
        <time>2018-08-08T18:17:19.000Z</time>
      </trkpt>
      <trkpt lat="42.69745" lon="0.66826">
        <ele>2079.1</ele>
        <time>2018-08-08T18:17:20.000Z</time>
      </trkpt>
      <trkpt lat="42.69745" lon="0.66826">
        <ele>2079.1</ele>
        <time>2018-08-08T18:17:21.000Z</time>
      </trkpt>
      <trkpt lat="42.69745" lon="0.66826">
        <ele>2079.1</ele>
        <time>2018-08-08T18:17:22.000Z</time>
      </trkpt>
      <trkpt lat="42.69745" lon="0.66826">
        <ele>2079.1</ele>
        <time>2018-08-08T18:17:23.000Z</time>
      </trkpt>
      <trkpt lat="42.69745" lon="0.66826">
        <ele>2079.1</ele>
        <time>2018-08-08T18:17:24.000Z</time>
      </trkpt>
      <trkpt lat="42.69745" lon="0.66826">
        <ele>2079.1</ele>
        <time>2018-08-08T18:17:25.000Z</time>
      </trkpt>
      <trkpt lat="42.69745" lon="0.66826">
        <ele>2079.1</ele>
        <time>2018-08-08T18:17:26.000Z</time>
      </trkpt>
      <trkpt lat="42.69745" lon="0.66826">
        <ele>2079.1</ele>
        <time>2018-08-08T18:17:27.000Z</time>
      </trkpt>
      <trkpt lat="42.69745" lon="0.66826">
        <ele>2079.1</ele>
        <time>2018-08-08T18:17:28.000Z</time>
      </trkpt>
      <trkpt lat="42.69745" lon="0.66826">
        <ele>2079.1</ele>
        <time>2018-08-08T18:17:29.000Z</time>
      </trkpt>
      <trkpt lat="42.69745" lon="0.66826">
        <ele>2079.1</ele>
        <time>2018-08-08T18:17:30.000Z</time>
      </trkpt>
      <trkpt lat="42.69745" lon="0.66826">
        <ele>2079.1</ele>
        <time>2018-08-08T18:17:31.000Z</time>
      </trkpt>
      <trkpt lat="42.69745" lon="0.66826">
        <ele>2079.1</ele>
        <time>2018-08-08T18:17:32.000Z</time>
      </trkpt>
      <trkpt lat="42.69745" lon="0.66826">
        <ele>2079.1</ele>
        <time>2018-08-08T18:17:33.000Z</time>
      </trkpt>
      <trkpt lat="42.69745" lon="0.66826">
        <ele>2079.1</ele>
        <time>2018-08-08T18:17:34.000Z</time>
      </trkpt>
      <trkpt lat="42.69745" lon="0.66826">
        <ele>2079.1</ele>
        <time>2018-08-08T18:17:35.000Z</time>
      </trkpt>
      <trkpt lat="42.69745" lon="0.66826">
        <ele>2079.1</ele>
        <time>2018-08-08T18:17:36.000Z</time>
      </trkpt>
      <trkpt lat="42.69745" lon="0.66826">
        <ele>2079.1</ele>
        <time>2018-08-08T18:17:37.000Z</time>
      </trkpt>
      <trkpt lat="42.69745" lon="0.66826">
        <ele>2079.1</ele>
        <time>2018-08-08T18:17:38.000Z</time>
      </trkpt>
      <trkpt lat="42.69745" lon="0.66826">
        <ele>2079.1</ele>
        <time>2018-08-08T18:17:39.000Z</time>
      </trkpt>
      <trkpt lat="42.69745" lon="0.66826">
        <ele>2079.1</ele>
        <time>2018-08-08T18:17:40.000Z</time>
      </trkpt>
      <trkpt lat="42.69745" lon="0.66826">
        <ele>2079.1</ele>
        <time>2018-08-08T18:17:41.000Z</time>
      </trkpt>
      <trkpt lat="42.69745" lon="0.66826">
        <ele>2079.1</ele>
        <time>2018-08-08T18:17:42.000Z</time>
      </trkpt>
      <trkpt lat="42.69745" lon="0.66826">
        <ele>2079.1</ele>
        <time>2018-08-08T18:17:43.000Z</time>
      </trkpt>
      <trkpt lat="42.69745" lon="0.66826">
        <ele>2079.1</ele>
        <time>2018-08-08T18:17:44.000Z</time>
      </trkpt>
      <trkpt lat="42.69745" lon="0.66826">
        <ele>2079.1</ele>
        <time>2018-08-08T18:17:45.000Z</time>
      </trkpt>
      <trkpt lat="42.69745" lon="0.66826">
        <ele>2079.1</ele>
        <time>2018-08-08T18:17:46.000Z</time>
      </trkpt>
      <trkpt lat="42.69745" lon="0.66826">
        <ele>2079.1</ele>
        <time>2018-08-08T18:17:47.000Z</time>
      </trkpt>
      <trkpt lat="42.69745" lon="0.66826">
        <ele>2079.1</ele>
        <time>2018-08-08T18:17:48.000Z</time>
      </trkpt>
      <trkpt lat="42.69745" lon="0.66826">
        <ele>2079.1</ele>
        <time>2018-08-08T18:17:49.000Z</time>
      </trkpt>
      <trkpt lat="42.69745" lon="0.66826">
        <ele>2079.1</ele>
        <time>2018-08-08T18:17:50.000Z</time>
      </trkpt>
      <trkpt lat="42.69745" lon="0.66826">
        <ele>2079.1</ele>
        <time>2018-08-08T18:17:51.000Z</time>
      </trkpt>
      <trkpt lat="42.69745" lon="0.66826">
        <ele>2079.1</ele>
        <time>2018-08-08T18:17:52.000Z</time>
      </trkpt>
      <trkpt lat="42.69745" lon="0.66826">
        <ele>2079.1</ele>
        <time>2018-08-08T18:17:53.000Z</time>
      </trkpt>
      <trkpt lat="42.69745" lon="0.66826">
        <ele>2079.1</ele>
        <time>2018-08-08T18:17:54.000Z</time>
      </trkpt>
      <trkpt lat="42.69745" lon="0.66826">
        <ele>2079.1</ele>
        <time>2018-08-08T18:17:55.000Z</time>
      </trkpt>
      <trkpt lat="42.69745" lon="0.66826">
        <ele>2079.1</ele>
        <time>2018-08-08T18:17:56.000Z</time>
      </trkpt>
      <trkpt lat="42.69745" lon="0.66826">
        <ele>2079.1</ele>
        <time>2018-08-08T18:17:57.000Z</time>
      </trkpt>
      <trkpt lat="42.69745" lon="0.66826">
        <ele>2079.1</ele>
        <time>2018-08-08T18:17:58.000Z</time>
      </trkpt>
      <trkpt lat="42.69745" lon="0.66826">
        <ele>2079.1</ele>
        <time>2018-08-08T18:17:59.000Z</time>
      </trkpt>
      <trkpt lat="42.69745" lon="0.66826">
        <ele>2079.1</ele>
        <time>2018-08-08T18:18:00.000Z</time>
      </trkpt>
      <trkpt lat="42.69745" lon="0.66826">
        <ele>2079.1</ele>
        <time>2018-08-08T18:18:01.000Z</time>
      </trkpt>
      <trkpt lat="42.69745" lon="0.66826">
        <ele>2079.1</ele>
        <time>2018-08-08T18:18:02.000Z</time>
      </trkpt>
      <trkpt lat="42.69745" lon="0.66826">
        <ele>2079.1</ele>
        <time>2018-08-08T18:18:03.000Z</time>
      </trkpt>
      <trkpt lat="42.69745" lon="0.66826">
        <ele>2079.1</ele>
        <time>2018-08-08T18:18:04.000Z</time>
      </trkpt>
      <trkpt lat="42.69745" lon="0.66826">
        <ele>2079.1</ele>
        <time>2018-08-08T18:18:05.000Z</time>
      </trkpt>
      <trkpt lat="42.69745" lon="0.66826">
        <ele>2079.1</ele>
        <time>2018-08-08T18:18:06.000Z</time>
      </trkpt>
      <trkpt lat="42.69745" lon="0.66826">
        <ele>2079.1</ele>
        <time>2018-08-08T18:18:07.000Z</time>
      </trkpt>
      <trkpt lat="42.69745" lon="0.66826">
        <ele>2079.1</ele>
        <time>2018-08-08T18:18:08.000Z</time>
      </trkpt>
      <trkpt lat="42.69745" lon="0.66826">
        <ele>2079.1</ele>
        <time>2018-08-08T18:18:09.000Z</time>
      </trkpt>
      <trkpt lat="42.69745" lon="0.66826">
        <ele>2079.1</ele>
        <time>2018-08-08T18:18:10.000Z</time>
      </trkpt>
      <trkpt lat="42.69745" lon="0.66826">
        <ele>2079.1</ele>
        <time>2018-08-08T18:18:11.000Z</time>
      </trkpt>
      <trkpt lat="42.69745" lon="0.66826">
        <ele>2079.1</ele>
        <time>2018-08-08T18:18:12.000Z</time>
      </trkpt>
      <trkpt lat="42.69745" lon="0.66826">
        <ele>2079.1</ele>
        <time>2018-08-08T18:18:13.000Z</time>
      </trkpt>
      <trkpt lat="42.69745" lon="0.66826">
        <ele>2079.1</ele>
        <time>2018-08-08T18:18:14.000Z</time>
      </trkpt>
      <trkpt lat="42.69745" lon="0.66826">
        <ele>2079.1</ele>
        <time>2018-08-08T18:18:15.000Z</time>
      </trkpt>
      <trkpt lat="42.69745" lon="0.66826">
        <ele>2079.1</ele>
        <time>2018-08-08T18:18:16.000Z</time>
      </trkpt>
      <trkpt lat="42.69745" lon="0.66826">
        <ele>2079.1</ele>
        <time>2018-08-08T18:18:17.000Z</time>
      </trkpt>
      <trkpt lat="42.69745" lon="0.66826">
        <ele>2079.1</ele>
        <time>2018-08-08T18:18:18.000Z</time>
      </trkpt>
      <trkpt lat="42.69745" lon="0.66826">
        <ele>2079.1</ele>
        <time>2018-08-08T18:18:19.000Z</time>
      </trkpt>
      <trkpt lat="42.69745" lon="0.66826">
        <ele>2079.1</ele>
        <time>2018-08-08T18:18:20.000Z</time>
      </trkpt>
      <trkpt lat="42.69745" lon="0.66826">
        <ele>2079.1</ele>
        <time>2018-08-08T18:18:21.000Z</time>
      </trkpt>
      <trkpt lat="42.69745" lon="0.66826">
        <ele>2079.1</ele>
        <time>2018-08-08T18:18:22.000Z</time>
      </trkpt>
      <trkpt lat="42.69745" lon="0.66826">
        <ele>2079.1</ele>
        <time>2018-08-08T18:18:23.000Z</time>
      </trkpt>
      <trkpt lat="42.69745" lon="0.66826">
        <ele>2079.1</ele>
        <time>2018-08-08T18:18:24.000Z</time>
      </trkpt>
      <trkpt lat="42.69745" lon="0.66826">
        <ele>2079.1</ele>
        <time>2018-08-08T18:18:25.000Z</time>
      </trkpt>
      <trkpt lat="42.69745" lon="0.66826">
        <ele>2079.1</ele>
        <time>2018-08-08T18:18:26.000Z</time>
      </trkpt>
      <trkpt lat="42.69745" lon="0.66826">
        <ele>2079.1</ele>
        <time>2018-08-08T18:18:27.000Z</time>
      </trkpt>
      <trkpt lat="42.69745" lon="0.66826">
        <ele>2079.1</ele>
        <time>2018-08-08T18:18:28.000Z</time>
      </trkpt>
      <trkpt lat="42.69745" lon="0.66826">
        <ele>2079.1</ele>
        <time>2018-08-08T18:18:29.000Z</time>
      </trkpt>
      <trkpt lat="42.69745" lon="0.66826">
        <ele>2079.1</ele>
        <time>2018-08-08T18:18:30.000Z</time>
      </trkpt>
      <trkpt lat="42.69745" lon="0.66826">
        <ele>2079.1</ele>
        <time>2018-08-08T18:18:31.000Z</time>
      </trkpt>
      <trkpt lat="42.69745" lon="0.66826">
        <ele>2079.1</ele>
        <time>2018-08-08T18:18:32.000Z</time>
      </trkpt>
      <trkpt lat="42.69745" lon="0.66826">
        <ele>2079.1</ele>
        <time>2018-08-08T18:18:33.000Z</time>
      </trkpt>
      <trkpt lat="42.69745" lon="0.66826">
        <ele>2079.1</ele>
        <time>2018-08-08T18:18:34.000Z</time>
      </trkpt>
      <trkpt lat="42.69745" lon="0.66826">
        <ele>2079.1</ele>
        <time>2018-08-08T18:18:35.000Z</time>
      </trkpt>
      <trkpt lat="42.69745" lon="0.66826">
        <ele>2079.1</ele>
        <time>2018-08-08T18:18:36.000Z</time>
      </trkpt>
      <trkpt lat="42.69745" lon="0.66826">
        <ele>2079.1</ele>
        <time>2018-08-08T18:18:37.000Z</time>
      </trkpt>
      <trkpt lat="42.69745" lon="0.66826">
        <ele>2079.1</ele>
        <time>2018-08-08T18:18:38.000Z</time>
      </trkpt>
      <trkpt lat="42.69745" lon="0.66826">
        <ele>2079.1</ele>
        <time>2018-08-08T18:18:39.000Z</time>
      </trkpt>
      <trkpt lat="42.69745" lon="0.66826">
        <ele>2079.1</ele>
        <time>2018-08-08T18:18:40.000Z</time>
      </trkpt>
      <trkpt lat="42.69745" lon="0.66826">
        <ele>2079.1</ele>
        <time>2018-08-08T18:18:41.000Z</time>
      </trkpt>
      <trkpt lat="42.69745" lon="0.66826">
        <ele>2079.1</ele>
        <time>2018-08-08T18:18:42.000Z</time>
      </trkpt>
      <trkpt lat="42.69745" lon="0.66826">
        <ele>2079.1</ele>
        <time>2018-08-08T18:18:43.000Z</time>
      </trkpt>
      <trkpt lat="42.69745" lon="0.66826">
        <ele>2079.1</ele>
        <time>2018-08-08T18:18:44.000Z</time>
      </trkpt>
      <trkpt lat="42.69745" lon="0.66826">
        <ele>2079.1</ele>
        <time>2018-08-08T18:18:45.000Z</time>
      </trkpt>
      <trkpt lat="42.69745" lon="0.66826">
        <ele>2079.1</ele>
        <time>2018-08-08T18:18:46.000Z</time>
      </trkpt>
      <trkpt lat="42.69745" lon="0.66826">
        <ele>2079.1</ele>
        <time>2018-08-08T18:18:47.000Z</time>
      </trkpt>
      <trkpt lat="42.69745" lon="0.66826">
        <ele>2079.1</ele>
        <time>2018-08-08T18:18:48.000Z</time>
      </trkpt>
      <trkpt lat="42.69745" lon="0.66826">
        <ele>2079.1</ele>
        <time>2018-08-08T18:18:49.000Z</time>
      </trkpt>
      <trkpt lat="42.69745" lon="0.66826">
        <ele>2079.1</ele>
        <time>2018-08-08T18:18:50.000Z</time>
      </trkpt>
      <trkpt lat="42.69745" lon="0.66826">
        <ele>2079.1</ele>
        <time>2018-08-08T18:18:51.000Z</time>
      </trkpt>
      <trkpt lat="42.69745" lon="0.66826">
        <ele>2079.1</ele>
        <time>2018-08-08T18:18:52.000Z</time>
      </trkpt>
      <trkpt lat="42.69745" lon="0.66826">
        <ele>2079.1</ele>
        <time>2018-08-08T18:18:53.000Z</time>
      </trkpt>
      <trkpt lat="42.69745" lon="0.66826">
        <ele>2079.1</ele>
        <time>2018-08-08T18:18:54.000Z</time>
      </trkpt>
      <trkpt lat="42.69745" lon="0.66826">
        <ele>2079.1</ele>
        <time>2018-08-08T18:18:55.000Z</time>
      </trkpt>
      <trkpt lat="42.69745" lon="0.66826">
        <ele>2079.1</ele>
        <time>2018-08-08T18:18:56.000Z</time>
      </trkpt>
      <trkpt lat="42.69745" lon="0.66826">
        <ele>2079.1</ele>
        <time>2018-08-08T18:18:57.000Z</time>
      </trkpt>
      <trkpt lat="42.69745" lon="0.66826">
        <ele>2079.1</ele>
        <time>2018-08-08T18:18:58.000Z</time>
      </trkpt>
      <trkpt lat="42.69745" lon="0.66826">
        <ele>2079.1</ele>
        <time>2018-08-08T18:18:59.000Z</time>
      </trkpt>
      <trkpt lat="42.69745" lon="0.66826">
        <ele>2079.1</ele>
        <time>2018-08-08T18:19:00.000Z</time>
      </trkpt>
      <trkpt lat="42.69745" lon="0.66826">
        <ele>2079.1</ele>
        <time>2018-08-08T18:19:01.000Z</time>
      </trkpt>
      <trkpt lat="42.69745" lon="0.66826">
        <ele>2079.1</ele>
        <time>2018-08-08T18:19:02.000Z</time>
      </trkpt>
      <trkpt lat="42.69745" lon="0.66826">
        <ele>2079.1</ele>
        <time>2018-08-08T18:19:03.000Z</time>
      </trkpt>
      <trkpt lat="42.69745" lon="0.66826">
        <ele>2079.1</ele>
        <time>2018-08-08T18:19:04.000Z</time>
      </trkpt>
      <trkpt lat="42.69745" lon="0.66826">
        <ele>2079.1</ele>
        <time>2018-08-08T18:19:05.000Z</time>
      </trkpt>
      <trkpt lat="42.69745" lon="0.66826">
        <ele>2079.1</ele>
        <time>2018-08-08T18:19:06.000Z</time>
      </trkpt>
      <trkpt lat="42.69745" lon="0.66826">
        <ele>2079.1</ele>
        <time>2018-08-08T18:19:07.000Z</time>
      </trkpt>
      <trkpt lat="42.69745" lon="0.66826">
        <ele>2079.1</ele>
        <time>2018-08-08T18:19:08.000Z</time>
      </trkpt>
      <trkpt lat="42.69745" lon="0.66826">
        <ele>2079.1</ele>
        <time>2018-08-08T18:19:09.000Z</time>
      </trkpt>
      <trkpt lat="42.69745" lon="0.66826">
        <ele>2079.1</ele>
        <time>2018-08-08T18:19:10.000Z</time>
      </trkpt>
      <trkpt lat="42.69745" lon="0.66826">
        <ele>2079.1</ele>
        <time>2018-08-08T18:19:11.000Z</time>
      </trkpt>
      <trkpt lat="42.69745" lon="0.66826">
        <ele>2079.1</ele>
        <time>2018-08-08T18:19:12.000Z</time>
      </trkpt>
      <trkpt lat="42.69745" lon="0.66826">
        <ele>2079.1</ele>
        <time>2018-08-08T18:19:13.000Z</time>
      </trkpt>
      <trkpt lat="42.69745" lon="0.66826">
        <ele>2079.1</ele>
        <time>2018-08-08T18:19:14.000Z</time>
      </trkpt>
      <trkpt lat="42.69745" lon="0.66826">
        <ele>2079.1</ele>
        <time>2018-08-08T18:19:15.000Z</time>
      </trkpt>
      <trkpt lat="42.69745" lon="0.66826">
        <ele>2079.1</ele>
        <time>2018-08-08T18:19:16.000Z</time>
      </trkpt>
      <trkpt lat="42.69745" lon="0.66826">
        <ele>2079.1</ele>
        <time>2018-08-08T18:19:17.000Z</time>
      </trkpt>
      <trkpt lat="42.69745" lon="0.66826">
        <ele>2079.1</ele>
        <time>2018-08-08T18:19:18.000Z</time>
      </trkpt>
      <trkpt lat="42.69745" lon="0.66826">
        <ele>2079.1</ele>
        <time>2018-08-08T18:19:19.000Z</time>
      </trkpt>
      <trkpt lat="42.69745" lon="0.66826">
        <ele>2079.1</ele>
        <time>2018-08-08T18:19:20.000Z</time>
      </trkpt>
      <trkpt lat="42.69745" lon="0.66826">
        <ele>2079.1</ele>
        <time>2018-08-08T18:19:21.000Z</time>
      </trkpt>
      <trkpt lat="42.69745" lon="0.66826">
        <ele>2079.1</ele>
        <time>2018-08-08T18:19:22.000Z</time>
      </trkpt>
      <trkpt lat="42.69745" lon="0.66826">
        <ele>2079.1</ele>
        <time>2018-08-08T18:19:23.000Z</time>
      </trkpt>
      <trkpt lat="42.69745" lon="0.66826">
        <ele>2079.1</ele>
        <time>2018-08-08T18:19:24.000Z</time>
      </trkpt>
      <trkpt lat="42.69745" lon="0.66826">
        <ele>2079.1</ele>
        <time>2018-08-08T18:19:25.000Z</time>
      </trkpt>
      <trkpt lat="42.69745" lon="0.66826">
        <ele>2079.1</ele>
        <time>2018-08-08T18:19:26.000Z</time>
      </trkpt>
      <trkpt lat="42.69745" lon="0.66826">
        <ele>2079.1</ele>
        <time>2018-08-08T18:19:27.000Z</time>
      </trkpt>
      <trkpt lat="42.69745" lon="0.66826">
        <ele>2079.1</ele>
        <time>2018-08-08T18:19:28.000Z</time>
      </trkpt>
      <trkpt lat="42.69745" lon="0.66826">
        <ele>2079.1</ele>
        <time>2018-08-08T18:19:29.000Z</time>
      </trkpt>
      <trkpt lat="42.69745" lon="0.66826">
        <ele>2079.1</ele>
        <time>2018-08-08T18:19:30.000Z</time>
      </trkpt>
      <trkpt lat="42.69745" lon="0.66826">
        <ele>2079.1</ele>
        <time>2018-08-08T18:19:31.000Z</time>
      </trkpt>
      <trkpt lat="42.69745" lon="0.66826">
        <ele>2079.1</ele>
        <time>2018-08-08T18:19:32.000Z</time>
      </trkpt>
      <trkpt lat="42.69745" lon="0.66826">
        <ele>2079.1</ele>
        <time>2018-08-08T18:19:33.000Z</time>
      </trkpt>
      <trkpt lat="42.69745" lon="0.66826">
        <ele>2079.1</ele>
        <time>2018-08-08T18:19:34.000Z</time>
      </trkpt>
      <trkpt lat="42.69745" lon="0.66826">
        <ele>2079.1</ele>
        <time>2018-08-08T18:19:35.000Z</time>
      </trkpt>
      <trkpt lat="42.69745" lon="0.66826">
        <ele>2079.1</ele>
        <time>2018-08-08T18:19:36.000Z</time>
      </trkpt>
      <trkpt lat="42.69745" lon="0.66826">
        <ele>2079.1</ele>
        <time>2018-08-08T18:19:37.000Z</time>
      </trkpt>
      <trkpt lat="42.69745" lon="0.66826">
        <ele>2079.1</ele>
        <time>2018-08-08T18:19:38.000Z</time>
      </trkpt>
      <trkpt lat="42.69745" lon="0.66826">
        <ele>2079.1</ele>
        <time>2018-08-08T18:19:39.000Z</time>
      </trkpt>
      <trkpt lat="42.69745" lon="0.66826">
        <ele>2079.1</ele>
        <time>2018-08-08T18:19:40.000Z</time>
      </trkpt>
      <trkpt lat="42.69745" lon="0.66826">
        <ele>2079.1</ele>
        <time>2018-08-08T18:19:41.000Z</time>
      </trkpt>
      <trkpt lat="42.69745" lon="0.66826">
        <ele>2079.1</ele>
        <time>2018-08-08T18:19:42.000Z</time>
      </trkpt>
      <trkpt lat="42.69745" lon="0.66826">
        <ele>2079.1</ele>
        <time>2018-08-08T18:19:43.000Z</time>
      </trkpt>
      <trkpt lat="42.69745" lon="0.66826">
        <ele>2079.1</ele>
        <time>2018-08-08T18:19:44.000Z</time>
      </trkpt>
      <trkpt lat="42.69745" lon="0.66826">
        <ele>2079.1</ele>
        <time>2018-08-08T18:19:45.000Z</time>
      </trkpt>
      <trkpt lat="42.69745" lon="0.66826">
        <ele>2079.1</ele>
        <time>2018-08-08T18:19:46.000Z</time>
      </trkpt>
      <trkpt lat="42.69745" lon="0.66826">
        <ele>2079.1</ele>
        <time>2018-08-08T18:19:47.000Z</time>
      </trkpt>
      <trkpt lat="42.69745" lon="0.66826">
        <ele>2079.1</ele>
        <time>2018-08-08T18:19:48.000Z</time>
      </trkpt>
      <trkpt lat="42.69745" lon="0.66826">
        <ele>2079.1</ele>
        <time>2018-08-08T18:19:49.000Z</time>
      </trkpt>
      <trkpt lat="42.69745" lon="0.66826">
        <ele>2079.1</ele>
        <time>2018-08-08T18:19:50.000Z</time>
      </trkpt>
      <trkpt lat="42.69745" lon="0.66826">
        <ele>2079.1</ele>
        <time>2018-08-08T18:19:51.000Z</time>
      </trkpt>
      <trkpt lat="42.69745" lon="0.66826">
        <ele>2079.1</ele>
        <time>2018-08-08T18:19:52.000Z</time>
      </trkpt>
      <trkpt lat="42.69745" lon="0.66826">
        <ele>2079.1</ele>
        <time>2018-08-08T18:19:53.000Z</time>
      </trkpt>
      <trkpt lat="42.69745" lon="0.66826">
        <ele>2079.1</ele>
        <time>2018-08-08T18:19:54.000Z</time>
      </trkpt>
      <trkpt lat="42.69745" lon="0.66826">
        <ele>2079.1</ele>
        <time>2018-08-08T18:19:55.000Z</time>
      </trkpt>
      <trkpt lat="42.69745" lon="0.66826">
        <ele>2079.1</ele>
        <time>2018-08-08T18:19:56.000Z</time>
      </trkpt>
      <trkpt lat="42.69745" lon="0.66826">
        <ele>2079.1</ele>
        <time>2018-08-08T18:19:57.000Z</time>
      </trkpt>
      <trkpt lat="42.69745" lon="0.66826">
        <ele>2079.1</ele>
        <time>2018-08-08T18:19:58.000Z</time>
      </trkpt>
      <trkpt lat="42.69745" lon="0.66826">
        <ele>2079.1</ele>
        <time>2018-08-08T18:19:59.000Z</time>
      </trkpt>
      <trkpt lat="42.69745" lon="0.66826">
        <ele>2079.1</ele>
        <time>2018-08-08T18:20:00.000Z</time>
      </trkpt>
      <trkpt lat="42.69745" lon="0.66826">
        <ele>2079.1</ele>
        <time>2018-08-08T18:20:01.000Z</time>
      </trkpt>
      <trkpt lat="42.69745" lon="0.66826">
        <ele>2079.1</ele>
        <time>2018-08-08T18:20:02.000Z</time>
      </trkpt>
      <trkpt lat="42.69745" lon="0.66826">
        <ele>2079.1</ele>
        <time>2018-08-08T18:20:03.000Z</time>
      </trkpt>
      <trkpt lat="42.69745" lon="0.66826">
        <ele>2079.1</ele>
        <time>2018-08-08T18:20:04.000Z</time>
      </trkpt>
      <trkpt lat="42.69745" lon="0.66826">
        <ele>2079.1</ele>
        <time>2018-08-08T18:20:05.000Z</time>
      </trkpt>
      <trkpt lat="42.69745" lon="0.66826">
        <ele>2079.1</ele>
        <time>2018-08-08T18:20:06.000Z</time>
      </trkpt>
      <trkpt lat="42.69745" lon="0.66826">
        <ele>2079.1</ele>
        <time>2018-08-08T18:20:07.000Z</time>
      </trkpt>
      <trkpt lat="42.69745" lon="0.66826">
        <ele>2079.1</ele>
        <time>2018-08-08T18:20:08.000Z</time>
      </trkpt>
      <trkpt lat="42.69745" lon="0.66826">
        <ele>2079.1</ele>
        <time>2018-08-08T18:20:09.000Z</time>
      </trkpt>
      <trkpt lat="42.69745" lon="0.66826">
        <ele>2079.1</ele>
        <time>2018-08-08T18:20:10.000Z</time>
      </trkpt>
      <trkpt lat="42.69745" lon="0.66826">
        <ele>2079.1</ele>
        <time>2018-08-08T18:20:11.000Z</time>
      </trkpt>
      <trkpt lat="42.69745" lon="0.66826">
        <ele>2079.1</ele>
        <time>2018-08-08T18:20:12.000Z</time>
      </trkpt>
      <trkpt lat="42.69745" lon="0.66826">
        <ele>2079.1</ele>
        <time>2018-08-08T18:20:13.000Z</time>
      </trkpt>
      <trkpt lat="42.69745" lon="0.66826">
        <ele>2079.1</ele>
        <time>2018-08-08T18:20:14.000Z</time>
      </trkpt>
      <trkpt lat="42.69745" lon="0.66826">
        <ele>2079.1</ele>
        <time>2018-08-08T18:20:15.000Z</time>
      </trkpt>
      <trkpt lat="42.69745" lon="0.66826">
        <ele>2079.1</ele>
        <time>2018-08-08T18:20:16.000Z</time>
      </trkpt>
      <trkpt lat="42.69745" lon="0.66826">
        <ele>2079.1</ele>
        <time>2018-08-08T18:20:17.000Z</time>
      </trkpt>
      <trkpt lat="42.69745" lon="0.66826">
        <ele>2079.1</ele>
        <time>2018-08-08T18:20:18.000Z</time>
      </trkpt>
      <trkpt lat="42.69745" lon="0.66826">
        <ele>2079.1</ele>
        <time>2018-08-08T18:20:19.000Z</time>
      </trkpt>
      <trkpt lat="42.69745" lon="0.66826">
        <ele>2079.1</ele>
        <time>2018-08-08T18:20:20.000Z</time>
      </trkpt>
      <trkpt lat="42.69745" lon="0.66826">
        <ele>2079.1</ele>
        <time>2018-08-08T18:20:21.000Z</time>
      </trkpt>
      <trkpt lat="42.69745" lon="0.66826">
        <ele>2079.1</ele>
        <time>2018-08-08T18:20:22.000Z</time>
      </trkpt>
      <trkpt lat="42.69745" lon="0.66826">
        <ele>2079.1</ele>
        <time>2018-08-08T18:20:23.000Z</time>
      </trkpt>
      <trkpt lat="42.69745" lon="0.66826">
        <ele>2079.1</ele>
        <time>2018-08-08T18:20:24.000Z</time>
      </trkpt>
      <trkpt lat="42.69745" lon="0.66826">
        <ele>2079.1</ele>
        <time>2018-08-08T18:20:25.000Z</time>
      </trkpt>
      <trkpt lat="42.69745" lon="0.66826">
        <ele>2079.1</ele>
        <time>2018-08-08T18:20:26.000Z</time>
      </trkpt>
      <trkpt lat="42.69745" lon="0.66826">
        <ele>2079.1</ele>
        <time>2018-08-08T18:20:27.000Z</time>
      </trkpt>
      <trkpt lat="42.69745" lon="0.66826">
        <ele>2079.1</ele>
        <time>2018-08-08T18:20:28.000Z</time>
      </trkpt>
      <trkpt lat="42.69745" lon="0.66826">
        <ele>2079.1</ele>
        <time>2018-08-08T18:20:29.000Z</time>
      </trkpt>
      <trkpt lat="42.69745" lon="0.66826">
        <ele>2079.1</ele>
        <time>2018-08-08T18:20:30.000Z</time>
      </trkpt>
      <trkpt lat="42.69745" lon="0.66826">
        <ele>2079.1</ele>
        <time>2018-08-08T18:20:31.000Z</time>
      </trkpt>
      <trkpt lat="42.69745" lon="0.66826">
        <ele>2079.1</ele>
        <time>2018-08-08T18:20:32.000Z</time>
      </trkpt>
      <trkpt lat="42.69745" lon="0.66826">
        <ele>2079.1</ele>
        <time>2018-08-08T18:20:33.000Z</time>
      </trkpt>
      <trkpt lat="42.69745" lon="0.66826">
        <ele>2079.1</ele>
        <time>2018-08-08T18:20:34.000Z</time>
      </trkpt>
      <trkpt lat="42.69745" lon="0.66826">
        <ele>2079.1</ele>
        <time>2018-08-08T18:20:35.000Z</time>
      </trkpt>
      <trkpt lat="42.69745" lon="0.66826">
        <ele>2079.1</ele>
        <time>2018-08-08T18:20:36.000Z</time>
      </trkpt>
      <trkpt lat="42.69745" lon="0.66826">
        <ele>2079.1</ele>
        <time>2018-08-08T18:20:37.000Z</time>
      </trkpt>
      <trkpt lat="42.69745" lon="0.66826">
        <ele>2079.1</ele>
        <time>2018-08-08T18:20:38.000Z</time>
      </trkpt>
      <trkpt lat="42.69745" lon="0.66826">
        <ele>2079.1</ele>
        <time>2018-08-08T18:20:39.000Z</time>
      </trkpt>
      <trkpt lat="42.69745" lon="0.66826">
        <ele>2079.1</ele>
        <time>2018-08-08T18:20:40.000Z</time>
      </trkpt>
      <trkpt lat="42.69745" lon="0.66826">
        <ele>2079.1</ele>
        <time>2018-08-08T18:20:41.000Z</time>
      </trkpt>
      <trkpt lat="42.69745" lon="0.66826">
        <ele>2079.1</ele>
        <time>2018-08-08T18:20:42.000Z</time>
      </trkpt>
      <trkpt lat="42.69745" lon="0.66826">
        <ele>2079.1</ele>
        <time>2018-08-08T18:20:43.000Z</time>
      </trkpt>
      <trkpt lat="42.69745" lon="0.66826">
        <ele>2079.1</ele>
        <time>2018-08-08T18:20:44.000Z</time>
      </trkpt>
      <trkpt lat="42.69745" lon="0.66826">
        <ele>2079.1</ele>
        <time>2018-08-08T18:20:45.000Z</time>
      </trkpt>
      <trkpt lat="42.69745" lon="0.66826">
        <ele>2079.1</ele>
        <time>2018-08-08T18:20:46.000Z</time>
      </trkpt>
      <trkpt lat="42.69745" lon="0.66826">
        <ele>2079.1</ele>
        <time>2018-08-08T18:20:47.000Z</time>
      </trkpt>
      <trkpt lat="42.69745" lon="0.66826">
        <ele>2079.1</ele>
        <time>2018-08-08T18:20:48.000Z</time>
      </trkpt>
      <trkpt lat="42.69745" lon="0.66826">
        <ele>2079.1</ele>
        <time>2018-08-08T18:20:49.000Z</time>
      </trkpt>
      <trkpt lat="42.69745" lon="0.66826">
        <ele>2079.1</ele>
        <time>2018-08-08T18:20:50.000Z</time>
      </trkpt>
      <trkpt lat="42.69745" lon="0.66826">
        <ele>2079.1</ele>
        <time>2018-08-08T18:20:51.000Z</time>
      </trkpt>
      <trkpt lat="42.69745" lon="0.66826">
        <ele>2079.1</ele>
        <time>2018-08-08T18:20:52.000Z</time>
      </trkpt>
      <trkpt lat="42.69745" lon="0.66826">
        <ele>2079.1</ele>
        <time>2018-08-08T18:20:53.000Z</time>
      </trkpt>
      <trkpt lat="42.69745" lon="0.66826">
        <ele>2079.1</ele>
        <time>2018-08-08T18:20:54.000Z</time>
      </trkpt>
      <trkpt lat="42.69745" lon="0.66826">
        <ele>2079.1</ele>
        <time>2018-08-08T18:20:55.000Z</time>
      </trkpt>
      <trkpt lat="42.69745" lon="0.66826">
        <ele>2079.1</ele>
        <time>2018-08-08T18:20:56.000Z</time>
      </trkpt>
      <trkpt lat="42.69745" lon="0.66826">
        <ele>2079.1</ele>
        <time>2018-08-08T18:20:57.000Z</time>
      </trkpt>
      <trkpt lat="42.69745" lon="0.66826">
        <ele>2079.1</ele>
        <time>2018-08-08T18:20:58.000Z</time>
      </trkpt>
      <trkpt lat="42.69745" lon="0.66826">
        <ele>2079.1</ele>
        <time>2018-08-08T18:20:59.000Z</time>
      </trkpt>
      <trkpt lat="42.69745" lon="0.66826">
        <ele>2079.1</ele>
        <time>2018-08-08T18:21:00.000Z</time>
      </trkpt>
      <trkpt lat="42.69745" lon="0.66826">
        <ele>2079.1</ele>
        <time>2018-08-08T18:21:01.000Z</time>
      </trkpt>
      <trkpt lat="42.69745" lon="0.66826">
        <ele>2079.1</ele>
        <time>2018-08-08T18:21:02.000Z</time>
      </trkpt>
      <trkpt lat="42.69745" lon="0.66826">
        <ele>2079.1</ele>
        <time>2018-08-08T18:21:03.000Z</time>
      </trkpt>
      <trkpt lat="42.69745" lon="0.66826">
        <ele>2079.1</ele>
        <time>2018-08-08T18:21:04.000Z</time>
      </trkpt>
      <trkpt lat="42.69745" lon="0.66826">
        <ele>2079.1</ele>
        <time>2018-08-08T18:21:05.000Z</time>
      </trkpt>
      <trkpt lat="42.69745" lon="0.66826">
        <ele>2079.1</ele>
        <time>2018-08-08T18:21:06.000Z</time>
      </trkpt>
      <trkpt lat="42.69745" lon="0.66826">
        <ele>2079.1</ele>
        <time>2018-08-08T18:21:07.000Z</time>
      </trkpt>
      <trkpt lat="42.69745" lon="0.66826">
        <ele>2079.1</ele>
        <time>2018-08-08T18:21:08.000Z</time>
      </trkpt>
      <trkpt lat="42.69745" lon="0.66826">
        <ele>2079.1</ele>
        <time>2018-08-08T18:21:09.000Z</time>
      </trkpt>
      <trkpt lat="42.69745" lon="0.66826">
        <ele>2079.1</ele>
        <time>2018-08-08T18:21:10.000Z</time>
      </trkpt>
      <trkpt lat="42.69745" lon="0.66826">
        <ele>2079.1</ele>
        <time>2018-08-08T18:21:11.000Z</time>
      </trkpt>
      <trkpt lat="42.69745" lon="0.66826">
        <ele>2079.1</ele>
        <time>2018-08-08T18:21:12.000Z</time>
      </trkpt>
      <trkpt lat="42.69745" lon="0.66826">
        <ele>2079.1</ele>
        <time>2018-08-08T18:21:13.000Z</time>
      </trkpt>
      <trkpt lat="42.69745" lon="0.66826">
        <ele>2079.1</ele>
        <time>2018-08-08T18:21:14.000Z</time>
      </trkpt>
      <trkpt lat="42.69745" lon="0.66826">
        <ele>2079.1</ele>
        <time>2018-08-08T18:21:15.000Z</time>
      </trkpt>
      <trkpt lat="42.69745" lon="0.66826">
        <ele>2079.1</ele>
        <time>2018-08-08T18:21:16.000Z</time>
      </trkpt>
      <trkpt lat="42.69745" lon="0.66826">
        <ele>2079.1</ele>
        <time>2018-08-08T18:21:17.000Z</time>
      </trkpt>
      <trkpt lat="42.69745" lon="0.66826">
        <ele>2079.1</ele>
        <time>2018-08-08T18:21:18.000Z</time>
      </trkpt>
      <trkpt lat="42.69745" lon="0.66826">
        <ele>2079.1</ele>
        <time>2018-08-08T18:21:19.000Z</time>
      </trkpt>
      <trkpt lat="42.69745" lon="0.66826">
        <ele>2079.1</ele>
        <time>2018-08-08T18:21:20.000Z</time>
      </trkpt>
      <trkpt lat="42.69745" lon="0.66826">
        <ele>2079.1</ele>
        <time>2018-08-08T18:21:21.000Z</time>
      </trkpt>
      <trkpt lat="42.69745" lon="0.66826">
        <ele>2079.1</ele>
        <time>2018-08-08T18:21:22.000Z</time>
      </trkpt>
      <trkpt lat="42.69745" lon="0.66826">
        <ele>2079.1</ele>
        <time>2018-08-08T18:21:23.000Z</time>
      </trkpt>
      <trkpt lat="42.69745" lon="0.66826">
        <ele>2079.1</ele>
        <time>2018-08-08T18:21:24.000Z</time>
      </trkpt>
      <trkpt lat="42.69745" lon="0.66826">
        <ele>2079.1</ele>
        <time>2018-08-08T18:21:25.000Z</time>
      </trkpt>
      <trkpt lat="42.69745" lon="0.66826">
        <ele>2079.1</ele>
        <time>2018-08-08T18:21:26.000Z</time>
      </trkpt>
      <trkpt lat="42.69745" lon="0.66826">
        <ele>2079.1</ele>
        <time>2018-08-08T18:21:27.000Z</time>
      </trkpt>
      <trkpt lat="42.69745" lon="0.66826">
        <ele>2079.1</ele>
        <time>2018-08-08T18:21:28.000Z</time>
      </trkpt>
      <trkpt lat="42.69745" lon="0.66826">
        <ele>2079.1</ele>
        <time>2018-08-08T18:21:29.000Z</time>
      </trkpt>
      <trkpt lat="42.69745" lon="0.66826">
        <ele>2079.1</ele>
        <time>2018-08-08T18:21:30.000Z</time>
      </trkpt>
      <trkpt lat="42.69745" lon="0.66826">
        <ele>2079.1</ele>
        <time>2018-08-08T18:21:31.000Z</time>
      </trkpt>
      <trkpt lat="42.69745" lon="0.66826">
        <ele>2079.1</ele>
        <time>2018-08-08T18:21:32.000Z</time>
      </trkpt>
      <trkpt lat="42.69745" lon="0.66826">
        <ele>2079.1</ele>
        <time>2018-08-08T18:21:33.000Z</time>
      </trkpt>
      <trkpt lat="42.69745" lon="0.66826">
        <ele>2079.1</ele>
        <time>2018-08-08T18:21:34.000Z</time>
      </trkpt>
      <trkpt lat="42.69745" lon="0.66826">
        <ele>2079.1</ele>
        <time>2018-08-08T18:21:35.000Z</time>
      </trkpt>
      <trkpt lat="42.69745" lon="0.66826">
        <ele>2079.1</ele>
        <time>2018-08-08T18:21:36.000Z</time>
      </trkpt>
      <trkpt lat="42.69745" lon="0.66826">
        <ele>2079.1</ele>
        <time>2018-08-08T18:21:37.000Z</time>
      </trkpt>
      <trkpt lat="42.69745" lon="0.66826">
        <ele>2079.1</ele>
        <time>2018-08-08T18:21:38.000Z</time>
      </trkpt>
      <trkpt lat="42.69745" lon="0.66826">
        <ele>2079.1</ele>
        <time>2018-08-08T18:21:39.000Z</time>
      </trkpt>
      <trkpt lat="42.69745" lon="0.66826">
        <ele>2079.1</ele>
        <time>2018-08-08T18:21:40.000Z</time>
      </trkpt>
      <trkpt lat="42.69745" lon="0.66826">
        <ele>2079.1</ele>
        <time>2018-08-08T18:21:41.000Z</time>
      </trkpt>
      <trkpt lat="42.69745" lon="0.66826">
        <ele>2079.1</ele>
        <time>2018-08-08T18:21:42.000Z</time>
      </trkpt>
      <trkpt lat="42.69745" lon="0.66826">
        <ele>2079.1</ele>
        <time>2018-08-08T18:21:43.000Z</time>
      </trkpt>
      <trkpt lat="42.69745" lon="0.66826">
        <ele>2079.1</ele>
        <time>2018-08-08T18:21:44.000Z</time>
      </trkpt>
      <trkpt lat="42.69745" lon="0.66826">
        <ele>2079.1</ele>
        <time>2018-08-08T18:21:45.000Z</time>
      </trkpt>
      <trkpt lat="42.69745" lon="0.66826">
        <ele>2079.1</ele>
        <time>2018-08-08T18:21:46.000Z</time>
      </trkpt>
      <trkpt lat="42.69745" lon="0.66826">
        <ele>2079.1</ele>
        <time>2018-08-08T18:21:47.000Z</time>
      </trkpt>
      <trkpt lat="42.69745" lon="0.66826">
        <ele>2079.1</ele>
        <time>2018-08-08T18:21:48.000Z</time>
      </trkpt>
      <trkpt lat="42.69745" lon="0.66826">
        <ele>2079.1</ele>
        <time>2018-08-08T18:21:49.000Z</time>
      </trkpt>
      <trkpt lat="42.69745" lon="0.66826">
        <ele>2079.1</ele>
        <time>2018-08-08T18:21:50.000Z</time>
      </trkpt>
      <trkpt lat="42.69745" lon="0.66826">
        <ele>2079.1</ele>
        <time>2018-08-08T18:21:51.000Z</time>
      </trkpt>
      <trkpt lat="42.69745" lon="0.66826">
        <ele>2079.1</ele>
        <time>2018-08-08T18:21:52.000Z</time>
      </trkpt>
      <trkpt lat="42.69745" lon="0.66826">
        <ele>2079.1</ele>
        <time>2018-08-08T18:21:53.000Z</time>
      </trkpt>
      <trkpt lat="42.69745" lon="0.66826">
        <ele>2079.1</ele>
        <time>2018-08-08T18:21:54.000Z</time>
      </trkpt>
      <trkpt lat="42.69745" lon="0.66826">
        <ele>2079.1</ele>
        <time>2018-08-08T18:21:55.000Z</time>
      </trkpt>
      <trkpt lat="42.69745" lon="0.66826">
        <ele>2079.1</ele>
        <time>2018-08-08T18:21:56.000Z</time>
      </trkpt>
      <trkpt lat="42.69745" lon="0.66826">
        <ele>2079.1</ele>
        <time>2018-08-08T18:21:57.000Z</time>
      </trkpt>
      <trkpt lat="42.69745" lon="0.66826">
        <ele>2079.1</ele>
        <time>2018-08-08T18:21:58.000Z</time>
      </trkpt>
      <trkpt lat="42.69745" lon="0.66826">
        <ele>2079.1</ele>
        <time>2018-08-08T18:21:59.000Z</time>
      </trkpt>
      <trkpt lat="42.69745" lon="0.66826">
        <ele>2079.1</ele>
        <time>2018-08-08T18:22:00.000Z</time>
      </trkpt>
      <trkpt lat="42.69745" lon="0.66826">
        <ele>2079.1</ele>
        <time>2018-08-08T18:22:01.000Z</time>
      </trkpt>
      <trkpt lat="42.69745" lon="0.66826">
        <ele>2079.1</ele>
        <time>2018-08-08T18:22:02.000Z</time>
      </trkpt>
      <trkpt lat="42.69745" lon="0.66826">
        <ele>2079.1</ele>
        <time>2018-08-08T18:22:03.000Z</time>
      </trkpt>
      <trkpt lat="42.69745" lon="0.66826">
        <ele>2079.1</ele>
        <time>2018-08-08T18:22:04.000Z</time>
      </trkpt>
      <trkpt lat="42.69745" lon="0.66826">
        <ele>2079.1</ele>
        <time>2018-08-08T18:22:05.000Z</time>
      </trkpt>
      <trkpt lat="42.69745" lon="0.66826">
        <ele>2079.1</ele>
        <time>2018-08-08T18:22:06.000Z</time>
      </trkpt>
      <trkpt lat="42.69745" lon="0.66826">
        <ele>2079.1</ele>
        <time>2018-08-08T18:22:07.000Z</time>
      </trkpt>
      <trkpt lat="42.69745" lon="0.66826">
        <ele>2079.1</ele>
        <time>2018-08-08T18:22:08.000Z</time>
      </trkpt>
      <trkpt lat="42.69745" lon="0.66826">
        <ele>2079.1</ele>
        <time>2018-08-08T18:22:09.000Z</time>
      </trkpt>
      <trkpt lat="42.69745" lon="0.66826">
        <ele>2079.1</ele>
        <time>2018-08-08T18:22:10.000Z</time>
      </trkpt>
      <trkpt lat="42.69745" lon="0.66826">
        <ele>2079.1</ele>
        <time>2018-08-08T18:22:11.000Z</time>
      </trkpt>
      <trkpt lat="42.69745" lon="0.66826">
        <ele>2079.1</ele>
        <time>2018-08-08T18:22:12.000Z</time>
      </trkpt>
      <trkpt lat="42.69745" lon="0.66826">
        <ele>2079.1</ele>
        <time>2018-08-08T18:22:13.000Z</time>
      </trkpt>
      <trkpt lat="42.69745" lon="0.66826">
        <ele>2079.1</ele>
        <time>2018-08-08T18:22:14.000Z</time>
      </trkpt>
      <trkpt lat="42.69745" lon="0.66826">
        <ele>2079.1</ele>
        <time>2018-08-08T18:22:15.000Z</time>
      </trkpt>
      <trkpt lat="42.69745" lon="0.66826">
        <ele>2079.1</ele>
        <time>2018-08-08T18:22:16.000Z</time>
      </trkpt>
      <trkpt lat="42.69745" lon="0.66826">
        <ele>2079.1</ele>
        <time>2018-08-08T18:22:17.000Z</time>
      </trkpt>
      <trkpt lat="42.69745" lon="0.66826">
        <ele>2079.1</ele>
        <time>2018-08-08T18:22:18.000Z</time>
      </trkpt>
      <trkpt lat="42.69745" lon="0.66826">
        <ele>2079.1</ele>
        <time>2018-08-08T18:22:19.000Z</time>
      </trkpt>
      <trkpt lat="42.69745" lon="0.66826">
        <ele>2079.1</ele>
        <time>2018-08-08T18:22:20.000Z</time>
      </trkpt>
      <trkpt lat="42.69745" lon="0.66826">
        <ele>2079.1</ele>
        <time>2018-08-08T18:22:21.000Z</time>
      </trkpt>
      <trkpt lat="42.69745" lon="0.66826">
        <ele>2079.1</ele>
        <time>2018-08-08T18:22:22.000Z</time>
      </trkpt>
      <trkpt lat="42.69745" lon="0.66826">
        <ele>2079.1</ele>
        <time>2018-08-08T18:22:23.000Z</time>
      </trkpt>
      <trkpt lat="42.69745" lon="0.66826">
        <ele>2079.1</ele>
        <time>2018-08-08T18:22:24.000Z</time>
      </trkpt>
      <trkpt lat="42.69745" lon="0.66826">
        <ele>2079.1</ele>
        <time>2018-08-08T18:22:25.000Z</time>
      </trkpt>
      <trkpt lat="42.69745" lon="0.66826">
        <ele>2079.1</ele>
        <time>2018-08-08T18:22:26.000Z</time>
      </trkpt>
      <trkpt lat="42.69745" lon="0.66826">
        <ele>2079.1</ele>
        <time>2018-08-08T18:22:27.000Z</time>
      </trkpt>
      <trkpt lat="42.69745" lon="0.66826">
        <ele>2079.1</ele>
        <time>2018-08-08T18:22:28.000Z</time>
      </trkpt>
      <trkpt lat="42.69745" lon="0.66826">
        <ele>2079.1</ele>
        <time>2018-08-08T18:22:29.000Z</time>
      </trkpt>
      <trkpt lat="42.69745" lon="0.66826">
        <ele>2079.1</ele>
        <time>2018-08-08T18:22:30.000Z</time>
      </trkpt>
      <trkpt lat="42.69745" lon="0.66826">
        <ele>2079.1</ele>
        <time>2018-08-08T18:22:31.000Z</time>
      </trkpt>
      <trkpt lat="42.69745" lon="0.66826">
        <ele>2079.1</ele>
        <time>2018-08-08T18:22:32.000Z</time>
      </trkpt>
      <trkpt lat="42.69745" lon="0.66826">
        <ele>2079.1</ele>
        <time>2018-08-08T18:22:33.000Z</time>
      </trkpt>
      <trkpt lat="42.69745" lon="0.66826">
        <ele>2079.1</ele>
        <time>2018-08-08T18:22:34.000Z</time>
      </trkpt>
      <trkpt lat="42.69745" lon="0.66826">
        <ele>2079.1</ele>
        <time>2018-08-08T18:22:35.000Z</time>
      </trkpt>
      <trkpt lat="42.69745" lon="0.66826">
        <ele>2079.1</ele>
        <time>2018-08-08T18:22:36.000Z</time>
      </trkpt>
      <trkpt lat="42.69745" lon="0.66826">
        <ele>2079.1</ele>
        <time>2018-08-08T18:22:37.000Z</time>
      </trkpt>
      <trkpt lat="42.69745" lon="0.66826">
        <ele>2079.1</ele>
        <time>2018-08-08T18:22:38.000Z</time>
      </trkpt>
      <trkpt lat="42.69745" lon="0.66826">
        <ele>2079.1</ele>
        <time>2018-08-08T18:22:39.000Z</time>
      </trkpt>
      <trkpt lat="42.69745" lon="0.66826">
        <ele>2079.1</ele>
        <time>2018-08-08T18:22:40.000Z</time>
      </trkpt>
      <trkpt lat="42.69745" lon="0.66826">
        <ele>2079.1</ele>
        <time>2018-08-08T18:22:41.000Z</time>
      </trkpt>
      <trkpt lat="42.69745" lon="0.66826">
        <ele>2079.1</ele>
        <time>2018-08-08T18:22:42.000Z</time>
      </trkpt>
      <trkpt lat="42.69745" lon="0.66826">
        <ele>2079.1</ele>
        <time>2018-08-08T18:22:43.000Z</time>
      </trkpt>
      <trkpt lat="42.69745" lon="0.66826">
        <ele>2079.1</ele>
        <time>2018-08-08T18:22:44.000Z</time>
      </trkpt>
      <trkpt lat="42.69745" lon="0.66826">
        <ele>2079.1</ele>
        <time>2018-08-08T18:22:45.000Z</time>
      </trkpt>
      <trkpt lat="42.69745" lon="0.66826">
        <ele>2079.1</ele>
        <time>2018-08-08T18:22:46.000Z</time>
      </trkpt>
      <trkpt lat="42.69745" lon="0.66826">
        <ele>2079.1</ele>
        <time>2018-08-08T18:22:47.000Z</time>
      </trkpt>
      <trkpt lat="42.69745" lon="0.66826">
        <ele>2079.1</ele>
        <time>2018-08-08T18:22:48.000Z</time>
      </trkpt>
      <trkpt lat="42.69745" lon="0.66826">
        <ele>2079.1</ele>
        <time>2018-08-08T18:22:49.000Z</time>
      </trkpt>
      <trkpt lat="42.69745" lon="0.66826">
        <ele>2079.1</ele>
        <time>2018-08-08T18:22:50.000Z</time>
      </trkpt>
      <trkpt lat="42.69745" lon="0.66826">
        <ele>2079.1</ele>
        <time>2018-08-08T18:22:51.000Z</time>
      </trkpt>
      <trkpt lat="42.69745" lon="0.66826">
        <ele>2079.1</ele>
        <time>2018-08-08T18:22:52.000Z</time>
      </trkpt>
      <trkpt lat="42.69745" lon="0.66826">
        <ele>2079.1</ele>
        <time>2018-08-08T18:22:53.000Z</time>
      </trkpt>
      <trkpt lat="42.69745" lon="0.66826">
        <ele>2079.1</ele>
        <time>2018-08-08T18:22:54.000Z</time>
      </trkpt>
      <trkpt lat="42.69745" lon="0.66826">
        <ele>2079.1</ele>
        <time>2018-08-08T18:22:55.000Z</time>
      </trkpt>
      <trkpt lat="42.69745" lon="0.66826">
        <ele>2079.1</ele>
        <time>2018-08-08T18:22:56.000Z</time>
      </trkpt>
      <trkpt lat="42.69745" lon="0.66826">
        <ele>2079.1</ele>
        <time>2018-08-08T18:22:57.000Z</time>
      </trkpt>
      <trkpt lat="42.69745" lon="0.66826">
        <ele>2079.1</ele>
        <time>2018-08-08T18:22:58.000Z</time>
      </trkpt>
      <trkpt lat="42.69745" lon="0.66826">
        <ele>2079.1</ele>
        <time>2018-08-08T18:22:59.000Z</time>
      </trkpt>
      <trkpt lat="42.69745" lon="0.66826">
        <ele>2079.1</ele>
        <time>2018-08-08T18:23:00.000Z</time>
      </trkpt>
      <trkpt lat="42.69745" lon="0.66826">
        <ele>2079.1</ele>
        <time>2018-08-08T18:23:01.000Z</time>
      </trkpt>
      <trkpt lat="42.69745" lon="0.66826">
        <ele>2079.1</ele>
        <time>2018-08-08T18:23:02.000Z</time>
      </trkpt>
      <trkpt lat="42.69745" lon="0.66826">
        <ele>2079.1</ele>
        <time>2018-08-08T18:23:03.000Z</time>
      </trkpt>
      <trkpt lat="42.69745" lon="0.66826">
        <ele>2079.1</ele>
        <time>2018-08-08T18:23:04.000Z</time>
      </trkpt>
      <trkpt lat="42.69745" lon="0.66826">
        <ele>2079.1</ele>
        <time>2018-08-08T18:23:05.000Z</time>
      </trkpt>
      <trkpt lat="42.69745" lon="0.66826">
        <ele>2079.1</ele>
        <time>2018-08-08T18:23:06.000Z</time>
      </trkpt>
      <trkpt lat="42.69745" lon="0.66826">
        <ele>2079.1</ele>
        <time>2018-08-08T18:23:07.000Z</time>
      </trkpt>
      <trkpt lat="42.69745" lon="0.66826">
        <ele>2079.1</ele>
        <time>2018-08-08T18:23:08.000Z</time>
      </trkpt>
      <trkpt lat="42.69745" lon="0.66826">
        <ele>2079.1</ele>
        <time>2018-08-08T18:23:09.000Z</time>
      </trkpt>
      <trkpt lat="42.69745" lon="0.66826">
        <ele>2079.1</ele>
        <time>2018-08-08T18:23:10.000Z</time>
      </trkpt>
      <trkpt lat="42.69745" lon="0.66826">
        <ele>2079.1</ele>
        <time>2018-08-08T18:23:11.000Z</time>
      </trkpt>
      <trkpt lat="42.69745" lon="0.66826">
        <ele>2079.1</ele>
        <time>2018-08-08T18:23:12.000Z</time>
      </trkpt>
      <trkpt lat="42.69745" lon="0.66826">
        <ele>2079.1</ele>
        <time>2018-08-08T18:23:13.000Z</time>
      </trkpt>
      <trkpt lat="42.69745" lon="0.66826">
        <ele>2079.1</ele>
        <time>2018-08-08T18:23:14.000Z</time>
      </trkpt>
      <trkpt lat="42.69745" lon="0.66826">
        <ele>2079.1</ele>
        <time>2018-08-08T18:23:15.000Z</time>
      </trkpt>
      <trkpt lat="42.69745" lon="0.66826">
        <ele>2079.1</ele>
        <time>2018-08-08T18:23:16.000Z</time>
      </trkpt>
      <trkpt lat="42.69745" lon="0.66826">
        <ele>2079.1</ele>
        <time>2018-08-08T18:23:17.000Z</time>
      </trkpt>
      <trkpt lat="42.69745" lon="0.66826">
        <ele>2079.1</ele>
        <time>2018-08-08T18:23:18.000Z</time>
      </trkpt>
      <trkpt lat="42.69745" lon="0.66826">
        <ele>2079.1</ele>
        <time>2018-08-08T18:23:19.000Z</time>
      </trkpt>
      <trkpt lat="42.69745" lon="0.66826">
        <ele>2079.1</ele>
        <time>2018-08-08T18:23:20.000Z</time>
      </trkpt>
      <trkpt lat="42.69745" lon="0.66826">
        <ele>2079.1</ele>
        <time>2018-08-08T18:23:21.000Z</time>
      </trkpt>
      <trkpt lat="42.69745" lon="0.66826">
        <ele>2079.1</ele>
        <time>2018-08-08T18:23:22.000Z</time>
      </trkpt>
      <trkpt lat="42.69745" lon="0.66826">
        <ele>2079.1</ele>
        <time>2018-08-08T18:23:23.000Z</time>
      </trkpt>
      <trkpt lat="42.69745" lon="0.66826">
        <ele>2079.1</ele>
        <time>2018-08-08T18:23:24.000Z</time>
      </trkpt>
      <trkpt lat="42.69745" lon="0.66826">
        <ele>2079.1</ele>
        <time>2018-08-08T18:23:25.000Z</time>
      </trkpt>
      <trkpt lat="42.69745" lon="0.66826">
        <ele>2079.1</ele>
        <time>2018-08-08T18:23:26.000Z</time>
      </trkpt>
      <trkpt lat="42.69745" lon="0.66826">
        <ele>2079.1</ele>
        <time>2018-08-08T18:23:27.000Z</time>
      </trkpt>
      <trkpt lat="42.69745" lon="0.66826">
        <ele>2079.1</ele>
        <time>2018-08-08T18:23:28.000Z</time>
      </trkpt>
      <trkpt lat="42.69745" lon="0.66826">
        <ele>2079.1</ele>
        <time>2018-08-08T18:23:29.000Z</time>
      </trkpt>
      <trkpt lat="42.69745" lon="0.66826">
        <ele>2079.1</ele>
        <time>2018-08-08T18:23:30.000Z</time>
      </trkpt>
      <trkpt lat="42.69745" lon="0.66826">
        <ele>2079.1</ele>
        <time>2018-08-08T18:23:31.000Z</time>
      </trkpt>
      <trkpt lat="42.69745" lon="0.66826">
        <ele>2079.1</ele>
        <time>2018-08-08T18:23:32.000Z</time>
      </trkpt>
      <trkpt lat="42.69745" lon="0.66826">
        <ele>2079.1</ele>
        <time>2018-08-08T18:23:33.000Z</time>
      </trkpt>
      <trkpt lat="42.69745" lon="0.66826">
        <ele>2079.1</ele>
        <time>2018-08-08T18:23:34.000Z</time>
      </trkpt>
      <trkpt lat="42.69745" lon="0.66826">
        <ele>2079.1</ele>
        <time>2018-08-08T18:23:35.000Z</time>
      </trkpt>
      <trkpt lat="42.69745" lon="0.66826">
        <ele>2079.1</ele>
        <time>2018-08-08T18:23:36.000Z</time>
      </trkpt>
      <trkpt lat="42.69745" lon="0.66826">
        <ele>2079.1</ele>
        <time>2018-08-08T18:23:37.000Z</time>
      </trkpt>
      <trkpt lat="42.69745" lon="0.66826">
        <ele>2079.1</ele>
        <time>2018-08-08T18:23:38.000Z</time>
      </trkpt>
      <trkpt lat="42.69745" lon="0.66826">
        <ele>2079.1</ele>
        <time>2018-08-08T18:23:39.000Z</time>
      </trkpt>
      <trkpt lat="42.69745" lon="0.66826">
        <ele>2079.1</ele>
        <time>2018-08-08T18:23:40.000Z</time>
      </trkpt>
      <trkpt lat="42.69745" lon="0.66826">
        <ele>2079.1</ele>
        <time>2018-08-08T18:23:41.000Z</time>
      </trkpt>
      <trkpt lat="42.69745" lon="0.66826">
        <ele>2079.1</ele>
        <time>2018-08-08T18:23:42.000Z</time>
      </trkpt>
      <trkpt lat="42.69745" lon="0.66826">
        <ele>2079.1</ele>
        <time>2018-08-08T18:23:43.000Z</time>
      </trkpt>
      <trkpt lat="42.69745" lon="0.66826">
        <ele>2079.1</ele>
        <time>2018-08-08T18:23:44.000Z</time>
      </trkpt>
      <trkpt lat="42.69745" lon="0.66826">
        <ele>2079.1</ele>
        <time>2018-08-08T18:23:45.000Z</time>
      </trkpt>
      <trkpt lat="42.69745" lon="0.66826">
        <ele>2079.1</ele>
        <time>2018-08-08T18:23:46.000Z</time>
      </trkpt>
      <trkpt lat="42.69745" lon="0.66826">
        <ele>2079.1</ele>
        <time>2018-08-08T18:23:47.000Z</time>
      </trkpt>
      <trkpt lat="42.69745" lon="0.66826">
        <ele>2079.1</ele>
        <time>2018-08-08T18:23:48.000Z</time>
      </trkpt>
      <trkpt lat="42.69745" lon="0.66826">
        <ele>2079.1</ele>
        <time>2018-08-08T18:23:49.000Z</time>
      </trkpt>
      <trkpt lat="42.69745" lon="0.66826">
        <ele>2079.1</ele>
        <time>2018-08-08T18:23:50.000Z</time>
      </trkpt>
      <trkpt lat="42.69745" lon="0.66826">
        <ele>2079.1</ele>
        <time>2018-08-08T18:23:51.000Z</time>
      </trkpt>
      <trkpt lat="42.69745" lon="0.66826">
        <ele>2079.1</ele>
        <time>2018-08-08T18:23:52.000Z</time>
      </trkpt>
      <trkpt lat="42.69745" lon="0.66826">
        <ele>2079.1</ele>
        <time>2018-08-08T18:23:53.000Z</time>
      </trkpt>
      <trkpt lat="42.69745" lon="0.66826">
        <ele>2079.1</ele>
        <time>2018-08-08T18:23:54.000Z</time>
      </trkpt>
      <trkpt lat="42.69745" lon="0.66826">
        <ele>2079.1</ele>
        <time>2018-08-08T18:23:55.000Z</time>
      </trkpt>
      <trkpt lat="42.69745" lon="0.66826">
        <ele>2079.1</ele>
        <time>2018-08-08T18:23:56.000Z</time>
      </trkpt>
      <trkpt lat="42.69745" lon="0.66826">
        <ele>2079.1</ele>
        <time>2018-08-08T18:23:57.000Z</time>
      </trkpt>
      <trkpt lat="42.69745" lon="0.66826">
        <ele>2079.1</ele>
        <time>2018-08-08T18:23:58.000Z</time>
      </trkpt>
      <trkpt lat="42.69745" lon="0.66826">
        <ele>2079.1</ele>
        <time>2018-08-08T18:23:59.000Z</time>
      </trkpt>
      <trkpt lat="42.69745" lon="0.66826">
        <ele>2079.1</ele>
        <time>2018-08-08T18:24:00.000Z</time>
      </trkpt>
      <trkpt lat="42.69745" lon="0.66826">
        <ele>2079.1</ele>
        <time>2018-08-08T18:24:01.000Z</time>
      </trkpt>
      <trkpt lat="42.69745" lon="0.66826">
        <ele>2079.1</ele>
        <time>2018-08-08T18:24:02.000Z</time>
      </trkpt>
      <trkpt lat="42.69745" lon="0.66826">
        <ele>2079.1</ele>
        <time>2018-08-08T18:24:03.000Z</time>
      </trkpt>
      <trkpt lat="42.69745" lon="0.66826">
        <ele>2079.1</ele>
        <time>2018-08-08T18:24:04.000Z</time>
      </trkpt>
      <trkpt lat="42.69745" lon="0.66826">
        <ele>2079.1</ele>
        <time>2018-08-08T18:24:05.000Z</time>
      </trkpt>
      <trkpt lat="42.69745" lon="0.66826">
        <ele>2079.1</ele>
        <time>2018-08-08T18:24:06.000Z</time>
      </trkpt>
      <trkpt lat="42.69745" lon="0.66826">
        <ele>2079.1</ele>
        <time>2018-08-08T18:24:07.000Z</time>
      </trkpt>
      <trkpt lat="42.69745" lon="0.66826">
        <ele>2079.1</ele>
        <time>2018-08-08T18:24:08.000Z</time>
      </trkpt>
      <trkpt lat="42.69745" lon="0.66826">
        <ele>2079.1</ele>
        <time>2018-08-08T18:24:09.000Z</time>
      </trkpt>
      <trkpt lat="42.69745" lon="0.66826">
        <ele>2079.1</ele>
        <time>2018-08-08T18:24:10.000Z</time>
      </trkpt>
      <trkpt lat="42.69745" lon="0.66826">
        <ele>2079.1</ele>
        <time>2018-08-08T18:24:11.000Z</time>
      </trkpt>
      <trkpt lat="42.69745" lon="0.66826">
        <ele>2079.1</ele>
        <time>2018-08-08T18:24:12.000Z</time>
      </trkpt>
      <trkpt lat="42.69745" lon="0.66826">
        <ele>2079.1</ele>
        <time>2018-08-08T18:24:13.000Z</time>
      </trkpt>
      <trkpt lat="42.69745" lon="0.66826">
        <ele>2079.1</ele>
        <time>2018-08-08T18:24:14.000Z</time>
      </trkpt>
      <trkpt lat="42.69745" lon="0.66826">
        <ele>2079.1</ele>
        <time>2018-08-08T18:24:15.000Z</time>
      </trkpt>
      <trkpt lat="42.69745" lon="0.66826">
        <ele>2079.1</ele>
        <time>2018-08-08T18:24:16.000Z</time>
      </trkpt>
      <trkpt lat="42.69745" lon="0.66826">
        <ele>2079.1</ele>
        <time>2018-08-08T18:24:17.000Z</time>
      </trkpt>
      <trkpt lat="42.69745" lon="0.66826">
        <ele>2079.1</ele>
        <time>2018-08-08T18:24:18.000Z</time>
      </trkpt>
      <trkpt lat="42.69745" lon="0.66826">
        <ele>2079.1</ele>
        <time>2018-08-08T18:24:19.000Z</time>
      </trkpt>
      <trkpt lat="42.69745" lon="0.66826">
        <ele>2079.1</ele>
        <time>2018-08-08T18:24:20.000Z</time>
      </trkpt>
      <trkpt lat="42.69745" lon="0.66826">
        <ele>2079.1</ele>
        <time>2018-08-08T18:24:21.000Z</time>
      </trkpt>
      <trkpt lat="42.69745" lon="0.66826">
        <ele>2079.1</ele>
        <time>2018-08-08T18:24:22.000Z</time>
      </trkpt>
      <trkpt lat="42.69745" lon="0.66826">
        <ele>2079.1</ele>
        <time>2018-08-08T18:24:23.000Z</time>
      </trkpt>
      <trkpt lat="42.69745" lon="0.66826">
        <ele>2079.1</ele>
        <time>2018-08-08T18:24:24.000Z</time>
      </trkpt>
      <trkpt lat="42.69745" lon="0.66826">
        <ele>2079.1</ele>
        <time>2018-08-08T18:24:25.000Z</time>
      </trkpt>
      <trkpt lat="42.69745" lon="0.66826">
        <ele>2079.1</ele>
        <time>2018-08-08T18:24:26.000Z</time>
      </trkpt>
      <trkpt lat="42.69745" lon="0.66826">
        <ele>2079.1</ele>
        <time>2018-08-08T18:24:27.000Z</time>
      </trkpt>
      <trkpt lat="42.69745" lon="0.66826">
        <ele>2079.1</ele>
        <time>2018-08-08T18:24:28.000Z</time>
      </trkpt>
      <trkpt lat="42.69745" lon="0.66826">
        <ele>2079.1</ele>
        <time>2018-08-08T18:24:29.000Z</time>
      </trkpt>
      <trkpt lat="42.69745" lon="0.66826">
        <ele>2079.1</ele>
        <time>2018-08-08T18:24:30.000Z</time>
      </trkpt>
      <trkpt lat="42.69745" lon="0.66826">
        <ele>2079.1</ele>
        <time>2018-08-08T18:24:31.000Z</time>
      </trkpt>
      <trkpt lat="42.69745" lon="0.66826">
        <ele>2079.1</ele>
        <time>2018-08-08T18:24:32.000Z</time>
      </trkpt>
      <trkpt lat="42.69745" lon="0.66826">
        <ele>2079.1</ele>
        <time>2018-08-08T18:24:33.000Z</time>
      </trkpt>
      <trkpt lat="42.69745" lon="0.66826">
        <ele>2079.1</ele>
        <time>2018-08-08T18:24:34.000Z</time>
      </trkpt>
      <trkpt lat="42.69745" lon="0.66826">
        <ele>2079.1</ele>
        <time>2018-08-08T18:24:35.000Z</time>
      </trkpt>
      <trkpt lat="42.69745" lon="0.66826">
        <ele>2079.1</ele>
        <time>2018-08-08T18:24:36.000Z</time>
      </trkpt>
      <trkpt lat="42.69745" lon="0.66826">
        <ele>2079.1</ele>
        <time>2018-08-08T18:24:37.000Z</time>
      </trkpt>
      <trkpt lat="42.69745" lon="0.66826">
        <ele>2079.1</ele>
        <time>2018-08-08T18:24:38.000Z</time>
      </trkpt>
      <trkpt lat="42.69745" lon="0.66826">
        <ele>2079.1</ele>
        <time>2018-08-08T18:24:39.000Z</time>
      </trkpt>
      <trkpt lat="42.69745" lon="0.66826">
        <ele>2079.1</ele>
        <time>2018-08-08T18:24:40.000Z</time>
      </trkpt>
      <trkpt lat="42.69745" lon="0.66826">
        <ele>2079.1</ele>
        <time>2018-08-08T18:24:41.000Z</time>
      </trkpt>
      <trkpt lat="42.69745" lon="0.66826">
        <ele>2079.1</ele>
        <time>2018-08-08T18:24:42.000Z</time>
      </trkpt>
      <trkpt lat="42.69745" lon="0.66826">
        <ele>2079.1</ele>
        <time>2018-08-08T18:24:43.000Z</time>
      </trkpt>
      <trkpt lat="42.69745" lon="0.66826">
        <ele>2079.1</ele>
        <time>2018-08-08T18:24:44.000Z</time>
      </trkpt>
      <trkpt lat="42.69745" lon="0.66826">
        <ele>2079.1</ele>
        <time>2018-08-08T18:24:45.000Z</time>
      </trkpt>
      <trkpt lat="42.69745" lon="0.66826">
        <ele>2079.1</ele>
        <time>2018-08-08T18:24:46.000Z</time>
      </trkpt>
      <trkpt lat="42.69745" lon="0.66826">
        <ele>2079.1</ele>
        <time>2018-08-08T18:24:47.000Z</time>
      </trkpt>
      <trkpt lat="42.69745" lon="0.66826">
        <ele>2079.1</ele>
        <time>2018-08-08T18:24:48.000Z</time>
      </trkpt>
      <trkpt lat="42.69745" lon="0.66826">
        <ele>2079.1</ele>
        <time>2018-08-08T18:24:49.000Z</time>
      </trkpt>
      <trkpt lat="42.69745" lon="0.66826">
        <ele>2079.1</ele>
        <time>2018-08-08T18:24:50.000Z</time>
      </trkpt>
      <trkpt lat="42.69745" lon="0.66826">
        <ele>2079.1</ele>
        <time>2018-08-08T18:24:51.000Z</time>
      </trkpt>
      <trkpt lat="42.69745" lon="0.66826">
        <ele>2079.1</ele>
        <time>2018-08-08T18:24:52.000Z</time>
      </trkpt>
      <trkpt lat="42.69745" lon="0.66826">
        <ele>2079.1</ele>
        <time>2018-08-08T18:24:53.000Z</time>
      </trkpt>
      <trkpt lat="42.69745" lon="0.66826">
        <ele>2079.1</ele>
        <time>2018-08-08T18:24:54.000Z</time>
      </trkpt>
      <trkpt lat="42.69745" lon="0.66826">
        <ele>2079.1</ele>
        <time>2018-08-08T18:24:55.000Z</time>
      </trkpt>
      <trkpt lat="42.69745" lon="0.66826">
        <ele>2079.1</ele>
        <time>2018-08-08T18:24:56.000Z</time>
      </trkpt>
      <trkpt lat="42.69745" lon="0.66826">
        <ele>2079.1</ele>
        <time>2018-08-08T18:24:57.000Z</time>
      </trkpt>
      <trkpt lat="42.69745" lon="0.66826">
        <ele>2079.1</ele>
        <time>2018-08-08T18:24:58.000Z</time>
      </trkpt>
      <trkpt lat="42.69745" lon="0.66826">
        <ele>2079.1</ele>
        <time>2018-08-08T18:24:59.000Z</time>
      </trkpt>
      <trkpt lat="42.69745" lon="0.66826">
        <ele>2079.1</ele>
        <time>2018-08-08T18:25:00.000Z</time>
      </trkpt>
      <trkpt lat="42.69745" lon="0.66826">
        <ele>2079.1</ele>
        <time>2018-08-08T18:25:01.000Z</time>
      </trkpt>
      <trkpt lat="42.69745" lon="0.66826">
        <ele>2079.1</ele>
        <time>2018-08-08T18:25:02.000Z</time>
      </trkpt>
      <trkpt lat="42.69745" lon="0.66826">
        <ele>2079.1</ele>
        <time>2018-08-08T18:25:03.000Z</time>
      </trkpt>
      <trkpt lat="42.69745" lon="0.66826">
        <ele>2079.1</ele>
        <time>2018-08-08T18:25:04.000Z</time>
      </trkpt>
      <trkpt lat="42.69745" lon="0.66826">
        <ele>2079.1</ele>
        <time>2018-08-08T18:25:05.000Z</time>
      </trkpt>
      <trkpt lat="42.69745" lon="0.66826">
        <ele>2079.1</ele>
        <time>2018-08-08T18:25:06.000Z</time>
      </trkpt>
      <trkpt lat="42.69745" lon="0.66826">
        <ele>2079.1</ele>
        <time>2018-08-08T18:25:07.000Z</time>
      </trkpt>
      <trkpt lat="42.69745" lon="0.66826">
        <ele>2079.1</ele>
        <time>2018-08-08T18:25:08.000Z</time>
      </trkpt>
      <trkpt lat="42.69745" lon="0.66826">
        <ele>2079.1</ele>
        <time>2018-08-08T18:25:09.000Z</time>
      </trkpt>
      <trkpt lat="42.69745" lon="0.66826">
        <ele>2079.1</ele>
        <time>2018-08-08T18:25:10.000Z</time>
      </trkpt>
      <trkpt lat="42.69745" lon="0.66826">
        <ele>2079.1</ele>
        <time>2018-08-08T18:25:11.000Z</time>
      </trkpt>
      <trkpt lat="42.69745" lon="0.66826">
        <ele>2079.1</ele>
        <time>2018-08-08T18:25:12.000Z</time>
      </trkpt>
      <trkpt lat="42.69745" lon="0.66826">
        <ele>2079.1</ele>
        <time>2018-08-08T18:25:13.000Z</time>
      </trkpt>
      <trkpt lat="42.69745" lon="0.66826">
        <ele>2079.1</ele>
        <time>2018-08-08T18:25:14.000Z</time>
      </trkpt>
      <trkpt lat="42.69745" lon="0.66826">
        <ele>2079.1</ele>
        <time>2018-08-08T18:25:15.000Z</time>
      </trkpt>
      <trkpt lat="42.69745" lon="0.66826">
        <ele>2079.1</ele>
        <time>2018-08-08T18:25:16.000Z</time>
      </trkpt>
      <trkpt lat="42.69745" lon="0.66826">
        <ele>2079.1</ele>
        <time>2018-08-08T18:25:17.000Z</time>
      </trkpt>
      <trkpt lat="42.69745" lon="0.66826">
        <ele>2079.1</ele>
        <time>2018-08-08T18:25:18.000Z</time>
      </trkpt>
      <trkpt lat="42.69745" lon="0.66826">
        <ele>2079.1</ele>
        <time>2018-08-08T18:25:19.000Z</time>
      </trkpt>
      <trkpt lat="42.69745" lon="0.66826">
        <ele>2079.1</ele>
        <time>2018-08-08T18:25:20.000Z</time>
      </trkpt>
      <trkpt lat="42.69745" lon="0.66826">
        <ele>2079.1</ele>
        <time>2018-08-08T18:25:21.000Z</time>
      </trkpt>
      <trkpt lat="42.69745" lon="0.66826">
        <ele>2079.1</ele>
        <time>2018-08-08T18:25:22.000Z</time>
      </trkpt>
      <trkpt lat="42.69745" lon="0.66826">
        <ele>2079.1</ele>
        <time>2018-08-08T18:25:23.000Z</time>
      </trkpt>
      <trkpt lat="42.69745" lon="0.66826">
        <ele>2079.1</ele>
        <time>2018-08-08T18:25:24.000Z</time>
      </trkpt>
      <trkpt lat="42.69745" lon="0.66826">
        <ele>2079.1</ele>
        <time>2018-08-08T18:25:25.000Z</time>
      </trkpt>
      <trkpt lat="42.69745" lon="0.66826">
        <ele>2079.1</ele>
        <time>2018-08-08T18:25:26.000Z</time>
      </trkpt>
      <trkpt lat="42.69745" lon="0.66826">
        <ele>2079.1</ele>
        <time>2018-08-08T18:25:27.000Z</time>
      </trkpt>
      <trkpt lat="42.69745" lon="0.66826">
        <ele>2079.1</ele>
        <time>2018-08-08T18:25:28.000Z</time>
      </trkpt>
      <trkpt lat="42.69745" lon="0.66826">
        <ele>2079.1</ele>
        <time>2018-08-08T18:25:29.000Z</time>
      </trkpt>
      <trkpt lat="42.69745" lon="0.66826">
        <ele>2079.1</ele>
        <time>2018-08-08T18:25:30.000Z</time>
      </trkpt>
      <trkpt lat="42.69745" lon="0.66826">
        <ele>2079.1</ele>
        <time>2018-08-08T18:25:31.000Z</time>
      </trkpt>
      <trkpt lat="42.69745" lon="0.66826">
        <ele>2079.1</ele>
        <time>2018-08-08T18:25:32.000Z</time>
      </trkpt>
      <trkpt lat="42.69745" lon="0.66826">
        <ele>2079.1</ele>
        <time>2018-08-08T18:25:33.000Z</time>
      </trkpt>
      <trkpt lat="42.69745" lon="0.66826">
        <ele>2079.1</ele>
        <time>2018-08-08T18:25:34.000Z</time>
      </trkpt>
      <trkpt lat="42.69745" lon="0.66826">
        <ele>2079.1</ele>
        <time>2018-08-08T18:25:35.000Z</time>
      </trkpt>
      <trkpt lat="42.69745" lon="0.66826">
        <ele>2079.1</ele>
        <time>2018-08-08T18:25:36.000Z</time>
      </trkpt>
      <trkpt lat="42.69745" lon="0.66826">
        <ele>2079.1</ele>
        <time>2018-08-08T18:25:37.000Z</time>
      </trkpt>
      <trkpt lat="42.69745" lon="0.66826">
        <ele>2079.1</ele>
        <time>2018-08-08T18:25:38.000Z</time>
      </trkpt>
      <trkpt lat="42.69745" lon="0.66826">
        <ele>2079.1</ele>
        <time>2018-08-08T18:25:39.000Z</time>
      </trkpt>
      <trkpt lat="42.69745" lon="0.66826">
        <ele>2079.1</ele>
        <time>2018-08-08T18:25:40.000Z</time>
      </trkpt>
      <trkpt lat="42.69745" lon="0.66826">
        <ele>2079.1</ele>
        <time>2018-08-08T18:25:41.000Z</time>
      </trkpt>
      <trkpt lat="42.69745" lon="0.66826">
        <ele>2079.1</ele>
        <time>2018-08-08T18:25:42.000Z</time>
      </trkpt>
      <trkpt lat="42.69745" lon="0.66826">
        <ele>2079.1</ele>
        <time>2018-08-08T18:25:43.000Z</time>
      </trkpt>
      <trkpt lat="42.69745" lon="0.66826">
        <ele>2079.1</ele>
        <time>2018-08-08T18:25:44.000Z</time>
      </trkpt>
      <trkpt lat="42.69745" lon="0.66826">
        <ele>2079.1</ele>
        <time>2018-08-08T18:25:45.000Z</time>
      </trkpt>
      <trkpt lat="42.69745" lon="0.66826">
        <ele>2079.1</ele>
        <time>2018-08-08T18:25:46.000Z</time>
      </trkpt>
      <trkpt lat="42.69745" lon="0.66826">
        <ele>2079.1</ele>
        <time>2018-08-08T18:25:47.000Z</time>
      </trkpt>
      <trkpt lat="42.69745" lon="0.66826">
        <ele>2079.1</ele>
        <time>2018-08-08T18:25:48.000Z</time>
      </trkpt>
      <trkpt lat="42.69745" lon="0.66826">
        <ele>2079.1</ele>
        <time>2018-08-08T18:25:49.000Z</time>
      </trkpt>
      <trkpt lat="42.69745" lon="0.66826">
        <ele>2079.1</ele>
        <time>2018-08-08T18:25:50.000Z</time>
      </trkpt>
      <trkpt lat="42.69745" lon="0.66826">
        <ele>2079.1</ele>
        <time>2018-08-08T18:25:51.000Z</time>
      </trkpt>
      <trkpt lat="42.69745" lon="0.66826">
        <ele>2079.1</ele>
        <time>2018-08-08T18:25:52.000Z</time>
      </trkpt>
      <trkpt lat="42.69745" lon="0.66826">
        <ele>2079.1</ele>
        <time>2018-08-08T18:25:53.000Z</time>
      </trkpt>
      <trkpt lat="42.69745" lon="0.66826">
        <ele>2079.1</ele>
        <time>2018-08-08T18:25:54.000Z</time>
      </trkpt>
      <trkpt lat="42.69745" lon="0.66826">
        <ele>2079.1</ele>
        <time>2018-08-08T18:25:55.000Z</time>
      </trkpt>
      <trkpt lat="42.69745" lon="0.66826">
        <ele>2079.1</ele>
        <time>2018-08-08T18:25:56.000Z</time>
      </trkpt>
      <trkpt lat="42.69745" lon="0.66826">
        <ele>2079.1</ele>
        <time>2018-08-08T18:25:57.000Z</time>
      </trkpt>
      <trkpt lat="42.69745" lon="0.66826">
        <ele>2079.1</ele>
        <time>2018-08-08T18:25:58.000Z</time>
      </trkpt>
      <trkpt lat="42.69745" lon="0.66826">
        <ele>2079.1</ele>
        <time>2018-08-08T18:25:59.000Z</time>
      </trkpt>
      <trkpt lat="42.69745" lon="0.66826">
        <ele>2079.1</ele>
        <time>2018-08-08T18:26:00.000Z</time>
      </trkpt>
      <trkpt lat="42.69745" lon="0.66826">
        <ele>2079.1</ele>
        <time>2018-08-08T18:26:01.000Z</time>
      </trkpt>
      <trkpt lat="42.69745" lon="0.66826">
        <ele>2079.1</ele>
        <time>2018-08-08T18:26:02.000Z</time>
      </trkpt>
      <trkpt lat="42.69745" lon="0.66826">
        <ele>2079.1</ele>
        <time>2018-08-08T18:26:03.000Z</time>
      </trkpt>
      <trkpt lat="42.69745" lon="0.66826">
        <ele>2079.1</ele>
        <time>2018-08-08T18:26:04.000Z</time>
      </trkpt>
      <trkpt lat="42.69745" lon="0.66826">
        <ele>2079.1</ele>
        <time>2018-08-08T18:26:05.000Z</time>
      </trkpt>
      <trkpt lat="42.69745" lon="0.66826">
        <ele>2079.1</ele>
        <time>2018-08-08T18:26:06.000Z</time>
      </trkpt>
      <trkpt lat="42.69745" lon="0.66826">
        <ele>2079.1</ele>
        <time>2018-08-08T18:26:07.000Z</time>
      </trkpt>
      <trkpt lat="42.69745" lon="0.66826">
        <ele>2079.1</ele>
        <time>2018-08-08T18:26:08.000Z</time>
      </trkpt>
      <trkpt lat="42.69745" lon="0.66826">
        <ele>2079.1</ele>
        <time>2018-08-08T18:26:09.000Z</time>
      </trkpt>
      <trkpt lat="42.69745" lon="0.66826">
        <ele>2079.1</ele>
        <time>2018-08-08T18:26:10.000Z</time>
      </trkpt>
      <trkpt lat="42.69745" lon="0.66826">
        <ele>2079.1</ele>
        <time>2018-08-08T18:26:11.000Z</time>
      </trkpt>
      <trkpt lat="42.69745" lon="0.66826">
        <ele>2079.1</ele>
        <time>2018-08-08T18:26:12.000Z</time>
      </trkpt>
      <trkpt lat="42.69745" lon="0.66826">
        <ele>2079.1</ele>
        <time>2018-08-08T18:26:13.000Z</time>
      </trkpt>
      <trkpt lat="42.69745" lon="0.66826">
        <ele>2079.1</ele>
        <time>2018-08-08T18:26:14.000Z</time>
      </trkpt>
      <trkpt lat="42.69745" lon="0.66826">
        <ele>2079.1</ele>
        <time>2018-08-08T18:26:15.000Z</time>
      </trkpt>
      <trkpt lat="42.69745" lon="0.66826">
        <ele>2079.1</ele>
        <time>2018-08-08T18:26:16.000Z</time>
      </trkpt>
      <trkpt lat="42.69745" lon="0.66826">
        <ele>2079.1</ele>
        <time>2018-08-08T18:26:17.000Z</time>
      </trkpt>
      <trkpt lat="42.69745" lon="0.66826">
        <ele>2079.1</ele>
        <time>2018-08-08T18:26:18.000Z</time>
      </trkpt>
      <trkpt lat="42.69745" lon="0.66826">
        <ele>2079.1</ele>
        <time>2018-08-08T18:26:19.000Z</time>
      </trkpt>
      <trkpt lat="42.69745" lon="0.66826">
        <ele>2079.1</ele>
        <time>2018-08-08T18:26:20.000Z</time>
      </trkpt>
      <trkpt lat="42.69745" lon="0.66826">
        <ele>2079.1</ele>
        <time>2018-08-08T18:26:21.000Z</time>
      </trkpt>
      <trkpt lat="42.69745" lon="0.66826">
        <ele>2079.1</ele>
        <time>2018-08-08T18:26:22.000Z</time>
      </trkpt>
      <trkpt lat="42.69745" lon="0.66826">
        <ele>2079.1</ele>
        <time>2018-08-08T18:26:23.000Z</time>
      </trkpt>
      <trkpt lat="42.69745" lon="0.66826">
        <ele>2079.1</ele>
        <time>2018-08-08T18:26:24.000Z</time>
      </trkpt>
      <trkpt lat="42.69745" lon="0.66826">
        <ele>2079.1</ele>
        <time>2018-08-08T18:26:25.000Z</time>
      </trkpt>
      <trkpt lat="42.69745" lon="0.66826">
        <ele>2079.1</ele>
        <time>2018-08-08T18:26:26.000Z</time>
      </trkpt>
      <trkpt lat="42.69745" lon="0.66826">
        <ele>2079.1</ele>
        <time>2018-08-08T18:26:27.000Z</time>
      </trkpt>
      <trkpt lat="42.69745" lon="0.66826">
        <ele>2079.1</ele>
        <time>2018-08-08T18:26:28.000Z</time>
      </trkpt>
      <trkpt lat="42.69745" lon="0.66826">
        <ele>2079.1</ele>
        <time>2018-08-08T18:26:29.000Z</time>
      </trkpt>
      <trkpt lat="42.69745" lon="0.66826">
        <ele>2079.1</ele>
        <time>2018-08-08T18:26:30.000Z</time>
      </trkpt>
      <trkpt lat="42.69745" lon="0.66826">
        <ele>2079.1</ele>
        <time>2018-08-08T18:26:31.000Z</time>
      </trkpt>
      <trkpt lat="42.69745" lon="0.66826">
        <ele>2079.1</ele>
        <time>2018-08-08T18:26:32.000Z</time>
      </trkpt>
      <trkpt lat="42.69745" lon="0.66826">
        <ele>2079.1</ele>
        <time>2018-08-08T18:26:33.000Z</time>
      </trkpt>
      <trkpt lat="42.69745" lon="0.66826">
        <ele>2079.1</ele>
        <time>2018-08-08T18:26:34.000Z</time>
      </trkpt>
      <trkpt lat="42.69745" lon="0.66826">
        <ele>2079.1</ele>
        <time>2018-08-08T18:26:35.000Z</time>
      </trkpt>
      <trkpt lat="42.69745" lon="0.66826">
        <ele>2079.1</ele>
        <time>2018-08-08T18:26:36.000Z</time>
      </trkpt>
      <trkpt lat="42.69745" lon="0.66826">
        <ele>2079.1</ele>
        <time>2018-08-08T18:26:37.000Z</time>
      </trkpt>
      <trkpt lat="42.69745" lon="0.66826">
        <ele>2079.1</ele>
        <time>2018-08-08T18:26:38.000Z</time>
      </trkpt>
      <trkpt lat="42.69745" lon="0.66826">
        <ele>2079.1</ele>
        <time>2018-08-08T18:26:39.000Z</time>
      </trkpt>
      <trkpt lat="42.69745" lon="0.66826">
        <ele>2079.1</ele>
        <time>2018-08-08T18:26:40.000Z</time>
      </trkpt>
      <trkpt lat="42.69745" lon="0.66826">
        <ele>2079.1</ele>
        <time>2018-08-08T18:26:41.000Z</time>
      </trkpt>
      <trkpt lat="42.69745" lon="0.66826">
        <ele>2079.1</ele>
        <time>2018-08-08T18:26:42.000Z</time>
      </trkpt>
      <trkpt lat="42.69745" lon="0.66826">
        <ele>2079.1</ele>
        <time>2018-08-08T18:26:43.000Z</time>
      </trkpt>
      <trkpt lat="42.69745" lon="0.66826">
        <ele>2079.1</ele>
        <time>2018-08-08T18:26:44.000Z</time>
      </trkpt>
      <trkpt lat="42.69745" lon="0.66826">
        <ele>2079.1</ele>
        <time>2018-08-08T18:26:45.000Z</time>
      </trkpt>
      <trkpt lat="42.69745" lon="0.66826">
        <ele>2079.1</ele>
        <time>2018-08-08T18:26:46.000Z</time>
      </trkpt>
      <trkpt lat="42.69745" lon="0.66826">
        <ele>2079.1</ele>
        <time>2018-08-08T18:26:47.000Z</time>
      </trkpt>
      <trkpt lat="42.69745" lon="0.66826">
        <ele>2079.1</ele>
        <time>2018-08-08T18:26:48.000Z</time>
      </trkpt>
      <trkpt lat="42.69745" lon="0.66826">
        <ele>2079.1</ele>
        <time>2018-08-08T18:26:49.000Z</time>
      </trkpt>
      <trkpt lat="42.69745" lon="0.66826">
        <ele>2079.1</ele>
        <time>2018-08-08T18:26:50.000Z</time>
      </trkpt>
      <trkpt lat="42.69745" lon="0.66826">
        <ele>2079.1</ele>
        <time>2018-08-08T18:26:51.000Z</time>
      </trkpt>
      <trkpt lat="42.69745" lon="0.66826">
        <ele>2079.1</ele>
        <time>2018-08-08T18:26:52.000Z</time>
      </trkpt>
      <trkpt lat="42.69745" lon="0.66826">
        <ele>2079.1</ele>
        <time>2018-08-08T18:26:53.000Z</time>
      </trkpt>
      <trkpt lat="42.69745" lon="0.66826">
        <ele>2079.1</ele>
        <time>2018-08-08T18:26:54.000Z</time>
      </trkpt>
      <trkpt lat="42.69745" lon="0.66826">
        <ele>2079.1</ele>
        <time>2018-08-08T18:26:55.000Z</time>
      </trkpt>
      <trkpt lat="42.69745" lon="0.66826">
        <ele>2079.1</ele>
        <time>2018-08-08T18:26:56.000Z</time>
      </trkpt>
      <trkpt lat="42.69745" lon="0.66826">
        <ele>2079.1</ele>
        <time>2018-08-08T18:26:57.000Z</time>
      </trkpt>
      <trkpt lat="42.69745" lon="0.66826">
        <ele>2079.1</ele>
        <time>2018-08-08T18:26:58.000Z</time>
      </trkpt>
      <trkpt lat="42.69745" lon="0.66826">
        <ele>2079.1</ele>
        <time>2018-08-08T18:26:59.000Z</time>
      </trkpt>
      <trkpt lat="42.69745" lon="0.66826">
        <ele>2079.1</ele>
        <time>2018-08-08T18:27:00.000Z</time>
      </trkpt>
      <trkpt lat="42.69745" lon="0.66826">
        <ele>2079.1</ele>
        <time>2018-08-08T18:27:01.000Z</time>
      </trkpt>
      <trkpt lat="42.69745" lon="0.66826">
        <ele>2079.1</ele>
        <time>2018-08-08T18:27:02.000Z</time>
      </trkpt>
      <trkpt lat="42.69745" lon="0.66826">
        <ele>2079.1</ele>
        <time>2018-08-08T18:27:03.000Z</time>
      </trkpt>
      <trkpt lat="42.69745" lon="0.66826">
        <ele>2079.1</ele>
        <time>2018-08-08T18:27:04.000Z</time>
      </trkpt>
      <trkpt lat="42.69745" lon="0.66826">
        <ele>2079.1</ele>
        <time>2018-08-08T18:27:05.000Z</time>
      </trkpt>
      <trkpt lat="42.69745" lon="0.66826">
        <ele>2079.1</ele>
        <time>2018-08-08T18:27:06.000Z</time>
      </trkpt>
      <trkpt lat="42.69745" lon="0.66826">
        <ele>2079.1</ele>
        <time>2018-08-08T18:27:07.000Z</time>
      </trkpt>
      <trkpt lat="42.69745" lon="0.66826">
        <ele>2079.1</ele>
        <time>2018-08-08T18:27:08.000Z</time>
      </trkpt>
      <trkpt lat="42.69745" lon="0.66826">
        <ele>2079.1</ele>
        <time>2018-08-08T18:27:09.000Z</time>
      </trkpt>
      <trkpt lat="42.69745" lon="0.66826">
        <ele>2079.1</ele>
        <time>2018-08-08T18:27:10.000Z</time>
      </trkpt>
      <trkpt lat="42.69745" lon="0.66826">
        <ele>2079.1</ele>
        <time>2018-08-08T18:27:11.000Z</time>
      </trkpt>
      <trkpt lat="42.69745" lon="0.66826">
        <ele>2079.1</ele>
        <time>2018-08-08T18:27:12.000Z</time>
      </trkpt>
      <trkpt lat="42.69745" lon="0.66826">
        <ele>2079.1</ele>
        <time>2018-08-08T18:27:13.000Z</time>
      </trkpt>
      <trkpt lat="42.69745" lon="0.66826">
        <ele>2079.1</ele>
        <time>2018-08-08T18:27:14.000Z</time>
      </trkpt>
      <trkpt lat="42.69745" lon="0.66826">
        <ele>2079.1</ele>
        <time>2018-08-08T18:27:15.000Z</time>
      </trkpt>
      <trkpt lat="42.69745" lon="0.66826">
        <ele>2079.1</ele>
        <time>2018-08-08T18:27:16.000Z</time>
      </trkpt>
      <trkpt lat="42.69745" lon="0.66826">
        <ele>2079.1</ele>
        <time>2018-08-08T18:27:17.000Z</time>
      </trkpt>
      <trkpt lat="42.69745" lon="0.66826">
        <ele>2079.1</ele>
        <time>2018-08-08T18:27:18.000Z</time>
      </trkpt>
      <trkpt lat="42.69745" lon="0.66826">
        <ele>2079.1</ele>
        <time>2018-08-08T18:27:19.000Z</time>
      </trkpt>
      <trkpt lat="42.69745" lon="0.66826">
        <ele>2079.1</ele>
        <time>2018-08-08T18:27:20.000Z</time>
      </trkpt>
      <trkpt lat="42.69745" lon="0.66826">
        <ele>2079.1</ele>
        <time>2018-08-08T18:27:21.000Z</time>
      </trkpt>
      <trkpt lat="42.69745" lon="0.66826">
        <ele>2079.1</ele>
        <time>2018-08-08T18:27:22.000Z</time>
      </trkpt>
      <trkpt lat="42.69745" lon="0.66826">
        <ele>2079.1</ele>
        <time>2018-08-08T18:27:23.000Z</time>
      </trkpt>
      <trkpt lat="42.69745" lon="0.66826">
        <ele>2079.1</ele>
        <time>2018-08-08T18:27:24.000Z</time>
      </trkpt>
      <trkpt lat="42.69745" lon="0.66826">
        <ele>2079.1</ele>
        <time>2018-08-08T18:27:25.000Z</time>
      </trkpt>
      <trkpt lat="42.69745" lon="0.66826">
        <ele>2079.1</ele>
        <time>2018-08-08T18:27:26.000Z</time>
      </trkpt>
      <trkpt lat="42.69745" lon="0.66826">
        <ele>2079.1</ele>
        <time>2018-08-08T18:27:27.000Z</time>
      </trkpt>
      <trkpt lat="42.69745" lon="0.66826">
        <ele>2079.1</ele>
        <time>2018-08-08T18:27:28.000Z</time>
      </trkpt>
      <trkpt lat="42.69745" lon="0.66826">
        <ele>2079.1</ele>
        <time>2018-08-08T18:27:29.000Z</time>
      </trkpt>
      <trkpt lat="42.69745" lon="0.66826">
        <ele>2079.1</ele>
        <time>2018-08-08T18:27:30.000Z</time>
      </trkpt>
      <trkpt lat="42.69745" lon="0.66826">
        <ele>2079.1</ele>
        <time>2018-08-08T18:27:31.000Z</time>
      </trkpt>
      <trkpt lat="42.69745" lon="0.66826">
        <ele>2079.1</ele>
        <time>2018-08-08T18:27:32.000Z</time>
      </trkpt>
      <trkpt lat="42.69745" lon="0.66826">
        <ele>2079.1</ele>
        <time>2018-08-08T18:27:33.000Z</time>
      </trkpt>
      <trkpt lat="42.69745" lon="0.66826">
        <ele>2079.1</ele>
        <time>2018-08-08T18:27:34.000Z</time>
      </trkpt>
      <trkpt lat="42.69745" lon="0.66826">
        <ele>2079.1</ele>
        <time>2018-08-08T18:27:35.000Z</time>
      </trkpt>
      <trkpt lat="42.69745" lon="0.66826">
        <ele>2079.1</ele>
        <time>2018-08-08T18:27:36.000Z</time>
      </trkpt>
      <trkpt lat="42.69745" lon="0.66826">
        <ele>2079.1</ele>
        <time>2018-08-08T18:27:37.000Z</time>
      </trkpt>
      <trkpt lat="42.69745" lon="0.66826">
        <ele>2079.1</ele>
        <time>2018-08-08T18:27:38.000Z</time>
      </trkpt>
      <trkpt lat="42.69745" lon="0.66826">
        <ele>2079.1</ele>
        <time>2018-08-08T18:27:39.000Z</time>
      </trkpt>
      <trkpt lat="42.69745" lon="0.66826">
        <ele>2079.1</ele>
        <time>2018-08-08T18:27:40.000Z</time>
      </trkpt>
      <trkpt lat="42.69745" lon="0.66826">
        <ele>2079.1</ele>
        <time>2018-08-08T18:27:41.000Z</time>
      </trkpt>
      <trkpt lat="42.69745" lon="0.66826">
        <ele>2079.1</ele>
        <time>2018-08-08T18:27:42.000Z</time>
      </trkpt>
      <trkpt lat="42.69745" lon="0.66826">
        <ele>2079.1</ele>
        <time>2018-08-08T18:27:43.000Z</time>
      </trkpt>
      <trkpt lat="42.69745" lon="0.66826">
        <ele>2079.1</ele>
        <time>2018-08-08T18:27:44.000Z</time>
      </trkpt>
      <trkpt lat="42.69745" lon="0.66826">
        <ele>2079.1</ele>
        <time>2018-08-08T18:27:45.000Z</time>
      </trkpt>
      <trkpt lat="42.69745" lon="0.66826">
        <ele>2079.1</ele>
        <time>2018-08-08T18:27:46.000Z</time>
      </trkpt>
      <trkpt lat="42.69745" lon="0.66826">
        <ele>2079.1</ele>
        <time>2018-08-08T18:27:47.000Z</time>
      </trkpt>
      <trkpt lat="42.69745" lon="0.66826">
        <ele>2079.1</ele>
        <time>2018-08-08T18:27:48.000Z</time>
      </trkpt>
      <trkpt lat="42.69745" lon="0.66826">
        <ele>2079.1</ele>
        <time>2018-08-08T18:27:49.000Z</time>
      </trkpt>
      <trkpt lat="42.69745" lon="0.66826">
        <ele>2079.1</ele>
        <time>2018-08-08T18:27:50.000Z</time>
      </trkpt>
      <trkpt lat="42.69745" lon="0.66826">
        <ele>2079.1</ele>
        <time>2018-08-08T18:27:51.000Z</time>
      </trkpt>
      <trkpt lat="42.69745" lon="0.66826">
        <ele>2079.1</ele>
        <time>2018-08-08T18:27:52.000Z</time>
      </trkpt>
      <trkpt lat="42.69745" lon="0.66826">
        <ele>2079.1</ele>
        <time>2018-08-08T18:27:53.000Z</time>
      </trkpt>
      <trkpt lat="42.69745" lon="0.66826">
        <ele>2079.1</ele>
        <time>2018-08-08T18:27:54.000Z</time>
      </trkpt>
      <trkpt lat="42.69745" lon="0.66826">
        <ele>2079.1</ele>
        <time>2018-08-08T18:27:55.000Z</time>
      </trkpt>
      <trkpt lat="42.69745" lon="0.66826">
        <ele>2079.1</ele>
        <time>2018-08-08T18:27:56.000Z</time>
      </trkpt>
      <trkpt lat="42.69745" lon="0.66826">
        <ele>2079.1</ele>
        <time>2018-08-08T18:27:57.000Z</time>
      </trkpt>
      <trkpt lat="42.69745" lon="0.66826">
        <ele>2079.1</ele>
        <time>2018-08-08T18:27:58.000Z</time>
      </trkpt>
      <trkpt lat="42.69745" lon="0.66826">
        <ele>2079.1</ele>
        <time>2018-08-08T18:27:59.000Z</time>
      </trkpt>
      <trkpt lat="42.69745" lon="0.66826">
        <ele>2079.1</ele>
        <time>2018-08-08T18:28:00.000Z</time>
      </trkpt>
      <trkpt lat="42.69745" lon="0.66826">
        <ele>2079.1</ele>
        <time>2018-08-08T18:28:01.000Z</time>
      </trkpt>
      <trkpt lat="42.69745" lon="0.66826">
        <ele>2079.1</ele>
        <time>2018-08-08T18:28:02.000Z</time>
      </trkpt>
      <trkpt lat="42.69745" lon="0.66826">
        <ele>2079.1</ele>
        <time>2018-08-08T18:28:03.000Z</time>
      </trkpt>
      <trkpt lat="42.69745" lon="0.66826">
        <ele>2079.1</ele>
        <time>2018-08-08T18:28:04.000Z</time>
      </trkpt>
      <trkpt lat="42.69745" lon="0.66826">
        <ele>2079.1</ele>
        <time>2018-08-08T18:28:05.000Z</time>
      </trkpt>
      <trkpt lat="42.69745" lon="0.66826">
        <ele>2079.1</ele>
        <time>2018-08-08T18:28:06.000Z</time>
      </trkpt>
      <trkpt lat="42.69745" lon="0.66826">
        <ele>2079.1</ele>
        <time>2018-08-08T18:28:07.000Z</time>
      </trkpt>
      <trkpt lat="42.69745" lon="0.66826">
        <ele>2079.1</ele>
        <time>2018-08-08T18:28:08.000Z</time>
      </trkpt>
      <trkpt lat="42.69745" lon="0.66826">
        <ele>2079.1</ele>
        <time>2018-08-08T18:28:09.000Z</time>
      </trkpt>
      <trkpt lat="42.69745" lon="0.66826">
        <ele>2079.1</ele>
        <time>2018-08-08T18:28:10.000Z</time>
      </trkpt>
      <trkpt lat="42.69745" lon="0.66826">
        <ele>2079.1</ele>
        <time>2018-08-08T18:28:11.000Z</time>
      </trkpt>
      <trkpt lat="42.69745" lon="0.66826">
        <ele>2079.1</ele>
        <time>2018-08-08T18:28:12.000Z</time>
      </trkpt>
      <trkpt lat="42.69745" lon="0.66826">
        <ele>2079.1</ele>
        <time>2018-08-08T18:28:13.000Z</time>
      </trkpt>
      <trkpt lat="42.69745" lon="0.66826">
        <ele>2079.1</ele>
        <time>2018-08-08T18:28:14.000Z</time>
      </trkpt>
      <trkpt lat="42.69745" lon="0.66826">
        <ele>2079.1</ele>
        <time>2018-08-08T18:28:15.000Z</time>
      </trkpt>
      <trkpt lat="42.69745" lon="0.66826">
        <ele>2079.1</ele>
        <time>2018-08-08T18:28:16.000Z</time>
      </trkpt>
      <trkpt lat="42.69745" lon="0.66826">
        <ele>2079.1</ele>
        <time>2018-08-08T18:28:17.000Z</time>
      </trkpt>
      <trkpt lat="42.69745" lon="0.66826">
        <ele>2079.1</ele>
        <time>2018-08-08T18:28:18.000Z</time>
      </trkpt>
      <trkpt lat="42.69745" lon="0.66826">
        <ele>2079.1</ele>
        <time>2018-08-08T18:28:19.000Z</time>
      </trkpt>
      <trkpt lat="42.69745" lon="0.66826">
        <ele>2079.1</ele>
        <time>2018-08-08T18:28:20.000Z</time>
      </trkpt>
      <trkpt lat="42.69745" lon="0.66826">
        <ele>2079.1</ele>
        <time>2018-08-08T18:28:21.000Z</time>
      </trkpt>
      <trkpt lat="42.69745" lon="0.66826">
        <ele>2079.1</ele>
        <time>2018-08-08T18:28:22.000Z</time>
      </trkpt>
      <trkpt lat="42.69745" lon="0.66826">
        <ele>2079.1</ele>
        <time>2018-08-08T18:28:23.000Z</time>
      </trkpt>
      <trkpt lat="42.69745" lon="0.66826">
        <ele>2079.1</ele>
        <time>2018-08-08T18:28:24.000Z</time>
      </trkpt>
      <trkpt lat="42.69745" lon="0.66826">
        <ele>2079.1</ele>
        <time>2018-08-08T18:28:25.000Z</time>
      </trkpt>
      <trkpt lat="42.69745" lon="0.66826">
        <ele>2079.1</ele>
        <time>2018-08-08T18:28:26.000Z</time>
      </trkpt>
      <trkpt lat="42.69745" lon="0.66826">
        <ele>2079.1</ele>
        <time>2018-08-08T18:28:27.000Z</time>
      </trkpt>
      <trkpt lat="42.69745" lon="0.66826">
        <ele>2079.1</ele>
        <time>2018-08-08T18:28:28.000Z</time>
      </trkpt>
      <trkpt lat="42.69745" lon="0.66826">
        <ele>2079.1</ele>
        <time>2018-08-08T18:28:29.000Z</time>
      </trkpt>
      <trkpt lat="42.69745" lon="0.66826">
        <ele>2079.1</ele>
        <time>2018-08-08T18:28:30.000Z</time>
      </trkpt>
      <trkpt lat="42.69745" lon="0.66826">
        <ele>2079.1</ele>
        <time>2018-08-08T18:28:31.000Z</time>
      </trkpt>
      <trkpt lat="42.69745" lon="0.66826">
        <ele>2079.1</ele>
        <time>2018-08-08T18:28:32.000Z</time>
      </trkpt>
      <trkpt lat="42.69745" lon="0.66826">
        <ele>2079.1</ele>
        <time>2018-08-08T18:28:33.000Z</time>
      </trkpt>
      <trkpt lat="42.69745" lon="0.66826">
        <ele>2079.1</ele>
        <time>2018-08-08T18:28:34.000Z</time>
      </trkpt>
      <trkpt lat="42.69745" lon="0.66826">
        <ele>2079.1</ele>
        <time>2018-08-08T18:28:35.000Z</time>
      </trkpt>
      <trkpt lat="42.69745" lon="0.66826">
        <ele>2079.1</ele>
        <time>2018-08-08T18:28:36.000Z</time>
      </trkpt>
      <trkpt lat="42.69745" lon="0.66826">
        <ele>2079.1</ele>
        <time>2018-08-08T18:28:37.000Z</time>
      </trkpt>
      <trkpt lat="42.69745" lon="0.66826">
        <ele>2079.1</ele>
        <time>2018-08-08T18:28:38.000Z</time>
      </trkpt>
      <trkpt lat="42.69745" lon="0.66826">
        <ele>2079.1</ele>
        <time>2018-08-08T18:28:39.000Z</time>
      </trkpt>
      <trkpt lat="42.69745" lon="0.66826">
        <ele>2079.1</ele>
        <time>2018-08-08T18:28:40.000Z</time>
      </trkpt>
      <trkpt lat="42.69745" lon="0.66826">
        <ele>2079.1</ele>
        <time>2018-08-08T18:28:41.000Z</time>
      </trkpt>
      <trkpt lat="42.69745" lon="0.66826">
        <ele>2079.1</ele>
        <time>2018-08-08T18:28:42.000Z</time>
      </trkpt>
      <trkpt lat="42.69745" lon="0.66826">
        <ele>2079.1</ele>
        <time>2018-08-08T18:28:43.000Z</time>
      </trkpt>
      <trkpt lat="42.69745" lon="0.66826">
        <ele>2079.1</ele>
        <time>2018-08-08T18:28:44.000Z</time>
      </trkpt>
      <trkpt lat="42.69745" lon="0.66826">
        <ele>2079.1</ele>
        <time>2018-08-08T18:28:45.000Z</time>
      </trkpt>
      <trkpt lat="42.69745" lon="0.66826">
        <ele>2079.1</ele>
        <time>2018-08-08T18:28:46.000Z</time>
      </trkpt>
      <trkpt lat="42.69745" lon="0.66826">
        <ele>2079.1</ele>
        <time>2018-08-08T18:28:47.000Z</time>
      </trkpt>
      <trkpt lat="42.69745" lon="0.66826">
        <ele>2079.1</ele>
        <time>2018-08-08T18:28:48.000Z</time>
      </trkpt>
      <trkpt lat="42.69745" lon="0.66826">
        <ele>2079.1</ele>
        <time>2018-08-08T18:28:49.000Z</time>
      </trkpt>
      <trkpt lat="42.69745" lon="0.66826">
        <ele>2079.1</ele>
        <time>2018-08-08T18:28:50.000Z</time>
      </trkpt>
      <trkpt lat="42.69745" lon="0.66826">
        <ele>2079.1</ele>
        <time>2018-08-08T18:28:51.000Z</time>
      </trkpt>
      <trkpt lat="42.69745" lon="0.66826">
        <ele>2079.1</ele>
        <time>2018-08-08T18:28:52.000Z</time>
      </trkpt>
      <trkpt lat="42.69745" lon="0.66826">
        <ele>2079.1</ele>
        <time>2018-08-08T18:28:53.000Z</time>
      </trkpt>
      <trkpt lat="42.69745" lon="0.66826">
        <ele>2079.1</ele>
        <time>2018-08-08T18:28:54.000Z</time>
      </trkpt>
      <trkpt lat="42.69745" lon="0.66826">
        <ele>2079.1</ele>
        <time>2018-08-08T18:28:55.000Z</time>
      </trkpt>
      <trkpt lat="42.69745" lon="0.66826">
        <ele>2079.1</ele>
        <time>2018-08-08T18:28:56.000Z</time>
      </trkpt>
      <trkpt lat="42.69745" lon="0.66826">
        <ele>2079.1</ele>
        <time>2018-08-08T18:28:57.000Z</time>
      </trkpt>
      <trkpt lat="42.69745" lon="0.66826">
        <ele>2079.1</ele>
        <time>2018-08-08T18:28:58.000Z</time>
      </trkpt>
      <trkpt lat="42.69745" lon="0.66826">
        <ele>2079.1</ele>
        <time>2018-08-08T18:28:59.000Z</time>
      </trkpt>
      <trkpt lat="42.69745" lon="0.66826">
        <ele>2079.1</ele>
        <time>2018-08-08T18:29:00.000Z</time>
      </trkpt>
      <trkpt lat="42.69745" lon="0.66826">
        <ele>2079.1</ele>
        <time>2018-08-08T18:29:01.000Z</time>
      </trkpt>
      <trkpt lat="42.69745" lon="0.66826">
        <ele>2079.1</ele>
        <time>2018-08-08T18:29:02.000Z</time>
      </trkpt>
      <trkpt lat="42.69745" lon="0.66826">
        <ele>2079.1</ele>
        <time>2018-08-08T18:29:03.000Z</time>
      </trkpt>
      <trkpt lat="42.69745" lon="0.66826">
        <ele>2079.1</ele>
        <time>2018-08-08T18:29:04.000Z</time>
      </trkpt>
      <trkpt lat="42.69745" lon="0.66826">
        <ele>2079.1</ele>
        <time>2018-08-08T18:29:05.000Z</time>
      </trkpt>
      <trkpt lat="42.69745" lon="0.66826">
        <ele>2079.1</ele>
        <time>2018-08-08T18:29:06.000Z</time>
      </trkpt>
      <trkpt lat="42.69745" lon="0.66826">
        <ele>2079.1</ele>
        <time>2018-08-08T18:29:07.000Z</time>
      </trkpt>
      <trkpt lat="42.69745" lon="0.66826">
        <ele>2079.1</ele>
        <time>2018-08-08T18:29:08.000Z</time>
      </trkpt>
      <trkpt lat="42.69745" lon="0.66826">
        <ele>2079.1</ele>
        <time>2018-08-08T18:29:09.000Z</time>
      </trkpt>
      <trkpt lat="42.69745" lon="0.66826">
        <ele>2079.1</ele>
        <time>2018-08-08T18:29:10.000Z</time>
      </trkpt>
      <trkpt lat="42.69745" lon="0.66826">
        <ele>2079.1</ele>
        <time>2018-08-08T18:29:11.000Z</time>
      </trkpt>
      <trkpt lat="42.69745" lon="0.66826">
        <ele>2079.1</ele>
        <time>2018-08-08T18:29:12.000Z</time>
      </trkpt>
      <trkpt lat="42.69745" lon="0.66826">
        <ele>2079.1</ele>
        <time>2018-08-08T18:29:13.000Z</time>
      </trkpt>
      <trkpt lat="42.69745" lon="0.66826">
        <ele>2079.1</ele>
        <time>2018-08-08T18:29:14.000Z</time>
      </trkpt>
      <trkpt lat="42.69745" lon="0.66826">
        <ele>2079.1</ele>
        <time>2018-08-08T18:29:15.000Z</time>
      </trkpt>
      <trkpt lat="42.69745" lon="0.66826">
        <ele>2079.1</ele>
        <time>2018-08-08T18:29:16.000Z</time>
      </trkpt>
      <trkpt lat="42.69745" lon="0.66826">
        <ele>2079.1</ele>
        <time>2018-08-08T18:29:17.000Z</time>
      </trkpt>
      <trkpt lat="42.69745" lon="0.66826">
        <ele>2079.1</ele>
        <time>2018-08-08T18:29:18.000Z</time>
      </trkpt>
      <trkpt lat="42.69745" lon="0.66826">
        <ele>2079.1</ele>
        <time>2018-08-08T18:29:19.000Z</time>
      </trkpt>
      <trkpt lat="42.69745" lon="0.66826">
        <ele>2079.1</ele>
        <time>2018-08-08T18:29:20.000Z</time>
      </trkpt>
      <trkpt lat="42.69745" lon="0.66826">
        <ele>2079.1</ele>
        <time>2018-08-08T18:29:21.000Z</time>
      </trkpt>
      <trkpt lat="42.69745" lon="0.66826">
        <ele>2079.1</ele>
        <time>2018-08-08T18:29:22.000Z</time>
      </trkpt>
      <trkpt lat="42.69745" lon="0.66826">
        <ele>2079.1</ele>
        <time>2018-08-08T18:29:23.000Z</time>
      </trkpt>
      <trkpt lat="42.69745" lon="0.66826">
        <ele>2079.1</ele>
        <time>2018-08-08T18:29:24.000Z</time>
      </trkpt>
      <trkpt lat="42.69745" lon="0.66826">
        <ele>2079.1</ele>
        <time>2018-08-08T18:29:25.000Z</time>
      </trkpt>
      <trkpt lat="42.69745" lon="0.66826">
        <ele>2079.1</ele>
        <time>2018-08-08T18:29:26.000Z</time>
      </trkpt>
      <trkpt lat="42.69745" lon="0.66826">
        <ele>2079.1</ele>
        <time>2018-08-08T18:29:27.000Z</time>
      </trkpt>
      <trkpt lat="42.69745" lon="0.66826">
        <ele>2079.1</ele>
        <time>2018-08-08T18:29:28.000Z</time>
      </trkpt>
      <trkpt lat="42.69745" lon="0.66826">
        <ele>2079.1</ele>
        <time>2018-08-08T18:29:29.000Z</time>
      </trkpt>
      <trkpt lat="42.69745" lon="0.66826">
        <ele>2079.1</ele>
        <time>2018-08-08T18:29:30.000Z</time>
      </trkpt>
      <trkpt lat="42.69745" lon="0.66826">
        <ele>2079.1</ele>
        <time>2018-08-08T18:29:31.000Z</time>
      </trkpt>
      <trkpt lat="42.69745" lon="0.66826">
        <ele>2079.1</ele>
        <time>2018-08-08T18:29:32.000Z</time>
      </trkpt>
      <trkpt lat="42.69745" lon="0.66826">
        <ele>2079.1</ele>
        <time>2018-08-08T18:29:33.000Z</time>
      </trkpt>
      <trkpt lat="42.69745" lon="0.66826">
        <ele>2079.1</ele>
        <time>2018-08-08T18:29:34.000Z</time>
      </trkpt>
      <trkpt lat="42.69745" lon="0.66826">
        <ele>2079.1</ele>
        <time>2018-08-08T18:29:35.000Z</time>
      </trkpt>
      <trkpt lat="42.69745" lon="0.66826">
        <ele>2079.1</ele>
        <time>2018-08-08T18:29:36.000Z</time>
      </trkpt>
      <trkpt lat="42.69745" lon="0.66826">
        <ele>2079.1</ele>
        <time>2018-08-08T18:29:37.000Z</time>
      </trkpt>
      <trkpt lat="42.69745" lon="0.66826">
        <ele>2079.1</ele>
        <time>2018-08-08T18:29:38.000Z</time>
      </trkpt>
      <trkpt lat="42.69745" lon="0.66826">
        <ele>2079.1</ele>
        <time>2018-08-08T18:29:39.000Z</time>
      </trkpt>
      <trkpt lat="42.69745" lon="0.66826">
        <ele>2079.1</ele>
        <time>2018-08-08T18:29:40.000Z</time>
      </trkpt>
      <trkpt lat="42.69745" lon="0.66826">
        <ele>2079.1</ele>
        <time>2018-08-08T18:29:41.000Z</time>
      </trkpt>
      <trkpt lat="42.69745" lon="0.66826">
        <ele>2079.1</ele>
        <time>2018-08-08T18:29:42.000Z</time>
      </trkpt>
      <trkpt lat="42.69745" lon="0.66826">
        <ele>2079.1</ele>
        <time>2018-08-08T18:29:43.000Z</time>
      </trkpt>
      <trkpt lat="42.69745" lon="0.66826">
        <ele>2079.1</ele>
        <time>2018-08-08T18:29:44.000Z</time>
      </trkpt>
      <trkpt lat="42.69745" lon="0.66826">
        <ele>2079.1</ele>
        <time>2018-08-08T18:29:45.000Z</time>
      </trkpt>
      <trkpt lat="42.69745" lon="0.66826">
        <ele>2079.1</ele>
        <time>2018-08-08T18:29:46.000Z</time>
      </trkpt>
      <trkpt lat="42.69745" lon="0.66826">
        <ele>2079.1</ele>
        <time>2018-08-08T18:29:47.000Z</time>
      </trkpt>
      <trkpt lat="42.69745" lon="0.66826">
        <ele>2079.1</ele>
        <time>2018-08-08T18:29:48.000Z</time>
      </trkpt>
      <trkpt lat="42.69745" lon="0.66826">
        <ele>2079.1</ele>
        <time>2018-08-08T18:29:49.000Z</time>
      </trkpt>
      <trkpt lat="42.69745" lon="0.66826">
        <ele>2079.1</ele>
        <time>2018-08-08T18:29:50.000Z</time>
      </trkpt>
      <trkpt lat="42.69745" lon="0.66826">
        <ele>2079.1</ele>
        <time>2018-08-08T18:29:51.000Z</time>
      </trkpt>
      <trkpt lat="42.69745" lon="0.66826">
        <ele>2079.1</ele>
        <time>2018-08-08T18:29:52.000Z</time>
      </trkpt>
      <trkpt lat="42.69745" lon="0.66826">
        <ele>2079.1</ele>
        <time>2018-08-08T18:29:53.000Z</time>
      </trkpt>
      <trkpt lat="42.69745" lon="0.66826">
        <ele>2079.1</ele>
        <time>2018-08-08T18:29:54.000Z</time>
      </trkpt>
      <trkpt lat="42.69745" lon="0.66826">
        <ele>2079.1</ele>
        <time>2018-08-08T18:29:55.000Z</time>
      </trkpt>
      <trkpt lat="42.69745" lon="0.66826">
        <ele>2079.1</ele>
        <time>2018-08-08T18:29:56.000Z</time>
      </trkpt>
      <trkpt lat="42.69745" lon="0.66826">
        <ele>2079.1</ele>
        <time>2018-08-08T18:29:57.000Z</time>
      </trkpt>
      <trkpt lat="42.69745" lon="0.66826">
        <ele>2079.1</ele>
        <time>2018-08-08T18:29:58.000Z</time>
      </trkpt>
      <trkpt lat="42.69745" lon="0.66826">
        <ele>2079.1</ele>
        <time>2018-08-08T18:29:59.000Z</time>
      </trkpt>
      <trkpt lat="42.69745" lon="0.66826">
        <ele>2079.1</ele>
        <time>2018-08-08T18:30:00.000Z</time>
      </trkpt>
      <trkpt lat="42.69745" lon="0.66826">
        <ele>2079.1</ele>
        <time>2018-08-08T18:30:01.000Z</time>
      </trkpt>
      <trkpt lat="42.69745" lon="0.66826">
        <ele>2079.1</ele>
        <time>2018-08-08T18:30:02.000Z</time>
      </trkpt>
      <trkpt lat="42.69745" lon="0.66826">
        <ele>2079.1</ele>
        <time>2018-08-08T18:30:03.000Z</time>
      </trkpt>
      <trkpt lat="42.69745" lon="0.66826">
        <ele>2079.1</ele>
        <time>2018-08-08T18:30:04.000Z</time>
      </trkpt>
      <trkpt lat="42.69745" lon="0.66826">
        <ele>2079.1</ele>
        <time>2018-08-08T18:30:05.000Z</time>
      </trkpt>
      <trkpt lat="42.69745" lon="0.66826">
        <ele>2079.1</ele>
        <time>2018-08-08T18:30:06.000Z</time>
      </trkpt>
      <trkpt lat="42.69745" lon="0.66826">
        <ele>2079.1</ele>
        <time>2018-08-08T18:30:07.000Z</time>
      </trkpt>
      <trkpt lat="42.69745" lon="0.66826">
        <ele>2079.1</ele>
        <time>2018-08-08T18:30:08.000Z</time>
      </trkpt>
      <trkpt lat="42.69745" lon="0.66826">
        <ele>2079.1</ele>
        <time>2018-08-08T18:30:09.000Z</time>
      </trkpt>
      <trkpt lat="42.69745" lon="0.66826">
        <ele>2079.1</ele>
        <time>2018-08-08T18:30:10.000Z</time>
      </trkpt>
      <trkpt lat="42.69745" lon="0.66826">
        <ele>2079.1</ele>
        <time>2018-08-08T18:30:11.000Z</time>
      </trkpt>
      <trkpt lat="42.69745" lon="0.66826">
        <ele>2079.1</ele>
        <time>2018-08-08T18:30:12.000Z</time>
      </trkpt>
      <trkpt lat="42.69745" lon="0.66826">
        <ele>2079.1</ele>
        <time>2018-08-08T18:30:13.000Z</time>
      </trkpt>
      <trkpt lat="42.69745" lon="0.66826">
        <ele>2079.1</ele>
        <time>2018-08-08T18:30:14.000Z</time>
      </trkpt>
      <trkpt lat="42.69745" lon="0.66826">
        <ele>2079.1</ele>
        <time>2018-08-08T18:30:15.000Z</time>
      </trkpt>
      <trkpt lat="42.69745" lon="0.66826">
        <ele>2079.1</ele>
        <time>2018-08-08T18:30:16.000Z</time>
      </trkpt>
      <trkpt lat="42.69745" lon="0.66826">
        <ele>2079.1</ele>
        <time>2018-08-08T18:30:17.000Z</time>
      </trkpt>
      <trkpt lat="42.69745" lon="0.66826">
        <ele>2079.1</ele>
        <time>2018-08-08T18:30:18.000Z</time>
      </trkpt>
      <trkpt lat="42.69745" lon="0.66826">
        <ele>2079.1</ele>
        <time>2018-08-08T18:30:19.000Z</time>
      </trkpt>
      <trkpt lat="42.69745" lon="0.66826">
        <ele>2079.1</ele>
        <time>2018-08-08T18:30:20.000Z</time>
      </trkpt>
      <trkpt lat="42.69745" lon="0.66826">
        <ele>2079.1</ele>
        <time>2018-08-08T18:30:21.000Z</time>
      </trkpt>
      <trkpt lat="42.69745" lon="0.66826">
        <ele>2079.1</ele>
        <time>2018-08-08T18:30:22.000Z</time>
      </trkpt>
      <trkpt lat="42.69745" lon="0.66826">
        <ele>2079.1</ele>
        <time>2018-08-08T18:30:23.000Z</time>
      </trkpt>
      <trkpt lat="42.69745" lon="0.66826">
        <ele>2079.1</ele>
        <time>2018-08-08T18:30:24.000Z</time>
      </trkpt>
      <trkpt lat="42.69745" lon="0.66826">
        <ele>2079.1</ele>
        <time>2018-08-08T18:30:25.000Z</time>
      </trkpt>
      <trkpt lat="42.69745" lon="0.66826">
        <ele>2079.1</ele>
        <time>2018-08-08T18:30:26.000Z</time>
      </trkpt>
      <trkpt lat="42.69745" lon="0.66826">
        <ele>2079.1</ele>
        <time>2018-08-08T18:30:27.000Z</time>
      </trkpt>
      <trkpt lat="42.69745" lon="0.66826">
        <ele>2079.1</ele>
        <time>2018-08-08T18:30:28.000Z</time>
      </trkpt>
      <trkpt lat="42.69745" lon="0.66826">
        <ele>2079.1</ele>
        <time>2018-08-08T18:30:29.000Z</time>
      </trkpt>
      <trkpt lat="42.69745" lon="0.66826">
        <ele>2079.1</ele>
        <time>2018-08-08T18:30:30.000Z</time>
      </trkpt>
      <trkpt lat="42.69745" lon="0.66826">
        <ele>2079.1</ele>
        <time>2018-08-08T18:30:31.000Z</time>
      </trkpt>
      <trkpt lat="42.69745" lon="0.66826">
        <ele>2079.1</ele>
        <time>2018-08-08T18:30:32.000Z</time>
      </trkpt>
      <trkpt lat="42.69745" lon="0.66826">
        <ele>2079.1</ele>
        <time>2018-08-08T18:30:33.000Z</time>
      </trkpt>
      <trkpt lat="42.69745" lon="0.66826">
        <ele>2079.1</ele>
        <time>2018-08-08T18:30:34.000Z</time>
      </trkpt>
      <trkpt lat="42.69745" lon="0.66826">
        <ele>2079.1</ele>
        <time>2018-08-08T18:30:35.000Z</time>
      </trkpt>
      <trkpt lat="42.69745" lon="0.66826">
        <ele>2079.1</ele>
        <time>2018-08-08T18:30:36.000Z</time>
      </trkpt>
      <trkpt lat="42.69745" lon="0.66826">
        <ele>2079.1</ele>
        <time>2018-08-08T18:30:37.000Z</time>
      </trkpt>
      <trkpt lat="42.69745" lon="0.66826">
        <ele>2079.1</ele>
        <time>2018-08-08T18:30:38.000Z</time>
      </trkpt>
      <trkpt lat="42.69745" lon="0.66826">
        <ele>2079.1</ele>
        <time>2018-08-08T18:30:39.000Z</time>
      </trkpt>
      <trkpt lat="42.69745" lon="0.66826">
        <ele>2079.1</ele>
        <time>2018-08-08T18:30:40.000Z</time>
      </trkpt>
      <trkpt lat="42.69745" lon="0.66826">
        <ele>2079.1</ele>
        <time>2018-08-08T18:30:41.000Z</time>
      </trkpt>
      <trkpt lat="42.69745" lon="0.66826">
        <ele>2079.1</ele>
        <time>2018-08-08T18:30:42.000Z</time>
      </trkpt>
      <trkpt lat="42.69745" lon="0.66826">
        <ele>2079.1</ele>
        <time>2018-08-08T18:30:43.000Z</time>
      </trkpt>
      <trkpt lat="42.69745" lon="0.66826">
        <ele>2079.1</ele>
        <time>2018-08-08T18:30:44.000Z</time>
      </trkpt>
      <trkpt lat="42.69745" lon="0.66826">
        <ele>2079.1</ele>
        <time>2018-08-08T18:30:45.000Z</time>
      </trkpt>
      <trkpt lat="42.69745" lon="0.66826">
        <ele>2079.1</ele>
        <time>2018-08-08T18:30:46.000Z</time>
      </trkpt>
      <trkpt lat="42.69745" lon="0.66826">
        <ele>2079.1</ele>
        <time>2018-08-08T18:30:47.000Z</time>
      </trkpt>
      <trkpt lat="42.69745" lon="0.66826">
        <ele>2079.1</ele>
        <time>2018-08-08T18:30:48.000Z</time>
      </trkpt>
      <trkpt lat="42.69745" lon="0.66826">
        <ele>2079.1</ele>
        <time>2018-08-08T18:30:49.000Z</time>
      </trkpt>
      <trkpt lat="42.69745" lon="0.66826">
        <ele>2079.1</ele>
        <time>2018-08-08T18:30:50.000Z</time>
      </trkpt>
      <trkpt lat="42.69745" lon="0.66826">
        <ele>2079.1</ele>
        <time>2018-08-08T18:30:51.000Z</time>
      </trkpt>
      <trkpt lat="42.69745" lon="0.66826">
        <ele>2079.1</ele>
        <time>2018-08-08T18:30:52.000Z</time>
      </trkpt>
      <trkpt lat="42.69745" lon="0.66826">
        <ele>2079.1</ele>
        <time>2018-08-08T18:30:53.000Z</time>
      </trkpt>
      <trkpt lat="42.69745" lon="0.66826">
        <ele>2079.1</ele>
        <time>2018-08-08T18:30:54.000Z</time>
      </trkpt>
      <trkpt lat="42.69745" lon="0.66826">
        <ele>2079.1</ele>
        <time>2018-08-08T18:30:55.000Z</time>
      </trkpt>
      <trkpt lat="42.69745" lon="0.66826">
        <ele>2079.1</ele>
        <time>2018-08-08T18:30:56.000Z</time>
      </trkpt>
      <trkpt lat="42.69745" lon="0.66826">
        <ele>2079.1</ele>
        <time>2018-08-08T18:30:57.000Z</time>
      </trkpt>
      <trkpt lat="42.69745" lon="0.66826">
        <ele>2079.1</ele>
        <time>2018-08-08T18:30:58.000Z</time>
      </trkpt>
      <trkpt lat="42.69745" lon="0.66826">
        <ele>2079.1</ele>
        <time>2018-08-08T18:30:59.000Z</time>
      </trkpt>
      <trkpt lat="42.69745" lon="0.66826">
        <ele>2079.1</ele>
        <time>2018-08-08T18:31:00.000Z</time>
      </trkpt>
      <trkpt lat="42.69745" lon="0.66826">
        <ele>2079.1</ele>
        <time>2018-08-08T18:31:01.000Z</time>
      </trkpt>
      <trkpt lat="42.69745" lon="0.66826">
        <ele>2079.1</ele>
        <time>2018-08-08T18:31:02.000Z</time>
      </trkpt>
      <trkpt lat="42.69745" lon="0.66826">
        <ele>2079.1</ele>
        <time>2018-08-08T18:31:03.000Z</time>
      </trkpt>
      <trkpt lat="42.69745" lon="0.66826">
        <ele>2079.1</ele>
        <time>2018-08-08T18:31:04.000Z</time>
      </trkpt>
      <trkpt lat="42.69745" lon="0.66826">
        <ele>2079.1</ele>
        <time>2018-08-08T18:31:05.000Z</time>
      </trkpt>
      <trkpt lat="42.69745" lon="0.66826">
        <ele>2079.1</ele>
        <time>2018-08-08T18:31:06.000Z</time>
      </trkpt>
      <trkpt lat="42.69745" lon="0.66826">
        <ele>2079.1</ele>
        <time>2018-08-08T18:31:07.000Z</time>
      </trkpt>
      <trkpt lat="42.69745" lon="0.66826">
        <ele>2079.1</ele>
        <time>2018-08-08T18:31:08.000Z</time>
      </trkpt>
      <trkpt lat="42.69745" lon="0.66826">
        <ele>2079.1</ele>
        <time>2018-08-08T18:31:09.000Z</time>
      </trkpt>
      <trkpt lat="42.69745" lon="0.66826">
        <ele>2079.1</ele>
        <time>2018-08-08T18:31:10.000Z</time>
      </trkpt>
      <trkpt lat="42.69745" lon="0.66826">
        <ele>2079.1</ele>
        <time>2018-08-08T18:31:11.000Z</time>
      </trkpt>
      <trkpt lat="42.69745" lon="0.66826">
        <ele>2079.1</ele>
        <time>2018-08-08T18:31:12.000Z</time>
      </trkpt>
      <trkpt lat="42.69745" lon="0.66826">
        <ele>2079.1</ele>
        <time>2018-08-08T18:31:13.000Z</time>
      </trkpt>
      <trkpt lat="42.69745" lon="0.66826">
        <ele>2079.1</ele>
        <time>2018-08-08T18:31:14.000Z</time>
      </trkpt>
      <trkpt lat="42.69745" lon="0.66826">
        <ele>2079.1</ele>
        <time>2018-08-08T18:31:15.000Z</time>
      </trkpt>
      <trkpt lat="42.69745" lon="0.66826">
        <ele>2079.1</ele>
        <time>2018-08-08T18:31:16.000Z</time>
      </trkpt>
      <trkpt lat="42.69745" lon="0.66826">
        <ele>2079.1</ele>
        <time>2018-08-08T18:31:17.000Z</time>
      </trkpt>
      <trkpt lat="42.69745" lon="0.66826">
        <ele>2079.1</ele>
        <time>2018-08-08T18:31:18.000Z</time>
      </trkpt>
      <trkpt lat="42.69745" lon="0.66826">
        <ele>2079.1</ele>
        <time>2018-08-08T18:31:19.000Z</time>
      </trkpt>
      <trkpt lat="42.69745" lon="0.66826">
        <ele>2079.1</ele>
        <time>2018-08-08T18:31:20.000Z</time>
      </trkpt>
      <trkpt lat="42.69745" lon="0.66826">
        <ele>2079.1</ele>
        <time>2018-08-08T18:31:21.000Z</time>
      </trkpt>
      <trkpt lat="42.69745" lon="0.66826">
        <ele>2079.1</ele>
        <time>2018-08-08T18:31:22.000Z</time>
      </trkpt>
      <trkpt lat="42.69745" lon="0.66826">
        <ele>2079.1</ele>
        <time>2018-08-08T18:31:23.000Z</time>
      </trkpt>
      <trkpt lat="42.69745" lon="0.66826">
        <ele>2079.1</ele>
        <time>2018-08-08T18:31:24.000Z</time>
      </trkpt>
      <trkpt lat="42.69745" lon="0.66826">
        <ele>2079.1</ele>
        <time>2018-08-08T18:31:25.000Z</time>
      </trkpt>
      <trkpt lat="42.69745" lon="0.66826">
        <ele>2079.1</ele>
        <time>2018-08-08T18:31:26.000Z</time>
      </trkpt>
      <trkpt lat="42.69745" lon="0.66826">
        <ele>2079.1</ele>
        <time>2018-08-08T18:31:27.000Z</time>
      </trkpt>
      <trkpt lat="42.69745" lon="0.66826">
        <ele>2079.1</ele>
        <time>2018-08-08T18:31:28.000Z</time>
      </trkpt>
      <trkpt lat="42.69745" lon="0.66826">
        <ele>2079.1</ele>
        <time>2018-08-08T18:31:29.000Z</time>
      </trkpt>
      <trkpt lat="42.69745" lon="0.66826">
        <ele>2079.1</ele>
        <time>2018-08-08T18:31:30.000Z</time>
      </trkpt>
      <trkpt lat="42.69745" lon="0.66826">
        <ele>2079.1</ele>
        <time>2018-08-08T18:31:31.000Z</time>
      </trkpt>
      <trkpt lat="42.69745" lon="0.66826">
        <ele>2079.1</ele>
        <time>2018-08-08T18:31:32.000Z</time>
      </trkpt>
      <trkpt lat="42.69745" lon="0.66826">
        <ele>2079.1</ele>
        <time>2018-08-08T18:31:33.000Z</time>
      </trkpt>
      <trkpt lat="42.69745" lon="0.66826">
        <ele>2079.1</ele>
        <time>2018-08-08T18:31:34.000Z</time>
      </trkpt>
      <trkpt lat="42.69745" lon="0.66826">
        <ele>2079.1</ele>
        <time>2018-08-08T18:31:35.000Z</time>
      </trkpt>
      <trkpt lat="42.69745" lon="0.66826">
        <ele>2079.1</ele>
        <time>2018-08-08T18:31:36.000Z</time>
      </trkpt>
      <trkpt lat="42.69745" lon="0.66826">
        <ele>2079.1</ele>
        <time>2018-08-08T18:31:37.000Z</time>
      </trkpt>
      <trkpt lat="42.69745" lon="0.66826">
        <ele>2079.1</ele>
        <time>2018-08-08T18:31:38.000Z</time>
      </trkpt>
      <trkpt lat="42.69745" lon="0.66826">
        <ele>2079.1</ele>
        <time>2018-08-08T18:31:39.000Z</time>
      </trkpt>
      <trkpt lat="42.69745" lon="0.66826">
        <ele>2079.1</ele>
        <time>2018-08-08T18:31:40.000Z</time>
      </trkpt>
      <trkpt lat="42.69745" lon="0.66826">
        <ele>2079.1</ele>
        <time>2018-08-08T18:31:41.000Z</time>
      </trkpt>
      <trkpt lat="42.69745" lon="0.66826">
        <ele>2079.1</ele>
        <time>2018-08-08T18:31:42.000Z</time>
      </trkpt>
      <trkpt lat="42.69745" lon="0.66826">
        <ele>2079.1</ele>
        <time>2018-08-08T18:31:43.000Z</time>
      </trkpt>
      <trkpt lat="42.69745" lon="0.66826">
        <ele>2079.1</ele>
        <time>2018-08-08T18:31:44.000Z</time>
      </trkpt>
      <trkpt lat="42.69745" lon="0.66826">
        <ele>2079.1</ele>
        <time>2018-08-08T18:31:45.000Z</time>
      </trkpt>
      <trkpt lat="42.69745" lon="0.66826">
        <ele>2079.1</ele>
        <time>2018-08-08T18:31:46.000Z</time>
      </trkpt>
      <trkpt lat="42.69745" lon="0.66826">
        <ele>2079.1</ele>
        <time>2018-08-08T18:31:47.000Z</time>
      </trkpt>
      <trkpt lat="42.69745" lon="0.66826">
        <ele>2079.1</ele>
        <time>2018-08-08T18:31:48.000Z</time>
      </trkpt>
      <trkpt lat="42.69745" lon="0.66826">
        <ele>2079.1</ele>
        <time>2018-08-08T18:31:49.000Z</time>
      </trkpt>
      <trkpt lat="42.69745" lon="0.66826">
        <ele>2079.1</ele>
        <time>2018-08-08T18:31:50.000Z</time>
      </trkpt>
      <trkpt lat="42.69745" lon="0.66826">
        <ele>2079.1</ele>
        <time>2018-08-08T18:31:51.000Z</time>
      </trkpt>
      <trkpt lat="42.69745" lon="0.66826">
        <ele>2079.1</ele>
        <time>2018-08-08T18:31:52.000Z</time>
      </trkpt>
      <trkpt lat="42.69745" lon="0.66826">
        <ele>2079.1</ele>
        <time>2018-08-08T18:31:53.000Z</time>
      </trkpt>
      <trkpt lat="42.69745" lon="0.66826">
        <ele>2079.1</ele>
        <time>2018-08-08T18:31:54.000Z</time>
      </trkpt>
      <trkpt lat="42.69745" lon="0.66826">
        <ele>2079.1</ele>
        <time>2018-08-08T18:31:55.000Z</time>
      </trkpt>
      <trkpt lat="42.69745" lon="0.66826">
        <ele>2079.1</ele>
        <time>2018-08-08T18:31:56.000Z</time>
      </trkpt>
      <trkpt lat="42.69745" lon="0.66826">
        <ele>2079.1</ele>
        <time>2018-08-08T18:31:57.000Z</time>
      </trkpt>
      <trkpt lat="42.69745" lon="0.66826">
        <ele>2079.1</ele>
        <time>2018-08-08T18:31:58.000Z</time>
      </trkpt>
      <trkpt lat="42.69745" lon="0.66826">
        <ele>2079.1</ele>
        <time>2018-08-08T18:31:59.000Z</time>
      </trkpt>
      <trkpt lat="42.69745" lon="0.66826">
        <ele>2079.1</ele>
        <time>2018-08-08T18:32:00.000Z</time>
      </trkpt>
      <trkpt lat="42.69745" lon="0.66826">
        <ele>2079.1</ele>
        <time>2018-08-08T18:32:01.000Z</time>
      </trkpt>
      <trkpt lat="42.69745" lon="0.66826">
        <ele>2079.1</ele>
        <time>2018-08-08T18:32:02.000Z</time>
      </trkpt>
      <trkpt lat="42.69745" lon="0.66826">
        <ele>2079.1</ele>
        <time>2018-08-08T18:32:03.000Z</time>
      </trkpt>
      <trkpt lat="42.69745" lon="0.66826">
        <ele>2079.1</ele>
        <time>2018-08-08T18:32:04.000Z</time>
      </trkpt>
      <trkpt lat="42.69745" lon="0.66826">
        <ele>2079.1</ele>
        <time>2018-08-08T18:32:05.000Z</time>
      </trkpt>
      <trkpt lat="42.69745" lon="0.66826">
        <ele>2079.1</ele>
        <time>2018-08-08T18:32:06.000Z</time>
      </trkpt>
      <trkpt lat="42.69745" lon="0.66826">
        <ele>2079.1</ele>
        <time>2018-08-08T18:32:07.000Z</time>
      </trkpt>
      <trkpt lat="42.69745" lon="0.66826">
        <ele>2079.1</ele>
        <time>2018-08-08T18:32:08.000Z</time>
      </trkpt>
      <trkpt lat="42.69745" lon="0.66826">
        <ele>2079.1</ele>
        <time>2018-08-08T18:32:09.000Z</time>
      </trkpt>
      <trkpt lat="42.69745" lon="0.66826">
        <ele>2079.1</ele>
        <time>2018-08-08T18:32:10.000Z</time>
      </trkpt>
      <trkpt lat="42.69745" lon="0.66826">
        <ele>2079.1</ele>
        <time>2018-08-08T18:32:11.000Z</time>
      </trkpt>
      <trkpt lat="42.69745" lon="0.66826">
        <ele>2079.1</ele>
        <time>2018-08-08T18:32:12.000Z</time>
      </trkpt>
      <trkpt lat="42.69745" lon="0.66826">
        <ele>2079.1</ele>
        <time>2018-08-08T18:32:13.000Z</time>
      </trkpt>
      <trkpt lat="42.69745" lon="0.66826">
        <ele>2079.1</ele>
        <time>2018-08-08T18:32:14.000Z</time>
      </trkpt>
      <trkpt lat="42.69745" lon="0.66826">
        <ele>2079.1</ele>
        <time>2018-08-08T18:32:15.000Z</time>
      </trkpt>
      <trkpt lat="42.69745" lon="0.66826">
        <ele>2079.1</ele>
        <time>2018-08-08T18:32:16.000Z</time>
      </trkpt>
      <trkpt lat="42.69745" lon="0.66826">
        <ele>2079.1</ele>
        <time>2018-08-08T18:32:17.000Z</time>
      </trkpt>
      <trkpt lat="42.69745" lon="0.66826">
        <ele>2079.1</ele>
        <time>2018-08-08T18:32:18.000Z</time>
      </trkpt>
      <trkpt lat="42.69745" lon="0.66826">
        <ele>2079.1</ele>
        <time>2018-08-08T18:32:19.000Z</time>
      </trkpt>
      <trkpt lat="42.69745" lon="0.66826">
        <ele>2079.1</ele>
        <time>2018-08-08T18:32:20.000Z</time>
      </trkpt>
      <trkpt lat="42.69745" lon="0.66826">
        <ele>2079.1</ele>
        <time>2018-08-08T18:32:21.000Z</time>
      </trkpt>
      <trkpt lat="42.69745" lon="0.66826">
        <ele>2079.1</ele>
        <time>2018-08-08T18:32:22.000Z</time>
      </trkpt>
      <trkpt lat="42.69745" lon="0.66826">
        <ele>2079.1</ele>
        <time>2018-08-08T18:32:23.000Z</time>
      </trkpt>
      <trkpt lat="42.69745" lon="0.66826">
        <ele>2079.1</ele>
        <time>2018-08-08T18:32:24.000Z</time>
      </trkpt>
      <trkpt lat="42.69745" lon="0.66826">
        <ele>2079.1</ele>
        <time>2018-08-08T18:32:25.000Z</time>
      </trkpt>
      <trkpt lat="42.69745" lon="0.66826">
        <ele>2079.1</ele>
        <time>2018-08-08T18:32:26.000Z</time>
      </trkpt>
      <trkpt lat="42.69745" lon="0.66826">
        <ele>2079.1</ele>
        <time>2018-08-08T18:32:27.000Z</time>
      </trkpt>
      <trkpt lat="42.69745" lon="0.66826">
        <ele>2079.1</ele>
        <time>2018-08-08T18:32:28.000Z</time>
      </trkpt>
      <trkpt lat="42.69745" lon="0.66826">
        <ele>2079.1</ele>
        <time>2018-08-08T18:32:29.000Z</time>
      </trkpt>
      <trkpt lat="42.69745" lon="0.66826">
        <ele>2079.1</ele>
        <time>2018-08-08T18:32:30.000Z</time>
      </trkpt>
      <trkpt lat="42.69745" lon="0.66826">
        <ele>2079.1</ele>
        <time>2018-08-08T18:32:31.000Z</time>
      </trkpt>
      <trkpt lat="42.69745" lon="0.66826">
        <ele>2079.1</ele>
        <time>2018-08-08T18:32:32.000Z</time>
      </trkpt>
      <trkpt lat="42.69745" lon="0.66826">
        <ele>2079.1</ele>
        <time>2018-08-08T18:32:33.000Z</time>
      </trkpt>
      <trkpt lat="42.69745" lon="0.66826">
        <ele>2079.1</ele>
        <time>2018-08-08T18:32:34.000Z</time>
      </trkpt>
      <trkpt lat="42.69745" lon="0.66826">
        <ele>2079.1</ele>
        <time>2018-08-08T18:32:35.000Z</time>
      </trkpt>
      <trkpt lat="42.69745" lon="0.66826">
        <ele>2079.1</ele>
        <time>2018-08-08T18:32:36.000Z</time>
      </trkpt>
      <trkpt lat="42.69745" lon="0.66826">
        <ele>2079.1</ele>
        <time>2018-08-08T18:32:37.000Z</time>
      </trkpt>
      <trkpt lat="42.69745" lon="0.66826">
        <ele>2079.1</ele>
        <time>2018-08-08T18:32:38.000Z</time>
      </trkpt>
      <trkpt lat="42.69745" lon="0.66826">
        <ele>2079.1</ele>
        <time>2018-08-08T18:32:39.000Z</time>
      </trkpt>
      <trkpt lat="42.69745" lon="0.66826">
        <ele>2079.1</ele>
        <time>2018-08-08T18:32:40.000Z</time>
      </trkpt>
      <trkpt lat="42.69745" lon="0.66826">
        <ele>2079.1</ele>
        <time>2018-08-08T18:32:41.000Z</time>
      </trkpt>
      <trkpt lat="42.69745" lon="0.66826">
        <ele>2079.1</ele>
        <time>2018-08-08T18:32:42.000Z</time>
      </trkpt>
      <trkpt lat="42.69745" lon="0.66826">
        <ele>2079.1</ele>
        <time>2018-08-08T18:32:43.000Z</time>
      </trkpt>
      <trkpt lat="42.69745" lon="0.66826">
        <ele>2079.1</ele>
        <time>2018-08-08T18:32:44.000Z</time>
      </trkpt>
      <trkpt lat="42.69745" lon="0.66826">
        <ele>2079.1</ele>
        <time>2018-08-08T18:32:45.000Z</time>
      </trkpt>
      <trkpt lat="42.69745" lon="0.66826">
        <ele>2079.1</ele>
        <time>2018-08-08T18:32:46.000Z</time>
      </trkpt>
      <trkpt lat="42.69745" lon="0.66826">
        <ele>2079.1</ele>
        <time>2018-08-08T18:32:47.000Z</time>
      </trkpt>
      <trkpt lat="42.69745" lon="0.66826">
        <ele>2079.1</ele>
        <time>2018-08-08T18:32:48.000Z</time>
      </trkpt>
      <trkpt lat="42.69745" lon="0.66826">
        <ele>2079.1</ele>
        <time>2018-08-08T18:32:49.000Z</time>
      </trkpt>
      <trkpt lat="42.69745" lon="0.66826">
        <ele>2079.1</ele>
        <time>2018-08-08T18:32:50.000Z</time>
      </trkpt>
      <trkpt lat="42.69745" lon="0.66826">
        <ele>2079.1</ele>
        <time>2018-08-08T18:32:51.000Z</time>
      </trkpt>
      <trkpt lat="42.69745" lon="0.66826">
        <ele>2079.1</ele>
        <time>2018-08-08T18:32:52.000Z</time>
      </trkpt>
      <trkpt lat="42.69745" lon="0.66826">
        <ele>2079.1</ele>
        <time>2018-08-08T18:32:53.000Z</time>
      </trkpt>
      <trkpt lat="42.69745" lon="0.66826">
        <ele>2079.1</ele>
        <time>2018-08-08T18:32:54.000Z</time>
      </trkpt>
      <trkpt lat="42.69745" lon="0.66826">
        <ele>2079.1</ele>
        <time>2018-08-08T18:32:55.000Z</time>
      </trkpt>
      <trkpt lat="42.69745" lon="0.66826">
        <ele>2079.1</ele>
        <time>2018-08-08T18:32:56.000Z</time>
      </trkpt>
      <trkpt lat="42.69745" lon="0.66826">
        <ele>2079.1</ele>
        <time>2018-08-08T18:32:57.000Z</time>
      </trkpt>
      <trkpt lat="42.69745" lon="0.66826">
        <ele>2079.1</ele>
        <time>2018-08-08T18:32:58.000Z</time>
      </trkpt>
      <trkpt lat="42.69745" lon="0.66826">
        <ele>2079.1</ele>
        <time>2018-08-08T18:32:59.000Z</time>
      </trkpt>
      <trkpt lat="42.69745" lon="0.66826">
        <ele>2079.1</ele>
        <time>2018-08-08T18:33:00.000Z</time>
      </trkpt>
      <trkpt lat="42.69745" lon="0.66826">
        <ele>2079.1</ele>
        <time>2018-08-08T18:33:01.000Z</time>
      </trkpt>
      <trkpt lat="42.69745" lon="0.66826">
        <ele>2079.1</ele>
        <time>2018-08-08T18:33:02.000Z</time>
      </trkpt>
      <trkpt lat="42.69745" lon="0.66826">
        <ele>2079.1</ele>
        <time>2018-08-08T18:33:03.000Z</time>
      </trkpt>
      <trkpt lat="42.69745" lon="0.66826">
        <ele>2079.1</ele>
        <time>2018-08-08T18:33:04.000Z</time>
      </trkpt>
      <trkpt lat="42.69745" lon="0.66826">
        <ele>2079.1</ele>
        <time>2018-08-08T18:33:05.000Z</time>
      </trkpt>
      <trkpt lat="42.69745" lon="0.66826">
        <ele>2079.1</ele>
        <time>2018-08-08T18:33:06.000Z</time>
      </trkpt>
      <trkpt lat="42.69745" lon="0.66826">
        <ele>2079.1</ele>
        <time>2018-08-08T18:33:07.000Z</time>
      </trkpt>
      <trkpt lat="42.69745" lon="0.66826">
        <ele>2079.1</ele>
        <time>2018-08-08T18:33:08.000Z</time>
      </trkpt>
      <trkpt lat="42.69745" lon="0.66826">
        <ele>2079.1</ele>
        <time>2018-08-08T18:33:09.000Z</time>
      </trkpt>
      <trkpt lat="42.69745" lon="0.66826">
        <ele>2079.1</ele>
        <time>2018-08-08T18:33:10.000Z</time>
      </trkpt>
      <trkpt lat="42.69745" lon="0.66826">
        <ele>2079.1</ele>
        <time>2018-08-08T18:33:11.000Z</time>
      </trkpt>
      <trkpt lat="42.69745" lon="0.66826">
        <ele>2079.1</ele>
        <time>2018-08-08T18:33:12.000Z</time>
      </trkpt>
      <trkpt lat="42.69745" lon="0.66826">
        <ele>2079.1</ele>
        <time>2018-08-08T18:33:13.000Z</time>
      </trkpt>
      <trkpt lat="42.69745" lon="0.66826">
        <ele>2079.1</ele>
        <time>2018-08-08T18:33:14.000Z</time>
      </trkpt>
      <trkpt lat="42.69745" lon="0.66826">
        <ele>2079.1</ele>
        <time>2018-08-08T18:33:15.000Z</time>
      </trkpt>
      <trkpt lat="42.69745" lon="0.66826">
        <ele>2079.1</ele>
        <time>2018-08-08T18:33:16.000Z</time>
      </trkpt>
      <trkpt lat="42.69745" lon="0.66826">
        <ele>2079.1</ele>
        <time>2018-08-08T18:33:17.000Z</time>
      </trkpt>
      <trkpt lat="42.69745" lon="0.66826">
        <ele>2079.1</ele>
        <time>2018-08-08T18:33:18.000Z</time>
      </trkpt>
      <trkpt lat="42.69745" lon="0.66826">
        <ele>2079.1</ele>
        <time>2018-08-08T18:33:19.000Z</time>
      </trkpt>
      <trkpt lat="42.69745" lon="0.66826">
        <ele>2079.1</ele>
        <time>2018-08-08T18:33:20.000Z</time>
      </trkpt>
      <trkpt lat="42.69745" lon="0.66826">
        <ele>2079.1</ele>
        <time>2018-08-08T18:33:21.000Z</time>
      </trkpt>
      <trkpt lat="42.69745" lon="0.66826">
        <ele>2079.1</ele>
        <time>2018-08-08T18:33:22.000Z</time>
      </trkpt>
      <trkpt lat="42.69745" lon="0.66826">
        <ele>2079.1</ele>
        <time>2018-08-08T18:33:23.000Z</time>
      </trkpt>
      <trkpt lat="42.69745" lon="0.66826">
        <ele>2079.1</ele>
        <time>2018-08-08T18:33:24.000Z</time>
      </trkpt>
      <trkpt lat="42.69745" lon="0.66826">
        <ele>2079.1</ele>
        <time>2018-08-08T18:33:25.000Z</time>
      </trkpt>
      <trkpt lat="42.69745" lon="0.66826">
        <ele>2079.1</ele>
        <time>2018-08-08T18:33:26.000Z</time>
      </trkpt>
      <trkpt lat="42.69745" lon="0.66826">
        <ele>2079.1</ele>
        <time>2018-08-08T18:33:27.000Z</time>
      </trkpt>
      <trkpt lat="42.69745" lon="0.66826">
        <ele>2079.1</ele>
        <time>2018-08-08T18:33:28.000Z</time>
      </trkpt>
      <trkpt lat="42.69745" lon="0.66826">
        <ele>2079.1</ele>
        <time>2018-08-08T18:33:29.000Z</time>
      </trkpt>
      <trkpt lat="42.69745" lon="0.66826">
        <ele>2079.1</ele>
        <time>2018-08-08T18:33:30.000Z</time>
      </trkpt>
      <trkpt lat="42.69745" lon="0.66826">
        <ele>2079.1</ele>
        <time>2018-08-08T18:33:31.000Z</time>
      </trkpt>
      <trkpt lat="42.69745" lon="0.66826">
        <ele>2079.1</ele>
        <time>2018-08-08T18:33:32.000Z</time>
      </trkpt>
      <trkpt lat="42.69745" lon="0.66826">
        <ele>2079.1</ele>
        <time>2018-08-08T18:33:33.000Z</time>
      </trkpt>
      <trkpt lat="42.69745" lon="0.66826">
        <ele>2079.1</ele>
        <time>2018-08-08T18:33:34.000Z</time>
      </trkpt>
      <trkpt lat="42.69745" lon="0.66826">
        <ele>2079.1</ele>
        <time>2018-08-08T18:33:35.000Z</time>
      </trkpt>
      <trkpt lat="42.69745" lon="0.66826">
        <ele>2079.1</ele>
        <time>2018-08-08T18:33:36.000Z</time>
      </trkpt>
      <trkpt lat="42.69745" lon="0.66826">
        <ele>2079.1</ele>
        <time>2018-08-08T18:33:37.000Z</time>
      </trkpt>
      <trkpt lat="42.69745" lon="0.66826">
        <ele>2079.1</ele>
        <time>2018-08-08T18:33:38.000Z</time>
      </trkpt>
      <trkpt lat="42.69745" lon="0.66826">
        <ele>2079.1</ele>
        <time>2018-08-08T18:33:39.000Z</time>
      </trkpt>
      <trkpt lat="42.69745" lon="0.66826">
        <ele>2079.1</ele>
        <time>2018-08-08T18:33:40.000Z</time>
      </trkpt>
      <trkpt lat="42.69745" lon="0.66826">
        <ele>2079.1</ele>
        <time>2018-08-08T18:33:41.000Z</time>
      </trkpt>
      <trkpt lat="42.69745" lon="0.66826">
        <ele>2079.1</ele>
        <time>2018-08-08T18:33:42.000Z</time>
      </trkpt>
      <trkpt lat="42.69745" lon="0.66826">
        <ele>2079.1</ele>
        <time>2018-08-08T18:33:43.000Z</time>
      </trkpt>
      <trkpt lat="42.69745" lon="0.66826">
        <ele>2079.1</ele>
        <time>2018-08-08T18:33:44.000Z</time>
      </trkpt>
      <trkpt lat="42.69745" lon="0.66826">
        <ele>2079.1</ele>
        <time>2018-08-08T18:33:45.000Z</time>
      </trkpt>
      <trkpt lat="42.69745" lon="0.66826">
        <ele>2079.1</ele>
        <time>2018-08-08T18:33:46.000Z</time>
      </trkpt>
      <trkpt lat="42.69745" lon="0.66826">
        <ele>2079.1</ele>
        <time>2018-08-08T18:33:47.000Z</time>
      </trkpt>
      <trkpt lat="42.69745" lon="0.66826">
        <ele>2079.1</ele>
        <time>2018-08-08T18:33:48.000Z</time>
      </trkpt>
      <trkpt lat="42.69745" lon="0.66826">
        <ele>2079.1</ele>
        <time>2018-08-08T18:33:49.000Z</time>
      </trkpt>
      <trkpt lat="42.69745" lon="0.66826">
        <ele>2079.1</ele>
        <time>2018-08-08T18:33:50.000Z</time>
      </trkpt>
      <trkpt lat="42.69745" lon="0.66826">
        <ele>2079.1</ele>
        <time>2018-08-08T18:33:51.000Z</time>
      </trkpt>
      <trkpt lat="42.69745" lon="0.66826">
        <ele>2079.1</ele>
        <time>2018-08-08T18:33:52.000Z</time>
      </trkpt>
      <trkpt lat="42.69745" lon="0.66826">
        <ele>2079.1</ele>
        <time>2018-08-08T18:33:53.000Z</time>
      </trkpt>
      <trkpt lat="42.69745" lon="0.66826">
        <ele>2079.1</ele>
        <time>2018-08-08T18:33:54.000Z</time>
      </trkpt>
      <trkpt lat="42.69745" lon="0.66826">
        <ele>2079.1</ele>
        <time>2018-08-08T18:33:55.000Z</time>
      </trkpt>
      <trkpt lat="42.69745" lon="0.66826">
        <ele>2079.1</ele>
        <time>2018-08-08T18:33:56.000Z</time>
      </trkpt>
      <trkpt lat="42.69745" lon="0.66826">
        <ele>2079.1</ele>
        <time>2018-08-08T18:33:57.000Z</time>
      </trkpt>
      <trkpt lat="42.69745" lon="0.66826">
        <ele>2079.1</ele>
        <time>2018-08-08T18:33:58.000Z</time>
      </trkpt>
      <trkpt lat="42.69745" lon="0.66826">
        <ele>2079.1</ele>
        <time>2018-08-08T18:33:59.000Z</time>
      </trkpt>
      <trkpt lat="42.69745" lon="0.66826">
        <ele>2079.1</ele>
        <time>2018-08-08T18:34:00.000Z</time>
      </trkpt>
      <trkpt lat="42.69745" lon="0.66826">
        <ele>2079.1</ele>
        <time>2018-08-08T18:34:01.000Z</time>
      </trkpt>
      <trkpt lat="42.69745" lon="0.66826">
        <ele>2079.1</ele>
        <time>2018-08-08T18:34:02.000Z</time>
      </trkpt>
      <trkpt lat="42.69745" lon="0.66826">
        <ele>2079.1</ele>
        <time>2018-08-08T18:34:03.000Z</time>
      </trkpt>
      <trkpt lat="42.69745" lon="0.66826">
        <ele>2079.1</ele>
        <time>2018-08-08T18:34:04.000Z</time>
      </trkpt>
      <trkpt lat="42.69745" lon="0.66826">
        <ele>2079.1</ele>
        <time>2018-08-08T18:34:05.000Z</time>
      </trkpt>
      <trkpt lat="42.69745" lon="0.66826">
        <ele>2079.1</ele>
        <time>2018-08-08T18:34:06.000Z</time>
      </trkpt>
      <trkpt lat="42.69745" lon="0.66826">
        <ele>2079.1</ele>
        <time>2018-08-08T18:34:07.000Z</time>
      </trkpt>
      <trkpt lat="42.69745" lon="0.66826">
        <ele>2079.1</ele>
        <time>2018-08-08T18:34:08.000Z</time>
      </trkpt>
      <trkpt lat="42.69745" lon="0.66826">
        <ele>2079.1</ele>
        <time>2018-08-08T18:34:09.000Z</time>
      </trkpt>
      <trkpt lat="42.69745" lon="0.66826">
        <ele>2079.1</ele>
        <time>2018-08-08T18:34:10.000Z</time>
      </trkpt>
      <trkpt lat="42.69745" lon="0.66826">
        <ele>2079.1</ele>
        <time>2018-08-08T18:34:11.000Z</time>
      </trkpt>
      <trkpt lat="42.69745" lon="0.66826">
        <ele>2079.1</ele>
        <time>2018-08-08T18:34:12.000Z</time>
      </trkpt>
      <trkpt lat="42.69745" lon="0.66826">
        <ele>2079.1</ele>
        <time>2018-08-08T18:34:13.000Z</time>
      </trkpt>
      <trkpt lat="42.69745" lon="0.66826">
        <ele>2079.1</ele>
        <time>2018-08-08T18:34:14.000Z</time>
      </trkpt>
      <trkpt lat="42.69745" lon="0.66826">
        <ele>2079.1</ele>
        <time>2018-08-08T18:34:15.000Z</time>
      </trkpt>
      <trkpt lat="42.69745" lon="0.66826">
        <ele>2079.1</ele>
        <time>2018-08-08T18:34:16.000Z</time>
      </trkpt>
      <trkpt lat="42.69745" lon="0.66826">
        <ele>2079.1</ele>
        <time>2018-08-08T18:34:17.000Z</time>
      </trkpt>
      <trkpt lat="42.69745" lon="0.66826">
        <ele>2079.1</ele>
        <time>2018-08-08T18:34:18.000Z</time>
      </trkpt>
      <trkpt lat="42.69745" lon="0.66826">
        <ele>2079.1</ele>
        <time>2018-08-08T18:34:19.000Z</time>
      </trkpt>
      <trkpt lat="42.69745" lon="0.66826">
        <ele>2079.1</ele>
        <time>2018-08-08T18:34:20.000Z</time>
      </trkpt>
      <trkpt lat="42.69745" lon="0.66826">
        <ele>2079.1</ele>
        <time>2018-08-08T18:34:21.000Z</time>
      </trkpt>
      <trkpt lat="42.69745" lon="0.66826">
        <ele>2079.1</ele>
        <time>2018-08-08T18:34:22.000Z</time>
      </trkpt>
      <trkpt lat="42.69745" lon="0.66826">
        <ele>2079.1</ele>
        <time>2018-08-08T18:34:23.000Z</time>
      </trkpt>
      <trkpt lat="42.69745" lon="0.66826">
        <ele>2079.1</ele>
        <time>2018-08-08T18:34:24.000Z</time>
      </trkpt>
      <trkpt lat="42.69745" lon="0.66826">
        <ele>2079.1</ele>
        <time>2018-08-08T18:34:25.000Z</time>
      </trkpt>
      <trkpt lat="42.69745" lon="0.66826">
        <ele>2079.1</ele>
        <time>2018-08-08T18:34:26.000Z</time>
      </trkpt>
      <trkpt lat="42.69745" lon="0.66826">
        <ele>2079.1</ele>
        <time>2018-08-08T18:34:27.000Z</time>
      </trkpt>
      <trkpt lat="42.69745" lon="0.66826">
        <ele>2079.1</ele>
        <time>2018-08-08T18:34:28.000Z</time>
      </trkpt>
      <trkpt lat="42.69745" lon="0.66826">
        <ele>2079.1</ele>
        <time>2018-08-08T18:34:29.000Z</time>
      </trkpt>
      <trkpt lat="42.69745" lon="0.66826">
        <ele>2079.1</ele>
        <time>2018-08-08T18:34:30.000Z</time>
      </trkpt>
      <trkpt lat="42.69745" lon="0.66826">
        <ele>2079.1</ele>
        <time>2018-08-08T18:34:31.000Z</time>
      </trkpt>
      <trkpt lat="42.69745" lon="0.66826">
        <ele>2079.1</ele>
        <time>2018-08-08T18:34:32.000Z</time>
      </trkpt>
      <trkpt lat="42.69745" lon="0.66826">
        <ele>2079.1</ele>
        <time>2018-08-08T18:34:33.000Z</time>
      </trkpt>
      <trkpt lat="42.69745" lon="0.66826">
        <ele>2079.1</ele>
        <time>2018-08-08T18:34:34.000Z</time>
      </trkpt>
      <trkpt lat="42.69745" lon="0.66826">
        <ele>2079.1</ele>
        <time>2018-08-08T18:34:35.000Z</time>
      </trkpt>
      <trkpt lat="42.69745" lon="0.66826">
        <ele>2079.1</ele>
        <time>2018-08-08T18:34:36.000Z</time>
      </trkpt>
      <trkpt lat="42.69745" lon="0.66826">
        <ele>2079.1</ele>
        <time>2018-08-08T18:34:37.000Z</time>
      </trkpt>
      <trkpt lat="42.69745" lon="0.66826">
        <ele>2079.1</ele>
        <time>2018-08-08T18:34:38.000Z</time>
      </trkpt>
      <trkpt lat="42.69745" lon="0.66826">
        <ele>2079.1</ele>
        <time>2018-08-08T18:34:39.000Z</time>
      </trkpt>
      <trkpt lat="42.69745" lon="0.66826">
        <ele>2079.1</ele>
        <time>2018-08-08T18:34:40.000Z</time>
      </trkpt>
      <trkpt lat="42.69745" lon="0.66826">
        <ele>2079.1</ele>
        <time>2018-08-08T18:34:41.000Z</time>
      </trkpt>
      <trkpt lat="42.69745" lon="0.66826">
        <ele>2079.1</ele>
        <time>2018-08-08T18:34:42.000Z</time>
      </trkpt>
      <trkpt lat="42.69745" lon="0.66826">
        <ele>2079.1</ele>
        <time>2018-08-08T18:34:43.000Z</time>
      </trkpt>
      <trkpt lat="42.69745" lon="0.66826">
        <ele>2079.1</ele>
        <time>2018-08-08T18:34:44.000Z</time>
      </trkpt>
      <trkpt lat="42.69745" lon="0.66826">
        <ele>2079.1</ele>
        <time>2018-08-08T18:34:45.000Z</time>
      </trkpt>
      <trkpt lat="42.69745" lon="0.66826">
        <ele>2079.1</ele>
        <time>2018-08-08T18:34:46.000Z</time>
      </trkpt>
      <trkpt lat="42.69745" lon="0.66826">
        <ele>2079.1</ele>
        <time>2018-08-08T18:34:47.000Z</time>
      </trkpt>
      <trkpt lat="42.69745" lon="0.66826">
        <ele>2079.1</ele>
        <time>2018-08-08T18:34:48.000Z</time>
      </trkpt>
      <trkpt lat="42.69745" lon="0.66826">
        <ele>2079.1</ele>
        <time>2018-08-08T18:34:49.000Z</time>
      </trkpt>
      <trkpt lat="42.69745" lon="0.66826">
        <ele>2079.1</ele>
        <time>2018-08-08T18:34:50.000Z</time>
      </trkpt>
      <trkpt lat="42.69745" lon="0.66826">
        <ele>2079.1</ele>
        <time>2018-08-08T18:34:51.000Z</time>
      </trkpt>
      <trkpt lat="42.69745" lon="0.66826">
        <ele>2079.1</ele>
        <time>2018-08-08T18:34:52.000Z</time>
      </trkpt>
      <trkpt lat="42.69745" lon="0.66826">
        <ele>2079.1</ele>
        <time>2018-08-08T18:34:53.000Z</time>
      </trkpt>
      <trkpt lat="42.69745" lon="0.66826">
        <ele>2079.1</ele>
        <time>2018-08-08T18:34:54.000Z</time>
      </trkpt>
      <trkpt lat="42.69745" lon="0.66826">
        <ele>2079.1</ele>
        <time>2018-08-08T18:34:55.000Z</time>
      </trkpt>
      <trkpt lat="42.69745" lon="0.66826">
        <ele>2079.1</ele>
        <time>2018-08-08T18:34:56.000Z</time>
      </trkpt>
      <trkpt lat="42.69745" lon="0.66826">
        <ele>2079.1</ele>
        <time>2018-08-08T18:34:57.000Z</time>
      </trkpt>
      <trkpt lat="42.69745" lon="0.66826">
        <ele>2079.1</ele>
        <time>2018-08-08T18:34:58.000Z</time>
      </trkpt>
      <trkpt lat="42.69745" lon="0.66826">
        <ele>2079.1</ele>
        <time>2018-08-08T18:34:59.000Z</time>
      </trkpt>
      <trkpt lat="42.69745" lon="0.66826">
        <ele>2079.1</ele>
        <time>2018-08-08T18:35:00.000Z</time>
      </trkpt>
      <trkpt lat="42.69745" lon="0.66826">
        <ele>2079.1</ele>
        <time>2018-08-08T18:35:01.000Z</time>
      </trkpt>
      <trkpt lat="42.69745" lon="0.66826">
        <ele>2079.1</ele>
        <time>2018-08-08T18:35:02.000Z</time>
      </trkpt>
      <trkpt lat="42.69745" lon="0.66826">
        <ele>2079.1</ele>
        <time>2018-08-08T18:35:03.000Z</time>
      </trkpt>
      <trkpt lat="42.69745" lon="0.66826">
        <ele>2079.1</ele>
        <time>2018-08-08T18:35:04.000Z</time>
      </trkpt>
      <trkpt lat="42.69745" lon="0.66826">
        <ele>2079.1</ele>
        <time>2018-08-08T18:35:05.000Z</time>
      </trkpt>
      <trkpt lat="42.69745" lon="0.66826">
        <ele>2079.1</ele>
        <time>2018-08-08T18:35:06.000Z</time>
      </trkpt>
      <trkpt lat="42.69745" lon="0.66826">
        <ele>2079.1</ele>
        <time>2018-08-08T18:35:07.000Z</time>
      </trkpt>
      <trkpt lat="42.69745" lon="0.66826">
        <ele>2079.1</ele>
        <time>2018-08-08T18:35:08.000Z</time>
      </trkpt>
      <trkpt lat="42.69745" lon="0.66826">
        <ele>2079.1</ele>
        <time>2018-08-08T18:35:09.000Z</time>
      </trkpt>
      <trkpt lat="42.69745" lon="0.66826">
        <ele>2079.1</ele>
        <time>2018-08-08T18:35:10.000Z</time>
      </trkpt>
      <trkpt lat="42.69745" lon="0.66826">
        <ele>2079.1</ele>
        <time>2018-08-08T18:35:11.000Z</time>
      </trkpt>
      <trkpt lat="42.69745" lon="0.66826">
        <ele>2079.1</ele>
        <time>2018-08-08T18:35:12.000Z</time>
      </trkpt>
      <trkpt lat="42.69745" lon="0.66826">
        <ele>2079.1</ele>
        <time>2018-08-08T18:35:13.000Z</time>
      </trkpt>
      <trkpt lat="42.69745" lon="0.66826">
        <ele>2079.1</ele>
        <time>2018-08-08T18:35:14.000Z</time>
      </trkpt>
      <trkpt lat="42.69745" lon="0.66826">
        <ele>2079.1</ele>
        <time>2018-08-08T18:35:15.000Z</time>
      </trkpt>
      <trkpt lat="42.69745" lon="0.66826">
        <ele>2079.1</ele>
        <time>2018-08-08T18:35:16.000Z</time>
      </trkpt>
      <trkpt lat="42.69745" lon="0.66826">
        <ele>2079.1</ele>
        <time>2018-08-08T18:35:17.000Z</time>
      </trkpt>
      <trkpt lat="42.69745" lon="0.66826">
        <ele>2079.1</ele>
        <time>2018-08-08T18:35:18.000Z</time>
      </trkpt>
      <trkpt lat="42.69745" lon="0.66826">
        <ele>2079.1</ele>
        <time>2018-08-08T18:35:19.000Z</time>
      </trkpt>
      <trkpt lat="42.69745" lon="0.66826">
        <ele>2079.1</ele>
        <time>2018-08-08T18:35:20.000Z</time>
      </trkpt>
      <trkpt lat="42.69745" lon="0.66826">
        <ele>2079.1</ele>
        <time>2018-08-08T18:35:21.000Z</time>
      </trkpt>
      <trkpt lat="42.69745" lon="0.66826">
        <ele>2079.1</ele>
        <time>2018-08-08T18:35:22.000Z</time>
      </trkpt>
      <trkpt lat="42.69745" lon="0.66826">
        <ele>2079.1</ele>
        <time>2018-08-08T18:35:23.000Z</time>
      </trkpt>
      <trkpt lat="42.69745" lon="0.66826">
        <ele>2079.1</ele>
        <time>2018-08-08T18:35:24.000Z</time>
      </trkpt>
      <trkpt lat="42.69745" lon="0.66826">
        <ele>2079.1</ele>
        <time>2018-08-08T18:35:25.000Z</time>
      </trkpt>
      <trkpt lat="42.69745" lon="0.66826">
        <ele>2079.1</ele>
        <time>2018-08-08T18:35:26.000Z</time>
      </trkpt>
      <trkpt lat="42.69745" lon="0.66826">
        <ele>2079.1</ele>
        <time>2018-08-08T18:35:27.000Z</time>
      </trkpt>
      <trkpt lat="42.69745" lon="0.66826">
        <ele>2079.1</ele>
        <time>2018-08-08T18:35:28.000Z</time>
      </trkpt>
      <trkpt lat="42.69745" lon="0.66826">
        <ele>2079.1</ele>
        <time>2018-08-08T18:35:29.000Z</time>
      </trkpt>
      <trkpt lat="42.69745" lon="0.66826">
        <ele>2079.1</ele>
        <time>2018-08-08T18:35:30.000Z</time>
      </trkpt>
      <trkpt lat="42.69745" lon="0.66826">
        <ele>2079.1</ele>
        <time>2018-08-08T18:35:31.000Z</time>
      </trkpt>
      <trkpt lat="42.69745" lon="0.66826">
        <ele>2079.1</ele>
        <time>2018-08-08T18:35:32.000Z</time>
      </trkpt>
      <trkpt lat="42.69745" lon="0.66826">
        <ele>2079.1</ele>
        <time>2018-08-08T18:35:33.000Z</time>
      </trkpt>
      <trkpt lat="42.69745" lon="0.66826">
        <ele>2079.1</ele>
        <time>2018-08-08T18:35:34.000Z</time>
      </trkpt>
      <trkpt lat="42.69745" lon="0.66826">
        <ele>2079.1</ele>
        <time>2018-08-08T18:35:35.000Z</time>
      </trkpt>
      <trkpt lat="42.69745" lon="0.66826">
        <ele>2079.1</ele>
        <time>2018-08-08T18:35:36.000Z</time>
      </trkpt>
      <trkpt lat="42.69745" lon="0.66826">
        <ele>2079.1</ele>
        <time>2018-08-08T18:35:37.000Z</time>
      </trkpt>
      <trkpt lat="42.69745" lon="0.66826">
        <ele>2079.1</ele>
        <time>2018-08-08T18:35:38.000Z</time>
      </trkpt>
      <trkpt lat="42.69745" lon="0.66826">
        <ele>2079.1</ele>
        <time>2018-08-08T18:35:39.000Z</time>
      </trkpt>
      <trkpt lat="42.69745" lon="0.66826">
        <ele>2079.1</ele>
        <time>2018-08-08T18:35:40.000Z</time>
      </trkpt>
      <trkpt lat="42.69745" lon="0.66826">
        <ele>2079.1</ele>
        <time>2018-08-08T18:35:41.000Z</time>
      </trkpt>
      <trkpt lat="42.69745" lon="0.66826">
        <ele>2079.1</ele>
        <time>2018-08-08T18:35:42.000Z</time>
      </trkpt>
      <trkpt lat="42.69745" lon="0.66826">
        <ele>2079.1</ele>
        <time>2018-08-08T18:35:43.000Z</time>
      </trkpt>
      <trkpt lat="42.69745" lon="0.66826">
        <ele>2079.1</ele>
        <time>2018-08-08T18:35:44.000Z</time>
      </trkpt>
      <trkpt lat="42.69745" lon="0.66826">
        <ele>2079.1</ele>
        <time>2018-08-08T18:35:45.000Z</time>
      </trkpt>
      <trkpt lat="42.69745" lon="0.66826">
        <ele>2079.1</ele>
        <time>2018-08-08T18:35:46.000Z</time>
      </trkpt>
      <trkpt lat="42.69745" lon="0.66826">
        <ele>2079.1</ele>
        <time>2018-08-08T18:35:47.000Z</time>
      </trkpt>
      <trkpt lat="42.69745" lon="0.66826">
        <ele>2079.1</ele>
        <time>2018-08-08T18:35:48.000Z</time>
      </trkpt>
      <trkpt lat="42.69745" lon="0.66826">
        <ele>2079.1</ele>
        <time>2018-08-08T18:35:49.000Z</time>
      </trkpt>
      <trkpt lat="42.69745" lon="0.66826">
        <ele>2079.1</ele>
        <time>2018-08-08T18:35:50.000Z</time>
      </trkpt>
      <trkpt lat="42.69745" lon="0.66826">
        <ele>2079.1</ele>
        <time>2018-08-08T18:35:51.000Z</time>
      </trkpt>
      <trkpt lat="42.69745" lon="0.66826">
        <ele>2079.1</ele>
        <time>2018-08-08T18:35:52.000Z</time>
      </trkpt>
      <trkpt lat="42.69745" lon="0.66826">
        <ele>2079.1</ele>
        <time>2018-08-08T18:35:53.000Z</time>
      </trkpt>
      <trkpt lat="42.69745" lon="0.66826">
        <ele>2079.1</ele>
        <time>2018-08-08T18:35:54.000Z</time>
      </trkpt>
      <trkpt lat="42.69745" lon="0.66826">
        <ele>2079.1</ele>
        <time>2018-08-08T18:35:55.000Z</time>
      </trkpt>
      <trkpt lat="42.69745" lon="0.66826">
        <ele>2079.1</ele>
        <time>2018-08-08T18:35:56.000Z</time>
      </trkpt>
      <trkpt lat="42.69745" lon="0.66826">
        <ele>2079.1</ele>
        <time>2018-08-08T18:35:57.000Z</time>
      </trkpt>
      <trkpt lat="42.69745" lon="0.66826">
        <ele>2079.1</ele>
        <time>2018-08-08T18:35:58.000Z</time>
      </trkpt>
      <trkpt lat="42.69745" lon="0.66826">
        <ele>2079.1</ele>
        <time>2018-08-08T18:35:59.000Z</time>
      </trkpt>
      <trkpt lat="42.69745" lon="0.66826">
        <ele>2079.1</ele>
        <time>2018-08-08T18:36:00.000Z</time>
      </trkpt>
      <trkpt lat="42.69745" lon="0.66826">
        <ele>2079.1</ele>
        <time>2018-08-08T18:36:01.000Z</time>
      </trkpt>
      <trkpt lat="42.69745" lon="0.66826">
        <ele>2079.1</ele>
        <time>2018-08-08T18:36:02.000Z</time>
      </trkpt>
      <trkpt lat="42.69745" lon="0.66826">
        <ele>2079.1</ele>
        <time>2018-08-08T18:36:03.000Z</time>
      </trkpt>
      <trkpt lat="42.69745" lon="0.66826">
        <ele>2079.1</ele>
        <time>2018-08-08T18:36:04.000Z</time>
      </trkpt>
      <trkpt lat="42.69745" lon="0.66826">
        <ele>2079.1</ele>
        <time>2018-08-08T18:36:05.000Z</time>
      </trkpt>
      <trkpt lat="42.69745" lon="0.66826">
        <ele>2079.1</ele>
        <time>2018-08-08T18:36:06.000Z</time>
      </trkpt>
      <trkpt lat="42.69744" lon="0.66826">
        <ele>2079.2</ele>
        <time>2018-08-08T18:36:07.000Z</time>
      </trkpt>
      <trkpt lat="42.69744" lon="0.66826">
        <ele>2079.2</ele>
        <time>2018-08-08T18:36:08.000Z</time>
      </trkpt>
      <trkpt lat="42.69744" lon="0.66826">
        <ele>2079.2</ele>
        <time>2018-08-08T18:36:09.000Z</time>
      </trkpt>
      <trkpt lat="42.69744" lon="0.66826">
        <ele>2079.2</ele>
        <time>2018-08-08T18:36:10.000Z</time>
      </trkpt>
      <trkpt lat="42.69744" lon="0.66827">
        <ele>2079.2</ele>
        <time>2018-08-08T18:36:11.000Z</time>
      </trkpt>
      <trkpt lat="42.69744" lon="0.66827">
        <ele>2079.2</ele>
        <time>2018-08-08T18:36:12.000Z</time>
      </trkpt>
      <trkpt lat="42.69744" lon="0.66827">
        <ele>2079.2</ele>
        <time>2018-08-08T18:36:13.000Z</time>
      </trkpt>
      <trkpt lat="42.69744" lon="0.66827">
        <ele>2079.2</ele>
        <time>2018-08-08T18:36:14.000Z</time>
      </trkpt>
      <trkpt lat="42.69744" lon="0.66827">
        <ele>2079.2</ele>
        <time>2018-08-08T18:36:15.000Z</time>
      </trkpt>
      <trkpt lat="42.69744" lon="0.66827">
        <ele>2079.2</ele>
        <time>2018-08-08T18:36:16.000Z</time>
      </trkpt>
      <trkpt lat="42.69744" lon="0.66827">
        <ele>2079.2</ele>
        <time>2018-08-08T18:36:17.000Z</time>
      </trkpt>
      <trkpt lat="42.69744" lon="0.66827">
        <ele>2079.2</ele>
        <time>2018-08-08T18:36:18.000Z</time>
      </trkpt>
      <trkpt lat="42.69744" lon="0.66827">
        <ele>2079.2</ele>
        <time>2018-08-08T18:36:19.000Z</time>
      </trkpt>
      <trkpt lat="42.69744" lon="0.66827">
        <ele>2079.2</ele>
        <time>2018-08-08T18:36:20.000Z</time>
      </trkpt>
      <trkpt lat="42.69744" lon="0.66827">
        <ele>2079.2</ele>
        <time>2018-08-08T18:36:21.000Z</time>
      </trkpt>
      <trkpt lat="42.69744" lon="0.66827">
        <ele>2079.3</ele>
        <time>2018-08-08T18:36:22.000Z</time>
      </trkpt>
      <trkpt lat="42.69744" lon="0.66827">
        <ele>2079.3</ele>
        <time>2018-08-08T18:36:23.000Z</time>
      </trkpt>
      <trkpt lat="42.69744" lon="0.66827">
        <ele>2079.3</ele>
        <time>2018-08-08T18:36:24.000Z</time>
      </trkpt>
      <trkpt lat="42.69744" lon="0.66827">
        <ele>2079.3</ele>
        <time>2018-08-08T18:36:25.000Z</time>
      </trkpt>
      <trkpt lat="42.69744" lon="0.66827">
        <ele>2079.3</ele>
        <time>2018-08-08T18:36:26.000Z</time>
      </trkpt>
      <trkpt lat="42.69744" lon="0.66828">
        <ele>2079.3</ele>
        <time>2018-08-08T18:36:27.000Z</time>
      </trkpt>
      <trkpt lat="42.69744" lon="0.66828">
        <ele>2079.3</ele>
        <time>2018-08-08T18:36:28.000Z</time>
      </trkpt>
      <trkpt lat="42.69744" lon="0.66828">
        <ele>2079.3</ele>
        <time>2018-08-08T18:36:29.000Z</time>
      </trkpt>
      <trkpt lat="42.69744" lon="0.66828">
        <ele>2079.3</ele>
        <time>2018-08-08T18:36:30.000Z</time>
      </trkpt>
      <trkpt lat="42.69744" lon="0.66828">
        <ele>2079.3</ele>
        <time>2018-08-08T18:36:31.000Z</time>
      </trkpt>
      <trkpt lat="42.69744" lon="0.66828">
        <ele>2079.3</ele>
        <time>2018-08-08T18:36:32.000Z</time>
      </trkpt>
      <trkpt lat="42.69744" lon="0.66828">
        <ele>2079.3</ele>
        <time>2018-08-08T18:36:33.000Z</time>
      </trkpt>
      <trkpt lat="42.69744" lon="0.66828">
        <ele>2079.3</ele>
        <time>2018-08-08T18:36:34.000Z</time>
      </trkpt>
      <trkpt lat="42.69744" lon="0.66828">
        <ele>2079.3</ele>
        <time>2018-08-08T18:36:35.000Z</time>
      </trkpt>
      <trkpt lat="42.69744" lon="0.66828">
        <ele>2079.3</ele>
        <time>2018-08-08T18:36:36.000Z</time>
      </trkpt>
      <trkpt lat="42.69744" lon="0.66828">
        <ele>2079.3</ele>
        <time>2018-08-08T18:36:37.000Z</time>
      </trkpt>
      <trkpt lat="42.69744" lon="0.66828">
        <ele>2079.3</ele>
        <time>2018-08-08T18:36:38.000Z</time>
      </trkpt>
      <trkpt lat="42.69744" lon="0.66828">
        <ele>2079.3</ele>
        <time>2018-08-08T18:36:39.000Z</time>
      </trkpt>
      <trkpt lat="42.69744" lon="0.66828">
        <ele>2079.3</ele>
        <time>2018-08-08T18:36:40.000Z</time>
      </trkpt>
      <trkpt lat="42.69744" lon="0.66828">
        <ele>2079.3</ele>
        <time>2018-08-08T18:36:41.000Z</time>
      </trkpt>
      <trkpt lat="42.69744" lon="0.66828">
        <ele>2079.3</ele>
        <time>2018-08-08T18:36:42.000Z</time>
      </trkpt>
      <trkpt lat="42.69744" lon="0.66828">
        <ele>2079.3</ele>
        <time>2018-08-08T18:36:43.000Z</time>
      </trkpt>
      <trkpt lat="42.69744" lon="0.66828">
        <ele>2079.3</ele>
        <time>2018-08-08T18:36:44.000Z</time>
      </trkpt>
      <trkpt lat="42.69744" lon="0.66828">
        <ele>2079.3</ele>
        <time>2018-08-08T18:36:45.000Z</time>
      </trkpt>
      <trkpt lat="42.69744" lon="0.66828">
        <ele>2079.3</ele>
        <time>2018-08-08T18:36:46.000Z</time>
      </trkpt>
      <trkpt lat="42.69744" lon="0.66828">
        <ele>2079.3</ele>
        <time>2018-08-08T18:36:47.000Z</time>
      </trkpt>
      <trkpt lat="42.69744" lon="0.66828">
        <ele>2079.3</ele>
        <time>2018-08-08T18:36:48.000Z</time>
      </trkpt>
      <trkpt lat="42.69744" lon="0.66828">
        <ele>2079.3</ele>
        <time>2018-08-08T18:36:49.000Z</time>
      </trkpt>
      <trkpt lat="42.69744" lon="0.66828">
        <ele>2079.3</ele>
        <time>2018-08-08T18:36:50.000Z</time>
      </trkpt>
      <trkpt lat="42.69744" lon="0.66828">
        <ele>2079.3</ele>
        <time>2018-08-08T18:36:51.000Z</time>
      </trkpt>
    </trkseg>
  </trk>
</gpx>